<?xml version="1.0" encoding="UTF-8"?>
<gpx version="1.1" creator="https://www.youtrack.es" xsi:schemaLocation="http://www.topografix.com/GPX/1/1 http://www.topografix.com/GPX/1/1/gpx.xsd http://www.garmin.com/xmlschemas/GpxExtensions/v3 http://www.garmin.com/xmlschemas/GpxExtensionsv3.xsd http://www.garmin.com/xmlschemas/TrackPointExtension/v1 http://www.garmin.com/xmlschemas/TrackPointExtensionv1.xsd" xmlns:gpxtpx="http://www.garmin.com/xmlschemas/TrackPointExtension/v1" xmlns:gpxx="http://www.garmin.com/xmlschemas/GpxExtensions/v3" xmlns:xsi="http://www.w3.org/2001/XMLSchema-instance">
  <metadata>
    <link href="https://www.youtrack.es">
      <text>YouTrack.es</text>
    </link>
    <time>2026-05-09T03:31:29Z</time>
  </metadata>
  <trk>
    <src>https://www.youtrack.es</src>
    <link href="https://www.youtrack.es/ruta/4830-unidos">
      <text>YouTrack.es</text>
    </link>
    <trkseg>
      <trkpt lat="37.389733" lon="-5.919788">
        <ele>24.868</ele>
        <time>2016-09-01T04:13:41Z</time>
      </trkpt>
      <trkpt lat="37.389737" lon="-5.919781">
        <ele>24.842</ele>
        <time>2016-09-01T04:13:42Z</time>
      </trkpt>
      <trkpt lat="37.389789" lon="-5.919690">
        <ele>24.826</ele>
        <time>2016-09-01T04:13:54Z</time>
      </trkpt>
      <trkpt lat="37.389823" lon="-5.919601">
        <ele>24.808</ele>
        <time>2016-09-01T04:13:58Z</time>
      </trkpt>
      <trkpt lat="37.390043" lon="-5.919426">
        <ele>25.069</ele>
        <time>2016-09-01T04:14:06Z</time>
      </trkpt>
      <trkpt lat="37.390129" lon="-5.919398">
        <ele>25.130</ele>
        <time>2016-09-01T04:14:08Z</time>
      </trkpt>
      <trkpt lat="37.390508" lon="-5.919466">
        <ele>25.471</ele>
        <time>2016-09-01T04:14:16Z</time>
      </trkpt>
      <trkpt lat="37.390598" lon="-5.919538">
        <ele>25.790</ele>
        <time>2016-09-01T04:14:18Z</time>
      </trkpt>
      <trkpt lat="37.390812" lon="-5.919740">
        <ele>26.554</ele>
        <time>2016-09-01T04:14:23Z</time>
      </trkpt>
      <trkpt lat="37.391101" lon="-5.919838">
        <ele>26.127</ele>
        <time>2016-09-01T04:14:29Z</time>
      </trkpt>
      <trkpt lat="37.391568" lon="-5.919776">
        <ele>26.076</ele>
        <time>2016-09-01T04:14:38Z</time>
      </trkpt>
      <trkpt lat="37.391832" lon="-5.919768">
        <ele>25.925</ele>
        <time>2016-09-01T04:14:43Z</time>
      </trkpt>
      <trkpt lat="37.392142" lon="-5.919561">
        <ele>26.113</ele>
        <time>2016-09-01T04:14:51Z</time>
      </trkpt>
      <trkpt lat="37.392240" lon="-5.919691">
        <ele>26.043</ele>
        <time>2016-09-01T04:14:56Z</time>
      </trkpt>
      <trkpt lat="37.392433" lon="-5.919880">
        <ele>25.907</ele>
        <time>2016-09-01T04:15:02Z</time>
      </trkpt>
      <trkpt lat="37.392679" lon="-5.919978">
        <ele>26.008</ele>
        <time>2016-09-01T04:15:07Z</time>
      </trkpt>
      <trkpt lat="37.393415" lon="-5.920472">
        <ele>26.424</ele>
        <time>2016-09-01T04:15:22Z</time>
      </trkpt>
      <trkpt lat="37.394055" lon="-5.920915">
        <ele>28.075</ele>
        <time>2016-09-01T04:15:35Z</time>
      </trkpt>
      <trkpt lat="37.394203" lon="-5.920938">
        <ele>28.156</ele>
        <time>2016-09-01T04:15:39Z</time>
      </trkpt>
      <trkpt lat="37.394314" lon="-5.920891">
        <ele>28.475</ele>
        <time>2016-09-01T04:15:42Z</time>
      </trkpt>
      <trkpt lat="37.394432" lon="-5.921135">
        <ele>29.289</ele>
        <time>2016-09-01T04:15:49Z</time>
      </trkpt>
      <trkpt lat="37.394612" lon="-5.921349">
        <ele>29.682</ele>
        <time>2016-09-01T04:15:54Z</time>
      </trkpt>
      <trkpt lat="37.395426" lon="-5.921938">
        <ele>28.281</ele>
        <time>2016-09-01T04:16:10Z</time>
      </trkpt>
      <trkpt lat="37.395525" lon="-5.921992">
        <ele>27.970</ele>
        <time>2016-09-01T04:16:12Z</time>
      </trkpt>
      <trkpt lat="37.396175" lon="-5.922418">
        <ele>25.472</ele>
        <time>2016-09-01T04:16:25Z</time>
      </trkpt>
      <trkpt lat="37.396511" lon="-5.922488">
        <ele>26.313</ele>
        <time>2016-09-01T04:16:31Z</time>
      </trkpt>
      <trkpt lat="37.396730" lon="-5.922456">
        <ele>27.114</ele>
        <time>2016-09-01T04:16:35Z</time>
      </trkpt>
      <trkpt lat="37.396935" lon="-5.922546">
        <ele>27.708</ele>
        <time>2016-09-01T04:16:39Z</time>
      </trkpt>
      <trkpt lat="37.397115" lon="-5.922862">
        <ele>28.380</ele>
        <time>2016-09-01T04:16:45Z</time>
      </trkpt>
      <trkpt lat="37.397160" lon="-5.922991">
        <ele>28.561</ele>
        <time>2016-09-01T04:16:47Z</time>
      </trkpt>
      <trkpt lat="37.397251" lon="-5.923170">
        <ele>28.842</ele>
        <time>2016-09-01T04:16:50Z</time>
      </trkpt>
      <trkpt lat="37.397816" lon="-5.923614">
        <ele>29.251</ele>
        <time>2016-09-01T04:17:02Z</time>
      </trkpt>
      <trkpt lat="37.398572" lon="-5.924129">
        <ele>29.165</ele>
        <time>2016-09-01T04:17:17Z</time>
      </trkpt>
      <trkpt lat="37.399221" lon="-5.924639">
        <ele>28.948</ele>
        <time>2016-09-01T04:17:30Z</time>
      </trkpt>
      <trkpt lat="37.399391" lon="-5.924746">
        <ele>27.727</ele>
        <time>2016-09-01T04:17:33Z</time>
      </trkpt>
      <trkpt lat="37.399612" lon="-5.924764">
        <ele>27.386</ele>
        <time>2016-09-01T04:17:37Z</time>
      </trkpt>
      <trkpt lat="37.399734" lon="-5.924742">
        <ele>27.383</ele>
        <time>2016-09-01T04:17:40Z</time>
      </trkpt>
      <trkpt lat="37.400025" lon="-5.925095">
        <ele>25.925</ele>
        <time>2016-09-01T04:17:49Z</time>
      </trkpt>
      <trkpt lat="37.400087" lon="-5.925166">
        <ele>25.317</ele>
        <time>2016-09-01T04:17:51Z</time>
      </trkpt>
      <trkpt lat="37.400199" lon="-5.925285">
        <ele>25.108</ele>
        <time>2016-09-01T04:17:54Z</time>
      </trkpt>
      <trkpt lat="37.400356" lon="-5.925465">
        <ele>24.851</ele>
        <time>2016-09-01T04:17:58Z</time>
      </trkpt>
      <trkpt lat="37.400954" lon="-5.925877">
        <ele>26.092</ele>
        <time>2016-09-01T04:18:11Z</time>
      </trkpt>
      <trkpt lat="37.400953" lon="-5.925953">
        <ele>26.053</ele>
        <time>2016-09-01T04:18:15Z</time>
      </trkpt>
      <trkpt lat="37.400854" lon="-5.926258">
        <ele>27.352</ele>
        <time>2016-09-01T04:18:23Z</time>
      </trkpt>
      <trkpt lat="37.400954" lon="-5.926423">
        <ele>27.996</ele>
        <time>2016-09-01T04:18:27Z</time>
      </trkpt>
      <trkpt lat="37.401256" lon="-5.926670">
        <ele>27.619</ele>
        <time>2016-09-01T04:18:34Z</time>
      </trkpt>
      <trkpt lat="37.401644" lon="-5.926989">
        <ele>26.968</ele>
        <time>2016-09-01T04:18:44Z</time>
      </trkpt>
      <trkpt lat="37.401733" lon="-5.927056">
        <ele>26.487</ele>
        <time>2016-09-01T04:18:46Z</time>
      </trkpt>
      <trkpt lat="37.402169" lon="-5.927353">
        <ele>26.218</ele>
        <time>2016-09-01T04:18:55Z</time>
      </trkpt>
      <trkpt lat="37.402621" lon="-5.927702">
        <ele>25.998</ele>
        <time>2016-09-01T04:19:05Z</time>
      </trkpt>
      <trkpt lat="37.403290" lon="-5.928137">
        <ele>23.717</ele>
        <time>2016-09-01T04:19:19Z</time>
      </trkpt>
      <trkpt lat="37.403334" lon="-5.928170">
        <ele>23.708</ele>
        <time>2016-09-01T04:19:20Z</time>
      </trkpt>
      <trkpt lat="37.403563" lon="-5.928706">
        <ele>21.714</ele>
        <time>2016-09-01T04:19:31Z</time>
      </trkpt>
      <trkpt lat="37.403729" lon="-5.928554">
        <ele>21.415</ele>
        <time>2016-09-01T04:19:37Z</time>
      </trkpt>
      <trkpt lat="37.403801" lon="-5.928516">
        <ele>21.326</ele>
        <time>2016-09-01T04:19:39Z</time>
      </trkpt>
      <trkpt lat="37.403920" lon="-5.928497">
        <ele>21.155</ele>
        <time>2016-09-01T04:19:42Z</time>
      </trkpt>
      <trkpt lat="37.404483" lon="-5.928924">
        <ele>17.429</ele>
        <time>2016-09-01T04:19:55Z</time>
      </trkpt>
      <trkpt lat="37.404994" lon="-5.929796">
        <ele>21.562</ele>
        <time>2016-09-01T04:20:07Z</time>
      </trkpt>
      <trkpt lat="37.405371" lon="-5.930791">
        <ele>20.031</ele>
        <time>2016-09-01T04:20:19Z</time>
      </trkpt>
      <trkpt lat="37.405585" lon="-5.931487">
        <ele>19.250</ele>
        <time>2016-09-01T04:20:28Z</time>
      </trkpt>
      <trkpt lat="37.405603" lon="-5.931782">
        <ele>19.358</ele>
        <time>2016-09-01T04:20:32Z</time>
      </trkpt>
      <trkpt lat="37.405554" lon="-5.932057">
        <ele>19.652</ele>
        <time>2016-09-01T04:20:36Z</time>
      </trkpt>
      <trkpt lat="37.405334" lon="-5.932711">
        <ele>19.117</ele>
        <time>2016-09-01T04:20:46Z</time>
      </trkpt>
      <trkpt lat="37.405069" lon="-5.933620">
        <ele>18.708</ele>
        <time>2016-09-01T04:21:01Z</time>
      </trkpt>
      <trkpt lat="37.404872" lon="-5.933734">
        <ele>18.858</ele>
        <time>2016-09-01T04:21:06Z</time>
      </trkpt>
      <trkpt lat="37.404774" lon="-5.933761">
        <ele>18.979</ele>
        <time>2016-09-01T04:21:08Z</time>
      </trkpt>
      <trkpt lat="37.404686" lon="-5.933818">
        <ele>18.880</ele>
        <time>2016-09-01T04:21:10Z</time>
      </trkpt>
      <trkpt lat="37.404459" lon="-5.934251">
        <ele>18.729</ele>
        <time>2016-09-01T04:21:18Z</time>
      </trkpt>
      <trkpt lat="37.404396" lon="-5.934355">
        <ele>18.773</ele>
        <time>2016-09-01T04:21:20Z</time>
      </trkpt>
      <trkpt lat="37.404333" lon="-5.934615">
        <ele>18.756</ele>
        <time>2016-09-01T04:21:24Z</time>
      </trkpt>
      <trkpt lat="37.404337" lon="-5.934752">
        <ele>18.975</ele>
        <time>2016-09-01T04:21:26Z</time>
      </trkpt>
      <trkpt lat="37.404397" lon="-5.934999">
        <ele>19.384</ele>
        <time>2016-09-01T04:21:30Z</time>
      </trkpt>
      <trkpt lat="37.404450" lon="-5.935107">
        <ele>19.462</ele>
        <time>2016-09-01T04:21:32Z</time>
      </trkpt>
      <trkpt lat="37.404566" lon="-5.935386">
        <ele>19.483</ele>
        <time>2016-09-01T04:21:37Z</time>
      </trkpt>
      <trkpt lat="37.404560" lon="-5.935636">
        <ele>19.411</ele>
        <time>2016-09-01T04:21:41Z</time>
      </trkpt>
      <trkpt lat="37.404411" lon="-5.936140">
        <ele>19.608</ele>
        <time>2016-09-01T04:21:49Z</time>
      </trkpt>
      <trkpt lat="37.404307" lon="-5.936514">
        <ele>19.549</ele>
        <time>2016-09-01T04:21:57Z</time>
      </trkpt>
      <trkpt lat="37.404261" lon="-5.936691">
        <ele>19.610</ele>
        <time>2016-09-01T04:22:00Z</time>
      </trkpt>
      <trkpt lat="37.404197" lon="-5.936871">
        <ele>19.771</ele>
        <time>2016-09-01T04:22:03Z</time>
      </trkpt>
      <trkpt lat="37.403910" lon="-5.937920">
        <ele>19.810</ele>
        <time>2016-09-01T04:22:18Z</time>
      </trkpt>
      <trkpt lat="37.403670" lon="-5.938748">
        <ele>19.864</ele>
        <time>2016-09-01T04:22:30Z</time>
      </trkpt>
      <trkpt lat="37.403583" lon="-5.939020">
        <ele>19.557</ele>
        <time>2016-09-01T04:22:34Z</time>
      </trkpt>
      <trkpt lat="37.403489" lon="-5.939184">
        <ele>19.216</ele>
        <time>2016-09-01T04:22:37Z</time>
      </trkpt>
      <trkpt lat="37.403339" lon="-5.939654">
        <ele>18.595</ele>
        <time>2016-09-01T04:22:45Z</time>
      </trkpt>
      <trkpt lat="37.403308" lon="-5.939707">
        <ele>18.555</ele>
        <time>2016-09-01T04:22:46Z</time>
      </trkpt>
      <trkpt lat="37.403024" lon="-5.940431">
        <ele>18.507</ele>
        <time>2016-09-01T04:22:58Z</time>
      </trkpt>
      <trkpt lat="37.402740" lon="-5.941006">
        <ele>18.517</ele>
        <time>2016-09-01T04:23:08Z</time>
      </trkpt>
      <trkpt lat="37.402513" lon="-5.941377">
        <ele>18.808</ele>
        <time>2016-09-01T04:23:15Z</time>
      </trkpt>
      <trkpt lat="37.402148" lon="-5.941968">
        <ele>19.478</ele>
        <time>2016-09-01T04:23:26Z</time>
      </trkpt>
      <trkpt lat="37.401973" lon="-5.942233">
        <ele>19.389</ele>
        <time>2016-09-01T04:23:31Z</time>
      </trkpt>
      <trkpt lat="37.401835" lon="-5.942354">
        <ele>18.690</ele>
        <time>2016-09-01T04:23:34Z</time>
      </trkpt>
      <trkpt lat="37.401714" lon="-5.942489">
        <ele>17.979</ele>
        <time>2016-09-01T04:23:37Z</time>
      </trkpt>
      <trkpt lat="37.401460" lon="-5.942783">
        <ele>18.383</ele>
        <time>2016-09-01T04:23:43Z</time>
      </trkpt>
      <trkpt lat="37.401343" lon="-5.942940">
        <ele>18.746</ele>
        <time>2016-09-01T04:23:46Z</time>
      </trkpt>
      <trkpt lat="37.401169" lon="-5.943137">
        <ele>18.885</ele>
        <time>2016-09-01T04:23:50Z</time>
      </trkpt>
      <trkpt lat="37.400947" lon="-5.943364">
        <ele>18.774</ele>
        <time>2016-09-01T04:23:55Z</time>
      </trkpt>
      <trkpt lat="37.400599" lon="-5.943596">
        <ele>17.847</ele>
        <time>2016-09-01T04:24:02Z</time>
      </trkpt>
      <trkpt lat="37.400418" lon="-5.943877">
        <ele>17.629</ele>
        <time>2016-09-01T04:24:07Z</time>
      </trkpt>
      <trkpt lat="37.400187" lon="-5.944125">
        <ele>17.121</ele>
        <time>2016-09-01T04:24:15Z</time>
      </trkpt>
      <trkpt lat="37.400198" lon="-5.944179">
        <ele>16.908</ele>
        <time>2016-09-01T04:24:17Z</time>
      </trkpt>
      <trkpt lat="37.400222" lon="-5.944512">
        <ele>16.887</ele>
        <time>2016-09-01T04:24:27Z</time>
      </trkpt>
      <trkpt lat="37.400245" lon="-5.944687">
        <ele>17.338</ele>
        <time>2016-09-01T04:24:37Z</time>
      </trkpt>
      <trkpt lat="37.400229" lon="-5.944727">
        <ele>17.369</ele>
        <time>2016-09-01T04:24:38Z</time>
      </trkpt>
      <trkpt lat="37.399717" lon="-5.945308">
        <ele>17.378</ele>
        <time>2016-09-01T04:24:52Z</time>
      </trkpt>
      <trkpt lat="37.399690" lon="-5.945352">
        <ele>17.372</ele>
        <time>2016-09-01T04:24:53Z</time>
      </trkpt>
      <trkpt lat="37.399650" lon="-5.945404">
        <ele>17.335</ele>
        <time>2016-09-01T04:24:54Z</time>
      </trkpt>
      <trkpt lat="37.399603" lon="-5.945452">
        <ele>17.344</ele>
        <time>2016-09-01T04:24:55Z</time>
      </trkpt>
      <trkpt lat="37.399554" lon="-5.945499">
        <ele>17.323</ele>
        <time>2016-09-01T04:24:56Z</time>
      </trkpt>
      <trkpt lat="37.398883" lon="-5.946137">
        <ele>16.539</ele>
        <time>2016-09-01T04:25:11Z</time>
      </trkpt>
      <trkpt lat="37.398492" lon="-5.946525">
        <ele>15.801</ele>
        <time>2016-09-01T04:25:20Z</time>
      </trkpt>
      <trkpt lat="37.398035" lon="-5.947010">
        <ele>14.821</ele>
        <time>2016-09-01T04:25:31Z</time>
      </trkpt>
      <trkpt lat="37.397920" lon="-5.947213">
        <ele>14.908</ele>
        <time>2016-09-01T04:25:35Z</time>
      </trkpt>
      <trkpt lat="37.397581" lon="-5.947572">
        <ele>14.736</ele>
        <time>2016-09-01T04:25:44Z</time>
      </trkpt>
      <trkpt lat="37.397493" lon="-5.947633">
        <ele>14.637</ele>
        <time>2016-09-01T04:25:46Z</time>
      </trkpt>
      <trkpt lat="37.396785" lon="-5.948438">
        <ele>14.618</ele>
        <time>2016-09-01T04:26:04Z</time>
      </trkpt>
      <trkpt lat="37.396290" lon="-5.949037">
        <ele>14.697</ele>
        <time>2016-09-01T04:26:17Z</time>
      </trkpt>
      <trkpt lat="37.396199" lon="-5.949416">
        <ele>15.261</ele>
        <time>2016-09-01T04:26:25Z</time>
      </trkpt>
      <trkpt lat="37.396171" lon="-5.949452">
        <ele>15.294</ele>
        <time>2016-09-01T04:26:26Z</time>
      </trkpt>
      <trkpt lat="37.396108" lon="-5.949529">
        <ele>15.223</ele>
        <time>2016-09-01T04:26:28Z</time>
      </trkpt>
      <trkpt lat="37.395913" lon="-5.949763">
        <ele>15.272</ele>
        <time>2016-09-01T04:26:34Z</time>
      </trkpt>
      <trkpt lat="37.395632" lon="-5.950182">
        <ele>15.912</ele>
        <time>2016-09-01T04:26:45Z</time>
      </trkpt>
      <trkpt lat="37.395446" lon="-5.950426">
        <ele>16.832</ele>
        <time>2016-09-01T04:26:51Z</time>
      </trkpt>
      <trkpt lat="37.395274" lon="-5.950565">
        <ele>17.505</ele>
        <time>2016-09-01T04:26:56Z</time>
      </trkpt>
      <trkpt lat="37.394925" lon="-5.951009">
        <ele>18.408</ele>
        <time>2016-09-01T04:27:06Z</time>
      </trkpt>
      <trkpt lat="37.394619" lon="-5.951389">
        <ele>18.454</ele>
        <time>2016-09-01T04:27:14Z</time>
      </trkpt>
      <trkpt lat="37.394466" lon="-5.951503">
        <ele>17.795</ele>
        <time>2016-09-01T04:27:17Z</time>
      </trkpt>
      <trkpt lat="37.394137" lon="-5.951891">
        <ele>18.236</ele>
        <time>2016-09-01T04:27:24Z</time>
      </trkpt>
      <trkpt lat="37.394036" lon="-5.952205">
        <ele>17.415</ele>
        <time>2016-09-01T04:27:29Z</time>
      </trkpt>
      <trkpt lat="37.394043" lon="-5.952331">
        <ele>17.429</ele>
        <time>2016-09-01T04:27:31Z</time>
      </trkpt>
      <trkpt lat="37.393963" lon="-5.952690">
        <ele>18.432</ele>
        <time>2016-09-01T04:27:39Z</time>
      </trkpt>
      <trkpt lat="37.393760" lon="-5.952831">
        <ele>16.291</ele>
        <time>2016-09-01T04:27:45Z</time>
      </trkpt>
      <trkpt lat="37.393443" lon="-5.953003">
        <ele>16.110</ele>
        <time>2016-09-01T04:27:53Z</time>
      </trkpt>
      <trkpt lat="37.393372" lon="-5.953158">
        <ele>15.952</ele>
        <time>2016-09-01T04:27:56Z</time>
      </trkpt>
      <trkpt lat="37.393333" lon="-5.953270">
        <ele>15.753</ele>
        <time>2016-09-01T04:27:58Z</time>
      </trkpt>
      <trkpt lat="37.393106" lon="-5.953760">
        <ele>15.708</ele>
        <time>2016-09-01T04:28:07Z</time>
      </trkpt>
      <trkpt lat="37.393026" lon="-5.953845">
        <ele>15.708</ele>
        <time>2016-09-01T04:28:09Z</time>
      </trkpt>
      <trkpt lat="37.392943" lon="-5.954054">
        <ele>15.398</ele>
        <time>2016-09-01T04:28:13Z</time>
      </trkpt>
      <trkpt lat="37.392614" lon="-5.954796">
        <ele>14.969</ele>
        <time>2016-09-01T04:28:26Z</time>
      </trkpt>
      <trkpt lat="37.392518" lon="-5.954962">
        <ele>14.710</ele>
        <time>2016-09-01T04:28:29Z</time>
      </trkpt>
      <trkpt lat="37.392239" lon="-5.955546">
        <ele>14.449</ele>
        <time>2016-09-01T04:28:39Z</time>
      </trkpt>
      <trkpt lat="37.392066" lon="-5.955881">
        <ele>14.443</ele>
        <time>2016-09-01T04:28:45Z</time>
      </trkpt>
      <trkpt lat="37.391956" lon="-5.956015">
        <ele>14.176</ele>
        <time>2016-09-01T04:28:48Z</time>
      </trkpt>
      <trkpt lat="37.391842" lon="-5.956237">
        <ele>13.915</ele>
        <time>2016-09-01T04:28:52Z</time>
      </trkpt>
      <trkpt lat="37.391397" lon="-5.957181">
        <ele>13.774</ele>
        <time>2016-09-01T04:29:09Z</time>
      </trkpt>
      <trkpt lat="37.391189" lon="-5.957626">
        <ele>13.869</ele>
        <time>2016-09-01T04:29:17Z</time>
      </trkpt>
      <trkpt lat="37.391040" lon="-5.957809">
        <ele>13.804</ele>
        <time>2016-09-01T04:29:21Z</time>
      </trkpt>
      <trkpt lat="37.390979" lon="-5.957905">
        <ele>13.824</ele>
        <time>2016-09-01T04:29:23Z</time>
      </trkpt>
      <trkpt lat="37.390866" lon="-5.958250">
        <ele>14.008</ele>
        <time>2016-09-01T04:29:29Z</time>
      </trkpt>
      <trkpt lat="37.390686" lon="-5.958305">
        <ele>14.269</ele>
        <time>2016-09-01T04:29:35Z</time>
      </trkpt>
      <trkpt lat="37.390629" lon="-5.958240">
        <ele>14.160</ele>
        <time>2016-09-01T04:29:37Z</time>
      </trkpt>
      <trkpt lat="37.390436" lon="-5.958328">
        <ele>13.911</ele>
        <time>2016-09-01T04:29:45Z</time>
      </trkpt>
      <trkpt lat="37.390359" lon="-5.958336">
        <ele>13.850</ele>
        <time>2016-09-01T04:29:47Z</time>
      </trkpt>
      <trkpt lat="37.390148" lon="-5.958341">
        <ele>12.434</ele>
        <time>2016-09-01T04:29:52Z</time>
      </trkpt>
      <trkpt lat="37.389801" lon="-5.958377">
        <ele>11.717</ele>
        <time>2016-09-01T04:30:00Z</time>
      </trkpt>
      <trkpt lat="37.389104" lon="-5.958424">
        <ele>12.926</ele>
        <time>2016-09-01T04:30:14Z</time>
      </trkpt>
      <trkpt lat="37.388772" lon="-5.958474">
        <ele>13.485</ele>
        <time>2016-09-01T04:30:21Z</time>
      </trkpt>
      <trkpt lat="37.388500" lon="-5.958506">
        <ele>13.731</ele>
        <time>2016-09-01T04:30:29Z</time>
      </trkpt>
      <trkpt lat="37.388093" lon="-5.958589">
        <ele>12.761</ele>
        <time>2016-09-01T04:30:40Z</time>
      </trkpt>
      <trkpt lat="37.387794" lon="-5.958635">
        <ele>12.007</ele>
        <time>2016-09-01T04:30:50Z</time>
      </trkpt>
      <trkpt lat="37.387765" lon="-5.958638">
        <ele>11.908</ele>
        <time>2016-09-01T04:30:52Z</time>
      </trkpt>
      <trkpt lat="37.387720" lon="-5.958763">
        <ele>12.016</ele>
        <time>2016-09-01T04:30:56Z</time>
      </trkpt>
      <trkpt lat="37.387703" lon="-5.958935">
        <ele>12.757</ele>
        <time>2016-09-01T04:30:59Z</time>
      </trkpt>
      <trkpt lat="37.387633" lon="-5.959175">
        <ele>13.418</ele>
        <time>2016-09-01T04:31:03Z</time>
      </trkpt>
      <trkpt lat="37.387473" lon="-5.959619">
        <ele>15.037</ele>
        <time>2016-09-01T04:31:10Z</time>
      </trkpt>
      <trkpt lat="37.387403" lon="-5.959807">
        <ele>15.371</ele>
        <time>2016-09-01T04:31:13Z</time>
      </trkpt>
      <trkpt lat="37.387326" lon="-5.960049">
        <ele>15.794</ele>
        <time>2016-09-01T04:31:17Z</time>
      </trkpt>
      <trkpt lat="37.387353" lon="-5.960626">
        <ele>15.073</ele>
        <time>2016-09-01T04:31:26Z</time>
      </trkpt>
      <trkpt lat="37.387425" lon="-5.961196">
        <ele>13.992</ele>
        <time>2016-09-01T04:31:35Z</time>
      </trkpt>
      <trkpt lat="37.387440" lon="-5.961489">
        <ele>13.256</ele>
        <time>2016-09-01T04:31:40Z</time>
      </trkpt>
      <trkpt lat="37.387457" lon="-5.961807">
        <ele>13.559</ele>
        <time>2016-09-01T04:31:45Z</time>
      </trkpt>
      <trkpt lat="37.387473" lon="-5.962058">
        <ele>14.214</ele>
        <time>2016-09-01T04:31:49Z</time>
      </trkpt>
      <trkpt lat="37.387482" lon="-5.962252">
        <ele>14.908</ele>
        <time>2016-09-01T04:31:52Z</time>
      </trkpt>
      <trkpt lat="37.387526" lon="-5.962549">
        <ele>15.298</ele>
        <time>2016-09-01T04:31:57Z</time>
      </trkpt>
      <trkpt lat="37.387517" lon="-5.962839">
        <ele>15.339</ele>
        <time>2016-09-01T04:32:02Z</time>
      </trkpt>
      <trkpt lat="37.387516" lon="-5.963077">
        <ele>15.380</ele>
        <time>2016-09-01T04:32:06Z</time>
      </trkpt>
      <trkpt lat="37.387493" lon="-5.963190">
        <ele>15.379</ele>
        <time>2016-09-01T04:32:08Z</time>
      </trkpt>
      <trkpt lat="37.387500" lon="-5.963366">
        <ele>15.543</ele>
        <time>2016-09-01T04:32:11Z</time>
      </trkpt>
      <trkpt lat="37.387505" lon="-5.963481">
        <ele>15.736</ele>
        <time>2016-09-01T04:32:13Z</time>
      </trkpt>
      <trkpt lat="37.387500" lon="-5.963591">
        <ele>16.255</ele>
        <time>2016-09-01T04:32:15Z</time>
      </trkpt>
      <trkpt lat="37.387510" lon="-5.963707">
        <ele>16.854</ele>
        <time>2016-09-01T04:32:17Z</time>
      </trkpt>
      <trkpt lat="37.387516" lon="-5.963827">
        <ele>17.764</ele>
        <time>2016-09-01T04:32:19Z</time>
      </trkpt>
      <trkpt lat="37.387499" lon="-5.964168">
        <ele>18.506</ele>
        <time>2016-09-01T04:32:25Z</time>
      </trkpt>
      <trkpt lat="37.387505" lon="-5.964406">
        <ele>18.616</ele>
        <time>2016-09-01T04:32:29Z</time>
      </trkpt>
      <trkpt lat="37.387506" lon="-5.964981">
        <ele>18.408</ele>
        <time>2016-09-01T04:32:41Z</time>
      </trkpt>
      <trkpt lat="37.387494" lon="-5.965235">
        <ele>17.049</ele>
        <time>2016-09-01T04:32:49Z</time>
      </trkpt>
      <trkpt lat="37.387512" lon="-5.965328">
        <ele>17.040</ele>
        <time>2016-09-01T04:32:51Z</time>
      </trkpt>
      <trkpt lat="37.387502" lon="-5.966019">
        <ele>16.661</ele>
        <time>2016-09-01T04:33:03Z</time>
      </trkpt>
      <trkpt lat="37.387484" lon="-5.966138">
        <ele>16.830</ele>
        <time>2016-09-01T04:33:05Z</time>
      </trkpt>
      <trkpt lat="37.387518" lon="-5.966647">
        <ele>17.134</ele>
        <time>2016-09-01T04:33:13Z</time>
      </trkpt>
      <trkpt lat="37.387507" lon="-5.966957">
        <ele>16.847</ele>
        <time>2016-09-01T04:33:17Z</time>
      </trkpt>
      <trkpt lat="37.387512" lon="-5.967106">
        <ele>16.646</ele>
        <time>2016-09-01T04:33:19Z</time>
      </trkpt>
      <trkpt lat="37.387509" lon="-5.967460">
        <ele>16.165</ele>
        <time>2016-09-01T04:33:24Z</time>
      </trkpt>
      <trkpt lat="37.387541" lon="-5.967788">
        <ele>15.852</ele>
        <time>2016-09-01T04:33:29Z</time>
      </trkpt>
      <trkpt lat="37.387536" lon="-5.967932">
        <ele>15.753</ele>
        <time>2016-09-01T04:33:31Z</time>
      </trkpt>
      <trkpt lat="37.387534" lon="-5.968278">
        <ele>15.308</ele>
        <time>2016-09-01T04:33:36Z</time>
      </trkpt>
      <trkpt lat="37.387529" lon="-5.968696">
        <ele>15.008</ele>
        <time>2016-09-01T04:33:41Z</time>
      </trkpt>
      <trkpt lat="37.387510" lon="-5.968941">
        <ele>14.898</ele>
        <time>2016-09-01T04:33:44Z</time>
      </trkpt>
      <trkpt lat="37.387482" lon="-5.969555">
        <ele>15.079</ele>
        <time>2016-09-01T04:33:52Z</time>
      </trkpt>
      <trkpt lat="37.387443" lon="-5.970098">
        <ele>16.580</ele>
        <time>2016-09-01T04:33:59Z</time>
      </trkpt>
      <trkpt lat="37.387466" lon="-5.970563">
        <ele>17.469</ele>
        <time>2016-09-01T04:34:05Z</time>
      </trkpt>
      <trkpt lat="37.387487" lon="-5.970872">
        <ele>18.543</ele>
        <time>2016-09-01T04:34:10Z</time>
      </trkpt>
      <trkpt lat="37.387422" lon="-5.971479">
        <ele>18.066</ele>
        <time>2016-09-01T04:34:18Z</time>
      </trkpt>
      <trkpt lat="37.387405" lon="-5.971634">
        <ele>17.915</ele>
        <time>2016-09-01T04:34:20Z</time>
      </trkpt>
      <trkpt lat="37.387377" lon="-5.971871">
        <ele>17.334</ele>
        <time>2016-09-01T04:34:23Z</time>
      </trkpt>
      <trkpt lat="37.387178" lon="-5.972184">
        <ele>16.764</ele>
        <time>2016-09-01T04:34:29Z</time>
      </trkpt>
      <trkpt lat="37.387093" lon="-5.972218">
        <ele>16.606</ele>
        <time>2016-09-01T04:34:31Z</time>
      </trkpt>
      <trkpt lat="37.387098" lon="-5.972448">
        <ele>16.516</ele>
        <time>2016-09-01T04:34:38Z</time>
      </trkpt>
      <trkpt lat="37.387254" lon="-5.972769">
        <ele>16.508</ele>
        <time>2016-09-01T04:34:45Z</time>
      </trkpt>
      <trkpt lat="37.387245" lon="-5.972974">
        <ele>16.629</ele>
        <time>2016-09-01T04:34:48Z</time>
      </trkpt>
      <trkpt lat="37.387254" lon="-5.973171">
        <ele>16.690</ele>
        <time>2016-09-01T04:34:51Z</time>
      </trkpt>
      <trkpt lat="37.387250" lon="-5.973437">
        <ele>16.451</ele>
        <time>2016-09-01T04:34:55Z</time>
      </trkpt>
      <trkpt lat="37.387246" lon="-5.973585">
        <ele>16.270</ele>
        <time>2016-09-01T04:34:57Z</time>
      </trkpt>
      <trkpt lat="37.387288" lon="-5.974278">
        <ele>15.654</ele>
        <time>2016-09-01T04:35:07Z</time>
      </trkpt>
      <trkpt lat="37.387275" lon="-5.974350">
        <ele>15.687</ele>
        <time>2016-09-01T04:35:08Z</time>
      </trkpt>
      <trkpt lat="37.387123" lon="-5.975448">
        <ele>15.636</ele>
        <time>2016-09-01T04:35:23Z</time>
      </trkpt>
      <trkpt lat="37.387116" lon="-5.975525">
        <ele>15.855</ele>
        <time>2016-09-01T04:35:24Z</time>
      </trkpt>
      <trkpt lat="37.387074" lon="-5.976441">
        <ele>15.539</ele>
        <time>2016-09-01T04:35:37Z</time>
      </trkpt>
      <trkpt lat="37.387064" lon="-5.976720">
        <ele>15.501</ele>
        <time>2016-09-01T04:35:41Z</time>
      </trkpt>
      <trkpt lat="37.387073" lon="-5.977129">
        <ele>15.121</ele>
        <time>2016-09-01T04:35:47Z</time>
      </trkpt>
      <trkpt lat="37.387134" lon="-5.977786">
        <ele>15.008</ele>
        <time>2016-09-01T04:35:57Z</time>
      </trkpt>
      <trkpt lat="37.387039" lon="-5.977907">
        <ele>15.196</ele>
        <time>2016-09-01T04:36:00Z</time>
      </trkpt>
      <trkpt lat="37.386807" lon="-5.978020">
        <ele>15.687</ele>
        <time>2016-09-01T04:36:05Z</time>
      </trkpt>
      <trkpt lat="37.386654" lon="-5.978092">
        <ele>15.848</ele>
        <time>2016-09-01T04:36:08Z</time>
      </trkpt>
      <trkpt lat="37.386349" lon="-5.978263">
        <ele>16.427</ele>
        <time>2016-09-01T04:36:14Z</time>
      </trkpt>
      <trkpt lat="37.385977" lon="-5.978465">
        <ele>15.721</ele>
        <time>2016-09-01T04:36:22Z</time>
      </trkpt>
      <trkpt lat="37.385962" lon="-5.978486">
        <ele>15.744</ele>
        <time>2016-09-01T04:36:23Z</time>
      </trkpt>
      <trkpt lat="37.385919" lon="-5.978597">
        <ele>15.653</ele>
        <time>2016-09-01T04:36:28Z</time>
      </trkpt>
      <trkpt lat="37.385911" lon="-5.978890">
        <ele>14.532</ele>
        <time>2016-09-01T04:36:37Z</time>
      </trkpt>
      <trkpt lat="37.385692" lon="-5.979093">
        <ele>14.397</ele>
        <time>2016-09-01T04:36:45Z</time>
      </trkpt>
      <trkpt lat="37.385663" lon="-5.979110">
        <ele>14.423</ele>
        <time>2016-09-01T04:36:46Z</time>
      </trkpt>
      <trkpt lat="37.385473" lon="-5.979183">
        <ele>14.825</ele>
        <time>2016-09-01T04:36:51Z</time>
      </trkpt>
      <trkpt lat="37.385106" lon="-5.979570">
        <ele>15.708</ele>
        <time>2016-09-01T04:37:02Z</time>
      </trkpt>
      <trkpt lat="37.384815" lon="-5.979740">
        <ele>15.782</ele>
        <time>2016-09-01T04:37:08Z</time>
      </trkpt>
      <trkpt lat="37.384524" lon="-5.979848">
        <ele>15.583</ele>
        <time>2016-09-01T04:37:13Z</time>
      </trkpt>
      <trkpt lat="37.384378" lon="-5.980081">
        <ele>15.574</ele>
        <time>2016-09-01T04:37:19Z</time>
      </trkpt>
      <trkpt lat="37.384367" lon="-5.980361">
        <ele>15.973</ele>
        <time>2016-09-01T04:37:24Z</time>
      </trkpt>
      <trkpt lat="37.384379" lon="-5.980481">
        <ele>16.037</ele>
        <time>2016-09-01T04:37:26Z</time>
      </trkpt>
      <trkpt lat="37.384407" lon="-5.981083">
        <ele>16.890</ele>
        <time>2016-09-01T04:37:36Z</time>
      </trkpt>
      <trkpt lat="37.384502" lon="-5.981750">
        <ele>17.649</ele>
        <time>2016-09-01T04:37:47Z</time>
      </trkpt>
      <trkpt lat="37.384486" lon="-5.981957">
        <ele>17.648</ele>
        <time>2016-09-01T04:37:50Z</time>
      </trkpt>
      <trkpt lat="37.384546" lon="-5.982423">
        <ele>17.613</ele>
        <time>2016-09-01T04:37:57Z</time>
      </trkpt>
      <trkpt lat="37.384743" lon="-5.983346">
        <ele>16.043</ele>
        <time>2016-09-01T04:38:10Z</time>
      </trkpt>
      <trkpt lat="37.384755" lon="-5.983408">
        <ele>16.007</ele>
        <time>2016-09-01T04:38:11Z</time>
      </trkpt>
      <trkpt lat="37.384774" lon="-5.983457">
        <ele>15.908</ele>
        <time>2016-09-01T04:38:12Z</time>
      </trkpt>
      <trkpt lat="37.384787" lon="-5.983495">
        <ele>15.874</ele>
        <time>2016-09-01T04:38:13Z</time>
      </trkpt>
      <trkpt lat="37.384798" lon="-5.983518">
        <ele>15.825</ele>
        <time>2016-09-01T04:38:14Z</time>
      </trkpt>
      <trkpt lat="37.384811" lon="-5.983537">
        <ele>15.776</ele>
        <time>2016-09-01T04:38:15Z</time>
      </trkpt>
      <trkpt lat="37.384841" lon="-5.983615">
        <ele>15.425</ele>
        <time>2016-09-01T04:38:17Z</time>
      </trkpt>
      <trkpt lat="37.384865" lon="-5.983713">
        <ele>15.069</ele>
        <time>2016-09-01T04:38:19Z</time>
      </trkpt>
      <trkpt lat="37.384925" lon="-5.983973">
        <ele>14.112</ele>
        <time>2016-09-01T04:38:24Z</time>
      </trkpt>
      <trkpt lat="37.384946" lon="-5.984026">
        <ele>14.121</ele>
        <time>2016-09-01T04:38:25Z</time>
      </trkpt>
      <trkpt lat="37.385112" lon="-5.984442">
        <ele>15.840</ele>
        <time>2016-09-01T04:38:34Z</time>
      </trkpt>
      <trkpt lat="37.385226" lon="-5.984648">
        <ele>16.557</ele>
        <time>2016-09-01T04:38:38Z</time>
      </trkpt>
      <trkpt lat="37.385311" lon="-5.984809">
        <ele>16.700</ele>
        <time>2016-09-01T04:38:41Z</time>
      </trkpt>
      <trkpt lat="37.385388" lon="-5.984983">
        <ele>16.620</ele>
        <time>2016-09-01T04:38:44Z</time>
      </trkpt>
      <trkpt lat="37.385439" lon="-5.985104">
        <ele>16.708</ele>
        <time>2016-09-01T04:38:46Z</time>
      </trkpt>
      <trkpt lat="37.385526" lon="-5.985360">
        <ele>16.818</ele>
        <time>2016-09-01T04:38:50Z</time>
      </trkpt>
      <trkpt lat="37.385641" lon="-5.985823">
        <ele>16.159</ele>
        <time>2016-09-01T04:38:59Z</time>
      </trkpt>
      <trkpt lat="37.385708" lon="-5.985856">
        <ele>16.030</ele>
        <time>2016-09-01T04:39:09Z</time>
      </trkpt>
      <trkpt lat="37.385707" lon="-5.985875">
        <ele>15.939</ele>
        <time>2016-09-01T04:39:13Z</time>
      </trkpt>
      <trkpt lat="37.385777" lon="-5.986018">
        <ele>15.773</ele>
        <time>2016-09-01T04:39:48Z</time>
      </trkpt>
      <trkpt lat="37.385662" lon="-5.986125">
        <ele>15.256</ele>
        <time>2016-09-01T04:39:55Z</time>
      </trkpt>
      <trkpt lat="37.385399" lon="-5.986275">
        <ele>13.945</ele>
        <time>2016-09-01T04:40:04Z</time>
      </trkpt>
      <trkpt lat="37.385360" lon="-5.986292">
        <ele>13.884</ele>
        <time>2016-09-01T04:40:05Z</time>
      </trkpt>
      <trkpt lat="37.385256" lon="-5.986371">
        <ele>13.113</ele>
        <time>2016-09-01T04:40:08Z</time>
      </trkpt>
      <trkpt lat="37.385072" lon="-5.986608">
        <ele>12.643</ele>
        <time>2016-09-01T04:40:16Z</time>
      </trkpt>
      <trkpt lat="37.385028" lon="-5.986667">
        <ele>12.807</ele>
        <time>2016-09-01T04:40:18Z</time>
      </trkpt>
      <trkpt lat="37.384953" lon="-5.986714">
        <ele>12.808</ele>
        <time>2016-09-01T04:40:20Z</time>
      </trkpt>
      <trkpt lat="37.384637" lon="-5.986893">
        <ele>13.094</ele>
        <time>2016-09-01T04:40:27Z</time>
      </trkpt>
      <trkpt lat="37.384486" lon="-5.986987">
        <ele>14.055</ele>
        <time>2016-09-01T04:40:30Z</time>
      </trkpt>
      <trkpt lat="37.384238" lon="-5.987135">
        <ele>14.666</ele>
        <time>2016-09-01T04:40:36Z</time>
      </trkpt>
      <trkpt lat="37.383742" lon="-5.987422">
        <ele>14.455</ele>
        <time>2016-09-01T04:40:47Z</time>
      </trkpt>
      <trkpt lat="37.383498" lon="-5.987525">
        <ele>14.489</ele>
        <time>2016-09-01T04:40:52Z</time>
      </trkpt>
      <trkpt lat="37.383324" lon="-5.987640">
        <ele>14.462</ele>
        <time>2016-09-01T04:40:56Z</time>
      </trkpt>
      <trkpt lat="37.383196" lon="-5.987747">
        <ele>14.431</ele>
        <time>2016-09-01T04:40:59Z</time>
      </trkpt>
      <trkpt lat="37.382978" lon="-5.987888">
        <ele>14.460</ele>
        <time>2016-09-01T04:41:04Z</time>
      </trkpt>
      <trkpt lat="37.382885" lon="-5.987953">
        <ele>14.444</ele>
        <time>2016-09-01T04:41:06Z</time>
      </trkpt>
      <trkpt lat="37.382555" lon="-5.988125">
        <ele>13.705</ele>
        <time>2016-09-01T04:41:13Z</time>
      </trkpt>
      <trkpt lat="37.381882" lon="-5.988493">
        <ele>14.715</ele>
        <time>2016-09-01T04:41:28Z</time>
      </trkpt>
      <trkpt lat="37.381800" lon="-5.988542">
        <ele>14.708</ele>
        <time>2016-09-01T04:41:30Z</time>
      </trkpt>
      <trkpt lat="37.381646" lon="-5.988698">
        <ele>14.427</ele>
        <time>2016-09-01T04:41:34Z</time>
      </trkpt>
      <trkpt lat="37.381543" lon="-5.989165">
        <ele>14.928</ele>
        <time>2016-09-01T04:41:42Z</time>
      </trkpt>
      <trkpt lat="37.381471" lon="-5.989554">
        <ele>15.489</ele>
        <time>2016-09-01T04:41:50Z</time>
      </trkpt>
      <trkpt lat="37.381817" lon="-5.990807">
        <ele>15.458</ele>
        <time>2016-09-01T04:42:08Z</time>
      </trkpt>
      <trkpt lat="37.381837" lon="-5.990878">
        <ele>15.442</ele>
        <time>2016-09-01T04:42:09Z</time>
      </trkpt>
      <trkpt lat="37.381902" lon="-5.991164">
        <ele>15.315</ele>
        <time>2016-09-01T04:42:13Z</time>
      </trkpt>
      <trkpt lat="37.382126" lon="-5.991995">
        <ele>15.214</ele>
        <time>2016-09-01T04:42:25Z</time>
      </trkpt>
      <trkpt lat="37.382235" lon="-5.992419">
        <ele>15.233</ele>
        <time>2016-09-01T04:42:31Z</time>
      </trkpt>
      <trkpt lat="37.382297" lon="-5.992774">
        <ele>15.772</ele>
        <time>2016-09-01T04:42:36Z</time>
      </trkpt>
      <trkpt lat="37.382403" lon="-5.993011">
        <ele>16.113</ele>
        <time>2016-09-01T04:42:40Z</time>
      </trkpt>
      <trkpt lat="37.382600" lon="-5.993253">
        <ele>15.714</ele>
        <time>2016-09-01T04:42:45Z</time>
      </trkpt>
      <trkpt lat="37.382699" lon="-5.993337">
        <ele>15.908</ele>
        <time>2016-09-01T04:42:47Z</time>
      </trkpt>
      <trkpt lat="37.382903" lon="-5.993443">
        <ele>16.750</ele>
        <time>2016-09-01T04:42:51Z</time>
      </trkpt>
      <trkpt lat="37.383273" lon="-5.993494">
        <ele>17.541</ele>
        <time>2016-09-01T04:42:58Z</time>
      </trkpt>
      <trkpt lat="37.383932" lon="-5.993673">
        <ele>18.612</ele>
        <time>2016-09-01T04:43:11Z</time>
      </trkpt>
      <trkpt lat="37.384243" lon="-5.993716">
        <ele>19.061</ele>
        <time>2016-09-01T04:43:18Z</time>
      </trkpt>
      <trkpt lat="37.384315" lon="-5.993707">
        <ele>19.135</ele>
        <time>2016-09-01T04:43:20Z</time>
      </trkpt>
      <trkpt lat="37.384742" lon="-5.993765">
        <ele>19.488</ele>
        <time>2016-09-01T04:43:28Z</time>
      </trkpt>
      <trkpt lat="37.385335" lon="-5.993895">
        <ele>20.267</ele>
        <time>2016-09-01T04:43:42Z</time>
      </trkpt>
      <trkpt lat="37.385438" lon="-5.993909">
        <ele>20.326</ele>
        <time>2016-09-01T04:43:50Z</time>
      </trkpt>
      <trkpt lat="37.385292" lon="-5.994112">
        <ele>19.679</ele>
        <time>2016-09-01T05:14:28Z</time>
      </trkpt>
      <trkpt lat="37.385166" lon="-5.994039">
        <ele>19.605</ele>
        <time>2016-09-01T05:14:33Z</time>
      </trkpt>
      <trkpt lat="37.385111" lon="-5.993989">
        <ele>19.525</ele>
        <time>2016-09-01T05:14:35Z</time>
      </trkpt>
      <trkpt lat="37.385080" lon="-5.993623">
        <ele>19.708</ele>
        <time>2016-09-01T05:14:42Z</time>
      </trkpt>
      <trkpt lat="37.385049" lon="-5.993379">
        <ele>19.760</ele>
        <time>2016-09-01T05:14:48Z</time>
      </trkpt>
      <trkpt lat="37.385080" lon="-5.993248">
        <ele>20.231</ele>
        <time>2016-09-01T05:14:52Z</time>
      </trkpt>
      <trkpt lat="37.385203" lon="-5.992690">
        <ele>22.452</ele>
        <time>2016-09-01T05:15:05Z</time>
      </trkpt>
      <trkpt lat="37.385233" lon="-5.992368">
        <ele>22.961</ele>
        <time>2016-09-01T05:15:17Z</time>
      </trkpt>
      <trkpt lat="37.385232" lon="-5.992369">
        <ele>23.075</ele>
        <time>2016-09-01T05:15:18Z</time>
      </trkpt>
      <trkpt lat="37.385278" lon="-5.992267">
        <ele>23.218</ele>
        <time>2016-09-01T05:15:24Z</time>
      </trkpt>
      <trkpt lat="37.385447" lon="-5.992188">
        <ele>24.297</ele>
        <time>2016-09-01T05:15:31Z</time>
      </trkpt>
      <trkpt lat="37.385718" lon="-5.992219">
        <ele>24.926</ele>
        <time>2016-09-01T05:15:38Z</time>
      </trkpt>
      <trkpt lat="37.386142" lon="-5.992274">
        <ele>22.663</ele>
        <time>2016-09-01T05:15:49Z</time>
      </trkpt>
      <trkpt lat="37.386358" lon="-5.992448">
        <ele>21.844</ele>
        <time>2016-09-01T05:15:55Z</time>
      </trkpt>
      <trkpt lat="37.386628" lon="-5.992530">
        <ele>20.518</ele>
        <time>2016-09-01T05:16:04Z</time>
      </trkpt>
      <trkpt lat="37.386666" lon="-5.992543">
        <ele>20.408</ele>
        <time>2016-09-01T05:16:06Z</time>
      </trkpt>
      <trkpt lat="37.386786" lon="-5.992722">
        <ele>20.199</ele>
        <time>2016-09-01T05:16:14Z</time>
      </trkpt>
      <trkpt lat="37.386768" lon="-5.993229">
        <ele>19.890</ele>
        <time>2016-09-01T05:16:26Z</time>
      </trkpt>
      <trkpt lat="37.386749" lon="-5.993837">
        <ele>20.951</ele>
        <time>2016-09-01T05:16:39Z</time>
      </trkpt>
      <trkpt lat="37.386644" lon="-5.994120">
        <ele>20.930</ele>
        <time>2016-09-01T05:16:49Z</time>
      </trkpt>
      <trkpt lat="37.386626" lon="-5.994125">
        <ele>20.924</ele>
        <time>2016-09-01T05:16:51Z</time>
      </trkpt>
      <trkpt lat="37.386577" lon="-5.994207">
        <ele>20.897</ele>
        <time>2016-09-01T05:17:03Z</time>
      </trkpt>
      <trkpt lat="37.386584" lon="-5.994211">
        <ele>20.846</ele>
        <time>2016-09-01T05:17:05Z</time>
      </trkpt>
      <trkpt lat="37.386604" lon="-5.994469">
        <ele>20.345</ele>
        <time>2016-09-01T05:18:13Z</time>
      </trkpt>
      <trkpt lat="37.386604" lon="-5.994583">
        <ele>19.781</ele>
        <time>2016-09-01T05:18:18Z</time>
      </trkpt>
      <trkpt lat="37.386611" lon="-5.994611">
        <ele>19.761</ele>
        <time>2016-09-01T05:18:24Z</time>
      </trkpt>
      <trkpt lat="37.386784" lon="-5.994717">
        <ele>19.717</ele>
        <time>2016-09-01T05:18:47Z</time>
      </trkpt>
      <trkpt lat="37.387234" lon="-5.995207">
        <ele>19.308</ele>
        <time>2016-09-01T05:18:59Z</time>
      </trkpt>
      <trkpt lat="37.387247" lon="-5.995253">
        <ele>19.221</ele>
        <time>2016-09-01T05:19:00Z</time>
      </trkpt>
      <trkpt lat="37.387411" lon="-5.995361">
        <ele>19.112</ele>
        <time>2016-09-01T05:19:05Z</time>
      </trkpt>
      <trkpt lat="37.387659" lon="-5.995682">
        <ele>18.543</ele>
        <time>2016-09-01T05:19:16Z</time>
      </trkpt>
      <trkpt lat="37.387685" lon="-5.995726">
        <ele>18.462</ele>
        <time>2016-09-01T05:19:17Z</time>
      </trkpt>
      <trkpt lat="37.387817" lon="-5.996303">
        <ele>18.486</ele>
        <time>2016-09-01T05:19:28Z</time>
      </trkpt>
      <trkpt lat="37.388025" lon="-5.996640">
        <ele>18.079</ele>
        <time>2016-09-01T05:19:39Z</time>
      </trkpt>
      <trkpt lat="37.388011" lon="-5.996720">
        <ele>18.048</ele>
        <time>2016-09-01T05:19:42Z</time>
      </trkpt>
      <trkpt lat="37.388208" lon="-5.997149">
        <ele>16.827</ele>
        <time>2016-09-01T05:19:52Z</time>
      </trkpt>
      <trkpt lat="37.388364" lon="-5.997767">
        <ele>15.773</ele>
        <time>2016-09-01T05:20:04Z</time>
      </trkpt>
      <trkpt lat="37.388449" lon="-5.997849">
        <ele>15.685</ele>
        <time>2016-09-01T05:20:11Z</time>
      </trkpt>
      <trkpt lat="37.388449" lon="-5.997869">
        <ele>15.613</ele>
        <time>2016-09-01T05:20:13Z</time>
      </trkpt>
      <trkpt lat="37.388472" lon="-5.997931">
        <ele>15.508</ele>
        <time>2016-09-01T05:20:17Z</time>
      </trkpt>
      <trkpt lat="37.388543" lon="-5.998135">
        <ele>15.740</ele>
        <time>2016-09-01T05:20:24Z</time>
      </trkpt>
      <trkpt lat="37.388568" lon="-5.998201">
        <ele>15.871</ele>
        <time>2016-09-01T05:20:32Z</time>
      </trkpt>
      <trkpt lat="37.388727" lon="-5.998359">
        <ele>15.982</ele>
        <time>2016-09-01T05:20:55Z</time>
      </trkpt>
      <trkpt lat="37.388798" lon="-5.998536">
        <ele>16.181</ele>
        <time>2016-09-01T05:21:00Z</time>
      </trkpt>
      <trkpt lat="37.388851" lon="-5.998663">
        <ele>16.295</ele>
        <time>2016-09-01T05:21:04Z</time>
      </trkpt>
      <trkpt lat="37.388957" lon="-5.998874">
        <ele>16.458</ele>
        <time>2016-09-01T05:21:14Z</time>
      </trkpt>
      <trkpt lat="37.388986" lon="-5.998978">
        <ele>16.567</ele>
        <time>2016-09-01T05:21:17Z</time>
      </trkpt>
      <trkpt lat="37.389201" lon="-5.999190">
        <ele>17.626</ele>
        <time>2016-09-01T05:21:24Z</time>
      </trkpt>
      <trkpt lat="37.389271" lon="-5.999335">
        <ele>18.211</ele>
        <time>2016-09-01T05:21:29Z</time>
      </trkpt>
      <trkpt lat="37.389105" lon="-5.999635">
        <ele>20.221</ele>
        <time>2016-09-01T05:21:39Z</time>
      </trkpt>
      <trkpt lat="37.389158" lon="-5.999784">
        <ele>20.203</ele>
        <time>2016-09-01T05:21:44Z</time>
      </trkpt>
      <trkpt lat="37.389053" lon="-5.999902">
        <ele>20.308</ele>
        <time>2016-09-01T05:21:49Z</time>
      </trkpt>
      <trkpt lat="37.388645" lon="-6.000313">
        <ele>20.034</ele>
        <time>2016-09-01T05:22:04Z</time>
      </trkpt>
      <trkpt lat="37.388517" lon="-6.000433">
        <ele>19.825</ele>
        <time>2016-09-01T05:22:11Z</time>
      </trkpt>
      <trkpt lat="37.388440" lon="-6.000555">
        <ele>19.566</ele>
        <time>2016-09-01T05:22:15Z</time>
      </trkpt>
      <trkpt lat="37.388178" lon="-6.000734">
        <ele>17.485</ele>
        <time>2016-09-01T05:22:22Z</time>
      </trkpt>
      <trkpt lat="37.388040" lon="-6.000690">
        <ele>16.669</ele>
        <time>2016-09-01T05:22:26Z</time>
      </trkpt>
      <trkpt lat="37.387946" lon="-6.000857">
        <ele>15.312</ele>
        <time>2016-09-01T05:22:37Z</time>
      </trkpt>
      <trkpt lat="37.387935" lon="-6.001010">
        <ele>14.271</ele>
        <time>2016-09-01T05:22:41Z</time>
      </trkpt>
      <trkpt lat="37.387738" lon="-6.001335">
        <ele>11.660</ele>
        <time>2016-09-01T05:22:50Z</time>
      </trkpt>
      <trkpt lat="37.387598" lon="-6.001475">
        <ele>10.396</ele>
        <time>2016-09-01T05:22:57Z</time>
      </trkpt>
      <trkpt lat="37.387583" lon="-6.001508">
        <ele>8.831</ele>
        <time>2016-09-01T05:23:02Z</time>
      </trkpt>
      <trkpt lat="37.387531" lon="-6.001639">
        <ele>8.224</ele>
        <time>2016-09-01T05:23:46Z</time>
      </trkpt>
      <trkpt lat="37.387267" lon="-6.001621">
        <ele>7.008</ele>
        <time>2016-09-01T05:23:54Z</time>
      </trkpt>
      <trkpt lat="37.387211" lon="-6.001681">
        <ele>6.612</ele>
        <time>2016-09-01T05:23:56Z</time>
      </trkpt>
      <trkpt lat="37.386674" lon="-6.002129">
        <ele>8.033</ele>
        <time>2016-09-01T05:24:14Z</time>
      </trkpt>
      <trkpt lat="37.386530" lon="-6.002299">
        <ele>8.254</ele>
        <time>2016-09-01T05:24:23Z</time>
      </trkpt>
      <trkpt lat="37.386529" lon="-6.002299">
        <ele>8.243</ele>
        <time>2016-09-01T05:24:24Z</time>
      </trkpt>
      <trkpt lat="37.386475" lon="-6.002337">
        <ele>8.227</ele>
        <time>2016-09-01T05:25:21Z</time>
      </trkpt>
      <trkpt lat="37.386455" lon="-6.002353">
        <ele>8.270</ele>
        <time>2016-09-01T05:25:22Z</time>
      </trkpt>
      <trkpt lat="37.386435" lon="-6.002372">
        <ele>8.289</ele>
        <time>2016-09-01T05:25:23Z</time>
      </trkpt>
      <trkpt lat="37.386344" lon="-6.002455">
        <ele>8.298</ele>
        <time>2016-09-01T05:25:32Z</time>
      </trkpt>
      <trkpt lat="37.386303" lon="-6.002500">
        <ele>8.282</ele>
        <time>2016-09-01T05:25:41Z</time>
      </trkpt>
      <trkpt lat="37.386038" lon="-6.002692">
        <ele>8.643</ele>
        <time>2016-09-01T05:25:50Z</time>
      </trkpt>
      <trkpt lat="37.385429" lon="-6.003233">
        <ele>10.817</ele>
        <time>2016-09-01T05:26:06Z</time>
      </trkpt>
      <trkpt lat="37.385213" lon="-6.003436">
        <ele>12.608</ele>
        <time>2016-09-01T05:26:12Z</time>
      </trkpt>
      <trkpt lat="37.385324" lon="-6.003700">
        <ele>13.481</ele>
        <time>2016-09-01T05:26:20Z</time>
      </trkpt>
      <trkpt lat="37.385375" lon="-6.003782">
        <ele>13.572</ele>
        <time>2016-09-01T05:26:22Z</time>
      </trkpt>
      <trkpt lat="37.385431" lon="-6.003885">
        <ele>13.793</ele>
        <time>2016-09-01T05:26:24Z</time>
      </trkpt>
      <trkpt lat="37.385648" lon="-6.004178">
        <ele>14.362</ele>
        <time>2016-09-01T05:26:31Z</time>
      </trkpt>
      <trkpt lat="37.385877" lon="-6.004139">
        <ele>12.486</ele>
        <time>2016-09-01T05:26:38Z</time>
      </trkpt>
      <trkpt lat="37.386134" lon="-6.004245">
        <ele>11.919</ele>
        <time>2016-09-01T05:26:44Z</time>
      </trkpt>
      <trkpt lat="37.386449" lon="-6.004575">
        <ele>11.378</ele>
        <time>2016-09-01T05:26:56Z</time>
      </trkpt>
      <trkpt lat="37.386492" lon="-6.004717">
        <ele>11.217</ele>
        <time>2016-09-01T05:27:07Z</time>
      </trkpt>
      <trkpt lat="37.386562" lon="-6.004785">
        <ele>11.267</ele>
        <time>2016-09-01T05:27:11Z</time>
      </trkpt>
      <trkpt lat="37.386814" lon="-6.005032">
        <ele>10.981</ele>
        <time>2016-09-01T05:27:25Z</time>
      </trkpt>
      <trkpt lat="37.386857" lon="-6.005111">
        <ele>10.819</ele>
        <time>2016-09-01T05:27:33Z</time>
      </trkpt>
      <trkpt lat="37.386908" lon="-6.005158">
        <ele>10.908</ele>
        <time>2016-09-01T05:27:39Z</time>
      </trkpt>
      <trkpt lat="37.387030" lon="-6.005262">
        <ele>11.219</ele>
        <time>2016-09-01T05:27:50Z</time>
      </trkpt>
      <trkpt lat="37.387243" lon="-6.005504">
        <ele>11.890</ele>
        <time>2016-09-01T05:28:00Z</time>
      </trkpt>
      <trkpt lat="37.387593" lon="-6.005824">
        <ele>12.851</ele>
        <time>2016-09-01T05:28:12Z</time>
      </trkpt>
      <trkpt lat="37.387777" lon="-6.006132">
        <ele>13.740</ele>
        <time>2016-09-01T05:28:21Z</time>
      </trkpt>
      <trkpt lat="37.387956" lon="-6.006473">
        <ele>13.524</ele>
        <time>2016-09-01T05:28:30Z</time>
      </trkpt>
      <trkpt lat="37.388206" lon="-6.006795">
        <ele>12.147</ele>
        <time>2016-09-01T05:28:43Z</time>
      </trkpt>
      <trkpt lat="37.388250" lon="-6.006890">
        <ele>11.936</ele>
        <time>2016-09-01T05:28:47Z</time>
      </trkpt>
      <trkpt lat="37.388329" lon="-6.007002">
        <ele>11.545</ele>
        <time>2016-09-01T05:28:53Z</time>
      </trkpt>
      <trkpt lat="37.388451" lon="-6.007211">
        <ele>10.772</ele>
        <time>2016-09-01T05:29:03Z</time>
      </trkpt>
      <trkpt lat="37.388542" lon="-6.007364">
        <ele>10.713</ele>
        <time>2016-09-01T05:29:08Z</time>
      </trkpt>
      <trkpt lat="37.388595" lon="-6.007815">
        <ele>10.714</ele>
        <time>2016-09-01T05:29:17Z</time>
      </trkpt>
      <trkpt lat="37.388735" lon="-6.008301">
        <ele>10.908</ele>
        <time>2016-09-01T05:29:29Z</time>
      </trkpt>
      <trkpt lat="37.388855" lon="-6.008750">
        <ele>10.690</ele>
        <time>2016-09-01T05:29:38Z</time>
      </trkpt>
      <trkpt lat="37.389032" lon="-6.009240">
        <ele>10.351</ele>
        <time>2016-09-01T05:29:48Z</time>
      </trkpt>
      <trkpt lat="37.389187" lon="-6.009815">
        <ele>10.412</ele>
        <time>2016-09-01T05:30:00Z</time>
      </trkpt>
      <trkpt lat="37.389270" lon="-6.010074">
        <ele>10.571</ele>
        <time>2016-09-01T05:30:09Z</time>
      </trkpt>
      <trkpt lat="37.389304" lon="-6.010130">
        <ele>10.585</ele>
        <time>2016-09-01T05:30:18Z</time>
      </trkpt>
      <trkpt lat="37.389393" lon="-6.010291">
        <ele>10.388</ele>
        <time>2016-09-01T05:30:36Z</time>
      </trkpt>
      <trkpt lat="37.389489" lon="-6.010286">
        <ele>10.147</ele>
        <time>2016-09-01T05:30:43Z</time>
      </trkpt>
      <trkpt lat="37.389306" lon="-6.010446">
        <ele>10.766</ele>
        <time>2016-09-01T05:30:51Z</time>
      </trkpt>
      <trkpt lat="37.389296" lon="-6.010570">
        <ele>10.521</ele>
        <time>2016-09-01T05:30:54Z</time>
      </trkpt>
      <trkpt lat="37.389296" lon="-6.010643">
        <ele>10.241</ele>
        <time>2016-09-01T05:30:56Z</time>
      </trkpt>
      <trkpt lat="37.389313" lon="-6.010757">
        <ele>9.905</ele>
        <time>2016-09-01T05:31:00Z</time>
      </trkpt>
      <trkpt lat="37.389313" lon="-6.010846">
        <ele>9.708</ele>
        <time>2016-09-01T05:31:07Z</time>
      </trkpt>
      <trkpt lat="37.389441" lon="-6.010926">
        <ele>9.435</ele>
        <time>2016-09-01T05:31:53Z</time>
      </trkpt>
      <trkpt lat="37.389384" lon="-6.011366">
        <ele>9.336</ele>
        <time>2016-09-01T05:32:05Z</time>
      </trkpt>
      <trkpt lat="37.389324" lon="-6.011941">
        <ele>10.167</ele>
        <time>2016-09-01T05:32:19Z</time>
      </trkpt>
      <trkpt lat="37.389161" lon="-6.012456">
        <ele>10.166</ele>
        <time>2016-09-01T05:32:30Z</time>
      </trkpt>
      <trkpt lat="37.389150" lon="-6.012482">
        <ele>10.190</ele>
        <time>2016-09-01T05:32:31Z</time>
      </trkpt>
      <trkpt lat="37.389147" lon="-6.012540">
        <ele>10.153</ele>
        <time>2016-09-01T05:32:37Z</time>
      </trkpt>
      <trkpt lat="37.389194" lon="-6.012632">
        <ele>10.192</ele>
        <time>2016-09-01T05:32:47Z</time>
      </trkpt>
      <trkpt lat="37.389215" lon="-6.012649">
        <ele>10.261</ele>
        <time>2016-09-01T05:32:49Z</time>
      </trkpt>
      <trkpt lat="37.389357" lon="-6.012739">
        <ele>10.324</ele>
        <time>2016-09-01T05:33:04Z</time>
      </trkpt>
      <trkpt lat="37.389539" lon="-6.012741">
        <ele>10.504</ele>
        <time>2016-09-01T05:33:28Z</time>
      </trkpt>
      <trkpt lat="37.389552" lon="-6.012747">
        <ele>10.514</ele>
        <time>2016-09-01T05:33:33Z</time>
      </trkpt>
      <trkpt lat="37.389634" lon="-6.012765">
        <ele>10.608</ele>
        <time>2016-09-01T05:34:51Z</time>
      </trkpt>
      <trkpt lat="37.389818" lon="-6.012791">
        <ele>10.595</ele>
        <time>2016-09-01T05:35:02Z</time>
      </trkpt>
      <trkpt lat="37.389829" lon="-6.012802">
        <ele>10.596</ele>
        <time>2016-09-01T05:35:03Z</time>
      </trkpt>
      <trkpt lat="37.389835" lon="-6.012820">
        <ele>10.497</ele>
        <time>2016-09-01T05:35:04Z</time>
      </trkpt>
      <trkpt lat="37.389837" lon="-6.012843">
        <ele>10.496</ele>
        <time>2016-09-01T05:35:05Z</time>
      </trkpt>
      <trkpt lat="37.389838" lon="-6.012867">
        <ele>10.470</ele>
        <time>2016-09-01T05:35:06Z</time>
      </trkpt>
      <trkpt lat="37.389940" lon="-6.013112">
        <ele>9.593</ele>
        <time>2016-09-01T05:35:21Z</time>
      </trkpt>
      <trkpt lat="37.390129" lon="-6.013266">
        <ele>8.972</ele>
        <time>2016-09-01T05:35:38Z</time>
      </trkpt>
      <trkpt lat="37.390140" lon="-6.013274">
        <ele>8.831</ele>
        <time>2016-09-01T05:35:39Z</time>
      </trkpt>
      <trkpt lat="37.390146" lon="-6.013285">
        <ele>8.851</ele>
        <time>2016-09-01T05:35:40Z</time>
      </trkpt>
      <trkpt lat="37.390157" lon="-6.013501">
        <ele>8.701</ele>
        <time>2016-09-01T05:35:51Z</time>
      </trkpt>
      <trkpt lat="37.390186" lon="-6.013806">
        <ele>8.711</ele>
        <time>2016-09-01T05:36:06Z</time>
      </trkpt>
      <trkpt lat="37.390186" lon="-6.013805">
        <ele>8.708</ele>
        <time>2016-09-01T05:36:07Z</time>
      </trkpt>
      <trkpt lat="37.390190" lon="-6.013867">
        <ele>8.738</ele>
        <time>2016-09-01T05:36:28Z</time>
      </trkpt>
      <trkpt lat="37.390194" lon="-6.013918">
        <ele>8.689</ele>
        <time>2016-09-01T05:36:30Z</time>
      </trkpt>
      <trkpt lat="37.390205" lon="-6.013936">
        <ele>8.610</ele>
        <time>2016-09-01T05:36:31Z</time>
      </trkpt>
      <trkpt lat="37.390221" lon="-6.013946">
        <ele>8.639</ele>
        <time>2016-09-01T05:36:32Z</time>
      </trkpt>
      <trkpt lat="37.390240" lon="-6.013946">
        <ele>8.643</ele>
        <time>2016-09-01T05:36:33Z</time>
      </trkpt>
      <trkpt lat="37.390261" lon="-6.013943">
        <ele>8.666</ele>
        <time>2016-09-01T05:36:34Z</time>
      </trkpt>
      <trkpt lat="37.390652" lon="-6.013900">
        <ele>8.045</ele>
        <time>2016-09-01T05:36:49Z</time>
      </trkpt>
      <trkpt lat="37.390901" lon="-6.013857">
        <ele>8.044</ele>
        <time>2016-09-01T05:37:03Z</time>
      </trkpt>
      <trkpt lat="37.391214" lon="-6.013812">
        <ele>7.995</ele>
        <time>2016-09-01T05:37:17Z</time>
      </trkpt>
      <trkpt lat="37.391219" lon="-6.013810">
        <ele>7.949</ele>
        <time>2016-09-01T05:37:21Z</time>
      </trkpt>
      <trkpt lat="37.391314" lon="-6.013811">
        <ele>7.923</ele>
        <time>2016-09-01T05:37:53Z</time>
      </trkpt>
      <trkpt lat="37.391439" lon="-6.013804">
        <ele>7.808</ele>
        <time>2016-09-01T05:38:03Z</time>
      </trkpt>
      <trkpt lat="37.391442" lon="-6.013817">
        <ele>7.812</ele>
        <time>2016-09-01T05:38:04Z</time>
      </trkpt>
      <trkpt lat="37.391456" lon="-6.013906">
        <ele>7.463</ele>
        <time>2016-09-01T05:38:07Z</time>
      </trkpt>
      <trkpt lat="37.391496" lon="-6.014121">
        <ele>6.564</ele>
        <time>2016-09-01T05:38:12Z</time>
      </trkpt>
      <trkpt lat="37.391655" lon="-6.014131">
        <ele>6.223</ele>
        <time>2016-09-01T05:38:18Z</time>
      </trkpt>
      <trkpt lat="37.392271" lon="-6.014103">
        <ele>6.897</ele>
        <time>2016-09-01T05:38:35Z</time>
      </trkpt>
      <trkpt lat="37.392349" lon="-6.014217">
        <ele>6.470</ele>
        <time>2016-09-01T05:38:47Z</time>
      </trkpt>
      <trkpt lat="37.392349" lon="-6.014219">
        <ele>6.499</ele>
        <time>2016-09-01T05:38:49Z</time>
      </trkpt>
      <trkpt lat="37.392361" lon="-6.014293">
        <ele>6.478</ele>
        <time>2016-09-01T05:39:10Z</time>
      </trkpt>
      <trkpt lat="37.392105" lon="-6.014587">
        <ele>7.849</ele>
        <time>2016-09-01T05:39:21Z</time>
      </trkpt>
      <trkpt lat="37.391946" lon="-6.015181">
        <ele>8.802</ele>
        <time>2016-09-01T05:39:36Z</time>
      </trkpt>
      <trkpt lat="37.392089" lon="-6.015866">
        <ele>9.122</ele>
        <time>2016-09-01T05:39:52Z</time>
      </trkpt>
      <trkpt lat="37.392268" lon="-6.016625">
        <ele>9.208</ele>
        <time>2016-09-01T05:40:06Z</time>
      </trkpt>
      <trkpt lat="37.392313" lon="-6.016738">
        <ele>9.117</ele>
        <time>2016-09-01T05:40:13Z</time>
      </trkpt>
      <trkpt lat="37.392313" lon="-6.016832">
        <ele>9.158</ele>
        <time>2016-09-01T05:40:36Z</time>
      </trkpt>
      <trkpt lat="37.392465" lon="-6.017535">
        <ele>8.729</ele>
        <time>2016-09-01T05:40:51Z</time>
      </trkpt>
      <trkpt lat="37.392719" lon="-6.018650">
        <ele>6.768</ele>
        <time>2016-09-01T05:41:10Z</time>
      </trkpt>
      <trkpt lat="37.392779" lon="-6.018922">
        <ele>5.992</ele>
        <time>2016-09-01T05:41:17Z</time>
      </trkpt>
      <trkpt lat="37.392787" lon="-6.018945">
        <ele>5.995</ele>
        <time>2016-09-01T05:41:18Z</time>
      </trkpt>
      <trkpt lat="37.392916" lon="-6.019529">
        <ele>5.414</ele>
        <time>2016-09-01T05:41:30Z</time>
      </trkpt>
      <trkpt lat="37.393043" lon="-6.020042">
        <ele>5.743</ele>
        <time>2016-09-01T05:41:39Z</time>
      </trkpt>
      <trkpt lat="37.393122" lon="-6.020040">
        <ele>5.856</ele>
        <time>2016-09-01T05:41:43Z</time>
      </trkpt>
      <trkpt lat="37.393142" lon="-6.020017">
        <ele>5.859</ele>
        <time>2016-09-01T05:41:44Z</time>
      </trkpt>
      <trkpt lat="37.393158" lon="-6.019987">
        <ele>5.914</ele>
        <time>2016-09-01T05:41:45Z</time>
      </trkpt>
      <trkpt lat="37.393167" lon="-6.019953">
        <ele>5.908</ele>
        <time>2016-09-01T05:41:46Z</time>
      </trkpt>
      <trkpt lat="37.393171" lon="-6.019919">
        <ele>5.998</ele>
        <time>2016-09-01T05:41:47Z</time>
      </trkpt>
      <trkpt lat="37.393170" lon="-6.019887">
        <ele>5.979</ele>
        <time>2016-09-01T05:41:48Z</time>
      </trkpt>
      <trkpt lat="37.393167" lon="-6.019854">
        <ele>6.060</ele>
        <time>2016-09-01T05:41:49Z</time>
      </trkpt>
      <trkpt lat="37.393166" lon="-6.019818">
        <ele>6.069</ele>
        <time>2016-09-01T05:41:50Z</time>
      </trkpt>
      <trkpt lat="37.393105" lon="-6.019167">
        <ele>6.313</ele>
        <time>2016-09-01T05:42:04Z</time>
      </trkpt>
      <trkpt lat="37.393101" lon="-6.019117">
        <ele>6.346</ele>
        <time>2016-09-01T05:42:05Z</time>
      </trkpt>
      <trkpt lat="37.393042" lon="-6.018796">
        <ele>6.625</ele>
        <time>2016-09-01T05:42:11Z</time>
      </trkpt>
      <trkpt lat="37.393036" lon="-6.018743">
        <ele>6.654</ele>
        <time>2016-09-01T05:42:12Z</time>
      </trkpt>
      <trkpt lat="37.393145" lon="-6.018396">
        <ele>6.922</ele>
        <time>2016-09-01T05:42:22Z</time>
      </trkpt>
      <trkpt lat="37.393228" lon="-6.018319">
        <ele>6.862</ele>
        <time>2016-09-01T05:42:31Z</time>
      </trkpt>
      <trkpt lat="37.393371" lon="-6.018058">
        <ele>6.008</ele>
        <time>2016-09-01T05:42:37Z</time>
      </trkpt>
      <trkpt lat="37.393543" lon="-6.017924">
        <ele>4.908</ele>
        <time>2016-09-01T05:42:41Z</time>
      </trkpt>
      <trkpt lat="37.394446" lon="-6.017644">
        <ele>3.055</ele>
        <time>2016-09-01T05:43:00Z</time>
      </trkpt>
      <trkpt lat="37.395421" lon="-6.017355">
        <ele>2.846</ele>
        <time>2016-09-01T05:43:21Z</time>
      </trkpt>
      <trkpt lat="37.396405" lon="-6.017057">
        <ele>3.167</ele>
        <time>2016-09-01T05:43:42Z</time>
      </trkpt>
      <trkpt lat="37.396451" lon="-6.017043">
        <ele>3.156</ele>
        <time>2016-09-01T05:43:43Z</time>
      </trkpt>
      <trkpt lat="37.396632" lon="-6.017005">
        <ele>3.120</ele>
        <time>2016-09-01T05:43:47Z</time>
      </trkpt>
      <trkpt lat="37.397162" lon="-6.016842">
        <ele>3.273</ele>
        <time>2016-09-01T05:44:02Z</time>
      </trkpt>
      <trkpt lat="37.397162" lon="-6.016842">
        <ele>3.252</ele>
        <time>2016-09-01T05:44:04Z</time>
      </trkpt>
      <trkpt lat="37.397203" lon="-6.016812">
        <ele>3.341</ele>
        <time>2016-09-01T05:44:36Z</time>
      </trkpt>
      <trkpt lat="37.397639" lon="-6.016689">
        <ele>3.473</ele>
        <time>2016-09-01T05:44:50Z</time>
      </trkpt>
      <trkpt lat="37.397821" lon="-6.016641">
        <ele>3.485</ele>
        <time>2016-09-01T05:44:55Z</time>
      </trkpt>
      <trkpt lat="37.398429" lon="-6.016486">
        <ele>3.313</ele>
        <time>2016-09-01T05:45:09Z</time>
      </trkpt>
      <trkpt lat="37.399256" lon="-6.016183">
        <ele>2.908</ele>
        <time>2016-09-01T05:45:27Z</time>
      </trkpt>
      <trkpt lat="37.400036" lon="-6.015956">
        <ele>3.240</ele>
        <time>2016-09-01T05:45:44Z</time>
      </trkpt>
      <trkpt lat="37.400751" lon="-6.015773">
        <ele>2.831</ele>
        <time>2016-09-01T05:45:59Z</time>
      </trkpt>
      <trkpt lat="37.401487" lon="-6.015600">
        <ele>3.132</ele>
        <time>2016-09-01T05:46:14Z</time>
      </trkpt>
      <trkpt lat="37.402051" lon="-6.015473">
        <ele>2.751</ele>
        <time>2016-09-01T05:46:26Z</time>
      </trkpt>
      <trkpt lat="37.402269" lon="-6.015420">
        <ele>2.635</ele>
        <time>2016-09-01T05:46:31Z</time>
      </trkpt>
      <trkpt lat="37.402355" lon="-6.015385">
        <ele>2.628</ele>
        <time>2016-09-01T05:46:33Z</time>
      </trkpt>
      <trkpt lat="37.403235" lon="-6.015143">
        <ele>2.797</ele>
        <time>2016-09-01T05:46:53Z</time>
      </trkpt>
      <trkpt lat="37.403414" lon="-6.015251">
        <ele>3.236</ele>
        <time>2016-09-01T05:47:03Z</time>
      </trkpt>
      <trkpt lat="37.403488" lon="-6.015426">
        <ele>3.811</ele>
        <time>2016-09-01T05:47:12Z</time>
      </trkpt>
      <trkpt lat="37.403587" lon="-6.015458">
        <ele>3.821</ele>
        <time>2016-09-01T05:47:30Z</time>
      </trkpt>
      <trkpt lat="37.403613" lon="-6.015455">
        <ele>3.803</ele>
        <time>2016-09-01T05:47:31Z</time>
      </trkpt>
      <trkpt lat="37.404073" lon="-6.015499">
        <ele>5.608</ele>
        <time>2016-09-01T05:47:47Z</time>
      </trkpt>
      <trkpt lat="37.404184" lon="-6.015727">
        <ele>6.684</ele>
        <time>2016-09-01T05:47:57Z</time>
      </trkpt>
      <trkpt lat="37.404355" lon="-6.016062">
        <ele>7.515</ele>
        <time>2016-09-01T05:48:10Z</time>
      </trkpt>
      <trkpt lat="37.404678" lon="-6.016171">
        <ele>6.956</ele>
        <time>2016-09-01T05:48:23Z</time>
      </trkpt>
      <trkpt lat="37.405049" lon="-6.015762">
        <ele>6.295</ele>
        <time>2016-09-01T05:48:36Z</time>
      </trkpt>
      <trkpt lat="37.405353" lon="-6.015938">
        <ele>6.979</ele>
        <time>2016-09-01T05:48:46Z</time>
      </trkpt>
      <trkpt lat="37.405836" lon="-6.016424">
        <ele>6.762</ele>
        <time>2016-09-01T05:49:00Z</time>
      </trkpt>
      <trkpt lat="37.405937" lon="-6.016537">
        <ele>6.751</ele>
        <time>2016-09-01T05:49:03Z</time>
      </trkpt>
      <trkpt lat="37.405964" lon="-6.016576">
        <ele>6.770</ele>
        <time>2016-09-01T05:49:04Z</time>
      </trkpt>
      <trkpt lat="37.405986" lon="-6.016614">
        <ele>6.795</ele>
        <time>2016-09-01T05:49:05Z</time>
      </trkpt>
      <trkpt lat="37.406008" lon="-6.016651">
        <ele>6.749</ele>
        <time>2016-09-01T05:49:06Z</time>
      </trkpt>
      <trkpt lat="37.406034" lon="-6.016683">
        <ele>6.723</ele>
        <time>2016-09-01T05:49:07Z</time>
      </trkpt>
      <trkpt lat="37.406060" lon="-6.016718">
        <ele>6.708</ele>
        <time>2016-09-01T05:49:08Z</time>
      </trkpt>
      <trkpt lat="37.406086" lon="-6.016754">
        <ele>6.742</ele>
        <time>2016-09-01T05:49:09Z</time>
      </trkpt>
      <trkpt lat="37.406656" lon="-6.017556">
        <ele>6.813</ele>
        <time>2016-09-01T05:49:28Z</time>
      </trkpt>
      <trkpt lat="37.407234" lon="-6.018457">
        <ele>6.944</ele>
        <time>2016-09-01T05:49:48Z</time>
      </trkpt>
      <trkpt lat="37.407602" lon="-6.019022">
        <ele>6.973</ele>
        <time>2016-09-01T05:50:01Z</time>
      </trkpt>
      <trkpt lat="37.407631" lon="-6.019063">
        <ele>6.997</ele>
        <time>2016-09-01T05:50:02Z</time>
      </trkpt>
      <trkpt lat="37.407661" lon="-6.019102">
        <ele>6.910</ele>
        <time>2016-09-01T05:50:03Z</time>
      </trkpt>
      <trkpt lat="37.408433" lon="-6.019948">
        <ele>7.439</ele>
        <time>2016-09-01T05:50:26Z</time>
      </trkpt>
      <trkpt lat="37.409027" lon="-6.020724">
        <ele>7.458</ele>
        <time>2016-09-01T05:50:45Z</time>
      </trkpt>
      <trkpt lat="37.409075" lon="-6.020815">
        <ele>7.459</ele>
        <time>2016-09-01T05:50:47Z</time>
      </trkpt>
      <trkpt lat="37.409101" lon="-6.020856">
        <ele>7.303</ele>
        <time>2016-09-01T05:50:48Z</time>
      </trkpt>
      <trkpt lat="37.409544" lon="-6.021519">
        <ele>7.623</ele>
        <time>2016-09-01T05:51:04Z</time>
      </trkpt>
      <trkpt lat="37.410160" lon="-6.022443">
        <ele>6.308</ele>
        <time>2016-09-01T05:51:26Z</time>
      </trkpt>
      <trkpt lat="37.410418" lon="-6.022809">
        <ele>7.288</ele>
        <time>2016-09-01T05:51:35Z</time>
      </trkpt>
      <trkpt lat="37.410478" lon="-6.022886">
        <ele>7.589</ele>
        <time>2016-09-01T05:51:37Z</time>
      </trkpt>
      <trkpt lat="37.410897" lon="-6.023631">
        <ele>7.510</ele>
        <time>2016-09-01T05:51:55Z</time>
      </trkpt>
      <trkpt lat="37.411290" lon="-6.023974">
        <ele>7.279</ele>
        <time>2016-09-01T05:52:07Z</time>
      </trkpt>
      <trkpt lat="37.411882" lon="-6.024438">
        <ele>6.933</ele>
        <time>2016-09-01T05:52:24Z</time>
      </trkpt>
      <trkpt lat="37.412435" lon="-6.025115">
        <ele>6.576</ele>
        <time>2016-09-01T05:52:41Z</time>
      </trkpt>
      <trkpt lat="37.412973" lon="-6.025638">
        <ele>6.545</ele>
        <time>2016-09-01T05:52:57Z</time>
      </trkpt>
      <trkpt lat="37.413672" lon="-6.026079">
        <ele>7.074</ele>
        <time>2016-09-01T05:53:17Z</time>
      </trkpt>
      <trkpt lat="37.414099" lon="-6.026196">
        <ele>7.966</ele>
        <time>2016-09-01T05:53:29Z</time>
      </trkpt>
      <trkpt lat="37.414689" lon="-6.026153">
        <ele>7.129</ele>
        <time>2016-09-01T05:53:44Z</time>
      </trkpt>
      <trkpt lat="37.415287" lon="-6.025973">
        <ele>6.921</ele>
        <time>2016-09-01T05:53:59Z</time>
      </trkpt>
      <trkpt lat="37.415681" lon="-6.025829">
        <ele>6.808</ele>
        <time>2016-09-01T05:54:08Z</time>
      </trkpt>
      <trkpt lat="37.415724" lon="-6.025817">
        <ele>6.899</ele>
        <time>2016-09-01T05:54:09Z</time>
      </trkpt>
      <trkpt lat="37.415769" lon="-6.025811">
        <ele>6.870</ele>
        <time>2016-09-01T05:54:10Z</time>
      </trkpt>
      <trkpt lat="37.415814" lon="-6.025808">
        <ele>6.871</ele>
        <time>2016-09-01T05:54:11Z</time>
      </trkpt>
      <trkpt lat="37.415859" lon="-6.025807">
        <ele>6.830</ele>
        <time>2016-09-01T05:54:12Z</time>
      </trkpt>
      <trkpt lat="37.416550" lon="-6.025919">
        <ele>6.694</ele>
        <time>2016-09-01T05:54:27Z</time>
      </trkpt>
      <trkpt lat="37.416597" lon="-6.025922">
        <ele>6.677</ele>
        <time>2016-09-01T05:54:28Z</time>
      </trkpt>
      <trkpt lat="37.416870" lon="-6.025945">
        <ele>6.316</ele>
        <time>2016-09-01T05:54:34Z</time>
      </trkpt>
      <trkpt lat="37.416915" lon="-6.025944">
        <ele>6.295</ele>
        <time>2016-09-01T05:54:35Z</time>
      </trkpt>
      <trkpt lat="37.417442" lon="-6.026077">
        <ele>5.514</ele>
        <time>2016-09-01T05:54:48Z</time>
      </trkpt>
      <trkpt lat="37.417616" lon="-6.026140">
        <ele>5.354</ele>
        <time>2016-09-01T05:54:52Z</time>
      </trkpt>
      <trkpt lat="37.418479" lon="-6.026379">
        <ele>5.009</ele>
        <time>2016-09-01T05:55:09Z</time>
      </trkpt>
      <trkpt lat="37.419296" lon="-6.026774">
        <ele>4.308</ele>
        <time>2016-09-01T05:55:25Z</time>
      </trkpt>
      <trkpt lat="37.420186" lon="-6.027384">
        <ele>4.124</ele>
        <time>2016-09-01T05:55:44Z</time>
      </trkpt>
      <trkpt lat="37.420976" lon="-6.027831">
        <ele>3.915</ele>
        <time>2016-09-01T05:56:01Z</time>
      </trkpt>
      <trkpt lat="37.421485" lon="-6.028071">
        <ele>3.746</ele>
        <time>2016-09-01T05:56:12Z</time>
      </trkpt>
      <trkpt lat="37.422278" lon="-6.028103">
        <ele>4.235</ele>
        <time>2016-09-01T05:56:28Z</time>
      </trkpt>
      <trkpt lat="37.423327" lon="-6.028201">
        <ele>4.719</ele>
        <time>2016-09-01T05:56:48Z</time>
      </trkpt>
      <trkpt lat="37.423544" lon="-6.028542">
        <ele>6.152</ele>
        <time>2016-09-01T05:56:57Z</time>
      </trkpt>
      <trkpt lat="37.423582" lon="-6.028775">
        <ele>6.521</ele>
        <time>2016-09-01T05:57:00Z</time>
      </trkpt>
      <trkpt lat="37.423584" lon="-6.028857">
        <ele>6.650</ele>
        <time>2016-09-01T05:57:01Z</time>
      </trkpt>
      <trkpt lat="37.423587" lon="-6.029085">
        <ele>6.668</ele>
        <time>2016-09-01T05:57:04Z</time>
      </trkpt>
      <trkpt lat="37.423729" lon="-6.029772">
        <ele>6.142</ele>
        <time>2016-09-01T05:57:15Z</time>
      </trkpt>
      <trkpt lat="37.423758" lon="-6.029835">
        <ele>5.926</ele>
        <time>2016-09-01T05:57:16Z</time>
      </trkpt>
      <trkpt lat="37.423795" lon="-6.029890">
        <ele>5.708</ele>
        <time>2016-09-01T05:57:17Z</time>
      </trkpt>
      <trkpt lat="37.423840" lon="-6.029937">
        <ele>5.449</ele>
        <time>2016-09-01T05:57:18Z</time>
      </trkpt>
      <trkpt lat="37.423885" lon="-6.029979">
        <ele>5.240</ele>
        <time>2016-09-01T05:57:19Z</time>
      </trkpt>
      <trkpt lat="37.423932" lon="-6.030020">
        <ele>5.021</ele>
        <time>2016-09-01T05:57:20Z</time>
      </trkpt>
      <trkpt lat="37.425008" lon="-6.030802">
        <ele>3.650</ele>
        <time>2016-09-01T05:57:43Z</time>
      </trkpt>
      <trkpt lat="37.425759" lon="-6.031356">
        <ele>4.434</ele>
        <time>2016-09-01T05:58:01Z</time>
      </trkpt>
      <trkpt lat="37.426553" lon="-6.031970">
        <ele>4.437</ele>
        <time>2016-09-01T05:58:20Z</time>
      </trkpt>
      <trkpt lat="37.426875" lon="-6.032154">
        <ele>4.426</ele>
        <time>2016-09-01T05:58:28Z</time>
      </trkpt>
      <trkpt lat="37.427337" lon="-6.032446">
        <ele>4.745</ele>
        <time>2016-09-01T05:58:39Z</time>
      </trkpt>
      <trkpt lat="37.427727" lon="-6.032692">
        <ele>4.948</ele>
        <time>2016-09-01T05:58:48Z</time>
      </trkpt>
      <trkpt lat="37.428473" lon="-6.033297">
        <ele>5.261</ele>
        <time>2016-09-01T05:59:06Z</time>
      </trkpt>
      <trkpt lat="37.429211" lon="-6.033771">
        <ele>5.417</ele>
        <time>2016-09-01T05:59:23Z</time>
      </trkpt>
      <trkpt lat="37.429300" lon="-6.033823">
        <ele>5.408</ele>
        <time>2016-09-01T05:59:25Z</time>
      </trkpt>
      <trkpt lat="37.429962" lon="-6.034193">
        <ele>6.647</ele>
        <time>2016-09-01T05:59:41Z</time>
      </trkpt>
      <trkpt lat="37.430374" lon="-6.034385">
        <ele>7.078</ele>
        <time>2016-09-01T05:59:55Z</time>
      </trkpt>
      <trkpt lat="37.430423" lon="-6.034405">
        <ele>7.069</ele>
        <time>2016-09-01T06:00:02Z</time>
      </trkpt>
      <trkpt lat="37.430481" lon="-6.034452">
        <ele>6.848</ele>
        <time>2016-09-01T06:00:12Z</time>
      </trkpt>
      <trkpt lat="37.430600" lon="-6.034604">
        <ele>7.352</ele>
        <time>2016-09-01T06:00:17Z</time>
      </trkpt>
      <trkpt lat="37.430569" lon="-6.034831">
        <ele>8.185</ele>
        <time>2016-09-01T06:00:21Z</time>
      </trkpt>
      <trkpt lat="37.430549" lon="-6.034886">
        <ele>8.214</ele>
        <time>2016-09-01T06:00:22Z</time>
      </trkpt>
      <trkpt lat="37.430529" lon="-6.034941">
        <ele>8.223</ele>
        <time>2016-09-01T06:00:23Z</time>
      </trkpt>
      <trkpt lat="37.430467" lon="-6.035119">
        <ele>7.858</ele>
        <time>2016-09-01T06:00:26Z</time>
      </trkpt>
      <trkpt lat="37.430426" lon="-6.035363">
        <ele>8.152</ele>
        <time>2016-09-01T06:00:30Z</time>
      </trkpt>
      <trkpt lat="37.430370" lon="-6.036067">
        <ele>8.817</ele>
        <time>2016-09-01T06:00:41Z</time>
      </trkpt>
      <trkpt lat="37.430290" lon="-6.036901">
        <ele>11.008</ele>
        <time>2016-09-01T06:00:59Z</time>
      </trkpt>
      <trkpt lat="37.430241" lon="-6.037527">
        <ele>11.648</ele>
        <time>2016-09-01T06:01:14Z</time>
      </trkpt>
      <trkpt lat="37.430222" lon="-6.038187">
        <ele>12.359</ele>
        <time>2016-09-01T06:01:30Z</time>
      </trkpt>
      <trkpt lat="37.430575" lon="-6.038504">
        <ele>14.360</ele>
        <time>2016-09-01T06:01:43Z</time>
      </trkpt>
      <trkpt lat="37.431175" lon="-6.038629">
        <ele>15.439</ele>
        <time>2016-09-01T06:02:01Z</time>
      </trkpt>
      <trkpt lat="37.431775" lon="-6.038712">
        <ele>15.883</ele>
        <time>2016-09-01T06:02:19Z</time>
      </trkpt>
      <trkpt lat="37.431911" lon="-6.038684">
        <ele>15.636</ele>
        <time>2016-09-01T06:02:23Z</time>
      </trkpt>
      <trkpt lat="37.431943" lon="-6.038708">
        <ele>15.795</ele>
        <time>2016-09-01T06:02:24Z</time>
      </trkpt>
      <trkpt lat="37.432445" lon="-6.038854">
        <ele>16.574</ele>
        <time>2016-09-01T06:02:37Z</time>
      </trkpt>
      <trkpt lat="37.433150" lon="-6.038935">
        <ele>15.732</ele>
        <time>2016-09-01T06:02:51Z</time>
      </trkpt>
      <trkpt lat="37.433969" lon="-6.038929">
        <ele>16.292</ele>
        <time>2016-09-01T06:03:10Z</time>
      </trkpt>
      <trkpt lat="37.434498" lon="-6.038878">
        <ele>17.111</ele>
        <time>2016-09-01T06:03:22Z</time>
      </trkpt>
      <trkpt lat="37.434581" lon="-6.038845">
        <ele>17.208</ele>
        <time>2016-09-01T06:03:24Z</time>
      </trkpt>
      <trkpt lat="37.434620" lon="-6.038823">
        <ele>17.036</ele>
        <time>2016-09-01T06:03:25Z</time>
      </trkpt>
      <trkpt lat="37.434659" lon="-6.038798">
        <ele>16.957</ele>
        <time>2016-09-01T06:03:26Z</time>
      </trkpt>
      <trkpt lat="37.434735" lon="-6.038740">
        <ele>16.578</ele>
        <time>2016-09-01T06:03:28Z</time>
      </trkpt>
      <trkpt lat="37.434771" lon="-6.038704">
        <ele>16.417</ele>
        <time>2016-09-01T06:03:29Z</time>
      </trkpt>
      <trkpt lat="37.434841" lon="-6.038616">
        <ele>16.021</ele>
        <time>2016-09-01T06:03:31Z</time>
      </trkpt>
      <trkpt lat="37.434867" lon="-6.038556">
        <ele>15.894</ele>
        <time>2016-09-01T06:03:32Z</time>
      </trkpt>
      <trkpt lat="37.435101" lon="-6.037765">
        <ele>13.913</ele>
        <time>2016-09-01T06:03:44Z</time>
      </trkpt>
      <trkpt lat="37.435087" lon="-6.037719">
        <ele>13.982</ele>
        <time>2016-09-01T06:03:45Z</time>
      </trkpt>
      <trkpt lat="37.435068" lon="-6.037676">
        <ele>13.963</ele>
        <time>2016-09-01T06:03:46Z</time>
      </trkpt>
      <trkpt lat="37.435054" lon="-6.037635">
        <ele>13.944</ele>
        <time>2016-09-01T06:03:47Z</time>
      </trkpt>
      <trkpt lat="37.435045" lon="-6.037597">
        <ele>13.918</ele>
        <time>2016-09-01T06:03:48Z</time>
      </trkpt>
      <trkpt lat="37.435041" lon="-6.037564">
        <ele>13.908</ele>
        <time>2016-09-01T06:03:49Z</time>
      </trkpt>
      <trkpt lat="37.435039" lon="-6.037540">
        <ele>13.949</ele>
        <time>2016-09-01T06:03:50Z</time>
      </trkpt>
      <trkpt lat="37.435036" lon="-6.037517">
        <ele>13.950</ele>
        <time>2016-09-01T06:03:55Z</time>
      </trkpt>
      <trkpt lat="37.435085" lon="-6.037549">
        <ele>13.911</ele>
        <time>2016-09-01T06:04:30Z</time>
      </trkpt>
      <trkpt lat="37.435090" lon="-6.037574">
        <ele>13.950</ele>
        <time>2016-09-01T06:04:31Z</time>
      </trkpt>
      <trkpt lat="37.435096" lon="-6.037600">
        <ele>13.624</ele>
        <time>2016-09-01T06:04:32Z</time>
      </trkpt>
      <trkpt lat="37.435108" lon="-6.037620">
        <ele>13.687</ele>
        <time>2016-09-01T06:04:33Z</time>
      </trkpt>
      <trkpt lat="37.435128" lon="-6.037630">
        <ele>13.536</ele>
        <time>2016-09-01T06:04:34Z</time>
      </trkpt>
      <trkpt lat="37.435148" lon="-6.037621">
        <ele>13.515</ele>
        <time>2016-09-01T06:04:35Z</time>
      </trkpt>
      <trkpt lat="37.435162" lon="-6.037593">
        <ele>13.532</ele>
        <time>2016-09-01T06:04:36Z</time>
      </trkpt>
      <trkpt lat="37.435180" lon="-6.037548">
        <ele>13.492</ele>
        <time>2016-09-01T06:04:37Z</time>
      </trkpt>
      <trkpt lat="37.435203" lon="-6.037496">
        <ele>13.411</ele>
        <time>2016-09-01T06:04:38Z</time>
      </trkpt>
      <trkpt lat="37.435233" lon="-6.037444">
        <ele>13.308</ele>
        <time>2016-09-01T06:04:39Z</time>
      </trkpt>
      <trkpt lat="37.435267" lon="-6.037392">
        <ele>13.256</ele>
        <time>2016-09-01T06:04:40Z</time>
      </trkpt>
      <trkpt lat="37.435305" lon="-6.037343">
        <ele>13.227</ele>
        <time>2016-09-01T06:04:41Z</time>
      </trkpt>
      <trkpt lat="37.435349" lon="-6.037302">
        <ele>13.058</ele>
        <time>2016-09-01T06:04:42Z</time>
      </trkpt>
      <trkpt lat="37.435394" lon="-6.037270">
        <ele>12.937</ele>
        <time>2016-09-01T06:04:43Z</time>
      </trkpt>
      <trkpt lat="37.435440" lon="-6.037245">
        <ele>12.831</ele>
        <time>2016-09-01T06:04:44Z</time>
      </trkpt>
      <trkpt lat="37.435488" lon="-6.037222">
        <ele>12.764</ele>
        <time>2016-09-01T06:04:45Z</time>
      </trkpt>
      <trkpt lat="37.435534" lon="-6.037201">
        <ele>12.583</ele>
        <time>2016-09-01T06:04:46Z</time>
      </trkpt>
      <trkpt lat="37.435580" lon="-6.037188">
        <ele>12.412</ele>
        <time>2016-09-01T06:04:47Z</time>
      </trkpt>
      <trkpt lat="37.435632" lon="-6.037180">
        <ele>12.176</ele>
        <time>2016-09-01T06:04:48Z</time>
      </trkpt>
      <trkpt lat="37.435689" lon="-6.037182">
        <ele>11.990</ele>
        <time>2016-09-01T06:04:49Z</time>
      </trkpt>
      <trkpt lat="37.435745" lon="-6.037191">
        <ele>11.719</ele>
        <time>2016-09-01T06:04:50Z</time>
      </trkpt>
      <trkpt lat="37.435802" lon="-6.037211">
        <ele>11.308</ele>
        <time>2016-09-01T06:04:51Z</time>
      </trkpt>
      <trkpt lat="37.435859" lon="-6.037238">
        <ele>11.110</ele>
        <time>2016-09-01T06:04:52Z</time>
      </trkpt>
      <trkpt lat="37.435916" lon="-6.037269">
        <ele>11.051</ele>
        <time>2016-09-01T06:04:53Z</time>
      </trkpt>
      <trkpt lat="37.435973" lon="-6.037304">
        <ele>10.982</ele>
        <time>2016-09-01T06:04:54Z</time>
      </trkpt>
      <trkpt lat="37.436736" lon="-6.037962">
        <ele>12.791</ele>
        <time>2016-09-01T06:05:08Z</time>
      </trkpt>
      <trkpt lat="37.436869" lon="-6.038080">
        <ele>14.085</ele>
        <time>2016-09-01T06:05:11Z</time>
      </trkpt>
      <trkpt lat="37.436919" lon="-6.038101">
        <ele>14.168</ele>
        <time>2016-09-01T06:05:12Z</time>
      </trkpt>
      <trkpt lat="37.436970" lon="-6.038120">
        <ele>14.427</ele>
        <time>2016-09-01T06:05:13Z</time>
      </trkpt>
      <trkpt lat="37.437016" lon="-6.038151">
        <ele>14.526</ele>
        <time>2016-09-01T06:05:14Z</time>
      </trkpt>
      <trkpt lat="37.437054" lon="-6.038194">
        <ele>14.696</ele>
        <time>2016-09-01T06:05:15Z</time>
      </trkpt>
      <trkpt lat="37.437085" lon="-6.038239">
        <ele>15.031</ele>
        <time>2016-09-01T06:05:16Z</time>
      </trkpt>
      <trkpt lat="37.437111" lon="-6.038286">
        <ele>15.224</ele>
        <time>2016-09-01T06:05:17Z</time>
      </trkpt>
      <trkpt lat="37.437135" lon="-6.038332">
        <ele>15.408</ele>
        <time>2016-09-01T06:05:18Z</time>
      </trkpt>
      <trkpt lat="37.437296" lon="-6.038831">
        <ele>17.572</ele>
        <time>2016-09-01T06:05:31Z</time>
      </trkpt>
      <trkpt lat="37.437362" lon="-6.039426">
        <ele>19.633</ele>
        <time>2016-09-01T06:05:47Z</time>
      </trkpt>
      <trkpt lat="37.437764" lon="-6.040009">
        <ele>21.144</ele>
        <time>2016-09-01T06:06:06Z</time>
      </trkpt>
      <trkpt lat="37.438220" lon="-6.040373">
        <ele>21.073</ele>
        <time>2016-09-01T06:06:20Z</time>
      </trkpt>
      <trkpt lat="37.438863" lon="-6.040682">
        <ele>20.257</ele>
        <time>2016-09-01T06:06:36Z</time>
      </trkpt>
      <trkpt lat="37.439413" lon="-6.040854">
        <ele>17.450</ele>
        <time>2016-09-01T06:06:48Z</time>
      </trkpt>
      <trkpt lat="37.439519" lon="-6.040867">
        <ele>16.679</ele>
        <time>2016-09-01T06:06:50Z</time>
      </trkpt>
      <trkpt lat="37.439695" lon="-6.040845">
        <ele>15.428</ele>
        <time>2016-09-01T06:06:53Z</time>
      </trkpt>
      <trkpt lat="37.439757" lon="-6.040816">
        <ele>15.049</ele>
        <time>2016-09-01T06:06:54Z</time>
      </trkpt>
      <trkpt lat="37.439820" lon="-6.040778">
        <ele>14.602</ele>
        <time>2016-09-01T06:06:55Z</time>
      </trkpt>
      <trkpt lat="37.440085" lon="-6.040617">
        <ele>12.622</ele>
        <time>2016-09-01T06:06:59Z</time>
      </trkpt>
      <trkpt lat="37.440164" lon="-6.040597">
        <ele>12.008</ele>
        <time>2016-09-01T06:07:00Z</time>
      </trkpt>
      <trkpt lat="37.440248" lon="-6.040588">
        <ele>11.587</ele>
        <time>2016-09-01T06:07:01Z</time>
      </trkpt>
      <trkpt lat="37.440334" lon="-6.040588">
        <ele>11.018</ele>
        <time>2016-09-01T06:07:02Z</time>
      </trkpt>
      <trkpt lat="37.440423" lon="-6.040602">
        <ele>10.789</ele>
        <time>2016-09-01T06:07:03Z</time>
      </trkpt>
      <trkpt lat="37.440511" lon="-6.040624">
        <ele>10.478</ele>
        <time>2016-09-01T06:07:04Z</time>
      </trkpt>
      <trkpt lat="37.440876" lon="-6.040768">
        <ele>9.952</ele>
        <time>2016-09-01T06:07:09Z</time>
      </trkpt>
      <trkpt lat="37.441491" lon="-6.041121">
        <ele>10.995</ele>
        <time>2016-09-01T06:07:19Z</time>
      </trkpt>
      <trkpt lat="37.442271" lon="-6.041753">
        <ele>12.734</ele>
        <time>2016-09-01T06:07:33Z</time>
      </trkpt>
      <trkpt lat="37.442987" lon="-6.042586">
        <ele>14.033</ele>
        <time>2016-09-01T06:07:49Z</time>
      </trkpt>
      <trkpt lat="37.443610" lon="-6.043467">
        <ele>13.192</ele>
        <time>2016-09-01T06:08:06Z</time>
      </trkpt>
      <trkpt lat="37.444092" lon="-6.044192">
        <ele>12.973</ele>
        <time>2016-09-01T06:08:23Z</time>
      </trkpt>
      <trkpt lat="37.444193" lon="-6.044295">
        <ele>10.720</ele>
        <time>2016-09-01T06:08:34Z</time>
      </trkpt>
      <trkpt lat="37.444237" lon="-6.044327">
        <ele>10.708</ele>
        <time>2016-09-01T06:09:28Z</time>
      </trkpt>
      <trkpt lat="37.444635" lon="-6.044698">
        <ele>11.972</ele>
        <time>2016-09-01T06:09:42Z</time>
      </trkpt>
      <trkpt lat="37.445167" lon="-6.045127">
        <ele>12.563</ele>
        <time>2016-09-01T06:09:57Z</time>
      </trkpt>
      <trkpt lat="37.445870" lon="-6.045677">
        <ele>12.634</ele>
        <time>2016-09-01T06:10:14Z</time>
      </trkpt>
      <trkpt lat="37.446811" lon="-6.046363">
        <ele>12.813</ele>
        <time>2016-09-01T06:10:35Z</time>
      </trkpt>
      <trkpt lat="37.447934" lon="-6.047008">
        <ele>12.297</ele>
        <time>2016-09-01T06:10:59Z</time>
      </trkpt>
      <trkpt lat="37.448723" lon="-6.047051">
        <ele>10.370</ele>
        <time>2016-09-01T06:11:14Z</time>
      </trkpt>
      <trkpt lat="37.449737" lon="-6.046849">
        <ele>10.669</ele>
        <time>2016-09-01T06:11:32Z</time>
      </trkpt>
      <trkpt lat="37.451013" lon="-6.046604">
        <ele>11.688</ele>
        <time>2016-09-01T06:11:55Z</time>
      </trkpt>
      <trkpt lat="37.452277" lon="-6.046359">
        <ele>10.668</ele>
        <time>2016-09-01T06:12:18Z</time>
      </trkpt>
      <trkpt lat="37.453103" lon="-6.046197">
        <ele>10.942</ele>
        <time>2016-09-01T06:12:34Z</time>
      </trkpt>
      <trkpt lat="37.453844" lon="-6.046104">
        <ele>10.726</ele>
        <time>2016-09-01T06:12:49Z</time>
      </trkpt>
      <trkpt lat="37.454588" lon="-6.046243">
        <ele>10.408</ele>
        <time>2016-09-01T06:13:03Z</time>
      </trkpt>
      <trkpt lat="37.454633" lon="-6.046242">
        <ele>10.399</ele>
        <time>2016-09-01T06:13:04Z</time>
      </trkpt>
      <trkpt lat="37.454669" lon="-6.046233">
        <ele>10.350</ele>
        <time>2016-09-01T06:13:05Z</time>
      </trkpt>
      <trkpt lat="37.454705" lon="-6.046217">
        <ele>10.281</ele>
        <time>2016-09-01T06:13:06Z</time>
      </trkpt>
      <trkpt lat="37.454733" lon="-6.046195">
        <ele>10.240</ele>
        <time>2016-09-01T06:13:07Z</time>
      </trkpt>
      <trkpt lat="37.454752" lon="-6.046177">
        <ele>10.194</ele>
        <time>2016-09-01T06:13:08Z</time>
      </trkpt>
      <trkpt lat="37.454767" lon="-6.046163">
        <ele>10.137</ele>
        <time>2016-09-01T06:13:09Z</time>
      </trkpt>
      <trkpt lat="37.454777" lon="-6.046154">
        <ele>10.186</ele>
        <time>2016-09-01T06:13:10Z</time>
      </trkpt>
      <trkpt lat="37.454788" lon="-6.046146">
        <ele>10.025</ele>
        <time>2016-09-01T06:13:11Z</time>
      </trkpt>
      <trkpt lat="37.454803" lon="-6.046133">
        <ele>10.039</ele>
        <time>2016-09-01T06:13:12Z</time>
      </trkpt>
      <trkpt lat="37.454813" lon="-6.046116">
        <ele>10.001</ele>
        <time>2016-09-01T06:13:13Z</time>
      </trkpt>
      <trkpt lat="37.454819" lon="-6.046091">
        <ele>10.021</ele>
        <time>2016-09-01T06:13:14Z</time>
      </trkpt>
      <trkpt lat="37.454829" lon="-6.046054">
        <ele>9.808</ele>
        <time>2016-09-01T06:13:15Z</time>
      </trkpt>
      <trkpt lat="37.454846" lon="-6.046012">
        <ele>9.766</ele>
        <time>2016-09-01T06:13:16Z</time>
      </trkpt>
      <trkpt lat="37.454867" lon="-6.045967">
        <ele>9.647</ele>
        <time>2016-09-01T06:13:17Z</time>
      </trkpt>
      <trkpt lat="37.454896" lon="-6.045926">
        <ele>9.458</ele>
        <time>2016-09-01T06:13:18Z</time>
      </trkpt>
      <trkpt lat="37.454930" lon="-6.045892">
        <ele>9.327</ele>
        <time>2016-09-01T06:13:19Z</time>
      </trkpt>
      <trkpt lat="37.454969" lon="-6.045863">
        <ele>9.151</ele>
        <time>2016-09-01T06:13:20Z</time>
      </trkpt>
      <trkpt lat="37.455012" lon="-6.045840">
        <ele>9.024</ele>
        <time>2016-09-01T06:13:21Z</time>
      </trkpt>
      <trkpt lat="37.455054" lon="-6.045818">
        <ele>8.923</ele>
        <time>2016-09-01T06:13:22Z</time>
      </trkpt>
      <trkpt lat="37.455305" lon="-6.045740">
        <ele>9.192</ele>
        <time>2016-09-01T06:13:28Z</time>
      </trkpt>
      <trkpt lat="37.455346" lon="-6.045726">
        <ele>9.023</ele>
        <time>2016-09-01T06:13:29Z</time>
      </trkpt>
      <trkpt lat="37.455543" lon="-6.045632">
        <ele>8.783</ele>
        <time>2016-09-01T06:13:34Z</time>
      </trkpt>
      <trkpt lat="37.455584" lon="-6.045599">
        <ele>8.611</ele>
        <time>2016-09-01T06:13:35Z</time>
      </trkpt>
      <trkpt lat="37.455848" lon="-6.045353">
        <ele>7.508</ele>
        <time>2016-09-01T06:13:46Z</time>
      </trkpt>
      <trkpt lat="37.455849" lon="-6.045354">
        <ele>7.545</ele>
        <time>2016-09-01T06:13:49Z</time>
      </trkpt>
      <trkpt lat="37.455889" lon="-6.045317">
        <ele>7.446</ele>
        <time>2016-09-01T06:14:56Z</time>
      </trkpt>
      <trkpt lat="37.455973" lon="-6.045248">
        <ele>7.157</ele>
        <time>2016-09-01T06:15:04Z</time>
      </trkpt>
      <trkpt lat="37.456021" lon="-6.045207">
        <ele>7.086</ele>
        <time>2016-09-01T06:15:37Z</time>
      </trkpt>
      <trkpt lat="37.456549" lon="-6.044716">
        <ele>5.160</ele>
        <time>2016-09-01T06:15:53Z</time>
      </trkpt>
      <trkpt lat="37.456866" lon="-6.044475">
        <ele>5.873</ele>
        <time>2016-09-01T06:16:00Z</time>
      </trkpt>
      <trkpt lat="37.457147" lon="-6.044231">
        <ele>6.712</ele>
        <time>2016-09-01T06:16:07Z</time>
      </trkpt>
      <trkpt lat="37.457217" lon="-6.044143">
        <ele>7.021</ele>
        <time>2016-09-01T06:16:09Z</time>
      </trkpt>
      <trkpt lat="37.457257" lon="-6.044105">
        <ele>7.085</ele>
        <time>2016-09-01T06:16:10Z</time>
      </trkpt>
      <trkpt lat="37.457295" lon="-6.044064">
        <ele>7.089</ele>
        <time>2016-09-01T06:16:11Z</time>
      </trkpt>
      <trkpt lat="37.457328" lon="-6.044023">
        <ele>7.017</ele>
        <time>2016-09-01T06:16:12Z</time>
      </trkpt>
      <trkpt lat="37.457713" lon="-6.043625">
        <ele>7.408</ele>
        <time>2016-09-01T06:16:25Z</time>
      </trkpt>
      <trkpt lat="37.457891" lon="-6.043514">
        <ele>7.861</ele>
        <time>2016-09-01T06:16:31Z</time>
      </trkpt>
      <trkpt lat="37.457973" lon="-6.043484">
        <ele>7.912</ele>
        <time>2016-09-01T06:16:33Z</time>
      </trkpt>
      <trkpt lat="37.458010" lon="-6.043460">
        <ele>7.833</ele>
        <time>2016-09-01T06:16:34Z</time>
      </trkpt>
      <trkpt lat="37.458044" lon="-6.043430">
        <ele>7.892</ele>
        <time>2016-09-01T06:16:35Z</time>
      </trkpt>
      <trkpt lat="37.458473" lon="-6.043178">
        <ele>7.196</ele>
        <time>2016-09-01T06:16:48Z</time>
      </trkpt>
      <trkpt lat="37.458755" lon="-6.043009">
        <ele>7.229</ele>
        <time>2016-09-01T06:17:00Z</time>
      </trkpt>
      <trkpt lat="37.458932" lon="-6.042739">
        <ele>8.228</ele>
        <time>2016-09-01T06:17:11Z</time>
      </trkpt>
      <trkpt lat="37.459044" lon="-6.042427">
        <ele>9.817</ele>
        <time>2016-09-01T06:17:21Z</time>
      </trkpt>
      <trkpt lat="37.459423" lon="-6.042400">
        <ele>8.544</ele>
        <time>2016-09-01T06:17:30Z</time>
      </trkpt>
      <trkpt lat="37.460210" lon="-6.042511">
        <ele>7.605</ele>
        <time>2016-09-01T06:17:45Z</time>
      </trkpt>
      <trkpt lat="37.461404" lon="-6.042746">
        <ele>7.415</ele>
        <time>2016-09-01T06:18:08Z</time>
      </trkpt>
      <trkpt lat="37.462234" lon="-6.042906">
        <ele>7.608</ele>
        <time>2016-09-01T06:18:25Z</time>
      </trkpt>
      <trkpt lat="37.463330" lon="-6.043111">
        <ele>7.637</ele>
        <time>2016-09-01T06:18:47Z</time>
      </trkpt>
      <trkpt lat="37.464365" lon="-6.043304">
        <ele>8.328</ele>
        <time>2016-09-01T06:19:09Z</time>
      </trkpt>
      <trkpt lat="37.465123" lon="-6.043451">
        <ele>10.439</ele>
        <time>2016-09-01T06:19:29Z</time>
      </trkpt>
      <trkpt lat="37.465491" lon="-6.043521">
        <ele>11.638</ele>
        <time>2016-09-01T06:19:42Z</time>
      </trkpt>
      <trkpt lat="37.465894" lon="-6.043600">
        <ele>12.542</ele>
        <time>2016-09-01T06:19:58Z</time>
      </trkpt>
      <trkpt lat="37.466026" lon="-6.043626">
        <ele>12.435</ele>
        <time>2016-09-01T06:20:07Z</time>
      </trkpt>
      <trkpt lat="37.466069" lon="-6.043635">
        <ele>12.394</ele>
        <time>2016-09-01T06:20:26Z</time>
      </trkpt>
      <trkpt lat="37.466514" lon="-6.043711">
        <ele>10.693</ele>
        <time>2016-09-01T06:20:36Z</time>
      </trkpt>
      <trkpt lat="37.467193" lon="-6.043833">
        <ele>9.127</ele>
        <time>2016-09-01T06:20:46Z</time>
      </trkpt>
      <trkpt lat="37.468201" lon="-6.044028">
        <ele>9.168</ele>
        <time>2016-09-01T06:21:06Z</time>
      </trkpt>
      <trkpt lat="37.468444" lon="-6.044081">
        <ele>9.314</ele>
        <time>2016-09-01T06:21:12Z</time>
      </trkpt>
      <trkpt lat="37.469232" lon="-6.044220">
        <ele>10.708</ele>
        <time>2016-09-01T06:21:31Z</time>
      </trkpt>
      <trkpt lat="37.469779" lon="-6.044324">
        <ele>12.415</ele>
        <time>2016-09-01T06:21:50Z</time>
      </trkpt>
      <trkpt lat="37.470343" lon="-6.044426">
        <ele>12.616</ele>
        <time>2016-09-01T06:22:05Z</time>
      </trkpt>
      <trkpt lat="37.470723" lon="-6.044508">
        <ele>12.347</ele>
        <time>2016-09-01T06:22:13Z</time>
      </trkpt>
      <trkpt lat="37.471385" lon="-6.044627">
        <ele>12.396</ele>
        <time>2016-09-01T06:22:30Z</time>
      </trkpt>
      <trkpt lat="37.472269" lon="-6.044794">
        <ele>15.220</ele>
        <time>2016-09-01T06:22:55Z</time>
      </trkpt>
      <trkpt lat="37.472732" lon="-6.044896">
        <ele>17.483</ele>
        <time>2016-09-01T06:23:13Z</time>
      </trkpt>
      <trkpt lat="37.473045" lon="-6.044976">
        <ele>19.232</ele>
        <time>2016-09-01T06:23:28Z</time>
      </trkpt>
      <trkpt lat="37.473405" lon="-6.045011">
        <ele>21.571</ele>
        <time>2016-09-01T06:23:44Z</time>
      </trkpt>
      <trkpt lat="37.473825" lon="-6.045089">
        <ele>22.919</ele>
        <time>2016-09-01T06:24:00Z</time>
      </trkpt>
      <trkpt lat="37.474417" lon="-6.045208">
        <ele>22.009</ele>
        <time>2016-09-01T06:24:18Z</time>
      </trkpt>
      <trkpt lat="37.475238" lon="-6.045348">
        <ele>18.319</ele>
        <time>2016-09-01T06:24:31Z</time>
      </trkpt>
      <trkpt lat="37.475692" lon="-6.045438">
        <ele>19.308</ele>
        <time>2016-09-01T06:24:42Z</time>
      </trkpt>
      <trkpt lat="37.476243" lon="-6.045546">
        <ele>20.224</ele>
        <time>2016-09-01T06:24:59Z</time>
      </trkpt>
      <trkpt lat="37.476409" lon="-6.045578">
        <ele>20.245</ele>
        <time>2016-09-01T06:25:08Z</time>
      </trkpt>
      <trkpt lat="37.476458" lon="-6.045592">
        <ele>20.246</ele>
        <time>2016-09-01T06:26:36Z</time>
      </trkpt>
      <trkpt lat="37.476811" lon="-6.045654">
        <ele>19.995</ele>
        <time>2016-09-01T06:26:46Z</time>
      </trkpt>
      <trkpt lat="37.476852" lon="-6.045660">
        <ele>19.879</ele>
        <time>2016-09-01T06:26:47Z</time>
      </trkpt>
      <trkpt lat="37.477649" lon="-6.045819">
        <ele>18.212</ele>
        <time>2016-09-01T06:27:02Z</time>
      </trkpt>
      <trkpt lat="37.478211" lon="-6.045903">
        <ele>18.931</ele>
        <time>2016-09-01T06:27:14Z</time>
      </trkpt>
      <trkpt lat="37.478909" lon="-6.046038">
        <ele>20.780</ele>
        <time>2016-09-01T06:27:33Z</time>
      </trkpt>
      <trkpt lat="37.479408" lon="-6.046133">
        <ele>23.929</ele>
        <time>2016-09-01T06:27:52Z</time>
      </trkpt>
      <trkpt lat="37.480005" lon="-6.046248">
        <ele>24.800</ele>
        <time>2016-09-01T06:28:09Z</time>
      </trkpt>
      <trkpt lat="37.480962" lon="-6.046409">
        <ele>23.220</ele>
        <time>2016-09-01T06:28:29Z</time>
      </trkpt>
      <trkpt lat="37.481687" lon="-6.046560">
        <ele>24.108</ele>
        <time>2016-09-01T06:28:48Z</time>
      </trkpt>
      <trkpt lat="37.482391" lon="-6.046694">
        <ele>26.115</ele>
        <time>2016-09-01T06:29:09Z</time>
      </trkpt>
      <trkpt lat="37.483198" lon="-6.046849">
        <ele>23.436</ele>
        <time>2016-09-01T06:29:24Z</time>
      </trkpt>
      <trkpt lat="37.484501" lon="-6.047077">
        <ele>20.327</ele>
        <time>2016-09-01T06:29:46Z</time>
      </trkpt>
      <trkpt lat="37.485222" lon="-6.047225">
        <ele>21.136</ele>
        <time>2016-09-01T06:30:01Z</time>
      </trkpt>
      <trkpt lat="37.485549" lon="-6.047276">
        <ele>22.020</ele>
        <time>2016-09-01T06:30:09Z</time>
      </trkpt>
      <trkpt lat="37.485636" lon="-6.047288">
        <ele>22.173</ele>
        <time>2016-09-01T06:30:11Z</time>
      </trkpt>
      <trkpt lat="37.486589" lon="-6.047464">
        <ele>22.262</ele>
        <time>2016-09-01T06:30:32Z</time>
      </trkpt>
      <trkpt lat="37.487490" lon="-6.047667">
        <ele>20.821</ele>
        <time>2016-09-01T06:30:50Z</time>
      </trkpt>
      <trkpt lat="37.488277" lon="-6.047815">
        <ele>14.934</ele>
        <time>2016-09-01T06:31:01Z</time>
      </trkpt>
      <trkpt lat="37.488838" lon="-6.047922">
        <ele>12.055</ele>
        <time>2016-09-01T06:31:08Z</time>
      </trkpt>
      <trkpt lat="37.489601" lon="-6.048094">
        <ele>10.110</ele>
        <time>2016-09-01T06:31:19Z</time>
      </trkpt>
      <trkpt lat="37.490496" lon="-6.048229">
        <ele>9.008</ele>
        <time>2016-09-01T06:31:34Z</time>
      </trkpt>
      <trkpt lat="37.491451" lon="-6.048409">
        <ele>8.986</ele>
        <time>2016-09-01T06:31:51Z</time>
      </trkpt>
      <trkpt lat="37.492403" lon="-6.048577">
        <ele>9.067</ele>
        <time>2016-09-01T06:32:10Z</time>
      </trkpt>
      <trkpt lat="37.492500" lon="-6.048602">
        <ele>9.098</ele>
        <time>2016-09-01T06:32:12Z</time>
      </trkpt>
      <trkpt lat="37.493582" lon="-6.048807">
        <ele>9.357</ele>
        <time>2016-09-01T06:32:34Z</time>
      </trkpt>
      <trkpt lat="37.493774" lon="-6.048851">
        <ele>9.161</ele>
        <time>2016-09-01T06:32:38Z</time>
      </trkpt>
      <trkpt lat="37.493821" lon="-6.048865">
        <ele>9.154</ele>
        <time>2016-09-01T06:32:39Z</time>
      </trkpt>
      <trkpt lat="37.494332" lon="-6.048952">
        <ele>8.943</ele>
        <time>2016-09-01T06:32:51Z</time>
      </trkpt>
      <trkpt lat="37.494657" lon="-6.049001">
        <ele>9.112</ele>
        <time>2016-09-01T06:32:59Z</time>
      </trkpt>
      <trkpt lat="37.494998" lon="-6.049060">
        <ele>9.795</ele>
        <time>2016-09-01T06:33:10Z</time>
      </trkpt>
      <trkpt lat="37.495554" lon="-6.049191">
        <ele>11.949</ele>
        <time>2016-09-01T06:33:24Z</time>
      </trkpt>
      <trkpt lat="37.495979" lon="-6.049277">
        <ele>13.923</ele>
        <time>2016-09-01T06:33:41Z</time>
      </trkpt>
      <trkpt lat="37.496380" lon="-6.049353">
        <ele>15.308</ele>
        <time>2016-09-01T06:33:56Z</time>
      </trkpt>
      <trkpt lat="37.496785" lon="-6.049418">
        <ele>15.622</ele>
        <time>2016-09-01T06:34:11Z</time>
      </trkpt>
      <trkpt lat="37.497465" lon="-6.049530">
        <ele>15.513</ele>
        <time>2016-09-01T06:34:28Z</time>
      </trkpt>
      <trkpt lat="37.498108" lon="-6.049662">
        <ele>17.144</ele>
        <time>2016-09-01T06:34:45Z</time>
      </trkpt>
      <trkpt lat="37.498754" lon="-6.049788">
        <ele>19.723</ele>
        <time>2016-09-01T06:35:04Z</time>
      </trkpt>
      <trkpt lat="37.499440" lon="-6.049917">
        <ele>21.947</ele>
        <time>2016-09-01T06:35:24Z</time>
      </trkpt>
      <trkpt lat="37.500279" lon="-6.050091">
        <ele>24.470</ele>
        <time>2016-09-01T06:35:49Z</time>
      </trkpt>
      <trkpt lat="37.500806" lon="-6.050190">
        <ele>24.619</ele>
        <time>2016-09-01T06:36:04Z</time>
      </trkpt>
      <trkpt lat="37.501545" lon="-6.050320">
        <ele>25.518</ele>
        <time>2016-09-01T06:36:23Z</time>
      </trkpt>
      <trkpt lat="37.502194" lon="-6.050458">
        <ele>24.479</ele>
        <time>2016-09-01T06:36:39Z</time>
      </trkpt>
      <trkpt lat="37.502241" lon="-6.050466">
        <ele>24.105</ele>
        <time>2016-09-01T06:36:40Z</time>
      </trkpt>
      <trkpt lat="37.502710" lon="-6.050480">
        <ele>20.125</ele>
        <time>2016-09-01T06:36:49Z</time>
      </trkpt>
      <trkpt lat="37.503341" lon="-6.050623">
        <ele>15.408</ele>
        <time>2016-09-01T06:36:57Z</time>
      </trkpt>
      <trkpt lat="37.503834" lon="-6.050727">
        <ele>15.280</ele>
        <time>2016-09-01T06:37:03Z</time>
      </trkpt>
      <trkpt lat="37.504418" lon="-6.050854">
        <ele>18.011</ele>
        <time>2016-09-01T06:37:14Z</time>
      </trkpt>
      <trkpt lat="37.504796" lon="-6.050929">
        <ele>21.842</ele>
        <time>2016-09-01T06:37:27Z</time>
      </trkpt>
      <trkpt lat="37.505114" lon="-6.050991">
        <ele>23.431</ele>
        <time>2016-09-01T06:37:39Z</time>
      </trkpt>
      <trkpt lat="37.505587" lon="-6.051105">
        <ele>24.755</ele>
        <time>2016-09-01T06:37:56Z</time>
      </trkpt>
      <trkpt lat="37.506016" lon="-6.051191">
        <ele>25.738</ele>
        <time>2016-09-01T06:38:10Z</time>
      </trkpt>
      <trkpt lat="37.506716" lon="-6.051322">
        <ele>24.157</ele>
        <time>2016-09-01T06:38:28Z</time>
      </trkpt>
      <trkpt lat="37.507482" lon="-6.051465">
        <ele>18.976</ele>
        <time>2016-09-01T06:38:40Z</time>
      </trkpt>
      <trkpt lat="37.508065" lon="-6.051543">
        <ele>15.633</ele>
        <time>2016-09-01T06:38:48Z</time>
      </trkpt>
      <trkpt lat="37.508666" lon="-6.051659">
        <ele>13.423</ele>
        <time>2016-09-01T06:38:56Z</time>
      </trkpt>
      <trkpt lat="37.509384" lon="-6.051790">
        <ele>12.815</ele>
        <time>2016-09-01T06:39:07Z</time>
      </trkpt>
      <trkpt lat="37.510483" lon="-6.051994">
        <ele>12.508</ele>
        <time>2016-09-01T06:39:27Z</time>
      </trkpt>
      <trkpt lat="37.511632" lon="-6.052216">
        <ele>12.826</ele>
        <time>2016-09-01T06:39:50Z</time>
      </trkpt>
      <trkpt lat="37.512614" lon="-6.052398">
        <ele>12.647</ele>
        <time>2016-09-01T06:40:10Z</time>
      </trkpt>
      <trkpt lat="37.513705" lon="-6.052597">
        <ele>12.718</ele>
        <time>2016-09-01T06:40:33Z</time>
      </trkpt>
      <trkpt lat="37.514665" lon="-6.052777">
        <ele>13.247</ele>
        <time>2016-09-01T06:40:53Z</time>
      </trkpt>
      <trkpt lat="37.515762" lon="-6.052978">
        <ele>13.471</ele>
        <time>2016-09-01T06:41:16Z</time>
      </trkpt>
      <trkpt lat="37.517024" lon="-6.053216">
        <ele>13.724</ele>
        <time>2016-09-01T06:41:42Z</time>
      </trkpt>
      <trkpt lat="37.518066" lon="-6.053426">
        <ele>12.593</ele>
        <time>2016-09-01T06:42:02Z</time>
      </trkpt>
      <trkpt lat="37.518953" lon="-6.053574">
        <ele>11.942</ele>
        <time>2016-09-01T06:42:20Z</time>
      </trkpt>
      <trkpt lat="37.519938" lon="-6.053760">
        <ele>11.994</ele>
        <time>2016-09-01T06:42:40Z</time>
      </trkpt>
      <trkpt lat="37.520830" lon="-6.053936">
        <ele>11.457</ele>
        <time>2016-09-01T06:42:58Z</time>
      </trkpt>
      <trkpt lat="37.521952" lon="-6.054158">
        <ele>11.322</ele>
        <time>2016-09-01T06:43:20Z</time>
      </trkpt>
      <trkpt lat="37.522941" lon="-6.054340">
        <ele>11.308</ele>
        <time>2016-09-01T06:43:40Z</time>
      </trkpt>
      <trkpt lat="37.523218" lon="-6.054387">
        <ele>11.212</ele>
        <time>2016-09-01T06:43:48Z</time>
      </trkpt>
      <trkpt lat="37.523237" lon="-6.054364">
        <ele>11.213</ele>
        <time>2016-09-01T06:43:49Z</time>
      </trkpt>
      <trkpt lat="37.523249" lon="-6.054331">
        <ele>11.134</ele>
        <time>2016-09-01T06:43:50Z</time>
      </trkpt>
      <trkpt lat="37.523253" lon="-6.054294">
        <ele>11.163</ele>
        <time>2016-09-01T06:43:51Z</time>
      </trkpt>
      <trkpt lat="37.523253" lon="-6.054251">
        <ele>11.117</ele>
        <time>2016-09-01T06:43:52Z</time>
      </trkpt>
      <trkpt lat="37.523249" lon="-6.053364">
        <ele>11.660</ele>
        <time>2016-09-01T06:44:07Z</time>
      </trkpt>
      <trkpt lat="37.523252" lon="-6.053240">
        <ele>11.699</ele>
        <time>2016-09-01T06:44:09Z</time>
      </trkpt>
      <trkpt lat="37.523269" lon="-6.051855">
        <ele>11.518</ele>
        <time>2016-09-01T06:44:31Z</time>
      </trkpt>
      <trkpt lat="37.523278" lon="-6.051158">
        <ele>11.487</ele>
        <time>2016-09-01T06:44:42Z</time>
      </trkpt>
      <trkpt lat="37.523326" lon="-6.049963">
        <ele>10.842</ele>
        <time>2016-09-01T06:45:01Z</time>
      </trkpt>
      <trkpt lat="37.523302" lon="-6.048700">
        <ele>10.426</ele>
        <time>2016-09-01T06:45:21Z</time>
      </trkpt>
      <trkpt lat="37.523257" lon="-6.048512">
        <ele>10.408</ele>
        <time>2016-09-01T06:45:27Z</time>
      </trkpt>
      <trkpt lat="37.523264" lon="-6.048501">
        <ele>10.481</ele>
        <time>2016-09-01T06:45:28Z</time>
      </trkpt>
      <trkpt lat="37.523274" lon="-6.048490">
        <ele>10.452</ele>
        <time>2016-09-01T06:45:29Z</time>
      </trkpt>
      <trkpt lat="37.523290" lon="-6.048478">
        <ele>10.423</ele>
        <time>2016-09-01T06:45:30Z</time>
      </trkpt>
      <trkpt lat="37.523310" lon="-6.048464">
        <ele>10.462</ele>
        <time>2016-09-01T06:45:31Z</time>
      </trkpt>
      <trkpt lat="37.523692" lon="-6.048385">
        <ele>10.426</ele>
        <time>2016-09-01T06:45:42Z</time>
      </trkpt>
      <trkpt lat="37.524437" lon="-6.048278">
        <ele>10.479</ele>
        <time>2016-09-01T06:45:59Z</time>
      </trkpt>
      <trkpt lat="37.525413" lon="-6.048128">
        <ele>9.858</ele>
        <time>2016-09-01T06:46:20Z</time>
      </trkpt>
      <trkpt lat="37.526235" lon="-6.047957">
        <ele>10.057</ele>
        <time>2016-09-01T06:46:37Z</time>
      </trkpt>
      <trkpt lat="37.526284" lon="-6.047953">
        <ele>10.136</ele>
        <time>2016-09-01T06:46:38Z</time>
      </trkpt>
      <trkpt lat="37.526333" lon="-6.047950">
        <ele>10.117</ele>
        <time>2016-09-01T06:46:39Z</time>
      </trkpt>
      <trkpt lat="37.526381" lon="-6.047942">
        <ele>10.118</ele>
        <time>2016-09-01T06:46:40Z</time>
      </trkpt>
      <trkpt lat="37.526573" lon="-6.047885">
        <ele>10.208</ele>
        <time>2016-09-01T06:46:44Z</time>
      </trkpt>
      <trkpt lat="37.526712" lon="-6.047825">
        <ele>10.396</ele>
        <time>2016-09-01T06:46:47Z</time>
      </trkpt>
      <trkpt lat="37.527244" lon="-6.047711">
        <ele>10.487</ele>
        <time>2016-09-01T06:46:58Z</time>
      </trkpt>
      <trkpt lat="37.527339" lon="-6.047708">
        <ele>10.448</ele>
        <time>2016-09-01T06:47:00Z</time>
      </trkpt>
      <trkpt lat="37.527385" lon="-6.047693">
        <ele>10.487</ele>
        <time>2016-09-01T06:47:01Z</time>
      </trkpt>
      <trkpt lat="37.527429" lon="-6.047673">
        <ele>10.491</ele>
        <time>2016-09-01T06:47:02Z</time>
      </trkpt>
      <trkpt lat="37.527473" lon="-6.047655">
        <ele>10.584</ele>
        <time>2016-09-01T06:47:03Z</time>
      </trkpt>
      <trkpt lat="37.527518" lon="-6.047641">
        <ele>10.543</ele>
        <time>2016-09-01T06:47:04Z</time>
      </trkpt>
      <trkpt lat="37.527565" lon="-6.047635">
        <ele>10.532</ele>
        <time>2016-09-01T06:47:05Z</time>
      </trkpt>
      <trkpt lat="37.527612" lon="-6.047631">
        <ele>10.534</ele>
        <time>2016-09-01T06:47:06Z</time>
      </trkpt>
      <trkpt lat="37.527658" lon="-6.047624">
        <ele>10.555</ele>
        <time>2016-09-01T06:47:07Z</time>
      </trkpt>
      <trkpt lat="37.527993" lon="-6.047568">
        <ele>10.610</ele>
        <time>2016-09-01T06:47:14Z</time>
      </trkpt>
      <trkpt lat="37.528042" lon="-6.047569">
        <ele>10.608</ele>
        <time>2016-09-01T06:47:15Z</time>
      </trkpt>
      <trkpt lat="37.528090" lon="-6.047563">
        <ele>10.656</ele>
        <time>2016-09-01T06:47:16Z</time>
      </trkpt>
      <trkpt lat="37.529053" lon="-6.047377">
        <ele>10.647</ele>
        <time>2016-09-01T06:47:36Z</time>
      </trkpt>
      <trkpt lat="37.529973" lon="-6.047436">
        <ele>10.358</ele>
        <time>2016-09-01T06:47:55Z</time>
      </trkpt>
      <trkpt lat="37.530240" lon="-6.047531">
        <ele>10.267</ele>
        <time>2016-09-01T06:48:01Z</time>
      </trkpt>
      <trkpt lat="37.530280" lon="-6.047556">
        <ele>10.291</ele>
        <time>2016-09-01T06:48:02Z</time>
      </trkpt>
      <trkpt lat="37.530317" lon="-6.047584">
        <ele>10.124</ele>
        <time>2016-09-01T06:48:03Z</time>
      </trkpt>
      <trkpt lat="37.530518" lon="-6.047880">
        <ele>10.133</ele>
        <time>2016-09-01T06:48:13Z</time>
      </trkpt>
      <trkpt lat="37.530616" lon="-6.048054">
        <ele>10.012</ele>
        <time>2016-09-01T06:48:25Z</time>
      </trkpt>
      <trkpt lat="37.530757" lon="-6.048416">
        <ele>9.756</ele>
        <time>2016-09-01T06:48:36Z</time>
      </trkpt>
      <trkpt lat="37.530769" lon="-6.048466">
        <ele>9.759</ele>
        <time>2016-09-01T06:48:37Z</time>
      </trkpt>
      <trkpt lat="37.530776" lon="-6.048521">
        <ele>9.614</ele>
        <time>2016-09-01T06:48:38Z</time>
      </trkpt>
      <trkpt lat="37.530998" lon="-6.048984">
        <ele>9.508</ele>
        <time>2016-09-01T06:48:50Z</time>
      </trkpt>
      <trkpt lat="37.531327" lon="-6.049278">
        <ele>9.878</ele>
        <time>2016-09-01T06:49:00Z</time>
      </trkpt>
      <trkpt lat="37.531457" lon="-6.049306">
        <ele>9.999</ele>
        <time>2016-09-01T06:49:03Z</time>
      </trkpt>
      <trkpt lat="37.531606" lon="-6.049438">
        <ele>9.930</ele>
        <time>2016-09-01T06:49:07Z</time>
      </trkpt>
      <trkpt lat="37.531855" lon="-6.050069">
        <ele>9.619</ele>
        <time>2016-09-01T06:49:19Z</time>
      </trkpt>
      <trkpt lat="37.531862" lon="-6.050292">
        <ele>9.593</ele>
        <time>2016-09-01T06:49:23Z</time>
      </trkpt>
      <trkpt lat="37.531940" lon="-6.050685">
        <ele>9.696</ele>
        <time>2016-09-01T06:49:32Z</time>
      </trkpt>
      <trkpt lat="37.532349" lon="-6.051072">
        <ele>10.215</ele>
        <time>2016-09-01T06:49:45Z</time>
      </trkpt>
      <trkpt lat="37.532502" lon="-6.051177">
        <ele>10.514</ele>
        <time>2016-09-01T06:49:49Z</time>
      </trkpt>
      <trkpt lat="37.532664" lon="-6.051254">
        <ele>10.755</ele>
        <time>2016-09-01T06:49:53Z</time>
      </trkpt>
      <trkpt lat="37.533190" lon="-6.051603">
        <ele>10.507</ele>
        <time>2016-09-01T06:50:08Z</time>
      </trkpt>
      <trkpt lat="37.533450" lon="-6.051767">
        <ele>10.617</ele>
        <time>2016-09-01T06:50:15Z</time>
      </trkpt>
      <trkpt lat="37.533696" lon="-6.051971">
        <ele>11.008</ele>
        <time>2016-09-01T06:50:22Z</time>
      </trkpt>
      <trkpt lat="37.533738" lon="-6.051990">
        <ele>11.198</ele>
        <time>2016-09-01T06:50:23Z</time>
      </trkpt>
      <trkpt lat="37.533947" lon="-6.052082">
        <ele>11.429</ele>
        <time>2016-09-01T06:50:28Z</time>
      </trkpt>
      <trkpt lat="37.534498" lon="-6.052405">
        <ele>12.270</ele>
        <time>2016-09-01T06:50:43Z</time>
      </trkpt>
      <trkpt lat="37.534959" lon="-6.052804">
        <ele>12.979</ele>
        <time>2016-09-01T06:50:58Z</time>
      </trkpt>
      <trkpt lat="37.535324" lon="-6.053183">
        <ele>12.713</ele>
        <time>2016-09-01T06:51:12Z</time>
      </trkpt>
      <trkpt lat="37.535577" lon="-6.053664">
        <ele>12.186</ele>
        <time>2016-09-01T06:51:25Z</time>
      </trkpt>
      <trkpt lat="37.535638" lon="-6.053770">
        <ele>12.265</ele>
        <time>2016-09-01T06:51:35Z</time>
      </trkpt>
      <trkpt lat="37.535660" lon="-6.053818">
        <ele>12.344</ele>
        <time>2016-09-01T06:51:40Z</time>
      </trkpt>
      <trkpt lat="37.535664" lon="-6.053821">
        <ele>12.328</ele>
        <time>2016-09-01T06:51:43Z</time>
      </trkpt>
      <trkpt lat="37.535656" lon="-6.054001">
        <ele>12.989</ele>
        <time>2016-09-01T06:53:34Z</time>
      </trkpt>
      <trkpt lat="37.535399" lon="-6.054288">
        <ele>12.817</ele>
        <time>2016-09-01T06:53:48Z</time>
      </trkpt>
      <trkpt lat="37.534993" lon="-6.054506">
        <ele>12.008</ele>
        <time>2016-09-01T06:54:02Z</time>
      </trkpt>
      <trkpt lat="37.534777" lon="-6.054688">
        <ele>12.015</ele>
        <time>2016-09-01T06:54:11Z</time>
      </trkpt>
      <trkpt lat="37.534771" lon="-6.054711">
        <ele>12.086</ele>
        <time>2016-09-01T06:54:12Z</time>
      </trkpt>
      <trkpt lat="37.534769" lon="-6.054737">
        <ele>12.017</ele>
        <time>2016-09-01T06:54:13Z</time>
      </trkpt>
      <trkpt lat="37.534798" lon="-6.054781">
        <ele>12.056</ele>
        <time>2016-09-01T06:54:16Z</time>
      </trkpt>
      <trkpt lat="37.534847" lon="-6.054786">
        <ele>12.030</ele>
        <time>2016-09-01T06:54:19Z</time>
      </trkpt>
      <trkpt lat="37.534868" lon="-6.054773">
        <ele>12.073</ele>
        <time>2016-09-01T06:54:20Z</time>
      </trkpt>
      <trkpt lat="37.534888" lon="-6.054755">
        <ele>12.022</ele>
        <time>2016-09-01T06:54:21Z</time>
      </trkpt>
      <trkpt lat="37.534907" lon="-6.054735">
        <ele>12.011</ele>
        <time>2016-09-01T06:54:22Z</time>
      </trkpt>
      <trkpt lat="37.534920" lon="-6.054716">
        <ele>12.064</ele>
        <time>2016-09-01T06:54:23Z</time>
      </trkpt>
      <trkpt lat="37.534935" lon="-6.054697">
        <ele>12.006</ele>
        <time>2016-09-01T06:54:28Z</time>
      </trkpt>
      <trkpt lat="37.534994" lon="-6.054644">
        <ele>12.016</ele>
        <time>2016-09-01T07:04:56Z</time>
      </trkpt>
      <trkpt lat="37.535010" lon="-6.054626">
        <ele>12.008</ele>
        <time>2016-09-01T07:04:57Z</time>
      </trkpt>
      <trkpt lat="37.535027" lon="-6.054607">
        <ele>12.089</ele>
        <time>2016-09-01T07:04:58Z</time>
      </trkpt>
      <trkpt lat="37.535284" lon="-6.054574">
        <ele>12.260</ele>
        <time>2016-09-01T07:05:08Z</time>
      </trkpt>
      <trkpt lat="37.535737" lon="-6.054302">
        <ele>13.741</ele>
        <time>2016-09-01T07:05:21Z</time>
      </trkpt>
      <trkpt lat="37.536370" lon="-6.053903">
        <ele>14.920</ele>
        <time>2016-09-01T07:05:37Z</time>
      </trkpt>
      <trkpt lat="37.537054" lon="-6.053502">
        <ele>17.034</ele>
        <time>2016-09-01T07:05:52Z</time>
      </trkpt>
      <trkpt lat="37.537146" lon="-6.053437">
        <ele>17.387</ele>
        <time>2016-09-01T07:05:56Z</time>
      </trkpt>
      <trkpt lat="37.537149" lon="-6.053420">
        <ele>17.446</ele>
        <time>2016-09-01T07:05:57Z</time>
      </trkpt>
      <trkpt lat="37.537145" lon="-6.053401">
        <ele>17.475</ele>
        <time>2016-09-01T07:05:58Z</time>
      </trkpt>
      <trkpt lat="37.537141" lon="-6.053379">
        <ele>17.595</ele>
        <time>2016-09-01T07:05:59Z</time>
      </trkpt>
      <trkpt lat="37.537138" lon="-6.053353">
        <ele>17.549</ele>
        <time>2016-09-01T07:06:00Z</time>
      </trkpt>
      <trkpt lat="37.537133" lon="-6.053324">
        <ele>17.623</ele>
        <time>2016-09-01T07:06:01Z</time>
      </trkpt>
      <trkpt lat="37.537124" lon="-6.053293">
        <ele>17.608</ele>
        <time>2016-09-01T07:06:02Z</time>
      </trkpt>
      <trkpt lat="37.537045" lon="-6.053034">
        <ele>18.082</ele>
        <time>2016-09-01T07:06:08Z</time>
      </trkpt>
      <trkpt lat="37.537026" lon="-6.052980">
        <ele>18.133</ele>
        <time>2016-09-01T07:06:09Z</time>
      </trkpt>
      <trkpt lat="37.536954" lon="-6.052712">
        <ele>18.414</ele>
        <time>2016-09-01T07:06:14Z</time>
      </trkpt>
      <trkpt lat="37.536926" lon="-6.052447">
        <ele>18.513</ele>
        <time>2016-09-01T07:06:21Z</time>
      </trkpt>
      <trkpt lat="37.536929" lon="-6.052435">
        <ele>18.657</ele>
        <time>2016-09-01T07:06:22Z</time>
      </trkpt>
      <trkpt lat="37.536932" lon="-6.052429">
        <ele>18.680</ele>
        <time>2016-09-01T07:06:26Z</time>
      </trkpt>
      <trkpt lat="37.537006" lon="-6.052389">
        <ele>18.859</ele>
        <time>2016-09-01T07:06:36Z</time>
      </trkpt>
      <trkpt lat="37.537024" lon="-6.052368">
        <ele>18.938</ele>
        <time>2016-09-01T07:06:37Z</time>
      </trkpt>
      <trkpt lat="37.537129" lon="-6.052282">
        <ele>19.254</ele>
        <time>2016-09-01T07:06:43Z</time>
      </trkpt>
      <trkpt lat="37.537195" lon="-6.052143">
        <ele>19.456</ele>
        <time>2016-09-01T07:06:50Z</time>
      </trkpt>
      <trkpt lat="37.537321" lon="-6.051892">
        <ele>19.611</ele>
        <time>2016-09-01T07:07:04Z</time>
      </trkpt>
      <trkpt lat="37.537348" lon="-6.051876">
        <ele>19.608</ele>
        <time>2016-09-01T07:07:07Z</time>
      </trkpt>
      <trkpt lat="37.537421" lon="-6.051717">
        <ele>19.898</ele>
        <time>2016-09-01T07:07:18Z</time>
      </trkpt>
      <trkpt lat="37.537606" lon="-6.051362">
        <ele>19.559</ele>
        <time>2016-09-01T07:07:31Z</time>
      </trkpt>
      <trkpt lat="37.537677" lon="-6.051182">
        <ele>19.390</ele>
        <time>2016-09-01T07:07:39Z</time>
      </trkpt>
      <trkpt lat="37.537672" lon="-6.051165">
        <ele>19.339</ele>
        <time>2016-09-01T07:07:41Z</time>
      </trkpt>
      <trkpt lat="37.537958" lon="-6.051320">
        <ele>20.423</ele>
        <time>2016-09-01T07:07:53Z</time>
      </trkpt>
      <trkpt lat="37.538305" lon="-6.051601">
        <ele>22.166</ele>
        <time>2016-09-01T07:08:06Z</time>
      </trkpt>
      <trkpt lat="37.538555" lon="-6.051780">
        <ele>22.925</ele>
        <time>2016-09-01T07:08:18Z</time>
      </trkpt>
      <trkpt lat="37.538730" lon="-6.051900">
        <ele>23.234</ele>
        <time>2016-09-01T07:08:30Z</time>
      </trkpt>
      <trkpt lat="37.538732" lon="-6.051904">
        <ele>23.271</ele>
        <time>2016-09-01T07:08:31Z</time>
      </trkpt>
      <trkpt lat="37.538822" lon="-6.051973">
        <ele>23.341</ele>
        <time>2016-09-01T07:08:56Z</time>
      </trkpt>
      <trkpt lat="37.538928" lon="-6.052051">
        <ele>23.415</ele>
        <time>2016-09-01T07:09:07Z</time>
      </trkpt>
      <trkpt lat="37.539003" lon="-6.052124">
        <ele>23.508</ele>
        <time>2016-09-01T07:09:38Z</time>
      </trkpt>
      <trkpt lat="37.539140" lon="-6.052295">
        <ele>23.640</ele>
        <time>2016-09-01T07:09:45Z</time>
      </trkpt>
      <trkpt lat="37.539419" lon="-6.052304">
        <ele>23.651</ele>
        <time>2016-09-01T07:09:57Z</time>
      </trkpt>
      <trkpt lat="37.539744" lon="-6.052406">
        <ele>23.462</ele>
        <time>2016-09-01T07:10:08Z</time>
      </trkpt>
      <trkpt lat="37.540039" lon="-6.052387">
        <ele>22.521</ele>
        <time>2016-09-01T07:10:16Z</time>
      </trkpt>
      <trkpt lat="37.540700" lon="-6.052371">
        <ele>18.795</ele>
        <time>2016-09-01T07:10:25Z</time>
      </trkpt>
      <trkpt lat="37.540785" lon="-6.052346">
        <ele>18.248</ele>
        <time>2016-09-01T07:10:26Z</time>
      </trkpt>
      <trkpt lat="37.540869" lon="-6.052313">
        <ele>17.097</ele>
        <time>2016-09-01T07:10:27Z</time>
      </trkpt>
      <trkpt lat="37.541186" lon="-6.052226">
        <ele>15.726</ele>
        <time>2016-09-01T07:10:31Z</time>
      </trkpt>
      <trkpt lat="37.541265" lon="-6.052234">
        <ele>15.651</ele>
        <time>2016-09-01T07:10:32Z</time>
      </trkpt>
      <trkpt lat="37.541920" lon="-6.052219">
        <ele>14.701</ele>
        <time>2016-09-01T07:10:42Z</time>
      </trkpt>
      <trkpt lat="37.542672" lon="-6.052266">
        <ele>14.711</ele>
        <time>2016-09-01T07:10:56Z</time>
      </trkpt>
      <trkpt lat="37.543107" lon="-6.052293">
        <ele>14.008</ele>
        <time>2016-09-01T07:11:05Z</time>
      </trkpt>
      <trkpt lat="37.543346" lon="-6.052277">
        <ele>13.688</ele>
        <time>2016-09-01T07:11:10Z</time>
      </trkpt>
      <trkpt lat="37.543586" lon="-6.052263">
        <ele>13.789</ele>
        <time>2016-09-01T07:11:15Z</time>
      </trkpt>
      <trkpt lat="37.544326" lon="-6.052281">
        <ele>14.040</ele>
        <time>2016-09-01T07:11:30Z</time>
      </trkpt>
      <trkpt lat="37.545099" lon="-6.052298">
        <ele>13.889</ele>
        <time>2016-09-01T07:11:46Z</time>
      </trkpt>
      <trkpt lat="37.545142" lon="-6.052296">
        <ele>13.953</ele>
        <time>2016-09-01T07:11:47Z</time>
      </trkpt>
      <trkpt lat="37.545727" lon="-6.052383">
        <ele>16.286</ele>
        <time>2016-09-01T07:12:01Z</time>
      </trkpt>
      <trkpt lat="37.546161" lon="-6.052604">
        <ele>16.745</ele>
        <time>2016-09-01T07:12:13Z</time>
      </trkpt>
      <trkpt lat="37.546610" lon="-6.052817">
        <ele>17.174</ele>
        <time>2016-09-01T07:12:23Z</time>
      </trkpt>
      <trkpt lat="37.546653" lon="-6.052844">
        <ele>17.387</ele>
        <time>2016-09-01T07:12:24Z</time>
      </trkpt>
      <trkpt lat="37.546847" lon="-6.052955">
        <ele>18.142</ele>
        <time>2016-09-01T07:12:32Z</time>
      </trkpt>
      <trkpt lat="37.547044" lon="-6.053098">
        <ele>19.126</ele>
        <time>2016-09-01T07:12:44Z</time>
      </trkpt>
      <trkpt lat="37.547326" lon="-6.053164">
        <ele>20.808</ele>
        <time>2016-09-01T07:12:55Z</time>
      </trkpt>
      <trkpt lat="37.547724" lon="-6.053290">
        <ele>23.241</ele>
        <time>2016-09-01T07:13:08Z</time>
      </trkpt>
      <trkpt lat="37.548027" lon="-6.053430">
        <ele>24.912</ele>
        <time>2016-09-01T07:13:19Z</time>
      </trkpt>
      <trkpt lat="37.548440" lon="-6.053622">
        <ele>25.673</ele>
        <time>2016-09-01T07:13:33Z</time>
      </trkpt>
      <trkpt lat="37.548841" lon="-6.053813">
        <ele>25.612</ele>
        <time>2016-09-01T07:13:47Z</time>
      </trkpt>
      <trkpt lat="37.548873" lon="-6.053830">
        <ele>25.676</ele>
        <time>2016-09-01T07:13:53Z</time>
      </trkpt>
      <trkpt lat="37.548920" lon="-6.053813">
        <ele>25.679</ele>
        <time>2016-09-01T07:13:57Z</time>
      </trkpt>
      <trkpt lat="37.549023" lon="-6.053543">
        <ele>25.198</ele>
        <time>2016-09-01T07:14:03Z</time>
      </trkpt>
      <trkpt lat="37.549422" lon="-6.052734">
        <ele>22.617</ele>
        <time>2016-09-01T07:14:15Z</time>
      </trkpt>
      <trkpt lat="37.549811" lon="-6.051672">
        <ele>17.538</ele>
        <time>2016-09-01T07:14:27Z</time>
      </trkpt>
      <trkpt lat="37.550158" lon="-6.050621">
        <ele>14.870</ele>
        <time>2016-09-01T07:14:42Z</time>
      </trkpt>
      <trkpt lat="37.550309" lon="-6.050141">
        <ele>16.317</ele>
        <time>2016-09-01T07:14:50Z</time>
      </trkpt>
      <trkpt lat="37.550452" lon="-6.049706">
        <ele>17.608</ele>
        <time>2016-09-01T07:14:58Z</time>
      </trkpt>
      <trkpt lat="37.550661" lon="-6.049069">
        <ele>19.336</ele>
        <time>2016-09-01T07:15:13Z</time>
      </trkpt>
      <trkpt lat="37.550869" lon="-6.048427">
        <ele>20.517</ele>
        <time>2016-09-01T07:15:29Z</time>
      </trkpt>
      <trkpt lat="37.550855" lon="-6.048393">
        <ele>20.528</ele>
        <time>2016-09-01T07:15:30Z</time>
      </trkpt>
      <trkpt lat="37.550830" lon="-6.048368">
        <ele>20.637</ele>
        <time>2016-09-01T07:15:31Z</time>
      </trkpt>
      <trkpt lat="37.550799" lon="-6.048346">
        <ele>20.911</ele>
        <time>2016-09-01T07:15:32Z</time>
      </trkpt>
      <trkpt lat="37.550765" lon="-6.048331">
        <ele>20.964</ele>
        <time>2016-09-01T07:15:33Z</time>
      </trkpt>
      <trkpt lat="37.550727" lon="-6.048331">
        <ele>20.883</ele>
        <time>2016-09-01T07:15:34Z</time>
      </trkpt>
      <trkpt lat="37.550688" lon="-6.048344">
        <ele>20.792</ele>
        <time>2016-09-01T07:15:35Z</time>
      </trkpt>
      <trkpt lat="37.550651" lon="-6.048364">
        <ele>20.765</ele>
        <time>2016-09-01T07:15:36Z</time>
      </trkpt>
      <trkpt lat="37.550619" lon="-6.048390">
        <ele>20.668</ele>
        <time>2016-09-01T07:15:37Z</time>
      </trkpt>
      <trkpt lat="37.550589" lon="-6.048416">
        <ele>20.514</ele>
        <time>2016-09-01T07:15:38Z</time>
      </trkpt>
      <trkpt lat="37.550274" lon="-6.048723">
        <ele>19.808</ele>
        <time>2016-09-01T07:15:46Z</time>
      </trkpt>
      <trkpt lat="37.550105" lon="-6.048872">
        <ele>19.069</ele>
        <time>2016-09-01T07:15:54Z</time>
      </trkpt>
      <trkpt lat="37.550011" lon="-6.048917">
        <ele>18.690</ele>
        <time>2016-09-01T07:16:01Z</time>
      </trkpt>
      <trkpt lat="37.549998" lon="-6.048920">
        <ele>18.611</ele>
        <time>2016-09-01T07:16:02Z</time>
      </trkpt>
      <trkpt lat="37.549747" lon="-6.048963">
        <ele>17.720</ele>
        <time>2016-09-01T07:16:13Z</time>
      </trkpt>
      <trkpt lat="37.549587" lon="-6.048973">
        <ele>17.124</ele>
        <time>2016-09-01T07:16:17Z</time>
      </trkpt>
      <trkpt lat="37.549545" lon="-6.048971">
        <ele>17.027</ele>
        <time>2016-09-01T07:16:18Z</time>
      </trkpt>
      <trkpt lat="37.549020" lon="-6.048883">
        <ele>15.146</ele>
        <time>2016-09-01T07:16:30Z</time>
      </trkpt>
      <trkpt lat="37.548995" lon="-6.048843">
        <ele>15.035</ele>
        <time>2016-09-01T07:16:31Z</time>
      </trkpt>
      <trkpt lat="37.548983" lon="-6.048801">
        <ele>14.845</ele>
        <time>2016-09-01T07:16:32Z</time>
      </trkpt>
      <trkpt lat="37.548984" lon="-6.048755">
        <ele>14.847</ele>
        <time>2016-09-01T07:16:33Z</time>
      </trkpt>
      <trkpt lat="37.548998" lon="-6.048715">
        <ele>14.911</ele>
        <time>2016-09-01T07:16:34Z</time>
      </trkpt>
      <trkpt lat="37.549198" lon="-6.048126">
        <ele>16.008</ele>
        <time>2016-09-01T07:16:48Z</time>
      </trkpt>
      <trkpt lat="37.549180" lon="-6.047667">
        <ele>17.167</ele>
        <time>2016-09-01T07:16:59Z</time>
      </trkpt>
      <trkpt lat="37.549246" lon="-6.047070">
        <ele>20.448</ele>
        <time>2016-09-01T07:17:16Z</time>
      </trkpt>
      <trkpt lat="37.549348" lon="-6.046383">
        <ele>23.339</ele>
        <time>2016-09-01T07:17:33Z</time>
      </trkpt>
      <trkpt lat="37.549479" lon="-6.045737">
        <ele>23.218</ele>
        <time>2016-09-01T07:17:47Z</time>
      </trkpt>
      <trkpt lat="37.549687" lon="-6.044928">
        <ele>23.292</ele>
        <time>2016-09-01T07:18:05Z</time>
      </trkpt>
      <trkpt lat="37.550003" lon="-6.044237">
        <ele>24.615</ele>
        <time>2016-09-01T07:18:23Z</time>
      </trkpt>
      <trkpt lat="37.550256" lon="-6.043578">
        <ele>25.684</ele>
        <time>2016-09-01T07:18:40Z</time>
      </trkpt>
      <trkpt lat="37.550472" lon="-6.043179">
        <ele>27.633</ele>
        <time>2016-09-01T07:18:53Z</time>
      </trkpt>
      <trkpt lat="37.550757" lon="-6.042710">
        <ele>28.515</ele>
        <time>2016-09-01T07:19:08Z</time>
      </trkpt>
      <trkpt lat="37.551142" lon="-6.042213">
        <ele>29.965</ele>
        <time>2016-09-01T07:19:24Z</time>
      </trkpt>
      <trkpt lat="37.551529" lon="-6.041724">
        <ele>30.611</ele>
        <time>2016-09-01T07:19:40Z</time>
      </trkpt>
      <trkpt lat="37.551801" lon="-6.041314">
        <ele>31.608</ele>
        <time>2016-09-01T07:19:53Z</time>
      </trkpt>
      <trkpt lat="37.552064" lon="-6.041007">
        <ele>32.464</ele>
        <time>2016-09-01T07:20:03Z</time>
      </trkpt>
      <trkpt lat="37.552490" lon="-6.040453">
        <ele>32.735</ele>
        <time>2016-09-01T07:20:19Z</time>
      </trkpt>
      <trkpt lat="37.552820" lon="-6.040083">
        <ele>32.736</ele>
        <time>2016-09-01T07:20:30Z</time>
      </trkpt>
      <trkpt lat="37.552958" lon="-6.039804">
        <ele>32.745</ele>
        <time>2016-09-01T07:20:36Z</time>
      </trkpt>
      <trkpt lat="37.553242" lon="-6.038995">
        <ele>32.779</ele>
        <time>2016-09-01T07:20:51Z</time>
      </trkpt>
      <trkpt lat="37.553527" lon="-6.038055">
        <ele>32.742</ele>
        <time>2016-09-01T07:21:09Z</time>
      </trkpt>
      <trkpt lat="37.553811" lon="-6.037067">
        <ele>32.751</ele>
        <time>2016-09-01T07:21:28Z</time>
      </trkpt>
      <trkpt lat="37.553930" lon="-6.036708">
        <ele>32.730</ele>
        <time>2016-09-01T07:21:35Z</time>
      </trkpt>
      <trkpt lat="37.554078" lon="-6.036257">
        <ele>33.974</ele>
        <time>2016-09-01T07:21:48Z</time>
      </trkpt>
      <trkpt lat="37.554078" lon="-6.036219">
        <ele>33.956</ele>
        <time>2016-09-01T07:21:50Z</time>
      </trkpt>
      <trkpt lat="37.554102" lon="-6.036147">
        <ele>34.221</ele>
        <time>2016-09-01T07:21:53Z</time>
      </trkpt>
      <trkpt lat="37.554122" lon="-6.036122">
        <ele>34.208</ele>
        <time>2016-09-01T07:21:54Z</time>
      </trkpt>
      <trkpt lat="37.554146" lon="-6.036103">
        <ele>34.390</ele>
        <time>2016-09-01T07:21:55Z</time>
      </trkpt>
      <trkpt lat="37.554171" lon="-6.036085">
        <ele>34.411</ele>
        <time>2016-09-01T07:21:56Z</time>
      </trkpt>
      <trkpt lat="37.554199" lon="-6.036070">
        <ele>34.492</ele>
        <time>2016-09-01T07:21:57Z</time>
      </trkpt>
      <trkpt lat="37.554289" lon="-6.036041">
        <ele>34.761</ele>
        <time>2016-09-01T07:22:01Z</time>
      </trkpt>
      <trkpt lat="37.554373" lon="-6.036103">
        <ele>34.815</ele>
        <time>2016-09-01T07:22:06Z</time>
      </trkpt>
      <trkpt lat="37.554392" lon="-6.036114">
        <ele>34.898</ele>
        <time>2016-09-01T07:22:07Z</time>
      </trkpt>
      <trkpt lat="37.554411" lon="-6.036120">
        <ele>34.897</ele>
        <time>2016-09-01T07:22:08Z</time>
      </trkpt>
      <trkpt lat="37.554430" lon="-6.036126">
        <ele>34.856</ele>
        <time>2016-09-01T07:22:09Z</time>
      </trkpt>
      <trkpt lat="37.554577" lon="-6.036205">
        <ele>35.823</ele>
        <time>2016-09-01T07:22:19Z</time>
      </trkpt>
      <trkpt lat="37.554661" lon="-6.036263">
        <ele>36.483</ele>
        <time>2016-09-01T07:22:24Z</time>
      </trkpt>
      <trkpt lat="37.554983" lon="-6.036402">
        <ele>37.011</ele>
        <time>2016-09-01T07:22:36Z</time>
      </trkpt>
      <trkpt lat="37.555366" lon="-6.036597">
        <ele>37.008</ele>
        <time>2016-09-01T07:22:47Z</time>
      </trkpt>
      <trkpt lat="37.555521" lon="-6.036685">
        <ele>36.835</ele>
        <time>2016-09-01T07:22:53Z</time>
      </trkpt>
      <trkpt lat="37.555720" lon="-6.036704">
        <ele>36.756</ele>
        <time>2016-09-01T07:22:58Z</time>
      </trkpt>
      <trkpt lat="37.556124" lon="-6.036054">
        <ele>37.137</ele>
        <time>2016-09-01T07:23:14Z</time>
      </trkpt>
      <trkpt lat="37.556562" lon="-6.035363">
        <ele>38.096</ele>
        <time>2016-09-01T07:23:33Z</time>
      </trkpt>
      <trkpt lat="37.556843" lon="-6.034889">
        <ele>38.970</ele>
        <time>2016-09-01T07:23:46Z</time>
      </trkpt>
      <trkpt lat="37.556872" lon="-6.034815">
        <ele>38.923</ele>
        <time>2016-09-01T07:23:48Z</time>
      </trkpt>
      <trkpt lat="37.556883" lon="-6.034937">
        <ele>38.982</ele>
        <time>2016-09-01T07:23:55Z</time>
      </trkpt>
      <trkpt lat="37.556838" lon="-6.035016">
        <ele>38.751</ele>
        <time>2016-09-01T07:23:57Z</time>
      </trkpt>
      <trkpt lat="37.556725" lon="-6.035236">
        <ele>38.155</ele>
        <time>2016-09-01T07:24:02Z</time>
      </trkpt>
      <trkpt lat="37.556757" lon="-6.035342">
        <ele>38.207</ele>
        <time>2016-09-01T07:24:07Z</time>
      </trkpt>
      <trkpt lat="37.557070" lon="-6.035316">
        <ele>39.217</ele>
        <time>2016-09-01T07:24:18Z</time>
      </trkpt>
      <trkpt lat="37.557674" lon="-6.035143">
        <ele>40.708</ele>
        <time>2016-09-01T07:24:34Z</time>
      </trkpt>
      <trkpt lat="37.558236" lon="-6.035011">
        <ele>41.078</ele>
        <time>2016-09-01T07:24:51Z</time>
      </trkpt>
      <trkpt lat="37.558865" lon="-6.034857">
        <ele>42.049</ele>
        <time>2016-09-01T07:25:09Z</time>
      </trkpt>
      <trkpt lat="37.559424" lon="-6.034734">
        <ele>43.390</ele>
        <time>2016-09-01T07:25:25Z</time>
      </trkpt>
      <trkpt lat="37.560124" lon="-6.034548">
        <ele>45.299</ele>
        <time>2016-09-01T07:25:45Z</time>
      </trkpt>
      <trkpt lat="37.560792" lon="-6.034480">
        <ele>46.783</ele>
        <time>2016-09-01T07:26:05Z</time>
      </trkpt>
      <trkpt lat="37.561153" lon="-6.034450">
        <ele>47.686</ele>
        <time>2016-09-01T07:26:20Z</time>
      </trkpt>
      <trkpt lat="37.561462" lon="-6.034439">
        <ele>48.535</ele>
        <time>2016-09-01T07:26:34Z</time>
      </trkpt>
      <trkpt lat="37.561814" lon="-6.034403">
        <ele>49.494</ele>
        <time>2016-09-01T07:26:47Z</time>
      </trkpt>
      <trkpt lat="37.562264" lon="-6.034274">
        <ele>50.564</ele>
        <time>2016-09-01T07:27:02Z</time>
      </trkpt>
      <trkpt lat="37.562781" lon="-6.034174">
        <ele>52.406</ele>
        <time>2016-09-01T07:27:20Z</time>
      </trkpt>
      <trkpt lat="37.563284" lon="-6.034064">
        <ele>54.816</ele>
        <time>2016-09-01T07:27:37Z</time>
      </trkpt>
      <trkpt lat="37.563735" lon="-6.033947">
        <ele>55.808</ele>
        <time>2016-09-01T07:27:52Z</time>
      </trkpt>
      <trkpt lat="37.564202" lon="-6.033846">
        <ele>56.869</ele>
        <time>2016-09-01T07:28:08Z</time>
      </trkpt>
      <trkpt lat="37.564751" lon="-6.033719">
        <ele>58.130</ele>
        <time>2016-09-01T07:28:25Z</time>
      </trkpt>
      <trkpt lat="37.565282" lon="-6.033570">
        <ele>60.391</ele>
        <time>2016-09-01T07:28:43Z</time>
      </trkpt>
      <trkpt lat="37.565687" lon="-6.033487">
        <ele>62.640</ele>
        <time>2016-09-01T07:28:59Z</time>
      </trkpt>
      <trkpt lat="37.565978" lon="-6.033433">
        <ele>64.144</ele>
        <time>2016-09-01T07:29:12Z</time>
      </trkpt>
      <trkpt lat="37.566308" lon="-6.033354">
        <ele>65.267</ele>
        <time>2016-09-01T07:29:28Z</time>
      </trkpt>
      <trkpt lat="37.566636" lon="-6.033274">
        <ele>65.756</ele>
        <time>2016-09-01T07:29:43Z</time>
      </trkpt>
      <trkpt lat="37.566995" lon="-6.033198">
        <ele>66.595</ele>
        <time>2016-09-01T07:29:59Z</time>
      </trkpt>
      <trkpt lat="37.567433" lon="-6.033123">
        <ele>67.247</ele>
        <time>2016-09-01T07:30:17Z</time>
      </trkpt>
      <trkpt lat="37.567934" lon="-6.033022">
        <ele>67.529</ele>
        <time>2016-09-01T07:30:36Z</time>
      </trkpt>
      <trkpt lat="37.568452" lon="-6.032955">
        <ele>68.621</ele>
        <time>2016-09-01T07:30:52Z</time>
      </trkpt>
      <trkpt lat="37.569011" lon="-6.032858">
        <ele>71.608</ele>
        <time>2016-09-01T07:31:09Z</time>
      </trkpt>
      <trkpt lat="37.569403" lon="-6.032775">
        <ele>75.087</ele>
        <time>2016-09-01T07:31:23Z</time>
      </trkpt>
      <trkpt lat="37.569673" lon="-6.032709">
        <ele>77.518</ele>
        <time>2016-09-01T07:31:36Z</time>
      </trkpt>
      <trkpt lat="37.570000" lon="-6.032630">
        <ele>80.329</ele>
        <time>2016-09-01T07:31:52Z</time>
      </trkpt>
      <trkpt lat="37.570297" lon="-6.032564">
        <ele>82.538</ele>
        <time>2016-09-01T07:32:08Z</time>
      </trkpt>
      <trkpt lat="37.570627" lon="-6.032491">
        <ele>84.732</ele>
        <time>2016-09-01T07:32:24Z</time>
      </trkpt>
      <trkpt lat="37.570983" lon="-6.032411">
        <ele>86.795</ele>
        <time>2016-09-01T07:32:43Z</time>
      </trkpt>
      <trkpt lat="37.571123" lon="-6.032383">
        <ele>87.454</ele>
        <time>2016-09-01T07:32:52Z</time>
      </trkpt>
      <trkpt lat="37.571139" lon="-6.032385">
        <ele>87.453</ele>
        <time>2016-09-01T07:32:53Z</time>
      </trkpt>
      <trkpt lat="37.571156" lon="-6.032383">
        <ele>87.538</ele>
        <time>2016-09-01T07:32:54Z</time>
      </trkpt>
      <trkpt lat="37.571174" lon="-6.032379">
        <ele>87.670</ele>
        <time>2016-09-01T07:32:55Z</time>
      </trkpt>
      <trkpt lat="37.571189" lon="-6.032372">
        <ele>87.717</ele>
        <time>2016-09-01T07:32:56Z</time>
      </trkpt>
      <trkpt lat="37.571200" lon="-6.032365">
        <ele>87.708</ele>
        <time>2016-09-01T07:32:57Z</time>
      </trkpt>
      <trkpt lat="37.571210" lon="-6.032355">
        <ele>87.856</ele>
        <time>2016-09-01T07:32:58Z</time>
      </trkpt>
      <trkpt lat="37.571367" lon="-6.032290">
        <ele>88.557</ele>
        <time>2016-09-01T07:33:09Z</time>
      </trkpt>
      <trkpt lat="37.571380" lon="-6.032294">
        <ele>88.668</ele>
        <time>2016-09-01T07:33:10Z</time>
      </trkpt>
      <trkpt lat="37.571394" lon="-6.032295">
        <ele>88.787</ele>
        <time>2016-09-01T07:33:11Z</time>
      </trkpt>
      <trkpt lat="37.571409" lon="-6.032290">
        <ele>88.711</ele>
        <time>2016-09-01T07:33:12Z</time>
      </trkpt>
      <trkpt lat="37.571428" lon="-6.032284">
        <ele>88.844</ele>
        <time>2016-09-01T07:33:13Z</time>
      </trkpt>
      <trkpt lat="37.571449" lon="-6.032277">
        <ele>88.973</ele>
        <time>2016-09-01T07:33:14Z</time>
      </trkpt>
      <trkpt lat="37.571470" lon="-6.032271">
        <ele>89.122</ele>
        <time>2016-09-01T07:33:15Z</time>
      </trkpt>
      <trkpt lat="37.571489" lon="-6.032268">
        <ele>89.272</ele>
        <time>2016-09-01T07:33:16Z</time>
      </trkpt>
      <trkpt lat="37.571647" lon="-6.032235">
        <ele>90.213</ele>
        <time>2016-09-01T07:33:25Z</time>
      </trkpt>
      <trkpt lat="37.571661" lon="-6.032225">
        <ele>90.314</ele>
        <time>2016-09-01T07:33:26Z</time>
      </trkpt>
      <trkpt lat="37.571676" lon="-6.032216">
        <ele>90.408</ele>
        <time>2016-09-01T07:33:27Z</time>
      </trkpt>
      <trkpt lat="37.571695" lon="-6.032211">
        <ele>90.610</ele>
        <time>2016-09-01T07:33:28Z</time>
      </trkpt>
      <trkpt lat="37.571713" lon="-6.032212">
        <ele>90.771</ele>
        <time>2016-09-01T07:33:29Z</time>
      </trkpt>
      <trkpt lat="37.571729" lon="-6.032211">
        <ele>90.932</ele>
        <time>2016-09-01T07:33:30Z</time>
      </trkpt>
      <trkpt lat="37.571747" lon="-6.032207">
        <ele>91.041</ele>
        <time>2016-09-01T07:33:31Z</time>
      </trkpt>
      <trkpt lat="37.571760" lon="-6.032201">
        <ele>91.165</ele>
        <time>2016-09-01T07:33:32Z</time>
      </trkpt>
      <trkpt lat="37.571773" lon="-6.032189">
        <ele>91.288</ele>
        <time>2016-09-01T07:33:33Z</time>
      </trkpt>
      <trkpt lat="37.571790" lon="-6.032175">
        <ele>91.457</ele>
        <time>2016-09-01T07:33:34Z</time>
      </trkpt>
      <trkpt lat="37.571809" lon="-6.032167">
        <ele>91.596</ele>
        <time>2016-09-01T07:33:35Z</time>
      </trkpt>
      <trkpt lat="37.571828" lon="-6.032161">
        <ele>91.716</ele>
        <time>2016-09-01T07:33:36Z</time>
      </trkpt>
      <trkpt lat="37.571847" lon="-6.032159">
        <ele>91.876</ele>
        <time>2016-09-01T07:33:37Z</time>
      </trkpt>
      <trkpt lat="37.571867" lon="-6.032158">
        <ele>92.013</ele>
        <time>2016-09-01T07:33:38Z</time>
      </trkpt>
      <trkpt lat="37.571888" lon="-6.032157">
        <ele>92.108</ele>
        <time>2016-09-01T07:33:39Z</time>
      </trkpt>
      <trkpt lat="37.572145" lon="-6.032074">
        <ele>93.914</ele>
        <time>2016-09-01T07:33:52Z</time>
      </trkpt>
      <trkpt lat="37.572409" lon="-6.031998">
        <ele>94.865</ele>
        <time>2016-09-01T07:34:05Z</time>
      </trkpt>
      <trkpt lat="37.572734" lon="-6.031948">
        <ele>96.066</ele>
        <time>2016-09-01T07:34:20Z</time>
      </trkpt>
      <trkpt lat="37.573094" lon="-6.031908">
        <ele>97.935</ele>
        <time>2016-09-01T07:34:36Z</time>
      </trkpt>
      <trkpt lat="37.573417" lon="-6.031831">
        <ele>99.889</ele>
        <time>2016-09-01T07:34:50Z</time>
      </trkpt>
      <trkpt lat="37.573755" lon="-6.031755">
        <ele>101.832</ele>
        <time>2016-09-01T07:35:05Z</time>
      </trkpt>
      <trkpt lat="37.574008" lon="-6.031681">
        <ele>102.991</ele>
        <time>2016-09-01T07:35:17Z</time>
      </trkpt>
      <trkpt lat="37.574025" lon="-6.031668">
        <ele>102.990</ele>
        <time>2016-09-01T07:35:18Z</time>
      </trkpt>
      <trkpt lat="37.574045" lon="-6.031660">
        <ele>103.079</ele>
        <time>2016-09-01T07:35:19Z</time>
      </trkpt>
      <trkpt lat="37.574069" lon="-6.031653">
        <ele>103.105</ele>
        <time>2016-09-01T07:35:20Z</time>
      </trkpt>
      <trkpt lat="37.574094" lon="-6.031645">
        <ele>103.225</ele>
        <time>2016-09-01T07:35:21Z</time>
      </trkpt>
      <trkpt lat="37.574117" lon="-6.031634">
        <ele>103.308</ele>
        <time>2016-09-01T07:35:22Z</time>
      </trkpt>
      <trkpt lat="37.574473" lon="-6.031518">
        <ele>104.450</ele>
        <time>2016-09-01T07:35:37Z</time>
      </trkpt>
      <trkpt lat="37.574754" lon="-6.031416">
        <ele>104.871</ele>
        <time>2016-09-01T07:35:50Z</time>
      </trkpt>
      <trkpt lat="37.575181" lon="-6.031237">
        <ele>105.892</ele>
        <time>2016-09-01T07:36:07Z</time>
      </trkpt>
      <trkpt lat="37.575436" lon="-6.031096">
        <ele>106.471</ele>
        <time>2016-09-01T07:36:21Z</time>
      </trkpt>
      <trkpt lat="37.575785" lon="-6.030988">
        <ele>106.775</ele>
        <time>2016-09-01T07:36:35Z</time>
      </trkpt>
      <trkpt lat="37.576101" lon="-6.030874">
        <ele>107.268</ele>
        <time>2016-09-01T07:36:50Z</time>
      </trkpt>
      <trkpt lat="37.576417" lon="-6.030760">
        <ele>108.657</ele>
        <time>2016-09-01T07:37:06Z</time>
      </trkpt>
      <trkpt lat="37.576748" lon="-6.030644">
        <ele>110.986</ele>
        <time>2016-09-01T07:37:21Z</time>
      </trkpt>
      <trkpt lat="37.577100" lon="-6.030522">
        <ele>113.081</ele>
        <time>2016-09-01T07:37:37Z</time>
      </trkpt>
      <trkpt lat="37.577342" lon="-6.030382">
        <ele>114.161</ele>
        <time>2016-09-01T07:37:50Z</time>
      </trkpt>
      <trkpt lat="37.577609" lon="-6.030259">
        <ele>115.317</ele>
        <time>2016-09-01T07:38:04Z</time>
      </trkpt>
      <trkpt lat="37.577900" lon="-6.030158">
        <ele>116.408</ele>
        <time>2016-09-01T07:38:18Z</time>
      </trkpt>
      <trkpt lat="37.578215" lon="-6.030015">
        <ele>117.021</ele>
        <time>2016-09-01T07:38:33Z</time>
      </trkpt>
      <trkpt lat="37.578603" lon="-6.029940">
        <ele>117.082</ele>
        <time>2016-09-01T07:38:49Z</time>
      </trkpt>
      <trkpt lat="37.579017" lon="-6.029670">
        <ele>117.713</ele>
        <time>2016-09-01T07:39:04Z</time>
      </trkpt>
      <trkpt lat="37.579411" lon="-6.029432">
        <ele>119.052</ele>
        <time>2016-09-01T07:39:16Z</time>
      </trkpt>
      <trkpt lat="37.579431" lon="-6.029405">
        <ele>119.116</ele>
        <time>2016-09-01T07:39:17Z</time>
      </trkpt>
      <trkpt lat="37.579453" lon="-6.029381">
        <ele>119.259</ele>
        <time>2016-09-01T07:39:18Z</time>
      </trkpt>
      <trkpt lat="37.579477" lon="-6.029362">
        <ele>119.378</ele>
        <time>2016-09-01T07:39:19Z</time>
      </trkpt>
      <trkpt lat="37.579501" lon="-6.029346">
        <ele>119.447</ele>
        <time>2016-09-01T07:39:20Z</time>
      </trkpt>
      <trkpt lat="37.579901" lon="-6.029050">
        <ele>121.926</ele>
        <time>2016-09-01T07:39:34Z</time>
      </trkpt>
      <trkpt lat="37.580264" lon="-6.028740">
        <ele>124.547</ele>
        <time>2016-09-01T07:39:48Z</time>
      </trkpt>
      <trkpt lat="37.580528" lon="-6.028575">
        <ele>126.211</ele>
        <time>2016-09-01T07:40:00Z</time>
      </trkpt>
      <trkpt lat="37.580850" lon="-6.028411">
        <ele>128.008</ele>
        <time>2016-09-01T07:40:14Z</time>
      </trkpt>
      <trkpt lat="37.581088" lon="-6.028266">
        <ele>128.985</ele>
        <time>2016-09-01T07:40:27Z</time>
      </trkpt>
      <trkpt lat="37.581373" lon="-6.028110">
        <ele>129.556</ele>
        <time>2016-09-01T07:40:41Z</time>
      </trkpt>
      <trkpt lat="37.581692" lon="-6.027929">
        <ele>130.387</ele>
        <time>2016-09-01T07:40:55Z</time>
      </trkpt>
      <trkpt lat="37.582194" lon="-6.027621">
        <ele>132.166</ele>
        <time>2016-09-01T07:41:15Z</time>
      </trkpt>
      <trkpt lat="37.582518" lon="-6.027434">
        <ele>133.460</ele>
        <time>2016-09-01T07:41:30Z</time>
      </trkpt>
      <trkpt lat="37.582823" lon="-6.027250">
        <ele>134.743</ele>
        <time>2016-09-01T07:41:45Z</time>
      </trkpt>
      <trkpt lat="37.583193" lon="-6.027135">
        <ele>135.212</ele>
        <time>2016-09-01T07:42:01Z</time>
      </trkpt>
      <trkpt lat="37.583629" lon="-6.027339">
        <ele>136.571</ele>
        <time>2016-09-01T07:42:16Z</time>
      </trkpt>
      <trkpt lat="37.584038" lon="-6.027602">
        <ele>138.896</ele>
        <time>2016-09-01T07:42:29Z</time>
      </trkpt>
      <trkpt lat="37.584356" lon="-6.027525">
        <ele>139.731</ele>
        <time>2016-09-01T07:42:42Z</time>
      </trkpt>
      <trkpt lat="37.584743" lon="-6.027338">
        <ele>140.924</ele>
        <time>2016-09-01T07:42:56Z</time>
      </trkpt>
      <trkpt lat="37.585146" lon="-6.027089">
        <ele>142.608</ele>
        <time>2016-09-01T07:43:12Z</time>
      </trkpt>
      <trkpt lat="37.585603" lon="-6.026650">
        <ele>143.752</ele>
        <time>2016-09-01T07:43:31Z</time>
      </trkpt>
      <trkpt lat="37.586046" lon="-6.026292">
        <ele>143.083</ele>
        <time>2016-09-01T07:43:49Z</time>
      </trkpt>
      <trkpt lat="37.586256" lon="-6.026112">
        <ele>142.944</ele>
        <time>2016-09-01T07:43:54Z</time>
      </trkpt>
      <trkpt lat="37.586303" lon="-6.026074">
        <ele>142.823</ele>
        <time>2016-09-01T07:43:55Z</time>
      </trkpt>
      <trkpt lat="37.586518" lon="-6.025883">
        <ele>142.647</ele>
        <time>2016-09-01T07:44:00Z</time>
      </trkpt>
      <trkpt lat="37.586562" lon="-6.025845">
        <ele>142.720</ele>
        <time>2016-09-01T07:44:01Z</time>
      </trkpt>
      <trkpt lat="37.586606" lon="-6.025801">
        <ele>142.779</ele>
        <time>2016-09-01T07:44:02Z</time>
      </trkpt>
      <trkpt lat="37.586652" lon="-6.025755">
        <ele>142.968</ele>
        <time>2016-09-01T07:44:03Z</time>
      </trkpt>
      <trkpt lat="37.586704" lon="-6.025716">
        <ele>143.185</ele>
        <time>2016-09-01T07:44:04Z</time>
      </trkpt>
      <trkpt lat="37.586755" lon="-6.025678">
        <ele>143.489</ele>
        <time>2016-09-01T07:44:05Z</time>
      </trkpt>
      <trkpt lat="37.586970" lon="-6.025485">
        <ele>144.817</ele>
        <time>2016-09-01T07:44:10Z</time>
      </trkpt>
      <trkpt lat="37.587269" lon="-6.025179">
        <ele>146.908</ele>
        <time>2016-09-01T07:44:22Z</time>
      </trkpt>
      <trkpt lat="37.587618" lon="-6.024820">
        <ele>149.041</ele>
        <time>2016-09-01T07:44:39Z</time>
      </trkpt>
      <trkpt lat="37.587909" lon="-6.024528">
        <ele>150.412</ele>
        <time>2016-09-01T07:44:54Z</time>
      </trkpt>
      <trkpt lat="37.588178" lon="-6.024221">
        <ele>150.753</ele>
        <time>2016-09-01T07:45:08Z</time>
      </trkpt>
      <trkpt lat="37.588443" lon="-6.023917">
        <ele>150.482</ele>
        <time>2016-09-01T07:45:19Z</time>
      </trkpt>
      <trkpt lat="37.588457" lon="-6.023909">
        <ele>150.486</ele>
        <time>2016-09-01T07:45:24Z</time>
      </trkpt>
      <trkpt lat="37.588522" lon="-6.023832">
        <ele>150.239</ele>
        <time>2016-09-01T07:45:46Z</time>
      </trkpt>
      <trkpt lat="37.588539" lon="-6.023820">
        <ele>150.188</ele>
        <time>2016-09-01T07:45:47Z</time>
      </trkpt>
      <trkpt lat="37.588556" lon="-6.023808">
        <ele>150.077</ele>
        <time>2016-09-01T07:45:48Z</time>
      </trkpt>
      <trkpt lat="37.588572" lon="-6.023794">
        <ele>149.956</ele>
        <time>2016-09-01T07:45:49Z</time>
      </trkpt>
      <trkpt lat="37.588587" lon="-6.023785">
        <ele>149.959</ele>
        <time>2016-09-01T07:45:50Z</time>
      </trkpt>
      <trkpt lat="37.588600" lon="-6.023771">
        <ele>149.814</ele>
        <time>2016-09-01T07:45:51Z</time>
      </trkpt>
      <trkpt lat="37.588620" lon="-6.023753">
        <ele>149.708</ele>
        <time>2016-09-01T07:45:52Z</time>
      </trkpt>
      <trkpt lat="37.588647" lon="-6.023730">
        <ele>149.568</ele>
        <time>2016-09-01T07:45:53Z</time>
      </trkpt>
      <trkpt lat="37.588680" lon="-6.023701">
        <ele>149.349</ele>
        <time>2016-09-01T07:45:54Z</time>
      </trkpt>
      <trkpt lat="37.588716" lon="-6.023667">
        <ele>149.130</ele>
        <time>2016-09-01T07:45:55Z</time>
      </trkpt>
      <trkpt lat="37.589268" lon="-6.023074">
        <ele>145.599</ele>
        <time>2016-09-01T07:46:07Z</time>
      </trkpt>
      <trkpt lat="37.589707" lon="-6.022622">
        <ele>143.963</ele>
        <time>2016-09-01T07:46:17Z</time>
      </trkpt>
      <trkpt lat="37.590077" lon="-6.022282">
        <ele>144.226</ele>
        <time>2016-09-01T07:46:26Z</time>
      </trkpt>
      <trkpt lat="37.590177" lon="-6.022175">
        <ele>144.375</ele>
        <time>2016-09-01T07:46:29Z</time>
      </trkpt>
      <trkpt lat="37.590247" lon="-6.022104">
        <ele>144.354</ele>
        <time>2016-09-01T07:46:31Z</time>
      </trkpt>
      <trkpt lat="37.590285" lon="-6.022069">
        <ele>144.381</ele>
        <time>2016-09-01T07:46:32Z</time>
      </trkpt>
      <trkpt lat="37.590322" lon="-6.022027">
        <ele>144.361</ele>
        <time>2016-09-01T07:46:33Z</time>
      </trkpt>
      <trkpt lat="37.590357" lon="-6.021980">
        <ele>144.317</ele>
        <time>2016-09-01T07:46:34Z</time>
      </trkpt>
      <trkpt lat="37.590395" lon="-6.021933">
        <ele>144.308</ele>
        <time>2016-09-01T07:46:35Z</time>
      </trkpt>
      <trkpt lat="37.590437" lon="-6.021893">
        <ele>144.271</ele>
        <time>2016-09-01T07:46:36Z</time>
      </trkpt>
      <trkpt lat="37.590478" lon="-6.021853">
        <ele>144.122</ele>
        <time>2016-09-01T07:46:37Z</time>
      </trkpt>
      <trkpt lat="37.590809" lon="-6.021493">
        <ele>143.633</ele>
        <time>2016-09-01T07:46:46Z</time>
      </trkpt>
      <trkpt lat="37.590841" lon="-6.021454">
        <ele>143.552</ele>
        <time>2016-09-01T07:46:47Z</time>
      </trkpt>
      <trkpt lat="37.590950" lon="-6.021351">
        <ele>143.426</ele>
        <time>2016-09-01T07:46:50Z</time>
      </trkpt>
      <trkpt lat="37.590988" lon="-6.021329">
        <ele>143.379</ele>
        <time>2016-09-01T07:46:51Z</time>
      </trkpt>
      <trkpt lat="37.591023" lon="-6.021305">
        <ele>143.318</ele>
        <time>2016-09-01T07:46:52Z</time>
      </trkpt>
      <trkpt lat="37.591053" lon="-6.021278">
        <ele>143.287</ele>
        <time>2016-09-01T07:46:53Z</time>
      </trkpt>
      <trkpt lat="37.591078" lon="-6.021251">
        <ele>143.182</ele>
        <time>2016-09-01T07:46:54Z</time>
      </trkpt>
      <trkpt lat="37.591101" lon="-6.021218">
        <ele>143.143</ele>
        <time>2016-09-01T07:46:55Z</time>
      </trkpt>
      <trkpt lat="37.591122" lon="-6.021180">
        <ele>143.017</ele>
        <time>2016-09-01T07:46:56Z</time>
      </trkpt>
      <trkpt lat="37.591142" lon="-6.021136">
        <ele>142.908</ele>
        <time>2016-09-01T07:46:57Z</time>
      </trkpt>
      <trkpt lat="37.591167" lon="-6.021090">
        <ele>142.881</ele>
        <time>2016-09-01T07:46:58Z</time>
      </trkpt>
      <trkpt lat="37.591198" lon="-6.021043">
        <ele>142.682</ele>
        <time>2016-09-01T07:46:59Z</time>
      </trkpt>
      <trkpt lat="37.591606" lon="-6.020381">
        <ele>141.233</ele>
        <time>2016-09-01T07:47:12Z</time>
      </trkpt>
      <trkpt lat="37.591871" lon="-6.019594">
        <ele>141.972</ele>
        <time>2016-09-01T07:47:28Z</time>
      </trkpt>
      <trkpt lat="37.592103" lon="-6.019165">
        <ele>142.126</ele>
        <time>2016-09-01T07:47:41Z</time>
      </trkpt>
      <trkpt lat="37.592211" lon="-6.019186">
        <ele>142.229</ele>
        <time>2016-09-01T07:47:46Z</time>
      </trkpt>
      <trkpt lat="37.592422" lon="-6.019330">
        <ele>142.428</ele>
        <time>2016-09-01T07:48:00Z</time>
      </trkpt>
      <trkpt lat="37.592422" lon="-6.019331">
        <ele>142.427</ele>
        <time>2016-09-01T07:48:01Z</time>
      </trkpt>
      <trkpt lat="37.592358" lon="-6.019267">
        <ele>142.439</ele>
        <time>2016-09-01T07:48:21Z</time>
      </trkpt>
      <trkpt lat="37.592436" lon="-6.019075">
        <ele>142.601</ele>
        <time>2016-09-01T07:48:29Z</time>
      </trkpt>
      <trkpt lat="37.592650" lon="-6.018820">
        <ele>142.921</ele>
        <time>2016-09-01T07:48:41Z</time>
      </trkpt>
      <trkpt lat="37.592985" lon="-6.018645">
        <ele>143.708</ele>
        <time>2016-09-01T07:48:55Z</time>
      </trkpt>
      <trkpt lat="37.593286" lon="-6.018511">
        <ele>144.936</ele>
        <time>2016-09-01T07:49:06Z</time>
      </trkpt>
      <trkpt lat="37.593343" lon="-6.018478">
        <ele>145.187</ele>
        <time>2016-09-01T07:49:08Z</time>
      </trkpt>
      <trkpt lat="37.593454" lon="-6.018234">
        <ele>146.358</ele>
        <time>2016-09-01T07:49:17Z</time>
      </trkpt>
      <trkpt lat="37.593676" lon="-6.018019">
        <ele>147.647</ele>
        <time>2016-09-01T07:49:28Z</time>
      </trkpt>
      <trkpt lat="37.593757" lon="-6.017986">
        <ele>148.031</ele>
        <time>2016-09-01T07:49:32Z</time>
      </trkpt>
      <trkpt lat="37.594011" lon="-6.017765">
        <ele>148.694</ele>
        <time>2016-09-01T07:49:47Z</time>
      </trkpt>
      <trkpt lat="37.594198" lon="-6.017603">
        <ele>148.193</ele>
        <time>2016-09-01T07:49:59Z</time>
      </trkpt>
      <trkpt lat="37.594407" lon="-6.017481">
        <ele>146.382</ele>
        <time>2016-09-01T07:50:11Z</time>
      </trkpt>
      <trkpt lat="37.594602" lon="-6.017395">
        <ele>143.993</ele>
        <time>2016-09-01T07:50:23Z</time>
      </trkpt>
      <trkpt lat="37.594889" lon="-6.017246">
        <ele>140.465</ele>
        <time>2016-09-01T07:50:32Z</time>
      </trkpt>
      <trkpt lat="37.595133" lon="-6.016936">
        <ele>137.821</ele>
        <time>2016-09-01T07:50:39Z</time>
      </trkpt>
      <trkpt lat="37.595210" lon="-6.016749">
        <ele>136.708</ele>
        <time>2016-09-01T07:50:42Z</time>
      </trkpt>
      <trkpt lat="37.595333" lon="-6.016521">
        <ele>135.072</ele>
        <time>2016-09-01T07:50:46Z</time>
      </trkpt>
      <trkpt lat="37.595418" lon="-6.016420">
        <ele>134.343</ele>
        <time>2016-09-01T07:50:48Z</time>
      </trkpt>
      <trkpt lat="37.595690" lon="-6.015844">
        <ele>132.384</ele>
        <time>2016-09-01T07:50:57Z</time>
      </trkpt>
      <trkpt lat="37.595757" lon="-6.015705">
        <ele>131.793</ele>
        <time>2016-09-01T07:51:00Z</time>
      </trkpt>
      <trkpt lat="37.595902" lon="-6.015161">
        <ele>130.487</ele>
        <time>2016-09-01T07:51:12Z</time>
      </trkpt>
      <trkpt lat="37.595902" lon="-6.015159">
        <ele>130.480</ele>
        <time>2016-09-01T07:51:15Z</time>
      </trkpt>
      <trkpt lat="37.595922" lon="-6.015096">
        <ele>130.369</ele>
        <time>2016-09-01T07:51:46Z</time>
      </trkpt>
      <trkpt lat="37.596089" lon="-6.014837">
        <ele>130.138</ele>
        <time>2016-09-01T07:51:54Z</time>
      </trkpt>
      <trkpt lat="37.596487" lon="-6.014494">
        <ele>129.952</ele>
        <time>2016-09-01T07:52:05Z</time>
      </trkpt>
      <trkpt lat="37.596648" lon="-6.014351">
        <ele>129.953</ele>
        <time>2016-09-01T07:52:10Z</time>
      </trkpt>
      <trkpt lat="37.596860" lon="-6.014297">
        <ele>129.908</ele>
        <time>2016-09-01T07:52:15Z</time>
      </trkpt>
      <trkpt lat="37.597071" lon="-6.014316">
        <ele>130.008</ele>
        <time>2016-09-01T07:52:20Z</time>
      </trkpt>
      <trkpt lat="37.597445" lon="-6.014466">
        <ele>130.188</ele>
        <time>2016-09-01T07:52:29Z</time>
      </trkpt>
      <trkpt lat="37.597614" lon="-6.014510">
        <ele>130.339</ele>
        <time>2016-09-01T07:52:33Z</time>
      </trkpt>
      <trkpt lat="37.598059" lon="-6.014678">
        <ele>131.290</ele>
        <time>2016-09-01T07:52:45Z</time>
      </trkpt>
      <trkpt lat="37.598498" lon="-6.014939">
        <ele>132.229</ele>
        <time>2016-09-01T07:52:58Z</time>
      </trkpt>
      <trkpt lat="37.598689" lon="-6.015138">
        <ele>132.633</ele>
        <time>2016-09-01T07:53:05Z</time>
      </trkpt>
      <trkpt lat="37.599208" lon="-6.015373">
        <ele>133.266</ele>
        <time>2016-09-01T07:53:21Z</time>
      </trkpt>
      <trkpt lat="37.599518" lon="-6.015547">
        <ele>133.915</ele>
        <time>2016-09-01T07:53:31Z</time>
      </trkpt>
      <trkpt lat="37.599912" lon="-6.015649">
        <ele>134.494</ele>
        <time>2016-09-01T07:53:43Z</time>
      </trkpt>
      <trkpt lat="37.600290" lon="-6.015881">
        <ele>134.093</ele>
        <time>2016-09-01T07:53:56Z</time>
      </trkpt>
      <trkpt lat="37.600739" lon="-6.016294">
        <ele>133.665</ele>
        <time>2016-09-01T07:54:12Z</time>
      </trkpt>
      <trkpt lat="37.601178" lon="-6.016557">
        <ele>129.821</ele>
        <time>2016-09-01T07:54:23Z</time>
      </trkpt>
      <trkpt lat="37.601243" lon="-6.016592">
        <ele>129.508</ele>
        <time>2016-09-01T07:54:24Z</time>
      </trkpt>
      <trkpt lat="37.601559" lon="-6.016693">
        <ele>128.932</ele>
        <time>2016-09-01T07:54:29Z</time>
      </trkpt>
      <trkpt lat="37.601800" lon="-6.016715">
        <ele>128.733</ele>
        <time>2016-09-01T07:54:33Z</time>
      </trkpt>
      <trkpt lat="37.602100" lon="-6.016736">
        <ele>128.084</ele>
        <time>2016-09-01T07:54:41Z</time>
      </trkpt>
      <trkpt lat="37.602518" lon="-6.016627">
        <ele>127.273</ele>
        <time>2016-09-01T07:54:55Z</time>
      </trkpt>
      <trkpt lat="37.602671" lon="-6.016584">
        <ele>127.237</ele>
        <time>2016-09-01T07:54:59Z</time>
      </trkpt>
      <trkpt lat="37.603134" lon="-6.016287">
        <ele>128.090</ele>
        <time>2016-09-01T07:55:12Z</time>
      </trkpt>
      <trkpt lat="37.603342" lon="-6.016107">
        <ele>128.479</ele>
        <time>2016-09-01T07:55:22Z</time>
      </trkpt>
      <trkpt lat="37.603605" lon="-6.015934">
        <ele>128.758</ele>
        <time>2016-09-01T07:55:32Z</time>
      </trkpt>
      <trkpt lat="37.603832" lon="-6.015613">
        <ele>129.462</ele>
        <time>2016-09-01T07:55:45Z</time>
      </trkpt>
      <trkpt lat="37.604063" lon="-6.015492">
        <ele>130.783</ele>
        <time>2016-09-01T07:55:57Z</time>
      </trkpt>
      <trkpt lat="37.604175" lon="-6.015684">
        <ele>132.011</ele>
        <time>2016-09-01T07:56:09Z</time>
      </trkpt>
      <trkpt lat="37.604176" lon="-6.015695">
        <ele>132.008</ele>
        <time>2016-09-01T07:56:13Z</time>
      </trkpt>
      <trkpt lat="37.604298" lon="-6.015901">
        <ele>133.069</ele>
        <time>2016-09-01T07:56:37Z</time>
      </trkpt>
      <trkpt lat="37.604383" lon="-6.015958">
        <ele>133.420</ele>
        <time>2016-09-01T07:56:46Z</time>
      </trkpt>
      <trkpt lat="37.604464" lon="-6.015988">
        <ele>133.611</ele>
        <time>2016-09-01T07:56:58Z</time>
      </trkpt>
      <trkpt lat="37.604465" lon="-6.015980">
        <ele>133.760</ele>
        <time>2016-09-01T07:57:00Z</time>
      </trkpt>
      <trkpt lat="37.604522" lon="-6.015972">
        <ele>133.964</ele>
        <time>2016-09-01T07:57:33Z</time>
      </trkpt>
      <trkpt lat="37.604785" lon="-6.016061">
        <ele>134.977</ele>
        <time>2016-09-01T07:57:43Z</time>
      </trkpt>
      <trkpt lat="37.605174" lon="-6.016180">
        <ele>137.256</ele>
        <time>2016-09-01T07:57:57Z</time>
      </trkpt>
      <trkpt lat="37.605466" lon="-6.016178">
        <ele>138.045</ele>
        <time>2016-09-01T07:58:11Z</time>
      </trkpt>
      <trkpt lat="37.605724" lon="-6.016338">
        <ele>137.647</ele>
        <time>2016-09-01T07:58:26Z</time>
      </trkpt>
      <trkpt lat="37.606101" lon="-6.016367">
        <ele>136.829</ele>
        <time>2016-09-01T07:58:36Z</time>
      </trkpt>
      <trkpt lat="37.606465" lon="-6.016352">
        <ele>136.421</ele>
        <time>2016-09-01T07:58:43Z</time>
      </trkpt>
      <trkpt lat="37.606643" lon="-6.016404">
        <ele>136.708</ele>
        <time>2016-09-01T07:58:47Z</time>
      </trkpt>
      <trkpt lat="37.606721" lon="-6.016458">
        <ele>137.027</ele>
        <time>2016-09-01T07:58:49Z</time>
      </trkpt>
      <trkpt lat="37.607043" lon="-6.016503">
        <ele>139.138</ele>
        <time>2016-09-01T07:58:59Z</time>
      </trkpt>
      <trkpt lat="37.607271" lon="-6.016402">
        <ele>140.159</ele>
        <time>2016-09-01T07:59:12Z</time>
      </trkpt>
      <trkpt lat="37.607508" lon="-6.016244">
        <ele>140.628</ele>
        <time>2016-09-01T07:59:27Z</time>
      </trkpt>
      <trkpt lat="37.607519" lon="-6.016231">
        <ele>140.732</ele>
        <time>2016-09-01T07:59:28Z</time>
      </trkpt>
      <trkpt lat="37.607601" lon="-6.016182">
        <ele>140.945</ele>
        <time>2016-09-01T07:59:41Z</time>
      </trkpt>
      <trkpt lat="37.607618" lon="-6.016176">
        <ele>140.914</ele>
        <time>2016-09-01T07:59:43Z</time>
      </trkpt>
      <trkpt lat="37.607715" lon="-6.016132">
        <ele>141.353</ele>
        <time>2016-09-01T07:59:56Z</time>
      </trkpt>
      <trkpt lat="37.607819" lon="-6.016031">
        <ele>141.683</ele>
        <time>2016-09-01T08:00:12Z</time>
      </trkpt>
      <trkpt lat="37.607825" lon="-6.016023">
        <ele>141.625</ele>
        <time>2016-09-01T08:00:16Z</time>
      </trkpt>
      <trkpt lat="37.607843" lon="-6.015946">
        <ele>141.717</ele>
        <time>2016-09-01T08:00:57Z</time>
      </trkpt>
      <trkpt lat="37.608134" lon="-6.015774">
        <ele>142.108</ele>
        <time>2016-09-01T08:01:09Z</time>
      </trkpt>
      <trkpt lat="37.608229" lon="-6.015777">
        <ele>142.271</ele>
        <time>2016-09-01T08:01:16Z</time>
      </trkpt>
      <trkpt lat="37.608405" lon="-6.015744">
        <ele>142.752</ele>
        <time>2016-09-01T08:01:39Z</time>
      </trkpt>
      <trkpt lat="37.608498" lon="-6.015700">
        <ele>143.183</ele>
        <time>2016-09-01T08:01:45Z</time>
      </trkpt>
      <trkpt lat="37.608566" lon="-6.015611">
        <ele>143.472</ele>
        <time>2016-09-01T08:01:58Z</time>
      </trkpt>
      <trkpt lat="37.608673" lon="-6.015531">
        <ele>143.866</ele>
        <time>2016-09-01T08:02:14Z</time>
      </trkpt>
      <trkpt lat="37.608811" lon="-6.015440">
        <ele>144.249</ele>
        <time>2016-09-01T08:02:30Z</time>
      </trkpt>
      <trkpt lat="37.608892" lon="-6.015455">
        <ele>144.378</ele>
        <time>2016-09-01T08:02:43Z</time>
      </trkpt>
      <trkpt lat="37.608949" lon="-6.015427">
        <ele>144.477</ele>
        <time>2016-09-01T08:02:47Z</time>
      </trkpt>
      <trkpt lat="37.609210" lon="-6.015326">
        <ele>145.318</ele>
        <time>2016-09-01T08:03:00Z</time>
      </trkpt>
      <trkpt lat="37.609502" lon="-6.015304">
        <ele>146.398</ele>
        <time>2016-09-01T08:03:15Z</time>
      </trkpt>
      <trkpt lat="37.609631" lon="-6.015326">
        <ele>146.917</ele>
        <time>2016-09-01T08:03:26Z</time>
      </trkpt>
      <trkpt lat="37.609713" lon="-6.015342">
        <ele>147.308</ele>
        <time>2016-09-01T08:05:08Z</time>
      </trkpt>
      <trkpt lat="37.609886" lon="-6.015367">
        <ele>148.064</ele>
        <time>2016-09-01T08:05:14Z</time>
      </trkpt>
      <trkpt lat="37.610277" lon="-6.015397">
        <ele>149.125</ele>
        <time>2016-09-01T08:05:27Z</time>
      </trkpt>
      <trkpt lat="37.610546" lon="-6.015487">
        <ele>149.646</ele>
        <time>2016-09-01T08:05:39Z</time>
      </trkpt>
      <trkpt lat="37.610552" lon="-6.015485">
        <ele>149.695</ele>
        <time>2016-09-01T08:05:42Z</time>
      </trkpt>
      <trkpt lat="37.610605" lon="-6.015441">
        <ele>149.869</ele>
        <time>2016-09-01T08:05:46Z</time>
      </trkpt>
      <trkpt lat="37.610793" lon="-6.015345">
        <ele>150.122</ele>
        <time>2016-09-01T08:05:54Z</time>
      </trkpt>
      <trkpt lat="37.610897" lon="-6.015374">
        <ele>150.281</ele>
        <time>2016-09-01T08:05:59Z</time>
      </trkpt>
      <trkpt lat="37.611240" lon="-6.015456">
        <ele>151.010</ele>
        <time>2016-09-01T08:06:14Z</time>
      </trkpt>
      <trkpt lat="37.611504" lon="-6.015568">
        <ele>151.773</ele>
        <time>2016-09-01T08:06:27Z</time>
      </trkpt>
      <trkpt lat="37.611777" lon="-6.015584">
        <ele>152.185</ele>
        <time>2016-09-01T08:06:39Z</time>
      </trkpt>
      <trkpt lat="37.611964" lon="-6.015610">
        <ele>152.513</ele>
        <time>2016-09-01T08:06:50Z</time>
      </trkpt>
      <trkpt lat="37.612078" lon="-6.015628">
        <ele>153.008</ele>
        <time>2016-09-01T08:07:09Z</time>
      </trkpt>
      <trkpt lat="37.612153" lon="-6.015651">
        <ele>153.460</ele>
        <time>2016-09-01T08:07:17Z</time>
      </trkpt>
      <trkpt lat="37.612294" lon="-6.015752">
        <ele>154.641</ele>
        <time>2016-09-01T08:07:36Z</time>
      </trkpt>
      <trkpt lat="37.612421" lon="-6.015798">
        <ele>155.582</ele>
        <time>2016-09-01T08:07:51Z</time>
      </trkpt>
      <trkpt lat="37.612573" lon="-6.015893">
        <ele>156.931</ele>
        <time>2016-09-01T08:08:08Z</time>
      </trkpt>
      <trkpt lat="37.612699" lon="-6.015948">
        <ele>157.725</ele>
        <time>2016-09-01T08:08:23Z</time>
      </trkpt>
      <trkpt lat="37.612790" lon="-6.016003">
        <ele>158.238</ele>
        <time>2016-09-01T08:08:35Z</time>
      </trkpt>
      <trkpt lat="37.612986" lon="-6.016135">
        <ele>159.617</ele>
        <time>2016-09-01T08:08:46Z</time>
      </trkpt>
      <trkpt lat="37.613142" lon="-6.016179">
        <ele>160.526</ele>
        <time>2016-09-01T08:08:58Z</time>
      </trkpt>
      <trkpt lat="37.613173" lon="-6.016173">
        <ele>160.789</ele>
        <time>2016-09-01T08:09:00Z</time>
      </trkpt>
      <trkpt lat="37.613422" lon="-6.016212">
        <ele>162.506</ele>
        <time>2016-09-01T08:09:13Z</time>
      </trkpt>
      <trkpt lat="37.613678" lon="-6.016258">
        <ele>163.726</ele>
        <time>2016-09-01T08:09:25Z</time>
      </trkpt>
      <trkpt lat="37.613779" lon="-6.016287">
        <ele>164.208</ele>
        <time>2016-09-01T08:09:31Z</time>
      </trkpt>
      <trkpt lat="37.613799" lon="-6.016304">
        <ele>164.311</ele>
        <time>2016-09-01T08:09:33Z</time>
      </trkpt>
      <trkpt lat="37.613832" lon="-6.016312">
        <ele>164.592</ele>
        <time>2016-09-01T08:09:36Z</time>
      </trkpt>
      <trkpt lat="37.613878" lon="-6.016335">
        <ele>164.643</ele>
        <time>2016-09-01T08:09:40Z</time>
      </trkpt>
      <trkpt lat="37.614121" lon="-6.016422">
        <ele>165.172</ele>
        <time>2016-09-01T08:09:54Z</time>
      </trkpt>
      <trkpt lat="37.614466" lon="-6.016375">
        <ele>164.766</ele>
        <time>2016-09-01T08:10:05Z</time>
      </trkpt>
      <trkpt lat="37.614617" lon="-6.016150">
        <ele>164.029</ele>
        <time>2016-09-01T08:10:14Z</time>
      </trkpt>
      <trkpt lat="37.614884" lon="-6.016044">
        <ele>162.698</ele>
        <time>2016-09-01T08:10:25Z</time>
      </trkpt>
      <trkpt lat="37.615150" lon="-6.015932">
        <ele>162.267</ele>
        <time>2016-09-01T08:10:35Z</time>
      </trkpt>
      <trkpt lat="37.615569" lon="-6.015813">
        <ele>162.245</ele>
        <time>2016-09-01T08:10:48Z</time>
      </trkpt>
      <trkpt lat="37.615916" lon="-6.015771">
        <ele>162.847</ele>
        <time>2016-09-01T08:10:59Z</time>
      </trkpt>
      <trkpt lat="37.616259" lon="-6.015800">
        <ele>163.611</ele>
        <time>2016-09-01T08:11:10Z</time>
      </trkpt>
      <trkpt lat="37.616637" lon="-6.015768">
        <ele>164.908</ele>
        <time>2016-09-01T08:11:22Z</time>
      </trkpt>
      <trkpt lat="37.616970" lon="-6.015829">
        <ele>166.087</ele>
        <time>2016-09-01T08:11:35Z</time>
      </trkpt>
      <trkpt lat="37.617244" lon="-6.015814">
        <ele>167.068</ele>
        <time>2016-09-01T08:11:46Z</time>
      </trkpt>
      <trkpt lat="37.617643" lon="-6.015933">
        <ele>168.189</ele>
        <time>2016-09-01T08:12:00Z</time>
      </trkpt>
      <trkpt lat="37.618034" lon="-6.016063">
        <ele>169.818</ele>
        <time>2016-09-01T08:12:14Z</time>
      </trkpt>
      <trkpt lat="37.618328" lon="-6.016019">
        <ele>171.542</ele>
        <time>2016-09-01T08:12:27Z</time>
      </trkpt>
      <trkpt lat="37.618505" lon="-6.016043">
        <ele>172.995</ele>
        <time>2016-09-01T08:12:35Z</time>
      </trkpt>
      <trkpt lat="37.618681" lon="-6.016147">
        <ele>174.094</ele>
        <time>2016-09-01T08:12:47Z</time>
      </trkpt>
      <trkpt lat="37.618691" lon="-6.016149">
        <ele>174.153</ele>
        <time>2016-09-01T08:12:48Z</time>
      </trkpt>
      <trkpt lat="37.618851" lon="-6.016181">
        <ele>174.918</ele>
        <time>2016-09-01T08:12:58Z</time>
      </trkpt>
      <trkpt lat="37.618945" lon="-6.016203">
        <ele>175.598</ele>
        <time>2016-09-01T08:13:09Z</time>
      </trkpt>
      <trkpt lat="37.619297" lon="-6.016291">
        <ele>178.017</ele>
        <time>2016-09-01T08:13:53Z</time>
      </trkpt>
      <trkpt lat="37.619432" lon="-6.016356">
        <ele>178.808</ele>
        <time>2016-09-01T08:14:09Z</time>
      </trkpt>
      <trkpt lat="37.619518" lon="-6.016425">
        <ele>179.014</ele>
        <time>2016-09-01T08:14:21Z</time>
      </trkpt>
      <trkpt lat="37.619563" lon="-6.016461">
        <ele>179.025</ele>
        <time>2016-09-01T08:14:25Z</time>
      </trkpt>
      <trkpt lat="37.619833" lon="-6.016660">
        <ele>179.126</ele>
        <time>2016-09-01T08:14:35Z</time>
      </trkpt>
      <trkpt lat="37.620243" lon="-6.016928">
        <ele>179.155</ele>
        <time>2016-09-01T08:14:46Z</time>
      </trkpt>
      <trkpt lat="37.620758" lon="-6.017187">
        <ele>179.469</ele>
        <time>2016-09-01T08:14:59Z</time>
      </trkpt>
      <trkpt lat="37.620842" lon="-6.017235">
        <ele>179.672</ele>
        <time>2016-09-01T08:15:01Z</time>
      </trkpt>
      <trkpt lat="37.621091" lon="-6.017359">
        <ele>180.381</ele>
        <time>2016-09-01T08:15:08Z</time>
      </trkpt>
      <trkpt lat="37.621281" lon="-6.017497">
        <ele>181.030</ele>
        <time>2016-09-01T08:15:15Z</time>
      </trkpt>
      <trkpt lat="37.621584" lon="-6.017607">
        <ele>182.113</ele>
        <time>2016-09-01T08:15:28Z</time>
      </trkpt>
      <trkpt lat="37.621649" lon="-6.017629">
        <ele>182.343</ele>
        <time>2016-09-01T08:15:31Z</time>
      </trkpt>
      <trkpt lat="37.621819" lon="-6.017677">
        <ele>182.907</ele>
        <time>2016-09-01T08:15:40Z</time>
      </trkpt>
      <trkpt lat="37.622300" lon="-6.017597">
        <ele>184.108</ele>
        <time>2016-09-01T08:15:57Z</time>
      </trkpt>
      <trkpt lat="37.622607" lon="-6.017519">
        <ele>185.394</ele>
        <time>2016-09-01T08:16:09Z</time>
      </trkpt>
      <trkpt lat="37.622939" lon="-6.017597">
        <ele>186.835</ele>
        <time>2016-09-01T08:16:22Z</time>
      </trkpt>
      <trkpt lat="37.623030" lon="-6.017582">
        <ele>187.066</ele>
        <time>2016-09-01T08:16:26Z</time>
      </trkpt>
      <trkpt lat="37.623382" lon="-6.017537">
        <ele>187.255</ele>
        <time>2016-09-01T08:16:38Z</time>
      </trkpt>
      <trkpt lat="37.623778" lon="-6.017530">
        <ele>188.219</ele>
        <time>2016-09-01T08:16:50Z</time>
      </trkpt>
      <trkpt lat="37.624021" lon="-6.017632">
        <ele>189.662</ele>
        <time>2016-09-01T08:17:01Z</time>
      </trkpt>
      <trkpt lat="37.624131" lon="-6.017750">
        <ele>190.441</ele>
        <time>2016-09-01T08:17:10Z</time>
      </trkpt>
      <trkpt lat="37.624186" lon="-6.017756">
        <ele>190.740</ele>
        <time>2016-09-01T08:17:17Z</time>
      </trkpt>
      <trkpt lat="37.624673" lon="-6.018031">
        <ele>195.642</ele>
        <time>2016-09-01T08:18:47Z</time>
      </trkpt>
      <trkpt lat="37.624709" lon="-6.018047">
        <ele>195.822</ele>
        <time>2016-09-01T08:18:54Z</time>
      </trkpt>
      <trkpt lat="37.624802" lon="-6.018094">
        <ele>196.314</ele>
        <time>2016-09-01T08:22:22Z</time>
      </trkpt>
      <trkpt lat="37.624875" lon="-6.018133">
        <ele>196.608</ele>
        <time>2016-09-01T08:22:27Z</time>
      </trkpt>
      <trkpt lat="37.624956" lon="-6.018127">
        <ele>197.077</ele>
        <time>2016-09-01T08:22:33Z</time>
      </trkpt>
      <trkpt lat="37.625022" lon="-6.018093">
        <ele>197.248</ele>
        <time>2016-09-01T08:22:37Z</time>
      </trkpt>
      <trkpt lat="37.625109" lon="-6.018087">
        <ele>197.699</ele>
        <time>2016-09-01T08:22:42Z</time>
      </trkpt>
      <trkpt lat="37.625371" lon="-6.017998">
        <ele>198.448</ele>
        <time>2016-09-01T08:22:57Z</time>
      </trkpt>
      <trkpt lat="37.625587" lon="-6.017944">
        <ele>199.232</ele>
        <time>2016-09-01T08:23:09Z</time>
      </trkpt>
      <trkpt lat="37.625678" lon="-6.017890">
        <ele>199.665</ele>
        <time>2016-09-01T08:23:14Z</time>
      </trkpt>
      <trkpt lat="37.625841" lon="-6.018007">
        <ele>200.414</ele>
        <time>2016-09-01T08:23:24Z</time>
      </trkpt>
      <trkpt lat="37.626061" lon="-6.018003">
        <ele>201.593</ele>
        <time>2016-09-01T08:23:38Z</time>
      </trkpt>
      <trkpt lat="37.626065" lon="-6.018005">
        <ele>201.527</ele>
        <time>2016-09-01T08:23:41Z</time>
      </trkpt>
      <trkpt lat="37.626417" lon="-6.017929">
        <ele>203.868</ele>
        <time>2016-09-01T08:24:24Z</time>
      </trkpt>
      <trkpt lat="37.626609" lon="-6.017965">
        <ele>205.214</ele>
        <time>2016-09-01T08:24:39Z</time>
      </trkpt>
      <trkpt lat="37.626700" lon="-6.017974">
        <ele>206.108</ele>
        <time>2016-09-01T08:24:50Z</time>
      </trkpt>
      <trkpt lat="37.626764" lon="-6.017980">
        <ele>206.715</ele>
        <time>2016-09-01T08:24:56Z</time>
      </trkpt>
      <trkpt lat="37.626878" lon="-6.018080">
        <ele>207.646</ele>
        <time>2016-09-01T08:25:10Z</time>
      </trkpt>
      <trkpt lat="37.627013" lon="-6.018103">
        <ele>208.487</ele>
        <time>2016-09-01T08:25:18Z</time>
      </trkpt>
      <trkpt lat="37.627068" lon="-6.018151">
        <ele>208.936</ele>
        <time>2016-09-01T08:25:22Z</time>
      </trkpt>
      <trkpt lat="37.627111" lon="-6.018204">
        <ele>209.250</ele>
        <time>2016-09-01T08:25:28Z</time>
      </trkpt>
      <trkpt lat="37.627473" lon="-6.018292">
        <ele>213.683</ele>
        <time>2016-09-01T08:26:33Z</time>
      </trkpt>
      <trkpt lat="37.627522" lon="-6.018278">
        <ele>214.192</ele>
        <time>2016-09-01T08:26:41Z</time>
      </trkpt>
      <trkpt lat="37.627575" lon="-6.018309">
        <ele>214.751</ele>
        <time>2016-09-01T08:26:48Z</time>
      </trkpt>
      <trkpt lat="37.627808" lon="-6.018255">
        <ele>216.746</ele>
        <time>2016-09-01T08:27:02Z</time>
      </trkpt>
      <trkpt lat="37.628051" lon="-6.018180">
        <ele>218.388</ele>
        <time>2016-09-01T08:27:16Z</time>
      </trkpt>
      <trkpt lat="37.628283" lon="-6.018195">
        <ele>219.316</ele>
        <time>2016-09-01T08:27:26Z</time>
      </trkpt>
      <trkpt lat="37.628399" lon="-6.018210">
        <ele>219.908</ele>
        <time>2016-09-01T08:27:31Z</time>
      </trkpt>
      <trkpt lat="37.628413" lon="-6.018200">
        <ele>220.017</ele>
        <time>2016-09-01T08:27:32Z</time>
      </trkpt>
      <trkpt lat="37.628430" lon="-6.018189">
        <ele>220.098</ele>
        <time>2016-09-01T08:27:33Z</time>
      </trkpt>
      <trkpt lat="37.628450" lon="-6.018178">
        <ele>220.169</ele>
        <time>2016-09-01T08:27:34Z</time>
      </trkpt>
      <trkpt lat="37.628470" lon="-6.018166">
        <ele>220.238</ele>
        <time>2016-09-01T08:27:35Z</time>
      </trkpt>
      <trkpt lat="37.628489" lon="-6.018152">
        <ele>220.232</ele>
        <time>2016-09-01T08:27:36Z</time>
      </trkpt>
      <trkpt lat="37.628506" lon="-6.018133">
        <ele>220.385</ele>
        <time>2016-09-01T08:27:37Z</time>
      </trkpt>
      <trkpt lat="37.628525" lon="-6.018118">
        <ele>220.464</ele>
        <time>2016-09-01T08:27:38Z</time>
      </trkpt>
      <trkpt lat="37.628547" lon="-6.018110">
        <ele>220.423</ele>
        <time>2016-09-01T08:27:39Z</time>
      </trkpt>
      <trkpt lat="37.628572" lon="-6.018104">
        <ele>220.516</ele>
        <time>2016-09-01T08:27:40Z</time>
      </trkpt>
      <trkpt lat="37.628600" lon="-6.018096">
        <ele>220.676</ele>
        <time>2016-09-01T08:27:41Z</time>
      </trkpt>
      <trkpt lat="37.628632" lon="-6.018089">
        <ele>220.713</ele>
        <time>2016-09-01T08:27:42Z</time>
      </trkpt>
      <trkpt lat="37.628664" lon="-6.018094">
        <ele>220.808</ele>
        <time>2016-09-01T08:27:43Z</time>
      </trkpt>
      <trkpt lat="37.628693" lon="-6.018105">
        <ele>220.864</ele>
        <time>2016-09-01T08:27:44Z</time>
      </trkpt>
      <trkpt lat="37.628719" lon="-6.018116">
        <ele>220.935</ele>
        <time>2016-09-01T08:27:45Z</time>
      </trkpt>
      <trkpt lat="37.628745" lon="-6.018122">
        <ele>221.016</ele>
        <time>2016-09-01T08:27:46Z</time>
      </trkpt>
      <trkpt lat="37.628770" lon="-6.018120">
        <ele>221.115</ele>
        <time>2016-09-01T08:27:47Z</time>
      </trkpt>
      <trkpt lat="37.628797" lon="-6.018109">
        <ele>221.279</ele>
        <time>2016-09-01T08:27:48Z</time>
      </trkpt>
      <trkpt lat="37.628866" lon="-6.018062">
        <ele>221.432</ele>
        <time>2016-09-01T08:27:51Z</time>
      </trkpt>
      <trkpt lat="37.628887" lon="-6.018058">
        <ele>221.571</ele>
        <time>2016-09-01T08:27:52Z</time>
      </trkpt>
      <trkpt lat="37.628907" lon="-6.018060">
        <ele>221.550</ele>
        <time>2016-09-01T08:27:53Z</time>
      </trkpt>
      <trkpt lat="37.628924" lon="-6.018070">
        <ele>221.677</ele>
        <time>2016-09-01T08:27:54Z</time>
      </trkpt>
      <trkpt lat="37.628941" lon="-6.018076">
        <ele>221.661</ele>
        <time>2016-09-01T08:27:55Z</time>
      </trkpt>
      <trkpt lat="37.628961" lon="-6.018074">
        <ele>221.727</ele>
        <time>2016-09-01T08:27:56Z</time>
      </trkpt>
      <trkpt lat="37.628985" lon="-6.018066">
        <ele>221.808</ele>
        <time>2016-09-01T08:27:57Z</time>
      </trkpt>
      <trkpt lat="37.629008" lon="-6.018061">
        <ele>221.980</ele>
        <time>2016-09-01T08:27:58Z</time>
      </trkpt>
      <trkpt lat="37.629025" lon="-6.018057">
        <ele>221.961</ele>
        <time>2016-09-01T08:27:59Z</time>
      </trkpt>
      <trkpt lat="37.629042" lon="-6.018053">
        <ele>222.062</ele>
        <time>2016-09-01T08:28:00Z</time>
      </trkpt>
      <trkpt lat="37.629057" lon="-6.018051">
        <ele>222.011</ele>
        <time>2016-09-01T08:28:01Z</time>
      </trkpt>
      <trkpt lat="37.629067" lon="-6.018044">
        <ele>222.115</ele>
        <time>2016-09-01T08:28:02Z</time>
      </trkpt>
      <trkpt lat="37.629080" lon="-6.018036">
        <ele>222.168</ele>
        <time>2016-09-01T08:28:03Z</time>
      </trkpt>
      <trkpt lat="37.629093" lon="-6.018031">
        <ele>222.227</ele>
        <time>2016-09-01T08:28:04Z</time>
      </trkpt>
      <trkpt lat="37.629104" lon="-6.018030">
        <ele>222.216</ele>
        <time>2016-09-01T08:28:05Z</time>
      </trkpt>
      <trkpt lat="37.629118" lon="-6.018033">
        <ele>222.358</ele>
        <time>2016-09-01T08:28:06Z</time>
      </trkpt>
      <trkpt lat="37.629131" lon="-6.018038">
        <ele>222.352</ele>
        <time>2016-09-01T08:28:07Z</time>
      </trkpt>
      <trkpt lat="37.629144" lon="-6.018043">
        <ele>222.417</ele>
        <time>2016-09-01T08:28:08Z</time>
      </trkpt>
      <trkpt lat="37.629380" lon="-6.018042">
        <ele>223.508</ele>
        <time>2016-09-01T08:28:20Z</time>
      </trkpt>
      <trkpt lat="37.629573" lon="-6.017978">
        <ele>224.188</ele>
        <time>2016-09-01T08:28:35Z</time>
      </trkpt>
      <trkpt lat="37.629593" lon="-6.017982">
        <ele>224.289</ele>
        <time>2016-09-01T08:28:37Z</time>
      </trkpt>
      <trkpt lat="37.629604" lon="-6.017987">
        <ele>224.290</ele>
        <time>2016-09-01T08:28:38Z</time>
      </trkpt>
      <trkpt lat="37.629615" lon="-6.017992">
        <ele>224.219</ele>
        <time>2016-09-01T08:28:39Z</time>
      </trkpt>
      <trkpt lat="37.629766" lon="-6.018083">
        <ele>224.893</ele>
        <time>2016-09-01T08:28:53Z</time>
      </trkpt>
      <trkpt lat="37.629961" lon="-6.018090">
        <ele>225.726</ele>
        <time>2016-09-01T08:29:09Z</time>
      </trkpt>
      <trkpt lat="37.630023" lon="-6.018073">
        <ele>225.945</ele>
        <time>2016-09-01T08:29:18Z</time>
      </trkpt>
      <trkpt lat="37.630111" lon="-6.018077">
        <ele>226.264</ele>
        <time>2016-09-01T08:29:42Z</time>
      </trkpt>
      <trkpt lat="37.630461" lon="-6.018219">
        <ele>227.215</ele>
        <time>2016-09-01T08:29:55Z</time>
      </trkpt>
      <trkpt lat="37.630785" lon="-6.018202">
        <ele>228.065</ele>
        <time>2016-09-01T08:30:08Z</time>
      </trkpt>
      <trkpt lat="37.630878" lon="-6.018190">
        <ele>228.311</ele>
        <time>2016-09-01T08:30:13Z</time>
      </trkpt>
      <trkpt lat="37.630894" lon="-6.018200">
        <ele>228.408</ele>
        <time>2016-09-01T08:30:14Z</time>
      </trkpt>
      <trkpt lat="37.630909" lon="-6.018215">
        <ele>228.564</ele>
        <time>2016-09-01T08:30:15Z</time>
      </trkpt>
      <trkpt lat="37.630920" lon="-6.018230">
        <ele>228.525</ele>
        <time>2016-09-01T08:30:16Z</time>
      </trkpt>
      <trkpt lat="37.630930" lon="-6.018242">
        <ele>228.656</ele>
        <time>2016-09-01T08:30:17Z</time>
      </trkpt>
      <trkpt lat="37.630944" lon="-6.018249">
        <ele>228.785</ele>
        <time>2016-09-01T08:30:18Z</time>
      </trkpt>
      <trkpt lat="37.630958" lon="-6.018256">
        <ele>228.719</ele>
        <time>2016-09-01T08:30:19Z</time>
      </trkpt>
      <trkpt lat="37.631180" lon="-6.018310">
        <ele>229.582</ele>
        <time>2016-09-01T08:30:31Z</time>
      </trkpt>
      <trkpt lat="37.631471" lon="-6.018533">
        <ele>230.351</ele>
        <time>2016-09-01T08:30:43Z</time>
      </trkpt>
      <trkpt lat="37.631792" lon="-6.018635">
        <ele>231.140</ele>
        <time>2016-09-01T08:30:54Z</time>
      </trkpt>
      <trkpt lat="37.632016" lon="-6.018741">
        <ele>232.288</ele>
        <time>2016-09-01T08:31:03Z</time>
      </trkpt>
      <trkpt lat="37.632292" lon="-6.018748">
        <ele>233.624</ele>
        <time>2016-09-01T08:31:15Z</time>
      </trkpt>
      <trkpt lat="37.632525" lon="-6.018763">
        <ele>234.926</ele>
        <time>2016-09-01T08:31:26Z</time>
      </trkpt>
      <trkpt lat="37.632813" lon="-6.018770">
        <ele>236.508</ele>
        <time>2016-09-01T08:31:41Z</time>
      </trkpt>
      <trkpt lat="37.633033" lon="-6.018884">
        <ele>237.491</ele>
        <time>2016-09-01T08:31:52Z</time>
      </trkpt>
      <trkpt lat="37.633266" lon="-6.019057">
        <ele>238.362</ele>
        <time>2016-09-01T08:32:05Z</time>
      </trkpt>
      <trkpt lat="37.633606" lon="-6.019221">
        <ele>239.333</ele>
        <time>2016-09-01T08:32:16Z</time>
      </trkpt>
      <trkpt lat="37.633878" lon="-6.019388">
        <ele>239.452</ele>
        <time>2016-09-01T08:32:28Z</time>
      </trkpt>
      <trkpt lat="37.634224" lon="-6.019583">
        <ele>238.786</ele>
        <time>2016-09-01T08:32:40Z</time>
      </trkpt>
      <trkpt lat="37.634644" lon="-6.019820">
        <ele>237.559</ele>
        <time>2016-09-01T08:32:53Z</time>
      </trkpt>
      <trkpt lat="37.634929" lon="-6.020000">
        <ele>237.398</ele>
        <time>2016-09-01T08:33:03Z</time>
      </trkpt>
      <trkpt lat="37.635234" lon="-6.020024">
        <ele>238.417</ele>
        <time>2016-09-01T08:33:13Z</time>
      </trkpt>
      <trkpt lat="37.635505" lon="-6.020036">
        <ele>239.873</ele>
        <time>2016-09-01T08:33:24Z</time>
      </trkpt>
      <trkpt lat="37.635762" lon="-6.019988">
        <ele>240.985</ele>
        <time>2016-09-01T08:33:36Z</time>
      </trkpt>
      <trkpt lat="37.636046" lon="-6.019991">
        <ele>242.013</ele>
        <time>2016-09-01T08:33:49Z</time>
      </trkpt>
      <trkpt lat="37.636369" lon="-6.019921">
        <ele>242.408</ele>
        <time>2016-09-01T08:34:00Z</time>
      </trkpt>
      <trkpt lat="37.636773" lon="-6.019624">
        <ele>243.250</ele>
        <time>2016-09-01T08:34:14Z</time>
      </trkpt>
      <trkpt lat="37.637099" lon="-6.019543">
        <ele>243.261</ele>
        <time>2016-09-01T08:34:25Z</time>
      </trkpt>
      <trkpt lat="37.637145" lon="-6.019551">
        <ele>243.122</ele>
        <time>2016-09-01T08:34:26Z</time>
      </trkpt>
      <trkpt lat="37.637190" lon="-6.019562">
        <ele>243.121</ele>
        <time>2016-09-01T08:34:27Z</time>
      </trkpt>
      <trkpt lat="37.637226" lon="-6.019579">
        <ele>243.055</ele>
        <time>2016-09-01T08:34:28Z</time>
      </trkpt>
      <trkpt lat="37.637253" lon="-6.019599">
        <ele>242.868</ele>
        <time>2016-09-01T08:34:29Z</time>
      </trkpt>
      <trkpt lat="37.637279" lon="-6.019611">
        <ele>242.717</ele>
        <time>2016-09-01T08:34:30Z</time>
      </trkpt>
      <trkpt lat="37.637306" lon="-6.019614">
        <ele>242.656</ele>
        <time>2016-09-01T08:34:31Z</time>
      </trkpt>
      <trkpt lat="37.637337" lon="-6.019614">
        <ele>242.536</ele>
        <time>2016-09-01T08:34:32Z</time>
      </trkpt>
      <trkpt lat="37.637369" lon="-6.019615">
        <ele>242.317</ele>
        <time>2016-09-01T08:34:33Z</time>
      </trkpt>
      <trkpt lat="37.637699" lon="-6.019451">
        <ele>240.818</ele>
        <time>2016-09-01T08:34:43Z</time>
      </trkpt>
      <trkpt lat="37.638015" lon="-6.019204">
        <ele>240.108</ele>
        <time>2016-09-01T08:34:53Z</time>
      </trkpt>
      <trkpt lat="37.638042" lon="-6.019196">
        <ele>240.156</ele>
        <time>2016-09-01T08:34:54Z</time>
      </trkpt>
      <trkpt lat="37.638069" lon="-6.019178">
        <ele>240.267</ele>
        <time>2016-09-01T08:34:55Z</time>
      </trkpt>
      <trkpt lat="37.638096" lon="-6.019155">
        <ele>240.238</ele>
        <time>2016-09-01T08:34:56Z</time>
      </trkpt>
      <trkpt lat="37.638120" lon="-6.019132">
        <ele>240.287</ele>
        <time>2016-09-01T08:34:57Z</time>
      </trkpt>
      <trkpt lat="37.638459" lon="-6.018839">
        <ele>240.931</ele>
        <time>2016-09-01T08:35:10Z</time>
      </trkpt>
      <trkpt lat="37.638804" lon="-6.018587">
        <ele>242.034</ele>
        <time>2016-09-01T08:35:24Z</time>
      </trkpt>
      <trkpt lat="37.639217" lon="-6.018344">
        <ele>242.513</ele>
        <time>2016-09-01T08:35:39Z</time>
      </trkpt>
      <trkpt lat="37.639516" lon="-6.018145">
        <ele>242.742</ele>
        <time>2016-09-01T08:35:50Z</time>
      </trkpt>
      <trkpt lat="37.639859" lon="-6.017960">
        <ele>243.139</ele>
        <time>2016-09-01T08:36:03Z</time>
      </trkpt>
      <trkpt lat="37.640245" lon="-6.017740">
        <ele>243.401</ele>
        <time>2016-09-01T08:36:18Z</time>
      </trkpt>
      <trkpt lat="37.640616" lon="-6.017394">
        <ele>243.621</ele>
        <time>2016-09-01T08:36:33Z</time>
      </trkpt>
      <trkpt lat="37.640944" lon="-6.017057">
        <ele>244.808</ele>
        <time>2016-09-01T08:36:49Z</time>
      </trkpt>
      <trkpt lat="37.641291" lon="-6.016702">
        <ele>246.486</ele>
        <time>2016-09-01T08:37:05Z</time>
      </trkpt>
      <trkpt lat="37.641777" lon="-6.016350">
        <ele>248.257</ele>
        <time>2016-09-01T08:37:26Z</time>
      </trkpt>
      <trkpt lat="37.642217" lon="-6.016206">
        <ele>248.638</ele>
        <time>2016-09-01T08:37:41Z</time>
      </trkpt>
      <trkpt lat="37.642597" lon="-6.016084">
        <ele>249.467</ele>
        <time>2016-09-01T08:37:54Z</time>
      </trkpt>
      <trkpt lat="37.643042" lon="-6.015937">
        <ele>250.831</ele>
        <time>2016-09-01T08:38:10Z</time>
      </trkpt>
      <trkpt lat="37.643393" lon="-6.015717">
        <ele>251.944</ele>
        <time>2016-09-01T08:38:24Z</time>
      </trkpt>
      <trkpt lat="37.643576" lon="-6.015404">
        <ele>253.083</ele>
        <time>2016-09-01T08:38:38Z</time>
      </trkpt>
      <trkpt lat="37.643756" lon="-6.015057">
        <ele>254.412</ele>
        <time>2016-09-01T08:38:53Z</time>
      </trkpt>
      <trkpt lat="37.643975" lon="-6.014602">
        <ele>256.592</ele>
        <time>2016-09-01T08:39:12Z</time>
      </trkpt>
      <trkpt lat="37.644146" lon="-6.014281">
        <ele>257.873</ele>
        <time>2016-09-01T08:39:26Z</time>
      </trkpt>
      <trkpt lat="37.644340" lon="-6.014036">
        <ele>258.720</ele>
        <time>2016-09-01T08:39:37Z</time>
      </trkpt>
      <trkpt lat="37.644781" lon="-6.013944">
        <ele>260.008</ele>
        <time>2016-09-01T08:39:52Z</time>
      </trkpt>
      <trkpt lat="37.645253" lon="-6.013837">
        <ele>261.452</ele>
        <time>2016-09-01T08:40:06Z</time>
      </trkpt>
      <trkpt lat="37.645872" lon="-6.013683">
        <ele>263.543</ele>
        <time>2016-09-01T08:40:24Z</time>
      </trkpt>
      <trkpt lat="37.646539" lon="-6.013426">
        <ele>264.624</ele>
        <time>2016-09-01T08:40:45Z</time>
      </trkpt>
      <trkpt lat="37.647181" lon="-6.013054">
        <ele>266.543</ele>
        <time>2016-09-01T08:41:03Z</time>
      </trkpt>
      <trkpt lat="37.647831" lon="-6.012627">
        <ele>268.117</ele>
        <time>2016-09-01T08:41:21Z</time>
      </trkpt>
      <trkpt lat="37.648540" lon="-6.012185">
        <ele>270.180</ele>
        <time>2016-09-01T08:41:40Z</time>
      </trkpt>
      <trkpt lat="37.649253" lon="-6.011726">
        <ele>273.379</ele>
        <time>2016-09-01T08:42:01Z</time>
      </trkpt>
      <trkpt lat="37.649752" lon="-6.011401">
        <ele>274.838</ele>
        <time>2016-09-01T08:42:18Z</time>
      </trkpt>
      <trkpt lat="37.650317" lon="-6.010991">
        <ele>276.954</ele>
        <time>2016-09-01T08:42:38Z</time>
      </trkpt>
      <trkpt lat="37.650817" lon="-6.010620">
        <ele>278.656</ele>
        <time>2016-09-01T08:42:56Z</time>
      </trkpt>
      <trkpt lat="37.651275" lon="-6.010283">
        <ele>280.611</ele>
        <time>2016-09-01T08:43:13Z</time>
      </trkpt>
      <trkpt lat="37.651733" lon="-6.009950">
        <ele>281.608</ele>
        <time>2016-09-01T08:43:31Z</time>
      </trkpt>
      <trkpt lat="37.652247" lon="-6.009546">
        <ele>283.788</ele>
        <time>2016-09-01T08:43:51Z</time>
      </trkpt>
      <trkpt lat="37.652702" lon="-6.009011">
        <ele>285.489</ele>
        <time>2016-09-01T08:44:12Z</time>
      </trkpt>
      <trkpt lat="37.652996" lon="-6.008495">
        <ele>286.890</ele>
        <time>2016-09-01T08:44:29Z</time>
      </trkpt>
      <trkpt lat="37.653270" lon="-6.007935">
        <ele>290.239</ele>
        <time>2016-09-01T08:44:46Z</time>
      </trkpt>
      <trkpt lat="37.653553" lon="-6.007354">
        <ele>292.343</ele>
        <time>2016-09-01T08:45:02Z</time>
      </trkpt>
      <trkpt lat="37.653926" lon="-6.006617">
        <ele>294.866</ele>
        <time>2016-09-01T08:45:21Z</time>
      </trkpt>
      <trkpt lat="37.654166" lon="-6.006207">
        <ele>295.145</ele>
        <time>2016-09-01T08:45:33Z</time>
      </trkpt>
      <trkpt lat="37.654783" lon="-6.005454">
        <ele>297.574</ele>
        <time>2016-09-01T08:45:55Z</time>
      </trkpt>
      <trkpt lat="37.655393" lon="-6.004821">
        <ele>298.197</ele>
        <time>2016-09-01T08:46:14Z</time>
      </trkpt>
      <trkpt lat="37.656033" lon="-6.004161">
        <ele>299.123</ele>
        <time>2016-09-01T08:46:34Z</time>
      </trkpt>
      <trkpt lat="37.656688" lon="-6.003472">
        <ele>300.625</ele>
        <time>2016-09-01T08:46:57Z</time>
      </trkpt>
      <trkpt lat="37.657345" lon="-6.002795">
        <ele>303.308</ele>
        <time>2016-09-01T08:47:21Z</time>
      </trkpt>
      <trkpt lat="37.657869" lon="-6.002252">
        <ele>304.452</ele>
        <time>2016-09-01T08:47:42Z</time>
      </trkpt>
      <trkpt lat="37.658376" lon="-6.001732">
        <ele>306.833</ele>
        <time>2016-09-01T08:48:02Z</time>
      </trkpt>
      <trkpt lat="37.658875" lon="-6.001245">
        <ele>309.264</ele>
        <time>2016-09-01T08:48:22Z</time>
      </trkpt>
      <trkpt lat="37.659492" lon="-6.000690">
        <ele>312.233</ele>
        <time>2016-09-01T08:48:44Z</time>
      </trkpt>
      <trkpt lat="37.659978" lon="-6.000281">
        <ele>313.987</ele>
        <time>2016-09-01T08:49:02Z</time>
      </trkpt>
      <trkpt lat="37.660442" lon="-5.999874">
        <ele>315.530</ele>
        <time>2016-09-01T08:49:21Z</time>
      </trkpt>
      <trkpt lat="37.660841" lon="-5.999489">
        <ele>317.459</ele>
        <time>2016-09-01T08:49:40Z</time>
      </trkpt>
      <trkpt lat="37.661219" lon="-5.999284">
        <ele>318.758</ele>
        <time>2016-09-01T08:49:57Z</time>
      </trkpt>
      <trkpt lat="37.661658" lon="-5.998935">
        <ele>321.469</ele>
        <time>2016-09-01T08:50:17Z</time>
      </trkpt>
      <trkpt lat="37.661999" lon="-5.998661">
        <ele>323.504</ele>
        <time>2016-09-01T08:50:33Z</time>
      </trkpt>
      <trkpt lat="37.662439" lon="-5.998291">
        <ele>326.924</ele>
        <time>2016-09-01T08:50:53Z</time>
      </trkpt>
      <trkpt lat="37.662850" lon="-5.997914">
        <ele>328.908</ele>
        <time>2016-09-01T08:51:12Z</time>
      </trkpt>
      <trkpt lat="37.663371" lon="-5.997386">
        <ele>331.029</ele>
        <time>2016-09-01T08:51:32Z</time>
      </trkpt>
      <trkpt lat="37.663939" lon="-5.996770">
        <ele>332.330</ele>
        <time>2016-09-01T08:51:51Z</time>
      </trkpt>
      <trkpt lat="37.664375" lon="-5.996297">
        <ele>334.051</ele>
        <time>2016-09-01T08:52:06Z</time>
      </trkpt>
      <trkpt lat="37.664858" lon="-5.995756">
        <ele>336.750</ele>
        <time>2016-09-01T08:52:24Z</time>
      </trkpt>
      <trkpt lat="37.665286" lon="-5.995288">
        <ele>340.124</ele>
        <time>2016-09-01T08:52:43Z</time>
      </trkpt>
      <trkpt lat="37.665679" lon="-5.994862">
        <ele>342.827</ele>
        <time>2016-09-01T08:53:02Z</time>
      </trkpt>
      <trkpt lat="37.666036" lon="-5.994444">
        <ele>344.316</ele>
        <time>2016-09-01T08:53:21Z</time>
      </trkpt>
      <trkpt lat="37.666370" lon="-5.994036">
        <ele>344.395</ele>
        <time>2016-09-01T08:53:38Z</time>
      </trkpt>
      <trkpt lat="37.666637" lon="-5.993646">
        <ele>344.449</ele>
        <time>2016-09-01T08:53:53Z</time>
      </trkpt>
      <trkpt lat="37.666854" lon="-5.993187">
        <ele>344.402</ele>
        <time>2016-09-01T08:54:07Z</time>
      </trkpt>
      <trkpt lat="37.667008" lon="-5.992881">
        <ele>345.722</ele>
        <time>2016-09-01T08:54:17Z</time>
      </trkpt>
      <trkpt lat="37.667396" lon="-5.992293">
        <ele>347.608</ele>
        <time>2016-09-01T08:54:33Z</time>
      </trkpt>
      <trkpt lat="37.667589" lon="-5.991967">
        <ele>348.547</ele>
        <time>2016-09-01T08:54:41Z</time>
      </trkpt>
      <trkpt lat="37.667800" lon="-5.991620">
        <ele>349.048</ele>
        <time>2016-09-01T08:54:49Z</time>
      </trkpt>
      <trkpt lat="37.667979" lon="-5.991288">
        <ele>350.349</ele>
        <time>2016-09-01T08:54:56Z</time>
      </trkpt>
      <trkpt lat="37.668297" lon="-5.990889">
        <ele>351.068</ele>
        <time>2016-09-01T08:55:07Z</time>
      </trkpt>
      <trkpt lat="37.668319" lon="-5.990843">
        <ele>351.062</ele>
        <time>2016-09-01T08:55:08Z</time>
      </trkpt>
      <trkpt lat="37.668699" lon="-5.990176">
        <ele>349.555</ele>
        <time>2016-09-01T08:55:20Z</time>
      </trkpt>
      <trkpt lat="37.669035" lon="-5.989611">
        <ele>346.294</ele>
        <time>2016-09-01T08:55:27Z</time>
      </trkpt>
      <trkpt lat="37.669332" lon="-5.989156">
        <ele>342.883</ele>
        <time>2016-09-01T08:55:32Z</time>
      </trkpt>
      <trkpt lat="37.669822" lon="-5.988572">
        <ele>338.085</ele>
        <time>2016-09-01T08:55:40Z</time>
      </trkpt>
      <trkpt lat="37.669866" lon="-5.988522">
        <ele>337.889</ele>
        <time>2016-09-01T08:55:41Z</time>
      </trkpt>
      <trkpt lat="37.670007" lon="-5.988337">
        <ele>336.417</ele>
        <time>2016-09-01T08:55:49Z</time>
      </trkpt>
      <trkpt lat="37.670003" lon="-5.988335">
        <ele>336.408</ele>
        <time>2016-09-01T08:55:51Z</time>
      </trkpt>
      <trkpt lat="37.670061" lon="-5.988378">
        <ele>336.321</ele>
        <time>2016-09-01T08:56:00Z</time>
      </trkpt>
      <trkpt lat="37.670076" lon="-5.988409">
        <ele>336.092</ele>
        <time>2016-09-01T08:56:01Z</time>
      </trkpt>
      <trkpt lat="37.670087" lon="-5.988449">
        <ele>336.133</ele>
        <time>2016-09-01T08:56:02Z</time>
      </trkpt>
      <trkpt lat="37.670094" lon="-5.988492">
        <ele>336.112</ele>
        <time>2016-09-01T08:56:03Z</time>
      </trkpt>
      <trkpt lat="37.670301" lon="-5.988819">
        <ele>336.236</ele>
        <time>2016-09-01T08:56:14Z</time>
      </trkpt>
      <trkpt lat="37.670360" lon="-5.988918">
        <ele>336.389</ele>
        <time>2016-09-01T08:56:23Z</time>
      </trkpt>
      <trkpt lat="37.670396" lon="-5.989008">
        <ele>336.368</ele>
        <time>2016-09-01T08:56:29Z</time>
      </trkpt>
      <trkpt lat="37.670416" lon="-5.989072">
        <ele>336.317</ele>
        <time>2016-09-01T08:56:36Z</time>
      </trkpt>
      <trkpt lat="37.670318" lon="-5.989030">
        <ele>336.471</ele>
        <time>2016-09-01T08:57:02Z</time>
      </trkpt>
      <trkpt lat="37.670306" lon="-5.989019">
        <ele>336.441</ele>
        <time>2016-09-01T08:57:05Z</time>
      </trkpt>
      <trkpt lat="37.670432" lon="-5.989204">
        <ele>336.815</ele>
        <time>2016-09-01T08:57:39Z</time>
      </trkpt>
      <trkpt lat="37.670443" lon="-5.989254">
        <ele>336.908</ele>
        <time>2016-09-01T08:57:40Z</time>
      </trkpt>
      <trkpt lat="37.670453" lon="-5.989293">
        <ele>337.080</ele>
        <time>2016-09-01T08:57:41Z</time>
      </trkpt>
      <trkpt lat="37.670515" lon="-5.989578">
        <ele>338.981</ele>
        <time>2016-09-01T08:57:51Z</time>
      </trkpt>
      <trkpt lat="37.670606" lon="-5.990012">
        <ele>340.612</ele>
        <time>2016-09-01T08:58:06Z</time>
      </trkpt>
      <trkpt lat="37.670635" lon="-5.990351">
        <ele>342.031</ele>
        <time>2016-09-01T08:58:18Z</time>
      </trkpt>
      <trkpt lat="37.670691" lon="-5.990641">
        <ele>343.685</ele>
        <time>2016-09-01T08:58:32Z</time>
      </trkpt>
      <trkpt lat="37.670675" lon="-5.990648">
        <ele>343.718</ele>
        <time>2016-09-01T08:58:33Z</time>
      </trkpt>
      <trkpt lat="37.670382" lon="-5.990784">
        <ele>344.577</ele>
        <time>2016-09-01T08:58:48Z</time>
      </trkpt>
      <trkpt lat="37.670311" lon="-5.990809">
        <ele>344.746</ele>
        <time>2016-09-01T08:58:56Z</time>
      </trkpt>
      <trkpt lat="37.670287" lon="-5.990870">
        <ele>344.798</ele>
        <time>2016-09-01T08:59:14Z</time>
      </trkpt>
      <trkpt lat="37.670316" lon="-5.990830">
        <ele>344.715</ele>
        <time>2016-09-01T08:59:16Z</time>
      </trkpt>
      <trkpt lat="37.670336" lon="-5.990810">
        <ele>344.526</ele>
        <time>2016-09-01T08:59:17Z</time>
      </trkpt>
      <trkpt lat="37.670358" lon="-5.990792">
        <ele>344.508</ele>
        <time>2016-09-01T08:59:18Z</time>
      </trkpt>
      <trkpt lat="37.670382" lon="-5.990775">
        <ele>344.562</ele>
        <time>2016-09-01T08:59:19Z</time>
      </trkpt>
      <trkpt lat="37.670409" lon="-5.990761">
        <ele>344.423</ele>
        <time>2016-09-01T08:59:20Z</time>
      </trkpt>
      <trkpt lat="37.670440" lon="-5.990749">
        <ele>344.424</ele>
        <time>2016-09-01T08:59:21Z</time>
      </trkpt>
      <trkpt lat="37.670870" lon="-5.990698">
        <ele>344.643</ele>
        <time>2016-09-01T08:59:34Z</time>
      </trkpt>
      <trkpt lat="37.670986" lon="-5.990797">
        <ele>345.877</ele>
        <time>2016-09-01T08:59:42Z</time>
      </trkpt>
      <trkpt lat="37.671002" lon="-5.990805">
        <ele>345.990</ele>
        <time>2016-09-01T08:59:48Z</time>
      </trkpt>
      <trkpt lat="37.670916" lon="-5.990660">
        <ele>344.549</ele>
        <time>2016-09-01T09:22:13Z</time>
      </trkpt>
      <trkpt lat="37.670024" lon="-5.991122">
        <ele>345.958</ele>
        <time>2016-09-01T09:23:24Z</time>
      </trkpt>
      <trkpt lat="37.670101" lon="-5.991083">
        <ele>345.677</ele>
        <time>2016-09-01T09:23:26Z</time>
      </trkpt>
      <trkpt lat="37.670953" lon="-5.990650">
        <ele>344.561</ele>
        <time>2016-09-01T09:23:48Z</time>
      </trkpt>
      <trkpt lat="37.670890" lon="-5.990708">
        <ele>344.627</ele>
        <time>2016-09-01T09:24:13Z</time>
      </trkpt>
      <trkpt lat="37.670546" lon="-5.990786">
        <ele>344.808</ele>
        <time>2016-09-01T09:24:28Z</time>
      </trkpt>
      <trkpt lat="37.670363" lon="-5.990873">
        <ele>345.050</ele>
        <time>2016-09-01T09:24:40Z</time>
      </trkpt>
      <trkpt lat="37.670364" lon="-5.990873">
        <ele>345.011</ele>
        <time>2016-09-01T09:24:41Z</time>
      </trkpt>
      <trkpt lat="37.670276" lon="-5.990841">
        <ele>345.032</ele>
        <time>2016-09-01T09:25:07Z</time>
      </trkpt>
      <trkpt lat="37.670259" lon="-5.990842">
        <ele>345.021</ele>
        <time>2016-09-01T09:25:08Z</time>
      </trkpt>
      <trkpt lat="37.670241" lon="-5.990847">
        <ele>345.175</ele>
        <time>2016-09-01T09:25:12Z</time>
      </trkpt>
      <trkpt lat="37.670208" lon="-5.990869">
        <ele>345.178</ele>
        <time>2016-09-01T09:28:02Z</time>
      </trkpt>
      <trkpt lat="37.670502" lon="-5.990729">
        <ele>344.347</ele>
        <time>2016-09-01T09:28:13Z</time>
      </trkpt>
      <trkpt lat="37.670759" lon="-5.990672">
        <ele>344.256</ele>
        <time>2016-09-01T09:28:20Z</time>
      </trkpt>
      <trkpt lat="37.670798" lon="-5.990661">
        <ele>344.357</ele>
        <time>2016-09-01T09:28:21Z</time>
      </trkpt>
      <trkpt lat="37.670834" lon="-5.990649">
        <ele>344.400</ele>
        <time>2016-09-01T09:28:22Z</time>
      </trkpt>
      <trkpt lat="37.671359" lon="-5.990468">
        <ele>345.820</ele>
        <time>2016-09-01T09:28:35Z</time>
      </trkpt>
      <trkpt lat="37.671408" lon="-5.990465">
        <ele>346.008</ele>
        <time>2016-09-01T09:28:36Z</time>
      </trkpt>
      <trkpt lat="37.671572" lon="-5.990464">
        <ele>346.448</ele>
        <time>2016-09-01T09:28:39Z</time>
      </trkpt>
      <trkpt lat="37.671631" lon="-5.990474">
        <ele>346.589</ele>
        <time>2016-09-01T09:28:40Z</time>
      </trkpt>
      <trkpt lat="37.671686" lon="-5.990485">
        <ele>346.730</ele>
        <time>2016-09-01T09:28:41Z</time>
      </trkpt>
      <trkpt lat="37.671869" lon="-5.990496">
        <ele>347.169</ele>
        <time>2016-09-01T09:28:44Z</time>
      </trkpt>
      <trkpt lat="37.671932" lon="-5.990481">
        <ele>347.313</ele>
        <time>2016-09-01T09:28:45Z</time>
      </trkpt>
      <trkpt lat="37.672666" lon="-5.990132">
        <ele>341.436</ele>
        <time>2016-09-01T09:28:54Z</time>
      </trkpt>
      <trkpt lat="37.673201" lon="-5.989830">
        <ele>337.865</ele>
        <time>2016-09-01T09:29:00Z</time>
      </trkpt>
      <trkpt lat="37.673279" lon="-5.989791">
        <ele>337.494</ele>
        <time>2016-09-01T09:29:01Z</time>
      </trkpt>
      <trkpt lat="37.673608" lon="-5.989595">
        <ele>335.215</ele>
        <time>2016-09-01T09:29:06Z</time>
      </trkpt>
      <trkpt lat="37.673795" lon="-5.989485">
        <ele>333.765</ele>
        <time>2016-09-01T09:29:09Z</time>
      </trkpt>
      <trkpt lat="37.674232" lon="-5.989176">
        <ele>330.511</ele>
        <time>2016-09-01T09:29:17Z</time>
      </trkpt>
      <trkpt lat="37.674646" lon="-5.988857">
        <ele>328.008</ele>
        <time>2016-09-01T09:29:27Z</time>
      </trkpt>
      <trkpt lat="37.674866" lon="-5.988712">
        <ele>326.534</ele>
        <time>2016-09-01T09:29:37Z</time>
      </trkpt>
      <trkpt lat="37.674872" lon="-5.988703">
        <ele>326.535</ele>
        <time>2016-09-01T09:29:40Z</time>
      </trkpt>
      <trkpt lat="37.674797" lon="-5.988745">
        <ele>326.966</ele>
        <time>2016-09-01T09:29:48Z</time>
      </trkpt>
      <trkpt lat="37.674613" lon="-5.988898">
        <ele>327.685</ele>
        <time>2016-09-01T09:29:58Z</time>
      </trkpt>
      <trkpt lat="37.674440" lon="-5.988979">
        <ele>328.979</ele>
        <time>2016-09-01T09:30:05Z</time>
      </trkpt>
      <trkpt lat="37.674456" lon="-5.989075">
        <ele>329.082</ele>
        <time>2016-09-01T09:30:09Z</time>
      </trkpt>
      <trkpt lat="37.674663" lon="-5.989432">
        <ele>330.671</ele>
        <time>2016-09-01T09:30:24Z</time>
      </trkpt>
      <trkpt lat="37.674722" lon="-5.989513">
        <ele>330.610</ele>
        <time>2016-09-01T09:30:28Z</time>
      </trkpt>
      <trkpt lat="37.674837" lon="-5.989507">
        <ele>330.054</ele>
        <time>2016-09-01T09:30:34Z</time>
      </trkpt>
      <trkpt lat="37.675232" lon="-5.989237">
        <ele>328.056</ele>
        <time>2016-09-01T09:30:47Z</time>
      </trkpt>
      <trkpt lat="37.675514" lon="-5.989004">
        <ele>327.011</ele>
        <time>2016-09-01T09:30:54Z</time>
      </trkpt>
      <trkpt lat="37.675852" lon="-5.988709">
        <ele>325.308</ele>
        <time>2016-09-01T09:31:01Z</time>
      </trkpt>
      <trkpt lat="37.676203" lon="-5.988191">
        <ele>323.038</ele>
        <time>2016-09-01T09:31:12Z</time>
      </trkpt>
      <trkpt lat="37.676316" lon="-5.988042">
        <ele>321.489</ele>
        <time>2016-09-01T09:31:21Z</time>
      </trkpt>
      <trkpt lat="37.676410" lon="-5.987908">
        <ele>319.830</ele>
        <time>2016-09-01T09:31:26Z</time>
      </trkpt>
      <trkpt lat="37.676736" lon="-5.987805">
        <ele>317.879</ele>
        <time>2016-09-01T09:31:34Z</time>
      </trkpt>
      <trkpt lat="37.676795" lon="-5.987787">
        <ele>317.493</ele>
        <time>2016-09-01T09:31:35Z</time>
      </trkpt>
      <trkpt lat="37.676970" lon="-5.987733">
        <ele>315.466</ele>
        <time>2016-09-01T09:31:38Z</time>
      </trkpt>
      <trkpt lat="37.677459" lon="-5.987586">
        <ele>311.725</ele>
        <time>2016-09-01T09:31:45Z</time>
      </trkpt>
      <trkpt lat="37.677653" lon="-5.987389">
        <ele>310.184</ele>
        <time>2016-09-01T09:31:53Z</time>
      </trkpt>
      <trkpt lat="37.677672" lon="-5.987369">
        <ele>310.037</ele>
        <time>2016-09-01T09:31:54Z</time>
      </trkpt>
      <trkpt lat="37.677768" lon="-5.987352">
        <ele>309.749</ele>
        <time>2016-09-01T09:32:01Z</time>
      </trkpt>
      <trkpt lat="37.677786" lon="-5.987370">
        <ele>309.513</ele>
        <time>2016-09-01T09:32:58Z</time>
      </trkpt>
      <trkpt lat="37.677805" lon="-5.987389">
        <ele>309.208</ele>
        <time>2016-09-01T09:32:59Z</time>
      </trkpt>
      <trkpt lat="37.677796" lon="-5.987341">
        <ele>308.966</ele>
        <time>2016-09-01T09:33:28Z</time>
      </trkpt>
      <trkpt lat="37.677828" lon="-5.987359">
        <ele>308.757</ele>
        <time>2016-09-01T09:33:47Z</time>
      </trkpt>
      <trkpt lat="37.678046" lon="-5.987450">
        <ele>307.598</ele>
        <time>2016-09-01T09:33:54Z</time>
      </trkpt>
      <trkpt lat="37.678730" lon="-5.987171">
        <ele>303.147</ele>
        <time>2016-09-01T09:34:06Z</time>
      </trkpt>
      <trkpt lat="37.679346" lon="-5.986828">
        <ele>300.631</ele>
        <time>2016-09-01T09:34:16Z</time>
      </trkpt>
      <trkpt lat="37.679707" lon="-5.986619">
        <ele>301.114</ele>
        <time>2016-09-01T09:34:23Z</time>
      </trkpt>
      <trkpt lat="37.680065" lon="-5.986261">
        <ele>301.313</ele>
        <time>2016-09-01T09:34:33Z</time>
      </trkpt>
      <trkpt lat="37.680189" lon="-5.986288">
        <ele>300.992</ele>
        <time>2016-09-01T09:34:37Z</time>
      </trkpt>
      <trkpt lat="37.680269" lon="-5.986364">
        <ele>300.995</ele>
        <time>2016-09-01T09:34:40Z</time>
      </trkpt>
      <trkpt lat="37.680258" lon="-5.986388">
        <ele>300.949</ele>
        <time>2016-09-01T09:34:41Z</time>
      </trkpt>
      <trkpt lat="37.680217" lon="-5.986382">
        <ele>300.923</ele>
        <time>2016-09-01T09:34:43Z</time>
      </trkpt>
      <trkpt lat="37.680197" lon="-5.986365">
        <ele>300.808</ele>
        <time>2016-09-01T09:34:44Z</time>
      </trkpt>
      <trkpt lat="37.680179" lon="-5.986342">
        <ele>300.832</ele>
        <time>2016-09-01T09:34:45Z</time>
      </trkpt>
      <trkpt lat="37.680162" lon="-5.986316">
        <ele>300.843</ele>
        <time>2016-09-01T09:34:46Z</time>
      </trkpt>
      <trkpt lat="37.680140" lon="-5.986271">
        <ele>300.824</ele>
        <time>2016-09-01T09:34:48Z</time>
      </trkpt>
      <trkpt lat="37.680131" lon="-5.986241">
        <ele>300.893</ele>
        <time>2016-09-01T09:34:53Z</time>
      </trkpt>
      <trkpt lat="37.680078" lon="-5.986185">
        <ele>300.837</ele>
        <time>2016-09-01T09:35:34Z</time>
      </trkpt>
      <trkpt lat="37.680100" lon="-5.986194">
        <ele>300.850</ele>
        <time>2016-09-01T09:35:36Z</time>
      </trkpt>
      <trkpt lat="37.680137" lon="-5.986272">
        <ele>300.899</ele>
        <time>2016-09-01T09:35:40Z</time>
      </trkpt>
      <trkpt lat="37.680166" lon="-5.986295">
        <ele>300.818</ele>
        <time>2016-09-01T09:35:41Z</time>
      </trkpt>
      <trkpt lat="37.680202" lon="-5.986318">
        <ele>300.877</ele>
        <time>2016-09-01T09:35:42Z</time>
      </trkpt>
      <trkpt lat="37.680846" lon="-5.986641">
        <ele>298.561</ele>
        <time>2016-09-01T09:35:54Z</time>
      </trkpt>
      <trkpt lat="37.681558" lon="-5.986958">
        <ele>300.127</ele>
        <time>2016-09-01T09:36:06Z</time>
      </trkpt>
      <trkpt lat="37.682364" lon="-5.987436">
        <ele>299.508</ele>
        <time>2016-09-01T09:36:22Z</time>
      </trkpt>
      <trkpt lat="37.683373" lon="-5.988049">
        <ele>298.940</ele>
        <time>2016-09-01T09:36:41Z</time>
      </trkpt>
      <trkpt lat="37.683937" lon="-5.988029">
        <ele>300.841</ele>
        <time>2016-09-01T09:36:56Z</time>
      </trkpt>
      <trkpt lat="37.684473" lon="-5.987984">
        <ele>302.412</ele>
        <time>2016-09-01T09:37:12Z</time>
      </trkpt>
      <trkpt lat="37.684977" lon="-5.987990">
        <ele>303.931</ele>
        <time>2016-09-01T09:37:27Z</time>
      </trkpt>
      <trkpt lat="37.685518" lon="-5.988018">
        <ele>306.055</ele>
        <time>2016-09-01T09:37:46Z</time>
      </trkpt>
      <trkpt lat="37.686007" lon="-5.988032">
        <ele>308.658</ele>
        <time>2016-09-01T09:38:06Z</time>
      </trkpt>
      <trkpt lat="37.686481" lon="-5.988051">
        <ele>310.717</ele>
        <time>2016-09-01T09:38:24Z</time>
      </trkpt>
      <trkpt lat="37.686987" lon="-5.988080">
        <ele>313.996</ele>
        <time>2016-09-01T09:38:45Z</time>
      </trkpt>
      <trkpt lat="37.687434" lon="-5.988074">
        <ele>317.356</ele>
        <time>2016-09-01T09:39:04Z</time>
      </trkpt>
      <trkpt lat="37.687937" lon="-5.987979">
        <ele>320.859</ele>
        <time>2016-09-01T09:39:25Z</time>
      </trkpt>
      <trkpt lat="37.688325" lon="-5.987827">
        <ele>322.914</ele>
        <time>2016-09-01T09:39:42Z</time>
      </trkpt>
      <trkpt lat="37.688689" lon="-5.987657">
        <ele>324.708</ele>
        <time>2016-09-01T09:39:58Z</time>
      </trkpt>
      <trkpt lat="37.689148" lon="-5.987394">
        <ele>327.338</ele>
        <time>2016-09-01T09:40:17Z</time>
      </trkpt>
      <trkpt lat="37.689632" lon="-5.986989">
        <ele>328.839</ele>
        <time>2016-09-01T09:40:35Z</time>
      </trkpt>
      <trkpt lat="37.690420" lon="-5.986479">
        <ele>328.630</ele>
        <time>2016-09-01T09:40:55Z</time>
      </trkpt>
      <trkpt lat="37.691323" lon="-5.986134">
        <ele>328.159</ele>
        <time>2016-09-01T09:41:15Z</time>
      </trkpt>
      <trkpt lat="37.691687" lon="-5.986006">
        <ele>327.743</ele>
        <time>2016-09-01T09:41:22Z</time>
      </trkpt>
      <trkpt lat="37.691742" lon="-5.985990">
        <ele>327.626</ele>
        <time>2016-09-01T09:41:23Z</time>
      </trkpt>
      <trkpt lat="37.692591" lon="-5.985937">
        <ele>325.015</ele>
        <time>2016-09-01T09:41:36Z</time>
      </trkpt>
      <trkpt lat="37.693960" lon="-5.986107">
        <ele>321.884</ele>
        <time>2016-09-01T09:41:54Z</time>
      </trkpt>
      <trkpt lat="37.695058" lon="-5.986226">
        <ele>323.468</ele>
        <time>2016-09-01T09:42:10Z</time>
      </trkpt>
      <trkpt lat="37.695787" lon="-5.986299">
        <ele>325.442</ele>
        <time>2016-09-01T09:42:26Z</time>
      </trkpt>
      <trkpt lat="37.696520" lon="-5.986381">
        <ele>326.626</ele>
        <time>2016-09-01T09:42:43Z</time>
      </trkpt>
      <trkpt lat="37.697365" lon="-5.986752">
        <ele>326.708</ele>
        <time>2016-09-01T09:42:59Z</time>
      </trkpt>
      <trkpt lat="37.698052" lon="-5.987370">
        <ele>327.079</ele>
        <time>2016-09-01T09:43:17Z</time>
      </trkpt>
      <trkpt lat="37.698373" lon="-5.987692">
        <ele>328.890</ele>
        <time>2016-09-01T09:43:32Z</time>
      </trkpt>
      <trkpt lat="37.698674" lon="-5.988014">
        <ele>331.581</ele>
        <time>2016-09-01T09:43:49Z</time>
      </trkpt>
      <trkpt lat="37.699014" lon="-5.988473">
        <ele>333.030</ele>
        <time>2016-09-01T09:44:06Z</time>
      </trkpt>
      <trkpt lat="37.699186" lon="-5.988738">
        <ele>333.644</ele>
        <time>2016-09-01T09:44:13Z</time>
      </trkpt>
      <trkpt lat="37.699214" lon="-5.988776">
        <ele>333.897</ele>
        <time>2016-09-01T09:44:14Z</time>
      </trkpt>
      <trkpt lat="37.699730" lon="-5.989282">
        <ele>335.366</ele>
        <time>2016-09-01T09:44:29Z</time>
      </trkpt>
      <trkpt lat="37.700289" lon="-5.989738">
        <ele>337.955</ele>
        <time>2016-09-01T09:44:46Z</time>
      </trkpt>
      <trkpt lat="37.700767" lon="-5.990253">
        <ele>341.549</ele>
        <time>2016-09-01T09:45:04Z</time>
      </trkpt>
      <trkpt lat="37.701120" lon="-5.990664">
        <ele>344.402</ele>
        <time>2016-09-01T09:45:21Z</time>
      </trkpt>
      <trkpt lat="37.701482" lon="-5.991021">
        <ele>343.722</ele>
        <time>2016-09-01T09:45:37Z</time>
      </trkpt>
      <trkpt lat="37.702126" lon="-5.991488">
        <ele>341.308</ele>
        <time>2016-09-01T09:45:50Z</time>
      </trkpt>
      <trkpt lat="37.702945" lon="-5.992373">
        <ele>338.937</ele>
        <time>2016-09-01T09:46:04Z</time>
      </trkpt>
      <trkpt lat="37.703851" lon="-5.993510">
        <ele>333.988</ele>
        <time>2016-09-01T09:46:19Z</time>
      </trkpt>
      <trkpt lat="37.704656" lon="-5.994174">
        <ele>330.869</ele>
        <time>2016-09-01T09:46:31Z</time>
      </trkpt>
      <trkpt lat="37.705578" lon="-5.994963">
        <ele>329.558</ele>
        <time>2016-09-01T09:46:46Z</time>
      </trkpt>
      <trkpt lat="37.706364" lon="-5.995589">
        <ele>328.552</ele>
        <time>2016-09-01T09:46:55Z</time>
      </trkpt>
      <trkpt lat="37.706572" lon="-5.995716">
        <ele>327.665</ele>
        <time>2016-09-01T09:46:57Z</time>
      </trkpt>
      <trkpt lat="37.707001" lon="-5.995942">
        <ele>325.124</ele>
        <time>2016-09-01T09:47:01Z</time>
      </trkpt>
      <trkpt lat="37.707932" lon="-5.996178">
        <ele>320.093</ele>
        <time>2016-09-01T09:47:10Z</time>
      </trkpt>
      <trkpt lat="37.709151" lon="-5.996451">
        <ele>316.698</ele>
        <time>2016-09-01T09:47:23Z</time>
      </trkpt>
      <trkpt lat="37.709679" lon="-5.996747">
        <ele>315.415</ele>
        <time>2016-09-01T09:47:30Z</time>
      </trkpt>
      <trkpt lat="37.710731" lon="-5.997276">
        <ele>314.326</ele>
        <time>2016-09-01T09:47:45Z</time>
      </trkpt>
      <trkpt lat="37.711644" lon="-5.997474">
        <ele>314.408</ele>
        <time>2016-09-01T09:48:01Z</time>
      </trkpt>
      <trkpt lat="37.712396" lon="-5.997570">
        <ele>314.732</ele>
        <time>2016-09-01T09:48:19Z</time>
      </trkpt>
      <trkpt lat="37.712964" lon="-5.997648">
        <ele>315.523</ele>
        <time>2016-09-01T09:48:38Z</time>
      </trkpt>
      <trkpt lat="37.713539" lon="-5.997722">
        <ele>317.544</ele>
        <time>2016-09-01T09:48:55Z</time>
      </trkpt>
      <trkpt lat="37.714416" lon="-5.997964">
        <ele>319.293</ele>
        <time>2016-09-01T09:49:12Z</time>
      </trkpt>
      <trkpt lat="37.715013" lon="-5.998389">
        <ele>319.967</ele>
        <time>2016-09-01T09:49:29Z</time>
      </trkpt>
      <trkpt lat="37.715585" lon="-5.999093">
        <ele>319.140</ele>
        <time>2016-09-01T09:49:42Z</time>
      </trkpt>
      <trkpt lat="37.716151" lon="-6.000150">
        <ele>318.189</ele>
        <time>2016-09-01T09:49:58Z</time>
      </trkpt>
      <trkpt lat="37.716862" lon="-6.001026">
        <ele>321.018</ele>
        <time>2016-09-01T09:50:14Z</time>
      </trkpt>
      <trkpt lat="37.717174" lon="-6.001495">
        <ele>322.696</ele>
        <time>2016-09-01T09:50:27Z</time>
      </trkpt>
      <trkpt lat="37.717466" lon="-6.002059">
        <ele>320.931</ele>
        <time>2016-09-01T09:50:41Z</time>
      </trkpt>
      <trkpt lat="37.717854" lon="-6.003018">
        <ele>322.424</ele>
        <time>2016-09-01T09:50:55Z</time>
      </trkpt>
      <trkpt lat="37.718168" lon="-6.003602">
        <ele>323.908</ele>
        <time>2016-09-01T09:51:09Z</time>
      </trkpt>
      <trkpt lat="37.718556" lon="-6.004079">
        <ele>320.162</ele>
        <time>2016-09-01T09:51:23Z</time>
      </trkpt>
      <trkpt lat="37.719304" lon="-6.004623">
        <ele>315.683</ele>
        <time>2016-09-01T09:51:33Z</time>
      </trkpt>
      <trkpt lat="37.719846" lon="-6.005014">
        <ele>319.064</ele>
        <time>2016-09-01T09:51:40Z</time>
      </trkpt>
      <trkpt lat="37.720191" lon="-6.005404">
        <ele>323.473</ele>
        <time>2016-09-01T09:51:49Z</time>
      </trkpt>
      <trkpt lat="37.720384" lon="-6.005669">
        <ele>326.437</ele>
        <time>2016-09-01T09:52:00Z</time>
      </trkpt>
      <trkpt lat="37.720641" lon="-6.006027">
        <ele>329.970</ele>
        <time>2016-09-01T09:52:16Z</time>
      </trkpt>
      <trkpt lat="37.720853" lon="-6.006330">
        <ele>332.549</ele>
        <time>2016-09-01T09:52:30Z</time>
      </trkpt>
      <trkpt lat="37.721064" lon="-6.006539">
        <ele>334.128</ele>
        <time>2016-09-01T09:52:45Z</time>
      </trkpt>
      <trkpt lat="37.721283" lon="-6.006725">
        <ele>335.289</ele>
        <time>2016-09-01T09:52:59Z</time>
      </trkpt>
      <trkpt lat="37.721692" lon="-6.007084">
        <ele>338.206</ele>
        <time>2016-09-01T09:53:18Z</time>
      </trkpt>
      <trkpt lat="37.722059" lon="-6.007420">
        <ele>341.726</ele>
        <time>2016-09-01T09:53:37Z</time>
      </trkpt>
      <trkpt lat="37.722393" lon="-6.007707">
        <ele>344.008</ele>
        <time>2016-09-01T09:53:54Z</time>
      </trkpt>
      <trkpt lat="37.722920" lon="-6.008076">
        <ele>343.221</ele>
        <time>2016-09-01T09:54:15Z</time>
      </trkpt>
      <trkpt lat="37.723477" lon="-6.008447">
        <ele>335.812</ele>
        <time>2016-09-01T09:54:25Z</time>
      </trkpt>
      <trkpt lat="37.724078" lon="-6.008896">
        <ele>333.653</ele>
        <time>2016-09-01T09:54:32Z</time>
      </trkpt>
      <trkpt lat="37.724627" lon="-6.009426">
        <ele>338.172</ele>
        <time>2016-09-01T09:54:41Z</time>
      </trkpt>
      <trkpt lat="37.724966" lon="-6.009765">
        <ele>340.736</ele>
        <time>2016-09-01T09:54:53Z</time>
      </trkpt>
      <trkpt lat="37.725266" lon="-6.010060">
        <ele>342.129</ele>
        <time>2016-09-01T09:55:08Z</time>
      </trkpt>
      <trkpt lat="37.725582" lon="-6.010416">
        <ele>342.978</ele>
        <time>2016-09-01T09:55:25Z</time>
      </trkpt>
      <trkpt lat="37.725935" lon="-6.010831">
        <ele>343.517</ele>
        <time>2016-09-01T09:55:38Z</time>
      </trkpt>
      <trkpt lat="37.726373" lon="-6.011367">
        <ele>346.496</ele>
        <time>2016-09-01T09:55:54Z</time>
      </trkpt>
      <trkpt lat="37.726824" lon="-6.011927">
        <ele>351.431</ele>
        <time>2016-09-01T09:56:14Z</time>
      </trkpt>
      <trkpt lat="37.727094" lon="-6.012269">
        <ele>354.124</ele>
        <time>2016-09-01T09:56:30Z</time>
      </trkpt>
      <trkpt lat="37.727372" lon="-6.012597">
        <ele>356.708</ele>
        <time>2016-09-01T09:56:46Z</time>
      </trkpt>
      <trkpt lat="37.727687" lon="-6.012928">
        <ele>358.752</ele>
        <time>2016-09-01T09:57:03Z</time>
      </trkpt>
      <trkpt lat="37.728042" lon="-6.013251">
        <ele>360.853</ele>
        <time>2016-09-01T09:57:19Z</time>
      </trkpt>
      <trkpt lat="37.728506" lon="-6.013669">
        <ele>363.434</ele>
        <time>2016-09-01T09:57:40Z</time>
      </trkpt>
      <trkpt lat="37.728816" lon="-6.013950">
        <ele>363.513</ele>
        <time>2016-09-01T09:57:56Z</time>
      </trkpt>
      <trkpt lat="37.729209" lon="-6.014387">
        <ele>361.987</ele>
        <time>2016-09-01T09:58:10Z</time>
      </trkpt>
      <trkpt lat="37.729862" lon="-6.015095">
        <ele>364.480</ele>
        <time>2016-09-01T09:58:28Z</time>
      </trkpt>
      <trkpt lat="37.730386" lon="-6.015546">
        <ele>365.059</ele>
        <time>2016-09-01T09:58:46Z</time>
      </trkpt>
      <trkpt lat="37.730827" lon="-6.016199">
        <ele>364.348</ele>
        <time>2016-09-01T09:59:02Z</time>
      </trkpt>
      <trkpt lat="37.730977" lon="-6.016791">
        <ele>365.558</ele>
        <time>2016-09-01T09:59:12Z</time>
      </trkpt>
      <trkpt lat="37.731138" lon="-6.017468">
        <ele>368.952</ele>
        <time>2016-09-01T09:59:27Z</time>
      </trkpt>
      <trkpt lat="37.731326" lon="-6.018186">
        <ele>370.117</ele>
        <time>2016-09-01T09:59:47Z</time>
      </trkpt>
      <trkpt lat="37.731670" lon="-6.018949">
        <ele>365.708</ele>
        <time>2016-09-01T10:00:01Z</time>
      </trkpt>
      <trkpt lat="37.732360" lon="-6.019783">
        <ele>366.338</ele>
        <time>2016-09-01T10:00:14Z</time>
      </trkpt>
      <trkpt lat="37.732764" lon="-6.020078">
        <ele>369.019</ele>
        <time>2016-09-01T10:00:23Z</time>
      </trkpt>
      <trkpt lat="37.733146" lon="-6.020350">
        <ele>372.170</ele>
        <time>2016-09-01T10:00:37Z</time>
      </trkpt>
      <trkpt lat="37.733484" lon="-6.020590">
        <ele>374.829</ele>
        <time>2016-09-01T10:00:53Z</time>
      </trkpt>
      <trkpt lat="37.733916" lon="-6.020851">
        <ele>376.813</ele>
        <time>2016-09-01T10:01:11Z</time>
      </trkpt>
      <trkpt lat="37.734395" lon="-6.021079">
        <ele>376.426</ele>
        <time>2016-09-01T10:01:29Z</time>
      </trkpt>
      <trkpt lat="37.735089" lon="-6.021438">
        <ele>377.115</ele>
        <time>2016-09-01T10:01:46Z</time>
      </trkpt>
      <trkpt lat="37.735770" lon="-6.022043">
        <ele>380.614</ele>
        <time>2016-09-01T10:02:05Z</time>
      </trkpt>
      <trkpt lat="37.736012" lon="-6.022270">
        <ele>381.011</ele>
        <time>2016-09-01T10:02:20Z</time>
      </trkpt>
      <trkpt lat="37.736057" lon="-6.022304">
        <ele>380.921</ele>
        <time>2016-09-01T10:02:57Z</time>
      </trkpt>
      <trkpt lat="37.736281" lon="-6.022665">
        <ele>379.303</ele>
        <time>2016-09-01T10:03:08Z</time>
      </trkpt>
      <trkpt lat="37.736656" lon="-6.023541">
        <ele>377.208</ele>
        <time>2016-09-01T10:03:20Z</time>
      </trkpt>
      <trkpt lat="37.736882" lon="-6.024835">
        <ele>375.134</ele>
        <time>2016-09-01T10:03:33Z</time>
      </trkpt>
      <trkpt lat="37.736956" lon="-6.025386">
        <ele>371.715</ele>
        <time>2016-09-01T10:03:38Z</time>
      </trkpt>
      <trkpt lat="37.736989" lon="-6.025505">
        <ele>370.746</ele>
        <time>2016-09-01T10:03:39Z</time>
      </trkpt>
      <trkpt lat="37.737030" lon="-6.025627">
        <ele>369.695</ele>
        <time>2016-09-01T10:03:40Z</time>
      </trkpt>
      <trkpt lat="37.737499" lon="-6.026513">
        <ele>361.269</ele>
        <time>2016-09-01T10:03:47Z</time>
      </trkpt>
      <trkpt lat="37.737901" lon="-6.026954">
        <ele>361.812</ele>
        <time>2016-09-01T10:03:51Z</time>
      </trkpt>
      <trkpt lat="37.738334" lon="-6.027347">
        <ele>364.921</ele>
        <time>2016-09-01T10:03:55Z</time>
      </trkpt>
      <trkpt lat="37.738784" lon="-6.027733">
        <ele>366.530</ele>
        <time>2016-09-01T10:04:00Z</time>
      </trkpt>
      <trkpt lat="37.739226" lon="-6.028149">
        <ele>366.387</ele>
        <time>2016-09-01T10:04:09Z</time>
      </trkpt>
      <trkpt lat="37.739730" lon="-6.028720">
        <ele>363.042</ele>
        <time>2016-09-01T10:04:21Z</time>
      </trkpt>
      <trkpt lat="37.740577" lon="-6.029681">
        <ele>361.126</ele>
        <time>2016-09-01T10:04:33Z</time>
      </trkpt>
      <trkpt lat="37.741476" lon="-6.030678">
        <ele>349.608</ele>
        <time>2016-09-01T10:04:45Z</time>
      </trkpt>
      <trkpt lat="37.742070" lon="-6.031300">
        <ele>351.331</ele>
        <time>2016-09-01T10:04:51Z</time>
      </trkpt>
      <trkpt lat="37.742383" lon="-6.031554">
        <ele>352.632</ele>
        <time>2016-09-01T10:04:54Z</time>
      </trkpt>
      <trkpt lat="37.742931" lon="-6.031951">
        <ele>355.543</ele>
        <time>2016-09-01T10:05:02Z</time>
      </trkpt>
      <trkpt lat="37.743066" lon="-6.032059">
        <ele>356.332</ele>
        <time>2016-09-01T10:05:05Z</time>
      </trkpt>
      <trkpt lat="37.743668" lon="-6.032504">
        <ele>360.876</ele>
        <time>2016-09-01T10:05:22Z</time>
      </trkpt>
      <trkpt lat="37.744096" lon="-6.032967">
        <ele>363.339</ele>
        <time>2016-09-01T10:05:40Z</time>
      </trkpt>
      <trkpt lat="37.744421" lon="-6.033473">
        <ele>364.398</ele>
        <time>2016-09-01T10:06:00Z</time>
      </trkpt>
      <trkpt lat="37.744718" lon="-6.033931">
        <ele>364.577</ele>
        <time>2016-09-01T10:06:20Z</time>
      </trkpt>
      <trkpt lat="37.745039" lon="-6.034307">
        <ele>364.785</ele>
        <time>2016-09-01T10:06:35Z</time>
      </trkpt>
      <trkpt lat="37.745499" lon="-6.034711">
        <ele>364.689</ele>
        <time>2016-09-01T10:06:50Z</time>
      </trkpt>
      <trkpt lat="37.746131" lon="-6.035366">
        <ele>365.717</ele>
        <time>2016-09-01T10:07:07Z</time>
      </trkpt>
      <trkpt lat="37.746515" lon="-6.035951">
        <ele>366.908</ele>
        <time>2016-09-01T10:07:18Z</time>
      </trkpt>
      <trkpt lat="37.746547" lon="-6.036002">
        <ele>366.931</ele>
        <time>2016-09-01T10:07:19Z</time>
      </trkpt>
      <trkpt lat="37.746945" lon="-6.036583">
        <ele>366.012</ele>
        <time>2016-09-01T10:07:33Z</time>
      </trkpt>
      <trkpt lat="37.747207" lon="-6.036888">
        <ele>363.793</ele>
        <time>2016-09-01T10:07:42Z</time>
      </trkpt>
      <trkpt lat="37.747857" lon="-6.037311">
        <ele>361.072</ele>
        <time>2016-09-01T10:07:54Z</time>
      </trkpt>
      <trkpt lat="37.748753" lon="-6.038094">
        <ele>362.976</ele>
        <time>2016-09-01T10:08:08Z</time>
      </trkpt>
      <trkpt lat="37.749394" lon="-6.038852">
        <ele>362.639</ele>
        <time>2016-09-01T10:08:25Z</time>
      </trkpt>
      <trkpt lat="37.750169" lon="-6.039712">
        <ele>362.788</ele>
        <time>2016-09-01T10:08:44Z</time>
      </trkpt>
      <trkpt lat="37.750780" lon="-6.040421">
        <ele>365.617</ele>
        <time>2016-09-01T10:09:00Z</time>
      </trkpt>
      <trkpt lat="37.751139" lon="-6.041183">
        <ele>372.115</ele>
        <time>2016-09-01T10:09:17Z</time>
      </trkpt>
      <trkpt lat="37.751363" lon="-6.041857">
        <ele>377.065</ele>
        <time>2016-09-01T10:09:34Z</time>
      </trkpt>
      <trkpt lat="37.751529" lon="-6.042322">
        <ele>379.911</ele>
        <time>2016-09-01T10:09:50Z</time>
      </trkpt>
      <trkpt lat="37.751662" lon="-6.042625">
        <ele>381.408</ele>
        <time>2016-09-01T10:10:05Z</time>
      </trkpt>
      <trkpt lat="37.751823" lon="-6.042939">
        <ele>382.384</ele>
        <time>2016-09-01T10:10:22Z</time>
      </trkpt>
      <trkpt lat="37.752011" lon="-6.043277">
        <ele>382.465</ele>
        <time>2016-09-01T10:10:40Z</time>
      </trkpt>
      <trkpt lat="37.752218" lon="-6.043617">
        <ele>382.186</ele>
        <time>2016-09-01T10:10:58Z</time>
      </trkpt>
      <trkpt lat="37.752437" lon="-6.043977">
        <ele>381.545</ele>
        <time>2016-09-01T10:11:17Z</time>
      </trkpt>
      <trkpt lat="37.752654" lon="-6.044321">
        <ele>381.119</ele>
        <time>2016-09-01T10:11:32Z</time>
      </trkpt>
      <trkpt lat="37.752762" lon="-6.044487">
        <ele>381.232</ele>
        <time>2016-09-01T10:11:36Z</time>
      </trkpt>
      <trkpt lat="37.752792" lon="-6.044534">
        <ele>381.251</ele>
        <time>2016-09-01T10:11:37Z</time>
      </trkpt>
      <trkpt lat="37.753520" lon="-6.045466">
        <ele>386.770</ele>
        <time>2016-09-01T10:11:55Z</time>
      </trkpt>
      <trkpt lat="37.754028" lon="-6.045829">
        <ele>388.835</ele>
        <time>2016-09-01T10:12:08Z</time>
      </trkpt>
      <trkpt lat="37.754298" lon="-6.046010">
        <ele>391.586</ele>
        <time>2016-09-01T10:12:23Z</time>
      </trkpt>
      <trkpt lat="37.754569" lon="-6.046210">
        <ele>394.214</ele>
        <time>2016-09-01T10:12:38Z</time>
      </trkpt>
      <trkpt lat="37.754860" lon="-6.046501">
        <ele>397.408</ele>
        <time>2016-09-01T10:12:56Z</time>
      </trkpt>
      <trkpt lat="37.755118" lon="-6.046768">
        <ele>400.386</ele>
        <time>2016-09-01T10:13:13Z</time>
      </trkpt>
      <trkpt lat="37.755403" lon="-6.047062">
        <ele>402.787</ele>
        <time>2016-09-01T10:13:31Z</time>
      </trkpt>
      <trkpt lat="37.755681" lon="-6.047348">
        <ele>404.218</ele>
        <time>2016-09-01T10:13:46Z</time>
      </trkpt>
      <trkpt lat="37.755948" lon="-6.047619">
        <ele>405.757</ele>
        <time>2016-09-01T10:14:00Z</time>
      </trkpt>
      <trkpt lat="37.756168" lon="-6.047806">
        <ele>406.961</ele>
        <time>2016-09-01T10:14:15Z</time>
      </trkpt>
      <trkpt lat="37.756173" lon="-6.047806">
        <ele>406.934</ele>
        <time>2016-09-01T10:14:17Z</time>
      </trkpt>
      <trkpt lat="37.756222" lon="-6.047922">
        <ele>407.413</ele>
        <time>2016-09-01T10:18:02Z</time>
      </trkpt>
      <trkpt lat="37.756452" lon="-6.048178">
        <ele>408.412</ele>
        <time>2016-09-01T10:18:16Z</time>
      </trkpt>
      <trkpt lat="37.756814" lon="-6.048612">
        <ele>408.686</ele>
        <time>2016-09-01T10:18:29Z</time>
      </trkpt>
      <trkpt lat="37.757209" lon="-6.049154">
        <ele>410.360</ele>
        <time>2016-09-01T10:18:44Z</time>
      </trkpt>
      <trkpt lat="37.757463" lon="-6.049511">
        <ele>412.226</ele>
        <time>2016-09-01T10:19:00Z</time>
      </trkpt>
      <trkpt lat="37.757729" lon="-6.049934">
        <ele>412.408</ele>
        <time>2016-09-01T10:19:15Z</time>
      </trkpt>
      <trkpt lat="37.758109" lon="-6.050537">
        <ele>411.581</ele>
        <time>2016-09-01T10:19:24Z</time>
      </trkpt>
      <trkpt lat="37.758456" lon="-6.050925">
        <ele>413.562</ele>
        <time>2016-09-01T10:19:33Z</time>
      </trkpt>
      <trkpt lat="37.758718" lon="-6.051131">
        <ele>416.373</ele>
        <time>2016-09-01T10:19:48Z</time>
      </trkpt>
      <trkpt lat="37.758949" lon="-6.051317">
        <ele>418.852</ele>
        <time>2016-09-01T10:20:03Z</time>
      </trkpt>
      <trkpt lat="37.759183" lon="-6.051552">
        <ele>421.586</ele>
        <time>2016-09-01T10:20:20Z</time>
      </trkpt>
      <trkpt lat="37.759217" lon="-6.051591">
        <ele>421.989</ele>
        <time>2016-09-01T10:20:23Z</time>
      </trkpt>
      <trkpt lat="37.759387" lon="-6.051840">
        <ele>424.448</ele>
        <time>2016-09-01T10:20:38Z</time>
      </trkpt>
      <trkpt lat="37.759553" lon="-6.052112">
        <ele>427.067</ele>
        <time>2016-09-01T10:20:54Z</time>
      </trkpt>
      <trkpt lat="37.759728" lon="-6.052390">
        <ele>429.854</ele>
        <time>2016-09-01T10:21:11Z</time>
      </trkpt>
      <trkpt lat="37.759892" lon="-6.052651">
        <ele>432.656</ele>
        <time>2016-09-01T10:21:27Z</time>
      </trkpt>
      <trkpt lat="37.760063" lon="-6.052933">
        <ele>435.711</ele>
        <time>2016-09-01T10:21:44Z</time>
      </trkpt>
      <trkpt lat="37.760223" lon="-6.053252">
        <ele>438.908</ele>
        <time>2016-09-01T10:22:02Z</time>
      </trkpt>
      <trkpt lat="37.760376" lon="-6.053557">
        <ele>441.828</ele>
        <time>2016-09-01T10:22:19Z</time>
      </trkpt>
      <trkpt lat="37.760561" lon="-6.053826">
        <ele>444.759</ele>
        <time>2016-09-01T10:22:35Z</time>
      </trkpt>
      <trkpt lat="37.760756" lon="-6.054081">
        <ele>447.570</ele>
        <time>2016-09-01T10:22:51Z</time>
      </trkpt>
      <trkpt lat="37.760949" lon="-6.054347">
        <ele>450.129</ele>
        <time>2016-09-01T10:23:08Z</time>
      </trkpt>
      <trkpt lat="37.761160" lon="-6.054737">
        <ele>453.143</ele>
        <time>2016-09-01T10:23:28Z</time>
      </trkpt>
      <trkpt lat="37.761352" lon="-6.055151">
        <ele>455.836</ele>
        <time>2016-09-01T10:23:48Z</time>
      </trkpt>
      <trkpt lat="37.761554" lon="-6.055588">
        <ele>458.515</ele>
        <time>2016-09-01T10:24:08Z</time>
      </trkpt>
      <trkpt lat="37.761762" lon="-6.056068">
        <ele>461.364</ele>
        <time>2016-09-01T10:24:28Z</time>
      </trkpt>
      <trkpt lat="37.761959" lon="-6.056501">
        <ele>463.948</ele>
        <time>2016-09-01T10:24:46Z</time>
      </trkpt>
      <trkpt lat="37.762127" lon="-6.056880">
        <ele>466.661</ele>
        <time>2016-09-01T10:25:03Z</time>
      </trkpt>
      <trkpt lat="37.762297" lon="-6.057249">
        <ele>469.417</ele>
        <time>2016-09-01T10:25:21Z</time>
      </trkpt>
      <trkpt lat="37.762459" lon="-6.057568">
        <ele>471.908</ele>
        <time>2016-09-01T10:25:39Z</time>
      </trkpt>
      <trkpt lat="37.762628" lon="-6.057861">
        <ele>474.157</ele>
        <time>2016-09-01T10:25:55Z</time>
      </trkpt>
      <trkpt lat="37.762870" lon="-6.058247">
        <ele>476.728</ele>
        <time>2016-09-01T10:26:14Z</time>
      </trkpt>
      <trkpt lat="37.763086" lon="-6.058552">
        <ele>478.149</ele>
        <time>2016-09-01T10:26:28Z</time>
      </trkpt>
      <trkpt lat="37.763479" lon="-6.059105">
        <ele>479.568</ele>
        <time>2016-09-01T10:26:48Z</time>
      </trkpt>
      <trkpt lat="37.763806" lon="-6.059571">
        <ele>480.312</ele>
        <time>2016-09-01T10:27:05Z</time>
      </trkpt>
      <trkpt lat="37.764187" lon="-6.060102">
        <ele>482.645</ele>
        <time>2016-09-01T10:27:26Z</time>
      </trkpt>
      <trkpt lat="37.764475" lon="-6.060515">
        <ele>484.424</ele>
        <time>2016-09-01T10:27:43Z</time>
      </trkpt>
      <trkpt lat="37.764745" lon="-6.060889">
        <ele>486.223</ele>
        <time>2016-09-01T10:27:59Z</time>
      </trkpt>
      <trkpt lat="37.765080" lon="-6.061387">
        <ele>488.688</ele>
        <time>2016-09-01T10:28:18Z</time>
      </trkpt>
      <trkpt lat="37.765492" lon="-6.062060">
        <ele>487.824</ele>
        <time>2016-09-01T10:28:30Z</time>
      </trkpt>
      <trkpt lat="37.766137" lon="-6.063040">
        <ele>485.126</ele>
        <time>2016-09-01T10:28:43Z</time>
      </trkpt>
      <trkpt lat="37.766607" lon="-6.063547">
        <ele>485.608</ele>
        <time>2016-09-01T10:28:56Z</time>
      </trkpt>
      <trkpt lat="37.767024" lon="-6.063940">
        <ele>488.351</ele>
        <time>2016-09-01T10:29:14Z</time>
      </trkpt>
      <trkpt lat="37.767469" lon="-6.064558">
        <ele>491.092</ele>
        <time>2016-09-01T10:29:37Z</time>
      </trkpt>
      <trkpt lat="37.767865" lon="-6.065150">
        <ele>493.013</ele>
        <time>2016-09-01T10:29:56Z</time>
      </trkpt>
      <trkpt lat="37.768349" lon="-6.065749">
        <ele>494.442</ele>
        <time>2016-09-01T10:30:17Z</time>
      </trkpt>
      <trkpt lat="37.768762" lon="-6.066366">
        <ele>495.336</ele>
        <time>2016-09-01T10:30:35Z</time>
      </trkpt>
      <trkpt lat="37.769185" lon="-6.067018">
        <ele>497.189</ele>
        <time>2016-09-01T10:30:53Z</time>
      </trkpt>
      <trkpt lat="37.769618" lon="-6.067717">
        <ele>497.718</ele>
        <time>2016-09-01T10:31:11Z</time>
      </trkpt>
      <trkpt lat="37.769878" lon="-6.068323">
        <ele>499.017</ele>
        <time>2016-09-01T10:31:25Z</time>
      </trkpt>
      <trkpt lat="37.770065" lon="-6.069222">
        <ele>499.964</ele>
        <time>2016-09-01T10:31:44Z</time>
      </trkpt>
      <trkpt lat="37.770068" lon="-6.069327">
        <ele>500.206</ele>
        <time>2016-09-01T10:31:46Z</time>
      </trkpt>
      <trkpt lat="37.770075" lon="-6.069380">
        <ele>500.316</ele>
        <time>2016-09-01T10:31:47Z</time>
      </trkpt>
      <trkpt lat="37.770115" lon="-6.070256">
        <ele>500.908</ele>
        <time>2016-09-01T10:32:04Z</time>
      </trkpt>
      <trkpt lat="37.770186" lon="-6.071152">
        <ele>502.789</ele>
        <time>2016-09-01T10:32:22Z</time>
      </trkpt>
      <trkpt lat="37.770411" lon="-6.072211">
        <ele>502.620</ele>
        <time>2016-09-01T10:32:40Z</time>
      </trkpt>
      <trkpt lat="37.770443" lon="-6.072322">
        <ele>502.651</ele>
        <time>2016-09-01T10:32:42Z</time>
      </trkpt>
      <trkpt lat="37.770459" lon="-6.072375">
        <ele>502.640</ele>
        <time>2016-09-01T10:32:43Z</time>
      </trkpt>
      <trkpt lat="37.770863" lon="-6.073668">
        <ele>502.574</ele>
        <time>2016-09-01T10:33:08Z</time>
      </trkpt>
      <trkpt lat="37.771182" lon="-6.074379">
        <ele>504.417</ele>
        <time>2016-09-01T10:33:24Z</time>
      </trkpt>
      <trkpt lat="37.771767" lon="-6.075031">
        <ele>505.476</ele>
        <time>2016-09-01T10:33:41Z</time>
      </trkpt>
      <trkpt lat="37.772217" lon="-6.075426">
        <ele>506.115</ele>
        <time>2016-09-01T10:33:57Z</time>
      </trkpt>
      <trkpt lat="37.772542" lon="-6.075727">
        <ele>509.286</ele>
        <time>2016-09-01T10:34:16Z</time>
      </trkpt>
      <trkpt lat="37.772849" lon="-6.076075">
        <ele>512.360</ele>
        <time>2016-09-01T10:34:34Z</time>
      </trkpt>
      <trkpt lat="37.773097" lon="-6.076459">
        <ele>514.526</ele>
        <time>2016-09-01T10:34:49Z</time>
      </trkpt>
      <trkpt lat="37.773413" lon="-6.076940">
        <ele>516.208</ele>
        <time>2016-09-01T10:35:05Z</time>
      </trkpt>
      <trkpt lat="37.773714" lon="-6.077377">
        <ele>517.451</ele>
        <time>2016-09-01T10:35:18Z</time>
      </trkpt>
      <trkpt lat="37.773816" lon="-6.077499">
        <ele>517.792</ele>
        <time>2016-09-01T10:35:21Z</time>
      </trkpt>
      <trkpt lat="37.774450" lon="-6.078128">
        <ele>518.033</ele>
        <time>2016-09-01T10:35:35Z</time>
      </trkpt>
      <trkpt lat="37.775237" lon="-6.078871">
        <ele>516.742</ele>
        <time>2016-09-01T10:35:49Z</time>
      </trkpt>
      <trkpt lat="37.776171" lon="-6.079744">
        <ele>514.936</ele>
        <time>2016-09-01T10:36:03Z</time>
      </trkpt>
      <trkpt lat="37.777026" lon="-6.080613">
        <ele>512.239</ele>
        <time>2016-09-01T10:36:16Z</time>
      </trkpt>
      <trkpt lat="37.777375" lon="-6.081052">
        <ele>511.098</ele>
        <time>2016-09-01T10:36:21Z</time>
      </trkpt>
      <trkpt lat="37.777429" lon="-6.081159">
        <ele>510.677</ele>
        <time>2016-09-01T10:36:22Z</time>
      </trkpt>
      <trkpt lat="37.777813" lon="-6.082074">
        <ele>506.918</ele>
        <time>2016-09-01T10:36:30Z</time>
      </trkpt>
      <trkpt lat="37.778354" lon="-6.082999">
        <ele>503.098</ele>
        <time>2016-09-01T10:36:41Z</time>
      </trkpt>
      <trkpt lat="37.779145" lon="-6.083820">
        <ele>501.717</ele>
        <time>2016-09-01T10:36:56Z</time>
      </trkpt>
      <trkpt lat="37.779567" lon="-6.084221">
        <ele>501.708</ele>
        <time>2016-09-01T10:37:10Z</time>
      </trkpt>
      <trkpt lat="37.780067" lon="-6.084627">
        <ele>502.244</ele>
        <time>2016-09-01T10:37:27Z</time>
      </trkpt>
      <trkpt lat="37.780725" lon="-6.085087">
        <ele>504.655</ele>
        <time>2016-09-01T10:37:45Z</time>
      </trkpt>
      <trkpt lat="37.781350" lon="-6.085573">
        <ele>506.156</ele>
        <time>2016-09-01T10:38:03Z</time>
      </trkpt>
      <trkpt lat="37.781834" lon="-6.086002">
        <ele>507.075</ele>
        <time>2016-09-01T10:38:20Z</time>
      </trkpt>
      <trkpt lat="37.782328" lon="-6.086323">
        <ele>507.989</ele>
        <time>2016-09-01T10:38:38Z</time>
      </trkpt>
      <trkpt lat="37.782420" lon="-6.086324">
        <ele>507.932</ele>
        <time>2016-09-01T10:38:47Z</time>
      </trkpt>
      <trkpt lat="37.782497" lon="-6.086306">
        <ele>507.871</ele>
        <time>2016-09-01T10:42:41Z</time>
      </trkpt>
      <trkpt lat="37.782671" lon="-6.086208">
        <ele>507.860</ele>
        <time>2016-09-01T10:42:52Z</time>
      </trkpt>
      <trkpt lat="37.783000" lon="-6.085990">
        <ele>507.771</ele>
        <time>2016-09-01T10:43:05Z</time>
      </trkpt>
      <trkpt lat="37.783410" lon="-6.085699">
        <ele>507.541</ele>
        <time>2016-09-01T10:43:18Z</time>
      </trkpt>
      <trkpt lat="37.783621" lon="-6.085510">
        <ele>507.215</ele>
        <time>2016-09-01T10:43:30Z</time>
      </trkpt>
      <trkpt lat="37.783658" lon="-6.085449">
        <ele>507.108</ele>
        <time>2016-09-01T10:43:52Z</time>
      </trkpt>
      <trkpt lat="37.783902" lon="-6.085175">
        <ele>505.950</ele>
        <time>2016-09-01T10:44:01Z</time>
      </trkpt>
      <trkpt lat="37.783936" lon="-6.085137">
        <ele>505.851</ele>
        <time>2016-09-01T10:44:02Z</time>
      </trkpt>
      <trkpt lat="37.784483" lon="-6.084538">
        <ele>505.152</ele>
        <time>2016-09-01T10:44:16Z</time>
      </trkpt>
      <trkpt lat="37.785335" lon="-6.083575">
        <ele>502.961</ele>
        <time>2016-09-01T10:44:36Z</time>
      </trkpt>
      <trkpt lat="37.785977" lon="-6.082607">
        <ele>498.445</ele>
        <time>2016-09-01T10:44:54Z</time>
      </trkpt>
      <trkpt lat="37.786077" lon="-6.082396">
        <ele>497.428</ele>
        <time>2016-09-01T10:44:58Z</time>
      </trkpt>
      <trkpt lat="37.786409" lon="-6.081438">
        <ele>493.537</ele>
        <time>2016-09-01T10:45:10Z</time>
      </trkpt>
      <trkpt lat="37.786731" lon="-6.080562">
        <ele>489.236</ele>
        <time>2016-09-01T10:45:19Z</time>
      </trkpt>
      <trkpt lat="37.786992" lon="-6.079851">
        <ele>486.982</ele>
        <time>2016-09-01T10:45:26Z</time>
      </trkpt>
      <trkpt lat="37.787321" lon="-6.079045">
        <ele>483.743</ele>
        <time>2016-09-01T10:45:35Z</time>
      </trkpt>
      <trkpt lat="37.787371" lon="-6.078973">
        <ele>483.317</ele>
        <time>2016-09-01T10:45:36Z</time>
      </trkpt>
      <trkpt lat="37.787424" lon="-6.078906">
        <ele>482.908</ele>
        <time>2016-09-01T10:45:37Z</time>
      </trkpt>
      <trkpt lat="37.787483" lon="-6.078842">
        <ele>482.531</ele>
        <time>2016-09-01T10:45:38Z</time>
      </trkpt>
      <trkpt lat="37.787544" lon="-6.078780">
        <ele>481.942</ele>
        <time>2016-09-01T10:45:39Z</time>
      </trkpt>
      <trkpt lat="37.787987" lon="-6.078364">
        <ele>478.233</ele>
        <time>2016-09-01T10:45:46Z</time>
      </trkpt>
      <trkpt lat="37.788381" lon="-6.078004">
        <ele>475.092</ele>
        <time>2016-09-01T10:45:52Z</time>
      </trkpt>
      <trkpt lat="37.788839" lon="-6.077572">
        <ele>471.986</ele>
        <time>2016-09-01T10:45:59Z</time>
      </trkpt>
      <trkpt lat="37.789296" lon="-6.077163">
        <ele>468.499</ele>
        <time>2016-09-01T10:46:06Z</time>
      </trkpt>
      <trkpt lat="37.789626" lon="-6.076864">
        <ele>467.238</ele>
        <time>2016-09-01T10:46:12Z</time>
      </trkpt>
      <trkpt lat="37.789823" lon="-6.076677">
        <ele>466.447</ele>
        <time>2016-09-01T10:46:16Z</time>
      </trkpt>
      <trkpt lat="37.789912" lon="-6.076568">
        <ele>465.594</ele>
        <time>2016-09-01T10:46:18Z</time>
      </trkpt>
      <trkpt lat="37.789951" lon="-6.076504">
        <ele>465.057</ele>
        <time>2016-09-01T10:46:19Z</time>
      </trkpt>
      <trkpt lat="37.789986" lon="-6.076433">
        <ele>464.622</ele>
        <time>2016-09-01T10:46:20Z</time>
      </trkpt>
      <trkpt lat="37.790276" lon="-6.075523">
        <ele>460.108</ele>
        <time>2016-09-01T10:46:31Z</time>
      </trkpt>
      <trkpt lat="37.790369" lon="-6.075226">
        <ele>458.222</ele>
        <time>2016-09-01T10:46:36Z</time>
      </trkpt>
      <trkpt lat="37.790392" lon="-6.075181">
        <ele>457.773</ele>
        <time>2016-09-01T10:46:37Z</time>
      </trkpt>
      <trkpt lat="37.790419" lon="-6.075141">
        <ele>457.224</ele>
        <time>2016-09-01T10:46:38Z</time>
      </trkpt>
      <trkpt lat="37.790455" lon="-6.075101">
        <ele>456.673</ele>
        <time>2016-09-01T10:46:39Z</time>
      </trkpt>
      <trkpt lat="37.790496" lon="-6.075065">
        <ele>456.037</ele>
        <time>2016-09-01T10:46:40Z</time>
      </trkpt>
      <trkpt lat="37.790544" lon="-6.075043">
        <ele>455.420</ele>
        <time>2016-09-01T10:46:41Z</time>
      </trkpt>
      <trkpt lat="37.790600" lon="-6.075025">
        <ele>454.719</ele>
        <time>2016-09-01T10:46:42Z</time>
      </trkpt>
      <trkpt lat="37.790663" lon="-6.075012">
        <ele>454.138</ele>
        <time>2016-09-01T10:46:43Z</time>
      </trkpt>
      <trkpt lat="37.790729" lon="-6.075010">
        <ele>453.536</ele>
        <time>2016-09-01T10:46:44Z</time>
      </trkpt>
      <trkpt lat="37.790796" lon="-6.075020">
        <ele>453.017</ele>
        <time>2016-09-01T10:46:45Z</time>
      </trkpt>
      <trkpt lat="37.790862" lon="-6.075044">
        <ele>452.518</ele>
        <time>2016-09-01T10:46:46Z</time>
      </trkpt>
      <trkpt lat="37.790922" lon="-6.075081">
        <ele>452.108</ele>
        <time>2016-09-01T10:46:47Z</time>
      </trkpt>
      <trkpt lat="37.790976" lon="-6.075129">
        <ele>451.856</ele>
        <time>2016-09-01T10:46:48Z</time>
      </trkpt>
      <trkpt lat="37.791017" lon="-6.075177">
        <ele>451.697</ele>
        <time>2016-09-01T10:46:49Z</time>
      </trkpt>
      <trkpt lat="37.791044" lon="-6.075222">
        <ele>451.558</ele>
        <time>2016-09-01T10:46:50Z</time>
      </trkpt>
      <trkpt lat="37.791067" lon="-6.075264">
        <ele>451.387</ele>
        <time>2016-09-01T10:46:51Z</time>
      </trkpt>
      <trkpt lat="37.791094" lon="-6.075304">
        <ele>451.171</ele>
        <time>2016-09-01T10:46:52Z</time>
      </trkpt>
      <trkpt lat="37.791123" lon="-6.075346">
        <ele>450.934</ele>
        <time>2016-09-01T10:46:53Z</time>
      </trkpt>
      <trkpt lat="37.791152" lon="-6.075393">
        <ele>450.783</ele>
        <time>2016-09-01T10:46:54Z</time>
      </trkpt>
      <trkpt lat="37.791343" lon="-6.075745">
        <ele>449.672</ele>
        <time>2016-09-01T10:47:00Z</time>
      </trkpt>
      <trkpt lat="37.791569" lon="-6.076122">
        <ele>448.083</ele>
        <time>2016-09-01T10:47:06Z</time>
      </trkpt>
      <trkpt lat="37.791602" lon="-6.076169">
        <ele>447.725</ele>
        <time>2016-09-01T10:47:07Z</time>
      </trkpt>
      <trkpt lat="37.791705" lon="-6.076285">
        <ele>446.917</ele>
        <time>2016-09-01T10:47:10Z</time>
      </trkpt>
      <trkpt lat="37.791749" lon="-6.076315">
        <ele>446.608</ele>
        <time>2016-09-01T10:47:11Z</time>
      </trkpt>
      <trkpt lat="37.791796" lon="-6.076332">
        <ele>446.311</ele>
        <time>2016-09-01T10:47:12Z</time>
      </trkpt>
      <trkpt lat="37.791844" lon="-6.076339">
        <ele>446.142</ele>
        <time>2016-09-01T10:47:13Z</time>
      </trkpt>
      <trkpt lat="37.791897" lon="-6.076339">
        <ele>445.813</ele>
        <time>2016-09-01T10:47:14Z</time>
      </trkpt>
      <trkpt lat="37.792599" lon="-6.076367">
        <ele>440.872</ele>
        <time>2016-09-01T10:47:25Z</time>
      </trkpt>
      <trkpt lat="37.792710" lon="-6.076374">
        <ele>439.646</ele>
        <time>2016-09-01T10:47:27Z</time>
      </trkpt>
      <trkpt lat="37.792990" lon="-6.076387">
        <ele>436.829</ele>
        <time>2016-09-01T10:47:32Z</time>
      </trkpt>
      <trkpt lat="37.793205" lon="-6.076424">
        <ele>434.248</ele>
        <time>2016-09-01T10:47:36Z</time>
      </trkpt>
      <trkpt lat="37.793261" lon="-6.076447">
        <ele>433.537</ele>
        <time>2016-09-01T10:47:37Z</time>
      </trkpt>
      <trkpt lat="37.793319" lon="-6.076479">
        <ele>432.629</ele>
        <time>2016-09-01T10:47:38Z</time>
      </trkpt>
      <trkpt lat="37.793377" lon="-6.076520">
        <ele>431.900</ele>
        <time>2016-09-01T10:47:39Z</time>
      </trkpt>
      <trkpt lat="37.793437" lon="-6.076568">
        <ele>431.220</ele>
        <time>2016-09-01T10:47:40Z</time>
      </trkpt>
      <trkpt lat="37.793770" lon="-6.076870">
        <ele>427.408</ele>
        <time>2016-09-01T10:47:46Z</time>
      </trkpt>
      <trkpt lat="37.794102" lon="-6.077233">
        <ele>423.045</ele>
        <time>2016-09-01T10:47:52Z</time>
      </trkpt>
      <trkpt lat="37.794325" lon="-6.077558">
        <ele>420.116</ele>
        <time>2016-09-01T10:47:57Z</time>
      </trkpt>
      <trkpt lat="37.794563" lon="-6.077914">
        <ele>416.837</ele>
        <time>2016-09-01T10:48:02Z</time>
      </trkpt>
      <trkpt lat="37.794765" lon="-6.078206">
        <ele>413.846</ele>
        <time>2016-09-01T10:48:07Z</time>
      </trkpt>
      <trkpt lat="37.794804" lon="-6.078250">
        <ele>413.430</ele>
        <time>2016-09-01T10:48:08Z</time>
      </trkpt>
      <trkpt lat="37.794847" lon="-6.078288">
        <ele>413.073</ele>
        <time>2016-09-01T10:48:09Z</time>
      </trkpt>
      <trkpt lat="37.794893" lon="-6.078314">
        <ele>412.622</ele>
        <time>2016-09-01T10:48:10Z</time>
      </trkpt>
      <trkpt lat="37.794942" lon="-6.078324">
        <ele>412.241</ele>
        <time>2016-09-01T10:48:11Z</time>
      </trkpt>
      <trkpt lat="37.794995" lon="-6.078323">
        <ele>411.721</ele>
        <time>2016-09-01T10:48:12Z</time>
      </trkpt>
      <trkpt lat="37.795052" lon="-6.078317">
        <ele>411.141</ele>
        <time>2016-09-01T10:48:13Z</time>
      </trkpt>
      <trkpt lat="37.795558" lon="-6.078228">
        <ele>407.305</ele>
        <time>2016-09-01T10:48:20Z</time>
      </trkpt>
      <trkpt lat="37.796107" lon="-6.078138">
        <ele>403.408</ele>
        <time>2016-09-01T10:48:26Z</time>
      </trkpt>
      <trkpt lat="37.796199" lon="-6.078120">
        <ele>402.995</ele>
        <time>2016-09-01T10:48:27Z</time>
      </trkpt>
      <trkpt lat="37.796284" lon="-6.078089">
        <ele>402.656</ele>
        <time>2016-09-01T10:48:28Z</time>
      </trkpt>
      <trkpt lat="37.796358" lon="-6.078051">
        <ele>402.747</ele>
        <time>2016-09-01T10:48:29Z</time>
      </trkpt>
      <trkpt lat="37.796771" lon="-6.077774">
        <ele>404.036</ele>
        <time>2016-09-01T10:48:38Z</time>
      </trkpt>
      <trkpt lat="37.796843" lon="-6.077727">
        <ele>404.060</ele>
        <time>2016-09-01T10:48:40Z</time>
      </trkpt>
      <trkpt lat="37.797010" lon="-6.077643">
        <ele>403.993</ele>
        <time>2016-09-01T10:48:44Z</time>
      </trkpt>
      <trkpt lat="37.797058" lon="-6.077628">
        <ele>403.972</ele>
        <time>2016-09-01T10:48:45Z</time>
      </trkpt>
      <trkpt lat="37.797108" lon="-6.077617">
        <ele>403.861</ele>
        <time>2016-09-01T10:48:46Z</time>
      </trkpt>
      <trkpt lat="37.797401" lon="-6.077542">
        <ele>403.116</ele>
        <time>2016-09-01T10:48:51Z</time>
      </trkpt>
      <trkpt lat="37.797460" lon="-6.077512">
        <ele>402.976</ele>
        <time>2016-09-01T10:48:52Z</time>
      </trkpt>
      <trkpt lat="37.797790" lon="-6.077279">
        <ele>401.713</ele>
        <time>2016-09-01T10:48:58Z</time>
      </trkpt>
      <trkpt lat="37.797842" lon="-6.077229">
        <ele>401.608</ele>
        <time>2016-09-01T10:48:59Z</time>
      </trkpt>
      <trkpt lat="37.797889" lon="-6.077171">
        <ele>401.394</ele>
        <time>2016-09-01T10:49:00Z</time>
      </trkpt>
      <trkpt lat="37.797928" lon="-6.077106">
        <ele>401.115</ele>
        <time>2016-09-01T10:49:01Z</time>
      </trkpt>
      <trkpt lat="37.797960" lon="-6.077038">
        <ele>400.966</ele>
        <time>2016-09-01T10:49:02Z</time>
      </trkpt>
      <trkpt lat="37.797986" lon="-6.076971">
        <ele>400.775</ele>
        <time>2016-09-01T10:49:03Z</time>
      </trkpt>
      <trkpt lat="37.798117" lon="-6.076614">
        <ele>400.329</ele>
        <time>2016-09-01T10:49:09Z</time>
      </trkpt>
      <trkpt lat="37.798458" lon="-6.076041">
        <ele>399.032</ele>
        <time>2016-09-01T10:49:18Z</time>
      </trkpt>
      <trkpt lat="37.798516" lon="-6.075983">
        <ele>398.641</ele>
        <time>2016-09-01T10:49:19Z</time>
      </trkpt>
      <trkpt lat="37.799172" lon="-6.075426">
        <ele>395.630</ele>
        <time>2016-09-01T10:49:29Z</time>
      </trkpt>
      <trkpt lat="37.799497" lon="-6.075144">
        <ele>396.829</ele>
        <time>2016-09-01T10:49:34Z</time>
      </trkpt>
      <trkpt lat="37.799856" lon="-6.074801">
        <ele>398.000</ele>
        <time>2016-09-01T10:49:40Z</time>
      </trkpt>
      <trkpt lat="37.799893" lon="-6.074747">
        <ele>398.020</ele>
        <time>2016-09-01T10:49:41Z</time>
      </trkpt>
      <trkpt lat="37.799923" lon="-6.074693">
        <ele>398.108</ele>
        <time>2016-09-01T10:49:42Z</time>
      </trkpt>
      <trkpt lat="37.800102" lon="-6.074216">
        <ele>398.545</ele>
        <time>2016-09-01T10:49:54Z</time>
      </trkpt>
      <trkpt lat="37.800306" lon="-6.073717">
        <ele>399.726</ele>
        <time>2016-09-01T10:50:07Z</time>
      </trkpt>
      <trkpt lat="37.800301" lon="-6.073715">
        <ele>399.747</ele>
        <time>2016-09-01T10:50:11Z</time>
      </trkpt>
      <trkpt lat="37.800325" lon="-6.073699">
        <ele>399.866</ele>
        <time>2016-09-01T10:50:43Z</time>
      </trkpt>
      <trkpt lat="37.800554" lon="-6.073347">
        <ele>401.530</ele>
        <time>2016-09-01T10:50:54Z</time>
      </trkpt>
      <trkpt lat="37.800996" lon="-6.072726">
        <ele>404.643</ele>
        <time>2016-09-01T10:51:10Z</time>
      </trkpt>
      <trkpt lat="37.801367" lon="-6.072447">
        <ele>406.222</ele>
        <time>2016-09-01T10:51:25Z</time>
      </trkpt>
      <trkpt lat="37.801685" lon="-6.072499">
        <ele>407.271</ele>
        <time>2016-09-01T10:51:40Z</time>
      </trkpt>
      <trkpt lat="37.801927" lon="-6.072818">
        <ele>407.959</ele>
        <time>2016-09-01T10:51:54Z</time>
      </trkpt>
      <trkpt lat="37.802137" lon="-6.073231">
        <ele>408.203</ele>
        <time>2016-09-01T10:52:09Z</time>
      </trkpt>
      <trkpt lat="37.802213" lon="-6.073296">
        <ele>408.523</ele>
        <time>2016-09-01T10:52:20Z</time>
      </trkpt>
      <trkpt lat="37.802215" lon="-6.073356">
        <ele>408.608</ele>
        <time>2016-09-01T10:53:07Z</time>
      </trkpt>
      <trkpt lat="37.802242" lon="-6.073423">
        <ele>408.758</ele>
        <time>2016-09-01T10:53:10Z</time>
      </trkpt>
      <trkpt lat="37.802253" lon="-6.073448">
        <ele>408.789</ele>
        <time>2016-09-01T10:53:11Z</time>
      </trkpt>
      <trkpt lat="37.802467" lon="-6.073947">
        <ele>406.880</ele>
        <time>2016-09-01T10:53:21Z</time>
      </trkpt>
      <trkpt lat="37.802990" lon="-6.074843">
        <ele>402.819</ele>
        <time>2016-09-01T10:53:32Z</time>
      </trkpt>
      <trkpt lat="37.803458" lon="-6.075496">
        <ele>400.323</ele>
        <time>2016-09-01T10:53:40Z</time>
      </trkpt>
      <trkpt lat="37.804228" lon="-6.076199">
        <ele>396.866</ele>
        <time>2016-09-01T10:53:53Z</time>
      </trkpt>
      <trkpt lat="37.805263" lon="-6.076637">
        <ele>393.145</ele>
        <time>2016-09-01T10:54:07Z</time>
      </trkpt>
      <trkpt lat="37.805430" lon="-6.076683">
        <ele>392.244</ele>
        <time>2016-09-01T10:54:09Z</time>
      </trkpt>
      <trkpt lat="37.806125" lon="-6.076675">
        <ele>389.754</ele>
        <time>2016-09-01T10:54:18Z</time>
      </trkpt>
      <trkpt lat="37.806200" lon="-6.076697">
        <ele>389.356</ele>
        <time>2016-09-01T10:54:19Z</time>
      </trkpt>
      <trkpt lat="37.806275" lon="-6.076733">
        <ele>388.911</ele>
        <time>2016-09-01T10:54:20Z</time>
      </trkpt>
      <trkpt lat="37.806349" lon="-6.076780">
        <ele>388.408</ele>
        <time>2016-09-01T10:54:21Z</time>
      </trkpt>
      <trkpt lat="37.806421" lon="-6.076835">
        <ele>387.928</ele>
        <time>2016-09-01T10:54:22Z</time>
      </trkpt>
      <trkpt lat="37.806491" lon="-6.076895">
        <ele>387.319</ele>
        <time>2016-09-01T10:54:23Z</time>
      </trkpt>
      <trkpt lat="37.807065" lon="-6.077434">
        <ele>383.950</ele>
        <time>2016-09-01T10:54:31Z</time>
      </trkpt>
      <trkpt lat="37.807130" lon="-6.077518">
        <ele>383.389</ele>
        <time>2016-09-01T10:54:32Z</time>
      </trkpt>
      <trkpt lat="37.807188" lon="-6.077608">
        <ele>382.743</ele>
        <time>2016-09-01T10:54:33Z</time>
      </trkpt>
      <trkpt lat="37.807398" lon="-6.078010">
        <ele>380.716</ele>
        <time>2016-09-01T10:54:38Z</time>
      </trkpt>
      <trkpt lat="37.807441" lon="-6.078068">
        <ele>380.445</ele>
        <time>2016-09-01T10:54:39Z</time>
      </trkpt>
      <trkpt lat="37.807487" lon="-6.078114">
        <ele>380.224</ele>
        <time>2016-09-01T10:54:40Z</time>
      </trkpt>
      <trkpt lat="37.807536" lon="-6.078145">
        <ele>380.013</ele>
        <time>2016-09-01T10:54:41Z</time>
      </trkpt>
      <trkpt lat="37.807594" lon="-6.078153">
        <ele>379.643</ele>
        <time>2016-09-01T10:54:42Z</time>
      </trkpt>
      <trkpt lat="37.807655" lon="-6.078138">
        <ele>379.307</ele>
        <time>2016-09-01T10:54:43Z</time>
      </trkpt>
      <trkpt lat="37.807714" lon="-6.078107">
        <ele>378.808</ele>
        <time>2016-09-01T10:54:44Z</time>
      </trkpt>
      <trkpt lat="37.807772" lon="-6.078061">
        <ele>378.334</ele>
        <time>2016-09-01T10:54:45Z</time>
      </trkpt>
      <trkpt lat="37.807831" lon="-6.078002">
        <ele>377.755</ele>
        <time>2016-09-01T10:54:46Z</time>
      </trkpt>
      <trkpt lat="37.807888" lon="-6.077933">
        <ele>377.256</ele>
        <time>2016-09-01T10:54:47Z</time>
      </trkpt>
      <trkpt lat="37.807947" lon="-6.077858">
        <ele>376.565</ele>
        <time>2016-09-01T10:54:48Z</time>
      </trkpt>
      <trkpt lat="37.808149" lon="-6.077632">
        <ele>374.619</ele>
        <time>2016-09-01T10:54:51Z</time>
      </trkpt>
      <trkpt lat="37.808225" lon="-6.077570">
        <ele>374.072</ele>
        <time>2016-09-01T10:54:52Z</time>
      </trkpt>
      <trkpt lat="37.808303" lon="-6.077521">
        <ele>373.351</ele>
        <time>2016-09-01T10:54:53Z</time>
      </trkpt>
      <trkpt lat="37.808456" lon="-6.077425">
        <ele>372.140</ele>
        <time>2016-09-01T10:54:55Z</time>
      </trkpt>
      <trkpt lat="37.808794" lon="-6.077157">
        <ele>369.895</ele>
        <time>2016-09-01T10:55:02Z</time>
      </trkpt>
      <trkpt lat="37.808790" lon="-6.077158">
        <ele>369.849</ele>
        <time>2016-09-01T10:55:05Z</time>
      </trkpt>
      <trkpt lat="37.808820" lon="-6.077122">
        <ele>369.523</ele>
        <time>2016-09-01T10:55:32Z</time>
      </trkpt>
      <trkpt lat="37.809212" lon="-6.076719">
        <ele>366.208</ele>
        <time>2016-09-01T10:55:42Z</time>
      </trkpt>
      <trkpt lat="37.809761" lon="-6.075780">
        <ele>359.222</ele>
        <time>2016-09-01T10:55:53Z</time>
      </trkpt>
      <trkpt lat="37.810162" lon="-6.075055">
        <ele>355.733</ele>
        <time>2016-09-01T10:56:01Z</time>
      </trkpt>
      <trkpt lat="37.810616" lon="-6.074331">
        <ele>353.784</ele>
        <time>2016-09-01T10:56:12Z</time>
      </trkpt>
      <trkpt lat="37.810983" lon="-6.073856">
        <ele>355.573</ele>
        <time>2016-09-01T10:56:24Z</time>
      </trkpt>
      <trkpt lat="37.811473" lon="-6.073504">
        <ele>358.967</ele>
        <time>2016-09-01T10:56:35Z</time>
      </trkpt>
      <trkpt lat="37.811979" lon="-6.073384">
        <ele>359.040</ele>
        <time>2016-09-01T10:56:51Z</time>
      </trkpt>
      <trkpt lat="37.812410" lon="-6.073327">
        <ele>358.189</ele>
        <time>2016-09-01T10:57:04Z</time>
      </trkpt>
      <trkpt lat="37.812992" lon="-6.072940">
        <ele>357.378</ele>
        <time>2016-09-01T10:57:18Z</time>
      </trkpt>
      <trkpt lat="37.813566" lon="-6.072588">
        <ele>359.818</ele>
        <time>2016-09-01T10:57:29Z</time>
      </trkpt>
      <trkpt lat="37.813617" lon="-6.072562">
        <ele>360.098</ele>
        <time>2016-09-01T10:57:30Z</time>
      </trkpt>
      <trkpt lat="37.813663" lon="-6.072528">
        <ele>360.217</ele>
        <time>2016-09-01T10:57:31Z</time>
      </trkpt>
      <trkpt lat="37.813700" lon="-6.072479">
        <ele>360.408</ele>
        <time>2016-09-01T10:57:32Z</time>
      </trkpt>
      <trkpt lat="37.813732" lon="-6.072425">
        <ele>360.674</ele>
        <time>2016-09-01T10:57:33Z</time>
      </trkpt>
      <trkpt lat="37.813765" lon="-6.072378">
        <ele>360.775</ele>
        <time>2016-09-01T10:57:34Z</time>
      </trkpt>
      <trkpt lat="37.813807" lon="-6.072339">
        <ele>360.916</ele>
        <time>2016-09-01T10:57:35Z</time>
      </trkpt>
      <trkpt lat="37.813854" lon="-6.072315">
        <ele>361.195</ele>
        <time>2016-09-01T10:57:36Z</time>
      </trkpt>
      <trkpt lat="37.813993" lon="-6.072279">
        <ele>361.579</ele>
        <time>2016-09-01T10:57:39Z</time>
      </trkpt>
      <trkpt lat="37.814450" lon="-6.072292">
        <ele>362.562</ele>
        <time>2016-09-01T10:57:53Z</time>
      </trkpt>
      <trkpt lat="37.814817" lon="-6.072391">
        <ele>363.131</ele>
        <time>2016-09-01T10:58:09Z</time>
      </trkpt>
      <trkpt lat="37.815290" lon="-6.072385">
        <ele>363.720</ele>
        <time>2016-09-01T10:58:26Z</time>
      </trkpt>
      <trkpt lat="37.815723" lon="-6.072222">
        <ele>364.089</ele>
        <time>2016-09-01T10:58:42Z</time>
      </trkpt>
      <trkpt lat="37.816241" lon="-6.071991">
        <ele>363.906</ele>
        <time>2016-09-01T10:58:58Z</time>
      </trkpt>
      <trkpt lat="37.816853" lon="-6.071671">
        <ele>363.426</ele>
        <time>2016-09-01T10:59:16Z</time>
      </trkpt>
      <trkpt lat="37.817417" lon="-6.071302">
        <ele>364.008</ele>
        <time>2016-09-01T10:59:30Z</time>
      </trkpt>
      <trkpt lat="37.817468" lon="-6.071289">
        <ele>364.081</ele>
        <time>2016-09-01T10:59:31Z</time>
      </trkpt>
      <trkpt lat="37.817517" lon="-6.071286">
        <ele>364.122</ele>
        <time>2016-09-01T10:59:32Z</time>
      </trkpt>
      <trkpt lat="37.818171" lon="-6.071356">
        <ele>364.623</ele>
        <time>2016-09-01T10:59:48Z</time>
      </trkpt>
      <trkpt lat="37.818897" lon="-6.071357">
        <ele>364.692</ele>
        <time>2016-09-01T11:00:06Z</time>
      </trkpt>
      <trkpt lat="37.819578" lon="-6.071635">
        <ele>363.536</ele>
        <time>2016-09-01T11:00:22Z</time>
      </trkpt>
      <trkpt lat="37.819809" lon="-6.071704">
        <ele>363.319</ele>
        <time>2016-09-01T11:00:27Z</time>
      </trkpt>
      <trkpt lat="37.819852" lon="-6.071706">
        <ele>363.238</ele>
        <time>2016-09-01T11:00:28Z</time>
      </trkpt>
      <trkpt lat="37.819893" lon="-6.071703">
        <ele>363.437</ele>
        <time>2016-09-01T11:00:29Z</time>
      </trkpt>
      <trkpt lat="37.819931" lon="-6.071690">
        <ele>363.569</ele>
        <time>2016-09-01T11:00:30Z</time>
      </trkpt>
      <trkpt lat="37.819969" lon="-6.071672">
        <ele>363.604</ele>
        <time>2016-09-01T11:00:31Z</time>
      </trkpt>
      <trkpt lat="37.820498" lon="-6.071357">
        <ele>364.224</ele>
        <time>2016-09-01T11:00:45Z</time>
      </trkpt>
      <trkpt lat="37.821281" lon="-6.070881">
        <ele>365.308</ele>
        <time>2016-09-01T11:01:05Z</time>
      </trkpt>
      <trkpt lat="37.821753" lon="-6.070550">
        <ele>365.669</ele>
        <time>2016-09-01T11:01:19Z</time>
      </trkpt>
      <trkpt lat="37.821758" lon="-6.070558">
        <ele>365.620</ele>
        <time>2016-09-01T11:01:20Z</time>
      </trkpt>
      <trkpt lat="37.821687" lon="-6.070622">
        <ele>365.571</ele>
        <time>2016-09-01T11:01:25Z</time>
      </trkpt>
      <trkpt lat="37.821685" lon="-6.070649">
        <ele>365.540</ele>
        <time>2016-09-01T11:01:26Z</time>
      </trkpt>
      <trkpt lat="37.821775" lon="-6.070814">
        <ele>365.434</ele>
        <time>2016-09-01T11:01:30Z</time>
      </trkpt>
      <trkpt lat="37.821960" lon="-6.071052">
        <ele>365.547</ele>
        <time>2016-09-01T11:01:35Z</time>
      </trkpt>
      <trkpt lat="37.822001" lon="-6.071086">
        <ele>365.546</ele>
        <time>2016-09-01T11:01:36Z</time>
      </trkpt>
      <trkpt lat="37.822045" lon="-6.071104">
        <ele>365.665</ele>
        <time>2016-09-01T11:01:37Z</time>
      </trkpt>
      <trkpt lat="37.822092" lon="-6.071110">
        <ele>365.766</ele>
        <time>2016-09-01T11:01:38Z</time>
      </trkpt>
      <trkpt lat="37.822138" lon="-6.071114">
        <ele>365.829</ele>
        <time>2016-09-01T11:01:39Z</time>
      </trkpt>
      <trkpt lat="37.822644" lon="-6.071216">
        <ele>369.821</ele>
        <time>2016-09-01T11:01:53Z</time>
      </trkpt>
      <trkpt lat="37.822990" lon="-6.071430">
        <ele>372.708</ele>
        <time>2016-09-01T11:02:09Z</time>
      </trkpt>
      <trkpt lat="37.823244" lon="-6.071728">
        <ele>375.449</ele>
        <time>2016-09-01T11:02:25Z</time>
      </trkpt>
      <trkpt lat="37.823465" lon="-6.072194">
        <ele>376.850</ele>
        <time>2016-09-01T11:02:43Z</time>
      </trkpt>
      <trkpt lat="37.823870" lon="-6.072428">
        <ele>378.651</ele>
        <time>2016-09-01T11:02:58Z</time>
      </trkpt>
      <trkpt lat="37.824268" lon="-6.072368">
        <ele>382.480</ele>
        <time>2016-09-01T11:03:15Z</time>
      </trkpt>
      <trkpt lat="37.824520" lon="-6.072303">
        <ele>383.874</ele>
        <time>2016-09-01T11:03:28Z</time>
      </trkpt>
      <trkpt lat="37.824973" lon="-6.072103">
        <ele>383.967</ele>
        <time>2016-09-01T11:03:44Z</time>
      </trkpt>
      <trkpt lat="37.825056" lon="-6.072089">
        <ele>383.986</ele>
        <time>2016-09-01T11:03:46Z</time>
      </trkpt>
      <trkpt lat="37.825098" lon="-6.072091">
        <ele>383.955</ele>
        <time>2016-09-01T11:03:47Z</time>
      </trkpt>
      <trkpt lat="37.825140" lon="-6.072099">
        <ele>383.939</ele>
        <time>2016-09-01T11:03:48Z</time>
      </trkpt>
      <trkpt lat="37.825180" lon="-6.072112">
        <ele>383.901</ele>
        <time>2016-09-01T11:03:49Z</time>
      </trkpt>
      <trkpt lat="37.825220" lon="-6.072125">
        <ele>383.921</ele>
        <time>2016-09-01T11:03:50Z</time>
      </trkpt>
      <trkpt lat="37.825563" lon="-6.072296">
        <ele>383.908</ele>
        <time>2016-09-01T11:03:59Z</time>
      </trkpt>
      <trkpt lat="37.825606" lon="-6.072310">
        <ele>383.996</ele>
        <time>2016-09-01T11:04:00Z</time>
      </trkpt>
      <trkpt lat="37.825735" lon="-6.072364">
        <ele>383.997</ele>
        <time>2016-09-01T11:04:03Z</time>
      </trkpt>
      <trkpt lat="37.825776" lon="-6.072386">
        <ele>383.938</ele>
        <time>2016-09-01T11:04:04Z</time>
      </trkpt>
      <trkpt lat="37.825817" lon="-6.072401">
        <ele>383.917</ele>
        <time>2016-09-01T11:04:05Z</time>
      </trkpt>
      <trkpt lat="37.825859" lon="-6.072411">
        <ele>383.931</ele>
        <time>2016-09-01T11:04:06Z</time>
      </trkpt>
      <trkpt lat="37.825901" lon="-6.072418">
        <ele>383.944</ele>
        <time>2016-09-01T11:04:07Z</time>
      </trkpt>
      <trkpt lat="37.826671" lon="-6.072650">
        <ele>385.273</ele>
        <time>2016-09-01T11:04:26Z</time>
      </trkpt>
      <trkpt lat="37.827138" lon="-6.072848">
        <ele>384.222</ele>
        <time>2016-09-01T11:04:41Z</time>
      </trkpt>
      <trkpt lat="37.827877" lon="-6.073214">
        <ele>383.734</ele>
        <time>2016-09-01T11:04:54Z</time>
      </trkpt>
      <trkpt lat="37.828757" lon="-6.073468">
        <ele>386.755</ele>
        <time>2016-09-01T11:06:37Z</time>
      </trkpt>
      <trkpt lat="37.828749" lon="-6.073467">
        <ele>386.710</ele>
        <time>2016-09-01T11:06:38Z</time>
      </trkpt>
      <trkpt lat="37.828520" lon="-6.073449">
        <ele>386.908</ele>
        <time>2016-09-01T11:07:07Z</time>
      </trkpt>
      <trkpt lat="37.828517" lon="-6.073446">
        <ele>386.946</ele>
        <time>2016-09-01T11:07:10Z</time>
      </trkpt>
      <trkpt lat="37.828525" lon="-6.073446">
        <ele>386.987</ele>
        <time>2016-09-01T11:07:13Z</time>
      </trkpt>
      <trkpt lat="37.828849" lon="-6.073657">
        <ele>389.358</ele>
        <time>2016-09-01T11:07:26Z</time>
      </trkpt>
      <trkpt lat="37.829226" lon="-6.073859">
        <ele>391.187</ele>
        <time>2016-09-01T11:07:40Z</time>
      </trkpt>
      <trkpt lat="37.829685" lon="-6.073948">
        <ele>391.141</ele>
        <time>2016-09-01T11:07:56Z</time>
      </trkpt>
      <trkpt lat="37.830277" lon="-6.073920">
        <ele>391.164</ele>
        <time>2016-09-01T11:08:11Z</time>
      </trkpt>
      <trkpt lat="37.830882" lon="-6.073935">
        <ele>391.033</ele>
        <time>2016-09-01T11:08:28Z</time>
      </trkpt>
      <trkpt lat="37.831662" lon="-6.073951">
        <ele>391.932</ele>
        <time>2016-09-01T11:08:42Z</time>
      </trkpt>
      <trkpt lat="37.832317" lon="-6.074052">
        <ele>394.375</ele>
        <time>2016-09-01T11:08:57Z</time>
      </trkpt>
      <trkpt lat="37.832762" lon="-6.074122">
        <ele>396.428</ele>
        <time>2016-09-01T11:09:11Z</time>
      </trkpt>
      <trkpt lat="37.833080" lon="-6.074126">
        <ele>399.220</ele>
        <time>2016-09-01T11:09:22Z</time>
      </trkpt>
      <trkpt lat="37.833466" lon="-6.074032">
        <ele>403.708</ele>
        <time>2016-09-01T11:09:40Z</time>
      </trkpt>
      <trkpt lat="37.833542" lon="-6.073983">
        <ele>404.510</ele>
        <time>2016-09-01T11:09:45Z</time>
      </trkpt>
      <trkpt lat="37.833557" lon="-6.073971">
        <ele>404.791</ele>
        <time>2016-09-01T11:09:46Z</time>
      </trkpt>
      <trkpt lat="37.833634" lon="-6.073915">
        <ele>405.522</ele>
        <time>2016-09-01T11:09:51Z</time>
      </trkpt>
      <trkpt lat="37.833651" lon="-6.073901">
        <ele>405.721</ele>
        <time>2016-09-01T11:09:52Z</time>
      </trkpt>
      <trkpt lat="37.833670" lon="-6.073889">
        <ele>405.985</ele>
        <time>2016-09-01T11:09:53Z</time>
      </trkpt>
      <trkpt lat="37.833690" lon="-6.073880">
        <ele>406.018</ele>
        <time>2016-09-01T11:09:54Z</time>
      </trkpt>
      <trkpt lat="37.833709" lon="-6.073870">
        <ele>406.277</ele>
        <time>2016-09-01T11:09:55Z</time>
      </trkpt>
      <trkpt lat="37.834008" lon="-6.073880">
        <ele>407.746</ele>
        <time>2016-09-01T11:10:10Z</time>
      </trkpt>
      <trkpt lat="37.834315" lon="-6.073815">
        <ele>407.347</ele>
        <time>2016-09-01T11:10:26Z</time>
      </trkpt>
      <trkpt lat="37.834705" lon="-6.073802">
        <ele>405.129</ele>
        <time>2016-09-01T11:10:36Z</time>
      </trkpt>
      <trkpt lat="37.834983" lon="-6.073829">
        <ele>404.121</ele>
        <time>2016-09-01T11:10:40Z</time>
      </trkpt>
      <trkpt lat="37.835051" lon="-6.073849">
        <ele>403.508</ele>
        <time>2016-09-01T11:10:41Z</time>
      </trkpt>
      <trkpt lat="37.835113" lon="-6.073875">
        <ele>402.727</ele>
        <time>2016-09-01T11:10:42Z</time>
      </trkpt>
      <trkpt lat="37.835170" lon="-6.073909">
        <ele>401.828</ele>
        <time>2016-09-01T11:10:43Z</time>
      </trkpt>
      <trkpt lat="37.835227" lon="-6.073951">
        <ele>400.979</ele>
        <time>2016-09-01T11:10:44Z</time>
      </trkpt>
      <trkpt lat="37.835762" lon="-6.074576">
        <ele>397.938</ele>
        <time>2016-09-01T11:10:53Z</time>
      </trkpt>
      <trkpt lat="37.835838" lon="-6.074648">
        <ele>397.752</ele>
        <time>2016-09-01T11:10:54Z</time>
      </trkpt>
      <trkpt lat="37.835909" lon="-6.074718">
        <ele>397.325</ele>
        <time>2016-09-01T11:10:55Z</time>
      </trkpt>
      <trkpt lat="37.835973" lon="-6.074788">
        <ele>396.944</ele>
        <time>2016-09-01T11:10:56Z</time>
      </trkpt>
      <trkpt lat="37.836025" lon="-6.074860">
        <ele>396.613</ele>
        <time>2016-09-01T11:10:57Z</time>
      </trkpt>
      <trkpt lat="37.836069" lon="-6.074936">
        <ele>396.269</ele>
        <time>2016-09-01T11:10:58Z</time>
      </trkpt>
      <trkpt lat="37.836320" lon="-6.075342">
        <ele>393.904</ele>
        <time>2016-09-01T11:11:03Z</time>
      </trkpt>
      <trkpt lat="37.836388" lon="-6.075421">
        <ele>393.624</ele>
        <time>2016-09-01T11:11:04Z</time>
      </trkpt>
      <trkpt lat="37.836463" lon="-6.075491">
        <ele>393.508</ele>
        <time>2016-09-01T11:11:05Z</time>
      </trkpt>
      <trkpt lat="37.836543" lon="-6.075550">
        <ele>393.519</ele>
        <time>2016-09-01T11:11:06Z</time>
      </trkpt>
      <trkpt lat="37.836626" lon="-6.075601">
        <ele>393.560</ele>
        <time>2016-09-01T11:11:07Z</time>
      </trkpt>
      <trkpt lat="37.836709" lon="-6.075642">
        <ele>393.411</ele>
        <time>2016-09-01T11:11:08Z</time>
      </trkpt>
      <trkpt lat="37.836792" lon="-6.075670">
        <ele>393.430</ele>
        <time>2016-09-01T11:11:09Z</time>
      </trkpt>
      <trkpt lat="37.836869" lon="-6.075687">
        <ele>393.444</ele>
        <time>2016-09-01T11:11:10Z</time>
      </trkpt>
      <trkpt lat="37.836941" lon="-6.075695">
        <ele>393.477</ele>
        <time>2016-09-01T11:11:11Z</time>
      </trkpt>
      <trkpt lat="37.837009" lon="-6.075693">
        <ele>393.426</ele>
        <time>2016-09-01T11:11:12Z</time>
      </trkpt>
      <trkpt lat="37.837073" lon="-6.075675">
        <ele>393.435</ele>
        <time>2016-09-01T11:11:13Z</time>
      </trkpt>
      <trkpt lat="37.837128" lon="-6.075641">
        <ele>393.436</ele>
        <time>2016-09-01T11:11:14Z</time>
      </trkpt>
      <trkpt lat="37.837176" lon="-6.075591">
        <ele>393.417</ele>
        <time>2016-09-01T11:11:15Z</time>
      </trkpt>
      <trkpt lat="37.837219" lon="-6.075533">
        <ele>393.418</ele>
        <time>2016-09-01T11:11:16Z</time>
      </trkpt>
      <trkpt lat="37.837262" lon="-6.075471">
        <ele>393.408</ele>
        <time>2016-09-01T11:11:17Z</time>
      </trkpt>
      <trkpt lat="37.837538" lon="-6.075044">
        <ele>393.496</ele>
        <time>2016-09-01T11:11:24Z</time>
      </trkpt>
      <trkpt lat="37.837585" lon="-6.075002">
        <ele>393.487</ele>
        <time>2016-09-01T11:11:25Z</time>
      </trkpt>
      <trkpt lat="37.837634" lon="-6.074969">
        <ele>393.468</ele>
        <time>2016-09-01T11:11:26Z</time>
      </trkpt>
      <trkpt lat="37.837685" lon="-6.074947">
        <ele>393.437</ele>
        <time>2016-09-01T11:11:27Z</time>
      </trkpt>
      <trkpt lat="37.837732" lon="-6.074929">
        <ele>393.491</ele>
        <time>2016-09-01T11:11:28Z</time>
      </trkpt>
      <trkpt lat="37.837993" lon="-6.074865">
        <ele>393.814</ele>
        <time>2016-09-01T11:11:38Z</time>
      </trkpt>
      <trkpt lat="37.838302" lon="-6.074907">
        <ele>395.643</ele>
        <time>2016-09-01T11:11:52Z</time>
      </trkpt>
      <trkpt lat="37.838675" lon="-6.075056">
        <ele>398.062</ele>
        <time>2016-09-01T11:12:08Z</time>
      </trkpt>
      <trkpt lat="37.838981" lon="-6.075173">
        <ele>401.185</ele>
        <time>2016-09-01T11:12:24Z</time>
      </trkpt>
      <trkpt lat="37.839277" lon="-6.075310">
        <ele>404.089</ele>
        <time>2016-09-01T11:12:40Z</time>
      </trkpt>
      <trkpt lat="37.839482" lon="-6.075418">
        <ele>405.717</ele>
        <time>2016-09-01T11:12:52Z</time>
      </trkpt>
      <trkpt lat="37.839755" lon="-6.075593">
        <ele>407.108</ele>
        <time>2016-09-01T11:13:05Z</time>
      </trkpt>
      <trkpt lat="37.840173" lon="-6.075692">
        <ele>408.791</ele>
        <time>2016-09-01T11:13:21Z</time>
      </trkpt>
      <trkpt lat="37.840553" lon="-6.075665">
        <ele>409.792</ele>
        <time>2016-09-01T11:13:35Z</time>
      </trkpt>
      <trkpt lat="37.841138" lon="-6.076115">
        <ele>409.693</ele>
        <time>2016-09-01T11:13:51Z</time>
      </trkpt>
      <trkpt lat="37.841272" lon="-6.076215">
        <ele>409.572</ele>
        <time>2016-09-01T11:13:54Z</time>
      </trkpt>
      <trkpt lat="37.841319" lon="-6.076245">
        <ele>409.546</ele>
        <time>2016-09-01T11:13:55Z</time>
      </trkpt>
      <trkpt lat="37.841365" lon="-6.076274">
        <ele>409.439</ele>
        <time>2016-09-01T11:13:56Z</time>
      </trkpt>
      <trkpt lat="37.841503" lon="-6.076351">
        <ele>409.388</ele>
        <time>2016-09-01T11:13:59Z</time>
      </trkpt>
      <trkpt lat="37.841552" lon="-6.076370">
        <ele>409.397</ele>
        <time>2016-09-01T11:14:00Z</time>
      </trkpt>
      <trkpt lat="37.841603" lon="-6.076383">
        <ele>409.379</ele>
        <time>2016-09-01T11:14:01Z</time>
      </trkpt>
      <trkpt lat="37.841654" lon="-6.076394">
        <ele>409.405</ele>
        <time>2016-09-01T11:14:02Z</time>
      </trkpt>
      <trkpt lat="37.841701" lon="-6.076395">
        <ele>409.525</ele>
        <time>2016-09-01T11:14:03Z</time>
      </trkpt>
      <trkpt lat="37.841746" lon="-6.076391">
        <ele>409.608</ele>
        <time>2016-09-01T11:14:04Z</time>
      </trkpt>
      <trkpt lat="37.841789" lon="-6.076382">
        <ele>409.730</ele>
        <time>2016-09-01T11:14:05Z</time>
      </trkpt>
      <trkpt lat="37.842106" lon="-6.076252">
        <ele>410.911</ele>
        <time>2016-09-01T11:14:17Z</time>
      </trkpt>
      <trkpt lat="37.842460" lon="-6.076121">
        <ele>412.782</ele>
        <time>2016-09-01T11:14:31Z</time>
      </trkpt>
      <trkpt lat="37.842936" lon="-6.076232">
        <ele>413.721</ele>
        <time>2016-09-01T11:14:44Z</time>
      </trkpt>
      <trkpt lat="37.843402" lon="-6.076412">
        <ele>414.745</ele>
        <time>2016-09-01T11:14:58Z</time>
      </trkpt>
      <trkpt lat="37.843880" lon="-6.076216">
        <ele>416.468</ele>
        <time>2016-09-01T11:15:16Z</time>
      </trkpt>
      <trkpt lat="37.844266" lon="-6.076086">
        <ele>418.437</ele>
        <time>2016-09-01T11:15:32Z</time>
      </trkpt>
      <trkpt lat="37.844538" lon="-6.075782">
        <ele>420.096</ele>
        <time>2016-09-01T11:15:46Z</time>
      </trkpt>
      <trkpt lat="37.844673" lon="-6.075420">
        <ele>420.288</ele>
        <time>2016-09-01T11:15:56Z</time>
      </trkpt>
      <trkpt lat="37.844766" lon="-6.075022">
        <ele>420.424</ele>
        <time>2016-09-01T11:16:03Z</time>
      </trkpt>
      <trkpt lat="37.844810" lon="-6.074929">
        <ele>420.426</ele>
        <time>2016-09-01T11:16:05Z</time>
      </trkpt>
      <trkpt lat="37.844838" lon="-6.074889">
        <ele>420.408</ele>
        <time>2016-09-01T11:16:06Z</time>
      </trkpt>
      <trkpt lat="37.844870" lon="-6.074854">
        <ele>420.481</ele>
        <time>2016-09-01T11:16:07Z</time>
      </trkpt>
      <trkpt lat="37.844904" lon="-6.074824">
        <ele>420.422</ele>
        <time>2016-09-01T11:16:08Z</time>
      </trkpt>
      <trkpt lat="37.844940" lon="-6.074799">
        <ele>420.363</ele>
        <time>2016-09-01T11:16:09Z</time>
      </trkpt>
      <trkpt lat="37.844979" lon="-6.074783">
        <ele>420.342</ele>
        <time>2016-09-01T11:16:10Z</time>
      </trkpt>
      <trkpt lat="37.845021" lon="-6.074780">
        <ele>420.336</ele>
        <time>2016-09-01T11:16:11Z</time>
      </trkpt>
      <trkpt lat="37.845063" lon="-6.074781">
        <ele>420.399</ele>
        <time>2016-09-01T11:16:12Z</time>
      </trkpt>
      <trkpt lat="37.845105" lon="-6.074771">
        <ele>420.258</ele>
        <time>2016-09-01T11:16:13Z</time>
      </trkpt>
      <trkpt lat="37.845146" lon="-6.074743">
        <ele>420.177</ele>
        <time>2016-09-01T11:16:14Z</time>
      </trkpt>
      <trkpt lat="37.845183" lon="-6.074697">
        <ele>420.085</ele>
        <time>2016-09-01T11:16:15Z</time>
      </trkpt>
      <trkpt lat="37.845211" lon="-6.074635">
        <ele>419.989</ele>
        <time>2016-09-01T11:16:16Z</time>
      </trkpt>
      <trkpt lat="37.845233" lon="-6.074561">
        <ele>419.817</ele>
        <time>2016-09-01T11:16:17Z</time>
      </trkpt>
      <trkpt lat="37.845261" lon="-6.074482">
        <ele>419.708</ele>
        <time>2016-09-01T11:16:18Z</time>
      </trkpt>
      <trkpt lat="37.845304" lon="-6.074406">
        <ele>419.511</ele>
        <time>2016-09-01T11:16:19Z</time>
      </trkpt>
      <trkpt lat="37.845361" lon="-6.074336">
        <ele>419.212</ele>
        <time>2016-09-01T11:16:20Z</time>
      </trkpt>
      <trkpt lat="37.845429" lon="-6.074269">
        <ele>419.053</ele>
        <time>2016-09-01T11:16:21Z</time>
      </trkpt>
      <trkpt lat="37.845503" lon="-6.074205">
        <ele>418.642</ele>
        <time>2016-09-01T11:16:22Z</time>
      </trkpt>
      <trkpt lat="37.845648" lon="-6.074066">
        <ele>418.086</ele>
        <time>2016-09-01T11:16:24Z</time>
      </trkpt>
      <trkpt lat="37.845710" lon="-6.073983">
        <ele>417.749</ele>
        <time>2016-09-01T11:16:25Z</time>
      </trkpt>
      <trkpt lat="37.845759" lon="-6.073890">
        <ele>417.498</ele>
        <time>2016-09-01T11:16:26Z</time>
      </trkpt>
      <trkpt lat="37.845796" lon="-6.073795">
        <ele>417.077</ele>
        <time>2016-09-01T11:16:27Z</time>
      </trkpt>
      <trkpt lat="37.845821" lon="-6.073706">
        <ele>416.695</ele>
        <time>2016-09-01T11:16:28Z</time>
      </trkpt>
      <trkpt lat="37.845876" lon="-6.073504">
        <ele>416.949</ele>
        <time>2016-09-01T11:16:31Z</time>
      </trkpt>
      <trkpt lat="37.845984" lon="-6.073299">
        <ele>417.223</ele>
        <time>2016-09-01T11:16:39Z</time>
      </trkpt>
      <trkpt lat="37.845985" lon="-6.073297">
        <ele>417.208</ele>
        <time>2016-09-01T11:16:43Z</time>
      </trkpt>
      <trkpt lat="37.846116" lon="-6.073317">
        <ele>417.422</ele>
        <time>2016-09-01T11:18:17Z</time>
      </trkpt>
      <trkpt lat="37.846271" lon="-6.073316">
        <ele>417.753</ele>
        <time>2016-09-01T11:18:24Z</time>
      </trkpt>
      <trkpt lat="37.846689" lon="-6.073317">
        <ele>418.754</ele>
        <time>2016-09-01T11:18:39Z</time>
      </trkpt>
      <trkpt lat="37.847164" lon="-6.073475">
        <ele>420.133</ele>
        <time>2016-09-01T11:18:53Z</time>
      </trkpt>
      <trkpt lat="37.847419" lon="-6.073877">
        <ele>421.687</ele>
        <time>2016-09-01T11:19:07Z</time>
      </trkpt>
      <trkpt lat="37.847709" lon="-6.074279">
        <ele>422.630</ele>
        <time>2016-09-01T11:19:19Z</time>
      </trkpt>
      <trkpt lat="37.848190" lon="-6.074487">
        <ele>423.469</ele>
        <time>2016-09-01T11:19:33Z</time>
      </trkpt>
      <trkpt lat="37.848515" lon="-6.074477">
        <ele>424.318</ele>
        <time>2016-09-01T11:19:45Z</time>
      </trkpt>
      <trkpt lat="37.848871" lon="-6.074419">
        <ele>425.719</ele>
        <time>2016-09-01T11:19:58Z</time>
      </trkpt>
      <trkpt lat="37.849286" lon="-6.074494">
        <ele>427.109</ele>
        <time>2016-09-01T11:20:12Z</time>
      </trkpt>
      <trkpt lat="37.849710" lon="-6.074545">
        <ele>428.719</ele>
        <time>2016-09-01T11:20:27Z</time>
      </trkpt>
      <trkpt lat="37.850123" lon="-6.074713">
        <ele>430.308</ele>
        <time>2016-09-01T11:20:42Z</time>
      </trkpt>
      <trkpt lat="37.850550" lon="-6.074774">
        <ele>431.294</ele>
        <time>2016-09-01T11:20:56Z</time>
      </trkpt>
      <trkpt lat="37.850908" lon="-6.074829">
        <ele>431.885</ele>
        <time>2016-09-01T11:21:07Z</time>
      </trkpt>
      <trkpt lat="37.851265" lon="-6.074911">
        <ele>432.486</ele>
        <time>2016-09-01T11:21:19Z</time>
      </trkpt>
      <trkpt lat="37.851678" lon="-6.075042">
        <ele>433.585</ele>
        <time>2016-09-01T11:21:34Z</time>
      </trkpt>
      <trkpt lat="37.852013" lon="-6.075213">
        <ele>434.519</ele>
        <time>2016-09-01T11:21:46Z</time>
      </trkpt>
      <trkpt lat="37.852473" lon="-6.075479">
        <ele>435.842</ele>
        <time>2016-09-01T11:22:01Z</time>
      </trkpt>
      <trkpt lat="37.852790" lon="-6.075856">
        <ele>437.331</ele>
        <time>2016-09-01T11:22:17Z</time>
      </trkpt>
      <trkpt lat="37.853128" lon="-6.076190">
        <ele>438.720</ele>
        <time>2016-09-01T11:22:32Z</time>
      </trkpt>
      <trkpt lat="37.853507" lon="-6.076421">
        <ele>440.189</ele>
        <time>2016-09-01T11:22:47Z</time>
      </trkpt>
      <trkpt lat="37.853837" lon="-6.076551">
        <ele>441.006</ele>
        <time>2016-09-01T11:23:00Z</time>
      </trkpt>
      <trkpt lat="37.854262" lon="-6.076641">
        <ele>441.626</ele>
        <time>2016-09-01T11:23:13Z</time>
      </trkpt>
      <trkpt lat="37.854700" lon="-6.076881">
        <ele>442.708</ele>
        <time>2016-09-01T11:23:28Z</time>
      </trkpt>
      <trkpt lat="37.854999" lon="-6.076888">
        <ele>443.381</ele>
        <time>2016-09-01T11:23:39Z</time>
      </trkpt>
      <trkpt lat="37.855289" lon="-6.076913">
        <ele>444.342</ele>
        <time>2016-09-01T11:23:51Z</time>
      </trkpt>
      <trkpt lat="37.855712" lon="-6.077078">
        <ele>445.513</ele>
        <time>2016-09-01T11:24:06Z</time>
      </trkpt>
      <trkpt lat="37.856072" lon="-6.077202">
        <ele>446.492</ele>
        <time>2016-09-01T11:24:20Z</time>
      </trkpt>
      <trkpt lat="37.856433" lon="-6.077284">
        <ele>447.526</ele>
        <time>2016-09-01T11:24:33Z</time>
      </trkpt>
      <trkpt lat="37.856912" lon="-6.077377">
        <ele>449.149</ele>
        <time>2016-09-01T11:24:51Z</time>
      </trkpt>
      <trkpt lat="37.857361" lon="-6.077488">
        <ele>450.378</ele>
        <time>2016-09-01T11:25:08Z</time>
      </trkpt>
      <trkpt lat="37.857657" lon="-6.077576">
        <ele>451.377</ele>
        <time>2016-09-01T11:25:22Z</time>
      </trkpt>
      <trkpt lat="37.857656" lon="-6.077561">
        <ele>451.383</ele>
        <time>2016-09-01T11:25:24Z</time>
      </trkpt>
      <trkpt lat="37.857657" lon="-6.077547">
        <ele>451.325</ele>
        <time>2016-09-01T11:27:56Z</time>
      </trkpt>
      <trkpt lat="37.857657" lon="-6.077532">
        <ele>451.417</ele>
        <time>2016-09-01T11:27:57Z</time>
      </trkpt>
      <trkpt lat="37.857692" lon="-6.077554">
        <ele>451.508</ele>
        <time>2016-09-01T11:28:06Z</time>
      </trkpt>
      <trkpt lat="37.857711" lon="-6.077572">
        <ele>451.621</ele>
        <time>2016-09-01T11:28:18Z</time>
      </trkpt>
      <trkpt lat="37.857760" lon="-6.077570">
        <ele>451.862</ele>
        <time>2016-09-01T11:28:22Z</time>
      </trkpt>
      <trkpt lat="37.857852" lon="-6.077584">
        <ele>452.273</ele>
        <time>2016-09-01T11:28:27Z</time>
      </trkpt>
      <trkpt lat="37.858036" lon="-6.077551">
        <ele>452.932</ele>
        <time>2016-09-01T11:28:36Z</time>
      </trkpt>
      <trkpt lat="37.858373" lon="-6.077380">
        <ele>454.476</ele>
        <time>2016-09-01T11:28:50Z</time>
      </trkpt>
      <trkpt lat="37.858674" lon="-6.077247">
        <ele>455.769</ele>
        <time>2016-09-01T11:29:04Z</time>
      </trkpt>
      <trkpt lat="37.858947" lon="-6.077329">
        <ele>457.078</ele>
        <time>2016-09-01T11:29:15Z</time>
      </trkpt>
      <trkpt lat="37.859192" lon="-6.077475">
        <ele>458.647</ele>
        <time>2016-09-01T11:29:27Z</time>
      </trkpt>
      <trkpt lat="37.859460" lon="-6.077618">
        <ele>460.445</ele>
        <time>2016-09-01T11:29:41Z</time>
      </trkpt>
      <trkpt lat="37.860317" lon="-6.077559">
        <ele>467.847</ele>
        <time>2016-09-01T11:31:50Z</time>
      </trkpt>
      <trkpt lat="37.860296" lon="-6.077546">
        <ele>467.911</ele>
        <time>2016-09-01T11:31:51Z</time>
      </trkpt>
      <trkpt lat="37.860310" lon="-6.077563">
        <ele>468.008</ele>
        <time>2016-09-01T11:32:01Z</time>
      </trkpt>
      <trkpt lat="37.860306" lon="-6.077650">
        <ele>468.337</ele>
        <time>2016-09-01T11:32:05Z</time>
      </trkpt>
      <trkpt lat="37.860520" lon="-6.077669">
        <ele>469.498</ele>
        <time>2016-09-01T11:32:19Z</time>
      </trkpt>
      <trkpt lat="37.860832" lon="-6.077709">
        <ele>471.259</ele>
        <time>2016-09-01T11:32:34Z</time>
      </trkpt>
      <trkpt lat="37.860770" lon="-6.077768">
        <ele>471.638</ele>
        <time>2016-09-01T11:32:34Z</time>
      </trkpt>
      <trkpt lat="37.861051" lon="-6.077804">
        <ele>473.162</ele>
        <time>2016-09-01T11:32:51Z</time>
      </trkpt>
      <trkpt lat="37.861345" lon="-6.077794">
        <ele>474.645</ele>
        <time>2016-09-01T11:33:09Z</time>
      </trkpt>
      <trkpt lat="37.861438" lon="-6.077821">
        <ele>475.774</ele>
        <time>2016-09-01T11:33:22Z</time>
      </trkpt>
      <trkpt lat="37.861586" lon="-6.077824">
        <ele>477.633</ele>
        <time>2016-09-01T11:33:37Z</time>
      </trkpt>
      <trkpt lat="37.861804" lon="-6.077834">
        <ele>480.164</ele>
        <time>2016-09-01T11:33:57Z</time>
      </trkpt>
      <trkpt lat="37.861965" lon="-6.077846">
        <ele>483.006</ele>
        <time>2016-09-01T11:34:14Z</time>
      </trkpt>
      <trkpt lat="37.862069" lon="-6.077820">
        <ele>486.416</ele>
        <time>2016-09-01T11:35:19Z</time>
      </trkpt>
      <trkpt lat="37.862203" lon="-6.077799">
        <ele>490.908</ele>
        <time>2016-09-01T11:35:37Z</time>
      </trkpt>
      <trkpt lat="37.862328" lon="-6.077799">
        <ele>493.549</ele>
        <time>2016-09-01T11:35:55Z</time>
      </trkpt>
      <trkpt lat="37.862464" lon="-6.077810">
        <ele>494.920</ele>
        <time>2016-09-01T11:36:15Z</time>
      </trkpt>
      <trkpt lat="37.862573" lon="-6.077828">
        <ele>496.451</ele>
        <time>2016-09-01T11:36:34Z</time>
      </trkpt>
      <trkpt lat="37.862669" lon="-6.077792">
        <ele>498.530</ele>
        <time>2016-09-01T11:37:29Z</time>
      </trkpt>
      <trkpt lat="37.862807" lon="-6.077760">
        <ele>502.194</ele>
        <time>2016-09-01T11:37:49Z</time>
      </trkpt>
      <trkpt lat="37.862903" lon="-6.077750">
        <ele>505.037</ele>
        <time>2016-09-01T11:38:06Z</time>
      </trkpt>
      <trkpt lat="37.862985" lon="-6.077731">
        <ele>506.926</ele>
        <time>2016-09-01T11:38:22Z</time>
      </trkpt>
      <trkpt lat="37.863072" lon="-6.077737">
        <ele>507.895</ele>
        <time>2016-09-01T11:38:41Z</time>
      </trkpt>
      <trkpt lat="37.863112" lon="-6.077798">
        <ele>508.524</ele>
        <time>2016-09-01T11:38:57Z</time>
      </trkpt>
      <trkpt lat="37.863230" lon="-6.077786">
        <ele>509.804</ele>
        <time>2016-09-01T11:39:49Z</time>
      </trkpt>
      <trkpt lat="37.863347" lon="-6.077825">
        <ele>512.514</ele>
        <time>2016-09-01T11:40:09Z</time>
      </trkpt>
      <trkpt lat="37.863434" lon="-6.077906">
        <ele>515.908</ele>
        <time>2016-09-01T11:40:28Z</time>
      </trkpt>
      <trkpt lat="37.863512" lon="-6.078000">
        <ele>518.865</ele>
        <time>2016-09-01T11:40:46Z</time>
      </trkpt>
      <trkpt lat="37.863553" lon="-6.078086">
        <ele>520.926</ele>
        <time>2016-09-01T11:41:05Z</time>
      </trkpt>
      <trkpt lat="37.863615" lon="-6.078163">
        <ele>523.057</ele>
        <time>2016-09-01T11:42:04Z</time>
      </trkpt>
      <trkpt lat="37.863702" lon="-6.078293">
        <ele>525.566</ele>
        <time>2016-09-01T11:42:22Z</time>
      </trkpt>
      <trkpt lat="37.863783" lon="-6.078437">
        <ele>528.560</ele>
        <time>2016-09-01T11:42:42Z</time>
      </trkpt>
      <trkpt lat="37.863846" lon="-6.078559">
        <ele>530.943</ele>
        <time>2016-09-01T11:43:00Z</time>
      </trkpt>
      <trkpt lat="37.863896" lon="-6.078657">
        <ele>532.962</ele>
        <time>2016-09-01T11:43:18Z</time>
      </trkpt>
      <trkpt lat="37.863944" lon="-6.078761">
        <ele>534.921</ele>
        <time>2016-09-01T11:44:22Z</time>
      </trkpt>
      <trkpt lat="37.863993" lon="-6.078913">
        <ele>537.293</ele>
        <time>2016-09-01T11:44:40Z</time>
      </trkpt>
      <trkpt lat="37.864047" lon="-6.079053">
        <ele>539.765</ele>
        <time>2016-09-01T11:44:58Z</time>
      </trkpt>
      <trkpt lat="37.864107" lon="-6.079268">
        <ele>542.821</ele>
        <time>2016-09-01T11:45:21Z</time>
      </trkpt>
      <trkpt lat="37.864164" lon="-6.079423">
        <ele>545.208</ele>
        <time>2016-09-01T11:45:39Z</time>
      </trkpt>
      <trkpt lat="37.864232" lon="-6.079534">
        <ele>548.462</ele>
        <time>2016-09-01T11:45:56Z</time>
      </trkpt>
      <trkpt lat="37.864290" lon="-6.079465">
        <ele>549.563</ele>
        <time>2016-09-01T11:46:15Z</time>
      </trkpt>
      <trkpt lat="37.864329" lon="-6.079295">
        <ele>550.764</ele>
        <time>2016-09-01T11:46:35Z</time>
      </trkpt>
      <trkpt lat="37.864385" lon="-6.079178">
        <ele>551.073</ele>
        <time>2016-09-01T11:46:52Z</time>
      </trkpt>
      <trkpt lat="37.864477" lon="-6.079068">
        <ele>551.447</ele>
        <time>2016-09-01T11:47:13Z</time>
      </trkpt>
      <trkpt lat="37.864555" lon="-6.078982">
        <ele>551.460</ele>
        <time>2016-09-01T11:47:31Z</time>
      </trkpt>
      <trkpt lat="37.864657" lon="-6.078816">
        <ele>551.389</ele>
        <time>2016-09-01T11:47:51Z</time>
      </trkpt>
      <trkpt lat="37.864771" lon="-6.078809">
        <ele>549.448</ele>
        <time>2016-09-01T12:03:34Z</time>
      </trkpt>
      <trkpt lat="37.864938" lon="-6.078765">
        <ele>547.366</ele>
        <time>2016-09-01T12:03:40Z</time>
      </trkpt>
      <trkpt lat="37.865112" lon="-6.078727">
        <ele>544.929</ele>
        <time>2016-09-01T12:03:45Z</time>
      </trkpt>
      <trkpt lat="37.865218" lon="-6.078707">
        <ele>543.321</ele>
        <time>2016-09-01T12:03:48Z</time>
      </trkpt>
      <trkpt lat="37.865387" lon="-6.078775">
        <ele>540.908</ele>
        <time>2016-09-01T12:03:52Z</time>
      </trkpt>
      <trkpt lat="37.865512" lon="-6.078866">
        <ele>539.219</ele>
        <time>2016-09-01T12:03:55Z</time>
      </trkpt>
      <trkpt lat="37.865595" lon="-6.078910">
        <ele>538.170</ele>
        <time>2016-09-01T12:03:57Z</time>
      </trkpt>
      <trkpt lat="37.865729" lon="-6.078960">
        <ele>536.421</ele>
        <time>2016-09-01T12:04:00Z</time>
      </trkpt>
      <trkpt lat="37.865994" lon="-6.079093">
        <ele>532.290</ele>
        <time>2016-09-01T12:04:06Z</time>
      </trkpt>
      <trkpt lat="37.866037" lon="-6.079111">
        <ele>531.464</ele>
        <time>2016-09-01T12:04:07Z</time>
      </trkpt>
      <trkpt lat="37.866159" lon="-6.079223">
        <ele>529.297</ele>
        <time>2016-09-01T12:04:11Z</time>
      </trkpt>
      <trkpt lat="37.866230" lon="-6.079311">
        <ele>528.196</ele>
        <time>2016-09-01T12:04:14Z</time>
      </trkpt>
      <trkpt lat="37.866269" lon="-6.079388">
        <ele>527.185</ele>
        <time>2016-09-01T12:04:16Z</time>
      </trkpt>
      <trkpt lat="37.866306" lon="-6.079463">
        <ele>525.952</ele>
        <time>2016-09-01T12:04:18Z</time>
      </trkpt>
      <trkpt lat="37.866393" lon="-6.079637">
        <ele>523.453</ele>
        <time>2016-09-01T12:04:22Z</time>
      </trkpt>
      <trkpt lat="37.866450" lon="-6.079732">
        <ele>522.508</ele>
        <time>2016-09-01T12:04:24Z</time>
      </trkpt>
      <trkpt lat="37.866538" lon="-6.079892">
        <ele>520.808</ele>
        <time>2016-09-01T12:04:27Z</time>
      </trkpt>
      <trkpt lat="37.866618" lon="-6.080027">
        <ele>519.338</ele>
        <time>2016-09-01T12:04:30Z</time>
      </trkpt>
      <trkpt lat="37.866728" lon="-6.079989">
        <ele>518.119</ele>
        <time>2016-09-01T12:04:36Z</time>
      </trkpt>
      <trkpt lat="37.867028" lon="-6.079698">
        <ele>516.630</ele>
        <time>2016-09-01T12:04:51Z</time>
      </trkpt>
      <trkpt lat="37.867227" lon="-6.079608">
        <ele>516.199</ele>
        <time>2016-09-01T12:05:27Z</time>
      </trkpt>
      <trkpt lat="37.867300" lon="-6.079644">
        <ele>515.643</ele>
        <time>2016-09-01T12:05:40Z</time>
      </trkpt>
      <trkpt lat="37.867418" lon="-6.079635">
        <ele>513.946</ele>
        <time>2016-09-01T12:05:45Z</time>
      </trkpt>
      <trkpt lat="37.867578" lon="-6.079684">
        <ele>510.715</ele>
        <time>2016-09-01T12:05:51Z</time>
      </trkpt>
      <trkpt lat="37.867718" lon="-6.079710">
        <ele>507.794</ele>
        <time>2016-09-01T12:05:57Z</time>
      </trkpt>
      <trkpt lat="37.867895" lon="-6.079732">
        <ele>504.377</ele>
        <time>2016-09-01T12:06:02Z</time>
      </trkpt>
      <trkpt lat="37.867992" lon="-6.079747">
        <ele>502.261</ele>
        <time>2016-09-01T12:06:06Z</time>
      </trkpt>
      <trkpt lat="37.868147" lon="-6.079748">
        <ele>498.927</ele>
        <time>2016-09-01T12:06:12Z</time>
      </trkpt>
      <trkpt lat="37.868294" lon="-6.079759">
        <ele>496.308</ele>
        <time>2016-09-01T12:06:16Z</time>
      </trkpt>
      <trkpt lat="37.868433" lon="-6.079825">
        <ele>493.970</ele>
        <time>2016-09-01T12:06:21Z</time>
      </trkpt>
      <trkpt lat="37.868563" lon="-6.079878">
        <ele>491.311</ele>
        <time>2016-09-01T12:06:26Z</time>
      </trkpt>
      <trkpt lat="37.868775" lon="-6.080008">
        <ele>487.162</ele>
        <time>2016-09-01T12:07:25Z</time>
      </trkpt>
      <trkpt lat="37.868946" lon="-6.080082">
        <ele>484.311</ele>
        <time>2016-09-01T12:07:30Z</time>
      </trkpt>
      <trkpt lat="37.869067" lon="-6.080129">
        <ele>482.745</ele>
        <time>2016-09-01T12:07:33Z</time>
      </trkpt>
      <trkpt lat="37.869291" lon="-6.080232">
        <ele>479.328</ele>
        <time>2016-09-01T12:07:39Z</time>
      </trkpt>
      <trkpt lat="37.869505" lon="-6.080352">
        <ele>475.847</ele>
        <time>2016-09-01T12:07:45Z</time>
      </trkpt>
      <trkpt lat="37.869657" lon="-6.080451">
        <ele>472.886</ele>
        <time>2016-09-01T12:07:49Z</time>
      </trkpt>
      <trkpt lat="37.869750" lon="-6.080570">
        <ele>470.442</ele>
        <time>2016-09-01T12:07:55Z</time>
      </trkpt>
      <trkpt lat="37.869910" lon="-6.080464">
        <ele>468.022</ele>
        <time>2016-09-01T12:08:03Z</time>
      </trkpt>
      <trkpt lat="37.870146" lon="-6.080324">
        <ele>463.714</ele>
        <time>2016-09-01T12:08:08Z</time>
      </trkpt>
      <trkpt lat="37.870586" lon="-6.080244">
        <ele>459.008</ele>
        <time>2016-09-01T12:08:14Z</time>
      </trkpt>
      <trkpt lat="37.870654" lon="-6.080233">
        <ele>458.337</ele>
        <time>2016-09-01T12:08:15Z</time>
      </trkpt>
      <trkpt lat="37.870774" lon="-6.080214">
        <ele>457.268</ele>
        <time>2016-09-01T12:08:17Z</time>
      </trkpt>
      <trkpt lat="37.871097" lon="-6.080280">
        <ele>455.019</ele>
        <time>2016-09-01T12:08:22Z</time>
      </trkpt>
      <trkpt lat="37.871389" lon="-6.080318">
        <ele>453.628</ele>
        <time>2016-09-01T12:08:26Z</time>
      </trkpt>
      <trkpt lat="37.871656" lon="-6.080280">
        <ele>453.262</ele>
        <time>2016-09-01T12:08:30Z</time>
      </trkpt>
      <trkpt lat="37.871810" lon="-6.080240">
        <ele>452.915</ele>
        <time>2016-09-01T12:08:37Z</time>
      </trkpt>
      <trkpt lat="37.871831" lon="-6.080148">
        <ele>452.414</ele>
        <time>2016-09-01T12:08:45Z</time>
      </trkpt>
      <trkpt lat="37.871886" lon="-6.080082">
        <ele>452.243</ele>
        <time>2016-09-01T12:08:49Z</time>
      </trkpt>
      <trkpt lat="37.872288" lon="-6.080000">
        <ele>453.138</ele>
        <time>2016-09-01T12:09:06Z</time>
      </trkpt>
      <trkpt lat="37.872630" lon="-6.079971">
        <ele>454.670</ele>
        <time>2016-09-01T12:09:20Z</time>
      </trkpt>
      <trkpt lat="37.872931" lon="-6.079858">
        <ele>455.217</ele>
        <time>2016-09-01T12:09:33Z</time>
      </trkpt>
      <trkpt lat="37.872989" lon="-6.079775">
        <ele>455.208</ele>
        <time>2016-09-01T12:09:37Z</time>
      </trkpt>
      <trkpt lat="37.873084" lon="-6.079657">
        <ele>454.796</ele>
        <time>2016-09-01T12:09:53Z</time>
      </trkpt>
      <trkpt lat="37.873119" lon="-6.079752">
        <ele>455.167</ele>
        <time>2016-09-01T12:10:04Z</time>
      </trkpt>
      <trkpt lat="37.873135" lon="-6.079998">
        <ele>455.848</ele>
        <time>2016-09-01T12:11:55Z</time>
      </trkpt>
      <trkpt lat="37.873212" lon="-6.080019">
        <ele>455.997</ele>
        <time>2016-09-01T12:12:00Z</time>
      </trkpt>
      <trkpt lat="37.873362" lon="-6.079991">
        <ele>456.031</ele>
        <time>2016-09-01T12:12:08Z</time>
      </trkpt>
      <trkpt lat="37.873445" lon="-6.079976">
        <ele>456.134</ele>
        <time>2016-09-01T12:12:12Z</time>
      </trkpt>
      <trkpt lat="37.873603" lon="-6.079952">
        <ele>456.543</ele>
        <time>2016-09-01T12:12:20Z</time>
      </trkpt>
      <trkpt lat="37.873660" lon="-6.079892">
        <ele>456.782</ele>
        <time>2016-09-01T12:12:34Z</time>
      </trkpt>
      <trkpt lat="37.873706" lon="-6.079996">
        <ele>456.932</ele>
        <time>2016-09-01T12:13:10Z</time>
      </trkpt>
      <trkpt lat="37.873827" lon="-6.080271">
        <ele>457.592</ele>
        <time>2016-09-01T12:13:19Z</time>
      </trkpt>
      <trkpt lat="37.873916" lon="-6.080379">
        <ele>458.111</ele>
        <time>2016-09-01T12:13:29Z</time>
      </trkpt>
      <trkpt lat="37.873966" lon="-6.080484">
        <ele>458.508</ele>
        <time>2016-09-01T12:13:51Z</time>
      </trkpt>
      <trkpt lat="37.874035" lon="-6.080905">
        <ele>459.486</ele>
        <time>2016-09-01T12:14:06Z</time>
      </trkpt>
      <trkpt lat="37.874123" lon="-6.081371">
        <ele>460.157</ele>
        <time>2016-09-01T12:14:22Z</time>
      </trkpt>
      <trkpt lat="37.874175" lon="-6.081587">
        <ele>460.578</ele>
        <time>2016-09-01T12:14:30Z</time>
      </trkpt>
      <trkpt lat="37.874231" lon="-6.081794">
        <ele>460.797</ele>
        <time>2016-09-01T12:14:40Z</time>
      </trkpt>
      <trkpt lat="37.874330" lon="-6.082514">
        <ele>462.241</ele>
        <time>2016-09-01T12:15:03Z</time>
      </trkpt>
      <trkpt lat="37.874421" lon="-6.083015">
        <ele>464.014</ele>
        <time>2016-09-01T12:15:21Z</time>
      </trkpt>
      <trkpt lat="37.874423" lon="-6.083211">
        <ele>464.293</ele>
        <time>2016-09-01T12:15:28Z</time>
      </trkpt>
      <trkpt lat="37.874343" lon="-6.083262">
        <ele>464.322</ele>
        <time>2016-09-01T12:15:33Z</time>
      </trkpt>
      <trkpt lat="37.874038" lon="-6.083427">
        <ele>464.053</ele>
        <time>2016-09-01T12:15:45Z</time>
      </trkpt>
      <trkpt lat="37.874113" lon="-6.084058">
        <ele>465.804</ele>
        <time>2016-09-01T12:16:06Z</time>
      </trkpt>
      <trkpt lat="37.874089" lon="-6.084612">
        <ele>467.314</ele>
        <time>2016-09-01T12:16:24Z</time>
      </trkpt>
      <trkpt lat="37.874073" lon="-6.085203">
        <ele>469.008</ele>
        <time>2016-09-01T12:16:44Z</time>
      </trkpt>
      <trkpt lat="37.874034" lon="-6.085783">
        <ele>470.268</ele>
        <time>2016-09-01T12:17:03Z</time>
      </trkpt>
      <trkpt lat="37.874017" lon="-6.086358">
        <ele>471.429</ele>
        <time>2016-09-01T12:17:22Z</time>
      </trkpt>
      <trkpt lat="37.874048" lon="-6.086738">
        <ele>472.140</ele>
        <time>2016-09-01T12:17:37Z</time>
      </trkpt>
      <trkpt lat="37.874090" lon="-6.086664">
        <ele>472.059</ele>
        <time>2016-09-01T12:17:47Z</time>
      </trkpt>
      <trkpt lat="37.874184" lon="-6.086618">
        <ele>471.873</ele>
        <time>2016-09-01T12:18:32Z</time>
      </trkpt>
      <trkpt lat="37.874212" lon="-6.086529">
        <ele>471.756</ele>
        <time>2016-09-01T12:18:47Z</time>
      </trkpt>
      <trkpt lat="37.874276" lon="-6.086636">
        <ele>471.685</ele>
        <time>2019-02-24T22:36:09Z</time>
      </trkpt>
      <trkpt lat="37.874273" lon="-6.086637">
        <ele>471.644</ele>
        <time>2019-02-24T22:36:10Z</time>
      </trkpt>
      <trkpt lat="37.874266" lon="-6.086639">
        <ele>471.658</ele>
        <time>2019-02-24T22:36:11Z</time>
      </trkpt>
      <trkpt lat="37.874134" lon="-6.086655">
        <ele>471.352</ele>
        <time>2019-02-24T22:36:18Z</time>
      </trkpt>
      <trkpt lat="37.874116" lon="-6.086681">
        <ele>471.317</ele>
        <time>2019-02-24T22:36:20Z</time>
      </trkpt>
      <trkpt lat="37.874053" lon="-6.086736">
        <ele>471.208</ele>
        <time>2019-02-24T22:36:30Z</time>
      </trkpt>
      <trkpt lat="37.874037" lon="-6.086709">
        <ele>471.118</ele>
        <time>2019-02-24T22:36:31Z</time>
      </trkpt>
      <trkpt lat="37.874023" lon="-6.086680">
        <ele>471.139</ele>
        <time>2019-02-24T22:36:32Z</time>
      </trkpt>
      <trkpt lat="37.874013" lon="-6.086645">
        <ele>471.060</ele>
        <time>2019-02-24T22:36:33Z</time>
      </trkpt>
      <trkpt lat="37.874007" lon="-6.086602">
        <ele>471.029</ele>
        <time>2019-02-24T22:36:34Z</time>
      </trkpt>
      <trkpt lat="37.873998" lon="-6.086556">
        <ele>470.973</ele>
        <time>2019-02-24T22:36:35Z</time>
      </trkpt>
      <trkpt lat="37.873992" lon="-6.086509">
        <ele>470.946</ele>
        <time>2019-02-24T22:36:36Z</time>
      </trkpt>
      <trkpt lat="37.874043" lon="-6.085688">
        <ele>470.025</ele>
        <time>2019-02-24T22:36:49Z</time>
      </trkpt>
      <trkpt lat="37.874103" lon="-6.084836">
        <ele>467.954</ele>
        <time>2019-02-24T22:37:00Z</time>
      </trkpt>
      <trkpt lat="37.874106" lon="-6.084749">
        <ele>467.646</ele>
        <time>2019-02-24T22:37:01Z</time>
      </trkpt>
      <trkpt lat="37.874124" lon="-6.084485">
        <ele>466.988</ele>
        <time>2019-02-24T22:37:04Z</time>
      </trkpt>
      <trkpt lat="37.874123" lon="-6.084398">
        <ele>466.716</ele>
        <time>2019-02-24T22:37:05Z</time>
      </trkpt>
      <trkpt lat="37.874085" lon="-6.083622">
        <ele>464.608</ele>
        <time>2019-02-24T22:37:17Z</time>
      </trkpt>
      <trkpt lat="37.873948" lon="-6.082811">
        <ele>461.967</ele>
        <time>2019-02-24T22:37:30Z</time>
      </trkpt>
      <trkpt lat="37.873767" lon="-6.082397">
        <ele>460.528</ele>
        <time>2019-02-24T22:37:41Z</time>
      </trkpt>
      <trkpt lat="37.873750" lon="-6.082371">
        <ele>460.569</ele>
        <time>2019-02-24T22:37:42Z</time>
      </trkpt>
      <trkpt lat="37.873750" lon="-6.082343">
        <ele>460.528</ele>
        <time>2019-02-24T22:37:43Z</time>
      </trkpt>
      <trkpt lat="37.873761" lon="-6.082317">
        <ele>460.462</ele>
        <time>2019-02-24T22:37:44Z</time>
      </trkpt>
      <trkpt lat="37.873766" lon="-6.082292">
        <ele>460.485</ele>
        <time>2019-02-24T22:37:45Z</time>
      </trkpt>
      <trkpt lat="37.873784" lon="-6.082267">
        <ele>460.414</ele>
        <time>2019-02-24T22:37:46Z</time>
      </trkpt>
      <trkpt lat="37.873956" lon="-6.081811">
        <ele>459.863</ele>
        <time>2019-02-24T22:37:57Z</time>
      </trkpt>
      <trkpt lat="37.873962" lon="-6.081758">
        <ele>459.724</ele>
        <time>2019-02-24T22:37:58Z</time>
      </trkpt>
      <trkpt lat="37.873968" lon="-6.081707">
        <ele>459.604</ele>
        <time>2019-02-24T22:37:59Z</time>
      </trkpt>
      <trkpt lat="37.873957" lon="-6.081248">
        <ele>459.014</ele>
        <time>2019-02-24T22:38:11Z</time>
      </trkpt>
      <trkpt lat="37.873932" lon="-6.081176">
        <ele>458.908</ele>
        <time>2019-02-24T22:38:18Z</time>
      </trkpt>
      <trkpt lat="37.873909" lon="-6.081066">
        <ele>458.685</ele>
        <time>2019-02-24T23:08:32Z</time>
      </trkpt>
      <trkpt lat="37.873933" lon="-6.081054">
        <ele>458.536</ele>
        <time>2019-02-24T23:08:33Z</time>
      </trkpt>
      <trkpt lat="37.874046" lon="-6.081204">
        <ele>459.967</ele>
        <time>2019-02-24T23:08:40Z</time>
      </trkpt>
      <trkpt lat="37.874083" lon="-6.081315">
        <ele>460.076</ele>
        <time>2019-02-24T23:08:44Z</time>
      </trkpt>
      <trkpt lat="37.874093" lon="-6.081342">
        <ele>460.130</ele>
        <time>2019-02-24T23:08:45Z</time>
      </trkpt>
      <trkpt lat="37.874101" lon="-6.081371">
        <ele>460.173</ele>
        <time>2019-02-24T23:08:46Z</time>
      </trkpt>
      <trkpt lat="37.874106" lon="-6.081402">
        <ele>460.292</ele>
        <time>2019-02-24T23:08:47Z</time>
      </trkpt>
      <trkpt lat="37.874112" lon="-6.081433">
        <ele>460.261</ele>
        <time>2019-02-24T23:08:48Z</time>
      </trkpt>
      <trkpt lat="37.874121" lon="-6.081462">
        <ele>460.364</ele>
        <time>2019-02-24T23:08:49Z</time>
      </trkpt>
      <trkpt lat="37.874128" lon="-6.081491">
        <ele>460.306</ele>
        <time>2019-02-24T23:08:50Z</time>
      </trkpt>
      <trkpt lat="37.874134" lon="-6.081521">
        <ele>460.416</ele>
        <time>2019-02-24T23:08:51Z</time>
      </trkpt>
      <trkpt lat="37.874189" lon="-6.081639">
        <ele>460.608</ele>
        <time>2019-02-24T23:08:56Z</time>
      </trkpt>
      <trkpt lat="37.874193" lon="-6.081672">
        <ele>460.779</ele>
        <time>2019-02-24T23:08:57Z</time>
      </trkpt>
      <trkpt lat="37.874198" lon="-6.081705">
        <ele>460.750</ele>
        <time>2019-02-24T23:08:58Z</time>
      </trkpt>
      <trkpt lat="37.874206" lon="-6.081737">
        <ele>460.741</ele>
        <time>2019-02-24T23:08:59Z</time>
      </trkpt>
      <trkpt lat="37.874213" lon="-6.081768">
        <ele>460.790</ele>
        <time>2019-02-24T23:09:00Z</time>
      </trkpt>
      <trkpt lat="37.874219" lon="-6.081803">
        <ele>460.784</ele>
        <time>2019-02-24T23:09:01Z</time>
      </trkpt>
      <trkpt lat="37.874224" lon="-6.081837">
        <ele>460.747</ele>
        <time>2019-02-24T23:09:02Z</time>
      </trkpt>
      <trkpt lat="37.874301" lon="-6.082270">
        <ele>461.666</ele>
        <time>2019-02-24T23:09:16Z</time>
      </trkpt>
      <trkpt lat="37.874334" lon="-6.082618">
        <ele>462.595</ele>
        <time>2019-02-24T23:09:28Z</time>
      </trkpt>
      <trkpt lat="37.874443" lon="-6.082821">
        <ele>464.751</ele>
        <time>2019-02-24T23:09:38Z</time>
      </trkpt>
      <trkpt lat="37.874729" lon="-6.082656">
        <ele>468.601</ele>
        <time>2019-02-24T23:09:53Z</time>
      </trkpt>
      <trkpt lat="37.874967" lon="-6.082476">
        <ele>471.211</ele>
        <time>2019-02-24T23:10:08Z</time>
      </trkpt>
      <trkpt lat="37.875173" lon="-6.082284">
        <ele>473.508</ele>
        <time>2019-02-24T23:10:22Z</time>
      </trkpt>
      <trkpt lat="37.875499" lon="-6.082021">
        <ele>477.698</ele>
        <time>2019-02-24T23:10:40Z</time>
      </trkpt>
      <trkpt lat="37.875744" lon="-6.081802">
        <ele>479.949</ele>
        <time>2019-02-24T23:10:54Z</time>
      </trkpt>
      <trkpt lat="37.875978" lon="-6.081796">
        <ele>481.470</ele>
        <time>2019-02-24T23:11:06Z</time>
      </trkpt>
      <trkpt lat="37.876235" lon="-6.081746">
        <ele>481.749</ele>
        <time>2019-02-24T23:11:17Z</time>
      </trkpt>
      <trkpt lat="37.876627" lon="-6.081833">
        <ele>481.483</ele>
        <time>2019-02-24T23:11:32Z</time>
      </trkpt>
      <trkpt lat="37.876937" lon="-6.081886">
        <ele>482.816</ele>
        <time>2019-02-24T23:11:47Z</time>
      </trkpt>
      <trkpt lat="37.877141" lon="-6.081850">
        <ele>482.845</ele>
        <time>2019-02-24T23:11:59Z</time>
      </trkpt>
      <trkpt lat="37.877467" lon="-6.081707">
        <ele>481.994</ele>
        <time>2019-02-24T23:12:14Z</time>
      </trkpt>
      <trkpt lat="37.877835" lon="-6.081857">
        <ele>477.914</ele>
        <time>2019-02-24T23:12:27Z</time>
      </trkpt>
      <trkpt lat="37.878154" lon="-6.082033">
        <ele>473.954</ele>
        <time>2019-02-24T23:12:34Z</time>
      </trkpt>
      <trkpt lat="37.878429" lon="-6.082227">
        <ele>471.609</ele>
        <time>2019-02-24T23:12:40Z</time>
      </trkpt>
      <trkpt lat="37.878464" lon="-6.082268">
        <ele>471.308</ele>
        <time>2019-02-24T23:12:41Z</time>
      </trkpt>
      <trkpt lat="37.878719" lon="-6.082538">
        <ele>469.414</ele>
        <time>2019-02-24T23:12:47Z</time>
      </trkpt>
      <trkpt lat="37.878769" lon="-6.082576">
        <ele>469.295</ele>
        <time>2019-02-24T23:12:48Z</time>
      </trkpt>
      <trkpt lat="37.879160" lon="-6.082817">
        <ele>467.126</ele>
        <time>2019-02-24T23:12:58Z</time>
      </trkpt>
      <trkpt lat="37.879572" lon="-6.083234">
        <ele>465.315</ele>
        <time>2019-02-24T23:13:09Z</time>
      </trkpt>
      <trkpt lat="37.879786" lon="-6.083461">
        <ele>465.349</ele>
        <time>2019-02-24T23:13:14Z</time>
      </trkpt>
      <trkpt lat="37.880291" lon="-6.083870">
        <ele>467.022</ele>
        <time>2019-02-24T23:13:27Z</time>
      </trkpt>
      <trkpt lat="37.880585" lon="-6.084046">
        <ele>466.571</ele>
        <time>2019-02-24T23:13:40Z</time>
      </trkpt>
      <trkpt lat="37.880832" lon="-6.084409">
        <ele>465.730</ele>
        <time>2019-02-24T23:13:49Z</time>
      </trkpt>
      <trkpt lat="37.880872" lon="-6.084449">
        <ele>465.737</ele>
        <time>2019-02-24T23:13:50Z</time>
      </trkpt>
      <trkpt lat="37.880913" lon="-6.084483">
        <ele>465.749</ele>
        <time>2019-02-24T23:13:51Z</time>
      </trkpt>
      <trkpt lat="37.881179" lon="-6.084810">
        <ele>465.313</ele>
        <time>2019-02-24T23:14:00Z</time>
      </trkpt>
      <trkpt lat="37.881207" lon="-6.084855">
        <ele>465.208</ele>
        <time>2019-02-24T23:14:01Z</time>
      </trkpt>
      <trkpt lat="37.881236" lon="-6.084901">
        <ele>465.036</ele>
        <time>2019-02-24T23:14:02Z</time>
      </trkpt>
      <trkpt lat="37.881398" lon="-6.085213">
        <ele>464.077</ele>
        <time>2019-02-24T23:14:08Z</time>
      </trkpt>
      <trkpt lat="37.881421" lon="-6.085276">
        <ele>464.098</ele>
        <time>2019-02-24T23:14:09Z</time>
      </trkpt>
      <trkpt lat="37.881446" lon="-6.085337">
        <ele>463.967</ele>
        <time>2019-02-24T23:14:10Z</time>
      </trkpt>
      <trkpt lat="37.881528" lon="-6.085502">
        <ele>463.891</ele>
        <time>2019-02-24T23:14:13Z</time>
      </trkpt>
      <trkpt lat="37.881561" lon="-6.085550">
        <ele>463.814</ele>
        <time>2019-02-24T23:14:14Z</time>
      </trkpt>
      <trkpt lat="37.881709" lon="-6.085747">
        <ele>463.863</ele>
        <time>2019-02-24T23:14:18Z</time>
      </trkpt>
      <trkpt lat="37.881753" lon="-6.085788">
        <ele>463.852</ele>
        <time>2019-02-24T23:14:19Z</time>
      </trkpt>
      <trkpt lat="37.881801" lon="-6.085820">
        <ele>463.863</ele>
        <time>2019-02-24T23:14:20Z</time>
      </trkpt>
      <trkpt lat="37.881849" lon="-6.085841">
        <ele>463.844</ele>
        <time>2019-02-24T23:14:21Z</time>
      </trkpt>
      <trkpt lat="37.881895" lon="-6.085860">
        <ele>463.818</ele>
        <time>2019-02-24T23:14:22Z</time>
      </trkpt>
      <trkpt lat="37.882238" lon="-6.086009">
        <ele>463.908</ele>
        <time>2019-02-24T23:14:33Z</time>
      </trkpt>
      <trkpt lat="37.882482" lon="-6.085946">
        <ele>463.859</ele>
        <time>2019-02-24T23:14:40Z</time>
      </trkpt>
      <trkpt lat="37.882519" lon="-6.085915">
        <ele>463.770</ele>
        <time>2019-02-24T23:14:41Z</time>
      </trkpt>
      <trkpt lat="37.882555" lon="-6.085878">
        <ele>463.731</ele>
        <time>2019-02-24T23:14:42Z</time>
      </trkpt>
      <trkpt lat="37.882620" lon="-6.085802">
        <ele>463.540</ele>
        <time>2019-02-24T23:14:44Z</time>
      </trkpt>
      <trkpt lat="37.882685" lon="-6.085737">
        <ele>463.324</ele>
        <time>2019-02-24T23:14:46Z</time>
      </trkpt>
      <trkpt lat="37.882797" lon="-6.085578">
        <ele>462.537</ele>
        <time>2019-02-24T23:14:50Z</time>
      </trkpt>
      <trkpt lat="37.882817" lon="-6.085532">
        <ele>462.386</ele>
        <time>2019-02-24T23:14:51Z</time>
      </trkpt>
      <trkpt lat="37.882835" lon="-6.085484">
        <ele>462.125</ele>
        <time>2019-02-24T23:14:52Z</time>
      </trkpt>
      <trkpt lat="37.882847" lon="-6.085438">
        <ele>462.167</ele>
        <time>2019-02-24T23:14:53Z</time>
      </trkpt>
      <trkpt lat="37.882855" lon="-6.085393">
        <ele>462.281</ele>
        <time>2019-02-24T23:14:54Z</time>
      </trkpt>
      <trkpt lat="37.882863" lon="-6.085348">
        <ele>462.319</ele>
        <time>2019-02-24T23:14:55Z</time>
      </trkpt>
      <trkpt lat="37.882868" lon="-6.085301">
        <ele>462.408</ele>
        <time>2019-02-24T23:14:56Z</time>
      </trkpt>
      <trkpt lat="37.882870" lon="-6.085255">
        <ele>462.539</ele>
        <time>2019-02-24T23:14:57Z</time>
      </trkpt>
      <trkpt lat="37.882865" lon="-6.084740">
        <ele>463.490</ele>
        <time>2019-02-24T23:15:08Z</time>
      </trkpt>
      <trkpt lat="37.882847" lon="-6.084629">
        <ele>463.621</ele>
        <time>2019-02-24T23:15:10Z</time>
      </trkpt>
      <trkpt lat="37.882831" lon="-6.084575">
        <ele>463.790</ele>
        <time>2019-02-24T23:15:11Z</time>
      </trkpt>
      <trkpt lat="37.882620" lon="-6.084148">
        <ele>465.374</ele>
        <time>2019-02-24T23:15:23Z</time>
      </trkpt>
      <trkpt lat="37.882525" lon="-6.083687">
        <ele>467.957</ele>
        <time>2019-02-24T23:15:39Z</time>
      </trkpt>
      <trkpt lat="37.882496" lon="-6.083193">
        <ele>470.346</ele>
        <time>2019-02-24T23:15:55Z</time>
      </trkpt>
      <trkpt lat="37.882524" lon="-6.082595">
        <ele>472.265</ele>
        <time>2019-02-24T23:16:11Z</time>
      </trkpt>
      <trkpt lat="37.882538" lon="-6.082083">
        <ele>472.126</ele>
        <time>2019-02-24T23:16:23Z</time>
      </trkpt>
      <trkpt lat="37.882558" lon="-6.081968">
        <ele>471.947</ele>
        <time>2019-02-24T23:16:25Z</time>
      </trkpt>
      <trkpt lat="37.882659" lon="-6.081322">
        <ele>468.011</ele>
        <time>2019-02-24T23:16:32Z</time>
      </trkpt>
      <trkpt lat="37.882660" lon="-6.081222">
        <ele>467.108</ele>
        <time>2019-02-24T23:16:33Z</time>
      </trkpt>
      <trkpt lat="37.882611" lon="-6.080742">
        <ele>466.375</ele>
        <time>2019-02-24T23:16:39Z</time>
      </trkpt>
      <trkpt lat="37.882569" lon="-6.080488">
        <ele>467.156</ele>
        <time>2019-02-24T23:16:48Z</time>
      </trkpt>
      <trkpt lat="37.882396" lon="-6.080065">
        <ele>470.727</ele>
        <time>2019-02-24T23:17:04Z</time>
      </trkpt>
      <trkpt lat="37.882257" lon="-6.079655">
        <ele>473.316</ele>
        <time>2019-02-24T23:17:21Z</time>
      </trkpt>
      <trkpt lat="37.882167" lon="-6.079322">
        <ele>476.420</ele>
        <time>2019-02-24T23:17:37Z</time>
      </trkpt>
      <trkpt lat="37.882140" lon="-6.079248">
        <ele>477.283</ele>
        <time>2019-02-24T23:17:46Z</time>
      </trkpt>
      <trkpt lat="37.881963" lon="-6.078808">
        <ele>482.522</ele>
        <time>2019-02-24T23:18:53Z</time>
      </trkpt>
      <trkpt lat="37.881920" lon="-6.078684">
        <ele>484.241</ele>
        <time>2019-02-24T23:19:06Z</time>
      </trkpt>
      <trkpt lat="37.881956" lon="-6.078770">
        <ele>485.299</ele>
        <time>2019-02-24T23:19:32Z</time>
      </trkpt>
      <trkpt lat="37.882154" lon="-6.079306">
        <ele>478.107</ele>
        <time>2019-02-24T23:19:43Z</time>
      </trkpt>
      <trkpt lat="37.882274" lon="-6.079679">
        <ele>474.227</ele>
        <time>2019-02-24T23:19:49Z</time>
      </trkpt>
      <trkpt lat="37.882384" lon="-6.080067">
        <ele>471.508</ele>
        <time>2019-02-24T23:19:55Z</time>
      </trkpt>
      <trkpt lat="37.882541" lon="-6.080456">
        <ele>468.482</ele>
        <time>2019-02-24T23:20:02Z</time>
      </trkpt>
      <trkpt lat="37.882605" lon="-6.080739">
        <ele>466.563</ele>
        <time>2019-02-24T23:20:10Z</time>
      </trkpt>
      <trkpt lat="37.882663" lon="-6.081209">
        <ele>466.534</ele>
        <time>2019-02-24T23:20:20Z</time>
      </trkpt>
      <trkpt lat="37.882633" lon="-6.081650">
        <ele>470.163</ele>
        <time>2019-02-24T23:20:34Z</time>
      </trkpt>
      <trkpt lat="37.882592" lon="-6.081866">
        <ele>471.317</ele>
        <time>2019-02-24T23:20:46Z</time>
      </trkpt>
      <trkpt lat="37.882534" lon="-6.082090">
        <ele>472.030</ele>
        <time>2019-02-24T23:21:06Z</time>
      </trkpt>
      <trkpt lat="37.882525" lon="-6.082293">
        <ele>472.389</ele>
        <time>2019-02-24T23:21:22Z</time>
      </trkpt>
      <trkpt lat="37.882527" lon="-6.082728">
        <ele>472.188</ele>
        <time>2019-02-24T23:21:35Z</time>
      </trkpt>
      <trkpt lat="37.882510" lon="-6.083160">
        <ele>470.694</ele>
        <time>2019-02-24T23:21:45Z</time>
      </trkpt>
      <trkpt lat="37.882526" lon="-6.083677">
        <ele>468.157</ele>
        <time>2019-02-24T23:21:54Z</time>
      </trkpt>
      <trkpt lat="37.882572" lon="-6.084060">
        <ele>466.022</ele>
        <time>2019-02-24T23:22:00Z</time>
      </trkpt>
      <trkpt lat="37.882594" lon="-6.084119">
        <ele>465.508</ele>
        <time>2019-02-24T23:22:01Z</time>
      </trkpt>
      <trkpt lat="37.882622" lon="-6.084177">
        <ele>465.222</ele>
        <time>2019-02-24T23:22:02Z</time>
      </trkpt>
      <trkpt lat="37.882737" lon="-6.084384">
        <ele>464.373</ele>
        <time>2019-02-24T23:22:06Z</time>
      </trkpt>
      <trkpt lat="37.882816" lon="-6.084569">
        <ele>463.764</ele>
        <time>2019-02-24T23:22:10Z</time>
      </trkpt>
      <trkpt lat="37.882843" lon="-6.084663">
        <ele>463.563</ele>
        <time>2019-02-24T23:22:12Z</time>
      </trkpt>
      <trkpt lat="37.882867" lon="-6.085239">
        <ele>462.497</ele>
        <time>2019-02-24T23:22:25Z</time>
      </trkpt>
      <trkpt lat="37.882881" lon="-6.085430">
        <ele>461.990</ele>
        <time>2019-02-24T23:22:30Z</time>
      </trkpt>
      <trkpt lat="37.882902" lon="-6.085450">
        <ele>461.869</ele>
        <time>2019-02-24T23:22:31Z</time>
      </trkpt>
      <trkpt lat="37.882925" lon="-6.085458">
        <ele>461.788</ele>
        <time>2019-02-24T23:22:32Z</time>
      </trkpt>
      <trkpt lat="37.882999" lon="-6.085470">
        <ele>461.278</ele>
        <time>2019-02-24T23:22:39Z</time>
      </trkpt>
      <trkpt lat="37.883067" lon="-6.085453">
        <ele>461.033</ele>
        <time>2019-02-24T23:23:27Z</time>
      </trkpt>
      <trkpt lat="37.883241" lon="-6.085431">
        <ele>460.526</ele>
        <time>2019-02-24T23:23:32Z</time>
      </trkpt>
      <trkpt lat="37.883361" lon="-6.085390">
        <ele>460.208</ele>
        <time>2019-02-24T23:23:35Z</time>
      </trkpt>
      <trkpt lat="37.883404" lon="-6.085366">
        <ele>460.030</ele>
        <time>2019-02-24T23:23:36Z</time>
      </trkpt>
      <trkpt lat="37.883449" lon="-6.085335">
        <ele>459.951</ele>
        <time>2019-02-24T23:23:37Z</time>
      </trkpt>
      <trkpt lat="37.883535" lon="-6.085261">
        <ele>459.692</ele>
        <time>2019-02-24T23:23:39Z</time>
      </trkpt>
      <trkpt lat="37.883781" lon="-6.085026">
        <ele>458.231</ele>
        <time>2019-02-24T23:23:45Z</time>
      </trkpt>
      <trkpt lat="37.883921" lon="-6.084918">
        <ele>457.375</ele>
        <time>2019-02-24T23:23:49Z</time>
      </trkpt>
      <trkpt lat="37.883951" lon="-6.084875">
        <ele>457.118</ele>
        <time>2019-02-24T23:23:50Z</time>
      </trkpt>
      <trkpt lat="37.883978" lon="-6.084823">
        <ele>456.977</ele>
        <time>2019-02-24T23:23:51Z</time>
      </trkpt>
      <trkpt lat="37.884257" lon="-6.084335">
        <ele>455.836</ele>
        <time>2019-02-24T23:24:00Z</time>
      </trkpt>
      <trkpt lat="37.884537" lon="-6.084072">
        <ele>455.294</ele>
        <time>2019-02-24T23:24:08Z</time>
      </trkpt>
      <trkpt lat="37.885075" lon="-6.083564">
        <ele>454.157</ele>
        <time>2019-02-24T23:24:21Z</time>
      </trkpt>
      <trkpt lat="37.885102" lon="-6.083521">
        <ele>454.022</ele>
        <time>2019-02-24T23:24:22Z</time>
      </trkpt>
      <trkpt lat="37.885124" lon="-6.083473">
        <ele>454.008</ele>
        <time>2019-02-24T23:24:23Z</time>
      </trkpt>
      <trkpt lat="37.885241" lon="-6.082937">
        <ele>454.292</ele>
        <time>2019-02-24T23:24:36Z</time>
      </trkpt>
      <trkpt lat="37.885349" lon="-6.082545">
        <ele>455.393</ele>
        <time>2019-02-24T23:24:48Z</time>
      </trkpt>
      <trkpt lat="37.885355" lon="-6.082523">
        <ele>455.474</ele>
        <time>2019-02-24T23:24:49Z</time>
      </trkpt>
      <trkpt lat="37.885364" lon="-6.082498">
        <ele>455.513</ele>
        <time>2019-02-24T23:24:50Z</time>
      </trkpt>
      <trkpt lat="37.885476" lon="-6.082184">
        <ele>457.737</ele>
        <time>2019-02-24T23:25:03Z</time>
      </trkpt>
      <trkpt lat="37.885480" lon="-6.082183">
        <ele>457.750</ele>
        <time>2019-02-24T23:25:05Z</time>
      </trkpt>
      <trkpt lat="37.885582" lon="-6.082222">
        <ele>458.279</ele>
        <time>2019-02-24T23:25:20Z</time>
      </trkpt>
      <trkpt lat="37.885965" lon="-6.082417">
        <ele>459.848</ele>
        <time>2019-02-24T23:25:31Z</time>
      </trkpt>
      <trkpt lat="37.886127" lon="-6.082462">
        <ele>460.554</ele>
        <time>2019-02-24T23:25:38Z</time>
      </trkpt>
      <trkpt lat="37.886146" lon="-6.082444">
        <ele>460.656</ele>
        <time>2019-02-24T23:25:39Z</time>
      </trkpt>
      <trkpt lat="37.886167" lon="-6.082424">
        <ele>460.711</ele>
        <time>2019-02-24T23:25:40Z</time>
      </trkpt>
      <trkpt lat="37.886187" lon="-6.082405">
        <ele>460.808</ele>
        <time>2019-02-24T23:25:41Z</time>
      </trkpt>
      <trkpt lat="37.886206" lon="-6.082383">
        <ele>460.998</ele>
        <time>2019-02-24T23:25:42Z</time>
      </trkpt>
      <trkpt lat="37.886364" lon="-6.082218">
        <ele>461.899</ele>
        <time>2019-02-24T23:25:52Z</time>
      </trkpt>
      <trkpt lat="37.886423" lon="-6.082182">
        <ele>462.020</ele>
        <time>2019-02-24T23:26:00Z</time>
      </trkpt>
      <trkpt lat="37.886587" lon="-6.082110">
        <ele>462.459</ele>
        <time>2019-02-24T23:27:24Z</time>
      </trkpt>
      <trkpt lat="37.886613" lon="-6.082108">
        <ele>462.463</ele>
        <time>2019-02-24T23:27:25Z</time>
      </trkpt>
      <trkpt lat="37.886642" lon="-6.082102">
        <ele>462.516</ele>
        <time>2019-02-24T23:27:26Z</time>
      </trkpt>
      <trkpt lat="37.886669" lon="-6.082091">
        <ele>462.645</ele>
        <time>2019-02-24T23:27:27Z</time>
      </trkpt>
      <trkpt lat="37.886696" lon="-6.082074">
        <ele>462.694</ele>
        <time>2019-02-24T23:27:28Z</time>
      </trkpt>
      <trkpt lat="37.886722" lon="-6.082051">
        <ele>462.722</ele>
        <time>2019-02-24T23:27:29Z</time>
      </trkpt>
      <trkpt lat="37.886748" lon="-6.082028">
        <ele>462.862</ele>
        <time>2019-02-24T23:27:30Z</time>
      </trkpt>
      <trkpt lat="37.887047" lon="-6.081912">
        <ele>463.908</ele>
        <time>2019-02-24T23:27:41Z</time>
      </trkpt>
      <trkpt lat="37.887318" lon="-6.081860">
        <ele>464.708</ele>
        <time>2019-02-24T23:27:52Z</time>
      </trkpt>
      <trkpt lat="37.887717" lon="-6.081951">
        <ele>465.475</ele>
        <time>2019-02-24T23:28:07Z</time>
      </trkpt>
      <trkpt lat="37.888050" lon="-6.081887">
        <ele>465.436</ele>
        <time>2019-02-24T23:28:18Z</time>
      </trkpt>
      <trkpt lat="37.888270" lon="-6.081866">
        <ele>465.167</ele>
        <time>2019-02-24T23:28:27Z</time>
      </trkpt>
      <trkpt lat="37.888274" lon="-6.081861">
        <ele>465.136</ele>
        <time>2019-02-24T23:28:30Z</time>
      </trkpt>
      <trkpt lat="37.888328" lon="-6.081876">
        <ele>465.080</ele>
        <time>2019-02-24T23:28:56Z</time>
      </trkpt>
      <trkpt lat="37.888349" lon="-6.081874">
        <ele>465.023</ele>
        <time>2019-02-24T23:28:57Z</time>
      </trkpt>
      <trkpt lat="37.888373" lon="-6.081864">
        <ele>465.042</ele>
        <time>2019-02-24T23:28:58Z</time>
      </trkpt>
      <trkpt lat="37.888397" lon="-6.081845">
        <ele>465.041</ele>
        <time>2019-02-24T23:28:59Z</time>
      </trkpt>
      <trkpt lat="37.888415" lon="-6.081822">
        <ele>464.974</ele>
        <time>2019-02-24T23:29:00Z</time>
      </trkpt>
      <trkpt lat="37.888431" lon="-6.081796">
        <ele>464.956</ele>
        <time>2019-02-24T23:29:01Z</time>
      </trkpt>
      <trkpt lat="37.888636" lon="-6.081498">
        <ele>465.321</ele>
        <time>2019-02-24T23:29:12Z</time>
      </trkpt>
      <trkpt lat="37.888868" lon="-6.081074">
        <ele>467.008</ele>
        <time>2019-02-24T23:29:29Z</time>
      </trkpt>
      <trkpt lat="37.889130" lon="-6.080687">
        <ele>468.490</ele>
        <time>2019-02-24T23:29:43Z</time>
      </trkpt>
      <trkpt lat="37.889302" lon="-6.080440">
        <ele>469.141</ele>
        <time>2019-02-24T23:29:55Z</time>
      </trkpt>
      <trkpt lat="37.889302" lon="-6.080440">
        <ele>469.162</ele>
        <time>2019-02-24T23:29:56Z</time>
      </trkpt>
      <trkpt lat="37.889340" lon="-6.080371">
        <ele>469.261</ele>
        <time>2019-02-24T23:30:08Z</time>
      </trkpt>
      <trkpt lat="37.889385" lon="-6.080224">
        <ele>469.995</ele>
        <time>2019-02-24T23:30:18Z</time>
      </trkpt>
      <trkpt lat="37.889419" lon="-6.080143">
        <ele>470.338</ele>
        <time>2019-02-24T23:30:51Z</time>
      </trkpt>
      <trkpt lat="37.889482" lon="-6.079798">
        <ele>469.917</ele>
        <time>2019-02-24T23:31:03Z</time>
      </trkpt>
      <trkpt lat="37.889521" lon="-6.079429">
        <ele>469.956</ele>
        <time>2019-02-24T23:31:16Z</time>
      </trkpt>
      <trkpt lat="37.889593" lon="-6.078995">
        <ele>469.614</ele>
        <time>2019-02-24T23:31:26Z</time>
      </trkpt>
      <trkpt lat="37.889626" lon="-6.078731">
        <ele>467.254</ele>
        <time>2019-02-24T23:31:35Z</time>
      </trkpt>
      <trkpt lat="37.889627" lon="-6.078729">
        <ele>467.209</ele>
        <time>2019-02-24T23:31:37Z</time>
      </trkpt>
      <trkpt lat="37.889612" lon="-6.078797">
        <ele>468.308</ele>
        <time>2019-02-24T23:31:55Z</time>
      </trkpt>
      <trkpt lat="37.889596" lon="-6.078893">
        <ele>469.134</ele>
        <time>2019-02-24T23:32:00Z</time>
      </trkpt>
      <trkpt lat="37.889549" lon="-6.079215">
        <ele>470.265</ele>
        <time>2019-02-24T23:32:13Z</time>
      </trkpt>
      <trkpt lat="37.889507" lon="-6.079567">
        <ele>469.996</ele>
        <time>2019-02-24T23:32:25Z</time>
      </trkpt>
      <trkpt lat="37.889425" lon="-6.080079">
        <ele>470.685</ele>
        <time>2019-02-24T23:32:39Z</time>
      </trkpt>
      <trkpt lat="37.889321" lon="-6.080395">
        <ele>469.359</ele>
        <time>2019-02-24T23:32:51Z</time>
      </trkpt>
      <trkpt lat="37.889344" lon="-6.080427">
        <ele>469.622</ele>
        <time>2019-02-24T23:32:55Z</time>
      </trkpt>
      <trkpt lat="37.889382" lon="-6.080461">
        <ele>469.941</ele>
        <time>2019-02-24T23:32:58Z</time>
      </trkpt>
      <trkpt lat="37.889398" lon="-6.080464">
        <ele>469.990</ele>
        <time>2019-02-24T23:32:59Z</time>
      </trkpt>
      <trkpt lat="37.889534" lon="-6.080486">
        <ele>471.749</ele>
        <time>2019-02-24T23:33:06Z</time>
      </trkpt>
      <trkpt lat="37.889650" lon="-6.080408">
        <ele>473.302</ele>
        <time>2019-02-24T23:33:12Z</time>
      </trkpt>
      <trkpt lat="37.889762" lon="-6.080334">
        <ele>474.722</ele>
        <time>2019-02-24T23:33:22Z</time>
      </trkpt>
      <trkpt lat="37.890063" lon="-6.080204">
        <ele>476.208</ele>
        <time>2019-02-24T23:33:55Z</time>
      </trkpt>
      <trkpt lat="37.890233" lon="-6.080115">
        <ele>476.657</ele>
        <time>2019-02-24T23:34:14Z</time>
      </trkpt>
      <trkpt lat="37.890371" lon="-6.080079">
        <ele>476.468</ele>
        <time>2019-02-24T23:34:31Z</time>
      </trkpt>
      <trkpt lat="37.890428" lon="-6.080087">
        <ele>476.389</ele>
        <time>2019-02-24T23:34:40Z</time>
      </trkpt>
      <trkpt lat="37.890684" lon="-6.080244">
        <ele>476.528</ele>
        <time>2019-02-24T23:34:52Z</time>
      </trkpt>
      <trkpt lat="37.890831" lon="-6.080381">
        <ele>476.612</ele>
        <time>2019-02-24T23:35:05Z</time>
      </trkpt>
      <trkpt lat="37.890862" lon="-6.080420">
        <ele>476.725</ele>
        <time>2019-02-24T23:35:12Z</time>
      </trkpt>
      <trkpt lat="37.890896" lon="-6.080458">
        <ele>476.814</ele>
        <time>2019-02-24T23:35:17Z</time>
      </trkpt>
      <trkpt lat="37.891214" lon="-6.080587">
        <ele>477.823</ele>
        <time>2019-02-24T23:35:29Z</time>
      </trkpt>
      <trkpt lat="37.891259" lon="-6.080590">
        <ele>477.923</ele>
        <time>2019-02-24T23:35:30Z</time>
      </trkpt>
      <trkpt lat="37.891531" lon="-6.080522">
        <ele>476.883</ele>
        <time>2019-02-24T23:35:35Z</time>
      </trkpt>
      <trkpt lat="37.891642" lon="-6.080439">
        <ele>475.811</ele>
        <time>2019-02-24T23:35:42Z</time>
      </trkpt>
      <trkpt lat="37.891741" lon="-6.080345">
        <ele>473.808</ele>
        <time>2019-02-24T23:35:58Z</time>
      </trkpt>
      <trkpt lat="37.891932" lon="-6.080345">
        <ele>470.545</ele>
        <time>2019-02-24T23:36:09Z</time>
      </trkpt>
      <trkpt lat="37.892074" lon="-6.080394">
        <ele>469.466</ele>
        <time>2019-02-24T23:36:17Z</time>
      </trkpt>
      <trkpt lat="37.892176" lon="-6.080230">
        <ele>469.867</ele>
        <time>2019-02-24T23:36:25Z</time>
      </trkpt>
      <trkpt lat="37.892298" lon="-6.080123">
        <ele>470.166</ele>
        <time>2019-02-24T23:36:36Z</time>
      </trkpt>
      <trkpt lat="37.892370" lon="-6.080087">
        <ele>469.560</ele>
        <time>2019-02-24T23:37:55Z</time>
      </trkpt>
      <trkpt lat="37.892640" lon="-6.080189">
        <ele>466.743</ele>
        <time>2019-02-24T23:38:05Z</time>
      </trkpt>
      <trkpt lat="37.892962" lon="-6.080429">
        <ele>469.162</ele>
        <time>2019-02-24T23:38:19Z</time>
      </trkpt>
      <trkpt lat="37.893245" lon="-6.080662">
        <ele>470.281</ele>
        <time>2019-02-24T23:38:33Z</time>
      </trkpt>
      <trkpt lat="37.893534" lon="-6.080805">
        <ele>470.245</ele>
        <time>2019-02-24T23:38:48Z</time>
      </trkpt>
      <trkpt lat="37.893798" lon="-6.081009">
        <ele>466.947</ele>
        <time>2019-02-24T23:38:58Z</time>
      </trkpt>
      <trkpt lat="37.893935" lon="-6.081284">
        <ele>465.611</ele>
        <time>2019-02-24T23:39:09Z</time>
      </trkpt>
      <trkpt lat="37.894089" lon="-6.081521">
        <ele>465.208</ele>
        <time>2019-02-24T23:39:19Z</time>
      </trkpt>
      <trkpt lat="37.894153" lon="-6.081531">
        <ele>465.367</ele>
        <time>2019-02-24T23:39:26Z</time>
      </trkpt>
      <trkpt lat="37.894258" lon="-6.081538">
        <ele>465.518</ele>
        <time>2019-02-24T23:39:55Z</time>
      </trkpt>
      <trkpt lat="37.894374" lon="-6.081713">
        <ele>466.549</ele>
        <time>2019-02-24T23:40:03Z</time>
      </trkpt>
      <trkpt lat="37.894410" lon="-6.081737">
        <ele>466.728</ele>
        <time>2019-02-24T23:40:05Z</time>
      </trkpt>
      <trkpt lat="37.894545" lon="-6.081993">
        <ele>468.482</ele>
        <time>2019-02-24T23:40:17Z</time>
      </trkpt>
      <trkpt lat="37.894666" lon="-6.082412">
        <ele>470.525</ele>
        <time>2019-02-24T23:40:34Z</time>
      </trkpt>
      <trkpt lat="37.894854" lon="-6.082693">
        <ele>470.654</ele>
        <time>2019-02-24T23:40:47Z</time>
      </trkpt>
      <trkpt lat="37.894868" lon="-6.082716">
        <ele>470.683</ele>
        <time>2019-02-24T23:40:48Z</time>
      </trkpt>
      <trkpt lat="37.894884" lon="-6.082736">
        <ele>470.513</ele>
        <time>2019-02-24T23:40:49Z</time>
      </trkpt>
      <trkpt lat="37.895150" lon="-6.082963">
        <ele>470.643</ele>
        <time>2019-02-24T23:41:05Z</time>
      </trkpt>
      <trkpt lat="37.895470" lon="-6.083112">
        <ele>470.907</ele>
        <time>2019-02-24T23:41:17Z</time>
      </trkpt>
      <trkpt lat="37.895635" lon="-6.083481">
        <ele>471.908</ele>
        <time>2019-02-24T23:41:29Z</time>
      </trkpt>
      <trkpt lat="37.895876" lon="-6.084012">
        <ele>473.414</ele>
        <time>2019-02-24T23:41:46Z</time>
      </trkpt>
      <trkpt lat="37.896148" lon="-6.084539">
        <ele>474.835</ele>
        <time>2019-02-24T23:41:59Z</time>
      </trkpt>
      <trkpt lat="37.896202" lon="-6.084626">
        <ele>475.066</ele>
        <time>2019-02-24T23:42:01Z</time>
      </trkpt>
      <trkpt lat="37.896218" lon="-6.084671">
        <ele>475.095</ele>
        <time>2019-02-24T23:42:02Z</time>
      </trkpt>
      <trkpt lat="37.896228" lon="-6.084718">
        <ele>475.139</ele>
        <time>2019-02-24T23:42:03Z</time>
      </trkpt>
      <trkpt lat="37.896233" lon="-6.084765">
        <ele>475.182</ele>
        <time>2019-02-24T23:42:04Z</time>
      </trkpt>
      <trkpt lat="37.896236" lon="-6.084809">
        <ele>475.171</ele>
        <time>2019-02-24T23:42:05Z</time>
      </trkpt>
      <trkpt lat="37.896360" lon="-6.085460">
        <ele>477.030</ele>
        <time>2019-02-24T23:42:21Z</time>
      </trkpt>
      <trkpt lat="37.896580" lon="-6.086272">
        <ele>476.034</ele>
        <time>2019-02-24T23:42:39Z</time>
      </trkpt>
      <trkpt lat="37.896792" lon="-6.086921">
        <ele>476.755</ele>
        <time>2019-02-24T23:42:56Z</time>
      </trkpt>
      <trkpt lat="37.896960" lon="-6.087431">
        <ele>479.110</ele>
        <time>2019-02-24T23:43:11Z</time>
      </trkpt>
      <trkpt lat="37.897036" lon="-6.087789">
        <ele>480.308</ele>
        <time>2019-02-24T23:43:25Z</time>
      </trkpt>
      <trkpt lat="37.897034" lon="-6.088157">
        <ele>481.666</ele>
        <time>2019-02-24T23:43:38Z</time>
      </trkpt>
      <trkpt lat="37.897045" lon="-6.088672">
        <ele>484.687</ele>
        <time>2019-02-24T23:43:52Z</time>
      </trkpt>
      <trkpt lat="37.897117" lon="-6.089090">
        <ele>486.228</ele>
        <time>2019-02-24T23:44:04Z</time>
      </trkpt>
      <trkpt lat="37.897260" lon="-6.089637">
        <ele>487.797</ele>
        <time>2019-02-24T23:44:20Z</time>
      </trkpt>
      <trkpt lat="37.897289" lon="-6.090125">
        <ele>489.561</ele>
        <time>2019-02-24T23:44:34Z</time>
      </trkpt>
      <trkpt lat="37.897463" lon="-6.090570">
        <ele>490.314</ele>
        <time>2019-02-24T23:44:49Z</time>
      </trkpt>
      <trkpt lat="37.897504" lon="-6.090968">
        <ele>490.943</ele>
        <time>2019-02-24T23:45:00Z</time>
      </trkpt>
      <trkpt lat="37.897521" lon="-6.091385">
        <ele>492.092</ele>
        <time>2019-02-24T23:45:14Z</time>
      </trkpt>
      <trkpt lat="37.897614" lon="-6.091873">
        <ele>494.151</ele>
        <time>2019-02-24T23:45:30Z</time>
      </trkpt>
      <trkpt lat="37.897772" lon="-6.092457">
        <ele>496.701</ele>
        <time>2019-02-24T23:45:48Z</time>
      </trkpt>
      <trkpt lat="37.897885" lon="-6.092917">
        <ele>498.211</ele>
        <time>2019-02-24T23:46:04Z</time>
      </trkpt>
      <trkpt lat="37.897937" lon="-6.093377">
        <ele>499.808</ele>
        <time>2019-02-24T23:46:20Z</time>
      </trkpt>
      <trkpt lat="37.897946" lon="-6.093874">
        <ele>502.068</ele>
        <time>2019-02-24T23:46:39Z</time>
      </trkpt>
      <trkpt lat="37.897952" lon="-6.094293">
        <ele>504.249</ele>
        <time>2019-02-24T23:46:56Z</time>
      </trkpt>
      <trkpt lat="37.898018" lon="-6.094694">
        <ele>506.450</ele>
        <time>2019-02-24T23:47:13Z</time>
      </trkpt>
      <trkpt lat="37.898068" lon="-6.095237">
        <ele>507.989</ele>
        <time>2019-02-24T23:47:22Z</time>
      </trkpt>
      <trkpt lat="37.898101" lon="-6.096047">
        <ele>505.783</ele>
        <time>2019-02-24T23:47:30Z</time>
      </trkpt>
      <trkpt lat="37.898169" lon="-6.096620">
        <ele>501.866</ele>
        <time>2019-02-24T23:47:36Z</time>
      </trkpt>
      <trkpt lat="37.898456" lon="-6.097209">
        <ele>497.875</ele>
        <time>2019-02-24T23:47:45Z</time>
      </trkpt>
      <trkpt lat="37.898544" lon="-6.097373">
        <ele>496.744</ele>
        <time>2019-02-24T23:47:48Z</time>
      </trkpt>
      <trkpt lat="37.898775" lon="-6.097887">
        <ele>496.846</ele>
        <time>2019-02-24T23:48:00Z</time>
      </trkpt>
      <trkpt lat="37.898777" lon="-6.097939">
        <ele>496.988</ele>
        <time>2019-02-24T23:48:01Z</time>
      </trkpt>
      <trkpt lat="37.898767" lon="-6.098106">
        <ele>497.016</ele>
        <time>2019-02-24T23:48:04Z</time>
      </trkpt>
      <trkpt lat="37.898754" lon="-6.098170">
        <ele>497.208</ele>
        <time>2019-02-24T23:48:05Z</time>
      </trkpt>
      <trkpt lat="37.898737" lon="-6.098239">
        <ele>497.847</ele>
        <time>2019-02-24T23:48:06Z</time>
      </trkpt>
      <trkpt lat="37.898710" lon="-6.098382">
        <ele>498.278</ele>
        <time>2019-02-24T23:48:08Z</time>
      </trkpt>
      <trkpt lat="37.898704" lon="-6.098456">
        <ele>498.279</ele>
        <time>2019-02-24T23:48:09Z</time>
      </trkpt>
      <trkpt lat="37.898832" lon="-6.099211">
        <ele>495.238</ele>
        <time>2019-02-24T23:48:19Z</time>
      </trkpt>
      <trkpt lat="37.898925" lon="-6.099665">
        <ele>492.022</ele>
        <time>2019-02-24T23:48:30Z</time>
      </trkpt>
      <trkpt lat="37.898926" lon="-6.099662">
        <ele>492.045</ele>
        <time>2019-02-24T23:48:32Z</time>
      </trkpt>
      <trkpt lat="37.898950" lon="-6.099804">
        <ele>491.564</ele>
        <time>2019-02-24T23:49:19Z</time>
      </trkpt>
      <trkpt lat="37.898962" lon="-6.099991">
        <ele>491.173</ele>
        <time>2019-02-24T23:49:22Z</time>
      </trkpt>
      <trkpt lat="37.898957" lon="-6.100062">
        <ele>491.152</ele>
        <time>2019-02-24T23:49:23Z</time>
      </trkpt>
      <trkpt lat="37.898953" lon="-6.100136">
        <ele>491.053</ele>
        <time>2019-02-24T23:49:24Z</time>
      </trkpt>
      <trkpt lat="37.898958" lon="-6.100212">
        <ele>490.808</ele>
        <time>2019-02-24T23:49:25Z</time>
      </trkpt>
      <trkpt lat="37.898973" lon="-6.100291">
        <ele>490.608</ele>
        <time>2019-02-24T23:49:26Z</time>
      </trkpt>
      <trkpt lat="37.898987" lon="-6.100370">
        <ele>490.238</ele>
        <time>2019-02-24T23:49:27Z</time>
      </trkpt>
      <trkpt lat="37.898997" lon="-6.100448">
        <ele>489.839</ele>
        <time>2019-02-24T23:49:28Z</time>
      </trkpt>
      <trkpt lat="37.899003" lon="-6.100661">
        <ele>489.470</ele>
        <time>2019-02-24T23:49:31Z</time>
      </trkpt>
      <trkpt lat="37.899012" lon="-6.100719">
        <ele>489.049</ele>
        <time>2019-02-24T23:49:32Z</time>
      </trkpt>
      <trkpt lat="37.899030" lon="-6.100770">
        <ele>488.683</ele>
        <time>2019-02-24T23:49:33Z</time>
      </trkpt>
      <trkpt lat="37.899054" lon="-6.100819">
        <ele>488.266</ele>
        <time>2019-02-24T23:49:34Z</time>
      </trkpt>
      <trkpt lat="37.899082" lon="-6.100865">
        <ele>487.935</ele>
        <time>2019-02-24T23:49:35Z</time>
      </trkpt>
      <trkpt lat="37.899110" lon="-6.100912">
        <ele>487.544</ele>
        <time>2019-02-24T23:49:36Z</time>
      </trkpt>
      <trkpt lat="37.899135" lon="-6.100962">
        <ele>487.275</ele>
        <time>2019-02-24T23:49:37Z</time>
      </trkpt>
      <trkpt lat="37.899151" lon="-6.101018">
        <ele>487.028</ele>
        <time>2019-02-24T23:49:38Z</time>
      </trkpt>
      <trkpt lat="37.899156" lon="-6.101072">
        <ele>486.820</ele>
        <time>2019-02-24T23:49:39Z</time>
      </trkpt>
      <trkpt lat="37.899156" lon="-6.101125">
        <ele>486.608</ele>
        <time>2019-02-24T23:49:40Z</time>
      </trkpt>
      <trkpt lat="37.899155" lon="-6.101178">
        <ele>486.380</ele>
        <time>2019-02-24T23:49:41Z</time>
      </trkpt>
      <trkpt lat="37.899159" lon="-6.101234">
        <ele>485.961</ele>
        <time>2019-02-24T23:49:42Z</time>
      </trkpt>
      <trkpt lat="37.899169" lon="-6.101292">
        <ele>485.772</ele>
        <time>2019-02-24T23:49:43Z</time>
      </trkpt>
      <trkpt lat="37.899184" lon="-6.101357">
        <ele>485.411</ele>
        <time>2019-02-24T23:49:44Z</time>
      </trkpt>
      <trkpt lat="37.899207" lon="-6.101425">
        <ele>485.025</ele>
        <time>2019-02-24T23:49:45Z</time>
      </trkpt>
      <trkpt lat="37.899235" lon="-6.101496">
        <ele>484.978</ele>
        <time>2019-02-24T23:49:46Z</time>
      </trkpt>
      <trkpt lat="37.899289" lon="-6.101648">
        <ele>484.337</ele>
        <time>2019-02-24T23:49:48Z</time>
      </trkpt>
      <trkpt lat="37.899305" lon="-6.101728">
        <ele>484.456</ele>
        <time>2019-02-24T23:49:49Z</time>
      </trkpt>
      <trkpt lat="37.899310" lon="-6.101806">
        <ele>484.588</ele>
        <time>2019-02-24T23:49:50Z</time>
      </trkpt>
      <trkpt lat="37.899310" lon="-6.102091">
        <ele>484.524</ele>
        <time>2019-02-24T23:49:54Z</time>
      </trkpt>
      <trkpt lat="37.899382" lon="-6.102623">
        <ele>484.026</ele>
        <time>2019-02-24T23:50:02Z</time>
      </trkpt>
      <trkpt lat="37.899384" lon="-6.102686">
        <ele>483.908</ele>
        <time>2019-02-24T23:50:03Z</time>
      </trkpt>
      <trkpt lat="37.899382" lon="-6.102747">
        <ele>483.721</ele>
        <time>2019-02-24T23:50:04Z</time>
      </trkpt>
      <trkpt lat="37.899381" lon="-6.102806">
        <ele>483.472</ele>
        <time>2019-02-24T23:50:05Z</time>
      </trkpt>
      <trkpt lat="37.899383" lon="-6.102864">
        <ele>483.043</ele>
        <time>2019-02-24T23:50:06Z</time>
      </trkpt>
      <trkpt lat="37.899413" lon="-6.103261">
        <ele>482.212</ele>
        <time>2019-02-24T23:50:12Z</time>
      </trkpt>
      <trkpt lat="37.899575" lon="-6.103708">
        <ele>483.096</ele>
        <time>2019-02-24T23:50:21Z</time>
      </trkpt>
      <trkpt lat="37.899588" lon="-6.103797">
        <ele>482.949</ele>
        <time>2019-02-24T23:50:23Z</time>
      </trkpt>
      <trkpt lat="37.899592" lon="-6.103851">
        <ele>482.978</ele>
        <time>2019-02-24T23:50:24Z</time>
      </trkpt>
      <trkpt lat="37.899717" lon="-6.104501">
        <ele>483.857</ele>
        <time>2019-02-24T23:50:36Z</time>
      </trkpt>
      <trkpt lat="37.899721" lon="-6.104553">
        <ele>483.926</ele>
        <time>2019-02-24T23:50:37Z</time>
      </trkpt>
      <trkpt lat="37.899719" lon="-6.104605">
        <ele>484.047</ele>
        <time>2019-02-24T23:50:38Z</time>
      </trkpt>
      <trkpt lat="37.899708" lon="-6.104659">
        <ele>484.111</ele>
        <time>2019-02-24T23:50:39Z</time>
      </trkpt>
      <trkpt lat="37.899694" lon="-6.104721">
        <ele>484.108</ele>
        <time>2019-02-24T23:50:40Z</time>
      </trkpt>
      <trkpt lat="37.899665" lon="-6.104857">
        <ele>483.875</ele>
        <time>2019-02-24T23:50:42Z</time>
      </trkpt>
      <trkpt lat="37.899656" lon="-6.104921">
        <ele>483.756</ele>
        <time>2019-02-24T23:50:43Z</time>
      </trkpt>
      <trkpt lat="37.899654" lon="-6.104981">
        <ele>483.557</ele>
        <time>2019-02-24T23:50:44Z</time>
      </trkpt>
      <trkpt lat="37.899657" lon="-6.105037">
        <ele>483.456</ele>
        <time>2019-02-24T23:50:45Z</time>
      </trkpt>
      <trkpt lat="37.899661" lon="-6.105090">
        <ele>483.540</ele>
        <time>2019-02-24T23:50:46Z</time>
      </trkpt>
      <trkpt lat="37.899737" lon="-6.105727">
        <ele>482.013</ele>
        <time>2019-02-24T23:50:59Z</time>
      </trkpt>
      <trkpt lat="37.899770" lon="-6.105867">
        <ele>480.812</ele>
        <time>2019-02-24T23:51:01Z</time>
      </trkpt>
      <trkpt lat="37.899777" lon="-6.105934">
        <ele>480.351</ele>
        <time>2019-02-24T23:51:02Z</time>
      </trkpt>
      <trkpt lat="37.899806" lon="-6.106439">
        <ele>479.616</ele>
        <time>2019-02-24T23:51:11Z</time>
      </trkpt>
      <trkpt lat="37.899804" lon="-6.106499">
        <ele>479.576</ele>
        <time>2019-02-24T23:51:12Z</time>
      </trkpt>
      <trkpt lat="37.899777" lon="-6.106866">
        <ele>479.813</ele>
        <time>2019-02-24T23:51:18Z</time>
      </trkpt>
      <trkpt lat="37.899771" lon="-6.106977">
        <ele>479.708</ele>
        <time>2019-02-24T23:51:20Z</time>
      </trkpt>
      <trkpt lat="37.899776" lon="-6.107037">
        <ele>479.614</ele>
        <time>2019-02-24T23:51:21Z</time>
      </trkpt>
      <trkpt lat="37.899791" lon="-6.107100">
        <ele>479.365</ele>
        <time>2019-02-24T23:51:22Z</time>
      </trkpt>
      <trkpt lat="37.899813" lon="-6.107164">
        <ele>479.096</ele>
        <time>2019-02-24T23:51:23Z</time>
      </trkpt>
      <trkpt lat="37.899836" lon="-6.107222">
        <ele>478.785</ele>
        <time>2019-02-24T23:51:24Z</time>
      </trkpt>
      <trkpt lat="37.899856" lon="-6.107279">
        <ele>478.669</ele>
        <time>2019-02-24T23:51:25Z</time>
      </trkpt>
      <trkpt lat="37.899864" lon="-6.107342">
        <ele>478.622</ele>
        <time>2019-02-24T23:51:26Z</time>
      </trkpt>
      <trkpt lat="37.899862" lon="-6.107412">
        <ele>478.641</ele>
        <time>2019-02-24T23:51:27Z</time>
      </trkpt>
      <trkpt lat="37.899857" lon="-6.107486">
        <ele>478.410</ele>
        <time>2019-02-24T23:51:28Z</time>
      </trkpt>
      <trkpt lat="37.899855" lon="-6.107561">
        <ele>478.252</ele>
        <time>2019-02-24T23:51:29Z</time>
      </trkpt>
      <trkpt lat="37.899845" lon="-6.107632">
        <ele>478.053</ele>
        <time>2019-02-24T23:51:30Z</time>
      </trkpt>
      <trkpt lat="37.899833" lon="-6.107703">
        <ele>477.908</ele>
        <time>2019-02-24T23:51:31Z</time>
      </trkpt>
      <trkpt lat="37.899744" lon="-6.108617">
        <ele>476.708</ele>
        <time>2019-02-24T23:51:44Z</time>
      </trkpt>
      <trkpt lat="37.899691" lon="-6.109333">
        <ele>474.688</ele>
        <time>2019-02-24T23:51:54Z</time>
      </trkpt>
      <trkpt lat="37.899693" lon="-6.109400">
        <ele>474.459</ele>
        <time>2019-02-24T23:51:55Z</time>
      </trkpt>
      <trkpt lat="37.899694" lon="-6.109477">
        <ele>474.330</ele>
        <time>2019-02-24T23:51:56Z</time>
      </trkpt>
      <trkpt lat="37.899660" lon="-6.109979">
        <ele>472.399</ele>
        <time>2019-02-24T23:52:02Z</time>
      </trkpt>
      <trkpt lat="37.899648" lon="-6.110047">
        <ele>471.963</ele>
        <time>2019-02-24T23:52:03Z</time>
      </trkpt>
      <trkpt lat="37.899627" lon="-6.110176">
        <ele>471.276</ele>
        <time>2019-02-24T23:52:05Z</time>
      </trkpt>
      <trkpt lat="37.899624" lon="-6.110240">
        <ele>471.015</ele>
        <time>2019-02-24T23:52:06Z</time>
      </trkpt>
      <trkpt lat="37.899621" lon="-6.110369">
        <ele>470.584</ele>
        <time>2019-02-24T23:52:08Z</time>
      </trkpt>
      <trkpt lat="37.899628" lon="-6.110439">
        <ele>470.434</ele>
        <time>2019-02-24T23:52:09Z</time>
      </trkpt>
      <trkpt lat="37.899640" lon="-6.110511">
        <ele>470.555</ele>
        <time>2019-02-24T23:52:10Z</time>
      </trkpt>
      <trkpt lat="37.899669" lon="-6.110653">
        <ele>470.310</ele>
        <time>2019-02-24T23:52:12Z</time>
      </trkpt>
      <trkpt lat="37.899674" lon="-6.110724">
        <ele>469.908</ele>
        <time>2019-02-24T23:52:13Z</time>
      </trkpt>
      <trkpt lat="37.899671" lon="-6.110796">
        <ele>469.646</ele>
        <time>2019-02-24T23:52:14Z</time>
      </trkpt>
      <trkpt lat="37.899661" lon="-6.110866">
        <ele>469.547</ele>
        <time>2019-02-24T23:52:15Z</time>
      </trkpt>
      <trkpt lat="37.899643" lon="-6.110937">
        <ele>469.258</ele>
        <time>2019-02-24T23:52:16Z</time>
      </trkpt>
      <trkpt lat="37.899616" lon="-6.111011">
        <ele>468.787</ele>
        <time>2019-02-24T23:52:17Z</time>
      </trkpt>
      <trkpt lat="37.899586" lon="-6.111089">
        <ele>468.481</ele>
        <time>2019-02-24T23:52:18Z</time>
      </trkpt>
      <trkpt lat="37.899402" lon="-6.111718">
        <ele>466.924</ele>
        <time>2019-02-24T23:52:26Z</time>
      </trkpt>
      <trkpt lat="37.899402" lon="-6.111780">
        <ele>466.783</ele>
        <time>2019-02-24T23:52:27Z</time>
      </trkpt>
      <trkpt lat="37.899406" lon="-6.111833">
        <ele>466.772</ele>
        <time>2019-02-24T23:52:28Z</time>
      </trkpt>
      <trkpt lat="37.899418" lon="-6.112329">
        <ele>464.173</ele>
        <time>2019-02-24T23:52:36Z</time>
      </trkpt>
      <trkpt lat="37.899411" lon="-6.112396">
        <ele>463.885</ele>
        <time>2019-02-24T23:52:37Z</time>
      </trkpt>
      <trkpt lat="37.899401" lon="-6.112464">
        <ele>463.513</ele>
        <time>2019-02-24T23:52:38Z</time>
      </trkpt>
      <trkpt lat="37.899396" lon="-6.112533">
        <ele>463.108</ele>
        <time>2019-02-24T23:52:39Z</time>
      </trkpt>
      <trkpt lat="37.899394" lon="-6.112604">
        <ele>462.870</ele>
        <time>2019-02-24T23:52:40Z</time>
      </trkpt>
      <trkpt lat="37.899396" lon="-6.112677">
        <ele>462.441</ele>
        <time>2019-02-24T23:52:41Z</time>
      </trkpt>
      <trkpt lat="37.899412" lon="-6.113220">
        <ele>460.712</ele>
        <time>2019-02-24T23:52:48Z</time>
      </trkpt>
      <trkpt lat="37.899429" lon="-6.113618">
        <ele>460.061</ele>
        <time>2019-02-24T23:52:54Z</time>
      </trkpt>
      <trkpt lat="37.899431" lon="-6.113889">
        <ele>458.615</ele>
        <time>2019-02-24T23:52:58Z</time>
      </trkpt>
      <trkpt lat="37.899338" lon="-6.114875">
        <ele>452.548</ele>
        <time>2019-02-24T23:53:12Z</time>
      </trkpt>
      <trkpt lat="37.899341" lon="-6.114958">
        <ele>452.127</ele>
        <time>2019-02-24T23:53:13Z</time>
      </trkpt>
      <trkpt lat="37.899340" lon="-6.115040">
        <ele>451.786</ele>
        <time>2019-02-24T23:53:14Z</time>
      </trkpt>
      <trkpt lat="37.899334" lon="-6.115114">
        <ele>451.099</ele>
        <time>2019-02-24T23:53:15Z</time>
      </trkpt>
      <trkpt lat="37.899323" lon="-6.115174">
        <ele>450.507</ele>
        <time>2019-02-24T23:53:16Z</time>
      </trkpt>
      <trkpt lat="37.899314" lon="-6.115217">
        <ele>450.327</ele>
        <time>2019-02-24T23:53:17Z</time>
      </trkpt>
      <trkpt lat="37.899306" lon="-6.115251">
        <ele>450.108</ele>
        <time>2019-02-24T23:53:18Z</time>
      </trkpt>
      <trkpt lat="37.899296" lon="-6.115288">
        <ele>449.752</ele>
        <time>2019-02-24T23:53:19Z</time>
      </trkpt>
      <trkpt lat="37.899285" lon="-6.115330">
        <ele>449.393</ele>
        <time>2019-02-24T23:53:20Z</time>
      </trkpt>
      <trkpt lat="37.899240" lon="-6.115548">
        <ele>448.114</ele>
        <time>2019-02-24T23:53:24Z</time>
      </trkpt>
      <trkpt lat="37.899223" lon="-6.115597">
        <ele>447.973</ele>
        <time>2019-02-24T23:53:25Z</time>
      </trkpt>
      <trkpt lat="37.899034" lon="-6.116055">
        <ele>444.587</ele>
        <time>2019-02-24T23:53:38Z</time>
      </trkpt>
      <trkpt lat="37.898960" lon="-6.116232">
        <ele>443.820</ele>
        <time>2019-02-24T23:53:48Z</time>
      </trkpt>
      <trkpt lat="37.898985" lon="-6.116153">
        <ele>443.399</ele>
        <time>2019-02-24T23:53:59Z</time>
      </trkpt>
      <trkpt lat="37.899179" lon="-6.115757">
        <ele>441.268</ele>
        <time>2019-02-24T23:54:12Z</time>
      </trkpt>
      <trkpt lat="37.899302" lon="-6.115472">
        <ele>439.933</ele>
        <time>2019-02-24T23:54:22Z</time>
      </trkpt>
      <trkpt lat="37.899305" lon="-6.115469">
        <ele>439.923</ele>
        <time>2019-02-24T23:54:25Z</time>
      </trkpt>
      <trkpt lat="37.899352" lon="-6.115554">
        <ele>439.415</ele>
        <time>2019-02-24T23:55:29Z</time>
      </trkpt>
      <trkpt lat="37.899348" lon="-6.115688">
        <ele>438.708</ele>
        <time>2019-02-24T23:55:35Z</time>
      </trkpt>
      <trkpt lat="37.899390" lon="-6.115992">
        <ele>437.256</ele>
        <time>2019-02-24T23:55:47Z</time>
      </trkpt>
      <trkpt lat="37.899390" lon="-6.116448">
        <ele>434.227</ele>
        <time>2019-02-24T23:55:57Z</time>
      </trkpt>
      <trkpt lat="37.899311" lon="-6.116734">
        <ele>430.278</ele>
        <time>2019-02-24T23:56:03Z</time>
      </trkpt>
      <trkpt lat="37.899311" lon="-6.116798">
        <ele>429.427</ele>
        <time>2019-02-24T23:56:04Z</time>
      </trkpt>
      <trkpt lat="37.899332" lon="-6.116982">
        <ele>427.451</ele>
        <time>2019-02-24T23:56:07Z</time>
      </trkpt>
      <trkpt lat="37.899358" lon="-6.117032">
        <ele>426.154</ele>
        <time>2019-02-24T23:56:08Z</time>
      </trkpt>
      <trkpt lat="37.899393" lon="-6.117079">
        <ele>425.153</ele>
        <time>2019-02-24T23:56:09Z</time>
      </trkpt>
      <trkpt lat="37.899431" lon="-6.117122">
        <ele>424.282</ele>
        <time>2019-02-24T23:56:10Z</time>
      </trkpt>
      <trkpt lat="37.899469" lon="-6.117164">
        <ele>423.539</ele>
        <time>2019-02-24T23:56:11Z</time>
      </trkpt>
      <trkpt lat="37.899581" lon="-6.117295">
        <ele>421.601</ele>
        <time>2019-02-24T23:56:14Z</time>
      </trkpt>
      <trkpt lat="37.899604" lon="-6.117349">
        <ele>421.121</ele>
        <time>2019-02-24T23:56:15Z</time>
      </trkpt>
      <trkpt lat="37.899617" lon="-6.117406">
        <ele>420.508</ele>
        <time>2019-02-24T23:56:16Z</time>
      </trkpt>
      <trkpt lat="37.899650" lon="-6.117512">
        <ele>419.746</ele>
        <time>2019-02-24T23:56:18Z</time>
      </trkpt>
      <trkpt lat="37.899686" lon="-6.117563">
        <ele>419.117</ele>
        <time>2019-02-24T23:56:19Z</time>
      </trkpt>
      <trkpt lat="37.899736" lon="-6.117613">
        <ele>418.788</ele>
        <time>2019-02-24T23:56:20Z</time>
      </trkpt>
      <trkpt lat="37.899992" lon="-6.117833">
        <ele>416.677</ele>
        <time>2019-02-24T23:56:26Z</time>
      </trkpt>
      <trkpt lat="37.900017" lon="-6.117877">
        <ele>416.231</ele>
        <time>2019-02-24T23:56:27Z</time>
      </trkpt>
      <trkpt lat="37.900032" lon="-6.117922">
        <ele>415.924</ele>
        <time>2019-02-24T23:56:28Z</time>
      </trkpt>
      <trkpt lat="37.900039" lon="-6.117962">
        <ele>415.843</ele>
        <time>2019-02-24T23:56:29Z</time>
      </trkpt>
      <trkpt lat="37.900036" lon="-6.117998">
        <ele>415.762</ele>
        <time>2019-02-24T23:56:30Z</time>
      </trkpt>
      <trkpt lat="37.900024" lon="-6.118030">
        <ele>415.734</ele>
        <time>2019-02-24T23:56:31Z</time>
      </trkpt>
      <trkpt lat="37.900006" lon="-6.118059">
        <ele>415.955</ele>
        <time>2019-02-24T23:56:32Z</time>
      </trkpt>
      <trkpt lat="37.899986" lon="-6.118087">
        <ele>416.210</ele>
        <time>2019-02-24T23:56:33Z</time>
      </trkpt>
      <trkpt lat="37.899970" lon="-6.118115">
        <ele>416.508</ele>
        <time>2019-02-24T23:56:34Z</time>
      </trkpt>
      <trkpt lat="37.899959" lon="-6.118145">
        <ele>416.826</ele>
        <time>2019-02-24T23:56:35Z</time>
      </trkpt>
      <trkpt lat="37.899959" lon="-6.118176">
        <ele>417.187</ele>
        <time>2019-02-24T23:56:36Z</time>
      </trkpt>
      <trkpt lat="37.899970" lon="-6.118208">
        <ele>417.428</ele>
        <time>2019-02-24T23:56:37Z</time>
      </trkpt>
      <trkpt lat="37.899991" lon="-6.118235">
        <ele>417.797</ele>
        <time>2019-02-24T23:56:38Z</time>
      </trkpt>
      <trkpt lat="37.900020" lon="-6.118255">
        <ele>418.041</ele>
        <time>2019-02-24T23:56:39Z</time>
      </trkpt>
      <trkpt lat="37.900055" lon="-6.118268">
        <ele>417.894</ele>
        <time>2019-02-24T23:56:40Z</time>
      </trkpt>
      <trkpt lat="37.900092" lon="-6.118276">
        <ele>417.693</ele>
        <time>2019-02-24T23:56:41Z</time>
      </trkpt>
      <trkpt lat="37.900129" lon="-6.118280">
        <ele>417.482</ele>
        <time>2019-02-24T23:56:42Z</time>
      </trkpt>
      <trkpt lat="37.900162" lon="-6.118276">
        <ele>417.356</ele>
        <time>2019-02-24T23:56:43Z</time>
      </trkpt>
      <trkpt lat="37.900196" lon="-6.118270">
        <ele>416.959</ele>
        <time>2019-02-24T23:56:44Z</time>
      </trkpt>
      <trkpt lat="37.900346" lon="-6.118169">
        <ele>415.914</ele>
        <time>2019-02-24T23:56:50Z</time>
      </trkpt>
      <trkpt lat="37.900409" lon="-6.118047">
        <ele>415.408</ele>
        <time>2019-02-24T23:56:56Z</time>
      </trkpt>
      <trkpt lat="37.900449" lon="-6.118016">
        <ele>415.328</ele>
        <time>2019-02-24T23:56:59Z</time>
      </trkpt>
      <trkpt lat="37.900466" lon="-6.118018">
        <ele>415.259</ele>
        <time>2019-02-24T23:57:00Z</time>
      </trkpt>
      <trkpt lat="37.900479" lon="-6.118027">
        <ele>415.210</ele>
        <time>2019-02-24T23:57:01Z</time>
      </trkpt>
      <trkpt lat="37.900488" lon="-6.118042">
        <ele>415.249</ele>
        <time>2019-02-24T23:57:02Z</time>
      </trkpt>
      <trkpt lat="37.900498" lon="-6.118057">
        <ele>415.253</ele>
        <time>2019-02-24T23:57:03Z</time>
      </trkpt>
      <trkpt lat="37.900512" lon="-6.118071">
        <ele>415.156</ele>
        <time>2019-02-24T23:57:04Z</time>
      </trkpt>
      <trkpt lat="37.900530" lon="-6.118086">
        <ele>414.915</ele>
        <time>2019-02-24T23:57:05Z</time>
      </trkpt>
      <trkpt lat="37.900551" lon="-6.118102">
        <ele>414.834</ele>
        <time>2019-02-24T23:57:06Z</time>
      </trkpt>
      <trkpt lat="37.900897" lon="-6.118320">
        <ele>413.026</ele>
        <time>2019-02-24T23:57:18Z</time>
      </trkpt>
      <trkpt lat="37.901074" lon="-6.118767">
        <ele>410.747</ele>
        <time>2019-02-24T23:57:31Z</time>
      </trkpt>
      <trkpt lat="37.901096" lon="-6.118833">
        <ele>409.811</ele>
        <time>2019-02-24T23:57:32Z</time>
      </trkpt>
      <trkpt lat="37.901125" lon="-6.118899">
        <ele>409.408</ele>
        <time>2019-02-24T23:57:33Z</time>
      </trkpt>
      <trkpt lat="37.901155" lon="-6.118969">
        <ele>408.835</ele>
        <time>2019-02-24T23:57:34Z</time>
      </trkpt>
      <trkpt lat="37.901180" lon="-6.119043">
        <ele>408.296</ele>
        <time>2019-02-24T23:57:35Z</time>
      </trkpt>
      <trkpt lat="37.901201" lon="-6.119118">
        <ele>407.827</ele>
        <time>2019-02-24T23:57:36Z</time>
      </trkpt>
      <trkpt lat="37.901282" lon="-6.119594">
        <ele>405.956</ele>
        <time>2019-02-24T23:57:42Z</time>
      </trkpt>
      <trkpt lat="37.901461" lon="-6.119998">
        <ele>402.130</ele>
        <time>2019-02-24T23:57:48Z</time>
      </trkpt>
      <trkpt lat="37.901525" lon="-6.120459">
        <ele>398.953</ele>
        <time>2019-02-24T23:57:56Z</time>
      </trkpt>
      <trkpt lat="37.901553" lon="-6.120660">
        <ele>397.862</ele>
        <time>2019-02-24T23:57:59Z</time>
      </trkpt>
      <trkpt lat="37.901649" lon="-6.120937">
        <ele>397.691</ele>
        <time>2019-02-24T23:58:04Z</time>
      </trkpt>
      <trkpt lat="37.901946" lon="-6.121277">
        <ele>397.971</ele>
        <time>2019-02-24T23:58:11Z</time>
      </trkpt>
      <trkpt lat="37.902038" lon="-6.121416">
        <ele>397.741</ele>
        <time>2019-02-24T23:58:13Z</time>
      </trkpt>
      <trkpt lat="37.902258" lon="-6.121740">
        <ele>394.615</ele>
        <time>2019-02-24T23:58:20Z</time>
      </trkpt>
      <trkpt lat="37.902257" lon="-6.121795">
        <ele>393.608</ele>
        <time>2019-02-24T23:58:26Z</time>
      </trkpt>
      <trkpt lat="37.902271" lon="-6.121888">
        <ele>392.570</ele>
        <time>2019-02-24T23:58:51Z</time>
      </trkpt>
      <trkpt lat="37.902303" lon="-6.122118">
        <ele>391.611</ele>
        <time>2019-02-24T23:58:56Z</time>
      </trkpt>
      <trkpt lat="37.902368" lon="-6.122334">
        <ele>393.512</ele>
        <time>2019-02-24T23:59:01Z</time>
      </trkpt>
      <trkpt lat="37.902515" lon="-6.122640">
        <ele>398.721</ele>
        <time>2019-02-24T23:59:13Z</time>
      </trkpt>
      <trkpt lat="37.902540" lon="-6.122711">
        <ele>399.145</ele>
        <time>2019-02-24T23:59:17Z</time>
      </trkpt>
      <trkpt lat="37.902569" lon="-6.122774">
        <ele>399.168</ele>
        <time>2019-02-24T23:59:21Z</time>
      </trkpt>
      <trkpt lat="37.902615" lon="-6.122815">
        <ele>399.057</ele>
        <time>2019-02-24T23:59:24Z</time>
      </trkpt>
      <trkpt lat="37.902702" lon="-6.123003">
        <ele>398.286</ele>
        <time>2019-02-24T23:59:31Z</time>
      </trkpt>
      <trkpt lat="37.902760" lon="-6.123080">
        <ele>398.082</ele>
        <time>2019-02-24T23:59:38Z</time>
      </trkpt>
      <trkpt lat="37.902829" lon="-6.123124">
        <ele>398.143</ele>
        <time>2019-02-24T23:59:46Z</time>
      </trkpt>
      <trkpt lat="37.902873" lon="-6.123139">
        <ele>398.317</ele>
        <time>2019-02-24T23:59:54Z</time>
      </trkpt>
      <trkpt lat="37.902924" lon="-6.123181">
        <ele>398.608</ele>
        <time>2019-02-25T00:00:01Z</time>
      </trkpt>
      <trkpt lat="37.903000" lon="-6.123268">
        <ele>398.881</ele>
        <time>2019-02-25T00:00:13Z</time>
      </trkpt>
      <trkpt lat="37.903064" lon="-6.123373">
        <ele>399.192</ele>
        <time>2019-02-25T00:00:34Z</time>
      </trkpt>
      <trkpt lat="37.903250" lon="-6.123586">
        <ele>398.943</ele>
        <time>2019-02-25T00:00:48Z</time>
      </trkpt>
      <trkpt lat="37.903398" lon="-6.123766">
        <ele>397.642</ele>
        <time>2019-02-25T00:01:00Z</time>
      </trkpt>
      <trkpt lat="37.903537" lon="-6.123979">
        <ele>396.966</ele>
        <time>2019-02-25T00:01:13Z</time>
      </trkpt>
      <trkpt lat="37.903568" lon="-6.124028">
        <ele>396.999</ele>
        <time>2019-02-25T00:01:19Z</time>
      </trkpt>
      <trkpt lat="37.903744" lon="-6.124125">
        <ele>397.038</ele>
        <time>2019-02-25T00:02:19Z</time>
      </trkpt>
      <trkpt lat="37.904002" lon="-6.124236">
        <ele>398.547</ele>
        <time>2019-02-25T00:02:32Z</time>
      </trkpt>
      <trkpt lat="37.904111" lon="-6.124240">
        <ele>399.151</ele>
        <time>2019-02-25T00:02:37Z</time>
      </trkpt>
      <trkpt lat="37.904272" lon="-6.124209">
        <ele>399.001</ele>
        <time>2019-02-25T00:02:40Z</time>
      </trkpt>
      <trkpt lat="37.904330" lon="-6.124212">
        <ele>398.711</ele>
        <time>2019-02-25T00:02:41Z</time>
      </trkpt>
      <trkpt lat="37.904379" lon="-6.124230">
        <ele>398.508</ele>
        <time>2019-02-25T00:02:42Z</time>
      </trkpt>
      <trkpt lat="37.904418" lon="-6.124258">
        <ele>398.748</ele>
        <time>2019-02-25T00:02:43Z</time>
      </trkpt>
      <trkpt lat="37.904452" lon="-6.124288">
        <ele>399.169</ele>
        <time>2019-02-25T00:02:44Z</time>
      </trkpt>
      <trkpt lat="37.904712" lon="-6.124407">
        <ele>404.120</ele>
        <time>2019-02-25T00:02:55Z</time>
      </trkpt>
      <trkpt lat="37.905067" lon="-6.124178">
        <ele>408.129</ele>
        <time>2019-02-25T00:03:07Z</time>
      </trkpt>
      <trkpt lat="37.905108" lon="-6.124167">
        <ele>408.553</ele>
        <time>2019-02-25T00:03:08Z</time>
      </trkpt>
      <trkpt lat="37.905150" lon="-6.124170">
        <ele>408.686</ele>
        <time>2019-02-25T00:03:09Z</time>
      </trkpt>
      <trkpt lat="37.905386" lon="-6.124117">
        <ele>409.455</ele>
        <time>2019-02-25T00:03:19Z</time>
      </trkpt>
      <trkpt lat="37.905711" lon="-6.123921">
        <ele>411.084</ele>
        <time>2019-02-25T00:03:32Z</time>
      </trkpt>
      <trkpt lat="37.905837" lon="-6.123741">
        <ele>412.282</ele>
        <time>2019-02-25T00:03:43Z</time>
      </trkpt>
      <trkpt lat="37.905976" lon="-6.123527">
        <ele>413.843</ele>
        <time>2019-02-25T00:03:53Z</time>
      </trkpt>
      <trkpt lat="37.906273" lon="-6.123412">
        <ele>415.717</ele>
        <time>2019-02-25T00:04:07Z</time>
      </trkpt>
      <trkpt lat="37.906496" lon="-6.123471">
        <ele>416.108</ele>
        <time>2019-02-25T00:04:17Z</time>
      </trkpt>
      <trkpt lat="37.906531" lon="-6.123498">
        <ele>416.161</ele>
        <time>2019-02-25T00:04:18Z</time>
      </trkpt>
      <trkpt lat="37.906559" lon="-6.123519">
        <ele>416.262</ele>
        <time>2019-02-25T00:04:19Z</time>
      </trkpt>
      <trkpt lat="37.906578" lon="-6.123527">
        <ele>416.333</ele>
        <time>2019-02-25T00:04:20Z</time>
      </trkpt>
      <trkpt lat="37.906585" lon="-6.123533">
        <ele>416.312</ele>
        <time>2019-02-25T00:04:24Z</time>
      </trkpt>
      <trkpt lat="37.906546" lon="-6.123594">
        <ele>416.576</ele>
        <time>2019-02-25T00:04:29Z</time>
      </trkpt>
      <trkpt lat="37.906531" lon="-6.123635">
        <ele>416.669</ele>
        <time>2019-02-25T00:04:30Z</time>
      </trkpt>
      <trkpt lat="37.906522" lon="-6.123692">
        <ele>416.938</ele>
        <time>2019-02-25T00:04:31Z</time>
      </trkpt>
      <trkpt lat="37.906521" lon="-6.123754">
        <ele>417.367</ele>
        <time>2019-02-25T00:04:32Z</time>
      </trkpt>
      <trkpt lat="37.906523" lon="-6.123813">
        <ele>417.714</ele>
        <time>2019-02-25T00:04:33Z</time>
      </trkpt>
      <trkpt lat="37.906528" lon="-6.123864">
        <ele>418.154</ele>
        <time>2019-02-25T00:04:34Z</time>
      </trkpt>
      <trkpt lat="37.906536" lon="-6.123906">
        <ele>418.509</ele>
        <time>2019-02-25T00:04:35Z</time>
      </trkpt>
      <trkpt lat="37.906541" lon="-6.123935">
        <ele>418.608</ele>
        <time>2019-02-25T00:04:36Z</time>
      </trkpt>
      <trkpt lat="37.906543" lon="-6.123957">
        <ele>418.864</ele>
        <time>2019-02-25T00:04:37Z</time>
      </trkpt>
      <trkpt lat="37.906552" lon="-6.124002">
        <ele>419.085</ele>
        <time>2019-02-25T00:04:44Z</time>
      </trkpt>
      <trkpt lat="37.906746" lon="-6.123953">
        <ele>421.246</ele>
        <time>2019-02-25T00:06:01Z</time>
      </trkpt>
      <trkpt lat="37.906806" lon="-6.123949">
        <ele>421.995</ele>
        <time>2019-02-25T00:06:05Z</time>
      </trkpt>
      <trkpt lat="37.907049" lon="-6.123946">
        <ele>425.099</ele>
        <time>2019-02-25T00:06:18Z</time>
      </trkpt>
      <trkpt lat="37.907252" lon="-6.123958">
        <ele>426.862</ele>
        <time>2019-02-25T00:06:30Z</time>
      </trkpt>
      <trkpt lat="37.907300" lon="-6.123988">
        <ele>427.241</ele>
        <time>2019-02-25T00:06:39Z</time>
      </trkpt>
      <trkpt lat="37.907264" lon="-6.123978">
        <ele>427.550</ele>
        <time>2019-02-25T00:08:40Z</time>
      </trkpt>
      <trkpt lat="37.907314" lon="-6.124005">
        <ele>427.922</ele>
        <time>2019-02-25T00:08:48Z</time>
      </trkpt>
      <trkpt lat="37.907674" lon="-6.123625">
        <ele>432.162</ele>
        <time>2019-02-25T00:10:10Z</time>
      </trkpt>
      <trkpt lat="37.907764" lon="-6.123494">
        <ele>434.608</ele>
        <time>2019-02-25T00:10:26Z</time>
      </trkpt>
      <trkpt lat="37.907942" lon="-6.123342">
        <ele>438.408</ele>
        <time>2019-02-25T00:10:39Z</time>
      </trkpt>
      <trkpt lat="37.908191" lon="-6.123345">
        <ele>442.665</ele>
        <time>2019-02-25T00:10:50Z</time>
      </trkpt>
      <trkpt lat="37.908426" lon="-6.123330">
        <ele>446.776</ele>
        <time>2019-02-25T00:11:03Z</time>
      </trkpt>
      <trkpt lat="37.908641" lon="-6.123297">
        <ele>450.017</ele>
        <time>2019-02-25T00:11:15Z</time>
      </trkpt>
      <trkpt lat="37.908919" lon="-6.123264">
        <ele>452.936</ele>
        <time>2019-02-25T00:11:32Z</time>
      </trkpt>
      <trkpt lat="37.908939" lon="-6.123256">
        <ele>453.260</ele>
        <time>2019-02-25T00:11:33Z</time>
      </trkpt>
      <trkpt lat="37.908961" lon="-6.123243">
        <ele>453.583</ele>
        <time>2019-02-25T00:11:34Z</time>
      </trkpt>
      <trkpt lat="37.909253" lon="-6.123133">
        <ele>456.352</ele>
        <time>2019-02-25T00:11:46Z</time>
      </trkpt>
      <trkpt lat="37.909424" lon="-6.123227">
        <ele>458.231</ele>
        <time>2019-02-25T00:11:57Z</time>
      </trkpt>
      <trkpt lat="37.909573" lon="-6.123341">
        <ele>459.835</ele>
        <time>2019-02-25T00:12:10Z</time>
      </trkpt>
      <trkpt lat="37.909683" lon="-6.123284">
        <ele>461.186</ele>
        <time>2019-02-25T00:12:23Z</time>
      </trkpt>
      <trkpt lat="37.909683" lon="-6.123285">
        <ele>461.114</ele>
        <time>2019-02-25T00:12:24Z</time>
      </trkpt>
      <trkpt lat="37.909784" lon="-6.123257">
        <ele>462.908</ele>
        <time>2019-02-25T00:13:01Z</time>
      </trkpt>
      <trkpt lat="37.909957" lon="-6.123286">
        <ele>465.796</ele>
        <time>2019-02-25T00:13:17Z</time>
      </trkpt>
      <trkpt lat="37.909993" lon="-6.123290">
        <ele>465.267</ele>
        <time>2019-02-25T00:13:24Z</time>
      </trkpt>
      <trkpt lat="37.909809" lon="-6.124569">
        <ele>470.248</ele>
        <time>2019-02-25T00:18:11Z</time>
      </trkpt>
      <trkpt lat="37.909843" lon="-6.124584">
        <ele>471.037</ele>
        <time>2019-02-25T00:18:16Z</time>
      </trkpt>
      <trkpt lat="37.910021" lon="-6.124620">
        <ele>474.041</ele>
        <time>2019-02-25T00:18:36Z</time>
      </trkpt>
      <trkpt lat="37.910166" lon="-6.124611">
        <ele>477.234</ele>
        <time>2019-02-25T00:18:55Z</time>
      </trkpt>
      <trkpt lat="37.910296" lon="-6.124581">
        <ele>480.353</ele>
        <time>2019-02-25T00:19:16Z</time>
      </trkpt>
      <trkpt lat="37.910388" lon="-6.124546">
        <ele>482.732</ele>
        <time>2019-02-25T00:19:30Z</time>
      </trkpt>
      <trkpt lat="37.910500" lon="-6.124543">
        <ele>485.424</ele>
        <time>2019-02-25T00:19:42Z</time>
      </trkpt>
      <trkpt lat="37.910697" lon="-6.124536">
        <ele>490.204</ele>
        <time>2019-02-25T00:19:53Z</time>
      </trkpt>
      <trkpt lat="37.910698" lon="-6.124531">
        <ele>490.414</ele>
        <time>2019-02-25T00:19:55Z</time>
      </trkpt>
      <trkpt lat="37.911043" lon="-6.124350">
        <ele>499.408</ele>
        <time>2019-02-25T00:20:55Z</time>
      </trkpt>
      <trkpt lat="37.911132" lon="-6.124267">
        <ele>500.775</ele>
        <time>2019-02-25T00:21:05Z</time>
      </trkpt>
      <trkpt lat="37.911452" lon="-6.123962">
        <ele>506.636</ele>
        <time>2019-02-25T00:21:55Z</time>
      </trkpt>
      <trkpt lat="37.911468" lon="-6.123953">
        <ele>506.857</ele>
        <time>2019-02-25T00:21:57Z</time>
      </trkpt>
      <trkpt lat="37.911671" lon="-6.123874">
        <ele>509.586</ele>
        <time>2019-02-25T00:22:19Z</time>
      </trkpt>
      <trkpt lat="37.911841" lon="-6.123827">
        <ele>510.130</ele>
        <time>2019-02-25T00:22:38Z</time>
      </trkpt>
      <trkpt lat="37.911939" lon="-6.123766">
        <ele>509.983</ele>
        <time>2019-02-25T00:22:50Z</time>
      </trkpt>
      <trkpt lat="37.912113" lon="-6.123564">
        <ele>508.822</ele>
        <time>2019-02-25T00:23:12Z</time>
      </trkpt>
      <trkpt lat="37.912223" lon="-6.123480">
        <ele>508.041</ele>
        <time>2019-02-25T00:23:28Z</time>
      </trkpt>
      <trkpt lat="37.912294" lon="-6.123451">
        <ele>507.573</ele>
        <time>2019-02-25T00:24:05Z</time>
      </trkpt>
      <trkpt lat="37.912642" lon="-6.123500">
        <ele>507.885</ele>
        <time>2019-02-25T00:24:20Z</time>
      </trkpt>
      <trkpt lat="37.912894" lon="-6.123618">
        <ele>508.013</ele>
        <time>2019-02-25T00:24:30Z</time>
      </trkpt>
      <trkpt lat="37.912897" lon="-6.123618">
        <ele>508.008</ele>
        <time>2019-02-25T00:24:33Z</time>
      </trkpt>
      <trkpt lat="37.913032" lon="-6.123715">
        <ele>507.990</ele>
        <time>2019-02-25T00:25:53Z</time>
      </trkpt>
      <trkpt lat="37.913325" lon="-6.124016">
        <ele>510.831</ele>
        <time>2019-02-25T00:26:06Z</time>
      </trkpt>
      <trkpt lat="37.913572" lon="-6.124068">
        <ele>512.992</ele>
        <time>2019-02-25T00:26:18Z</time>
      </trkpt>
      <trkpt lat="37.913744" lon="-6.124108">
        <ele>515.061</ele>
        <time>2019-02-25T00:26:30Z</time>
      </trkpt>
      <trkpt lat="37.913912" lon="-6.124105">
        <ele>516.935</ele>
        <time>2019-02-25T00:26:42Z</time>
      </trkpt>
      <trkpt lat="37.914153" lon="-6.124147">
        <ele>519.738</ele>
        <time>2019-02-25T00:26:56Z</time>
      </trkpt>
      <trkpt lat="37.914257" lon="-6.124202">
        <ele>521.067</ele>
        <time>2019-02-25T00:27:07Z</time>
      </trkpt>
      <trkpt lat="37.914587" lon="-6.124222">
        <ele>524.076</ele>
        <time>2019-02-25T00:27:52Z</time>
      </trkpt>
      <trkpt lat="37.914619" lon="-6.124219">
        <ele>524.234</ele>
        <time>2019-02-25T00:27:53Z</time>
      </trkpt>
      <trkpt lat="37.914657" lon="-6.124214">
        <ele>524.555</ele>
        <time>2019-02-25T00:27:54Z</time>
      </trkpt>
      <trkpt lat="37.914699" lon="-6.124213">
        <ele>524.910</ele>
        <time>2019-02-25T00:27:55Z</time>
      </trkpt>
      <trkpt lat="37.914749" lon="-6.124224">
        <ele>525.208</ele>
        <time>2019-02-25T00:27:56Z</time>
      </trkpt>
      <trkpt lat="37.914798" lon="-6.124249">
        <ele>525.516</ele>
        <time>2019-02-25T00:27:57Z</time>
      </trkpt>
      <trkpt lat="37.914953" lon="-6.124340">
        <ele>525.147</ele>
        <time>2019-02-25T00:28:00Z</time>
      </trkpt>
      <trkpt lat="37.914999" lon="-6.124380">
        <ele>524.948</ele>
        <time>2019-02-25T00:28:01Z</time>
      </trkpt>
      <trkpt lat="37.915159" lon="-6.124540">
        <ele>523.737</ele>
        <time>2019-02-25T00:28:09Z</time>
      </trkpt>
      <trkpt lat="37.915414" lon="-6.124594">
        <ele>522.591</ele>
        <time>2019-02-25T00:28:21Z</time>
      </trkpt>
      <trkpt lat="37.915552" lon="-6.124417">
        <ele>522.674</ele>
        <time>2019-02-25T00:28:26Z</time>
      </trkpt>
      <trkpt lat="37.915595" lon="-6.124367">
        <ele>522.643</ele>
        <time>2019-02-25T00:28:27Z</time>
      </trkpt>
      <trkpt lat="37.915645" lon="-6.124325">
        <ele>522.492</ele>
        <time>2019-02-25T00:28:28Z</time>
      </trkpt>
      <trkpt lat="37.915699" lon="-6.124294">
        <ele>522.152</ele>
        <time>2019-02-25T00:28:29Z</time>
      </trkpt>
      <trkpt lat="37.915750" lon="-6.124266">
        <ele>521.753</ele>
        <time>2019-02-25T00:28:30Z</time>
      </trkpt>
      <trkpt lat="37.915980" lon="-6.124128">
        <ele>519.508</ele>
        <time>2019-02-25T00:28:34Z</time>
      </trkpt>
      <trkpt lat="37.916050" lon="-6.124097">
        <ele>518.708</ele>
        <time>2019-02-25T00:28:35Z</time>
      </trkpt>
      <trkpt lat="37.916119" lon="-6.124074">
        <ele>518.148</ele>
        <time>2019-02-25T00:28:36Z</time>
      </trkpt>
      <trkpt lat="37.916417" lon="-6.124011">
        <ele>513.999</ele>
        <time>2019-02-25T00:28:41Z</time>
      </trkpt>
      <trkpt lat="37.916831" lon="-6.123862">
        <ele>509.370</ele>
        <time>2019-02-25T00:28:47Z</time>
      </trkpt>
      <trkpt lat="37.916897" lon="-6.123818">
        <ele>508.739</ele>
        <time>2019-02-25T00:28:48Z</time>
      </trkpt>
      <trkpt lat="37.917088" lon="-6.123676">
        <ele>508.073</ele>
        <time>2019-02-25T00:28:51Z</time>
      </trkpt>
      <trkpt lat="37.917278" lon="-6.123553">
        <ele>508.046</ele>
        <time>2019-02-25T00:28:54Z</time>
      </trkpt>
      <trkpt lat="37.917483" lon="-6.123375">
        <ele>507.985</ele>
        <time>2019-02-25T00:28:58Z</time>
      </trkpt>
      <trkpt lat="37.917527" lon="-6.123352">
        <ele>507.984</ele>
        <time>2019-02-25T00:28:59Z</time>
      </trkpt>
      <trkpt lat="37.917633" lon="-6.123297">
        <ele>507.778</ele>
        <time>2019-02-25T00:29:03Z</time>
      </trkpt>
      <trkpt lat="37.917638" lon="-6.123279">
        <ele>507.733</ele>
        <time>2019-02-25T00:29:04Z</time>
      </trkpt>
      <trkpt lat="37.917636" lon="-6.123266">
        <ele>507.726</ele>
        <time>2019-02-25T00:29:05Z</time>
      </trkpt>
      <trkpt lat="37.917626" lon="-6.123262">
        <ele>507.608</ele>
        <time>2019-02-25T00:29:06Z</time>
      </trkpt>
      <trkpt lat="37.917610" lon="-6.123268">
        <ele>507.640</ele>
        <time>2019-02-25T00:29:07Z</time>
      </trkpt>
      <trkpt lat="37.917593" lon="-6.123282">
        <ele>507.591</ele>
        <time>2019-02-25T00:29:08Z</time>
      </trkpt>
      <trkpt lat="37.917578" lon="-6.123298">
        <ele>507.542</ele>
        <time>2019-02-25T00:29:09Z</time>
      </trkpt>
      <trkpt lat="37.917561" lon="-6.123324">
        <ele>507.461</ele>
        <time>2019-02-25T00:29:11Z</time>
      </trkpt>
      <trkpt lat="37.917555" lon="-6.123342">
        <ele>507.315</ele>
        <time>2019-02-25T00:29:12Z</time>
      </trkpt>
      <trkpt lat="37.917546" lon="-6.123349">
        <ele>507.398</ele>
        <time>2019-02-25T00:29:17Z</time>
      </trkpt>
      <trkpt lat="37.917451" lon="-6.123364">
        <ele>506.927</ele>
        <time>2019-02-25T00:29:26Z</time>
      </trkpt>
      <trkpt lat="37.917427" lon="-6.123382">
        <ele>506.956</ele>
        <time>2019-02-25T00:29:27Z</time>
      </trkpt>
      <trkpt lat="37.917404" lon="-6.123402">
        <ele>507.023</ele>
        <time>2019-02-25T00:29:28Z</time>
      </trkpt>
      <trkpt lat="37.917381" lon="-6.123423">
        <ele>506.883</ele>
        <time>2019-02-25T00:29:29Z</time>
      </trkpt>
      <trkpt lat="37.917367" lon="-6.123445">
        <ele>506.711</ele>
        <time>2019-02-25T00:29:30Z</time>
      </trkpt>
      <trkpt lat="37.917361" lon="-6.123467">
        <ele>506.608</ele>
        <time>2019-02-25T00:29:31Z</time>
      </trkpt>
      <trkpt lat="37.917404" lon="-6.123505">
        <ele>506.265</ele>
        <time>2019-02-25T00:29:38Z</time>
      </trkpt>
      <trkpt lat="37.917426" lon="-6.123576">
        <ele>506.136</ele>
        <time>2019-02-25T00:30:34Z</time>
      </trkpt>
      <trkpt lat="37.917781" lon="-6.123729">
        <ele>505.657</ele>
        <time>2019-02-25T00:30:45Z</time>
      </trkpt>
      <trkpt lat="37.918115" lon="-6.123824">
        <ele>505.086</ele>
        <time>2019-02-25T00:30:55Z</time>
      </trkpt>
      <trkpt lat="37.918306" lon="-6.123813">
        <ele>504.660</ele>
        <time>2019-02-25T00:30:59Z</time>
      </trkpt>
      <trkpt lat="37.918532" lon="-6.123801">
        <ele>502.863</ele>
        <time>2019-02-25T00:31:08Z</time>
      </trkpt>
      <trkpt lat="37.918533" lon="-6.123800">
        <ele>502.812</ele>
        <time>2019-02-25T00:31:10Z</time>
      </trkpt>
      <trkpt lat="37.918704" lon="-6.123760">
        <ele>501.351</ele>
        <time>2019-02-25T00:32:11Z</time>
      </trkpt>
      <trkpt lat="37.918734" lon="-6.123760">
        <ele>500.948</ele>
        <time>2019-02-25T00:32:14Z</time>
      </trkpt>
      <trkpt lat="37.918865" lon="-6.123884">
        <ele>498.961</ele>
        <time>2019-02-25T00:32:31Z</time>
      </trkpt>
      <trkpt lat="37.918970" lon="-6.124008">
        <ele>496.617</ele>
        <time>2019-02-25T00:32:45Z</time>
      </trkpt>
      <trkpt lat="37.919131" lon="-6.124365">
        <ele>489.708</ele>
        <time>2019-02-25T00:32:54Z</time>
      </trkpt>
      <trkpt lat="37.919337" lon="-6.124736">
        <ele>478.717</ele>
        <time>2019-02-25T00:33:03Z</time>
      </trkpt>
      <trkpt lat="37.919394" lon="-6.124828">
        <ele>477.688</ele>
        <time>2019-02-25T00:33:09Z</time>
      </trkpt>
      <trkpt lat="37.919400" lon="-6.124834">
        <ele>477.459</ele>
        <time>2019-02-25T00:33:11Z</time>
      </trkpt>
      <trkpt lat="37.919543" lon="-6.125007">
        <ele>472.578</ele>
        <time>2019-02-25T00:34:20Z</time>
      </trkpt>
      <trkpt lat="37.919631" lon="-6.125120">
        <ele>468.422</ele>
        <time>2019-02-25T00:34:33Z</time>
      </trkpt>
      <trkpt lat="37.919635" lon="-6.125123">
        <ele>468.385</ele>
        <time>2019-02-25T00:34:34Z</time>
      </trkpt>
      <trkpt lat="37.919707" lon="-6.125223">
        <ele>465.714</ele>
        <time>2019-02-25T00:34:53Z</time>
      </trkpt>
      <trkpt lat="37.919707" lon="-6.125313">
        <ele>463.713</ele>
        <time>2019-02-25T00:35:02Z</time>
      </trkpt>
      <trkpt lat="37.919767" lon="-6.125487">
        <ele>461.164</ele>
        <time>2019-02-25T00:35:12Z</time>
      </trkpt>
      <trkpt lat="37.919924" lon="-6.125593">
        <ele>461.006</ele>
        <time>2019-02-25T00:35:21Z</time>
      </trkpt>
      <trkpt lat="37.919942" lon="-6.125606">
        <ele>461.116</ele>
        <time>2019-02-25T00:35:22Z</time>
      </trkpt>
      <trkpt lat="37.919980" lon="-6.125693">
        <ele>461.208</ele>
        <time>2019-02-25T00:35:26Z</time>
      </trkpt>
      <trkpt lat="37.919990" lon="-6.125712">
        <ele>461.279</ele>
        <time>2019-02-25T00:35:27Z</time>
      </trkpt>
      <trkpt lat="37.920075" lon="-6.125826">
        <ele>461.070</ele>
        <time>2019-02-25T00:35:35Z</time>
      </trkpt>
      <trkpt lat="37.920073" lon="-6.125823">
        <ele>461.091</ele>
        <time>2019-02-25T00:35:37Z</time>
      </trkpt>
      <trkpt lat="37.920212" lon="-6.125812">
        <ele>460.010</ele>
        <time>2019-02-25T00:36:48Z</time>
      </trkpt>
      <trkpt lat="37.920397" lon="-6.125741">
        <ele>458.654</ele>
        <time>2019-02-25T00:36:53Z</time>
      </trkpt>
      <trkpt lat="37.920449" lon="-6.125736">
        <ele>457.957</ele>
        <time>2019-02-25T00:36:54Z</time>
      </trkpt>
      <trkpt lat="37.920505" lon="-6.125736">
        <ele>457.596</ele>
        <time>2019-02-25T00:36:55Z</time>
      </trkpt>
      <trkpt lat="37.920562" lon="-6.125749">
        <ele>457.095</ele>
        <time>2019-02-25T00:36:56Z</time>
      </trkpt>
      <trkpt lat="37.920618" lon="-6.125780">
        <ele>456.447</ele>
        <time>2019-02-25T00:36:57Z</time>
      </trkpt>
      <trkpt lat="37.920666" lon="-6.125825">
        <ele>455.929</ele>
        <time>2019-02-25T00:36:58Z</time>
      </trkpt>
      <trkpt lat="37.920695" lon="-6.125882">
        <ele>455.221</ele>
        <time>2019-02-25T00:36:59Z</time>
      </trkpt>
      <trkpt lat="37.920709" lon="-6.125948">
        <ele>454.408</ele>
        <time>2019-02-25T00:37:00Z</time>
      </trkpt>
      <trkpt lat="37.920710" lon="-6.126015">
        <ele>453.877</ele>
        <time>2019-02-25T00:37:01Z</time>
      </trkpt>
      <trkpt lat="37.920699" lon="-6.126078">
        <ele>453.448</ele>
        <time>2019-02-25T00:37:02Z</time>
      </trkpt>
      <trkpt lat="37.920684" lon="-6.126140">
        <ele>452.849</ele>
        <time>2019-02-25T00:37:03Z</time>
      </trkpt>
      <trkpt lat="37.920669" lon="-6.126201">
        <ele>452.418</ele>
        <time>2019-02-25T00:37:04Z</time>
      </trkpt>
      <trkpt lat="37.920636" lon="-6.126391">
        <ele>451.162</ele>
        <time>2019-02-25T00:37:07Z</time>
      </trkpt>
      <trkpt lat="37.920633" lon="-6.126455">
        <ele>450.935</ele>
        <time>2019-02-25T00:37:08Z</time>
      </trkpt>
      <trkpt lat="37.920654" lon="-6.126865">
        <ele>451.024</ele>
        <time>2019-02-25T00:37:14Z</time>
      </trkpt>
      <trkpt lat="37.920670" lon="-6.126934">
        <ele>451.383</ele>
        <time>2019-02-25T00:37:15Z</time>
      </trkpt>
      <trkpt lat="37.920765" lon="-6.127225">
        <ele>451.741</ele>
        <time>2019-02-25T00:37:19Z</time>
      </trkpt>
      <trkpt lat="37.921005" lon="-6.127708">
        <ele>451.581</ele>
        <time>2019-02-25T00:37:26Z</time>
      </trkpt>
      <trkpt lat="37.921133" lon="-6.127864">
        <ele>450.609</ele>
        <time>2019-02-25T00:37:29Z</time>
      </trkpt>
      <trkpt lat="37.921163" lon="-6.127929">
        <ele>450.108</ele>
        <time>2019-02-25T00:37:30Z</time>
      </trkpt>
      <trkpt lat="37.921180" lon="-6.128003">
        <ele>449.837</ele>
        <time>2019-02-25T00:37:31Z</time>
      </trkpt>
      <trkpt lat="37.921183" lon="-6.128077">
        <ele>449.768</ele>
        <time>2019-02-25T00:37:32Z</time>
      </trkpt>
      <trkpt lat="37.921171" lon="-6.128143">
        <ele>449.459</ele>
        <time>2019-02-25T00:37:33Z</time>
      </trkpt>
      <trkpt lat="37.921149" lon="-6.128198">
        <ele>449.218</ele>
        <time>2019-02-25T00:37:34Z</time>
      </trkpt>
      <trkpt lat="37.921124" lon="-6.128249">
        <ele>449.052</ele>
        <time>2019-02-25T00:37:35Z</time>
      </trkpt>
      <trkpt lat="37.921050" lon="-6.128385">
        <ele>448.395</ele>
        <time>2019-02-25T00:37:38Z</time>
      </trkpt>
      <trkpt lat="37.920970" lon="-6.128626">
        <ele>447.944</ele>
        <time>2019-02-25T00:37:43Z</time>
      </trkpt>
      <trkpt lat="37.920961" lon="-6.128681">
        <ele>448.053</ele>
        <time>2019-02-25T00:37:44Z</time>
      </trkpt>
      <trkpt lat="37.920957" lon="-6.128740">
        <ele>448.045</ele>
        <time>2019-02-25T00:37:45Z</time>
      </trkpt>
      <trkpt lat="37.921014" lon="-6.129698">
        <ele>447.047</ele>
        <time>2019-02-25T00:37:57Z</time>
      </trkpt>
      <trkpt lat="37.921298" lon="-6.130465">
        <ele>446.111</ele>
        <time>2019-02-25T00:38:11Z</time>
      </trkpt>
      <trkpt lat="37.921311" lon="-6.130496">
        <ele>446.008</ele>
        <time>2019-02-25T00:38:16Z</time>
      </trkpt>
      <trkpt lat="37.921364" lon="-6.130592">
        <ele>446.277</ele>
        <time>2019-02-25T00:38:44Z</time>
      </trkpt>
      <trkpt lat="37.921578" lon="-6.131161">
        <ele>445.678</ele>
        <time>2019-02-25T00:38:58Z</time>
      </trkpt>
      <trkpt lat="37.921769" lon="-6.131646">
        <ele>446.839</ele>
        <time>2019-02-25T00:39:08Z</time>
      </trkpt>
      <trkpt lat="37.922093" lon="-6.132465">
        <ele>448.748</ele>
        <time>2019-02-25T00:39:26Z</time>
      </trkpt>
      <trkpt lat="37.922463" lon="-6.133387">
        <ele>451.452</ele>
        <time>2019-02-25T00:39:47Z</time>
      </trkpt>
      <trkpt lat="37.922904" lon="-6.134043">
        <ele>454.545</ele>
        <time>2019-02-25T00:40:06Z</time>
      </trkpt>
      <trkpt lat="37.923364" lon="-6.134511">
        <ele>455.864</ele>
        <time>2019-02-25T00:40:24Z</time>
      </trkpt>
      <trkpt lat="37.923940" lon="-6.135076">
        <ele>454.483</ele>
        <time>2019-02-25T00:40:44Z</time>
      </trkpt>
      <trkpt lat="37.924406" lon="-6.135553">
        <ele>452.129</ele>
        <time>2019-02-25T00:41:00Z</time>
      </trkpt>
      <trkpt lat="37.924828" lon="-6.135993">
        <ele>450.900</ele>
        <time>2019-02-25T00:41:16Z</time>
      </trkpt>
      <trkpt lat="37.925343" lon="-6.136501">
        <ele>450.120</ele>
        <time>2019-02-25T00:41:33Z</time>
      </trkpt>
      <trkpt lat="37.925554" lon="-6.136654">
        <ele>450.308</ele>
        <time>2019-02-25T00:41:39Z</time>
      </trkpt>
      <trkpt lat="37.925796" lon="-6.136724">
        <ele>450.165</ele>
        <time>2019-02-25T00:41:45Z</time>
      </trkpt>
      <trkpt lat="37.925837" lon="-6.136720">
        <ele>450.146</ele>
        <time>2019-02-25T00:41:46Z</time>
      </trkpt>
      <trkpt lat="37.925878" lon="-6.136717">
        <ele>450.157</ele>
        <time>2019-02-25T00:41:47Z</time>
      </trkpt>
      <trkpt lat="37.925919" lon="-6.136719">
        <ele>450.156</ele>
        <time>2019-02-25T00:41:48Z</time>
      </trkpt>
      <trkpt lat="37.925960" lon="-6.136726">
        <ele>450.120</ele>
        <time>2019-02-25T00:41:49Z</time>
      </trkpt>
      <trkpt lat="37.926609" lon="-6.136770">
        <ele>451.783</ele>
        <time>2019-02-25T00:42:06Z</time>
      </trkpt>
      <trkpt lat="37.927090" lon="-6.136946">
        <ele>454.272</ele>
        <time>2019-02-25T00:42:20Z</time>
      </trkpt>
      <trkpt lat="37.927605" lon="-6.137226">
        <ele>453.751</ele>
        <time>2019-02-25T00:42:37Z</time>
      </trkpt>
      <trkpt lat="37.927945" lon="-6.137546">
        <ele>451.235</ele>
        <time>2019-02-25T00:42:50Z</time>
      </trkpt>
      <trkpt lat="37.928327" lon="-6.137860">
        <ele>449.686</ele>
        <time>2019-02-25T00:43:03Z</time>
      </trkpt>
      <trkpt lat="37.928909" lon="-6.138167">
        <ele>450.114</ele>
        <time>2019-02-25T00:43:19Z</time>
      </trkpt>
      <trkpt lat="37.929550" lon="-6.138485">
        <ele>451.808</ele>
        <time>2019-02-25T00:43:36Z</time>
      </trkpt>
      <trkpt lat="37.929913" lon="-6.138670">
        <ele>452.786</ele>
        <time>2019-02-25T00:43:47Z</time>
      </trkpt>
      <trkpt lat="37.930506" lon="-6.138972">
        <ele>451.197</ele>
        <time>2019-02-25T00:44:04Z</time>
      </trkpt>
      <trkpt lat="37.931150" lon="-6.139411">
        <ele>448.158</ele>
        <time>2019-02-25T00:44:19Z</time>
      </trkpt>
      <trkpt lat="37.932047" lon="-6.140053">
        <ele>442.417</ele>
        <time>2019-02-25T00:44:35Z</time>
      </trkpt>
      <trkpt lat="37.932935" lon="-6.140418">
        <ele>441.041</ele>
        <time>2019-02-25T00:44:48Z</time>
      </trkpt>
      <trkpt lat="37.933480" lon="-6.140578">
        <ele>440.124</ele>
        <time>2019-02-25T00:44:55Z</time>
      </trkpt>
      <trkpt lat="37.934129" lon="-6.140771">
        <ele>440.473</ele>
        <time>2019-02-25T00:45:04Z</time>
      </trkpt>
      <trkpt lat="37.934194" lon="-6.140791">
        <ele>440.442</ele>
        <time>2019-02-25T00:45:05Z</time>
      </trkpt>
      <trkpt lat="37.934702" lon="-6.140959">
        <ele>442.766</ele>
        <time>2019-02-25T00:45:16Z</time>
      </trkpt>
      <trkpt lat="37.935100" lon="-6.141066">
        <ele>444.729</ele>
        <time>2019-02-25T00:45:30Z</time>
      </trkpt>
      <trkpt lat="37.935606" lon="-6.141154">
        <ele>445.821</ele>
        <time>2019-02-25T00:45:45Z</time>
      </trkpt>
      <trkpt lat="37.936026" lon="-6.141219">
        <ele>446.708</ele>
        <time>2019-02-25T00:45:58Z</time>
      </trkpt>
      <trkpt lat="37.936282" lon="-6.141280">
        <ele>446.949</ele>
        <time>2019-02-25T00:46:14Z</time>
      </trkpt>
      <trkpt lat="37.936471" lon="-6.141389">
        <ele>448.520</ele>
        <time>2019-02-25T00:46:30Z</time>
      </trkpt>
      <trkpt lat="37.936615" lon="-6.141548">
        <ele>450.531</ele>
        <time>2019-02-25T00:46:45Z</time>
      </trkpt>
      <trkpt lat="37.936756" lon="-6.141754">
        <ele>452.750</ele>
        <time>2019-02-25T00:47:02Z</time>
      </trkpt>
      <trkpt lat="37.936926" lon="-6.141994">
        <ele>455.174</ele>
        <time>2019-02-25T00:47:21Z</time>
      </trkpt>
      <trkpt lat="37.937143" lon="-6.142206">
        <ele>458.187</ele>
        <time>2019-02-25T00:47:39Z</time>
      </trkpt>
      <trkpt lat="37.937365" lon="-6.142408">
        <ele>460.556</ele>
        <time>2019-02-25T00:47:55Z</time>
      </trkpt>
      <trkpt lat="37.937599" lon="-6.142644">
        <ele>462.595</ele>
        <time>2019-02-25T00:48:13Z</time>
      </trkpt>
      <trkpt lat="37.937831" lon="-6.142870">
        <ele>464.973</ele>
        <time>2019-02-25T00:48:30Z</time>
      </trkpt>
      <trkpt lat="37.938092" lon="-6.143106">
        <ele>466.385</ele>
        <time>2019-02-25T00:48:47Z</time>
      </trkpt>
      <trkpt lat="37.938422" lon="-6.143417">
        <ele>467.613</ele>
        <time>2019-02-25T00:49:07Z</time>
      </trkpt>
      <trkpt lat="37.938432" lon="-6.143431">
        <ele>467.608</ele>
        <time>2019-02-25T00:49:11Z</time>
      </trkpt>
      <trkpt lat="37.938492" lon="-6.143462">
        <ele>467.960</ele>
        <time>2019-02-25T00:50:13Z</time>
      </trkpt>
      <trkpt lat="37.938716" lon="-6.143694">
        <ele>468.981</ele>
        <time>2019-02-25T00:50:27Z</time>
      </trkpt>
      <trkpt lat="37.938994" lon="-6.143974">
        <ele>470.062</ele>
        <time>2019-02-25T00:50:43Z</time>
      </trkpt>
      <trkpt lat="37.939335" lon="-6.144261">
        <ele>471.051</ele>
        <time>2019-02-25T00:51:02Z</time>
      </trkpt>
      <trkpt lat="37.939633" lon="-6.144483">
        <ele>472.085</ele>
        <time>2019-02-25T00:51:17Z</time>
      </trkpt>
      <trkpt lat="37.939917" lon="-6.144683">
        <ele>473.148</ele>
        <time>2019-02-25T00:51:32Z</time>
      </trkpt>
      <trkpt lat="37.940334" lon="-6.144990">
        <ele>475.477</ele>
        <time>2019-02-25T00:51:50Z</time>
      </trkpt>
      <trkpt lat="37.940777" lon="-6.145264">
        <ele>477.416</ele>
        <time>2019-02-25T00:52:09Z</time>
      </trkpt>
      <trkpt lat="37.941117" lon="-6.145423">
        <ele>479.754</ele>
        <time>2019-02-25T00:52:25Z</time>
      </trkpt>
      <trkpt lat="37.941441" lon="-6.145543">
        <ele>480.956</ele>
        <time>2019-02-25T00:52:40Z</time>
      </trkpt>
      <trkpt lat="37.941838" lon="-6.145642">
        <ele>481.911</ele>
        <time>2019-02-25T00:52:56Z</time>
      </trkpt>
      <trkpt lat="37.942176" lon="-6.145740">
        <ele>481.708</ele>
        <time>2019-02-25T00:53:11Z</time>
      </trkpt>
      <trkpt lat="37.942492" lon="-6.145855">
        <ele>481.918</ele>
        <time>2019-02-25T00:53:26Z</time>
      </trkpt>
      <trkpt lat="37.942949" lon="-6.145975">
        <ele>482.529</ele>
        <time>2019-02-25T00:53:47Z</time>
      </trkpt>
      <trkpt lat="37.943285" lon="-6.146090">
        <ele>482.860</ele>
        <time>2019-02-25T00:54:04Z</time>
      </trkpt>
      <trkpt lat="37.943550" lon="-6.146258">
        <ele>482.949</ele>
        <time>2019-02-25T00:54:18Z</time>
      </trkpt>
      <trkpt lat="37.943828" lon="-6.146502">
        <ele>484.093</ele>
        <time>2019-02-25T00:54:35Z</time>
      </trkpt>
      <trkpt lat="37.944121" lon="-6.146721">
        <ele>487.066</ele>
        <time>2019-02-25T00:54:52Z</time>
      </trkpt>
      <trkpt lat="37.944353" lon="-6.146847">
        <ele>489.375</ele>
        <time>2019-02-25T00:55:05Z</time>
      </trkpt>
      <trkpt lat="37.944763" lon="-6.146874">
        <ele>491.884</ele>
        <time>2019-02-25T00:55:25Z</time>
      </trkpt>
      <trkpt lat="37.945074" lon="-6.146826">
        <ele>493.366</ele>
        <time>2019-02-25T00:55:41Z</time>
      </trkpt>
      <trkpt lat="37.945383" lon="-6.146860">
        <ele>494.729</ele>
        <time>2019-02-25T00:55:55Z</time>
      </trkpt>
      <trkpt lat="37.945766" lon="-6.146970">
        <ele>496.421</ele>
        <time>2019-02-25T00:56:13Z</time>
      </trkpt>
      <trkpt lat="37.946213" lon="-6.147196">
        <ele>497.108</ele>
        <time>2019-02-25T00:56:27Z</time>
      </trkpt>
      <trkpt lat="37.946564" lon="-6.147366">
        <ele>496.999</ele>
        <time>2019-02-25T00:56:39Z</time>
      </trkpt>
      <trkpt lat="37.946932" lon="-6.147622">
        <ele>495.120</ele>
        <time>2019-02-25T00:56:53Z</time>
      </trkpt>
      <trkpt lat="37.947320" lon="-6.148027">
        <ele>493.661</ele>
        <time>2019-02-25T00:57:08Z</time>
      </trkpt>
      <trkpt lat="37.947362" lon="-6.148095">
        <ele>493.680</ele>
        <time>2019-02-25T00:57:17Z</time>
      </trkpt>
      <trkpt lat="37.947393" lon="-6.148159">
        <ele>493.614</ele>
        <time>2019-02-25T00:58:05Z</time>
      </trkpt>
      <trkpt lat="37.947593" lon="-6.148697">
        <ele>493.137</ele>
        <time>2019-02-25T00:58:19Z</time>
      </trkpt>
      <trkpt lat="37.947809" lon="-6.149226">
        <ele>492.186</ele>
        <time>2019-02-25T00:58:31Z</time>
      </trkpt>
      <trkpt lat="37.947847" lon="-6.149343">
        <ele>491.945</ele>
        <time>2019-02-25T00:58:33Z</time>
      </trkpt>
      <trkpt lat="37.947868" lon="-6.149407">
        <ele>491.896</ele>
        <time>2019-02-25T00:58:34Z</time>
      </trkpt>
      <trkpt lat="37.948092" lon="-6.149938">
        <ele>489.631</ele>
        <time>2019-02-25T00:58:43Z</time>
      </trkpt>
      <trkpt lat="37.948198" lon="-6.150134">
        <ele>488.524</ele>
        <time>2019-02-25T00:58:50Z</time>
      </trkpt>
      <trkpt lat="37.948200" lon="-6.150156">
        <ele>488.408</ele>
        <time>2019-02-25T00:59:00Z</time>
      </trkpt>
      <trkpt lat="37.948180" lon="-6.150216">
        <ele>488.112</ele>
        <time>2019-02-25T01:09:39Z</time>
      </trkpt>
      <trkpt lat="37.948379" lon="-6.150677">
        <ele>485.273</ele>
        <time>2019-02-25T01:09:48Z</time>
      </trkpt>
      <trkpt lat="37.948538" lon="-6.150996">
        <ele>483.124</ele>
        <time>2019-02-25T01:09:56Z</time>
      </trkpt>
      <trkpt lat="37.948885" lon="-6.150922">
        <ele>480.943</ele>
        <time>2019-02-25T01:10:05Z</time>
      </trkpt>
      <trkpt lat="37.948987" lon="-6.150886">
        <ele>480.647</ele>
        <time>2019-02-25T01:10:07Z</time>
      </trkpt>
      <trkpt lat="37.949208" lon="-6.150848">
        <ele>480.080</ele>
        <time>2019-02-25T01:10:13Z</time>
      </trkpt>
      <trkpt lat="37.949228" lon="-6.150882">
        <ele>479.939</ele>
        <time>2019-02-25T01:10:14Z</time>
      </trkpt>
      <trkpt lat="37.949243" lon="-6.150926">
        <ele>479.898</ele>
        <time>2019-02-25T01:10:15Z</time>
      </trkpt>
      <trkpt lat="37.949392" lon="-6.151459">
        <ele>477.424</ele>
        <time>2019-02-25T01:10:25Z</time>
      </trkpt>
      <trkpt lat="37.949416" lon="-6.151497">
        <ele>477.404</ele>
        <time>2019-02-25T01:10:26Z</time>
      </trkpt>
      <trkpt lat="37.949428" lon="-6.151520">
        <ele>477.114</ele>
        <time>2019-02-25T01:10:27Z</time>
      </trkpt>
      <trkpt lat="37.949463" lon="-6.151540">
        <ele>477.008</ele>
        <time>2019-02-25T01:10:35Z</time>
      </trkpt>
      <trkpt lat="37.949461" lon="-6.151483">
        <ele>476.915</ele>
        <time>2019-02-25T01:10:42Z</time>
      </trkpt>
      <trkpt lat="37.949442" lon="-6.151415">
        <ele>476.896</ele>
        <time>2019-02-25T01:10:51Z</time>
      </trkpt>
      <trkpt lat="37.949641" lon="-6.151544">
        <ele>476.447</ele>
        <time>2019-02-25T01:14:46Z</time>
      </trkpt>
      <trkpt lat="37.949654" lon="-6.151696">
        <ele>475.456</ele>
        <time>2019-02-25T01:14:50Z</time>
      </trkpt>
      <trkpt lat="37.949725" lon="-6.151860">
        <ele>474.690</ele>
        <time>2019-02-25T01:14:54Z</time>
      </trkpt>
      <trkpt lat="37.949818" lon="-6.151997">
        <ele>474.213</ele>
        <time>2019-02-25T01:14:58Z</time>
      </trkpt>
      <trkpt lat="37.949891" lon="-6.152138">
        <ele>474.392</ele>
        <time>2019-02-25T01:15:01Z</time>
      </trkpt>
      <trkpt lat="37.950296" lon="-6.152820">
        <ele>471.821</ele>
        <time>2019-02-25T01:15:13Z</time>
      </trkpt>
      <trkpt lat="37.950440" lon="-6.153058">
        <ele>470.972</ele>
        <time>2019-02-25T01:15:17Z</time>
      </trkpt>
      <trkpt lat="37.950670" lon="-6.153693">
        <ele>470.413</ele>
        <time>2019-02-25T01:15:28Z</time>
      </trkpt>
      <trkpt lat="37.950832" lon="-6.154120">
        <ele>469.014</ele>
        <time>2019-02-25T01:15:36Z</time>
      </trkpt>
      <trkpt lat="37.951018" lon="-6.154717">
        <ele>468.308</ele>
        <time>2019-02-25T01:15:48Z</time>
      </trkpt>
      <trkpt lat="37.951069" lon="-6.154857">
        <ele>468.390</ele>
        <time>2019-02-25T01:15:51Z</time>
      </trkpt>
      <trkpt lat="37.951244" lon="-6.155364">
        <ele>468.221</ele>
        <time>2019-02-25T01:16:00Z</time>
      </trkpt>
      <trkpt lat="37.951482" lon="-6.156083">
        <ele>465.642</ele>
        <time>2019-02-25T01:16:15Z</time>
      </trkpt>
      <trkpt lat="37.951646" lon="-6.156454">
        <ele>463.881</ele>
        <time>2019-02-25T01:16:22Z</time>
      </trkpt>
      <trkpt lat="37.951938" lon="-6.156880">
        <ele>463.025</ele>
        <time>2019-02-25T01:16:31Z</time>
      </trkpt>
      <trkpt lat="37.952204" lon="-6.157210">
        <ele>463.168</ele>
        <time>2019-02-25T01:16:43Z</time>
      </trkpt>
      <trkpt lat="37.952433" lon="-6.157419">
        <ele>462.537</ele>
        <time>2019-02-25T01:16:55Z</time>
      </trkpt>
      <trkpt lat="37.952872" lon="-6.157812">
        <ele>464.136</ele>
        <time>2019-02-25T01:17:16Z</time>
      </trkpt>
      <trkpt lat="37.953202" lon="-6.158191">
        <ele>465.563</ele>
        <time>2019-02-25T01:17:35Z</time>
      </trkpt>
      <trkpt lat="37.953473" lon="-6.158509">
        <ele>466.844</ele>
        <time>2019-02-25T01:17:52Z</time>
      </trkpt>
      <trkpt lat="37.953731" lon="-6.158747">
        <ele>468.518</ele>
        <time>2019-02-25T01:18:12Z</time>
      </trkpt>
      <trkpt lat="37.953927" lon="-6.158890">
        <ele>471.008</ele>
        <time>2019-02-25T01:18:29Z</time>
      </trkpt>
      <trkpt lat="37.954140" lon="-6.158961">
        <ele>474.399</ele>
        <time>2019-02-25T01:18:48Z</time>
      </trkpt>
      <trkpt lat="37.954199" lon="-6.158968">
        <ele>475.220</ele>
        <time>2019-02-25T01:18:57Z</time>
      </trkpt>
      <trkpt lat="37.954425" lon="-6.158907">
        <ele>477.531</ele>
        <time>2019-02-25T01:19:34Z</time>
      </trkpt>
      <trkpt lat="37.954607" lon="-6.158777">
        <ele>477.850</ele>
        <time>2019-02-25T01:19:45Z</time>
      </trkpt>
      <trkpt lat="37.954897" lon="-6.158448">
        <ele>473.914</ele>
        <time>2019-02-25T01:19:56Z</time>
      </trkpt>
      <trkpt lat="37.955082" lon="-6.158250">
        <ele>471.217</ele>
        <time>2019-02-25T01:20:03Z</time>
      </trkpt>
      <trkpt lat="37.955130" lon="-6.158232">
        <ele>470.796</ele>
        <time>2019-02-25T01:20:04Z</time>
      </trkpt>
      <trkpt lat="37.955523" lon="-6.158147">
        <ele>467.435</ele>
        <time>2019-02-25T01:20:11Z</time>
      </trkpt>
      <trkpt lat="37.955835" lon="-6.158087">
        <ele>465.111</ele>
        <time>2019-02-25T01:20:18Z</time>
      </trkpt>
      <trkpt lat="37.956101" lon="-6.158236">
        <ele>462.721</ele>
        <time>2019-02-25T01:20:27Z</time>
      </trkpt>
      <trkpt lat="37.956304" lon="-6.158552">
        <ele>459.903</ele>
        <time>2019-02-25T01:20:33Z</time>
      </trkpt>
      <trkpt lat="37.956361" lon="-6.158682">
        <ele>458.808</ele>
        <time>2019-02-25T01:20:35Z</time>
      </trkpt>
      <trkpt lat="37.956487" lon="-6.159025">
        <ele>455.454</ele>
        <time>2019-02-25T01:20:41Z</time>
      </trkpt>
      <trkpt lat="37.956579" lon="-6.159374">
        <ele>450.885</ele>
        <time>2019-02-25T01:20:47Z</time>
      </trkpt>
      <trkpt lat="37.956599" lon="-6.159425">
        <ele>450.156</ele>
        <time>2019-02-25T01:20:48Z</time>
      </trkpt>
      <trkpt lat="37.956622" lon="-6.159473">
        <ele>449.525</ele>
        <time>2019-02-25T01:20:49Z</time>
      </trkpt>
      <trkpt lat="37.956735" lon="-6.159653">
        <ele>447.829</ele>
        <time>2019-02-25T01:20:54Z</time>
      </trkpt>
      <trkpt lat="37.956917" lon="-6.159827">
        <ele>446.352</ele>
        <time>2019-02-25T01:21:00Z</time>
      </trkpt>
      <trkpt lat="37.957102" lon="-6.159937">
        <ele>445.721</ele>
        <time>2019-02-25T01:21:12Z</time>
      </trkpt>
      <trkpt lat="37.957104" lon="-6.159935">
        <ele>445.780</ele>
        <time>2019-02-25T01:21:13Z</time>
      </trkpt>
      <trkpt lat="37.957135" lon="-6.159996">
        <ele>445.798</ele>
        <time>2019-02-25T01:21:19Z</time>
      </trkpt>
      <trkpt lat="37.957126" lon="-6.160013">
        <ele>445.715</ele>
        <time>2019-02-25T01:21:24Z</time>
      </trkpt>
      <trkpt lat="37.957232" lon="-6.159941">
        <ele>445.826</ele>
        <time>2019-02-25T01:24:41Z</time>
      </trkpt>
      <trkpt lat="37.957521" lon="-6.160138">
        <ele>446.808</ele>
        <time>2019-02-25T01:24:57Z</time>
      </trkpt>
      <trkpt lat="37.957797" lon="-6.160340">
        <ele>447.872</ele>
        <time>2019-02-25T01:25:10Z</time>
      </trkpt>
      <trkpt lat="37.958082" lon="-6.160575">
        <ele>449.173</ele>
        <time>2019-02-25T01:25:27Z</time>
      </trkpt>
      <trkpt lat="37.958120" lon="-6.160606">
        <ele>449.254</ele>
        <time>2019-02-25T01:25:55Z</time>
      </trkpt>
      <trkpt lat="37.958349" lon="-6.160898">
        <ele>450.553</ele>
        <time>2019-02-25T01:26:09Z</time>
      </trkpt>
      <trkpt lat="37.958684" lon="-6.161394">
        <ele>454.477</ele>
        <time>2019-02-25T01:26:30Z</time>
      </trkpt>
      <trkpt lat="37.958964" lon="-6.161666">
        <ele>455.710</ele>
        <time>2019-02-25T01:26:46Z</time>
      </trkpt>
      <trkpt lat="37.959255" lon="-6.161890">
        <ele>458.149</ele>
        <time>2019-02-25T01:27:03Z</time>
      </trkpt>
      <trkpt lat="37.959556" lon="-6.162120">
        <ele>459.318</ele>
        <time>2019-02-25T01:27:20Z</time>
      </trkpt>
      <trkpt lat="37.959916" lon="-6.162235">
        <ele>459.284</ele>
        <time>2019-02-25T01:27:33Z</time>
      </trkpt>
      <trkpt lat="37.960395" lon="-6.162297">
        <ele>459.707</ele>
        <time>2019-02-25T01:27:46Z</time>
      </trkpt>
      <trkpt lat="37.960913" lon="-6.162355">
        <ele>461.317</ele>
        <time>2019-02-25T01:28:03Z</time>
      </trkpt>
      <trkpt lat="37.961355" lon="-6.162335">
        <ele>464.408</ele>
        <time>2019-02-25T01:28:23Z</time>
      </trkpt>
      <trkpt lat="37.961775" lon="-6.162233">
        <ele>466.131</ele>
        <time>2019-02-25T01:28:45Z</time>
      </trkpt>
      <trkpt lat="37.962247" lon="-6.162314">
        <ele>464.952</ele>
        <time>2019-02-25T01:28:58Z</time>
      </trkpt>
      <trkpt lat="37.962951" lon="-6.162498">
        <ele>463.193</ele>
        <time>2019-02-25T01:29:11Z</time>
      </trkpt>
      <trkpt lat="37.963439" lon="-6.162643">
        <ele>464.742</ele>
        <time>2019-02-25T01:29:25Z</time>
      </trkpt>
      <trkpt lat="37.963985" lon="-6.162782">
        <ele>468.016</ele>
        <time>2019-02-25T01:29:44Z</time>
      </trkpt>
      <trkpt lat="37.964445" lon="-6.162794">
        <ele>469.869</ele>
        <time>2019-02-25T01:30:01Z</time>
      </trkpt>
      <trkpt lat="37.964984" lon="-6.162779">
        <ele>470.758</ele>
        <time>2019-02-25T01:30:19Z</time>
      </trkpt>
      <trkpt lat="37.965599" lon="-6.162926">
        <ele>471.227</ele>
        <time>2019-02-25T01:30:37Z</time>
      </trkpt>
      <trkpt lat="37.966168" lon="-6.162977">
        <ele>472.138</ele>
        <time>2019-02-25T01:30:55Z</time>
      </trkpt>
      <trkpt lat="37.966623" lon="-6.163022">
        <ele>473.870</ele>
        <time>2019-02-25T01:31:11Z</time>
      </trkpt>
      <trkpt lat="37.967118" lon="-6.163121">
        <ele>476.817</ele>
        <time>2019-02-25T01:31:29Z</time>
      </trkpt>
      <trkpt lat="37.967511" lon="-6.163217">
        <ele>477.208</ele>
        <time>2019-02-25T01:31:46Z</time>
      </trkpt>
      <trkpt lat="37.967870" lon="-6.163397">
        <ele>480.596</ele>
        <time>2019-02-25T01:32:03Z</time>
      </trkpt>
      <trkpt lat="37.968140" lon="-6.163640">
        <ele>481.967</ele>
        <time>2019-02-25T01:32:17Z</time>
      </trkpt>
      <trkpt lat="37.968526" lon="-6.164050">
        <ele>482.448</ele>
        <time>2019-02-25T01:32:33Z</time>
      </trkpt>
      <trkpt lat="37.969006" lon="-6.164522">
        <ele>482.877</ele>
        <time>2019-02-25T01:32:52Z</time>
      </trkpt>
      <trkpt lat="37.969407" lon="-6.164798">
        <ele>484.451</ele>
        <time>2019-02-25T01:33:09Z</time>
      </trkpt>
      <trkpt lat="37.969716" lon="-6.164994">
        <ele>486.674</ele>
        <time>2019-02-25T01:33:26Z</time>
      </trkpt>
      <trkpt lat="37.970100" lon="-6.165058">
        <ele>487.123</ele>
        <time>2019-02-25T01:33:38Z</time>
      </trkpt>
      <trkpt lat="37.970712" lon="-6.165079">
        <ele>488.262</ele>
        <time>2019-02-25T01:33:58Z</time>
      </trkpt>
      <trkpt lat="37.971215" lon="-6.165120">
        <ele>491.288</ele>
        <time>2019-02-25T01:34:18Z</time>
      </trkpt>
      <trkpt lat="37.971642" lon="-6.165172">
        <ele>494.024</ele>
        <time>2019-02-25T01:34:38Z</time>
      </trkpt>
      <trkpt lat="37.971913" lon="-6.165309">
        <ele>495.626</ele>
        <time>2019-02-25T01:34:53Z</time>
      </trkpt>
      <trkpt lat="37.972253" lon="-6.165486">
        <ele>497.108</ele>
        <time>2019-02-25T01:35:10Z</time>
      </trkpt>
      <trkpt lat="37.972577" lon="-6.165583">
        <ele>498.191</ele>
        <time>2019-02-25T01:35:24Z</time>
      </trkpt>
      <trkpt lat="37.972855" lon="-6.165633">
        <ele>499.272</ele>
        <time>2019-02-25T01:35:36Z</time>
      </trkpt>
      <trkpt lat="37.972876" lon="-6.165638">
        <ele>499.313</ele>
        <time>2019-02-25T01:35:37Z</time>
      </trkpt>
      <trkpt lat="37.973241" lon="-6.165641">
        <ele>499.192</ele>
        <time>2019-02-25T01:35:49Z</time>
      </trkpt>
      <trkpt lat="37.973294" lon="-6.165654">
        <ele>498.866</ele>
        <time>2019-02-25T01:35:50Z</time>
      </trkpt>
      <trkpt lat="37.973354" lon="-6.165673">
        <ele>498.579</ele>
        <time>2019-02-25T01:35:51Z</time>
      </trkpt>
      <trkpt lat="37.973417" lon="-6.165697">
        <ele>498.268</ele>
        <time>2019-02-25T01:35:52Z</time>
      </trkpt>
      <trkpt lat="37.973482" lon="-6.165727">
        <ele>497.737</ele>
        <time>2019-02-25T01:35:53Z</time>
      </trkpt>
      <trkpt lat="37.973548" lon="-6.165760">
        <ele>497.252</ele>
        <time>2019-02-25T01:35:54Z</time>
      </trkpt>
      <trkpt lat="37.974162" lon="-6.166113">
        <ele>493.053</ele>
        <time>2019-02-25T01:36:02Z</time>
      </trkpt>
      <trkpt lat="37.974371" lon="-6.166264">
        <ele>492.308</ele>
        <time>2019-02-25T01:36:05Z</time>
      </trkpt>
      <trkpt lat="37.974755" lon="-6.166518">
        <ele>492.908</ele>
        <time>2019-02-25T01:36:14Z</time>
      </trkpt>
      <trkpt lat="37.975356" lon="-6.166544">
        <ele>494.148</ele>
        <time>2019-02-25T01:36:28Z</time>
      </trkpt>
      <trkpt lat="37.975398" lon="-6.166550">
        <ele>494.269</ele>
        <time>2019-02-25T01:36:29Z</time>
      </trkpt>
      <trkpt lat="37.975441" lon="-6.166558">
        <ele>494.290</ele>
        <time>2019-02-25T01:36:30Z</time>
      </trkpt>
      <trkpt lat="37.975482" lon="-6.166572">
        <ele>494.369</ele>
        <time>2019-02-25T01:36:31Z</time>
      </trkpt>
      <trkpt lat="37.975523" lon="-6.166591">
        <ele>494.463</ele>
        <time>2019-02-25T01:36:32Z</time>
      </trkpt>
      <trkpt lat="37.975559" lon="-6.166610">
        <ele>494.656</ele>
        <time>2019-02-25T01:36:33Z</time>
      </trkpt>
      <trkpt lat="37.976021" lon="-6.166760">
        <ele>495.435</ele>
        <time>2019-02-25T01:36:48Z</time>
      </trkpt>
      <trkpt lat="37.976632" lon="-6.166880">
        <ele>495.634</ele>
        <time>2019-02-25T01:37:06Z</time>
      </trkpt>
      <trkpt lat="37.977224" lon="-6.166940">
        <ele>496.362</ele>
        <time>2019-02-25T01:37:24Z</time>
      </trkpt>
      <trkpt lat="37.977670" lon="-6.166883">
        <ele>496.983</ele>
        <time>2019-02-25T01:37:39Z</time>
      </trkpt>
      <trkpt lat="37.978260" lon="-6.166790">
        <ele>498.511</ele>
        <time>2019-02-25T01:37:59Z</time>
      </trkpt>
      <trkpt lat="37.978614" lon="-6.166716">
        <ele>499.208</ele>
        <time>2019-02-25T01:38:11Z</time>
      </trkpt>
      <trkpt lat="37.979177" lon="-6.166819">
        <ele>499.849</ele>
        <time>2019-02-25T01:38:29Z</time>
      </trkpt>
      <trkpt lat="37.979641" lon="-6.166964">
        <ele>501.290</ele>
        <time>2019-02-25T01:38:43Z</time>
      </trkpt>
      <trkpt lat="37.980120" lon="-6.167151">
        <ele>502.431</ele>
        <time>2019-02-25T01:38:57Z</time>
      </trkpt>
      <trkpt lat="37.980514" lon="-6.167239">
        <ele>503.240</ele>
        <time>2019-02-25T01:39:09Z</time>
      </trkpt>
      <trkpt lat="37.980985" lon="-6.167308">
        <ele>504.354</ele>
        <time>2019-02-25T01:39:24Z</time>
      </trkpt>
      <trkpt lat="37.981330" lon="-6.167446">
        <ele>505.227</ele>
        <time>2019-02-25T01:39:36Z</time>
      </trkpt>
      <trkpt lat="37.981731" lon="-6.167579">
        <ele>506.666</ele>
        <time>2019-02-25T01:39:49Z</time>
      </trkpt>
      <trkpt lat="37.982087" lon="-6.167792">
        <ele>506.685</ele>
        <time>2019-02-25T01:40:02Z</time>
      </trkpt>
      <trkpt lat="37.982401" lon="-6.168072">
        <ele>507.277</ele>
        <time>2019-02-25T01:40:15Z</time>
      </trkpt>
      <trkpt lat="37.982839" lon="-6.168381">
        <ele>509.661</ele>
        <time>2019-02-25T01:40:31Z</time>
      </trkpt>
      <trkpt lat="37.983180" lon="-6.168651">
        <ele>510.527</ele>
        <time>2019-02-25T01:40:45Z</time>
      </trkpt>
      <trkpt lat="37.983579" lon="-6.168926">
        <ele>511.608</ele>
        <time>2019-02-25T01:41:01Z</time>
      </trkpt>
      <trkpt lat="37.983927" lon="-6.169166">
        <ele>512.440</ele>
        <time>2019-02-25T01:41:15Z</time>
      </trkpt>
      <trkpt lat="37.984241" lon="-6.169364">
        <ele>513.131</ele>
        <time>2019-02-25T01:41:27Z</time>
      </trkpt>
      <trkpt lat="37.984619" lon="-6.169670">
        <ele>513.582</ele>
        <time>2019-02-25T01:41:41Z</time>
      </trkpt>
      <trkpt lat="37.984943" lon="-6.170088">
        <ele>515.541</ele>
        <time>2019-02-25T01:41:56Z</time>
      </trkpt>
      <trkpt lat="37.985431" lon="-6.170675">
        <ele>516.265</ele>
        <time>2019-02-25T01:42:17Z</time>
      </trkpt>
      <trkpt lat="37.985860" lon="-6.171233">
        <ele>518.658</ele>
        <time>2019-02-25T01:42:38Z</time>
      </trkpt>
      <trkpt lat="37.986151" lon="-6.171624">
        <ele>521.177</ele>
        <time>2019-02-25T01:42:55Z</time>
      </trkpt>
      <trkpt lat="37.986434" lon="-6.171980">
        <ele>523.946</ele>
        <time>2019-02-25T01:43:13Z</time>
      </trkpt>
      <trkpt lat="37.986684" lon="-6.172312">
        <ele>525.429</ele>
        <time>2019-02-25T01:43:30Z</time>
      </trkpt>
      <trkpt lat="37.987003" lon="-6.172755">
        <ele>525.300</ele>
        <time>2019-02-25T01:43:44Z</time>
      </trkpt>
      <trkpt lat="37.987431" lon="-6.173470">
        <ele>523.420</ele>
        <time>2019-02-25T01:43:58Z</time>
      </trkpt>
      <trkpt lat="37.988062" lon="-6.174431">
        <ele>517.908</ele>
        <time>2019-02-25T01:44:12Z</time>
      </trkpt>
      <trkpt lat="37.988478" lon="-6.174905">
        <ele>514.515</ele>
        <time>2019-02-25T01:44:18Z</time>
      </trkpt>
      <trkpt lat="37.988928" lon="-6.175517">
        <ele>511.636</ele>
        <time>2019-02-25T01:44:26Z</time>
      </trkpt>
      <trkpt lat="37.989249" lon="-6.175822">
        <ele>513.777</ele>
        <time>2019-02-25T01:44:35Z</time>
      </trkpt>
      <trkpt lat="37.989807" lon="-6.176197">
        <ele>515.776</ele>
        <time>2019-02-25T01:44:52Z</time>
      </trkpt>
      <trkpt lat="37.989910" lon="-6.176269">
        <ele>515.740</ele>
        <time>2019-02-25T01:44:55Z</time>
      </trkpt>
      <trkpt lat="37.990373" lon="-6.176650">
        <ele>514.823</ele>
        <time>2019-02-25T01:45:08Z</time>
      </trkpt>
      <trkpt lat="37.990500" lon="-6.176764">
        <ele>514.842</ele>
        <time>2019-02-25T01:45:12Z</time>
      </trkpt>
      <trkpt lat="37.990605" lon="-6.176890">
        <ele>514.931</ele>
        <time>2019-02-25T01:45:15Z</time>
      </trkpt>
      <trkpt lat="37.990632" lon="-6.176931">
        <ele>514.917</ele>
        <time>2019-02-25T01:45:16Z</time>
      </trkpt>
      <trkpt lat="37.991016" lon="-6.177547">
        <ele>517.187</ele>
        <time>2019-02-25T01:45:34Z</time>
      </trkpt>
      <trkpt lat="37.991436" lon="-6.178120">
        <ele>517.915</ele>
        <time>2019-02-25T01:45:52Z</time>
      </trkpt>
      <trkpt lat="37.991964" lon="-6.178834">
        <ele>514.908</ele>
        <time>2019-02-25T01:46:07Z</time>
      </trkpt>
      <trkpt lat="37.992001" lon="-6.178892">
        <ele>514.764</ele>
        <time>2019-02-25T01:46:08Z</time>
      </trkpt>
      <trkpt lat="37.992036" lon="-6.178954">
        <ele>514.645</ele>
        <time>2019-02-25T01:46:09Z</time>
      </trkpt>
      <trkpt lat="37.992357" lon="-6.179366">
        <ele>516.796</ele>
        <time>2019-02-25T01:46:20Z</time>
      </trkpt>
      <trkpt lat="37.992791" lon="-6.179504">
        <ele>515.815</ele>
        <time>2019-02-25T01:46:32Z</time>
      </trkpt>
      <trkpt lat="37.992970" lon="-6.179649">
        <ele>516.149</ele>
        <time>2019-02-25T01:46:37Z</time>
      </trkpt>
      <trkpt lat="37.993001" lon="-6.179693">
        <ele>516.352</ele>
        <time>2019-02-25T01:46:38Z</time>
      </trkpt>
      <trkpt lat="37.993031" lon="-6.179743">
        <ele>516.451</ele>
        <time>2019-02-25T01:46:39Z</time>
      </trkpt>
      <trkpt lat="37.993059" lon="-6.179798">
        <ele>516.550</ele>
        <time>2019-02-25T01:46:40Z</time>
      </trkpt>
      <trkpt lat="37.993084" lon="-6.179859">
        <ele>516.544</ele>
        <time>2019-02-25T01:46:41Z</time>
      </trkpt>
      <trkpt lat="37.993105" lon="-6.179919">
        <ele>516.605</ele>
        <time>2019-02-25T01:46:42Z</time>
      </trkpt>
      <trkpt lat="37.993299" lon="-6.180354">
        <ele>516.315</ele>
        <time>2019-02-25T01:46:54Z</time>
      </trkpt>
      <trkpt lat="37.993611" lon="-6.180782">
        <ele>518.508</ele>
        <time>2019-02-25T01:47:12Z</time>
      </trkpt>
      <trkpt lat="37.993987" lon="-6.181143">
        <ele>519.957</ele>
        <time>2019-02-25T01:47:28Z</time>
      </trkpt>
      <trkpt lat="37.994346" lon="-6.181424">
        <ele>521.998</ele>
        <time>2019-02-25T01:47:45Z</time>
      </trkpt>
      <trkpt lat="37.994696" lon="-6.181520">
        <ele>522.139</ele>
        <time>2019-02-25T01:47:58Z</time>
      </trkpt>
      <trkpt lat="37.994956" lon="-6.181648">
        <ele>521.998</ele>
        <time>2019-02-25T01:48:05Z</time>
      </trkpt>
      <trkpt lat="37.994991" lon="-6.181684">
        <ele>521.952</ele>
        <time>2019-02-25T01:48:06Z</time>
      </trkpt>
      <trkpt lat="37.995267" lon="-6.182179">
        <ele>522.045</ele>
        <time>2019-02-25T01:48:20Z</time>
      </trkpt>
      <trkpt lat="37.995444" lon="-6.182470">
        <ele>522.734</ele>
        <time>2019-02-25T01:48:29Z</time>
      </trkpt>
      <trkpt lat="37.995474" lon="-6.182505">
        <ele>522.833</ele>
        <time>2019-02-25T01:48:30Z</time>
      </trkpt>
      <trkpt lat="37.995960" lon="-6.182951">
        <ele>519.945</ele>
        <time>2019-02-25T01:48:41Z</time>
      </trkpt>
      <trkpt lat="37.996357" lon="-6.183345">
        <ele>519.447</ele>
        <time>2019-02-25T01:48:52Z</time>
      </trkpt>
      <trkpt lat="37.996856" lon="-6.183660">
        <ele>519.511</ele>
        <time>2019-02-25T01:49:06Z</time>
      </trkpt>
      <trkpt lat="37.997463" lon="-6.183957">
        <ele>519.308</ele>
        <time>2019-02-25T01:49:18Z</time>
      </trkpt>
      <trkpt lat="37.997512" lon="-6.183965">
        <ele>519.647</ele>
        <time>2019-02-25T01:49:19Z</time>
      </trkpt>
      <trkpt lat="37.997619" lon="-6.183990">
        <ele>519.988</ele>
        <time>2019-02-25T01:49:21Z</time>
      </trkpt>
      <trkpt lat="37.997675" lon="-6.184017">
        <ele>520.039</ele>
        <time>2019-02-25T01:49:22Z</time>
      </trkpt>
      <trkpt lat="37.997730" lon="-6.184057">
        <ele>519.958</ele>
        <time>2019-02-25T01:49:23Z</time>
      </trkpt>
      <trkpt lat="37.997777" lon="-6.184106">
        <ele>519.842</ele>
        <time>2019-02-25T01:49:24Z</time>
      </trkpt>
      <trkpt lat="37.997817" lon="-6.184154">
        <ele>519.645</ele>
        <time>2019-02-25T01:49:25Z</time>
      </trkpt>
      <trkpt lat="37.998117" lon="-6.184573">
        <ele>518.474</ele>
        <time>2019-02-25T01:49:38Z</time>
      </trkpt>
      <trkpt lat="37.998400" lon="-6.184992">
        <ele>520.953</ele>
        <time>2019-02-25T01:49:56Z</time>
      </trkpt>
      <trkpt lat="37.998698" lon="-6.185266">
        <ele>523.737</ele>
        <time>2019-02-25T01:50:13Z</time>
      </trkpt>
      <trkpt lat="37.999056" lon="-6.185475">
        <ele>524.249</ele>
        <time>2019-02-25T01:50:28Z</time>
      </trkpt>
      <trkpt lat="37.999471" lon="-6.185764">
        <ele>524.313</ele>
        <time>2019-02-25T01:50:43Z</time>
      </trkpt>
      <trkpt lat="37.999547" lon="-6.185789">
        <ele>524.008</ele>
        <time>2019-02-25T01:50:45Z</time>
      </trkpt>
      <trkpt lat="37.999590" lon="-6.185795">
        <ele>523.966</ele>
        <time>2019-02-25T01:50:46Z</time>
      </trkpt>
      <trkpt lat="37.999748" lon="-6.185808">
        <ele>523.287</ele>
        <time>2019-02-25T01:50:49Z</time>
      </trkpt>
      <trkpt lat="37.999810" lon="-6.185800">
        <ele>523.068</ele>
        <time>2019-02-25T01:50:50Z</time>
      </trkpt>
      <trkpt lat="38.000087" lon="-6.185764">
        <ele>522.187</ele>
        <time>2019-02-25T01:50:54Z</time>
      </trkpt>
      <trkpt lat="38.000159" lon="-6.185779">
        <ele>521.991</ele>
        <time>2019-02-25T01:50:55Z</time>
      </trkpt>
      <trkpt lat="38.000226" lon="-6.185807">
        <ele>521.784</ele>
        <time>2019-02-25T01:50:56Z</time>
      </trkpt>
      <trkpt lat="38.000282" lon="-6.185841">
        <ele>521.673</ele>
        <time>2019-02-25T01:50:57Z</time>
      </trkpt>
      <trkpt lat="38.000333" lon="-6.185874">
        <ele>521.582</ele>
        <time>2019-02-25T01:50:58Z</time>
      </trkpt>
      <trkpt lat="38.000813" lon="-6.186092">
        <ele>520.689</ele>
        <time>2019-02-25T01:51:07Z</time>
      </trkpt>
      <trkpt lat="38.000880" lon="-6.186144">
        <ele>520.206</ele>
        <time>2019-02-25T01:51:08Z</time>
      </trkpt>
      <trkpt lat="38.000946" lon="-6.186206">
        <ele>519.826</ele>
        <time>2019-02-25T01:51:09Z</time>
      </trkpt>
      <trkpt lat="38.001007" lon="-6.186274">
        <ele>519.308</ele>
        <time>2019-02-25T01:51:10Z</time>
      </trkpt>
      <trkpt lat="38.001062" lon="-6.186344">
        <ele>518.751</ele>
        <time>2019-02-25T01:51:11Z</time>
      </trkpt>
      <trkpt lat="38.001115" lon="-6.186412">
        <ele>518.212</ele>
        <time>2019-02-25T01:51:12Z</time>
      </trkpt>
      <trkpt lat="38.001364" lon="-6.186723">
        <ele>517.373</ele>
        <time>2019-02-25T01:51:17Z</time>
      </trkpt>
      <trkpt lat="38.001411" lon="-6.186769">
        <ele>517.372</ele>
        <time>2019-02-25T01:51:18Z</time>
      </trkpt>
      <trkpt lat="38.001549" lon="-6.186874">
        <ele>517.336</ele>
        <time>2019-02-25T01:51:21Z</time>
      </trkpt>
      <trkpt lat="38.001595" lon="-6.186893">
        <ele>517.399</ele>
        <time>2019-02-25T01:51:22Z</time>
      </trkpt>
      <trkpt lat="38.002208" lon="-6.187175">
        <ele>518.238</ele>
        <time>2019-02-25T01:51:38Z</time>
      </trkpt>
      <trkpt lat="38.002568" lon="-6.187677">
        <ele>519.487</ele>
        <time>2019-02-25T01:51:54Z</time>
      </trkpt>
      <trkpt lat="38.003175" lon="-6.188126">
        <ele>520.117</ele>
        <time>2019-02-25T01:52:14Z</time>
      </trkpt>
      <trkpt lat="38.003853" lon="-6.188129">
        <ele>519.987</ele>
        <time>2019-02-25T01:52:28Z</time>
      </trkpt>
      <trkpt lat="38.003900" lon="-6.188149">
        <ele>519.915</ele>
        <time>2019-02-25T01:52:29Z</time>
      </trkpt>
      <trkpt lat="38.003941" lon="-6.188186">
        <ele>519.808</ele>
        <time>2019-02-25T01:52:30Z</time>
      </trkpt>
      <trkpt lat="38.003976" lon="-6.188231">
        <ele>519.834</ele>
        <time>2019-02-25T01:52:31Z</time>
      </trkpt>
      <trkpt lat="38.004068" lon="-6.188400">
        <ele>519.615</ele>
        <time>2019-02-25T01:52:34Z</time>
      </trkpt>
      <trkpt lat="38.004482" lon="-6.189041">
        <ele>518.976</ele>
        <time>2019-02-25T01:52:49Z</time>
      </trkpt>
      <trkpt lat="38.004525" lon="-6.189070">
        <ele>518.815</ele>
        <time>2019-02-25T01:52:50Z</time>
      </trkpt>
      <trkpt lat="38.004654" lon="-6.189144">
        <ele>518.389</ele>
        <time>2019-02-25T01:52:53Z</time>
      </trkpt>
      <trkpt lat="38.004691" lon="-6.189184">
        <ele>518.152</ele>
        <time>2019-02-25T01:52:54Z</time>
      </trkpt>
      <trkpt lat="38.004722" lon="-6.189235">
        <ele>517.951</ele>
        <time>2019-02-25T01:52:55Z</time>
      </trkpt>
      <trkpt lat="38.004747" lon="-6.189289">
        <ele>517.710</ele>
        <time>2019-02-25T01:52:56Z</time>
      </trkpt>
      <trkpt lat="38.004761" lon="-6.189343">
        <ele>517.642</ele>
        <time>2019-02-25T01:52:57Z</time>
      </trkpt>
      <trkpt lat="38.004765" lon="-6.189399">
        <ele>517.422</ele>
        <time>2019-02-25T01:52:58Z</time>
      </trkpt>
      <trkpt lat="38.004765" lon="-6.189453">
        <ele>517.314</ele>
        <time>2019-02-25T01:52:59Z</time>
      </trkpt>
      <trkpt lat="38.004766" lon="-6.189508">
        <ele>517.308</ele>
        <time>2019-02-25T01:53:00Z</time>
      </trkpt>
      <trkpt lat="38.004773" lon="-6.189563">
        <ele>517.367</ele>
        <time>2019-02-25T01:53:01Z</time>
      </trkpt>
      <trkpt lat="38.005035" lon="-6.190196">
        <ele>518.028</ele>
        <time>2019-02-25T01:53:12Z</time>
      </trkpt>
      <trkpt lat="38.005075" lon="-6.190247">
        <ele>517.959</ele>
        <time>2019-02-25T01:53:13Z</time>
      </trkpt>
      <trkpt lat="38.005161" lon="-6.190340">
        <ele>517.638</ele>
        <time>2019-02-25T01:53:15Z</time>
      </trkpt>
      <trkpt lat="38.005525" lon="-6.190617">
        <ele>516.382</ele>
        <time>2019-02-25T01:53:22Z</time>
      </trkpt>
      <trkpt lat="38.005622" lon="-6.190727">
        <ele>515.955</ele>
        <time>2019-02-25T01:53:24Z</time>
      </trkpt>
      <trkpt lat="38.005654" lon="-6.190797">
        <ele>515.714</ele>
        <time>2019-02-25T01:53:25Z</time>
      </trkpt>
      <trkpt lat="38.005676" lon="-6.190871">
        <ele>515.443</ele>
        <time>2019-02-25T01:53:26Z</time>
      </trkpt>
      <trkpt lat="38.005748" lon="-6.191096">
        <ele>514.936</ele>
        <time>2019-02-25T01:53:29Z</time>
      </trkpt>
      <trkpt lat="38.006055" lon="-6.191822">
        <ele>515.717</ele>
        <time>2019-02-25T01:53:42Z</time>
      </trkpt>
      <trkpt lat="38.006590" lon="-6.192775">
        <ele>510.818</ele>
        <time>2019-02-25T01:53:55Z</time>
      </trkpt>
      <trkpt lat="38.006983" lon="-6.193351">
        <ele>508.108</ele>
        <time>2019-02-25T01:54:02Z</time>
      </trkpt>
      <trkpt lat="38.007498" lon="-6.193941">
        <ele>508.096</ele>
        <time>2019-02-25T01:54:12Z</time>
      </trkpt>
      <trkpt lat="38.007741" lon="-6.194207">
        <ele>507.197</ele>
        <time>2019-02-25T01:54:17Z</time>
      </trkpt>
      <trkpt lat="38.007786" lon="-6.194285">
        <ele>506.628</ele>
        <time>2019-02-25T01:54:18Z</time>
      </trkpt>
      <trkpt lat="38.007824" lon="-6.194369">
        <ele>506.287</ele>
        <time>2019-02-25T01:54:19Z</time>
      </trkpt>
      <trkpt lat="38.007902" lon="-6.194537">
        <ele>505.471</ele>
        <time>2019-02-25T01:54:21Z</time>
      </trkpt>
      <trkpt lat="38.007950" lon="-6.194612">
        <ele>505.134</ele>
        <time>2019-02-25T01:54:22Z</time>
      </trkpt>
      <trkpt lat="38.008002" lon="-6.194677">
        <ele>504.823</ele>
        <time>2019-02-25T01:54:23Z</time>
      </trkpt>
      <trkpt lat="38.008317" lon="-6.194962">
        <ele>505.922</ele>
        <time>2019-02-25T01:54:32Z</time>
      </trkpt>
      <trkpt lat="38.008799" lon="-6.195371">
        <ele>506.987</ele>
        <time>2019-02-25T01:54:48Z</time>
      </trkpt>
      <trkpt lat="38.009153" lon="-6.195604">
        <ele>504.842</ele>
        <time>2019-02-25T01:54:58Z</time>
      </trkpt>
      <trkpt lat="38.009155" lon="-6.195599">
        <ele>504.826</ele>
        <time>2019-02-25T01:55:02Z</time>
      </trkpt>
      <trkpt lat="38.009129" lon="-6.195693">
        <ele>504.408</ele>
        <time>2019-02-25T01:59:19Z</time>
      </trkpt>
      <trkpt lat="38.009135" lon="-6.195726">
        <ele>504.311</ele>
        <time>2019-02-25T01:59:20Z</time>
      </trkpt>
      <trkpt lat="38.009138" lon="-6.195759">
        <ele>504.212</ele>
        <time>2019-02-25T01:59:21Z</time>
      </trkpt>
      <trkpt lat="38.009140" lon="-6.195795">
        <ele>504.193</ele>
        <time>2019-02-25T01:59:22Z</time>
      </trkpt>
      <trkpt lat="38.009266" lon="-6.196275">
        <ele>505.512</ele>
        <time>2019-02-25T01:59:37Z</time>
      </trkpt>
      <trkpt lat="38.009480" lon="-6.196667">
        <ele>508.496</ele>
        <time>2019-02-25T01:59:55Z</time>
      </trkpt>
      <trkpt lat="38.009657" lon="-6.197055">
        <ele>510.839</ele>
        <time>2019-02-25T02:00:13Z</time>
      </trkpt>
      <trkpt lat="38.009949" lon="-6.197499">
        <ele>509.918</ele>
        <time>2019-02-25T02:00:26Z</time>
      </trkpt>
      <trkpt lat="38.010355" lon="-6.198014">
        <ele>507.827</ele>
        <time>2019-02-25T02:00:35Z</time>
      </trkpt>
      <trkpt lat="38.010874" lon="-6.198441">
        <ele>505.749</ele>
        <time>2019-02-25T02:00:43Z</time>
      </trkpt>
      <trkpt lat="38.011484" lon="-6.199018">
        <ele>505.602</ele>
        <time>2019-02-25T02:00:56Z</time>
      </trkpt>
      <trkpt lat="38.011834" lon="-6.199300">
        <ele>508.122</ele>
        <time>2019-02-25T02:01:09Z</time>
      </trkpt>
      <trkpt lat="38.012394" lon="-6.199568">
        <ele>509.208</ele>
        <time>2019-02-25T02:01:27Z</time>
      </trkpt>
      <trkpt lat="38.012848" lon="-6.199750">
        <ele>510.957</ele>
        <time>2019-02-25T02:01:42Z</time>
      </trkpt>
      <trkpt lat="38.012891" lon="-6.199770">
        <ele>510.978</ele>
        <time>2019-02-25T02:01:43Z</time>
      </trkpt>
      <trkpt lat="38.013568" lon="-6.200147">
        <ele>508.489</ele>
        <time>2019-02-25T02:01:55Z</time>
      </trkpt>
      <trkpt lat="38.014466" lon="-6.200787">
        <ele>507.598</ele>
        <time>2019-02-25T02:02:10Z</time>
      </trkpt>
      <trkpt lat="38.014908" lon="-6.201065">
        <ele>507.992</ele>
        <time>2019-02-25T02:02:22Z</time>
      </trkpt>
      <trkpt lat="38.015160" lon="-6.201279">
        <ele>508.885</ele>
        <time>2019-02-25T02:02:30Z</time>
      </trkpt>
      <trkpt lat="38.015186" lon="-6.201332">
        <ele>508.814</ele>
        <time>2019-02-25T02:02:31Z</time>
      </trkpt>
      <trkpt lat="38.015204" lon="-6.201390">
        <ele>508.883</ele>
        <time>2019-02-25T02:02:32Z</time>
      </trkpt>
      <trkpt lat="38.015217" lon="-6.201447">
        <ele>508.874</ele>
        <time>2019-02-25T02:02:33Z</time>
      </trkpt>
      <trkpt lat="38.015226" lon="-6.201500">
        <ele>508.856</ele>
        <time>2019-02-25T02:02:34Z</time>
      </trkpt>
      <trkpt lat="38.015495" lon="-6.202339">
        <ele>508.521</ele>
        <time>2019-02-25T02:02:52Z</time>
      </trkpt>
      <trkpt lat="38.015697" lon="-6.202900">
        <ele>507.108</ele>
        <time>2019-02-25T02:03:02Z</time>
      </trkpt>
      <trkpt lat="38.015716" lon="-6.202949">
        <ele>507.260</ele>
        <time>2019-02-25T02:03:03Z</time>
      </trkpt>
      <trkpt lat="38.015731" lon="-6.202998">
        <ele>507.461</ele>
        <time>2019-02-25T02:03:04Z</time>
      </trkpt>
      <trkpt lat="38.015915" lon="-6.203557">
        <ele>509.022</ele>
        <time>2019-02-25T02:03:14Z</time>
      </trkpt>
      <trkpt lat="38.016173" lon="-6.204121">
        <ele>508.381</ele>
        <time>2019-02-25T02:03:25Z</time>
      </trkpt>
      <trkpt lat="38.016565" lon="-6.204793">
        <ele>507.435</ele>
        <time>2019-02-25T02:03:37Z</time>
      </trkpt>
      <trkpt lat="38.016787" lon="-6.205032">
        <ele>507.348</ele>
        <time>2019-02-25T02:03:43Z</time>
      </trkpt>
      <trkpt lat="38.016833" lon="-6.205063">
        <ele>507.287</ele>
        <time>2019-02-25T02:03:44Z</time>
      </trkpt>
      <trkpt lat="38.017354" lon="-6.205506">
        <ele>507.076</ele>
        <time>2019-02-25T02:03:57Z</time>
      </trkpt>
      <trkpt lat="38.017781" lon="-6.205899">
        <ele>508.968</ele>
        <time>2019-02-25T02:04:14Z</time>
      </trkpt>
      <trkpt lat="38.018172" lon="-6.206325">
        <ele>512.142</ele>
        <time>2019-02-25T02:04:32Z</time>
      </trkpt>
      <trkpt lat="38.018576" lon="-6.206779">
        <ele>513.826</ele>
        <time>2019-02-25T02:04:50Z</time>
      </trkpt>
      <trkpt lat="38.018733" lon="-6.206939">
        <ele>513.408</ele>
        <time>2019-02-25T02:04:56Z</time>
      </trkpt>
      <trkpt lat="38.018763" lon="-6.206982">
        <ele>513.489</ele>
        <time>2019-02-25T02:04:57Z</time>
      </trkpt>
      <trkpt lat="38.019224" lon="-6.207587">
        <ele>511.470</ele>
        <time>2019-02-25T02:05:09Z</time>
      </trkpt>
      <trkpt lat="38.019298" lon="-6.207690">
        <ele>511.441</ele>
        <time>2019-02-25T02:05:11Z</time>
      </trkpt>
      <trkpt lat="38.019331" lon="-6.207744">
        <ele>511.470</ele>
        <time>2019-02-25T02:05:12Z</time>
      </trkpt>
      <trkpt lat="38.019369" lon="-6.207791">
        <ele>511.494</ele>
        <time>2019-02-25T02:05:13Z</time>
      </trkpt>
      <trkpt lat="38.019410" lon="-6.207834">
        <ele>511.427</ele>
        <time>2019-02-25T02:05:14Z</time>
      </trkpt>
      <trkpt lat="38.019450" lon="-6.207882">
        <ele>511.416</ele>
        <time>2019-02-25T02:05:15Z</time>
      </trkpt>
      <trkpt lat="38.020183" lon="-6.208426">
        <ele>507.915</ele>
        <time>2019-02-25T02:05:28Z</time>
      </trkpt>
      <trkpt lat="38.020369" lon="-6.208525">
        <ele>507.426</ele>
        <time>2019-02-25T02:05:31Z</time>
      </trkpt>
      <trkpt lat="38.020488" lon="-6.208583">
        <ele>507.347</ele>
        <time>2019-02-25T02:05:33Z</time>
      </trkpt>
      <trkpt lat="38.020540" lon="-6.208624">
        <ele>507.411</ele>
        <time>2019-02-25T02:05:34Z</time>
      </trkpt>
      <trkpt lat="38.020587" lon="-6.208673">
        <ele>507.408</ele>
        <time>2019-02-25T02:05:35Z</time>
      </trkpt>
      <trkpt lat="38.020784" lon="-6.208892">
        <ele>507.625</ele>
        <time>2019-02-25T02:05:40Z</time>
      </trkpt>
      <trkpt lat="38.020828" lon="-6.208918">
        <ele>507.736</ele>
        <time>2019-02-25T02:05:41Z</time>
      </trkpt>
      <trkpt lat="38.020871" lon="-6.208945">
        <ele>507.837</ele>
        <time>2019-02-25T02:05:42Z</time>
      </trkpt>
      <trkpt lat="38.021247" lon="-6.209289">
        <ele>509.686</ele>
        <time>2019-02-25T02:05:55Z</time>
      </trkpt>
      <trkpt lat="38.021522" lon="-6.209595">
        <ele>512.060</ele>
        <time>2019-02-25T02:06:10Z</time>
      </trkpt>
      <trkpt lat="38.021805" lon="-6.209868">
        <ele>513.983</ele>
        <time>2019-02-25T02:06:21Z</time>
      </trkpt>
      <trkpt lat="38.022070" lon="-6.210157">
        <ele>512.282</ele>
        <time>2019-02-25T02:06:27Z</time>
      </trkpt>
      <trkpt lat="38.022631" lon="-6.210630">
        <ele>511.971</ele>
        <time>2019-02-25T02:06:38Z</time>
      </trkpt>
      <trkpt lat="38.022674" lon="-6.210669">
        <ele>512.078</ele>
        <time>2019-02-25T02:06:39Z</time>
      </trkpt>
      <trkpt lat="38.023381" lon="-6.211071">
        <ele>512.433</ele>
        <time>2019-02-25T02:06:54Z</time>
      </trkpt>
      <trkpt lat="38.023435" lon="-6.211087">
        <ele>512.426</ele>
        <time>2019-02-25T02:06:55Z</time>
      </trkpt>
      <trkpt lat="38.023488" lon="-6.211104">
        <ele>512.408</ele>
        <time>2019-02-25T02:06:56Z</time>
      </trkpt>
      <trkpt lat="38.023776" lon="-6.211199">
        <ele>512.420</ele>
        <time>2019-02-25T02:07:03Z</time>
      </trkpt>
      <trkpt lat="38.023821" lon="-6.211202">
        <ele>512.481</ele>
        <time>2019-02-25T02:07:04Z</time>
      </trkpt>
      <trkpt lat="38.023911" lon="-6.211195">
        <ele>512.492</ele>
        <time>2019-02-25T02:07:06Z</time>
      </trkpt>
      <trkpt lat="38.024055" lon="-6.211174">
        <ele>512.581</ele>
        <time>2019-02-25T02:07:09Z</time>
      </trkpt>
      <trkpt lat="38.024104" lon="-6.211181">
        <ele>512.595</ele>
        <time>2019-02-25T02:07:10Z</time>
      </trkpt>
      <trkpt lat="38.024155" lon="-6.211193">
        <ele>512.548</ele>
        <time>2019-02-25T02:07:11Z</time>
      </trkpt>
      <trkpt lat="38.024204" lon="-6.211207">
        <ele>512.577</ele>
        <time>2019-02-25T02:07:12Z</time>
      </trkpt>
      <trkpt lat="38.024246" lon="-6.211228">
        <ele>512.516</ele>
        <time>2019-02-25T02:07:13Z</time>
      </trkpt>
      <trkpt lat="38.024278" lon="-6.211260">
        <ele>512.567</ele>
        <time>2019-02-25T02:07:14Z</time>
      </trkpt>
      <trkpt lat="38.024302" lon="-6.211299">
        <ele>512.581</ele>
        <time>2019-02-25T02:07:15Z</time>
      </trkpt>
      <trkpt lat="38.024326" lon="-6.211338">
        <ele>512.519</ele>
        <time>2019-02-25T02:07:16Z</time>
      </trkpt>
      <trkpt lat="38.024681" lon="-6.211943">
        <ele>512.208</ele>
        <time>2019-02-25T02:07:30Z</time>
      </trkpt>
      <trkpt lat="38.024710" lon="-6.211990">
        <ele>512.269</ele>
        <time>2019-02-25T02:07:31Z</time>
      </trkpt>
      <trkpt lat="38.024882" lon="-6.212295">
        <ele>511.990</ele>
        <time>2019-02-25T02:07:37Z</time>
      </trkpt>
      <trkpt lat="38.025224" lon="-6.213158">
        <ele>511.781</ele>
        <time>2019-02-25T02:07:51Z</time>
      </trkpt>
      <trkpt lat="38.025587" lon="-6.213924">
        <ele>512.120</ele>
        <time>2019-02-25T02:08:05Z</time>
      </trkpt>
      <trkpt lat="38.025670" lon="-6.214102">
        <ele>512.324</ele>
        <time>2019-02-25T02:08:08Z</time>
      </trkpt>
      <trkpt lat="38.025713" lon="-6.214222">
        <ele>512.637</ele>
        <time>2019-02-25T02:08:10Z</time>
      </trkpt>
      <trkpt lat="38.025739" lon="-6.214276">
        <ele>512.866</ele>
        <time>2019-02-25T02:08:11Z</time>
      </trkpt>
      <trkpt lat="38.025844" lon="-6.214467">
        <ele>513.755</ele>
        <time>2019-02-25T02:08:15Z</time>
      </trkpt>
      <trkpt lat="38.025905" lon="-6.214550">
        <ele>514.193</ele>
        <time>2019-02-25T02:08:17Z</time>
      </trkpt>
      <trkpt lat="38.025935" lon="-6.214589">
        <ele>514.265</ele>
        <time>2019-02-25T02:08:18Z</time>
      </trkpt>
      <trkpt lat="38.025968" lon="-6.214621">
        <ele>514.421</ele>
        <time>2019-02-25T02:08:19Z</time>
      </trkpt>
      <trkpt lat="38.026530" lon="-6.215202">
        <ele>515.908</ele>
        <time>2019-02-25T02:08:38Z</time>
      </trkpt>
      <trkpt lat="38.026751" lon="-6.215770">
        <ele>516.922</ele>
        <time>2019-02-25T02:08:54Z</time>
      </trkpt>
      <trkpt lat="38.027078" lon="-6.216370">
        <ele>518.933</ele>
        <time>2019-02-25T02:09:11Z</time>
      </trkpt>
      <trkpt lat="38.027435" lon="-6.216819">
        <ele>522.074</ele>
        <time>2019-02-25T02:09:28Z</time>
      </trkpt>
      <trkpt lat="38.027641" lon="-6.217266">
        <ele>523.943</ele>
        <time>2019-02-25T02:09:44Z</time>
      </trkpt>
      <trkpt lat="38.027609" lon="-6.217771">
        <ele>526.027</ele>
        <time>2019-02-25T02:10:04Z</time>
      </trkpt>
      <trkpt lat="38.027471" lon="-6.218042">
        <ele>527.630</ele>
        <time>2019-02-25T02:10:16Z</time>
      </trkpt>
      <trkpt lat="38.027215" lon="-6.218544">
        <ele>528.289</ele>
        <time>2019-02-25T02:10:30Z</time>
      </trkpt>
      <trkpt lat="38.027087" lon="-6.218827">
        <ele>528.058</ele>
        <time>2019-02-25T02:10:36Z</time>
      </trkpt>
      <trkpt lat="38.026960" lon="-6.219510">
        <ele>527.528</ele>
        <time>2019-02-25T02:10:49Z</time>
      </trkpt>
      <trkpt lat="38.026867" lon="-6.220176">
        <ele>525.989</ele>
        <time>2019-02-25T02:11:01Z</time>
      </trkpt>
      <trkpt lat="38.026869" lon="-6.220230">
        <ele>525.917</ele>
        <time>2019-02-25T02:11:02Z</time>
      </trkpt>
      <trkpt lat="38.026877" lon="-6.220283">
        <ele>524.908</ele>
        <time>2019-02-25T02:11:03Z</time>
      </trkpt>
      <trkpt lat="38.026891" lon="-6.220332">
        <ele>524.775</ele>
        <time>2019-02-25T02:11:04Z</time>
      </trkpt>
      <trkpt lat="38.026909" lon="-6.220376">
        <ele>524.556</ele>
        <time>2019-02-25T02:11:05Z</time>
      </trkpt>
      <trkpt lat="38.026931" lon="-6.220411">
        <ele>523.737</ele>
        <time>2019-02-25T02:11:06Z</time>
      </trkpt>
      <trkpt lat="38.026956" lon="-6.220440">
        <ele>523.766</ele>
        <time>2019-02-25T02:11:07Z</time>
      </trkpt>
      <trkpt lat="38.026981" lon="-6.220462">
        <ele>523.760</ele>
        <time>2019-02-25T02:11:08Z</time>
      </trkpt>
      <trkpt lat="38.027006" lon="-6.220480">
        <ele>523.643</ele>
        <time>2019-02-25T02:11:09Z</time>
      </trkpt>
      <trkpt lat="38.027475" lon="-6.220790">
        <ele>523.722</ele>
        <time>2019-02-25T02:11:29Z</time>
      </trkpt>
      <trkpt lat="38.027906" lon="-6.221036">
        <ele>526.551</ele>
        <time>2019-02-25T02:11:47Z</time>
      </trkpt>
      <trkpt lat="38.028360" lon="-6.221151">
        <ele>529.228</ele>
        <time>2019-02-25T02:12:07Z</time>
      </trkpt>
      <trkpt lat="38.028722" lon="-6.221079">
        <ele>530.889</ele>
        <time>2019-02-25T02:12:24Z</time>
      </trkpt>
      <trkpt lat="38.028929" lon="-6.220896">
        <ele>531.817</ele>
        <time>2019-02-25T02:12:36Z</time>
      </trkpt>
      <trkpt lat="38.029262" lon="-6.221036">
        <ele>532.208</ele>
        <time>2019-02-25T02:12:48Z</time>
      </trkpt>
      <trkpt lat="38.029381" lon="-6.221520">
        <ele>531.015</ele>
        <time>2019-02-25T02:13:00Z</time>
      </trkpt>
      <trkpt lat="38.029699" lon="-6.221933">
        <ele>531.156</ele>
        <time>2019-02-25T02:13:12Z</time>
      </trkpt>
      <trkpt lat="38.029890" lon="-6.222144">
        <ele>532.157</ele>
        <time>2019-02-25T02:13:18Z</time>
      </trkpt>
      <trkpt lat="38.030027" lon="-6.222345">
        <ele>533.216</ele>
        <time>2019-02-25T02:13:23Z</time>
      </trkpt>
      <trkpt lat="38.030352" lon="-6.222878">
        <ele>536.030</ele>
        <time>2019-02-25T02:13:38Z</time>
      </trkpt>
      <trkpt lat="38.030622" lon="-6.223229">
        <ele>536.843</ele>
        <time>2019-02-25T02:13:53Z</time>
      </trkpt>
      <trkpt lat="38.030899" lon="-6.223482">
        <ele>537.082</ele>
        <time>2019-02-25T02:14:09Z</time>
      </trkpt>
      <trkpt lat="38.031179" lon="-6.223618">
        <ele>536.961</ele>
        <time>2019-02-25T02:14:23Z</time>
      </trkpt>
      <trkpt lat="38.031521" lon="-6.223776">
        <ele>536.963</ele>
        <time>2019-02-25T02:14:41Z</time>
      </trkpt>
      <trkpt lat="38.031517" lon="-6.223773">
        <ele>536.944</ele>
        <time>2019-02-25T02:14:44Z</time>
      </trkpt>
      <trkpt lat="38.031467" lon="-6.223766">
        <ele>536.918</ele>
        <time>2019-02-25T02:15:04Z</time>
      </trkpt>
      <trkpt lat="38.031183" lon="-6.223628">
        <ele>536.908</ele>
        <time>2019-02-25T02:15:16Z</time>
      </trkpt>
      <trkpt lat="38.031093" lon="-6.223550">
        <ele>537.029</ele>
        <time>2019-02-25T02:15:25Z</time>
      </trkpt>
      <trkpt lat="38.031055" lon="-6.223507">
        <ele>537.050</ele>
        <time>2019-02-25T02:15:53Z</time>
      </trkpt>
      <trkpt lat="38.031065" lon="-6.223511">
        <ele>537.031</ele>
        <time>2019-02-25T02:15:59Z</time>
      </trkpt>
      <trkpt lat="38.030989" lon="-6.223453">
        <ele>537.080</ele>
        <time>2019-02-25T02:16:18Z</time>
      </trkpt>
      <trkpt lat="38.030972" lon="-6.223422">
        <ele>537.014</ele>
        <time>2019-02-25T02:16:19Z</time>
      </trkpt>
      <trkpt lat="38.030961" lon="-6.223383">
        <ele>537.027</ele>
        <time>2019-02-25T02:16:20Z</time>
      </trkpt>
      <trkpt lat="38.030957" lon="-6.223340">
        <ele>537.066</ele>
        <time>2019-02-25T02:16:21Z</time>
      </trkpt>
      <trkpt lat="38.030956" lon="-6.223295">
        <ele>537.015</ele>
        <time>2019-02-25T02:16:22Z</time>
      </trkpt>
      <trkpt lat="38.030962" lon="-6.223251">
        <ele>537.076</ele>
        <time>2019-02-25T02:16:23Z</time>
      </trkpt>
      <trkpt lat="38.030972" lon="-6.223208">
        <ele>537.090</ele>
        <time>2019-02-25T02:16:24Z</time>
      </trkpt>
      <trkpt lat="38.031010" lon="-6.223120">
        <ele>537.019</ele>
        <time>2019-02-25T02:16:31Z</time>
      </trkpt>
      <trkpt lat="38.030998" lon="-6.223147">
        <ele>537.008</ele>
        <time>2019-02-25T02:17:12Z</time>
      </trkpt>
      <trkpt lat="38.030967" lon="-6.223169">
        <ele>537.040</ele>
        <time>2019-02-25T02:17:15Z</time>
      </trkpt>
      <trkpt lat="38.030921" lon="-6.223162">
        <ele>536.971</ele>
        <time>2019-02-25T02:17:18Z</time>
      </trkpt>
      <trkpt lat="38.030895" lon="-6.223155">
        <ele>536.992</ele>
        <time>2019-02-25T02:17:19Z</time>
      </trkpt>
      <trkpt lat="38.030863" lon="-6.223151">
        <ele>536.911</ele>
        <time>2019-02-25T02:17:20Z</time>
      </trkpt>
      <trkpt lat="38.030828" lon="-6.223149">
        <ele>536.975</ele>
        <time>2019-02-25T02:17:21Z</time>
      </trkpt>
      <trkpt lat="38.030671" lon="-6.223171">
        <ele>536.828</ele>
        <time>2019-02-25T02:17:26Z</time>
      </trkpt>
      <trkpt lat="38.030662" lon="-6.223184">
        <ele>536.827</ele>
        <time>2019-02-25T02:17:27Z</time>
      </trkpt>
      <trkpt lat="38.030663" lon="-6.223192">
        <ele>536.886</ele>
        <time>2019-02-25T02:17:32Z</time>
      </trkpt>
      <trkpt lat="38.030552" lon="-6.223193">
        <ele>536.779</ele>
        <time>2019-02-25T02:17:51Z</time>
      </trkpt>
      <trkpt lat="38.030469" lon="-6.223162">
        <ele>536.605</ele>
        <time>2019-02-25T02:18:00Z</time>
      </trkpt>
      <trkpt lat="38.030499" lon="-6.223089">
        <ele>536.725</ele>
        <time>2019-02-25T02:18:24Z</time>
      </trkpt>
      <trkpt lat="38.030539" lon="-6.223117">
        <ele>536.708</ele>
        <time>2019-02-25T02:18:26Z</time>
      </trkpt>
      <trkpt lat="38.030840" lon="-6.223410">
        <ele>537.070</ele>
        <time>2019-02-25T02:18:45Z</time>
      </trkpt>
      <trkpt lat="38.031105" lon="-6.223550">
        <ele>537.031</ele>
        <time>2019-02-25T02:19:01Z</time>
      </trkpt>
      <trkpt lat="38.031110" lon="-6.223553">
        <ele>537.052</ele>
        <time>2019-02-25T02:19:04Z</time>
      </trkpt>
      <trkpt lat="38.031143" lon="-6.223584">
        <ele>536.921</ele>
        <time>2019-02-25T02:19:07Z</time>
      </trkpt>
      <trkpt lat="38.031428" lon="-6.223726">
        <ele>536.945</ele>
        <time>2019-02-25T02:19:23Z</time>
      </trkpt>
      <trkpt lat="38.031447" lon="-6.223723">
        <ele>536.938</ele>
        <time>2019-02-25T02:19:28Z</time>
      </trkpt>
      <trkpt lat="38.031534" lon="-6.223767">
        <ele>536.987</ele>
        <time>2019-02-25T02:19:46Z</time>
      </trkpt>
      <trkpt lat="38.031798" lon="-6.223828">
        <ele>538.316</ele>
        <time>2019-02-25T02:20:00Z</time>
      </trkpt>
      <trkpt lat="38.031798" lon="-6.223826">
        <ele>538.316</ele>
        <time>2019-02-25T02:20:02Z</time>
      </trkpt>
      <trkpt lat="38.031792" lon="-6.223757">
        <ele>538.176</ele>
        <time>2019-02-25T02:20:10Z</time>
      </trkpt>
      <trkpt lat="38.031780" lon="-6.223748">
        <ele>538.113</ele>
        <time>2019-02-25T02:20:11Z</time>
      </trkpt>
      <trkpt lat="38.031767" lon="-6.223740">
        <ele>538.008</ele>
        <time>2019-02-25T02:20:12Z</time>
      </trkpt>
      <trkpt lat="38.031755" lon="-6.223734">
        <ele>538.044</ele>
        <time>2019-02-25T02:20:13Z</time>
      </trkpt>
      <trkpt lat="38.031744" lon="-6.223728">
        <ele>537.945</ele>
        <time>2019-02-25T02:20:14Z</time>
      </trkpt>
      <trkpt lat="38.031731" lon="-6.223716">
        <ele>537.856</ele>
        <time>2019-02-25T02:20:18Z</time>
      </trkpt>
      <trkpt lat="38.031682" lon="-6.223697">
        <ele>537.635</ele>
        <time>2019-02-25T02:21:11Z</time>
      </trkpt>
      <trkpt lat="38.031657" lon="-6.223657">
        <ele>537.489</ele>
        <time>2019-02-25T02:21:18Z</time>
      </trkpt>
      <trkpt lat="38.031562" lon="-6.223530">
        <ele>536.962</ele>
        <time>2019-02-25T02:21:59Z</time>
      </trkpt>
      <trkpt lat="38.031553" lon="-6.223520">
        <ele>537.221</ele>
        <time>2019-02-25T02:22:00Z</time>
      </trkpt>
      <trkpt lat="38.031543" lon="-6.223512">
        <ele>537.310</ele>
        <time>2019-02-25T02:22:01Z</time>
      </trkpt>
      <trkpt lat="38.031533" lon="-6.223503">
        <ele>537.397</ele>
        <time>2019-02-25T02:22:02Z</time>
      </trkpt>
      <trkpt lat="38.031379" lon="-6.223376">
        <ele>538.023</ele>
        <time>2019-02-25T02:22:16Z</time>
      </trkpt>
      <trkpt lat="38.031372" lon="-6.223361">
        <ele>538.125</ele>
        <time>2019-02-25T02:22:17Z</time>
      </trkpt>
      <trkpt lat="38.031366" lon="-6.223345">
        <ele>538.108</ele>
        <time>2019-02-25T02:22:18Z</time>
      </trkpt>
      <trkpt lat="38.031360" lon="-6.223332">
        <ele>538.222</ele>
        <time>2019-02-25T02:22:19Z</time>
      </trkpt>
      <trkpt lat="38.031370" lon="-6.223265">
        <ele>538.523</ele>
        <time>2019-02-25T02:22:30Z</time>
      </trkpt>
      <trkpt lat="38.031430" lon="-6.223262">
        <ele>538.944</ele>
        <time>2019-02-25T02:23:06Z</time>
      </trkpt>
      <trkpt lat="38.031446" lon="-6.223262">
        <ele>539.153</ele>
        <time>2019-02-25T02:23:07Z</time>
      </trkpt>
      <trkpt lat="38.031462" lon="-6.223261">
        <ele>539.227</ele>
        <time>2019-02-25T02:23:08Z</time>
      </trkpt>
      <trkpt lat="38.031478" lon="-6.223264">
        <ele>539.330</ele>
        <time>2019-02-25T02:23:09Z</time>
      </trkpt>
      <trkpt lat="38.031495" lon="-6.223267">
        <ele>539.599</ele>
        <time>2019-02-25T02:23:10Z</time>
      </trkpt>
      <trkpt lat="38.031782" lon="-6.223338">
        <ele>542.518</ele>
        <time>2019-02-25T02:23:25Z</time>
      </trkpt>
      <trkpt lat="38.032036" lon="-6.223364">
        <ele>544.644</ele>
        <time>2019-02-25T02:23:39Z</time>
      </trkpt>
      <trkpt lat="38.032063" lon="-6.223357">
        <ele>544.705</ele>
        <time>2019-02-25T02:23:41Z</time>
      </trkpt>
      <trkpt lat="38.032259" lon="-6.223416">
        <ele>545.615</ele>
        <time>2019-02-25T02:23:54Z</time>
      </trkpt>
      <trkpt lat="38.032254" lon="-6.223420">
        <ele>545.708</ele>
        <time>2019-02-25T02:23:59Z</time>
      </trkpt>
      <trkpt lat="38.032327" lon="-6.223442">
        <ele>546.027</ele>
        <time>2019-02-25T02:24:41Z</time>
      </trkpt>
      <trkpt lat="38.032580" lon="-6.223568">
        <ele>547.348</ele>
        <time>2019-02-25T02:24:55Z</time>
      </trkpt>
      <trkpt lat="38.032873" lon="-6.223754">
        <ele>547.549</ele>
        <time>2019-02-25T02:25:08Z</time>
      </trkpt>
      <trkpt lat="38.033078" lon="-6.223714">
        <ele>547.188</ele>
        <time>2019-02-25T02:25:21Z</time>
      </trkpt>
      <trkpt lat="38.033396" lon="-6.223675">
        <ele>546.732</ele>
        <time>2019-02-25T02:25:36Z</time>
      </trkpt>
      <trkpt lat="38.033631" lon="-6.223719">
        <ele>547.275</ele>
        <time>2019-02-25T02:25:46Z</time>
      </trkpt>
      <trkpt lat="38.033906" lon="-6.223742">
        <ele>548.764</ele>
        <time>2019-02-25T02:25:57Z</time>
      </trkpt>
      <trkpt lat="38.034145" lon="-6.223807">
        <ele>549.673</ele>
        <time>2019-02-25T02:26:06Z</time>
      </trkpt>
      <trkpt lat="38.034382" lon="-6.223888">
        <ele>550.677</ele>
        <time>2019-02-25T02:26:18Z</time>
      </trkpt>
      <trkpt lat="38.034639" lon="-6.223953">
        <ele>551.661</ele>
        <time>2019-02-25T02:26:31Z</time>
      </trkpt>
      <trkpt lat="38.034863" lon="-6.224069">
        <ele>552.927</ele>
        <time>2019-02-25T02:26:43Z</time>
      </trkpt>
      <trkpt lat="38.035144" lon="-6.224261">
        <ele>555.308</ele>
        <time>2019-02-25T02:26:57Z</time>
      </trkpt>
      <trkpt lat="38.035440" lon="-6.224462">
        <ele>559.090</ele>
        <time>2019-02-25T02:27:11Z</time>
      </trkpt>
      <trkpt lat="38.035524" lon="-6.224489">
        <ele>559.971</ele>
        <time>2019-02-25T02:27:19Z</time>
      </trkpt>
      <trkpt lat="38.035867" lon="-6.224720">
        <ele>561.512</ele>
        <time>2019-02-25T02:28:08Z</time>
      </trkpt>
      <trkpt lat="38.035990" lon="-6.224872">
        <ele>561.791</ele>
        <time>2019-02-25T02:28:26Z</time>
      </trkpt>
      <trkpt lat="38.036053" lon="-6.224948">
        <ele>561.895</ele>
        <time>2019-02-25T02:28:57Z</time>
      </trkpt>
      <trkpt lat="38.036212" lon="-6.225252">
        <ele>562.178</ele>
        <time>2019-02-25T02:29:07Z</time>
      </trkpt>
      <trkpt lat="38.036363" lon="-6.225551">
        <ele>562.647</ele>
        <time>2019-02-25T02:29:18Z</time>
      </trkpt>
      <trkpt lat="38.036588" lon="-6.225957">
        <ele>563.646</ele>
        <time>2019-02-25T02:29:32Z</time>
      </trkpt>
      <trkpt lat="38.036805" lon="-6.226325">
        <ele>564.181</ele>
        <time>2019-02-25T02:29:44Z</time>
      </trkpt>
      <trkpt lat="38.036984" lon="-6.226604">
        <ele>564.061</ele>
        <time>2019-02-25T02:29:57Z</time>
      </trkpt>
      <trkpt lat="38.037191" lon="-6.226922">
        <ele>563.917</ele>
        <time>2019-02-25T02:30:07Z</time>
      </trkpt>
      <trkpt lat="38.037361" lon="-6.227130">
        <ele>564.108</ele>
        <time>2019-02-25T02:30:13Z</time>
      </trkpt>
      <trkpt lat="38.037435" lon="-6.227213">
        <ele>564.221</ele>
        <time>2019-02-25T02:30:15Z</time>
      </trkpt>
      <trkpt lat="38.037722" lon="-6.227563">
        <ele>565.122</ele>
        <time>2019-02-25T02:30:26Z</time>
      </trkpt>
      <trkpt lat="38.037984" lon="-6.227796">
        <ele>565.483</ele>
        <time>2019-02-25T02:30:38Z</time>
      </trkpt>
      <trkpt lat="38.038257" lon="-6.228017">
        <ele>565.052</ele>
        <time>2019-02-25T02:30:47Z</time>
      </trkpt>
      <trkpt lat="38.038508" lon="-6.228233">
        <ele>564.266</ele>
        <time>2019-02-25T02:30:56Z</time>
      </trkpt>
      <trkpt lat="38.038755" lon="-6.228313">
        <ele>564.019</ele>
        <time>2019-02-25T02:31:03Z</time>
      </trkpt>
      <trkpt lat="38.038783" lon="-6.228351">
        <ele>564.048</ele>
        <time>2019-02-25T02:31:04Z</time>
      </trkpt>
      <trkpt lat="38.038808" lon="-6.228394">
        <ele>564.027</ele>
        <time>2019-02-25T02:31:05Z</time>
      </trkpt>
      <trkpt lat="38.038841" lon="-6.228429">
        <ele>564.055</ele>
        <time>2019-02-25T02:31:06Z</time>
      </trkpt>
      <trkpt lat="38.038877" lon="-6.228455">
        <ele>564.007</ele>
        <time>2019-02-25T02:31:07Z</time>
      </trkpt>
      <trkpt lat="38.038913" lon="-6.228483">
        <ele>564.117</ele>
        <time>2019-02-25T02:31:08Z</time>
      </trkpt>
      <trkpt lat="38.038952" lon="-6.228517">
        <ele>564.108</ele>
        <time>2019-02-25T02:31:09Z</time>
      </trkpt>
      <trkpt lat="38.038991" lon="-6.228553">
        <ele>564.228</ele>
        <time>2019-02-25T02:31:10Z</time>
      </trkpt>
      <trkpt lat="38.039116" lon="-6.228659">
        <ele>564.619</ele>
        <time>2019-02-25T02:31:19Z</time>
      </trkpt>
      <trkpt lat="38.039180" lon="-6.228721">
        <ele>564.860</ele>
        <time>2019-02-25T02:31:39Z</time>
      </trkpt>
      <trkpt lat="38.039210" lon="-6.228749">
        <ele>565.029</ele>
        <time>2019-02-25T02:31:46Z</time>
      </trkpt>
      <trkpt lat="38.039297" lon="-6.228814">
        <ele>565.433</ele>
        <time>2019-02-25T02:31:56Z</time>
      </trkpt>
      <trkpt lat="38.039469" lon="-6.228959">
        <ele>566.056</ele>
        <time>2019-02-25T02:32:03Z</time>
      </trkpt>
      <trkpt lat="38.039491" lon="-6.228973">
        <ele>566.135</ele>
        <time>2019-02-25T02:32:04Z</time>
      </trkpt>
      <trkpt lat="38.039510" lon="-6.228988">
        <ele>566.114</ele>
        <time>2019-02-25T02:32:05Z</time>
      </trkpt>
      <trkpt lat="38.039664" lon="-6.229133">
        <ele>566.413</ele>
        <time>2019-02-25T02:32:14Z</time>
      </trkpt>
      <trkpt lat="38.039687" lon="-6.229148">
        <ele>566.443</ele>
        <time>2019-02-25T02:32:15Z</time>
      </trkpt>
      <trkpt lat="38.039710" lon="-6.229163">
        <ele>566.507</ele>
        <time>2019-02-25T02:32:16Z</time>
      </trkpt>
      <trkpt lat="38.039728" lon="-6.229177">
        <ele>566.508</ele>
        <time>2019-02-25T02:32:17Z</time>
      </trkpt>
      <trkpt lat="38.039749" lon="-6.229191">
        <ele>566.574</ele>
        <time>2019-02-25T02:32:18Z</time>
      </trkpt>
      <trkpt lat="38.039774" lon="-6.229207">
        <ele>566.595</ele>
        <time>2019-02-25T02:32:19Z</time>
      </trkpt>
      <trkpt lat="38.040044" lon="-6.229379">
        <ele>566.896</ele>
        <time>2019-02-25T02:32:30Z</time>
      </trkpt>
      <trkpt lat="38.040350" lon="-6.229598">
        <ele>567.025</ele>
        <time>2019-02-25T02:32:43Z</time>
      </trkpt>
      <trkpt lat="38.040503" lon="-6.229659">
        <ele>567.069</ele>
        <time>2019-02-25T02:32:49Z</time>
      </trkpt>
      <trkpt lat="38.040525" lon="-6.229673">
        <ele>567.192</ele>
        <time>2019-02-25T02:32:50Z</time>
      </trkpt>
      <trkpt lat="38.040549" lon="-6.229684">
        <ele>567.161</ele>
        <time>2019-02-25T02:32:51Z</time>
      </trkpt>
      <trkpt lat="38.040573" lon="-6.229698">
        <ele>567.150</ele>
        <time>2019-02-25T02:32:52Z</time>
      </trkpt>
      <trkpt lat="38.040599" lon="-6.229715">
        <ele>567.193</ele>
        <time>2019-02-25T02:32:53Z</time>
      </trkpt>
      <trkpt lat="38.040624" lon="-6.229728">
        <ele>567.165</ele>
        <time>2019-02-25T02:32:54Z</time>
      </trkpt>
      <trkpt lat="38.040652" lon="-6.229740">
        <ele>567.121</ele>
        <time>2019-02-25T02:32:55Z</time>
      </trkpt>
      <trkpt lat="38.040975" lon="-6.229941">
        <ele>567.208</ele>
        <time>2019-02-25T02:33:05Z</time>
      </trkpt>
      <trkpt lat="38.041062" lon="-6.230016">
        <ele>567.132</ele>
        <time>2019-02-25T02:33:09Z</time>
      </trkpt>
      <trkpt lat="38.041320" lon="-6.230214">
        <ele>566.583</ele>
        <time>2019-02-25T02:33:18Z</time>
      </trkpt>
      <trkpt lat="38.041466" lon="-6.230397">
        <ele>566.074</ele>
        <time>2019-02-25T02:33:24Z</time>
      </trkpt>
      <trkpt lat="38.041495" lon="-6.230439">
        <ele>565.993</ele>
        <time>2019-02-25T02:33:25Z</time>
      </trkpt>
      <trkpt lat="38.041529" lon="-6.230476">
        <ele>565.917</ele>
        <time>2019-02-25T02:33:26Z</time>
      </trkpt>
      <trkpt lat="38.041568" lon="-6.230511">
        <ele>565.830</ele>
        <time>2019-02-25T02:33:27Z</time>
      </trkpt>
      <trkpt lat="38.041611" lon="-6.230541">
        <ele>565.859</ele>
        <time>2019-02-25T02:33:28Z</time>
      </trkpt>
      <trkpt lat="38.041654" lon="-6.230565">
        <ele>565.868</ele>
        <time>2019-02-25T02:33:29Z</time>
      </trkpt>
      <trkpt lat="38.042071" lon="-6.230839">
        <ele>565.225</ele>
        <time>2019-02-25T02:33:42Z</time>
      </trkpt>
      <trkpt lat="38.042217" lon="-6.230932">
        <ele>564.826</ele>
        <time>2019-02-25T02:33:46Z</time>
      </trkpt>
      <trkpt lat="38.042261" lon="-6.230950">
        <ele>564.708</ele>
        <time>2019-02-25T02:33:47Z</time>
      </trkpt>
      <trkpt lat="38.042306" lon="-6.230976">
        <ele>564.608</ele>
        <time>2019-02-25T02:33:48Z</time>
      </trkpt>
      <trkpt lat="38.042350" lon="-6.231001">
        <ele>564.515</ele>
        <time>2019-02-25T02:33:49Z</time>
      </trkpt>
      <trkpt lat="38.042396" lon="-6.231025">
        <ele>564.446</ele>
        <time>2019-02-25T02:33:50Z</time>
      </trkpt>
      <trkpt lat="38.042446" lon="-6.231058">
        <ele>564.497</ele>
        <time>2019-02-25T02:33:51Z</time>
      </trkpt>
      <trkpt lat="38.042492" lon="-6.231100">
        <ele>564.456</ele>
        <time>2019-02-25T02:33:52Z</time>
      </trkpt>
      <trkpt lat="38.042877" lon="-6.231510">
        <ele>565.760</ele>
        <time>2019-02-25T02:34:03Z</time>
      </trkpt>
      <trkpt lat="38.043110" lon="-6.231758">
        <ele>567.043</ele>
        <time>2019-02-25T02:34:17Z</time>
      </trkpt>
      <trkpt lat="38.043342" lon="-6.231973">
        <ele>567.882</ele>
        <time>2019-02-25T02:34:31Z</time>
      </trkpt>
      <trkpt lat="38.043672" lon="-6.232130">
        <ele>567.791</ele>
        <time>2019-02-25T02:34:43Z</time>
      </trkpt>
      <trkpt lat="38.044034" lon="-6.232361">
        <ele>567.128</ele>
        <time>2019-02-25T02:34:54Z</time>
      </trkpt>
      <trkpt lat="38.044125" lon="-6.232475">
        <ele>567.089</ele>
        <time>2019-02-25T02:35:00Z</time>
      </trkpt>
      <trkpt lat="38.044128" lon="-6.232492">
        <ele>567.017</ele>
        <time>2019-02-25T02:35:01Z</time>
      </trkpt>
      <trkpt lat="38.044136" lon="-6.232505">
        <ele>567.008</ele>
        <time>2019-02-25T02:35:02Z</time>
      </trkpt>
      <trkpt lat="38.044181" lon="-6.232525">
        <ele>566.995</ele>
        <time>2019-02-25T02:35:11Z</time>
      </trkpt>
      <trkpt lat="38.044320" lon="-6.232559">
        <ele>566.826</ele>
        <time>2019-02-25T02:35:36Z</time>
      </trkpt>
      <trkpt lat="38.044335" lon="-6.232575">
        <ele>566.887</ele>
        <time>2019-02-25T02:35:37Z</time>
      </trkpt>
      <trkpt lat="38.044352" lon="-6.232594">
        <ele>566.936</ele>
        <time>2019-02-25T02:35:38Z</time>
      </trkpt>
      <trkpt lat="38.044375" lon="-6.232618">
        <ele>566.940</ele>
        <time>2019-02-25T02:35:39Z</time>
      </trkpt>
      <trkpt lat="38.044401" lon="-6.232643">
        <ele>566.923</ele>
        <time>2019-02-25T02:35:40Z</time>
      </trkpt>
      <trkpt lat="38.044667" lon="-6.232860">
        <ele>567.622</ele>
        <time>2019-02-25T02:35:51Z</time>
      </trkpt>
      <trkpt lat="38.044963" lon="-6.233152">
        <ele>568.761</ele>
        <time>2019-02-25T02:36:04Z</time>
      </trkpt>
      <trkpt lat="38.045244" lon="-6.233394">
        <ele>569.635</ele>
        <time>2019-02-25T02:36:17Z</time>
      </trkpt>
      <trkpt lat="38.045480" lon="-6.233600">
        <ele>570.586</ele>
        <time>2019-02-25T02:36:31Z</time>
      </trkpt>
      <trkpt lat="38.045684" lon="-6.233737">
        <ele>571.514</ele>
        <time>2019-02-25T02:36:43Z</time>
      </trkpt>
      <trkpt lat="38.045698" lon="-6.233752">
        <ele>571.508</ele>
        <time>2019-02-25T02:36:44Z</time>
      </trkpt>
      <trkpt lat="38.045714" lon="-6.233767">
        <ele>571.526</ele>
        <time>2019-02-25T02:36:45Z</time>
      </trkpt>
      <trkpt lat="38.045729" lon="-6.233778">
        <ele>571.637</ele>
        <time>2019-02-25T02:36:46Z</time>
      </trkpt>
      <trkpt lat="38.045740" lon="-6.233789">
        <ele>571.658</ele>
        <time>2019-02-25T02:36:47Z</time>
      </trkpt>
      <trkpt lat="38.045754" lon="-6.233802">
        <ele>571.687</ele>
        <time>2019-02-25T02:36:48Z</time>
      </trkpt>
      <trkpt lat="38.045814" lon="-6.233859">
        <ele>571.891</ele>
        <time>2019-02-25T02:36:52Z</time>
      </trkpt>
      <trkpt lat="38.045828" lon="-6.233872">
        <ele>571.884</ele>
        <time>2019-02-25T02:36:53Z</time>
      </trkpt>
      <trkpt lat="38.045870" lon="-6.233912">
        <ele>571.813</ele>
        <time>2019-02-25T02:36:56Z</time>
      </trkpt>
      <trkpt lat="38.045887" lon="-6.233923">
        <ele>571.832</ele>
        <time>2019-02-25T02:36:57Z</time>
      </trkpt>
      <trkpt lat="38.045903" lon="-6.233937">
        <ele>571.849</ele>
        <time>2019-02-25T02:36:58Z</time>
      </trkpt>
      <trkpt lat="38.045923" lon="-6.233952">
        <ele>571.802</ele>
        <time>2019-02-25T02:36:59Z</time>
      </trkpt>
      <trkpt lat="38.045946" lon="-6.233966">
        <ele>571.822</ele>
        <time>2019-02-25T02:37:00Z</time>
      </trkpt>
      <trkpt lat="38.046213" lon="-6.234149">
        <ele>571.608</ele>
        <time>2019-02-25T02:37:12Z</time>
      </trkpt>
      <trkpt lat="38.046591" lon="-6.234329">
        <ele>571.077</ele>
        <time>2019-02-25T02:37:25Z</time>
      </trkpt>
      <trkpt lat="38.046787" lon="-6.234499">
        <ele>570.058</ele>
        <time>2019-02-25T02:37:34Z</time>
      </trkpt>
      <trkpt lat="38.046772" lon="-6.234557">
        <ele>569.829</ele>
        <time>2019-02-25T02:37:37Z</time>
      </trkpt>
      <trkpt lat="38.046752" lon="-6.234568">
        <ele>569.648</ele>
        <time>2019-02-25T02:37:38Z</time>
      </trkpt>
      <trkpt lat="38.046727" lon="-6.234574">
        <ele>569.432</ele>
        <time>2019-02-25T02:37:39Z</time>
      </trkpt>
      <trkpt lat="38.046700" lon="-6.234579">
        <ele>569.235</ele>
        <time>2019-02-25T02:37:40Z</time>
      </trkpt>
      <trkpt lat="38.046676" lon="-6.234580">
        <ele>569.174</ele>
        <time>2019-02-25T02:37:41Z</time>
      </trkpt>
      <trkpt lat="38.046650" lon="-6.234577">
        <ele>568.823</ele>
        <time>2019-02-25T02:37:42Z</time>
      </trkpt>
      <trkpt lat="38.046626" lon="-6.234580">
        <ele>568.654</ele>
        <time>2019-02-25T02:37:43Z</time>
      </trkpt>
      <trkpt lat="38.046602" lon="-6.234588">
        <ele>568.456</ele>
        <time>2019-02-25T02:37:44Z</time>
      </trkpt>
      <trkpt lat="38.046595" lon="-6.234606">
        <ele>568.311</ele>
        <time>2019-02-25T02:37:45Z</time>
      </trkpt>
      <trkpt lat="38.046643" lon="-6.234663">
        <ele>567.808</ele>
        <time>2019-02-25T02:37:49Z</time>
      </trkpt>
      <trkpt lat="38.046665" lon="-6.234674">
        <ele>567.728</ele>
        <time>2019-02-25T02:37:50Z</time>
      </trkpt>
      <trkpt lat="38.047112" lon="-6.234901">
        <ele>568.899</ele>
        <time>2019-02-25T02:38:07Z</time>
      </trkpt>
      <trkpt lat="38.047709" lon="-6.235203">
        <ele>570.740</ele>
        <time>2019-02-25T02:38:29Z</time>
      </trkpt>
      <trkpt lat="38.048150" lon="-6.235478">
        <ele>572.259</ele>
        <time>2019-02-25T02:38:46Z</time>
      </trkpt>
      <trkpt lat="38.048678" lon="-6.235858">
        <ele>574.293</ele>
        <time>2019-02-25T02:39:07Z</time>
      </trkpt>
      <trkpt lat="38.048690" lon="-6.235883">
        <ele>574.246</ele>
        <time>2019-02-25T02:39:08Z</time>
      </trkpt>
      <trkpt lat="38.048690" lon="-6.235910">
        <ele>574.335</ele>
        <time>2019-02-25T02:39:09Z</time>
      </trkpt>
      <trkpt lat="38.048690" lon="-6.235933">
        <ele>574.454</ele>
        <time>2019-02-25T02:39:10Z</time>
      </trkpt>
      <trkpt lat="38.048697" lon="-6.235951">
        <ele>574.496</ele>
        <time>2019-02-25T02:39:11Z</time>
      </trkpt>
      <trkpt lat="38.048703" lon="-6.235966">
        <ele>574.531</ele>
        <time>2019-02-25T02:39:12Z</time>
      </trkpt>
      <trkpt lat="38.048706" lon="-6.235981">
        <ele>574.524</ele>
        <time>2019-02-25T02:39:13Z</time>
      </trkpt>
      <trkpt lat="38.048704" lon="-6.235997">
        <ele>574.608</ele>
        <time>2019-02-25T02:39:14Z</time>
      </trkpt>
      <trkpt lat="38.048693" lon="-6.236055">
        <ele>574.712</ele>
        <time>2019-02-25T02:39:16Z</time>
      </trkpt>
      <trkpt lat="38.048694" lon="-6.236089">
        <ele>574.893</ele>
        <time>2019-02-25T02:39:17Z</time>
      </trkpt>
      <trkpt lat="38.048703" lon="-6.236116">
        <ele>574.974</ele>
        <time>2019-02-25T02:39:18Z</time>
      </trkpt>
      <trkpt lat="38.048718" lon="-6.236136">
        <ele>575.063</ele>
        <time>2019-02-25T02:39:19Z</time>
      </trkpt>
      <trkpt lat="38.048733" lon="-6.236152">
        <ele>575.187</ele>
        <time>2019-02-25T02:39:20Z</time>
      </trkpt>
      <trkpt lat="38.048966" lon="-6.236325">
        <ele>576.090</ele>
        <time>2019-02-25T02:39:36Z</time>
      </trkpt>
      <trkpt lat="38.049108" lon="-6.236400">
        <ele>576.599</ele>
        <time>2019-02-25T02:39:45Z</time>
      </trkpt>
      <trkpt lat="38.049249" lon="-6.236492">
        <ele>577.198</ele>
        <time>2019-02-25T02:39:55Z</time>
      </trkpt>
      <trkpt lat="38.049268" lon="-6.236510">
        <ele>577.227</ele>
        <time>2019-02-25T02:39:56Z</time>
      </trkpt>
      <trkpt lat="38.049293" lon="-6.236526">
        <ele>577.368</ele>
        <time>2019-02-25T02:39:57Z</time>
      </trkpt>
      <trkpt lat="38.049676" lon="-6.236786">
        <ele>578.814</ele>
        <time>2019-02-25T02:40:09Z</time>
      </trkpt>
      <trkpt lat="38.049891" lon="-6.236966">
        <ele>579.708</ele>
        <time>2019-02-25T02:40:21Z</time>
      </trkpt>
      <trkpt lat="38.049901" lon="-6.236973">
        <ele>579.725</ele>
        <time>2019-02-25T02:40:26Z</time>
      </trkpt>
      <trkpt lat="38.050355" lon="-6.237191">
        <ele>581.516</ele>
        <time>2019-02-25T02:41:55Z</time>
      </trkpt>
      <trkpt lat="38.050512" lon="-6.237307">
        <ele>582.287</ele>
        <time>2019-02-25T02:42:13Z</time>
      </trkpt>
      <trkpt lat="38.050643" lon="-6.237393">
        <ele>582.716</ele>
        <time>2019-02-25T02:42:28Z</time>
      </trkpt>
      <trkpt lat="38.050771" lon="-6.237484">
        <ele>583.320</ele>
        <time>2019-02-25T02:42:44Z</time>
      </trkpt>
      <trkpt lat="38.050818" lon="-6.237539">
        <ele>583.513</ele>
        <time>2019-02-25T02:43:01Z</time>
      </trkpt>
      <trkpt lat="38.051069" lon="-6.237698">
        <ele>584.552</ele>
        <time>2019-02-25T02:43:15Z</time>
      </trkpt>
      <trkpt lat="38.051291" lon="-6.237819">
        <ele>585.381</ele>
        <time>2019-02-25T02:43:27Z</time>
      </trkpt>
      <trkpt lat="38.051415" lon="-6.237862">
        <ele>585.642</ele>
        <time>2019-02-25T02:43:37Z</time>
      </trkpt>
      <trkpt lat="38.051484" lon="-6.237901">
        <ele>585.922</ele>
        <time>2019-02-25T02:43:45Z</time>
      </trkpt>
      <trkpt lat="38.051696" lon="-6.237983">
        <ele>586.514</ele>
        <time>2019-02-25T02:43:59Z</time>
      </trkpt>
      <trkpt lat="38.051836" lon="-6.238066">
        <ele>586.908</ele>
        <time>2019-02-25T02:44:36Z</time>
      </trkpt>
      <trkpt lat="38.051957" lon="-6.238126">
        <ele>587.377</ele>
        <time>2019-02-25T02:44:50Z</time>
      </trkpt>
      <trkpt lat="38.051992" lon="-6.238134">
        <ele>587.388</ele>
        <time>2019-02-25T02:44:56Z</time>
      </trkpt>
      <trkpt lat="38.052097" lon="-6.238186">
        <ele>587.759</ele>
        <time>2019-02-25T02:45:10Z</time>
      </trkpt>
      <trkpt lat="38.052254" lon="-6.238245">
        <ele>588.158</ele>
        <time>2019-02-25T02:45:25Z</time>
      </trkpt>
      <trkpt lat="38.052352" lon="-6.238288">
        <ele>588.452</ele>
        <time>2019-02-25T02:45:39Z</time>
      </trkpt>
      <trkpt lat="38.052418" lon="-6.238311">
        <ele>588.625</ele>
        <time>2019-02-25T02:45:54Z</time>
      </trkpt>
      <trkpt lat="38.052740" lon="-6.238478">
        <ele>589.644</ele>
        <time>2019-02-25T02:46:11Z</time>
      </trkpt>
      <trkpt lat="38.053001" lon="-6.238577">
        <ele>590.363</ele>
        <time>2019-02-25T02:46:25Z</time>
      </trkpt>
      <trkpt lat="38.053167" lon="-6.238602">
        <ele>590.793</ele>
        <time>2019-02-25T02:46:35Z</time>
      </trkpt>
      <trkpt lat="38.053188" lon="-6.238601">
        <ele>590.865</ele>
        <time>2019-02-25T02:46:36Z</time>
      </trkpt>
      <trkpt lat="38.053210" lon="-6.238600">
        <ele>590.821</ele>
        <time>2019-02-25T02:46:37Z</time>
      </trkpt>
      <trkpt lat="38.053230" lon="-6.238603">
        <ele>590.908</ele>
        <time>2019-02-25T02:46:38Z</time>
      </trkpt>
      <trkpt lat="38.053252" lon="-6.238607">
        <ele>590.912</ele>
        <time>2019-02-25T02:46:39Z</time>
      </trkpt>
      <trkpt lat="38.053525" lon="-6.238626">
        <ele>592.773</ele>
        <time>2019-02-25T02:46:52Z</time>
      </trkpt>
      <trkpt lat="38.053542" lon="-6.238631">
        <ele>592.874</ele>
        <time>2019-02-25T02:46:53Z</time>
      </trkpt>
      <trkpt lat="38.053562" lon="-6.238628">
        <ele>592.963</ele>
        <time>2019-02-25T02:46:54Z</time>
      </trkpt>
      <trkpt lat="38.053583" lon="-6.238622">
        <ele>593.067</ele>
        <time>2019-02-25T02:46:55Z</time>
      </trkpt>
      <trkpt lat="38.053604" lon="-6.238617">
        <ele>593.250</ele>
        <time>2019-02-25T02:46:56Z</time>
      </trkpt>
      <trkpt lat="38.053627" lon="-6.238612">
        <ele>593.399</ele>
        <time>2019-02-25T02:46:57Z</time>
      </trkpt>
      <trkpt lat="38.053650" lon="-6.238604">
        <ele>593.568</ele>
        <time>2019-02-25T02:46:58Z</time>
      </trkpt>
      <trkpt lat="38.053963" lon="-6.238592">
        <ele>594.549</ele>
        <time>2019-02-25T02:47:11Z</time>
      </trkpt>
      <trkpt lat="38.054016" lon="-6.238611">
        <ele>594.702</ele>
        <time>2019-02-25T02:47:14Z</time>
      </trkpt>
      <trkpt lat="38.054027" lon="-6.238631">
        <ele>594.822</ele>
        <time>2019-02-25T02:47:15Z</time>
      </trkpt>
      <trkpt lat="38.054033" lon="-6.238650">
        <ele>594.908</ele>
        <time>2019-02-25T02:47:16Z</time>
      </trkpt>
      <trkpt lat="38.054035" lon="-6.238669">
        <ele>595.097</ele>
        <time>2019-02-25T02:47:17Z</time>
      </trkpt>
      <trkpt lat="38.054027" lon="-6.238699">
        <ele>595.148</ele>
        <time>2019-02-25T02:47:22Z</time>
      </trkpt>
      <trkpt lat="38.053806" lon="-6.238976">
        <ele>591.359</ele>
        <time>2019-02-25T02:48:21Z</time>
      </trkpt>
      <trkpt lat="38.053726" lon="-6.239108">
        <ele>590.818</ele>
        <time>2019-02-25T02:48:25Z</time>
      </trkpt>
      <trkpt lat="38.053733" lon="-6.239157">
        <ele>590.862</ele>
        <time>2019-02-25T02:48:26Z</time>
      </trkpt>
      <trkpt lat="38.053854" lon="-6.239243">
        <ele>591.185</ele>
        <time>2019-02-25T02:48:30Z</time>
      </trkpt>
      <trkpt lat="38.054150" lon="-6.239517">
        <ele>593.094</ele>
        <time>2019-02-25T02:48:43Z</time>
      </trkpt>
      <trkpt lat="38.054438" lon="-6.239701">
        <ele>595.453</ele>
        <time>2019-02-25T02:48:56Z</time>
      </trkpt>
      <trkpt lat="38.054786" lon="-6.239730">
        <ele>598.712</ele>
        <time>2019-02-25T02:49:13Z</time>
      </trkpt>
      <trkpt lat="38.055072" lon="-6.239764">
        <ele>602.032</ele>
        <time>2019-02-25T02:49:30Z</time>
      </trkpt>
      <trkpt lat="38.055129" lon="-6.239762">
        <ele>602.805</ele>
        <time>2019-02-25T02:49:34Z</time>
      </trkpt>
      <trkpt lat="38.055190" lon="-6.239791">
        <ele>603.608</ele>
        <time>2019-02-25T02:49:39Z</time>
      </trkpt>
      <trkpt lat="38.055502" lon="-6.239815">
        <ele>607.024</ele>
        <time>2019-02-25T02:50:00Z</time>
      </trkpt>
      <trkpt lat="38.055741" lon="-6.239916">
        <ele>608.215</ele>
        <time>2019-02-25T02:50:17Z</time>
      </trkpt>
      <trkpt lat="38.055756" lon="-6.239930">
        <ele>608.356</ele>
        <time>2019-02-25T02:50:18Z</time>
      </trkpt>
      <trkpt lat="38.055853" lon="-6.239982">
        <ele>608.655</ele>
        <time>2019-02-25T02:50:24Z</time>
      </trkpt>
      <trkpt lat="38.055961" lon="-6.240050">
        <ele>608.729</ele>
        <time>2019-02-25T02:50:30Z</time>
      </trkpt>
      <trkpt lat="38.056243" lon="-6.240244">
        <ele>608.732</ele>
        <time>2019-02-25T02:50:40Z</time>
      </trkpt>
      <trkpt lat="38.056319" lon="-6.240284">
        <ele>608.641</ele>
        <time>2019-02-25T02:50:42Z</time>
      </trkpt>
      <trkpt lat="38.056852" lon="-6.240644">
        <ele>608.310</ele>
        <time>2019-02-25T02:50:54Z</time>
      </trkpt>
      <trkpt lat="38.057316" lon="-6.240813">
        <ele>609.815</ele>
        <time>2019-02-25T02:51:06Z</time>
      </trkpt>
      <trkpt lat="38.057462" lon="-6.240826">
        <ele>611.065</ele>
        <time>2019-02-25T02:51:14Z</time>
      </trkpt>
      <trkpt lat="38.057756" lon="-6.240873">
        <ele>614.411</ele>
        <time>2019-02-25T02:51:33Z</time>
      </trkpt>
      <trkpt lat="38.058058" lon="-6.240933">
        <ele>617.108</ele>
        <time>2019-02-25T02:51:53Z</time>
      </trkpt>
      <trkpt lat="38.058072" lon="-6.240934">
        <ele>617.364</ele>
        <time>2019-02-25T02:51:54Z</time>
      </trkpt>
      <trkpt lat="38.058135" lon="-6.240982">
        <ele>618.025</ele>
        <time>2019-02-25T02:51:59Z</time>
      </trkpt>
      <trkpt lat="38.058374" lon="-6.241079">
        <ele>620.886</ele>
        <time>2019-02-25T02:52:15Z</time>
      </trkpt>
      <trkpt lat="38.058636" lon="-6.241180">
        <ele>623.815</ele>
        <time>2019-02-25T02:52:34Z</time>
      </trkpt>
      <trkpt lat="38.058840" lon="-6.241276">
        <ele>626.069</ele>
        <time>2019-02-25T02:52:49Z</time>
      </trkpt>
      <trkpt lat="38.059050" lon="-6.241351">
        <ele>627.762</ele>
        <time>2019-02-25T02:53:04Z</time>
      </trkpt>
      <trkpt lat="38.059317" lon="-6.241475">
        <ele>629.161</ele>
        <time>2019-02-25T02:53:20Z</time>
      </trkpt>
      <trkpt lat="38.059356" lon="-6.241479">
        <ele>629.370</ele>
        <time>2019-02-25T02:53:22Z</time>
      </trkpt>
      <trkpt lat="38.059723" lon="-6.241632">
        <ele>630.252</ele>
        <time>2019-02-25T02:53:36Z</time>
      </trkpt>
      <trkpt lat="38.060086" lon="-6.241774">
        <ele>630.853</ele>
        <time>2019-02-25T02:53:48Z</time>
      </trkpt>
      <trkpt lat="38.060698" lon="-6.242037">
        <ele>632.308</ele>
        <time>2019-02-25T02:54:08Z</time>
      </trkpt>
      <trkpt lat="38.061117" lon="-6.242200">
        <ele>633.708</ele>
        <time>2019-02-25T02:54:24Z</time>
      </trkpt>
      <trkpt lat="38.061452" lon="-6.242324">
        <ele>634.118</ele>
        <time>2019-02-25T02:54:37Z</time>
      </trkpt>
      <trkpt lat="38.061939" lon="-6.242503">
        <ele>634.089</ele>
        <time>2019-02-25T02:54:51Z</time>
      </trkpt>
      <trkpt lat="38.062025" lon="-6.242544">
        <ele>634.090</ele>
        <time>2019-02-25T02:54:53Z</time>
      </trkpt>
      <trkpt lat="38.062110" lon="-6.242623">
        <ele>633.959</ele>
        <time>2019-02-25T02:55:00Z</time>
      </trkpt>
      <trkpt lat="38.062148" lon="-6.242674">
        <ele>633.863</ele>
        <time>2019-02-25T02:55:04Z</time>
      </trkpt>
      <trkpt lat="38.062251" lon="-6.242792">
        <ele>633.546</ele>
        <time>2019-02-25T02:55:08Z</time>
      </trkpt>
      <trkpt lat="38.062352" lon="-6.242877">
        <ele>633.315</ele>
        <time>2019-02-25T02:55:11Z</time>
      </trkpt>
      <trkpt lat="38.062838" lon="-6.243050">
        <ele>632.834</ele>
        <time>2019-02-25T02:55:25Z</time>
      </trkpt>
      <trkpt lat="38.063246" lon="-6.243197">
        <ele>633.993</ele>
        <time>2019-02-25T02:55:42Z</time>
      </trkpt>
      <trkpt lat="38.063664" lon="-6.243428">
        <ele>635.365</ele>
        <time>2019-02-25T02:55:58Z</time>
      </trkpt>
      <trkpt lat="38.064038" lon="-6.243681">
        <ele>636.521</ele>
        <time>2019-02-25T02:56:12Z</time>
      </trkpt>
      <trkpt lat="38.064419" lon="-6.243950">
        <ele>637.508</ele>
        <time>2019-02-25T02:56:26Z</time>
      </trkpt>
      <trkpt lat="38.064844" lon="-6.244279">
        <ele>638.542</ele>
        <time>2019-02-25T02:56:43Z</time>
      </trkpt>
      <trkpt lat="38.065212" lon="-6.244555">
        <ele>639.143</ele>
        <time>2019-02-25T02:56:58Z</time>
      </trkpt>
      <trkpt lat="38.065692" lon="-6.244807">
        <ele>639.134</ele>
        <time>2019-02-25T02:57:12Z</time>
      </trkpt>
      <trkpt lat="38.065732" lon="-6.244836">
        <ele>639.133</ele>
        <time>2019-02-25T02:57:13Z</time>
      </trkpt>
      <trkpt lat="38.065771" lon="-6.244866">
        <ele>639.127</ele>
        <time>2019-02-25T02:57:14Z</time>
      </trkpt>
      <trkpt lat="38.066044" lon="-6.245139">
        <ele>638.560</ele>
        <time>2019-02-25T02:57:21Z</time>
      </trkpt>
      <trkpt lat="38.066087" lon="-6.245183">
        <ele>638.489</ele>
        <time>2019-02-25T02:57:22Z</time>
      </trkpt>
      <trkpt lat="38.066133" lon="-6.245222">
        <ele>638.378</ele>
        <time>2019-02-25T02:57:23Z</time>
      </trkpt>
      <trkpt lat="38.066235" lon="-6.245293">
        <ele>638.352</ele>
        <time>2019-02-25T02:57:25Z</time>
      </trkpt>
      <trkpt lat="38.066344" lon="-6.245345">
        <ele>638.353</ele>
        <time>2019-02-25T02:57:27Z</time>
      </trkpt>
      <trkpt lat="38.066446" lon="-6.245401">
        <ele>638.308</ele>
        <time>2019-02-25T02:57:29Z</time>
      </trkpt>
      <trkpt lat="38.066544" lon="-6.245449">
        <ele>638.508</ele>
        <time>2019-02-25T02:57:31Z</time>
      </trkpt>
      <trkpt lat="38.066813" lon="-6.245614">
        <ele>639.448</ele>
        <time>2019-02-25T02:57:41Z</time>
      </trkpt>
      <trkpt lat="38.067033" lon="-6.245731">
        <ele>641.859</ele>
        <time>2019-02-25T02:57:57Z</time>
      </trkpt>
      <trkpt lat="38.067216" lon="-6.245804">
        <ele>643.920</ele>
        <time>2019-02-25T02:58:11Z</time>
      </trkpt>
      <trkpt lat="38.067272" lon="-6.245834">
        <ele>644.689</ele>
        <time>2019-02-25T02:58:15Z</time>
      </trkpt>
      <trkpt lat="38.067285" lon="-6.245846">
        <ele>644.853</ele>
        <time>2019-02-25T02:58:16Z</time>
      </trkpt>
      <trkpt lat="38.067298" lon="-6.245858">
        <ele>645.016</ele>
        <time>2019-02-25T02:58:17Z</time>
      </trkpt>
      <trkpt lat="38.067311" lon="-6.245871">
        <ele>645.125</ele>
        <time>2019-02-25T02:58:18Z</time>
      </trkpt>
      <trkpt lat="38.067325" lon="-6.245884">
        <ele>645.394</ele>
        <time>2019-02-25T02:58:19Z</time>
      </trkpt>
      <trkpt lat="38.067450" lon="-6.246030">
        <ele>646.713</ele>
        <time>2019-02-25T02:58:31Z</time>
      </trkpt>
      <trkpt lat="38.067453" lon="-6.246051">
        <ele>646.943</ele>
        <time>2019-02-25T02:58:32Z</time>
      </trkpt>
      <trkpt lat="38.067459" lon="-6.246071">
        <ele>647.007</ele>
        <time>2019-02-25T02:58:33Z</time>
      </trkpt>
      <trkpt lat="38.067467" lon="-6.246089">
        <ele>647.108</ele>
        <time>2019-02-25T02:58:34Z</time>
      </trkpt>
      <trkpt lat="38.067475" lon="-6.246107">
        <ele>647.274</ele>
        <time>2019-02-25T02:58:35Z</time>
      </trkpt>
      <trkpt lat="38.067577" lon="-6.246366">
        <ele>648.925</ele>
        <time>2019-02-25T02:58:49Z</time>
      </trkpt>
      <trkpt lat="38.067731" lon="-6.246626">
        <ele>650.516</ele>
        <time>2019-02-25T02:59:05Z</time>
      </trkpt>
      <trkpt lat="38.067935" lon="-6.246849">
        <ele>652.725</ele>
        <time>2019-02-25T02:59:21Z</time>
      </trkpt>
      <trkpt lat="38.068212" lon="-6.247067">
        <ele>655.889</ele>
        <time>2019-02-25T02:59:41Z</time>
      </trkpt>
      <trkpt lat="38.068433" lon="-6.247276">
        <ele>658.832</ele>
        <time>2019-02-25T02:59:58Z</time>
      </trkpt>
      <trkpt lat="38.068643" lon="-6.247488">
        <ele>661.321</ele>
        <time>2019-02-25T03:00:15Z</time>
      </trkpt>
      <trkpt lat="38.068715" lon="-6.247559">
        <ele>662.160</ele>
        <time>2019-02-25T03:00:21Z</time>
      </trkpt>
      <trkpt lat="38.068944" lon="-6.247787">
        <ele>664.517</ele>
        <time>2019-02-25T03:00:40Z</time>
      </trkpt>
      <trkpt lat="38.069140" lon="-6.247949">
        <ele>666.287</ele>
        <time>2019-02-25T03:00:56Z</time>
      </trkpt>
      <trkpt lat="38.069325" lon="-6.248156">
        <ele>667.415</ele>
        <time>2019-02-25T03:01:11Z</time>
      </trkpt>
      <trkpt lat="38.069510" lon="-6.248427">
        <ele>668.408</ele>
        <time>2019-02-25T03:01:24Z</time>
      </trkpt>
      <trkpt lat="38.069742" lon="-6.248793">
        <ele>670.064</ele>
        <time>2019-02-25T03:01:41Z</time>
      </trkpt>
      <trkpt lat="38.070058" lon="-6.249107">
        <ele>672.515</ele>
        <time>2019-02-25T03:02:01Z</time>
      </trkpt>
      <trkpt lat="38.070313" lon="-6.249345">
        <ele>675.166</ele>
        <time>2019-02-25T03:02:18Z</time>
      </trkpt>
      <trkpt lat="38.070544" lon="-6.249627">
        <ele>678.075</ele>
        <time>2019-02-25T03:02:36Z</time>
      </trkpt>
      <trkpt lat="38.070731" lon="-6.249932">
        <ele>680.869</ele>
        <time>2019-02-25T03:02:54Z</time>
      </trkpt>
      <trkpt lat="38.070866" lon="-6.250256">
        <ele>683.432</ele>
        <time>2019-02-25T03:03:12Z</time>
      </trkpt>
      <trkpt lat="38.070971" lon="-6.250528">
        <ele>685.621</ele>
        <time>2019-02-25T03:03:27Z</time>
      </trkpt>
      <trkpt lat="38.071123" lon="-6.250791">
        <ele>687.990</ele>
        <time>2019-02-25T03:03:43Z</time>
      </trkpt>
      <trkpt lat="38.071316" lon="-6.251090">
        <ele>690.041</ele>
        <time>2019-02-25T03:04:02Z</time>
      </trkpt>
      <trkpt lat="38.071493" lon="-6.251316">
        <ele>691.281</ele>
        <time>2019-02-25T03:04:17Z</time>
      </trkpt>
      <trkpt lat="38.071674" lon="-6.251540">
        <ele>692.009</ele>
        <time>2019-02-25T03:04:31Z</time>
      </trkpt>
      <trkpt lat="38.071707" lon="-6.251592">
        <ele>692.108</ele>
        <time>2019-02-25T03:04:34Z</time>
      </trkpt>
      <trkpt lat="38.071724" lon="-6.251610">
        <ele>692.117</ele>
        <time>2019-02-25T03:04:35Z</time>
      </trkpt>
      <trkpt lat="38.071965" lon="-6.251857">
        <ele>692.738</ele>
        <time>2019-02-25T03:04:49Z</time>
      </trkpt>
      <trkpt lat="38.072111" lon="-6.252029">
        <ele>693.269</ele>
        <time>2019-02-25T03:05:02Z</time>
      </trkpt>
      <trkpt lat="38.072363" lon="-6.252292">
        <ele>695.038</ele>
        <time>2019-02-25T03:05:20Z</time>
      </trkpt>
      <trkpt lat="38.072607" lon="-6.252599">
        <ele>697.582</ele>
        <time>2019-02-25T03:05:38Z</time>
      </trkpt>
      <trkpt lat="38.072852" lon="-6.252955">
        <ele>699.715</ele>
        <time>2019-02-25T03:05:57Z</time>
      </trkpt>
      <trkpt lat="38.073122" lon="-6.253359">
        <ele>702.544</ele>
        <time>2019-02-25T03:06:19Z</time>
      </trkpt>
      <trkpt lat="38.073345" lon="-6.253650">
        <ele>705.263</ele>
        <time>2019-02-25T03:06:38Z</time>
      </trkpt>
      <trkpt lat="38.073529" lon="-6.253898">
        <ele>707.274</ele>
        <time>2019-02-25T03:06:55Z</time>
      </trkpt>
      <trkpt lat="38.073704" lon="-6.254160">
        <ele>708.456</ele>
        <time>2019-02-25T03:07:10Z</time>
      </trkpt>
      <trkpt lat="38.073717" lon="-6.254182">
        <ele>708.421</ele>
        <time>2019-02-25T03:07:11Z</time>
      </trkpt>
      <trkpt lat="38.073735" lon="-6.254202">
        <ele>708.508</ele>
        <time>2019-02-25T03:07:12Z</time>
      </trkpt>
      <trkpt lat="38.073753" lon="-6.254222">
        <ele>708.520</ele>
        <time>2019-02-25T03:07:13Z</time>
      </trkpt>
      <trkpt lat="38.073770" lon="-6.254244">
        <ele>708.571</ele>
        <time>2019-02-25T03:07:14Z</time>
      </trkpt>
      <trkpt lat="38.073789" lon="-6.254270">
        <ele>708.572</ele>
        <time>2019-02-25T03:07:15Z</time>
      </trkpt>
      <trkpt lat="38.073810" lon="-6.254296">
        <ele>708.661</ele>
        <time>2019-02-25T03:07:16Z</time>
      </trkpt>
      <trkpt lat="38.073830" lon="-6.254323">
        <ele>708.685</ele>
        <time>2019-02-25T03:07:17Z</time>
      </trkpt>
      <trkpt lat="38.074115" lon="-6.254788">
        <ele>708.628</ele>
        <time>2019-02-25T03:07:31Z</time>
      </trkpt>
      <trkpt lat="38.074458" lon="-6.255168">
        <ele>708.897</ele>
        <time>2019-02-25T03:07:44Z</time>
      </trkpt>
      <trkpt lat="38.074902" lon="-6.255632">
        <ele>709.826</ele>
        <time>2019-02-25T03:08:03Z</time>
      </trkpt>
      <trkpt lat="38.075249" lon="-6.255919">
        <ele>711.447</ele>
        <time>2019-02-25T03:08:21Z</time>
      </trkpt>
      <trkpt lat="38.075449" lon="-6.256211">
        <ele>713.729</ele>
        <time>2019-02-25T03:08:39Z</time>
      </trkpt>
      <trkpt lat="38.075668" lon="-6.256514">
        <ele>717.021</ele>
        <time>2019-02-25T03:08:59Z</time>
      </trkpt>
      <trkpt lat="38.075836" lon="-6.256741">
        <ele>719.508</ele>
        <time>2019-02-25T03:09:17Z</time>
      </trkpt>
      <trkpt lat="38.076053" lon="-6.256868">
        <ele>722.177</ele>
        <time>2019-02-25T03:09:36Z</time>
      </trkpt>
      <trkpt lat="38.076250" lon="-6.257040">
        <ele>724.658</ele>
        <time>2019-02-25T03:09:54Z</time>
      </trkpt>
      <trkpt lat="38.076458" lon="-6.257267">
        <ele>727.599</ele>
        <time>2019-02-25T03:10:16Z</time>
      </trkpt>
      <trkpt lat="38.076653" lon="-6.257510">
        <ele>730.578</ele>
        <time>2019-02-25T03:10:36Z</time>
      </trkpt>
      <trkpt lat="38.076830" lon="-6.257726">
        <ele>733.042</ele>
        <time>2019-02-25T03:10:53Z</time>
      </trkpt>
      <trkpt lat="38.076987" lon="-6.257927">
        <ele>735.245</ele>
        <time>2019-02-25T03:11:09Z</time>
      </trkpt>
      <trkpt lat="38.077173" lon="-6.258153">
        <ele>737.814</ele>
        <time>2019-02-25T03:11:29Z</time>
      </trkpt>
      <trkpt lat="38.077310" lon="-6.258339">
        <ele>740.413</ele>
        <time>2019-02-25T03:11:45Z</time>
      </trkpt>
      <trkpt lat="38.077498" lon="-6.258536">
        <ele>743.884</ele>
        <time>2019-02-25T03:12:03Z</time>
      </trkpt>
      <trkpt lat="38.077671" lon="-6.258714">
        <ele>746.707</ele>
        <time>2019-02-25T03:12:20Z</time>
      </trkpt>
      <trkpt lat="38.077880" lon="-6.258894">
        <ele>749.617</ele>
        <time>2019-02-25T03:12:39Z</time>
      </trkpt>
      <trkpt lat="38.078063" lon="-6.259036">
        <ele>751.608</ele>
        <time>2019-02-25T03:12:54Z</time>
      </trkpt>
      <trkpt lat="38.078227" lon="-6.259215">
        <ele>753.051</ele>
        <time>2019-02-25T03:13:08Z</time>
      </trkpt>
      <trkpt lat="38.078384" lon="-6.259371">
        <ele>754.312</ele>
        <time>2019-02-25T03:13:22Z</time>
      </trkpt>
      <trkpt lat="38.078383" lon="-6.259370">
        <ele>754.393</ele>
        <time>2019-02-25T03:13:24Z</time>
      </trkpt>
      <trkpt lat="38.078397" lon="-6.259302">
        <ele>754.322</ele>
        <time>2019-02-25T03:13:43Z</time>
      </trkpt>
      <trkpt lat="38.078318" lon="-6.258985">
        <ele>754.236</ele>
        <time>2019-02-25T03:14:02Z</time>
      </trkpt>
      <trkpt lat="38.078360" lon="-6.258971">
        <ele>754.149</ele>
        <time>2019-02-25T03:14:06Z</time>
      </trkpt>
      <trkpt lat="38.078421" lon="-6.259087">
        <ele>754.048</ele>
        <time>2019-02-25T03:14:18Z</time>
      </trkpt>
      <trkpt lat="38.078433" lon="-6.259038">
        <ele>753.947</ele>
        <time>2019-02-25T03:19:46Z</time>
      </trkpt>
      <trkpt lat="38.078404" lon="-6.258977">
        <ele>753.861</ele>
        <time>2019-02-25T03:19:49Z</time>
      </trkpt>
      <trkpt lat="38.078327" lon="-6.258981">
        <ele>753.721</ele>
        <time>2019-02-25T03:19:53Z</time>
      </trkpt>
      <trkpt lat="38.078313" lon="-6.259008">
        <ele>753.713</ele>
        <time>2019-02-25T03:19:54Z</time>
      </trkpt>
      <trkpt lat="38.078318" lon="-6.259031">
        <ele>753.608</ele>
        <time>2019-02-25T03:19:55Z</time>
      </trkpt>
      <trkpt lat="38.078327" lon="-6.259049">
        <ele>753.649</ele>
        <time>2019-02-25T03:19:56Z</time>
      </trkpt>
      <trkpt lat="38.078334" lon="-6.259066">
        <ele>753.780</ele>
        <time>2019-02-25T03:19:57Z</time>
      </trkpt>
      <trkpt lat="38.078341" lon="-6.259087">
        <ele>753.751</ele>
        <time>2019-02-25T03:19:58Z</time>
      </trkpt>
      <trkpt lat="38.078344" lon="-6.259115">
        <ele>753.960</ele>
        <time>2019-02-25T03:19:59Z</time>
      </trkpt>
      <trkpt lat="38.078346" lon="-6.259144">
        <ele>753.914</ele>
        <time>2019-02-25T03:20:00Z</time>
      </trkpt>
      <trkpt lat="38.078349" lon="-6.259174">
        <ele>754.067</ele>
        <time>2019-02-25T03:20:01Z</time>
      </trkpt>
      <trkpt lat="38.078356" lon="-6.259204">
        <ele>754.136</ele>
        <time>2019-02-25T03:20:02Z</time>
      </trkpt>
      <trkpt lat="38.078370" lon="-6.259230">
        <ele>754.245</ele>
        <time>2019-02-25T03:20:03Z</time>
      </trkpt>
      <trkpt lat="38.078386" lon="-6.259259">
        <ele>754.297</ele>
        <time>2019-02-25T03:20:04Z</time>
      </trkpt>
      <trkpt lat="38.078400" lon="-6.259293">
        <ele>754.323</ele>
        <time>2019-02-25T03:20:05Z</time>
      </trkpt>
      <trkpt lat="38.078413" lon="-6.259335">
        <ele>754.325</ele>
        <time>2019-02-25T03:20:06Z</time>
      </trkpt>
      <trkpt lat="38.078448" lon="-6.259427">
        <ele>754.008</ele>
        <time>2019-02-25T03:20:08Z</time>
      </trkpt>
      <trkpt lat="38.078473" lon="-6.259472">
        <ele>753.792</ele>
        <time>2019-02-25T03:20:09Z</time>
      </trkpt>
      <trkpt lat="38.078502" lon="-6.259514">
        <ele>753.323</ele>
        <time>2019-02-25T03:20:10Z</time>
      </trkpt>
      <trkpt lat="38.078615" lon="-6.259678">
        <ele>752.154</ele>
        <time>2019-02-25T03:20:14Z</time>
      </trkpt>
      <trkpt lat="38.078646" lon="-6.259722">
        <ele>751.793</ele>
        <time>2019-02-25T03:20:15Z</time>
      </trkpt>
      <trkpt lat="38.078686" lon="-6.259764">
        <ele>751.437</ele>
        <time>2019-02-25T03:20:16Z</time>
      </trkpt>
      <trkpt lat="38.078773" lon="-6.259852">
        <ele>750.710</ele>
        <time>2019-02-25T03:20:18Z</time>
      </trkpt>
      <trkpt lat="38.079330" lon="-6.260457">
        <ele>746.769</ele>
        <time>2019-02-25T03:20:29Z</time>
      </trkpt>
      <trkpt lat="38.079775" lon="-6.260865">
        <ele>744.538</ele>
        <time>2019-02-25T03:20:37Z</time>
      </trkpt>
      <trkpt lat="38.080029" lon="-6.261049">
        <ele>743.082</ele>
        <time>2019-02-25T03:20:46Z</time>
      </trkpt>
      <trkpt lat="38.080099" lon="-6.261075">
        <ele>742.643</ele>
        <time>2019-02-25T03:20:48Z</time>
      </trkpt>
      <trkpt lat="38.080144" lon="-6.261082">
        <ele>742.317</ele>
        <time>2019-02-25T03:20:49Z</time>
      </trkpt>
      <trkpt lat="38.080324" lon="-6.261089">
        <ele>741.008</ele>
        <time>2019-02-25T03:20:53Z</time>
      </trkpt>
      <trkpt lat="38.080373" lon="-6.261101">
        <ele>740.511</ele>
        <time>2019-02-25T03:20:54Z</time>
      </trkpt>
      <trkpt lat="38.080419" lon="-6.261117">
        <ele>740.642</ele>
        <time>2019-02-25T03:20:55Z</time>
      </trkpt>
      <trkpt lat="38.080459" lon="-6.261136">
        <ele>740.733</ele>
        <time>2019-02-25T03:20:56Z</time>
      </trkpt>
      <trkpt lat="38.080495" lon="-6.261155">
        <ele>740.972</ele>
        <time>2019-02-25T03:20:57Z</time>
      </trkpt>
      <trkpt lat="38.080684" lon="-6.261358">
        <ele>742.116</ele>
        <time>2019-02-25T03:21:05Z</time>
      </trkpt>
      <trkpt lat="38.080704" lon="-6.261410">
        <ele>742.569</ele>
        <time>2019-02-25T03:21:06Z</time>
      </trkpt>
      <trkpt lat="38.081035" lon="-6.262222">
        <ele>741.788</ele>
        <time>2019-02-25T03:21:18Z</time>
      </trkpt>
      <trkpt lat="38.081077" lon="-6.262275">
        <ele>741.497</ele>
        <time>2019-02-25T03:21:19Z</time>
      </trkpt>
      <trkpt lat="38.081121" lon="-6.262321">
        <ele>741.273</ele>
        <time>2019-02-25T03:21:20Z</time>
      </trkpt>
      <trkpt lat="38.081168" lon="-6.262358">
        <ele>740.985</ele>
        <time>2019-02-25T03:21:21Z</time>
      </trkpt>
      <trkpt lat="38.081219" lon="-6.262388">
        <ele>740.613</ele>
        <time>2019-02-25T03:21:22Z</time>
      </trkpt>
      <trkpt lat="38.081275" lon="-6.262411">
        <ele>740.408</ele>
        <time>2019-02-25T03:21:23Z</time>
      </trkpt>
      <trkpt lat="38.081335" lon="-6.262422">
        <ele>740.220</ele>
        <time>2019-02-25T03:21:24Z</time>
      </trkpt>
      <trkpt lat="38.081401" lon="-6.262420">
        <ele>739.961</ele>
        <time>2019-02-25T03:21:25Z</time>
      </trkpt>
      <trkpt lat="38.081465" lon="-6.262405">
        <ele>739.712</ele>
        <time>2019-02-25T03:21:26Z</time>
      </trkpt>
      <trkpt lat="38.081526" lon="-6.262382">
        <ele>739.311</ele>
        <time>2019-02-25T03:21:27Z</time>
      </trkpt>
      <trkpt lat="38.081581" lon="-6.262354">
        <ele>739.195</ele>
        <time>2019-02-25T03:21:28Z</time>
      </trkpt>
      <trkpt lat="38.081628" lon="-6.262325">
        <ele>739.098</ele>
        <time>2019-02-25T03:21:29Z</time>
      </trkpt>
      <trkpt lat="38.081666" lon="-6.262295">
        <ele>738.927</ele>
        <time>2019-02-25T03:21:30Z</time>
      </trkpt>
      <trkpt lat="38.081787" lon="-6.262196">
        <ele>738.576</ele>
        <time>2019-02-25T03:21:34Z</time>
      </trkpt>
      <trkpt lat="38.081916" lon="-6.262123">
        <ele>738.136</ele>
        <time>2019-02-25T03:21:43Z</time>
      </trkpt>
      <trkpt lat="38.081808" lon="-6.262185">
        <ele>738.417</ele>
        <time>2019-02-25T03:22:24Z</time>
      </trkpt>
      <trkpt lat="38.081415" lon="-6.262402">
        <ele>739.918</ele>
        <time>2019-02-25T03:22:41Z</time>
      </trkpt>
      <trkpt lat="38.081042" lon="-6.262261">
        <ele>741.608</ele>
        <time>2019-02-25T03:22:58Z</time>
      </trkpt>
      <trkpt lat="38.080880" lon="-6.261910">
        <ele>742.796</ele>
        <time>2019-02-25T03:23:15Z</time>
      </trkpt>
      <trkpt lat="38.080744" lon="-6.261534">
        <ele>743.257</ele>
        <time>2019-02-25T03:23:30Z</time>
      </trkpt>
      <trkpt lat="38.080566" lon="-6.261281">
        <ele>741.538</ele>
        <time>2019-02-25T03:23:42Z</time>
      </trkpt>
      <trkpt lat="38.080533" lon="-6.261281">
        <ele>741.357</ele>
        <time>2019-02-25T03:23:44Z</time>
      </trkpt>
      <trkpt lat="38.080505" lon="-6.261380">
        <ele>741.861</ele>
        <time>2019-02-25T03:23:50Z</time>
      </trkpt>
      <trkpt lat="38.080743" lon="-6.261914">
        <ele>743.714</ele>
        <time>2019-02-25T03:24:03Z</time>
      </trkpt>
      <trkpt lat="38.081015" lon="-6.262368">
        <ele>742.973</ele>
        <time>2019-02-25T03:24:11Z</time>
      </trkpt>
      <trkpt lat="38.081063" lon="-6.262425">
        <ele>742.562</ele>
        <time>2019-02-25T03:24:12Z</time>
      </trkpt>
      <trkpt lat="38.081116" lon="-6.262474">
        <ele>742.221</ele>
        <time>2019-02-25T03:24:13Z</time>
      </trkpt>
      <trkpt lat="38.081173" lon="-6.262515">
        <ele>741.841</ele>
        <time>2019-02-25T03:24:14Z</time>
      </trkpt>
      <trkpt lat="38.081235" lon="-6.262552">
        <ele>741.405</ele>
        <time>2019-02-25T03:24:15Z</time>
      </trkpt>
      <trkpt lat="38.081355" lon="-6.262636">
        <ele>740.508</ele>
        <time>2019-02-25T03:24:17Z</time>
      </trkpt>
      <trkpt lat="38.081402" lon="-6.262695">
        <ele>740.125</ele>
        <time>2019-02-25T03:24:18Z</time>
      </trkpt>
      <trkpt lat="38.081438" lon="-6.262769">
        <ele>739.776</ele>
        <time>2019-02-25T03:24:19Z</time>
      </trkpt>
      <trkpt lat="38.081463" lon="-6.262852">
        <ele>739.667</ele>
        <time>2019-02-25T03:24:20Z</time>
      </trkpt>
      <trkpt lat="38.081484" lon="-6.262941">
        <ele>739.666</ele>
        <time>2019-02-25T03:24:21Z</time>
      </trkpt>
      <trkpt lat="38.081683" lon="-6.263459">
        <ele>739.470</ele>
        <time>2019-02-25T03:24:27Z</time>
      </trkpt>
      <trkpt lat="38.082308" lon="-6.264823">
        <ele>737.583</ele>
        <time>2019-02-25T03:24:43Z</time>
      </trkpt>
      <trkpt lat="38.082806" lon="-6.266355">
        <ele>732.322</ele>
        <time>2019-02-25T03:25:00Z</time>
      </trkpt>
      <trkpt lat="38.083324" lon="-6.267490">
        <ele>734.161</ele>
        <time>2019-02-25T03:25:17Z</time>
      </trkpt>
      <trkpt lat="38.083731" lon="-6.268037">
        <ele>734.445</ele>
        <time>2019-02-25T03:25:30Z</time>
      </trkpt>
      <trkpt lat="38.084072" lon="-6.268332">
        <ele>735.447</ele>
        <time>2019-02-25T03:25:42Z</time>
      </trkpt>
      <trkpt lat="38.084068" lon="-6.268331">
        <ele>735.411</ele>
        <time>2019-02-25T03:25:46Z</time>
      </trkpt>
      <trkpt lat="38.083945" lon="-6.268397">
        <ele>735.308</ele>
        <time>2019-02-25T03:49:43Z</time>
      </trkpt>
      <trkpt lat="38.084243" lon="-6.268612">
        <ele>736.217</ele>
        <time>2019-02-25T03:49:55Z</time>
      </trkpt>
      <trkpt lat="38.084804" lon="-6.268906">
        <ele>738.088</ele>
        <time>2019-02-25T03:50:13Z</time>
      </trkpt>
      <trkpt lat="38.085182" lon="-6.269066">
        <ele>739.969</ele>
        <time>2019-02-25T03:50:29Z</time>
      </trkpt>
      <trkpt lat="38.085376" lon="-6.269233">
        <ele>742.258</ele>
        <time>2019-02-25T03:50:40Z</time>
      </trkpt>
      <trkpt lat="38.085546" lon="-6.269571">
        <ele>744.592</ele>
        <time>2019-02-25T03:50:56Z</time>
      </trkpt>
      <trkpt lat="38.085718" lon="-6.269946">
        <ele>746.535</ele>
        <time>2019-02-25T03:51:15Z</time>
      </trkpt>
      <trkpt lat="38.085895" lon="-6.270295">
        <ele>748.424</ele>
        <time>2019-02-25T03:51:33Z</time>
      </trkpt>
      <trkpt lat="38.086001" lon="-6.270607">
        <ele>749.853</ele>
        <time>2019-02-25T03:51:47Z</time>
      </trkpt>
      <trkpt lat="38.086166" lon="-6.270996">
        <ele>751.881</ele>
        <time>2019-02-25T03:52:06Z</time>
      </trkpt>
      <trkpt lat="38.086310" lon="-6.271319">
        <ele>753.161</ele>
        <time>2019-02-25T03:52:23Z</time>
      </trkpt>
      <trkpt lat="38.086497" lon="-6.271489">
        <ele>754.217</ele>
        <time>2019-02-25T03:52:36Z</time>
      </trkpt>
      <trkpt lat="38.086750" lon="-6.271691">
        <ele>755.808</ele>
        <time>2019-02-25T03:52:50Z</time>
      </trkpt>
      <trkpt lat="38.087025" lon="-6.271946">
        <ele>755.661</ele>
        <time>2019-02-25T03:53:04Z</time>
      </trkpt>
      <trkpt lat="38.087582" lon="-6.272340">
        <ele>753.322</ele>
        <time>2019-02-25T03:53:16Z</time>
      </trkpt>
      <trkpt lat="38.087912" lon="-6.272526">
        <ele>752.083</ele>
        <time>2019-02-25T03:53:21Z</time>
      </trkpt>
      <trkpt lat="38.088731" lon="-6.272722">
        <ele>748.782</ele>
        <time>2019-02-25T03:53:31Z</time>
      </trkpt>
      <trkpt lat="38.088813" lon="-6.272764">
        <ele>748.796</ele>
        <time>2019-02-25T03:53:32Z</time>
      </trkpt>
      <trkpt lat="38.089601" lon="-6.273130">
        <ele>744.629</ele>
        <time>2019-02-25T03:53:42Z</time>
      </trkpt>
      <trkpt lat="38.090603" lon="-6.273313">
        <ele>739.798</ele>
        <time>2019-02-25T03:53:54Z</time>
      </trkpt>
      <trkpt lat="38.090865" lon="-6.273343">
        <ele>739.637</ele>
        <time>2019-02-25T03:53:57Z</time>
      </trkpt>
      <trkpt lat="38.090949" lon="-6.273382">
        <ele>739.612</ele>
        <time>2019-02-25T03:53:58Z</time>
      </trkpt>
      <trkpt lat="38.091030" lon="-6.273429">
        <ele>739.532</ele>
        <time>2019-02-25T03:53:59Z</time>
      </trkpt>
      <trkpt lat="38.091107" lon="-6.273482">
        <ele>739.005</ele>
        <time>2019-02-25T03:54:00Z</time>
      </trkpt>
      <trkpt lat="38.091179" lon="-6.273541">
        <ele>738.708</ele>
        <time>2019-02-25T03:54:01Z</time>
      </trkpt>
      <trkpt lat="38.092039" lon="-6.274340">
        <ele>737.254</ele>
        <time>2019-02-25T03:54:14Z</time>
      </trkpt>
      <trkpt lat="38.093128" lon="-6.275342">
        <ele>735.735</ele>
        <time>2019-02-25T03:54:30Z</time>
      </trkpt>
      <trkpt lat="38.094411" lon="-6.276501">
        <ele>725.836</ele>
        <time>2019-02-25T03:54:49Z</time>
      </trkpt>
      <trkpt lat="38.095514" lon="-6.277274">
        <ele>719.075</ele>
        <time>2019-02-25T03:55:03Z</time>
      </trkpt>
      <trkpt lat="38.096179" lon="-6.277579">
        <ele>719.159</ele>
        <time>2019-02-25T03:55:12Z</time>
      </trkpt>
      <trkpt lat="38.096202" lon="-6.277619">
        <ele>719.152</ele>
        <time>2019-02-25T03:55:13Z</time>
      </trkpt>
      <trkpt lat="38.096218" lon="-6.277664">
        <ele>719.031</ele>
        <time>2019-02-25T03:55:14Z</time>
      </trkpt>
      <trkpt lat="38.096225" lon="-6.277716">
        <ele>718.720</ele>
        <time>2019-02-25T03:55:15Z</time>
      </trkpt>
      <trkpt lat="38.096222" lon="-6.277771">
        <ele>718.557</ele>
        <time>2019-02-25T03:55:16Z</time>
      </trkpt>
      <trkpt lat="38.096209" lon="-6.277832">
        <ele>718.300</ele>
        <time>2019-02-25T03:55:17Z</time>
      </trkpt>
      <trkpt lat="38.096191" lon="-6.277899">
        <ele>718.120</ele>
        <time>2019-02-25T03:55:18Z</time>
      </trkpt>
      <trkpt lat="38.095918" lon="-6.278812">
        <ele>714.608</ele>
        <time>2019-02-25T03:55:27Z</time>
      </trkpt>
      <trkpt lat="38.095777" lon="-6.279286">
        <ele>712.618</ele>
        <time>2019-02-25T03:55:31Z</time>
      </trkpt>
      <trkpt lat="38.095729" lon="-6.279396">
        <ele>712.399</ele>
        <time>2019-02-25T03:55:32Z</time>
      </trkpt>
      <trkpt lat="38.095676" lon="-6.279496">
        <ele>712.020</ele>
        <time>2019-02-25T03:55:33Z</time>
      </trkpt>
      <trkpt lat="38.095554" lon="-6.279749">
        <ele>711.369</ele>
        <time>2019-02-25T03:55:36Z</time>
      </trkpt>
      <trkpt lat="38.095544" lon="-6.279840">
        <ele>711.123</ele>
        <time>2019-02-25T03:55:37Z</time>
      </trkpt>
      <trkpt lat="38.095556" lon="-6.279934">
        <ele>711.036</ele>
        <time>2019-02-25T03:55:38Z</time>
      </trkpt>
      <trkpt lat="38.095587" lon="-6.280023">
        <ele>710.895</ele>
        <time>2019-02-25T03:55:39Z</time>
      </trkpt>
      <trkpt lat="38.095631" lon="-6.280110">
        <ele>710.664</ele>
        <time>2019-02-25T03:55:40Z</time>
      </trkpt>
      <trkpt lat="38.095677" lon="-6.280195">
        <ele>710.586</ele>
        <time>2019-02-25T03:55:41Z</time>
      </trkpt>
      <trkpt lat="38.095892" lon="-6.280650">
        <ele>709.560</ele>
        <time>2019-02-25T03:55:46Z</time>
      </trkpt>
      <trkpt lat="38.095909" lon="-6.280750">
        <ele>709.226</ele>
        <time>2019-02-25T03:55:47Z</time>
      </trkpt>
      <trkpt lat="38.095908" lon="-6.280855">
        <ele>709.008</ele>
        <time>2019-02-25T03:55:48Z</time>
      </trkpt>
      <trkpt lat="38.095907" lon="-6.280959">
        <ele>708.941</ele>
        <time>2019-02-25T03:55:49Z</time>
      </trkpt>
      <trkpt lat="38.095916" lon="-6.281060">
        <ele>708.742</ele>
        <time>2019-02-25T03:55:50Z</time>
      </trkpt>
      <trkpt lat="38.095944" lon="-6.281154">
        <ele>708.483</ele>
        <time>2019-02-25T03:55:51Z</time>
      </trkpt>
      <trkpt lat="38.095989" lon="-6.281241">
        <ele>708.122</ele>
        <time>2019-02-25T03:55:52Z</time>
      </trkpt>
      <trkpt lat="38.096030" lon="-6.281320">
        <ele>707.866</ele>
        <time>2019-02-25T03:55:53Z</time>
      </trkpt>
      <trkpt lat="38.096060" lon="-6.281399">
        <ele>708.059</ele>
        <time>2019-02-25T03:55:54Z</time>
      </trkpt>
      <trkpt lat="38.096082" lon="-6.281481">
        <ele>708.148</ele>
        <time>2019-02-25T03:55:55Z</time>
      </trkpt>
      <trkpt lat="38.096098" lon="-6.281562">
        <ele>708.237</ele>
        <time>2019-02-25T03:55:56Z</time>
      </trkpt>
      <trkpt lat="38.096113" lon="-6.281644">
        <ele>708.146</ele>
        <time>2019-02-25T03:55:57Z</time>
      </trkpt>
      <trkpt lat="38.096232" lon="-6.282334">
        <ele>706.288</ele>
        <time>2019-02-25T03:56:05Z</time>
      </trkpt>
      <trkpt lat="38.096257" lon="-6.282419">
        <ele>706.016</ele>
        <time>2019-02-25T03:56:06Z</time>
      </trkpt>
      <trkpt lat="38.096292" lon="-6.282497">
        <ele>705.808</ele>
        <time>2019-02-25T03:56:07Z</time>
      </trkpt>
      <trkpt lat="38.096334" lon="-6.282568">
        <ele>705.767</ele>
        <time>2019-02-25T03:56:08Z</time>
      </trkpt>
      <trkpt lat="38.096381" lon="-6.282633">
        <ele>705.778</ele>
        <time>2019-02-25T03:56:09Z</time>
      </trkpt>
      <trkpt lat="38.096427" lon="-6.282692">
        <ele>705.779</ele>
        <time>2019-02-25T03:56:10Z</time>
      </trkpt>
      <trkpt lat="38.096826" lon="-6.283140">
        <ele>705.498</ele>
        <time>2019-02-25T03:56:19Z</time>
      </trkpt>
      <trkpt lat="38.096874" lon="-6.283180">
        <ele>705.312</ele>
        <time>2019-02-25T03:56:20Z</time>
      </trkpt>
      <trkpt lat="38.096924" lon="-6.283224">
        <ele>705.295</ele>
        <time>2019-02-25T03:56:21Z</time>
      </trkpt>
      <trkpt lat="38.096965" lon="-6.283278">
        <ele>705.284</ele>
        <time>2019-02-25T03:56:22Z</time>
      </trkpt>
      <trkpt lat="38.096995" lon="-6.283339">
        <ele>705.213</ele>
        <time>2019-02-25T03:56:23Z</time>
      </trkpt>
      <trkpt lat="38.097018" lon="-6.283401">
        <ele>705.314</ele>
        <time>2019-02-25T03:56:24Z</time>
      </trkpt>
      <trkpt lat="38.097041" lon="-6.283465">
        <ele>705.354</ele>
        <time>2019-02-25T03:56:25Z</time>
      </trkpt>
      <trkpt lat="38.097414" lon="-6.284240">
        <ele>704.809</ele>
        <time>2019-02-25T03:56:38Z</time>
      </trkpt>
      <trkpt lat="38.097439" lon="-6.284302">
        <ele>704.908</ele>
        <time>2019-02-25T03:56:39Z</time>
      </trkpt>
      <trkpt lat="38.097782" lon="-6.285230">
        <ele>705.244</ele>
        <time>2019-02-25T03:56:55Z</time>
      </trkpt>
      <trkpt lat="38.098052" lon="-6.286008">
        <ele>705.145</ele>
        <time>2019-02-25T03:57:08Z</time>
      </trkpt>
      <trkpt lat="38.098150" lon="-6.286375">
        <ele>705.246</ele>
        <time>2019-02-25T03:57:14Z</time>
      </trkpt>
      <trkpt lat="38.098156" lon="-6.286443">
        <ele>705.245</ele>
        <time>2019-02-25T03:57:15Z</time>
      </trkpt>
      <trkpt lat="38.098202" lon="-6.287034">
        <ele>704.529</ele>
        <time>2019-02-25T03:57:24Z</time>
      </trkpt>
      <trkpt lat="38.098224" lon="-6.287101">
        <ele>704.172</ele>
        <time>2019-02-25T03:57:25Z</time>
      </trkpt>
      <trkpt lat="38.098409" lon="-6.287452">
        <ele>701.371</ele>
        <time>2019-02-25T03:57:30Z</time>
      </trkpt>
      <trkpt lat="38.098470" lon="-6.287515">
        <ele>700.690</ele>
        <time>2019-02-25T03:57:31Z</time>
      </trkpt>
      <trkpt lat="38.098538" lon="-6.287572">
        <ele>700.034</ele>
        <time>2019-02-25T03:57:32Z</time>
      </trkpt>
      <trkpt lat="38.098902" lon="-6.287781">
        <ele>697.855</ele>
        <time>2019-02-25T03:57:38Z</time>
      </trkpt>
      <trkpt lat="38.098956" lon="-6.287809">
        <ele>697.410</ele>
        <time>2019-02-25T03:57:39Z</time>
      </trkpt>
      <trkpt lat="38.099011" lon="-6.287844">
        <ele>697.008</ele>
        <time>2019-02-25T03:57:40Z</time>
      </trkpt>
      <trkpt lat="38.099190" lon="-6.287967">
        <ele>695.426</ele>
        <time>2019-02-25T03:57:43Z</time>
      </trkpt>
      <trkpt lat="38.099263" lon="-6.287999">
        <ele>694.917</ele>
        <time>2019-02-25T03:57:44Z</time>
      </trkpt>
      <trkpt lat="38.099515" lon="-6.288105">
        <ele>692.618</ele>
        <time>2019-02-25T03:57:48Z</time>
      </trkpt>
      <trkpt lat="38.099569" lon="-6.288147">
        <ele>692.057</ele>
        <time>2019-02-25T03:57:49Z</time>
      </trkpt>
      <trkpt lat="38.099617" lon="-6.288205">
        <ele>691.491</ele>
        <time>2019-02-25T03:57:50Z</time>
      </trkpt>
      <trkpt lat="38.099659" lon="-6.288280">
        <ele>690.714</ele>
        <time>2019-02-25T03:57:51Z</time>
      </trkpt>
      <trkpt lat="38.099697" lon="-6.288366">
        <ele>690.233</ele>
        <time>2019-02-25T03:57:52Z</time>
      </trkpt>
      <trkpt lat="38.099731" lon="-6.288461">
        <ele>689.762</ele>
        <time>2019-02-25T03:57:53Z</time>
      </trkpt>
      <trkpt lat="38.099764" lon="-6.288560">
        <ele>689.388</ele>
        <time>2019-02-25T03:57:54Z</time>
      </trkpt>
      <trkpt lat="38.099895" lon="-6.288843">
        <ele>688.624</ele>
        <time>2019-02-25T03:57:57Z</time>
      </trkpt>
      <trkpt lat="38.099951" lon="-6.288922">
        <ele>688.426</ele>
        <time>2019-02-25T03:57:58Z</time>
      </trkpt>
      <trkpt lat="38.100011" lon="-6.288993">
        <ele>688.208</ele>
        <time>2019-02-25T03:57:59Z</time>
      </trkpt>
      <trkpt lat="38.100073" lon="-6.289055">
        <ele>688.221</ele>
        <time>2019-02-25T03:58:00Z</time>
      </trkpt>
      <trkpt lat="38.100125" lon="-6.289102">
        <ele>688.352</ele>
        <time>2019-02-25T03:58:01Z</time>
      </trkpt>
      <trkpt lat="38.100160" lon="-6.289127">
        <ele>688.373</ele>
        <time>2019-02-25T03:58:02Z</time>
      </trkpt>
      <trkpt lat="38.100172" lon="-6.289135">
        <ele>688.392</ele>
        <time>2019-02-25T03:58:06Z</time>
      </trkpt>
      <trkpt lat="38.100072" lon="-6.289050">
        <ele>688.426</ele>
        <time>2019-02-25T03:59:25Z</time>
      </trkpt>
      <trkpt lat="38.100065" lon="-6.289037">
        <ele>688.469</ele>
        <time>2019-02-25T03:59:26Z</time>
      </trkpt>
      <trkpt lat="38.100058" lon="-6.289025">
        <ele>688.458</ele>
        <time>2019-02-25T03:59:27Z</time>
      </trkpt>
      <trkpt lat="38.100057" lon="-6.289016">
        <ele>688.457</ele>
        <time>2019-02-25T03:59:32Z</time>
      </trkpt>
      <trkpt lat="38.100102" lon="-6.289089">
        <ele>688.314</ele>
        <time>2019-02-25T04:06:58Z</time>
      </trkpt>
      <trkpt lat="38.100397" lon="-6.289339">
        <ele>687.454</ele>
        <time>2019-02-25T04:07:14Z</time>
      </trkpt>
      <trkpt lat="38.100672" lon="-6.289712">
        <ele>686.909</ele>
        <time>2019-02-25T04:07:25Z</time>
      </trkpt>
      <trkpt lat="38.100755" lon="-6.289830">
        <ele>686.708</ele>
        <time>2019-02-25T04:07:28Z</time>
      </trkpt>
      <trkpt lat="38.101295" lon="-6.290404">
        <ele>685.734</ele>
        <time>2019-02-25T04:07:44Z</time>
      </trkpt>
      <trkpt lat="38.101334" lon="-6.290429">
        <ele>685.645</ele>
        <time>2019-02-25T04:07:45Z</time>
      </trkpt>
      <trkpt lat="38.101376" lon="-6.290447">
        <ele>685.446</ele>
        <time>2019-02-25T04:07:46Z</time>
      </trkpt>
      <trkpt lat="38.101421" lon="-6.290458">
        <ele>685.245</ele>
        <time>2019-02-25T04:07:47Z</time>
      </trkpt>
      <trkpt lat="38.101468" lon="-6.290459">
        <ele>685.179</ele>
        <time>2019-02-25T04:07:48Z</time>
      </trkpt>
      <trkpt lat="38.101518" lon="-6.290451">
        <ele>684.892</ele>
        <time>2019-02-25T04:07:49Z</time>
      </trkpt>
      <trkpt lat="38.101570" lon="-6.290438">
        <ele>684.761</ele>
        <time>2019-02-25T04:07:50Z</time>
      </trkpt>
      <trkpt lat="38.101622" lon="-6.290421">
        <ele>684.640</ele>
        <time>2019-02-25T04:07:51Z</time>
      </trkpt>
      <trkpt lat="38.101675" lon="-6.290398">
        <ele>684.593</ele>
        <time>2019-02-25T04:07:52Z</time>
      </trkpt>
      <trkpt lat="38.101726" lon="-6.290367">
        <ele>684.465</ele>
        <time>2019-02-25T04:07:53Z</time>
      </trkpt>
      <trkpt lat="38.101776" lon="-6.290330">
        <ele>684.421</ele>
        <time>2019-02-25T04:07:54Z</time>
      </trkpt>
      <trkpt lat="38.101972" lon="-6.290192">
        <ele>684.708</ele>
        <time>2019-02-25T04:07:58Z</time>
      </trkpt>
      <trkpt lat="38.102024" lon="-6.290171">
        <ele>684.772</ele>
        <time>2019-02-25T04:07:59Z</time>
      </trkpt>
      <trkpt lat="38.102079" lon="-6.290159">
        <ele>684.713</ele>
        <time>2019-02-25T04:08:00Z</time>
      </trkpt>
      <trkpt lat="38.102235" lon="-6.290158">
        <ele>684.714</ele>
        <time>2019-02-25T04:08:03Z</time>
      </trkpt>
      <trkpt lat="38.102402" lon="-6.290201">
        <ele>684.543</ele>
        <time>2019-02-25T04:08:07Z</time>
      </trkpt>
      <trkpt lat="38.103015" lon="-6.290362">
        <ele>682.277</ele>
        <time>2019-02-25T04:08:20Z</time>
      </trkpt>
      <trkpt lat="38.103248" lon="-6.290347">
        <ele>681.950</ele>
        <time>2019-02-25T04:08:25Z</time>
      </trkpt>
      <trkpt lat="38.103298" lon="-6.290357">
        <ele>681.979</ele>
        <time>2019-02-25T04:08:26Z</time>
      </trkpt>
      <trkpt lat="38.103405" lon="-6.290377">
        <ele>681.968</ele>
        <time>2019-02-25T04:08:28Z</time>
      </trkpt>
      <trkpt lat="38.103818" lon="-6.290425">
        <ele>682.061</ele>
        <time>2019-02-25T04:08:38Z</time>
      </trkpt>
      <trkpt lat="38.103768" lon="-6.290435">
        <ele>682.021</ele>
        <time>2019-02-25T04:08:45Z</time>
      </trkpt>
      <trkpt lat="38.103438" lon="-6.290385">
        <ele>682.013</ele>
        <time>2019-02-25T04:08:57Z</time>
      </trkpt>
      <trkpt lat="38.103124" lon="-6.290358">
        <ele>681.908</ele>
        <time>2019-02-25T04:09:10Z</time>
      </trkpt>
      <trkpt lat="38.103119" lon="-6.290385">
        <ele>681.969</ele>
        <time>2019-02-25T04:09:11Z</time>
      </trkpt>
      <trkpt lat="38.103123" lon="-6.290415">
        <ele>681.820</ele>
        <time>2019-02-25T04:09:12Z</time>
      </trkpt>
      <trkpt lat="38.103132" lon="-6.290449">
        <ele>681.641</ele>
        <time>2019-02-25T04:09:13Z</time>
      </trkpt>
      <trkpt lat="38.103143" lon="-6.290481">
        <ele>681.550</ele>
        <time>2019-02-25T04:09:14Z</time>
      </trkpt>
      <trkpt lat="38.103206" lon="-6.290570">
        <ele>681.294</ele>
        <time>2019-02-25T04:09:17Z</time>
      </trkpt>
      <trkpt lat="38.103245" lon="-6.290584">
        <ele>681.267</ele>
        <time>2019-02-25T04:09:18Z</time>
      </trkpt>
      <trkpt lat="38.103289" lon="-6.290587">
        <ele>681.146</ele>
        <time>2019-02-25T04:09:19Z</time>
      </trkpt>
      <trkpt lat="38.103734" lon="-6.290611">
        <ele>680.055</ele>
        <time>2019-02-25T04:09:31Z</time>
      </trkpt>
      <trkpt lat="38.103735" lon="-6.290610">
        <ele>680.028</ele>
        <time>2019-02-25T04:09:33Z</time>
      </trkpt>
      <trkpt lat="38.103806" lon="-6.290601">
        <ele>679.889</ele>
        <time>2019-02-25T04:09:58Z</time>
      </trkpt>
      <trkpt lat="38.104067" lon="-6.290833">
        <ele>679.917</ele>
        <time>2019-02-25T04:10:10Z</time>
      </trkpt>
      <trkpt lat="38.104462" lon="-6.291199">
        <ele>682.408</ele>
        <time>2019-02-25T04:10:30Z</time>
      </trkpt>
      <trkpt lat="38.104671" lon="-6.291510">
        <ele>684.535</ele>
        <time>2019-02-25T04:10:44Z</time>
      </trkpt>
      <trkpt lat="38.104845" lon="-6.291752">
        <ele>685.976</ele>
        <time>2019-02-25T04:10:56Z</time>
      </trkpt>
      <trkpt lat="38.105045" lon="-6.292043">
        <ele>687.477</ele>
        <time>2019-02-25T04:11:09Z</time>
      </trkpt>
      <trkpt lat="38.105209" lon="-6.292350">
        <ele>688.996</ele>
        <time>2019-02-25T04:11:23Z</time>
      </trkpt>
      <trkpt lat="38.105318" lon="-6.292808">
        <ele>691.850</ele>
        <time>2019-02-25T04:11:40Z</time>
      </trkpt>
      <trkpt lat="38.105448" lon="-6.293180">
        <ele>694.343</ele>
        <time>2019-02-25T04:11:57Z</time>
      </trkpt>
      <trkpt lat="38.105642" lon="-6.293511">
        <ele>696.632</ele>
        <time>2019-02-25T04:12:15Z</time>
      </trkpt>
      <trkpt lat="38.105849" lon="-6.293722">
        <ele>698.441</ele>
        <time>2019-02-25T04:12:31Z</time>
      </trkpt>
      <trkpt lat="38.105861" lon="-6.293736">
        <ele>698.588</ele>
        <time>2019-02-25T04:12:32Z</time>
      </trkpt>
      <trkpt lat="38.106148" lon="-6.294039">
        <ele>701.124</ele>
        <time>2019-02-25T04:12:55Z</time>
      </trkpt>
      <trkpt lat="38.106165" lon="-6.294216">
        <ele>702.126</ele>
        <time>2019-02-25T04:13:04Z</time>
      </trkpt>
      <trkpt lat="38.106124" lon="-6.294565">
        <ele>703.908</ele>
        <time>2019-02-25T04:13:20Z</time>
      </trkpt>
      <trkpt lat="38.106095" lon="-6.294875">
        <ele>705.621</ele>
        <time>2019-02-25T04:13:34Z</time>
      </trkpt>
      <trkpt lat="38.106060" lon="-6.295255">
        <ele>707.112</ele>
        <time>2019-02-25T04:13:50Z</time>
      </trkpt>
      <trkpt lat="38.106022" lon="-6.295776">
        <ele>708.323</ele>
        <time>2019-02-25T04:14:09Z</time>
      </trkpt>
      <trkpt lat="38.106023" lon="-6.295947">
        <ele>708.442</ele>
        <time>2019-02-25T04:14:19Z</time>
      </trkpt>
      <trkpt lat="38.106071" lon="-6.295987">
        <ele>708.536</ele>
        <time>2019-02-25T04:15:13Z</time>
      </trkpt>
      <trkpt lat="38.106088" lon="-6.295983">
        <ele>708.549</ele>
        <time>2019-02-25T04:15:14Z</time>
      </trkpt>
      <trkpt lat="38.106104" lon="-6.295984">
        <ele>708.588</ele>
        <time>2019-02-25T04:15:15Z</time>
      </trkpt>
      <trkpt lat="38.106118" lon="-6.295992">
        <ele>708.587</ele>
        <time>2019-02-25T04:15:16Z</time>
      </trkpt>
      <trkpt lat="38.106134" lon="-6.296006">
        <ele>708.586</ele>
        <time>2019-02-25T04:15:17Z</time>
      </trkpt>
      <trkpt lat="38.106147" lon="-6.296025">
        <ele>708.560</ele>
        <time>2019-02-25T04:15:18Z</time>
      </trkpt>
      <trkpt lat="38.106162" lon="-6.296046">
        <ele>708.526</ele>
        <time>2019-02-25T04:15:19Z</time>
      </trkpt>
      <trkpt lat="38.106179" lon="-6.296065">
        <ele>708.508</ele>
        <time>2019-02-25T04:15:20Z</time>
      </trkpt>
      <trkpt lat="38.106198" lon="-6.296081">
        <ele>708.511</ele>
        <time>2019-02-25T04:15:21Z</time>
      </trkpt>
      <trkpt lat="38.106216" lon="-6.296099">
        <ele>708.512</ele>
        <time>2019-02-25T04:15:22Z</time>
      </trkpt>
      <trkpt lat="38.106236" lon="-6.296116">
        <ele>708.523</ele>
        <time>2019-02-25T04:15:23Z</time>
      </trkpt>
      <trkpt lat="38.106257" lon="-6.296131">
        <ele>708.512</ele>
        <time>2019-02-25T04:15:24Z</time>
      </trkpt>
      <trkpt lat="38.106282" lon="-6.296146">
        <ele>708.586</ele>
        <time>2019-02-25T04:15:25Z</time>
      </trkpt>
      <trkpt lat="38.106309" lon="-6.296167">
        <ele>708.579</ele>
        <time>2019-02-25T04:15:26Z</time>
      </trkpt>
      <trkpt lat="38.106335" lon="-6.296192">
        <ele>708.448</ele>
        <time>2019-02-25T04:15:27Z</time>
      </trkpt>
      <trkpt lat="38.106707" lon="-6.296306">
        <ele>708.217</ele>
        <time>2019-02-25T04:15:41Z</time>
      </trkpt>
      <trkpt lat="38.107025" lon="-6.296282">
        <ele>709.995</ele>
        <time>2019-02-25T04:15:55Z</time>
      </trkpt>
      <trkpt lat="38.107388" lon="-6.296216">
        <ele>712.749</ele>
        <time>2019-02-25T04:16:13Z</time>
      </trkpt>
      <trkpt lat="38.107774" lon="-6.296162">
        <ele>715.723</ele>
        <time>2019-02-25T04:16:33Z</time>
      </trkpt>
      <trkpt lat="38.108185" lon="-6.296250">
        <ele>717.008</ele>
        <time>2019-02-25T04:16:47Z</time>
      </trkpt>
      <trkpt lat="38.108465" lon="-6.296347">
        <ele>716.982</ele>
        <time>2019-02-25T04:16:53Z</time>
      </trkpt>
      <trkpt lat="38.109215" lon="-6.296380">
        <ele>714.593</ele>
        <time>2019-02-25T04:17:06Z</time>
      </trkpt>
      <trkpt lat="38.109581" lon="-6.296357">
        <ele>713.334</ele>
        <time>2019-02-25T04:17:16Z</time>
      </trkpt>
      <trkpt lat="38.110074" lon="-6.296248">
        <ele>712.793</ele>
        <time>2019-02-25T04:17:28Z</time>
      </trkpt>
      <trkpt lat="38.110657" lon="-6.296163">
        <ele>712.237</ele>
        <time>2019-02-25T04:17:40Z</time>
      </trkpt>
      <trkpt lat="38.111361" lon="-6.296177">
        <ele>711.630</ele>
        <time>2019-02-25T04:17:53Z</time>
      </trkpt>
      <trkpt lat="38.112025" lon="-6.296465">
        <ele>711.179</ele>
        <time>2019-02-25T04:18:07Z</time>
      </trkpt>
      <trkpt lat="38.112785" lon="-6.296733">
        <ele>710.828</ele>
        <time>2019-02-25T04:18:22Z</time>
      </trkpt>
      <trkpt lat="38.112905" lon="-6.296761">
        <ele>710.764</ele>
        <time>2019-02-25T04:18:24Z</time>
      </trkpt>
      <trkpt lat="38.113319" lon="-6.296853">
        <ele>709.906</ele>
        <time>2019-02-25T04:18:31Z</time>
      </trkpt>
      <trkpt lat="38.113402" lon="-6.296907">
        <ele>709.716</ele>
        <time>2019-02-25T04:18:37Z</time>
      </trkpt>
      <trkpt lat="38.113442" lon="-6.296942">
        <ele>709.708</ele>
        <time>2019-02-25T04:19:10Z</time>
      </trkpt>
      <trkpt lat="38.113901" lon="-6.297245">
        <ele>709.679</ele>
        <time>2019-02-25T04:19:27Z</time>
      </trkpt>
      <trkpt lat="38.114448" lon="-6.297375">
        <ele>710.120</ele>
        <time>2019-02-25T04:19:39Z</time>
      </trkpt>
      <trkpt lat="38.114547" lon="-6.297390">
        <ele>710.161</ele>
        <time>2019-02-25T04:19:41Z</time>
      </trkpt>
      <trkpt lat="38.115331" lon="-6.297518">
        <ele>709.060</ele>
        <time>2019-02-25T04:19:55Z</time>
      </trkpt>
      <trkpt lat="38.116087" lon="-6.297418">
        <ele>707.714</ele>
        <time>2019-02-25T04:20:07Z</time>
      </trkpt>
      <trkpt lat="38.116209" lon="-6.297387">
        <ele>707.487</ele>
        <time>2019-02-25T04:20:09Z</time>
      </trkpt>
      <trkpt lat="38.116267" lon="-6.297384">
        <ele>707.366</ele>
        <time>2019-02-25T04:20:10Z</time>
      </trkpt>
      <trkpt lat="38.117030" lon="-6.297393">
        <ele>706.375</ele>
        <time>2019-02-25T04:20:26Z</time>
      </trkpt>
      <trkpt lat="38.117548" lon="-6.297634">
        <ele>708.476</ele>
        <time>2019-02-25T04:20:44Z</time>
      </trkpt>
      <trkpt lat="38.118123" lon="-6.298029">
        <ele>709.190</ele>
        <time>2019-02-25T04:20:55Z</time>
      </trkpt>
      <trkpt lat="38.118199" lon="-6.298052">
        <ele>709.019</ele>
        <time>2019-02-25T04:20:56Z</time>
      </trkpt>
      <trkpt lat="38.118279" lon="-6.298079">
        <ele>708.808</ele>
        <time>2019-02-25T04:20:57Z</time>
      </trkpt>
      <trkpt lat="38.118594" lon="-6.298226">
        <ele>707.870</ele>
        <time>2019-02-25T04:21:01Z</time>
      </trkpt>
      <trkpt lat="38.118801" lon="-6.298361">
        <ele>706.571</ele>
        <time>2019-02-25T04:21:04Z</time>
      </trkpt>
      <trkpt lat="38.118872" lon="-6.298387">
        <ele>706.152</ele>
        <time>2019-02-25T04:21:05Z</time>
      </trkpt>
      <trkpt lat="38.118947" lon="-6.298405">
        <ele>705.791</ele>
        <time>2019-02-25T04:21:06Z</time>
      </trkpt>
      <trkpt lat="38.119812" lon="-6.298458">
        <ele>701.975</ele>
        <time>2019-02-25T04:21:19Z</time>
      </trkpt>
      <trkpt lat="38.120646" lon="-6.298569">
        <ele>700.388</ele>
        <time>2019-02-25T04:21:30Z</time>
      </trkpt>
      <trkpt lat="38.121436" lon="-6.298811">
        <ele>698.227</ele>
        <time>2019-02-25T04:21:39Z</time>
      </trkpt>
      <trkpt lat="38.121738" lon="-6.298904">
        <ele>697.076</ele>
        <time>2019-02-25T04:21:46Z</time>
      </trkpt>
      <trkpt lat="38.121735" lon="-6.298906">
        <ele>696.949</ele>
        <time>2019-02-25T04:21:48Z</time>
      </trkpt>
      <trkpt lat="38.121756" lon="-6.298918">
        <ele>696.902</ele>
        <time>2019-02-25T04:22:22Z</time>
      </trkpt>
      <trkpt lat="38.122013" lon="-6.299004">
        <ele>695.822</ele>
        <time>2019-02-25T04:22:33Z</time>
      </trkpt>
      <trkpt lat="38.122013" lon="-6.299003">
        <ele>695.808</ele>
        <time>2019-02-25T04:22:36Z</time>
      </trkpt>
      <trkpt lat="38.122070" lon="-6.298994">
        <ele>695.637</ele>
        <time>2019-02-25T04:22:56Z</time>
      </trkpt>
      <trkpt lat="38.122496" lon="-6.299148">
        <ele>694.658</ele>
        <time>2019-02-25T04:23:08Z</time>
      </trkpt>
      <trkpt lat="38.122714" lon="-6.299209">
        <ele>694.239</ele>
        <time>2019-02-25T04:23:13Z</time>
      </trkpt>
      <trkpt lat="38.123141" lon="-6.299408">
        <ele>693.828</ele>
        <time>2019-02-25T04:23:26Z</time>
      </trkpt>
      <trkpt lat="38.123444" lon="-6.299457">
        <ele>695.172</ele>
        <time>2019-02-25T04:23:39Z</time>
      </trkpt>
      <trkpt lat="38.123701" lon="-6.299736">
        <ele>696.945</ele>
        <time>2019-02-25T04:23:53Z</time>
      </trkpt>
      <trkpt lat="38.123975" lon="-6.300053">
        <ele>697.284</ele>
        <time>2019-02-25T04:24:06Z</time>
      </trkpt>
      <trkpt lat="38.124406" lon="-6.300361">
        <ele>698.193</ele>
        <time>2019-02-25T04:24:21Z</time>
      </trkpt>
      <trkpt lat="38.124755" lon="-6.300701">
        <ele>699.921</ele>
        <time>2019-02-25T04:24:35Z</time>
      </trkpt>
      <trkpt lat="38.125203" lon="-6.300777">
        <ele>698.941</ele>
        <time>2019-02-25T04:24:50Z</time>
      </trkpt>
      <trkpt lat="38.125600" lon="-6.300838">
        <ele>695.505</ele>
        <time>2019-02-25T04:25:02Z</time>
      </trkpt>
      <trkpt lat="38.126015" lon="-6.300727">
        <ele>692.608</ele>
        <time>2019-02-25T04:25:13Z</time>
      </trkpt>
      <trkpt lat="38.126116" lon="-6.300718">
        <ele>692.235</ele>
        <time>2019-02-25T04:25:15Z</time>
      </trkpt>
      <trkpt lat="38.126169" lon="-6.300724">
        <ele>691.916</ele>
        <time>2019-02-25T04:25:16Z</time>
      </trkpt>
      <trkpt lat="38.126222" lon="-6.300738">
        <ele>691.717</ele>
        <time>2019-02-25T04:25:17Z</time>
      </trkpt>
      <trkpt lat="38.126390" lon="-6.300804">
        <ele>691.096</ele>
        <time>2019-02-25T04:25:20Z</time>
      </trkpt>
      <trkpt lat="38.126497" lon="-6.300869">
        <ele>690.980</ele>
        <time>2019-02-25T04:25:22Z</time>
      </trkpt>
      <trkpt lat="38.126545" lon="-6.300910">
        <ele>691.053</ele>
        <time>2019-02-25T04:25:23Z</time>
      </trkpt>
      <trkpt lat="38.126589" lon="-6.300953">
        <ele>691.072</ele>
        <time>2019-02-25T04:25:24Z</time>
      </trkpt>
      <trkpt lat="38.126870" lon="-6.301206">
        <ele>690.151</ele>
        <time>2019-02-25T04:25:31Z</time>
      </trkpt>
      <trkpt lat="38.126909" lon="-6.301244">
        <ele>689.822</ele>
        <time>2019-02-25T04:25:32Z</time>
      </trkpt>
      <trkpt lat="38.126947" lon="-6.301280">
        <ele>689.562</ele>
        <time>2019-02-25T04:25:33Z</time>
      </trkpt>
      <trkpt lat="38.126982" lon="-6.301320">
        <ele>689.308</ele>
        <time>2019-02-25T04:25:34Z</time>
      </trkpt>
      <trkpt lat="38.127018" lon="-6.301363">
        <ele>689.008</ele>
        <time>2019-02-25T04:25:35Z</time>
      </trkpt>
      <trkpt lat="38.127051" lon="-6.301411">
        <ele>688.855</ele>
        <time>2019-02-25T04:25:36Z</time>
      </trkpt>
      <trkpt lat="38.127081" lon="-6.301463">
        <ele>688.646</ele>
        <time>2019-02-25T04:25:37Z</time>
      </trkpt>
      <trkpt lat="38.127109" lon="-6.301520">
        <ele>688.547</ele>
        <time>2019-02-25T04:25:38Z</time>
      </trkpt>
      <trkpt lat="38.127130" lon="-6.301578">
        <ele>688.566</ele>
        <time>2019-02-25T04:25:39Z</time>
      </trkpt>
      <trkpt lat="38.127142" lon="-6.301631">
        <ele>688.580</ele>
        <time>2019-02-25T04:25:40Z</time>
      </trkpt>
      <trkpt lat="38.127146" lon="-6.301684">
        <ele>688.583</ele>
        <time>2019-02-25T04:25:41Z</time>
      </trkpt>
      <trkpt lat="38.127153" lon="-6.301737">
        <ele>688.622</ele>
        <time>2019-02-25T04:25:42Z</time>
      </trkpt>
      <trkpt lat="38.127170" lon="-6.301788">
        <ele>688.791</ele>
        <time>2019-02-25T04:25:43Z</time>
      </trkpt>
      <trkpt lat="38.127190" lon="-6.301833">
        <ele>688.853</ele>
        <time>2019-02-25T04:25:44Z</time>
      </trkpt>
      <trkpt lat="38.127214" lon="-6.301873">
        <ele>689.004</ele>
        <time>2019-02-25T04:25:45Z</time>
      </trkpt>
      <trkpt lat="38.127549" lon="-6.302253">
        <ele>693.314</ele>
        <time>2019-02-25T04:26:00Z</time>
      </trkpt>
      <trkpt lat="38.127836" lon="-6.302479">
        <ele>694.908</ele>
        <time>2019-02-25T04:26:16Z</time>
      </trkpt>
      <trkpt lat="38.128167" lon="-6.302715">
        <ele>695.718</ele>
        <time>2019-02-25T04:26:29Z</time>
      </trkpt>
      <trkpt lat="38.128536" lon="-6.302809">
        <ele>696.629</ele>
        <time>2019-02-25T04:26:41Z</time>
      </trkpt>
      <trkpt lat="38.128988" lon="-6.302490">
        <ele>694.780</ele>
        <time>2019-02-25T04:26:55Z</time>
      </trkpt>
      <trkpt lat="38.129275" lon="-6.302350">
        <ele>694.089</ele>
        <time>2019-02-25T04:27:01Z</time>
      </trkpt>
      <trkpt lat="38.129656" lon="-6.302250">
        <ele>694.233</ele>
        <time>2019-02-25T04:27:09Z</time>
      </trkpt>
      <trkpt lat="38.129701" lon="-6.302243">
        <ele>694.116</ele>
        <time>2019-02-25T04:27:10Z</time>
      </trkpt>
      <trkpt lat="38.129743" lon="-6.302242">
        <ele>693.955</ele>
        <time>2019-02-25T04:27:11Z</time>
      </trkpt>
      <trkpt lat="38.129930" lon="-6.302273">
        <ele>693.014</ele>
        <time>2019-02-25T04:27:15Z</time>
      </trkpt>
      <trkpt lat="38.129982" lon="-6.302273">
        <ele>692.734</ele>
        <time>2019-02-25T04:27:16Z</time>
      </trkpt>
      <trkpt lat="38.130031" lon="-6.302267">
        <ele>692.455</ele>
        <time>2019-02-25T04:27:17Z</time>
      </trkpt>
      <trkpt lat="38.130076" lon="-6.302257">
        <ele>692.110</ele>
        <time>2019-02-25T04:27:18Z</time>
      </trkpt>
      <trkpt lat="38.130114" lon="-6.302244">
        <ele>691.908</ele>
        <time>2019-02-25T04:27:19Z</time>
      </trkpt>
      <trkpt lat="38.130615" lon="-6.301914">
        <ele>687.996</ele>
        <time>2019-02-25T04:27:34Z</time>
      </trkpt>
      <trkpt lat="38.131133" lon="-6.301593">
        <ele>689.117</ele>
        <time>2019-02-25T04:27:49Z</time>
      </trkpt>
      <trkpt lat="38.131399" lon="-6.301559">
        <ele>690.318</ele>
        <time>2019-02-25T04:28:02Z</time>
      </trkpt>
      <trkpt lat="38.131694" lon="-6.301453">
        <ele>689.027</ele>
        <time>2019-02-25T04:28:15Z</time>
      </trkpt>
      <trkpt lat="38.132148" lon="-6.301170">
        <ele>689.261</ele>
        <time>2019-02-25T04:28:29Z</time>
      </trkpt>
      <trkpt lat="38.132572" lon="-6.301058">
        <ele>688.484</ele>
        <time>2019-02-25T04:28:43Z</time>
      </trkpt>
      <trkpt lat="38.132982" lon="-6.300708">
        <ele>685.343</ele>
        <time>2019-02-25T04:28:53Z</time>
      </trkpt>
      <trkpt lat="38.133441" lon="-6.300650">
        <ele>684.482</ele>
        <time>2019-02-25T04:29:05Z</time>
      </trkpt>
      <trkpt lat="38.133622" lon="-6.300678">
        <ele>683.453</ele>
        <time>2019-02-25T04:29:09Z</time>
      </trkpt>
      <trkpt lat="38.133708" lon="-6.300700">
        <ele>682.904</ele>
        <time>2019-02-25T04:29:11Z</time>
      </trkpt>
      <trkpt lat="38.134287" lon="-6.301067">
        <ele>683.814</ele>
        <time>2019-02-25T04:29:25Z</time>
      </trkpt>
      <trkpt lat="38.134308" lon="-6.301082">
        <ele>683.908</ele>
        <time>2019-02-25T04:29:30Z</time>
      </trkpt>
      <trkpt lat="38.134345" lon="-6.301132">
        <ele>684.158</ele>
        <time>2019-02-25T04:30:00Z</time>
      </trkpt>
      <trkpt lat="38.134621" lon="-6.301354">
        <ele>685.689</ele>
        <time>2019-02-25T04:30:16Z</time>
      </trkpt>
      <trkpt lat="38.134886" lon="-6.301534">
        <ele>687.430</ele>
        <time>2019-02-25T04:30:31Z</time>
      </trkpt>
      <trkpt lat="38.135325" lon="-6.301783">
        <ele>688.749</ele>
        <time>2019-02-25T04:30:49Z</time>
      </trkpt>
      <trkpt lat="38.135877" lon="-6.302041">
        <ele>686.943</ele>
        <time>2019-02-25T04:31:04Z</time>
      </trkpt>
      <trkpt lat="38.136671" lon="-6.302569">
        <ele>685.846</ele>
        <time>2019-02-25T04:31:23Z</time>
      </trkpt>
      <trkpt lat="38.137018" lon="-6.302972">
        <ele>684.765</ele>
        <time>2019-02-25T04:31:36Z</time>
      </trkpt>
      <trkpt lat="38.137290" lon="-6.303288">
        <ele>686.654</ele>
        <time>2019-02-25T04:31:47Z</time>
      </trkpt>
      <trkpt lat="38.137679" lon="-6.303603">
        <ele>687.021</ele>
        <time>2019-02-25T04:32:01Z</time>
      </trkpt>
      <trkpt lat="38.137790" lon="-6.303662">
        <ele>686.141</ele>
        <time>2019-02-25T04:32:04Z</time>
      </trkpt>
      <trkpt lat="38.137834" lon="-6.303678">
        <ele>685.605</ele>
        <time>2019-02-25T04:32:05Z</time>
      </trkpt>
      <trkpt lat="38.137879" lon="-6.303690">
        <ele>685.108</ele>
        <time>2019-02-25T04:32:06Z</time>
      </trkpt>
      <trkpt lat="38.138145" lon="-6.303775">
        <ele>682.185</ele>
        <time>2019-02-25T04:32:12Z</time>
      </trkpt>
      <trkpt lat="38.138409" lon="-6.303907">
        <ele>679.786</ele>
        <time>2019-02-25T04:32:21Z</time>
      </trkpt>
      <trkpt lat="38.138464" lon="-6.303921">
        <ele>679.397</ele>
        <time>2019-02-25T04:32:24Z</time>
      </trkpt>
      <trkpt lat="38.138476" lon="-6.303934">
        <ele>679.176</ele>
        <time>2019-02-25T04:32:25Z</time>
      </trkpt>
      <trkpt lat="38.138483" lon="-6.303947">
        <ele>679.120</ele>
        <time>2019-02-25T04:32:30Z</time>
      </trkpt>
      <trkpt lat="38.138517" lon="-6.304027">
        <ele>678.613</ele>
        <time>2019-02-25T04:32:49Z</time>
      </trkpt>
      <trkpt lat="38.138791" lon="-6.304390">
        <ele>676.382</ele>
        <time>2019-02-25T04:33:00Z</time>
      </trkpt>
      <trkpt lat="38.139072" lon="-6.304663">
        <ele>674.861</ele>
        <time>2019-02-25T04:33:10Z</time>
      </trkpt>
      <trkpt lat="38.139449" lon="-6.305067">
        <ele>672.396</ele>
        <time>2019-02-25T04:33:23Z</time>
      </trkpt>
      <trkpt lat="38.139693" lon="-6.305308">
        <ele>669.731</ele>
        <time>2019-02-25T04:33:33Z</time>
      </trkpt>
      <trkpt lat="38.139984" lon="-6.305576">
        <ele>667.924</ele>
        <time>2019-02-25T04:33:44Z</time>
      </trkpt>
      <trkpt lat="38.140164" lon="-6.305715">
        <ele>667.308</ele>
        <time>2019-02-25T04:33:49Z</time>
      </trkpt>
      <trkpt lat="38.140407" lon="-6.305884">
        <ele>666.612</ele>
        <time>2019-02-25T04:33:55Z</time>
      </trkpt>
      <trkpt lat="38.141010" lon="-6.306322">
        <ele>665.983</ele>
        <time>2019-02-25T04:34:10Z</time>
      </trkpt>
      <trkpt lat="38.141305" lon="-6.306495">
        <ele>665.134</ele>
        <time>2019-02-25T04:34:18Z</time>
      </trkpt>
      <trkpt lat="38.141418" lon="-6.306580">
        <ele>664.593</ele>
        <time>2019-02-25T04:34:21Z</time>
      </trkpt>
      <trkpt lat="38.141661" lon="-6.306846">
        <ele>662.697</ele>
        <time>2019-02-25T04:34:29Z</time>
      </trkpt>
      <trkpt lat="38.142133" lon="-6.307318">
        <ele>662.320</ele>
        <time>2019-02-25T04:34:42Z</time>
      </trkpt>
      <trkpt lat="38.142513" lon="-6.307723">
        <ele>662.619</ele>
        <time>2019-02-25T04:34:55Z</time>
      </trkpt>
      <trkpt lat="38.143054" lon="-6.308342">
        <ele>661.158</ele>
        <time>2019-02-25T04:35:13Z</time>
      </trkpt>
      <trkpt lat="38.143086" lon="-6.308379">
        <ele>661.073</ele>
        <time>2019-02-25T04:35:14Z</time>
      </trkpt>
      <trkpt lat="38.143231" lon="-6.308528">
        <ele>661.485</ele>
        <time>2019-02-25T04:35:18Z</time>
      </trkpt>
      <trkpt lat="38.143269" lon="-6.308557">
        <ele>661.613</ele>
        <time>2019-02-25T04:35:19Z</time>
      </trkpt>
      <trkpt lat="38.143591" lon="-6.308861">
        <ele>662.708</ele>
        <time>2019-02-25T04:35:32Z</time>
      </trkpt>
      <trkpt lat="38.143909" lon="-6.309172">
        <ele>662.040</ele>
        <time>2019-02-25T04:35:45Z</time>
      </trkpt>
      <trkpt lat="38.144252" lon="-6.309518">
        <ele>663.291</ele>
        <time>2019-02-25T04:35:58Z</time>
      </trkpt>
      <trkpt lat="38.144622" lon="-6.309873">
        <ele>666.282</ele>
        <time>2019-02-25T04:36:15Z</time>
      </trkpt>
      <trkpt lat="38.144658" lon="-6.309899">
        <ele>666.541</ele>
        <time>2019-02-25T04:36:21Z</time>
      </trkpt>
      <trkpt lat="38.144691" lon="-6.309934">
        <ele>666.855</ele>
        <time>2019-02-25T04:36:50Z</time>
      </trkpt>
      <trkpt lat="38.144997" lon="-6.310072">
        <ele>668.678</ele>
        <time>2019-02-25T04:37:05Z</time>
      </trkpt>
      <trkpt lat="38.145122" lon="-6.310058">
        <ele>669.027</ele>
        <time>2019-02-25T04:37:10Z</time>
      </trkpt>
      <trkpt lat="38.145139" lon="-6.310064">
        <ele>669.016</ele>
        <time>2019-02-25T04:37:15Z</time>
      </trkpt>
      <trkpt lat="38.145286" lon="-6.310111">
        <ele>669.246</ele>
        <time>2019-02-25T04:38:38Z</time>
      </trkpt>
      <trkpt lat="38.145540" lon="-6.310248">
        <ele>668.488</ele>
        <time>2019-02-25T04:38:51Z</time>
      </trkpt>
      <trkpt lat="38.145535" lon="-6.310253">
        <ele>668.316</ele>
        <time>2019-02-25T04:38:53Z</time>
      </trkpt>
      <trkpt lat="38.145556" lon="-6.310302">
        <ele>668.008</ele>
        <time>2019-02-25T04:39:18Z</time>
      </trkpt>
      <trkpt lat="38.145857" lon="-6.310436">
        <ele>664.397</ele>
        <time>2019-02-25T04:39:32Z</time>
      </trkpt>
      <trkpt lat="38.146101" lon="-6.310290">
        <ele>662.298</ele>
        <time>2019-02-25T04:39:43Z</time>
      </trkpt>
      <trkpt lat="38.146335" lon="-6.310161">
        <ele>661.099</ele>
        <time>2019-02-25T04:39:54Z</time>
      </trkpt>
      <trkpt lat="38.146647" lon="-6.310066">
        <ele>659.618</ele>
        <time>2019-02-25T04:40:06Z</time>
      </trkpt>
      <trkpt lat="38.146971" lon="-6.309983">
        <ele>657.642</ele>
        <time>2019-02-25T04:40:20Z</time>
      </trkpt>
      <trkpt lat="38.147226" lon="-6.309928">
        <ele>655.945</ele>
        <time>2019-02-25T04:40:32Z</time>
      </trkpt>
      <trkpt lat="38.147510" lon="-6.309907">
        <ele>654.174</ele>
        <time>2019-02-25T04:40:39Z</time>
      </trkpt>
      <trkpt lat="38.147551" lon="-6.309894">
        <ele>653.983</ele>
        <time>2019-02-25T04:40:40Z</time>
      </trkpt>
      <trkpt lat="38.148140" lon="-6.309665">
        <ele>650.782</ele>
        <time>2019-02-25T04:40:54Z</time>
      </trkpt>
      <trkpt lat="38.148319" lon="-6.309655">
        <ele>649.943</ele>
        <time>2019-02-25T04:40:58Z</time>
      </trkpt>
      <trkpt lat="38.148497" lon="-6.309686">
        <ele>649.117</ele>
        <time>2019-02-25T04:41:02Z</time>
      </trkpt>
      <trkpt lat="38.148768" lon="-6.309759">
        <ele>647.808</ele>
        <time>2019-02-25T04:41:12Z</time>
      </trkpt>
      <trkpt lat="38.148970" lon="-6.309998">
        <ele>644.441</ele>
        <time>2019-02-25T04:41:23Z</time>
      </trkpt>
      <trkpt lat="38.149317" lon="-6.310113">
        <ele>638.982</ele>
        <time>2019-02-25T04:41:35Z</time>
      </trkpt>
      <trkpt lat="38.149629" lon="-6.310488">
        <ele>640.143</ele>
        <time>2019-02-25T04:41:46Z</time>
      </trkpt>
      <trkpt lat="38.149920" lon="-6.310858">
        <ele>641.262</ele>
        <time>2019-02-25T04:42:00Z</time>
      </trkpt>
      <trkpt lat="38.150276" lon="-6.311081">
        <ele>641.866</ele>
        <time>2019-02-25T04:42:12Z</time>
      </trkpt>
      <trkpt lat="38.150749" lon="-6.311335">
        <ele>643.769</ele>
        <time>2019-02-25T04:42:27Z</time>
      </trkpt>
      <trkpt lat="38.151161" lon="-6.311435">
        <ele>642.758</ele>
        <time>2019-02-25T04:42:41Z</time>
      </trkpt>
      <trkpt lat="38.151459" lon="-6.311388">
        <ele>640.497</ele>
        <time>2019-02-25T04:42:52Z</time>
      </trkpt>
      <trkpt lat="38.151533" lon="-6.311376">
        <ele>640.087</ele>
        <time>2019-02-25T04:42:54Z</time>
      </trkpt>
      <trkpt lat="38.152008" lon="-6.311280">
        <ele>637.642</ele>
        <time>2019-02-25T04:43:06Z</time>
      </trkpt>
      <trkpt lat="38.152049" lon="-6.311274">
        <ele>637.426</ele>
        <time>2019-02-25T04:43:07Z</time>
      </trkpt>
      <trkpt lat="38.152087" lon="-6.311277">
        <ele>637.208</ele>
        <time>2019-02-25T04:43:08Z</time>
      </trkpt>
      <trkpt lat="38.152123" lon="-6.311287">
        <ele>637.061</ele>
        <time>2019-02-25T04:43:09Z</time>
      </trkpt>
      <trkpt lat="38.152158" lon="-6.311303">
        <ele>636.852</ele>
        <time>2019-02-25T04:43:10Z</time>
      </trkpt>
      <trkpt lat="38.152189" lon="-6.311319">
        <ele>636.553</ele>
        <time>2019-02-25T04:43:11Z</time>
      </trkpt>
      <trkpt lat="38.152223" lon="-6.311329">
        <ele>636.332</ele>
        <time>2019-02-25T04:43:12Z</time>
      </trkpt>
      <trkpt lat="38.152260" lon="-6.311337">
        <ele>636.096</ele>
        <time>2019-02-25T04:43:13Z</time>
      </trkpt>
      <trkpt lat="38.152598" lon="-6.311415">
        <ele>633.599</ele>
        <time>2019-02-25T04:43:20Z</time>
      </trkpt>
      <trkpt lat="38.152636" lon="-6.311417">
        <ele>633.258</ele>
        <time>2019-02-25T04:43:21Z</time>
      </trkpt>
      <trkpt lat="38.152892" lon="-6.311383">
        <ele>631.057</ele>
        <time>2019-02-25T04:43:27Z</time>
      </trkpt>
      <trkpt lat="38.153565" lon="-6.311161">
        <ele>630.234</ele>
        <time>2019-02-25T04:43:41Z</time>
      </trkpt>
      <trkpt lat="38.154344" lon="-6.311177">
        <ele>630.555</ele>
        <time>2019-02-25T04:44:00Z</time>
      </trkpt>
      <trkpt lat="38.154900" lon="-6.311218">
        <ele>629.310</ele>
        <time>2019-02-25T04:44:13Z</time>
      </trkpt>
      <trkpt lat="38.155528" lon="-6.311233">
        <ele>627.508</ele>
        <time>2019-02-25T04:44:29Z</time>
      </trkpt>
      <trkpt lat="38.155998" lon="-6.311353">
        <ele>624.246</ele>
        <time>2019-02-25T04:44:42Z</time>
      </trkpt>
      <trkpt lat="38.156115" lon="-6.311377">
        <ele>624.837</ele>
        <time>2019-02-25T04:44:50Z</time>
      </trkpt>
      <trkpt lat="38.156114" lon="-6.311377">
        <ele>624.838</ele>
        <time>2019-02-25T04:44:51Z</time>
      </trkpt>
      <trkpt lat="38.156202" lon="-6.311413">
        <ele>625.537</ele>
        <time>2019-02-25T04:45:23Z</time>
      </trkpt>
      <trkpt lat="38.156543" lon="-6.311513">
        <ele>628.871</ele>
        <time>2019-02-25T04:45:36Z</time>
      </trkpt>
      <trkpt lat="38.156599" lon="-6.311509">
        <ele>628.784</ele>
        <time>2019-02-25T04:45:46Z</time>
      </trkpt>
      <trkpt lat="38.156598" lon="-6.311507">
        <ele>628.663</ele>
        <time>2019-02-25T04:45:49Z</time>
      </trkpt>
      <trkpt lat="38.156812" lon="-6.311645">
        <ele>625.852</ele>
        <time>2019-02-25T04:49:05Z</time>
      </trkpt>
      <trkpt lat="38.156992" lon="-6.311823">
        <ele>624.075</ele>
        <time>2019-02-25T04:49:15Z</time>
      </trkpt>
      <trkpt lat="38.157089" lon="-6.311906">
        <ele>624.328</ele>
        <time>2019-02-25T04:49:18Z</time>
      </trkpt>
      <trkpt lat="38.157169" lon="-6.311953">
        <ele>624.720</ele>
        <time>2019-02-25T04:49:20Z</time>
      </trkpt>
      <trkpt lat="38.157209" lon="-6.311965">
        <ele>624.808</ele>
        <time>2019-02-25T04:49:21Z</time>
      </trkpt>
      <trkpt lat="38.157428" lon="-6.312108">
        <ele>627.020</ele>
        <time>2019-02-25T04:49:33Z</time>
      </trkpt>
      <trkpt lat="38.157620" lon="-6.312172">
        <ele>628.631</ele>
        <time>2019-02-25T04:49:46Z</time>
      </trkpt>
      <trkpt lat="38.157803" lon="-6.312196">
        <ele>628.912</ele>
        <time>2019-02-25T04:49:59Z</time>
      </trkpt>
      <trkpt lat="38.158089" lon="-6.312258">
        <ele>630.141</ele>
        <time>2019-02-25T04:50:16Z</time>
      </trkpt>
      <trkpt lat="38.158344" lon="-6.312424">
        <ele>632.165</ele>
        <time>2019-02-25T04:50:32Z</time>
      </trkpt>
      <trkpt lat="38.158608" lon="-6.312601">
        <ele>634.318</ele>
        <time>2019-02-25T04:50:49Z</time>
      </trkpt>
      <trkpt lat="38.158832" lon="-6.312818">
        <ele>636.547</ele>
        <time>2019-02-25T04:51:05Z</time>
      </trkpt>
      <trkpt lat="38.159057" lon="-6.313043">
        <ele>635.656</ele>
        <time>2019-02-25T04:51:19Z</time>
      </trkpt>
      <trkpt lat="38.159558" lon="-6.313360">
        <ele>632.897</ele>
        <time>2019-02-25T04:51:34Z</time>
      </trkpt>
      <trkpt lat="38.159845" lon="-6.313530">
        <ele>633.323</ele>
        <time>2019-02-25T04:51:41Z</time>
      </trkpt>
      <trkpt lat="38.159876" lon="-6.313564">
        <ele>633.425</ele>
        <time>2019-02-25T04:51:42Z</time>
      </trkpt>
      <trkpt lat="38.159900" lon="-6.313600">
        <ele>633.608</ele>
        <time>2019-02-25T04:51:43Z</time>
      </trkpt>
      <trkpt lat="38.159918" lon="-6.313638">
        <ele>633.792</ele>
        <time>2019-02-25T04:51:44Z</time>
      </trkpt>
      <trkpt lat="38.159934" lon="-6.313676">
        <ele>633.863</ele>
        <time>2019-02-25T04:51:45Z</time>
      </trkpt>
      <trkpt lat="38.159952" lon="-6.313712">
        <ele>633.994</ele>
        <time>2019-02-25T04:51:46Z</time>
      </trkpt>
      <trkpt lat="38.159975" lon="-6.313740">
        <ele>634.033</ele>
        <time>2019-02-25T04:51:47Z</time>
      </trkpt>
      <trkpt lat="38.160001" lon="-6.313763">
        <ele>634.167</ele>
        <time>2019-02-25T04:51:48Z</time>
      </trkpt>
      <trkpt lat="38.160025" lon="-6.313781">
        <ele>634.170</ele>
        <time>2019-02-25T04:51:49Z</time>
      </trkpt>
      <trkpt lat="38.160050" lon="-6.313794">
        <ele>634.299</ele>
        <time>2019-02-25T04:51:50Z</time>
      </trkpt>
      <trkpt lat="38.160072" lon="-6.313803">
        <ele>634.228</ele>
        <time>2019-02-25T04:51:51Z</time>
      </trkpt>
      <trkpt lat="38.160093" lon="-6.313812">
        <ele>634.331</ele>
        <time>2019-02-25T04:51:52Z</time>
      </trkpt>
      <trkpt lat="38.160283" lon="-6.313985">
        <ele>634.961</ele>
        <time>2019-02-25T04:52:01Z</time>
      </trkpt>
      <trkpt lat="38.160673" lon="-6.314175">
        <ele>637.207</ele>
        <time>2019-02-25T04:52:17Z</time>
      </trkpt>
      <trkpt lat="38.161075" lon="-6.314128">
        <ele>638.808</ele>
        <time>2019-02-25T04:52:32Z</time>
      </trkpt>
      <trkpt lat="38.161304" lon="-6.313970">
        <ele>639.146</ele>
        <time>2019-02-25T04:52:45Z</time>
      </trkpt>
      <trkpt lat="38.161457" lon="-6.313717">
        <ele>639.457</ele>
        <time>2019-02-25T04:52:57Z</time>
      </trkpt>
      <trkpt lat="38.161776" lon="-6.313741">
        <ele>641.758</ele>
        <time>2019-02-25T04:53:10Z</time>
      </trkpt>
      <trkpt lat="38.162047" lon="-6.313742">
        <ele>645.057</ele>
        <time>2019-02-25T04:53:24Z</time>
      </trkpt>
      <trkpt lat="38.162089" lon="-6.313747">
        <ele>645.681</ele>
        <time>2019-02-25T04:53:27Z</time>
      </trkpt>
      <trkpt lat="38.162103" lon="-6.313740">
        <ele>645.814</ele>
        <time>2019-02-25T04:53:28Z</time>
      </trkpt>
      <trkpt lat="38.162127" lon="-6.313724">
        <ele>646.273</ele>
        <time>2019-02-25T04:53:33Z</time>
      </trkpt>
      <trkpt lat="38.162186" lon="-6.313699">
        <ele>646.992</ele>
        <time>2019-02-25T04:54:13Z</time>
      </trkpt>
      <trkpt lat="38.162366" lon="-6.313677">
        <ele>647.797</ele>
        <time>2019-02-25T04:54:29Z</time>
      </trkpt>
      <trkpt lat="38.162367" lon="-6.313682">
        <ele>647.723</ele>
        <time>2019-02-25T04:54:32Z</time>
      </trkpt>
      <trkpt lat="38.162433" lon="-6.313694">
        <ele>647.325</ele>
        <time>2019-02-25T04:54:37Z</time>
      </trkpt>
      <trkpt lat="38.162846" lon="-6.313770">
        <ele>646.508</ele>
        <time>2019-02-25T04:54:51Z</time>
      </trkpt>
      <trkpt lat="38.163454" lon="-6.313912">
        <ele>648.742</ele>
        <time>2019-02-25T04:55:11Z</time>
      </trkpt>
      <trkpt lat="38.163807" lon="-6.314130">
        <ele>648.883</ele>
        <time>2019-02-25T04:55:27Z</time>
      </trkpt>
      <trkpt lat="38.164061" lon="-6.314226">
        <ele>647.344</ele>
        <time>2019-02-25T04:55:34Z</time>
      </trkpt>
      <trkpt lat="38.164109" lon="-6.314236">
        <ele>646.993</ele>
        <time>2019-02-25T04:55:35Z</time>
      </trkpt>
      <trkpt lat="38.164160" lon="-6.314246">
        <ele>646.517</ele>
        <time>2019-02-25T04:55:36Z</time>
      </trkpt>
      <trkpt lat="38.164211" lon="-6.314250">
        <ele>646.160</ele>
        <time>2019-02-25T04:55:37Z</time>
      </trkpt>
      <trkpt lat="38.164265" lon="-6.314246">
        <ele>645.759</ele>
        <time>2019-02-25T04:55:38Z</time>
      </trkpt>
      <trkpt lat="38.164321" lon="-6.314236">
        <ele>645.228</ele>
        <time>2019-02-25T04:55:39Z</time>
      </trkpt>
      <trkpt lat="38.164379" lon="-6.314223">
        <ele>644.733</ele>
        <time>2019-02-25T04:55:40Z</time>
      </trkpt>
      <trkpt lat="38.165071" lon="-6.314027">
        <ele>640.123</ele>
        <time>2019-02-25T04:55:51Z</time>
      </trkpt>
      <trkpt lat="38.165696" lon="-6.313668">
        <ele>636.115</ele>
        <time>2019-02-25T04:56:01Z</time>
      </trkpt>
      <trkpt lat="38.166308" lon="-6.313156">
        <ele>633.608</ele>
        <time>2019-02-25T04:56:13Z</time>
      </trkpt>
      <trkpt lat="38.166349" lon="-6.313115">
        <ele>633.436</ele>
        <time>2019-02-25T04:56:14Z</time>
      </trkpt>
      <trkpt lat="38.166481" lon="-6.312994">
        <ele>632.967</ele>
        <time>2019-02-25T04:56:17Z</time>
      </trkpt>
      <trkpt lat="38.166532" lon="-6.312963">
        <ele>632.868</ele>
        <time>2019-02-25T04:56:18Z</time>
      </trkpt>
      <trkpt lat="38.166637" lon="-6.312913">
        <ele>632.437</ele>
        <time>2019-02-25T04:56:20Z</time>
      </trkpt>
      <trkpt lat="38.166690" lon="-6.312899">
        <ele>632.181</ele>
        <time>2019-02-25T04:56:21Z</time>
      </trkpt>
      <trkpt lat="38.166840" lon="-6.312872">
        <ele>631.714</ele>
        <time>2019-02-25T04:56:24Z</time>
      </trkpt>
      <trkpt lat="38.167477" lon="-6.312904">
        <ele>632.423</ele>
        <time>2019-02-25T04:56:37Z</time>
      </trkpt>
      <trkpt lat="38.167526" lon="-6.312917">
        <ele>632.572</ele>
        <time>2019-02-25T04:56:38Z</time>
      </trkpt>
      <trkpt lat="38.168220" lon="-6.313051">
        <ele>630.565</ele>
        <time>2019-02-25T04:56:53Z</time>
      </trkpt>
      <trkpt lat="38.168376" lon="-6.313048">
        <ele>629.968</ele>
        <time>2019-02-25T04:56:56Z</time>
      </trkpt>
      <trkpt lat="38.168430" lon="-6.313036">
        <ele>629.814</ele>
        <time>2019-02-25T04:56:57Z</time>
      </trkpt>
      <trkpt lat="38.168484" lon="-6.313024">
        <ele>629.808</ele>
        <time>2019-02-25T04:56:58Z</time>
      </trkpt>
      <trkpt lat="38.168592" lon="-6.312996">
        <ele>629.859</ele>
        <time>2019-02-25T04:57:00Z</time>
      </trkpt>
      <trkpt lat="38.168998" lon="-6.312901">
        <ele>629.780</ele>
        <time>2019-02-25T04:57:08Z</time>
      </trkpt>
      <trkpt lat="38.169437" lon="-6.312901">
        <ele>629.571</ele>
        <time>2019-02-25T04:57:20Z</time>
      </trkpt>
      <trkpt lat="38.169436" lon="-6.312901">
        <ele>629.410</ele>
        <time>2019-02-25T04:57:22Z</time>
      </trkpt>
      <trkpt lat="38.169491" lon="-6.312911">
        <ele>629.324</ele>
        <time>2019-02-25T04:58:25Z</time>
      </trkpt>
      <trkpt lat="38.169913" lon="-6.313025">
        <ele>628.127</ele>
        <time>2019-02-25T04:58:40Z</time>
      </trkpt>
      <trkpt lat="38.170403" lon="-6.312966">
        <ele>627.936</ele>
        <time>2019-02-25T04:58:54Z</time>
      </trkpt>
      <trkpt lat="38.171146" lon="-6.313078">
        <ele>627.785</ele>
        <time>2019-02-25T04:59:17Z</time>
      </trkpt>
      <trkpt lat="38.171530" lon="-6.313029">
        <ele>624.363</ele>
        <time>2019-02-25T04:59:30Z</time>
      </trkpt>
      <trkpt lat="38.171885" lon="-6.313119">
        <ele>621.344</ele>
        <time>2019-02-25T04:59:39Z</time>
      </trkpt>
      <trkpt lat="38.172080" lon="-6.313156">
        <ele>619.218</ele>
        <time>2019-02-25T04:59:44Z</time>
      </trkpt>
      <trkpt lat="38.172160" lon="-6.313140">
        <ele>618.608</ele>
        <time>2019-02-25T04:59:46Z</time>
      </trkpt>
      <trkpt lat="38.172197" lon="-6.313125">
        <ele>618.329</ele>
        <time>2019-02-25T04:59:47Z</time>
      </trkpt>
      <trkpt lat="38.172233" lon="-6.313109">
        <ele>618.130</ele>
        <time>2019-02-25T04:59:48Z</time>
      </trkpt>
      <trkpt lat="38.172688" lon="-6.312902">
        <ele>614.791</ele>
        <time>2019-02-25T05:00:00Z</time>
      </trkpt>
      <trkpt lat="38.173092" lon="-6.312643">
        <ele>613.360</ele>
        <time>2019-02-25T05:00:14Z</time>
      </trkpt>
      <trkpt lat="38.173384" lon="-6.312670">
        <ele>611.364</ele>
        <time>2019-02-25T05:00:28Z</time>
      </trkpt>
      <trkpt lat="38.173719" lon="-6.312736">
        <ele>609.037</ele>
        <time>2019-02-25T05:00:41Z</time>
      </trkpt>
      <trkpt lat="38.174017" lon="-6.312776">
        <ele>607.786</ele>
        <time>2019-02-25T05:00:53Z</time>
      </trkpt>
      <trkpt lat="38.174487" lon="-6.312952">
        <ele>605.955</ele>
        <time>2019-02-25T05:01:04Z</time>
      </trkpt>
      <trkpt lat="38.174777" lon="-6.312932">
        <ele>603.973</ele>
        <time>2019-02-25T05:01:12Z</time>
      </trkpt>
      <trkpt lat="38.174813" lon="-6.312905">
        <ele>603.585</ele>
        <time>2019-02-25T05:01:13Z</time>
      </trkpt>
      <trkpt lat="38.174846" lon="-6.312873">
        <ele>603.213</ele>
        <time>2019-02-25T05:01:14Z</time>
      </trkpt>
      <trkpt lat="38.174874" lon="-6.312834">
        <ele>602.808</ele>
        <time>2019-02-25T05:01:15Z</time>
      </trkpt>
      <trkpt lat="38.174899" lon="-6.312790">
        <ele>602.480</ele>
        <time>2019-02-25T05:01:16Z</time>
      </trkpt>
      <trkpt lat="38.174920" lon="-6.312744">
        <ele>602.181</ele>
        <time>2019-02-25T05:01:17Z</time>
      </trkpt>
      <trkpt lat="38.174937" lon="-6.312695">
        <ele>601.712</ele>
        <time>2019-02-25T05:01:18Z</time>
      </trkpt>
      <trkpt lat="38.175123" lon="-6.312095">
        <ele>597.021</ele>
        <time>2019-02-25T05:01:29Z</time>
      </trkpt>
      <trkpt lat="38.175216" lon="-6.311630">
        <ele>593.425</ele>
        <time>2019-02-25T05:01:37Z</time>
      </trkpt>
      <trkpt lat="38.175329" lon="-6.311158">
        <ele>589.768</ele>
        <time>2019-02-25T05:01:45Z</time>
      </trkpt>
      <trkpt lat="38.175491" lon="-6.310793">
        <ele>586.437</ele>
        <time>2019-02-25T05:01:53Z</time>
      </trkpt>
      <trkpt lat="38.175645" lon="-6.310328">
        <ele>582.616</ele>
        <time>2019-02-25T05:02:01Z</time>
      </trkpt>
      <trkpt lat="38.175782" lon="-6.309948">
        <ele>580.535</ele>
        <time>2019-02-25T05:02:07Z</time>
      </trkpt>
      <trkpt lat="38.175917" lon="-6.309531">
        <ele>579.386</ele>
        <time>2019-02-25T05:02:15Z</time>
      </trkpt>
      <trkpt lat="38.176209" lon="-6.308871">
        <ele>575.214</ele>
        <time>2019-02-25T05:02:29Z</time>
      </trkpt>
      <trkpt lat="38.176434" lon="-6.308622">
        <ele>574.108</ele>
        <time>2019-02-25T05:02:38Z</time>
      </trkpt>
      <trkpt lat="38.176899" lon="-6.307910">
        <ele>574.666</ele>
        <time>2019-02-25T05:02:55Z</time>
      </trkpt>
      <trkpt lat="38.177290" lon="-6.307542">
        <ele>576.437</ele>
        <time>2019-02-25T05:03:10Z</time>
      </trkpt>
      <trkpt lat="38.177722" lon="-6.306995">
        <ele>576.718</ele>
        <time>2019-02-25T05:03:30Z</time>
      </trkpt>
      <trkpt lat="38.178079" lon="-6.306585">
        <ele>574.677</ele>
        <time>2019-02-25T05:03:43Z</time>
      </trkpt>
      <trkpt lat="38.178779" lon="-6.306022">
        <ele>569.011</ele>
        <time>2019-02-25T05:03:57Z</time>
      </trkpt>
      <trkpt lat="38.179195" lon="-6.305620">
        <ele>567.254</ele>
        <time>2019-02-25T05:04:07Z</time>
      </trkpt>
      <trkpt lat="38.179706" lon="-6.305322">
        <ele>564.993</ele>
        <time>2019-02-25T05:04:18Z</time>
      </trkpt>
      <trkpt lat="38.180209" lon="-6.305081">
        <ele>560.792</ele>
        <time>2019-02-25T05:04:29Z</time>
      </trkpt>
      <trkpt lat="38.180601" lon="-6.304833">
        <ele>556.093</ele>
        <time>2019-02-25T05:04:39Z</time>
      </trkpt>
      <trkpt lat="38.180887" lon="-6.304613">
        <ele>553.665</ele>
        <time>2019-02-25T05:04:46Z</time>
      </trkpt>
      <trkpt lat="38.181015" lon="-6.304497">
        <ele>552.921</ele>
        <time>2019-02-25T05:04:49Z</time>
      </trkpt>
      <trkpt lat="38.181090" lon="-6.304392">
        <ele>552.408</ele>
        <time>2019-02-25T05:04:51Z</time>
      </trkpt>
      <trkpt lat="38.181122" lon="-6.304332">
        <ele>552.252</ele>
        <time>2019-02-25T05:04:52Z</time>
      </trkpt>
      <trkpt lat="38.181149" lon="-6.304268">
        <ele>551.923</ele>
        <time>2019-02-25T05:04:53Z</time>
      </trkpt>
      <trkpt lat="38.181260" lon="-6.303998">
        <ele>550.954</ele>
        <time>2019-02-25T05:04:57Z</time>
      </trkpt>
      <trkpt lat="38.181296" lon="-6.303938">
        <ele>550.743</ele>
        <time>2019-02-25T05:04:58Z</time>
      </trkpt>
      <trkpt lat="38.181336" lon="-6.303882">
        <ele>550.597</ele>
        <time>2019-02-25T05:04:59Z</time>
      </trkpt>
      <trkpt lat="38.181380" lon="-6.303830">
        <ele>550.340</ele>
        <time>2019-02-25T05:05:00Z</time>
      </trkpt>
      <trkpt lat="38.181424" lon="-6.303783">
        <ele>550.169</ele>
        <time>2019-02-25T05:05:01Z</time>
      </trkpt>
      <trkpt lat="38.182052" lon="-6.303174">
        <ele>546.368</ele>
        <time>2019-02-25T05:05:16Z</time>
      </trkpt>
      <trkpt lat="38.182361" lon="-6.303008">
        <ele>545.022</ele>
        <time>2019-02-25T05:05:28Z</time>
      </trkpt>
      <trkpt lat="38.182492" lon="-6.302811">
        <ele>545.462</ele>
        <time>2019-02-25T05:05:39Z</time>
      </trkpt>
      <trkpt lat="38.182486" lon="-6.302787">
        <ele>545.408</ele>
        <time>2019-02-25T05:05:40Z</time>
      </trkpt>
      <trkpt lat="38.182476" lon="-6.302764">
        <ele>545.508</ele>
        <time>2019-02-25T05:05:41Z</time>
      </trkpt>
      <trkpt lat="38.182340" lon="-6.302459">
        <ele>547.295</ele>
        <time>2019-02-25T05:05:56Z</time>
      </trkpt>
      <trkpt lat="38.182242" lon="-6.302217">
        <ele>549.246</ele>
        <time>2019-02-25T05:06:11Z</time>
      </trkpt>
      <trkpt lat="38.182183" lon="-6.302046">
        <ele>550.717</ele>
        <time>2019-02-25T05:06:22Z</time>
      </trkpt>
      <trkpt lat="38.182191" lon="-6.302030">
        <ele>550.846</ele>
        <time>2019-02-25T05:06:23Z</time>
      </trkpt>
      <trkpt lat="38.182292" lon="-6.301945">
        <ele>551.950</ele>
        <time>2019-02-25T05:06:32Z</time>
      </trkpt>
      <trkpt lat="38.182305" lon="-6.301942">
        <ele>552.053</ele>
        <time>2019-02-25T05:06:33Z</time>
      </trkpt>
      <trkpt lat="38.182320" lon="-6.301943">
        <ele>552.172</ele>
        <time>2019-02-25T05:06:34Z</time>
      </trkpt>
      <trkpt lat="38.182336" lon="-6.301947">
        <ele>552.391</ele>
        <time>2019-02-25T05:06:35Z</time>
      </trkpt>
      <trkpt lat="38.182352" lon="-6.301952">
        <ele>552.454</ele>
        <time>2019-02-25T05:06:36Z</time>
      </trkpt>
      <trkpt lat="38.182368" lon="-6.301956">
        <ele>552.556</ele>
        <time>2019-02-25T05:06:37Z</time>
      </trkpt>
      <trkpt lat="38.182384" lon="-6.301961">
        <ele>552.611</ele>
        <time>2019-02-25T05:06:38Z</time>
      </trkpt>
      <trkpt lat="38.182401" lon="-6.301964">
        <ele>552.708</ele>
        <time>2019-02-25T05:06:39Z</time>
      </trkpt>
      <trkpt lat="38.182417" lon="-6.301969">
        <ele>552.828</ele>
        <time>2019-02-25T05:06:40Z</time>
      </trkpt>
      <trkpt lat="38.182433" lon="-6.301974">
        <ele>552.899</ele>
        <time>2019-02-25T05:06:41Z</time>
      </trkpt>
      <trkpt lat="38.182449" lon="-6.301982">
        <ele>552.910</ele>
        <time>2019-02-25T05:06:42Z</time>
      </trkpt>
      <trkpt lat="38.182463" lon="-6.301991">
        <ele>553.059</ele>
        <time>2019-02-25T05:06:43Z</time>
      </trkpt>
      <trkpt lat="38.182479" lon="-6.301997">
        <ele>553.163</ele>
        <time>2019-02-25T05:06:44Z</time>
      </trkpt>
      <trkpt lat="38.182496" lon="-6.302001">
        <ele>553.186</ele>
        <time>2019-02-25T05:06:45Z</time>
      </trkpt>
      <trkpt lat="38.182843" lon="-6.301939">
        <ele>553.885</ele>
        <time>2019-02-25T05:07:00Z</time>
      </trkpt>
      <trkpt lat="38.183436" lon="-6.301532">
        <ele>552.674</ele>
        <time>2019-02-25T05:07:17Z</time>
      </trkpt>
      <trkpt lat="38.183456" lon="-6.301521">
        <ele>552.693</ele>
        <time>2019-02-25T05:07:22Z</time>
      </trkpt>
      <trkpt lat="38.183496" lon="-6.301509">
        <ele>552.765</ele>
        <time>2019-02-25T05:08:30Z</time>
      </trkpt>
      <trkpt lat="38.183890" lon="-6.301387">
        <ele>553.921</ele>
        <time>2019-02-25T05:08:46Z</time>
      </trkpt>
      <trkpt lat="38.184370" lon="-6.301320">
        <ele>556.608</ele>
        <time>2019-02-25T05:09:05Z</time>
      </trkpt>
      <trkpt lat="38.184760" lon="-6.301564">
        <ele>558.992</ele>
        <time>2019-02-25T05:09:23Z</time>
      </trkpt>
      <trkpt lat="38.185042" lon="-6.301966">
        <ele>560.493</ele>
        <time>2019-02-25T05:09:40Z</time>
      </trkpt>
      <trkpt lat="38.185221" lon="-6.302125">
        <ele>559.884</ele>
        <time>2019-02-25T05:09:45Z</time>
      </trkpt>
      <trkpt lat="38.185321" lon="-6.302175">
        <ele>559.363</ele>
        <time>2019-02-25T05:09:47Z</time>
      </trkpt>
      <trkpt lat="38.185374" lon="-6.302190">
        <ele>559.187</ele>
        <time>2019-02-25T05:09:48Z</time>
      </trkpt>
      <trkpt lat="38.185742" lon="-6.302252">
        <ele>557.940</ele>
        <time>2019-02-25T05:09:55Z</time>
      </trkpt>
      <trkpt lat="38.186471" lon="-6.302219">
        <ele>557.979</ele>
        <time>2019-02-25T05:10:12Z</time>
      </trkpt>
      <trkpt lat="38.186936" lon="-6.302177">
        <ele>560.078</ele>
        <time>2019-02-25T05:10:28Z</time>
      </trkpt>
      <trkpt lat="38.187448" lon="-6.302108">
        <ele>560.543</ele>
        <time>2019-02-25T05:10:44Z</time>
      </trkpt>
      <trkpt lat="38.188108" lon="-6.302039">
        <ele>556.164</ele>
        <time>2019-02-25T05:10:56Z</time>
      </trkpt>
      <trkpt lat="38.188158" lon="-6.302041">
        <ele>555.910</ele>
        <time>2019-02-25T05:10:57Z</time>
      </trkpt>
      <trkpt lat="38.188209" lon="-6.302047">
        <ele>555.608</ele>
        <time>2019-02-25T05:10:58Z</time>
      </trkpt>
      <trkpt lat="38.188260" lon="-6.302047">
        <ele>555.467</ele>
        <time>2019-02-25T05:10:59Z</time>
      </trkpt>
      <trkpt lat="38.188575" lon="-6.302023">
        <ele>554.418</ele>
        <time>2019-02-25T05:11:08Z</time>
      </trkpt>
      <trkpt lat="38.188921" lon="-6.302098">
        <ele>554.339</ele>
        <time>2019-02-25T05:11:20Z</time>
      </trkpt>
      <trkpt lat="38.189399" lon="-6.302121">
        <ele>556.298</ele>
        <time>2019-02-25T05:11:38Z</time>
      </trkpt>
      <trkpt lat="38.189621" lon="-6.302132">
        <ele>555.812</ele>
        <time>2019-02-25T05:11:44Z</time>
      </trkpt>
      <trkpt lat="38.189664" lon="-6.302124">
        <ele>555.655</ele>
        <time>2019-02-25T05:11:45Z</time>
      </trkpt>
      <trkpt lat="38.189713" lon="-6.302107">
        <ele>555.444</ele>
        <time>2019-02-25T05:11:46Z</time>
      </trkpt>
      <trkpt lat="38.189764" lon="-6.302083">
        <ele>555.163</ele>
        <time>2019-02-25T05:11:47Z</time>
      </trkpt>
      <trkpt lat="38.189816" lon="-6.302058">
        <ele>554.973</ele>
        <time>2019-02-25T05:11:48Z</time>
      </trkpt>
      <trkpt lat="38.189872" lon="-6.302040">
        <ele>554.785</ele>
        <time>2019-02-25T05:11:49Z</time>
      </trkpt>
      <trkpt lat="38.189925" lon="-6.302029">
        <ele>554.513</ele>
        <time>2019-02-25T05:11:50Z</time>
      </trkpt>
      <trkpt lat="38.189974" lon="-6.302022">
        <ele>554.308</ele>
        <time>2019-02-25T05:11:51Z</time>
      </trkpt>
      <trkpt lat="38.190020" lon="-6.302023">
        <ele>554.280</ele>
        <time>2019-02-25T05:11:52Z</time>
      </trkpt>
      <trkpt lat="38.190061" lon="-6.302029">
        <ele>554.181</ele>
        <time>2019-02-25T05:11:53Z</time>
      </trkpt>
      <trkpt lat="38.190096" lon="-6.302038">
        <ele>554.052</ele>
        <time>2019-02-25T05:11:54Z</time>
      </trkpt>
      <trkpt lat="38.190512" lon="-6.302029">
        <ele>554.641</ele>
        <time>2019-02-25T05:12:09Z</time>
      </trkpt>
      <trkpt lat="38.190858" lon="-6.301933">
        <ele>556.355</ele>
        <time>2019-02-25T05:12:23Z</time>
      </trkpt>
      <trkpt lat="38.191322" lon="-6.301834">
        <ele>558.448</ele>
        <time>2019-02-25T05:12:41Z</time>
      </trkpt>
      <trkpt lat="38.191827" lon="-6.301735">
        <ele>560.347</ele>
        <time>2019-02-25T05:13:00Z</time>
      </trkpt>
      <trkpt lat="38.192149" lon="-6.301685">
        <ele>561.956</ele>
        <time>2019-02-25T05:13:15Z</time>
      </trkpt>
      <trkpt lat="38.192481" lon="-6.301673">
        <ele>565.129</ele>
        <time>2019-02-25T05:13:33Z</time>
      </trkpt>
      <trkpt lat="38.192756" lon="-6.301675">
        <ele>568.100</ele>
        <time>2019-02-25T05:13:49Z</time>
      </trkpt>
      <trkpt lat="38.193105" lon="-6.301663">
        <ele>572.020</ele>
        <time>2019-02-25T05:14:09Z</time>
      </trkpt>
      <trkpt lat="38.193299" lon="-6.301645">
        <ele>574.408</ele>
        <time>2019-02-25T05:14:23Z</time>
      </trkpt>
      <trkpt lat="38.193401" lon="-6.301652">
        <ele>575.645</ele>
        <time>2019-02-25T05:14:31Z</time>
      </trkpt>
      <trkpt lat="38.193412" lon="-6.301648">
        <ele>575.786</ele>
        <time>2019-02-25T05:14:32Z</time>
      </trkpt>
      <trkpt lat="38.193425" lon="-6.301646">
        <ele>575.917</ele>
        <time>2019-02-25T05:14:33Z</time>
      </trkpt>
      <trkpt lat="38.193637" lon="-6.301642">
        <ele>578.256</ele>
        <time>2019-02-25T05:14:49Z</time>
      </trkpt>
      <trkpt lat="38.193723" lon="-6.301643">
        <ele>579.050</ele>
        <time>2019-02-25T05:14:55Z</time>
      </trkpt>
      <trkpt lat="38.193737" lon="-6.301644">
        <ele>579.153</ele>
        <time>2019-02-25T05:14:56Z</time>
      </trkpt>
      <trkpt lat="38.193752" lon="-6.301647">
        <ele>579.362</ele>
        <time>2019-02-25T05:14:57Z</time>
      </trkpt>
      <trkpt lat="38.193767" lon="-6.301647">
        <ele>579.441</ele>
        <time>2019-02-25T05:14:58Z</time>
      </trkpt>
      <trkpt lat="38.193782" lon="-6.301645">
        <ele>579.564</ele>
        <time>2019-02-25T05:14:59Z</time>
      </trkpt>
      <trkpt lat="38.193796" lon="-6.301643">
        <ele>579.606</ele>
        <time>2019-02-25T05:15:00Z</time>
      </trkpt>
      <trkpt lat="38.193810" lon="-6.301643">
        <ele>579.716</ele>
        <time>2019-02-25T05:15:01Z</time>
      </trkpt>
      <trkpt lat="38.194087" lon="-6.301641">
        <ele>581.008</ele>
        <time>2019-02-25T05:15:16Z</time>
      </trkpt>
      <trkpt lat="38.194396" lon="-6.301674">
        <ele>581.679</ele>
        <time>2019-02-25T05:15:31Z</time>
      </trkpt>
      <trkpt lat="38.194692" lon="-6.301704">
        <ele>582.340</ele>
        <time>2019-02-25T05:15:46Z</time>
      </trkpt>
      <trkpt lat="38.195025" lon="-6.301662">
        <ele>584.471</ele>
        <time>2019-02-25T05:16:05Z</time>
      </trkpt>
      <trkpt lat="38.195034" lon="-6.301652">
        <ele>584.480</ele>
        <time>2019-02-25T05:16:10Z</time>
      </trkpt>
      <trkpt lat="38.195122" lon="-6.301685">
        <ele>585.014</ele>
        <time>2019-02-25T05:23:26Z</time>
      </trkpt>
      <trkpt lat="38.195137" lon="-6.301678">
        <ele>585.147</ele>
        <time>2019-02-25T05:23:27Z</time>
      </trkpt>
      <trkpt lat="38.195150" lon="-6.301668">
        <ele>585.126</ele>
        <time>2019-02-25T05:23:28Z</time>
      </trkpt>
      <trkpt lat="38.195165" lon="-6.301660">
        <ele>585.275</ele>
        <time>2019-02-25T05:23:29Z</time>
      </trkpt>
      <trkpt lat="38.195181" lon="-6.301652">
        <ele>585.373</ele>
        <time>2019-02-25T05:23:30Z</time>
      </trkpt>
      <trkpt lat="38.195192" lon="-6.301642">
        <ele>585.385</ele>
        <time>2019-02-25T05:23:31Z</time>
      </trkpt>
      <trkpt lat="38.195206" lon="-6.301633">
        <ele>585.413</ele>
        <time>2019-02-25T05:23:32Z</time>
      </trkpt>
      <trkpt lat="38.195220" lon="-6.301624">
        <ele>585.508</ele>
        <time>2019-02-25T05:23:33Z</time>
      </trkpt>
      <trkpt lat="38.195232" lon="-6.301616">
        <ele>585.510</ele>
        <time>2019-02-25T05:23:34Z</time>
      </trkpt>
      <trkpt lat="38.195245" lon="-6.301609">
        <ele>585.681</ele>
        <time>2019-02-25T05:23:35Z</time>
      </trkpt>
      <trkpt lat="38.195331" lon="-6.301536">
        <ele>585.982</ele>
        <time>2019-02-25T05:23:43Z</time>
      </trkpt>
      <trkpt lat="38.195342" lon="-6.301526">
        <ele>585.971</ele>
        <time>2019-02-25T05:23:44Z</time>
      </trkpt>
      <trkpt lat="38.195354" lon="-6.301517">
        <ele>586.025</ele>
        <time>2019-02-25T05:23:45Z</time>
      </trkpt>
      <trkpt lat="38.195382" lon="-6.301527">
        <ele>586.098</ele>
        <time>2019-02-25T05:23:51Z</time>
      </trkpt>
      <trkpt lat="38.195340" lon="-6.301550">
        <ele>586.137</ele>
        <time>2019-02-25T05:24:00Z</time>
      </trkpt>
      <trkpt lat="38.195327" lon="-6.301550">
        <ele>586.176</ele>
        <time>2019-02-25T05:24:01Z</time>
      </trkpt>
      <trkpt lat="38.195314" lon="-6.301553">
        <ele>586.168</ele>
        <time>2019-02-25T05:24:02Z</time>
      </trkpt>
      <trkpt lat="38.195301" lon="-6.301564">
        <ele>586.142</ele>
        <time>2019-02-25T05:24:03Z</time>
      </trkpt>
      <trkpt lat="38.195290" lon="-6.301578">
        <ele>586.126</ele>
        <time>2019-02-25T05:24:04Z</time>
      </trkpt>
      <trkpt lat="38.195281" lon="-6.301594">
        <ele>586.008</ele>
        <time>2019-02-25T05:24:05Z</time>
      </trkpt>
      <trkpt lat="38.195351" lon="-6.301657">
        <ele>585.869</ele>
        <time>2019-02-25T05:24:12Z</time>
      </trkpt>
      <trkpt lat="38.195737" lon="-6.301717">
        <ele>583.690</ele>
        <time>2019-02-25T05:24:24Z</time>
      </trkpt>
      <trkpt lat="38.196396" lon="-6.301968">
        <ele>582.621</ele>
        <time>2019-02-25T05:24:36Z</time>
      </trkpt>
      <trkpt lat="38.196690" lon="-6.302067">
        <ele>584.840</ele>
        <time>2019-02-25T05:24:46Z</time>
      </trkpt>
      <trkpt lat="38.197049" lon="-6.302158">
        <ele>585.244</ele>
        <time>2019-02-25T05:25:03Z</time>
      </trkpt>
      <trkpt lat="38.197530" lon="-6.302238">
        <ele>583.787</ele>
        <time>2019-02-25T05:25:13Z</time>
      </trkpt>
      <trkpt lat="38.197822" lon="-6.302291">
        <ele>585.346</ele>
        <time>2019-02-25T05:25:23Z</time>
      </trkpt>
      <trkpt lat="38.198212" lon="-6.302366">
        <ele>588.525</ele>
        <time>2019-02-25T05:25:42Z</time>
      </trkpt>
      <trkpt lat="38.198518" lon="-6.302335">
        <ele>590.764</ele>
        <time>2019-02-25T05:25:59Z</time>
      </trkpt>
      <trkpt lat="38.198782" lon="-6.302292">
        <ele>592.806</ele>
        <time>2019-02-25T05:26:15Z</time>
      </trkpt>
      <trkpt lat="38.199142" lon="-6.302234">
        <ele>596.116</ele>
        <time>2019-02-25T05:26:37Z</time>
      </trkpt>
      <trkpt lat="38.199481" lon="-6.302174">
        <ele>598.008</ele>
        <time>2019-02-25T05:26:56Z</time>
      </trkpt>
      <trkpt lat="38.199828" lon="-6.302115">
        <ele>600.169</ele>
        <time>2019-02-25T05:27:15Z</time>
      </trkpt>
      <trkpt lat="38.199985" lon="-6.302091">
        <ele>601.170</ele>
        <time>2019-02-25T05:27:24Z</time>
      </trkpt>
      <trkpt lat="38.199999" lon="-6.302085">
        <ele>601.281</ele>
        <time>2019-02-25T05:27:25Z</time>
      </trkpt>
      <trkpt lat="38.200015" lon="-6.302083">
        <ele>601.370</ele>
        <time>2019-02-25T05:27:26Z</time>
      </trkpt>
      <trkpt lat="38.200032" lon="-6.302082">
        <ele>601.444</ele>
        <time>2019-02-25T05:27:27Z</time>
      </trkpt>
      <trkpt lat="38.200050" lon="-6.302077">
        <ele>601.567</ele>
        <time>2019-02-25T05:27:28Z</time>
      </trkpt>
      <trkpt lat="38.200067" lon="-6.302070">
        <ele>601.696</ele>
        <time>2019-02-25T05:27:29Z</time>
      </trkpt>
      <trkpt lat="38.200387" lon="-6.301971">
        <ele>603.235</ele>
        <time>2019-02-25T05:27:47Z</time>
      </trkpt>
      <trkpt lat="38.200804" lon="-6.301838">
        <ele>604.473</ele>
        <time>2019-02-25T05:28:07Z</time>
      </trkpt>
      <trkpt lat="38.201209" lon="-6.301694">
        <ele>607.985</ele>
        <time>2019-02-25T05:28:29Z</time>
      </trkpt>
      <trkpt lat="38.201514" lon="-6.301593">
        <ele>611.513</ele>
        <time>2019-02-25T05:28:48Z</time>
      </trkpt>
      <trkpt lat="38.201819" lon="-6.301481">
        <ele>613.208</ele>
        <time>2019-02-25T05:29:07Z</time>
      </trkpt>
      <trkpt lat="38.202160" lon="-6.301390">
        <ele>613.450</ele>
        <time>2019-02-25T05:29:27Z</time>
      </trkpt>
      <trkpt lat="38.202225" lon="-6.301382">
        <ele>613.061</ele>
        <time>2019-02-25T05:29:35Z</time>
      </trkpt>
      <trkpt lat="38.202279" lon="-6.301385">
        <ele>612.722</ele>
        <time>2019-02-25T05:29:51Z</time>
      </trkpt>
      <trkpt lat="38.202533" lon="-6.301312">
        <ele>610.731</ele>
        <time>2019-02-25T05:29:59Z</time>
      </trkpt>
      <trkpt lat="38.202578" lon="-6.301283">
        <ele>610.385</ele>
        <time>2019-02-25T05:30:00Z</time>
      </trkpt>
      <trkpt lat="38.202625" lon="-6.301249">
        <ele>610.078</ele>
        <time>2019-02-25T05:30:01Z</time>
      </trkpt>
      <trkpt lat="38.202929" lon="-6.301020">
        <ele>609.387</ele>
        <time>2019-02-25T05:30:07Z</time>
      </trkpt>
      <trkpt lat="38.202981" lon="-6.301001">
        <ele>609.496</ele>
        <time>2019-02-25T05:30:08Z</time>
      </trkpt>
      <trkpt lat="38.203082" lon="-6.300983">
        <ele>609.751</ele>
        <time>2019-02-25T05:30:10Z</time>
      </trkpt>
      <trkpt lat="38.203125" lon="-6.300984">
        <ele>609.901</ele>
        <time>2019-02-25T05:30:11Z</time>
      </trkpt>
      <trkpt lat="38.203165" lon="-6.300991">
        <ele>610.011</ele>
        <time>2019-02-25T05:30:12Z</time>
      </trkpt>
      <trkpt lat="38.203520" lon="-6.301111">
        <ele>611.908</ele>
        <time>2019-02-25T05:30:26Z</time>
      </trkpt>
      <trkpt lat="38.203803" lon="-6.301138">
        <ele>614.378</ele>
        <time>2019-02-25T05:30:40Z</time>
      </trkpt>
      <trkpt lat="38.204059" lon="-6.301092">
        <ele>616.499</ele>
        <time>2019-02-25T05:30:56Z</time>
      </trkpt>
      <trkpt lat="38.204343" lon="-6.300993">
        <ele>617.210</ele>
        <time>2019-02-25T05:31:13Z</time>
      </trkpt>
      <trkpt lat="38.204690" lon="-6.300996">
        <ele>617.279</ele>
        <time>2019-02-25T05:31:29Z</time>
      </trkpt>
      <trkpt lat="38.204898" lon="-6.301025">
        <ele>616.393</ele>
        <time>2019-02-25T05:31:35Z</time>
      </trkpt>
      <trkpt lat="38.205287" lon="-6.301014">
        <ele>614.766</ele>
        <time>2019-02-25T05:31:43Z</time>
      </trkpt>
      <trkpt lat="38.206142" lon="-6.301249">
        <ele>610.525</ele>
        <time>2019-02-25T05:31:58Z</time>
      </trkpt>
      <trkpt lat="38.206201" lon="-6.301262">
        <ele>610.344</ele>
        <time>2019-02-25T05:31:59Z</time>
      </trkpt>
      <trkpt lat="38.206321" lon="-6.301272">
        <ele>609.919</ele>
        <time>2019-02-25T05:32:01Z</time>
      </trkpt>
      <trkpt lat="38.206384" lon="-6.301267">
        <ele>609.609</ele>
        <time>2019-02-25T05:32:02Z</time>
      </trkpt>
      <trkpt lat="38.206447" lon="-6.301256">
        <ele>609.219</ele>
        <time>2019-02-25T05:32:03Z</time>
      </trkpt>
      <trkpt lat="38.206568" lon="-6.301239">
        <ele>608.508</ele>
        <time>2019-02-25T05:32:05Z</time>
      </trkpt>
      <trkpt lat="38.206632" lon="-6.301244">
        <ele>608.014</ele>
        <time>2019-02-25T05:32:06Z</time>
      </trkpt>
      <trkpt lat="38.206697" lon="-6.301256">
        <ele>607.625</ele>
        <time>2019-02-25T05:32:07Z</time>
      </trkpt>
      <trkpt lat="38.207521" lon="-6.301380">
        <ele>604.326</ele>
        <time>2019-02-25T05:32:18Z</time>
      </trkpt>
      <trkpt lat="38.208124" lon="-6.301259">
        <ele>600.835</ele>
        <time>2019-02-25T05:32:26Z</time>
      </trkpt>
      <trkpt lat="38.208839" lon="-6.300901">
        <ele>598.649</ele>
        <time>2019-02-25T05:32:37Z</time>
      </trkpt>
      <trkpt lat="38.209021" lon="-6.300810">
        <ele>598.012</ele>
        <time>2019-02-25T05:32:40Z</time>
      </trkpt>
      <trkpt lat="38.209082" lon="-6.300790">
        <ele>597.841</ele>
        <time>2019-02-25T05:32:41Z</time>
      </trkpt>
      <trkpt lat="38.209144" lon="-6.300777">
        <ele>597.680</ele>
        <time>2019-02-25T05:32:42Z</time>
      </trkpt>
      <trkpt lat="38.209208" lon="-6.300772">
        <ele>597.492</ele>
        <time>2019-02-25T05:32:43Z</time>
      </trkpt>
      <trkpt lat="38.209270" lon="-6.300775">
        <ele>597.373</ele>
        <time>2019-02-25T05:32:44Z</time>
      </trkpt>
      <trkpt lat="38.209331" lon="-6.300783">
        <ele>597.120</ele>
        <time>2019-02-25T05:32:45Z</time>
      </trkpt>
      <trkpt lat="38.210413" lon="-6.300957">
        <ele>593.808</ele>
        <time>2019-02-25T05:33:02Z</time>
      </trkpt>
      <trkpt lat="38.211202" lon="-6.301047">
        <ele>589.712</ele>
        <time>2019-02-25T05:33:13Z</time>
      </trkpt>
      <trkpt lat="38.211841" lon="-6.301212">
        <ele>586.343</ele>
        <time>2019-02-25T05:33:21Z</time>
      </trkpt>
      <trkpt lat="38.212343" lon="-6.301335">
        <ele>585.474</ele>
        <time>2019-02-25T05:33:29Z</time>
      </trkpt>
      <trkpt lat="38.212661" lon="-6.301425">
        <ele>586.223</ele>
        <time>2019-02-25T05:33:36Z</time>
      </trkpt>
      <trkpt lat="38.213448" lon="-6.301765">
        <ele>584.017</ele>
        <time>2019-02-25T05:33:53Z</time>
      </trkpt>
      <trkpt lat="38.213531" lon="-6.301794">
        <ele>583.910</ele>
        <time>2019-02-25T05:33:55Z</time>
      </trkpt>
      <trkpt lat="38.213724" lon="-6.301811">
        <ele>583.959</ele>
        <time>2019-02-25T05:33:59Z</time>
      </trkpt>
      <trkpt lat="38.214591" lon="-6.301632">
        <ele>580.948</ele>
        <time>2019-02-25T05:34:15Z</time>
      </trkpt>
      <trkpt lat="38.214846" lon="-6.301557">
        <ele>580.631</ele>
        <time>2019-02-25T05:34:20Z</time>
      </trkpt>
      <trkpt lat="38.214898" lon="-6.301548">
        <ele>580.661</ele>
        <time>2019-02-25T05:34:21Z</time>
      </trkpt>
      <trkpt lat="38.215681" lon="-6.301450">
        <ele>578.407</ele>
        <time>2019-02-25T05:34:36Z</time>
      </trkpt>
      <trkpt lat="38.216552" lon="-6.301445">
        <ele>576.808</ele>
        <time>2019-02-25T05:34:54Z</time>
      </trkpt>
      <trkpt lat="38.217136" lon="-6.301680">
        <ele>574.016</ele>
        <time>2019-02-25T05:35:05Z</time>
      </trkpt>
      <trkpt lat="38.217389" lon="-6.301808">
        <ele>572.497</ele>
        <time>2019-02-25T05:35:10Z</time>
      </trkpt>
      <trkpt lat="38.217543" lon="-6.301924">
        <ele>571.718</ele>
        <time>2019-02-25T05:35:13Z</time>
      </trkpt>
      <trkpt lat="38.218090" lon="-6.302399">
        <ele>572.017</ele>
        <time>2019-02-25T05:35:26Z</time>
      </trkpt>
      <trkpt lat="38.218659" lon="-6.302763">
        <ele>570.611</ele>
        <time>2019-02-25T05:35:39Z</time>
      </trkpt>
      <trkpt lat="38.218665" lon="-6.302769">
        <ele>570.714</ele>
        <time>2019-02-25T05:35:43Z</time>
      </trkpt>
      <trkpt lat="38.218975" lon="-6.302871">
        <ele>574.293</ele>
        <time>2019-02-25T05:38:30Z</time>
      </trkpt>
      <trkpt lat="38.219316" lon="-6.302774">
        <ele>575.042</ele>
        <time>2019-02-25T05:38:47Z</time>
      </trkpt>
      <trkpt lat="38.219846" lon="-6.302669">
        <ele>573.154</ele>
        <time>2019-02-25T05:39:01Z</time>
      </trkpt>
      <trkpt lat="38.220427" lon="-6.302637">
        <ele>568.456</ele>
        <time>2019-02-25T05:39:12Z</time>
      </trkpt>
      <trkpt lat="38.220648" lon="-6.302644">
        <ele>567.111</ele>
        <time>2019-02-25T05:39:16Z</time>
      </trkpt>
      <trkpt lat="38.220701" lon="-6.302635">
        <ele>566.908</ele>
        <time>2019-02-25T05:39:17Z</time>
      </trkpt>
      <trkpt lat="38.220800" lon="-6.302605">
        <ele>566.688</ele>
        <time>2019-02-25T05:39:19Z</time>
      </trkpt>
      <trkpt lat="38.220847" lon="-6.302583">
        <ele>566.469</ele>
        <time>2019-02-25T05:39:20Z</time>
      </trkpt>
      <trkpt lat="38.221498" lon="-6.302240">
        <ele>565.440</ele>
        <time>2019-02-25T05:39:35Z</time>
      </trkpt>
      <trkpt lat="38.221496" lon="-6.302243">
        <ele>565.469</ele>
        <time>2019-02-25T05:39:39Z</time>
      </trkpt>
      <trkpt lat="38.221558" lon="-6.302225">
        <ele>565.223</ele>
        <time>2019-02-25T05:40:04Z</time>
      </trkpt>
      <trkpt lat="38.222112" lon="-6.301998">
        <ele>563.456</ele>
        <time>2019-02-25T05:40:18Z</time>
      </trkpt>
      <trkpt lat="38.222475" lon="-6.301898">
        <ele>562.655</ele>
        <time>2019-02-25T05:40:26Z</time>
      </trkpt>
      <trkpt lat="38.223034" lon="-6.301839">
        <ele>563.224</ele>
        <time>2019-02-25T05:40:40Z</time>
      </trkpt>
      <trkpt lat="38.223801" lon="-6.301876">
        <ele>560.719</ele>
        <time>2019-02-25T05:40:55Z</time>
      </trkpt>
      <trkpt lat="38.223849" lon="-6.301876">
        <ele>560.609</ele>
        <time>2019-02-25T05:40:56Z</time>
      </trkpt>
      <trkpt lat="38.224095" lon="-6.301841">
        <ele>559.719</ele>
        <time>2019-02-25T05:41:01Z</time>
      </trkpt>
      <trkpt lat="38.224140" lon="-6.301819">
        <ele>559.608</ele>
        <time>2019-02-25T05:41:02Z</time>
      </trkpt>
      <trkpt lat="38.224598" lon="-6.301535">
        <ele>559.634</ele>
        <time>2019-02-25T05:41:15Z</time>
      </trkpt>
      <trkpt lat="38.225043" lon="-6.301238">
        <ele>558.425</ele>
        <time>2019-02-25T05:41:29Z</time>
      </trkpt>
      <trkpt lat="38.225086" lon="-6.301239">
        <ele>558.386</ele>
        <time>2019-02-25T05:41:30Z</time>
      </trkpt>
      <trkpt lat="38.225131" lon="-6.301250">
        <ele>558.185</ele>
        <time>2019-02-25T05:41:31Z</time>
      </trkpt>
      <trkpt lat="38.225177" lon="-6.301269">
        <ele>557.929</ele>
        <time>2019-02-25T05:41:32Z</time>
      </trkpt>
      <trkpt lat="38.225222" lon="-6.301297">
        <ele>557.772</ele>
        <time>2019-02-25T05:41:33Z</time>
      </trkpt>
      <trkpt lat="38.225265" lon="-6.301336">
        <ele>557.441</ele>
        <time>2019-02-25T05:41:34Z</time>
      </trkpt>
      <trkpt lat="38.225303" lon="-6.301384">
        <ele>557.290</ele>
        <time>2019-02-25T05:41:35Z</time>
      </trkpt>
      <trkpt lat="38.225337" lon="-6.301439">
        <ele>556.957</ele>
        <time>2019-02-25T05:41:36Z</time>
      </trkpt>
      <trkpt lat="38.225410" lon="-6.301545">
        <ele>556.300</ele>
        <time>2019-02-25T05:41:38Z</time>
      </trkpt>
      <trkpt lat="38.225451" lon="-6.301590">
        <ele>556.020</ele>
        <time>2019-02-25T05:41:39Z</time>
      </trkpt>
      <trkpt lat="38.225498" lon="-6.301622">
        <ele>555.708</ele>
        <time>2019-02-25T05:41:40Z</time>
      </trkpt>
      <trkpt lat="38.225548" lon="-6.301638">
        <ele>555.658</ele>
        <time>2019-02-25T05:41:41Z</time>
      </trkpt>
      <trkpt lat="38.225598" lon="-6.301641">
        <ele>555.459</ele>
        <time>2019-02-25T05:41:42Z</time>
      </trkpt>
      <trkpt lat="38.225644" lon="-6.301638">
        <ele>555.440</ele>
        <time>2019-02-25T05:41:43Z</time>
      </trkpt>
      <trkpt lat="38.225685" lon="-6.301638">
        <ele>555.399</ele>
        <time>2019-02-25T05:41:44Z</time>
      </trkpt>
      <trkpt lat="38.226151" lon="-6.301753">
        <ele>557.143</ele>
        <time>2019-02-25T05:42:00Z</time>
      </trkpt>
      <trkpt lat="38.226597" lon="-6.301900">
        <ele>558.946</ele>
        <time>2019-02-25T05:42:19Z</time>
      </trkpt>
      <trkpt lat="38.227069" lon="-6.302076">
        <ele>561.685</ele>
        <time>2019-02-25T05:42:39Z</time>
      </trkpt>
      <trkpt lat="38.227462" lon="-6.302195">
        <ele>561.994</ele>
        <time>2019-02-25T05:42:54Z</time>
      </trkpt>
      <trkpt lat="38.228012" lon="-6.302230">
        <ele>562.169</ele>
        <time>2019-02-25T05:43:14Z</time>
      </trkpt>
      <trkpt lat="38.228420" lon="-6.302207">
        <ele>563.404</ele>
        <time>2019-02-25T05:43:30Z</time>
      </trkpt>
      <trkpt lat="38.228865" lon="-6.302166">
        <ele>564.824</ele>
        <time>2019-02-25T05:43:47Z</time>
      </trkpt>
      <trkpt lat="38.229259" lon="-6.302066">
        <ele>565.808</ele>
        <time>2019-02-25T05:44:05Z</time>
      </trkpt>
      <trkpt lat="38.229581" lon="-6.301952">
        <ele>568.369</ele>
        <time>2019-02-25T05:44:24Z</time>
      </trkpt>
      <trkpt lat="38.229945" lon="-6.301835">
        <ele>570.950</ele>
        <time>2019-02-25T05:44:43Z</time>
      </trkpt>
      <trkpt lat="38.230311" lon="-6.301730">
        <ele>572.421</ele>
        <time>2019-02-25T05:45:01Z</time>
      </trkpt>
      <trkpt lat="38.230326" lon="-6.301728">
        <ele>572.420</ele>
        <time>2019-02-25T05:45:06Z</time>
      </trkpt>
      <trkpt lat="38.230370" lon="-6.301722">
        <ele>572.494</ele>
        <time>2019-02-25T05:45:18Z</time>
      </trkpt>
      <trkpt lat="38.230626" lon="-6.301636">
        <ele>572.537</ele>
        <time>2019-02-25T05:45:31Z</time>
      </trkpt>
      <trkpt lat="38.230766" lon="-6.301614">
        <ele>572.536</ele>
        <time>2019-02-25T05:45:37Z</time>
      </trkpt>
      <trkpt lat="38.231082" lon="-6.301587">
        <ele>572.625</ele>
        <time>2019-02-25T05:45:49Z</time>
      </trkpt>
      <trkpt lat="38.231673" lon="-6.301537">
        <ele>572.449</ele>
        <time>2019-02-25T05:46:08Z</time>
      </trkpt>
      <trkpt lat="38.232162" lon="-6.301562">
        <ele>573.302</ele>
        <time>2019-02-25T05:46:25Z</time>
      </trkpt>
      <trkpt lat="38.232796" lon="-6.301500">
        <ele>575.122</ele>
        <time>2019-02-25T05:46:46Z</time>
      </trkpt>
      <trkpt lat="38.233216" lon="-6.301308">
        <ele>576.708</ele>
        <time>2019-02-25T05:47:03Z</time>
      </trkpt>
      <trkpt lat="38.233721" lon="-6.301387">
        <ele>578.547</ele>
        <time>2019-02-25T05:47:22Z</time>
      </trkpt>
      <trkpt lat="38.234065" lon="-6.301455">
        <ele>579.748</ele>
        <time>2019-02-25T05:47:39Z</time>
      </trkpt>
      <trkpt lat="38.234064" lon="-6.301454">
        <ele>579.779</ele>
        <time>2019-02-25T05:47:40Z</time>
      </trkpt>
      <trkpt lat="38.234099" lon="-6.301468">
        <ele>579.898</ele>
        <time>2019-02-25T05:49:16Z</time>
      </trkpt>
      <trkpt lat="38.234508" lon="-6.301596">
        <ele>580.152</ele>
        <time>2019-02-25T05:49:29Z</time>
      </trkpt>
      <trkpt lat="38.235190" lon="-6.301850">
        <ele>577.845</ele>
        <time>2019-02-25T05:49:45Z</time>
      </trkpt>
      <trkpt lat="38.235334" lon="-6.301912">
        <ele>577.464</ele>
        <time>2019-02-25T05:49:48Z</time>
      </trkpt>
      <trkpt lat="38.235383" lon="-6.301929">
        <ele>577.253</ele>
        <time>2019-02-25T05:49:49Z</time>
      </trkpt>
      <trkpt lat="38.236125" lon="-6.302226">
        <ele>575.143</ele>
        <time>2019-02-25T05:50:05Z</time>
      </trkpt>
      <trkpt lat="38.236733" lon="-6.302460">
        <ele>573.164</ele>
        <time>2019-02-25T05:50:18Z</time>
      </trkpt>
      <trkpt lat="38.237546" lon="-6.302785">
        <ele>570.010</ele>
        <time>2019-02-25T05:50:33Z</time>
      </trkpt>
      <trkpt lat="38.237899" lon="-6.302893">
        <ele>568.408</ele>
        <time>2019-02-25T05:50:39Z</time>
      </trkpt>
      <trkpt lat="38.237951" lon="-6.302918">
        <ele>568.337</ele>
        <time>2019-02-25T05:50:40Z</time>
      </trkpt>
      <trkpt lat="38.238352" lon="-6.303196">
        <ele>567.818</ele>
        <time>2019-02-25T05:50:52Z</time>
      </trkpt>
      <trkpt lat="38.238677" lon="-6.303456">
        <ele>569.629</ele>
        <time>2019-02-25T05:51:07Z</time>
      </trkpt>
      <trkpt lat="38.239068" lon="-6.303726">
        <ele>571.038</ele>
        <time>2019-02-25T05:51:25Z</time>
      </trkpt>
      <trkpt lat="38.239454" lon="-6.303882">
        <ele>574.592</ele>
        <time>2019-02-25T05:53:14Z</time>
      </trkpt>
      <trkpt lat="38.239473" lon="-6.303876">
        <ele>574.795</ele>
        <time>2019-02-25T05:53:15Z</time>
      </trkpt>
      <trkpt lat="38.239687" lon="-6.303809">
        <ele>576.314</ele>
        <time>2019-02-25T05:53:26Z</time>
      </trkpt>
      <trkpt lat="38.239690" lon="-6.303821">
        <ele>576.413</ele>
        <time>2019-02-25T05:53:37Z</time>
      </trkpt>
      <trkpt lat="38.239791" lon="-6.303792">
        <ele>577.032</ele>
        <time>2019-02-25T05:53:46Z</time>
      </trkpt>
      <trkpt lat="38.239895" lon="-6.303763">
        <ele>577.792</ele>
        <time>2019-02-25T05:53:53Z</time>
      </trkpt>
      <trkpt lat="38.240187" lon="-6.303777">
        <ele>579.011</ele>
        <time>2019-02-25T05:54:11Z</time>
      </trkpt>
      <trkpt lat="38.240424" lon="-6.304074">
        <ele>577.808</ele>
        <time>2019-02-25T05:54:25Z</time>
      </trkpt>
      <trkpt lat="38.240834" lon="-6.304623">
        <ele>578.386</ele>
        <time>2019-02-25T05:54:37Z</time>
      </trkpt>
      <trkpt lat="38.241087" lon="-6.304875">
        <ele>579.797</ele>
        <time>2019-02-25T05:54:42Z</time>
      </trkpt>
      <trkpt lat="38.241216" lon="-6.304958">
        <ele>580.478</ele>
        <time>2019-02-25T05:54:45Z</time>
      </trkpt>
      <trkpt lat="38.241252" lon="-6.304971">
        <ele>580.677</ele>
        <time>2019-02-25T05:54:46Z</time>
      </trkpt>
      <trkpt lat="38.241284" lon="-6.304976">
        <ele>580.821</ele>
        <time>2019-02-25T05:54:47Z</time>
      </trkpt>
      <trkpt lat="38.241376" lon="-6.305000">
        <ele>581.224</ele>
        <time>2019-02-25T05:54:52Z</time>
      </trkpt>
      <trkpt lat="38.241433" lon="-6.304990">
        <ele>581.553</ele>
        <time>2019-02-25T05:55:00Z</time>
      </trkpt>
      <trkpt lat="38.241623" lon="-6.304955">
        <ele>581.652</ele>
        <time>2019-02-25T05:55:57Z</time>
      </trkpt>
      <trkpt lat="38.241638" lon="-6.304955">
        <ele>581.624</ele>
        <time>2019-02-25T05:55:58Z</time>
      </trkpt>
      <trkpt lat="38.241653" lon="-6.304951">
        <ele>581.604</ele>
        <time>2019-02-25T05:55:59Z</time>
      </trkpt>
      <trkpt lat="38.241669" lon="-6.304945">
        <ele>581.614</ele>
        <time>2019-02-25T05:56:00Z</time>
      </trkpt>
      <trkpt lat="38.241718" lon="-6.304957">
        <ele>581.608</ele>
        <time>2019-02-25T05:56:03Z</time>
      </trkpt>
      <trkpt lat="38.241732" lon="-6.304976">
        <ele>581.635</ele>
        <time>2019-02-25T05:56:04Z</time>
      </trkpt>
      <trkpt lat="38.241743" lon="-6.304997">
        <ele>581.636</ele>
        <time>2019-02-25T05:56:05Z</time>
      </trkpt>
      <trkpt lat="38.241751" lon="-6.305021">
        <ele>581.697</ele>
        <time>2019-02-25T05:56:06Z</time>
      </trkpt>
      <trkpt lat="38.241753" lon="-6.305133">
        <ele>581.316</ele>
        <time>2019-02-25T05:56:09Z</time>
      </trkpt>
      <trkpt lat="38.241736" lon="-6.305617">
        <ele>580.470</ele>
        <time>2019-02-25T05:56:22Z</time>
      </trkpt>
      <trkpt lat="38.241721" lon="-6.305996">
        <ele>580.563</ele>
        <time>2019-02-25T05:56:34Z</time>
      </trkpt>
      <trkpt lat="38.241693" lon="-6.306398">
        <ele>582.092</ele>
        <time>2019-02-25T05:56:48Z</time>
      </trkpt>
      <trkpt lat="38.241695" lon="-6.306428">
        <ele>582.161</ele>
        <time>2019-02-25T05:56:49Z</time>
      </trkpt>
      <trkpt lat="38.241697" lon="-6.306460">
        <ele>582.343</ele>
        <time>2019-02-25T05:56:50Z</time>
      </trkpt>
      <trkpt lat="38.241694" lon="-6.306492">
        <ele>582.564</ele>
        <time>2019-02-25T05:56:51Z</time>
      </trkpt>
      <trkpt lat="38.241688" lon="-6.306522">
        <ele>582.610</ele>
        <time>2019-02-25T05:56:52Z</time>
      </trkpt>
      <trkpt lat="38.241683" lon="-6.306552">
        <ele>582.808</ele>
        <time>2019-02-25T05:56:53Z</time>
      </trkpt>
      <trkpt lat="38.241680" lon="-6.306584">
        <ele>583.037</ele>
        <time>2019-02-25T05:56:54Z</time>
      </trkpt>
      <trkpt lat="38.241680" lon="-6.306615">
        <ele>583.178</ele>
        <time>2019-02-25T05:56:55Z</time>
      </trkpt>
      <trkpt lat="38.241642" lon="-6.307119">
        <ele>585.759</ele>
        <time>2019-02-25T05:57:15Z</time>
      </trkpt>
      <trkpt lat="38.241639" lon="-6.307617">
        <ele>587.668</ele>
        <time>2019-02-25T05:57:36Z</time>
      </trkpt>
      <trkpt lat="38.241798" lon="-6.307958">
        <ele>587.472</ele>
        <time>2019-02-25T05:57:52Z</time>
      </trkpt>
      <trkpt lat="38.241846" lon="-6.307999">
        <ele>587.455</ele>
        <time>2019-02-25T05:57:57Z</time>
      </trkpt>
      <trkpt lat="38.241877" lon="-6.308079">
        <ele>587.214</ele>
        <time>2019-02-25T05:58:01Z</time>
      </trkpt>
      <trkpt lat="38.242002" lon="-6.308291">
        <ele>586.613</ele>
        <time>2019-02-25T05:58:08Z</time>
      </trkpt>
      <trkpt lat="38.242475" lon="-6.309020">
        <ele>584.964</ele>
        <time>2019-02-25T05:58:22Z</time>
      </trkpt>
      <trkpt lat="38.242732" lon="-6.309430">
        <ele>581.906</ele>
        <time>2019-02-25T05:58:29Z</time>
      </trkpt>
      <trkpt lat="38.242785" lon="-6.309686">
        <ele>579.316</ele>
        <time>2019-02-25T05:58:33Z</time>
      </trkpt>
      <trkpt lat="38.242743" lon="-6.310280">
        <ele>574.008</ele>
        <time>2019-02-25T05:58:45Z</time>
      </trkpt>
      <trkpt lat="38.242624" lon="-6.311126">
        <ele>567.699</ele>
        <time>2019-02-25T05:58:56Z</time>
      </trkpt>
      <trkpt lat="38.242622" lon="-6.311196">
        <ele>567.220</ele>
        <time>2019-02-25T05:58:57Z</time>
      </trkpt>
      <trkpt lat="38.242626" lon="-6.311272">
        <ele>566.831</ele>
        <time>2019-02-25T05:58:58Z</time>
      </trkpt>
      <trkpt lat="38.242640" lon="-6.311355">
        <ele>566.390</ele>
        <time>2019-02-25T05:58:59Z</time>
      </trkpt>
      <trkpt lat="38.242665" lon="-6.311437">
        <ele>566.134</ele>
        <time>2019-02-25T05:59:00Z</time>
      </trkpt>
      <trkpt lat="38.242695" lon="-6.311518">
        <ele>565.877</ele>
        <time>2019-02-25T05:59:01Z</time>
      </trkpt>
      <trkpt lat="38.242963" lon="-6.312143">
        <ele>563.896</ele>
        <time>2019-02-25T05:59:09Z</time>
      </trkpt>
      <trkpt lat="38.243514" lon="-6.312930">
        <ele>564.285</ele>
        <time>2019-02-25T05:59:21Z</time>
      </trkpt>
      <trkpt lat="38.243568" lon="-6.312971">
        <ele>564.448</ele>
        <time>2019-02-25T05:59:22Z</time>
      </trkpt>
      <trkpt lat="38.243623" lon="-6.312995">
        <ele>564.761</ele>
        <time>2019-02-25T05:59:23Z</time>
      </trkpt>
      <trkpt lat="38.243679" lon="-6.312996">
        <ele>564.917</ele>
        <time>2019-02-25T05:59:24Z</time>
      </trkpt>
      <trkpt lat="38.243728" lon="-6.312980">
        <ele>565.608</ele>
        <time>2019-02-25T05:59:25Z</time>
      </trkpt>
      <trkpt lat="38.243770" lon="-6.312954">
        <ele>566.067</ele>
        <time>2019-02-25T05:59:26Z</time>
      </trkpt>
      <trkpt lat="38.243807" lon="-6.312930">
        <ele>566.448</ele>
        <time>2019-02-25T05:59:27Z</time>
      </trkpt>
      <trkpt lat="38.243842" lon="-6.312911">
        <ele>566.729</ele>
        <time>2019-02-25T05:59:28Z</time>
      </trkpt>
      <trkpt lat="38.243872" lon="-6.312898">
        <ele>567.168</ele>
        <time>2019-02-25T05:59:29Z</time>
      </trkpt>
      <trkpt lat="38.244107" lon="-6.312789">
        <ele>568.782</ele>
        <time>2019-02-25T05:59:43Z</time>
      </trkpt>
      <trkpt lat="38.244253" lon="-6.312740">
        <ele>569.375</ele>
        <time>2019-02-25T05:59:52Z</time>
      </trkpt>
      <trkpt lat="38.244265" lon="-6.312728">
        <ele>569.364</ele>
        <time>2019-02-25T05:59:53Z</time>
      </trkpt>
      <trkpt lat="38.244279" lon="-6.312716">
        <ele>569.463</ele>
        <time>2019-02-25T05:59:54Z</time>
      </trkpt>
      <trkpt lat="38.244292" lon="-6.312698">
        <ele>569.575</ele>
        <time>2019-02-25T05:59:55Z</time>
      </trkpt>
      <trkpt lat="38.244516" lon="-6.312335">
        <ele>569.928</ele>
        <time>2019-02-25T06:00:08Z</time>
      </trkpt>
      <trkpt lat="38.244693" lon="-6.312080">
        <ele>569.920</ele>
        <time>2019-02-25T06:00:17Z</time>
      </trkpt>
      <trkpt lat="38.245063" lon="-6.311494">
        <ele>571.108</ele>
        <time>2019-02-25T06:00:35Z</time>
      </trkpt>
      <trkpt lat="38.245203" lon="-6.311253">
        <ele>571.890</ele>
        <time>2019-02-25T06:00:45Z</time>
      </trkpt>
      <trkpt lat="38.245408" lon="-6.310878">
        <ele>573.421</ele>
        <time>2019-02-25T06:00:59Z</time>
      </trkpt>
      <trkpt lat="38.245614" lon="-6.310557">
        <ele>575.622</ele>
        <time>2019-02-25T06:01:16Z</time>
      </trkpt>
      <trkpt lat="38.245782" lon="-6.310403">
        <ele>577.181</ele>
        <time>2019-02-25T06:01:27Z</time>
      </trkpt>
      <trkpt lat="38.245871" lon="-6.310258">
        <ele>578.075</ele>
        <time>2019-02-25T06:01:36Z</time>
      </trkpt>
      <trkpt lat="38.245914" lon="-6.310201">
        <ele>578.428</ele>
        <time>2019-02-25T06:01:40Z</time>
      </trkpt>
      <trkpt lat="38.246133" lon="-6.309978">
        <ele>579.897</ele>
        <time>2019-02-25T06:01:54Z</time>
      </trkpt>
      <trkpt lat="38.246272" lon="-6.309867">
        <ele>580.896</ele>
        <time>2019-02-25T06:02:05Z</time>
      </trkpt>
      <trkpt lat="38.246298" lon="-6.309824">
        <ele>580.955</ele>
        <time>2019-02-25T06:02:08Z</time>
      </trkpt>
      <trkpt lat="38.246429" lon="-6.309668">
        <ele>581.507</ele>
        <time>2019-02-25T06:02:17Z</time>
      </trkpt>
      <trkpt lat="38.246643" lon="-6.309555">
        <ele>582.417</ele>
        <time>2019-02-25T06:02:28Z</time>
      </trkpt>
      <trkpt lat="38.246724" lon="-6.309530">
        <ele>582.608</ele>
        <time>2019-02-25T06:02:36Z</time>
      </trkpt>
      <trkpt lat="38.246798" lon="-6.309420">
        <ele>583.688</ele>
        <time>2019-02-25T06:02:44Z</time>
      </trkpt>
      <trkpt lat="38.246725" lon="-6.309251">
        <ele>584.659</ele>
        <time>2019-02-25T06:02:56Z</time>
      </trkpt>
      <trkpt lat="38.246634" lon="-6.309199">
        <ele>584.880</ele>
        <time>2019-02-25T06:03:02Z</time>
      </trkpt>
      <trkpt lat="38.246587" lon="-6.309119">
        <ele>584.959</ele>
        <time>2019-02-25T06:03:07Z</time>
      </trkpt>
      <trkpt lat="38.246585" lon="-6.309022">
        <ele>585.063</ele>
        <time>2019-02-25T06:03:18Z</time>
      </trkpt>
      <trkpt lat="38.246646" lon="-6.308997">
        <ele>585.166</ele>
        <time>2019-02-25T06:12:23Z</time>
      </trkpt>
      <trkpt lat="38.246560" lon="-6.308933">
        <ele>585.115</ele>
        <time>2019-02-25T06:12:27Z</time>
      </trkpt>
      <trkpt lat="38.246503" lon="-6.308846">
        <ele>585.124</ele>
        <time>2019-02-25T06:12:33Z</time>
      </trkpt>
      <trkpt lat="38.246524" lon="-6.308877">
        <ele>585.191</ele>
        <time>2019-02-25T06:12:36Z</time>
      </trkpt>
      <trkpt lat="38.246554" lon="-6.308859">
        <ele>585.181</ele>
        <time>2019-02-25T06:12:43Z</time>
      </trkpt>
      <trkpt lat="38.246661" lon="-6.308648">
        <ele>585.319</ele>
        <time>2019-02-25T06:12:55Z</time>
      </trkpt>
      <trkpt lat="38.246812" lon="-6.308692">
        <ele>585.108</ele>
        <time>2019-02-25T06:13:05Z</time>
      </trkpt>
      <trkpt lat="38.246839" lon="-6.308673">
        <ele>585.162</ele>
        <time>2019-02-25T06:13:11Z</time>
      </trkpt>
      <trkpt lat="38.246914" lon="-6.308684">
        <ele>585.083</ele>
        <time>2019-02-25T06:13:20Z</time>
      </trkpt>
      <trkpt lat="38.246963" lon="-6.308698">
        <ele>585.064</ele>
        <time>2019-02-25T06:13:23Z</time>
      </trkpt>
      <trkpt lat="38.247037" lon="-6.308736">
        <ele>584.933</ele>
        <time>2019-02-25T06:13:29Z</time>
      </trkpt>
      <trkpt lat="38.247231" lon="-6.308916">
        <ele>583.627</ele>
        <time>2019-02-25T06:13:41Z</time>
      </trkpt>
      <trkpt lat="38.247483" lon="-6.309104">
        <ele>581.780</ele>
        <time>2019-02-25T06:13:51Z</time>
      </trkpt>
      <trkpt lat="38.247809" lon="-6.309265">
        <ele>579.789</ele>
        <time>2019-02-25T06:14:04Z</time>
      </trkpt>
      <trkpt lat="38.248165" lon="-6.309439">
        <ele>578.498</ele>
        <time>2019-02-25T06:14:14Z</time>
      </trkpt>
      <trkpt lat="38.248213" lon="-6.309428">
        <ele>578.426</ele>
        <time>2019-02-25T06:14:15Z</time>
      </trkpt>
      <trkpt lat="38.248260" lon="-6.309420">
        <ele>578.447</ele>
        <time>2019-02-25T06:14:16Z</time>
      </trkpt>
      <trkpt lat="38.248523" lon="-6.309383">
        <ele>578.711</ele>
        <time>2019-02-25T06:14:22Z</time>
      </trkpt>
      <trkpt lat="38.248821" lon="-6.309312">
        <ele>579.308</ele>
        <time>2019-02-25T06:14:32Z</time>
      </trkpt>
      <trkpt lat="38.249163" lon="-6.309429">
        <ele>580.255</ele>
        <time>2019-02-25T06:14:45Z</time>
      </trkpt>
      <trkpt lat="38.249384" lon="-6.309542">
        <ele>580.956</ele>
        <time>2019-02-25T06:14:58Z</time>
      </trkpt>
      <trkpt lat="38.249621" lon="-6.309660">
        <ele>581.987</ele>
        <time>2019-02-25T06:15:11Z</time>
      </trkpt>
      <trkpt lat="38.249921" lon="-6.309737">
        <ele>583.326</ele>
        <time>2019-02-25T06:15:27Z</time>
      </trkpt>
      <trkpt lat="38.250301" lon="-6.309905">
        <ele>583.920</ele>
        <time>2019-02-25T06:15:44Z</time>
      </trkpt>
      <trkpt lat="38.250496" lon="-6.310027">
        <ele>583.873</ele>
        <time>2019-02-25T06:15:52Z</time>
      </trkpt>
      <trkpt lat="38.250517" lon="-6.310017">
        <ele>583.882</ele>
        <time>2019-02-25T06:15:53Z</time>
      </trkpt>
      <trkpt lat="38.250531" lon="-6.309992">
        <ele>583.821</ele>
        <time>2019-02-25T06:15:54Z</time>
      </trkpt>
      <trkpt lat="38.250541" lon="-6.309963">
        <ele>583.814</ele>
        <time>2019-02-25T06:15:55Z</time>
      </trkpt>
      <trkpt lat="38.250552" lon="-6.309935">
        <ele>583.954</ele>
        <time>2019-02-25T06:15:56Z</time>
      </trkpt>
      <trkpt lat="38.250563" lon="-6.309912">
        <ele>584.009</ele>
        <time>2019-02-25T06:15:57Z</time>
      </trkpt>
      <trkpt lat="38.250580" lon="-6.309897">
        <ele>584.008</ele>
        <time>2019-02-25T06:15:58Z</time>
      </trkpt>
      <trkpt lat="38.250600" lon="-6.309889">
        <ele>584.154</ele>
        <time>2019-02-25T06:15:59Z</time>
      </trkpt>
      <trkpt lat="38.250622" lon="-6.309891">
        <ele>584.035</ele>
        <time>2019-02-25T06:16:00Z</time>
      </trkpt>
      <trkpt lat="38.250647" lon="-6.309905">
        <ele>583.946</ele>
        <time>2019-02-25T06:16:01Z</time>
      </trkpt>
      <trkpt lat="38.250672" lon="-6.309929">
        <ele>583.865</ele>
        <time>2019-02-25T06:16:02Z</time>
      </trkpt>
      <trkpt lat="38.250699" lon="-6.309961">
        <ele>583.889</ele>
        <time>2019-02-25T06:16:03Z</time>
      </trkpt>
      <trkpt lat="38.250728" lon="-6.310001">
        <ele>583.652</ele>
        <time>2019-02-25T06:16:04Z</time>
      </trkpt>
      <trkpt lat="38.250844" lon="-6.310142">
        <ele>583.161</ele>
        <time>2019-02-25T06:16:07Z</time>
      </trkpt>
      <trkpt lat="38.250896" lon="-6.310170">
        <ele>582.920</ele>
        <time>2019-02-25T06:16:08Z</time>
      </trkpt>
      <trkpt lat="38.250949" lon="-6.310185">
        <ele>582.766</ele>
        <time>2019-02-25T06:16:09Z</time>
      </trkpt>
      <trkpt lat="38.251104" lon="-6.310194">
        <ele>582.929</ele>
        <time>2019-02-25T06:16:12Z</time>
      </trkpt>
      <trkpt lat="38.251618" lon="-6.310281">
        <ele>584.321</ele>
        <time>2019-02-25T06:16:26Z</time>
      </trkpt>
      <trkpt lat="38.252203" lon="-6.310353">
        <ele>586.208</ele>
        <time>2019-02-25T06:16:45Z</time>
      </trkpt>
      <trkpt lat="38.252785" lon="-6.310376">
        <ele>587.789</ele>
        <time>2019-02-25T06:17:05Z</time>
      </trkpt>
      <trkpt lat="38.253300" lon="-6.310482">
        <ele>589.150</ele>
        <time>2019-02-25T06:17:24Z</time>
      </trkpt>
      <trkpt lat="38.253786" lon="-6.310617">
        <ele>590.231</ele>
        <time>2019-02-25T06:17:42Z</time>
      </trkpt>
      <trkpt lat="38.254303" lon="-6.310677">
        <ele>590.940</ele>
        <time>2019-02-25T06:17:59Z</time>
      </trkpt>
      <trkpt lat="38.255011" lon="-6.310682">
        <ele>592.274</ele>
        <time>2019-02-25T06:18:20Z</time>
      </trkpt>
      <trkpt lat="38.255787" lon="-6.310702">
        <ele>593.657</ele>
        <time>2019-02-25T06:18:44Z</time>
      </trkpt>
      <trkpt lat="38.256382" lon="-6.310741">
        <ele>594.596</ele>
        <time>2019-02-25T06:19:03Z</time>
      </trkpt>
      <trkpt lat="38.257138" lon="-6.310793">
        <ele>595.855</ele>
        <time>2019-02-25T06:19:26Z</time>
      </trkpt>
      <trkpt lat="38.257864" lon="-6.310862">
        <ele>596.176</ele>
        <time>2019-02-25T06:19:48Z</time>
      </trkpt>
      <trkpt lat="38.258588" lon="-6.310967">
        <ele>595.990</ele>
        <time>2019-02-25T06:20:07Z</time>
      </trkpt>
      <trkpt lat="38.259017" lon="-6.310992">
        <ele>595.419</ele>
        <time>2019-02-25T06:20:17Z</time>
      </trkpt>
      <trkpt lat="38.259799" lon="-6.310977">
        <ele>594.508</ele>
        <time>2019-02-25T06:20:34Z</time>
      </trkpt>
      <trkpt lat="38.260633" lon="-6.311102">
        <ele>594.050</ele>
        <time>2019-02-25T06:20:51Z</time>
      </trkpt>
      <trkpt lat="38.260863" lon="-6.311175">
        <ele>593.811</ele>
        <time>2019-02-25T06:20:56Z</time>
      </trkpt>
      <trkpt lat="38.261680" lon="-6.311279">
        <ele>592.542</ele>
        <time>2019-02-25T06:21:12Z</time>
      </trkpt>
      <trkpt lat="38.262522" lon="-6.311318">
        <ele>590.711</ele>
        <time>2019-02-25T06:21:27Z</time>
      </trkpt>
      <trkpt lat="38.263458" lon="-6.311559">
        <ele>590.235</ele>
        <time>2019-02-25T06:21:43Z</time>
      </trkpt>
      <trkpt lat="38.264234" lon="-6.311798">
        <ele>590.758</ele>
        <time>2019-02-25T06:21:59Z</time>
      </trkpt>
      <trkpt lat="38.265215" lon="-6.312080">
        <ele>590.347</ele>
        <time>2019-02-25T06:22:21Z</time>
      </trkpt>
      <trkpt lat="38.266028" lon="-6.312242">
        <ele>588.796</ele>
        <time>2019-02-25T06:22:38Z</time>
      </trkpt>
      <trkpt lat="38.267004" lon="-6.312454">
        <ele>585.715</ele>
        <time>2019-02-25T06:22:55Z</time>
      </trkpt>
      <trkpt lat="38.268140" lon="-6.312814">
        <ele>582.465</ele>
        <time>2019-02-25T06:23:13Z</time>
      </trkpt>
      <trkpt lat="38.269404" lon="-6.313208">
        <ele>579.211</ele>
        <time>2019-02-25T06:23:35Z</time>
      </trkpt>
      <trkpt lat="38.270486" lon="-6.313335">
        <ele>576.008</ele>
        <time>2019-02-25T06:23:54Z</time>
      </trkpt>
      <trkpt lat="38.271539" lon="-6.313343">
        <ele>573.494</ele>
        <time>2019-02-25T06:24:12Z</time>
      </trkpt>
      <trkpt lat="38.272356" lon="-6.313763">
        <ele>572.595</ele>
        <time>2019-02-25T06:24:29Z</time>
      </trkpt>
      <trkpt lat="38.273116" lon="-6.314243">
        <ele>571.066</ele>
        <time>2019-02-25T06:24:46Z</time>
      </trkpt>
      <trkpt lat="38.274210" lon="-6.314764">
        <ele>569.865</ele>
        <time>2019-02-25T06:25:08Z</time>
      </trkpt>
      <trkpt lat="38.275048" lon="-6.315079">
        <ele>570.579</ele>
        <time>2019-02-25T06:25:27Z</time>
      </trkpt>
      <trkpt lat="38.275644" lon="-6.315475">
        <ele>570.872</ele>
        <time>2019-02-25T06:25:44Z</time>
      </trkpt>
      <trkpt lat="38.276301" lon="-6.315859">
        <ele>571.711</ele>
        <time>2019-02-25T06:26:03Z</time>
      </trkpt>
      <trkpt lat="38.276341" lon="-6.315853">
        <ele>571.820</ele>
        <time>2019-02-25T06:26:04Z</time>
      </trkpt>
      <trkpt lat="38.277272" lon="-6.315728">
        <ele>574.373</ele>
        <time>2019-02-25T06:26:28Z</time>
      </trkpt>
      <trkpt lat="38.277956" lon="-6.315744">
        <ele>576.585</ele>
        <time>2019-02-25T06:26:51Z</time>
      </trkpt>
      <trkpt lat="38.278503" lon="-6.315851">
        <ele>578.313</ele>
        <time>2019-02-25T06:27:11Z</time>
      </trkpt>
      <trkpt lat="38.278941" lon="-6.316024">
        <ele>579.708</ele>
        <time>2019-02-25T06:27:28Z</time>
      </trkpt>
      <trkpt lat="38.279493" lon="-6.316229">
        <ele>581.480</ele>
        <time>2019-02-25T06:27:49Z</time>
      </trkpt>
      <trkpt lat="38.280025" lon="-6.316488">
        <ele>583.041</ele>
        <time>2019-02-25T06:28:10Z</time>
      </trkpt>
      <trkpt lat="38.280370" lon="-6.316734">
        <ele>584.272</ele>
        <time>2019-02-25T06:28:25Z</time>
      </trkpt>
      <trkpt lat="38.280857" lon="-6.317142">
        <ele>584.671</ele>
        <time>2019-02-25T06:28:47Z</time>
      </trkpt>
      <trkpt lat="38.281241" lon="-6.317543">
        <ele>584.045</ele>
        <time>2019-02-25T06:29:05Z</time>
      </trkpt>
      <trkpt lat="38.281683" lon="-6.317843">
        <ele>583.998</ele>
        <time>2019-02-25T06:29:20Z</time>
      </trkpt>
      <trkpt lat="38.282175" lon="-6.317986">
        <ele>584.437</ele>
        <time>2019-02-25T06:29:34Z</time>
      </trkpt>
      <trkpt lat="38.282731" lon="-6.318112">
        <ele>585.726</ele>
        <time>2019-02-25T06:29:51Z</time>
      </trkpt>
      <trkpt lat="38.283328" lon="-6.318199">
        <ele>586.666</ele>
        <time>2019-02-25T06:30:11Z</time>
      </trkpt>
      <trkpt lat="38.284008" lon="-6.318260">
        <ele>587.529</ele>
        <time>2019-02-25T06:30:33Z</time>
      </trkpt>
      <trkpt lat="38.284511" lon="-6.318415">
        <ele>588.821</ele>
        <time>2019-02-25T06:30:51Z</time>
      </trkpt>
      <trkpt lat="38.284929" lon="-6.318736">
        <ele>589.708</ele>
        <time>2019-02-25T06:31:09Z</time>
      </trkpt>
      <trkpt lat="38.285340" lon="-6.319123">
        <ele>590.869</ele>
        <time>2019-02-25T06:31:28Z</time>
      </trkpt>
      <trkpt lat="38.285772" lon="-6.319460">
        <ele>591.480</ele>
        <time>2019-02-25T06:31:46Z</time>
      </trkpt>
      <trkpt lat="38.286303" lon="-6.319707">
        <ele>591.771</ele>
        <time>2019-02-25T06:32:05Z</time>
      </trkpt>
      <trkpt lat="38.286897" lon="-6.319780">
        <ele>592.460</ele>
        <time>2019-02-25T06:32:24Z</time>
      </trkpt>
      <trkpt lat="38.287556" lon="-6.319751">
        <ele>592.544</ele>
        <time>2019-02-25T06:32:45Z</time>
      </trkpt>
      <trkpt lat="38.287912" lon="-6.319662">
        <ele>592.157</ele>
        <time>2019-02-25T06:32:59Z</time>
      </trkpt>
      <trkpt lat="38.287907" lon="-6.319659">
        <ele>592.196</ele>
        <time>2019-02-25T06:33:02Z</time>
      </trkpt>
      <trkpt lat="38.287950" lon="-6.319674">
        <ele>592.055</ele>
        <time>2019-02-25T06:33:44Z</time>
      </trkpt>
      <trkpt lat="38.287960" lon="-6.319690">
        <ele>592.013</ele>
        <time>2019-02-25T06:33:45Z</time>
      </trkpt>
      <trkpt lat="38.287971" lon="-6.319708">
        <ele>592.043</ele>
        <time>2019-02-25T06:33:46Z</time>
      </trkpt>
      <trkpt lat="38.287984" lon="-6.319722">
        <ele>592.007</ele>
        <time>2019-02-25T06:33:47Z</time>
      </trkpt>
      <trkpt lat="38.287996" lon="-6.319730">
        <ele>591.908</ele>
        <time>2019-02-25T06:33:48Z</time>
      </trkpt>
      <trkpt lat="38.288008" lon="-6.319734">
        <ele>591.934</ele>
        <time>2019-02-25T06:33:49Z</time>
      </trkpt>
      <trkpt lat="38.288228" lon="-6.319684">
        <ele>591.495</ele>
        <time>2019-02-25T06:34:01Z</time>
      </trkpt>
      <trkpt lat="38.288733" lon="-6.319556">
        <ele>589.596</ele>
        <time>2019-02-25T06:34:14Z</time>
      </trkpt>
      <trkpt lat="38.289669" lon="-6.319377">
        <ele>586.825</ele>
        <time>2019-02-25T06:34:33Z</time>
      </trkpt>
      <trkpt lat="38.289723" lon="-6.319363">
        <ele>586.569</ele>
        <time>2019-02-25T06:34:34Z</time>
      </trkpt>
      <trkpt lat="38.289938" lon="-6.319339">
        <ele>585.722</ele>
        <time>2019-02-25T06:34:38Z</time>
      </trkpt>
      <trkpt lat="38.290500" lon="-6.319219">
        <ele>583.471</ele>
        <time>2019-02-25T06:34:49Z</time>
      </trkpt>
      <trkpt lat="38.291256" lon="-6.319052">
        <ele>578.830</ele>
        <time>2019-02-25T06:35:03Z</time>
      </trkpt>
      <trkpt lat="38.291927" lon="-6.318995">
        <ele>575.058</ele>
        <time>2019-02-25T06:35:13Z</time>
      </trkpt>
      <trkpt lat="38.292508" lon="-6.318931">
        <ele>573.152</ele>
        <time>2019-02-25T06:35:22Z</time>
      </trkpt>
      <trkpt lat="38.293443" lon="-6.318820">
        <ele>571.817</ele>
        <time>2019-02-25T06:35:39Z</time>
      </trkpt>
      <trkpt lat="38.294202" lon="-6.318739">
        <ele>570.608</ele>
        <time>2019-02-25T06:35:54Z</time>
      </trkpt>
      <trkpt lat="38.294301" lon="-6.318742">
        <ele>570.668</ele>
        <time>2019-02-25T06:35:56Z</time>
      </trkpt>
      <trkpt lat="38.294349" lon="-6.318746">
        <ele>570.679</ele>
        <time>2019-02-25T06:35:57Z</time>
      </trkpt>
      <trkpt lat="38.294399" lon="-6.318743">
        <ele>570.630</ele>
        <time>2019-02-25T06:35:58Z</time>
      </trkpt>
      <trkpt lat="38.294761" lon="-6.318709">
        <ele>570.849</ele>
        <time>2019-02-25T06:36:05Z</time>
      </trkpt>
      <trkpt lat="38.294858" lon="-6.318691">
        <ele>570.983</ele>
        <time>2019-02-25T06:36:07Z</time>
      </trkpt>
      <trkpt lat="38.295618" lon="-6.318591">
        <ele>571.796</ele>
        <time>2019-02-25T06:36:23Z</time>
      </trkpt>
      <trkpt lat="38.296457" lon="-6.318508">
        <ele>572.225</ele>
        <time>2019-02-25T06:36:43Z</time>
      </trkpt>
      <trkpt lat="38.297192" lon="-6.318447">
        <ele>570.844</ele>
        <time>2019-02-25T06:37:00Z</time>
      </trkpt>
      <trkpt lat="38.297459" lon="-6.318418">
        <ele>570.251</ele>
        <time>2019-02-25T06:37:10Z</time>
      </trkpt>
      <trkpt lat="38.297457" lon="-6.318419">
        <ele>570.201</ele>
        <time>2019-02-25T06:37:11Z</time>
      </trkpt>
      <trkpt lat="38.297505" lon="-6.318421">
        <ele>570.111</ele>
        <time>2019-02-25T06:37:30Z</time>
      </trkpt>
      <trkpt lat="38.297985" lon="-6.318359">
        <ele>569.008</ele>
        <time>2019-02-25T06:37:43Z</time>
      </trkpt>
      <trkpt lat="38.298030" lon="-6.318359">
        <ele>568.988</ele>
        <time>2019-02-25T06:37:44Z</time>
      </trkpt>
      <trkpt lat="38.298075" lon="-6.318356">
        <ele>568.839</ele>
        <time>2019-02-25T06:37:45Z</time>
      </trkpt>
      <trkpt lat="38.298400" lon="-6.318369">
        <ele>567.850</ele>
        <time>2019-02-25T06:37:53Z</time>
      </trkpt>
      <trkpt lat="38.298437" lon="-6.318364">
        <ele>567.759</ele>
        <time>2019-02-25T06:37:54Z</time>
      </trkpt>
      <trkpt lat="38.298472" lon="-6.318351">
        <ele>567.613</ele>
        <time>2019-02-25T06:37:55Z</time>
      </trkpt>
      <trkpt lat="38.298506" lon="-6.318334">
        <ele>567.536</ele>
        <time>2019-02-25T06:37:56Z</time>
      </trkpt>
      <trkpt lat="38.298538" lon="-6.318318">
        <ele>567.475</ele>
        <time>2019-02-25T06:37:57Z</time>
      </trkpt>
      <trkpt lat="38.298578" lon="-6.318311">
        <ele>567.384</ele>
        <time>2019-02-25T06:37:58Z</time>
      </trkpt>
      <trkpt lat="38.298623" lon="-6.318309">
        <ele>567.325</ele>
        <time>2019-02-25T06:37:59Z</time>
      </trkpt>
      <trkpt lat="38.299175" lon="-6.318243">
        <ele>566.426</ele>
        <time>2019-02-25T06:38:09Z</time>
      </trkpt>
      <trkpt lat="38.299688" lon="-6.318137">
        <ele>564.808</ele>
        <time>2019-02-25T06:38:20Z</time>
      </trkpt>
      <trkpt lat="38.299719" lon="-6.318135">
        <ele>564.708</ele>
        <time>2019-02-25T06:38:25Z</time>
      </trkpt>
      <trkpt lat="38.299734" lon="-6.318131">
        <ele>564.755</ele>
        <time>2019-02-25T06:38:26Z</time>
      </trkpt>
      <trkpt lat="38.299917" lon="-6.318078">
        <ele>564.076</ele>
        <time>2019-02-25T06:38:35Z</time>
      </trkpt>
      <trkpt lat="38.299919" lon="-6.318077">
        <ele>564.047</ele>
        <time>2019-02-25T06:38:38Z</time>
      </trkpt>
      <trkpt lat="38.299924" lon="-6.318017">
        <ele>563.866</ele>
        <time>2019-02-25T06:38:48Z</time>
      </trkpt>
      <trkpt lat="38.299928" lon="-6.318001">
        <ele>563.750</ele>
        <time>2019-02-25T06:38:49Z</time>
      </trkpt>
      <trkpt lat="38.299924" lon="-6.317979">
        <ele>563.753</ele>
        <time>2019-02-25T06:38:59Z</time>
      </trkpt>
      <trkpt lat="38.299890" lon="-6.317905">
        <ele>563.642</ele>
        <time>2019-02-25T06:42:07Z</time>
      </trkpt>
      <trkpt lat="38.299859" lon="-6.317890">
        <ele>563.681</ele>
        <time>2019-02-25T06:42:15Z</time>
      </trkpt>
      <trkpt lat="38.299865" lon="-6.317999">
        <ele>563.774</ele>
        <time>2019-02-25T06:44:59Z</time>
      </trkpt>
      <trkpt lat="38.299860" lon="-6.318023">
        <ele>563.756</ele>
        <time>2019-02-25T06:45:00Z</time>
      </trkpt>
      <trkpt lat="38.299843" lon="-6.318038">
        <ele>563.721</ele>
        <time>2019-02-25T06:45:01Z</time>
      </trkpt>
      <trkpt lat="38.299821" lon="-6.318045">
        <ele>563.708</ele>
        <time>2019-02-25T06:45:02Z</time>
      </trkpt>
      <trkpt lat="38.299799" lon="-6.318050">
        <ele>563.880</ele>
        <time>2019-02-25T06:45:03Z</time>
      </trkpt>
      <trkpt lat="38.299548" lon="-6.318130">
        <ele>565.271</ele>
        <time>2019-02-25T06:45:15Z</time>
      </trkpt>
      <trkpt lat="38.299164" lon="-6.318204">
        <ele>566.352</ele>
        <time>2019-02-25T06:45:31Z</time>
      </trkpt>
      <trkpt lat="38.298923" lon="-6.318243">
        <ele>566.731</ele>
        <time>2019-02-25T06:45:42Z</time>
      </trkpt>
      <trkpt lat="38.298546" lon="-6.318318">
        <ele>567.435</ele>
        <time>2019-02-25T06:45:58Z</time>
      </trkpt>
      <trkpt lat="38.298304" lon="-6.318202">
        <ele>567.868</ele>
        <time>2019-02-25T06:46:11Z</time>
      </trkpt>
      <trkpt lat="38.298302" lon="-6.318201">
        <ele>567.877</ele>
        <time>2019-02-25T06:46:15Z</time>
      </trkpt>
      <trkpt lat="38.298283" lon="-6.318146">
        <ele>567.916</ele>
        <time>2019-02-25T06:46:32Z</time>
      </trkpt>
      <trkpt lat="38.298057" lon="-6.317681">
        <ele>567.857</ele>
        <time>2019-02-25T06:46:45Z</time>
      </trkpt>
      <trkpt lat="38.297847" lon="-6.316794">
        <ele>565.900</ele>
        <time>2019-02-25T06:47:00Z</time>
      </trkpt>
      <trkpt lat="38.297835" lon="-6.316725">
        <ele>565.820</ele>
        <time>2019-02-25T06:47:01Z</time>
      </trkpt>
      <trkpt lat="38.297686" lon="-6.315476">
        <ele>563.908</ele>
        <time>2019-02-25T06:47:18Z</time>
      </trkpt>
      <trkpt lat="38.297691" lon="-6.315405">
        <ele>563.998</ele>
        <time>2019-02-25T06:47:19Z</time>
      </trkpt>
      <trkpt lat="38.297894" lon="-6.314284">
        <ele>563.279</ele>
        <time>2019-02-25T06:47:35Z</time>
      </trkpt>
      <trkpt lat="38.297990" lon="-6.313818">
        <ele>562.560</ele>
        <time>2019-02-25T06:47:45Z</time>
      </trkpt>
      <trkpt lat="38.298029" lon="-6.313434">
        <ele>561.649</ele>
        <time>2019-02-25T06:47:53Z</time>
      </trkpt>
      <trkpt lat="38.298028" lon="-6.312341">
        <ele>558.793</ele>
        <time>2019-02-25T06:48:05Z</time>
      </trkpt>
      <trkpt lat="38.297998" lon="-6.311247">
        <ele>555.326</ele>
        <time>2019-02-25T06:48:16Z</time>
      </trkpt>
      <trkpt lat="38.298006" lon="-6.311165">
        <ele>555.055</ele>
        <time>2019-02-25T06:48:17Z</time>
      </trkpt>
      <trkpt lat="38.298019" lon="-6.311094">
        <ele>554.714</ele>
        <time>2019-02-25T06:48:18Z</time>
      </trkpt>
      <trkpt lat="38.298044" lon="-6.311038">
        <ele>554.458</ele>
        <time>2019-02-25T06:48:19Z</time>
      </trkpt>
      <trkpt lat="38.298080" lon="-6.311005">
        <ele>554.552</ele>
        <time>2019-02-25T06:48:20Z</time>
      </trkpt>
      <trkpt lat="38.298121" lon="-6.311000">
        <ele>554.617</ele>
        <time>2019-02-25T06:48:21Z</time>
      </trkpt>
      <trkpt lat="38.298159" lon="-6.311010">
        <ele>554.708</ele>
        <time>2019-02-25T06:48:22Z</time>
      </trkpt>
      <trkpt lat="38.298191" lon="-6.311023">
        <ele>554.898</ele>
        <time>2019-02-25T06:48:23Z</time>
      </trkpt>
      <trkpt lat="38.298223" lon="-6.311038">
        <ele>554.949</ele>
        <time>2019-02-25T06:48:24Z</time>
      </trkpt>
      <trkpt lat="38.298539" lon="-6.311005">
        <ele>553.710</ele>
        <time>2019-02-25T06:48:36Z</time>
      </trkpt>
      <trkpt lat="38.299232" lon="-6.311051">
        <ele>549.669</ele>
        <time>2019-02-25T06:48:50Z</time>
      </trkpt>
      <trkpt lat="38.299760" lon="-6.311109">
        <ele>547.993</ele>
        <time>2019-02-25T06:48:58Z</time>
      </trkpt>
      <trkpt lat="38.299830" lon="-6.311127">
        <ele>547.866</ele>
        <time>2019-02-25T06:48:59Z</time>
      </trkpt>
      <trkpt lat="38.300482" lon="-6.311292">
        <ele>548.695</ele>
        <time>2019-02-25T06:49:10Z</time>
      </trkpt>
      <trkpt lat="38.300799" lon="-6.311399">
        <ele>548.314</ele>
        <time>2019-02-25T06:49:22Z</time>
      </trkpt>
      <trkpt lat="38.300800" lon="-6.311408">
        <ele>548.365</ele>
        <time>2019-02-25T06:49:25Z</time>
      </trkpt>
      <trkpt lat="38.300765" lon="-6.311359">
        <ele>548.368</ele>
        <time>2019-02-25T22:52:54Z</time>
      </trkpt>
      <trkpt lat="38.300764" lon="-6.311359">
        <ele>548.314</ele>
        <time>2019-02-25T22:52:55Z</time>
      </trkpt>
      <trkpt lat="38.300761" lon="-6.311355">
        <ele>548.308</ele>
        <time>2019-02-25T22:52:56Z</time>
      </trkpt>
      <trkpt lat="38.300673" lon="-6.311326">
        <ele>548.499</ele>
        <time>2019-02-25T22:53:01Z</time>
      </trkpt>
      <trkpt lat="38.300646" lon="-6.311325">
        <ele>548.440</ele>
        <time>2019-02-25T22:53:02Z</time>
      </trkpt>
      <trkpt lat="38.300615" lon="-6.311319">
        <ele>548.491</ele>
        <time>2019-02-25T22:53:03Z</time>
      </trkpt>
      <trkpt lat="38.300585" lon="-6.311312">
        <ele>548.510</ele>
        <time>2019-02-25T22:53:04Z</time>
      </trkpt>
      <trkpt lat="38.300072" lon="-6.311210">
        <ele>548.084</ele>
        <time>2019-02-25T22:53:20Z</time>
      </trkpt>
      <trkpt lat="38.300045" lon="-6.311209">
        <ele>548.097</ele>
        <time>2019-02-25T22:53:26Z</time>
      </trkpt>
      <trkpt lat="38.299993" lon="-6.311237">
        <ele>548.096</ele>
        <time>2019-02-25T22:53:46Z</time>
      </trkpt>
      <trkpt lat="38.299975" lon="-6.311240">
        <ele>548.035</ele>
        <time>2019-02-25T22:53:47Z</time>
      </trkpt>
      <trkpt lat="38.299957" lon="-6.311240">
        <ele>548.034</ele>
        <time>2019-02-25T22:53:48Z</time>
      </trkpt>
      <trkpt lat="38.299937" lon="-6.311230">
        <ele>547.955</ele>
        <time>2019-02-25T22:53:49Z</time>
      </trkpt>
      <trkpt lat="38.299919" lon="-6.311215">
        <ele>547.910</ele>
        <time>2019-02-25T22:53:50Z</time>
      </trkpt>
      <trkpt lat="38.299901" lon="-6.311198">
        <ele>547.808</ele>
        <time>2019-02-25T22:53:51Z</time>
      </trkpt>
      <trkpt lat="38.299883" lon="-6.311184">
        <ele>547.876</ele>
        <time>2019-02-25T22:53:52Z</time>
      </trkpt>
      <trkpt lat="38.299551" lon="-6.311073">
        <ele>548.157</ele>
        <time>2019-02-25T22:54:08Z</time>
      </trkpt>
      <trkpt lat="38.299161" lon="-6.311066">
        <ele>550.178</ele>
        <time>2019-02-25T22:54:26Z</time>
      </trkpt>
      <trkpt lat="38.298713" lon="-6.311041">
        <ele>553.067</ele>
        <time>2019-02-25T22:54:46Z</time>
      </trkpt>
      <trkpt lat="38.298247" lon="-6.311090">
        <ele>555.091</ele>
        <time>2019-02-25T22:55:04Z</time>
      </trkpt>
      <trkpt lat="38.298027" lon="-6.311047">
        <ele>554.464</ele>
        <time>2019-02-25T22:55:10Z</time>
      </trkpt>
      <trkpt lat="38.297998" lon="-6.311079">
        <ele>554.493</ele>
        <time>2019-02-25T22:55:11Z</time>
      </trkpt>
      <trkpt lat="38.297986" lon="-6.311121">
        <ele>554.862</ele>
        <time>2019-02-25T22:55:12Z</time>
      </trkpt>
      <trkpt lat="38.297989" lon="-6.311165">
        <ele>555.043</ele>
        <time>2019-02-25T22:55:13Z</time>
      </trkpt>
      <trkpt lat="38.297993" lon="-6.311207">
        <ele>555.164</ele>
        <time>2019-02-25T22:55:14Z</time>
      </trkpt>
      <trkpt lat="38.298015" lon="-6.311841">
        <ele>557.010</ele>
        <time>2019-02-25T22:55:30Z</time>
      </trkpt>
      <trkpt lat="38.298043" lon="-6.312521">
        <ele>559.308</ele>
        <time>2019-02-25T22:55:48Z</time>
      </trkpt>
      <trkpt lat="38.298060" lon="-6.313169">
        <ele>561.187</ele>
        <time>2019-02-25T22:56:08Z</time>
      </trkpt>
      <trkpt lat="38.298026" lon="-6.313697">
        <ele>562.238</ele>
        <time>2019-02-25T22:56:25Z</time>
      </trkpt>
      <trkpt lat="38.297992" lon="-6.313847">
        <ele>562.679</ele>
        <time>2019-02-25T22:56:31Z</time>
      </trkpt>
      <trkpt lat="38.297989" lon="-6.313878">
        <ele>562.748</ele>
        <time>2019-02-25T22:56:32Z</time>
      </trkpt>
      <trkpt lat="38.297983" lon="-6.313908">
        <ele>562.722</ele>
        <time>2019-02-25T22:56:33Z</time>
      </trkpt>
      <trkpt lat="38.297976" lon="-6.313939">
        <ele>562.855</ele>
        <time>2019-02-25T22:56:34Z</time>
      </trkpt>
      <trkpt lat="38.297971" lon="-6.313969">
        <ele>562.964</ele>
        <time>2019-02-25T22:56:35Z</time>
      </trkpt>
      <trkpt lat="38.297965" lon="-6.313997">
        <ele>563.023</ele>
        <time>2019-02-25T22:56:36Z</time>
      </trkpt>
      <trkpt lat="38.297855" lon="-6.314540">
        <ele>563.242</ele>
        <time>2019-02-25T22:56:54Z</time>
      </trkpt>
      <trkpt lat="38.297740" lon="-6.315120">
        <ele>563.822</ele>
        <time>2019-02-25T22:57:09Z</time>
      </trkpt>
      <trkpt lat="38.297709" lon="-6.315797">
        <ele>564.014</ele>
        <time>2019-02-25T22:57:24Z</time>
      </trkpt>
      <trkpt lat="38.297828" lon="-6.316596">
        <ele>565.508</ele>
        <time>2019-02-25T22:57:43Z</time>
      </trkpt>
      <trkpt lat="38.297917" lon="-6.317182">
        <ele>566.557</ele>
        <time>2019-02-25T22:57:59Z</time>
      </trkpt>
      <trkpt lat="38.298158" lon="-6.317828">
        <ele>567.978</ele>
        <time>2019-02-25T22:58:17Z</time>
      </trkpt>
      <trkpt lat="38.298379" lon="-6.318287">
        <ele>567.969</ele>
        <time>2019-02-25T22:58:31Z</time>
      </trkpt>
      <trkpt lat="38.298407" lon="-6.318295">
        <ele>567.928</ele>
        <time>2019-02-25T22:58:32Z</time>
      </trkpt>
      <trkpt lat="38.298538" lon="-6.318313">
        <ele>567.422</ele>
        <time>2019-02-25T22:58:35Z</time>
      </trkpt>
      <trkpt lat="38.299128" lon="-6.318257">
        <ele>566.445</ele>
        <time>2019-02-25T22:58:45Z</time>
      </trkpt>
      <trkpt lat="38.299762" lon="-6.318111">
        <ele>564.474</ele>
        <time>2019-02-25T22:58:55Z</time>
      </trkpt>
      <trkpt lat="38.299810" lon="-6.318095">
        <ele>564.253</ele>
        <time>2019-02-25T22:58:56Z</time>
      </trkpt>
      <trkpt lat="38.299858" lon="-6.318086">
        <ele>564.094</ele>
        <time>2019-02-25T22:58:57Z</time>
      </trkpt>
      <trkpt lat="38.299908" lon="-6.318075">
        <ele>563.857</ele>
        <time>2019-02-25T22:58:58Z</time>
      </trkpt>
      <trkpt lat="38.299954" lon="-6.318067">
        <ele>563.722</ele>
        <time>2019-02-25T22:58:59Z</time>
      </trkpt>
      <trkpt lat="38.300002" lon="-6.318063">
        <ele>563.708</ele>
        <time>2019-02-25T22:59:00Z</time>
      </trkpt>
      <trkpt lat="38.300049" lon="-6.318067">
        <ele>563.672</ele>
        <time>2019-02-25T22:59:01Z</time>
      </trkpt>
      <trkpt lat="38.300094" lon="-6.318072">
        <ele>563.623</ele>
        <time>2019-02-25T22:59:02Z</time>
      </trkpt>
      <trkpt lat="38.300342" lon="-6.318057">
        <ele>563.374</ele>
        <time>2019-02-25T22:59:11Z</time>
      </trkpt>
      <trkpt lat="38.300380" lon="-6.318035">
        <ele>563.463</ele>
        <time>2019-02-25T22:59:13Z</time>
      </trkpt>
      <trkpt lat="38.300397" lon="-6.318006">
        <ele>563.487</ele>
        <time>2019-02-25T22:59:14Z</time>
      </trkpt>
      <trkpt lat="38.300411" lon="-6.317976">
        <ele>563.420</ele>
        <time>2019-02-25T22:59:15Z</time>
      </trkpt>
      <trkpt lat="38.300557" lon="-6.317544">
        <ele>562.319</ele>
        <time>2019-02-25T22:59:26Z</time>
      </trkpt>
      <trkpt lat="38.300583" lon="-6.317522">
        <ele>562.278</ele>
        <time>2019-02-25T22:59:27Z</time>
      </trkpt>
      <trkpt lat="38.300615" lon="-6.317506">
        <ele>562.154</ele>
        <time>2019-02-25T22:59:28Z</time>
      </trkpt>
      <trkpt lat="38.300650" lon="-6.317501">
        <ele>562.156</ele>
        <time>2019-02-25T22:59:29Z</time>
      </trkpt>
      <trkpt lat="38.300681" lon="-6.317503">
        <ele>562.111</ele>
        <time>2019-02-25T22:59:30Z</time>
      </trkpt>
      <trkpt lat="38.300714" lon="-6.317508">
        <ele>562.108</ele>
        <time>2019-02-25T22:59:31Z</time>
      </trkpt>
      <trkpt lat="38.301087" lon="-6.317546">
        <ele>562.678</ele>
        <time>2019-02-25T22:59:44Z</time>
      </trkpt>
      <trkpt lat="38.301192" lon="-6.317534">
        <ele>562.969</ele>
        <time>2019-02-25T22:59:53Z</time>
      </trkpt>
      <trkpt lat="38.301193" lon="-6.317607">
        <ele>562.910</ele>
        <time>2019-02-25T23:00:08Z</time>
      </trkpt>
      <trkpt lat="38.301189" lon="-6.317627">
        <ele>562.999</ele>
        <time>2019-02-25T23:00:09Z</time>
      </trkpt>
      <trkpt lat="38.301192" lon="-6.317642">
        <ele>562.993</ele>
        <time>2019-02-25T23:00:10Z</time>
      </trkpt>
      <trkpt lat="38.301197" lon="-6.317653">
        <ele>563.196</ele>
        <time>2019-02-25T23:00:11Z</time>
      </trkpt>
      <trkpt lat="38.301204" lon="-6.317664">
        <ele>563.175</ele>
        <time>2019-02-25T23:00:12Z</time>
      </trkpt>
      <trkpt lat="38.301224" lon="-6.317671">
        <ele>563.154</ele>
        <time>2019-02-25T23:00:14Z</time>
      </trkpt>
      <trkpt lat="38.301238" lon="-6.317670">
        <ele>563.188</ele>
        <time>2019-02-25T23:00:15Z</time>
      </trkpt>
      <trkpt lat="38.301456" lon="-6.317658">
        <ele>563.324</ele>
        <time>2019-02-25T23:00:26Z</time>
      </trkpt>
      <trkpt lat="38.301480" lon="-6.317655">
        <ele>563.326</ele>
        <time>2019-02-25T23:00:27Z</time>
      </trkpt>
      <trkpt lat="38.301502" lon="-6.317660">
        <ele>563.308</ele>
        <time>2019-02-25T23:00:28Z</time>
      </trkpt>
      <trkpt lat="38.301524" lon="-6.317660">
        <ele>563.381</ele>
        <time>2019-02-25T23:00:29Z</time>
      </trkpt>
      <trkpt lat="38.301549" lon="-6.317651">
        <ele>563.312</ele>
        <time>2019-02-25T23:00:30Z</time>
      </trkpt>
      <trkpt lat="38.301578" lon="-6.317640">
        <ele>563.243</ele>
        <time>2019-02-25T23:00:31Z</time>
      </trkpt>
      <trkpt lat="38.301859" lon="-6.317580">
        <ele>562.762</ele>
        <time>2019-02-25T23:00:41Z</time>
      </trkpt>
      <trkpt lat="38.302157" lon="-6.317520">
        <ele>561.476</ele>
        <time>2019-02-25T23:00:50Z</time>
      </trkpt>
      <trkpt lat="38.302767" lon="-6.317572">
        <ele>557.329</ele>
        <time>2019-02-25T23:01:03Z</time>
      </trkpt>
      <trkpt lat="38.303180" lon="-6.317627">
        <ele>556.368</ele>
        <time>2019-02-25T23:01:14Z</time>
      </trkpt>
      <trkpt lat="38.303560" lon="-6.317577">
        <ele>555.367</ele>
        <time>2019-02-25T23:01:27Z</time>
      </trkpt>
      <trkpt lat="38.304043" lon="-6.317526">
        <ele>554.414</ele>
        <time>2019-02-25T23:01:43Z</time>
      </trkpt>
      <trkpt lat="38.304542" lon="-6.317503">
        <ele>553.354</ele>
        <time>2019-02-25T23:02:00Z</time>
      </trkpt>
      <trkpt lat="38.305104" lon="-6.317530">
        <ele>551.309</ele>
        <time>2019-02-25T23:02:16Z</time>
      </trkpt>
      <trkpt lat="38.305698" lon="-6.317592">
        <ele>548.708</ele>
        <time>2019-02-25T23:02:32Z</time>
      </trkpt>
      <trkpt lat="38.306178" lon="-6.317685">
        <ele>547.384</ele>
        <time>2019-02-25T23:02:47Z</time>
      </trkpt>
      <trkpt lat="38.306500" lon="-6.317766">
        <ele>547.115</ele>
        <time>2019-02-25T23:03:01Z</time>
      </trkpt>
      <trkpt lat="38.306894" lon="-6.317838">
        <ele>547.716</ele>
        <time>2019-02-25T23:03:18Z</time>
      </trkpt>
      <trkpt lat="38.307257" lon="-6.317759">
        <ele>548.315</ele>
        <time>2019-02-25T23:03:32Z</time>
      </trkpt>
      <trkpt lat="38.307619" lon="-6.317626">
        <ele>548.029</ele>
        <time>2019-02-25T23:03:46Z</time>
      </trkpt>
      <trkpt lat="38.308093" lon="-6.317476">
        <ele>546.712</ele>
        <time>2019-02-25T23:04:03Z</time>
      </trkpt>
      <trkpt lat="38.308704" lon="-6.317371">
        <ele>547.641</ele>
        <time>2019-02-25T23:04:19Z</time>
      </trkpt>
      <trkpt lat="38.308744" lon="-6.317366">
        <ele>547.970</ele>
        <time>2019-02-25T23:04:20Z</time>
      </trkpt>
      <trkpt lat="38.309168" lon="-6.317179">
        <ele>550.167</ele>
        <time>2019-02-25T23:04:34Z</time>
      </trkpt>
      <trkpt lat="38.309374" lon="-6.316899">
        <ele>550.681</ele>
        <time>2019-02-25T23:04:47Z</time>
      </trkpt>
      <trkpt lat="38.309450" lon="-6.316745">
        <ele>550.519</ele>
        <time>2019-02-25T23:05:01Z</time>
      </trkpt>
      <trkpt lat="38.309451" lon="-6.316752">
        <ele>550.508</ele>
        <time>2019-02-25T23:05:02Z</time>
      </trkpt>
      <trkpt lat="38.309395" lon="-6.316823">
        <ele>550.659</ele>
        <time>2019-02-25T23:05:09Z</time>
      </trkpt>
      <trkpt lat="38.309387" lon="-6.316840">
        <ele>550.660</ele>
        <time>2019-02-25T23:05:10Z</time>
      </trkpt>
      <trkpt lat="38.309379" lon="-6.316857">
        <ele>550.631</ele>
        <time>2019-02-25T23:05:11Z</time>
      </trkpt>
      <trkpt lat="38.309371" lon="-6.316874">
        <ele>550.670</ele>
        <time>2019-02-25T23:05:12Z</time>
      </trkpt>
      <trkpt lat="38.309363" lon="-6.316889">
        <ele>550.684</ele>
        <time>2019-02-25T23:05:13Z</time>
      </trkpt>
      <trkpt lat="38.309355" lon="-6.316903">
        <ele>550.787</ele>
        <time>2019-02-25T23:05:14Z</time>
      </trkpt>
      <trkpt lat="38.309350" lon="-6.316918">
        <ele>551.016</ele>
        <time>2019-02-25T23:05:15Z</time>
      </trkpt>
      <trkpt lat="38.309347" lon="-6.316933">
        <ele>551.115</ele>
        <time>2019-02-25T23:05:16Z</time>
      </trkpt>
      <trkpt lat="38.309348" lon="-6.316949">
        <ele>551.274</ele>
        <time>2019-02-25T23:05:17Z</time>
      </trkpt>
      <trkpt lat="38.309352" lon="-6.316962">
        <ele>551.356</ele>
        <time>2019-02-25T23:05:18Z</time>
      </trkpt>
      <trkpt lat="38.309388" lon="-6.316973">
        <ele>551.521</ele>
        <time>2019-02-25T23:05:24Z</time>
      </trkpt>
      <trkpt lat="38.309526" lon="-6.316836">
        <ele>552.308</ele>
        <time>2019-02-25T23:06:15Z</time>
      </trkpt>
      <trkpt lat="38.309542" lon="-6.316823">
        <ele>552.460</ele>
        <time>2019-02-25T23:06:16Z</time>
      </trkpt>
      <trkpt lat="38.309889" lon="-6.316669">
        <ele>553.861</ele>
        <time>2019-02-25T23:06:32Z</time>
      </trkpt>
      <trkpt lat="38.310376" lon="-6.316616">
        <ele>555.162</ele>
        <time>2019-02-25T23:06:52Z</time>
      </trkpt>
      <trkpt lat="38.310866" lon="-6.316726">
        <ele>554.441</ele>
        <time>2019-02-25T23:07:09Z</time>
      </trkpt>
      <trkpt lat="38.311283" lon="-6.316989">
        <ele>551.615</ele>
        <time>2019-02-25T23:07:22Z</time>
      </trkpt>
      <trkpt lat="38.311630" lon="-6.317132">
        <ele>548.188</ele>
        <time>2019-02-25T23:07:35Z</time>
      </trkpt>
      <trkpt lat="38.311944" lon="-6.317138">
        <ele>545.357</ele>
        <time>2019-02-25T23:07:46Z</time>
      </trkpt>
      <trkpt lat="38.312244" lon="-6.317184">
        <ele>543.216</ele>
        <time>2019-02-25T23:07:58Z</time>
      </trkpt>
      <trkpt lat="38.312585" lon="-6.317293">
        <ele>541.462</ele>
        <time>2019-02-25T23:08:12Z</time>
      </trkpt>
      <trkpt lat="38.312957" lon="-6.317365">
        <ele>540.183</ele>
        <time>2019-02-25T23:08:25Z</time>
      </trkpt>
      <trkpt lat="38.313486" lon="-6.317427">
        <ele>538.611</ele>
        <time>2019-02-25T23:08:43Z</time>
      </trkpt>
      <trkpt lat="38.313943" lon="-6.317505">
        <ele>537.308</ele>
        <time>2019-02-25T23:08:59Z</time>
      </trkpt>
      <trkpt lat="38.314366" lon="-6.317621">
        <ele>536.189</ele>
        <time>2019-02-25T23:09:15Z</time>
      </trkpt>
      <trkpt lat="38.314653" lon="-6.317726">
        <ele>535.480</ele>
        <time>2019-02-25T23:09:29Z</time>
      </trkpt>
      <trkpt lat="38.315018" lon="-6.317895">
        <ele>534.741</ele>
        <time>2019-02-25T23:09:45Z</time>
      </trkpt>
      <trkpt lat="38.315348" lon="-6.317955">
        <ele>534.460</ele>
        <time>2019-02-25T23:10:00Z</time>
      </trkpt>
      <trkpt lat="38.315849" lon="-6.317803">
        <ele>535.314</ele>
        <time>2019-02-25T23:10:19Z</time>
      </trkpt>
      <trkpt lat="38.316196" lon="-6.317788">
        <ele>536.837</ele>
        <time>2019-02-25T23:10:37Z</time>
      </trkpt>
      <trkpt lat="38.316486" lon="-6.317791">
        <ele>538.666</ele>
        <time>2019-02-25T23:10:53Z</time>
      </trkpt>
      <trkpt lat="38.316768" lon="-6.317766">
        <ele>540.175</ele>
        <time>2019-02-25T23:11:08Z</time>
      </trkpt>
      <trkpt lat="38.317237" lon="-6.317854">
        <ele>541.169</ele>
        <time>2019-02-25T23:11:27Z</time>
      </trkpt>
      <trkpt lat="38.317541" lon="-6.317966">
        <ele>541.304</ele>
        <time>2019-02-25T23:11:41Z</time>
      </trkpt>
      <trkpt lat="38.317990" lon="-6.318117">
        <ele>540.324</ele>
        <time>2019-02-25T23:11:55Z</time>
      </trkpt>
      <trkpt lat="38.318685" lon="-6.318355">
        <ele>537.108</ele>
        <time>2019-02-25T23:12:11Z</time>
      </trkpt>
      <trkpt lat="38.319157" lon="-6.318527">
        <ele>534.099</ele>
        <time>2019-02-25T23:12:22Z</time>
      </trkpt>
      <trkpt lat="38.319511" lon="-6.318662">
        <ele>531.090</ele>
        <time>2019-02-25T23:12:32Z</time>
      </trkpt>
      <trkpt lat="38.319842" lon="-6.318814">
        <ele>527.571</ele>
        <time>2019-02-25T23:12:41Z</time>
      </trkpt>
      <trkpt lat="38.320125" lon="-6.318959">
        <ele>524.750</ele>
        <time>2019-02-25T23:12:48Z</time>
      </trkpt>
      <trkpt lat="38.320430" lon="-6.319128">
        <ele>522.384</ele>
        <time>2019-02-25T23:12:55Z</time>
      </trkpt>
      <trkpt lat="38.320475" lon="-6.319157">
        <ele>521.957</ele>
        <time>2019-02-25T23:12:56Z</time>
      </trkpt>
      <trkpt lat="38.320849" lon="-6.319339">
        <ele>519.656</ele>
        <time>2019-02-25T23:13:04Z</time>
      </trkpt>
      <trkpt lat="38.321039" lon="-6.319388">
        <ele>518.765</ele>
        <time>2019-02-25T23:13:08Z</time>
      </trkpt>
      <trkpt lat="38.321389" lon="-6.319480">
        <ele>517.584</ele>
        <time>2019-02-25T23:13:17Z</time>
      </trkpt>
      <trkpt lat="38.322068" lon="-6.319797">
        <ele>515.107</ele>
        <time>2019-02-25T23:13:32Z</time>
      </trkpt>
      <trkpt lat="38.322840" lon="-6.320178">
        <ele>511.517</ele>
        <time>2019-02-25T23:13:47Z</time>
      </trkpt>
      <trkpt lat="38.323473" lon="-6.320486">
        <ele>508.408</ele>
        <time>2019-02-25T23:14:00Z</time>
      </trkpt>
      <trkpt lat="38.324202" lon="-6.320861">
        <ele>505.171</ele>
        <time>2019-02-25T23:14:17Z</time>
      </trkpt>
      <trkpt lat="38.324784" lon="-6.321124">
        <ele>502.212</ele>
        <time>2019-02-25T23:14:32Z</time>
      </trkpt>
      <trkpt lat="38.325027" lon="-6.321199">
        <ele>500.623</ele>
        <time>2019-02-25T23:14:43Z</time>
      </trkpt>
      <trkpt lat="38.325026" lon="-6.321196">
        <ele>500.672</ele>
        <time>2019-02-25T23:14:46Z</time>
      </trkpt>
      <trkpt lat="38.325087" lon="-6.321200">
        <ele>500.316</ele>
        <time>2019-02-25T23:14:52Z</time>
      </trkpt>
      <trkpt lat="38.325285" lon="-6.321041">
        <ele>499.399</ele>
        <time>2019-02-25T23:15:03Z</time>
      </trkpt>
      <trkpt lat="38.325565" lon="-6.321208">
        <ele>498.188</ele>
        <time>2019-02-25T23:15:13Z</time>
      </trkpt>
      <trkpt lat="38.325649" lon="-6.321258">
        <ele>497.817</ele>
        <time>2019-02-25T23:15:15Z</time>
      </trkpt>
      <trkpt lat="38.325743" lon="-6.321292">
        <ele>497.644</ele>
        <time>2019-02-25T23:15:17Z</time>
      </trkpt>
      <trkpt lat="38.325792" lon="-6.321303">
        <ele>497.605</ele>
        <time>2019-02-25T23:15:18Z</time>
      </trkpt>
      <trkpt lat="38.325843" lon="-6.321309">
        <ele>497.515</ele>
        <time>2019-02-25T23:15:19Z</time>
      </trkpt>
      <trkpt lat="38.325895" lon="-6.321310">
        <ele>497.408</ele>
        <time>2019-02-25T23:15:20Z</time>
      </trkpt>
      <trkpt lat="38.325947" lon="-6.321308">
        <ele>497.317</ele>
        <time>2019-02-25T23:15:21Z</time>
      </trkpt>
      <trkpt lat="38.326503" lon="-6.321284">
        <ele>497.568</ele>
        <time>2019-02-25T23:15:35Z</time>
      </trkpt>
      <trkpt lat="38.326874" lon="-6.321237">
        <ele>498.639</ele>
        <time>2019-02-25T23:15:47Z</time>
      </trkpt>
      <trkpt lat="38.327292" lon="-6.321185">
        <ele>500.498</ele>
        <time>2019-02-25T23:16:01Z</time>
      </trkpt>
      <trkpt lat="38.327888" lon="-6.321116">
        <ele>503.322</ele>
        <time>2019-02-25T23:16:21Z</time>
      </trkpt>
      <trkpt lat="38.328120" lon="-6.321058">
        <ele>503.615</ele>
        <time>2019-02-25T23:16:34Z</time>
      </trkpt>
      <trkpt lat="38.328117" lon="-6.321064">
        <ele>503.614</ele>
        <time>2019-02-25T23:16:35Z</time>
      </trkpt>
      <trkpt lat="38.328071" lon="-6.321077">
        <ele>503.723</ele>
        <time>2019-02-25T23:16:39Z</time>
      </trkpt>
      <trkpt lat="38.327889" lon="-6.321138">
        <ele>504.052</ele>
        <time>2019-02-25T23:16:50Z</time>
      </trkpt>
      <trkpt lat="38.327887" lon="-6.321142">
        <ele>504.053</ele>
        <time>2019-02-25T23:16:53Z</time>
      </trkpt>
      <trkpt lat="38.327896" lon="-6.321111">
        <ele>504.008</ele>
        <time>2019-02-25T23:17:44Z</time>
      </trkpt>
      <trkpt lat="38.327961" lon="-6.321104">
        <ele>504.108</ele>
        <time>2019-02-25T23:17:48Z</time>
      </trkpt>
      <trkpt lat="38.327984" lon="-6.321104">
        <ele>504.158</ele>
        <time>2019-02-25T23:17:49Z</time>
      </trkpt>
      <trkpt lat="38.328007" lon="-6.321101">
        <ele>504.279</ele>
        <time>2019-02-25T23:17:50Z</time>
      </trkpt>
      <trkpt lat="38.328031" lon="-6.321096">
        <ele>504.210</ele>
        <time>2019-02-25T23:17:51Z</time>
      </trkpt>
      <trkpt lat="38.328054" lon="-6.321088">
        <ele>504.299</ele>
        <time>2019-02-25T23:17:52Z</time>
      </trkpt>
      <trkpt lat="38.328285" lon="-6.321021">
        <ele>504.513</ele>
        <time>2019-02-25T23:18:04Z</time>
      </trkpt>
      <trkpt lat="38.328715" lon="-6.320927">
        <ele>506.166</ele>
        <time>2019-02-25T23:18:22Z</time>
      </trkpt>
      <trkpt lat="38.329175" lon="-6.320840">
        <ele>508.265</ele>
        <time>2019-02-25T23:18:42Z</time>
      </trkpt>
      <trkpt lat="38.329534" lon="-6.320780">
        <ele>510.064</ele>
        <time>2019-02-25T23:18:59Z</time>
      </trkpt>
      <trkpt lat="38.329542" lon="-6.320790">
        <ele>510.134</ele>
        <time>2019-02-25T23:19:00Z</time>
      </trkpt>
      <trkpt lat="38.329547" lon="-6.320808">
        <ele>510.255</ele>
        <time>2019-02-25T23:19:01Z</time>
      </trkpt>
      <trkpt lat="38.329547" lon="-6.320833">
        <ele>510.610</ele>
        <time>2019-02-25T23:19:02Z</time>
      </trkpt>
      <trkpt lat="38.329543" lon="-6.320862">
        <ele>510.608</ele>
        <time>2019-02-25T23:19:03Z</time>
      </trkpt>
      <trkpt lat="38.329536" lon="-6.320894">
        <ele>510.686</ele>
        <time>2019-02-25T23:19:04Z</time>
      </trkpt>
      <trkpt lat="38.329528" lon="-6.320924">
        <ele>510.627</ele>
        <time>2019-02-25T23:19:05Z</time>
      </trkpt>
      <trkpt lat="38.329521" lon="-6.320952">
        <ele>510.758</ele>
        <time>2019-02-25T23:19:06Z</time>
      </trkpt>
      <trkpt lat="38.329421" lon="-6.321385">
        <ele>511.987</ele>
        <time>2019-02-25T23:19:19Z</time>
      </trkpt>
      <trkpt lat="38.329349" lon="-6.322290">
        <ele>512.991</ele>
        <time>2019-02-25T23:19:35Z</time>
      </trkpt>
      <trkpt lat="38.329261" lon="-6.322963">
        <ele>510.154</ele>
        <time>2019-02-25T23:19:50Z</time>
      </trkpt>
      <trkpt lat="38.329164" lon="-6.323428">
        <ele>507.273</ele>
        <time>2019-02-25T23:20:02Z</time>
      </trkpt>
      <trkpt lat="38.329102" lon="-6.324218">
        <ele>504.382</ele>
        <time>2019-02-25T23:20:18Z</time>
      </trkpt>
      <trkpt lat="38.329133" lon="-6.324899">
        <ele>503.875</ele>
        <time>2019-02-25T23:20:32Z</time>
      </trkpt>
      <trkpt lat="38.329428" lon="-6.325859">
        <ele>502.528</ele>
        <time>2019-02-25T23:20:53Z</time>
      </trkpt>
      <trkpt lat="38.329738" lon="-6.326861">
        <ele>501.420</ele>
        <time>2019-02-25T23:21:14Z</time>
      </trkpt>
      <trkpt lat="38.329970" lon="-6.327697">
        <ele>499.508</ele>
        <time>2019-02-25T23:21:32Z</time>
      </trkpt>
      <trkpt lat="38.330206" lon="-6.328450">
        <ele>500.020</ele>
        <time>2019-02-25T23:21:50Z</time>
      </trkpt>
      <trkpt lat="38.330370" lon="-6.328878">
        <ele>500.881</ele>
        <time>2019-02-25T23:22:05Z</time>
      </trkpt>
      <trkpt lat="38.330472" lon="-6.328994">
        <ele>500.982</ele>
        <time>2019-02-25T23:22:09Z</time>
      </trkpt>
      <trkpt lat="38.330497" lon="-6.329039">
        <ele>501.081</ele>
        <time>2019-02-25T23:22:10Z</time>
      </trkpt>
      <trkpt lat="38.330647" lon="-6.329617">
        <ele>500.825</ele>
        <time>2019-02-25T23:22:22Z</time>
      </trkpt>
      <trkpt lat="38.330662" lon="-6.329664">
        <ele>500.978</ele>
        <time>2019-02-25T23:22:23Z</time>
      </trkpt>
      <trkpt lat="38.330764" lon="-6.330200">
        <ele>500.697</ele>
        <time>2019-02-25T23:22:36Z</time>
      </trkpt>
      <trkpt lat="38.331004" lon="-6.330940">
        <ele>499.896</ele>
        <time>2019-02-25T23:22:51Z</time>
      </trkpt>
      <trkpt lat="38.331264" lon="-6.331701">
        <ele>499.011</ele>
        <time>2019-02-25T23:23:07Z</time>
      </trkpt>
      <trkpt lat="38.331396" lon="-6.332707">
        <ele>497.921</ele>
        <time>2019-02-25T23:23:27Z</time>
      </trkpt>
      <trkpt lat="38.331558" lon="-6.333634">
        <ele>497.203</ele>
        <time>2019-02-25T23:23:46Z</time>
      </trkpt>
      <trkpt lat="38.331801" lon="-6.334266">
        <ele>496.608</ele>
        <time>2019-02-25T23:24:01Z</time>
      </trkpt>
      <trkpt lat="38.332116" lon="-6.334709">
        <ele>496.114</ele>
        <time>2019-02-25T23:24:18Z</time>
      </trkpt>
      <trkpt lat="38.332265" lon="-6.334825">
        <ele>496.155</ele>
        <time>2019-02-25T23:24:30Z</time>
      </trkpt>
      <trkpt lat="38.332266" lon="-6.334827">
        <ele>496.186</ele>
        <time>2019-02-25T23:24:31Z</time>
      </trkpt>
      <trkpt lat="38.332525" lon="-6.335032">
        <ele>497.435</ele>
        <time>2019-02-25T23:29:11Z</time>
      </trkpt>
      <trkpt lat="38.332626" lon="-6.335123">
        <ele>498.329</ele>
        <time>2019-02-25T23:29:25Z</time>
      </trkpt>
      <trkpt lat="38.332699" lon="-6.335168">
        <ele>498.692</ele>
        <time>2019-02-25T23:30:35Z</time>
      </trkpt>
      <trkpt lat="38.332859" lon="-6.335340">
        <ele>499.481</ele>
        <time>2019-02-25T23:30:50Z</time>
      </trkpt>
      <trkpt lat="38.333036" lon="-6.335534">
        <ele>499.870</ele>
        <time>2019-02-25T23:31:04Z</time>
      </trkpt>
      <trkpt lat="38.333133" lon="-6.335673">
        <ele>499.968</ele>
        <time>2019-02-25T23:31:12Z</time>
      </trkpt>
      <trkpt lat="38.333141" lon="-6.335694">
        <ele>500.042</ele>
        <time>2019-02-25T23:31:13Z</time>
      </trkpt>
      <trkpt lat="38.333150" lon="-6.335715">
        <ele>500.026</ele>
        <time>2019-02-25T23:31:14Z</time>
      </trkpt>
      <trkpt lat="38.333162" lon="-6.335733">
        <ele>500.008</ele>
        <time>2019-02-25T23:31:15Z</time>
      </trkpt>
      <trkpt lat="38.333174" lon="-6.335748">
        <ele>500.099</ele>
        <time>2019-02-25T23:31:16Z</time>
      </trkpt>
      <trkpt lat="38.333187" lon="-6.335761">
        <ele>500.030</ele>
        <time>2019-02-25T23:31:17Z</time>
      </trkpt>
      <trkpt lat="38.333199" lon="-6.335774">
        <ele>500.051</ele>
        <time>2019-02-25T23:31:18Z</time>
      </trkpt>
      <trkpt lat="38.333404" lon="-6.335982">
        <ele>501.020</ele>
        <time>2019-02-25T23:31:34Z</time>
      </trkpt>
      <trkpt lat="38.333630" lon="-6.336199">
        <ele>502.434</ele>
        <time>2019-02-25T23:31:48Z</time>
      </trkpt>
      <trkpt lat="38.333820" lon="-6.336462">
        <ele>504.227</ele>
        <time>2019-02-25T23:32:04Z</time>
      </trkpt>
      <trkpt lat="38.334025" lon="-6.336760">
        <ele>505.916</ele>
        <time>2019-02-25T23:32:21Z</time>
      </trkpt>
      <trkpt lat="38.334194" lon="-6.337097">
        <ele>508.055</ele>
        <time>2019-02-25T23:32:37Z</time>
      </trkpt>
      <trkpt lat="38.334332" lon="-6.337414">
        <ele>509.425</ele>
        <time>2019-02-25T23:32:52Z</time>
      </trkpt>
      <trkpt lat="38.334431" lon="-6.337724">
        <ele>510.226</ele>
        <time>2019-02-25T23:33:06Z</time>
      </trkpt>
      <trkpt lat="38.334616" lon="-6.338170">
        <ele>510.108</ele>
        <time>2019-02-25T23:33:21Z</time>
      </trkpt>
      <trkpt lat="38.335051" lon="-6.338782">
        <ele>507.708</ele>
        <time>2019-02-25T23:33:40Z</time>
      </trkpt>
      <trkpt lat="38.335455" lon="-6.339335">
        <ele>508.895</ele>
        <time>2019-02-25T23:33:59Z</time>
      </trkpt>
      <trkpt lat="38.335741" lon="-6.339687">
        <ele>512.096</ele>
        <time>2019-02-25T23:34:13Z</time>
      </trkpt>
      <trkpt lat="38.336061" lon="-6.340041">
        <ele>514.827</ele>
        <time>2019-02-25T23:34:31Z</time>
      </trkpt>
      <trkpt lat="38.336340" lon="-6.340254">
        <ele>515.776</ele>
        <time>2019-02-25T23:34:47Z</time>
      </trkpt>
      <trkpt lat="38.336777" lon="-6.340629">
        <ele>513.860</ele>
        <time>2019-02-25T23:35:01Z</time>
      </trkpt>
      <trkpt lat="38.337149" lon="-6.340963">
        <ele>511.373</ele>
        <time>2019-02-25T23:35:12Z</time>
      </trkpt>
      <trkpt lat="38.337446" lon="-6.341434">
        <ele>510.542</ele>
        <time>2019-02-25T23:35:26Z</time>
      </trkpt>
      <trkpt lat="38.337590" lon="-6.342101">
        <ele>509.551</ele>
        <time>2019-02-25T23:35:41Z</time>
      </trkpt>
      <trkpt lat="38.337718" lon="-6.342455">
        <ele>510.957</ele>
        <time>2019-02-25T23:35:54Z</time>
      </trkpt>
      <trkpt lat="38.337811" lon="-6.342760">
        <ele>510.800</ele>
        <time>2019-02-25T23:36:08Z</time>
      </trkpt>
      <trkpt lat="38.337954" lon="-6.342980">
        <ele>510.520</ele>
        <time>2019-02-25T23:36:20Z</time>
      </trkpt>
      <trkpt lat="38.338148" lon="-6.343276">
        <ele>513.208</ele>
        <time>2019-02-25T23:36:36Z</time>
      </trkpt>
      <trkpt lat="38.338358" lon="-6.343593">
        <ele>517.398</ele>
        <time>2019-02-25T23:36:52Z</time>
      </trkpt>
      <trkpt lat="38.338392" lon="-6.343665">
        <ele>518.189</ele>
        <time>2019-02-25T23:36:59Z</time>
      </trkpt>
      <trkpt lat="38.338423" lon="-6.343751">
        <ele>518.580</ele>
        <time>2019-02-25T23:37:26Z</time>
      </trkpt>
      <trkpt lat="38.338654" lon="-6.344218">
        <ele>518.419</ele>
        <time>2019-02-25T23:37:42Z</time>
      </trkpt>
      <trkpt lat="38.338905" lon="-6.344654">
        <ele>516.033</ele>
        <time>2019-02-25T23:37:54Z</time>
      </trkpt>
      <trkpt lat="38.339082" lon="-6.345062">
        <ele>515.376</ele>
        <time>2019-02-25T23:38:05Z</time>
      </trkpt>
      <trkpt lat="38.339327" lon="-6.345574">
        <ele>515.465</ele>
        <time>2019-02-25T23:38:18Z</time>
      </trkpt>
      <trkpt lat="38.339546" lon="-6.346004">
        <ele>516.014</ele>
        <time>2019-02-25T23:38:32Z</time>
      </trkpt>
      <trkpt lat="38.339786" lon="-6.346517">
        <ele>515.635</ele>
        <time>2019-02-25T23:38:50Z</time>
      </trkpt>
      <trkpt lat="38.339936" lon="-6.346785">
        <ele>515.386</ele>
        <time>2019-02-25T23:39:03Z</time>
      </trkpt>
      <trkpt lat="38.339936" lon="-6.346785">
        <ele>515.314</ele>
        <time>2019-02-25T23:39:04Z</time>
      </trkpt>
      <trkpt lat="38.339953" lon="-6.346825">
        <ele>515.308</ele>
        <time>2019-02-25T23:40:02Z</time>
      </trkpt>
      <trkpt lat="38.340087" lon="-6.347093">
        <ele>514.476</ele>
        <time>2019-02-25T23:40:12Z</time>
      </trkpt>
      <trkpt lat="38.340104" lon="-6.347114">
        <ele>514.367</ele>
        <time>2019-02-25T23:40:13Z</time>
      </trkpt>
      <trkpt lat="38.340121" lon="-6.347140">
        <ele>514.278</ele>
        <time>2019-02-25T23:40:14Z</time>
      </trkpt>
      <trkpt lat="38.340138" lon="-6.347167">
        <ele>514.087</ele>
        <time>2019-02-25T23:40:15Z</time>
      </trkpt>
      <trkpt lat="38.340156" lon="-6.347197">
        <ele>513.841</ele>
        <time>2019-02-25T23:40:16Z</time>
      </trkpt>
      <trkpt lat="38.340173" lon="-6.347231">
        <ele>513.694</ele>
        <time>2019-02-25T23:40:17Z</time>
      </trkpt>
      <trkpt lat="38.340192" lon="-6.347269">
        <ele>513.473</ele>
        <time>2019-02-25T23:40:18Z</time>
      </trkpt>
      <trkpt lat="38.340211" lon="-6.347308">
        <ele>513.222</ele>
        <time>2019-02-25T23:40:19Z</time>
      </trkpt>
      <trkpt lat="38.340356" lon="-6.347589">
        <ele>511.277</ele>
        <time>2019-02-25T23:40:26Z</time>
      </trkpt>
      <trkpt lat="38.340747" lon="-6.348230">
        <ele>507.261</ele>
        <time>2019-02-25T23:40:40Z</time>
      </trkpt>
      <trkpt lat="38.341001" lon="-6.348575">
        <ele>504.227</ele>
        <time>2019-02-25T23:40:50Z</time>
      </trkpt>
      <trkpt lat="38.341318" lon="-6.348975">
        <ele>500.408</ele>
        <time>2019-02-25T23:41:01Z</time>
      </trkpt>
      <trkpt lat="38.341716" lon="-6.349224">
        <ele>496.930</ele>
        <time>2019-02-25T23:41:13Z</time>
      </trkpt>
      <trkpt lat="38.342118" lon="-6.349332">
        <ele>494.331</ele>
        <time>2019-02-25T23:41:26Z</time>
      </trkpt>
      <trkpt lat="38.342428" lon="-6.349438">
        <ele>493.062</ele>
        <time>2019-02-25T23:41:36Z</time>
      </trkpt>
      <trkpt lat="38.343072" lon="-6.349595">
        <ele>493.641</ele>
        <time>2019-02-25T23:41:50Z</time>
      </trkpt>
      <trkpt lat="38.343462" lon="-6.349718">
        <ele>494.475</ele>
        <time>2019-02-25T23:42:04Z</time>
      </trkpt>
      <trkpt lat="38.343930" lon="-6.349916">
        <ele>494.668</ele>
        <time>2019-02-25T23:42:19Z</time>
      </trkpt>
      <trkpt lat="38.343995" lon="-6.350000">
        <ele>494.527</ele>
        <time>2019-02-25T23:42:22Z</time>
      </trkpt>
      <trkpt lat="38.344049" lon="-6.350291">
        <ele>494.376</ele>
        <time>2019-02-25T23:42:34Z</time>
      </trkpt>
      <trkpt lat="38.344470" lon="-6.350562">
        <ele>494.415</ele>
        <time>2019-02-25T23:42:50Z</time>
      </trkpt>
      <trkpt lat="38.345035" lon="-6.350792">
        <ele>494.965</ele>
        <time>2019-02-25T23:43:07Z</time>
      </trkpt>
      <trkpt lat="38.345700" lon="-6.351264">
        <ele>496.511</ele>
        <time>2019-02-25T23:43:28Z</time>
      </trkpt>
      <trkpt lat="38.346156" lon="-6.351675">
        <ele>496.708</ele>
        <time>2019-02-25T23:43:45Z</time>
      </trkpt>
      <trkpt lat="38.346247" lon="-6.351730">
        <ele>496.954</ele>
        <time>2019-02-25T23:43:54Z</time>
      </trkpt>
      <trkpt lat="38.346290" lon="-6.351767">
        <ele>496.945</ele>
        <time>2019-02-25T23:44:41Z</time>
      </trkpt>
      <trkpt lat="38.346307" lon="-6.351781">
        <ele>496.986</ele>
        <time>2019-02-25T23:44:42Z</time>
      </trkpt>
      <trkpt lat="38.346327" lon="-6.351795">
        <ele>497.095</ele>
        <time>2019-02-25T23:44:43Z</time>
      </trkpt>
      <trkpt lat="38.346347" lon="-6.351812">
        <ele>497.029</ele>
        <time>2019-02-25T23:44:44Z</time>
      </trkpt>
      <trkpt lat="38.346747" lon="-6.352213">
        <ele>497.632</ele>
        <time>2019-02-25T23:45:00Z</time>
      </trkpt>
      <trkpt lat="38.347292" lon="-6.352748">
        <ele>498.431</ele>
        <time>2019-02-25T23:45:20Z</time>
      </trkpt>
      <trkpt lat="38.347755" lon="-6.353271">
        <ele>498.970</ele>
        <time>2019-02-25T23:45:37Z</time>
      </trkpt>
      <trkpt lat="38.348288" lon="-6.354025">
        <ele>499.615</ele>
        <time>2019-02-25T23:45:56Z</time>
      </trkpt>
      <trkpt lat="38.349058" lon="-6.354693">
        <ele>500.665</ele>
        <time>2019-02-25T23:46:17Z</time>
      </trkpt>
      <trkpt lat="38.349625" lon="-6.355122">
        <ele>501.111</ele>
        <time>2019-02-25T23:46:33Z</time>
      </trkpt>
      <trkpt lat="38.349659" lon="-6.355152">
        <ele>501.108</ele>
        <time>2019-02-25T23:46:34Z</time>
      </trkpt>
      <trkpt lat="38.349912" lon="-6.355345">
        <ele>501.214</ele>
        <time>2019-02-25T23:46:41Z</time>
      </trkpt>
      <trkpt lat="38.350562" lon="-6.355694">
        <ele>501.665</ele>
        <time>2019-02-25T23:46:58Z</time>
      </trkpt>
      <trkpt lat="38.351248" lon="-6.356001">
        <ele>502.396</ele>
        <time>2019-02-25T23:47:16Z</time>
      </trkpt>
      <trkpt lat="38.351854" lon="-6.356287">
        <ele>503.045</ele>
        <time>2019-02-25T23:47:32Z</time>
      </trkpt>
      <trkpt lat="38.352692" lon="-6.356792">
        <ele>503.949</ele>
        <time>2019-02-25T23:47:56Z</time>
      </trkpt>
      <trkpt lat="38.353199" lon="-6.357187">
        <ele>505.642</ele>
        <time>2019-02-25T23:48:14Z</time>
      </trkpt>
      <trkpt lat="38.353439" lon="-6.357319">
        <ele>506.941</ele>
        <time>2019-02-25T23:48:28Z</time>
      </trkpt>
      <trkpt lat="38.353483" lon="-6.357401">
        <ele>507.650</ele>
        <time>2019-02-25T23:48:32Z</time>
      </trkpt>
      <trkpt lat="38.353503" lon="-6.357413">
        <ele>507.495</ele>
        <time>2019-02-25T23:48:33Z</time>
      </trkpt>
      <trkpt lat="38.353529" lon="-6.357426">
        <ele>507.249</ele>
        <time>2019-02-25T23:48:34Z</time>
      </trkpt>
      <trkpt lat="38.353562" lon="-6.357445">
        <ele>506.923</ele>
        <time>2019-02-25T23:48:35Z</time>
      </trkpt>
      <trkpt lat="38.353602" lon="-6.357470">
        <ele>506.508</ele>
        <time>2019-02-25T23:48:36Z</time>
      </trkpt>
      <trkpt lat="38.353650" lon="-6.357495">
        <ele>506.092</ele>
        <time>2019-02-25T23:48:37Z</time>
      </trkpt>
      <trkpt lat="38.354249" lon="-6.357893">
        <ele>504.813</ele>
        <time>2019-02-25T23:48:50Z</time>
      </trkpt>
      <trkpt lat="38.355198" lon="-6.358428">
        <ele>505.834</ele>
        <time>2019-02-25T23:49:14Z</time>
      </trkpt>
      <trkpt lat="38.355295" lon="-6.358490">
        <ele>505.873</ele>
        <time>2019-02-25T23:49:22Z</time>
      </trkpt>
      <trkpt lat="38.355341" lon="-6.358546">
        <ele>505.967</ele>
        <time>2019-02-25T23:49:50Z</time>
      </trkpt>
      <trkpt lat="38.355570" lon="-6.358751">
        <ele>506.710</ele>
        <time>2019-02-25T23:50:02Z</time>
      </trkpt>
      <trkpt lat="38.355927" lon="-6.359155">
        <ele>507.039</ele>
        <time>2019-02-25T23:50:16Z</time>
      </trkpt>
      <trkpt lat="38.356361" lon="-6.359930">
        <ele>508.678</ele>
        <time>2019-02-25T23:50:35Z</time>
      </trkpt>
      <trkpt lat="38.356685" lon="-6.360400">
        <ele>509.161</ele>
        <time>2019-02-25T23:50:52Z</time>
      </trkpt>
      <trkpt lat="38.356674" lon="-6.360379">
        <ele>509.221</ele>
        <time>2019-02-25T23:50:54Z</time>
      </trkpt>
      <trkpt lat="38.356667" lon="-6.360365">
        <ele>509.313</ele>
        <time>2019-02-25T23:50:55Z</time>
      </trkpt>
      <trkpt lat="38.356658" lon="-6.360346">
        <ele>509.508</ele>
        <time>2019-02-25T23:51:00Z</time>
      </trkpt>
      <trkpt lat="38.356719" lon="-6.360429">
        <ele>510.089</ele>
        <time>2019-02-25T23:51:33Z</time>
      </trkpt>
      <trkpt lat="38.357018" lon="-6.360833">
        <ele>510.030</ele>
        <time>2019-02-25T23:51:48Z</time>
      </trkpt>
      <trkpt lat="38.357497" lon="-6.361602">
        <ele>510.621</ele>
        <time>2019-02-25T23:52:08Z</time>
      </trkpt>
      <trkpt lat="38.357576" lon="-6.361726">
        <ele>510.940</ele>
        <time>2019-02-25T23:52:11Z</time>
      </trkpt>
      <trkpt lat="38.357605" lon="-6.361767">
        <ele>510.974</ele>
        <time>2019-02-25T23:52:12Z</time>
      </trkpt>
      <trkpt lat="38.357631" lon="-6.361811">
        <ele>510.927</ele>
        <time>2019-02-25T23:52:13Z</time>
      </trkpt>
      <trkpt lat="38.358043" lon="-6.362578">
        <ele>511.196</ele>
        <time>2019-02-25T23:52:30Z</time>
      </trkpt>
      <trkpt lat="38.358377" lon="-6.363180">
        <ele>511.185</ele>
        <time>2019-02-25T23:52:44Z</time>
      </trkpt>
      <trkpt lat="38.358667" lon="-6.363755">
        <ele>512.916</ele>
        <time>2019-02-25T23:52:58Z</time>
      </trkpt>
      <trkpt lat="38.358990" lon="-6.364527">
        <ele>513.576</ele>
        <time>2019-02-25T23:53:15Z</time>
      </trkpt>
      <trkpt lat="38.359386" lon="-6.365454">
        <ele>513.913</ele>
        <time>2019-02-25T23:53:36Z</time>
      </trkpt>
      <trkpt lat="38.359591" lon="-6.366030">
        <ele>514.408</ele>
        <time>2019-02-25T23:53:50Z</time>
      </trkpt>
      <trkpt lat="38.359910" lon="-6.366794">
        <ele>515.134</ele>
        <time>2019-02-25T23:54:08Z</time>
      </trkpt>
      <trkpt lat="38.360306" lon="-6.367339">
        <ele>515.975</ele>
        <time>2019-02-25T23:54:24Z</time>
      </trkpt>
      <trkpt lat="38.360626" lon="-6.367941">
        <ele>516.086</ele>
        <time>2019-02-25T23:54:39Z</time>
      </trkpt>
      <trkpt lat="38.361104" lon="-6.368669">
        <ele>517.515</ele>
        <time>2019-02-25T23:55:00Z</time>
      </trkpt>
      <trkpt lat="38.361485" lon="-6.369191">
        <ele>518.119</ele>
        <time>2019-02-25T23:55:16Z</time>
      </trkpt>
      <trkpt lat="38.361881" lon="-6.369898">
        <ele>518.912</ele>
        <time>2019-02-25T23:55:36Z</time>
      </trkpt>
      <trkpt lat="38.362235" lon="-6.370567">
        <ele>519.421</ele>
        <time>2019-02-25T23:55:54Z</time>
      </trkpt>
      <trkpt lat="38.362801" lon="-6.371205">
        <ele>520.540</ele>
        <time>2019-02-25T23:56:15Z</time>
      </trkpt>
      <trkpt lat="38.363202" lon="-6.371870">
        <ele>520.657</ele>
        <time>2019-02-25T23:56:34Z</time>
      </trkpt>
      <trkpt lat="38.363334" lon="-6.372312">
        <ele>521.100</ele>
        <time>2019-02-25T23:56:45Z</time>
      </trkpt>
      <trkpt lat="38.363575" lon="-6.372899">
        <ele>522.220</ele>
        <time>2019-02-25T23:57:01Z</time>
      </trkpt>
      <trkpt lat="38.363906" lon="-6.373365">
        <ele>522.708</ele>
        <time>2019-02-25T23:57:15Z</time>
      </trkpt>
      <trkpt lat="38.364321" lon="-6.374026">
        <ele>522.628</ele>
        <time>2019-02-25T23:57:33Z</time>
      </trkpt>
      <trkpt lat="38.364852" lon="-6.374747">
        <ele>523.939</ele>
        <time>2019-02-25T23:57:54Z</time>
      </trkpt>
      <trkpt lat="38.365250" lon="-6.375245">
        <ele>525.320</ele>
        <time>2019-02-25T23:58:11Z</time>
      </trkpt>
      <trkpt lat="38.365589" lon="-6.375671">
        <ele>527.159</ele>
        <time>2019-02-25T23:58:26Z</time>
      </trkpt>
      <trkpt lat="38.365931" lon="-6.376213">
        <ele>527.853</ele>
        <time>2019-02-25T23:58:44Z</time>
      </trkpt>
      <trkpt lat="38.366245" lon="-6.376821">
        <ele>528.356</ele>
        <time>2019-02-25T23:59:01Z</time>
      </trkpt>
      <trkpt lat="38.366755" lon="-6.377489">
        <ele>528.355</ele>
        <time>2019-02-25T23:59:21Z</time>
      </trkpt>
      <trkpt lat="38.366991" lon="-6.377760">
        <ele>529.174</ele>
        <time>2019-02-25T23:59:29Z</time>
      </trkpt>
      <trkpt lat="38.367026" lon="-6.377786">
        <ele>529.135</ele>
        <time>2019-02-25T23:59:30Z</time>
      </trkpt>
      <trkpt lat="38.367466" lon="-6.378185">
        <ele>530.086</ele>
        <time>2019-02-25T23:59:44Z</time>
      </trkpt>
      <trkpt lat="38.368034" lon="-6.378715">
        <ele>531.214</ele>
        <time>2019-02-26T00:00:02Z</time>
      </trkpt>
      <trkpt lat="38.368516" lon="-6.379103">
        <ele>531.808</ele>
        <time>2019-02-26T00:00:18Z</time>
      </trkpt>
      <trkpt lat="38.368848" lon="-6.379364">
        <ele>533.026</ele>
        <time>2019-02-26T00:00:31Z</time>
      </trkpt>
      <trkpt lat="38.369238" lon="-6.379655">
        <ele>534.467</ele>
        <time>2019-02-26T00:00:46Z</time>
      </trkpt>
      <trkpt lat="38.369726" lon="-6.380001">
        <ele>536.048</ele>
        <time>2019-02-26T00:01:06Z</time>
      </trkpt>
      <trkpt lat="38.370165" lon="-6.380331">
        <ele>537.177</ele>
        <time>2019-02-26T00:01:22Z</time>
      </trkpt>
      <trkpt lat="38.370750" lon="-6.380815">
        <ele>537.341</ele>
        <time>2019-02-26T00:01:38Z</time>
      </trkpt>
      <trkpt lat="38.371493" lon="-6.381420">
        <ele>537.044</ele>
        <time>2019-02-26T00:01:57Z</time>
      </trkpt>
      <trkpt lat="38.372196" lon="-6.381888">
        <ele>537.183</ele>
        <time>2019-02-26T00:02:15Z</time>
      </trkpt>
      <trkpt lat="38.372841" lon="-6.382329">
        <ele>537.752</ele>
        <time>2019-02-26T00:02:33Z</time>
      </trkpt>
      <trkpt lat="38.373401" lon="-6.382928">
        <ele>538.365</ele>
        <time>2019-02-26T00:02:50Z</time>
      </trkpt>
      <trkpt lat="38.373850" lon="-6.383626">
        <ele>538.368</ele>
        <time>2019-02-26T00:03:04Z</time>
      </trkpt>
      <trkpt lat="38.374446" lon="-6.384759">
        <ele>535.814</ele>
        <time>2019-02-26T00:03:19Z</time>
      </trkpt>
      <trkpt lat="38.374981" lon="-6.385531">
        <ele>533.508</ele>
        <time>2019-02-26T00:03:30Z</time>
      </trkpt>
      <trkpt lat="38.375876" lon="-6.386758">
        <ele>531.369</ele>
        <time>2019-02-26T00:03:51Z</time>
      </trkpt>
      <trkpt lat="38.376528" lon="-6.387530">
        <ele>531.280</ele>
        <time>2019-02-26T00:04:08Z</time>
      </trkpt>
      <trkpt lat="38.377208" lon="-6.388157">
        <ele>530.911</ele>
        <time>2019-02-26T00:04:24Z</time>
      </trkpt>
      <trkpt lat="38.377962" lon="-6.388873">
        <ele>531.370</ele>
        <time>2019-02-26T00:04:46Z</time>
      </trkpt>
      <trkpt lat="38.378595" lon="-6.389527">
        <ele>532.024</ele>
        <time>2019-02-26T00:05:06Z</time>
      </trkpt>
      <trkpt lat="38.378783" lon="-6.389731">
        <ele>532.317</ele>
        <time>2019-02-26T00:05:12Z</time>
      </trkpt>
      <trkpt lat="38.379439" lon="-6.390470">
        <ele>533.526</ele>
        <time>2019-02-26T00:05:33Z</time>
      </trkpt>
      <trkpt lat="38.379622" lon="-6.390683">
        <ele>533.895</ele>
        <time>2019-02-26T00:05:39Z</time>
      </trkpt>
      <trkpt lat="38.379654" lon="-6.390715">
        <ele>533.812</ele>
        <time>2019-02-26T00:05:40Z</time>
      </trkpt>
      <trkpt lat="38.379683" lon="-6.390748">
        <ele>533.932</ele>
        <time>2019-02-26T00:05:41Z</time>
      </trkpt>
      <trkpt lat="38.379712" lon="-6.390782">
        <ele>533.905</ele>
        <time>2019-02-26T00:05:42Z</time>
      </trkpt>
      <trkpt lat="38.379741" lon="-6.390814">
        <ele>534.008</ele>
        <time>2019-02-26T00:05:43Z</time>
      </trkpt>
      <trkpt lat="38.380361" lon="-6.391499">
        <ele>535.264</ele>
        <time>2019-02-26T00:06:04Z</time>
      </trkpt>
      <trkpt lat="38.380816" lon="-6.392031">
        <ele>535.715</ele>
        <time>2019-02-26T00:06:20Z</time>
      </trkpt>
      <trkpt lat="38.381324" lon="-6.392721">
        <ele>536.776</ele>
        <time>2019-02-26T00:06:39Z</time>
      </trkpt>
      <trkpt lat="38.381492" lon="-6.392908">
        <ele>537.185</ele>
        <time>2019-02-26T00:06:44Z</time>
      </trkpt>
      <trkpt lat="38.382308" lon="-6.393356">
        <ele>537.299</ele>
        <time>2019-02-26T00:07:01Z</time>
      </trkpt>
      <trkpt lat="38.382672" lon="-6.393576">
        <ele>536.812</ele>
        <time>2019-02-26T00:07:09Z</time>
      </trkpt>
      <trkpt lat="38.383443" lon="-6.394037">
        <ele>535.251</ele>
        <time>2019-02-26T00:07:25Z</time>
      </trkpt>
      <trkpt lat="38.383571" lon="-6.394125">
        <ele>535.160</ele>
        <time>2019-02-26T00:07:31Z</time>
      </trkpt>
      <trkpt lat="38.383686" lon="-6.394239">
        <ele>535.075</ele>
        <time>2019-02-26T00:07:38Z</time>
      </trkpt>
      <trkpt lat="38.384346" lon="-6.394790">
        <ele>534.228</ele>
        <time>2019-02-26T00:07:53Z</time>
      </trkpt>
      <trkpt lat="38.384908" lon="-6.395379">
        <ele>533.820</ele>
        <time>2019-02-26T00:08:07Z</time>
      </trkpt>
      <trkpt lat="38.385745" lon="-6.396298">
        <ele>533.308</ele>
        <time>2019-02-26T00:08:27Z</time>
      </trkpt>
      <trkpt lat="38.386455" lon="-6.396934">
        <ele>533.080</ele>
        <time>2019-02-26T00:08:43Z</time>
      </trkpt>
      <trkpt lat="38.387171" lon="-6.397776">
        <ele>531.931</ele>
        <time>2019-02-26T00:09:01Z</time>
      </trkpt>
      <trkpt lat="38.387447" lon="-6.398351">
        <ele>531.762</ele>
        <time>2019-02-26T00:09:12Z</time>
      </trkpt>
      <trkpt lat="38.387474" lon="-6.398393">
        <ele>531.761</ele>
        <time>2019-02-26T00:09:13Z</time>
      </trkpt>
      <trkpt lat="38.387502" lon="-6.398437">
        <ele>531.735</ele>
        <time>2019-02-26T00:09:14Z</time>
      </trkpt>
      <trkpt lat="38.387531" lon="-6.398483">
        <ele>531.728</ele>
        <time>2019-02-26T00:09:15Z</time>
      </trkpt>
      <trkpt lat="38.387565" lon="-6.398526">
        <ele>531.697</ele>
        <time>2019-02-26T00:09:16Z</time>
      </trkpt>
      <trkpt lat="38.387604" lon="-6.398564">
        <ele>531.646</ele>
        <time>2019-02-26T00:09:17Z</time>
      </trkpt>
      <trkpt lat="38.387652" lon="-6.398597">
        <ele>531.696</ele>
        <time>2019-02-26T00:09:18Z</time>
      </trkpt>
      <trkpt lat="38.387706" lon="-6.398622">
        <ele>531.531</ele>
        <time>2019-02-26T00:09:19Z</time>
      </trkpt>
      <trkpt lat="38.387764" lon="-6.398643">
        <ele>531.524</ele>
        <time>2019-02-26T00:09:20Z</time>
      </trkpt>
      <trkpt lat="38.388571" lon="-6.398875">
        <ele>527.808</ele>
        <time>2019-02-26T00:09:33Z</time>
      </trkpt>
      <trkpt lat="38.389475" lon="-6.399400">
        <ele>524.692</ele>
        <time>2019-02-26T00:09:49Z</time>
      </trkpt>
      <trkpt lat="38.390310" lon="-6.399934">
        <ele>523.443</ele>
        <time>2019-02-26T00:10:06Z</time>
      </trkpt>
      <trkpt lat="38.390976" lon="-6.400335">
        <ele>523.694</ele>
        <time>2019-02-26T00:10:24Z</time>
      </trkpt>
      <trkpt lat="38.391587" lon="-6.400608">
        <ele>525.573</ele>
        <time>2019-02-26T00:10:42Z</time>
      </trkpt>
      <trkpt lat="38.391837" lon="-6.400738">
        <ele>525.587</ele>
        <time>2019-02-26T00:10:54Z</time>
      </trkpt>
      <trkpt lat="38.391836" lon="-6.400740">
        <ele>525.520</ele>
        <time>2019-02-26T00:10:55Z</time>
      </trkpt>
      <trkpt lat="38.391757" lon="-6.400724">
        <ele>525.539</ele>
        <time>2019-02-26T00:11:14Z</time>
      </trkpt>
      <trkpt lat="38.391738" lon="-6.400715">
        <ele>525.518</ele>
        <time>2019-02-26T00:11:15Z</time>
      </trkpt>
      <trkpt lat="38.391718" lon="-6.400707">
        <ele>525.555</ele>
        <time>2019-02-26T00:11:16Z</time>
      </trkpt>
      <trkpt lat="38.391636" lon="-6.400662">
        <ele>525.507</ele>
        <time>2019-02-26T00:11:21Z</time>
      </trkpt>
      <trkpt lat="38.391635" lon="-6.400648">
        <ele>525.517</ele>
        <time>2019-02-26T00:11:26Z</time>
      </trkpt>
      <trkpt lat="38.391750" lon="-6.400689">
        <ele>525.408</ele>
        <time>2019-02-26T00:12:09Z</time>
      </trkpt>
      <trkpt lat="38.392273" lon="-6.401017">
        <ele>524.928</ele>
        <time>2019-02-26T00:12:22Z</time>
      </trkpt>
      <trkpt lat="38.392414" lon="-6.401110">
        <ele>524.539</ele>
        <time>2019-02-26T00:12:25Z</time>
      </trkpt>
      <trkpt lat="38.392708" lon="-6.401309">
        <ele>524.360</ele>
        <time>2019-02-26T00:12:35Z</time>
      </trkpt>
      <trkpt lat="38.392743" lon="-6.401329">
        <ele>524.349</ele>
        <time>2019-02-26T00:12:38Z</time>
      </trkpt>
      <trkpt lat="38.392747" lon="-6.401342">
        <ele>524.383</ele>
        <time>2019-02-26T00:12:39Z</time>
      </trkpt>
      <trkpt lat="38.392770" lon="-6.401364">
        <ele>524.356</ele>
        <time>2019-02-26T00:12:43Z</time>
      </trkpt>
      <trkpt lat="38.392781" lon="-6.401359">
        <ele>524.385</ele>
        <time>2019-02-26T00:12:44Z</time>
      </trkpt>
      <trkpt lat="38.392790" lon="-6.401351">
        <ele>524.374</ele>
        <time>2019-02-26T00:12:45Z</time>
      </trkpt>
      <trkpt lat="38.392790" lon="-6.401319">
        <ele>524.345</ele>
        <time>2019-02-26T00:12:52Z</time>
      </trkpt>
      <trkpt lat="38.392767" lon="-6.401201">
        <ele>524.547</ele>
        <time>2019-02-26T00:13:25Z</time>
      </trkpt>
      <trkpt lat="38.392769" lon="-6.401170">
        <ele>524.511</ele>
        <time>2019-02-26T00:13:26Z</time>
      </trkpt>
      <trkpt lat="38.392773" lon="-6.401142">
        <ele>524.608</ele>
        <time>2019-02-26T00:13:27Z</time>
      </trkpt>
      <trkpt lat="38.392778" lon="-6.401113">
        <ele>524.657</ele>
        <time>2019-02-26T00:13:28Z</time>
      </trkpt>
      <trkpt lat="38.392826" lon="-6.400846">
        <ele>525.248</ele>
        <time>2019-02-26T00:13:40Z</time>
      </trkpt>
      <trkpt lat="38.392827" lon="-6.400799">
        <ele>525.319</ele>
        <time>2019-02-26T00:13:43Z</time>
      </trkpt>
      <trkpt lat="38.392841" lon="-6.400795">
        <ele>525.448</ele>
        <time>2019-02-26T00:13:44Z</time>
      </trkpt>
      <trkpt lat="38.392854" lon="-6.400801">
        <ele>525.472</ele>
        <time>2019-02-26T00:13:45Z</time>
      </trkpt>
      <trkpt lat="38.392848" lon="-6.400834">
        <ele>525.585</ele>
        <time>2019-02-26T00:13:51Z</time>
      </trkpt>
      <trkpt lat="38.392803" lon="-6.400751">
        <ele>525.614</ele>
        <time>2019-02-26T00:14:21Z</time>
      </trkpt>
      <trkpt lat="38.392866" lon="-6.400559">
        <ele>526.013</ele>
        <time>2019-02-26T00:14:30Z</time>
      </trkpt>
      <trkpt lat="38.392868" lon="-6.400532">
        <ele>526.172</ele>
        <time>2019-02-26T00:14:31Z</time>
      </trkpt>
      <trkpt lat="38.392868" lon="-6.400512">
        <ele>526.113</ele>
        <time>2019-02-26T00:14:32Z</time>
      </trkpt>
      <trkpt lat="38.392863" lon="-6.400490">
        <ele>526.114</ele>
        <time>2019-02-26T00:14:33Z</time>
      </trkpt>
      <trkpt lat="38.392849" lon="-6.400468">
        <ele>526.108</ele>
        <time>2019-02-26T00:14:34Z</time>
      </trkpt>
      <trkpt lat="38.392834" lon="-6.400448">
        <ele>526.280</ele>
        <time>2019-02-26T00:14:35Z</time>
      </trkpt>
      <trkpt lat="38.392804" lon="-6.400422">
        <ele>526.211</ele>
        <time>2019-02-26T00:14:41Z</time>
      </trkpt>
      <trkpt lat="38.392781" lon="-6.400366">
        <ele>526.442</ele>
        <time>2019-02-26T00:14:57Z</time>
      </trkpt>
      <trkpt lat="38.392789" lon="-6.400340">
        <ele>526.441</ele>
        <time>2019-02-26T00:14:58Z</time>
      </trkpt>
      <trkpt lat="38.392806" lon="-6.400315">
        <ele>526.415</ele>
        <time>2019-02-26T00:14:59Z</time>
      </trkpt>
      <trkpt lat="38.392826" lon="-6.400291">
        <ele>526.518</ele>
        <time>2019-02-26T00:15:00Z</time>
      </trkpt>
      <trkpt lat="38.392960" lon="-6.400011">
        <ele>527.317</ele>
        <time>2019-02-26T00:15:11Z</time>
      </trkpt>
      <trkpt lat="38.392979" lon="-6.399997">
        <ele>527.376</ele>
        <time>2019-02-26T00:15:12Z</time>
      </trkpt>
      <trkpt lat="38.393148" lon="-6.399958">
        <ele>527.473</ele>
        <time>2019-02-26T00:15:24Z</time>
      </trkpt>
      <trkpt lat="38.393191" lon="-6.399949">
        <ele>527.585</ele>
        <time>2019-02-26T00:15:28Z</time>
      </trkpt>
      <trkpt lat="38.393205" lon="-6.399950">
        <ele>527.613</ele>
        <time>2019-02-26T00:15:29Z</time>
      </trkpt>
      <trkpt lat="38.393313" lon="-6.399942">
        <ele>527.708</ele>
        <time>2019-02-26T00:15:40Z</time>
      </trkpt>
      <trkpt lat="38.393292" lon="-6.399940">
        <ele>527.780</ele>
        <time>2019-02-26T00:15:42Z</time>
      </trkpt>
      <trkpt lat="38.393033" lon="-6.399972">
        <ele>527.331</ele>
        <time>2019-02-26T00:15:52Z</time>
      </trkpt>
      <trkpt lat="38.392976" lon="-6.400006">
        <ele>527.322</ele>
        <time>2019-02-26T00:15:56Z</time>
      </trkpt>
      <trkpt lat="38.392966" lon="-6.400030">
        <ele>527.251</ele>
        <time>2019-02-26T00:15:57Z</time>
      </trkpt>
      <trkpt lat="38.392956" lon="-6.400060">
        <ele>527.165</ele>
        <time>2019-02-26T00:15:58Z</time>
      </trkpt>
      <trkpt lat="38.392943" lon="-6.400094">
        <ele>527.058</ele>
        <time>2019-02-26T00:15:59Z</time>
      </trkpt>
      <trkpt lat="38.392931" lon="-6.400132">
        <ele>526.977</ele>
        <time>2019-02-26T00:16:00Z</time>
      </trkpt>
      <trkpt lat="38.392916" lon="-6.400173">
        <ele>526.876</ele>
        <time>2019-02-26T00:16:01Z</time>
      </trkpt>
      <trkpt lat="38.392904" lon="-6.400218">
        <ele>526.737</ele>
        <time>2019-02-26T00:16:02Z</time>
      </trkpt>
      <trkpt lat="38.392859" lon="-6.400304">
        <ele>526.549</ele>
        <time>2019-02-26T00:16:06Z</time>
      </trkpt>
      <trkpt lat="38.392863" lon="-6.400319">
        <ele>526.513</ele>
        <time>2019-02-26T00:16:07Z</time>
      </trkpt>
      <trkpt lat="38.392872" lon="-6.400341">
        <ele>526.508</ele>
        <time>2019-02-26T00:16:08Z</time>
      </trkpt>
      <trkpt lat="38.392881" lon="-6.400366">
        <ele>526.436</ele>
        <time>2019-02-26T00:16:09Z</time>
      </trkpt>
      <trkpt lat="38.392884" lon="-6.400397">
        <ele>526.347</ele>
        <time>2019-02-26T00:16:10Z</time>
      </trkpt>
      <trkpt lat="38.392882" lon="-6.400432">
        <ele>526.238</ele>
        <time>2019-02-26T00:16:11Z</time>
      </trkpt>
      <trkpt lat="38.392877" lon="-6.400468">
        <ele>526.287</ele>
        <time>2019-02-26T00:16:12Z</time>
      </trkpt>
      <trkpt lat="38.392872" lon="-6.400509">
        <ele>526.111</ele>
        <time>2019-02-26T00:16:13Z</time>
      </trkpt>
      <trkpt lat="38.392867" lon="-6.400553">
        <ele>526.054</ele>
        <time>2019-02-26T00:16:14Z</time>
      </trkpt>
      <trkpt lat="38.392831" lon="-6.400829">
        <ele>525.393</ele>
        <time>2019-02-26T00:16:19Z</time>
      </trkpt>
      <trkpt lat="38.392749" lon="-6.401285">
        <ele>524.392</ele>
        <time>2019-02-26T00:16:30Z</time>
      </trkpt>
      <trkpt lat="38.392950" lon="-6.401396">
        <ele>524.423</ele>
        <time>2019-02-26T00:16:39Z</time>
      </trkpt>
      <trkpt lat="38.393307" lon="-6.401532">
        <ele>524.783</ele>
        <time>2019-02-26T00:16:51Z</time>
      </trkpt>
      <trkpt lat="38.393707" lon="-6.401709">
        <ele>524.111</ele>
        <time>2019-02-26T00:17:04Z</time>
      </trkpt>
      <trkpt lat="38.393991" lon="-6.401801">
        <ele>523.308</ele>
        <time>2019-02-26T00:17:13Z</time>
      </trkpt>
      <trkpt lat="38.394037" lon="-6.401824">
        <ele>523.155</ele>
        <time>2019-02-26T00:17:20Z</time>
      </trkpt>
      <trkpt lat="38.394116" lon="-6.401865">
        <ele>522.616</ele>
        <time>2019-02-26T00:17:24Z</time>
      </trkpt>
      <trkpt lat="38.394274" lon="-6.401910">
        <ele>521.837</ele>
        <time>2019-02-26T00:17:28Z</time>
      </trkpt>
      <trkpt lat="38.394420" lon="-6.401951">
        <ele>520.886</ele>
        <time>2019-02-26T00:17:31Z</time>
      </trkpt>
      <trkpt lat="38.394942" lon="-6.402030">
        <ele>520.110</ele>
        <time>2019-02-26T00:17:43Z</time>
      </trkpt>
      <trkpt lat="38.395411" lon="-6.402087">
        <ele>521.563</ele>
        <time>2019-02-26T00:17:57Z</time>
      </trkpt>
      <trkpt lat="38.395643" lon="-6.402199">
        <ele>522.042</ele>
        <time>2019-02-26T00:18:06Z</time>
      </trkpt>
      <trkpt lat="38.396031" lon="-6.402217">
        <ele>521.051</ele>
        <time>2019-02-26T00:18:17Z</time>
      </trkpt>
      <trkpt lat="38.396075" lon="-6.402146">
        <ele>521.372</ele>
        <time>2019-02-26T00:18:21Z</time>
      </trkpt>
      <trkpt lat="38.396086" lon="-6.402116">
        <ele>521.313</ele>
        <time>2019-02-26T00:18:26Z</time>
      </trkpt>
      <trkpt lat="38.396190" lon="-6.402107">
        <ele>521.414</ele>
        <time>2019-02-26T00:19:11Z</time>
      </trkpt>
      <trkpt lat="38.396199" lon="-6.402101">
        <ele>521.408</ele>
        <time>2019-02-26T00:19:14Z</time>
      </trkpt>
      <trkpt lat="38.396268" lon="-6.402089">
        <ele>521.470</ele>
        <time>2019-02-26T00:19:36Z</time>
      </trkpt>
      <trkpt lat="38.396324" lon="-6.402132">
        <ele>521.461</ele>
        <time>2019-02-26T00:19:38Z</time>
      </trkpt>
      <trkpt lat="38.396410" lon="-6.402243">
        <ele>521.042</ele>
        <time>2019-02-26T00:19:41Z</time>
      </trkpt>
      <trkpt lat="38.396481" lon="-6.402424">
        <ele>519.751</ele>
        <time>2019-02-26T00:19:47Z</time>
      </trkpt>
      <trkpt lat="38.396470" lon="-6.402491">
        <ele>519.745</ele>
        <time>2019-02-26T00:19:54Z</time>
      </trkpt>
      <trkpt lat="38.396507" lon="-6.402409">
        <ele>519.748</ele>
        <time>2019-02-26T00:20:05Z</time>
      </trkpt>
      <trkpt lat="38.396554" lon="-6.402333">
        <ele>519.977</ele>
        <time>2019-02-26T00:20:08Z</time>
      </trkpt>
      <trkpt lat="38.396644" lon="-6.402175">
        <ele>520.586</ele>
        <time>2019-02-26T00:20:20Z</time>
      </trkpt>
      <trkpt lat="38.396746" lon="-6.402118">
        <ele>520.544</ele>
        <time>2019-02-26T00:21:15Z</time>
      </trkpt>
      <trkpt lat="38.396840" lon="-6.401777">
        <ele>520.905</ele>
        <time>2019-02-26T00:21:27Z</time>
      </trkpt>
      <trkpt lat="38.396894" lon="-6.401733">
        <ele>521.015</ele>
        <time>2019-02-26T00:21:35Z</time>
      </trkpt>
      <trkpt lat="38.397056" lon="-6.401724">
        <ele>520.108</ele>
        <time>2019-02-26T00:21:43Z</time>
      </trkpt>
      <trkpt lat="38.397376" lon="-6.401750">
        <ele>518.387</ele>
        <time>2019-02-26T00:21:54Z</time>
      </trkpt>
      <trkpt lat="38.397761" lon="-6.401784">
        <ele>516.258</ele>
        <time>2019-02-26T00:22:03Z</time>
      </trkpt>
      <trkpt lat="38.398232" lon="-6.401884">
        <ele>513.489</ele>
        <time>2019-02-26T00:22:15Z</time>
      </trkpt>
      <trkpt lat="38.398279" lon="-6.401866">
        <ele>513.338</ele>
        <time>2019-02-26T00:22:18Z</time>
      </trkpt>
      <trkpt lat="38.398283" lon="-6.401821">
        <ele>513.312</ele>
        <time>2019-02-26T00:22:20Z</time>
      </trkpt>
      <trkpt lat="38.398290" lon="-6.401785">
        <ele>513.345</ele>
        <time>2019-02-26T00:22:21Z</time>
      </trkpt>
      <trkpt lat="38.398297" lon="-6.401749">
        <ele>513.284</ele>
        <time>2019-02-26T00:22:22Z</time>
      </trkpt>
      <trkpt lat="38.398299" lon="-6.401712">
        <ele>513.213</ele>
        <time>2019-02-26T00:22:23Z</time>
      </trkpt>
      <trkpt lat="38.398298" lon="-6.401681">
        <ele>513.299</ele>
        <time>2019-02-26T00:22:24Z</time>
      </trkpt>
      <trkpt lat="38.398330" lon="-6.401465">
        <ele>515.107</ele>
        <time>2019-02-26T00:22:33Z</time>
      </trkpt>
      <trkpt lat="38.398347" lon="-6.401459">
        <ele>515.127</ele>
        <time>2019-02-26T00:22:34Z</time>
      </trkpt>
      <trkpt lat="38.398361" lon="-6.401474">
        <ele>515.008</ele>
        <time>2019-02-26T00:22:35Z</time>
      </trkpt>
      <trkpt lat="38.398367" lon="-6.401506">
        <ele>515.022</ele>
        <time>2019-02-26T00:22:36Z</time>
      </trkpt>
      <trkpt lat="38.398369" lon="-6.401544">
        <ele>514.753</ele>
        <time>2019-02-26T00:22:37Z</time>
      </trkpt>
      <trkpt lat="38.398372" lon="-6.401585">
        <ele>514.514</ele>
        <time>2019-02-26T00:22:38Z</time>
      </trkpt>
      <trkpt lat="38.398380" lon="-6.401626">
        <ele>514.213</ele>
        <time>2019-02-26T00:22:39Z</time>
      </trkpt>
      <trkpt lat="38.398392" lon="-6.401666">
        <ele>513.997</ele>
        <time>2019-02-26T00:22:40Z</time>
      </trkpt>
      <trkpt lat="38.398405" lon="-6.401703">
        <ele>513.630</ele>
        <time>2019-02-26T00:22:41Z</time>
      </trkpt>
      <trkpt lat="38.398525" lon="-6.401870">
        <ele>512.549</ele>
        <time>2019-02-26T00:22:47Z</time>
      </trkpt>
      <trkpt lat="38.398542" lon="-6.401872">
        <ele>512.598</ele>
        <time>2019-02-26T00:22:48Z</time>
      </trkpt>
      <trkpt lat="38.398560" lon="-6.401877">
        <ele>512.574</ele>
        <time>2019-02-26T00:22:53Z</time>
      </trkpt>
      <trkpt lat="38.398648" lon="-6.401926">
        <ele>512.256</ele>
        <time>2019-02-26T00:22:59Z</time>
      </trkpt>
      <trkpt lat="38.398878" lon="-6.402028">
        <ele>512.121</ele>
        <time>2019-02-26T00:23:09Z</time>
      </trkpt>
      <trkpt lat="38.398877" lon="-6.402028">
        <ele>512.108</ele>
        <time>2019-02-26T00:23:11Z</time>
      </trkpt>
      <trkpt lat="38.398870" lon="-6.402082">
        <ele>512.140</ele>
        <time>2019-02-26T00:23:32Z</time>
      </trkpt>
      <trkpt lat="38.398849" lon="-6.402085">
        <ele>512.151</ele>
        <time>2019-02-26T00:23:33Z</time>
      </trkpt>
      <trkpt lat="38.398823" lon="-6.402076">
        <ele>512.182</ele>
        <time>2019-02-26T00:23:34Z</time>
      </trkpt>
      <trkpt lat="38.398795" lon="-6.402064">
        <ele>512.161</ele>
        <time>2019-02-26T00:23:35Z</time>
      </trkpt>
      <trkpt lat="38.398764" lon="-6.402053">
        <ele>512.195</ele>
        <time>2019-02-26T00:23:36Z</time>
      </trkpt>
      <trkpt lat="38.398619" lon="-6.401902">
        <ele>512.238</ele>
        <time>2019-02-26T00:23:42Z</time>
      </trkpt>
      <trkpt lat="38.398621" lon="-6.401858">
        <ele>512.347</ele>
        <time>2019-02-26T00:23:43Z</time>
      </trkpt>
      <trkpt lat="38.398637" lon="-6.401817">
        <ele>513.076</ele>
        <time>2019-02-26T00:23:44Z</time>
      </trkpt>
      <trkpt lat="38.398662" lon="-6.401780">
        <ele>513.141</ele>
        <time>2019-02-26T00:23:45Z</time>
      </trkpt>
      <trkpt lat="38.398691" lon="-6.401747">
        <ele>513.281</ele>
        <time>2019-02-26T00:23:46Z</time>
      </trkpt>
      <trkpt lat="38.398720" lon="-6.401712">
        <ele>513.309</ele>
        <time>2019-02-26T00:23:47Z</time>
      </trkpt>
      <trkpt lat="38.398842" lon="-6.401526">
        <ele>513.808</ele>
        <time>2019-02-26T00:23:58Z</time>
      </trkpt>
      <trkpt lat="38.398895" lon="-6.401475">
        <ele>513.967</ele>
        <time>2019-02-26T00:24:33Z</time>
      </trkpt>
      <trkpt lat="38.399229" lon="-6.401202">
        <ele>515.398</ele>
        <time>2019-02-26T00:24:45Z</time>
      </trkpt>
      <trkpt lat="38.399692" lon="-6.400850">
        <ele>517.419</ele>
        <time>2019-02-26T00:25:01Z</time>
      </trkpt>
      <trkpt lat="38.400169" lon="-6.400545">
        <ele>516.968</ele>
        <time>2019-02-26T00:25:18Z</time>
      </trkpt>
      <trkpt lat="38.400658" lon="-6.400366">
        <ele>518.392</ele>
        <time>2019-02-26T00:25:33Z</time>
      </trkpt>
      <trkpt lat="38.401233" lon="-6.400380">
        <ele>518.915</ele>
        <time>2019-02-26T00:25:53Z</time>
      </trkpt>
      <trkpt lat="38.401750" lon="-6.400406">
        <ele>519.074</ele>
        <time>2019-02-26T00:26:12Z</time>
      </trkpt>
      <trkpt lat="38.402267" lon="-6.400327">
        <ele>518.833</ele>
        <time>2019-02-26T00:26:28Z</time>
      </trkpt>
      <trkpt lat="38.402839" lon="-6.400014">
        <ele>518.139</ele>
        <time>2019-02-26T00:26:40Z</time>
      </trkpt>
      <trkpt lat="38.402897" lon="-6.399988">
        <ele>518.201</ele>
        <time>2019-02-26T00:26:41Z</time>
      </trkpt>
      <trkpt lat="38.402953" lon="-6.399968">
        <ele>518.421</ele>
        <time>2019-02-26T00:26:42Z</time>
      </trkpt>
      <trkpt lat="38.403010" lon="-6.399961">
        <ele>518.508</ele>
        <time>2019-02-26T00:26:43Z</time>
      </trkpt>
      <trkpt lat="38.403064" lon="-6.399964">
        <ele>518.646</ele>
        <time>2019-02-26T00:26:44Z</time>
      </trkpt>
      <trkpt lat="38.403116" lon="-6.399973">
        <ele>518.777</ele>
        <time>2019-02-26T00:26:45Z</time>
      </trkpt>
      <trkpt lat="38.403165" lon="-6.399985">
        <ele>518.888</ele>
        <time>2019-02-26T00:26:46Z</time>
      </trkpt>
      <trkpt lat="38.403765" lon="-6.400155">
        <ele>521.457</ele>
        <time>2019-02-26T00:27:03Z</time>
      </trkpt>
      <trkpt lat="38.404051" lon="-6.400297">
        <ele>521.781</ele>
        <time>2019-02-26T00:27:18Z</time>
      </trkpt>
      <trkpt lat="38.404053" lon="-6.400295">
        <ele>521.774</ele>
        <time>2019-02-26T00:27:21Z</time>
      </trkpt>
      <trkpt lat="38.404100" lon="-6.400342">
        <ele>521.653</ele>
        <time>2019-02-26T00:27:49Z</time>
      </trkpt>
      <trkpt lat="38.404592" lon="-6.400447">
        <ele>521.562</ele>
        <time>2019-02-26T00:28:02Z</time>
      </trkpt>
      <trkpt lat="38.405396" lon="-6.400608">
        <ele>521.568</ele>
        <time>2019-02-26T00:28:19Z</time>
      </trkpt>
      <trkpt lat="38.406120" lon="-6.400740">
        <ele>524.542</ele>
        <time>2019-02-26T00:28:35Z</time>
      </trkpt>
      <trkpt lat="38.406638" lon="-6.400733">
        <ele>524.626</ele>
        <time>2019-02-26T00:28:49Z</time>
      </trkpt>
      <trkpt lat="38.406678" lon="-6.400718">
        <ele>524.608</ele>
        <time>2019-02-26T00:28:50Z</time>
      </trkpt>
      <trkpt lat="38.407232" lon="-6.400170">
        <ele>523.619</ele>
        <time>2019-02-26T00:29:05Z</time>
      </trkpt>
      <trkpt lat="38.407709" lon="-6.399685">
        <ele>523.270</ele>
        <time>2019-02-26T00:29:19Z</time>
      </trkpt>
      <trkpt lat="38.407832" lon="-6.399551">
        <ele>523.261</ele>
        <time>2019-02-26T00:29:31Z</time>
      </trkpt>
      <trkpt lat="38.407810" lon="-6.399594">
        <ele>523.340</ele>
        <time>2019-02-26T00:29:53Z</time>
      </trkpt>
      <trkpt lat="38.407657" lon="-6.399763">
        <ele>523.544</ele>
        <time>2019-02-26T00:30:06Z</time>
      </trkpt>
      <trkpt lat="38.407631" lon="-6.399763">
        <ele>523.627</ele>
        <time>2019-02-26T00:30:12Z</time>
      </trkpt>
      <trkpt lat="38.407639" lon="-6.399755">
        <ele>523.686</ele>
        <time>2019-02-26T00:30:13Z</time>
      </trkpt>
      <trkpt lat="38.407645" lon="-6.399753">
        <ele>523.655</ele>
        <time>2019-02-26T00:30:17Z</time>
      </trkpt>
      <trkpt lat="38.407677" lon="-6.399726">
        <ele>523.657</ele>
        <time>2019-02-26T00:31:40Z</time>
      </trkpt>
      <trkpt lat="38.407949" lon="-6.399452">
        <ele>523.700</ele>
        <time>2019-02-26T00:31:52Z</time>
      </trkpt>
      <trkpt lat="38.408154" lon="-6.399186">
        <ele>524.020</ele>
        <time>2019-02-26T00:32:03Z</time>
      </trkpt>
      <trkpt lat="38.408632" lon="-6.398822">
        <ele>525.708</ele>
        <time>2019-02-26T00:32:17Z</time>
      </trkpt>
      <trkpt lat="38.409099" lon="-6.398584">
        <ele>525.198</ele>
        <time>2019-02-26T00:32:33Z</time>
      </trkpt>
      <trkpt lat="38.409383" lon="-6.398573">
        <ele>525.019</ele>
        <time>2019-02-26T00:32:40Z</time>
      </trkpt>
      <trkpt lat="38.410045" lon="-6.398422">
        <ele>525.990</ele>
        <time>2019-02-26T00:32:55Z</time>
      </trkpt>
      <trkpt lat="38.410491" lon="-6.398294">
        <ele>527.039</ele>
        <time>2019-02-26T00:33:10Z</time>
      </trkpt>
      <trkpt lat="38.410720" lon="-6.398226">
        <ele>527.463</ele>
        <time>2019-02-26T00:33:24Z</time>
      </trkpt>
      <trkpt lat="38.411056" lon="-6.398080">
        <ele>527.166</ele>
        <time>2019-02-26T00:33:36Z</time>
      </trkpt>
      <trkpt lat="38.411820" lon="-6.397707">
        <ele>526.725</ele>
        <time>2019-02-26T00:33:54Z</time>
      </trkpt>
      <trkpt lat="38.411861" lon="-6.397701">
        <ele>526.814</ele>
        <time>2019-02-26T00:33:55Z</time>
      </trkpt>
      <trkpt lat="38.412205" lon="-6.397688">
        <ele>527.279</ele>
        <time>2019-02-26T00:34:03Z</time>
      </trkpt>
      <trkpt lat="38.412760" lon="-6.397706">
        <ele>528.705</ele>
        <time>2019-02-26T00:34:16Z</time>
      </trkpt>
      <trkpt lat="38.412807" lon="-6.397706">
        <ele>528.925</ele>
        <time>2019-02-26T00:34:17Z</time>
      </trkpt>
      <trkpt lat="38.412855" lon="-6.397699">
        <ele>529.108</ele>
        <time>2019-02-26T00:34:18Z</time>
      </trkpt>
      <trkpt lat="38.413642" lon="-6.397605">
        <ele>528.590</ele>
        <time>2019-02-26T00:34:35Z</time>
      </trkpt>
      <trkpt lat="38.413684" lon="-6.397599">
        <ele>528.581</ele>
        <time>2019-02-26T00:34:36Z</time>
      </trkpt>
      <trkpt lat="38.413726" lon="-6.397596">
        <ele>528.582</ele>
        <time>2019-02-26T00:34:37Z</time>
      </trkpt>
      <trkpt lat="38.413768" lon="-6.397604">
        <ele>528.541</ele>
        <time>2019-02-26T00:34:38Z</time>
      </trkpt>
      <trkpt lat="38.413808" lon="-6.397625">
        <ele>528.635</ele>
        <time>2019-02-26T00:34:39Z</time>
      </trkpt>
      <trkpt lat="38.413844" lon="-6.397652">
        <ele>528.698</ele>
        <time>2019-02-26T00:34:40Z</time>
      </trkpt>
      <trkpt lat="38.413880" lon="-6.397684">
        <ele>528.657</ele>
        <time>2019-02-26T00:34:41Z</time>
      </trkpt>
      <trkpt lat="38.413915" lon="-6.397719">
        <ele>528.696</ele>
        <time>2019-02-26T00:34:42Z</time>
      </trkpt>
      <trkpt lat="38.413948" lon="-6.397761">
        <ele>528.622</ele>
        <time>2019-02-26T00:34:43Z</time>
      </trkpt>
      <trkpt lat="38.413975" lon="-6.397809">
        <ele>528.662</ele>
        <time>2019-02-26T00:34:44Z</time>
      </trkpt>
      <trkpt lat="38.414001" lon="-6.397860">
        <ele>528.608</ele>
        <time>2019-02-26T00:34:45Z</time>
      </trkpt>
      <trkpt lat="38.414414" lon="-6.398724">
        <ele>529.008</ele>
        <time>2019-02-26T00:35:01Z</time>
      </trkpt>
      <trkpt lat="38.414624" lon="-6.398892">
        <ele>529.475</ele>
        <time>2019-02-26T00:35:06Z</time>
      </trkpt>
      <trkpt lat="38.414745" lon="-6.399145">
        <ele>529.596</ele>
        <time>2019-02-26T00:35:11Z</time>
      </trkpt>
      <trkpt lat="38.414749" lon="-6.399268">
        <ele>529.347</ele>
        <time>2019-02-26T00:35:13Z</time>
      </trkpt>
      <trkpt lat="38.414761" lon="-6.399384">
        <ele>529.386</ele>
        <time>2019-02-26T00:35:15Z</time>
      </trkpt>
      <trkpt lat="38.414793" lon="-6.399493">
        <ele>529.350</ele>
        <time>2019-02-26T00:35:17Z</time>
      </trkpt>
      <trkpt lat="38.415380" lon="-6.400695">
        <ele>529.263</ele>
        <time>2019-02-26T00:35:38Z</time>
      </trkpt>
      <trkpt lat="38.416226" lon="-6.402002">
        <ele>527.282</ele>
        <time>2019-02-26T00:35:58Z</time>
      </trkpt>
      <trkpt lat="38.417170" lon="-6.403191">
        <ele>525.151</ele>
        <time>2019-02-26T00:36:17Z</time>
      </trkpt>
      <trkpt lat="38.418219" lon="-6.404500">
        <ele>523.193</ele>
        <time>2019-02-26T00:36:38Z</time>
      </trkpt>
      <trkpt lat="38.418437" lon="-6.404754">
        <ele>523.165</ele>
        <time>2019-02-26T00:36:43Z</time>
      </trkpt>
      <trkpt lat="38.418488" lon="-6.404782">
        <ele>523.121</ele>
        <time>2019-02-26T00:36:44Z</time>
      </trkpt>
      <trkpt lat="38.418595" lon="-6.404833">
        <ele>523.008</ele>
        <time>2019-02-26T00:36:46Z</time>
      </trkpt>
      <trkpt lat="38.418641" lon="-6.404873">
        <ele>522.932</ele>
        <time>2019-02-26T00:36:47Z</time>
      </trkpt>
      <trkpt lat="38.418679" lon="-6.404925">
        <ele>522.923</ele>
        <time>2019-02-26T00:36:48Z</time>
      </trkpt>
      <trkpt lat="38.418711" lon="-6.404986">
        <ele>522.864</ele>
        <time>2019-02-26T00:36:49Z</time>
      </trkpt>
      <trkpt lat="38.418739" lon="-6.405048">
        <ele>522.773</ele>
        <time>2019-02-26T00:36:50Z</time>
      </trkpt>
      <trkpt lat="38.418862" lon="-6.405298">
        <ele>522.757</ele>
        <time>2019-02-26T00:36:54Z</time>
      </trkpt>
      <trkpt lat="38.419572" lon="-6.406207">
        <ele>522.220</ele>
        <time>2019-02-26T00:37:11Z</time>
      </trkpt>
      <trkpt lat="38.420151" lon="-6.406914">
        <ele>521.649</ele>
        <time>2019-02-26T00:37:27Z</time>
      </trkpt>
      <trkpt lat="38.420163" lon="-6.406922">
        <ele>521.638</ele>
        <time>2019-02-26T00:37:32Z</time>
      </trkpt>
      <trkpt lat="38.420198" lon="-6.406980">
        <ele>521.548</ele>
        <time>2019-02-26T00:37:51Z</time>
      </trkpt>
      <trkpt lat="38.420214" lon="-6.407002">
        <ele>521.561</ele>
        <time>2019-02-26T00:37:52Z</time>
      </trkpt>
      <trkpt lat="38.420616" lon="-6.407506">
        <ele>521.617</ele>
        <time>2019-02-26T00:38:07Z</time>
      </trkpt>
      <trkpt lat="38.420948" lon="-6.407915">
        <ele>522.408</ele>
        <time>2019-02-26T00:38:18Z</time>
      </trkpt>
      <trkpt lat="38.420978" lon="-6.407949">
        <ele>522.557</ele>
        <time>2019-02-26T00:38:19Z</time>
      </trkpt>
      <trkpt lat="38.421394" lon="-6.408477">
        <ele>522.458</ele>
        <time>2019-02-26T00:38:31Z</time>
      </trkpt>
      <trkpt lat="38.421906" lon="-6.409340">
        <ele>521.259</ele>
        <time>2019-02-26T00:38:44Z</time>
      </trkpt>
      <trkpt lat="38.422004" lon="-6.409498">
        <ele>520.778</ele>
        <time>2019-02-26T00:38:46Z</time>
      </trkpt>
      <trkpt lat="38.422050" lon="-6.409580">
        <ele>520.512</ele>
        <time>2019-02-26T00:38:47Z</time>
      </trkpt>
      <trkpt lat="38.422688" lon="-6.410719">
        <ele>517.425</ele>
        <time>2019-02-26T00:39:00Z</time>
      </trkpt>
      <trkpt lat="38.423230" lon="-6.411488">
        <ele>518.564</ele>
        <time>2019-02-26T00:39:12Z</time>
      </trkpt>
      <trkpt lat="38.423613" lon="-6.411774">
        <ele>519.433</ele>
        <time>2019-02-26T00:39:21Z</time>
      </trkpt>
      <trkpt lat="38.423655" lon="-6.411783">
        <ele>519.661</ele>
        <time>2019-02-26T00:39:22Z</time>
      </trkpt>
      <trkpt lat="38.423697" lon="-6.411784">
        <ele>519.821</ele>
        <time>2019-02-26T00:39:23Z</time>
      </trkpt>
      <trkpt lat="38.423741" lon="-6.411783">
        <ele>519.913</ele>
        <time>2019-02-26T00:39:24Z</time>
      </trkpt>
      <trkpt lat="38.423784" lon="-6.411772">
        <ele>520.208</ele>
        <time>2019-02-26T00:39:25Z</time>
      </trkpt>
      <trkpt lat="38.423823" lon="-6.411752">
        <ele>520.419</ele>
        <time>2019-02-26T00:39:26Z</time>
      </trkpt>
      <trkpt lat="38.423857" lon="-6.411727">
        <ele>520.620</ele>
        <time>2019-02-26T00:39:27Z</time>
      </trkpt>
      <trkpt lat="38.423892" lon="-6.411698">
        <ele>520.831</ele>
        <time>2019-02-26T00:39:28Z</time>
      </trkpt>
      <trkpt lat="38.424000" lon="-6.411600">
        <ele>521.040</ele>
        <time>2019-02-26T00:39:32Z</time>
      </trkpt>
      <trkpt lat="38.424006" lon="-6.411585">
        <ele>521.074</ele>
        <time>2019-02-26T00:39:33Z</time>
      </trkpt>
      <trkpt lat="38.423973" lon="-6.411587">
        <ele>521.067</ele>
        <time>2019-02-26T00:39:40Z</time>
      </trkpt>
      <trkpt lat="38.423949" lon="-6.411595">
        <ele>521.076</ele>
        <time>2019-02-26T00:39:41Z</time>
      </trkpt>
      <trkpt lat="38.423920" lon="-6.411612">
        <ele>521.015</ele>
        <time>2019-02-26T00:39:42Z</time>
      </trkpt>
      <trkpt lat="38.423841" lon="-6.411663">
        <ele>521.047</ele>
        <time>2019-02-26T00:39:50Z</time>
      </trkpt>
      <trkpt lat="38.423881" lon="-6.411718">
        <ele>521.129</ele>
        <time>2019-02-26T00:40:12Z</time>
      </trkpt>
      <trkpt lat="38.423902" lon="-6.411721">
        <ele>521.121</ele>
        <time>2019-02-26T00:40:13Z</time>
      </trkpt>
      <trkpt lat="38.423928" lon="-6.411706">
        <ele>521.108</ele>
        <time>2019-02-26T00:40:14Z</time>
      </trkpt>
      <trkpt lat="38.423955" lon="-6.411686">
        <ele>521.137</ele>
        <time>2019-02-26T00:40:15Z</time>
      </trkpt>
      <trkpt lat="38.423984" lon="-6.411666">
        <ele>521.198</ele>
        <time>2019-02-26T00:40:16Z</time>
      </trkpt>
      <trkpt lat="38.424016" lon="-6.411649">
        <ele>521.159</ele>
        <time>2019-02-26T00:40:17Z</time>
      </trkpt>
      <trkpt lat="38.424048" lon="-6.411637">
        <ele>521.178</ele>
        <time>2019-02-26T00:40:18Z</time>
      </trkpt>
      <trkpt lat="38.424081" lon="-6.411631">
        <ele>521.132</ele>
        <time>2019-02-26T00:40:19Z</time>
      </trkpt>
      <trkpt lat="38.424115" lon="-6.411633">
        <ele>521.155</ele>
        <time>2019-02-26T00:40:20Z</time>
      </trkpt>
      <trkpt lat="38.424149" lon="-6.411644">
        <ele>521.124</ele>
        <time>2019-02-26T00:40:21Z</time>
      </trkpt>
      <trkpt lat="38.424184" lon="-6.411663">
        <ele>521.163</ele>
        <time>2019-02-26T00:40:22Z</time>
      </trkpt>
      <trkpt lat="38.424215" lon="-6.411687">
        <ele>521.164</ele>
        <time>2019-02-26T00:40:23Z</time>
      </trkpt>
      <trkpt lat="38.424242" lon="-6.411717">
        <ele>521.106</ele>
        <time>2019-02-26T00:40:24Z</time>
      </trkpt>
      <trkpt lat="38.424262" lon="-6.411757">
        <ele>521.016</ele>
        <time>2019-02-26T00:40:25Z</time>
      </trkpt>
      <trkpt lat="38.424278" lon="-6.411802">
        <ele>521.008</ele>
        <time>2019-02-26T00:40:26Z</time>
      </trkpt>
      <trkpt lat="38.424283" lon="-6.411849">
        <ele>521.089</ele>
        <time>2019-02-26T00:40:27Z</time>
      </trkpt>
      <trkpt lat="38.424279" lon="-6.411899">
        <ele>521.010</ele>
        <time>2019-02-26T00:40:28Z</time>
      </trkpt>
      <trkpt lat="38.424269" lon="-6.411950">
        <ele>520.971</ele>
        <time>2019-02-26T00:40:29Z</time>
      </trkpt>
      <trkpt lat="38.424251" lon="-6.411999">
        <ele>520.990</ele>
        <time>2019-02-26T00:40:30Z</time>
      </trkpt>
      <trkpt lat="38.424225" lon="-6.412046">
        <ele>520.914</ele>
        <time>2019-02-26T00:40:31Z</time>
      </trkpt>
      <trkpt lat="38.424193" lon="-6.412087">
        <ele>520.827</ele>
        <time>2019-02-26T00:40:32Z</time>
      </trkpt>
      <trkpt lat="38.424158" lon="-6.412125">
        <ele>520.866</ele>
        <time>2019-02-26T00:40:33Z</time>
      </trkpt>
      <trkpt lat="38.424080" lon="-6.412196">
        <ele>520.785</ele>
        <time>2019-02-26T00:40:35Z</time>
      </trkpt>
      <trkpt lat="38.423951" lon="-6.412300">
        <ele>520.337</ele>
        <time>2019-02-26T00:40:38Z</time>
      </trkpt>
      <trkpt lat="38.423909" lon="-6.412347">
        <ele>520.249</ele>
        <time>2019-02-26T00:40:39Z</time>
      </trkpt>
      <trkpt lat="38.423779" lon="-6.412501">
        <ele>520.013</ele>
        <time>2019-02-26T00:40:42Z</time>
      </trkpt>
      <trkpt lat="38.423739" lon="-6.412550">
        <ele>520.008</ele>
        <time>2019-02-26T00:40:43Z</time>
      </trkpt>
      <trkpt lat="38.423704" lon="-6.412601">
        <ele>519.976</ele>
        <time>2019-02-26T00:40:44Z</time>
      </trkpt>
      <trkpt lat="38.423420" lon="-6.412970">
        <ele>518.957</ele>
        <time>2019-02-26T00:40:52Z</time>
      </trkpt>
      <trkpt lat="38.423382" lon="-6.413012">
        <ele>518.778</ele>
        <time>2019-02-26T00:40:53Z</time>
      </trkpt>
      <trkpt lat="38.423301" lon="-6.413094">
        <ele>518.327</ele>
        <time>2019-02-26T00:40:55Z</time>
      </trkpt>
      <trkpt lat="38.423256" lon="-6.413136">
        <ele>518.161</ele>
        <time>2019-02-26T00:40:56Z</time>
      </trkpt>
      <trkpt lat="38.423214" lon="-6.413179">
        <ele>517.934</ele>
        <time>2019-02-26T00:40:57Z</time>
      </trkpt>
      <trkpt lat="38.423081" lon="-6.413318">
        <ele>517.253</ele>
        <time>2019-02-26T00:41:00Z</time>
      </trkpt>
      <trkpt lat="38.422958" lon="-6.413478">
        <ele>516.512</ele>
        <time>2019-02-26T00:41:03Z</time>
      </trkpt>
      <trkpt lat="38.422863" lon="-6.413547">
        <ele>516.582</ele>
        <time>2019-02-26T00:41:06Z</time>
      </trkpt>
      <trkpt lat="38.422850" lon="-6.413539">
        <ele>516.443</ele>
        <time>2019-02-26T00:41:07Z</time>
      </trkpt>
      <trkpt lat="38.422820" lon="-6.413453">
        <ele>516.417</ele>
        <time>2019-02-26T00:41:17Z</time>
      </trkpt>
      <trkpt lat="38.422816" lon="-6.413449">
        <ele>516.408</ele>
        <time>2019-02-26T00:41:18Z</time>
      </trkpt>
      <trkpt lat="38.422786" lon="-6.413430">
        <ele>516.311</ele>
        <time>2019-02-26T00:41:24Z</time>
      </trkpt>
      <trkpt lat="38.422817" lon="-6.413407">
        <ele>516.362</ele>
        <time>2019-02-26T01:18:02Z</time>
      </trkpt>
      <trkpt lat="38.422827" lon="-6.413424">
        <ele>516.333</ele>
        <time>2019-02-26T01:18:03Z</time>
      </trkpt>
      <trkpt lat="38.422877" lon="-6.413551">
        <ele>516.572</ele>
        <time>2019-02-26T01:18:11Z</time>
      </trkpt>
      <trkpt lat="38.422883" lon="-6.413575">
        <ele>516.646</ele>
        <time>2019-02-26T01:18:17Z</time>
      </trkpt>
      <trkpt lat="38.422821" lon="-6.413420">
        <ele>516.399</ele>
        <time>2019-02-26T01:22:34Z</time>
      </trkpt>
      <trkpt lat="38.422831" lon="-6.413389">
        <ele>516.478</ele>
        <time>2019-02-26T01:22:35Z</time>
      </trkpt>
      <trkpt lat="38.422849" lon="-6.413362">
        <ele>516.537</ele>
        <time>2019-02-26T01:22:36Z</time>
      </trkpt>
      <trkpt lat="38.422869" lon="-6.413343">
        <ele>516.621</ele>
        <time>2019-02-26T01:22:37Z</time>
      </trkpt>
      <trkpt lat="38.422889" lon="-6.413322">
        <ele>516.741</ele>
        <time>2019-02-26T01:22:38Z</time>
      </trkpt>
      <trkpt lat="38.422909" lon="-6.413299">
        <ele>516.705</ele>
        <time>2019-02-26T01:22:39Z</time>
      </trkpt>
      <trkpt lat="38.423132" lon="-6.413026">
        <ele>517.908</ele>
        <time>2019-02-26T01:22:50Z</time>
      </trkpt>
      <trkpt lat="38.423456" lon="-6.412653">
        <ele>519.645</ele>
        <time>2019-02-26T01:23:05Z</time>
      </trkpt>
      <trkpt lat="38.423816" lon="-6.412302">
        <ele>520.216</ele>
        <time>2019-02-26T01:23:19Z</time>
      </trkpt>
      <trkpt lat="38.423870" lon="-6.411945">
        <ele>520.647</ele>
        <time>2019-02-26T01:23:30Z</time>
      </trkpt>
      <trkpt lat="38.424052" lon="-6.411540">
        <ele>521.156</ele>
        <time>2019-02-26T01:23:42Z</time>
      </trkpt>
      <trkpt lat="38.424347" lon="-6.411740">
        <ele>521.010</ele>
        <time>2019-02-26T01:23:54Z</time>
      </trkpt>
      <trkpt lat="38.424408" lon="-6.411848">
        <ele>521.043</ele>
        <time>2019-02-26T01:23:58Z</time>
      </trkpt>
      <trkpt lat="38.424435" lon="-6.411859">
        <ele>521.062</ele>
        <time>2019-02-26T01:23:59Z</time>
      </trkpt>
      <trkpt lat="38.424465" lon="-6.411869">
        <ele>521.121</ele>
        <time>2019-02-26T01:24:00Z</time>
      </trkpt>
      <trkpt lat="38.424498" lon="-6.411874">
        <ele>521.145</ele>
        <time>2019-02-26T01:24:01Z</time>
      </trkpt>
      <trkpt lat="38.424530" lon="-6.411875">
        <ele>521.147</ele>
        <time>2019-02-26T01:24:02Z</time>
      </trkpt>
      <trkpt lat="38.424561" lon="-6.411875">
        <ele>521.111</ele>
        <time>2019-02-26T01:24:03Z</time>
      </trkpt>
      <trkpt lat="38.425125" lon="-6.411835">
        <ele>521.608</ele>
        <time>2019-02-26T01:24:20Z</time>
      </trkpt>
      <trkpt lat="38.425727" lon="-6.411806">
        <ele>523.497</ele>
        <time>2019-02-26T01:24:37Z</time>
      </trkpt>
      <trkpt lat="38.426347" lon="-6.411743">
        <ele>523.758</ele>
        <time>2019-02-26T01:24:55Z</time>
      </trkpt>
      <trkpt lat="38.426891" lon="-6.411721">
        <ele>523.639</ele>
        <time>2019-02-26T01:25:12Z</time>
      </trkpt>
      <trkpt lat="38.427503" lon="-6.411774">
        <ele>523.628</ele>
        <time>2019-02-26T01:25:30Z</time>
      </trkpt>
      <trkpt lat="38.428267" lon="-6.412137">
        <ele>523.632</ele>
        <time>2019-02-26T01:25:51Z</time>
      </trkpt>
      <trkpt lat="38.429000" lon="-6.412734">
        <ele>523.845</ele>
        <time>2019-02-26T01:26:10Z</time>
      </trkpt>
      <trkpt lat="38.429039" lon="-6.412761">
        <ele>523.854</ele>
        <time>2019-02-26T01:26:11Z</time>
      </trkpt>
      <trkpt lat="38.429077" lon="-6.412785">
        <ele>523.923</ele>
        <time>2019-02-26T01:26:12Z</time>
      </trkpt>
      <trkpt lat="38.429120" lon="-6.412799">
        <ele>523.952</ele>
        <time>2019-02-26T01:26:13Z</time>
      </trkpt>
      <trkpt lat="38.429166" lon="-6.412806">
        <ele>524.053</ele>
        <time>2019-02-26T01:26:14Z</time>
      </trkpt>
      <trkpt lat="38.429214" lon="-6.412810">
        <ele>524.008</ele>
        <time>2019-02-26T01:26:15Z</time>
      </trkpt>
      <trkpt lat="38.429305" lon="-6.412829">
        <ele>524.108</ele>
        <time>2019-02-26T01:26:17Z</time>
      </trkpt>
      <trkpt lat="38.429348" lon="-6.412848">
        <ele>524.238</ele>
        <time>2019-02-26T01:26:18Z</time>
      </trkpt>
      <trkpt lat="38.429387" lon="-6.412877">
        <ele>524.259</ele>
        <time>2019-02-26T01:26:19Z</time>
      </trkpt>
      <trkpt lat="38.429421" lon="-6.412917">
        <ele>524.340</ele>
        <time>2019-02-26T01:26:20Z</time>
      </trkpt>
      <trkpt lat="38.429449" lon="-6.412965">
        <ele>524.379</ele>
        <time>2019-02-26T01:26:21Z</time>
      </trkpt>
      <trkpt lat="38.429472" lon="-6.413020">
        <ele>524.483</ele>
        <time>2019-02-26T01:26:22Z</time>
      </trkpt>
      <trkpt lat="38.429550" lon="-6.413174">
        <ele>524.796</ele>
        <time>2019-02-26T01:26:25Z</time>
      </trkpt>
      <trkpt lat="38.429580" lon="-6.413213">
        <ele>524.895</ele>
        <time>2019-02-26T01:26:26Z</time>
      </trkpt>
      <trkpt lat="38.430118" lon="-6.413923">
        <ele>525.764</ele>
        <time>2019-02-26T01:26:43Z</time>
      </trkpt>
      <trkpt lat="38.430321" lon="-6.414354">
        <ele>525.981</ele>
        <time>2019-02-26T01:26:52Z</time>
      </trkpt>
      <trkpt lat="38.430349" lon="-6.414389">
        <ele>525.961</ele>
        <time>2019-02-26T01:26:53Z</time>
      </trkpt>
      <trkpt lat="38.430382" lon="-6.414412">
        <ele>525.917</ele>
        <time>2019-02-26T01:26:54Z</time>
      </trkpt>
      <trkpt lat="38.430413" lon="-6.414422">
        <ele>525.908</ele>
        <time>2019-02-26T01:26:55Z</time>
      </trkpt>
      <trkpt lat="38.430440" lon="-6.414423">
        <ele>525.941</ele>
        <time>2019-02-26T01:26:56Z</time>
      </trkpt>
      <trkpt lat="38.430462" lon="-6.414421">
        <ele>525.842</ele>
        <time>2019-02-26T01:26:57Z</time>
      </trkpt>
      <trkpt lat="38.430710" lon="-6.414301">
        <ele>525.943</ele>
        <time>2019-02-26T01:27:07Z</time>
      </trkpt>
      <trkpt lat="38.430915" lon="-6.414145">
        <ele>526.552</ele>
        <time>2019-02-26T01:27:20Z</time>
      </trkpt>
      <trkpt lat="38.430915" lon="-6.414141">
        <ele>526.546</ele>
        <time>2019-02-26T01:27:21Z</time>
      </trkpt>
      <trkpt lat="38.430978" lon="-6.414058">
        <ele>526.989</ele>
        <time>2019-02-26T01:30:39Z</time>
      </trkpt>
      <trkpt lat="38.431365" lon="-6.413829">
        <ele>528.968</ele>
        <time>2019-02-26T01:30:53Z</time>
      </trkpt>
      <trkpt lat="38.431780" lon="-6.413587">
        <ele>531.287</ele>
        <time>2019-02-26T01:31:07Z</time>
      </trkpt>
      <trkpt lat="38.432076" lon="-6.413389">
        <ele>533.417</ele>
        <time>2019-02-26T01:31:22Z</time>
      </trkpt>
      <trkpt lat="38.432355" lon="-6.413185">
        <ele>534.987</ele>
        <time>2019-02-26T01:31:37Z</time>
      </trkpt>
      <trkpt lat="38.432534" lon="-6.413077">
        <ele>535.715</ele>
        <time>2019-02-26T01:31:47Z</time>
      </trkpt>
      <trkpt lat="38.432729" lon="-6.412932">
        <ele>535.908</ele>
        <time>2019-02-26T01:31:57Z</time>
      </trkpt>
      <trkpt lat="38.432909" lon="-6.412545">
        <ele>536.184</ele>
        <time>2019-02-26T01:32:07Z</time>
      </trkpt>
      <trkpt lat="38.433178" lon="-6.411882">
        <ele>536.565</ele>
        <time>2019-02-26T01:32:22Z</time>
      </trkpt>
      <trkpt lat="38.433364" lon="-6.411433">
        <ele>537.246</ele>
        <time>2019-02-26T01:32:35Z</time>
      </trkpt>
      <trkpt lat="38.433366" lon="-6.411435">
        <ele>537.245</ele>
        <time>2019-02-26T01:32:38Z</time>
      </trkpt>
      <trkpt lat="38.433409" lon="-6.411400">
        <ele>537.329</ele>
        <time>2019-02-26T01:32:56Z</time>
      </trkpt>
      <trkpt lat="38.433626" lon="-6.411020">
        <ele>538.252</ele>
        <time>2019-02-26T01:33:08Z</time>
      </trkpt>
      <trkpt lat="38.433856" lon="-6.410570">
        <ele>540.261</ele>
        <time>2019-02-26T01:33:22Z</time>
      </trkpt>
      <trkpt lat="38.434119" lon="-6.410004">
        <ele>543.380</ele>
        <time>2019-02-26T01:33:41Z</time>
      </trkpt>
      <trkpt lat="38.434295" lon="-6.409565">
        <ele>544.748</ele>
        <time>2019-02-26T01:33:58Z</time>
      </trkpt>
      <trkpt lat="38.434437" lon="-6.409111">
        <ele>544.461</ele>
        <time>2019-02-26T01:34:11Z</time>
      </trkpt>
      <trkpt lat="38.434811" lon="-6.408171">
        <ele>543.617</ele>
        <time>2019-02-26T01:34:26Z</time>
      </trkpt>
      <trkpt lat="38.435145" lon="-6.407462">
        <ele>545.508</ele>
        <time>2019-02-26T01:34:41Z</time>
      </trkpt>
      <trkpt lat="38.435339" lon="-6.406947">
        <ele>547.767</ele>
        <time>2019-02-26T01:34:59Z</time>
      </trkpt>
      <trkpt lat="38.435529" lon="-6.406488">
        <ele>549.128</ele>
        <time>2019-02-26T01:35:16Z</time>
      </trkpt>
      <trkpt lat="38.435809" lon="-6.405872">
        <ele>550.929</ele>
        <time>2019-02-26T01:35:35Z</time>
      </trkpt>
      <trkpt lat="38.436012" lon="-6.405366">
        <ele>551.728</ele>
        <time>2019-02-26T01:35:51Z</time>
      </trkpt>
      <trkpt lat="38.436323" lon="-6.404542">
        <ele>552.482</ele>
        <time>2019-02-26T01:36:13Z</time>
      </trkpt>
      <trkpt lat="38.436652" lon="-6.403742">
        <ele>554.315</ele>
        <time>2019-02-26T01:36:32Z</time>
      </trkpt>
      <trkpt lat="38.436828" lon="-6.403315">
        <ele>556.494</ele>
        <time>2019-02-26T01:36:47Z</time>
      </trkpt>
      <trkpt lat="38.436945" lon="-6.402992">
        <ele>558.163</ele>
        <time>2019-02-26T01:36:59Z</time>
      </trkpt>
      <trkpt lat="38.437134" lon="-6.402600">
        <ele>559.287</ele>
        <time>2019-02-26T01:37:13Z</time>
      </trkpt>
      <trkpt lat="38.437329" lon="-6.402124">
        <ele>559.842</ele>
        <time>2019-02-26T01:37:29Z</time>
      </trkpt>
      <trkpt lat="38.437636" lon="-6.401519">
        <ele>560.226</ele>
        <time>2019-02-26T01:37:44Z</time>
      </trkpt>
      <trkpt lat="38.437689" lon="-6.401422">
        <ele>560.408</ele>
        <time>2019-02-26T01:37:46Z</time>
      </trkpt>
      <trkpt lat="38.437715" lon="-6.401378">
        <ele>560.671</ele>
        <time>2019-02-26T01:37:47Z</time>
      </trkpt>
      <trkpt lat="38.437737" lon="-6.401334">
        <ele>560.712</ele>
        <time>2019-02-26T01:37:48Z</time>
      </trkpt>
      <trkpt lat="38.437750" lon="-6.401290">
        <ele>560.823</ele>
        <time>2019-02-26T01:37:49Z</time>
      </trkpt>
      <trkpt lat="38.437762" lon="-6.401247">
        <ele>560.962</ele>
        <time>2019-02-26T01:37:50Z</time>
      </trkpt>
      <trkpt lat="38.437774" lon="-6.401207">
        <ele>561.016</ele>
        <time>2019-02-26T01:37:51Z</time>
      </trkpt>
      <trkpt lat="38.437972" lon="-6.400629">
        <ele>563.529</ele>
        <time>2019-02-26T01:38:09Z</time>
      </trkpt>
      <trkpt lat="38.438195" lon="-6.400138">
        <ele>566.178</ele>
        <time>2019-02-26T01:38:26Z</time>
      </trkpt>
      <trkpt lat="38.438512" lon="-6.399701">
        <ele>568.617</ele>
        <time>2019-02-26T01:38:45Z</time>
      </trkpt>
      <trkpt lat="38.438875" lon="-6.399290">
        <ele>570.997</ele>
        <time>2019-02-26T01:39:04Z</time>
      </trkpt>
      <trkpt lat="38.439207" lon="-6.398972">
        <ele>573.323</ele>
        <time>2019-02-26T01:39:21Z</time>
      </trkpt>
      <trkpt lat="38.439523" lon="-6.398755">
        <ele>575.925</ele>
        <time>2019-02-26T01:39:39Z</time>
      </trkpt>
      <trkpt lat="38.439736" lon="-6.398512">
        <ele>578.008</ele>
        <time>2019-02-26T01:39:56Z</time>
      </trkpt>
      <trkpt lat="38.439906" lon="-6.398192">
        <ele>580.042</ele>
        <time>2019-02-26T01:40:13Z</time>
      </trkpt>
      <trkpt lat="38.440015" lon="-6.397844">
        <ele>581.763</ele>
        <time>2019-02-26T01:40:29Z</time>
      </trkpt>
      <trkpt lat="38.440117" lon="-6.397436">
        <ele>583.864</ele>
        <time>2019-02-26T01:40:46Z</time>
      </trkpt>
      <trkpt lat="38.440183" lon="-6.397136">
        <ele>585.253</ele>
        <time>2019-02-26T01:41:00Z</time>
      </trkpt>
      <trkpt lat="38.440219" lon="-6.396648">
        <ele>587.697</ele>
        <time>2019-02-26T01:41:19Z</time>
      </trkpt>
      <trkpt lat="38.440278" lon="-6.396157">
        <ele>590.280</ele>
        <time>2019-02-26T01:41:39Z</time>
      </trkpt>
      <trkpt lat="38.440380" lon="-6.395778">
        <ele>592.669</ele>
        <time>2019-02-26T01:41:56Z</time>
      </trkpt>
      <trkpt lat="38.440444" lon="-6.395427">
        <ele>594.278</ele>
        <time>2019-02-26T01:42:11Z</time>
      </trkpt>
      <trkpt lat="38.440574" lon="-6.395082">
        <ele>595.255</ele>
        <time>2019-02-26T01:42:26Z</time>
      </trkpt>
      <trkpt lat="38.440769" lon="-6.394499">
        <ele>596.507</ele>
        <time>2019-02-26T01:42:42Z</time>
      </trkpt>
      <trkpt lat="38.440933" lon="-6.394009">
        <ele>598.717</ele>
        <time>2019-02-26T01:42:57Z</time>
      </trkpt>
      <trkpt lat="38.440986" lon="-6.393612">
        <ele>600.808</ele>
        <time>2019-02-26T01:43:14Z</time>
      </trkpt>
      <trkpt lat="38.441059" lon="-6.393197">
        <ele>602.218</ele>
        <time>2019-02-26T01:43:31Z</time>
      </trkpt>
      <trkpt lat="38.441295" lon="-6.392714">
        <ele>603.959</ele>
        <time>2019-02-26T01:43:47Z</time>
      </trkpt>
      <trkpt lat="38.441452" lon="-6.392285">
        <ele>605.690</ele>
        <time>2019-02-26T01:44:01Z</time>
      </trkpt>
      <trkpt lat="38.441711" lon="-6.391808">
        <ele>607.299</ele>
        <time>2019-02-26T01:44:19Z</time>
      </trkpt>
      <trkpt lat="38.441807" lon="-6.391707">
        <ele>607.413</ele>
        <time>2019-02-26T01:44:24Z</time>
      </trkpt>
      <trkpt lat="38.441820" lon="-6.391687">
        <ele>607.326</ele>
        <time>2019-02-26T01:44:25Z</time>
      </trkpt>
      <trkpt lat="38.441837" lon="-6.391670">
        <ele>607.395</ele>
        <time>2019-02-26T01:44:30Z</time>
      </trkpt>
      <trkpt lat="38.441890" lon="-6.391666">
        <ele>607.214</ele>
        <time>2019-02-26T01:45:10Z</time>
      </trkpt>
      <trkpt lat="38.441914" lon="-6.391630">
        <ele>607.291</ele>
        <time>2019-02-26T01:45:12Z</time>
      </trkpt>
      <trkpt lat="38.441918" lon="-6.391621">
        <ele>607.281</ele>
        <time>2019-02-26T01:45:16Z</time>
      </trkpt>
      <trkpt lat="38.441988" lon="-6.391575">
        <ele>607.019</ele>
        <time>2019-02-26T01:45:40Z</time>
      </trkpt>
      <trkpt lat="38.442322" lon="-6.391312">
        <ele>603.608</ele>
        <time>2019-02-26T01:45:51Z</time>
      </trkpt>
      <trkpt lat="38.442344" lon="-6.391257">
        <ele>602.942</ele>
        <time>2019-02-26T01:45:52Z</time>
      </trkpt>
      <trkpt lat="38.442358" lon="-6.391194">
        <ele>602.283</ele>
        <time>2019-02-26T01:45:53Z</time>
      </trkpt>
      <trkpt lat="38.442363" lon="-6.391125">
        <ele>601.544</ele>
        <time>2019-02-26T01:45:54Z</time>
      </trkpt>
      <trkpt lat="38.442362" lon="-6.391051">
        <ele>600.613</ele>
        <time>2019-02-26T01:45:55Z</time>
      </trkpt>
      <trkpt lat="38.442357" lon="-6.390978">
        <ele>599.717</ele>
        <time>2019-02-26T01:45:56Z</time>
      </trkpt>
      <trkpt lat="38.442356" lon="-6.390587">
        <ele>594.970</ele>
        <time>2019-02-26T01:46:01Z</time>
      </trkpt>
      <trkpt lat="38.442353" lon="-6.390310">
        <ele>592.239</ele>
        <time>2019-02-26T01:46:04Z</time>
      </trkpt>
      <trkpt lat="38.442363" lon="-6.390211">
        <ele>591.298</ele>
        <time>2019-02-26T01:46:05Z</time>
      </trkpt>
      <trkpt lat="38.442387" lon="-6.390118">
        <ele>590.243</ele>
        <time>2019-02-26T01:46:06Z</time>
      </trkpt>
      <trkpt lat="38.442423" lon="-6.390033">
        <ele>589.364</ele>
        <time>2019-02-26T01:46:07Z</time>
      </trkpt>
      <trkpt lat="38.442463" lon="-6.389956">
        <ele>588.410</ele>
        <time>2019-02-26T01:46:08Z</time>
      </trkpt>
      <trkpt lat="38.442509" lon="-6.389885">
        <ele>587.608</ele>
        <time>2019-02-26T01:46:09Z</time>
      </trkpt>
      <trkpt lat="38.442562" lon="-6.389824">
        <ele>586.897</ele>
        <time>2019-02-26T01:46:10Z</time>
      </trkpt>
      <trkpt lat="38.442618" lon="-6.389773">
        <ele>586.018</ele>
        <time>2019-02-26T01:46:11Z</time>
      </trkpt>
      <trkpt lat="38.442675" lon="-6.389733">
        <ele>585.249</ele>
        <time>2019-02-26T01:46:12Z</time>
      </trkpt>
      <trkpt lat="38.442732" lon="-6.389698">
        <ele>584.438</ele>
        <time>2019-02-26T01:46:13Z</time>
      </trkpt>
      <trkpt lat="38.442795" lon="-6.389670">
        <ele>583.562</ele>
        <time>2019-02-26T01:46:14Z</time>
      </trkpt>
      <trkpt lat="38.442864" lon="-6.389649">
        <ele>582.535</ele>
        <time>2019-02-26T01:46:15Z</time>
      </trkpt>
      <trkpt lat="38.443158" lon="-6.389564">
        <ele>578.194</ele>
        <time>2019-02-26T01:46:19Z</time>
      </trkpt>
      <trkpt lat="38.443334" lon="-6.389518">
        <ele>575.593</ele>
        <time>2019-02-26T01:46:23Z</time>
      </trkpt>
      <trkpt lat="38.443394" lon="-6.389502">
        <ele>574.683</ele>
        <time>2019-02-26T01:46:26Z</time>
      </trkpt>
      <trkpt lat="38.443403" lon="-6.389500">
        <ele>574.525</ele>
        <time>2019-02-26T01:46:30Z</time>
      </trkpt>
      <trkpt lat="38.443489" lon="-6.389446">
        <ele>573.117</ele>
        <time>2019-02-26T01:46:50Z</time>
      </trkpt>
      <trkpt lat="38.443986" lon="-6.389222">
        <ele>565.308</ele>
        <time>2019-02-26T01:46:59Z</time>
      </trkpt>
      <trkpt lat="38.444038" lon="-6.389183">
        <ele>564.421</ele>
        <time>2019-02-26T01:47:00Z</time>
      </trkpt>
      <trkpt lat="38.444087" lon="-6.389134">
        <ele>563.662</ele>
        <time>2019-02-26T01:47:01Z</time>
      </trkpt>
      <trkpt lat="38.444125" lon="-6.389069">
        <ele>562.713</ele>
        <time>2019-02-26T01:47:02Z</time>
      </trkpt>
      <trkpt lat="38.444160" lon="-6.389005">
        <ele>561.822</ele>
        <time>2019-02-26T01:47:03Z</time>
      </trkpt>
      <trkpt lat="38.444199" lon="-6.388951">
        <ele>561.146</ele>
        <time>2019-02-26T01:47:04Z</time>
      </trkpt>
      <trkpt lat="38.444241" lon="-6.388897">
        <ele>560.519</ele>
        <time>2019-02-26T01:47:05Z</time>
      </trkpt>
      <trkpt lat="38.444292" lon="-6.388849">
        <ele>559.818</ele>
        <time>2019-02-26T01:47:06Z</time>
      </trkpt>
      <trkpt lat="38.444346" lon="-6.388809">
        <ele>559.197</ele>
        <time>2019-02-26T01:47:07Z</time>
      </trkpt>
      <trkpt lat="38.444397" lon="-6.388767">
        <ele>558.443</ele>
        <time>2019-02-26T01:47:08Z</time>
      </trkpt>
      <trkpt lat="38.444446" lon="-6.388717">
        <ele>557.564</ele>
        <time>2019-02-26T01:47:09Z</time>
      </trkpt>
      <trkpt lat="38.444490" lon="-6.388655">
        <ele>556.610</ele>
        <time>2019-02-26T01:47:10Z</time>
      </trkpt>
      <trkpt lat="38.444572" lon="-6.388518">
        <ele>554.308</ele>
        <time>2019-02-26T01:47:12Z</time>
      </trkpt>
      <trkpt lat="38.444806" lon="-6.388229">
        <ele>550.247</ele>
        <time>2019-02-26T01:47:17Z</time>
      </trkpt>
      <trkpt lat="38.444864" lon="-6.388200">
        <ele>549.798</ele>
        <time>2019-02-26T01:47:18Z</time>
      </trkpt>
      <trkpt lat="38.445066" lon="-6.388100">
        <ele>548.469</ele>
        <time>2019-02-26T01:47:22Z</time>
      </trkpt>
      <trkpt lat="38.445114" lon="-6.388065">
        <ele>548.128</ele>
        <time>2019-02-26T01:47:23Z</time>
      </trkpt>
      <trkpt lat="38.445162" lon="-6.388021">
        <ele>547.852</ele>
        <time>2019-02-26T01:47:24Z</time>
      </trkpt>
      <trkpt lat="38.445208" lon="-6.387972">
        <ele>547.485</ele>
        <time>2019-02-26T01:47:25Z</time>
      </trkpt>
      <trkpt lat="38.445253" lon="-6.387917">
        <ele>547.194</ele>
        <time>2019-02-26T01:47:26Z</time>
      </trkpt>
      <trkpt lat="38.445296" lon="-6.387856">
        <ele>546.673</ele>
        <time>2019-02-26T01:47:27Z</time>
      </trkpt>
      <trkpt lat="38.445340" lon="-6.387791">
        <ele>546.285</ele>
        <time>2019-02-26T01:47:28Z</time>
      </trkpt>
      <trkpt lat="38.445388" lon="-6.387727">
        <ele>545.989</ele>
        <time>2019-02-26T01:47:29Z</time>
      </trkpt>
      <trkpt lat="38.445874" lon="-6.387224">
        <ele>543.717</ele>
        <time>2019-02-26T01:47:37Z</time>
      </trkpt>
      <trkpt lat="38.446161" lon="-6.387004">
        <ele>542.908</ele>
        <time>2019-02-26T01:47:41Z</time>
      </trkpt>
      <trkpt lat="38.446238" lon="-6.386962">
        <ele>542.711</ele>
        <time>2019-02-26T01:47:42Z</time>
      </trkpt>
      <trkpt lat="38.446306" lon="-6.386909">
        <ele>542.672</ele>
        <time>2019-02-26T01:47:43Z</time>
      </trkpt>
      <trkpt lat="38.446373" lon="-6.386859">
        <ele>542.493</ele>
        <time>2019-02-26T01:47:44Z</time>
      </trkpt>
      <trkpt lat="38.446442" lon="-6.386808">
        <ele>542.212</ele>
        <time>2019-02-26T01:47:45Z</time>
      </trkpt>
      <trkpt lat="38.446509" lon="-6.386752">
        <ele>542.166</ele>
        <time>2019-02-26T01:47:46Z</time>
      </trkpt>
      <trkpt lat="38.446820" lon="-6.386473">
        <ele>541.659</ele>
        <time>2019-02-26T01:47:51Z</time>
      </trkpt>
      <trkpt lat="38.447219" lon="-6.386197">
        <ele>540.748</ele>
        <time>2019-02-26T01:47:58Z</time>
      </trkpt>
      <trkpt lat="38.447899" lon="-6.385798">
        <ele>540.257</ele>
        <time>2019-02-26T01:48:09Z</time>
      </trkpt>
      <trkpt lat="38.447946" lon="-6.385758">
        <ele>539.922</ele>
        <time>2019-02-26T01:48:10Z</time>
      </trkpt>
      <trkpt lat="38.448033" lon="-6.385662">
        <ele>539.562</ele>
        <time>2019-02-26T01:48:12Z</time>
      </trkpt>
      <trkpt lat="38.448069" lon="-6.385605">
        <ele>539.308</ele>
        <time>2019-02-26T01:48:13Z</time>
      </trkpt>
      <trkpt lat="38.448168" lon="-6.385415">
        <ele>538.508</ele>
        <time>2019-02-26T01:48:16Z</time>
      </trkpt>
      <trkpt lat="38.448193" lon="-6.385344">
        <ele>538.125</ele>
        <time>2019-02-26T01:48:17Z</time>
      </trkpt>
      <trkpt lat="38.448243" lon="-6.385201">
        <ele>537.336</ele>
        <time>2019-02-26T01:48:19Z</time>
      </trkpt>
      <trkpt lat="38.448331" lon="-6.384857">
        <ele>536.247</ele>
        <time>2019-02-26T01:48:24Z</time>
      </trkpt>
      <trkpt lat="38.448346" lon="-6.384789">
        <ele>536.166</ele>
        <time>2019-02-26T01:48:25Z</time>
      </trkpt>
      <trkpt lat="38.448530" lon="-6.384289">
        <ele>535.480</ele>
        <time>2019-02-26T01:48:34Z</time>
      </trkpt>
      <trkpt lat="38.448557" lon="-6.384271">
        <ele>535.243</ele>
        <time>2019-02-26T01:48:35Z</time>
      </trkpt>
      <trkpt lat="38.448588" lon="-6.384276">
        <ele>535.282</ele>
        <time>2019-02-26T01:48:36Z</time>
      </trkpt>
      <trkpt lat="38.448623" lon="-6.384295">
        <ele>535.121</ele>
        <time>2019-02-26T01:48:37Z</time>
      </trkpt>
      <trkpt lat="38.448655" lon="-6.384319">
        <ele>535.077</ele>
        <time>2019-02-26T01:48:38Z</time>
      </trkpt>
      <trkpt lat="38.448686" lon="-6.384347">
        <ele>534.961</ele>
        <time>2019-02-26T01:48:39Z</time>
      </trkpt>
      <trkpt lat="38.448717" lon="-6.384380">
        <ele>534.727</ele>
        <time>2019-02-26T01:48:40Z</time>
      </trkpt>
      <trkpt lat="38.448853" lon="-6.384465">
        <ele>534.308</ele>
        <time>2019-02-26T01:48:44Z</time>
      </trkpt>
      <trkpt lat="38.448887" lon="-6.384440">
        <ele>534.360</ele>
        <time>2019-02-26T01:48:45Z</time>
      </trkpt>
      <trkpt lat="38.448917" lon="-6.384395">
        <ele>534.131</ele>
        <time>2019-02-26T01:48:46Z</time>
      </trkpt>
      <trkpt lat="38.448945" lon="-6.384344">
        <ele>533.962</ele>
        <time>2019-02-26T01:48:47Z</time>
      </trkpt>
      <trkpt lat="38.448969" lon="-6.384297">
        <ele>533.891</ele>
        <time>2019-02-26T01:48:48Z</time>
      </trkpt>
      <trkpt lat="38.448992" lon="-6.384269">
        <ele>533.695</ele>
        <time>2019-02-26T01:48:53Z</time>
      </trkpt>
      <trkpt lat="38.449025" lon="-6.384223">
        <ele>533.468</ele>
        <time>2019-02-26T01:49:31Z</time>
      </trkpt>
      <trkpt lat="38.449207" lon="-6.383987">
        <ele>532.437</ele>
        <time>2019-02-26T01:49:37Z</time>
      </trkpt>
      <trkpt lat="38.449232" lon="-6.383932">
        <ele>532.376</ele>
        <time>2019-02-26T01:49:38Z</time>
      </trkpt>
      <trkpt lat="38.449266" lon="-6.383882">
        <ele>532.149</ele>
        <time>2019-02-26T01:49:39Z</time>
      </trkpt>
      <trkpt lat="38.449305" lon="-6.383836">
        <ele>532.002</ele>
        <time>2019-02-26T01:49:40Z</time>
      </trkpt>
      <trkpt lat="38.449348" lon="-6.383793">
        <ele>531.822</ele>
        <time>2019-02-26T01:49:41Z</time>
      </trkpt>
      <trkpt lat="38.449467" lon="-6.383658">
        <ele>531.408</ele>
        <time>2019-02-26T01:49:44Z</time>
      </trkpt>
      <trkpt lat="38.449517" lon="-6.383581">
        <ele>531.287</ele>
        <time>2019-02-26T01:49:51Z</time>
      </trkpt>
      <trkpt lat="38.449597" lon="-6.383343">
        <ele>530.988</ele>
        <time>2019-02-26T01:50:14Z</time>
      </trkpt>
      <trkpt lat="38.449764" lon="-6.383060">
        <ele>531.149</ele>
        <time>2019-02-26T01:50:23Z</time>
      </trkpt>
      <trkpt lat="38.449936" lon="-6.382860">
        <ele>531.518</ele>
        <time>2019-02-26T01:50:32Z</time>
      </trkpt>
      <trkpt lat="38.450171" lon="-6.382470">
        <ele>531.382</ele>
        <time>2019-02-26T01:50:45Z</time>
      </trkpt>
      <trkpt lat="38.450388" lon="-6.382110">
        <ele>530.975</ele>
        <time>2019-02-26T01:50:54Z</time>
      </trkpt>
      <trkpt lat="38.450417" lon="-6.382062">
        <ele>530.824</ele>
        <time>2019-02-26T01:50:55Z</time>
      </trkpt>
      <trkpt lat="38.450482" lon="-6.381970">
        <ele>530.613</ele>
        <time>2019-02-26T01:50:57Z</time>
      </trkpt>
      <trkpt lat="38.450519" lon="-6.381924">
        <ele>530.556</ele>
        <time>2019-02-26T01:50:58Z</time>
      </trkpt>
      <trkpt lat="38.450556" lon="-6.381878">
        <ele>530.459</ele>
        <time>2019-02-26T01:50:59Z</time>
      </trkpt>
      <trkpt lat="38.450598" lon="-6.381834">
        <ele>530.214</ele>
        <time>2019-02-26T01:51:00Z</time>
      </trkpt>
      <trkpt lat="38.450634" lon="-6.381793">
        <ele>529.908</ele>
        <time>2019-02-26T01:51:01Z</time>
      </trkpt>
      <trkpt lat="38.450669" lon="-6.381757">
        <ele>529.698</ele>
        <time>2019-02-26T01:51:02Z</time>
      </trkpt>
      <trkpt lat="38.450894" lon="-6.381454">
        <ele>527.489</ele>
        <time>2019-02-26T01:51:12Z</time>
      </trkpt>
      <trkpt lat="38.451116" lon="-6.381205">
        <ele>524.670</ele>
        <time>2019-02-26T01:51:20Z</time>
      </trkpt>
      <trkpt lat="38.451267" lon="-6.381039">
        <ele>522.399</ele>
        <time>2019-02-26T01:51:27Z</time>
      </trkpt>
      <trkpt lat="38.451279" lon="-6.381025">
        <ele>522.163</ele>
        <time>2019-02-26T01:51:28Z</time>
      </trkpt>
      <trkpt lat="38.451313" lon="-6.381002">
        <ele>521.856</ele>
        <time>2019-02-26T01:51:30Z</time>
      </trkpt>
      <trkpt lat="38.451335" lon="-6.381010">
        <ele>521.325</ele>
        <time>2019-02-26T01:51:31Z</time>
      </trkpt>
      <trkpt lat="38.451364" lon="-6.381032">
        <ele>521.224</ele>
        <time>2019-02-26T01:51:32Z</time>
      </trkpt>
      <trkpt lat="38.451390" lon="-6.381065">
        <ele>521.152</ele>
        <time>2019-02-26T01:51:33Z</time>
      </trkpt>
      <trkpt lat="38.451416" lon="-6.381101">
        <ele>521.053</ele>
        <time>2019-02-26T01:51:34Z</time>
      </trkpt>
      <trkpt lat="38.451567" lon="-6.381234">
        <ele>520.408</ele>
        <time>2019-02-26T01:51:40Z</time>
      </trkpt>
      <trkpt lat="38.451599" lon="-6.381204">
        <ele>520.308</ele>
        <time>2019-02-26T01:51:41Z</time>
      </trkpt>
      <trkpt lat="38.451630" lon="-6.381173">
        <ele>520.078</ele>
        <time>2019-02-26T01:51:42Z</time>
      </trkpt>
      <trkpt lat="38.451663" lon="-6.381138">
        <ele>519.879</ele>
        <time>2019-02-26T01:51:43Z</time>
      </trkpt>
      <trkpt lat="38.451690" lon="-6.381089">
        <ele>519.610</ele>
        <time>2019-02-26T01:51:44Z</time>
      </trkpt>
      <trkpt lat="38.451712" lon="-6.381032">
        <ele>519.339</ele>
        <time>2019-02-26T01:51:45Z</time>
      </trkpt>
      <trkpt lat="38.451733" lon="-6.380975">
        <ele>519.033</ele>
        <time>2019-02-26T01:51:46Z</time>
      </trkpt>
      <trkpt lat="38.451767" lon="-6.380861">
        <ele>518.556</ele>
        <time>2019-02-26T01:51:48Z</time>
      </trkpt>
      <trkpt lat="38.451771" lon="-6.380810">
        <ele>518.315</ele>
        <time>2019-02-26T01:51:49Z</time>
      </trkpt>
      <trkpt lat="38.451771" lon="-6.380763">
        <ele>518.154</ele>
        <time>2019-02-26T01:51:50Z</time>
      </trkpt>
      <trkpt lat="38.451809" lon="-6.380542">
        <ele>517.683</ele>
        <time>2019-02-26T01:51:55Z</time>
      </trkpt>
      <trkpt lat="38.451844" lon="-6.380503">
        <ele>517.525</ele>
        <time>2019-02-26T01:51:56Z</time>
      </trkpt>
      <trkpt lat="38.451883" lon="-6.380462">
        <ele>517.217</ele>
        <time>2019-02-26T01:51:57Z</time>
      </trkpt>
      <trkpt lat="38.451926" lon="-6.380425">
        <ele>516.908</ele>
        <time>2019-02-26T01:51:58Z</time>
      </trkpt>
      <trkpt lat="38.451973" lon="-6.380387">
        <ele>516.641</ele>
        <time>2019-02-26T01:51:59Z</time>
      </trkpt>
      <trkpt lat="38.452433" lon="-6.380022">
        <ele>513.462</ele>
        <time>2019-02-26T01:52:07Z</time>
      </trkpt>
      <trkpt lat="38.452488" lon="-6.380006">
        <ele>512.933</ele>
        <time>2019-02-26T01:52:08Z</time>
      </trkpt>
      <trkpt lat="38.452538" lon="-6.380015">
        <ele>511.962</ele>
        <time>2019-02-26T01:52:09Z</time>
      </trkpt>
      <trkpt lat="38.452576" lon="-6.380047">
        <ele>511.966</ele>
        <time>2019-02-26T01:52:10Z</time>
      </trkpt>
      <trkpt lat="38.452610" lon="-6.380096">
        <ele>511.949</ele>
        <time>2019-02-26T01:52:11Z</time>
      </trkpt>
      <trkpt lat="38.452645" lon="-6.380155">
        <ele>512.018</ele>
        <time>2019-02-26T01:52:12Z</time>
      </trkpt>
      <trkpt lat="38.452816" lon="-6.380487">
        <ele>512.677</ele>
        <time>2019-02-26T01:52:17Z</time>
      </trkpt>
      <trkpt lat="38.452886" lon="-6.380618">
        <ele>513.023</ele>
        <time>2019-02-26T01:52:21Z</time>
      </trkpt>
      <trkpt lat="38.452898" lon="-6.380626">
        <ele>512.983</ele>
        <time>2019-02-26T01:52:22Z</time>
      </trkpt>
      <trkpt lat="38.452915" lon="-6.380628">
        <ele>512.811</ele>
        <time>2019-02-26T01:52:23Z</time>
      </trkpt>
      <trkpt lat="38.452939" lon="-6.380613">
        <ele>512.508</ele>
        <time>2019-02-26T01:52:24Z</time>
      </trkpt>
      <trkpt lat="38.452966" lon="-6.380588">
        <ele>512.375</ele>
        <time>2019-02-26T01:52:25Z</time>
      </trkpt>
      <trkpt lat="38.453003" lon="-6.380560">
        <ele>511.946</ele>
        <time>2019-02-26T01:52:26Z</time>
      </trkpt>
      <trkpt lat="38.453045" lon="-6.380529">
        <ele>511.597</ele>
        <time>2019-02-26T01:52:27Z</time>
      </trkpt>
      <trkpt lat="38.453151" lon="-6.380478">
        <ele>510.626</ele>
        <time>2019-02-26T01:52:29Z</time>
      </trkpt>
      <trkpt lat="38.453213" lon="-6.380483">
        <ele>510.170</ele>
        <time>2019-02-26T01:52:30Z</time>
      </trkpt>
      <trkpt lat="38.453274" lon="-6.380514">
        <ele>509.523</ele>
        <time>2019-02-26T01:52:31Z</time>
      </trkpt>
      <trkpt lat="38.453331" lon="-6.380559">
        <ele>509.322</ele>
        <time>2019-02-26T01:52:32Z</time>
      </trkpt>
      <trkpt lat="38.453388" lon="-6.380609">
        <ele>509.111</ele>
        <time>2019-02-26T01:52:33Z</time>
      </trkpt>
      <trkpt lat="38.453674" lon="-6.380863">
        <ele>508.385</ele>
        <time>2019-02-26T01:52:38Z</time>
      </trkpt>
      <trkpt lat="38.453716" lon="-6.380900">
        <ele>508.189</ele>
        <time>2019-02-26T01:52:39Z</time>
      </trkpt>
      <trkpt lat="38.453758" lon="-6.380920">
        <ele>507.917</ele>
        <time>2019-02-26T01:52:40Z</time>
      </trkpt>
      <trkpt lat="38.453803" lon="-6.380913">
        <ele>507.808</ele>
        <time>2019-02-26T01:52:41Z</time>
      </trkpt>
      <trkpt lat="38.453849" lon="-6.380884">
        <ele>506.721</ele>
        <time>2019-02-26T01:52:42Z</time>
      </trkpt>
      <trkpt lat="38.453896" lon="-6.380846">
        <ele>506.042</ele>
        <time>2019-02-26T01:52:43Z</time>
      </trkpt>
      <trkpt lat="38.453945" lon="-6.380809">
        <ele>505.483</ele>
        <time>2019-02-26T01:52:44Z</time>
      </trkpt>
      <trkpt lat="38.453994" lon="-6.380773">
        <ele>504.712</ele>
        <time>2019-02-26T01:52:45Z</time>
      </trkpt>
      <trkpt lat="38.454043" lon="-6.380731">
        <ele>503.926</ele>
        <time>2019-02-26T01:52:46Z</time>
      </trkpt>
      <trkpt lat="38.454205" lon="-6.380603">
        <ele>501.599</ele>
        <time>2019-02-26T01:52:49Z</time>
      </trkpt>
      <trkpt lat="38.454266" lon="-6.380563">
        <ele>500.638</ele>
        <time>2019-02-26T01:52:50Z</time>
      </trkpt>
      <trkpt lat="38.454647" lon="-6.380289">
        <ele>492.927</ele>
        <time>2019-02-26T01:52:56Z</time>
      </trkpt>
      <trkpt lat="38.454721" lon="-6.380262">
        <ele>491.841</ele>
        <time>2019-02-26T01:52:57Z</time>
      </trkpt>
      <trkpt lat="38.454799" lon="-6.380248">
        <ele>490.681</ele>
        <time>2019-02-26T01:52:58Z</time>
      </trkpt>
      <trkpt lat="38.454883" lon="-6.380247">
        <ele>489.409</ele>
        <time>2019-02-26T01:52:59Z</time>
      </trkpt>
      <trkpt lat="38.454971" lon="-6.380250">
        <ele>488.308</ele>
        <time>2019-02-26T01:53:00Z</time>
      </trkpt>
      <trkpt lat="38.455733" lon="-6.380260">
        <ele>484.387</ele>
        <time>2019-02-26T01:53:08Z</time>
      </trkpt>
      <trkpt lat="38.456310" lon="-6.380200">
        <ele>482.298</ele>
        <time>2019-02-26T01:53:14Z</time>
      </trkpt>
      <trkpt lat="38.457140" lon="-6.379971">
        <ele>482.129</ele>
        <time>2019-02-26T01:53:25Z</time>
      </trkpt>
      <trkpt lat="38.457302" lon="-6.379911">
        <ele>482.138</ele>
        <time>2019-02-26T01:53:29Z</time>
      </trkpt>
      <trkpt lat="38.457314" lon="-6.379883">
        <ele>482.152</ele>
        <time>2019-02-26T01:53:30Z</time>
      </trkpt>
      <trkpt lat="38.457319" lon="-6.379850">
        <ele>482.175</ele>
        <time>2019-02-26T01:53:31Z</time>
      </trkpt>
      <trkpt lat="38.457544" lon="-6.379343">
        <ele>482.984</ele>
        <time>2019-02-26T01:53:45Z</time>
      </trkpt>
      <trkpt lat="38.457803" lon="-6.378931">
        <ele>484.743</ele>
        <time>2019-02-26T01:54:00Z</time>
      </trkpt>
      <trkpt lat="38.458082" lon="-6.378543">
        <ele>486.955</ele>
        <time>2019-02-26T01:54:16Z</time>
      </trkpt>
      <trkpt lat="38.458297" lon="-6.378216">
        <ele>489.107</ele>
        <time>2019-02-26T01:54:32Z</time>
      </trkpt>
      <trkpt lat="38.458452" lon="-6.377976">
        <ele>491.117</ele>
        <time>2019-02-26T01:54:47Z</time>
      </trkpt>
      <trkpt lat="38.458598" lon="-6.377699">
        <ele>492.908</ele>
        <time>2019-02-26T01:55:02Z</time>
      </trkpt>
      <trkpt lat="38.458733" lon="-6.377431">
        <ele>494.888</ele>
        <time>2019-02-26T01:55:18Z</time>
      </trkpt>
      <trkpt lat="38.458740" lon="-6.377400">
        <ele>495.019</ele>
        <time>2019-02-26T01:55:20Z</time>
      </trkpt>
      <trkpt lat="38.458750" lon="-6.377386">
        <ele>495.170</ele>
        <time>2019-02-26T01:55:21Z</time>
      </trkpt>
      <trkpt lat="38.458761" lon="-6.377373">
        <ele>495.299</ele>
        <time>2019-02-26T01:55:22Z</time>
      </trkpt>
      <trkpt lat="38.458938" lon="-6.377141">
        <ele>496.943</ele>
        <time>2019-02-26T01:55:37Z</time>
      </trkpt>
      <trkpt lat="38.459088" lon="-6.376951">
        <ele>498.436</ele>
        <time>2019-02-26T01:55:49Z</time>
      </trkpt>
      <trkpt lat="38.459211" lon="-6.376737">
        <ele>499.735</ele>
        <time>2019-02-26T01:56:03Z</time>
      </trkpt>
      <trkpt lat="38.459370" lon="-6.376489">
        <ele>500.454</ele>
        <time>2019-02-26T01:56:18Z</time>
      </trkpt>
      <trkpt lat="38.459572" lon="-6.376206">
        <ele>501.173</ele>
        <time>2019-02-26T01:56:35Z</time>
      </trkpt>
      <trkpt lat="38.459711" lon="-6.375883">
        <ele>502.285</ele>
        <time>2019-02-26T01:56:50Z</time>
      </trkpt>
      <trkpt lat="38.459833" lon="-6.375501">
        <ele>503.313</ele>
        <time>2019-02-26T01:57:07Z</time>
      </trkpt>
      <trkpt lat="38.459984" lon="-6.375115">
        <ele>504.708</ele>
        <time>2019-02-26T01:57:21Z</time>
      </trkpt>
      <trkpt lat="38.460130" lon="-6.374809">
        <ele>505.480</ele>
        <time>2019-02-26T01:57:33Z</time>
      </trkpt>
      <trkpt lat="38.460469" lon="-6.374676">
        <ele>506.361</ele>
        <time>2019-02-26T01:57:46Z</time>
      </trkpt>
      <trkpt lat="38.460892" lon="-6.374742">
        <ele>507.642</ele>
        <time>2019-02-26T01:58:02Z</time>
      </trkpt>
      <trkpt lat="38.461277" lon="-6.374654">
        <ele>509.051</ele>
        <time>2019-02-26T01:58:17Z</time>
      </trkpt>
      <trkpt lat="38.461651" lon="-6.374470">
        <ele>510.665</ele>
        <time>2019-02-26T01:58:32Z</time>
      </trkpt>
      <trkpt lat="38.461982" lon="-6.374353">
        <ele>511.798</ele>
        <time>2019-02-26T01:58:46Z</time>
      </trkpt>
      <trkpt lat="38.462334" lon="-6.374203">
        <ele>512.627</ele>
        <time>2019-02-26T01:59:00Z</time>
      </trkpt>
      <trkpt lat="38.462773" lon="-6.374066">
        <ele>514.496</ele>
        <time>2019-02-26T01:59:16Z</time>
      </trkpt>
      <trkpt lat="38.463239" lon="-6.373898">
        <ele>516.543</ele>
        <time>2019-02-26T01:59:33Z</time>
      </trkpt>
      <trkpt lat="38.463629" lon="-6.373740">
        <ele>517.564</ele>
        <time>2019-02-26T01:59:47Z</time>
      </trkpt>
      <trkpt lat="38.464063" lon="-6.373506">
        <ele>518.810</ele>
        <time>2019-02-26T02:00:04Z</time>
      </trkpt>
      <trkpt lat="38.464529" lon="-6.373231">
        <ele>520.108</ele>
        <time>2019-02-26T02:00:21Z</time>
      </trkpt>
      <trkpt lat="38.465017" lon="-6.372845">
        <ele>521.787</ele>
        <time>2019-02-26T02:00:40Z</time>
      </trkpt>
      <trkpt lat="38.465154" lon="-6.372741">
        <ele>522.298</ele>
        <time>2019-02-26T02:00:46Z</time>
      </trkpt>
      <trkpt lat="38.465498" lon="-6.372437">
        <ele>524.059</ele>
        <time>2019-02-26T02:01:01Z</time>
      </trkpt>
      <trkpt lat="38.465825" lon="-6.372045">
        <ele>526.148</ele>
        <time>2019-02-26T02:01:17Z</time>
      </trkpt>
      <trkpt lat="38.466132" lon="-6.371686">
        <ele>527.762</ele>
        <time>2019-02-26T02:01:33Z</time>
      </trkpt>
      <trkpt lat="38.466405" lon="-6.371233">
        <ele>527.885</ele>
        <time>2019-02-26T02:01:46Z</time>
      </trkpt>
      <trkpt lat="38.466823" lon="-6.370979">
        <ele>527.834</ele>
        <time>2019-02-26T02:01:59Z</time>
      </trkpt>
      <trkpt lat="38.466931" lon="-6.370952">
        <ele>527.813</ele>
        <time>2019-02-26T02:02:02Z</time>
      </trkpt>
      <trkpt lat="38.467055" lon="-6.370918">
        <ele>527.871</ele>
        <time>2019-02-26T02:02:05Z</time>
      </trkpt>
      <trkpt lat="38.467101" lon="-6.370915">
        <ele>527.841</ele>
        <time>2019-02-26T02:02:06Z</time>
      </trkpt>
      <trkpt lat="38.467147" lon="-6.370913">
        <ele>527.815</ele>
        <time>2019-02-26T02:02:07Z</time>
      </trkpt>
      <trkpt lat="38.467191" lon="-6.370905">
        <ele>527.808</ele>
        <time>2019-02-26T02:02:08Z</time>
      </trkpt>
      <trkpt lat="38.467233" lon="-6.370889">
        <ele>527.840</ele>
        <time>2019-02-26T02:02:09Z</time>
      </trkpt>
      <trkpt lat="38.467272" lon="-6.370868">
        <ele>527.811</ele>
        <time>2019-02-26T02:02:10Z</time>
      </trkpt>
      <trkpt lat="38.467315" lon="-6.370847">
        <ele>527.882</ele>
        <time>2019-02-26T02:02:11Z</time>
      </trkpt>
      <trkpt lat="38.467360" lon="-6.370829">
        <ele>527.881</ele>
        <time>2019-02-26T02:02:12Z</time>
      </trkpt>
      <trkpt lat="38.467405" lon="-6.370812">
        <ele>527.895</ele>
        <time>2019-02-26T02:02:13Z</time>
      </trkpt>
      <trkpt lat="38.468135" lon="-6.370700">
        <ele>527.628</ele>
        <time>2019-02-26T02:02:28Z</time>
      </trkpt>
      <trkpt lat="38.468367" lon="-6.370738">
        <ele>527.137</ele>
        <time>2019-02-26T02:02:33Z</time>
      </trkpt>
      <trkpt lat="38.469249" lon="-6.370658">
        <ele>526.846</ele>
        <time>2019-02-26T02:02:49Z</time>
      </trkpt>
      <trkpt lat="38.470225" lon="-6.370555">
        <ele>523.517</ele>
        <time>2019-02-26T02:03:03Z</time>
      </trkpt>
      <trkpt lat="38.470990" lon="-6.370485">
        <ele>520.387</ele>
        <time>2019-02-26T02:03:12Z</time>
      </trkpt>
      <trkpt lat="38.471790" lon="-6.370434">
        <ele>516.715</ele>
        <time>2019-02-26T02:03:21Z</time>
      </trkpt>
      <trkpt lat="38.472370" lon="-6.370479">
        <ele>513.208</ele>
        <time>2019-02-26T02:03:28Z</time>
      </trkpt>
      <trkpt lat="38.472805" lon="-6.370440">
        <ele>510.634</ele>
        <time>2019-02-26T02:03:33Z</time>
      </trkpt>
      <trkpt lat="38.473048" lon="-6.370443">
        <ele>509.385</ele>
        <time>2019-02-26T02:03:36Z</time>
      </trkpt>
      <trkpt lat="38.473121" lon="-6.370460">
        <ele>508.926</ele>
        <time>2019-02-26T02:03:37Z</time>
      </trkpt>
      <trkpt lat="38.473188" lon="-6.370490">
        <ele>508.695</ele>
        <time>2019-02-26T02:03:38Z</time>
      </trkpt>
      <trkpt lat="38.473249" lon="-6.370530">
        <ele>508.469</ele>
        <time>2019-02-26T02:03:39Z</time>
      </trkpt>
      <trkpt lat="38.473305" lon="-6.370574">
        <ele>508.162</ele>
        <time>2019-02-26T02:03:40Z</time>
      </trkpt>
      <trkpt lat="38.473747" lon="-6.370813">
        <ele>507.711</ele>
        <time>2019-02-26T02:03:50Z</time>
      </trkpt>
      <trkpt lat="38.474413" lon="-6.371050">
        <ele>506.510</ele>
        <time>2019-02-26T02:04:01Z</time>
      </trkpt>
      <trkpt lat="38.474951" lon="-6.371458">
        <ele>506.246</ele>
        <time>2019-02-26T02:04:14Z</time>
      </trkpt>
      <trkpt lat="38.475134" lon="-6.371645">
        <ele>505.788</ele>
        <time>2019-02-26T02:04:18Z</time>
      </trkpt>
      <trkpt lat="38.475410" lon="-6.371858">
        <ele>504.216</ele>
        <time>2019-02-26T02:04:23Z</time>
      </trkpt>
      <trkpt lat="38.476017" lon="-6.372227">
        <ele>501.108</ele>
        <time>2019-02-26T02:04:33Z</time>
      </trkpt>
      <trkpt lat="38.476565" lon="-6.372656">
        <ele>498.517</ele>
        <time>2019-02-26T02:04:43Z</time>
      </trkpt>
      <trkpt lat="38.476851" lon="-6.372925">
        <ele>496.418</ele>
        <time>2019-02-26T02:04:49Z</time>
      </trkpt>
      <trkpt lat="38.476873" lon="-6.372954">
        <ele>496.269</ele>
        <time>2019-02-26T02:04:50Z</time>
      </trkpt>
      <trkpt lat="38.476880" lon="-6.372964">
        <ele>496.238</ele>
        <time>2019-02-26T02:04:55Z</time>
      </trkpt>
      <trkpt lat="38.476917" lon="-6.372971">
        <ele>495.922</ele>
        <time>2019-02-26T02:05:15Z</time>
      </trkpt>
      <trkpt lat="38.477386" lon="-6.373061">
        <ele>494.055</ele>
        <time>2019-02-26T02:05:28Z</time>
      </trkpt>
      <trkpt lat="38.477784" lon="-6.372837">
        <ele>494.464</ele>
        <time>2019-02-26T02:05:42Z</time>
      </trkpt>
      <trkpt lat="38.478130" lon="-6.372509">
        <ele>496.323</ele>
        <time>2019-02-26T02:05:58Z</time>
      </trkpt>
      <trkpt lat="38.478507" lon="-6.372268">
        <ele>497.347</ele>
        <time>2019-02-26T02:06:13Z</time>
      </trkpt>
      <trkpt lat="38.478984" lon="-6.372144">
        <ele>499.129</ele>
        <time>2019-02-26T02:06:32Z</time>
      </trkpt>
      <trkpt lat="38.479328" lon="-6.372149">
        <ele>500.921</ele>
        <time>2019-02-26T02:06:47Z</time>
      </trkpt>
      <trkpt lat="38.479810" lon="-6.372230">
        <ele>503.308</ele>
        <time>2019-02-26T02:07:07Z</time>
      </trkpt>
      <trkpt lat="38.480337" lon="-6.372296">
        <ele>504.587</ele>
        <time>2019-02-26T02:07:22Z</time>
      </trkpt>
      <trkpt lat="38.480471" lon="-6.372325">
        <ele>504.418</ele>
        <time>2019-02-26T02:07:25Z</time>
      </trkpt>
      <trkpt lat="38.480518" lon="-6.372328">
        <ele>504.369</ele>
        <time>2019-02-26T02:07:26Z</time>
      </trkpt>
      <trkpt lat="38.480608" lon="-6.372330">
        <ele>504.218</ele>
        <time>2019-02-26T02:07:28Z</time>
      </trkpt>
      <trkpt lat="38.481199" lon="-6.372391">
        <ele>504.192</ele>
        <time>2019-02-26T02:07:43Z</time>
      </trkpt>
      <trkpt lat="38.481580" lon="-6.372430">
        <ele>504.955</ele>
        <time>2019-02-26T02:07:56Z</time>
      </trkpt>
      <trkpt lat="38.481840" lon="-6.372440">
        <ele>505.164</ele>
        <time>2019-02-26T02:08:05Z</time>
      </trkpt>
      <trkpt lat="38.481931" lon="-6.372448">
        <ele>505.083</ele>
        <time>2019-02-26T02:08:07Z</time>
      </trkpt>
      <trkpt lat="38.481975" lon="-6.372452">
        <ele>505.065</ele>
        <time>2019-02-26T02:08:08Z</time>
      </trkpt>
      <trkpt lat="38.482046" lon="-6.372465">
        <ele>504.868</ele>
        <time>2019-02-26T02:08:14Z</time>
      </trkpt>
      <trkpt lat="38.482111" lon="-6.372477">
        <ele>504.714</ele>
        <time>2019-02-26T02:08:38Z</time>
      </trkpt>
      <trkpt lat="38.482185" lon="-6.372474">
        <ele>504.608</ele>
        <time>2019-02-26T02:08:40Z</time>
      </trkpt>
      <trkpt lat="38.482229" lon="-6.372464">
        <ele>504.519</ele>
        <time>2019-02-26T02:08:41Z</time>
      </trkpt>
      <trkpt lat="38.482332" lon="-6.372447">
        <ele>504.170</ele>
        <time>2019-02-26T02:08:43Z</time>
      </trkpt>
      <trkpt lat="38.482393" lon="-6.372450">
        <ele>503.871</ele>
        <time>2019-02-26T02:08:44Z</time>
      </trkpt>
      <trkpt lat="38.483183" lon="-6.372575">
        <ele>499.920</ele>
        <time>2019-02-26T02:08:54Z</time>
      </trkpt>
      <trkpt lat="38.483842" lon="-6.372695">
        <ele>498.074</ele>
        <time>2019-02-26T02:09:05Z</time>
      </trkpt>
      <trkpt lat="38.484523" lon="-6.372581">
        <ele>500.247</ele>
        <time>2019-02-26T02:09:23Z</time>
      </trkpt>
      <trkpt lat="38.485209" lon="-6.372346">
        <ele>501.856</ele>
        <time>2019-02-26T02:09:39Z</time>
      </trkpt>
      <trkpt lat="38.486169" lon="-6.372029">
        <ele>500.075</ele>
        <time>2019-02-26T02:09:57Z</time>
      </trkpt>
      <trkpt lat="38.486846" lon="-6.371754">
        <ele>500.777</ele>
        <time>2019-02-26T02:10:15Z</time>
      </trkpt>
      <trkpt lat="38.487165" lon="-6.371620">
        <ele>502.161</ele>
        <time>2019-02-26T02:10:31Z</time>
      </trkpt>
      <trkpt lat="38.487501" lon="-6.371485">
        <ele>503.827</ele>
        <time>2019-02-26T02:10:50Z</time>
      </trkpt>
      <trkpt lat="38.487779" lon="-6.371251">
        <ele>506.408</ele>
        <time>2019-02-26T02:11:06Z</time>
      </trkpt>
      <trkpt lat="38.488097" lon="-6.371010">
        <ele>508.790</ele>
        <time>2019-02-26T02:11:25Z</time>
      </trkpt>
      <trkpt lat="38.488432" lon="-6.370803">
        <ele>510.761</ele>
        <time>2019-02-26T02:11:43Z</time>
      </trkpt>
      <trkpt lat="38.488911" lon="-6.370631">
        <ele>513.412</ele>
        <time>2019-02-26T02:11:58Z</time>
      </trkpt>
      <trkpt lat="38.489241" lon="-6.370434">
        <ele>514.141</ele>
        <time>2019-02-26T02:12:09Z</time>
      </trkpt>
      <trkpt lat="38.490006" lon="-6.370021">
        <ele>513.375</ele>
        <time>2019-02-26T02:12:28Z</time>
      </trkpt>
      <trkpt lat="38.490680" lon="-6.369646">
        <ele>512.218</ele>
        <time>2019-02-26T02:12:43Z</time>
      </trkpt>
      <trkpt lat="38.490954" lon="-6.369513">
        <ele>511.357</ele>
        <time>2019-02-26T02:12:52Z</time>
      </trkpt>
      <trkpt lat="38.491368" lon="-6.369276">
        <ele>509.526</ele>
        <time>2019-02-26T02:13:05Z</time>
      </trkpt>
      <trkpt lat="38.491693" lon="-6.369114">
        <ele>508.755</ele>
        <time>2019-02-26T02:13:17Z</time>
      </trkpt>
      <trkpt lat="38.491988" lon="-6.368941">
        <ele>508.407</ele>
        <time>2019-02-26T02:13:27Z</time>
      </trkpt>
      <trkpt lat="38.492496" lon="-6.368686">
        <ele>507.617</ele>
        <time>2019-02-26T02:13:41Z</time>
      </trkpt>
      <trkpt lat="38.492791" lon="-6.368514">
        <ele>506.508</ele>
        <time>2019-02-26T02:13:51Z</time>
      </trkpt>
      <trkpt lat="38.493038" lon="-6.368386">
        <ele>506.178</ele>
        <time>2019-02-26T02:14:01Z</time>
      </trkpt>
      <trkpt lat="38.493315" lon="-6.368230">
        <ele>505.169</ele>
        <time>2019-02-26T02:14:11Z</time>
      </trkpt>
      <trkpt lat="38.493705" lon="-6.368032">
        <ele>503.440</ele>
        <time>2019-02-26T02:14:20Z</time>
      </trkpt>
      <trkpt lat="38.493996" lon="-6.367851">
        <ele>502.119</ele>
        <time>2019-02-26T02:14:26Z</time>
      </trkpt>
      <trkpt lat="38.494040" lon="-6.367828">
        <ele>502.073</ele>
        <time>2019-02-26T02:14:27Z</time>
      </trkpt>
      <trkpt lat="38.494466" lon="-6.367582">
        <ele>500.626</ele>
        <time>2019-02-26T02:14:40Z</time>
      </trkpt>
      <trkpt lat="38.494899" lon="-6.367354">
        <ele>499.565</ele>
        <time>2019-02-26T02:14:55Z</time>
      </trkpt>
      <trkpt lat="38.495200" lon="-6.367204">
        <ele>499.714</ele>
        <time>2019-02-26T02:15:07Z</time>
      </trkpt>
      <trkpt lat="38.495546" lon="-6.367004">
        <ele>500.446</ele>
        <time>2019-02-26T02:15:22Z</time>
      </trkpt>
      <trkpt lat="38.496071" lon="-6.366730">
        <ele>500.888</ele>
        <time>2019-02-26T02:15:40Z</time>
      </trkpt>
      <trkpt lat="38.496550" lon="-6.366466">
        <ele>501.616</ele>
        <time>2019-02-26T02:15:56Z</time>
      </trkpt>
      <trkpt lat="38.496975" lon="-6.366233">
        <ele>502.208</ele>
        <time>2019-02-26T02:16:11Z</time>
      </trkpt>
      <trkpt lat="38.497453" lon="-6.366023">
        <ele>503.997</ele>
        <time>2019-02-26T02:16:28Z</time>
      </trkpt>
      <trkpt lat="38.497844" lon="-6.365957">
        <ele>505.698</ele>
        <time>2019-02-26T02:16:43Z</time>
      </trkpt>
      <trkpt lat="38.498270" lon="-6.365891">
        <ele>507.249</ele>
        <time>2019-02-26T02:16:59Z</time>
      </trkpt>
      <trkpt lat="38.498822" lon="-6.365804">
        <ele>508.758</ele>
        <time>2019-02-26T02:17:11Z</time>
      </trkpt>
      <trkpt lat="38.499242" lon="-6.365725">
        <ele>508.422</ele>
        <time>2019-02-26T02:17:21Z</time>
      </trkpt>
      <trkpt lat="38.499430" lon="-6.365701">
        <ele>507.915</ele>
        <time>2019-02-26T02:17:25Z</time>
      </trkpt>
      <trkpt lat="38.499515" lon="-6.365685">
        <ele>507.714</ele>
        <time>2019-02-26T02:17:27Z</time>
      </trkpt>
      <trkpt lat="38.499557" lon="-6.365677">
        <ele>507.713</ele>
        <time>2019-02-26T02:17:28Z</time>
      </trkpt>
      <trkpt lat="38.499601" lon="-6.365667">
        <ele>507.692</ele>
        <time>2019-02-26T02:17:29Z</time>
      </trkpt>
      <trkpt lat="38.499773" lon="-6.365635">
        <ele>507.173</ele>
        <time>2019-02-26T02:17:33Z</time>
      </trkpt>
      <trkpt lat="38.499815" lon="-6.365629">
        <ele>507.020</ele>
        <time>2019-02-26T02:17:34Z</time>
      </trkpt>
      <trkpt lat="38.499902" lon="-6.365611">
        <ele>506.808</ele>
        <time>2019-02-26T02:17:36Z</time>
      </trkpt>
      <trkpt lat="38.500483" lon="-6.365499">
        <ele>505.982</ele>
        <time>2019-02-26T02:17:50Z</time>
      </trkpt>
      <trkpt lat="38.501220" lon="-6.365354">
        <ele>505.913</ele>
        <time>2019-02-26T02:18:07Z</time>
      </trkpt>
      <trkpt lat="38.501677" lon="-6.365351">
        <ele>505.994</ele>
        <time>2019-02-26T02:18:19Z</time>
      </trkpt>
      <trkpt lat="38.502136" lon="-6.365360">
        <ele>506.453</ele>
        <time>2019-02-26T02:18:31Z</time>
      </trkpt>
      <trkpt lat="38.502625" lon="-6.365386">
        <ele>507.437</ele>
        <time>2019-02-26T02:18:44Z</time>
      </trkpt>
      <trkpt lat="38.502901" lon="-6.365381">
        <ele>507.980</ele>
        <time>2019-02-26T02:18:51Z</time>
      </trkpt>
      <trkpt lat="38.502941" lon="-6.365380">
        <ele>507.979</ele>
        <time>2019-02-26T02:18:52Z</time>
      </trkpt>
      <trkpt lat="38.502981" lon="-6.365378">
        <ele>507.928</ele>
        <time>2019-02-26T02:18:53Z</time>
      </trkpt>
      <trkpt lat="38.503022" lon="-6.365386">
        <ele>508.043</ele>
        <time>2019-02-26T02:18:54Z</time>
      </trkpt>
      <trkpt lat="38.503059" lon="-6.365397">
        <ele>508.064</ele>
        <time>2019-02-26T02:18:55Z</time>
      </trkpt>
      <trkpt lat="38.503492" lon="-6.365405">
        <ele>508.010</ele>
        <time>2019-02-26T02:19:06Z</time>
      </trkpt>
      <trkpt lat="38.503780" lon="-6.365405">
        <ele>508.008</ele>
        <time>2019-02-26T02:19:12Z</time>
      </trkpt>
      <trkpt lat="38.503829" lon="-6.365396">
        <ele>508.057</ele>
        <time>2019-02-26T02:19:13Z</time>
      </trkpt>
      <trkpt lat="38.503876" lon="-6.365380">
        <ele>508.028</ele>
        <time>2019-02-26T02:19:14Z</time>
      </trkpt>
      <trkpt lat="38.503921" lon="-6.365360">
        <ele>508.059</ele>
        <time>2019-02-26T02:19:15Z</time>
      </trkpt>
      <trkpt lat="38.503959" lon="-6.365342">
        <ele>508.048</ele>
        <time>2019-02-26T02:19:16Z</time>
      </trkpt>
      <trkpt lat="38.504266" lon="-6.365196">
        <ele>507.392</ele>
        <time>2019-02-26T02:19:25Z</time>
      </trkpt>
      <trkpt lat="38.504869" lon="-6.364882">
        <ele>505.535</ele>
        <time>2019-02-26T02:19:38Z</time>
      </trkpt>
      <trkpt lat="38.505030" lon="-6.364858">
        <ele>505.164</ele>
        <time>2019-02-26T02:19:46Z</time>
      </trkpt>
      <trkpt lat="38.505156" lon="-6.364867">
        <ele>504.873</ele>
        <time>2019-02-26T02:19:49Z</time>
      </trkpt>
      <trkpt lat="38.505200" lon="-6.364863">
        <ele>504.797</ele>
        <time>2019-02-26T02:19:50Z</time>
      </trkpt>
      <trkpt lat="38.505239" lon="-6.364855">
        <ele>504.523</ele>
        <time>2019-02-26T02:19:51Z</time>
      </trkpt>
      <trkpt lat="38.505274" lon="-6.364842">
        <ele>504.325</ele>
        <time>2019-02-26T02:19:52Z</time>
      </trkpt>
      <trkpt lat="38.505308" lon="-6.364823">
        <ele>504.208</ele>
        <time>2019-02-26T02:19:53Z</time>
      </trkpt>
      <trkpt lat="38.505343" lon="-6.364800">
        <ele>504.062</ele>
        <time>2019-02-26T02:19:54Z</time>
      </trkpt>
      <trkpt lat="38.505730" lon="-6.364543">
        <ele>502.183</ele>
        <time>2019-02-26T02:20:04Z</time>
      </trkpt>
      <trkpt lat="38.505771" lon="-6.364519">
        <ele>502.064</ele>
        <time>2019-02-26T02:20:05Z</time>
      </trkpt>
      <trkpt lat="38.505814" lon="-6.364497">
        <ele>501.993</ele>
        <time>2019-02-26T02:20:06Z</time>
      </trkpt>
      <trkpt lat="38.505940" lon="-6.364414">
        <ele>501.517</ele>
        <time>2019-02-26T02:20:09Z</time>
      </trkpt>
      <trkpt lat="38.505982" lon="-6.364387">
        <ele>501.490</ele>
        <time>2019-02-26T02:20:10Z</time>
      </trkpt>
      <trkpt lat="38.506023" lon="-6.364355">
        <ele>501.399</ele>
        <time>2019-02-26T02:20:11Z</time>
      </trkpt>
      <trkpt lat="38.506065" lon="-6.364322">
        <ele>501.188</ele>
        <time>2019-02-26T02:20:12Z</time>
      </trkpt>
      <trkpt lat="38.506108" lon="-6.364291">
        <ele>501.054</ele>
        <time>2019-02-26T02:20:13Z</time>
      </trkpt>
      <trkpt lat="38.506193" lon="-6.364235">
        <ele>500.756</ele>
        <time>2019-02-26T02:20:15Z</time>
      </trkpt>
      <trkpt lat="38.506494" lon="-6.364139">
        <ele>499.811</ele>
        <time>2019-02-26T02:20:25Z</time>
      </trkpt>
      <trkpt lat="38.506940" lon="-6.363942">
        <ele>498.608</ele>
        <time>2019-02-26T02:20:39Z</time>
      </trkpt>
      <trkpt lat="38.507336" lon="-6.363803">
        <ele>497.498</ele>
        <time>2019-02-26T02:20:50Z</time>
      </trkpt>
      <trkpt lat="38.507708" lon="-6.363830">
        <ele>496.489</ele>
        <time>2019-02-26T02:21:03Z</time>
      </trkpt>
      <trkpt lat="38.508189" lon="-6.363854">
        <ele>494.880</ele>
        <time>2019-02-26T02:21:16Z</time>
      </trkpt>
      <trkpt lat="38.508913" lon="-6.363960">
        <ele>492.539</ele>
        <time>2019-02-26T02:21:33Z</time>
      </trkpt>
      <trkpt lat="38.509621" lon="-6.364164">
        <ele>492.493</ele>
        <time>2019-02-26T02:21:50Z</time>
      </trkpt>
      <trkpt lat="38.509696" lon="-6.364218">
        <ele>492.456</ele>
        <time>2019-02-26T02:21:52Z</time>
      </trkpt>
      <trkpt lat="38.510335" lon="-6.364579">
        <ele>492.465</ele>
        <time>2019-02-26T02:22:09Z</time>
      </trkpt>
      <trkpt lat="38.511053" lon="-6.364848">
        <ele>492.484</ele>
        <time>2019-02-26T02:22:23Z</time>
      </trkpt>
      <trkpt lat="38.511800" lon="-6.364922">
        <ele>491.466</ele>
        <time>2019-02-26T02:22:37Z</time>
      </trkpt>
      <trkpt lat="38.512396" lon="-6.364778">
        <ele>490.629</ele>
        <time>2019-02-26T02:22:48Z</time>
      </trkpt>
      <trkpt lat="38.512450" lon="-6.364756">
        <ele>490.521</ele>
        <time>2019-02-26T02:22:49Z</time>
      </trkpt>
      <trkpt lat="38.512564" lon="-6.364715">
        <ele>490.508</ele>
        <time>2019-02-26T02:22:51Z</time>
      </trkpt>
      <trkpt lat="38.512627" lon="-6.364704">
        <ele>490.439</ele>
        <time>2019-02-26T02:22:52Z</time>
      </trkpt>
      <trkpt lat="38.512754" lon="-6.364672">
        <ele>490.360</ele>
        <time>2019-02-26T02:22:54Z</time>
      </trkpt>
      <trkpt lat="38.512813" lon="-6.364641">
        <ele>490.241</ele>
        <time>2019-02-26T02:22:55Z</time>
      </trkpt>
      <trkpt lat="38.512871" lon="-6.364605">
        <ele>490.050</ele>
        <time>2019-02-26T02:22:56Z</time>
      </trkpt>
      <trkpt lat="38.512928" lon="-6.364565">
        <ele>489.984</ele>
        <time>2019-02-26T02:22:57Z</time>
      </trkpt>
      <trkpt lat="38.512983" lon="-6.364522">
        <ele>489.727</ele>
        <time>2019-02-26T02:22:58Z</time>
      </trkpt>
      <trkpt lat="38.513770" lon="-6.363832">
        <ele>486.926</ele>
        <time>2019-02-26T02:23:11Z</time>
      </trkpt>
      <trkpt lat="38.514676" lon="-6.362921">
        <ele>484.685</ele>
        <time>2019-02-26T02:23:27Z</time>
      </trkpt>
      <trkpt lat="38.515418" lon="-6.362341">
        <ele>483.434</ele>
        <time>2019-02-26T02:23:40Z</time>
      </trkpt>
      <trkpt lat="38.516267" lon="-6.362087">
        <ele>481.355</ele>
        <time>2019-02-26T02:23:54Z</time>
      </trkpt>
      <trkpt lat="38.516630" lon="-6.362064">
        <ele>480.610</ele>
        <time>2019-02-26T02:24:03Z</time>
      </trkpt>
      <trkpt lat="38.516630" lon="-6.362065">
        <ele>480.608</ele>
        <time>2019-02-26T02:24:04Z</time>
      </trkpt>
      <trkpt lat="38.516711" lon="-6.362080">
        <ele>480.436</ele>
        <time>2019-02-26T02:25:42Z</time>
      </trkpt>
      <trkpt lat="38.516738" lon="-6.362078">
        <ele>480.397</ele>
        <time>2019-02-26T02:25:43Z</time>
      </trkpt>
      <trkpt lat="38.516766" lon="-6.362071">
        <ele>480.248</ele>
        <time>2019-02-26T02:25:44Z</time>
      </trkpt>
      <trkpt lat="38.517399" lon="-6.362018">
        <ele>479.487</ele>
        <time>2019-02-26T02:25:58Z</time>
      </trkpt>
      <trkpt lat="38.517835" lon="-6.361964">
        <ele>478.821</ele>
        <time>2019-02-26T02:26:09Z</time>
      </trkpt>
      <trkpt lat="38.518213" lon="-6.361852">
        <ele>478.014</ele>
        <time>2019-02-26T02:26:17Z</time>
      </trkpt>
      <trkpt lat="38.518257" lon="-6.361848">
        <ele>478.043</ele>
        <time>2019-02-26T02:26:18Z</time>
      </trkpt>
      <trkpt lat="38.518303" lon="-6.361837">
        <ele>477.912</ele>
        <time>2019-02-26T02:26:19Z</time>
      </trkpt>
      <trkpt lat="38.518871" lon="-6.361458">
        <ele>476.191</ele>
        <time>2019-02-26T02:26:32Z</time>
      </trkpt>
      <trkpt lat="38.519143" lon="-6.361185">
        <ele>475.181</ele>
        <time>2019-02-26T02:26:40Z</time>
      </trkpt>
      <trkpt lat="38.519241" lon="-6.361073">
        <ele>474.919</ele>
        <time>2019-02-26T02:26:43Z</time>
      </trkpt>
      <trkpt lat="38.519346" lon="-6.360943">
        <ele>474.808</ele>
        <time>2019-02-26T02:26:46Z</time>
      </trkpt>
      <trkpt lat="38.520001" lon="-6.360359">
        <ele>473.172</ele>
        <time>2019-02-26T02:27:00Z</time>
      </trkpt>
      <trkpt lat="38.520798" lon="-6.359980">
        <ele>471.043</ele>
        <time>2019-02-26T02:27:13Z</time>
      </trkpt>
      <trkpt lat="38.521046" lon="-6.359889">
        <ele>470.474</ele>
        <time>2019-02-26T02:27:17Z</time>
      </trkpt>
      <trkpt lat="38.522174" lon="-6.359237">
        <ele>468.073</ele>
        <time>2019-02-26T02:27:36Z</time>
      </trkpt>
      <trkpt lat="38.522962" lon="-6.358521">
        <ele>466.487</ele>
        <time>2019-02-26T02:27:51Z</time>
      </trkpt>
      <trkpt lat="38.523770" lon="-6.357896">
        <ele>464.150</ele>
        <time>2019-02-26T02:28:03Z</time>
      </trkpt>
      <trkpt lat="38.524636" lon="-6.357442">
        <ele>461.459</ele>
        <time>2019-02-26T02:28:17Z</time>
      </trkpt>
      <trkpt lat="38.525580" lon="-6.356820">
        <ele>460.468</ele>
        <time>2019-02-26T02:28:33Z</time>
      </trkpt>
      <trkpt lat="38.526579" lon="-6.355837">
        <ele>457.657</ele>
        <time>2019-02-26T02:28:53Z</time>
      </trkpt>
      <trkpt lat="38.527045" lon="-6.355443">
        <ele>456.600</ele>
        <time>2019-02-26T02:29:06Z</time>
      </trkpt>
      <trkpt lat="38.527727" lon="-6.355035">
        <ele>457.020</ele>
        <time>2019-02-26T02:29:17Z</time>
      </trkpt>
      <trkpt lat="38.528029" lon="-6.354890">
        <ele>457.208</ele>
        <time>2019-02-26T02:29:22Z</time>
      </trkpt>
      <trkpt lat="38.528062" lon="-6.354865">
        <ele>457.188</ele>
        <time>2019-02-26T02:29:23Z</time>
      </trkpt>
      <trkpt lat="38.528088" lon="-6.354831">
        <ele>457.089</ele>
        <time>2019-02-26T02:29:24Z</time>
      </trkpt>
      <trkpt lat="38.528102" lon="-6.354787">
        <ele>456.830</ele>
        <time>2019-02-26T02:29:25Z</time>
      </trkpt>
      <trkpt lat="38.528108" lon="-6.354738">
        <ele>456.699</ele>
        <time>2019-02-26T02:29:26Z</time>
      </trkpt>
      <trkpt lat="38.528113" lon="-6.354687">
        <ele>456.483</ele>
        <time>2019-02-26T02:29:27Z</time>
      </trkpt>
      <trkpt lat="38.528146" lon="-6.354217">
        <ele>455.446</ele>
        <time>2019-02-26T02:29:35Z</time>
      </trkpt>
      <trkpt lat="38.528199" lon="-6.352916">
        <ele>452.425</ele>
        <time>2019-02-26T02:29:52Z</time>
      </trkpt>
      <trkpt lat="38.528229" lon="-6.352089">
        <ele>450.614</ele>
        <time>2019-02-26T02:30:06Z</time>
      </trkpt>
      <trkpt lat="38.528224" lon="-6.352075">
        <ele>450.615</ele>
        <time>2019-02-26T02:30:11Z</time>
      </trkpt>
      <trkpt lat="38.528170" lon="-6.352063">
        <ele>450.465</ele>
        <time>2019-02-26T02:30:17Z</time>
      </trkpt>
      <trkpt lat="38.527822" lon="-6.352150">
        <ele>449.211</ele>
        <time>2019-02-26T02:30:30Z</time>
      </trkpt>
      <trkpt lat="38.527795" lon="-6.352174">
        <ele>449.108</ele>
        <time>2019-02-26T02:30:32Z</time>
      </trkpt>
      <trkpt lat="38.527785" lon="-6.352187">
        <ele>449.164</ele>
        <time>2019-02-26T02:30:33Z</time>
      </trkpt>
      <trkpt lat="38.527775" lon="-6.352189">
        <ele>449.035</ele>
        <time>2019-02-26T02:30:34Z</time>
      </trkpt>
      <trkpt lat="38.527768" lon="-6.352178">
        <ele>449.076</ele>
        <time>2019-02-26T02:30:35Z</time>
      </trkpt>
      <trkpt lat="38.527771" lon="-6.352166">
        <ele>448.945</ele>
        <time>2019-02-26T02:30:36Z</time>
      </trkpt>
      <trkpt lat="38.527782" lon="-6.352157">
        <ele>448.939</ele>
        <time>2019-02-26T02:30:37Z</time>
      </trkpt>
      <trkpt lat="38.527799" lon="-6.352152">
        <ele>448.892</ele>
        <time>2019-02-26T02:30:38Z</time>
      </trkpt>
      <trkpt lat="38.528217" lon="-6.352079">
        <ele>447.911</ele>
        <time>2019-02-26T02:30:51Z</time>
      </trkpt>
      <trkpt lat="38.528230" lon="-6.352048">
        <ele>447.890</ele>
        <time>2019-02-26T02:30:52Z</time>
      </trkpt>
      <trkpt lat="38.528235" lon="-6.352009">
        <ele>447.899</ele>
        <time>2019-02-26T02:30:53Z</time>
      </trkpt>
      <trkpt lat="38.528237" lon="-6.351971">
        <ele>447.807</ele>
        <time>2019-02-26T02:30:54Z</time>
      </trkpt>
      <trkpt lat="38.528238" lon="-6.351934">
        <ele>447.827</ele>
        <time>2019-02-26T02:30:55Z</time>
      </trkpt>
      <trkpt lat="38.528262" lon="-6.351834">
        <ele>447.808</ele>
        <time>2019-02-26T02:31:03Z</time>
      </trkpt>
      <trkpt lat="38.528270" lon="-6.351802">
        <ele>447.822</ele>
        <time>2019-02-26T02:31:09Z</time>
      </trkpt>
      <trkpt lat="38.528247" lon="-6.351711">
        <ele>447.793</ele>
        <time>2019-02-26T02:31:23Z</time>
      </trkpt>
      <trkpt lat="38.528250" lon="-6.351637">
        <ele>447.774</ele>
        <time>2019-02-26T02:31:33Z</time>
      </trkpt>
      <trkpt lat="38.528267" lon="-6.351558">
        <ele>447.653</ele>
        <time>2019-02-26T02:31:41Z</time>
      </trkpt>
      <trkpt lat="38.528278" lon="-6.351533">
        <ele>447.587</ele>
        <time>2019-02-26T02:31:43Z</time>
      </trkpt>
      <trkpt lat="38.528278" lon="-6.351520">
        <ele>447.520</ele>
        <time>2019-02-26T02:31:44Z</time>
      </trkpt>
      <trkpt lat="38.528269" lon="-6.351501">
        <ele>447.519</ele>
        <time>2019-02-26T02:31:46Z</time>
      </trkpt>
      <trkpt lat="38.528260" lon="-6.351495">
        <ele>447.418</ele>
        <time>2019-02-26T02:31:47Z</time>
      </trkpt>
      <trkpt lat="38.528233" lon="-6.351485">
        <ele>447.388</ele>
        <time>2019-02-26T02:31:50Z</time>
      </trkpt>
      <trkpt lat="38.528227" lon="-6.351487">
        <ele>447.324</ele>
        <time>2019-02-26T02:31:54Z</time>
      </trkpt>
      <trkpt lat="38.528143" lon="-6.351481">
        <ele>447.126</ele>
        <time>2019-02-26T02:32:08Z</time>
      </trkpt>
      <trkpt lat="38.527700" lon="-6.351277">
        <ele>446.708</ele>
        <time>2019-02-26T02:32:21Z</time>
      </trkpt>
      <trkpt lat="38.527033" lon="-6.350906">
        <ele>445.891</ele>
        <time>2019-02-26T02:32:37Z</time>
      </trkpt>
      <trkpt lat="38.526403" lon="-6.350667">
        <ele>445.972</ele>
        <time>2019-02-26T02:32:53Z</time>
      </trkpt>
      <trkpt lat="38.526209" lon="-6.350427">
        <ele>445.973</ele>
        <time>2019-02-26T02:33:03Z</time>
      </trkpt>
      <trkpt lat="38.526213" lon="-6.350397">
        <ele>445.932</ele>
        <time>2019-02-26T02:33:04Z</time>
      </trkpt>
      <trkpt lat="38.526211" lon="-6.350349">
        <ele>445.976</ele>
        <time>2019-02-26T02:33:09Z</time>
      </trkpt>
      <trkpt lat="38.526210" lon="-6.350328">
        <ele>445.989</ele>
        <time>2019-02-26T02:33:10Z</time>
      </trkpt>
      <trkpt lat="38.526212" lon="-6.350305">
        <ele>445.988</ele>
        <time>2019-02-26T02:33:11Z</time>
      </trkpt>
      <trkpt lat="38.526220" lon="-6.350285">
        <ele>445.977</ele>
        <time>2019-02-26T02:33:12Z</time>
      </trkpt>
      <trkpt lat="38.526239" lon="-6.350263">
        <ele>445.995</ele>
        <time>2019-02-26T02:33:13Z</time>
      </trkpt>
      <trkpt lat="38.526269" lon="-6.350245">
        <ele>445.949</ele>
        <time>2019-02-26T02:33:14Z</time>
      </trkpt>
      <trkpt lat="38.526306" lon="-6.350231">
        <ele>445.923</ele>
        <time>2019-02-26T02:33:15Z</time>
      </trkpt>
      <trkpt lat="38.526347" lon="-6.350218">
        <ele>445.808</ele>
        <time>2019-02-26T02:33:16Z</time>
      </trkpt>
      <trkpt lat="38.526814" lon="-6.350095">
        <ele>445.422</ele>
        <time>2019-02-26T02:33:25Z</time>
      </trkpt>
      <trkpt lat="38.526876" lon="-6.350086">
        <ele>445.363</ele>
        <time>2019-02-26T02:33:26Z</time>
      </trkpt>
      <trkpt lat="38.527709" lon="-6.349849">
        <ele>443.924</ele>
        <time>2019-02-26T02:33:39Z</time>
      </trkpt>
      <trkpt lat="38.528737" lon="-6.349488">
        <ele>441.553</ele>
        <time>2019-02-26T02:33:55Z</time>
      </trkpt>
      <trkpt lat="38.529916" lon="-6.349173">
        <ele>438.047</ele>
        <time>2019-02-26T02:34:13Z</time>
      </trkpt>
      <trkpt lat="38.530711" lon="-6.349149">
        <ele>436.370</ele>
        <time>2019-02-26T02:34:26Z</time>
      </trkpt>
      <trkpt lat="38.530723" lon="-6.349129">
        <ele>436.389</ele>
        <time>2019-02-26T02:34:27Z</time>
      </trkpt>
      <trkpt lat="38.530726" lon="-6.349099">
        <ele>435.938</ele>
        <time>2019-02-26T02:34:28Z</time>
      </trkpt>
      <trkpt lat="38.530721" lon="-6.349063">
        <ele>435.975</ele>
        <time>2019-02-26T02:34:29Z</time>
      </trkpt>
      <trkpt lat="38.530704" lon="-6.349028">
        <ele>435.928</ele>
        <time>2019-02-26T02:34:30Z</time>
      </trkpt>
      <trkpt lat="38.530679" lon="-6.348997">
        <ele>435.920</ele>
        <time>2019-02-26T02:34:31Z</time>
      </trkpt>
      <trkpt lat="38.530649" lon="-6.348968">
        <ele>435.808</ele>
        <time>2019-02-26T02:34:32Z</time>
      </trkpt>
      <trkpt lat="38.530615" lon="-6.348941">
        <ele>435.890</ele>
        <time>2019-02-26T02:34:33Z</time>
      </trkpt>
      <trkpt lat="38.530579" lon="-6.348915">
        <ele>435.811</ele>
        <time>2019-02-26T02:34:34Z</time>
      </trkpt>
      <trkpt lat="38.530360" lon="-6.348763">
        <ele>435.692</ele>
        <time>2019-02-26T02:34:40Z</time>
      </trkpt>
      <trkpt lat="38.529758" lon="-6.348327">
        <ele>435.881</ele>
        <time>2019-02-26T02:34:57Z</time>
      </trkpt>
      <trkpt lat="38.529239" lon="-6.347851">
        <ele>436.825</ele>
        <time>2019-02-26T02:35:14Z</time>
      </trkpt>
      <trkpt lat="38.529238" lon="-6.347844">
        <ele>436.888</ele>
        <time>2019-02-26T02:35:18Z</time>
      </trkpt>
      <trkpt lat="38.529291" lon="-6.347788">
        <ele>436.817</ele>
        <time>2019-02-26T02:35:47Z</time>
      </trkpt>
      <trkpt lat="38.529302" lon="-6.347763">
        <ele>436.856</ele>
        <time>2019-02-26T02:35:48Z</time>
      </trkpt>
      <trkpt lat="38.529314" lon="-6.347732">
        <ele>436.962</ele>
        <time>2019-02-26T02:35:49Z</time>
      </trkpt>
      <trkpt lat="38.529457" lon="-6.347092">
        <ele>437.383</ele>
        <time>2019-02-26T02:36:03Z</time>
      </trkpt>
      <trkpt lat="38.529460" lon="-6.346388">
        <ele>437.711</ele>
        <time>2019-02-26T02:36:19Z</time>
      </trkpt>
      <trkpt lat="38.529384" lon="-6.346030">
        <ele>437.808</ele>
        <time>2019-02-26T02:36:27Z</time>
      </trkpt>
      <trkpt lat="38.529113" lon="-6.345274">
        <ele>437.859</ele>
        <time>2019-02-26T02:36:42Z</time>
      </trkpt>
      <trkpt lat="38.529108" lon="-6.345228">
        <ele>437.790</ele>
        <time>2019-02-26T02:36:48Z</time>
      </trkpt>
      <trkpt lat="38.529135" lon="-6.345116">
        <ele>437.491</ele>
        <time>2019-02-26T02:37:19Z</time>
      </trkpt>
      <trkpt lat="38.529130" lon="-6.345069">
        <ele>437.330</ele>
        <time>2019-02-26T02:37:20Z</time>
      </trkpt>
      <trkpt lat="38.529090" lon="-6.344238">
        <ele>435.414</ele>
        <time>2019-02-26T02:37:34Z</time>
      </trkpt>
      <trkpt lat="38.529020" lon="-6.343064">
        <ele>433.437</ele>
        <time>2019-02-26T02:37:51Z</time>
      </trkpt>
      <trkpt lat="38.529028" lon="-6.343009">
        <ele>433.226</ele>
        <time>2019-02-26T02:37:52Z</time>
      </trkpt>
      <trkpt lat="38.529049" lon="-6.342964">
        <ele>433.055</ele>
        <time>2019-02-26T02:37:53Z</time>
      </trkpt>
      <trkpt lat="38.529078" lon="-6.342929">
        <ele>432.943</ele>
        <time>2019-02-26T02:37:54Z</time>
      </trkpt>
      <trkpt lat="38.529116" lon="-6.342907">
        <ele>432.964</ele>
        <time>2019-02-26T02:37:55Z</time>
      </trkpt>
      <trkpt lat="38.529159" lon="-6.342894">
        <ele>432.810</ele>
        <time>2019-02-26T02:37:56Z</time>
      </trkpt>
      <trkpt lat="38.529204" lon="-6.342886">
        <ele>432.708</ele>
        <time>2019-02-26T02:37:57Z</time>
      </trkpt>
      <trkpt lat="38.529873" lon="-6.342786">
        <ele>432.057</ele>
        <time>2019-02-26T02:38:11Z</time>
      </trkpt>
      <trkpt lat="38.530472" lon="-6.342635">
        <ele>431.958</ele>
        <time>2019-02-26T02:38:24Z</time>
      </trkpt>
      <trkpt lat="38.530926" lon="-6.342403">
        <ele>431.479</ele>
        <time>2019-02-26T02:38:33Z</time>
      </trkpt>
      <trkpt lat="38.530986" lon="-6.342384">
        <ele>431.298</ele>
        <time>2019-02-26T02:38:34Z</time>
      </trkpt>
      <trkpt lat="38.531050" lon="-6.342370">
        <ele>431.072</ele>
        <time>2019-02-26T02:38:35Z</time>
      </trkpt>
      <trkpt lat="38.531643" lon="-6.342381">
        <ele>428.785</ele>
        <time>2019-02-26T02:38:43Z</time>
      </trkpt>
      <trkpt lat="38.532068" lon="-6.342343">
        <ele>427.434</ele>
        <time>2019-02-26T02:38:49Z</time>
      </trkpt>
      <trkpt lat="38.532123" lon="-6.342338">
        <ele>427.253</ele>
        <time>2019-02-26T02:38:50Z</time>
      </trkpt>
      <trkpt lat="38.532176" lon="-6.342321">
        <ele>427.165</ele>
        <time>2019-02-26T02:38:51Z</time>
      </trkpt>
      <trkpt lat="38.532226" lon="-6.342294">
        <ele>427.168</ele>
        <time>2019-02-26T02:38:52Z</time>
      </trkpt>
      <trkpt lat="38.532272" lon="-6.342264">
        <ele>427.014</ele>
        <time>2019-02-26T02:38:53Z</time>
      </trkpt>
      <trkpt lat="38.532309" lon="-6.342231">
        <ele>426.908</ele>
        <time>2019-02-26T02:38:54Z</time>
      </trkpt>
      <trkpt lat="38.532345" lon="-6.342198">
        <ele>426.969</ele>
        <time>2019-02-26T02:38:55Z</time>
      </trkpt>
      <trkpt lat="38.532381" lon="-6.342164">
        <ele>426.950</ele>
        <time>2019-02-26T02:38:56Z</time>
      </trkpt>
      <trkpt lat="38.532804" lon="-6.341832">
        <ele>426.921</ele>
        <time>2019-02-26T02:39:09Z</time>
      </trkpt>
      <trkpt lat="38.533275" lon="-6.341515">
        <ele>427.850</ele>
        <time>2019-02-26T02:39:25Z</time>
      </trkpt>
      <trkpt lat="38.533575" lon="-6.341321">
        <ele>429.074</ele>
        <time>2019-02-26T02:39:37Z</time>
      </trkpt>
      <trkpt lat="38.533974" lon="-6.341001">
        <ele>431.177</ele>
        <time>2019-02-26T02:39:57Z</time>
      </trkpt>
      <trkpt lat="38.534301" lon="-6.340750">
        <ele>432.726</ele>
        <time>2019-02-26T02:40:14Z</time>
      </trkpt>
      <trkpt lat="38.534720" lon="-6.340441">
        <ele>435.075</ele>
        <time>2019-02-26T02:40:35Z</time>
      </trkpt>
      <trkpt lat="38.535083" lon="-6.340178">
        <ele>437.364</ele>
        <time>2019-02-26T02:40:55Z</time>
      </trkpt>
      <trkpt lat="38.535493" lon="-6.339901">
        <ele>441.506</ele>
        <time>2019-02-26T02:41:17Z</time>
      </trkpt>
      <trkpt lat="38.535750" lon="-6.339743">
        <ele>444.016</ele>
        <time>2019-02-26T02:41:33Z</time>
      </trkpt>
      <trkpt lat="38.536013" lon="-6.339598">
        <ele>445.808</ele>
        <time>2019-02-26T02:41:49Z</time>
      </trkpt>
      <trkpt lat="38.536350" lon="-6.339457">
        <ele>448.089</ele>
        <time>2019-02-26T02:42:07Z</time>
      </trkpt>
      <trkpt lat="38.536732" lon="-6.339268">
        <ele>450.440</ele>
        <time>2019-02-26T02:42:27Z</time>
      </trkpt>
      <trkpt lat="38.536999" lon="-6.339163">
        <ele>452.161</ele>
        <time>2019-02-26T02:42:42Z</time>
      </trkpt>
      <trkpt lat="38.537370" lon="-6.339128">
        <ele>452.320</ele>
        <time>2019-02-26T02:42:55Z</time>
      </trkpt>
      <trkpt lat="38.538095" lon="-6.339347">
        <ele>451.174</ele>
        <time>2019-02-26T02:43:10Z</time>
      </trkpt>
      <trkpt lat="38.538590" lon="-6.339652">
        <ele>452.427</ele>
        <time>2019-02-26T02:43:26Z</time>
      </trkpt>
      <trkpt lat="38.539040" lon="-6.339882">
        <ele>451.796</ele>
        <time>2019-02-26T02:43:38Z</time>
      </trkpt>
      <trkpt lat="38.539165" lon="-6.339921">
        <ele>451.655</ele>
        <time>2019-02-26T02:43:41Z</time>
      </trkpt>
      <trkpt lat="38.539207" lon="-6.339925">
        <ele>451.557</ele>
        <time>2019-02-26T02:43:42Z</time>
      </trkpt>
      <trkpt lat="38.539251" lon="-6.339929">
        <ele>451.500</ele>
        <time>2019-02-26T02:43:43Z</time>
      </trkpt>
      <trkpt lat="38.540356" lon="-6.340092">
        <ele>451.420</ele>
        <time>2019-02-26T02:44:05Z</time>
      </trkpt>
      <trkpt lat="38.541347" lon="-6.340207">
        <ele>449.408</ele>
        <time>2019-02-26T02:44:22Z</time>
      </trkpt>
      <trkpt lat="38.542449" lon="-6.340061">
        <ele>444.988</ele>
        <time>2019-02-26T02:44:37Z</time>
      </trkpt>
      <trkpt lat="38.543533" lon="-6.339994">
        <ele>442.519</ele>
        <time>2019-02-26T02:44:51Z</time>
      </trkpt>
      <trkpt lat="38.544492" lon="-6.340001">
        <ele>441.390</ele>
        <time>2019-02-26T02:45:05Z</time>
      </trkpt>
      <trkpt lat="38.545283" lon="-6.340051">
        <ele>442.159</ele>
        <time>2019-02-26T02:45:21Z</time>
      </trkpt>
      <trkpt lat="38.545644" lon="-6.340099">
        <ele>442.273</ele>
        <time>2019-02-26T02:45:28Z</time>
      </trkpt>
      <trkpt lat="38.545746" lon="-6.340118">
        <ele>442.286</ele>
        <time>2019-02-26T02:45:30Z</time>
      </trkpt>
      <trkpt lat="38.545797" lon="-6.340120">
        <ele>442.285</ele>
        <time>2019-02-26T02:45:31Z</time>
      </trkpt>
      <trkpt lat="38.545844" lon="-6.340123">
        <ele>442.274</ele>
        <time>2019-02-26T02:45:32Z</time>
      </trkpt>
      <trkpt lat="38.546543" lon="-6.340262">
        <ele>442.175</ele>
        <time>2019-02-26T02:45:46Z</time>
      </trkpt>
      <trkpt lat="38.547643" lon="-6.340651">
        <ele>439.728</ele>
        <time>2019-02-26T02:46:03Z</time>
      </trkpt>
      <trkpt lat="38.548778" lon="-6.341124">
        <ele>436.220</ele>
        <time>2019-02-26T02:46:19Z</time>
      </trkpt>
      <trkpt lat="38.548843" lon="-6.341141">
        <ele>436.108</ele>
        <time>2019-02-26T02:46:20Z</time>
      </trkpt>
      <trkpt lat="38.549762" lon="-6.341302">
        <ele>434.120</ele>
        <time>2019-02-26T02:46:35Z</time>
      </trkpt>
      <trkpt lat="38.550864" lon="-6.341440">
        <ele>432.331</ele>
        <time>2019-02-26T02:46:52Z</time>
      </trkpt>
      <trkpt lat="38.551838" lon="-6.341551">
        <ele>430.072</ele>
        <time>2019-02-26T02:47:09Z</time>
      </trkpt>
      <trkpt lat="38.552110" lon="-6.341538">
        <ele>428.461</ele>
        <time>2019-02-26T02:47:17Z</time>
      </trkpt>
      <trkpt lat="38.552126" lon="-6.341548">
        <ele>428.295</ele>
        <time>2019-02-26T02:47:18Z</time>
      </trkpt>
      <trkpt lat="38.552131" lon="-6.341566">
        <ele>428.168</ele>
        <time>2019-02-26T02:47:23Z</time>
      </trkpt>
      <trkpt lat="38.552168" lon="-6.341561">
        <ele>427.937</ele>
        <time>2019-02-26T02:47:56Z</time>
      </trkpt>
      <trkpt lat="38.552180" lon="-6.341530">
        <ele>427.816</ele>
        <time>2019-02-26T02:47:57Z</time>
      </trkpt>
      <trkpt lat="38.552203" lon="-6.341462">
        <ele>427.896</ele>
        <time>2019-02-26T02:47:59Z</time>
      </trkpt>
      <trkpt lat="38.552221" lon="-6.341433">
        <ele>427.831</ele>
        <time>2019-02-26T02:48:00Z</time>
      </trkpt>
      <trkpt lat="38.552248" lon="-6.341406">
        <ele>427.724</ele>
        <time>2019-02-26T02:48:01Z</time>
      </trkpt>
      <trkpt lat="38.552279" lon="-6.341383">
        <ele>427.708</ele>
        <time>2019-02-26T02:48:02Z</time>
      </trkpt>
      <trkpt lat="38.552315" lon="-6.341367">
        <ele>427.652</ele>
        <time>2019-02-26T02:48:03Z</time>
      </trkpt>
      <trkpt lat="38.552355" lon="-6.341356">
        <ele>427.513</ele>
        <time>2019-02-26T02:48:04Z</time>
      </trkpt>
      <trkpt lat="38.552396" lon="-6.341358">
        <ele>427.594</ele>
        <time>2019-02-26T02:48:05Z</time>
      </trkpt>
      <trkpt lat="38.552437" lon="-6.341370">
        <ele>427.573</ele>
        <time>2019-02-26T02:48:06Z</time>
      </trkpt>
      <trkpt lat="38.552478" lon="-6.341385">
        <ele>427.537</ele>
        <time>2019-02-26T02:48:07Z</time>
      </trkpt>
      <trkpt lat="38.552558" lon="-6.341431">
        <ele>427.550</ele>
        <time>2019-02-26T02:48:09Z</time>
      </trkpt>
      <trkpt lat="38.552592" lon="-6.341467">
        <ele>427.559</ele>
        <time>2019-02-26T02:48:10Z</time>
      </trkpt>
      <trkpt lat="38.552658" lon="-6.341551">
        <ele>427.668</ele>
        <time>2019-02-26T02:48:12Z</time>
      </trkpt>
      <trkpt lat="38.552698" lon="-6.341587">
        <ele>427.658</ele>
        <time>2019-02-26T02:48:13Z</time>
      </trkpt>
      <trkpt lat="38.552742" lon="-6.341613">
        <ele>427.652</ele>
        <time>2019-02-26T02:48:14Z</time>
      </trkpt>
      <trkpt lat="38.552790" lon="-6.341628">
        <ele>427.617</ele>
        <time>2019-02-26T02:48:15Z</time>
      </trkpt>
      <trkpt lat="38.552839" lon="-6.341635">
        <ele>427.408</ele>
        <time>2019-02-26T02:48:16Z</time>
      </trkpt>
      <trkpt lat="38.552889" lon="-6.341643">
        <ele>427.228</ele>
        <time>2019-02-26T02:48:17Z</time>
      </trkpt>
      <trkpt lat="38.552940" lon="-6.341650">
        <ele>427.039</ele>
        <time>2019-02-26T02:48:18Z</time>
      </trkpt>
      <trkpt lat="38.552995" lon="-6.341654">
        <ele>426.740</ele>
        <time>2019-02-26T02:48:19Z</time>
      </trkpt>
      <trkpt lat="38.553051" lon="-6.341656">
        <ele>426.459</ele>
        <time>2019-02-26T02:48:20Z</time>
      </trkpt>
      <trkpt lat="38.553893" lon="-6.341748">
        <ele>422.613</ele>
        <time>2019-02-26T02:48:34Z</time>
      </trkpt>
      <trkpt lat="38.554443" lon="-6.341779">
        <ele>420.246</ele>
        <time>2019-02-26T02:48:43Z</time>
      </trkpt>
      <trkpt lat="38.554488" lon="-6.341795">
        <ele>420.325</ele>
        <time>2019-02-26T02:48:44Z</time>
      </trkpt>
      <trkpt lat="38.554530" lon="-6.341812">
        <ele>420.434</ele>
        <time>2019-02-26T02:48:45Z</time>
      </trkpt>
      <trkpt lat="38.555307" lon="-6.342020">
        <ele>422.052</ele>
        <time>2019-02-26T02:48:59Z</time>
      </trkpt>
      <trkpt lat="38.555956" lon="-6.342137">
        <ele>423.153</ele>
        <time>2019-02-26T02:49:09Z</time>
      </trkpt>
      <trkpt lat="38.556028" lon="-6.342115">
        <ele>423.008</ele>
        <time>2019-02-26T02:49:10Z</time>
      </trkpt>
      <trkpt lat="38.556099" lon="-6.342079">
        <ele>422.908</ele>
        <time>2019-02-26T02:49:11Z</time>
      </trkpt>
      <trkpt lat="38.556244" lon="-6.342008">
        <ele>422.868</ele>
        <time>2019-02-26T02:49:13Z</time>
      </trkpt>
      <trkpt lat="38.556320" lon="-6.341989">
        <ele>422.669</ele>
        <time>2019-02-26T02:49:14Z</time>
      </trkpt>
      <trkpt lat="38.556398" lon="-6.341979">
        <ele>422.560</ele>
        <time>2019-02-26T02:49:15Z</time>
      </trkpt>
      <trkpt lat="38.556743" lon="-6.341949">
        <ele>422.419</ele>
        <time>2019-02-26T02:49:20Z</time>
      </trkpt>
      <trkpt lat="38.556808" lon="-6.341938">
        <ele>422.513</ele>
        <time>2019-02-26T02:49:21Z</time>
      </trkpt>
      <trkpt lat="38.557000" lon="-6.341947">
        <ele>422.776</ele>
        <time>2019-02-26T02:49:24Z</time>
      </trkpt>
      <trkpt lat="38.557056" lon="-6.341964">
        <ele>422.845</ele>
        <time>2019-02-26T02:49:25Z</time>
      </trkpt>
      <trkpt lat="38.557202" lon="-6.342004">
        <ele>423.054</ele>
        <time>2019-02-26T02:49:28Z</time>
      </trkpt>
      <trkpt lat="38.557245" lon="-6.342000">
        <ele>422.854</ele>
        <time>2019-02-26T02:49:29Z</time>
      </trkpt>
      <trkpt lat="38.557291" lon="-6.341982">
        <ele>422.756</ele>
        <time>2019-02-26T02:49:30Z</time>
      </trkpt>
      <trkpt lat="38.557425" lon="-6.341907">
        <ele>422.211</ele>
        <time>2019-02-26T02:49:33Z</time>
      </trkpt>
      <trkpt lat="38.558144" lon="-6.341476">
        <ele>417.608</ele>
        <time>2019-02-26T02:49:47Z</time>
      </trkpt>
      <trkpt lat="38.558253" lon="-6.341378">
        <ele>416.838</ele>
        <time>2019-02-26T02:49:49Z</time>
      </trkpt>
      <trkpt lat="38.558615" lon="-6.340834">
        <ele>412.629</ele>
        <time>2019-02-26T02:49:59Z</time>
      </trkpt>
      <trkpt lat="38.558999" lon="-6.340176">
        <ele>410.480</ele>
        <time>2019-02-26T02:50:10Z</time>
      </trkpt>
      <trkpt lat="38.559139" lon="-6.339981">
        <ele>410.379</ele>
        <time>2019-02-26T02:50:14Z</time>
      </trkpt>
      <trkpt lat="38.559173" lon="-6.339949">
        <ele>410.313</ele>
        <time>2019-02-26T02:50:15Z</time>
      </trkpt>
      <trkpt lat="38.559201" lon="-6.339926">
        <ele>410.456</ele>
        <time>2019-02-26T02:50:16Z</time>
      </trkpt>
      <trkpt lat="38.559520" lon="-6.339750">
        <ele>411.825</ele>
        <time>2019-02-26T02:50:27Z</time>
      </trkpt>
      <trkpt lat="38.559688" lon="-6.339691">
        <ele>412.754</ele>
        <time>2019-02-26T02:50:36Z</time>
      </trkpt>
      <trkpt lat="38.559946" lon="-6.339577">
        <ele>414.166</ele>
        <time>2019-02-26T02:50:45Z</time>
      </trkpt>
      <trkpt lat="38.560066" lon="-6.339584">
        <ele>414.829</ele>
        <time>2019-02-26T02:50:51Z</time>
      </trkpt>
      <trkpt lat="38.560207" lon="-6.339759">
        <ele>414.721</ele>
        <time>2019-02-26T02:50:59Z</time>
      </trkpt>
      <trkpt lat="38.560223" lon="-6.339776">
        <ele>414.708</ele>
        <time>2019-02-26T02:51:00Z</time>
      </trkpt>
      <trkpt lat="38.560240" lon="-6.339790">
        <ele>414.769</ele>
        <time>2019-02-26T02:51:01Z</time>
      </trkpt>
      <trkpt lat="38.560258" lon="-6.339800">
        <ele>414.670</ele>
        <time>2019-02-26T02:51:02Z</time>
      </trkpt>
      <trkpt lat="38.560275" lon="-6.339808">
        <ele>414.691</ele>
        <time>2019-02-26T02:51:03Z</time>
      </trkpt>
      <trkpt lat="38.560290" lon="-6.339814">
        <ele>414.640</ele>
        <time>2019-02-26T02:51:04Z</time>
      </trkpt>
      <trkpt lat="38.560396" lon="-6.339889">
        <ele>414.244</ele>
        <time>2019-02-26T02:51:13Z</time>
      </trkpt>
      <trkpt lat="38.560493" lon="-6.339994">
        <ele>413.697</ele>
        <time>2019-02-26T02:51:20Z</time>
      </trkpt>
      <trkpt lat="38.560606" lon="-6.340083">
        <ele>413.076</ele>
        <time>2019-02-26T02:51:31Z</time>
      </trkpt>
      <trkpt lat="38.560621" lon="-6.340100">
        <ele>412.995</ele>
        <time>2019-02-26T02:51:39Z</time>
      </trkpt>
      <trkpt lat="38.560757" lon="-6.340372">
        <ele>412.168</ele>
        <time>2019-02-26T02:55:20Z</time>
      </trkpt>
      <trkpt lat="38.560901" lon="-6.340467">
        <ele>411.742</ele>
        <time>2019-02-26T02:55:32Z</time>
      </trkpt>
      <trkpt lat="38.560903" lon="-6.340469">
        <ele>411.726</ele>
        <time>2019-02-26T02:55:33Z</time>
      </trkpt>
      <trkpt lat="38.560952" lon="-6.340438">
        <ele>412.108</ele>
        <time>2019-02-26T02:55:57Z</time>
      </trkpt>
      <trkpt lat="38.560964" lon="-6.340419">
        <ele>412.279</ele>
        <time>2019-02-26T02:55:58Z</time>
      </trkpt>
      <trkpt lat="38.560977" lon="-6.340402">
        <ele>412.340</ele>
        <time>2019-02-26T02:55:59Z</time>
      </trkpt>
      <trkpt lat="38.560989" lon="-6.340385">
        <ele>412.491</ele>
        <time>2019-02-26T02:56:00Z</time>
      </trkpt>
      <trkpt lat="38.561002" lon="-6.340368">
        <ele>412.560</ele>
        <time>2019-02-26T02:56:01Z</time>
      </trkpt>
      <trkpt lat="38.561012" lon="-6.340350">
        <ele>412.674</ele>
        <time>2019-02-26T02:56:02Z</time>
      </trkpt>
      <trkpt lat="38.561020" lon="-6.340336">
        <ele>412.787</ele>
        <time>2019-02-26T02:56:03Z</time>
      </trkpt>
      <trkpt lat="38.561029" lon="-6.340320">
        <ele>412.876</ele>
        <time>2019-02-26T02:56:04Z</time>
      </trkpt>
      <trkpt lat="38.561038" lon="-6.340299">
        <ele>412.985</ele>
        <time>2019-02-26T02:56:05Z</time>
      </trkpt>
      <trkpt lat="38.561046" lon="-6.340281">
        <ele>412.979</ele>
        <time>2019-02-26T02:56:06Z</time>
      </trkpt>
      <trkpt lat="38.561086" lon="-6.340156">
        <ele>413.605</ele>
        <time>2019-02-26T02:56:15Z</time>
      </trkpt>
      <trkpt lat="38.561094" lon="-6.340143">
        <ele>413.625</ele>
        <time>2019-02-26T02:56:16Z</time>
      </trkpt>
      <trkpt lat="38.561099" lon="-6.340126">
        <ele>413.708</ele>
        <time>2019-02-26T02:56:17Z</time>
      </trkpt>
      <trkpt lat="38.561142" lon="-6.340046">
        <ele>414.110</ele>
        <time>2019-02-26T02:56:26Z</time>
      </trkpt>
      <trkpt lat="38.561189" lon="-6.339906">
        <ele>414.591</ele>
        <time>2019-02-26T02:57:39Z</time>
      </trkpt>
      <trkpt lat="38.561238" lon="-6.339808">
        <ele>414.972</ele>
        <time>2019-02-26T02:57:50Z</time>
      </trkpt>
      <trkpt lat="38.561286" lon="-6.339735">
        <ele>415.461</ele>
        <time>2019-02-26T02:57:57Z</time>
      </trkpt>
      <trkpt lat="38.561395" lon="-6.339487">
        <ele>416.815</ele>
        <time>2019-02-26T02:58:08Z</time>
      </trkpt>
      <trkpt lat="38.561494" lon="-6.339281">
        <ele>417.528</ele>
        <time>2019-02-26T02:58:18Z</time>
      </trkpt>
      <trkpt lat="38.561526" lon="-6.339229">
        <ele>417.897</ele>
        <time>2019-02-26T02:58:21Z</time>
      </trkpt>
      <trkpt lat="38.561541" lon="-6.339219">
        <ele>417.936</ele>
        <time>2019-02-26T02:58:22Z</time>
      </trkpt>
      <trkpt lat="38.561636" lon="-6.339115">
        <ele>418.592</ele>
        <time>2019-02-26T02:58:29Z</time>
      </trkpt>
      <trkpt lat="38.561700" lon="-6.338817">
        <ele>419.573</ele>
        <time>2019-02-26T02:58:39Z</time>
      </trkpt>
      <trkpt lat="38.561696" lon="-6.338783">
        <ele>419.620</ele>
        <time>2019-02-26T02:58:40Z</time>
      </trkpt>
      <trkpt lat="38.561702" lon="-6.338751">
        <ele>419.708</ele>
        <time>2019-02-26T02:58:41Z</time>
      </trkpt>
      <trkpt lat="38.561706" lon="-6.338720">
        <ele>419.862</ele>
        <time>2019-02-26T02:58:42Z</time>
      </trkpt>
      <trkpt lat="38.561710" lon="-6.338694">
        <ele>419.963</ele>
        <time>2019-02-26T02:58:43Z</time>
      </trkpt>
      <trkpt lat="38.561714" lon="-6.338670">
        <ele>420.084</ele>
        <time>2019-02-26T02:58:44Z</time>
      </trkpt>
      <trkpt lat="38.561764" lon="-6.338501">
        <ele>420.623</ele>
        <time>2019-02-26T02:58:53Z</time>
      </trkpt>
      <trkpt lat="38.561766" lon="-6.338477">
        <ele>420.797</ele>
        <time>2019-02-26T02:58:54Z</time>
      </trkpt>
      <trkpt lat="38.561769" lon="-6.338452">
        <ele>420.830</ele>
        <time>2019-02-26T02:58:55Z</time>
      </trkpt>
      <trkpt lat="38.561849" lon="-6.338298">
        <ele>421.449</ele>
        <time>2019-02-26T02:59:03Z</time>
      </trkpt>
      <trkpt lat="38.561853" lon="-6.338273">
        <ele>421.548</ele>
        <time>2019-02-26T02:59:06Z</time>
      </trkpt>
      <trkpt lat="38.561912" lon="-6.338014">
        <ele>422.515</ele>
        <time>2019-02-26T02:59:31Z</time>
      </trkpt>
      <trkpt lat="38.561970" lon="-6.337878">
        <ele>422.965</ele>
        <time>2019-02-26T02:59:39Z</time>
      </trkpt>
      <trkpt lat="38.561973" lon="-6.337861">
        <ele>422.911</ele>
        <time>2019-02-26T02:59:40Z</time>
      </trkpt>
      <trkpt lat="38.561979" lon="-6.337840">
        <ele>423.008</ele>
        <time>2019-02-26T02:59:41Z</time>
      </trkpt>
      <trkpt lat="38.562033" lon="-6.337690">
        <ele>423.414</ele>
        <time>2019-02-26T02:59:52Z</time>
      </trkpt>
      <trkpt lat="38.562060" lon="-6.337563">
        <ele>424.035</ele>
        <time>2019-02-26T03:00:00Z</time>
      </trkpt>
      <trkpt lat="38.562069" lon="-6.337524">
        <ele>424.156</ele>
        <time>2019-02-26T03:00:02Z</time>
      </trkpt>
      <trkpt lat="38.562080" lon="-6.337507">
        <ele>424.295</ele>
        <time>2019-02-26T03:00:03Z</time>
      </trkpt>
      <trkpt lat="38.562141" lon="-6.337499">
        <ele>424.569</ele>
        <time>2019-02-26T03:00:12Z</time>
      </trkpt>
      <trkpt lat="38.562279" lon="-6.337538">
        <ele>425.292</ele>
        <time>2019-02-26T03:00:25Z</time>
      </trkpt>
      <trkpt lat="38.562307" lon="-6.337548">
        <ele>425.361</ele>
        <time>2019-02-26T03:00:26Z</time>
      </trkpt>
      <trkpt lat="38.562646" lon="-6.337595">
        <ele>426.320</ele>
        <time>2019-02-26T03:00:39Z</time>
      </trkpt>
      <trkpt lat="38.562937" lon="-6.337425">
        <ele>427.381</ele>
        <time>2019-02-26T03:00:52Z</time>
      </trkpt>
      <trkpt lat="38.563313" lon="-6.337190">
        <ele>428.961</ele>
        <time>2019-02-26T03:01:05Z</time>
      </trkpt>
      <trkpt lat="38.563599" lon="-6.336866">
        <ele>430.217</ele>
        <time>2019-02-26T03:01:16Z</time>
      </trkpt>
      <trkpt lat="38.563931" lon="-6.336515">
        <ele>430.708</ele>
        <time>2019-02-26T03:01:28Z</time>
      </trkpt>
      <trkpt lat="38.564238" lon="-6.336329">
        <ele>430.551</ele>
        <time>2019-02-26T03:01:38Z</time>
      </trkpt>
      <trkpt lat="38.564309" lon="-6.336369">
        <ele>430.542</ele>
        <time>2019-02-26T03:01:40Z</time>
      </trkpt>
      <trkpt lat="38.564604" lon="-6.336725">
        <ele>431.013</ele>
        <time>2019-02-26T03:01:53Z</time>
      </trkpt>
      <trkpt lat="38.564607" lon="-6.336732">
        <ele>431.062</ele>
        <time>2019-02-26T03:01:57Z</time>
      </trkpt>
      <trkpt lat="38.564667" lon="-6.336776">
        <ele>431.056</ele>
        <time>2019-02-26T03:02:24Z</time>
      </trkpt>
      <trkpt lat="38.564947" lon="-6.336976">
        <ele>430.659</ele>
        <time>2019-02-26T03:02:32Z</time>
      </trkpt>
      <trkpt lat="38.565568" lon="-6.337326">
        <ele>428.678</ele>
        <time>2019-02-26T03:02:46Z</time>
      </trkpt>
      <trkpt lat="38.566317" lon="-6.337684">
        <ele>426.897</ele>
        <time>2019-02-26T03:03:00Z</time>
      </trkpt>
      <trkpt lat="38.567277" lon="-6.338286">
        <ele>424.642</ele>
        <time>2019-02-26T03:03:17Z</time>
      </trkpt>
      <trkpt lat="38.567624" lon="-6.338577">
        <ele>423.322</ele>
        <time>2019-02-26T03:03:23Z</time>
      </trkpt>
      <trkpt lat="38.568342" lon="-6.339372">
        <ele>421.314</ele>
        <time>2019-02-26T03:03:36Z</time>
      </trkpt>
      <trkpt lat="38.569582" lon="-6.340504">
        <ele>419.108</ele>
        <time>2019-02-26T03:03:56Z</time>
      </trkpt>
      <trkpt lat="38.569902" lon="-6.340663">
        <ele>418.547</ele>
        <time>2019-02-26T03:04:01Z</time>
      </trkpt>
      <trkpt lat="38.569971" lon="-6.340668">
        <ele>418.468</ele>
        <time>2019-02-26T03:04:02Z</time>
      </trkpt>
      <trkpt lat="38.570611" lon="-6.340604">
        <ele>416.129</ele>
        <time>2019-02-26T03:04:11Z</time>
      </trkpt>
      <trkpt lat="38.570686" lon="-6.340616">
        <ele>415.748</ele>
        <time>2019-02-26T03:04:12Z</time>
      </trkpt>
      <trkpt lat="38.571243" lon="-6.340827">
        <ele>413.912</ele>
        <time>2019-02-26T03:04:22Z</time>
      </trkpt>
      <trkpt lat="38.571288" lon="-6.340835">
        <ele>413.935</ele>
        <time>2019-02-26T03:04:23Z</time>
      </trkpt>
      <trkpt lat="38.571332" lon="-6.340848">
        <ele>413.924</ele>
        <time>2019-02-26T03:04:24Z</time>
      </trkpt>
      <trkpt lat="38.571916" lon="-6.340896">
        <ele>412.113</ele>
        <time>2019-02-26T03:04:35Z</time>
      </trkpt>
      <trkpt lat="38.571972" lon="-6.340884">
        <ele>411.956</ele>
        <time>2019-02-26T03:04:36Z</time>
      </trkpt>
      <trkpt lat="38.572890" lon="-6.340785">
        <ele>408.259</ele>
        <time>2019-02-26T03:04:52Z</time>
      </trkpt>
      <trkpt lat="38.573876" lon="-6.340824">
        <ele>403.414</ele>
        <time>2019-02-26T03:05:05Z</time>
      </trkpt>
      <trkpt lat="38.574564" lon="-6.340868">
        <ele>400.008</ele>
        <time>2019-02-26T03:05:13Z</time>
      </trkpt>
      <trkpt lat="38.575277" lon="-6.340934">
        <ele>398.448</ele>
        <time>2019-02-26T03:05:22Z</time>
      </trkpt>
      <trkpt lat="38.576088" lon="-6.341052">
        <ele>397.999</ele>
        <time>2019-02-26T03:05:36Z</time>
      </trkpt>
      <trkpt lat="38.576133" lon="-6.341056">
        <ele>397.840</ele>
        <time>2019-02-26T03:05:37Z</time>
      </trkpt>
      <trkpt lat="38.577051" lon="-6.341238">
        <ele>398.779</ele>
        <time>2019-02-26T03:05:56Z</time>
      </trkpt>
      <trkpt lat="38.577805" lon="-6.341461">
        <ele>399.933</ele>
        <time>2019-02-26T03:06:14Z</time>
      </trkpt>
      <trkpt lat="38.578405" lon="-6.341522">
        <ele>402.716</ele>
        <time>2019-02-26T03:06:34Z</time>
      </trkpt>
      <trkpt lat="38.578925" lon="-6.341476">
        <ele>404.785</ele>
        <time>2019-02-26T03:06:54Z</time>
      </trkpt>
      <trkpt lat="38.579336" lon="-6.341220">
        <ele>405.294</ele>
        <time>2019-02-26T03:07:11Z</time>
      </trkpt>
      <trkpt lat="38.579794" lon="-6.340951">
        <ele>405.592</ele>
        <time>2019-02-26T03:07:28Z</time>
      </trkpt>
      <trkpt lat="38.580289" lon="-6.340835">
        <ele>406.473</ele>
        <time>2019-02-26T03:07:45Z</time>
      </trkpt>
      <trkpt lat="38.580816" lon="-6.340730">
        <ele>407.320</ele>
        <time>2019-02-26T03:08:02Z</time>
      </trkpt>
      <trkpt lat="38.581524" lon="-6.340757">
        <ele>408.108</ele>
        <time>2019-02-26T03:08:23Z</time>
      </trkpt>
      <trkpt lat="38.582277" lon="-6.340822">
        <ele>406.832</ele>
        <time>2019-02-26T03:08:42Z</time>
      </trkpt>
      <trkpt lat="38.583051" lon="-6.340874">
        <ele>406.413</ele>
        <time>2019-02-26T03:08:57Z</time>
      </trkpt>
      <trkpt lat="38.584033" lon="-6.340891">
        <ele>404.234</ele>
        <time>2019-02-26T03:09:13Z</time>
      </trkpt>
      <trkpt lat="38.585473" lon="-6.341029">
        <ele>402.463</ele>
        <time>2019-02-26T03:09:35Z</time>
      </trkpt>
      <trkpt lat="38.586766" lon="-6.341228">
        <ele>402.367</ele>
        <time>2019-02-26T03:09:56Z</time>
      </trkpt>
      <trkpt lat="38.587669" lon="-6.341332">
        <ele>400.970</ele>
        <time>2019-02-26T03:10:12Z</time>
      </trkpt>
      <trkpt lat="38.588963" lon="-6.341425">
        <ele>400.159</ele>
        <time>2019-02-26T03:10:35Z</time>
      </trkpt>
      <trkpt lat="38.590139" lon="-6.341534">
        <ele>399.438</ele>
        <time>2019-02-26T03:10:55Z</time>
      </trkpt>
      <trkpt lat="38.591276" lon="-6.341668">
        <ele>398.267</ele>
        <time>2019-02-26T03:11:14Z</time>
      </trkpt>
      <trkpt lat="38.592354" lon="-6.341490">
        <ele>397.381</ele>
        <time>2019-02-26T03:11:32Z</time>
      </trkpt>
      <trkpt lat="38.593209" lon="-6.341300">
        <ele>396.619</ele>
        <time>2019-02-26T03:11:48Z</time>
      </trkpt>
      <trkpt lat="38.594162" lon="-6.340991">
        <ele>395.208</ele>
        <time>2019-02-26T03:12:05Z</time>
      </trkpt>
      <trkpt lat="38.595396" lon="-6.340581">
        <ele>392.629</ele>
        <time>2019-02-26T03:12:26Z</time>
      </trkpt>
      <trkpt lat="38.596375" lon="-6.340252">
        <ele>392.390</ele>
        <time>2019-02-26T03:12:43Z</time>
      </trkpt>
      <trkpt lat="38.597262" lon="-6.339946">
        <ele>390.871</ele>
        <time>2019-02-26T03:12:59Z</time>
      </trkpt>
      <trkpt lat="38.598168" lon="-6.339634">
        <ele>390.830</ele>
        <time>2019-02-26T03:13:15Z</time>
      </trkpt>
      <trkpt lat="38.599563" lon="-6.339322">
        <ele>389.014</ele>
        <time>2019-02-26T03:13:39Z</time>
      </trkpt>
      <trkpt lat="38.600711" lon="-6.339385">
        <ele>388.547</ele>
        <time>2019-02-26T03:13:57Z</time>
      </trkpt>
      <trkpt lat="38.601563" lon="-6.339452">
        <ele>388.386</ele>
        <time>2019-02-26T03:14:12Z</time>
      </trkpt>
      <trkpt lat="38.601713" lon="-6.339416">
        <ele>388.015</ele>
        <time>2019-02-26T03:14:15Z</time>
      </trkpt>
      <trkpt lat="38.601771" lon="-6.339399">
        <ele>388.098</ele>
        <time>2019-02-26T03:14:17Z</time>
      </trkpt>
      <trkpt lat="38.601781" lon="-6.339411">
        <ele>388.015</ele>
        <time>2019-02-26T03:14:18Z</time>
      </trkpt>
      <trkpt lat="38.601781" lon="-6.339426">
        <ele>388.026</ele>
        <time>2019-02-26T03:14:19Z</time>
      </trkpt>
      <trkpt lat="38.601776" lon="-6.339441">
        <ele>388.008</ele>
        <time>2019-02-26T03:14:20Z</time>
      </trkpt>
      <trkpt lat="38.601769" lon="-6.339459">
        <ele>388.022</ele>
        <time>2019-02-26T03:14:21Z</time>
      </trkpt>
      <trkpt lat="38.601768" lon="-6.339483">
        <ele>387.983</ele>
        <time>2019-02-26T03:14:22Z</time>
      </trkpt>
      <trkpt lat="38.601780" lon="-6.339504">
        <ele>387.924</ele>
        <time>2019-02-26T03:14:23Z</time>
      </trkpt>
      <trkpt lat="38.601804" lon="-6.339514">
        <ele>387.933</ele>
        <time>2019-02-26T03:14:24Z</time>
      </trkpt>
      <trkpt lat="38.601833" lon="-6.339518">
        <ele>387.957</ele>
        <time>2019-02-26T03:14:25Z</time>
      </trkpt>
      <trkpt lat="38.601867" lon="-6.339522">
        <ele>387.860</ele>
        <time>2019-02-26T03:14:26Z</time>
      </trkpt>
      <trkpt lat="38.602545" lon="-6.339543">
        <ele>387.529</ele>
        <time>2019-02-26T03:14:41Z</time>
      </trkpt>
      <trkpt lat="38.603371" lon="-6.339846">
        <ele>387.658</ele>
        <time>2019-02-26T03:14:56Z</time>
      </trkpt>
      <trkpt lat="38.604232" lon="-6.340430">
        <ele>386.949</ele>
        <time>2019-02-26T03:15:11Z</time>
      </trkpt>
      <trkpt lat="38.605169" lon="-6.340921">
        <ele>386.002</ele>
        <time>2019-02-26T03:15:26Z</time>
      </trkpt>
      <trkpt lat="38.606445" lon="-6.341355">
        <ele>384.622</ele>
        <time>2019-02-26T03:15:45Z</time>
      </trkpt>
      <trkpt lat="38.607794" lon="-6.341760">
        <ele>383.708</ele>
        <time>2019-02-26T03:16:04Z</time>
      </trkpt>
      <trkpt lat="38.609014" lon="-6.342379">
        <ele>383.077</ele>
        <time>2019-02-26T03:16:24Z</time>
      </trkpt>
      <trkpt lat="38.610038" lon="-6.342778">
        <ele>383.328</ele>
        <time>2019-02-26T03:16:41Z</time>
      </trkpt>
      <trkpt lat="38.611411" lon="-6.342932">
        <ele>381.679</ele>
        <time>2019-02-26T03:17:02Z</time>
      </trkpt>
      <trkpt lat="38.612374" lon="-6.342900">
        <ele>380.298</ele>
        <time>2019-02-26T03:17:17Z</time>
      </trkpt>
      <trkpt lat="38.613246" lon="-6.343105">
        <ele>380.132</ele>
        <time>2019-02-26T03:17:33Z</time>
      </trkpt>
      <trkpt lat="38.614269" lon="-6.343539">
        <ele>379.485</ele>
        <time>2019-02-26T03:17:50Z</time>
      </trkpt>
      <trkpt lat="38.614615" lon="-6.343680">
        <ele>379.064</ele>
        <time>2019-02-26T03:17:56Z</time>
      </trkpt>
      <trkpt lat="38.615856" lon="-6.343923">
        <ele>378.483</ele>
        <time>2019-02-26T03:18:18Z</time>
      </trkpt>
      <trkpt lat="38.616940" lon="-6.343895">
        <ele>377.067</ele>
        <time>2019-02-26T03:18:36Z</time>
      </trkpt>
      <trkpt lat="38.617884" lon="-6.343786">
        <ele>375.481</ele>
        <time>2019-02-26T03:18:51Z</time>
      </trkpt>
      <trkpt lat="38.618937" lon="-6.343712">
        <ele>374.619</ele>
        <time>2019-02-26T03:19:09Z</time>
      </trkpt>
      <trkpt lat="38.619711" lon="-6.343783">
        <ele>373.608</ele>
        <time>2019-02-26T03:19:22Z</time>
      </trkpt>
      <trkpt lat="38.620777" lon="-6.344077">
        <ele>373.239</ele>
        <time>2019-02-26T03:19:42Z</time>
      </trkpt>
      <trkpt lat="38.621583" lon="-6.344115">
        <ele>372.750</ele>
        <time>2019-02-26T03:19:56Z</time>
      </trkpt>
      <trkpt lat="38.622600" lon="-6.344128">
        <ele>371.941</ele>
        <time>2019-02-26T03:20:15Z</time>
      </trkpt>
      <trkpt lat="38.623570" lon="-6.344490">
        <ele>371.420</ele>
        <time>2019-02-26T03:20:32Z</time>
      </trkpt>
      <trkpt lat="38.624542" lon="-6.345116">
        <ele>370.414</ele>
        <time>2019-02-26T03:20:50Z</time>
      </trkpt>
      <trkpt lat="38.625661" lon="-6.345229">
        <ele>369.147</ele>
        <time>2019-02-26T03:21:07Z</time>
      </trkpt>
      <trkpt lat="38.626551" lon="-6.345089">
        <ele>367.576</ele>
        <time>2019-02-26T03:21:20Z</time>
      </trkpt>
      <trkpt lat="38.627535" lon="-6.344864">
        <ele>366.855</ele>
        <time>2019-02-26T03:21:36Z</time>
      </trkpt>
      <trkpt lat="38.628632" lon="-6.344491">
        <ele>366.162</ele>
        <time>2019-02-26T03:21:55Z</time>
      </trkpt>
      <trkpt lat="38.629435" lon="-6.343978">
        <ele>365.883</ele>
        <time>2019-02-26T03:22:11Z</time>
      </trkpt>
      <trkpt lat="38.630320" lon="-6.343916">
        <ele>365.511</ele>
        <time>2019-02-26T03:22:26Z</time>
      </trkpt>
      <trkpt lat="38.631268" lon="-6.344247">
        <ele>364.808</ele>
        <time>2019-02-26T03:22:42Z</time>
      </trkpt>
      <trkpt lat="38.631566" lon="-6.344359">
        <ele>364.539</ele>
        <time>2019-02-26T03:22:51Z</time>
      </trkpt>
      <trkpt lat="38.631960" lon="-6.344529">
        <ele>364.130</ele>
        <time>2019-02-26T03:23:02Z</time>
      </trkpt>
      <trkpt lat="38.631998" lon="-6.344554">
        <ele>364.071</ele>
        <time>2019-02-26T03:23:03Z</time>
      </trkpt>
      <trkpt lat="38.632372" lon="-6.344767">
        <ele>364.080</ele>
        <time>2019-02-26T03:23:12Z</time>
      </trkpt>
      <trkpt lat="38.632409" lon="-6.344804">
        <ele>364.074</ele>
        <time>2019-02-26T03:23:13Z</time>
      </trkpt>
      <trkpt lat="38.632898" lon="-6.345545">
        <ele>364.027</ele>
        <time>2019-02-26T03:23:29Z</time>
      </trkpt>
      <trkpt lat="38.633515" lon="-6.346372">
        <ele>364.086</ele>
        <time>2019-02-26T03:23:46Z</time>
      </trkpt>
      <trkpt lat="38.633846" lon="-6.346735">
        <ele>363.955</ele>
        <time>2019-02-26T03:23:55Z</time>
      </trkpt>
      <trkpt lat="38.634562" lon="-6.347599">
        <ele>363.347</ele>
        <time>2019-02-26T03:24:15Z</time>
      </trkpt>
      <trkpt lat="38.635172" lon="-6.348412">
        <ele>362.629</ele>
        <time>2019-02-26T03:24:33Z</time>
      </trkpt>
      <trkpt lat="38.635900" lon="-6.349311">
        <ele>362.621</ele>
        <time>2019-02-26T03:24:52Z</time>
      </trkpt>
      <trkpt lat="38.636091" lon="-6.349581">
        <ele>362.608</ele>
        <time>2019-02-26T03:24:57Z</time>
      </trkpt>
      <trkpt lat="38.636857" lon="-6.350814">
        <ele>361.957</ele>
        <time>2019-02-26T03:25:18Z</time>
      </trkpt>
      <trkpt lat="38.637570" lon="-6.351959">
        <ele>361.928</ele>
        <time>2019-02-26T03:25:39Z</time>
      </trkpt>
      <trkpt lat="38.637607" lon="-6.352007">
        <ele>361.949</ele>
        <time>2019-02-26T03:25:40Z</time>
      </trkpt>
      <trkpt lat="38.637647" lon="-6.352049">
        <ele>361.988</ele>
        <time>2019-02-26T03:25:41Z</time>
      </trkpt>
      <trkpt lat="38.637689" lon="-6.352090">
        <ele>361.912</ele>
        <time>2019-02-26T03:25:42Z</time>
      </trkpt>
      <trkpt lat="38.637726" lon="-6.352136">
        <ele>361.935</ele>
        <time>2019-02-26T03:25:43Z</time>
      </trkpt>
      <trkpt lat="38.637761" lon="-6.352188">
        <ele>361.994</ele>
        <time>2019-02-26T03:25:44Z</time>
      </trkpt>
      <trkpt lat="38.638531" lon="-6.353213">
        <ele>362.353</ele>
        <time>2019-02-26T03:26:05Z</time>
      </trkpt>
      <trkpt lat="38.639145" lon="-6.353968">
        <ele>364.053</ele>
        <time>2019-02-26T03:26:23Z</time>
      </trkpt>
      <trkpt lat="38.639834" lon="-6.354844">
        <ele>364.704</ele>
        <time>2019-02-26T03:26:45Z</time>
      </trkpt>
      <trkpt lat="38.640112" lon="-6.355273">
        <ele>363.214</ele>
        <time>2019-02-26T03:26:54Z</time>
      </trkpt>
      <trkpt lat="38.640146" lon="-6.355330">
        <ele>362.908</ele>
        <time>2019-02-26T03:26:55Z</time>
      </trkpt>
      <trkpt lat="38.640350" lon="-6.355708">
        <ele>360.098</ele>
        <time>2019-02-26T03:27:01Z</time>
      </trkpt>
      <trkpt lat="38.640851" lon="-6.356635">
        <ele>357.289</ele>
        <time>2019-02-26T03:27:13Z</time>
      </trkpt>
      <trkpt lat="38.641331" lon="-6.357516">
        <ele>356.360</ele>
        <time>2019-02-26T03:27:24Z</time>
      </trkpt>
      <trkpt lat="38.641920" lon="-6.358619">
        <ele>357.449</ele>
        <time>2019-02-26T03:27:41Z</time>
      </trkpt>
      <trkpt lat="38.642430" lon="-6.359542">
        <ele>359.283</ele>
        <time>2019-02-26T03:27:57Z</time>
      </trkpt>
      <trkpt lat="38.642486" lon="-6.359627">
        <ele>359.656</ele>
        <time>2019-02-26T03:27:59Z</time>
      </trkpt>
      <trkpt lat="38.642519" lon="-6.359659">
        <ele>359.725</ele>
        <time>2019-02-26T03:28:00Z</time>
      </trkpt>
      <trkpt lat="38.642555" lon="-6.359684">
        <ele>359.984</ele>
        <time>2019-02-26T03:28:01Z</time>
      </trkpt>
      <trkpt lat="38.642592" lon="-6.359705">
        <ele>360.234</ele>
        <time>2019-02-26T03:28:02Z</time>
      </trkpt>
      <trkpt lat="38.642629" lon="-6.359720">
        <ele>360.455</ele>
        <time>2019-02-26T03:28:03Z</time>
      </trkpt>
      <trkpt lat="38.642666" lon="-6.359731">
        <ele>360.610</ele>
        <time>2019-02-26T03:28:04Z</time>
      </trkpt>
      <trkpt lat="38.642702" lon="-6.359738">
        <ele>360.608</ele>
        <time>2019-02-26T03:28:05Z</time>
      </trkpt>
      <trkpt lat="38.642738" lon="-6.359741">
        <ele>360.676</ele>
        <time>2019-02-26T03:28:06Z</time>
      </trkpt>
      <trkpt lat="38.642775" lon="-6.359742">
        <ele>360.647</ele>
        <time>2019-02-26T03:28:07Z</time>
      </trkpt>
      <trkpt lat="38.642813" lon="-6.359739">
        <ele>360.628</ele>
        <time>2019-02-26T03:28:08Z</time>
      </trkpt>
      <trkpt lat="38.642851" lon="-6.359734">
        <ele>360.647</ele>
        <time>2019-02-26T03:28:09Z</time>
      </trkpt>
      <trkpt lat="38.643639" lon="-6.359763">
        <ele>360.611</ele>
        <time>2019-02-26T03:28:28Z</time>
      </trkpt>
      <trkpt lat="38.644077" lon="-6.359871">
        <ele>360.634</ele>
        <time>2019-02-26T03:28:38Z</time>
      </trkpt>
      <trkpt lat="38.644813" lon="-6.359754">
        <ele>361.453</ele>
        <time>2019-02-26T03:28:55Z</time>
      </trkpt>
      <trkpt lat="38.645580" lon="-6.359593">
        <ele>361.562</ele>
        <time>2019-02-26T03:29:13Z</time>
      </trkpt>
      <trkpt lat="38.645868" lon="-6.359545">
        <ele>361.522</ele>
        <time>2019-02-26T03:29:20Z</time>
      </trkpt>
      <trkpt lat="38.646645" lon="-6.359603">
        <ele>361.562</ele>
        <time>2019-02-26T03:29:39Z</time>
      </trkpt>
      <trkpt lat="38.647303" lon="-6.360254">
        <ele>362.608</ele>
        <time>2019-02-26T03:29:59Z</time>
      </trkpt>
      <trkpt lat="38.647688" lon="-6.360660">
        <ele>363.708</ele>
        <time>2019-02-26T03:30:15Z</time>
      </trkpt>
      <trkpt lat="38.648098" lon="-6.361043">
        <ele>364.535</ele>
        <time>2019-02-26T03:30:30Z</time>
      </trkpt>
      <trkpt lat="38.648517" lon="-6.361238">
        <ele>363.846</ele>
        <time>2019-02-26T03:30:44Z</time>
      </trkpt>
      <trkpt lat="38.648519" lon="-6.361237">
        <ele>363.817</ele>
        <time>2019-02-26T03:30:46Z</time>
      </trkpt>
      <trkpt lat="38.648595" lon="-6.361255">
        <ele>363.776</ele>
        <time>2019-02-26T03:32:26Z</time>
      </trkpt>
      <trkpt lat="38.648948" lon="-6.361402">
        <ele>363.660</ele>
        <time>2019-02-26T03:32:37Z</time>
      </trkpt>
      <trkpt lat="38.648990" lon="-6.361414">
        <ele>363.623</ele>
        <time>2019-02-26T03:32:38Z</time>
      </trkpt>
      <trkpt lat="38.649766" lon="-6.361681">
        <ele>362.612</ele>
        <time>2019-02-26T03:32:54Z</time>
      </trkpt>
      <trkpt lat="38.650837" lon="-6.361707">
        <ele>362.791</ele>
        <time>2019-02-26T03:33:13Z</time>
      </trkpt>
      <trkpt lat="38.651706" lon="-6.361705">
        <ele>363.087</ele>
        <time>2019-02-26T03:33:30Z</time>
      </trkpt>
      <trkpt lat="38.652772" lon="-6.361756">
        <ele>363.142</ele>
        <time>2019-02-26T03:33:51Z</time>
      </trkpt>
      <trkpt lat="38.653691" lon="-6.361795">
        <ele>363.026</ele>
        <time>2019-02-26T03:34:10Z</time>
      </trkpt>
      <trkpt lat="38.654645" lon="-6.361846">
        <ele>361.508</ele>
        <time>2019-02-26T03:34:29Z</time>
      </trkpt>
      <trkpt lat="38.655679" lon="-6.361876">
        <ele>358.911</ele>
        <time>2019-02-26T03:34:46Z</time>
      </trkpt>
      <trkpt lat="38.656631" lon="-6.361936">
        <ele>358.162</ele>
        <time>2019-02-26T03:34:59Z</time>
      </trkpt>
      <trkpt lat="38.657667" lon="-6.361983">
        <ele>359.053</ele>
        <time>2019-02-26T03:35:18Z</time>
      </trkpt>
      <trkpt lat="38.658374" lon="-6.362009">
        <ele>360.512</ele>
        <time>2019-02-26T03:35:38Z</time>
      </trkpt>
      <trkpt lat="38.659216" lon="-6.362054">
        <ele>361.536</ele>
        <time>2019-02-26T03:36:01Z</time>
      </trkpt>
      <trkpt lat="38.659682" lon="-6.362065">
        <ele>361.149</ele>
        <time>2019-02-26T03:36:13Z</time>
      </trkpt>
      <trkpt lat="38.660534" lon="-6.362105">
        <ele>360.168</ele>
        <time>2019-02-26T03:36:31Z</time>
      </trkpt>
      <trkpt lat="38.661336" lon="-6.362125">
        <ele>358.747</ele>
        <time>2019-02-26T03:36:47Z</time>
      </trkpt>
      <trkpt lat="38.662281" lon="-6.362181">
        <ele>356.046</ele>
        <time>2019-02-26T03:37:04Z</time>
      </trkpt>
      <trkpt lat="38.663325" lon="-6.362219">
        <ele>355.788</ele>
        <time>2019-02-26T03:37:21Z</time>
      </trkpt>
      <trkpt lat="38.664063" lon="-6.362244">
        <ele>356.116</ele>
        <time>2019-02-26T03:37:36Z</time>
      </trkpt>
      <trkpt lat="38.665129" lon="-6.362285">
        <ele>356.308</ele>
        <time>2019-02-26T03:37:59Z</time>
      </trkpt>
      <trkpt lat="38.666144" lon="-6.362324">
        <ele>356.157</ele>
        <time>2019-02-26T03:38:20Z</time>
      </trkpt>
      <trkpt lat="38.667036" lon="-6.362350">
        <ele>356.998</ele>
        <time>2019-02-26T03:38:40Z</time>
      </trkpt>
      <trkpt lat="38.667168" lon="-6.362348">
        <ele>357.039</ele>
        <time>2019-02-26T03:38:43Z</time>
      </trkpt>
      <trkpt lat="38.667799" lon="-6.362369">
        <ele>357.958</ele>
        <time>2019-02-26T03:38:59Z</time>
      </trkpt>
      <trkpt lat="38.668499" lon="-6.362398">
        <ele>358.782</ele>
        <time>2019-02-26T03:39:17Z</time>
      </trkpt>
      <trkpt lat="38.669130" lon="-6.362426">
        <ele>359.735</ele>
        <time>2019-02-26T03:39:35Z</time>
      </trkpt>
      <trkpt lat="38.669769" lon="-6.362459">
        <ele>360.444</ele>
        <time>2019-02-26T03:39:53Z</time>
      </trkpt>
      <trkpt lat="38.670454" lon="-6.362484">
        <ele>359.983</ele>
        <time>2019-02-26T03:40:11Z</time>
      </trkpt>
      <trkpt lat="38.671004" lon="-6.362514">
        <ele>360.016</ele>
        <time>2019-02-26T03:40:25Z</time>
      </trkpt>
      <trkpt lat="38.671822" lon="-6.362554">
        <ele>361.076</ele>
        <time>2019-02-26T03:40:44Z</time>
      </trkpt>
      <trkpt lat="38.672507" lon="-6.362588">
        <ele>362.013</ele>
        <time>2019-02-26T03:41:03Z</time>
      </trkpt>
      <trkpt lat="38.672930" lon="-6.362605">
        <ele>363.308</ele>
        <time>2019-02-26T03:41:19Z</time>
      </trkpt>
      <trkpt lat="38.673340" lon="-6.362611">
        <ele>364.634</ele>
        <time>2019-02-26T03:41:36Z</time>
      </trkpt>
      <trkpt lat="38.673829" lon="-6.362626">
        <ele>366.565</ele>
        <time>2019-02-26T03:41:56Z</time>
      </trkpt>
      <trkpt lat="38.674346" lon="-6.362643">
        <ele>368.536</ele>
        <time>2019-02-26T03:42:16Z</time>
      </trkpt>
      <trkpt lat="38.674890" lon="-6.362679">
        <ele>370.175</ele>
        <time>2019-02-26T03:42:35Z</time>
      </trkpt>
      <trkpt lat="38.675306" lon="-6.362680">
        <ele>370.999</ele>
        <time>2019-02-26T03:42:47Z</time>
      </trkpt>
      <trkpt lat="38.676044" lon="-6.362727">
        <ele>371.452</ele>
        <time>2019-02-26T03:43:08Z</time>
      </trkpt>
      <trkpt lat="38.676558" lon="-6.362738">
        <ele>372.521</ele>
        <time>2019-02-26T03:43:24Z</time>
      </trkpt>
      <trkpt lat="38.677167" lon="-6.362793">
        <ele>373.920</ele>
        <time>2019-02-26T03:43:43Z</time>
      </trkpt>
      <trkpt lat="38.677684" lon="-6.362812">
        <ele>375.171</ele>
        <time>2019-02-26T03:44:00Z</time>
      </trkpt>
      <trkpt lat="38.677748" lon="-6.362824">
        <ele>375.141</ele>
        <time>2019-02-26T03:44:07Z</time>
      </trkpt>
      <trkpt lat="38.677781" lon="-6.362832">
        <ele>375.115</ele>
        <time>2019-02-26T03:46:17Z</time>
      </trkpt>
      <trkpt lat="38.677803" lon="-6.362840">
        <ele>375.108</ele>
        <time>2019-02-26T03:46:18Z</time>
      </trkpt>
      <trkpt lat="38.677831" lon="-6.362843">
        <ele>375.140</ele>
        <time>2019-02-26T03:46:19Z</time>
      </trkpt>
      <trkpt lat="38.677862" lon="-6.362843">
        <ele>375.161</ele>
        <time>2019-02-26T03:46:20Z</time>
      </trkpt>
      <trkpt lat="38.678481" lon="-6.362858">
        <ele>375.162</ele>
        <time>2019-02-26T03:46:35Z</time>
      </trkpt>
      <trkpt lat="38.679467" lon="-6.362898">
        <ele>375.211</ele>
        <time>2019-02-26T03:46:56Z</time>
      </trkpt>
      <trkpt lat="38.680443" lon="-6.362921">
        <ele>375.185</ele>
        <time>2019-02-26T03:47:15Z</time>
      </trkpt>
      <trkpt lat="38.681600" lon="-6.362963">
        <ele>373.348</ele>
        <time>2019-02-26T03:47:37Z</time>
      </trkpt>
      <trkpt lat="38.682627" lon="-6.363011">
        <ele>372.447</ele>
        <time>2019-02-26T03:47:56Z</time>
      </trkpt>
      <trkpt lat="38.683639" lon="-6.363037">
        <ele>371.676</ele>
        <time>2019-02-26T03:48:14Z</time>
      </trkpt>
      <trkpt lat="38.684843" lon="-6.363066">
        <ele>370.536</ele>
        <time>2019-02-26T03:48:32Z</time>
      </trkpt>
      <trkpt lat="38.686066" lon="-6.363111">
        <ele>370.617</ele>
        <time>2019-02-26T03:48:52Z</time>
      </trkpt>
      <trkpt lat="38.687150" lon="-6.363130">
        <ele>371.618</ele>
        <time>2019-02-26T03:49:14Z</time>
      </trkpt>
      <trkpt lat="38.687788" lon="-6.363141">
        <ele>372.508</ele>
        <time>2019-02-26T03:49:31Z</time>
      </trkpt>
      <trkpt lat="38.688470" lon="-6.363172">
        <ele>373.476</ele>
        <time>2019-02-26T03:49:50Z</time>
      </trkpt>
      <trkpt lat="38.689188" lon="-6.363253">
        <ele>372.257</ele>
        <time>2019-02-26T03:50:09Z</time>
      </trkpt>
      <trkpt lat="38.689230" lon="-6.363260">
        <ele>372.158</ele>
        <time>2019-02-26T03:50:10Z</time>
      </trkpt>
      <trkpt lat="38.689310" lon="-6.363275">
        <ele>371.987</ele>
        <time>2019-02-26T03:50:12Z</time>
      </trkpt>
      <trkpt lat="38.689434" lon="-6.363276">
        <ele>371.741</ele>
        <time>2019-02-26T03:50:15Z</time>
      </trkpt>
      <trkpt lat="38.690229" lon="-6.363316">
        <ele>370.634</ele>
        <time>2019-02-26T03:50:31Z</time>
      </trkpt>
      <trkpt lat="38.691052" lon="-6.363346">
        <ele>369.093</ele>
        <time>2019-02-26T03:50:44Z</time>
      </trkpt>
      <trkpt lat="38.692095" lon="-6.363385">
        <ele>367.542</ele>
        <time>2019-02-26T03:51:00Z</time>
      </trkpt>
      <trkpt lat="38.693232" lon="-6.363433">
        <ele>365.794</ele>
        <time>2019-02-26T03:51:18Z</time>
      </trkpt>
      <trkpt lat="38.694525" lon="-6.363482">
        <ele>363.857</ele>
        <time>2019-02-26T03:51:39Z</time>
      </trkpt>
      <trkpt lat="38.695311" lon="-6.363502">
        <ele>363.922</ele>
        <time>2019-02-26T03:51:54Z</time>
      </trkpt>
      <trkpt lat="38.696413" lon="-6.363547">
        <ele>363.908</ele>
        <time>2019-02-26T03:52:15Z</time>
      </trkpt>
      <trkpt lat="38.697270" lon="-6.363567">
        <ele>362.922</ele>
        <time>2019-02-26T03:52:31Z</time>
      </trkpt>
      <trkpt lat="38.698137" lon="-6.363595">
        <ele>362.983</ele>
        <time>2019-02-26T03:52:47Z</time>
      </trkpt>
      <trkpt lat="38.699161" lon="-6.363639">
        <ele>362.434</ele>
        <time>2019-02-26T03:53:06Z</time>
      </trkpt>
      <trkpt lat="38.700372" lon="-6.363680">
        <ele>362.023</ele>
        <time>2019-02-26T03:53:28Z</time>
      </trkpt>
      <trkpt lat="38.700991" lon="-6.363735">
        <ele>360.977</ele>
        <time>2019-02-26T03:53:41Z</time>
      </trkpt>
      <trkpt lat="38.701032" lon="-6.363731">
        <ele>361.070</ele>
        <time>2019-02-26T03:53:42Z</time>
      </trkpt>
      <trkpt lat="38.701164" lon="-6.363713">
        <ele>361.199</ele>
        <time>2019-02-26T03:53:45Z</time>
      </trkpt>
      <trkpt lat="38.702137" lon="-6.363740">
        <ele>361.528</ele>
        <time>2019-02-26T03:54:06Z</time>
      </trkpt>
      <trkpt lat="38.703107" lon="-6.363777">
        <ele>361.114</ele>
        <time>2019-02-26T03:54:25Z</time>
      </trkpt>
      <trkpt lat="38.704322" lon="-6.363832">
        <ele>360.054</ele>
        <time>2019-02-26T03:54:46Z</time>
      </trkpt>
      <trkpt lat="38.705524" lon="-6.363880">
        <ele>359.509</ele>
        <time>2019-02-26T03:55:07Z</time>
      </trkpt>
      <trkpt lat="38.706615" lon="-6.363915">
        <ele>358.708</ele>
        <time>2019-02-26T03:55:26Z</time>
      </trkpt>
      <trkpt lat="38.707738" lon="-6.363957">
        <ele>357.634</ele>
        <time>2019-02-26T03:55:46Z</time>
      </trkpt>
      <trkpt lat="38.708816" lon="-6.363998">
        <ele>355.725</ele>
        <time>2019-02-26T03:56:05Z</time>
      </trkpt>
      <trkpt lat="38.709634" lon="-6.364032">
        <ele>354.376</ele>
        <time>2019-02-26T03:56:20Z</time>
      </trkpt>
      <trkpt lat="38.710677" lon="-6.364073">
        <ele>353.045</ele>
        <time>2019-02-26T03:56:39Z</time>
      </trkpt>
      <trkpt lat="38.711822" lon="-6.364117">
        <ele>351.199</ele>
        <time>2019-02-26T03:56:59Z</time>
      </trkpt>
      <trkpt lat="38.712754" lon="-6.364139">
        <ele>351.382</ele>
        <time>2019-02-26T03:57:16Z</time>
      </trkpt>
      <trkpt lat="38.713670" lon="-6.364165">
        <ele>351.571</ele>
        <time>2019-02-26T03:57:35Z</time>
      </trkpt>
      <trkpt lat="38.714709" lon="-6.364196">
        <ele>350.730</ele>
        <time>2019-02-26T03:57:56Z</time>
      </trkpt>
      <trkpt lat="38.714760" lon="-6.364197">
        <ele>350.719</ele>
        <time>2019-02-26T03:57:57Z</time>
      </trkpt>
      <trkpt lat="38.715516" lon="-6.364211">
        <ele>349.609</ele>
        <time>2019-02-26T03:58:12Z</time>
      </trkpt>
      <trkpt lat="38.716364" lon="-6.364238">
        <ele>348.519</ele>
        <time>2019-02-26T03:58:27Z</time>
      </trkpt>
      <trkpt lat="38.717262" lon="-6.364281">
        <ele>346.408</ele>
        <time>2019-02-26T03:58:43Z</time>
      </trkpt>
      <trkpt lat="38.718248" lon="-6.364312">
        <ele>344.114</ele>
        <time>2019-02-26T03:59:01Z</time>
      </trkpt>
      <trkpt lat="38.718978" lon="-6.364318">
        <ele>344.015</ele>
        <time>2019-02-26T03:59:15Z</time>
      </trkpt>
      <trkpt lat="38.720081" lon="-6.364344">
        <ele>342.436</ele>
        <time>2019-02-26T03:59:34Z</time>
      </trkpt>
      <trkpt lat="38.721058" lon="-6.364373">
        <ele>341.965</ele>
        <time>2019-02-26T03:59:50Z</time>
      </trkpt>
      <trkpt lat="38.722217" lon="-6.364414">
        <ele>339.059</ele>
        <time>2019-02-26T04:00:08Z</time>
      </trkpt>
      <trkpt lat="38.723200" lon="-6.364445">
        <ele>338.272</ele>
        <time>2019-02-26T04:00:28Z</time>
      </trkpt>
      <trkpt lat="38.723873" lon="-6.364479">
        <ele>338.251</ele>
        <time>2019-02-26T04:00:44Z</time>
      </trkpt>
      <trkpt lat="38.724100" lon="-6.364502">
        <ele>338.210</ele>
        <time>2019-02-26T04:00:49Z</time>
      </trkpt>
      <trkpt lat="38.724149" lon="-6.364501">
        <ele>338.258</ele>
        <time>2019-02-26T04:00:50Z</time>
      </trkpt>
      <trkpt lat="38.724307" lon="-6.364498">
        <ele>338.252</ele>
        <time>2019-02-26T04:00:53Z</time>
      </trkpt>
      <trkpt lat="38.724579" lon="-6.364557">
        <ele>338.117</ele>
        <time>2019-02-26T04:00:58Z</time>
      </trkpt>
      <trkpt lat="38.724633" lon="-6.364560">
        <ele>338.108</ele>
        <time>2019-02-26T04:00:59Z</time>
      </trkpt>
      <trkpt lat="38.724687" lon="-6.364563">
        <ele>338.178</ele>
        <time>2019-02-26T04:01:00Z</time>
      </trkpt>
      <trkpt lat="38.725720" lon="-6.364619">
        <ele>335.369</ele>
        <time>2019-02-26T04:01:16Z</time>
      </trkpt>
      <trkpt lat="38.726248" lon="-6.364652">
        <ele>334.410</ele>
        <time>2019-02-26T04:01:24Z</time>
      </trkpt>
      <trkpt lat="38.727161" lon="-6.364710">
        <ele>333.379</ele>
        <time>2019-02-26T04:01:40Z</time>
      </trkpt>
      <trkpt lat="38.728358" lon="-6.364773">
        <ele>332.233</ele>
        <time>2019-02-26T04:02:01Z</time>
      </trkpt>
      <trkpt lat="38.729609" lon="-6.364795">
        <ele>330.616</ele>
        <time>2019-02-26T04:02:21Z</time>
      </trkpt>
      <trkpt lat="38.730477" lon="-6.364846">
        <ele>329.485</ele>
        <time>2019-02-26T04:02:35Z</time>
      </trkpt>
      <trkpt lat="38.730750" lon="-6.364850">
        <ele>329.424</ele>
        <time>2019-02-26T04:02:40Z</time>
      </trkpt>
      <trkpt lat="38.730860" lon="-6.364844">
        <ele>329.465</ele>
        <time>2019-02-26T04:02:42Z</time>
      </trkpt>
      <trkpt lat="38.731638" lon="-6.364873">
        <ele>328.468</ele>
        <time>2019-02-26T04:02:59Z</time>
      </trkpt>
      <trkpt lat="38.732611" lon="-6.364910">
        <ele>327.514</ele>
        <time>2019-02-26T04:03:17Z</time>
      </trkpt>
      <trkpt lat="38.733510" lon="-6.364950">
        <ele>326.508</ele>
        <time>2019-02-26T04:03:33Z</time>
      </trkpt>
      <trkpt lat="38.733936" lon="-6.364969">
        <ele>326.219</ele>
        <time>2019-02-26T04:03:41Z</time>
      </trkpt>
      <trkpt lat="38.734028" lon="-6.364983">
        <ele>326.090</ele>
        <time>2019-02-26T04:03:43Z</time>
      </trkpt>
      <trkpt lat="38.734074" lon="-6.364982">
        <ele>325.971</ele>
        <time>2019-02-26T04:03:44Z</time>
      </trkpt>
      <trkpt lat="38.735005" lon="-6.365014">
        <ele>324.740</ele>
        <time>2019-02-26T04:04:02Z</time>
      </trkpt>
      <trkpt lat="38.735912" lon="-6.365047">
        <ele>324.234</ele>
        <time>2019-02-26T04:04:20Z</time>
      </trkpt>
      <trkpt lat="38.735994" lon="-6.365050">
        <ele>324.087</ele>
        <time>2019-02-26T04:04:22Z</time>
      </trkpt>
      <trkpt lat="38.736073" lon="-6.365060">
        <ele>323.876</ele>
        <time>2019-02-26T04:04:24Z</time>
      </trkpt>
      <trkpt lat="38.736928" lon="-6.365084">
        <ele>323.825</ele>
        <time>2019-02-26T04:04:43Z</time>
      </trkpt>
      <trkpt lat="38.737550" lon="-6.365115">
        <ele>324.683</ele>
        <time>2019-02-26T04:05:00Z</time>
      </trkpt>
      <trkpt lat="38.738239" lon="-6.365144">
        <ele>324.925</ele>
        <time>2019-02-26T04:05:19Z</time>
      </trkpt>
      <trkpt lat="38.739084" lon="-6.365179">
        <ele>325.817</ele>
        <time>2019-02-26T04:05:41Z</time>
      </trkpt>
      <trkpt lat="38.739848" lon="-6.365201">
        <ele>326.108</ele>
        <time>2019-02-26T04:06:02Z</time>
      </trkpt>
      <trkpt lat="38.740384" lon="-6.365229">
        <ele>326.151</ele>
        <time>2019-02-26T04:06:17Z</time>
      </trkpt>
      <trkpt lat="38.741219" lon="-6.365269">
        <ele>326.122</ele>
        <time>2019-02-26T04:06:37Z</time>
      </trkpt>
      <trkpt lat="38.742036" lon="-6.365295">
        <ele>325.523</ele>
        <time>2019-02-26T04:06:56Z</time>
      </trkpt>
      <trkpt lat="38.743016" lon="-6.365327">
        <ele>325.142</ele>
        <time>2019-02-26T04:07:18Z</time>
      </trkpt>
      <trkpt lat="38.743906" lon="-6.365367">
        <ele>325.286</ele>
        <time>2019-02-26T04:07:39Z</time>
      </trkpt>
      <trkpt lat="38.744871" lon="-6.365396">
        <ele>325.569</ele>
        <time>2019-02-26T04:07:59Z</time>
      </trkpt>
      <trkpt lat="38.745798" lon="-6.365435">
        <ele>325.228</ele>
        <time>2019-02-26T04:08:19Z</time>
      </trkpt>
      <trkpt lat="38.746396" lon="-6.365482">
        <ele>325.157</ele>
        <time>2019-02-26T04:08:32Z</time>
      </trkpt>
      <trkpt lat="38.746442" lon="-6.365483">
        <ele>325.143</ele>
        <time>2019-02-26T04:08:33Z</time>
      </trkpt>
      <trkpt lat="38.746881" lon="-6.365477">
        <ele>325.164</ele>
        <time>2019-02-26T04:08:45Z</time>
      </trkpt>
      <trkpt lat="38.747541" lon="-6.365501">
        <ele>324.910</ele>
        <time>2019-02-26T04:09:00Z</time>
      </trkpt>
      <trkpt lat="38.748626" lon="-6.365549">
        <ele>324.208</ele>
        <time>2019-02-26T04:09:22Z</time>
      </trkpt>
      <trkpt lat="38.749871" lon="-6.365608">
        <ele>322.927</ele>
        <time>2019-02-26T04:09:46Z</time>
      </trkpt>
      <trkpt lat="38.750804" lon="-6.365655">
        <ele>322.798</ele>
        <time>2019-02-26T04:10:06Z</time>
      </trkpt>
      <trkpt lat="38.751586" lon="-6.365702">
        <ele>323.019</ele>
        <time>2019-02-26T04:10:25Z</time>
      </trkpt>
      <trkpt lat="38.752346" lon="-6.365744">
        <ele>323.158</ele>
        <time>2019-02-26T04:10:43Z</time>
      </trkpt>
      <trkpt lat="38.753003" lon="-6.365783">
        <ele>323.142</ele>
        <time>2019-02-26T04:10:59Z</time>
      </trkpt>
      <trkpt lat="38.753088" lon="-6.365787">
        <ele>323.135</ele>
        <time>2019-02-26T04:11:01Z</time>
      </trkpt>
      <trkpt lat="38.753170" lon="-6.365797">
        <ele>323.174</ele>
        <time>2019-02-26T04:11:03Z</time>
      </trkpt>
      <trkpt lat="38.754009" lon="-6.365831">
        <ele>322.943</ele>
        <time>2019-02-26T04:11:22Z</time>
      </trkpt>
      <trkpt lat="38.754713" lon="-6.365853">
        <ele>322.991</ele>
        <time>2019-02-26T04:11:39Z</time>
      </trkpt>
      <trkpt lat="38.755431" lon="-6.365885">
        <ele>323.181</ele>
        <time>2019-02-26T04:11:57Z</time>
      </trkpt>
      <trkpt lat="38.756222" lon="-6.365944">
        <ele>323.319</ele>
        <time>2019-02-26T04:12:18Z</time>
      </trkpt>
      <trkpt lat="38.756763" lon="-6.366161">
        <ele>323.008</ele>
        <time>2019-02-26T04:12:31Z</time>
      </trkpt>
      <trkpt lat="38.757017" lon="-6.366315">
        <ele>322.382</ele>
        <time>2019-02-26T04:12:36Z</time>
      </trkpt>
      <trkpt lat="38.757068" lon="-6.366351">
        <ele>322.133</ele>
        <time>2019-02-26T04:12:37Z</time>
      </trkpt>
      <trkpt lat="38.757291" lon="-6.366471">
        <ele>321.554</ele>
        <time>2019-02-26T04:12:41Z</time>
      </trkpt>
      <trkpt lat="38.758166" lon="-6.366949">
        <ele>318.193</ele>
        <time>2019-02-26T04:12:57Z</time>
      </trkpt>
      <trkpt lat="38.758978" lon="-6.367385">
        <ele>316.797</ele>
        <time>2019-02-26T04:13:14Z</time>
      </trkpt>
      <trkpt lat="38.759987" lon="-6.367942">
        <ele>315.170</ele>
        <time>2019-02-26T04:13:33Z</time>
      </trkpt>
      <trkpt lat="38.761077" lon="-6.368539">
        <ele>314.779</ele>
        <time>2019-02-26T04:13:55Z</time>
      </trkpt>
      <trkpt lat="38.761655" lon="-6.368858">
        <ele>314.328</ele>
        <time>2019-02-26T04:14:06Z</time>
      </trkpt>
      <trkpt lat="38.761712" lon="-6.368882">
        <ele>314.219</ele>
        <time>2019-02-26T04:14:07Z</time>
      </trkpt>
      <trkpt lat="38.761766" lon="-6.368910">
        <ele>314.209</ele>
        <time>2019-02-26T04:14:08Z</time>
      </trkpt>
      <trkpt lat="38.762813" lon="-6.369474">
        <ele>312.919</ele>
        <time>2019-02-26T04:14:27Z</time>
      </trkpt>
      <trkpt lat="38.763831" lon="-6.370061">
        <ele>310.808</ele>
        <time>2019-02-26T04:14:46Z</time>
      </trkpt>
      <trkpt lat="38.763935" lon="-6.370120">
        <ele>310.514</ele>
        <time>2019-02-26T04:14:48Z</time>
      </trkpt>
      <trkpt lat="38.763987" lon="-6.370145">
        <ele>310.445</ele>
        <time>2019-02-26T04:14:49Z</time>
      </trkpt>
      <trkpt lat="38.764038" lon="-6.370174">
        <ele>310.366</ele>
        <time>2019-02-26T04:14:50Z</time>
      </trkpt>
      <trkpt lat="38.764088" lon="-6.370202">
        <ele>310.165</ele>
        <time>2019-02-26T04:14:51Z</time>
      </trkpt>
      <trkpt lat="38.764140" lon="-6.370228">
        <ele>310.029</ele>
        <time>2019-02-26T04:14:52Z</time>
      </trkpt>
      <trkpt lat="38.765161" lon="-6.370712">
        <ele>308.942</ele>
        <time>2019-02-26T04:15:11Z</time>
      </trkpt>
      <trkpt lat="38.765321" lon="-6.370745">
        <ele>308.891</ele>
        <time>2019-02-26T04:15:14Z</time>
      </trkpt>
      <trkpt lat="38.765373" lon="-6.370746">
        <ele>308.780</ele>
        <time>2019-02-26T04:15:15Z</time>
      </trkpt>
      <trkpt lat="38.765422" lon="-6.370738">
        <ele>308.725</ele>
        <time>2019-02-26T04:15:16Z</time>
      </trkpt>
      <trkpt lat="38.765590" lon="-6.370710">
        <ele>308.626</ele>
        <time>2019-02-26T04:15:21Z</time>
      </trkpt>
      <trkpt lat="38.765609" lon="-6.370730">
        <ele>308.608</ele>
        <time>2019-02-26T04:15:22Z</time>
      </trkpt>
      <trkpt lat="38.765979" lon="-6.371033">
        <ele>308.808</ele>
        <time>2019-02-26T04:15:35Z</time>
      </trkpt>
      <trkpt lat="38.766315" lon="-6.371301">
        <ele>309.475</ele>
        <time>2019-02-26T04:15:49Z</time>
      </trkpt>
      <trkpt lat="38.766771" lon="-6.371632">
        <ele>311.426</ele>
        <time>2019-02-26T04:16:09Z</time>
      </trkpt>
      <trkpt lat="38.767243" lon="-6.371945">
        <ele>313.137</ele>
        <time>2019-02-26T04:16:27Z</time>
      </trkpt>
      <trkpt lat="38.767700" lon="-6.372221">
        <ele>313.526</ele>
        <time>2019-02-26T04:16:41Z</time>
      </trkpt>
      <trkpt lat="38.768284" lon="-6.372554">
        <ele>314.580</ele>
        <time>2019-02-26T04:17:02Z</time>
      </trkpt>
      <trkpt lat="38.768865" lon="-6.372661">
        <ele>316.143</ele>
        <time>2019-02-26T04:17:21Z</time>
      </trkpt>
      <trkpt lat="38.769463" lon="-6.372801">
        <ele>317.072</ele>
        <time>2019-02-26T04:17:38Z</time>
      </trkpt>
      <trkpt lat="38.770167" lon="-6.372875">
        <ele>315.421</ele>
        <time>2019-02-26T04:17:51Z</time>
      </trkpt>
      <trkpt lat="38.770862" lon="-6.372877">
        <ele>313.042</ele>
        <time>2019-02-26T04:18:03Z</time>
      </trkpt>
      <trkpt lat="38.771800" lon="-6.373143">
        <ele>310.522</ele>
        <time>2019-02-26T04:18:17Z</time>
      </trkpt>
      <trkpt lat="38.772639" lon="-6.373367">
        <ele>309.514</ele>
        <time>2019-02-26T04:18:32Z</time>
      </trkpt>
      <trkpt lat="38.773803" lon="-6.373492">
        <ele>309.008</ele>
        <time>2019-02-26T04:18:51Z</time>
      </trkpt>
      <trkpt lat="38.774800" lon="-6.373592">
        <ele>307.117</ele>
        <time>2019-02-26T04:19:06Z</time>
      </trkpt>
      <trkpt lat="38.775845" lon="-6.373711">
        <ele>305.388</ele>
        <time>2019-02-26T04:19:22Z</time>
      </trkpt>
      <trkpt lat="38.776933" lon="-6.373787">
        <ele>303.479</ele>
        <time>2019-02-26T04:19:40Z</time>
      </trkpt>
      <trkpt lat="38.777865" lon="-6.373504">
        <ele>302.168</ele>
        <time>2019-02-26T04:19:55Z</time>
      </trkpt>
      <trkpt lat="38.778753" lon="-6.373185">
        <ele>300.322</ele>
        <time>2019-02-26T04:20:12Z</time>
      </trkpt>
      <trkpt lat="38.779220" lon="-6.373072">
        <ele>299.795</ele>
        <time>2019-02-26T04:20:24Z</time>
      </trkpt>
      <trkpt lat="38.779217" lon="-6.373073">
        <ele>299.734</ele>
        <time>2019-02-26T04:20:26Z</time>
      </trkpt>
      <trkpt lat="38.779214" lon="-6.373143">
        <ele>299.613</ele>
        <time>2019-02-26T04:20:32Z</time>
      </trkpt>
      <trkpt lat="38.779210" lon="-6.373164">
        <ele>299.689</ele>
        <time>2019-02-26T04:20:33Z</time>
      </trkpt>
      <trkpt lat="38.779207" lon="-6.373188">
        <ele>299.606</ele>
        <time>2019-02-26T04:20:34Z</time>
      </trkpt>
      <trkpt lat="38.779218" lon="-6.373237">
        <ele>299.626</ele>
        <time>2019-02-26T04:20:36Z</time>
      </trkpt>
      <trkpt lat="38.779228" lon="-6.373255">
        <ele>299.608</ele>
        <time>2019-02-26T04:20:37Z</time>
      </trkpt>
      <trkpt lat="38.779238" lon="-6.373267">
        <ele>299.761</ele>
        <time>2019-02-26T04:20:38Z</time>
      </trkpt>
      <trkpt lat="38.779226" lon="-6.373289">
        <ele>299.742</ele>
        <time>2019-02-26T04:20:41Z</time>
      </trkpt>
      <trkpt lat="38.779219" lon="-6.373254">
        <ele>299.763</ele>
        <time>2019-02-26T04:20:44Z</time>
      </trkpt>
      <trkpt lat="38.779199" lon="-6.373087">
        <ele>299.952</ele>
        <time>2019-02-26T04:20:51Z</time>
      </trkpt>
      <trkpt lat="38.779210" lon="-6.373072">
        <ele>299.986</ele>
        <time>2019-02-26T04:20:52Z</time>
      </trkpt>
      <trkpt lat="38.779229" lon="-6.373062">
        <ele>300.089</ele>
        <time>2019-02-26T04:20:53Z</time>
      </trkpt>
      <trkpt lat="38.779618" lon="-6.372925">
        <ele>301.518</ele>
        <time>2019-02-26T04:21:10Z</time>
      </trkpt>
      <trkpt lat="38.780099" lon="-6.372768">
        <ele>302.337</ele>
        <time>2019-02-26T04:21:28Z</time>
      </trkpt>
      <trkpt lat="38.780718" lon="-6.372578">
        <ele>302.489</ele>
        <time>2019-02-26T04:21:46Z</time>
      </trkpt>
      <trkpt lat="38.781523" lon="-6.372323">
        <ele>302.606</ele>
        <time>2019-02-26T04:22:08Z</time>
      </trkpt>
      <trkpt lat="38.782029" lon="-6.372168">
        <ele>304.826</ele>
        <time>2019-02-26T04:22:26Z</time>
      </trkpt>
      <trkpt lat="38.782531" lon="-6.372013">
        <ele>306.408</ele>
        <time>2019-02-26T04:22:45Z</time>
      </trkpt>
      <trkpt lat="38.783005" lon="-6.371850">
        <ele>307.771</ele>
        <time>2019-02-26T04:23:03Z</time>
      </trkpt>
      <trkpt lat="38.783587" lon="-6.371621">
        <ele>308.672</ele>
        <time>2019-02-26T04:23:22Z</time>
      </trkpt>
      <trkpt lat="38.783602" lon="-6.371209">
        <ele>309.753</ele>
        <time>2019-02-26T04:23:34Z</time>
      </trkpt>
      <trkpt lat="38.783481" lon="-6.370649">
        <ele>310.072</ele>
        <time>2019-02-26T04:23:50Z</time>
      </trkpt>
      <trkpt lat="38.783504" lon="-6.370534">
        <ele>310.036</ele>
        <time>2019-02-26T04:23:55Z</time>
      </trkpt>
      <trkpt lat="38.783524" lon="-6.370521">
        <ele>310.019</ele>
        <time>2019-02-26T04:23:56Z</time>
      </trkpt>
      <trkpt lat="38.783545" lon="-6.370518">
        <ele>310.048</ele>
        <time>2019-02-26T04:23:57Z</time>
      </trkpt>
      <trkpt lat="38.783565" lon="-6.370524">
        <ele>310.127</ele>
        <time>2019-02-26T04:23:58Z</time>
      </trkpt>
      <trkpt lat="38.783584" lon="-6.370542">
        <ele>310.136</ele>
        <time>2019-02-26T04:23:59Z</time>
      </trkpt>
      <trkpt lat="38.783604" lon="-6.370565">
        <ele>310.117</ele>
        <time>2019-02-26T04:24:00Z</time>
      </trkpt>
      <trkpt lat="38.783986" lon="-6.370952">
        <ele>310.418</ele>
        <time>2019-02-26T04:24:17Z</time>
      </trkpt>
      <trkpt lat="38.784324" lon="-6.371350">
        <ele>310.108</ele>
        <time>2019-02-26T04:24:35Z</time>
      </trkpt>
      <trkpt lat="38.784633" lon="-6.371617">
        <ele>310.366</ele>
        <time>2019-02-26T04:24:49Z</time>
      </trkpt>
      <trkpt lat="38.785009" lon="-6.371980">
        <ele>309.557</ele>
        <time>2019-02-26T04:25:00Z</time>
      </trkpt>
      <trkpt lat="38.785631" lon="-6.372535">
        <ele>308.368</ele>
        <time>2019-02-26T04:25:14Z</time>
      </trkpt>
      <trkpt lat="38.786383" lon="-6.373126">
        <ele>307.397</ele>
        <time>2019-02-26T04:25:29Z</time>
      </trkpt>
      <trkpt lat="38.787035" lon="-6.373733">
        <ele>306.331</ele>
        <time>2019-02-26T04:25:43Z</time>
      </trkpt>
      <trkpt lat="38.787086" lon="-6.373763">
        <ele>306.384</ele>
        <time>2019-02-26T04:25:44Z</time>
      </trkpt>
      <trkpt lat="38.787426" lon="-6.373898">
        <ele>306.023</ele>
        <time>2019-02-26T04:25:51Z</time>
      </trkpt>
      <trkpt lat="38.787467" lon="-6.373924">
        <ele>306.072</ele>
        <time>2019-02-26T04:25:52Z</time>
      </trkpt>
      <trkpt lat="38.787505" lon="-6.373956">
        <ele>305.954</ele>
        <time>2019-02-26T04:25:53Z</time>
      </trkpt>
      <trkpt lat="38.787534" lon="-6.374000">
        <ele>305.956</ele>
        <time>2019-02-26T04:25:54Z</time>
      </trkpt>
      <trkpt lat="38.787553" lon="-6.374051">
        <ele>305.811</ele>
        <time>2019-02-26T04:25:55Z</time>
      </trkpt>
      <trkpt lat="38.787566" lon="-6.374106">
        <ele>305.808</ele>
        <time>2019-02-26T04:25:56Z</time>
      </trkpt>
      <trkpt lat="38.787691" lon="-6.374792">
        <ele>305.938</ele>
        <time>2019-02-26T04:26:09Z</time>
      </trkpt>
      <trkpt lat="38.787723" lon="-6.374803">
        <ele>305.929</ele>
        <time>2019-02-26T04:26:10Z</time>
      </trkpt>
      <trkpt lat="38.787756" lon="-6.374801">
        <ele>306.090</ele>
        <time>2019-02-26T04:26:11Z</time>
      </trkpt>
      <trkpt lat="38.787785" lon="-6.374800">
        <ele>306.199</ele>
        <time>2019-02-26T04:26:12Z</time>
      </trkpt>
      <trkpt lat="38.787814" lon="-6.374803">
        <ele>306.163</ele>
        <time>2019-02-26T04:26:13Z</time>
      </trkpt>
      <trkpt lat="38.788171" lon="-6.374825">
        <ele>306.976</ele>
        <time>2019-02-26T04:26:27Z</time>
      </trkpt>
      <trkpt lat="38.788407" lon="-6.374864">
        <ele>307.075</ele>
        <time>2019-02-26T04:26:40Z</time>
      </trkpt>
      <trkpt lat="38.788408" lon="-6.374867">
        <ele>307.054</ele>
        <time>2019-02-26T04:26:42Z</time>
      </trkpt>
      <trkpt lat="38.788484" lon="-6.374864">
        <ele>307.194</ele>
        <time>2019-02-26T04:27:02Z</time>
      </trkpt>
      <trkpt lat="38.788819" lon="-6.374859">
        <ele>307.557</ele>
        <time>2019-02-26T04:27:13Z</time>
      </trkpt>
      <trkpt lat="38.789294" lon="-6.374920">
        <ele>307.722</ele>
        <time>2019-02-26T04:27:29Z</time>
      </trkpt>
      <trkpt lat="38.789316" lon="-6.374927">
        <ele>307.708</ele>
        <time>2019-02-26T04:27:30Z</time>
      </trkpt>
      <trkpt lat="38.789334" lon="-6.374946">
        <ele>307.732</ele>
        <time>2019-02-26T04:27:31Z</time>
      </trkpt>
      <trkpt lat="38.789346" lon="-6.374976">
        <ele>307.793</ele>
        <time>2019-02-26T04:27:32Z</time>
      </trkpt>
      <trkpt lat="38.789387" lon="-6.375251">
        <ele>307.294</ele>
        <time>2019-02-26T04:27:38Z</time>
      </trkpt>
      <trkpt lat="38.789416" lon="-6.375309">
        <ele>307.113</ele>
        <time>2019-02-26T04:27:40Z</time>
      </trkpt>
      <trkpt lat="38.789470" lon="-6.375555">
        <ele>306.837</ele>
        <time>2019-02-26T04:27:53Z</time>
      </trkpt>
      <trkpt lat="38.789476" lon="-6.375555">
        <ele>306.890</ele>
        <time>2019-02-26T04:27:55Z</time>
      </trkpt>
      <trkpt lat="38.789449" lon="-6.375502">
        <ele>306.899</ele>
        <time>2019-02-26T04:45:07Z</time>
      </trkpt>
      <trkpt lat="38.789416" lon="-6.375323">
        <ele>307.168</ele>
        <time>2019-02-26T04:45:13Z</time>
      </trkpt>
      <trkpt lat="38.789407" lon="-6.375224">
        <ele>307.191</ele>
        <time>2019-02-26T04:45:16Z</time>
      </trkpt>
      <trkpt lat="38.789370" lon="-6.374939">
        <ele>307.781</ele>
        <time>2019-02-26T04:45:26Z</time>
      </trkpt>
      <trkpt lat="38.789381" lon="-6.374917">
        <ele>307.719</ele>
        <time>2019-02-26T04:45:27Z</time>
      </trkpt>
      <trkpt lat="38.789397" lon="-6.374899">
        <ele>307.808</ele>
        <time>2019-02-26T04:45:28Z</time>
      </trkpt>
      <trkpt lat="38.789419" lon="-6.374888">
        <ele>307.922</ele>
        <time>2019-02-26T04:45:29Z</time>
      </trkpt>
      <trkpt lat="38.789445" lon="-6.374885">
        <ele>307.913</ele>
        <time>2019-02-26T04:45:30Z</time>
      </trkpt>
      <trkpt lat="38.789474" lon="-6.374888">
        <ele>308.094</ele>
        <time>2019-02-26T04:45:31Z</time>
      </trkpt>
      <trkpt lat="38.789513" lon="-6.374893">
        <ele>308.043</ele>
        <time>2019-02-26T04:45:32Z</time>
      </trkpt>
      <trkpt lat="38.789554" lon="-6.374895">
        <ele>308.067</ele>
        <time>2019-02-26T04:45:33Z</time>
      </trkpt>
      <trkpt lat="38.789734" lon="-6.374932">
        <ele>307.930</ele>
        <time>2019-02-26T04:45:37Z</time>
      </trkpt>
      <trkpt lat="38.790252" lon="-6.375024">
        <ele>306.159</ele>
        <time>2019-02-26T04:45:45Z</time>
      </trkpt>
      <trkpt lat="38.790598" lon="-6.375036">
        <ele>305.558</ele>
        <time>2019-02-26T04:45:50Z</time>
      </trkpt>
      <trkpt lat="38.790670" lon="-6.375033">
        <ele>305.532</ele>
        <time>2019-02-26T04:45:51Z</time>
      </trkpt>
      <trkpt lat="38.790749" lon="-6.375031">
        <ele>305.392</ele>
        <time>2019-02-26T04:45:52Z</time>
      </trkpt>
      <trkpt lat="38.791464" lon="-6.375091">
        <ele>303.111</ele>
        <time>2019-02-26T04:46:03Z</time>
      </trkpt>
      <trkpt lat="38.791510" lon="-6.375090">
        <ele>302.708</ele>
        <time>2019-02-26T04:46:04Z</time>
      </trkpt>
      <trkpt lat="38.791667" lon="-6.375089">
        <ele>302.146</ele>
        <time>2019-02-26T04:46:13Z</time>
      </trkpt>
      <trkpt lat="38.791741" lon="-6.375129">
        <ele>301.957</ele>
        <time>2019-02-26T04:46:27Z</time>
      </trkpt>
      <trkpt lat="38.791890" lon="-6.375148">
        <ele>301.698</ele>
        <time>2019-02-26T04:46:31Z</time>
      </trkpt>
      <trkpt lat="38.792201" lon="-6.375154">
        <ele>301.397</ele>
        <time>2019-02-26T04:46:38Z</time>
      </trkpt>
      <trkpt lat="38.792242" lon="-6.375157">
        <ele>301.321</ele>
        <time>2019-02-26T04:46:39Z</time>
      </trkpt>
      <trkpt lat="38.792709" lon="-6.375284">
        <ele>301.834</ele>
        <time>2019-02-26T04:46:52Z</time>
      </trkpt>
      <trkpt lat="38.793144" lon="-6.375341">
        <ele>302.633</ele>
        <time>2019-02-26T04:47:04Z</time>
      </trkpt>
      <trkpt lat="38.793612" lon="-6.375395">
        <ele>303.992</ele>
        <time>2019-02-26T04:47:19Z</time>
      </trkpt>
      <trkpt lat="38.794094" lon="-6.375469">
        <ele>304.529</ele>
        <time>2019-02-26T04:47:34Z</time>
      </trkpt>
      <trkpt lat="38.794647" lon="-6.375537">
        <ele>304.200</ele>
        <time>2019-02-26T04:47:49Z</time>
      </trkpt>
      <trkpt lat="38.794891" lon="-6.375501">
        <ele>304.120</ele>
        <time>2019-02-26T04:47:54Z</time>
      </trkpt>
      <trkpt lat="38.794937" lon="-6.375479">
        <ele>304.008</ele>
        <time>2019-02-26T04:47:55Z</time>
      </trkpt>
      <trkpt lat="38.794981" lon="-6.375451">
        <ele>303.965</ele>
        <time>2019-02-26T04:47:56Z</time>
      </trkpt>
      <trkpt lat="38.795098" lon="-6.375349">
        <ele>303.596</ele>
        <time>2019-02-26T04:47:59Z</time>
      </trkpt>
      <trkpt lat="38.795171" lon="-6.375276">
        <ele>303.327</ele>
        <time>2019-02-26T04:48:01Z</time>
      </trkpt>
      <trkpt lat="38.795319" lon="-6.375179">
        <ele>303.076</ele>
        <time>2019-02-26T04:48:10Z</time>
      </trkpt>
      <trkpt lat="38.795308" lon="-6.375183">
        <ele>303.040</ele>
        <time>2019-02-26T04:48:11Z</time>
      </trkpt>
      <trkpt lat="38.795298" lon="-6.375189">
        <ele>303.043</ele>
        <time>2019-02-26T04:48:12Z</time>
      </trkpt>
      <trkpt lat="38.795283" lon="-6.375199">
        <ele>303.082</ele>
        <time>2019-02-26T04:48:13Z</time>
      </trkpt>
      <trkpt lat="38.795267" lon="-6.375210">
        <ele>303.011</ele>
        <time>2019-02-26T04:48:14Z</time>
      </trkpt>
      <trkpt lat="38.795248" lon="-6.375219">
        <ele>303.189</ele>
        <time>2019-02-26T04:48:15Z</time>
      </trkpt>
      <trkpt lat="38.795227" lon="-6.375229">
        <ele>303.106</ele>
        <time>2019-02-26T04:48:16Z</time>
      </trkpt>
      <trkpt lat="38.795210" lon="-6.375244">
        <ele>303.226</ele>
        <time>2019-02-26T04:48:17Z</time>
      </trkpt>
      <trkpt lat="38.795200" lon="-6.375265">
        <ele>303.208</ele>
        <time>2019-02-26T04:48:18Z</time>
      </trkpt>
      <trkpt lat="38.795199" lon="-6.375288">
        <ele>303.271</ele>
        <time>2019-02-26T04:48:19Z</time>
      </trkpt>
      <trkpt lat="38.795205" lon="-6.375309">
        <ele>303.392</ele>
        <time>2019-02-26T04:48:20Z</time>
      </trkpt>
      <trkpt lat="38.795217" lon="-6.375327">
        <ele>303.623</ele>
        <time>2019-02-26T04:48:21Z</time>
      </trkpt>
      <trkpt lat="38.795233" lon="-6.375340">
        <ele>303.612</ele>
        <time>2019-02-26T04:48:22Z</time>
      </trkpt>
      <trkpt lat="38.795253" lon="-6.375348">
        <ele>303.666</ele>
        <time>2019-02-26T04:48:23Z</time>
      </trkpt>
      <trkpt lat="38.795278" lon="-6.375356">
        <ele>303.659</ele>
        <time>2019-02-26T04:48:24Z</time>
      </trkpt>
      <trkpt lat="38.795626" lon="-6.375569">
        <ele>303.888</ele>
        <time>2019-02-26T04:48:35Z</time>
      </trkpt>
      <trkpt lat="38.796083" lon="-6.375985">
        <ele>304.437</ele>
        <time>2019-02-26T04:48:50Z</time>
      </trkpt>
      <trkpt lat="38.796503" lon="-6.376239">
        <ele>305.224</ele>
        <time>2019-02-26T04:49:04Z</time>
      </trkpt>
      <trkpt lat="38.796901" lon="-6.375948">
        <ele>305.904</ele>
        <time>2019-02-26T04:49:20Z</time>
      </trkpt>
      <trkpt lat="38.797184" lon="-6.375727">
        <ele>306.314</ele>
        <time>2019-02-26T04:49:32Z</time>
      </trkpt>
      <trkpt lat="38.797696" lon="-6.375336">
        <ele>306.808</ele>
        <time>2019-02-26T04:49:51Z</time>
      </trkpt>
      <trkpt lat="38.797744" lon="-6.375300">
        <ele>306.845</ele>
        <time>2019-02-26T04:49:58Z</time>
      </trkpt>
      <trkpt lat="38.797689" lon="-6.375358">
        <ele>306.766</ele>
        <time>2019-02-26T04:50:12Z</time>
      </trkpt>
      <trkpt lat="38.797665" lon="-6.375375">
        <ele>306.737</ele>
        <time>2019-02-26T04:50:13Z</time>
      </trkpt>
      <trkpt lat="38.797638" lon="-6.375398">
        <ele>306.626</ele>
        <time>2019-02-26T04:50:14Z</time>
      </trkpt>
      <trkpt lat="38.797120" lon="-6.375788">
        <ele>306.410</ele>
        <time>2019-02-26T04:50:29Z</time>
      </trkpt>
      <trkpt lat="38.796873" lon="-6.375987">
        <ele>306.093</ele>
        <time>2019-02-26T04:50:36Z</time>
      </trkpt>
      <trkpt lat="38.796540" lon="-6.376218">
        <ele>305.392</ele>
        <time>2019-02-26T04:50:48Z</time>
      </trkpt>
      <trkpt lat="38.796425" lon="-6.376339">
        <ele>305.051</ele>
        <time>2019-02-26T04:50:56Z</time>
      </trkpt>
      <trkpt lat="38.796433" lon="-6.376358">
        <ele>305.049</ele>
        <time>2019-02-26T04:50:57Z</time>
      </trkpt>
      <trkpt lat="38.796446" lon="-6.376374">
        <ele>304.902</ele>
        <time>2019-02-26T04:50:58Z</time>
      </trkpt>
      <trkpt lat="38.796464" lon="-6.376386">
        <ele>304.922</ele>
        <time>2019-02-26T04:50:59Z</time>
      </trkpt>
      <trkpt lat="38.796483" lon="-6.376399">
        <ele>304.908</ele>
        <time>2019-02-26T04:51:00Z</time>
      </trkpt>
      <trkpt lat="38.796823" lon="-6.376646">
        <ele>305.617</ele>
        <time>2019-02-26T04:51:17Z</time>
      </trkpt>
      <trkpt lat="38.797221" lon="-6.376959">
        <ele>308.158</ele>
        <time>2019-02-26T04:51:36Z</time>
      </trkpt>
      <trkpt lat="38.797321" lon="-6.376997">
        <ele>308.569</ele>
        <time>2019-02-26T04:51:45Z</time>
      </trkpt>
      <trkpt lat="38.797302" lon="-6.376929">
        <ele>308.728</ele>
        <time>2019-02-26T04:52:48Z</time>
      </trkpt>
      <trkpt lat="38.797346" lon="-6.376954">
        <ele>308.992</ele>
        <time>2019-02-26T04:53:18Z</time>
      </trkpt>
      <trkpt lat="38.797337" lon="-6.376996">
        <ele>309.025</ele>
        <time>2019-02-26T04:53:50Z</time>
      </trkpt>
      <trkpt lat="38.797337" lon="-6.376996">
        <ele>309.074</ele>
        <time>2019-02-26T04:53:51Z</time>
      </trkpt>
      <trkpt lat="38.797335" lon="-6.377000">
        <ele>309.013</ele>
        <time>2019-02-26T04:53:58Z</time>
      </trkpt>
      <trkpt lat="38.797342" lon="-6.376998">
        <ele>309.054</ele>
        <time>2019-02-26T04:54:00Z</time>
      </trkpt>
      <trkpt lat="38.797417" lon="-6.376990">
        <ele>309.256</ele>
        <time>2019-02-26T04:54:04Z</time>
      </trkpt>
      <trkpt lat="38.797442" lon="-6.376986">
        <ele>309.211</ele>
        <time>2019-02-26T04:54:05Z</time>
      </trkpt>
      <trkpt lat="38.797468" lon="-6.376981">
        <ele>309.308</ele>
        <time>2019-02-26T04:54:06Z</time>
      </trkpt>
      <trkpt lat="38.797896" lon="-6.376892">
        <ele>309.768</ele>
        <time>2019-02-26T04:54:21Z</time>
      </trkpt>
      <trkpt lat="38.798422" lon="-6.376758">
        <ele>310.349</ele>
        <time>2019-02-26T04:54:38Z</time>
      </trkpt>
      <trkpt lat="38.798956" lon="-6.376573">
        <ele>311.030</ele>
        <time>2019-02-26T04:54:55Z</time>
      </trkpt>
      <trkpt lat="38.799282" lon="-6.376453">
        <ele>310.859</ele>
        <time>2019-02-26T04:55:03Z</time>
      </trkpt>
      <trkpt lat="38.799869" lon="-6.376255">
        <ele>309.873</ele>
        <time>2019-02-26T04:55:20Z</time>
      </trkpt>
      <trkpt lat="38.800052" lon="-6.376191">
        <ele>309.646</ele>
        <time>2019-02-26T04:55:25Z</time>
      </trkpt>
      <trkpt lat="38.800090" lon="-6.376172">
        <ele>309.695</ele>
        <time>2019-02-26T04:55:26Z</time>
      </trkpt>
      <trkpt lat="38.800666" lon="-6.375930">
        <ele>309.224</ele>
        <time>2019-02-26T04:55:43Z</time>
      </trkpt>
      <trkpt lat="38.801045" lon="-6.375708">
        <ele>309.635</ele>
        <time>2019-02-26T04:55:57Z</time>
      </trkpt>
      <trkpt lat="38.801055" lon="-6.375706">
        <ele>309.686</ele>
        <time>2019-02-26T04:56:02Z</time>
      </trkpt>
      <trkpt lat="38.801098" lon="-6.375671">
        <ele>309.614</ele>
        <time>2019-02-26T04:56:07Z</time>
      </trkpt>
      <trkpt lat="38.801506" lon="-6.375445">
        <ele>310.008</ele>
        <time>2019-02-26T04:56:20Z</time>
      </trkpt>
      <trkpt lat="38.802151" lon="-6.375154">
        <ele>308.176</ele>
        <time>2019-02-26T04:56:34Z</time>
      </trkpt>
      <trkpt lat="38.802963" lon="-6.374957">
        <ele>305.297</ele>
        <time>2019-02-26T04:56:49Z</time>
      </trkpt>
      <trkpt lat="38.803388" lon="-6.374866">
        <ele>304.328</ele>
        <time>2019-02-26T04:56:57Z</time>
      </trkpt>
      <trkpt lat="38.803434" lon="-6.374842">
        <ele>304.387</ele>
        <time>2019-02-26T04:56:58Z</time>
      </trkpt>
      <trkpt lat="38.803481" lon="-6.374818">
        <ele>304.291</ele>
        <time>2019-02-26T04:56:59Z</time>
      </trkpt>
      <trkpt lat="38.803803" lon="-6.374687">
        <ele>303.764</ele>
        <time>2019-02-26T04:57:06Z</time>
      </trkpt>
      <trkpt lat="38.804261" lon="-6.374518">
        <ele>302.973</ele>
        <time>2019-02-26T04:57:19Z</time>
      </trkpt>
      <trkpt lat="38.804623" lon="-6.374393">
        <ele>302.612</ele>
        <time>2019-02-26T04:57:28Z</time>
      </trkpt>
      <trkpt lat="38.804664" lon="-6.374378">
        <ele>302.547</ele>
        <time>2019-02-26T04:57:29Z</time>
      </trkpt>
      <trkpt lat="38.805183" lon="-6.374221">
        <ele>302.029</ele>
        <time>2019-02-26T04:57:43Z</time>
      </trkpt>
      <trkpt lat="38.805369" lon="-6.374146">
        <ele>301.721</ele>
        <time>2019-02-26T04:57:48Z</time>
      </trkpt>
      <trkpt lat="38.806134" lon="-6.373862">
        <ele>300.308</ele>
        <time>2019-02-26T04:58:05Z</time>
      </trkpt>
      <trkpt lat="38.806799" lon="-6.373621">
        <ele>299.117</ele>
        <time>2019-02-26T04:58:22Z</time>
      </trkpt>
      <trkpt lat="38.807435" lon="-6.373344">
        <ele>298.858</ele>
        <time>2019-02-26T04:58:40Z</time>
      </trkpt>
      <trkpt lat="38.807779" lon="-6.373066">
        <ele>298.839</ele>
        <time>2019-02-26T04:58:53Z</time>
      </trkpt>
      <trkpt lat="38.808205" lon="-6.373078">
        <ele>298.668</ele>
        <time>2019-02-26T04:59:06Z</time>
      </trkpt>
      <trkpt lat="38.808236" lon="-6.373100">
        <ele>298.522</ele>
        <time>2019-02-26T04:59:07Z</time>
      </trkpt>
      <trkpt lat="38.808267" lon="-6.373105">
        <ele>298.425</ele>
        <time>2019-02-26T04:59:08Z</time>
      </trkpt>
      <trkpt lat="38.808297" lon="-6.373099">
        <ele>298.414</ele>
        <time>2019-02-26T04:59:09Z</time>
      </trkpt>
      <trkpt lat="38.808567" lon="-6.372999">
        <ele>297.983</ele>
        <time>2019-02-26T04:59:16Z</time>
      </trkpt>
      <trkpt lat="38.809125" lon="-6.372794">
        <ele>297.323</ele>
        <time>2019-02-26T04:59:31Z</time>
      </trkpt>
      <trkpt lat="38.809836" lon="-6.372539">
        <ele>296.583</ele>
        <time>2019-02-26T04:59:46Z</time>
      </trkpt>
      <trkpt lat="38.810033" lon="-6.372478">
        <ele>296.311</ele>
        <time>2019-02-26T04:59:50Z</time>
      </trkpt>
      <trkpt lat="38.810436" lon="-6.372318">
        <ele>296.008</ele>
        <time>2019-02-26T04:59:59Z</time>
      </trkpt>
      <trkpt lat="38.810999" lon="-6.372094">
        <ele>294.515</ele>
        <time>2019-02-26T05:00:13Z</time>
      </trkpt>
      <trkpt lat="38.811409" lon="-6.371908">
        <ele>293.226</ele>
        <time>2019-02-26T05:00:27Z</time>
      </trkpt>
      <trkpt lat="38.811681" lon="-6.371550">
        <ele>291.697</ele>
        <time>2019-02-26T05:00:38Z</time>
      </trkpt>
      <trkpt lat="38.812166" lon="-6.371455">
        <ele>289.296</ele>
        <time>2019-02-26T05:00:50Z</time>
      </trkpt>
      <trkpt lat="38.812387" lon="-6.371555">
        <ele>288.710</ele>
        <time>2019-02-26T05:01:00Z</time>
      </trkpt>
      <trkpt lat="38.812580" lon="-6.371419">
        <ele>288.643</ele>
        <time>2019-02-26T05:01:10Z</time>
      </trkpt>
      <trkpt lat="38.812872" lon="-6.371305">
        <ele>289.582</ele>
        <time>2019-02-26T05:01:24Z</time>
      </trkpt>
      <trkpt lat="38.813116" lon="-6.371107">
        <ele>291.091</ele>
        <time>2019-02-26T05:01:38Z</time>
      </trkpt>
      <trkpt lat="38.813465" lon="-6.371060">
        <ele>292.186</ele>
        <time>2019-02-26T05:01:57Z</time>
      </trkpt>
      <trkpt lat="38.813710" lon="-6.370958">
        <ele>293.560</ele>
        <time>2019-02-26T05:02:13Z</time>
      </trkpt>
      <trkpt lat="38.813960" lon="-6.370849">
        <ele>294.926</ele>
        <time>2019-02-26T05:02:29Z</time>
      </trkpt>
      <trkpt lat="38.814249" lon="-6.370777">
        <ele>296.208</ele>
        <time>2019-02-26T05:02:45Z</time>
      </trkpt>
      <trkpt lat="38.814507" lon="-6.370596">
        <ele>297.351</ele>
        <time>2019-02-26T05:03:01Z</time>
      </trkpt>
      <trkpt lat="38.814648" lon="-6.370422">
        <ele>299.092</ele>
        <time>2019-02-26T05:03:14Z</time>
      </trkpt>
      <trkpt lat="38.814659" lon="-6.370419">
        <ele>299.183</ele>
        <time>2019-02-26T05:03:15Z</time>
      </trkpt>
      <trkpt lat="38.814660" lon="-6.370253">
        <ele>299.892</ele>
        <time>2019-02-26T05:03:23Z</time>
      </trkpt>
      <trkpt lat="38.814693" lon="-6.370202">
        <ele>299.746</ele>
        <time>2019-02-26T05:03:26Z</time>
      </trkpt>
      <trkpt lat="38.814715" lon="-6.370198">
        <ele>299.659</ele>
        <time>2019-02-26T05:03:27Z</time>
      </trkpt>
      <trkpt lat="38.814734" lon="-6.370210">
        <ele>299.538</ele>
        <time>2019-02-26T05:03:28Z</time>
      </trkpt>
      <trkpt lat="38.814750" lon="-6.370232">
        <ele>299.447</ele>
        <time>2019-02-26T05:03:29Z</time>
      </trkpt>
      <trkpt lat="38.814762" lon="-6.370259">
        <ele>299.324</ele>
        <time>2019-02-26T05:03:30Z</time>
      </trkpt>
      <trkpt lat="38.814770" lon="-6.370290">
        <ele>299.204</ele>
        <time>2019-02-26T05:03:31Z</time>
      </trkpt>
      <trkpt lat="38.814776" lon="-6.370326">
        <ele>299.014</ele>
        <time>2019-02-26T05:03:32Z</time>
      </trkpt>
      <trkpt lat="38.814979" lon="-6.370677">
        <ele>298.408</ele>
        <time>2019-02-26T05:03:43Z</time>
      </trkpt>
      <trkpt lat="38.815323" lon="-6.370583">
        <ele>299.085</ele>
        <time>2019-02-26T05:03:56Z</time>
      </trkpt>
      <trkpt lat="38.815662" lon="-6.370459">
        <ele>299.566</ele>
        <time>2019-02-26T05:04:10Z</time>
      </trkpt>
      <trkpt lat="38.816051" lon="-6.370283">
        <ele>300.197</ele>
        <time>2019-02-26T05:04:25Z</time>
      </trkpt>
      <trkpt lat="38.816635" lon="-6.370022">
        <ele>301.896</ele>
        <time>2019-02-26T05:04:44Z</time>
      </trkpt>
      <trkpt lat="38.816981" lon="-6.369866">
        <ele>302.880</ele>
        <time>2019-02-26T05:04:55Z</time>
      </trkpt>
      <trkpt lat="38.817381" lon="-6.369675">
        <ele>303.333</ele>
        <time>2019-02-26T05:05:09Z</time>
      </trkpt>
      <trkpt lat="38.817726" lon="-6.369655">
        <ele>304.122</ele>
        <time>2019-02-26T05:05:19Z</time>
      </trkpt>
      <trkpt lat="38.818069" lon="-6.369478">
        <ele>305.241</ele>
        <time>2019-02-26T05:05:31Z</time>
      </trkpt>
      <trkpt lat="38.818629" lon="-6.369185">
        <ele>305.889</ele>
        <time>2019-02-26T05:05:48Z</time>
      </trkpt>
      <trkpt lat="38.819289" lon="-6.368846">
        <ele>306.906</ele>
        <time>2019-02-26T05:06:08Z</time>
      </trkpt>
      <trkpt lat="38.819981" lon="-6.368498">
        <ele>307.626</ele>
        <time>2019-02-26T05:06:28Z</time>
      </trkpt>
      <trkpt lat="38.820680" lon="-6.368128">
        <ele>307.308</ele>
        <time>2019-02-26T05:06:46Z</time>
      </trkpt>
      <trkpt lat="38.821436" lon="-6.367861">
        <ele>306.531</ele>
        <time>2019-02-26T05:07:01Z</time>
      </trkpt>
      <trkpt lat="38.822089" lon="-6.367724">
        <ele>305.512</ele>
        <time>2019-02-26T05:07:12Z</time>
      </trkpt>
      <trkpt lat="38.823180" lon="-6.367489">
        <ele>303.623</ele>
        <time>2019-02-26T05:07:27Z</time>
      </trkpt>
      <trkpt lat="38.824438" lon="-6.367214">
        <ele>300.552</ele>
        <time>2019-02-26T05:07:43Z</time>
      </trkpt>
      <trkpt lat="38.824765" lon="-6.367147">
        <ele>300.236</ele>
        <time>2019-02-26T05:07:51Z</time>
      </trkpt>
      <trkpt lat="38.824766" lon="-6.367146">
        <ele>300.229</ele>
        <time>2019-02-26T05:07:54Z</time>
      </trkpt>
      <trkpt lat="38.824809" lon="-6.367111">
        <ele>300.298</ele>
        <time>2019-02-26T05:08:03Z</time>
      </trkpt>
      <trkpt lat="38.824854" lon="-6.367067">
        <ele>300.267</ele>
        <time>2019-02-26T05:08:12Z</time>
      </trkpt>
      <trkpt lat="38.824906" lon="-6.367011">
        <ele>300.289</ele>
        <time>2019-02-26T05:08:24Z</time>
      </trkpt>
      <trkpt lat="38.824911" lon="-6.367007">
        <ele>300.206</ele>
        <time>2019-02-26T05:08:28Z</time>
      </trkpt>
      <trkpt lat="38.824872" lon="-6.366918">
        <ele>300.126</ele>
        <time>2019-02-26T05:08:47Z</time>
      </trkpt>
      <trkpt lat="38.824917" lon="-6.366881">
        <ele>300.108</ele>
        <time>2019-02-26T05:08:54Z</time>
      </trkpt>
      <trkpt lat="38.825226" lon="-6.366890">
        <ele>299.131</ele>
        <time>2019-02-26T05:09:07Z</time>
      </trkpt>
      <trkpt lat="38.825532" lon="-6.366985">
        <ele>297.952</ele>
        <time>2019-02-26T05:09:20Z</time>
      </trkpt>
      <trkpt lat="38.826170" lon="-6.366841">
        <ele>295.793</ele>
        <time>2019-02-26T05:09:32Z</time>
      </trkpt>
      <trkpt lat="38.827172" lon="-6.366614">
        <ele>293.072</ele>
        <time>2019-02-26T05:09:45Z</time>
      </trkpt>
      <trkpt lat="38.828598" lon="-6.366304">
        <ele>289.246</ele>
        <time>2019-02-26T05:10:01Z</time>
      </trkpt>
      <trkpt lat="38.829622" lon="-6.366093">
        <ele>287.469</ele>
        <time>2019-02-26T05:10:12Z</time>
      </trkpt>
      <trkpt lat="38.830385" lon="-6.365906">
        <ele>286.418</ele>
        <time>2019-02-26T05:10:23Z</time>
      </trkpt>
      <trkpt lat="38.830441" lon="-6.365908">
        <ele>286.237</ele>
        <time>2019-02-26T05:10:24Z</time>
      </trkpt>
      <trkpt lat="38.830496" lon="-6.365898">
        <ele>286.161</ele>
        <time>2019-02-26T05:10:25Z</time>
      </trkpt>
      <trkpt lat="38.830609" lon="-6.365861">
        <ele>285.821</ele>
        <time>2019-02-26T05:10:27Z</time>
      </trkpt>
      <trkpt lat="38.831630" lon="-6.365647">
        <ele>281.813</ele>
        <time>2019-02-26T05:10:41Z</time>
      </trkpt>
      <trkpt lat="38.833079" lon="-6.365326">
        <ele>279.008</ele>
        <time>2019-02-26T05:10:57Z</time>
      </trkpt>
      <trkpt lat="38.834367" lon="-6.364974">
        <ele>278.459</ele>
        <time>2019-02-26T05:11:14Z</time>
      </trkpt>
      <trkpt lat="38.835534" lon="-6.364754">
        <ele>277.440</ele>
        <time>2019-02-26T05:11:31Z</time>
      </trkpt>
      <trkpt lat="38.836905" lon="-6.364413">
        <ele>276.861</ele>
        <time>2019-02-26T05:11:52Z</time>
      </trkpt>
      <trkpt lat="38.838427" lon="-6.364100">
        <ele>274.590</ele>
        <time>2019-02-26T05:12:13Z</time>
      </trkpt>
      <trkpt lat="38.839732" lon="-6.363831">
        <ele>274.374</ele>
        <time>2019-02-26T05:12:31Z</time>
      </trkpt>
      <trkpt lat="38.840936" lon="-6.363522">
        <ele>277.517</ele>
        <time>2019-02-26T05:12:50Z</time>
      </trkpt>
      <trkpt lat="38.841781" lon="-6.363299">
        <ele>280.516</ele>
        <time>2019-02-26T05:13:08Z</time>
      </trkpt>
      <trkpt lat="38.842564" lon="-6.363099">
        <ele>281.915</ele>
        <time>2019-02-26T05:13:29Z</time>
      </trkpt>
      <trkpt lat="38.843275" lon="-6.362881">
        <ele>281.889</ele>
        <time>2019-02-26T05:13:50Z</time>
      </trkpt>
      <trkpt lat="38.843857" lon="-6.362608">
        <ele>280.806</ele>
        <time>2019-02-26T05:14:07Z</time>
      </trkpt>
      <trkpt lat="38.844675" lon="-6.362042">
        <ele>281.426</ele>
        <time>2019-02-26T05:14:26Z</time>
      </trkpt>
      <trkpt lat="38.845489" lon="-6.361447">
        <ele>285.208</ele>
        <time>2019-02-26T05:14:45Z</time>
      </trkpt>
      <trkpt lat="38.846049" lon="-6.361126">
        <ele>287.281</ele>
        <time>2019-02-26T05:15:02Z</time>
      </trkpt>
      <trkpt lat="38.846692" lon="-6.360899">
        <ele>290.012</ele>
        <time>2019-02-26T05:15:21Z</time>
      </trkpt>
      <trkpt lat="38.847449" lon="-6.360777">
        <ele>293.213</ele>
        <time>2019-02-26T05:15:42Z</time>
      </trkpt>
      <trkpt lat="38.848101" lon="-6.360728">
        <ele>294.042</ele>
        <time>2019-02-26T05:16:00Z</time>
      </trkpt>
      <trkpt lat="38.848896" lon="-6.360651">
        <ele>294.536</ele>
        <time>2019-02-26T05:16:22Z</time>
      </trkpt>
      <trkpt lat="38.849636" lon="-6.360541">
        <ele>293.929</ele>
        <time>2019-02-26T05:16:41Z</time>
      </trkpt>
      <trkpt lat="38.849876" lon="-6.360483">
        <ele>293.588</ele>
        <time>2019-02-26T05:16:53Z</time>
      </trkpt>
      <trkpt lat="38.849939" lon="-6.360449">
        <ele>293.497</ele>
        <time>2019-02-26T05:17:06Z</time>
      </trkpt>
      <trkpt lat="38.850077" lon="-6.360358">
        <ele>293.246</ele>
        <time>2019-02-26T05:17:17Z</time>
      </trkpt>
      <trkpt lat="38.850345" lon="-6.360059">
        <ele>293.088</ele>
        <time>2019-02-26T05:17:25Z</time>
      </trkpt>
      <trkpt lat="38.850517" lon="-6.359879">
        <ele>292.816</ele>
        <time>2019-02-26T05:17:29Z</time>
      </trkpt>
      <trkpt lat="38.850555" lon="-6.359827">
        <ele>292.608</ele>
        <time>2019-02-26T05:17:30Z</time>
      </trkpt>
      <trkpt lat="38.850594" lon="-6.359779">
        <ele>292.537</ele>
        <time>2019-02-26T05:17:31Z</time>
      </trkpt>
      <trkpt lat="38.850636" lon="-6.359744">
        <ele>292.438</ele>
        <time>2019-02-26T05:17:32Z</time>
      </trkpt>
      <trkpt lat="38.850678" lon="-6.359710">
        <ele>292.229</ele>
        <time>2019-02-26T05:17:33Z</time>
      </trkpt>
      <trkpt lat="38.850717" lon="-6.359669">
        <ele>292.128</ele>
        <time>2019-02-26T05:17:34Z</time>
      </trkpt>
      <trkpt lat="38.850758" lon="-6.359632">
        <ele>292.022</ele>
        <time>2019-02-26T05:17:35Z</time>
      </trkpt>
      <trkpt lat="38.850803" lon="-6.359604">
        <ele>291.895</ele>
        <time>2019-02-26T05:17:36Z</time>
      </trkpt>
      <trkpt lat="38.850851" lon="-6.359585">
        <ele>291.614</ele>
        <time>2019-02-26T05:17:37Z</time>
      </trkpt>
      <trkpt lat="38.850897" lon="-6.359576">
        <ele>291.483</ele>
        <time>2019-02-26T05:17:38Z</time>
      </trkpt>
      <trkpt lat="38.850943" lon="-6.359578">
        <ele>291.223</ele>
        <time>2019-02-26T05:17:39Z</time>
      </trkpt>
      <trkpt lat="38.850987" lon="-6.359589">
        <ele>291.083</ele>
        <time>2019-02-26T05:17:40Z</time>
      </trkpt>
      <trkpt lat="38.851028" lon="-6.359603">
        <ele>290.811</ele>
        <time>2019-02-26T05:17:41Z</time>
      </trkpt>
      <trkpt lat="38.851313" lon="-6.359655">
        <ele>289.708</ele>
        <time>2019-02-26T05:17:49Z</time>
      </trkpt>
      <trkpt lat="38.851436" lon="-6.359726">
        <ele>288.795</ele>
        <time>2019-02-26T05:17:52Z</time>
      </trkpt>
      <trkpt lat="38.851481" lon="-6.359754">
        <ele>288.366</ele>
        <time>2019-02-26T05:17:53Z</time>
      </trkpt>
      <trkpt lat="38.852194" lon="-6.360005">
        <ele>286.027</ele>
        <time>2019-02-26T05:18:03Z</time>
      </trkpt>
      <trkpt lat="38.852531" lon="-6.360040">
        <ele>286.396</ele>
        <time>2019-02-26T05:18:07Z</time>
      </trkpt>
      <trkpt lat="38.852611" lon="-6.360032">
        <ele>286.680</ele>
        <time>2019-02-26T05:18:08Z</time>
      </trkpt>
      <trkpt lat="38.853312" lon="-6.359925">
        <ele>284.663</ele>
        <time>2019-02-26T05:18:20Z</time>
      </trkpt>
      <trkpt lat="38.853908" lon="-6.359907">
        <ele>279.522</ele>
        <time>2019-02-26T05:18:29Z</time>
      </trkpt>
      <trkpt lat="38.854228" lon="-6.359896">
        <ele>276.661</ele>
        <time>2019-02-26T05:18:35Z</time>
      </trkpt>
      <trkpt lat="38.854494" lon="-6.359865">
        <ele>274.373</ele>
        <time>2019-02-26T05:18:40Z</time>
      </trkpt>
      <trkpt lat="38.854552" lon="-6.359839">
        <ele>273.985</ele>
        <time>2019-02-26T05:18:41Z</time>
      </trkpt>
      <trkpt lat="38.854894" lon="-6.359687">
        <ele>272.613</ele>
        <time>2019-02-26T05:18:48Z</time>
      </trkpt>
      <trkpt lat="38.854942" lon="-6.359678">
        <ele>272.508</ele>
        <time>2019-02-26T05:18:49Z</time>
      </trkpt>
      <trkpt lat="38.855660" lon="-6.359628">
        <ele>270.090</ele>
        <time>2019-02-26T05:19:03Z</time>
      </trkpt>
      <trkpt lat="38.856657" lon="-6.359546">
        <ele>268.931</ele>
        <time>2019-02-26T05:19:20Z</time>
      </trkpt>
      <trkpt lat="38.856962" lon="-6.359524">
        <ele>268.472</ele>
        <time>2019-02-26T05:19:26Z</time>
      </trkpt>
      <trkpt lat="38.857010" lon="-6.359530">
        <ele>268.311</ele>
        <time>2019-02-26T05:19:27Z</time>
      </trkpt>
      <trkpt lat="38.857057" lon="-6.359532">
        <ele>268.265</ele>
        <time>2019-02-26T05:19:28Z</time>
      </trkpt>
      <trkpt lat="38.857317" lon="-6.359506">
        <ele>267.318</ele>
        <time>2019-02-26T05:19:34Z</time>
      </trkpt>
      <trkpt lat="38.857360" lon="-6.359505">
        <ele>267.247</ele>
        <time>2019-02-26T05:19:35Z</time>
      </trkpt>
      <trkpt lat="38.857406" lon="-6.359501">
        <ele>267.086</ele>
        <time>2019-02-26T05:19:36Z</time>
      </trkpt>
      <trkpt lat="38.858020" lon="-6.359412">
        <ele>265.117</ele>
        <time>2019-02-26T05:19:50Z</time>
      </trkpt>
      <trkpt lat="38.858638" lon="-6.359322">
        <ele>263.387</ele>
        <time>2019-02-26T05:20:07Z</time>
      </trkpt>
      <trkpt lat="38.859358" lon="-6.359116">
        <ele>262.015</ele>
        <time>2019-02-26T05:20:23Z</time>
      </trkpt>
      <trkpt lat="38.859710" lon="-6.358988">
        <ele>261.808</ele>
        <time>2019-02-26T05:20:34Z</time>
      </trkpt>
      <trkpt lat="38.859715" lon="-6.358988">
        <ele>261.744</ele>
        <time>2019-02-26T05:20:39Z</time>
      </trkpt>
      <trkpt lat="38.859764" lon="-6.358948">
        <ele>261.735</ele>
        <time>2019-02-26T05:20:48Z</time>
      </trkpt>
      <trkpt lat="38.859791" lon="-6.358951">
        <ele>261.756</ele>
        <time>2019-02-26T05:20:54Z</time>
      </trkpt>
      <trkpt lat="38.859862" lon="-6.359024">
        <ele>261.685</ele>
        <time>2019-02-26T05:21:28Z</time>
      </trkpt>
      <trkpt lat="38.859875" lon="-6.359023">
        <ele>261.659</ele>
        <time>2019-02-26T05:21:29Z</time>
      </trkpt>
      <trkpt lat="38.859895" lon="-6.359017">
        <ele>261.542</ele>
        <time>2019-02-26T05:21:34Z</time>
      </trkpt>
      <trkpt lat="38.859953" lon="-6.359014">
        <ele>261.411</ele>
        <time>2019-02-26T05:21:39Z</time>
      </trkpt>
      <trkpt lat="38.860320" lon="-6.359016">
        <ele>261.160</ele>
        <time>2019-02-26T05:21:52Z</time>
      </trkpt>
      <trkpt lat="38.860698" lon="-6.359018">
        <ele>261.535</ele>
        <time>2019-02-26T05:22:04Z</time>
      </trkpt>
      <trkpt lat="38.861155" lon="-6.358912">
        <ele>262.186</ele>
        <time>2019-02-26T05:22:18Z</time>
      </trkpt>
      <trkpt lat="38.861198" lon="-6.358905">
        <ele>262.114</ele>
        <time>2019-02-26T05:22:23Z</time>
      </trkpt>
      <trkpt lat="38.861233" lon="-6.358906">
        <ele>262.208</ele>
        <time>2019-02-26T05:23:15Z</time>
      </trkpt>
      <trkpt lat="38.861647" lon="-6.358835">
        <ele>262.646</ele>
        <time>2019-02-26T05:23:31Z</time>
      </trkpt>
      <trkpt lat="38.862005" lon="-6.358787">
        <ele>263.137</ele>
        <time>2019-02-26T05:23:45Z</time>
      </trkpt>
      <trkpt lat="38.862365" lon="-6.358743">
        <ele>264.118</ele>
        <time>2019-02-26T05:24:00Z</time>
      </trkpt>
      <trkpt lat="38.862770" lon="-6.358597">
        <ele>264.617</ele>
        <time>2019-02-26T05:24:15Z</time>
      </trkpt>
      <trkpt lat="38.863356" lon="-6.358408">
        <ele>265.011</ele>
        <time>2019-02-26T05:24:34Z</time>
      </trkpt>
      <trkpt lat="38.864017" lon="-6.358140">
        <ele>265.784</ele>
        <time>2019-02-26T05:24:53Z</time>
      </trkpt>
      <trkpt lat="38.864640" lon="-6.357870">
        <ele>265.923</ele>
        <time>2019-02-26T05:25:11Z</time>
      </trkpt>
      <trkpt lat="38.865187" lon="-6.357577">
        <ele>266.332</ele>
        <time>2019-02-26T05:25:28Z</time>
      </trkpt>
      <trkpt lat="38.865683" lon="-6.357266">
        <ele>266.659</ele>
        <time>2019-02-26T05:25:44Z</time>
      </trkpt>
      <trkpt lat="38.866270" lon="-6.356933">
        <ele>269.003</ele>
        <time>2019-02-26T05:26:03Z</time>
      </trkpt>
      <trkpt lat="38.866469" lon="-6.356845">
        <ele>268.323</ele>
        <time>2019-02-26T05:26:11Z</time>
      </trkpt>
      <trkpt lat="38.866477" lon="-6.356838">
        <ele>268.308</ele>
        <time>2019-02-26T05:26:12Z</time>
      </trkpt>
      <trkpt lat="38.866492" lon="-6.356832">
        <ele>268.228</ele>
        <time>2019-02-26T05:26:13Z</time>
      </trkpt>
      <trkpt lat="38.866909" lon="-6.356664">
        <ele>265.799</ele>
        <time>2019-02-26T05:26:25Z</time>
      </trkpt>
      <trkpt lat="38.867747" lon="-6.356397">
        <ele>263.810</ele>
        <time>2019-02-26T05:26:43Z</time>
      </trkpt>
      <trkpt lat="38.868425" lon="-6.356366">
        <ele>267.089</ele>
        <time>2019-02-26T05:27:02Z</time>
      </trkpt>
      <trkpt lat="38.868903" lon="-6.356326">
        <ele>270.443</ele>
        <time>2019-02-26T05:27:21Z</time>
      </trkpt>
      <trkpt lat="38.869396" lon="-6.356293">
        <ele>271.656</ele>
        <time>2019-02-26T05:27:40Z</time>
      </trkpt>
      <trkpt lat="38.869891" lon="-6.356293">
        <ele>271.115</ele>
        <time>2019-02-26T05:27:57Z</time>
      </trkpt>
      <trkpt lat="38.869888" lon="-6.356294">
        <ele>271.114</ele>
        <time>2019-02-26T05:27:59Z</time>
      </trkpt>
      <trkpt lat="38.869949" lon="-6.356303">
        <ele>271.013</ele>
        <time>2019-02-26T05:28:04Z</time>
      </trkpt>
      <trkpt lat="38.870064" lon="-6.356303">
        <ele>270.643</ele>
        <time>2019-02-26T05:28:13Z</time>
      </trkpt>
      <trkpt lat="38.870187" lon="-6.356304">
        <ele>270.307</ele>
        <time>2019-02-26T05:33:04Z</time>
      </trkpt>
      <trkpt lat="38.870712" lon="-6.356318">
        <ele>269.008</ele>
        <time>2019-02-26T05:33:20Z</time>
      </trkpt>
      <trkpt lat="38.871431" lon="-6.356313">
        <ele>268.274</ele>
        <time>2019-02-26T05:33:36Z</time>
      </trkpt>
      <trkpt lat="38.871997" lon="-6.356298">
        <ele>267.535</ele>
        <time>2019-02-26T05:33:51Z</time>
      </trkpt>
      <trkpt lat="38.872246" lon="-6.356286">
        <ele>267.296</ele>
        <time>2019-02-26T05:33:57Z</time>
      </trkpt>
      <trkpt lat="38.873028" lon="-6.356279">
        <ele>267.155</ele>
        <time>2019-02-26T05:34:15Z</time>
      </trkpt>
      <trkpt lat="38.873073" lon="-6.356284">
        <ele>267.199</ele>
        <time>2019-02-26T05:34:16Z</time>
      </trkpt>
      <trkpt lat="38.873163" lon="-6.356295">
        <ele>267.292</ele>
        <time>2019-02-26T05:34:18Z</time>
      </trkpt>
      <trkpt lat="38.873208" lon="-6.356290">
        <ele>267.281</ele>
        <time>2019-02-26T05:34:19Z</time>
      </trkpt>
      <trkpt lat="38.873929" lon="-6.356312">
        <ele>267.270</ele>
        <time>2019-02-26T05:34:35Z</time>
      </trkpt>
      <trkpt lat="38.874154" lon="-6.356316">
        <ele>267.058</ele>
        <time>2019-02-26T05:34:40Z</time>
      </trkpt>
      <trkpt lat="38.874199" lon="-6.356307">
        <ele>267.052</ele>
        <time>2019-02-26T05:34:41Z</time>
      </trkpt>
      <trkpt lat="38.874243" lon="-6.356293">
        <ele>267.017</ele>
        <time>2019-02-26T05:34:42Z</time>
      </trkpt>
      <trkpt lat="38.874287" lon="-6.356273">
        <ele>266.908</ele>
        <time>2019-02-26T05:34:43Z</time>
      </trkpt>
      <trkpt lat="38.874330" lon="-6.356250">
        <ele>266.928</ele>
        <time>2019-02-26T05:34:44Z</time>
      </trkpt>
      <trkpt lat="38.874503" lon="-6.356134">
        <ele>266.579</ele>
        <time>2019-02-26T05:34:48Z</time>
      </trkpt>
      <trkpt lat="38.874595" lon="-6.356091">
        <ele>266.360</ele>
        <time>2019-02-26T05:34:50Z</time>
      </trkpt>
      <trkpt lat="38.874646" lon="-6.356078">
        <ele>266.289</ele>
        <time>2019-02-26T05:34:51Z</time>
      </trkpt>
      <trkpt lat="38.874848" lon="-6.356030">
        <ele>265.893</ele>
        <time>2019-02-26T05:34:55Z</time>
      </trkpt>
      <trkpt lat="38.875715" lon="-6.355791">
        <ele>263.656</ele>
        <time>2019-02-26T05:35:12Z</time>
      </trkpt>
      <trkpt lat="38.876701" lon="-6.355497">
        <ele>262.925</ele>
        <time>2019-02-26T05:35:30Z</time>
      </trkpt>
      <trkpt lat="38.877337" lon="-6.355159">
        <ele>262.624</ele>
        <time>2019-02-26T05:35:45Z</time>
      </trkpt>
      <trkpt lat="38.878009" lon="-6.354811">
        <ele>263.369</ele>
        <time>2019-02-26T05:36:05Z</time>
      </trkpt>
      <trkpt lat="38.878495" lon="-6.354615">
        <ele>263.404</ele>
        <time>2019-02-26T05:36:21Z</time>
      </trkpt>
      <trkpt lat="38.878862" lon="-6.354436">
        <ele>263.224</ele>
        <time>2019-02-26T05:36:34Z</time>
      </trkpt>
      <trkpt lat="38.879573" lon="-6.354158">
        <ele>262.308</ele>
        <time>2019-02-26T05:36:54Z</time>
      </trkpt>
      <trkpt lat="38.880145" lon="-6.353916">
        <ele>260.979</ele>
        <time>2019-02-26T05:37:09Z</time>
      </trkpt>
      <trkpt lat="38.880326" lon="-6.353880">
        <ele>260.380</ele>
        <time>2019-02-26T05:37:13Z</time>
      </trkpt>
      <trkpt lat="38.880843" lon="-6.353888">
        <ele>257.411</ele>
        <time>2019-02-26T05:37:26Z</time>
      </trkpt>
      <trkpt lat="38.881139" lon="-6.353975">
        <ele>254.710</ele>
        <time>2019-02-26T05:37:33Z</time>
      </trkpt>
      <trkpt lat="38.881323" lon="-6.354017">
        <ele>253.364</ele>
        <time>2019-02-26T05:37:37Z</time>
      </trkpt>
      <trkpt lat="38.881906" lon="-6.354133">
        <ele>249.387</ele>
        <time>2019-02-26T05:37:47Z</time>
      </trkpt>
      <trkpt lat="38.882382" lon="-6.354182">
        <ele>245.656</ele>
        <time>2019-02-26T05:37:55Z</time>
      </trkpt>
      <trkpt lat="38.882434" lon="-6.354191">
        <ele>245.225</ele>
        <time>2019-02-26T05:37:56Z</time>
      </trkpt>
      <trkpt lat="38.882785" lon="-6.354241">
        <ele>242.495</ele>
        <time>2019-02-26T05:38:03Z</time>
      </trkpt>
      <trkpt lat="38.883264" lon="-6.354400">
        <ele>241.349</ele>
        <time>2019-02-26T05:38:12Z</time>
      </trkpt>
      <trkpt lat="38.883859" lon="-6.354635">
        <ele>239.723</ele>
        <time>2019-02-26T05:38:25Z</time>
      </trkpt>
      <trkpt lat="38.884406" lon="-6.354772">
        <ele>237.908</ele>
        <time>2019-02-26T05:38:39Z</time>
      </trkpt>
      <trkpt lat="38.884969" lon="-6.354693">
        <ele>236.672</ele>
        <time>2019-02-26T05:38:53Z</time>
      </trkpt>
      <trkpt lat="38.885653" lon="-6.354375">
        <ele>235.633</ele>
        <time>2019-02-26T05:39:08Z</time>
      </trkpt>
      <trkpt lat="38.885702" lon="-6.354364">
        <ele>235.624</ele>
        <time>2019-02-26T05:39:09Z</time>
      </trkpt>
      <trkpt lat="38.885751" lon="-6.354354">
        <ele>235.643</ele>
        <time>2019-02-26T05:39:10Z</time>
      </trkpt>
      <trkpt lat="38.885797" lon="-6.354343">
        <ele>235.577</ele>
        <time>2019-02-26T05:39:11Z</time>
      </trkpt>
      <trkpt lat="38.885842" lon="-6.354336">
        <ele>235.530</ele>
        <time>2019-02-26T05:39:12Z</time>
      </trkpt>
      <trkpt lat="38.885884" lon="-6.354328">
        <ele>235.439</ele>
        <time>2019-02-26T05:39:13Z</time>
      </trkpt>
      <trkpt lat="38.885921" lon="-6.354316">
        <ele>235.478</ele>
        <time>2019-02-26T05:39:14Z</time>
      </trkpt>
      <trkpt lat="38.885951" lon="-6.354304">
        <ele>235.496</ele>
        <time>2019-02-26T05:39:15Z</time>
      </trkpt>
      <trkpt lat="38.885979" lon="-6.354293">
        <ele>235.431</ele>
        <time>2019-02-26T05:39:16Z</time>
      </trkpt>
      <trkpt lat="38.886007" lon="-6.354285">
        <ele>235.424</ele>
        <time>2019-02-26T05:39:17Z</time>
      </trkpt>
      <trkpt lat="38.886508" lon="-6.354095">
        <ele>234.308</ele>
        <time>2019-02-26T05:39:31Z</time>
      </trkpt>
      <trkpt lat="38.886716" lon="-6.354034">
        <ele>233.482</ele>
        <time>2019-02-26T05:39:36Z</time>
      </trkpt>
      <trkpt lat="38.886903" lon="-6.354004">
        <ele>233.053</ele>
        <time>2019-02-26T05:39:40Z</time>
      </trkpt>
      <trkpt lat="38.887641" lon="-6.353778">
        <ele>231.144</ele>
        <time>2019-02-26T05:39:54Z</time>
      </trkpt>
      <trkpt lat="38.888230" lon="-6.353455">
        <ele>230.673</ele>
        <time>2019-02-26T05:40:05Z</time>
      </trkpt>
      <trkpt lat="38.888790" lon="-6.353272">
        <ele>229.637</ele>
        <time>2019-02-26T05:40:17Z</time>
      </trkpt>
      <trkpt lat="38.888972" lon="-6.353173">
        <ele>229.220</ele>
        <time>2019-02-26T05:40:21Z</time>
      </trkpt>
      <trkpt lat="38.889401" lon="-6.352849">
        <ele>228.439</ele>
        <time>2019-02-26T05:40:31Z</time>
      </trkpt>
      <trkpt lat="38.889858" lon="-6.352488">
        <ele>226.548</ele>
        <time>2019-02-26T05:40:43Z</time>
      </trkpt>
      <trkpt lat="38.890331" lon="-6.352150">
        <ele>225.646</ele>
        <time>2019-02-26T05:40:53Z</time>
      </trkpt>
      <trkpt lat="38.890410" lon="-6.352077">
        <ele>225.688</ele>
        <time>2019-02-26T05:40:55Z</time>
      </trkpt>
      <trkpt lat="38.890452" lon="-6.352050">
        <ele>225.616</ele>
        <time>2019-02-26T05:40:56Z</time>
      </trkpt>
      <trkpt lat="38.890538" lon="-6.352010">
        <ele>225.508</ele>
        <time>2019-02-26T05:40:58Z</time>
      </trkpt>
      <trkpt lat="38.890718" lon="-6.351985">
        <ele>225.527</ele>
        <time>2019-02-26T05:41:02Z</time>
      </trkpt>
      <trkpt lat="38.890756" lon="-6.351996">
        <ele>225.558</ele>
        <time>2019-02-26T05:41:03Z</time>
      </trkpt>
      <trkpt lat="38.891081" lon="-6.351956">
        <ele>225.499</ele>
        <time>2019-02-26T05:41:16Z</time>
      </trkpt>
      <trkpt lat="38.891383" lon="-6.351499">
        <ele>225.038</ele>
        <time>2019-02-26T05:41:28Z</time>
      </trkpt>
      <trkpt lat="38.891766" lon="-6.350748">
        <ele>223.822</ele>
        <time>2019-02-26T05:41:44Z</time>
      </trkpt>
      <trkpt lat="38.892281" lon="-6.349976">
        <ele>221.975</ele>
        <time>2019-02-26T05:42:00Z</time>
      </trkpt>
      <trkpt lat="38.892883" lon="-6.349269">
        <ele>220.214</ele>
        <time>2019-02-26T05:42:16Z</time>
      </trkpt>
      <trkpt lat="38.893671" lon="-6.348539">
        <ele>218.913</ele>
        <time>2019-02-26T05:42:34Z</time>
      </trkpt>
      <trkpt lat="38.894465" lon="-6.348180">
        <ele>218.058</ele>
        <time>2019-02-26T05:42:51Z</time>
      </trkpt>
      <trkpt lat="38.895305" lon="-6.348107">
        <ele>217.252</ele>
        <time>2019-02-26T05:43:07Z</time>
      </trkpt>
      <trkpt lat="38.895411" lon="-6.348127">
        <ele>217.017</ele>
        <time>2019-02-26T05:43:09Z</time>
      </trkpt>
      <trkpt lat="38.896242" lon="-6.348168">
        <ele>215.408</ele>
        <time>2019-02-26T05:43:24Z</time>
      </trkpt>
      <trkpt lat="38.896353" lon="-6.348174">
        <ele>215.288</ele>
        <time>2019-02-26T05:43:26Z</time>
      </trkpt>
      <trkpt lat="38.896926" lon="-6.348070">
        <ele>213.619</ele>
        <time>2019-02-26T05:43:37Z</time>
      </trkpt>
      <trkpt lat="38.897165" lon="-6.348057">
        <ele>212.440</ele>
        <time>2019-02-26T05:43:42Z</time>
      </trkpt>
      <trkpt lat="38.897211" lon="-6.348060">
        <ele>212.219</ele>
        <time>2019-02-26T05:43:43Z</time>
      </trkpt>
      <trkpt lat="38.897261" lon="-6.348059">
        <ele>211.983</ele>
        <time>2019-02-26T05:43:44Z</time>
      </trkpt>
      <trkpt lat="38.898127" lon="-6.347950">
        <ele>210.426</ele>
        <time>2019-02-26T05:44:00Z</time>
      </trkpt>
      <trkpt lat="38.898275" lon="-6.347902">
        <ele>210.215</ele>
        <time>2019-02-26T05:44:03Z</time>
      </trkpt>
      <trkpt lat="38.899270" lon="-6.347810">
        <ele>209.814</ele>
        <time>2019-02-26T05:44:21Z</time>
      </trkpt>
      <trkpt lat="38.900134" lon="-6.347716">
        <ele>209.284</ele>
        <time>2019-02-26T05:44:38Z</time>
      </trkpt>
      <trkpt lat="38.900753" lon="-6.347475">
        <ele>208.707</ele>
        <time>2019-02-26T05:44:51Z</time>
      </trkpt>
      <trkpt lat="38.901006" lon="-6.347322">
        <ele>208.517</ele>
        <time>2019-02-26T05:44:57Z</time>
      </trkpt>
      <trkpt lat="38.901049" lon="-6.347301">
        <ele>208.508</ele>
        <time>2019-02-26T05:44:58Z</time>
      </trkpt>
      <trkpt lat="38.901088" lon="-6.347273">
        <ele>208.511</ele>
        <time>2019-02-26T05:44:59Z</time>
      </trkpt>
      <trkpt lat="38.901483" lon="-6.346950">
        <ele>208.552</ele>
        <time>2019-02-26T05:45:09Z</time>
      </trkpt>
      <trkpt lat="38.901527" lon="-6.346929">
        <ele>208.523</ele>
        <time>2019-02-26T05:45:10Z</time>
      </trkpt>
      <trkpt lat="38.901576" lon="-6.346915">
        <ele>208.592</ele>
        <time>2019-02-26T05:45:11Z</time>
      </trkpt>
      <trkpt lat="38.901622" lon="-6.346907">
        <ele>208.546</ele>
        <time>2019-02-26T05:45:12Z</time>
      </trkpt>
      <trkpt lat="38.901669" lon="-6.346904">
        <ele>208.549</ele>
        <time>2019-02-26T05:45:13Z</time>
      </trkpt>
      <trkpt lat="38.901716" lon="-6.346906">
        <ele>208.548</ele>
        <time>2019-02-26T05:45:14Z</time>
      </trkpt>
      <trkpt lat="38.901764" lon="-6.346914">
        <ele>208.587</ele>
        <time>2019-02-26T05:45:15Z</time>
      </trkpt>
      <trkpt lat="38.901812" lon="-6.346926">
        <ele>208.534</ele>
        <time>2019-02-26T05:45:16Z</time>
      </trkpt>
      <trkpt lat="38.901907" lon="-6.346950">
        <ele>208.455</ele>
        <time>2019-02-26T05:45:18Z</time>
      </trkpt>
      <trkpt lat="38.902455" lon="-6.347113">
        <ele>207.810</ele>
        <time>2019-02-26T05:45:29Z</time>
      </trkpt>
      <trkpt lat="38.903362" lon="-6.347116">
        <ele>207.308</ele>
        <time>2019-02-26T05:45:46Z</time>
      </trkpt>
      <trkpt lat="38.903414" lon="-6.347115">
        <ele>207.236</ele>
        <time>2019-02-26T05:45:47Z</time>
      </trkpt>
      <trkpt lat="38.904221" lon="-6.347033">
        <ele>206.987</ele>
        <time>2019-02-26T05:46:03Z</time>
      </trkpt>
      <trkpt lat="38.904271" lon="-6.347037">
        <ele>206.918</ele>
        <time>2019-02-26T05:46:04Z</time>
      </trkpt>
      <trkpt lat="38.904788" lon="-6.347042">
        <ele>207.057</ele>
        <time>2019-02-26T05:46:15Z</time>
      </trkpt>
      <trkpt lat="38.905411" lon="-6.347283">
        <ele>207.181</ele>
        <time>2019-02-26T05:46:30Z</time>
      </trkpt>
      <trkpt lat="38.905969" lon="-6.347511">
        <ele>207.114</ele>
        <time>2019-02-26T05:46:44Z</time>
      </trkpt>
      <trkpt lat="38.906012" lon="-6.347525">
        <ele>207.173</ele>
        <time>2019-02-26T05:46:45Z</time>
      </trkpt>
      <trkpt lat="38.906283" lon="-6.347638">
        <ele>207.052</ele>
        <time>2019-02-26T05:46:51Z</time>
      </trkpt>
      <trkpt lat="38.906328" lon="-6.347660">
        <ele>207.034</ele>
        <time>2019-02-26T05:46:52Z</time>
      </trkpt>
      <trkpt lat="38.906373" lon="-6.347681">
        <ele>206.955</ele>
        <time>2019-02-26T05:46:53Z</time>
      </trkpt>
      <trkpt lat="38.906416" lon="-6.347700">
        <ele>206.910</ele>
        <time>2019-02-26T05:46:54Z</time>
      </trkpt>
      <trkpt lat="38.906459" lon="-6.347719">
        <ele>206.908</ele>
        <time>2019-02-26T05:46:55Z</time>
      </trkpt>
      <trkpt lat="38.906685" lon="-6.347838">
        <ele>206.656</ele>
        <time>2019-02-26T05:47:00Z</time>
      </trkpt>
      <trkpt lat="38.906730" lon="-6.347865">
        <ele>206.547</ele>
        <time>2019-02-26T05:47:01Z</time>
      </trkpt>
      <trkpt lat="38.907247" lon="-6.348054">
        <ele>206.568</ele>
        <time>2019-02-26T05:47:15Z</time>
      </trkpt>
      <trkpt lat="38.907346" lon="-6.347903">
        <ele>206.457</ele>
        <time>2019-02-26T05:47:22Z</time>
      </trkpt>
      <trkpt lat="38.907363" lon="-6.347884">
        <ele>206.461</ele>
        <time>2019-02-26T05:47:23Z</time>
      </trkpt>
      <trkpt lat="38.907379" lon="-6.347871">
        <ele>206.374</ele>
        <time>2019-02-26T05:47:24Z</time>
      </trkpt>
      <trkpt lat="38.907395" lon="-6.347862">
        <ele>206.353</ele>
        <time>2019-02-26T05:47:25Z</time>
      </trkpt>
      <trkpt lat="38.907411" lon="-6.347854">
        <ele>206.212</ele>
        <time>2019-02-26T05:47:26Z</time>
      </trkpt>
      <trkpt lat="38.907426" lon="-6.347843">
        <ele>206.274</ele>
        <time>2019-02-26T05:47:27Z</time>
      </trkpt>
      <trkpt lat="38.907442" lon="-6.347831">
        <ele>206.156</ele>
        <time>2019-02-26T05:47:28Z</time>
      </trkpt>
      <trkpt lat="38.907502" lon="-6.347793">
        <ele>206.021</ele>
        <time>2019-02-26T05:47:36Z</time>
      </trkpt>
      <trkpt lat="38.907565" lon="-6.347767">
        <ele>205.808</ele>
        <time>2019-02-26T05:48:27Z</time>
      </trkpt>
      <trkpt lat="38.907802" lon="-6.347639">
        <ele>205.540</ele>
        <time>2019-02-26T05:48:39Z</time>
      </trkpt>
      <trkpt lat="38.907819" lon="-6.347639">
        <ele>205.491</ele>
        <time>2019-02-26T05:48:40Z</time>
      </trkpt>
      <trkpt lat="38.907863" lon="-6.347719">
        <ele>205.262</ele>
        <time>2019-02-26T05:48:44Z</time>
      </trkpt>
      <trkpt lat="38.907873" lon="-6.347750">
        <ele>205.261</ele>
        <time>2019-02-26T05:48:45Z</time>
      </trkpt>
      <trkpt lat="38.907887" lon="-6.347780">
        <ele>205.185</ele>
        <time>2019-02-26T05:48:46Z</time>
      </trkpt>
      <trkpt lat="38.907905" lon="-6.347809">
        <ele>205.068</ele>
        <time>2019-02-26T05:48:47Z</time>
      </trkpt>
      <trkpt lat="38.907927" lon="-6.347838">
        <ele>204.947</ele>
        <time>2019-02-26T05:48:48Z</time>
      </trkpt>
      <trkpt lat="38.907950" lon="-6.347868">
        <ele>204.856</ele>
        <time>2019-02-26T05:48:49Z</time>
      </trkpt>
      <trkpt lat="38.908352" lon="-6.348187">
        <ele>204.475</ele>
        <time>2019-02-26T05:49:03Z</time>
      </trkpt>
      <trkpt lat="38.908618" lon="-6.348370">
        <ele>204.528</ele>
        <time>2019-02-26T05:49:13Z</time>
      </trkpt>
      <trkpt lat="38.908706" lon="-6.348473">
        <ele>204.620</ele>
        <time>2019-02-26T05:49:16Z</time>
      </trkpt>
      <trkpt lat="38.908747" lon="-6.348565">
        <ele>204.608</ele>
        <time>2019-02-26T05:49:18Z</time>
      </trkpt>
      <trkpt lat="38.908764" lon="-6.348613">
        <ele>204.610</ele>
        <time>2019-02-26T05:49:19Z</time>
      </trkpt>
      <trkpt lat="38.908783" lon="-6.348658">
        <ele>204.631</ele>
        <time>2019-02-26T05:49:20Z</time>
      </trkpt>
      <trkpt lat="38.908804" lon="-6.348700">
        <ele>204.742</ele>
        <time>2019-02-26T05:49:21Z</time>
      </trkpt>
      <trkpt lat="38.908826" lon="-6.348738">
        <ele>204.771</ele>
        <time>2019-02-26T05:49:22Z</time>
      </trkpt>
      <trkpt lat="38.908849" lon="-6.348774">
        <ele>204.795</ele>
        <time>2019-02-26T05:49:23Z</time>
      </trkpt>
      <trkpt lat="38.909299" lon="-6.349279">
        <ele>205.298</ele>
        <time>2019-02-26T05:49:39Z</time>
      </trkpt>
      <trkpt lat="38.909829" lon="-6.349844">
        <ele>206.567</ele>
        <time>2019-02-26T05:49:59Z</time>
      </trkpt>
      <trkpt lat="38.910005" lon="-6.349923">
        <ele>206.266</ele>
        <time>2019-02-26T05:50:10Z</time>
      </trkpt>
      <trkpt lat="38.910007" lon="-6.349917">
        <ele>206.239</ele>
        <time>2019-02-26T05:50:11Z</time>
      </trkpt>
      <trkpt lat="38.910062" lon="-6.350019">
        <ele>206.101</ele>
        <time>2019-02-26T05:51:43Z</time>
      </trkpt>
      <trkpt lat="38.910395" lon="-6.350328">
        <ele>205.421</ele>
        <time>2019-02-26T05:51:55Z</time>
      </trkpt>
      <trkpt lat="38.910717" lon="-6.350606">
        <ele>204.508</ele>
        <time>2019-02-26T05:52:03Z</time>
      </trkpt>
      <trkpt lat="38.911296" lon="-6.351097">
        <ele>204.286</ele>
        <time>2019-02-26T05:52:18Z</time>
      </trkpt>
      <trkpt lat="38.911602" lon="-6.351399">
        <ele>204.287</ele>
        <time>2019-02-26T05:52:28Z</time>
      </trkpt>
      <trkpt lat="38.911781" lon="-6.351627">
        <ele>204.358</ele>
        <time>2019-02-26T05:52:37Z</time>
      </trkpt>
      <trkpt lat="38.911882" lon="-6.351689">
        <ele>204.217</ele>
        <time>2019-02-26T05:52:50Z</time>
      </trkpt>
      <trkpt lat="38.911927" lon="-6.351787">
        <ele>204.251</ele>
        <time>2019-02-26T05:53:07Z</time>
      </trkpt>
      <trkpt lat="38.911937" lon="-6.351806">
        <ele>204.234</ele>
        <time>2019-02-26T05:53:08Z</time>
      </trkpt>
      <trkpt lat="38.911950" lon="-6.351824">
        <ele>204.143</ele>
        <time>2019-02-26T05:53:09Z</time>
      </trkpt>
      <trkpt lat="38.911963" lon="-6.351842">
        <ele>204.162</ele>
        <time>2019-02-26T05:53:10Z</time>
      </trkpt>
      <trkpt lat="38.911973" lon="-6.351862">
        <ele>204.155</ele>
        <time>2019-02-26T05:53:11Z</time>
      </trkpt>
      <trkpt lat="38.911984" lon="-6.351885">
        <ele>204.007</ele>
        <time>2019-02-26T05:53:12Z</time>
      </trkpt>
      <trkpt lat="38.911998" lon="-6.351910">
        <ele>204.017</ele>
        <time>2019-02-26T05:53:13Z</time>
      </trkpt>
      <trkpt lat="38.912012" lon="-6.351939">
        <ele>203.908</ele>
        <time>2019-02-26T05:53:14Z</time>
      </trkpt>
      <trkpt lat="38.912025" lon="-6.351967">
        <ele>203.838</ele>
        <time>2019-02-26T05:53:15Z</time>
      </trkpt>
      <trkpt lat="38.912030" lon="-6.351996">
        <ele>203.819</ele>
        <time>2019-02-26T05:53:16Z</time>
      </trkpt>
      <trkpt lat="38.912026" lon="-6.352021">
        <ele>203.780</ele>
        <time>2019-02-26T05:53:17Z</time>
      </trkpt>
      <trkpt lat="38.912028" lon="-6.352036">
        <ele>203.639</ele>
        <time>2019-02-26T05:53:21Z</time>
      </trkpt>
      <trkpt lat="38.912014" lon="-6.352102">
        <ele>203.863</ele>
        <time>2019-02-26T05:53:40Z</time>
      </trkpt>
      <trkpt lat="38.911993" lon="-6.352171">
        <ele>203.926</ele>
        <time>2019-02-26T05:53:45Z</time>
      </trkpt>
      <trkpt lat="38.912009" lon="-6.352203">
        <ele>204.025</ele>
        <time>2019-02-26T05:53:48Z</time>
      </trkpt>
      <trkpt lat="38.912017" lon="-6.352213">
        <ele>204.064</ele>
        <time>2019-02-26T05:53:49Z</time>
      </trkpt>
      <trkpt lat="38.912025" lon="-6.352222">
        <ele>204.178</ele>
        <time>2019-02-26T05:53:50Z</time>
      </trkpt>
      <trkpt lat="38.912035" lon="-6.352235">
        <ele>204.133</ele>
        <time>2019-02-26T05:53:54Z</time>
      </trkpt>
      <trkpt lat="38.912109" lon="-6.352324">
        <ele>204.626</ele>
        <time>2019-02-26T05:54:23Z</time>
      </trkpt>
      <trkpt lat="38.912130" lon="-6.352362">
        <ele>204.708</ele>
        <time>2019-02-26T05:54:29Z</time>
      </trkpt>
      <trkpt lat="38.912237" lon="-6.352454">
        <ele>205.190</ele>
        <time>2019-02-26T05:54:54Z</time>
      </trkpt>
      <trkpt lat="38.912305" lon="-6.352373">
        <ele>204.861</ele>
        <time>2019-02-26T05:55:05Z</time>
      </trkpt>
      <trkpt lat="38.912327" lon="-6.352292">
        <ele>204.652</ele>
        <time>2019-02-26T05:55:32Z</time>
      </trkpt>
      <trkpt lat="38.912527" lon="-6.352012">
        <ele>203.421</ele>
        <time>2019-02-26T05:55:46Z</time>
      </trkpt>
      <trkpt lat="38.912542" lon="-6.352007">
        <ele>203.495</ele>
        <time>2019-02-26T05:55:51Z</time>
      </trkpt>
      <trkpt lat="38.912570" lon="-6.351949">
        <ele>203.268</ele>
        <time>2019-02-26T05:56:11Z</time>
      </trkpt>
      <trkpt lat="38.912819" lon="-6.351529">
        <ele>201.447</ele>
        <time>2019-02-26T05:56:25Z</time>
      </trkpt>
      <trkpt lat="38.912900" lon="-6.351432">
        <ele>200.966</ele>
        <time>2019-02-26T05:56:34Z</time>
      </trkpt>
      <trkpt lat="38.912899" lon="-6.351396">
        <ele>200.866</ele>
        <time>2019-02-26T05:56:57Z</time>
      </trkpt>
      <trkpt lat="38.912904" lon="-6.351351">
        <ele>200.729</ele>
        <time>2019-02-26T05:57:03Z</time>
      </trkpt>
      <trkpt lat="38.912953" lon="-6.351300">
        <ele>200.521</ele>
        <time>2019-02-26T05:57:18Z</time>
      </trkpt>
      <trkpt lat="38.912969" lon="-6.351276">
        <ele>200.408</ele>
        <time>2019-02-26T05:57:19Z</time>
      </trkpt>
      <trkpt lat="38.912984" lon="-6.351251">
        <ele>200.489</ele>
        <time>2019-02-26T05:57:20Z</time>
      </trkpt>
      <trkpt lat="38.913198" lon="-6.350892">
        <ele>199.550</ele>
        <time>2019-02-26T05:57:32Z</time>
      </trkpt>
      <trkpt lat="38.913357" lon="-6.350620">
        <ele>199.521</ele>
        <time>2019-02-26T05:57:44Z</time>
      </trkpt>
      <trkpt lat="38.913357" lon="-6.350619">
        <ele>199.520</ele>
        <time>2019-02-26T05:57:47Z</time>
      </trkpt>
      <trkpt lat="38.913393" lon="-6.350608">
        <ele>199.674</ele>
        <time>2019-02-26T05:58:05Z</time>
      </trkpt>
      <trkpt lat="38.913407" lon="-6.350591">
        <ele>199.697</ele>
        <time>2019-02-26T05:58:06Z</time>
      </trkpt>
      <trkpt lat="38.913418" lon="-6.350569">
        <ele>199.636</ele>
        <time>2019-02-26T05:58:07Z</time>
      </trkpt>
      <trkpt lat="38.913430" lon="-6.350549">
        <ele>199.665</ele>
        <time>2019-02-26T05:58:08Z</time>
      </trkpt>
      <trkpt lat="38.913444" lon="-6.350528">
        <ele>199.618</ele>
        <time>2019-02-26T05:58:09Z</time>
      </trkpt>
      <trkpt lat="38.913715" lon="-6.350070">
        <ele>198.698</ele>
        <time>2019-02-26T05:58:23Z</time>
      </trkpt>
      <trkpt lat="38.914191" lon="-6.349305">
        <ele>196.217</ele>
        <time>2019-02-26T05:58:41Z</time>
      </trkpt>
      <trkpt lat="38.914511" lon="-6.348816">
        <ele>199.408</ele>
        <time>2019-02-26T05:58:54Z</time>
      </trkpt>
      <trkpt lat="38.914708" lon="-6.348451">
        <ele>203.284</ele>
        <time>2019-02-26T05:59:07Z</time>
      </trkpt>
      <trkpt lat="38.914712" lon="-6.348452">
        <ele>203.245</ele>
        <time>2019-02-26T05:59:10Z</time>
      </trkpt>
      <trkpt lat="38.914786" lon="-6.348390">
        <ele>203.916</ele>
        <time>2019-02-26T06:00:00Z</time>
      </trkpt>
      <trkpt lat="38.915070" lon="-6.347916">
        <ele>207.375</ele>
        <time>2019-02-26T06:00:13Z</time>
      </trkpt>
      <trkpt lat="38.915120" lon="-6.347831">
        <ele>207.849</ele>
        <time>2019-02-26T06:00:21Z</time>
      </trkpt>
      <trkpt lat="38.915168" lon="-6.347880">
        <ele>208.172</ele>
        <time>2019-02-26T06:00:58Z</time>
      </trkpt>
      <trkpt lat="38.915191" lon="-6.347873">
        <ele>208.251</ele>
        <time>2019-02-26T06:00:59Z</time>
      </trkpt>
      <trkpt lat="38.915295" lon="-6.347850">
        <ele>209.660</ele>
        <time>2019-02-26T06:01:03Z</time>
      </trkpt>
      <trkpt lat="38.915319" lon="-6.347875">
        <ele>210.298</ele>
        <time>2019-02-26T06:01:04Z</time>
      </trkpt>
      <trkpt lat="38.915338" lon="-6.347913">
        <ele>209.715</ele>
        <time>2019-02-26T06:01:05Z</time>
      </trkpt>
      <trkpt lat="38.915354" lon="-6.347961">
        <ele>209.226</ele>
        <time>2019-02-26T06:01:06Z</time>
      </trkpt>
      <trkpt lat="38.915371" lon="-6.348014">
        <ele>208.708</ele>
        <time>2019-02-26T06:01:07Z</time>
      </trkpt>
      <trkpt lat="38.915440" lon="-6.348182">
        <ele>206.862</ele>
        <time>2019-02-26T06:01:10Z</time>
      </trkpt>
      <trkpt lat="38.915472" lon="-6.348232">
        <ele>206.793</ele>
        <time>2019-02-26T06:01:11Z</time>
      </trkpt>
      <trkpt lat="38.915733" lon="-6.348511">
        <ele>205.524</ele>
        <time>2019-02-26T06:01:22Z</time>
      </trkpt>
      <trkpt lat="38.915735" lon="-6.348510">
        <ele>205.533</ele>
        <time>2019-02-26T06:01:23Z</time>
      </trkpt>
      <trkpt lat="38.915689" lon="-6.348531">
        <ele>205.597</ele>
        <time>2019-02-26T06:01:31Z</time>
      </trkpt>
      <trkpt lat="38.915671" lon="-6.348511">
        <ele>205.520</ele>
        <time>2019-02-26T06:01:32Z</time>
      </trkpt>
      <trkpt lat="38.915654" lon="-6.348486">
        <ele>205.539</ele>
        <time>2019-02-26T06:01:33Z</time>
      </trkpt>
      <trkpt lat="38.915636" lon="-6.348469">
        <ele>205.578</ele>
        <time>2019-02-26T06:01:34Z</time>
      </trkpt>
      <trkpt lat="38.915617" lon="-6.348466">
        <ele>205.535</ele>
        <time>2019-02-26T06:01:35Z</time>
      </trkpt>
      <trkpt lat="38.915582" lon="-6.348516">
        <ele>205.586</ele>
        <time>2019-02-26T06:01:38Z</time>
      </trkpt>
      <trkpt lat="38.915570" lon="-6.348556">
        <ele>205.514</ele>
        <time>2019-02-26T06:01:45Z</time>
      </trkpt>
      <trkpt lat="38.915531" lon="-6.348510">
        <ele>205.608</ele>
        <time>2019-02-26T06:01:50Z</time>
      </trkpt>
      <trkpt lat="38.915502" lon="-6.348465">
        <ele>205.616</ele>
        <time>2019-02-26T06:01:52Z</time>
      </trkpt>
      <trkpt lat="38.915405" lon="-6.348276">
        <ele>205.697</ele>
        <time>2019-02-26T06:02:01Z</time>
      </trkpt>
      <trkpt lat="38.915416" lon="-6.348290">
        <ele>205.628</ele>
        <time>2019-02-26T06:02:09Z</time>
      </trkpt>
      <trkpt lat="38.915573" lon="-6.348536">
        <ele>205.637</ele>
        <time>2019-02-26T06:02:18Z</time>
      </trkpt>
      <trkpt lat="38.915586" lon="-6.348551">
        <ele>205.661</ele>
        <time>2019-02-26T06:02:19Z</time>
      </trkpt>
      <trkpt lat="38.915600" lon="-6.348573">
        <ele>205.674</ele>
        <time>2019-02-26T06:02:20Z</time>
      </trkpt>
      <trkpt lat="38.915619" lon="-6.348600">
        <ele>205.633</ele>
        <time>2019-02-26T06:02:21Z</time>
      </trkpt>
      <trkpt lat="38.915640" lon="-6.348625">
        <ele>205.692</ele>
        <time>2019-02-26T06:02:22Z</time>
      </trkpt>
      <trkpt lat="38.916002" lon="-6.349015">
        <ele>204.573</ele>
        <time>2019-02-26T06:02:36Z</time>
      </trkpt>
      <trkpt lat="38.916406" lon="-6.349439">
        <ele>203.685</ele>
        <time>2019-02-26T06:02:51Z</time>
      </trkpt>
      <trkpt lat="38.916702" lon="-6.349737">
        <ele>203.613</ele>
        <time>2019-02-26T06:03:03Z</time>
      </trkpt>
      <trkpt lat="38.916956" lon="-6.349996">
        <ele>204.708</ele>
        <time>2019-02-26T06:03:13Z</time>
      </trkpt>
      <trkpt lat="38.917118" lon="-6.350126">
        <ele>205.940</ele>
        <time>2019-02-26T06:03:19Z</time>
      </trkpt>
      <trkpt lat="38.917213" lon="-6.350033">
        <ele>207.011</ele>
        <time>2019-02-26T06:03:24Z</time>
      </trkpt>
      <trkpt lat="38.917322" lon="-6.350055">
        <ele>208.072</ele>
        <time>2019-02-26T06:03:28Z</time>
      </trkpt>
      <trkpt lat="38.917485" lon="-6.350197">
        <ele>209.621</ele>
        <time>2019-02-26T06:03:41Z</time>
      </trkpt>
      <trkpt lat="38.917477" lon="-6.350199">
        <ele>209.625</ele>
        <time>2019-02-26T06:03:42Z</time>
      </trkpt>
      <trkpt lat="38.917451" lon="-6.350295">
        <ele>209.658</ele>
        <time>2019-02-26T06:03:48Z</time>
      </trkpt>
      <trkpt lat="38.917456" lon="-6.350322">
        <ele>209.637</ele>
        <time>2019-02-26T06:03:49Z</time>
      </trkpt>
      <trkpt lat="38.917563" lon="-6.350746">
        <ele>209.186</ele>
        <time>2019-02-26T06:04:00Z</time>
      </trkpt>
      <trkpt lat="38.917594" lon="-6.350765">
        <ele>209.227</ele>
        <time>2019-02-26T06:04:01Z</time>
      </trkpt>
      <trkpt lat="38.917775" lon="-6.350839">
        <ele>211.968</ele>
        <time>2019-02-26T06:04:09Z</time>
      </trkpt>
      <trkpt lat="38.917797" lon="-6.350828">
        <ele>211.914</ele>
        <time>2019-02-26T06:04:10Z</time>
      </trkpt>
      <trkpt lat="38.917925" lon="-6.350718">
        <ele>215.508</ele>
        <time>2019-02-26T06:04:17Z</time>
      </trkpt>
      <trkpt lat="38.917939" lon="-6.350719">
        <ele>215.465</ele>
        <time>2019-02-26T06:04:18Z</time>
      </trkpt>
      <trkpt lat="38.917950" lon="-6.350729">
        <ele>215.476</ele>
        <time>2019-02-26T06:04:19Z</time>
      </trkpt>
      <trkpt lat="38.917960" lon="-6.350741">
        <ele>215.357</ele>
        <time>2019-02-26T06:04:20Z</time>
      </trkpt>
      <trkpt lat="38.917970" lon="-6.350756">
        <ele>215.336</ele>
        <time>2019-02-26T06:04:21Z</time>
      </trkpt>
      <trkpt lat="38.917981" lon="-6.350771">
        <ele>215.240</ele>
        <time>2019-02-26T06:04:22Z</time>
      </trkpt>
      <trkpt lat="38.917996" lon="-6.350779">
        <ele>215.183</ele>
        <time>2019-02-26T06:04:23Z</time>
      </trkpt>
      <trkpt lat="38.918014" lon="-6.350778">
        <ele>215.182</ele>
        <time>2019-02-26T06:04:24Z</time>
      </trkpt>
      <trkpt lat="38.918034" lon="-6.350771">
        <ele>215.021</ele>
        <time>2019-02-26T06:04:25Z</time>
      </trkpt>
      <trkpt lat="38.918051" lon="-6.350758">
        <ele>215.084</ele>
        <time>2019-02-26T06:04:26Z</time>
      </trkpt>
      <trkpt lat="38.918069" lon="-6.350739">
        <ele>214.907</ele>
        <time>2019-02-26T06:04:27Z</time>
      </trkpt>
      <trkpt lat="38.918093" lon="-6.350725">
        <ele>214.917</ele>
        <time>2019-02-26T06:04:28Z</time>
      </trkpt>
      <trkpt lat="38.918275" lon="-6.350754">
        <ele>214.308</ele>
        <time>2019-02-26T06:04:33Z</time>
      </trkpt>
      <trkpt lat="38.918884" lon="-6.351355">
        <ele>209.991</ele>
        <time>2019-02-26T06:04:48Z</time>
      </trkpt>
      <trkpt lat="38.919476" lon="-6.351998">
        <ele>204.912</ele>
        <time>2019-02-26T06:05:04Z</time>
      </trkpt>
      <trkpt lat="38.919740" lon="-6.352237">
        <ele>204.683</ele>
        <time>2019-02-26T06:05:17Z</time>
      </trkpt>
      <trkpt lat="38.920174" lon="-6.352719">
        <ele>204.032</ele>
        <time>2019-02-26T06:05:32Z</time>
      </trkpt>
      <trkpt lat="38.920275" lon="-6.352826">
        <ele>204.246</ele>
        <time>2019-02-26T06:05:40Z</time>
      </trkpt>
      <trkpt lat="38.920180" lon="-6.352763">
        <ele>204.379</ele>
        <time>2019-02-26T06:05:50Z</time>
      </trkpt>
      <trkpt lat="38.920189" lon="-6.352773">
        <ele>204.358</ele>
        <time>2019-02-26T06:05:51Z</time>
      </trkpt>
      <trkpt lat="38.920296" lon="-6.352888">
        <ele>204.567</ele>
        <time>2019-02-26T06:05:57Z</time>
      </trkpt>
      <trkpt lat="38.920294" lon="-6.352903">
        <ele>204.558</ele>
        <time>2019-02-26T06:05:58Z</time>
      </trkpt>
      <trkpt lat="38.920285" lon="-6.352916">
        <ele>204.552</ele>
        <time>2019-02-26T06:05:59Z</time>
      </trkpt>
      <trkpt lat="38.920274" lon="-6.352922">
        <ele>204.517</ele>
        <time>2019-02-26T06:06:00Z</time>
      </trkpt>
      <trkpt lat="38.920256" lon="-6.352928">
        <ele>204.508</ele>
        <time>2019-02-26T06:06:04Z</time>
      </trkpt>
      <trkpt lat="38.920283" lon="-6.352912">
        <ele>204.668</ele>
        <time>2019-02-26T09:16:48Z</time>
      </trkpt>
      <trkpt lat="38.920283" lon="-6.352912">
        <ele>204.629</ele>
        <time>2019-02-26T09:17:20Z</time>
      </trkpt>
      <trkpt lat="38.920118" lon="-6.352890">
        <ele>204.810</ele>
        <time>2019-02-26T22:35:04Z</time>
      </trkpt>
      <trkpt lat="38.920264" lon="-6.352893">
        <ele>204.949</ele>
        <time>2019-02-26T22:35:11Z</time>
      </trkpt>
      <trkpt lat="38.920142" lon="-6.352724">
        <ele>205.153</ele>
        <time>2019-02-26T22:35:26Z</time>
      </trkpt>
      <trkpt lat="38.920161" lon="-6.352707">
        <ele>205.276</ele>
        <time>2019-02-26T22:35:37Z</time>
      </trkpt>
      <trkpt lat="38.920193" lon="-6.352732">
        <ele>205.255</ele>
        <time>2019-02-26T22:35:45Z</time>
      </trkpt>
      <trkpt lat="38.920234" lon="-6.352780">
        <ele>205.374</ele>
        <time>2019-02-26T22:35:49Z</time>
      </trkpt>
      <trkpt lat="38.920304" lon="-6.352892">
        <ele>205.485</ele>
        <time>2019-02-26T22:36:05Z</time>
      </trkpt>
      <trkpt lat="38.920367" lon="-6.352950">
        <ele>205.589</ele>
        <time>2019-02-26T22:36:21Z</time>
      </trkpt>
      <trkpt lat="38.920598" lon="-6.353135">
        <ele>205.817</ele>
        <time>2019-02-26T22:36:36Z</time>
      </trkpt>
      <trkpt lat="38.920720" lon="-6.353241">
        <ele>206.008</ele>
        <time>2019-02-26T22:36:48Z</time>
      </trkpt>
      <trkpt lat="38.920747" lon="-6.353297">
        <ele>206.041</ele>
        <time>2019-02-26T22:37:09Z</time>
      </trkpt>
      <trkpt lat="38.921043" lon="-6.353455">
        <ele>206.342</ele>
        <time>2019-02-26T22:37:21Z</time>
      </trkpt>
      <trkpt lat="38.921066" lon="-6.353445">
        <ele>206.453</ele>
        <time>2019-02-26T22:37:22Z</time>
      </trkpt>
      <trkpt lat="38.921087" lon="-6.353427">
        <ele>206.452</ele>
        <time>2019-02-26T22:37:23Z</time>
      </trkpt>
      <trkpt lat="38.921106" lon="-6.353401">
        <ele>206.426</ele>
        <time>2019-02-26T22:37:24Z</time>
      </trkpt>
      <trkpt lat="38.921199" lon="-6.353320">
        <ele>208.699</ele>
        <time>2019-02-26T22:37:29Z</time>
      </trkpt>
      <trkpt lat="38.921226" lon="-6.353323">
        <ele>208.658</ele>
        <time>2019-02-26T22:37:30Z</time>
      </trkpt>
      <trkpt lat="38.921253" lon="-6.353332">
        <ele>208.627</ele>
        <time>2019-02-26T22:37:31Z</time>
      </trkpt>
      <trkpt lat="38.921280" lon="-6.353346">
        <ele>208.688</ele>
        <time>2019-02-26T22:37:32Z</time>
      </trkpt>
      <trkpt lat="38.921304" lon="-6.353360">
        <ele>208.524</ele>
        <time>2019-02-26T22:37:33Z</time>
      </trkpt>
      <trkpt lat="38.921323" lon="-6.353371">
        <ele>208.526</ele>
        <time>2019-02-26T22:37:34Z</time>
      </trkpt>
      <trkpt lat="38.921341" lon="-6.353383">
        <ele>208.508</ele>
        <time>2019-02-26T22:37:35Z</time>
      </trkpt>
      <trkpt lat="38.921716" lon="-6.353417">
        <ele>209.821</ele>
        <time>2019-02-26T22:37:47Z</time>
      </trkpt>
      <trkpt lat="38.921886" lon="-6.353049">
        <ele>212.872</ele>
        <time>2019-02-26T22:37:58Z</time>
      </trkpt>
      <trkpt lat="38.922074" lon="-6.352682">
        <ele>214.753</ele>
        <time>2019-02-26T22:38:10Z</time>
      </trkpt>
      <trkpt lat="38.922338" lon="-6.352058">
        <ele>214.122</ele>
        <time>2019-02-26T22:38:26Z</time>
      </trkpt>
      <trkpt lat="38.922400" lon="-6.351909">
        <ele>213.926</ele>
        <time>2019-02-26T22:38:30Z</time>
      </trkpt>
      <trkpt lat="38.922427" lon="-6.351899">
        <ele>213.439</ele>
        <time>2019-02-26T22:38:31Z</time>
      </trkpt>
      <trkpt lat="38.922455" lon="-6.351905">
        <ele>212.978</ele>
        <time>2019-02-26T22:38:32Z</time>
      </trkpt>
      <trkpt lat="38.922488" lon="-6.351926">
        <ele>212.597</ele>
        <time>2019-02-26T22:38:33Z</time>
      </trkpt>
      <trkpt lat="38.922529" lon="-6.351952">
        <ele>211.998</ele>
        <time>2019-02-26T22:38:34Z</time>
      </trkpt>
      <trkpt lat="38.922580" lon="-6.351975">
        <ele>211.215</ele>
        <time>2019-02-26T22:38:35Z</time>
      </trkpt>
      <trkpt lat="38.923204" lon="-6.352188">
        <ele>205.526</ele>
        <time>2019-02-26T22:38:45Z</time>
      </trkpt>
      <trkpt lat="38.923255" lon="-6.352189">
        <ele>205.508</ele>
        <time>2019-02-26T22:38:46Z</time>
      </trkpt>
      <trkpt lat="38.923657" lon="-6.352099">
        <ele>206.312</ele>
        <time>2019-02-26T22:38:56Z</time>
      </trkpt>
      <trkpt lat="38.923674" lon="-6.352056">
        <ele>206.333</ele>
        <time>2019-02-26T22:38:57Z</time>
      </trkpt>
      <trkpt lat="38.923680" lon="-6.352005">
        <ele>206.334</ele>
        <time>2019-02-26T22:38:58Z</time>
      </trkpt>
      <trkpt lat="38.923682" lon="-6.351049">
        <ele>206.863</ele>
        <time>2019-02-26T22:39:13Z</time>
      </trkpt>
      <trkpt lat="38.923752" lon="-6.350529">
        <ele>208.067</ele>
        <time>2019-02-26T22:39:21Z</time>
      </trkpt>
      <trkpt lat="38.923764" lon="-6.350473">
        <ele>208.170</ele>
        <time>2019-02-26T22:39:22Z</time>
      </trkpt>
      <trkpt lat="38.923811" lon="-6.350004">
        <ele>207.959</ele>
        <time>2019-02-26T22:39:34Z</time>
      </trkpt>
      <trkpt lat="38.923873" lon="-6.349697">
        <ele>207.858</ele>
        <time>2019-02-26T22:39:47Z</time>
      </trkpt>
      <trkpt lat="38.923995" lon="-6.349390">
        <ele>208.175</ele>
        <time>2019-02-26T22:40:03Z</time>
      </trkpt>
      <trkpt lat="38.924007" lon="-6.349408">
        <ele>208.128</ele>
        <time>2019-02-26T22:42:14Z</time>
      </trkpt>
      <trkpt lat="38.924023" lon="-6.349387">
        <ele>208.220</ele>
        <time>2019-02-26T22:42:15Z</time>
      </trkpt>
      <trkpt lat="38.924037" lon="-6.349361">
        <ele>208.208</ele>
        <time>2019-02-26T22:42:16Z</time>
      </trkpt>
      <trkpt lat="38.924053" lon="-6.349332">
        <ele>208.360</ele>
        <time>2019-02-26T22:42:17Z</time>
      </trkpt>
      <trkpt lat="38.924384" lon="-6.349077">
        <ele>209.991</ele>
        <time>2019-02-26T22:42:32Z</time>
      </trkpt>
      <trkpt lat="38.924420" lon="-6.349075">
        <ele>210.122</ele>
        <time>2019-02-26T22:42:40Z</time>
      </trkpt>
      <trkpt lat="38.924481" lon="-6.349071">
        <ele>210.431</ele>
        <time>2019-02-26T22:42:48Z</time>
      </trkpt>
      <trkpt lat="38.924532" lon="-6.348945">
        <ele>211.095</ele>
        <time>2019-02-26T22:43:02Z</time>
      </trkpt>
      <trkpt lat="38.924521" lon="-6.348944">
        <ele>211.168</ele>
        <time>2019-02-26T22:43:03Z</time>
      </trkpt>
      <trkpt lat="38.924510" lon="-6.348941">
        <ele>211.187</ele>
        <time>2019-02-26T22:43:04Z</time>
      </trkpt>
      <trkpt lat="38.924517" lon="-6.348932">
        <ele>211.296</ele>
        <time>2019-02-26T22:43:08Z</time>
      </trkpt>
      <trkpt lat="38.924644" lon="-6.348916">
        <ele>211.859</ele>
        <time>2019-02-26T22:44:49Z</time>
      </trkpt>
      <trkpt lat="38.924662" lon="-6.348911">
        <ele>211.803</ele>
        <time>2019-02-26T22:44:50Z</time>
      </trkpt>
      <trkpt lat="38.924680" lon="-6.348904">
        <ele>211.823</ele>
        <time>2019-02-26T22:44:51Z</time>
      </trkpt>
      <trkpt lat="38.924703" lon="-6.348890">
        <ele>211.908</ele>
        <time>2019-02-26T22:44:52Z</time>
      </trkpt>
      <trkpt lat="38.924728" lon="-6.348879">
        <ele>211.998</ele>
        <time>2019-02-26T22:44:53Z</time>
      </trkpt>
      <trkpt lat="38.924967" lon="-6.348790">
        <ele>213.019</ele>
        <time>2019-02-26T22:45:06Z</time>
      </trkpt>
      <trkpt lat="38.925164" lon="-6.348632">
        <ele>213.880</ele>
        <time>2019-02-26T22:45:18Z</time>
      </trkpt>
      <trkpt lat="38.925262" lon="-6.348454">
        <ele>214.269</ele>
        <time>2019-02-26T22:45:23Z</time>
      </trkpt>
      <trkpt lat="38.925373" lon="-6.348628">
        <ele>214.223</ele>
        <time>2019-02-26T22:45:32Z</time>
      </trkpt>
      <trkpt lat="38.925385" lon="-6.348661">
        <ele>214.266</ele>
        <time>2019-02-26T22:45:36Z</time>
      </trkpt>
      <trkpt lat="38.925402" lon="-6.348681">
        <ele>214.215</ele>
        <time>2019-02-26T22:45:38Z</time>
      </trkpt>
      <trkpt lat="38.925435" lon="-6.348706">
        <ele>214.194</ele>
        <time>2019-02-26T22:45:40Z</time>
      </trkpt>
      <trkpt lat="38.925510" lon="-6.348809">
        <ele>214.243</ele>
        <time>2019-02-26T22:45:44Z</time>
      </trkpt>
      <trkpt lat="38.925503" lon="-6.348851">
        <ele>214.264</ele>
        <time>2019-02-26T22:45:45Z</time>
      </trkpt>
      <trkpt lat="38.925472" lon="-6.349111">
        <ele>213.510</ele>
        <time>2019-02-26T22:45:54Z</time>
      </trkpt>
      <trkpt lat="38.925443" lon="-6.348840">
        <ele>213.808</ele>
        <time>2019-02-26T22:46:05Z</time>
      </trkpt>
      <trkpt lat="38.925437" lon="-6.348710">
        <ele>214.197</ele>
        <time>2019-02-26T22:46:14Z</time>
      </trkpt>
      <trkpt lat="38.925434" lon="-6.348675">
        <ele>214.118</ele>
        <time>2019-02-26T22:46:31Z</time>
      </trkpt>
      <trkpt lat="38.925448" lon="-6.348681">
        <ele>214.199</ele>
        <time>2019-02-26T22:46:32Z</time>
      </trkpt>
      <trkpt lat="38.925547" lon="-6.348774">
        <ele>214.378</ele>
        <time>2019-02-26T22:46:42Z</time>
      </trkpt>
      <trkpt lat="38.925637" lon="-6.348773">
        <ele>214.392</ele>
        <time>2019-02-26T22:46:49Z</time>
      </trkpt>
      <trkpt lat="38.925995" lon="-6.348863">
        <ele>214.695</ele>
        <time>2019-02-26T22:47:02Z</time>
      </trkpt>
      <trkpt lat="38.926014" lon="-6.348874">
        <ele>214.624</ele>
        <time>2019-02-26T22:47:03Z</time>
      </trkpt>
      <trkpt lat="38.926032" lon="-6.348898">
        <ele>214.683</ele>
        <time>2019-02-26T22:47:04Z</time>
      </trkpt>
      <trkpt lat="38.926113" lon="-6.348992">
        <ele>214.262</ele>
        <time>2019-02-26T22:47:07Z</time>
      </trkpt>
      <trkpt lat="38.926156" lon="-6.349008">
        <ele>214.183</ele>
        <time>2019-02-26T22:47:08Z</time>
      </trkpt>
      <trkpt lat="38.926198" lon="-6.349015">
        <ele>214.111</ele>
        <time>2019-02-26T22:47:09Z</time>
      </trkpt>
      <trkpt lat="38.926237" lon="-6.349015">
        <ele>214.008</ele>
        <time>2019-02-26T22:47:10Z</time>
      </trkpt>
      <trkpt lat="38.926273" lon="-6.349013">
        <ele>214.059</ele>
        <time>2019-02-26T22:47:11Z</time>
      </trkpt>
      <trkpt lat="38.926679" lon="-6.349039">
        <ele>214.090</ele>
        <time>2019-02-26T22:47:22Z</time>
      </trkpt>
      <trkpt lat="38.927123" lon="-6.349135">
        <ele>213.971</ele>
        <time>2019-02-26T22:47:36Z</time>
      </trkpt>
      <trkpt lat="38.927639" lon="-6.349202">
        <ele>214.550</ele>
        <time>2019-02-26T22:47:52Z</time>
      </trkpt>
      <trkpt lat="38.928140" lon="-6.349313">
        <ele>215.514</ele>
        <time>2019-02-26T22:48:09Z</time>
      </trkpt>
      <trkpt lat="38.928799" lon="-6.349488">
        <ele>216.547</ele>
        <time>2019-02-26T22:48:31Z</time>
      </trkpt>
      <trkpt lat="38.929401" lon="-6.349651">
        <ele>218.036</ele>
        <time>2019-02-26T22:48:53Z</time>
      </trkpt>
      <trkpt lat="38.929780" lon="-6.349833">
        <ele>219.725</ele>
        <time>2019-02-26T22:49:10Z</time>
      </trkpt>
      <trkpt lat="38.930073" lon="-6.349857">
        <ele>222.178</ele>
        <time>2019-02-26T22:49:22Z</time>
      </trkpt>
      <trkpt lat="38.930318" lon="-6.350262">
        <ele>223.933</ele>
        <time>2019-02-26T22:49:34Z</time>
      </trkpt>
      <trkpt lat="38.930776" lon="-6.350567">
        <ele>225.826</ele>
        <time>2019-02-26T22:49:49Z</time>
      </trkpt>
      <trkpt lat="38.931342" lon="-6.350953">
        <ele>227.408</ele>
        <time>2019-02-26T22:50:11Z</time>
      </trkpt>
      <trkpt lat="38.931897" lon="-6.351295">
        <ele>229.180</ele>
        <time>2019-02-26T22:50:32Z</time>
      </trkpt>
      <trkpt lat="38.932429" lon="-6.351527">
        <ele>230.171</ele>
        <time>2019-02-26T22:50:51Z</time>
      </trkpt>
      <trkpt lat="38.933049" lon="-6.351691">
        <ele>231.352</ele>
        <time>2019-02-26T22:51:10Z</time>
      </trkpt>
      <trkpt lat="38.933652" lon="-6.351822">
        <ele>232.671</ele>
        <time>2019-02-26T22:51:29Z</time>
      </trkpt>
      <trkpt lat="38.934093" lon="-6.351899">
        <ele>234.285</ele>
        <time>2019-02-26T22:51:45Z</time>
      </trkpt>
      <trkpt lat="38.934550" lon="-6.351912">
        <ele>235.858</ele>
        <time>2019-02-26T22:52:03Z</time>
      </trkpt>
      <trkpt lat="38.935015" lon="-6.351854">
        <ele>237.617</ele>
        <time>2019-02-26T22:52:21Z</time>
      </trkpt>
      <trkpt lat="38.935517" lon="-6.351851">
        <ele>242.226</ele>
        <time>2019-02-26T22:52:41Z</time>
      </trkpt>
      <trkpt lat="38.935899" lon="-6.351933">
        <ele>242.969</ele>
        <time>2019-02-26T22:52:58Z</time>
      </trkpt>
      <trkpt lat="38.936222" lon="-6.351980">
        <ele>243.804</ele>
        <time>2019-02-26T22:53:13Z</time>
      </trkpt>
      <trkpt lat="38.936551" lon="-6.351888">
        <ele>244.724</ele>
        <time>2019-02-26T22:53:25Z</time>
      </trkpt>
      <trkpt lat="38.936895" lon="-6.352204">
        <ele>246.708</ele>
        <time>2019-02-26T22:53:38Z</time>
      </trkpt>
      <trkpt lat="38.937282" lon="-6.352255">
        <ele>247.999</ele>
        <time>2019-02-26T22:53:52Z</time>
      </trkpt>
      <trkpt lat="38.937725" lon="-6.352364">
        <ele>249.220</ele>
        <time>2019-02-26T22:54:11Z</time>
      </trkpt>
      <trkpt lat="38.938155" lon="-6.352503">
        <ele>250.371</ele>
        <time>2019-02-26T22:54:28Z</time>
      </trkpt>
      <trkpt lat="38.938614" lon="-6.352621">
        <ele>251.540</ele>
        <time>2019-02-26T22:54:46Z</time>
      </trkpt>
      <trkpt lat="38.939145" lon="-6.352770">
        <ele>253.294</ele>
        <time>2019-02-26T22:55:07Z</time>
      </trkpt>
      <trkpt lat="38.939647" lon="-6.352917">
        <ele>255.197</ele>
        <time>2019-02-26T22:55:27Z</time>
      </trkpt>
      <trkpt lat="38.940097" lon="-6.353077">
        <ele>256.166</ele>
        <time>2019-02-26T22:55:45Z</time>
      </trkpt>
      <trkpt lat="38.940626" lon="-6.353306">
        <ele>257.145</ele>
        <time>2019-02-26T22:56:06Z</time>
      </trkpt>
      <trkpt lat="38.941102" lon="-6.353493">
        <ele>258.518</ele>
        <time>2019-02-26T22:56:25Z</time>
      </trkpt>
      <trkpt lat="38.941510" lon="-6.353619">
        <ele>259.498</ele>
        <time>2019-02-26T22:56:40Z</time>
      </trkpt>
      <trkpt lat="38.941989" lon="-6.353742">
        <ele>259.617</ele>
        <time>2019-02-26T22:56:57Z</time>
      </trkpt>
      <trkpt lat="38.942504" lon="-6.353853">
        <ele>259.708</ele>
        <time>2019-02-26T22:57:15Z</time>
      </trkpt>
      <trkpt lat="38.943019" lon="-6.353963">
        <ele>259.424</ele>
        <time>2019-02-26T22:57:31Z</time>
      </trkpt>
      <trkpt lat="38.943433" lon="-6.354074">
        <ele>257.625</ele>
        <time>2019-02-26T22:57:41Z</time>
      </trkpt>
      <trkpt lat="38.944173" lon="-6.354264">
        <ele>257.566</ele>
        <time>2019-02-26T22:57:57Z</time>
      </trkpt>
      <trkpt lat="38.945254" lon="-6.354687">
        <ele>261.385</ele>
        <time>2019-02-26T22:58:17Z</time>
      </trkpt>
      <trkpt lat="38.945885" lon="-6.354967">
        <ele>263.599</ele>
        <time>2019-02-26T22:58:34Z</time>
      </trkpt>
      <trkpt lat="38.946281" lon="-6.355083">
        <ele>264.782</ele>
        <time>2019-02-26T22:58:49Z</time>
      </trkpt>
      <trkpt lat="38.946849" lon="-6.354969">
        <ele>266.541</ele>
        <time>2019-02-26T22:59:08Z</time>
      </trkpt>
      <trkpt lat="38.947349" lon="-6.354837">
        <ele>268.350</ele>
        <time>2019-02-26T22:59:25Z</time>
      </trkpt>
      <trkpt lat="38.947669" lon="-6.354812">
        <ele>269.617</ele>
        <time>2019-02-26T22:59:38Z</time>
      </trkpt>
      <trkpt lat="38.948273" lon="-6.354811">
        <ele>271.687</ele>
        <time>2019-02-26T22:59:57Z</time>
      </trkpt>
      <trkpt lat="38.948759" lon="-6.354816">
        <ele>273.415</ele>
        <time>2019-02-26T23:00:14Z</time>
      </trkpt>
      <trkpt lat="38.949297" lon="-6.354871">
        <ele>274.408</ele>
        <time>2019-02-26T23:00:33Z</time>
      </trkpt>
      <trkpt lat="38.949864" lon="-6.355085">
        <ele>275.564</ele>
        <time>2019-02-26T23:00:54Z</time>
      </trkpt>
      <trkpt lat="38.950413" lon="-6.355386">
        <ele>278.255</ele>
        <time>2019-02-26T23:01:16Z</time>
      </trkpt>
      <trkpt lat="38.950886" lon="-6.355625">
        <ele>280.326</ele>
        <time>2019-02-26T23:01:37Z</time>
      </trkpt>
      <trkpt lat="38.951295" lon="-6.355771">
        <ele>280.755</ele>
        <time>2019-02-26T23:01:53Z</time>
      </trkpt>
      <trkpt lat="38.951783" lon="-6.356003">
        <ele>283.489</ele>
        <time>2019-02-26T23:02:13Z</time>
      </trkpt>
      <trkpt lat="38.952310" lon="-6.356249">
        <ele>287.172</ele>
        <time>2019-02-26T23:02:35Z</time>
      </trkpt>
      <trkpt lat="38.952671" lon="-6.356417">
        <ele>289.181</ele>
        <time>2019-02-26T23:02:52Z</time>
      </trkpt>
      <trkpt lat="38.952999" lon="-6.356558">
        <ele>291.340</ele>
        <time>2019-02-26T23:03:09Z</time>
      </trkpt>
      <trkpt lat="38.953328" lon="-6.356706">
        <ele>293.893</ele>
        <time>2019-02-26T23:03:26Z</time>
      </trkpt>
      <trkpt lat="38.953767" lon="-6.356861">
        <ele>297.065</ele>
        <time>2019-02-26T23:03:46Z</time>
      </trkpt>
      <trkpt lat="38.954075" lon="-6.356750">
        <ele>299.321</ele>
        <time>2019-02-26T23:04:01Z</time>
      </trkpt>
      <trkpt lat="38.954340" lon="-6.356644">
        <ele>300.408</ele>
        <time>2019-02-26T23:04:15Z</time>
      </trkpt>
      <trkpt lat="38.954645" lon="-6.356891">
        <ele>300.262</ele>
        <time>2019-02-26T23:04:31Z</time>
      </trkpt>
      <trkpt lat="38.954790" lon="-6.357087">
        <ele>299.063</ele>
        <time>2019-02-26T23:04:37Z</time>
      </trkpt>
      <trkpt lat="38.954839" lon="-6.357112">
        <ele>298.714</ele>
        <time>2019-02-26T23:04:38Z</time>
      </trkpt>
      <trkpt lat="38.954893" lon="-6.357130">
        <ele>298.363</ele>
        <time>2019-02-26T23:04:39Z</time>
      </trkpt>
      <trkpt lat="38.954950" lon="-6.357143">
        <ele>297.897</ele>
        <time>2019-02-26T23:04:40Z</time>
      </trkpt>
      <trkpt lat="38.955008" lon="-6.357157">
        <ele>297.360</ele>
        <time>2019-02-26T23:04:41Z</time>
      </trkpt>
      <trkpt lat="38.955980" lon="-6.357352">
        <ele>289.319</ele>
        <time>2019-02-26T23:04:53Z</time>
      </trkpt>
      <trkpt lat="38.956493" lon="-6.357483">
        <ele>286.158</ele>
        <time>2019-02-26T23:04:58Z</time>
      </trkpt>
      <trkpt lat="38.957043" lon="-6.357842">
        <ele>283.732</ele>
        <time>2019-02-26T23:05:04Z</time>
      </trkpt>
      <trkpt lat="38.957560" lon="-6.358554">
        <ele>279.992</ele>
        <time>2019-02-26T23:05:12Z</time>
      </trkpt>
      <trkpt lat="38.957967" lon="-6.359270">
        <ele>275.511</ele>
        <time>2019-02-26T23:05:19Z</time>
      </trkpt>
      <trkpt lat="38.958344" lon="-6.359917">
        <ele>271.208</ele>
        <time>2019-02-26T23:05:25Z</time>
      </trkpt>
      <trkpt lat="38.958687" lon="-6.360501">
        <ele>266.866</ele>
        <time>2019-02-26T23:05:30Z</time>
      </trkpt>
      <trkpt lat="38.959040" lon="-6.361095">
        <ele>263.527</ele>
        <time>2019-02-26T23:05:35Z</time>
      </trkpt>
      <trkpt lat="38.959382" lon="-6.361672">
        <ele>260.378</ele>
        <time>2019-02-26T23:05:40Z</time>
      </trkpt>
      <trkpt lat="38.959647" lon="-6.362124">
        <ele>257.867</ele>
        <time>2019-02-26T23:05:44Z</time>
      </trkpt>
      <trkpt lat="38.960093" lon="-6.362743">
        <ele>254.361</ele>
        <time>2019-02-26T23:05:50Z</time>
      </trkpt>
      <trkpt lat="38.960179" lon="-6.362826">
        <ele>253.834</ele>
        <time>2019-02-26T23:05:51Z</time>
      </trkpt>
      <trkpt lat="38.960267" lon="-6.362899">
        <ele>253.353</ele>
        <time>2019-02-26T23:05:52Z</time>
      </trkpt>
      <trkpt lat="38.960816" lon="-6.363204">
        <ele>251.652</ele>
        <time>2019-02-26T23:05:58Z</time>
      </trkpt>
      <trkpt lat="38.961502" lon="-6.363494">
        <ele>249.087</ele>
        <time>2019-02-26T23:06:06Z</time>
      </trkpt>
      <trkpt lat="38.962329" lon="-6.363848">
        <ele>244.642</ele>
        <time>2019-02-26T23:06:17Z</time>
      </trkpt>
      <trkpt lat="38.963031" lon="-6.364146">
        <ele>242.226</ele>
        <time>2019-02-26T23:06:25Z</time>
      </trkpt>
      <trkpt lat="38.963505" lon="-6.364363">
        <ele>241.608</ele>
        <time>2019-02-26T23:06:31Z</time>
      </trkpt>
      <trkpt lat="38.963568" lon="-6.364393">
        <ele>241.661</ele>
        <time>2019-02-26T23:06:32Z</time>
      </trkpt>
      <trkpt lat="38.963632" lon="-6.364408">
        <ele>241.642</ele>
        <time>2019-02-26T23:06:33Z</time>
      </trkpt>
      <trkpt lat="38.963696" lon="-6.364405">
        <ele>241.553</ele>
        <time>2019-02-26T23:06:34Z</time>
      </trkpt>
      <trkpt lat="38.963759" lon="-6.364390">
        <ele>241.592</ele>
        <time>2019-02-26T23:06:35Z</time>
      </trkpt>
      <trkpt lat="38.963820" lon="-6.364375">
        <ele>241.566</ele>
        <time>2019-02-26T23:06:36Z</time>
      </trkpt>
      <trkpt lat="38.963987" lon="-6.364360">
        <ele>241.579</ele>
        <time>2019-02-26T23:06:39Z</time>
      </trkpt>
      <trkpt lat="38.964032" lon="-6.364371">
        <ele>241.588</ele>
        <time>2019-02-26T23:06:40Z</time>
      </trkpt>
      <trkpt lat="38.964069" lon="-6.364390">
        <ele>241.537</ele>
        <time>2019-02-26T23:06:41Z</time>
      </trkpt>
      <trkpt lat="38.964105" lon="-6.364416">
        <ele>241.554</ele>
        <time>2019-02-26T23:06:42Z</time>
      </trkpt>
      <trkpt lat="38.964136" lon="-6.364450">
        <ele>241.556</ele>
        <time>2019-02-26T23:06:43Z</time>
      </trkpt>
      <trkpt lat="38.964159" lon="-6.364494">
        <ele>241.511</ele>
        <time>2019-02-26T23:06:44Z</time>
      </trkpt>
      <trkpt lat="38.964181" lon="-6.364537">
        <ele>241.508</ele>
        <time>2019-02-26T23:06:45Z</time>
      </trkpt>
      <trkpt lat="38.964208" lon="-6.364573">
        <ele>241.518</ele>
        <time>2019-02-26T23:06:46Z</time>
      </trkpt>
      <trkpt lat="38.964236" lon="-6.364602">
        <ele>241.549</ele>
        <time>2019-02-26T23:06:47Z</time>
      </trkpt>
      <trkpt lat="38.964263" lon="-6.364622">
        <ele>241.890</ele>
        <time>2019-02-26T23:06:48Z</time>
      </trkpt>
      <trkpt lat="38.964291" lon="-6.364635">
        <ele>242.049</ele>
        <time>2019-02-26T23:06:49Z</time>
      </trkpt>
      <trkpt lat="38.964317" lon="-6.364642">
        <ele>242.363</ele>
        <time>2019-02-26T23:06:50Z</time>
      </trkpt>
      <trkpt lat="38.964491" lon="-6.364624">
        <ele>243.696</ele>
        <time>2019-02-26T23:06:58Z</time>
      </trkpt>
      <trkpt lat="38.964484" lon="-6.364646">
        <ele>243.785</ele>
        <time>2019-02-26T23:07:00Z</time>
      </trkpt>
      <trkpt lat="38.964464" lon="-6.364650">
        <ele>243.834</ele>
        <time>2019-02-26T23:07:01Z</time>
      </trkpt>
      <trkpt lat="38.964439" lon="-6.364646">
        <ele>243.933</ele>
        <time>2019-02-26T23:07:02Z</time>
      </trkpt>
      <trkpt lat="38.964411" lon="-6.364639">
        <ele>244.023</ele>
        <time>2019-02-26T23:07:03Z</time>
      </trkpt>
      <trkpt lat="38.964380" lon="-6.364645">
        <ele>244.215</ele>
        <time>2019-02-26T23:07:04Z</time>
      </trkpt>
      <trkpt lat="38.964356" lon="-6.364665">
        <ele>244.308</ele>
        <time>2019-02-26T23:07:05Z</time>
      </trkpt>
      <trkpt lat="38.964349" lon="-6.364695">
        <ele>244.446</ele>
        <time>2019-02-26T23:07:06Z</time>
      </trkpt>
      <trkpt lat="38.964363" lon="-6.364723">
        <ele>244.457</ele>
        <time>2019-02-26T23:07:07Z</time>
      </trkpt>
      <trkpt lat="38.964390" lon="-6.364744">
        <ele>244.578</ele>
        <time>2019-02-26T23:07:08Z</time>
      </trkpt>
      <trkpt lat="38.964422" lon="-6.364759">
        <ele>244.667</ele>
        <time>2019-02-26T23:07:09Z</time>
      </trkpt>
      <trkpt lat="38.964459" lon="-6.364774">
        <ele>244.691</ele>
        <time>2019-02-26T23:07:10Z</time>
      </trkpt>
      <trkpt lat="38.965004" lon="-6.365016">
        <ele>244.384</ele>
        <time>2019-02-26T23:07:25Z</time>
      </trkpt>
      <trkpt lat="38.965323" lon="-6.365149">
        <ele>243.443</ele>
        <time>2019-02-26T23:07:40Z</time>
      </trkpt>
      <trkpt lat="38.965713" lon="-6.365305">
        <ele>242.512</ele>
        <time>2019-02-26T23:07:52Z</time>
      </trkpt>
      <trkpt lat="38.966083" lon="-6.365477">
        <ele>242.074</ele>
        <time>2019-02-26T23:08:01Z</time>
      </trkpt>
      <trkpt lat="38.966122" lon="-6.365497">
        <ele>242.056</ele>
        <time>2019-02-26T23:08:02Z</time>
      </trkpt>
      <trkpt lat="38.966681" lon="-6.365952">
        <ele>241.521</ele>
        <time>2019-02-26T23:08:19Z</time>
      </trkpt>
      <trkpt lat="38.967004" lon="-6.365981">
        <ele>241.008</ele>
        <time>2019-02-26T23:08:31Z</time>
      </trkpt>
      <trkpt lat="38.967240" lon="-6.366061">
        <ele>240.540</ele>
        <time>2019-02-26T23:08:44Z</time>
      </trkpt>
      <trkpt lat="38.967254" lon="-6.366064">
        <ele>240.511</ele>
        <time>2019-02-26T23:08:49Z</time>
      </trkpt>
      <trkpt lat="38.967209" lon="-6.366131">
        <ele>240.592</ele>
        <time>2019-02-26T23:12:11Z</time>
      </trkpt>
      <trkpt lat="38.967200" lon="-6.366171">
        <ele>240.591</ele>
        <time>2019-02-26T23:12:18Z</time>
      </trkpt>
      <trkpt lat="38.967207" lon="-6.366156">
        <ele>240.595</ele>
        <time>2019-02-26T23:15:41Z</time>
      </trkpt>
      <trkpt lat="38.967203" lon="-6.366272">
        <ele>240.498</ele>
        <time>2019-02-26T23:15:52Z</time>
      </trkpt>
      <trkpt lat="38.967195" lon="-6.366296">
        <ele>240.477</ele>
        <time>2019-02-26T23:15:53Z</time>
      </trkpt>
      <trkpt lat="38.967185" lon="-6.366320">
        <ele>240.446</ele>
        <time>2019-02-26T23:15:54Z</time>
      </trkpt>
      <trkpt lat="38.967173" lon="-6.366342">
        <ele>240.472</ele>
        <time>2019-02-26T23:15:55Z</time>
      </trkpt>
      <trkpt lat="38.967159" lon="-6.366368">
        <ele>240.413</ele>
        <time>2019-02-26T23:15:56Z</time>
      </trkpt>
      <trkpt lat="38.967145" lon="-6.366429">
        <ele>240.314</ele>
        <time>2019-02-26T23:15:58Z</time>
      </trkpt>
      <trkpt lat="38.967158" lon="-6.366459">
        <ele>240.308</ele>
        <time>2019-02-26T23:15:59Z</time>
      </trkpt>
      <trkpt lat="38.967181" lon="-6.366486">
        <ele>240.370</ele>
        <time>2019-02-26T23:16:00Z</time>
      </trkpt>
      <trkpt lat="38.967646" lon="-6.366934">
        <ele>240.991</ele>
        <time>2019-02-26T23:16:16Z</time>
      </trkpt>
      <trkpt lat="38.968032" lon="-6.367115">
        <ele>239.692</ele>
        <time>2019-02-26T23:16:28Z</time>
      </trkpt>
      <trkpt lat="38.968072" lon="-6.367115">
        <ele>239.511</ele>
        <time>2019-02-26T23:16:29Z</time>
      </trkpt>
      <trkpt lat="38.968830" lon="-6.366901">
        <ele>237.125</ele>
        <time>2019-02-26T23:16:47Z</time>
      </trkpt>
      <trkpt lat="38.969360" lon="-6.366677">
        <ele>238.538</ele>
        <time>2019-02-26T23:17:00Z</time>
      </trkpt>
      <trkpt lat="38.969802" lon="-6.366667">
        <ele>240.627</ele>
        <time>2019-02-26T23:17:14Z</time>
      </trkpt>
      <trkpt lat="38.970256" lon="-6.366576">
        <ele>242.196</ele>
        <time>2019-02-26T23:17:28Z</time>
      </trkpt>
      <trkpt lat="38.970767" lon="-6.366560">
        <ele>243.969</ele>
        <time>2019-02-26T23:17:44Z</time>
      </trkpt>
      <trkpt lat="38.971156" lon="-6.366591">
        <ele>244.804</ele>
        <time>2019-02-26T23:18:00Z</time>
      </trkpt>
      <trkpt lat="38.971454" lon="-6.366703">
        <ele>245.724</ele>
        <time>2019-02-26T23:18:14Z</time>
      </trkpt>
      <trkpt lat="38.971761" lon="-6.366699">
        <ele>246.008</ele>
        <time>2019-02-26T23:18:28Z</time>
      </trkpt>
      <trkpt lat="38.971916" lon="-6.366630">
        <ele>245.529</ele>
        <time>2019-02-26T23:18:36Z</time>
      </trkpt>
      <trkpt lat="38.972210" lon="-6.366318">
        <ele>244.890</ele>
        <time>2019-02-26T23:18:49Z</time>
      </trkpt>
      <trkpt lat="38.972543" lon="-6.365873">
        <ele>244.841</ele>
        <time>2019-02-26T23:19:01Z</time>
      </trkpt>
      <trkpt lat="38.972771" lon="-6.365751">
        <ele>244.750</ele>
        <time>2019-02-26T23:19:13Z</time>
      </trkpt>
      <trkpt lat="38.972770" lon="-6.365750">
        <ele>244.744</ele>
        <time>2019-02-26T23:19:14Z</time>
      </trkpt>
      <trkpt lat="38.972847" lon="-6.365751">
        <ele>244.777</ele>
        <time>2019-02-26T23:19:47Z</time>
      </trkpt>
      <trkpt lat="38.972871" lon="-6.365746">
        <ele>244.736</ele>
        <time>2019-02-26T23:19:48Z</time>
      </trkpt>
      <trkpt lat="38.972897" lon="-6.365737">
        <ele>244.785</ele>
        <time>2019-02-26T23:19:49Z</time>
      </trkpt>
      <trkpt lat="38.972924" lon="-6.365726">
        <ele>244.615</ele>
        <time>2019-02-26T23:19:50Z</time>
      </trkpt>
      <trkpt lat="38.973259" lon="-6.365441">
        <ele>244.565</ele>
        <time>2019-02-26T23:20:03Z</time>
      </trkpt>
      <trkpt lat="38.973665" lon="-6.365097">
        <ele>244.511</ele>
        <time>2019-02-26T23:20:18Z</time>
      </trkpt>
      <trkpt lat="38.973884" lon="-6.364836">
        <ele>245.008</ele>
        <time>2019-02-26T23:20:29Z</time>
      </trkpt>
      <trkpt lat="38.973997" lon="-6.364433">
        <ele>245.564</ele>
        <time>2019-02-26T23:20:43Z</time>
      </trkpt>
      <trkpt lat="38.974138" lon="-6.364033">
        <ele>245.555</ele>
        <time>2019-02-26T23:20:56Z</time>
      </trkpt>
      <trkpt lat="38.974534" lon="-6.363950">
        <ele>245.176</ele>
        <time>2019-02-26T23:21:08Z</time>
      </trkpt>
      <trkpt lat="38.974891" lon="-6.363576">
        <ele>245.225</ele>
        <time>2019-02-26T23:21:21Z</time>
      </trkpt>
      <trkpt lat="38.975173" lon="-6.363259">
        <ele>245.699</ele>
        <time>2019-02-26T23:21:35Z</time>
      </trkpt>
      <trkpt lat="38.975445" lon="-6.363145">
        <ele>245.732</ele>
        <time>2019-02-26T23:21:45Z</time>
      </trkpt>
      <trkpt lat="38.975875" lon="-6.362892">
        <ele>246.311</ele>
        <time>2019-02-26T23:22:00Z</time>
      </trkpt>
      <trkpt lat="38.975870" lon="-6.362892">
        <ele>246.390</ele>
        <time>2019-02-26T23:22:04Z</time>
      </trkpt>
      <trkpt lat="38.975927" lon="-6.362867">
        <ele>246.389</ele>
        <time>2019-02-26T23:22:30Z</time>
      </trkpt>
      <trkpt lat="38.976430" lon="-6.362570">
        <ele>246.706</ele>
        <time>2019-02-26T23:22:45Z</time>
      </trkpt>
      <trkpt lat="38.976960" lon="-6.362232">
        <ele>247.526</ele>
        <time>2019-02-26T23:23:02Z</time>
      </trkpt>
      <trkpt lat="38.977566" lon="-6.361858">
        <ele>248.308</ele>
        <time>2019-02-26T23:23:14Z</time>
      </trkpt>
      <trkpt lat="38.978055" lon="-6.361553">
        <ele>248.111</ele>
        <time>2019-02-26T23:23:27Z</time>
      </trkpt>
      <trkpt lat="38.978635" lon="-6.361199">
        <ele>248.222</ele>
        <time>2019-02-26T23:23:45Z</time>
      </trkpt>
      <trkpt lat="38.979111" lon="-6.360922">
        <ele>249.683</ele>
        <time>2019-02-26T23:24:02Z</time>
      </trkpt>
      <trkpt lat="38.979687" lon="-6.360761">
        <ele>251.172</ele>
        <time>2019-02-26T23:24:20Z</time>
      </trkpt>
      <trkpt lat="38.980205" lon="-6.360480">
        <ele>251.216</ele>
        <time>2019-02-26T23:24:35Z</time>
      </trkpt>
      <trkpt lat="38.980549" lon="-6.360110">
        <ele>252.149</ele>
        <time>2019-02-26T23:24:50Z</time>
      </trkpt>
      <trkpt lat="38.981019" lon="-6.359908">
        <ele>253.678</ele>
        <time>2019-02-26T23:25:05Z</time>
      </trkpt>
      <trkpt lat="38.981844" lon="-6.359933">
        <ele>253.677</ele>
        <time>2019-02-26T23:25:22Z</time>
      </trkpt>
      <trkpt lat="38.981975" lon="-6.359935">
        <ele>253.643</ele>
        <time>2019-02-26T23:25:25Z</time>
      </trkpt>
      <trkpt lat="38.982017" lon="-6.359942">
        <ele>253.664</ele>
        <time>2019-02-26T23:25:26Z</time>
      </trkpt>
      <trkpt lat="38.982579" lon="-6.359952">
        <ele>254.710</ele>
        <time>2019-02-26T23:25:41Z</time>
      </trkpt>
      <trkpt lat="38.983335" lon="-6.359909">
        <ele>254.608</ele>
        <time>2019-02-26T23:25:54Z</time>
      </trkpt>
      <trkpt lat="38.983653" lon="-6.359880">
        <ele>254.167</ele>
        <time>2019-02-26T23:26:00Z</time>
      </trkpt>
      <trkpt lat="38.984035" lon="-6.359843">
        <ele>253.878</ele>
        <time>2019-02-26T23:26:08Z</time>
      </trkpt>
      <trkpt lat="38.984079" lon="-6.359842">
        <ele>253.869</ele>
        <time>2019-02-26T23:26:09Z</time>
      </trkpt>
      <trkpt lat="38.984827" lon="-6.359780">
        <ele>254.348</ele>
        <time>2019-02-26T23:26:27Z</time>
      </trkpt>
      <trkpt lat="38.985294" lon="-6.359436">
        <ele>255.432</ele>
        <time>2019-02-26T23:26:43Z</time>
      </trkpt>
      <trkpt lat="38.985942" lon="-6.358876">
        <ele>255.795</ele>
        <time>2019-02-26T23:26:57Z</time>
      </trkpt>
      <trkpt lat="38.986877" lon="-6.358065">
        <ele>253.064</ele>
        <time>2019-02-26T23:27:15Z</time>
      </trkpt>
      <trkpt lat="38.987666" lon="-6.357385">
        <ele>250.943</ele>
        <time>2019-02-26T23:27:30Z</time>
      </trkpt>
      <trkpt lat="38.987727" lon="-6.357302">
        <ele>250.737</ele>
        <time>2019-02-26T23:27:32Z</time>
      </trkpt>
      <trkpt lat="38.987750" lon="-6.357258">
        <ele>250.549</ele>
        <time>2019-02-26T23:27:33Z</time>
      </trkpt>
      <trkpt lat="38.987789" lon="-6.357166">
        <ele>250.413</ele>
        <time>2019-02-26T23:27:35Z</time>
      </trkpt>
      <trkpt lat="38.987802" lon="-6.357117">
        <ele>250.508</ele>
        <time>2019-02-26T23:27:36Z</time>
      </trkpt>
      <trkpt lat="38.987810" lon="-6.357066">
        <ele>250.666</ele>
        <time>2019-02-26T23:27:37Z</time>
      </trkpt>
      <trkpt lat="38.987814" lon="-6.357016">
        <ele>250.647</ele>
        <time>2019-02-26T23:27:38Z</time>
      </trkpt>
      <trkpt lat="38.987815" lon="-6.356966">
        <ele>250.748</ele>
        <time>2019-02-26T23:27:39Z</time>
      </trkpt>
      <trkpt lat="38.987813" lon="-6.356917">
        <ele>250.847</ele>
        <time>2019-02-26T23:27:40Z</time>
      </trkpt>
      <trkpt lat="38.987809" lon="-6.356869">
        <ele>250.921</ele>
        <time>2019-02-26T23:27:41Z</time>
      </trkpt>
      <trkpt lat="38.987803" lon="-6.356819">
        <ele>251.034</ele>
        <time>2019-02-26T23:27:42Z</time>
      </trkpt>
      <trkpt lat="38.987747" lon="-6.355921">
        <ele>252.763</ele>
        <time>2019-02-26T23:28:02Z</time>
      </trkpt>
      <trkpt lat="38.988121" lon="-6.355512">
        <ele>253.872</ele>
        <time>2019-02-26T23:28:15Z</time>
      </trkpt>
      <trkpt lat="38.988711" lon="-6.354913">
        <ele>254.055</ele>
        <time>2019-02-26T23:28:33Z</time>
      </trkpt>
      <trkpt lat="38.989462" lon="-6.354166">
        <ele>252.807</ele>
        <time>2019-02-26T23:28:51Z</time>
      </trkpt>
      <trkpt lat="38.990048" lon="-6.353587">
        <ele>253.517</ele>
        <time>2019-02-26T23:29:08Z</time>
      </trkpt>
      <trkpt lat="38.990625" lon="-6.353001">
        <ele>254.708</ele>
        <time>2019-02-26T23:29:25Z</time>
      </trkpt>
      <trkpt lat="38.991157" lon="-6.352721">
        <ele>255.998</ele>
        <time>2019-02-26T23:29:41Z</time>
      </trkpt>
      <trkpt lat="38.991775" lon="-6.352461">
        <ele>256.959</ele>
        <time>2019-02-26T23:29:59Z</time>
      </trkpt>
      <trkpt lat="38.992559" lon="-6.352138">
        <ele>257.590</ele>
        <time>2019-02-26T23:30:16Z</time>
      </trkpt>
      <trkpt lat="38.993237" lon="-6.351836">
        <ele>256.069</ele>
        <time>2019-02-26T23:30:30Z</time>
      </trkpt>
      <trkpt lat="38.993762" lon="-6.351610">
        <ele>258.613</ele>
        <time>2019-02-26T23:30:45Z</time>
      </trkpt>
      <trkpt lat="38.994204" lon="-6.351210">
        <ele>259.856</ele>
        <time>2019-02-26T23:31:01Z</time>
      </trkpt>
      <trkpt lat="38.994597" lon="-6.350248">
        <ele>257.825</ele>
        <time>2019-02-26T23:31:16Z</time>
      </trkpt>
      <trkpt lat="38.995002" lon="-6.349260">
        <ele>257.774</ele>
        <time>2019-02-26T23:31:35Z</time>
      </trkpt>
      <trkpt lat="38.995076" lon="-6.348966">
        <ele>258.041</ele>
        <time>2019-02-26T23:31:41Z</time>
      </trkpt>
      <trkpt lat="38.995079" lon="-6.348913">
        <ele>258.181</ele>
        <time>2019-02-26T23:31:42Z</time>
      </trkpt>
      <trkpt lat="38.995077" lon="-6.348861">
        <ele>258.209</ele>
        <time>2019-02-26T23:31:43Z</time>
      </trkpt>
      <trkpt lat="38.995070" lon="-6.348810">
        <ele>258.208</ele>
        <time>2019-02-26T23:31:44Z</time>
      </trkpt>
      <trkpt lat="38.995062" lon="-6.348761">
        <ele>258.287</ele>
        <time>2019-02-26T23:31:45Z</time>
      </trkpt>
      <trkpt lat="38.994903" lon="-6.348053">
        <ele>258.528</ele>
        <time>2019-02-26T23:32:01Z</time>
      </trkpt>
      <trkpt lat="38.994788" lon="-6.347503">
        <ele>258.759</ele>
        <time>2019-02-26T23:32:11Z</time>
      </trkpt>
      <trkpt lat="38.994587" lon="-6.346565">
        <ele>259.518</ele>
        <time>2019-02-26T23:32:28Z</time>
      </trkpt>
      <trkpt lat="38.994454" lon="-6.345688">
        <ele>258.322</ele>
        <time>2019-02-26T23:32:45Z</time>
      </trkpt>
      <trkpt lat="38.994504" lon="-6.345630">
        <ele>258.345</ele>
        <time>2019-02-26T23:32:48Z</time>
      </trkpt>
      <trkpt lat="38.994525" lon="-6.345631">
        <ele>258.344</ele>
        <time>2019-02-26T23:32:49Z</time>
      </trkpt>
      <trkpt lat="38.994546" lon="-6.345641">
        <ele>258.363</ele>
        <time>2019-02-26T23:32:50Z</time>
      </trkpt>
      <trkpt lat="38.994569" lon="-6.345653">
        <ele>258.387</ele>
        <time>2019-02-26T23:32:51Z</time>
      </trkpt>
      <trkpt lat="38.994592" lon="-6.345658">
        <ele>258.342</ele>
        <time>2019-02-26T23:32:52Z</time>
      </trkpt>
      <trkpt lat="38.994618" lon="-6.345656">
        <ele>258.626</ele>
        <time>2019-02-26T23:32:53Z</time>
      </trkpt>
      <trkpt lat="38.994641" lon="-6.345648">
        <ele>258.908</ele>
        <time>2019-02-26T23:32:54Z</time>
      </trkpt>
      <trkpt lat="38.994666" lon="-6.345638">
        <ele>259.341</ele>
        <time>2019-02-26T23:32:55Z</time>
      </trkpt>
      <trkpt lat="38.995134" lon="-6.345530">
        <ele>263.292</ele>
        <time>2019-02-26T23:33:14Z</time>
      </trkpt>
      <trkpt lat="38.995450" lon="-6.345443">
        <ele>264.153</ele>
        <time>2019-02-26T23:33:29Z</time>
      </trkpt>
      <trkpt lat="38.995550" lon="-6.345425">
        <ele>264.732</ele>
        <time>2019-02-26T23:33:38Z</time>
      </trkpt>
      <trkpt lat="38.995619" lon="-6.345433">
        <ele>265.396</ele>
        <time>2019-02-26T23:34:05Z</time>
      </trkpt>
      <trkpt lat="38.995951" lon="-6.345413">
        <ele>268.239</ele>
        <time>2019-02-26T23:34:21Z</time>
      </trkpt>
      <trkpt lat="38.996196" lon="-6.345427">
        <ele>269.398</ele>
        <time>2019-02-26T23:34:35Z</time>
      </trkpt>
      <trkpt lat="38.996397" lon="-6.345190">
        <ele>270.317</ele>
        <time>2019-02-26T23:34:51Z</time>
      </trkpt>
      <trkpt lat="38.996621" lon="-6.344974">
        <ele>271.037</ele>
        <time>2019-02-26T23:35:03Z</time>
      </trkpt>
      <trkpt lat="38.996629" lon="-6.344961">
        <ele>271.149</ele>
        <time>2019-02-26T23:35:08Z</time>
      </trkpt>
      <trkpt lat="38.996916" lon="-6.344851">
        <ele>271.313</ele>
        <time>2019-02-26T23:35:49Z</time>
      </trkpt>
      <trkpt lat="38.997252" lon="-6.344770">
        <ele>271.008</ele>
        <time>2019-02-26T23:36:00Z</time>
      </trkpt>
      <trkpt lat="38.997601" lon="-6.344727">
        <ele>270.036</ele>
        <time>2019-02-26T23:36:08Z</time>
      </trkpt>
      <trkpt lat="38.997641" lon="-6.344711">
        <ele>269.867</ele>
        <time>2019-02-26T23:36:09Z</time>
      </trkpt>
      <trkpt lat="38.998113" lon="-6.344615">
        <ele>267.918</ele>
        <time>2019-02-26T23:36:23Z</time>
      </trkpt>
      <trkpt lat="38.998157" lon="-6.344602">
        <ele>267.727</ele>
        <time>2019-02-26T23:36:24Z</time>
      </trkpt>
      <trkpt lat="38.998202" lon="-6.344583">
        <ele>267.671</ele>
        <time>2019-02-26T23:36:25Z</time>
      </trkpt>
      <trkpt lat="38.998249" lon="-6.344558">
        <ele>267.594</ele>
        <time>2019-02-26T23:36:26Z</time>
      </trkpt>
      <trkpt lat="38.998299" lon="-6.344531">
        <ele>267.483</ele>
        <time>2019-02-26T23:36:27Z</time>
      </trkpt>
      <trkpt lat="38.998870" lon="-6.344258">
        <ele>266.682</ele>
        <time>2019-02-26T23:36:40Z</time>
      </trkpt>
      <trkpt lat="38.999186" lon="-6.344107">
        <ele>266.651</ele>
        <time>2019-02-26T23:36:50Z</time>
      </trkpt>
      <trkpt lat="38.999646" lon="-6.344059">
        <ele>266.901</ele>
        <time>2019-02-26T23:37:03Z</time>
      </trkpt>
      <trkpt lat="39.000015" lon="-6.344193">
        <ele>267.611</ele>
        <time>2019-02-26T23:37:15Z</time>
      </trkpt>
      <trkpt lat="39.000386" lon="-6.344218">
        <ele>268.108</ele>
        <time>2019-02-26T23:37:25Z</time>
      </trkpt>
      <trkpt lat="39.000869" lon="-6.344319">
        <ele>268.778</ele>
        <time>2019-02-26T23:37:42Z</time>
      </trkpt>
      <trkpt lat="39.001237" lon="-6.344355">
        <ele>269.289</ele>
        <time>2019-02-26T23:37:56Z</time>
      </trkpt>
      <trkpt lat="39.001577" lon="-6.344398">
        <ele>269.930</ele>
        <time>2019-02-26T23:38:07Z</time>
      </trkpt>
      <trkpt lat="39.002090" lon="-6.344489">
        <ele>271.819</ele>
        <time>2019-02-26T23:38:23Z</time>
      </trkpt>
      <trkpt lat="39.002440" lon="-6.344524">
        <ele>273.193</ele>
        <time>2019-02-26T23:38:37Z</time>
      </trkpt>
      <trkpt lat="39.002713" lon="-6.344567">
        <ele>274.096</ele>
        <time>2019-02-26T23:38:50Z</time>
      </trkpt>
      <trkpt lat="39.002739" lon="-6.344572">
        <ele>274.125</ele>
        <time>2019-02-26T23:38:52Z</time>
      </trkpt>
      <trkpt lat="39.002753" lon="-6.344579">
        <ele>274.274</ele>
        <time>2019-02-26T23:38:53Z</time>
      </trkpt>
      <trkpt lat="39.002770" lon="-6.344584">
        <ele>274.339</ele>
        <time>2019-02-26T23:38:54Z</time>
      </trkpt>
      <trkpt lat="39.002789" lon="-6.344590">
        <ele>274.401</ele>
        <time>2019-02-26T23:38:55Z</time>
      </trkpt>
      <trkpt lat="39.002808" lon="-6.344595">
        <ele>274.521</ele>
        <time>2019-02-26T23:38:56Z</time>
      </trkpt>
      <trkpt lat="39.002828" lon="-6.344597">
        <ele>274.608</ele>
        <time>2019-02-26T23:38:57Z</time>
      </trkpt>
      <trkpt lat="39.002935" lon="-6.344587">
        <ele>275.246</ele>
        <time>2019-02-26T23:39:04Z</time>
      </trkpt>
      <trkpt lat="39.002950" lon="-6.344595">
        <ele>275.377</ele>
        <time>2019-02-26T23:39:05Z</time>
      </trkpt>
      <trkpt lat="39.002967" lon="-6.344602">
        <ele>275.498</ele>
        <time>2019-02-26T23:39:06Z</time>
      </trkpt>
      <trkpt lat="39.002984" lon="-6.344605">
        <ele>275.577</ele>
        <time>2019-02-26T23:39:07Z</time>
      </trkpt>
      <trkpt lat="39.003000" lon="-6.344605">
        <ele>275.631</ele>
        <time>2019-02-26T23:39:08Z</time>
      </trkpt>
      <trkpt lat="39.003019" lon="-6.344605">
        <ele>275.774</ele>
        <time>2019-02-26T23:39:09Z</time>
      </trkpt>
      <trkpt lat="39.003042" lon="-6.344609">
        <ele>275.843</ele>
        <time>2019-02-26T23:39:10Z</time>
      </trkpt>
      <trkpt lat="39.003065" lon="-6.344615">
        <ele>275.992</ele>
        <time>2019-02-26T23:39:11Z</time>
      </trkpt>
      <trkpt lat="39.003437" lon="-6.344651">
        <ele>277.287</ele>
        <time>2019-02-26T23:39:27Z</time>
      </trkpt>
      <trkpt lat="39.003502" lon="-6.344683">
        <ele>277.342</ele>
        <time>2019-02-26T23:39:37Z</time>
      </trkpt>
      <trkpt lat="39.003539" lon="-6.344683">
        <ele>277.426</ele>
        <time>2019-02-26T23:39:42Z</time>
      </trkpt>
      <trkpt lat="39.003548" lon="-6.344674">
        <ele>277.508</ele>
        <time>2019-02-26T23:39:43Z</time>
      </trkpt>
      <trkpt lat="39.003599" lon="-6.344677">
        <ele>277.691</ele>
        <time>2019-02-26T23:39:51Z</time>
      </trkpt>
      <trkpt lat="39.003610" lon="-6.344675">
        <ele>277.612</ele>
        <time>2019-02-26T23:39:52Z</time>
      </trkpt>
      <trkpt lat="39.003621" lon="-6.344668">
        <ele>277.683</ele>
        <time>2019-02-26T23:39:53Z</time>
      </trkpt>
      <trkpt lat="39.003631" lon="-6.344660">
        <ele>277.682</ele>
        <time>2019-02-26T23:39:54Z</time>
      </trkpt>
      <trkpt lat="39.003654" lon="-6.344642">
        <ele>277.746</ele>
        <time>2019-02-26T23:40:01Z</time>
      </trkpt>
      <trkpt lat="39.003748" lon="-6.344600">
        <ele>277.949</ele>
        <time>2019-02-26T23:40:25Z</time>
      </trkpt>
      <trkpt lat="39.003773" lon="-6.344597">
        <ele>277.938</ele>
        <time>2019-02-26T23:40:26Z</time>
      </trkpt>
      <trkpt lat="39.003798" lon="-6.344599">
        <ele>278.067</ele>
        <time>2019-02-26T23:40:27Z</time>
      </trkpt>
      <trkpt lat="39.003824" lon="-6.344605">
        <ele>278.069</ele>
        <time>2019-02-26T23:40:28Z</time>
      </trkpt>
      <trkpt lat="39.003850" lon="-6.344611">
        <ele>278.104</ele>
        <time>2019-02-26T23:40:29Z</time>
      </trkpt>
      <trkpt lat="39.003874" lon="-6.344616">
        <ele>278.124</ele>
        <time>2019-02-26T23:40:30Z</time>
      </trkpt>
      <trkpt lat="39.004265" lon="-6.344600">
        <ele>279.108</ele>
        <time>2019-02-26T23:40:44Z</time>
      </trkpt>
      <trkpt lat="39.004655" lon="-6.344668">
        <ele>279.749</ele>
        <time>2019-02-26T23:40:59Z</time>
      </trkpt>
      <trkpt lat="39.004755" lon="-6.344679">
        <ele>279.970</ele>
        <time>2019-02-26T23:41:05Z</time>
      </trkpt>
      <trkpt lat="39.004773" lon="-6.344681">
        <ele>279.941</ele>
        <time>2019-02-26T23:41:06Z</time>
      </trkpt>
      <trkpt lat="39.005131" lon="-6.344692">
        <ele>280.550</ele>
        <time>2019-02-26T23:41:20Z</time>
      </trkpt>
      <trkpt lat="39.005283" lon="-6.344639">
        <ele>280.784</ele>
        <time>2019-02-26T23:41:26Z</time>
      </trkpt>
      <trkpt lat="39.005308" lon="-6.344634">
        <ele>280.827</ele>
        <time>2019-02-26T23:41:27Z</time>
      </trkpt>
      <trkpt lat="39.005693" lon="-6.344490">
        <ele>281.896</ele>
        <time>2019-02-26T23:41:41Z</time>
      </trkpt>
      <trkpt lat="39.006170" lon="-6.344407">
        <ele>283.375</ele>
        <time>2019-02-26T23:41:55Z</time>
      </trkpt>
      <trkpt lat="39.006483" lon="-6.344230">
        <ele>284.853</ele>
        <time>2019-02-26T23:42:10Z</time>
      </trkpt>
      <trkpt lat="39.006782" lon="-6.344033">
        <ele>285.904</ele>
        <time>2019-02-26T23:42:24Z</time>
      </trkpt>
      <trkpt lat="39.007144" lon="-6.343931">
        <ele>287.014</ele>
        <time>2019-02-26T23:42:40Z</time>
      </trkpt>
      <trkpt lat="39.007227" lon="-6.343951">
        <ele>287.208</ele>
        <time>2019-02-26T23:42:46Z</time>
      </trkpt>
      <trkpt lat="39.007239" lon="-6.343959">
        <ele>287.368</ele>
        <time>2019-02-26T23:42:47Z</time>
      </trkpt>
      <trkpt lat="39.007455" lon="-6.344215">
        <ele>288.059</ele>
        <time>2019-02-26T23:42:59Z</time>
      </trkpt>
      <trkpt lat="39.007900" lon="-6.344297">
        <ele>289.940</ele>
        <time>2019-02-26T23:43:12Z</time>
      </trkpt>
      <trkpt lat="39.008340" lon="-6.344207">
        <ele>291.549</ele>
        <time>2019-02-26T23:43:26Z</time>
      </trkpt>
      <trkpt lat="39.008725" lon="-6.343830">
        <ele>293.363</ele>
        <time>2019-02-26T23:43:42Z</time>
      </trkpt>
      <trkpt lat="39.009189" lon="-6.343609">
        <ele>294.926</ele>
        <time>2019-02-26T23:43:57Z</time>
      </trkpt>
      <trkpt lat="39.009599" lon="-6.343393">
        <ele>296.845</ele>
        <time>2019-02-26T23:44:12Z</time>
      </trkpt>
      <trkpt lat="39.010047" lon="-6.343302">
        <ele>298.484</ele>
        <time>2019-02-26T23:44:27Z</time>
      </trkpt>
      <trkpt lat="39.010522" lon="-6.343101">
        <ele>299.937</ele>
        <time>2019-02-26T23:44:45Z</time>
      </trkpt>
      <trkpt lat="39.010918" lon="-6.342973">
        <ele>301.149</ele>
        <time>2019-02-26T23:45:01Z</time>
      </trkpt>
      <trkpt lat="39.011312" lon="-6.342885">
        <ele>302.613</ele>
        <time>2019-02-26T23:45:16Z</time>
      </trkpt>
      <trkpt lat="39.011722" lon="-6.342700">
        <ele>304.608</ele>
        <time>2019-02-26T23:45:32Z</time>
      </trkpt>
      <trkpt lat="39.012247" lon="-6.342566">
        <ele>306.886</ele>
        <time>2019-02-26T23:45:50Z</time>
      </trkpt>
      <trkpt lat="39.012681" lon="-6.342386">
        <ele>308.097</ele>
        <time>2019-02-26T23:46:07Z</time>
      </trkpt>
      <trkpt lat="39.013113" lon="-6.342184">
        <ele>308.768</ele>
        <time>2019-02-26T23:46:25Z</time>
      </trkpt>
      <trkpt lat="39.013433" lon="-6.342101">
        <ele>308.847</ele>
        <time>2019-02-26T23:46:40Z</time>
      </trkpt>
      <trkpt lat="39.013626" lon="-6.342057">
        <ele>308.851</ele>
        <time>2019-02-26T23:46:53Z</time>
      </trkpt>
      <trkpt lat="39.013683" lon="-6.342069">
        <ele>308.844</ele>
        <time>2019-02-26T23:47:25Z</time>
      </trkpt>
      <trkpt lat="39.014043" lon="-6.341951">
        <ele>308.713</ele>
        <time>2019-02-26T23:47:42Z</time>
      </trkpt>
      <trkpt lat="39.014309" lon="-6.341890">
        <ele>307.872</ele>
        <time>2019-02-26T23:47:56Z</time>
      </trkpt>
      <trkpt lat="39.014657" lon="-6.341883">
        <ele>305.537</ele>
        <time>2019-02-26T23:48:08Z</time>
      </trkpt>
      <trkpt lat="39.015271" lon="-6.341818">
        <ele>303.649</ele>
        <time>2019-02-26T23:48:19Z</time>
      </trkpt>
      <trkpt lat="39.016293" lon="-6.341802">
        <ele>301.913</ele>
        <time>2019-02-26T23:48:36Z</time>
      </trkpt>
      <trkpt lat="39.016496" lon="-6.341777">
        <ele>301.408</ele>
        <time>2019-02-26T23:48:40Z</time>
      </trkpt>
      <trkpt lat="39.016704" lon="-6.341787">
        <ele>300.846</ele>
        <time>2019-02-26T23:48:44Z</time>
      </trkpt>
      <trkpt lat="39.016995" lon="-6.341708">
        <ele>300.177</ele>
        <time>2019-02-26T23:48:49Z</time>
      </trkpt>
      <trkpt lat="39.017057" lon="-6.341685">
        <ele>300.048</ele>
        <time>2019-02-26T23:48:50Z</time>
      </trkpt>
      <trkpt lat="39.017120" lon="-6.341664">
        <ele>299.887</ele>
        <time>2019-02-26T23:48:51Z</time>
      </trkpt>
      <trkpt lat="39.017352" lon="-6.341594">
        <ele>299.561</ele>
        <time>2019-02-26T23:48:55Z</time>
      </trkpt>
      <trkpt lat="39.017502" lon="-6.341581">
        <ele>299.344</ele>
        <time>2019-02-26T23:48:58Z</time>
      </trkpt>
      <trkpt lat="39.017857" lon="-6.341456">
        <ele>299.463</ele>
        <time>2019-02-26T23:49:08Z</time>
      </trkpt>
      <trkpt lat="39.017894" lon="-6.341460">
        <ele>299.482</ele>
        <time>2019-02-26T23:49:09Z</time>
      </trkpt>
      <trkpt lat="39.017936" lon="-6.341466">
        <ele>299.464</ele>
        <time>2019-02-26T23:49:10Z</time>
      </trkpt>
      <trkpt lat="39.017982" lon="-6.341467">
        <ele>299.506</ele>
        <time>2019-02-26T23:49:11Z</time>
      </trkpt>
      <trkpt lat="39.018026" lon="-6.341465">
        <ele>299.516</ele>
        <time>2019-02-26T23:49:12Z</time>
      </trkpt>
      <trkpt lat="39.018070" lon="-6.341458">
        <ele>299.508</ele>
        <time>2019-02-26T23:49:13Z</time>
      </trkpt>
      <trkpt lat="39.018626" lon="-6.341237">
        <ele>299.649</ele>
        <time>2019-02-26T23:49:26Z</time>
      </trkpt>
      <trkpt lat="39.019344" lon="-6.340912">
        <ele>300.140</ele>
        <time>2019-02-26T23:49:43Z</time>
      </trkpt>
      <trkpt lat="39.019539" lon="-6.340758">
        <ele>299.591</ele>
        <time>2019-02-26T23:49:49Z</time>
      </trkpt>
      <trkpt lat="39.019578" lon="-6.340734">
        <ele>299.330</ele>
        <time>2019-02-26T23:49:50Z</time>
      </trkpt>
      <trkpt lat="39.020297" lon="-6.340421">
        <ele>297.174</ele>
        <time>2019-02-26T23:50:04Z</time>
      </trkpt>
      <trkpt lat="39.020757" lon="-6.340060">
        <ele>295.127</ele>
        <time>2019-02-26T23:50:17Z</time>
      </trkpt>
      <trkpt lat="39.021108" lon="-6.339813">
        <ele>292.866</ele>
        <time>2019-02-26T23:50:30Z</time>
      </trkpt>
      <trkpt lat="39.021686" lon="-6.339498">
        <ele>291.765</ele>
        <time>2019-02-26T23:50:43Z</time>
      </trkpt>
      <trkpt lat="39.021999" lon="-6.339263">
        <ele>292.969</ele>
        <time>2019-02-26T23:50:54Z</time>
      </trkpt>
      <trkpt lat="39.022325" lon="-6.339040">
        <ele>293.504</ele>
        <time>2019-02-26T23:51:10Z</time>
      </trkpt>
      <trkpt lat="39.022525" lon="-6.338769">
        <ele>293.924</ele>
        <time>2019-02-26T23:51:23Z</time>
      </trkpt>
      <trkpt lat="39.022738" lon="-6.338439">
        <ele>296.208</ele>
        <time>2019-02-26T23:51:40Z</time>
      </trkpt>
      <trkpt lat="39.022891" lon="-6.338203">
        <ele>298.079</ele>
        <time>2019-02-26T23:51:53Z</time>
      </trkpt>
      <trkpt lat="39.022900" lon="-6.338182">
        <ele>298.170</ele>
        <time>2019-02-26T23:51:54Z</time>
      </trkpt>
      <trkpt lat="39.022914" lon="-6.338139">
        <ele>298.331</ele>
        <time>2019-02-26T23:51:56Z</time>
      </trkpt>
      <trkpt lat="39.022800" lon="-6.337759">
        <ele>298.870</ele>
        <time>2019-02-26T23:52:11Z</time>
      </trkpt>
      <trkpt lat="39.022731" lon="-6.337546">
        <ele>299.014</ele>
        <time>2019-02-26T23:52:23Z</time>
      </trkpt>
      <trkpt lat="39.022734" lon="-6.337546">
        <ele>299.057</ele>
        <time>2019-02-26T23:52:24Z</time>
      </trkpt>
      <trkpt lat="39.022710" lon="-6.337477">
        <ele>299.166</ele>
        <time>2019-02-26T23:54:22Z</time>
      </trkpt>
      <trkpt lat="39.022743" lon="-6.337469">
        <ele>299.195</ele>
        <time>2019-02-26T23:54:27Z</time>
      </trkpt>
      <trkpt lat="39.022782" lon="-6.337515">
        <ele>299.274</ele>
        <time>2019-02-26T23:54:31Z</time>
      </trkpt>
      <trkpt lat="39.022789" lon="-6.337533">
        <ele>299.256</ele>
        <time>2019-02-26T23:54:36Z</time>
      </trkpt>
      <trkpt lat="39.022689" lon="-6.337489">
        <ele>299.321</ele>
        <time>2019-02-26T23:55:04Z</time>
      </trkpt>
      <trkpt lat="39.022680" lon="-6.337464">
        <ele>299.308</ele>
        <time>2019-02-26T23:55:05Z</time>
      </trkpt>
      <trkpt lat="39.022674" lon="-6.337438">
        <ele>299.490</ele>
        <time>2019-02-26T23:55:06Z</time>
      </trkpt>
      <trkpt lat="39.022670" lon="-6.337408">
        <ele>299.491</ele>
        <time>2019-02-26T23:55:07Z</time>
      </trkpt>
      <trkpt lat="39.022666" lon="-6.337381">
        <ele>299.442</ele>
        <time>2019-02-26T23:55:08Z</time>
      </trkpt>
      <trkpt lat="39.022665" lon="-6.337354">
        <ele>299.551</ele>
        <time>2019-02-26T23:55:09Z</time>
      </trkpt>
      <trkpt lat="39.022662" lon="-6.337326">
        <ele>299.565</ele>
        <time>2019-02-26T23:55:10Z</time>
      </trkpt>
      <trkpt lat="39.022655" lon="-6.337299">
        <ele>299.648</ele>
        <time>2019-02-26T23:55:11Z</time>
      </trkpt>
      <trkpt lat="39.022647" lon="-6.337275">
        <ele>299.667</ele>
        <time>2019-02-26T23:55:12Z</time>
      </trkpt>
      <trkpt lat="39.022617" lon="-6.337170">
        <ele>299.996</ele>
        <time>2019-02-26T23:55:16Z</time>
      </trkpt>
      <trkpt lat="39.022621" lon="-6.337151">
        <ele>299.962</ele>
        <time>2019-02-26T23:55:17Z</time>
      </trkpt>
      <trkpt lat="39.022629" lon="-6.337133">
        <ele>299.983</ele>
        <time>2019-02-26T23:55:22Z</time>
      </trkpt>
      <trkpt lat="39.022715" lon="-6.337115">
        <ele>299.911</ele>
        <time>2019-02-26T23:56:04Z</time>
      </trkpt>
      <trkpt lat="39.023003" lon="-6.337047">
        <ele>296.408</ele>
        <time>2019-02-26T23:56:15Z</time>
      </trkpt>
      <trkpt lat="39.023127" lon="-6.337139">
        <ele>295.669</ele>
        <time>2019-02-26T23:56:23Z</time>
      </trkpt>
      <trkpt lat="39.023131" lon="-6.337145">
        <ele>295.630</ele>
        <time>2019-02-26T23:56:24Z</time>
      </trkpt>
      <trkpt lat="39.023192" lon="-6.337211">
        <ele>295.481</ele>
        <time>2019-02-26T23:56:28Z</time>
      </trkpt>
      <trkpt lat="39.023224" lon="-6.337237">
        <ele>295.220</ele>
        <time>2019-02-26T23:56:29Z</time>
      </trkpt>
      <trkpt lat="39.023264" lon="-6.337266">
        <ele>295.074</ele>
        <time>2019-02-26T23:56:30Z</time>
      </trkpt>
      <trkpt lat="39.023779" lon="-6.337767">
        <ele>290.557</ele>
        <time>2019-02-26T23:56:39Z</time>
      </trkpt>
      <trkpt lat="39.023930" lon="-6.337974">
        <ele>288.116</ele>
        <time>2019-02-26T23:56:43Z</time>
      </trkpt>
      <trkpt lat="39.024190" lon="-6.338281">
        <ele>286.465</ele>
        <time>2019-02-26T23:56:50Z</time>
      </trkpt>
      <trkpt lat="39.024627" lon="-6.338648">
        <ele>284.956</ele>
        <time>2019-02-26T23:56:58Z</time>
      </trkpt>
      <trkpt lat="39.025127" lon="-6.338883">
        <ele>284.459</ele>
        <time>2019-02-26T23:57:08Z</time>
      </trkpt>
      <trkpt lat="39.025223" lon="-6.338877">
        <ele>284.814</ele>
        <time>2019-02-26T23:57:17Z</time>
      </trkpt>
      <trkpt lat="39.025237" lon="-6.338828">
        <ele>285.008</ele>
        <time>2019-02-26T23:57:48Z</time>
      </trkpt>
      <trkpt lat="39.025250" lon="-6.338810">
        <ele>285.188</ele>
        <time>2019-02-26T23:57:49Z</time>
      </trkpt>
      <trkpt lat="39.025266" lon="-6.338790">
        <ele>285.219</ele>
        <time>2019-02-26T23:57:50Z</time>
      </trkpt>
      <trkpt lat="39.025466" lon="-6.338533">
        <ele>286.610</ele>
        <time>2019-02-26T23:58:05Z</time>
      </trkpt>
      <trkpt lat="39.025726" lon="-6.338401">
        <ele>288.319</ele>
        <time>2019-02-26T23:58:19Z</time>
      </trkpt>
      <trkpt lat="39.026042" lon="-6.338250">
        <ele>290.313</ele>
        <time>2019-02-26T23:58:35Z</time>
      </trkpt>
      <trkpt lat="39.026414" lon="-6.338078">
        <ele>292.766</ele>
        <time>2019-02-26T23:58:56Z</time>
      </trkpt>
      <trkpt lat="39.026729" lon="-6.337895">
        <ele>294.165</ele>
        <time>2019-02-26T23:59:12Z</time>
      </trkpt>
      <trkpt lat="39.027129" lon="-6.337707">
        <ele>296.084</ele>
        <time>2019-02-26T23:59:30Z</time>
      </trkpt>
      <trkpt lat="39.027513" lon="-6.337615">
        <ele>296.894</ele>
        <time>2019-02-26T23:59:46Z</time>
      </trkpt>
      <trkpt lat="39.027893" lon="-6.337609">
        <ele>297.057</ele>
        <time>2019-02-26T23:59:57Z</time>
      </trkpt>
      <trkpt lat="39.028522" lon="-6.337472">
        <ele>293.822</ele>
        <time>2019-02-27T00:00:09Z</time>
      </trkpt>
      <trkpt lat="39.028972" lon="-6.337340">
        <ele>290.408</ele>
        <time>2019-02-27T00:00:18Z</time>
      </trkpt>
      <trkpt lat="39.029796" lon="-6.337197">
        <ele>286.842</ele>
        <time>2019-02-27T00:00:33Z</time>
      </trkpt>
      <trkpt lat="39.029846" lon="-6.337205">
        <ele>286.623</ele>
        <time>2019-02-27T00:00:34Z</time>
      </trkpt>
      <trkpt lat="39.030731" lon="-6.337297">
        <ele>286.224</ele>
        <time>2019-02-27T00:00:55Z</time>
      </trkpt>
      <trkpt lat="39.031407" lon="-6.337157">
        <ele>286.653</ele>
        <time>2019-02-27T00:01:10Z</time>
      </trkpt>
      <trkpt lat="39.032137" lon="-6.336895">
        <ele>281.917</ele>
        <time>2019-02-27T00:01:19Z</time>
      </trkpt>
      <trkpt lat="39.032671" lon="-6.336748">
        <ele>278.930</ele>
        <time>2019-02-27T00:01:27Z</time>
      </trkpt>
      <trkpt lat="39.033489" lon="-6.336727">
        <ele>278.629</ele>
        <time>2019-02-27T00:01:42Z</time>
      </trkpt>
      <trkpt lat="39.034155" lon="-6.336969">
        <ele>278.358</ele>
        <time>2019-02-27T00:01:55Z</time>
      </trkpt>
      <trkpt lat="39.034330" lon="-6.337059">
        <ele>278.595</ele>
        <time>2019-02-27T00:01:59Z</time>
      </trkpt>
      <trkpt lat="39.034485" lon="-6.336968">
        <ele>278.749</ele>
        <time>2019-02-27T00:02:04Z</time>
      </trkpt>
      <trkpt lat="39.034530" lon="-6.336582">
        <ele>279.323</ele>
        <time>2019-02-27T00:02:15Z</time>
      </trkpt>
      <trkpt lat="39.034508" lon="-6.336583">
        <ele>279.308</ele>
        <time>2019-02-27T00:02:16Z</time>
      </trkpt>
      <trkpt lat="39.034486" lon="-6.336591">
        <ele>279.272</ele>
        <time>2019-02-27T00:02:17Z</time>
      </trkpt>
      <trkpt lat="39.034480" lon="-6.336744">
        <ele>279.083</ele>
        <time>2019-02-27T00:02:20Z</time>
      </trkpt>
      <trkpt lat="39.034506" lon="-6.336818">
        <ele>278.934</ele>
        <time>2019-02-27T00:02:21Z</time>
      </trkpt>
      <trkpt lat="39.034508" lon="-6.336848">
        <ele>278.983</ele>
        <time>2019-02-27T00:02:22Z</time>
      </trkpt>
      <trkpt lat="39.034499" lon="-6.336931">
        <ele>278.897</ele>
        <time>2019-02-27T00:02:35Z</time>
      </trkpt>
      <trkpt lat="39.034663" lon="-6.336327">
        <ele>279.970</ele>
        <time>2019-02-27T00:03:14Z</time>
      </trkpt>
      <trkpt lat="39.034767" lon="-6.335897">
        <ele>281.089</ele>
        <time>2019-02-27T00:03:28Z</time>
      </trkpt>
      <trkpt lat="39.035126" lon="-6.335698">
        <ele>282.558</ele>
        <time>2019-02-27T00:03:42Z</time>
      </trkpt>
      <trkpt lat="39.035544" lon="-6.335617">
        <ele>285.024</ele>
        <time>2019-02-27T00:04:00Z</time>
      </trkpt>
      <trkpt lat="39.035801" lon="-6.335522">
        <ele>287.404</ele>
        <time>2019-02-27T00:04:16Z</time>
      </trkpt>
      <trkpt lat="39.036074" lon="-6.335362">
        <ele>290.914</ele>
        <time>2019-02-27T00:04:36Z</time>
      </trkpt>
      <trkpt lat="39.036321" lon="-6.335188">
        <ele>293.708</ele>
        <time>2019-02-27T00:04:54Z</time>
      </trkpt>
      <trkpt lat="39.036602" lon="-6.335049">
        <ele>295.435</ele>
        <time>2019-02-27T00:05:13Z</time>
      </trkpt>
      <trkpt lat="39.036913" lon="-6.334893">
        <ele>295.676</ele>
        <time>2019-02-27T00:05:28Z</time>
      </trkpt>
      <trkpt lat="39.037137" lon="-6.334825">
        <ele>295.357</ele>
        <time>2019-02-27T00:05:34Z</time>
      </trkpt>
      <trkpt lat="39.037177" lon="-6.334799">
        <ele>295.186</ele>
        <time>2019-02-27T00:05:35Z</time>
      </trkpt>
      <trkpt lat="39.037216" lon="-6.334766">
        <ele>294.990</ele>
        <time>2019-02-27T00:05:36Z</time>
      </trkpt>
      <trkpt lat="39.037252" lon="-6.334728">
        <ele>294.613</ele>
        <time>2019-02-27T00:05:37Z</time>
      </trkpt>
      <trkpt lat="39.037289" lon="-6.334687">
        <ele>294.392</ele>
        <time>2019-02-27T00:05:38Z</time>
      </trkpt>
      <trkpt lat="39.037368" lon="-6.334618">
        <ele>293.771</ele>
        <time>2019-02-27T00:05:40Z</time>
      </trkpt>
      <trkpt lat="39.037599" lon="-6.334481">
        <ele>291.028</ele>
        <time>2019-02-27T00:05:45Z</time>
      </trkpt>
      <trkpt lat="39.037642" lon="-6.334436">
        <ele>290.489</ele>
        <time>2019-02-27T00:05:46Z</time>
      </trkpt>
      <trkpt lat="39.037677" lon="-6.334382">
        <ele>289.917</ele>
        <time>2019-02-27T00:05:47Z</time>
      </trkpt>
      <trkpt lat="39.037776" lon="-6.334220">
        <ele>289.008</ele>
        <time>2019-02-27T00:05:50Z</time>
      </trkpt>
      <trkpt lat="39.037817" lon="-6.334183">
        <ele>288.795</ele>
        <time>2019-02-27T00:05:51Z</time>
      </trkpt>
      <trkpt lat="39.037865" lon="-6.334158">
        <ele>288.486</ele>
        <time>2019-02-27T00:05:52Z</time>
      </trkpt>
      <trkpt lat="39.037920" lon="-6.334147">
        <ele>287.977</ele>
        <time>2019-02-27T00:05:53Z</time>
      </trkpt>
      <trkpt lat="39.037980" lon="-6.334148">
        <ele>287.486</ele>
        <time>2019-02-27T00:05:54Z</time>
      </trkpt>
      <trkpt lat="39.038044" lon="-6.334150">
        <ele>286.990</ele>
        <time>2019-02-27T00:05:55Z</time>
      </trkpt>
      <trkpt lat="39.038662" lon="-6.334109">
        <ele>282.763</ele>
        <time>2019-02-27T00:06:03Z</time>
      </trkpt>
      <trkpt lat="39.039124" lon="-6.333949">
        <ele>279.272</ele>
        <time>2019-02-27T00:06:10Z</time>
      </trkpt>
      <trkpt lat="39.039598" lon="-6.333818">
        <ele>276.191</ele>
        <time>2019-02-27T00:06:17Z</time>
      </trkpt>
      <trkpt lat="39.039952" lon="-6.333769">
        <ele>272.436</ele>
        <time>2019-02-27T00:06:23Z</time>
      </trkpt>
      <trkpt lat="39.040139" lon="-6.333765">
        <ele>270.917</ele>
        <time>2019-02-27T00:06:28Z</time>
      </trkpt>
      <trkpt lat="39.040639" lon="-6.333692">
        <ele>270.118</ele>
        <time>2019-02-27T00:06:39Z</time>
      </trkpt>
      <trkpt lat="39.040890" lon="-6.333627">
        <ele>268.708</ele>
        <time>2019-02-27T00:06:43Z</time>
      </trkpt>
      <trkpt lat="39.041123" lon="-6.333519">
        <ele>267.156</ele>
        <time>2019-02-27T00:06:46Z</time>
      </trkpt>
      <trkpt lat="39.041200" lon="-6.333466">
        <ele>266.597</ele>
        <time>2019-02-27T00:06:47Z</time>
      </trkpt>
      <trkpt lat="39.041275" lon="-6.333400">
        <ele>265.968</ele>
        <time>2019-02-27T00:06:48Z</time>
      </trkpt>
      <trkpt lat="39.041669" lon="-6.333022">
        <ele>262.867</ele>
        <time>2019-02-27T00:06:53Z</time>
      </trkpt>
      <trkpt lat="39.041760" lon="-6.332962">
        <ele>262.551</ele>
        <time>2019-02-27T00:06:54Z</time>
      </trkpt>
      <trkpt lat="39.041854" lon="-6.332913">
        <ele>262.214</ele>
        <time>2019-02-27T00:06:55Z</time>
      </trkpt>
      <trkpt lat="39.041947" lon="-6.332876">
        <ele>262.173</ele>
        <time>2019-02-27T00:06:56Z</time>
      </trkpt>
      <trkpt lat="39.042035" lon="-6.332848">
        <ele>262.012</ele>
        <time>2019-02-27T00:06:57Z</time>
      </trkpt>
      <trkpt lat="39.042827" lon="-6.332486">
        <ele>262.221</ele>
        <time>2019-02-27T00:07:09Z</time>
      </trkpt>
      <trkpt lat="39.043307" lon="-6.332179">
        <ele>264.241</ele>
        <time>2019-02-27T00:07:21Z</time>
      </trkpt>
      <trkpt lat="39.043555" lon="-6.331724">
        <ele>267.205</ele>
        <time>2019-02-27T00:07:36Z</time>
      </trkpt>
      <trkpt lat="39.043732" lon="-6.331384">
        <ele>269.308</ele>
        <time>2019-02-27T00:07:50Z</time>
      </trkpt>
      <trkpt lat="39.043806" lon="-6.331300">
        <ele>270.115</ele>
        <time>2019-02-27T00:07:55Z</time>
      </trkpt>
      <trkpt lat="39.043722" lon="-6.330924">
        <ele>272.116</ele>
        <time>2019-02-27T00:08:08Z</time>
      </trkpt>
      <trkpt lat="39.043826" lon="-6.330702">
        <ele>272.717</ele>
        <time>2019-02-27T00:08:21Z</time>
      </trkpt>
      <trkpt lat="39.043825" lon="-6.330702">
        <ele>272.766</ele>
        <time>2019-02-27T00:08:22Z</time>
      </trkpt>
      <trkpt lat="39.043891" lon="-6.330778">
        <ele>272.570</ele>
        <time>2019-02-27T00:10:40Z</time>
      </trkpt>
      <trkpt lat="39.044101" lon="-6.330871">
        <ele>271.813</ele>
        <time>2019-02-27T00:10:46Z</time>
      </trkpt>
      <trkpt lat="39.044156" lon="-6.330869">
        <ele>271.762</ele>
        <time>2019-02-27T00:10:47Z</time>
      </trkpt>
      <trkpt lat="39.044658" lon="-6.330806">
        <ele>269.651</ele>
        <time>2019-02-27T00:10:57Z</time>
      </trkpt>
      <trkpt lat="39.045060" lon="-6.330661">
        <ele>262.872</ele>
        <time>2019-02-27T00:11:02Z</time>
      </trkpt>
      <trkpt lat="39.045151" lon="-6.330624">
        <ele>261.813</ele>
        <time>2019-02-27T00:11:03Z</time>
      </trkpt>
      <trkpt lat="39.045600" lon="-6.330404">
        <ele>256.914</ele>
        <time>2019-02-27T00:11:08Z</time>
      </trkpt>
      <trkpt lat="39.045978" lon="-6.330267">
        <ele>253.908</ele>
        <time>2019-02-27T00:11:12Z</time>
      </trkpt>
      <trkpt lat="39.046554" lon="-6.330112">
        <ele>249.540</ele>
        <time>2019-02-27T00:11:19Z</time>
      </trkpt>
      <trkpt lat="39.046597" lon="-6.330078">
        <ele>249.011</ele>
        <time>2019-02-27T00:11:20Z</time>
      </trkpt>
      <trkpt lat="39.046621" lon="-6.330028">
        <ele>249.032</ele>
        <time>2019-02-27T00:11:21Z</time>
      </trkpt>
      <trkpt lat="39.046631" lon="-6.329970">
        <ele>249.211</ele>
        <time>2019-02-27T00:11:22Z</time>
      </trkpt>
      <trkpt lat="39.046635" lon="-6.329911">
        <ele>249.295</ele>
        <time>2019-02-27T00:11:23Z</time>
      </trkpt>
      <trkpt lat="39.046643" lon="-6.329855">
        <ele>249.238</ele>
        <time>2019-02-27T00:11:24Z</time>
      </trkpt>
      <trkpt lat="39.046654" lon="-6.329804">
        <ele>249.297</ele>
        <time>2019-02-27T00:11:25Z</time>
      </trkpt>
      <trkpt lat="39.046669" lon="-6.329760">
        <ele>249.226</ele>
        <time>2019-02-27T00:11:26Z</time>
      </trkpt>
      <trkpt lat="39.046743" lon="-6.329634">
        <ele>248.998</ele>
        <time>2019-02-27T00:11:29Z</time>
      </trkpt>
      <trkpt lat="39.046841" lon="-6.329521">
        <ele>248.615</ele>
        <time>2019-02-27T00:11:32Z</time>
      </trkpt>
      <trkpt lat="39.047607" lon="-6.328898">
        <ele>247.826</ele>
        <time>2019-02-27T00:11:51Z</time>
      </trkpt>
      <trkpt lat="39.047691" lon="-6.328825">
        <ele>247.908</ele>
        <time>2019-02-27T00:11:53Z</time>
      </trkpt>
      <trkpt lat="39.047730" lon="-6.328784">
        <ele>247.942</ele>
        <time>2019-02-27T00:11:54Z</time>
      </trkpt>
      <trkpt lat="39.047766" lon="-6.328738">
        <ele>247.923</ele>
        <time>2019-02-27T00:11:55Z</time>
      </trkpt>
      <trkpt lat="39.048288" lon="-6.327740">
        <ele>247.924</ele>
        <time>2019-02-27T00:12:13Z</time>
      </trkpt>
      <trkpt lat="39.048776" lon="-6.326715">
        <ele>247.943</ele>
        <time>2019-02-27T00:12:31Z</time>
      </trkpt>
      <trkpt lat="39.049470" lon="-6.325610">
        <ele>248.987</ele>
        <time>2019-02-27T00:12:54Z</time>
      </trkpt>
      <trkpt lat="39.050194" lon="-6.324816">
        <ele>249.290</ele>
        <time>2019-02-27T00:13:13Z</time>
      </trkpt>
      <trkpt lat="39.050920" lon="-6.323553">
        <ele>250.129</ele>
        <time>2019-02-27T00:13:39Z</time>
      </trkpt>
      <trkpt lat="39.051703" lon="-6.322199">
        <ele>251.568</ele>
        <time>2019-02-27T00:14:06Z</time>
      </trkpt>
      <trkpt lat="39.052230" lon="-6.321302">
        <ele>252.442</ele>
        <time>2019-02-27T00:14:26Z</time>
      </trkpt>
      <trkpt lat="39.052467" lon="-6.321011">
        <ele>253.622</ele>
        <time>2019-02-27T00:14:40Z</time>
      </trkpt>
      <trkpt lat="39.052472" lon="-6.321018">
        <ele>253.614</ele>
        <time>2019-02-27T00:14:43Z</time>
      </trkpt>
      <trkpt lat="39.052454" lon="-6.320954">
        <ele>253.808</ele>
        <time>2019-02-27T00:14:52Z</time>
      </trkpt>
      <trkpt lat="39.052464" lon="-6.320933">
        <ele>253.947</ele>
        <time>2019-02-27T00:14:53Z</time>
      </trkpt>
      <trkpt lat="39.052477" lon="-6.320911">
        <ele>254.038</ele>
        <time>2019-02-27T00:14:54Z</time>
      </trkpt>
      <trkpt lat="39.052489" lon="-6.320885">
        <ele>254.049</ele>
        <time>2019-02-27T00:14:55Z</time>
      </trkpt>
      <trkpt lat="39.052699" lon="-6.320804">
        <ele>254.168</ele>
        <time>2019-02-27T00:15:04Z</time>
      </trkpt>
      <trkpt lat="39.052727" lon="-6.320817">
        <ele>254.122</ele>
        <time>2019-02-27T00:15:05Z</time>
      </trkpt>
      <trkpt lat="39.053260" lon="-6.321064">
        <ele>253.425</ele>
        <time>2019-02-27T00:15:21Z</time>
      </trkpt>
      <trkpt lat="39.053778" lon="-6.321283">
        <ele>252.194</ele>
        <time>2019-02-27T00:15:36Z</time>
      </trkpt>
      <trkpt lat="39.053800" lon="-6.321294">
        <ele>252.133</ele>
        <time>2019-02-27T00:15:41Z</time>
      </trkpt>
      <trkpt lat="39.053847" lon="-6.321321">
        <ele>252.187</ele>
        <time>2019-02-27T00:16:11Z</time>
      </trkpt>
      <trkpt lat="39.054216" lon="-6.321490">
        <ele>253.042</ele>
        <time>2019-02-27T00:16:22Z</time>
      </trkpt>
      <trkpt lat="39.054973" lon="-6.321669">
        <ele>252.926</ele>
        <time>2019-02-27T00:16:39Z</time>
      </trkpt>
      <trkpt lat="39.055703" lon="-6.321417">
        <ele>253.908</ele>
        <time>2019-02-27T00:16:55Z</time>
      </trkpt>
      <trkpt lat="39.055960" lon="-6.321040">
        <ele>254.111</ele>
        <time>2019-02-27T00:17:06Z</time>
      </trkpt>
      <trkpt lat="39.055877" lon="-6.320469">
        <ele>253.852</ele>
        <time>2019-02-27T00:17:18Z</time>
      </trkpt>
      <trkpt lat="39.055878" lon="-6.320417">
        <ele>253.893</ele>
        <time>2019-02-27T00:17:19Z</time>
      </trkpt>
      <trkpt lat="39.055886" lon="-6.320360">
        <ele>253.892</ele>
        <time>2019-02-27T00:17:20Z</time>
      </trkpt>
      <trkpt lat="39.055899" lon="-6.320303">
        <ele>253.746</ele>
        <time>2019-02-27T00:17:21Z</time>
      </trkpt>
      <trkpt lat="39.055928" lon="-6.320198">
        <ele>253.699</ele>
        <time>2019-02-27T00:17:23Z</time>
      </trkpt>
      <trkpt lat="39.056054" lon="-6.319495">
        <ele>253.198</ele>
        <time>2019-02-27T00:17:37Z</time>
      </trkpt>
      <trkpt lat="39.056071" lon="-6.319441">
        <ele>253.197</ele>
        <time>2019-02-27T00:17:38Z</time>
      </trkpt>
      <trkpt lat="39.056094" lon="-6.319390">
        <ele>253.171</ele>
        <time>2019-02-27T00:17:39Z</time>
      </trkpt>
      <trkpt lat="39.056119" lon="-6.319341">
        <ele>253.141</ele>
        <time>2019-02-27T00:17:40Z</time>
      </trkpt>
      <trkpt lat="39.056227" lon="-6.319107">
        <ele>253.015</ele>
        <time>2019-02-27T00:17:45Z</time>
      </trkpt>
      <trkpt lat="39.056436" lon="-6.318663">
        <ele>252.908</ele>
        <time>2019-02-27T00:17:57Z</time>
      </trkpt>
      <trkpt lat="39.056517" lon="-6.318446">
        <ele>252.930</ele>
        <time>2019-02-27T00:18:07Z</time>
      </trkpt>
      <trkpt lat="39.056514" lon="-6.318455">
        <ele>252.951</ele>
        <time>2019-02-27T00:18:10Z</time>
      </trkpt>
      <trkpt lat="39.056482" lon="-6.318468">
        <ele>252.942</ele>
        <time>2019-02-27T00:18:42Z</time>
      </trkpt>
      <trkpt lat="39.056500" lon="-6.318416">
        <ele>252.911</ele>
        <time>2019-02-27T00:18:44Z</time>
      </trkpt>
      <trkpt lat="39.056646" lon="-6.317816">
        <ele>252.925</ele>
        <time>2019-02-27T00:18:59Z</time>
      </trkpt>
      <trkpt lat="39.056804" lon="-6.317293">
        <ele>252.958</ele>
        <time>2019-02-27T00:19:11Z</time>
      </trkpt>
      <trkpt lat="39.057106" lon="-6.316584">
        <ele>252.967</ele>
        <time>2019-02-27T00:19:26Z</time>
      </trkpt>
      <trkpt lat="39.057149" lon="-6.316488">
        <ele>252.966</ele>
        <time>2019-02-27T00:19:28Z</time>
      </trkpt>
      <trkpt lat="39.057202" lon="-6.316348">
        <ele>252.993</ele>
        <time>2019-02-27T00:19:31Z</time>
      </trkpt>
      <trkpt lat="39.057223" lon="-6.316301">
        <ele>253.065</ele>
        <time>2019-02-27T00:19:32Z</time>
      </trkpt>
      <trkpt lat="39.057633" lon="-6.315519">
        <ele>253.321</ele>
        <time>2019-02-27T00:19:50Z</time>
      </trkpt>
      <trkpt lat="39.057776" lon="-6.315347">
        <ele>253.508</ele>
        <time>2019-02-27T00:19:55Z</time>
      </trkpt>
      <trkpt lat="39.057801" lon="-6.315303">
        <ele>253.632</ele>
        <time>2019-02-27T00:19:56Z</time>
      </trkpt>
      <trkpt lat="39.057875" lon="-6.315173">
        <ele>253.973</ele>
        <time>2019-02-27T00:19:59Z</time>
      </trkpt>
      <trkpt lat="39.057897" lon="-6.315128">
        <ele>254.094</ele>
        <time>2019-02-27T00:20:00Z</time>
      </trkpt>
      <trkpt lat="39.058040" lon="-6.314850">
        <ele>254.453</ele>
        <time>2019-02-27T00:20:07Z</time>
      </trkpt>
      <trkpt lat="39.058355" lon="-6.314491">
        <ele>254.697</ele>
        <time>2019-02-27T00:20:20Z</time>
      </trkpt>
      <trkpt lat="39.058545" lon="-6.314089">
        <ele>254.370</ele>
        <time>2019-02-27T00:20:35Z</time>
      </trkpt>
      <trkpt lat="39.058610" lon="-6.313714">
        <ele>254.179</ele>
        <time>2019-02-27T00:20:43Z</time>
      </trkpt>
      <trkpt lat="39.058759" lon="-6.312938">
        <ele>254.228</ele>
        <time>2019-02-27T00:20:59Z</time>
      </trkpt>
      <trkpt lat="39.058868" lon="-6.312249">
        <ele>254.585</ele>
        <time>2019-02-27T00:21:13Z</time>
      </trkpt>
      <trkpt lat="39.058792" lon="-6.311557">
        <ele>254.589</ele>
        <time>2019-02-27T00:21:27Z</time>
      </trkpt>
      <trkpt lat="39.058776" lon="-6.311507">
        <ele>254.517</ele>
        <time>2019-02-27T00:21:28Z</time>
      </trkpt>
      <trkpt lat="39.058668" lon="-6.310686">
        <ele>254.908</ele>
        <time>2019-02-27T00:21:43Z</time>
      </trkpt>
      <trkpt lat="39.058641" lon="-6.310573">
        <ele>254.931</ele>
        <time>2019-02-27T00:21:45Z</time>
      </trkpt>
      <trkpt lat="39.058378" lon="-6.309759">
        <ele>255.222</ele>
        <time>2019-02-27T00:22:01Z</time>
      </trkpt>
      <trkpt lat="39.058380" lon="-6.309318">
        <ele>255.413</ele>
        <time>2019-02-27T00:22:09Z</time>
      </trkpt>
      <trkpt lat="39.058501" lon="-6.308298">
        <ele>255.542</ele>
        <time>2019-02-27T00:22:28Z</time>
      </trkpt>
      <trkpt lat="39.058636" lon="-6.307187">
        <ele>255.536</ele>
        <time>2019-02-27T00:22:48Z</time>
      </trkpt>
      <trkpt lat="39.058753" lon="-6.306256">
        <ele>256.019</ele>
        <time>2019-02-27T00:23:04Z</time>
      </trkpt>
      <trkpt lat="39.058780" lon="-6.305713">
        <ele>256.338</ele>
        <time>2019-02-27T00:23:18Z</time>
      </trkpt>
      <trkpt lat="39.058778" lon="-6.305715">
        <ele>256.347</ele>
        <time>2019-02-27T00:23:19Z</time>
      </trkpt>
      <trkpt lat="39.058767" lon="-6.305655">
        <ele>256.342</ele>
        <time>2019-02-27T00:23:34Z</time>
      </trkpt>
      <trkpt lat="39.058710" lon="-6.305012">
        <ele>256.522</ele>
        <time>2019-02-27T00:23:47Z</time>
      </trkpt>
      <trkpt lat="39.058717" lon="-6.304959">
        <ele>256.514</ele>
        <time>2019-02-27T00:23:48Z</time>
      </trkpt>
      <trkpt lat="39.058723" lon="-6.304905">
        <ele>256.508</ele>
        <time>2019-02-27T00:23:49Z</time>
      </trkpt>
      <trkpt lat="39.058722" lon="-6.304850">
        <ele>256.577</ele>
        <time>2019-02-27T00:23:50Z</time>
      </trkpt>
      <trkpt lat="39.058719" lon="-6.304794">
        <ele>256.418</ele>
        <time>2019-02-27T00:23:51Z</time>
      </trkpt>
      <trkpt lat="39.058735" lon="-6.304473">
        <ele>256.369</ele>
        <time>2019-02-27T00:23:57Z</time>
      </trkpt>
      <trkpt lat="39.058864" lon="-6.303893">
        <ele>256.298</ele>
        <time>2019-02-27T00:24:10Z</time>
      </trkpt>
      <trkpt lat="39.058916" lon="-6.303505">
        <ele>256.252</ele>
        <time>2019-02-27T00:24:21Z</time>
      </trkpt>
      <trkpt lat="39.058915" lon="-6.303500">
        <ele>256.295</ele>
        <time>2019-02-27T00:24:23Z</time>
      </trkpt>
      <trkpt lat="39.058950" lon="-6.303393">
        <ele>256.334</ele>
        <time>2019-02-27T00:30:00Z</time>
      </trkpt>
      <trkpt lat="39.059166" lon="-6.303085">
        <ele>256.893</ele>
        <time>2019-02-27T00:30:12Z</time>
      </trkpt>
      <trkpt lat="39.059270" lon="-6.302659">
        <ele>258.085</ele>
        <time>2019-02-27T00:30:25Z</time>
      </trkpt>
      <trkpt lat="39.059475" lon="-6.302356">
        <ele>258.989</ele>
        <time>2019-02-27T00:30:42Z</time>
      </trkpt>
      <trkpt lat="39.059709" lon="-6.301996">
        <ele>259.817</ele>
        <time>2019-02-27T00:30:57Z</time>
      </trkpt>
      <trkpt lat="39.059861" lon="-6.301739">
        <ele>260.708</ele>
        <time>2019-02-27T00:31:11Z</time>
      </trkpt>
      <trkpt lat="39.060032" lon="-6.301392">
        <ele>262.191</ele>
        <time>2019-02-27T00:31:26Z</time>
      </trkpt>
      <trkpt lat="39.060375" lon="-6.300791">
        <ele>265.222</ele>
        <time>2019-02-27T00:31:49Z</time>
      </trkpt>
      <trkpt lat="39.060611" lon="-6.300357">
        <ele>267.253</ele>
        <time>2019-02-27T00:32:07Z</time>
      </trkpt>
      <trkpt lat="39.060902" lon="-6.299927">
        <ele>267.282</ele>
        <time>2019-02-27T00:32:21Z</time>
      </trkpt>
      <trkpt lat="39.060922" lon="-6.299867">
        <ele>267.156</ele>
        <time>2019-02-27T00:32:22Z</time>
      </trkpt>
      <trkpt lat="39.060935" lon="-6.299806">
        <ele>267.019</ele>
        <time>2019-02-27T00:32:23Z</time>
      </trkpt>
      <trkpt lat="39.060938" lon="-6.299740">
        <ele>266.888</ele>
        <time>2019-02-27T00:32:24Z</time>
      </trkpt>
      <trkpt lat="39.060934" lon="-6.299673">
        <ele>266.617</ele>
        <time>2019-02-27T00:32:25Z</time>
      </trkpt>
      <trkpt lat="39.060923" lon="-6.299605">
        <ele>266.327</ele>
        <time>2019-02-27T00:32:26Z</time>
      </trkpt>
      <trkpt lat="39.060906" lon="-6.299534">
        <ele>266.068</ele>
        <time>2019-02-27T00:32:27Z</time>
      </trkpt>
      <trkpt lat="39.060885" lon="-6.299463">
        <ele>265.714</ele>
        <time>2019-02-27T00:32:28Z</time>
      </trkpt>
      <trkpt lat="39.060861" lon="-6.299389">
        <ele>265.408</ele>
        <time>2019-02-27T00:32:29Z</time>
      </trkpt>
      <trkpt lat="39.060824" lon="-6.299238">
        <ele>264.645</ele>
        <time>2019-02-27T00:32:31Z</time>
      </trkpt>
      <trkpt lat="39.060815" lon="-6.299170">
        <ele>264.496</ele>
        <time>2019-02-27T00:32:32Z</time>
      </trkpt>
      <trkpt lat="39.060793" lon="-6.298888">
        <ele>263.527</ele>
        <time>2019-02-27T00:32:40Z</time>
      </trkpt>
      <trkpt lat="39.060800" lon="-6.298788">
        <ele>263.296</ele>
        <time>2019-02-27T00:32:42Z</time>
      </trkpt>
      <trkpt lat="39.060810" lon="-6.298732">
        <ele>263.190</ele>
        <time>2019-02-27T00:32:43Z</time>
      </trkpt>
      <trkpt lat="39.060824" lon="-6.298674">
        <ele>262.963</ele>
        <time>2019-02-27T00:32:44Z</time>
      </trkpt>
      <trkpt lat="39.060843" lon="-6.298616">
        <ele>262.712</ele>
        <time>2019-02-27T00:32:45Z</time>
      </trkpt>
      <trkpt lat="39.060864" lon="-6.298558">
        <ele>262.551</ele>
        <time>2019-02-27T00:32:46Z</time>
      </trkpt>
      <trkpt lat="39.060888" lon="-6.298501">
        <ele>262.321</ele>
        <time>2019-02-27T00:32:47Z</time>
      </trkpt>
      <trkpt lat="39.061091" lon="-6.298052">
        <ele>261.241</ele>
        <time>2019-02-27T00:32:55Z</time>
      </trkpt>
      <trkpt lat="39.061222" lon="-6.297724">
        <ele>260.705</ele>
        <time>2019-02-27T00:33:01Z</time>
      </trkpt>
      <trkpt lat="39.061308" lon="-6.297547">
        <ele>260.608</ele>
        <time>2019-02-27T00:33:05Z</time>
      </trkpt>
      <trkpt lat="39.061395" lon="-6.297435">
        <ele>260.685</ele>
        <time>2019-02-27T00:33:08Z</time>
      </trkpt>
      <trkpt lat="39.061429" lon="-6.297405">
        <ele>260.676</ele>
        <time>2019-02-27T00:33:09Z</time>
      </trkpt>
      <trkpt lat="39.061502" lon="-6.297354">
        <ele>260.667</ele>
        <time>2019-02-27T00:33:11Z</time>
      </trkpt>
      <trkpt lat="39.062103" lon="-6.297148">
        <ele>261.796</ele>
        <time>2019-02-27T00:33:29Z</time>
      </trkpt>
      <trkpt lat="39.062542" lon="-6.297086">
        <ele>263.990</ele>
        <time>2019-02-27T00:33:45Z</time>
      </trkpt>
      <trkpt lat="39.063107" lon="-6.297037">
        <ele>266.633</ele>
        <time>2019-02-27T00:34:05Z</time>
      </trkpt>
      <trkpt lat="39.063695" lon="-6.296969">
        <ele>268.792</ele>
        <time>2019-02-27T00:34:28Z</time>
      </trkpt>
      <trkpt lat="39.064092" lon="-6.296859">
        <ele>269.571</ele>
        <time>2019-02-27T00:34:43Z</time>
      </trkpt>
      <trkpt lat="39.064132" lon="-6.296832">
        <ele>269.546</ele>
        <time>2019-02-27T00:34:44Z</time>
      </trkpt>
      <trkpt lat="39.064170" lon="-6.296800">
        <ele>269.588</ele>
        <time>2019-02-27T00:34:45Z</time>
      </trkpt>
      <trkpt lat="39.064211" lon="-6.296770">
        <ele>269.516</ele>
        <time>2019-02-27T00:34:46Z</time>
      </trkpt>
      <trkpt lat="39.064339" lon="-6.296686">
        <ele>269.508</ele>
        <time>2019-02-27T00:34:49Z</time>
      </trkpt>
      <trkpt lat="39.064372" lon="-6.296652">
        <ele>269.557</ele>
        <time>2019-02-27T00:34:50Z</time>
      </trkpt>
      <trkpt lat="39.064635" lon="-6.296444">
        <ele>269.648</ele>
        <time>2019-02-27T00:35:02Z</time>
      </trkpt>
      <trkpt lat="39.065031" lon="-6.296242">
        <ele>270.089</ele>
        <time>2019-02-27T00:35:17Z</time>
      </trkpt>
      <trkpt lat="39.065432" lon="-6.295970">
        <ele>273.138</ele>
        <time>2019-02-27T00:35:36Z</time>
      </trkpt>
      <trkpt lat="39.065606" lon="-6.295741">
        <ele>275.092</ele>
        <time>2019-02-27T00:35:53Z</time>
      </trkpt>
      <trkpt lat="39.065759" lon="-6.295541">
        <ele>276.295</ele>
        <time>2019-02-27T00:36:08Z</time>
      </trkpt>
      <trkpt lat="39.066091" lon="-6.295432">
        <ele>276.534</ele>
        <time>2019-02-27T00:36:20Z</time>
      </trkpt>
      <trkpt lat="39.066733" lon="-6.295258">
        <ele>276.633</ele>
        <time>2019-02-27T00:36:37Z</time>
      </trkpt>
      <trkpt lat="39.067042" lon="-6.295198">
        <ele>277.068</ele>
        <time>2019-02-27T00:36:48Z</time>
      </trkpt>
      <trkpt lat="39.067493" lon="-6.294971">
        <ele>278.042</ele>
        <time>2019-02-27T00:37:04Z</time>
      </trkpt>
      <trkpt lat="39.067691" lon="-6.294898">
        <ele>278.326</ele>
        <time>2019-02-27T00:37:10Z</time>
      </trkpt>
      <trkpt lat="39.067969" lon="-6.294861">
        <ele>278.508</ele>
        <time>2019-02-27T00:37:16Z</time>
      </trkpt>
      <trkpt lat="39.068382" lon="-6.294668">
        <ele>278.729</ele>
        <time>2019-02-27T00:37:28Z</time>
      </trkpt>
      <trkpt lat="39.068746" lon="-6.294515">
        <ele>280.310</ele>
        <time>2019-02-27T00:37:43Z</time>
      </trkpt>
      <trkpt lat="39.069040" lon="-6.294355">
        <ele>282.471</ele>
        <time>2019-02-27T00:37:57Z</time>
      </trkpt>
      <trkpt lat="39.069366" lon="-6.293950">
        <ele>284.310</ele>
        <time>2019-02-27T00:38:15Z</time>
      </trkpt>
      <trkpt lat="39.069620" lon="-6.293521">
        <ele>285.454</ele>
        <time>2019-02-27T00:38:31Z</time>
      </trkpt>
      <trkpt lat="39.069575" lon="-6.293378">
        <ele>285.617</ele>
        <time>2019-02-27T00:38:36Z</time>
      </trkpt>
      <trkpt lat="39.069575" lon="-6.293352">
        <ele>285.676</ele>
        <time>2019-02-27T00:38:37Z</time>
      </trkpt>
      <trkpt lat="39.069576" lon="-6.293324">
        <ele>285.775</ele>
        <time>2019-02-27T00:38:38Z</time>
      </trkpt>
      <trkpt lat="39.069578" lon="-6.293299">
        <ele>285.758</ele>
        <time>2019-02-27T00:38:39Z</time>
      </trkpt>
      <trkpt lat="39.069580" lon="-6.293277">
        <ele>285.852</ele>
        <time>2019-02-27T00:38:40Z</time>
      </trkpt>
      <trkpt lat="39.069584" lon="-6.293256">
        <ele>285.817</ele>
        <time>2019-02-27T00:38:41Z</time>
      </trkpt>
      <trkpt lat="39.069588" lon="-6.293236">
        <ele>285.908</ele>
        <time>2019-02-27T00:38:42Z</time>
      </trkpt>
      <trkpt lat="39.069791" lon="-6.292980">
        <ele>287.048</ele>
        <time>2019-02-27T00:38:54Z</time>
      </trkpt>
      <trkpt lat="39.070092" lon="-6.292611">
        <ele>289.779</ele>
        <time>2019-02-27T00:39:14Z</time>
      </trkpt>
      <trkpt lat="39.070307" lon="-6.292312">
        <ele>292.060</ele>
        <time>2019-02-27T00:39:33Z</time>
      </trkpt>
      <trkpt lat="39.070553" lon="-6.292079">
        <ele>293.999</ele>
        <time>2019-02-27T00:39:50Z</time>
      </trkpt>
      <trkpt lat="39.070872" lon="-6.291795">
        <ele>296.783</ele>
        <time>2019-02-27T00:40:12Z</time>
      </trkpt>
      <trkpt lat="39.071071" lon="-6.291606">
        <ele>298.966</ele>
        <time>2019-02-27T00:40:27Z</time>
      </trkpt>
      <trkpt lat="39.071270" lon="-6.291422">
        <ele>301.015</ele>
        <time>2019-02-27T00:40:43Z</time>
      </trkpt>
      <trkpt lat="39.071582" lon="-6.291128">
        <ele>302.594</ele>
        <time>2019-02-27T00:40:57Z</time>
      </trkpt>
      <trkpt lat="39.071871" lon="-6.290737">
        <ele>303.291</ele>
        <time>2019-02-27T00:41:11Z</time>
      </trkpt>
      <trkpt lat="39.072150" lon="-6.290356">
        <ele>305.281</ele>
        <time>2019-02-27T00:41:28Z</time>
      </trkpt>
      <trkpt lat="39.072441" lon="-6.290026">
        <ele>308.419</ele>
        <time>2019-02-27T00:41:46Z</time>
      </trkpt>
      <trkpt lat="39.072680" lon="-6.289771">
        <ele>310.208</ele>
        <time>2019-02-27T00:42:01Z</time>
      </trkpt>
      <trkpt lat="39.072835" lon="-6.289621">
        <ele>311.192</ele>
        <time>2019-02-27T00:42:14Z</time>
      </trkpt>
      <trkpt lat="39.072891" lon="-6.289580">
        <ele>311.313</ele>
        <time>2019-02-27T00:42:34Z</time>
      </trkpt>
      <trkpt lat="39.073081" lon="-6.289262">
        <ele>311.554</ele>
        <time>2019-02-27T00:42:45Z</time>
      </trkpt>
      <trkpt lat="39.073379" lon="-6.288587">
        <ele>310.943</ele>
        <time>2019-02-27T00:42:58Z</time>
      </trkpt>
      <trkpt lat="39.073746" lon="-6.287584">
        <ele>310.157</ele>
        <time>2019-02-27T00:43:16Z</time>
      </trkpt>
      <trkpt lat="39.073914" lon="-6.287090">
        <ele>310.260</ele>
        <time>2019-02-27T00:43:26Z</time>
      </trkpt>
      <trkpt lat="39.074022" lon="-6.286853">
        <ele>310.389</ele>
        <time>2019-02-27T00:43:31Z</time>
      </trkpt>
      <trkpt lat="39.074083" lon="-6.286773">
        <ele>310.398</ele>
        <time>2019-02-27T00:43:33Z</time>
      </trkpt>
      <trkpt lat="39.074652" lon="-6.286125">
        <ele>309.638</ele>
        <time>2019-02-27T00:43:46Z</time>
      </trkpt>
      <trkpt lat="39.074691" lon="-6.286060">
        <ele>309.570</ele>
        <time>2019-02-27T00:43:47Z</time>
      </trkpt>
      <trkpt lat="39.074720" lon="-6.285992">
        <ele>309.317</ele>
        <time>2019-02-27T00:43:48Z</time>
      </trkpt>
      <trkpt lat="39.074744" lon="-6.285923">
        <ele>309.208</ele>
        <time>2019-02-27T00:43:49Z</time>
      </trkpt>
      <trkpt lat="39.074956" lon="-6.285232">
        <ele>307.916</ele>
        <time>2019-02-27T00:44:02Z</time>
      </trkpt>
      <trkpt lat="39.075133" lon="-6.284856">
        <ele>307.967</ele>
        <time>2019-02-27T00:44:16Z</time>
      </trkpt>
      <trkpt lat="39.075321" lon="-6.284445">
        <ele>309.388</ele>
        <time>2019-02-27T00:44:33Z</time>
      </trkpt>
      <trkpt lat="39.075582" lon="-6.284113">
        <ele>310.557</ele>
        <time>2019-02-27T00:44:49Z</time>
      </trkpt>
      <trkpt lat="39.075714" lon="-6.283659">
        <ele>311.931</ele>
        <time>2019-02-27T00:45:05Z</time>
      </trkpt>
      <trkpt lat="39.075920" lon="-6.283341">
        <ele>313.234</ele>
        <time>2019-02-27T00:45:19Z</time>
      </trkpt>
      <trkpt lat="39.076196" lon="-6.283004">
        <ele>314.253</ele>
        <time>2019-02-27T00:45:35Z</time>
      </trkpt>
      <trkpt lat="39.076438" lon="-6.282694">
        <ele>315.692</ele>
        <time>2019-02-27T00:45:50Z</time>
      </trkpt>
      <trkpt lat="39.076695" lon="-6.282486">
        <ele>316.769</ele>
        <time>2019-02-27T00:46:04Z</time>
      </trkpt>
      <trkpt lat="39.077015" lon="-6.282208">
        <ele>318.304</ele>
        <time>2019-02-27T00:46:21Z</time>
      </trkpt>
      <trkpt lat="39.077198" lon="-6.282100">
        <ele>318.924</ele>
        <time>2019-02-27T00:46:33Z</time>
      </trkpt>
      <trkpt lat="39.077546" lon="-6.281928">
        <ele>320.108</ele>
        <time>2019-02-27T00:46:48Z</time>
      </trkpt>
      <trkpt lat="39.077947" lon="-6.281756">
        <ele>320.819</ele>
        <time>2019-02-27T00:47:03Z</time>
      </trkpt>
      <trkpt lat="39.078382" lon="-6.281445">
        <ele>321.560</ele>
        <time>2019-02-27T00:47:17Z</time>
      </trkpt>
      <trkpt lat="39.078803" lon="-6.281168">
        <ele>321.861</ele>
        <time>2019-02-27T00:47:29Z</time>
      </trkpt>
      <trkpt lat="39.078844" lon="-6.281146">
        <ele>321.870</ele>
        <time>2019-02-27T00:47:30Z</time>
      </trkpt>
      <trkpt lat="39.079161" lon="-6.280924">
        <ele>321.854</ele>
        <time>2019-02-27T00:47:39Z</time>
      </trkpt>
      <trkpt lat="39.079776" lon="-6.280699">
        <ele>321.427</ele>
        <time>2019-02-27T00:47:53Z</time>
      </trkpt>
      <trkpt lat="39.080166" lon="-6.280570">
        <ele>320.826</ele>
        <time>2019-02-27T00:48:01Z</time>
      </trkpt>
      <trkpt lat="39.080214" lon="-6.280554">
        <ele>320.795</ele>
        <time>2019-02-27T00:48:02Z</time>
      </trkpt>
      <trkpt lat="39.080261" lon="-6.280538">
        <ele>320.695</ele>
        <time>2019-02-27T00:48:03Z</time>
      </trkpt>
      <trkpt lat="39.080308" lon="-6.280518">
        <ele>320.549</ele>
        <time>2019-02-27T00:48:04Z</time>
      </trkpt>
      <trkpt lat="39.080356" lon="-6.280496">
        <ele>320.423</ele>
        <time>2019-02-27T00:48:05Z</time>
      </trkpt>
      <trkpt lat="39.080932" lon="-6.280198">
        <ele>319.908</ele>
        <time>2019-02-27T00:48:18Z</time>
      </trkpt>
      <trkpt lat="39.081399" lon="-6.279973">
        <ele>320.342</ele>
        <time>2019-02-27T00:48:35Z</time>
      </trkpt>
      <trkpt lat="39.081767" lon="-6.279814">
        <ele>322.043</ele>
        <time>2019-02-27T00:48:49Z</time>
      </trkpt>
      <trkpt lat="39.082329" lon="-6.279408">
        <ele>322.634</ele>
        <time>2019-02-27T00:49:03Z</time>
      </trkpt>
      <trkpt lat="39.083209" lon="-6.279083">
        <ele>322.073</ele>
        <time>2019-02-27T00:49:19Z</time>
      </trkpt>
      <trkpt lat="39.083376" lon="-6.278980">
        <ele>321.887</ele>
        <time>2019-02-27T00:49:22Z</time>
      </trkpt>
      <trkpt lat="39.083728" lon="-6.278792">
        <ele>321.470</ele>
        <time>2019-02-27T00:49:28Z</time>
      </trkpt>
      <trkpt lat="39.083792" lon="-6.278786">
        <ele>321.229</ele>
        <time>2019-02-27T00:49:29Z</time>
      </trkpt>
      <trkpt lat="39.084121" lon="-6.278777">
        <ele>320.518</ele>
        <time>2019-02-27T00:49:34Z</time>
      </trkpt>
      <trkpt lat="39.084185" lon="-6.278762">
        <ele>320.445</ele>
        <time>2019-02-27T00:49:35Z</time>
      </trkpt>
      <trkpt lat="39.085066" lon="-6.278389">
        <ele>318.047</ele>
        <time>2019-02-27T00:49:49Z</time>
      </trkpt>
      <trkpt lat="39.085542" lon="-6.278171">
        <ele>317.411</ele>
        <time>2019-02-27T00:50:01Z</time>
      </trkpt>
      <trkpt lat="39.086111" lon="-6.277717">
        <ele>319.008</ele>
        <time>2019-02-27T00:50:19Z</time>
      </trkpt>
      <trkpt lat="39.086662" lon="-6.277330">
        <ele>320.117</ele>
        <time>2019-02-27T00:50:35Z</time>
      </trkpt>
      <trkpt lat="39.087327" lon="-6.276729">
        <ele>320.538</ele>
        <time>2019-02-27T00:50:54Z</time>
      </trkpt>
      <trkpt lat="39.087529" lon="-6.276534">
        <ele>320.589</ele>
        <time>2019-02-27T00:51:00Z</time>
      </trkpt>
      <trkpt lat="39.088037" lon="-6.275948">
        <ele>320.668</ele>
        <time>2019-02-27T00:51:17Z</time>
      </trkpt>
      <trkpt lat="39.088238" lon="-6.275745">
        <ele>320.832</ele>
        <time>2019-02-27T00:51:23Z</time>
      </trkpt>
      <trkpt lat="39.088270" lon="-6.275717">
        <ele>320.875</ele>
        <time>2019-02-27T00:51:24Z</time>
      </trkpt>
      <trkpt lat="39.088290" lon="-6.275694">
        <ele>320.814</ele>
        <time>2019-02-27T00:51:25Z</time>
      </trkpt>
      <trkpt lat="39.088311" lon="-6.275668">
        <ele>320.893</ele>
        <time>2019-02-27T00:51:27Z</time>
      </trkpt>
      <trkpt lat="39.088323" lon="-6.275657">
        <ele>320.953</ele>
        <time>2019-02-27T00:51:28Z</time>
      </trkpt>
      <trkpt lat="39.088639" lon="-6.275290">
        <ele>321.204</ele>
        <time>2019-02-27T00:51:40Z</time>
      </trkpt>
      <trkpt lat="39.089161" lon="-6.274726">
        <ele>321.714</ele>
        <time>2019-02-27T00:51:56Z</time>
      </trkpt>
      <trkpt lat="39.089562" lon="-6.274332">
        <ele>322.008</ele>
        <time>2019-02-27T00:52:09Z</time>
      </trkpt>
      <trkpt lat="39.090184" lon="-6.273576">
        <ele>322.018</ele>
        <time>2019-02-27T00:52:26Z</time>
      </trkpt>
      <trkpt lat="39.090276" lon="-6.273505">
        <ele>321.899</ele>
        <time>2019-02-27T00:52:28Z</time>
      </trkpt>
      <trkpt lat="39.091152" lon="-6.272951">
        <ele>321.180</ele>
        <time>2019-02-27T00:52:46Z</time>
      </trkpt>
      <trkpt lat="39.091865" lon="-6.272559">
        <ele>321.369</ele>
        <time>2019-02-27T00:53:03Z</time>
      </trkpt>
      <trkpt lat="39.092543" lon="-6.272220">
        <ele>321.883</ele>
        <time>2019-02-27T00:53:19Z</time>
      </trkpt>
      <trkpt lat="39.093223" lon="-6.272056">
        <ele>322.796</ele>
        <time>2019-02-27T00:53:35Z</time>
      </trkpt>
      <trkpt lat="39.093815" lon="-6.271919">
        <ele>323.235</ele>
        <time>2019-02-27T00:53:50Z</time>
      </trkpt>
      <trkpt lat="39.094478" lon="-6.271622">
        <ele>323.914</ele>
        <time>2019-02-27T00:54:07Z</time>
      </trkpt>
      <trkpt lat="39.095045" lon="-6.271188">
        <ele>324.412</ele>
        <time>2019-02-27T00:54:24Z</time>
      </trkpt>
      <trkpt lat="39.095088" lon="-6.271085">
        <ele>324.532</ele>
        <time>2019-02-27T00:54:34Z</time>
      </trkpt>
      <trkpt lat="39.095105" lon="-6.271026">
        <ele>324.505</ele>
        <time>2019-02-27T00:54:41Z</time>
      </trkpt>
      <trkpt lat="39.095112" lon="-6.271012">
        <ele>324.508</ele>
        <time>2019-02-27T00:54:42Z</time>
      </trkpt>
      <trkpt lat="39.095117" lon="-6.270999">
        <ele>324.634</ele>
        <time>2019-02-27T00:54:43Z</time>
      </trkpt>
      <trkpt lat="39.095121" lon="-6.270987">
        <ele>324.655</ele>
        <time>2019-02-27T00:54:44Z</time>
      </trkpt>
      <trkpt lat="39.095139" lon="-6.270960">
        <ele>324.646</ele>
        <time>2019-02-27T00:54:51Z</time>
      </trkpt>
      <trkpt lat="39.095304" lon="-6.270806">
        <ele>324.765</ele>
        <time>2019-02-27T00:55:24Z</time>
      </trkpt>
      <trkpt lat="39.095654" lon="-6.270757">
        <ele>325.319</ele>
        <time>2019-02-27T00:55:38Z</time>
      </trkpt>
      <trkpt lat="39.095990" lon="-6.270874">
        <ele>325.932</ele>
        <time>2019-02-27T00:55:53Z</time>
      </trkpt>
      <trkpt lat="39.096220" lon="-6.271045">
        <ele>326.321</ele>
        <time>2019-02-27T00:56:05Z</time>
      </trkpt>
      <trkpt lat="39.096586" lon="-6.271118">
        <ele>326.860</ele>
        <time>2019-02-27T00:56:19Z</time>
      </trkpt>
      <trkpt lat="39.096915" lon="-6.271064">
        <ele>327.299</ele>
        <time>2019-02-27T00:56:30Z</time>
      </trkpt>
      <trkpt lat="39.097191" lon="-6.271069">
        <ele>327.707</ele>
        <time>2019-02-27T00:56:42Z</time>
      </trkpt>
      <trkpt lat="39.097484" lon="-6.270917">
        <ele>328.427</ele>
        <time>2019-02-27T00:56:53Z</time>
      </trkpt>
      <trkpt lat="39.097695" lon="-6.270671">
        <ele>329.208</ele>
        <time>2019-02-27T00:57:06Z</time>
      </trkpt>
      <trkpt lat="39.098010" lon="-6.270326">
        <ele>330.632</ele>
        <time>2019-02-27T00:57:22Z</time>
      </trkpt>
      <trkpt lat="39.098285" lon="-6.270030">
        <ele>331.743</ele>
        <time>2019-02-27T00:57:37Z</time>
      </trkpt>
      <trkpt lat="39.098478" lon="-6.269866">
        <ele>332.754</ele>
        <time>2019-02-27T00:57:48Z</time>
      </trkpt>
      <trkpt lat="39.098749" lon="-6.269648">
        <ele>334.473</ele>
        <time>2019-02-27T00:58:02Z</time>
      </trkpt>
      <trkpt lat="39.099020" lon="-6.269357">
        <ele>336.227</ele>
        <time>2019-02-27T00:58:17Z</time>
      </trkpt>
      <trkpt lat="39.099207" lon="-6.269199">
        <ele>337.420</ele>
        <time>2019-02-27T00:58:27Z</time>
      </trkpt>
      <trkpt lat="39.099430" lon="-6.269021">
        <ele>339.399</ele>
        <time>2019-02-27T00:58:39Z</time>
      </trkpt>
      <trkpt lat="39.099588" lon="-6.268891">
        <ele>340.978</ele>
        <time>2019-02-27T00:58:51Z</time>
      </trkpt>
      <trkpt lat="39.099630" lon="-6.268873">
        <ele>341.285</ele>
        <time>2019-02-27T00:58:54Z</time>
      </trkpt>
      <trkpt lat="39.099645" lon="-6.268863">
        <ele>341.489</ele>
        <time>2019-02-27T00:58:55Z</time>
      </trkpt>
      <trkpt lat="39.099662" lon="-6.268858">
        <ele>341.517</ele>
        <time>2019-02-27T00:58:56Z</time>
      </trkpt>
      <trkpt lat="39.099677" lon="-6.268853">
        <ele>341.608</ele>
        <time>2019-02-27T00:58:57Z</time>
      </trkpt>
      <trkpt lat="39.099691" lon="-6.268846">
        <ele>341.831</ele>
        <time>2019-02-27T00:58:58Z</time>
      </trkpt>
      <trkpt lat="39.099703" lon="-6.268835">
        <ele>341.982</ele>
        <time>2019-02-27T00:58:59Z</time>
      </trkpt>
      <trkpt lat="39.099714" lon="-6.268819">
        <ele>342.083</ele>
        <time>2019-02-27T00:59:00Z</time>
      </trkpt>
      <trkpt lat="39.099728" lon="-6.268801">
        <ele>342.242</ele>
        <time>2019-02-27T00:59:01Z</time>
      </trkpt>
      <trkpt lat="39.099742" lon="-6.268788">
        <ele>342.376</ele>
        <time>2019-02-27T00:59:02Z</time>
      </trkpt>
      <trkpt lat="39.099756" lon="-6.268775">
        <ele>342.579</ele>
        <time>2019-02-27T00:59:03Z</time>
      </trkpt>
      <trkpt lat="39.099777" lon="-6.268752">
        <ele>342.788</ele>
        <time>2019-02-27T00:59:05Z</time>
      </trkpt>
      <trkpt lat="39.099986" lon="-6.268668">
        <ele>344.337</ele>
        <time>2019-02-27T00:59:19Z</time>
      </trkpt>
      <trkpt lat="39.100219" lon="-6.268542">
        <ele>346.039</ele>
        <time>2019-02-27T00:59:34Z</time>
      </trkpt>
      <trkpt lat="39.100378" lon="-6.268457">
        <ele>347.301</ele>
        <time>2019-02-27T00:59:47Z</time>
      </trkpt>
      <trkpt lat="39.100488" lon="-6.268428">
        <ele>348.221</ele>
        <time>2019-02-27T01:00:00Z</time>
      </trkpt>
      <trkpt lat="39.100666" lon="-6.268429">
        <ele>349.708</ele>
        <time>2019-02-27T01:00:14Z</time>
      </trkpt>
      <trkpt lat="39.100664" lon="-6.268428">
        <ele>349.796</ele>
        <time>2019-02-27T01:00:15Z</time>
      </trkpt>
      <trkpt lat="39.100757" lon="-6.268427">
        <ele>350.457</ele>
        <time>2019-02-27T01:00:39Z</time>
      </trkpt>
      <trkpt lat="39.101035" lon="-6.268533">
        <ele>351.798</ele>
        <time>2019-02-27T01:00:54Z</time>
      </trkpt>
      <trkpt lat="39.101343" lon="-6.268558">
        <ele>353.157</ele>
        <time>2019-02-27T01:01:07Z</time>
      </trkpt>
      <trkpt lat="39.101728" lon="-6.268589">
        <ele>355.281</ele>
        <time>2019-02-27T01:01:22Z</time>
      </trkpt>
      <trkpt lat="39.102016" lon="-6.268595">
        <ele>357.154</ele>
        <time>2019-02-27T01:01:34Z</time>
      </trkpt>
      <trkpt lat="39.102311" lon="-6.268565">
        <ele>359.283</ele>
        <time>2019-02-27T01:01:48Z</time>
      </trkpt>
      <trkpt lat="39.102551" lon="-6.268544">
        <ele>361.412</ele>
        <time>2019-02-27T01:02:04Z</time>
      </trkpt>
      <trkpt lat="39.102820" lon="-6.268584">
        <ele>364.216</ele>
        <time>2019-02-27T01:02:21Z</time>
      </trkpt>
      <trkpt lat="39.102877" lon="-6.268591">
        <ele>364.776</ele>
        <time>2019-02-27T01:02:25Z</time>
      </trkpt>
      <trkpt lat="39.103082" lon="-6.268653">
        <ele>366.813</ele>
        <time>2019-02-27T01:02:39Z</time>
      </trkpt>
      <trkpt lat="39.103289" lon="-6.268775">
        <ele>369.108</ele>
        <time>2019-02-27T01:02:55Z</time>
      </trkpt>
      <trkpt lat="39.103484" lon="-6.268852">
        <ele>370.834</ele>
        <time>2019-02-27T01:03:10Z</time>
      </trkpt>
      <trkpt lat="39.103496" lon="-6.268849">
        <ele>370.995</ele>
        <time>2019-02-27T01:03:11Z</time>
      </trkpt>
      <trkpt lat="39.103509" lon="-6.268848">
        <ele>371.076</ele>
        <time>2019-02-27T01:03:12Z</time>
      </trkpt>
      <trkpt lat="39.103527" lon="-6.268843">
        <ele>371.125</ele>
        <time>2019-02-27T01:03:17Z</time>
      </trkpt>
      <trkpt lat="39.103617" lon="-6.268846">
        <ele>371.779</ele>
        <time>2019-02-27T01:03:25Z</time>
      </trkpt>
      <trkpt lat="39.103628" lon="-6.268847">
        <ele>371.892</ele>
        <time>2019-02-27T01:03:26Z</time>
      </trkpt>
      <trkpt lat="39.103641" lon="-6.268847">
        <ele>371.951</ele>
        <time>2019-02-27T01:03:27Z</time>
      </trkpt>
      <trkpt lat="39.103652" lon="-6.268848">
        <ele>371.940</ele>
        <time>2019-02-27T01:03:28Z</time>
      </trkpt>
      <trkpt lat="39.103764" lon="-6.268862">
        <ele>372.474</ele>
        <time>2019-02-27T01:03:42Z</time>
      </trkpt>
      <trkpt lat="39.103852" lon="-6.268892">
        <ele>372.856</ele>
        <time>2019-02-27T01:03:49Z</time>
      </trkpt>
      <trkpt lat="39.104093" lon="-6.268857">
        <ele>373.721</ele>
        <time>2019-02-27T01:04:05Z</time>
      </trkpt>
      <trkpt lat="39.104335" lon="-6.268788">
        <ele>374.208</ele>
        <time>2019-02-27T01:04:18Z</time>
      </trkpt>
      <trkpt lat="39.104633" lon="-6.268793">
        <ele>374.740</ele>
        <time>2019-02-27T01:04:30Z</time>
      </trkpt>
      <trkpt lat="39.105014" lon="-6.268732">
        <ele>375.431</ele>
        <time>2019-02-27T01:04:43Z</time>
      </trkpt>
      <trkpt lat="39.105122" lon="-6.268704">
        <ele>375.782</ele>
        <time>2019-02-27T01:04:51Z</time>
      </trkpt>
      <trkpt lat="39.105185" lon="-6.268703">
        <ele>375.971</ele>
        <time>2019-02-27T01:05:13Z</time>
      </trkpt>
      <trkpt lat="39.105522" lon="-6.268609">
        <ele>377.095</ele>
        <time>2019-02-27T01:05:26Z</time>
      </trkpt>
      <trkpt lat="39.105744" lon="-6.268333">
        <ele>377.848</ele>
        <time>2019-02-27T01:05:39Z</time>
      </trkpt>
      <trkpt lat="39.106031" lon="-6.268171">
        <ele>378.487</ele>
        <time>2019-02-27T01:05:51Z</time>
      </trkpt>
      <trkpt lat="39.106472" lon="-6.268069">
        <ele>379.256</ele>
        <time>2019-02-27T01:06:07Z</time>
      </trkpt>
      <trkpt lat="39.106849" lon="-6.267923">
        <ele>379.919</ele>
        <time>2019-02-27T01:06:20Z</time>
      </trkpt>
      <trkpt lat="39.107434" lon="-6.267707">
        <ele>381.209</ele>
        <time>2019-02-27T01:06:38Z</time>
      </trkpt>
      <trkpt lat="39.107822" lon="-6.267556">
        <ele>381.719</ele>
        <time>2019-02-27T01:06:52Z</time>
      </trkpt>
      <trkpt lat="39.108073" lon="-6.267433">
        <ele>382.208</ele>
        <time>2019-02-27T01:07:05Z</time>
      </trkpt>
      <trkpt lat="39.108301" lon="-6.267137">
        <ele>383.094</ele>
        <time>2019-02-27T01:07:17Z</time>
      </trkpt>
      <trkpt lat="39.108637" lon="-6.266777">
        <ele>383.975</ele>
        <time>2019-02-27T01:07:33Z</time>
      </trkpt>
      <trkpt lat="39.109048" lon="-6.266245">
        <ele>385.186</ele>
        <time>2019-02-27T01:07:51Z</time>
      </trkpt>
      <trkpt lat="39.109435" lon="-6.265942">
        <ele>385.785</ele>
        <time>2019-02-27T01:08:06Z</time>
      </trkpt>
      <trkpt lat="39.109929" lon="-6.265576">
        <ele>386.799</ele>
        <time>2019-02-27T01:08:23Z</time>
      </trkpt>
      <trkpt lat="39.110320" lon="-6.265205">
        <ele>387.542</ele>
        <time>2019-02-27T01:08:38Z</time>
      </trkpt>
      <trkpt lat="39.110753" lon="-6.264829">
        <ele>388.081</ele>
        <time>2019-02-27T01:08:54Z</time>
      </trkpt>
      <trkpt lat="39.111121" lon="-6.264497">
        <ele>388.830</ele>
        <time>2019-02-27T01:09:08Z</time>
      </trkpt>
      <trkpt lat="39.111595" lon="-6.264461">
        <ele>389.749</ele>
        <time>2019-02-27T01:09:22Z</time>
      </trkpt>
      <trkpt lat="39.112284" lon="-6.264508">
        <ele>391.202</ele>
        <time>2019-02-27T01:09:39Z</time>
      </trkpt>
      <trkpt lat="39.112934" lon="-6.264263">
        <ele>392.122</ele>
        <time>2019-02-27T01:09:57Z</time>
      </trkpt>
      <trkpt lat="39.113566" lon="-6.264055">
        <ele>392.808</ele>
        <time>2019-02-27T01:10:14Z</time>
      </trkpt>
      <trkpt lat="39.114024" lon="-6.263953">
        <ele>393.137</ele>
        <time>2019-02-27T01:10:28Z</time>
      </trkpt>
      <trkpt lat="39.114507" lon="-6.263922">
        <ele>393.678</ele>
        <time>2019-02-27T01:10:43Z</time>
      </trkpt>
      <trkpt lat="39.115085" lon="-6.263757">
        <ele>394.749</ele>
        <time>2019-02-27T01:11:01Z</time>
      </trkpt>
      <trkpt lat="39.115644" lon="-6.263629">
        <ele>395.488</ele>
        <time>2019-02-27T01:11:17Z</time>
      </trkpt>
      <trkpt lat="39.116260" lon="-6.263452">
        <ele>396.052</ele>
        <time>2019-02-27T01:11:34Z</time>
      </trkpt>
      <trkpt lat="39.116783" lon="-6.263325">
        <ele>396.685</ele>
        <time>2019-02-27T01:11:49Z</time>
      </trkpt>
      <trkpt lat="39.117116" lon="-6.263271">
        <ele>397.054</ele>
        <time>2019-02-27T01:12:00Z</time>
      </trkpt>
      <trkpt lat="39.117452" lon="-6.263164">
        <ele>397.553</ele>
        <time>2019-02-27T01:12:12Z</time>
      </trkpt>
      <trkpt lat="39.118084" lon="-6.262936">
        <ele>398.645</ele>
        <time>2019-02-27T01:12:32Z</time>
      </trkpt>
      <trkpt lat="39.118699" lon="-6.262712">
        <ele>399.647</ele>
        <time>2019-02-27T01:12:50Z</time>
      </trkpt>
      <trkpt lat="39.119221" lon="-6.262473">
        <ele>400.411</ele>
        <time>2019-02-27T01:13:05Z</time>
      </trkpt>
      <trkpt lat="39.119911" lon="-6.262196">
        <ele>401.608</ele>
        <time>2019-02-27T01:13:25Z</time>
      </trkpt>
      <trkpt lat="39.120441" lon="-6.261971">
        <ele>402.497</ele>
        <time>2019-02-27T01:13:41Z</time>
      </trkpt>
      <trkpt lat="39.121023" lon="-6.261708">
        <ele>403.318</ele>
        <time>2019-02-27T01:13:59Z</time>
      </trkpt>
      <trkpt lat="39.121617" lon="-6.261426">
        <ele>404.249</ele>
        <time>2019-02-27T01:14:17Z</time>
      </trkpt>
      <trkpt lat="39.122195" lon="-6.261199">
        <ele>405.248</ele>
        <time>2019-02-27T01:14:33Z</time>
      </trkpt>
      <trkpt lat="39.122722" lon="-6.260945">
        <ele>406.032</ele>
        <time>2019-02-27T01:14:48Z</time>
      </trkpt>
      <trkpt lat="39.123141" lon="-6.260753">
        <ele>406.755</ele>
        <time>2019-02-27T01:15:01Z</time>
      </trkpt>
      <trkpt lat="39.123820" lon="-6.260417">
        <ele>407.814</ele>
        <time>2019-02-27T01:15:21Z</time>
      </trkpt>
      <trkpt lat="39.124335" lon="-6.260189">
        <ele>408.663</ele>
        <time>2019-02-27T01:15:37Z</time>
      </trkpt>
      <trkpt lat="39.124667" lon="-6.259906">
        <ele>409.377</ele>
        <time>2019-02-27T01:15:49Z</time>
      </trkpt>
      <trkpt lat="39.125117" lon="-6.259579">
        <ele>410.261</ele>
        <time>2019-02-27T01:16:05Z</time>
      </trkpt>
      <trkpt lat="39.125551" lon="-6.259190">
        <ele>411.027</ele>
        <time>2019-02-27T01:16:21Z</time>
      </trkpt>
      <trkpt lat="39.125922" lon="-6.258957">
        <ele>411.608</ele>
        <time>2019-02-27T01:16:35Z</time>
      </trkpt>
      <trkpt lat="39.126403" lon="-6.258718">
        <ele>412.690</ele>
        <time>2019-02-27T01:16:51Z</time>
      </trkpt>
      <trkpt lat="39.126858" lon="-6.258652">
        <ele>413.351</ele>
        <time>2019-02-27T01:17:05Z</time>
      </trkpt>
      <trkpt lat="39.127386" lon="-6.258475">
        <ele>414.272</ele>
        <time>2019-02-27T01:17:21Z</time>
      </trkpt>
      <trkpt lat="39.127912" lon="-6.258095">
        <ele>414.951</ele>
        <time>2019-02-27T01:17:39Z</time>
      </trkpt>
      <trkpt lat="39.128398" lon="-6.257667">
        <ele>415.685</ele>
        <time>2019-02-27T01:17:56Z</time>
      </trkpt>
      <trkpt lat="39.128769" lon="-6.257269">
        <ele>416.248</ele>
        <time>2019-02-27T01:18:11Z</time>
      </trkpt>
      <trkpt lat="39.129184" lon="-6.257033">
        <ele>417.097</ele>
        <time>2019-02-27T01:18:27Z</time>
      </trkpt>
      <trkpt lat="39.129668" lon="-6.256769">
        <ele>417.896</ele>
        <time>2019-02-27T01:18:43Z</time>
      </trkpt>
      <trkpt lat="39.130090" lon="-6.256494">
        <ele>418.542</ele>
        <time>2019-02-27T01:18:57Z</time>
      </trkpt>
      <trkpt lat="39.130505" lon="-6.256345">
        <ele>418.922</ele>
        <time>2019-02-27T01:19:11Z</time>
      </trkpt>
      <trkpt lat="39.130973" lon="-6.256227">
        <ele>419.514</ele>
        <time>2019-02-27T01:19:26Z</time>
      </trkpt>
      <trkpt lat="39.131422" lon="-6.256097">
        <ele>420.308</ele>
        <time>2019-02-27T01:19:42Z</time>
      </trkpt>
      <trkpt lat="39.131862" lon="-6.255992">
        <ele>421.047</ele>
        <time>2019-02-27T01:19:57Z</time>
      </trkpt>
      <trkpt lat="39.132401" lon="-6.255905">
        <ele>422.098</ele>
        <time>2019-02-27T01:20:15Z</time>
      </trkpt>
      <trkpt lat="39.132828" lon="-6.255773">
        <ele>423.079</ele>
        <time>2019-02-27T01:20:30Z</time>
      </trkpt>
      <trkpt lat="39.133306" lon="-6.255733">
        <ele>423.978</ele>
        <time>2019-02-27T01:20:47Z</time>
      </trkpt>
      <trkpt lat="39.133698" lon="-6.255725">
        <ele>424.742</ele>
        <time>2019-02-27T01:21:02Z</time>
      </trkpt>
      <trkpt lat="39.134148" lon="-6.255619">
        <ele>425.525</ele>
        <time>2019-02-27T01:21:18Z</time>
      </trkpt>
      <trkpt lat="39.134461" lon="-6.255510">
        <ele>426.054</ele>
        <time>2019-02-27T01:21:31Z</time>
      </trkpt>
      <trkpt lat="39.134957" lon="-6.255452">
        <ele>427.053</ele>
        <time>2019-02-27T01:21:48Z</time>
      </trkpt>
      <trkpt lat="39.135485" lon="-6.255486">
        <ele>427.917</ele>
        <time>2019-02-27T01:22:05Z</time>
      </trkpt>
      <trkpt lat="39.136017" lon="-6.255496">
        <ele>428.787</ele>
        <time>2019-02-27T01:22:23Z</time>
      </trkpt>
      <trkpt lat="39.136590" lon="-6.255538">
        <ele>429.615</ele>
        <time>2019-02-27T01:22:41Z</time>
      </trkpt>
      <trkpt lat="39.137064" lon="-6.255512">
        <ele>430.408</ele>
        <time>2019-02-27T01:22:56Z</time>
      </trkpt>
      <trkpt lat="39.137492" lon="-6.255400">
        <ele>431.334</ele>
        <time>2019-02-27T01:23:12Z</time>
      </trkpt>
      <trkpt lat="39.137963" lon="-6.255292">
        <ele>432.495</ele>
        <time>2019-02-27T01:23:28Z</time>
      </trkpt>
      <trkpt lat="39.138384" lon="-6.255144">
        <ele>433.146</ele>
        <time>2019-02-27T01:23:42Z</time>
      </trkpt>
      <trkpt lat="39.138825" lon="-6.254941">
        <ele>433.825</ele>
        <time>2019-02-27T01:23:58Z</time>
      </trkpt>
      <trkpt lat="39.139348" lon="-6.254660">
        <ele>434.999</ele>
        <time>2019-02-27T01:24:17Z</time>
      </trkpt>
      <trkpt lat="39.139827" lon="-6.254506">
        <ele>436.142</ele>
        <time>2019-02-27T01:24:34Z</time>
      </trkpt>
      <trkpt lat="39.140214" lon="-6.254381">
        <ele>436.911</ele>
        <time>2019-02-27T01:24:49Z</time>
      </trkpt>
      <trkpt lat="39.140666" lon="-6.254106">
        <ele>438.150</ele>
        <time>2019-02-27T01:25:07Z</time>
      </trkpt>
      <trkpt lat="39.141107" lon="-6.253805">
        <ele>439.292</ele>
        <time>2019-02-27T01:25:25Z</time>
      </trkpt>
      <trkpt lat="39.141514" lon="-6.253454">
        <ele>440.373</ele>
        <time>2019-02-27T01:25:43Z</time>
      </trkpt>
      <trkpt lat="39.141797" lon="-6.253160">
        <ele>441.420</ele>
        <time>2019-02-27T01:25:58Z</time>
      </trkpt>
      <trkpt lat="39.142152" lon="-6.252885">
        <ele>443.408</ele>
        <time>2019-02-27T01:26:15Z</time>
      </trkpt>
      <trkpt lat="39.142556" lon="-6.252742">
        <ele>444.852</ele>
        <time>2019-02-27T01:26:32Z</time>
      </trkpt>
      <trkpt lat="39.142930" lon="-6.252611">
        <ele>445.933</ele>
        <time>2019-02-27T01:26:48Z</time>
      </trkpt>
      <trkpt lat="39.143376" lon="-6.252530">
        <ele>447.724</ele>
        <time>2019-02-27T01:27:07Z</time>
      </trkpt>
      <trkpt lat="39.143702" lon="-6.252492">
        <ele>448.283</ele>
        <time>2019-02-27T01:27:20Z</time>
      </trkpt>
      <trkpt lat="39.144058" lon="-6.252269">
        <ele>449.557</ele>
        <time>2019-02-27T01:27:37Z</time>
      </trkpt>
      <trkpt lat="39.144514" lon="-6.251938">
        <ele>451.910</ele>
        <time>2019-02-27T01:27:59Z</time>
      </trkpt>
      <trkpt lat="39.144814" lon="-6.251748">
        <ele>453.629</ele>
        <time>2019-02-27T01:28:14Z</time>
      </trkpt>
      <trkpt lat="39.145080" lon="-6.251576">
        <ele>454.968</ele>
        <time>2019-02-27T01:28:28Z</time>
      </trkpt>
      <trkpt lat="39.145451" lon="-6.251365">
        <ele>455.866</ele>
        <time>2019-02-27T01:28:45Z</time>
      </trkpt>
      <trkpt lat="39.145801" lon="-6.251276">
        <ele>457.329</ele>
        <time>2019-02-27T01:29:00Z</time>
      </trkpt>
      <trkpt lat="39.146220" lon="-6.251228">
        <ele>458.721</ele>
        <time>2019-02-27T01:29:17Z</time>
      </trkpt>
      <trkpt lat="39.146622" lon="-6.251268">
        <ele>459.608</ele>
        <time>2019-02-27T01:29:34Z</time>
      </trkpt>
      <trkpt lat="39.147017" lon="-6.251394">
        <ele>461.439</ele>
        <time>2019-02-27T01:29:51Z</time>
      </trkpt>
      <trkpt lat="39.147589" lon="-6.251538">
        <ele>465.110</ele>
        <time>2019-02-27T01:30:15Z</time>
      </trkpt>
      <trkpt lat="39.147958" lon="-6.251541">
        <ele>466.891</ele>
        <time>2019-02-27T01:30:31Z</time>
      </trkpt>
      <trkpt lat="39.148302" lon="-6.251553">
        <ele>467.830</ele>
        <time>2019-02-27T01:30:48Z</time>
      </trkpt>
      <trkpt lat="39.148304" lon="-6.251553">
        <ele>467.894</ele>
        <time>2019-02-27T01:30:50Z</time>
      </trkpt>
      <trkpt lat="39.148392" lon="-6.251578">
        <ele>467.897</ele>
        <time>2019-02-27T01:32:44Z</time>
      </trkpt>
      <trkpt lat="39.148894" lon="-6.251679">
        <ele>467.216</ele>
        <time>2019-02-27T01:32:59Z</time>
      </trkpt>
      <trkpt lat="39.149074" lon="-6.251654">
        <ele>466.975</ele>
        <time>2019-02-27T01:33:03Z</time>
      </trkpt>
      <trkpt lat="39.149482" lon="-6.251663">
        <ele>466.158</ele>
        <time>2019-02-27T01:33:11Z</time>
      </trkpt>
      <trkpt lat="39.149535" lon="-6.251651">
        <ele>465.952</ele>
        <time>2019-02-27T01:33:12Z</time>
      </trkpt>
      <trkpt lat="39.149591" lon="-6.251631">
        <ele>465.717</ele>
        <time>2019-02-27T01:33:13Z</time>
      </trkpt>
      <trkpt lat="39.150382" lon="-6.251401">
        <ele>463.008</ele>
        <time>2019-02-27T01:33:26Z</time>
      </trkpt>
      <trkpt lat="39.150530" lon="-6.251390">
        <ele>462.948</ele>
        <time>2019-02-27T01:33:29Z</time>
      </trkpt>
      <trkpt lat="39.150574" lon="-6.251382">
        <ele>462.939</ele>
        <time>2019-02-27T01:33:30Z</time>
      </trkpt>
      <trkpt lat="39.151223" lon="-6.251279">
        <ele>462.950</ele>
        <time>2019-02-27T01:33:47Z</time>
      </trkpt>
      <trkpt lat="39.151771" lon="-6.251128">
        <ele>463.859</ele>
        <time>2019-02-27T01:34:04Z</time>
      </trkpt>
      <trkpt lat="39.152341" lon="-6.250998">
        <ele>463.743</ele>
        <time>2019-02-27T01:34:18Z</time>
      </trkpt>
      <trkpt lat="39.153182" lon="-6.250936">
        <ele>460.966</ele>
        <time>2019-02-27T01:34:31Z</time>
      </trkpt>
      <trkpt lat="39.153587" lon="-6.250975">
        <ele>461.095</ele>
        <time>2019-02-27T01:34:41Z</time>
      </trkpt>
      <trkpt lat="39.153962" lon="-6.250880">
        <ele>462.684</ele>
        <time>2019-02-27T01:34:58Z</time>
      </trkpt>
      <trkpt lat="39.154256" lon="-6.250612">
        <ele>464.036</ele>
        <time>2019-02-27T01:35:14Z</time>
      </trkpt>
      <trkpt lat="39.154561" lon="-6.250457">
        <ele>465.217</ele>
        <time>2019-02-27T01:35:28Z</time>
      </trkpt>
      <trkpt lat="39.154978" lon="-6.250445">
        <ele>465.718</ele>
        <time>2019-02-27T01:35:45Z</time>
      </trkpt>
      <trkpt lat="39.155266" lon="-6.250463">
        <ele>466.408</ele>
        <time>2019-02-27T01:35:57Z</time>
      </trkpt>
      <trkpt lat="39.155669" lon="-6.250405">
        <ele>467.996</ele>
        <time>2019-02-27T01:36:15Z</time>
      </trkpt>
      <trkpt lat="39.156068" lon="-6.250419">
        <ele>470.187</ele>
        <time>2019-02-27T01:36:33Z</time>
      </trkpt>
      <trkpt lat="39.156439" lon="-6.250408">
        <ele>471.968</ele>
        <time>2019-02-27T01:36:51Z</time>
      </trkpt>
      <trkpt lat="39.156840" lon="-6.250463">
        <ele>473.687</ele>
        <time>2019-02-27T01:37:09Z</time>
      </trkpt>
      <trkpt lat="39.157153" lon="-6.250511">
        <ele>474.781</ele>
        <time>2019-02-27T01:37:23Z</time>
      </trkpt>
      <trkpt lat="39.157539" lon="-6.250633">
        <ele>475.834</ele>
        <time>2019-02-27T01:37:38Z</time>
      </trkpt>
      <trkpt lat="39.157861" lon="-6.250776">
        <ele>476.633</ele>
        <time>2019-02-27T01:37:51Z</time>
      </trkpt>
      <trkpt lat="39.158187" lon="-6.250956">
        <ele>477.732</ele>
        <time>2019-02-27T01:38:05Z</time>
      </trkpt>
      <trkpt lat="39.158491" lon="-6.251104">
        <ele>479.015</ele>
        <time>2019-02-27T01:38:23Z</time>
      </trkpt>
      <trkpt lat="39.158771" lon="-6.251208">
        <ele>480.665</ele>
        <time>2019-02-27T01:38:42Z</time>
      </trkpt>
      <trkpt lat="39.159061" lon="-6.251261">
        <ele>482.411</ele>
        <time>2019-02-27T01:38:59Z</time>
      </trkpt>
      <trkpt lat="39.159396" lon="-6.251299">
        <ele>484.208</ele>
        <time>2019-02-27T01:39:19Z</time>
      </trkpt>
      <trkpt lat="39.159622" lon="-6.251328">
        <ele>485.324</ele>
        <time>2019-02-27T01:39:33Z</time>
      </trkpt>
      <trkpt lat="39.159844" lon="-6.251343">
        <ele>486.215</ele>
        <time>2019-02-27T01:39:48Z</time>
      </trkpt>
      <trkpt lat="39.160141" lon="-6.251378">
        <ele>488.026</ele>
        <time>2019-02-27T01:40:05Z</time>
      </trkpt>
      <trkpt lat="39.160156" lon="-6.251381">
        <ele>488.185</ele>
        <time>2019-02-27T01:40:06Z</time>
      </trkpt>
      <trkpt lat="39.160383" lon="-6.251289">
        <ele>488.289</ele>
        <time>2019-02-27T01:40:23Z</time>
      </trkpt>
      <trkpt lat="39.160789" lon="-6.251104">
        <ele>486.032</ele>
        <time>2019-02-27T01:40:34Z</time>
      </trkpt>
      <trkpt lat="39.160922" lon="-6.251061">
        <ele>485.471</ele>
        <time>2019-02-27T01:40:36Z</time>
      </trkpt>
      <trkpt lat="39.161811" lon="-6.251103">
        <ele>481.170</ele>
        <time>2019-02-27T01:40:48Z</time>
      </trkpt>
      <trkpt lat="39.162536" lon="-6.251162">
        <ele>480.038</ele>
        <time>2019-02-27T01:40:56Z</time>
      </trkpt>
      <trkpt lat="39.163619" lon="-6.251152">
        <ele>476.870</ele>
        <time>2019-02-27T01:41:10Z</time>
      </trkpt>
      <trkpt lat="39.164546" lon="-6.251119">
        <ele>468.317</ele>
        <time>2019-02-27T01:41:20Z</time>
      </trkpt>
      <trkpt lat="39.165296" lon="-6.251025">
        <ele>470.708</ele>
        <time>2019-02-27T01:41:28Z</time>
      </trkpt>
      <trkpt lat="39.166328" lon="-6.250869">
        <ele>467.726</ele>
        <time>2019-02-27T01:41:41Z</time>
      </trkpt>
      <trkpt lat="39.167251" lon="-6.250971">
        <ele>464.957</ele>
        <time>2019-02-27T01:41:52Z</time>
      </trkpt>
      <trkpt lat="39.168058" lon="-6.250974">
        <ele>464.348</ele>
        <time>2019-02-27T01:42:01Z</time>
      </trkpt>
      <trkpt lat="39.168676" lon="-6.250930">
        <ele>463.917</ele>
        <time>2019-02-27T01:42:11Z</time>
      </trkpt>
      <trkpt lat="39.168736" lon="-6.250904">
        <ele>463.781</ele>
        <time>2019-02-27T01:42:12Z</time>
      </trkpt>
      <trkpt lat="39.169395" lon="-6.250577">
        <ele>462.724</ele>
        <time>2019-02-27T01:42:24Z</time>
      </trkpt>
      <trkpt lat="39.170155" lon="-6.250360">
        <ele>464.493</ele>
        <time>2019-02-27T01:42:40Z</time>
      </trkpt>
      <trkpt lat="39.170511" lon="-6.250275">
        <ele>465.032</ele>
        <time>2019-02-27T01:42:48Z</time>
      </trkpt>
      <trkpt lat="39.170552" lon="-6.250258">
        <ele>465.327</ele>
        <time>2019-02-27T01:42:49Z</time>
      </trkpt>
      <trkpt lat="39.171040" lon="-6.249992">
        <ele>467.268</ele>
        <time>2019-02-27T01:43:04Z</time>
      </trkpt>
      <trkpt lat="39.171612" lon="-6.249450">
        <ele>468.814</ele>
        <time>2019-02-27T01:43:26Z</time>
      </trkpt>
      <trkpt lat="39.171983" lon="-6.249002">
        <ele>468.808</ele>
        <time>2019-02-27T01:43:41Z</time>
      </trkpt>
      <trkpt lat="39.172314" lon="-6.248534">
        <ele>467.125</ele>
        <time>2019-02-27T01:43:54Z</time>
      </trkpt>
      <trkpt lat="39.172910" lon="-6.247687">
        <ele>459.946</ele>
        <time>2019-02-27T01:44:09Z</time>
      </trkpt>
      <trkpt lat="39.173405" lon="-6.246647">
        <ele>459.567</ele>
        <time>2019-02-27T01:44:22Z</time>
      </trkpt>
      <trkpt lat="39.173551" lon="-6.246151">
        <ele>459.786</ele>
        <time>2019-02-27T01:44:28Z</time>
      </trkpt>
      <trkpt lat="39.173595" lon="-6.245804">
        <ele>460.680</ele>
        <time>2019-02-27T01:44:33Z</time>
      </trkpt>
      <trkpt lat="39.173610" lon="-6.245754">
        <ele>460.753</ele>
        <time>2019-02-27T01:44:34Z</time>
      </trkpt>
      <trkpt lat="39.173627" lon="-6.245710">
        <ele>460.872</ele>
        <time>2019-02-27T01:44:35Z</time>
      </trkpt>
      <trkpt lat="39.173763" lon="-6.245459">
        <ele>461.151</ele>
        <time>2019-02-27T01:44:41Z</time>
      </trkpt>
      <trkpt lat="39.173791" lon="-6.245421">
        <ele>461.165</ele>
        <time>2019-02-27T01:44:42Z</time>
      </trkpt>
      <trkpt lat="39.173821" lon="-6.245389">
        <ele>461.168</ele>
        <time>2019-02-27T01:44:43Z</time>
      </trkpt>
      <trkpt lat="39.173941" lon="-6.245257">
        <ele>461.214</ele>
        <time>2019-02-27T01:44:47Z</time>
      </trkpt>
      <trkpt lat="39.174445" lon="-6.244645">
        <ele>463.008</ele>
        <time>2019-02-27T01:45:05Z</time>
      </trkpt>
      <trkpt lat="39.174542" lon="-6.244529">
        <ele>463.459</ele>
        <time>2019-02-27T01:45:15Z</time>
      </trkpt>
      <trkpt lat="39.174878" lon="-6.244120">
        <ele>464.680</ele>
        <time>2019-02-27T01:45:31Z</time>
      </trkpt>
      <trkpt lat="39.175091" lon="-6.243750">
        <ele>465.811</ele>
        <time>2019-02-27T01:45:43Z</time>
      </trkpt>
      <trkpt lat="39.175450" lon="-6.243132">
        <ele>467.220</ele>
        <time>2019-02-27T01:46:01Z</time>
      </trkpt>
      <trkpt lat="39.175887" lon="-6.242590">
        <ele>467.114</ele>
        <time>2019-02-27T01:46:19Z</time>
      </trkpt>
      <trkpt lat="39.176126" lon="-6.242381">
        <ele>466.437</ele>
        <time>2019-02-27T01:46:26Z</time>
      </trkpt>
      <trkpt lat="39.176242" lon="-6.242293">
        <ele>465.896</ele>
        <time>2019-02-27T01:46:29Z</time>
      </trkpt>
      <trkpt lat="39.176279" lon="-6.242243">
        <ele>465.535</ele>
        <time>2019-02-27T01:46:30Z</time>
      </trkpt>
      <trkpt lat="39.176321" lon="-6.242185">
        <ele>465.194</ele>
        <time>2019-02-27T01:46:31Z</time>
      </trkpt>
      <trkpt lat="39.176371" lon="-6.242123">
        <ele>464.657</ele>
        <time>2019-02-27T01:46:32Z</time>
      </trkpt>
      <trkpt lat="39.176424" lon="-6.242058">
        <ele>463.822</ele>
        <time>2019-02-27T01:46:33Z</time>
      </trkpt>
      <trkpt lat="39.176728" lon="-6.241713">
        <ele>460.208</ele>
        <time>2019-02-27T01:46:39Z</time>
      </trkpt>
      <trkpt lat="39.176761" lon="-6.241658">
        <ele>456.942</ele>
        <time>2019-02-27T01:46:40Z</time>
      </trkpt>
      <trkpt lat="39.176779" lon="-6.241588">
        <ele>456.383</ele>
        <time>2019-02-27T01:46:41Z</time>
      </trkpt>
      <trkpt lat="39.176780" lon="-6.241508">
        <ele>455.794</ele>
        <time>2019-02-27T01:46:42Z</time>
      </trkpt>
      <trkpt lat="39.176767" lon="-6.241418">
        <ele>455.373</ele>
        <time>2019-02-27T01:46:43Z</time>
      </trkpt>
      <trkpt lat="39.176757" lon="-6.241323">
        <ele>454.897</ele>
        <time>2019-02-27T01:46:44Z</time>
      </trkpt>
      <trkpt lat="39.176760" lon="-6.241228">
        <ele>454.580</ele>
        <time>2019-02-27T01:46:45Z</time>
      </trkpt>
      <trkpt lat="39.176774" lon="-6.241135">
        <ele>454.219</ele>
        <time>2019-02-27T01:46:46Z</time>
      </trkpt>
      <trkpt lat="39.176791" lon="-6.241048">
        <ele>453.918</ele>
        <time>2019-02-27T01:46:47Z</time>
      </trkpt>
      <trkpt lat="39.177087" lon="-6.240022">
        <ele>453.695</ele>
        <time>2019-02-27T01:47:01Z</time>
      </trkpt>
      <trkpt lat="39.177366" lon="-6.238987">
        <ele>455.749</ele>
        <time>2019-02-27T01:47:18Z</time>
      </trkpt>
      <trkpt lat="39.177397" lon="-6.238824">
        <ele>455.923</ele>
        <time>2019-02-27T01:47:21Z</time>
      </trkpt>
      <trkpt lat="39.177575" lon="-6.238378">
        <ele>456.608</ele>
        <time>2019-02-27T01:47:33Z</time>
      </trkpt>
      <trkpt lat="39.177571" lon="-6.238379">
        <ele>456.662</ele>
        <time>2019-02-27T01:47:36Z</time>
      </trkpt>
      <trkpt lat="39.177544" lon="-6.238429">
        <ele>456.843</ele>
        <time>2019-02-27T01:47:46Z</time>
      </trkpt>
      <trkpt lat="39.177537" lon="-6.238460">
        <ele>456.894</ele>
        <time>2019-02-27T01:47:47Z</time>
      </trkpt>
      <trkpt lat="39.177348" lon="-6.238975">
        <ele>455.933</ele>
        <time>2019-02-27T01:47:58Z</time>
      </trkpt>
      <trkpt lat="39.177329" lon="-6.239092">
        <ele>455.727</ele>
        <time>2019-02-27T01:48:00Z</time>
      </trkpt>
      <trkpt lat="39.177319" lon="-6.239157">
        <ele>455.670</ele>
        <time>2019-02-27T01:48:01Z</time>
      </trkpt>
      <trkpt lat="39.177282" lon="-6.239356">
        <ele>455.279</ele>
        <time>2019-02-27T01:48:04Z</time>
      </trkpt>
      <trkpt lat="39.176955" lon="-6.240465">
        <ele>453.538</ele>
        <time>2019-02-27T01:48:20Z</time>
      </trkpt>
      <trkpt lat="39.176743" lon="-6.241185">
        <ele>454.314</ele>
        <time>2019-02-27T01:48:31Z</time>
      </trkpt>
      <trkpt lat="39.176797" lon="-6.241644">
        <ele>457.054</ele>
        <time>2019-02-27T01:48:42Z</time>
      </trkpt>
      <trkpt lat="39.176815" lon="-6.241651">
        <ele>457.209</ele>
        <time>2019-02-27T01:48:43Z</time>
      </trkpt>
      <trkpt lat="39.176836" lon="-6.241655">
        <ele>457.408</ele>
        <time>2019-02-27T01:48:44Z</time>
      </trkpt>
      <trkpt lat="39.176860" lon="-6.241654">
        <ele>457.764</ele>
        <time>2019-02-27T01:48:45Z</time>
      </trkpt>
      <trkpt lat="39.176886" lon="-6.241647">
        <ele>458.085</ele>
        <time>2019-02-27T01:48:46Z</time>
      </trkpt>
      <trkpt lat="39.177122" lon="-6.241394">
        <ele>455.926</ele>
        <time>2019-02-27T01:48:55Z</time>
      </trkpt>
      <trkpt lat="39.177300" lon="-6.241086">
        <ele>454.135</ele>
        <time>2019-02-27T01:49:01Z</time>
      </trkpt>
      <trkpt lat="39.177325" lon="-6.241031">
        <ele>454.059</ele>
        <time>2019-02-27T01:49:02Z</time>
      </trkpt>
      <trkpt lat="39.177412" lon="-6.240889">
        <ele>453.632</ele>
        <time>2019-02-27T01:49:05Z</time>
      </trkpt>
      <trkpt lat="39.177483" lon="-6.240812">
        <ele>453.461</ele>
        <time>2019-02-27T01:49:07Z</time>
      </trkpt>
      <trkpt lat="39.178015" lon="-6.240489">
        <ele>452.250</ele>
        <time>2019-02-27T01:49:22Z</time>
      </trkpt>
      <trkpt lat="39.178373" lon="-6.240447">
        <ele>450.969</ele>
        <time>2019-02-27T01:49:33Z</time>
      </trkpt>
      <trkpt lat="39.178563" lon="-6.240430">
        <ele>450.404</ele>
        <time>2019-02-27T01:49:38Z</time>
      </trkpt>
      <trkpt lat="39.178962" lon="-6.240372">
        <ele>449.024</ele>
        <time>2019-02-27T01:49:50Z</time>
      </trkpt>
      <trkpt lat="39.179216" lon="-6.240407">
        <ele>448.008</ele>
        <time>2019-02-27T01:49:58Z</time>
      </trkpt>
      <trkpt lat="39.179240" lon="-6.240386">
        <ele>448.089</ele>
        <time>2019-02-27T01:49:59Z</time>
      </trkpt>
      <trkpt lat="39.179263" lon="-6.240355">
        <ele>447.810</ele>
        <time>2019-02-27T01:50:00Z</time>
      </trkpt>
      <trkpt lat="39.179286" lon="-6.240322">
        <ele>447.871</ele>
        <time>2019-02-27T01:50:01Z</time>
      </trkpt>
      <trkpt lat="39.179308" lon="-6.240288">
        <ele>447.840</ele>
        <time>2019-02-27T01:50:02Z</time>
      </trkpt>
      <trkpt lat="39.179332" lon="-6.240251">
        <ele>447.874</ele>
        <time>2019-02-27T01:50:03Z</time>
      </trkpt>
      <trkpt lat="39.179747" lon="-6.239625">
        <ele>447.417</ele>
        <time>2019-02-27T01:50:18Z</time>
      </trkpt>
      <trkpt lat="39.180382" lon="-6.238679">
        <ele>447.486</ele>
        <time>2019-02-27T01:50:38Z</time>
      </trkpt>
      <trkpt lat="39.180441" lon="-6.238585">
        <ele>447.745</ele>
        <time>2019-02-27T01:50:40Z</time>
      </trkpt>
      <trkpt lat="39.180475" lon="-6.238540">
        <ele>447.888</ele>
        <time>2019-02-27T01:50:41Z</time>
      </trkpt>
      <trkpt lat="39.180540" lon="-6.238449">
        <ele>448.124</ele>
        <time>2019-02-27T01:50:43Z</time>
      </trkpt>
      <trkpt lat="39.180567" lon="-6.238398">
        <ele>448.226</ele>
        <time>2019-02-27T01:50:44Z</time>
      </trkpt>
      <trkpt lat="39.180596" lon="-6.238349">
        <ele>448.308</ele>
        <time>2019-02-27T01:50:45Z</time>
      </trkpt>
      <trkpt lat="39.180689" lon="-6.238207">
        <ele>448.671</ele>
        <time>2019-02-27T01:50:48Z</time>
      </trkpt>
      <trkpt lat="39.181168" lon="-6.237513">
        <ele>449.622</ele>
        <time>2019-02-27T01:51:04Z</time>
      </trkpt>
      <trkpt lat="39.181506" lon="-6.237050">
        <ele>450.753</ele>
        <time>2019-02-27T01:51:18Z</time>
      </trkpt>
      <trkpt lat="39.181520" lon="-6.237010">
        <ele>450.872</ele>
        <time>2019-02-27T01:51:19Z</time>
      </trkpt>
      <trkpt lat="39.181538" lon="-6.236970">
        <ele>451.036</ele>
        <time>2019-02-27T01:51:20Z</time>
      </trkpt>
      <trkpt lat="39.181554" lon="-6.236930">
        <ele>451.029</ele>
        <time>2019-02-27T01:51:21Z</time>
      </trkpt>
      <trkpt lat="39.181563" lon="-6.236887">
        <ele>451.068</ele>
        <time>2019-02-27T01:51:22Z</time>
      </trkpt>
      <trkpt lat="39.181566" lon="-6.236842">
        <ele>451.187</ele>
        <time>2019-02-27T01:51:23Z</time>
      </trkpt>
      <trkpt lat="39.181565" lon="-6.236543">
        <ele>451.241</ele>
        <time>2019-02-27T01:51:32Z</time>
      </trkpt>
      <trkpt lat="39.181575" lon="-6.236517">
        <ele>451.281</ele>
        <time>2019-02-27T01:51:33Z</time>
      </trkpt>
      <trkpt lat="39.181613" lon="-6.236430">
        <ele>451.309</ele>
        <time>2019-02-27T01:51:41Z</time>
      </trkpt>
      <trkpt lat="39.181614" lon="-6.236454">
        <ele>451.208</ele>
        <time>2019-02-27T02:18:06Z</time>
      </trkpt>
      <trkpt lat="39.181618" lon="-6.236479">
        <ele>451.267</ele>
        <time>2019-02-27T02:18:07Z</time>
      </trkpt>
      <trkpt lat="39.181619" lon="-6.236501">
        <ele>451.238</ele>
        <time>2019-02-27T02:18:08Z</time>
      </trkpt>
      <trkpt lat="39.181618" lon="-6.236521">
        <ele>451.239</ele>
        <time>2019-02-27T02:18:09Z</time>
      </trkpt>
      <trkpt lat="39.181632" lon="-6.236606">
        <ele>451.168</ele>
        <time>2019-02-27T02:18:17Z</time>
      </trkpt>
      <trkpt lat="39.181675" lon="-6.236664">
        <ele>451.162</ele>
        <time>2019-02-27T02:18:29Z</time>
      </trkpt>
      <trkpt lat="39.181696" lon="-6.236681">
        <ele>451.065</ele>
        <time>2019-02-27T02:18:30Z</time>
      </trkpt>
      <trkpt lat="39.181720" lon="-6.236695">
        <ele>450.944</ele>
        <time>2019-02-27T02:18:31Z</time>
      </trkpt>
      <trkpt lat="39.181765" lon="-6.236704">
        <ele>450.983</ele>
        <time>2019-02-27T02:18:33Z</time>
      </trkpt>
      <trkpt lat="39.181788" lon="-6.236689">
        <ele>450.959</ele>
        <time>2019-02-27T02:18:34Z</time>
      </trkpt>
      <trkpt lat="39.181811" lon="-6.236667">
        <ele>450.803</ele>
        <time>2019-02-27T02:18:35Z</time>
      </trkpt>
      <trkpt lat="39.181965" lon="-6.236420">
        <ele>450.223</ele>
        <time>2019-02-27T02:18:45Z</time>
      </trkpt>
      <trkpt lat="39.182022" lon="-6.236243">
        <ele>449.808</ele>
        <time>2019-02-27T02:18:56Z</time>
      </trkpt>
      <trkpt lat="39.182026" lon="-6.236236">
        <ele>449.968</ele>
        <time>2019-02-27T02:19:00Z</time>
      </trkpt>
      <trkpt lat="39.182025" lon="-6.236314">
        <ele>450.029</ele>
        <time>2019-02-27T02:19:15Z</time>
      </trkpt>
      <trkpt lat="39.181778" lon="-6.236750">
        <ele>450.980</ele>
        <time>2019-02-27T02:19:30Z</time>
      </trkpt>
      <trkpt lat="39.181691" lon="-6.237157">
        <ele>450.359</ele>
        <time>2019-02-27T02:19:42Z</time>
      </trkpt>
      <trkpt lat="39.182182" lon="-6.237789">
        <ele>447.453</ele>
        <time>2019-02-27T02:19:56Z</time>
      </trkpt>
      <trkpt lat="39.182877" lon="-6.238644">
        <ele>443.896</ele>
        <time>2019-02-27T02:20:10Z</time>
      </trkpt>
      <trkpt lat="39.183637" lon="-6.239866">
        <ele>439.725</ele>
        <time>2019-02-27T02:20:27Z</time>
      </trkpt>
      <trkpt lat="39.184286" lon="-6.240951">
        <ele>437.964</ele>
        <time>2019-02-27T02:20:43Z</time>
      </trkpt>
      <trkpt lat="39.184920" lon="-6.241897">
        <ele>436.885</ele>
        <time>2019-02-27T02:21:00Z</time>
      </trkpt>
      <trkpt lat="39.185671" lon="-6.242779">
        <ele>434.589</ele>
        <time>2019-02-27T02:21:18Z</time>
      </trkpt>
      <trkpt lat="39.186356" lon="-6.243493">
        <ele>431.117</ele>
        <time>2019-02-27T02:21:32Z</time>
      </trkpt>
      <trkpt lat="39.186413" lon="-6.243526">
        <ele>430.708</ele>
        <time>2019-02-27T02:21:33Z</time>
      </trkpt>
      <trkpt lat="39.186564" lon="-6.243601">
        <ele>430.241</ele>
        <time>2019-02-27T02:21:36Z</time>
      </trkpt>
      <trkpt lat="39.187061" lon="-6.243809">
        <ele>429.492</ele>
        <time>2019-02-27T02:21:47Z</time>
      </trkpt>
      <trkpt lat="39.188014" lon="-6.244172">
        <ele>428.123</ele>
        <time>2019-02-27T02:22:02Z</time>
      </trkpt>
      <trkpt lat="39.188185" lon="-6.244243">
        <ele>427.812</ele>
        <time>2019-02-27T02:22:05Z</time>
      </trkpt>
      <trkpt lat="39.188240" lon="-6.244277">
        <ele>427.746</ele>
        <time>2019-02-27T02:22:06Z</time>
      </trkpt>
      <trkpt lat="39.188406" lon="-6.244415">
        <ele>427.479</ele>
        <time>2019-02-27T02:22:09Z</time>
      </trkpt>
      <trkpt lat="39.188459" lon="-6.244476">
        <ele>427.318</ele>
        <time>2019-02-27T02:22:10Z</time>
      </trkpt>
      <trkpt lat="39.188845" lon="-6.245019">
        <ele>426.287</ele>
        <time>2019-02-27T02:22:19Z</time>
      </trkpt>
      <trkpt lat="39.189613" lon="-6.245848">
        <ele>425.678</ele>
        <time>2019-02-27T02:22:37Z</time>
      </trkpt>
      <trkpt lat="39.189747" lon="-6.246010">
        <ele>425.633</ele>
        <time>2019-02-27T02:22:40Z</time>
      </trkpt>
      <trkpt lat="39.189786" lon="-6.246070">
        <ele>425.626</ele>
        <time>2019-02-27T02:22:41Z</time>
      </trkpt>
      <trkpt lat="39.189954" lon="-6.246363">
        <ele>425.408</ele>
        <time>2019-02-27T02:22:46Z</time>
      </trkpt>
      <trkpt lat="39.189979" lon="-6.246425">
        <ele>425.320</ele>
        <time>2019-02-27T02:22:47Z</time>
      </trkpt>
      <trkpt lat="39.190297" lon="-6.247215">
        <ele>423.921</ele>
        <time>2019-02-27T02:22:59Z</time>
      </trkpt>
      <trkpt lat="39.190922" lon="-6.247927">
        <ele>422.752</ele>
        <time>2019-02-27T02:23:13Z</time>
      </trkpt>
      <trkpt lat="39.191863" lon="-6.248852">
        <ele>420.991</ele>
        <time>2019-02-27T02:23:34Z</time>
      </trkpt>
      <trkpt lat="39.192576" lon="-6.249689">
        <ele>420.245</ele>
        <time>2019-02-27T02:23:53Z</time>
      </trkpt>
      <trkpt lat="39.192582" lon="-6.249690">
        <ele>420.298</ele>
        <time>2019-02-27T02:23:56Z</time>
      </trkpt>
      <trkpt lat="39.192640" lon="-6.249752">
        <ele>420.117</ele>
        <time>2019-02-27T02:24:25Z</time>
      </trkpt>
      <trkpt lat="39.192812" lon="-6.249969">
        <ele>419.986</ele>
        <time>2019-02-27T02:24:31Z</time>
      </trkpt>
      <trkpt lat="39.192867" lon="-6.250053">
        <ele>419.865</ele>
        <time>2019-02-27T02:24:33Z</time>
      </trkpt>
      <trkpt lat="39.193261" lon="-6.250728">
        <ele>418.468</ele>
        <time>2019-02-27T02:24:49Z</time>
      </trkpt>
      <trkpt lat="39.193718" lon="-6.251640">
        <ele>417.314</ele>
        <time>2019-02-27T02:25:05Z</time>
      </trkpt>
      <trkpt lat="39.193824" lon="-6.251812">
        <ele>417.108</ele>
        <time>2019-02-27T02:25:08Z</time>
      </trkpt>
      <trkpt lat="39.193975" lon="-6.252031">
        <ele>417.099</ele>
        <time>2019-02-27T02:25:12Z</time>
      </trkpt>
      <trkpt lat="39.194199" lon="-6.252285">
        <ele>416.750</ele>
        <time>2019-02-27T02:25:17Z</time>
      </trkpt>
      <trkpt lat="39.194253" lon="-6.252323">
        <ele>416.761</ele>
        <time>2019-02-27T02:25:18Z</time>
      </trkpt>
      <trkpt lat="39.194309" lon="-6.252355">
        <ele>416.620</ele>
        <time>2019-02-27T02:25:19Z</time>
      </trkpt>
      <trkpt lat="39.194367" lon="-6.252382">
        <ele>416.534</ele>
        <time>2019-02-27T02:25:20Z</time>
      </trkpt>
      <trkpt lat="39.194425" lon="-6.252401">
        <ele>416.537</ele>
        <time>2019-02-27T02:25:21Z</time>
      </trkpt>
      <trkpt lat="39.194484" lon="-6.252417">
        <ele>416.416</ele>
        <time>2019-02-27T02:25:22Z</time>
      </trkpt>
      <trkpt lat="39.194544" lon="-6.252440">
        <ele>416.455</ele>
        <time>2019-02-27T02:25:23Z</time>
      </trkpt>
      <trkpt lat="39.195178" lon="-6.252726">
        <ele>416.041</ele>
        <time>2019-02-27T02:25:34Z</time>
      </trkpt>
      <trkpt lat="39.195225" lon="-6.252767">
        <ele>416.081</ele>
        <time>2019-02-27T02:25:35Z</time>
      </trkpt>
      <trkpt lat="39.195268" lon="-6.252814">
        <ele>415.909</ele>
        <time>2019-02-27T02:25:36Z</time>
      </trkpt>
      <trkpt lat="39.195304" lon="-6.252868">
        <ele>415.908</ele>
        <time>2019-02-27T02:25:37Z</time>
      </trkpt>
      <trkpt lat="39.195332" lon="-6.252931">
        <ele>415.867</ele>
        <time>2019-02-27T02:25:38Z</time>
      </trkpt>
      <trkpt lat="39.195355" lon="-6.252997">
        <ele>415.888</ele>
        <time>2019-02-27T02:25:39Z</time>
      </trkpt>
      <trkpt lat="39.195375" lon="-6.253066">
        <ele>415.779</ele>
        <time>2019-02-27T02:25:40Z</time>
      </trkpt>
      <trkpt lat="39.195401" lon="-6.253129">
        <ele>415.718</ele>
        <time>2019-02-27T02:25:41Z</time>
      </trkpt>
      <trkpt lat="39.195439" lon="-6.253176">
        <ele>415.712</ele>
        <time>2019-02-27T02:25:42Z</time>
      </trkpt>
      <trkpt lat="39.195484" lon="-6.253203">
        <ele>415.775</ele>
        <time>2019-02-27T02:25:43Z</time>
      </trkpt>
      <trkpt lat="39.195530" lon="-6.253219">
        <ele>415.774</ele>
        <time>2019-02-27T02:25:44Z</time>
      </trkpt>
      <trkpt lat="39.195576" lon="-6.253230">
        <ele>415.763</ele>
        <time>2019-02-27T02:25:45Z</time>
      </trkpt>
      <trkpt lat="39.195621" lon="-6.253239">
        <ele>415.687</ele>
        <time>2019-02-27T02:25:46Z</time>
      </trkpt>
      <trkpt lat="39.195710" lon="-6.253250">
        <ele>415.642</ele>
        <time>2019-02-27T02:25:48Z</time>
      </trkpt>
      <trkpt lat="39.196432" lon="-6.253391">
        <ele>415.326</ele>
        <time>2019-02-27T02:26:03Z</time>
      </trkpt>
      <trkpt lat="39.197194" lon="-6.253718">
        <ele>415.108</ele>
        <time>2019-02-27T02:26:19Z</time>
      </trkpt>
      <trkpt lat="39.197780" lon="-6.254187">
        <ele>415.511</ele>
        <time>2019-02-27T02:26:33Z</time>
      </trkpt>
      <trkpt lat="39.197939" lon="-6.254372">
        <ele>415.832</ele>
        <time>2019-02-27T02:26:38Z</time>
      </trkpt>
      <trkpt lat="39.198155" lon="-6.254729">
        <ele>416.043</ele>
        <time>2019-02-27T02:26:46Z</time>
      </trkpt>
      <trkpt lat="39.198447" lon="-6.255712">
        <ele>415.822</ele>
        <time>2019-02-27T02:27:04Z</time>
      </trkpt>
      <trkpt lat="39.198490" lon="-6.257025">
        <ele>415.616</ele>
        <time>2019-02-27T02:27:22Z</time>
      </trkpt>
      <trkpt lat="39.198550" lon="-6.257421">
        <ele>415.819</ele>
        <time>2019-02-27T02:27:28Z</time>
      </trkpt>
      <trkpt lat="39.198830" lon="-6.258573">
        <ele>417.428</ele>
        <time>2019-02-27T02:27:48Z</time>
      </trkpt>
      <trkpt lat="39.199188" lon="-6.259493">
        <ele>416.797</ele>
        <time>2019-02-27T02:28:06Z</time>
      </trkpt>
      <trkpt lat="39.199826" lon="-6.260142">
        <ele>415.859</ele>
        <time>2019-02-27T02:28:20Z</time>
      </trkpt>
      <trkpt lat="39.200492" lon="-6.260940">
        <ele>415.203</ele>
        <time>2019-02-27T02:28:34Z</time>
      </trkpt>
      <trkpt lat="39.200543" lon="-6.260991">
        <ele>415.123</ele>
        <time>2019-02-27T02:28:35Z</time>
      </trkpt>
      <trkpt lat="39.201262" lon="-6.261636">
        <ele>414.508</ele>
        <time>2019-02-27T02:28:49Z</time>
      </trkpt>
      <trkpt lat="39.201656" lon="-6.261922">
        <ele>414.888</ele>
        <time>2019-02-27T02:28:56Z</time>
      </trkpt>
      <trkpt lat="39.202029" lon="-6.262175">
        <ele>415.029</ele>
        <time>2019-02-27T02:29:04Z</time>
      </trkpt>
      <trkpt lat="39.202071" lon="-6.262202">
        <ele>415.040</ele>
        <time>2019-02-27T02:29:05Z</time>
      </trkpt>
      <trkpt lat="39.202156" lon="-6.262254">
        <ele>415.029</ele>
        <time>2019-02-27T02:29:07Z</time>
      </trkpt>
      <trkpt lat="39.202597" lon="-6.262581">
        <ele>415.193</ele>
        <time>2019-02-27T02:29:18Z</time>
      </trkpt>
      <trkpt lat="39.202827" lon="-6.262762">
        <ele>414.816</ele>
        <time>2019-02-27T02:29:24Z</time>
      </trkpt>
      <trkpt lat="39.202864" lon="-6.262799">
        <ele>414.785</ele>
        <time>2019-02-27T02:29:25Z</time>
      </trkpt>
      <trkpt lat="39.202900" lon="-6.262841">
        <ele>414.524</ele>
        <time>2019-02-27T02:29:26Z</time>
      </trkpt>
      <trkpt lat="39.202934" lon="-6.262886">
        <ele>414.357</ele>
        <time>2019-02-27T02:29:27Z</time>
      </trkpt>
      <trkpt lat="39.202967" lon="-6.262933">
        <ele>414.100</ele>
        <time>2019-02-27T02:29:28Z</time>
      </trkpt>
      <trkpt lat="39.203184" lon="-6.263228">
        <ele>413.320</ele>
        <time>2019-02-27T02:29:34Z</time>
      </trkpt>
      <trkpt lat="39.203423" lon="-6.263460">
        <ele>412.608</ele>
        <time>2019-02-27T02:29:39Z</time>
      </trkpt>
      <trkpt lat="39.203468" lon="-6.263519">
        <ele>412.478</ele>
        <time>2019-02-27T02:29:40Z</time>
      </trkpt>
      <trkpt lat="39.203508" lon="-6.263587">
        <ele>412.299</ele>
        <time>2019-02-27T02:29:41Z</time>
      </trkpt>
      <trkpt lat="39.203965" lon="-6.264514">
        <ele>410.270</ele>
        <time>2019-02-27T02:29:53Z</time>
      </trkpt>
      <trkpt lat="39.203992" lon="-6.264605">
        <ele>410.019</ele>
        <time>2019-02-27T02:29:54Z</time>
      </trkpt>
      <trkpt lat="39.204078" lon="-6.264875">
        <ele>409.563</ele>
        <time>2019-02-27T02:29:57Z</time>
      </trkpt>
      <trkpt lat="39.204119" lon="-6.264956">
        <ele>409.376</ele>
        <time>2019-02-27T02:29:58Z</time>
      </trkpt>
      <trkpt lat="39.204167" lon="-6.265033">
        <ele>409.195</ele>
        <time>2019-02-27T02:29:59Z</time>
      </trkpt>
      <trkpt lat="39.204818" lon="-6.266160">
        <ele>406.824</ele>
        <time>2019-02-27T02:30:13Z</time>
      </trkpt>
      <trkpt lat="39.205011" lon="-6.267284">
        <ele>407.538</ele>
        <time>2019-02-27T02:30:25Z</time>
      </trkpt>
      <trkpt lat="39.205040" lon="-6.267426">
        <ele>407.570</ele>
        <time>2019-02-27T02:30:27Z</time>
      </trkpt>
      <trkpt lat="39.205085" lon="-6.267546">
        <ele>407.617</ele>
        <time>2019-02-27T02:30:29Z</time>
      </trkpt>
      <trkpt lat="39.205112" lon="-6.267593">
        <ele>407.608</ele>
        <time>2019-02-27T02:30:30Z</time>
      </trkpt>
      <trkpt lat="39.205141" lon="-6.267630">
        <ele>407.726</ele>
        <time>2019-02-27T02:30:31Z</time>
      </trkpt>
      <trkpt lat="39.205170" lon="-6.267659">
        <ele>407.857</ele>
        <time>2019-02-27T02:30:32Z</time>
      </trkpt>
      <trkpt lat="39.205198" lon="-6.267687">
        <ele>407.978</ele>
        <time>2019-02-27T02:30:33Z</time>
      </trkpt>
      <trkpt lat="39.205224" lon="-6.267716">
        <ele>408.087</ele>
        <time>2019-02-27T02:30:34Z</time>
      </trkpt>
      <trkpt lat="39.205747" lon="-6.268184">
        <ele>409.811</ele>
        <time>2019-02-27T02:30:52Z</time>
      </trkpt>
      <trkpt lat="39.206002" lon="-6.268548">
        <ele>411.424</ele>
        <time>2019-02-27T02:31:07Z</time>
      </trkpt>
      <trkpt lat="39.206183" lon="-6.268943">
        <ele>412.443</ele>
        <time>2019-02-27T02:31:22Z</time>
      </trkpt>
      <trkpt lat="39.206375" lon="-6.269368">
        <ele>412.482</ele>
        <time>2019-02-27T02:31:34Z</time>
      </trkpt>
      <trkpt lat="39.206645" lon="-6.269855">
        <ele>411.634</ele>
        <time>2019-02-27T02:31:46Z</time>
      </trkpt>
      <trkpt lat="39.207138" lon="-6.270272">
        <ele>411.455</ele>
        <time>2019-02-27T02:32:01Z</time>
      </trkpt>
      <trkpt lat="39.207482" lon="-6.270910">
        <ele>412.010</ele>
        <time>2019-02-27T02:32:17Z</time>
      </trkpt>
      <trkpt lat="39.207705" lon="-6.271436">
        <ele>412.108</ele>
        <time>2019-02-27T02:32:28Z</time>
      </trkpt>
      <trkpt lat="39.207757" lon="-6.271524">
        <ele>411.856</ele>
        <time>2019-02-27T02:32:30Z</time>
      </trkpt>
      <trkpt lat="39.207774" lon="-6.271573">
        <ele>411.637</ele>
        <time>2019-02-27T02:32:31Z</time>
      </trkpt>
      <trkpt lat="39.207793" lon="-6.271622">
        <ele>411.498</ele>
        <time>2019-02-27T02:32:32Z</time>
      </trkpt>
      <trkpt lat="39.208092" lon="-6.272043">
        <ele>410.217</ele>
        <time>2019-02-27T02:32:44Z</time>
      </trkpt>
      <trkpt lat="39.208503" lon="-6.272477">
        <ele>409.541</ele>
        <time>2019-02-27T02:32:58Z</time>
      </trkpt>
      <trkpt lat="39.208590" lon="-6.272587">
        <ele>409.484</ele>
        <time>2019-02-27T02:33:07Z</time>
      </trkpt>
      <trkpt lat="39.208631" lon="-6.272641">
        <ele>409.383</ele>
        <time>2019-02-27T02:33:14Z</time>
      </trkpt>
      <trkpt lat="39.208702" lon="-6.272737">
        <ele>409.382</ele>
        <time>2019-02-27T02:33:25Z</time>
      </trkpt>
      <trkpt lat="39.208753" lon="-6.272814">
        <ele>409.292</ele>
        <time>2019-02-27T02:33:29Z</time>
      </trkpt>
      <trkpt lat="39.209111" lon="-6.273227">
        <ele>409.573</ele>
        <time>2019-02-27T02:33:44Z</time>
      </trkpt>
      <trkpt lat="39.209536" lon="-6.273738">
        <ele>409.920</ele>
        <time>2019-02-27T02:34:00Z</time>
      </trkpt>
      <trkpt lat="39.209871" lon="-6.274153">
        <ele>410.008</ele>
        <time>2019-02-27T02:34:11Z</time>
      </trkpt>
      <trkpt lat="39.209937" lon="-6.274234">
        <ele>410.022</ele>
        <time>2019-02-27T02:34:13Z</time>
      </trkpt>
      <trkpt lat="39.209979" lon="-6.274263">
        <ele>410.093</ele>
        <time>2019-02-27T02:34:14Z</time>
      </trkpt>
      <trkpt lat="39.210018" lon="-6.274294">
        <ele>409.954</ele>
        <time>2019-02-27T02:34:15Z</time>
      </trkpt>
      <trkpt lat="39.210049" lon="-6.274332">
        <ele>409.913</ele>
        <time>2019-02-27T02:34:16Z</time>
      </trkpt>
      <trkpt lat="39.210077" lon="-6.274371">
        <ele>409.927</ele>
        <time>2019-02-27T02:34:17Z</time>
      </trkpt>
      <trkpt lat="39.210107" lon="-6.274405">
        <ele>409.980</ele>
        <time>2019-02-27T02:34:18Z</time>
      </trkpt>
      <trkpt lat="39.210137" lon="-6.274442">
        <ele>409.919</ele>
        <time>2019-02-27T02:34:19Z</time>
      </trkpt>
      <trkpt lat="39.210165" lon="-6.274482">
        <ele>409.838</ele>
        <time>2019-02-27T02:34:20Z</time>
      </trkpt>
      <trkpt lat="39.210421" lon="-6.274781">
        <ele>409.647</ele>
        <time>2019-02-27T02:34:28Z</time>
      </trkpt>
      <trkpt lat="39.210451" lon="-6.274818">
        <ele>409.629</ele>
        <time>2019-02-27T02:34:29Z</time>
      </trkpt>
      <trkpt lat="39.210484" lon="-6.274849">
        <ele>409.521</ele>
        <time>2019-02-27T02:34:30Z</time>
      </trkpt>
      <trkpt lat="39.210514" lon="-6.274881">
        <ele>409.508</ele>
        <time>2019-02-27T02:34:31Z</time>
      </trkpt>
      <trkpt lat="39.210543" lon="-6.274917">
        <ele>409.547</ele>
        <time>2019-02-27T02:34:32Z</time>
      </trkpt>
      <trkpt lat="39.210733" lon="-6.275148">
        <ele>409.538</ele>
        <time>2019-02-27T02:34:38Z</time>
      </trkpt>
      <trkpt lat="39.210758" lon="-6.275191">
        <ele>409.549</ele>
        <time>2019-02-27T02:34:39Z</time>
      </trkpt>
      <trkpt lat="39.210786" lon="-6.275230">
        <ele>409.678</ele>
        <time>2019-02-27T02:34:40Z</time>
      </trkpt>
      <trkpt lat="39.210820" lon="-6.275265">
        <ele>409.672</ele>
        <time>2019-02-27T02:34:41Z</time>
      </trkpt>
      <trkpt lat="39.210852" lon="-6.275301">
        <ele>409.615</ele>
        <time>2019-02-27T02:34:42Z</time>
      </trkpt>
      <trkpt lat="39.210882" lon="-6.275339">
        <ele>409.694</ele>
        <time>2019-02-27T02:34:43Z</time>
      </trkpt>
      <trkpt lat="39.211045" lon="-6.275544">
        <ele>409.773</ele>
        <time>2019-02-27T02:34:48Z</time>
      </trkpt>
      <trkpt lat="39.211376" lon="-6.275935">
        <ele>409.416</ele>
        <time>2019-02-27T02:34:58Z</time>
      </trkpt>
      <trkpt lat="39.211633" lon="-6.276236">
        <ele>409.376</ele>
        <time>2019-02-27T02:35:06Z</time>
      </trkpt>
      <trkpt lat="39.211668" lon="-6.276267">
        <ele>409.313</ele>
        <time>2019-02-27T02:35:07Z</time>
      </trkpt>
      <trkpt lat="39.212155" lon="-6.276790">
        <ele>408.608</ele>
        <time>2019-02-27T02:35:22Z</time>
      </trkpt>
      <trkpt lat="39.212744" lon="-6.277447">
        <ele>406.954</ele>
        <time>2019-02-27T02:35:41Z</time>
      </trkpt>
      <trkpt lat="39.213270" lon="-6.278065">
        <ele>406.745</ele>
        <time>2019-02-27T02:35:59Z</time>
      </trkpt>
      <trkpt lat="39.213428" lon="-6.278249">
        <ele>406.876</ele>
        <time>2019-02-27T02:36:04Z</time>
      </trkpt>
      <trkpt lat="39.213499" lon="-6.278320">
        <ele>406.975</ele>
        <time>2019-02-27T02:36:06Z</time>
      </trkpt>
      <trkpt lat="39.214051" lon="-6.278955">
        <ele>406.629</ele>
        <time>2019-02-27T02:36:21Z</time>
      </trkpt>
      <trkpt lat="39.214195" lon="-6.279129">
        <ele>406.392</ele>
        <time>2019-02-27T02:36:25Z</time>
      </trkpt>
      <trkpt lat="39.214237" lon="-6.279156">
        <ele>406.291</ele>
        <time>2019-02-27T02:36:26Z</time>
      </trkpt>
      <trkpt lat="39.214282" lon="-6.279174">
        <ele>406.140</ele>
        <time>2019-02-27T02:36:27Z</time>
      </trkpt>
      <trkpt lat="39.214428" lon="-6.279209">
        <ele>405.872</ele>
        <time>2019-02-27T02:36:30Z</time>
      </trkpt>
      <trkpt lat="39.214472" lon="-6.279207">
        <ele>405.713</ele>
        <time>2019-02-27T02:36:31Z</time>
      </trkpt>
      <trkpt lat="39.214513" lon="-6.279206">
        <ele>405.614</ele>
        <time>2019-02-27T02:36:32Z</time>
      </trkpt>
      <trkpt lat="39.214554" lon="-6.279208">
        <ele>405.408</ele>
        <time>2019-02-27T02:36:33Z</time>
      </trkpt>
      <trkpt lat="39.214594" lon="-6.279211">
        <ele>405.330</ele>
        <time>2019-02-27T02:36:34Z</time>
      </trkpt>
      <trkpt lat="39.214677" lon="-6.279210">
        <ele>405.361</ele>
        <time>2019-02-27T02:36:36Z</time>
      </trkpt>
      <trkpt lat="39.214717" lon="-6.279203">
        <ele>405.382</ele>
        <time>2019-02-27T02:36:37Z</time>
      </trkpt>
      <trkpt lat="39.214993" lon="-6.279226">
        <ele>405.391</ele>
        <time>2019-02-27T02:36:44Z</time>
      </trkpt>
      <trkpt lat="39.215033" lon="-6.279235">
        <ele>405.335</ele>
        <time>2019-02-27T02:36:45Z</time>
      </trkpt>
      <trkpt lat="39.215072" lon="-6.279234">
        <ele>405.318</ele>
        <time>2019-02-27T02:36:46Z</time>
      </trkpt>
      <trkpt lat="39.215154" lon="-6.279227">
        <ele>405.397</ele>
        <time>2019-02-27T02:36:48Z</time>
      </trkpt>
      <trkpt lat="39.215195" lon="-6.279234">
        <ele>405.366</ele>
        <time>2019-02-27T02:36:49Z</time>
      </trkpt>
      <trkpt lat="39.215279" lon="-6.279245">
        <ele>405.334</ele>
        <time>2019-02-27T02:36:51Z</time>
      </trkpt>
      <trkpt lat="39.215321" lon="-6.279242">
        <ele>405.355</ele>
        <time>2019-02-27T02:36:52Z</time>
      </trkpt>
      <trkpt lat="39.215408" lon="-6.279225">
        <ele>405.310</ele>
        <time>2019-02-27T02:36:54Z</time>
      </trkpt>
      <trkpt lat="39.215452" lon="-6.279225">
        <ele>405.308</ele>
        <time>2019-02-27T02:36:55Z</time>
      </trkpt>
      <trkpt lat="39.215494" lon="-6.279236">
        <ele>405.316</ele>
        <time>2019-02-27T02:36:56Z</time>
      </trkpt>
      <trkpt lat="39.215536" lon="-6.279245">
        <ele>405.317</ele>
        <time>2019-02-27T02:36:57Z</time>
      </trkpt>
      <trkpt lat="39.215578" lon="-6.279251">
        <ele>405.378</ele>
        <time>2019-02-27T02:36:58Z</time>
      </trkpt>
      <trkpt lat="39.215619" lon="-6.279263">
        <ele>405.357</ele>
        <time>2019-02-27T02:36:59Z</time>
      </trkpt>
      <trkpt lat="39.215659" lon="-6.279288">
        <ele>405.351</ele>
        <time>2019-02-27T02:37:00Z</time>
      </trkpt>
      <trkpt lat="39.215700" lon="-6.279314">
        <ele>405.354</ele>
        <time>2019-02-27T02:37:01Z</time>
      </trkpt>
      <trkpt lat="39.215743" lon="-6.279335">
        <ele>405.283</ele>
        <time>2019-02-27T02:37:02Z</time>
      </trkpt>
      <trkpt lat="39.215789" lon="-6.279348">
        <ele>405.252</ele>
        <time>2019-02-27T02:37:03Z</time>
      </trkpt>
      <trkpt lat="39.215834" lon="-6.279357">
        <ele>405.254</ele>
        <time>2019-02-27T02:37:04Z</time>
      </trkpt>
      <trkpt lat="39.215972" lon="-6.279369">
        <ele>405.056</ele>
        <time>2019-02-27T02:37:07Z</time>
      </trkpt>
      <trkpt lat="39.216017" lon="-6.279381">
        <ele>404.911</ele>
        <time>2019-02-27T02:37:08Z</time>
      </trkpt>
      <trkpt lat="39.216308" lon="-6.279454">
        <ele>404.408</ele>
        <time>2019-02-27T02:37:15Z</time>
      </trkpt>
      <trkpt lat="39.216462" lon="-6.279547">
        <ele>404.498</ele>
        <time>2019-02-27T02:37:19Z</time>
      </trkpt>
      <trkpt lat="39.217030" lon="-6.279828">
        <ele>405.289</ele>
        <time>2019-02-27T02:37:35Z</time>
      </trkpt>
      <trkpt lat="39.217439" lon="-6.279820">
        <ele>405.080</ele>
        <time>2019-02-27T02:37:45Z</time>
      </trkpt>
      <trkpt lat="39.217480" lon="-6.279823">
        <ele>404.999</ele>
        <time>2019-02-27T02:37:46Z</time>
      </trkpt>
      <trkpt lat="39.217521" lon="-6.279825">
        <ele>404.813</ele>
        <time>2019-02-27T02:37:47Z</time>
      </trkpt>
      <trkpt lat="39.217608" lon="-6.279830">
        <ele>404.696</ele>
        <time>2019-02-27T02:37:49Z</time>
      </trkpt>
      <trkpt lat="39.217648" lon="-6.279843">
        <ele>404.555</ele>
        <time>2019-02-27T02:37:50Z</time>
      </trkpt>
      <trkpt lat="39.217686" lon="-6.279862">
        <ele>404.484</ele>
        <time>2019-02-27T02:37:51Z</time>
      </trkpt>
      <trkpt lat="39.217843" lon="-6.279966">
        <ele>404.443</ele>
        <time>2019-02-27T02:37:55Z</time>
      </trkpt>
      <trkpt lat="39.217884" lon="-6.279986">
        <ele>404.464</ele>
        <time>2019-02-27T02:37:56Z</time>
      </trkpt>
      <trkpt lat="39.217927" lon="-6.279999">
        <ele>404.410</ele>
        <time>2019-02-27T02:37:57Z</time>
      </trkpt>
      <trkpt lat="39.217969" lon="-6.280002">
        <ele>404.408</ele>
        <time>2019-02-27T02:37:58Z</time>
      </trkpt>
      <trkpt lat="39.218009" lon="-6.280000">
        <ele>404.447</ele>
        <time>2019-02-27T02:37:59Z</time>
      </trkpt>
      <trkpt lat="39.218046" lon="-6.279997">
        <ele>404.478</ele>
        <time>2019-02-27T02:38:00Z</time>
      </trkpt>
      <trkpt lat="39.218480" lon="-6.280075">
        <ele>404.499</ele>
        <time>2019-02-27T02:38:11Z</time>
      </trkpt>
      <trkpt lat="39.218755" lon="-6.280065">
        <ele>404.428</ele>
        <time>2019-02-27T02:38:17Z</time>
      </trkpt>
      <trkpt lat="39.218875" lon="-6.280109">
        <ele>404.492</ele>
        <time>2019-02-27T02:38:20Z</time>
      </trkpt>
      <trkpt lat="39.219024" lon="-6.280228">
        <ele>404.485</ele>
        <time>2019-02-27T02:38:24Z</time>
      </trkpt>
      <trkpt lat="39.219220" lon="-6.280351">
        <ele>404.464</ele>
        <time>2019-02-27T02:38:29Z</time>
      </trkpt>
      <trkpt lat="39.219254" lon="-6.280388">
        <ele>404.493</ele>
        <time>2019-02-27T02:38:30Z</time>
      </trkpt>
      <trkpt lat="39.219290" lon="-6.280427">
        <ele>404.447</ele>
        <time>2019-02-27T02:38:31Z</time>
      </trkpt>
      <trkpt lat="39.219327" lon="-6.280461">
        <ele>404.429</ele>
        <time>2019-02-27T02:38:32Z</time>
      </trkpt>
      <trkpt lat="39.219365" lon="-6.280483">
        <ele>404.421</ele>
        <time>2019-02-27T02:38:33Z</time>
      </trkpt>
      <trkpt lat="39.219405" lon="-6.280494">
        <ele>404.408</ele>
        <time>2019-02-27T02:38:34Z</time>
      </trkpt>
      <trkpt lat="39.219446" lon="-6.280502">
        <ele>404.497</ele>
        <time>2019-02-27T02:38:35Z</time>
      </trkpt>
      <trkpt lat="39.219487" lon="-6.280516">
        <ele>404.468</ele>
        <time>2019-02-27T02:38:36Z</time>
      </trkpt>
      <trkpt lat="39.219526" lon="-6.280536">
        <ele>404.499</ele>
        <time>2019-02-27T02:38:37Z</time>
      </trkpt>
      <trkpt lat="39.219563" lon="-6.280564">
        <ele>404.488</ele>
        <time>2019-02-27T02:38:38Z</time>
      </trkpt>
      <trkpt lat="39.219600" lon="-6.280594">
        <ele>404.422</ele>
        <time>2019-02-27T02:38:39Z</time>
      </trkpt>
      <trkpt lat="39.219681" lon="-6.280654">
        <ele>404.485</ele>
        <time>2019-02-27T02:38:41Z</time>
      </trkpt>
      <trkpt lat="39.219766" lon="-6.280692">
        <ele>404.484</ele>
        <time>2019-02-27T02:38:43Z</time>
      </trkpt>
      <trkpt lat="39.219809" lon="-6.280697">
        <ele>404.413</ele>
        <time>2019-02-27T02:38:44Z</time>
      </trkpt>
      <trkpt lat="39.219851" lon="-6.280700">
        <ele>404.438</ele>
        <time>2019-02-27T02:38:45Z</time>
      </trkpt>
      <trkpt lat="39.219893" lon="-6.280707">
        <ele>404.470</ele>
        <time>2019-02-27T02:38:46Z</time>
      </trkpt>
      <trkpt lat="39.219935" lon="-6.280720">
        <ele>404.417</ele>
        <time>2019-02-27T02:38:47Z</time>
      </trkpt>
      <trkpt lat="39.219976" lon="-6.280740">
        <ele>404.408</ele>
        <time>2019-02-27T02:38:48Z</time>
      </trkpt>
      <trkpt lat="39.220017" lon="-6.280766">
        <ele>404.416</ele>
        <time>2019-02-27T02:38:49Z</time>
      </trkpt>
      <trkpt lat="39.220057" lon="-6.280797">
        <ele>404.487</ele>
        <time>2019-02-27T02:38:50Z</time>
      </trkpt>
      <trkpt lat="39.220424" lon="-6.281111">
        <ele>404.418</ele>
        <time>2019-02-27T02:39:00Z</time>
      </trkpt>
      <trkpt lat="39.220501" lon="-6.281142">
        <ele>404.417</ele>
        <time>2019-02-27T02:39:02Z</time>
      </trkpt>
      <trkpt lat="39.220540" lon="-6.281150">
        <ele>404.551</ele>
        <time>2019-02-27T02:39:03Z</time>
      </trkpt>
      <trkpt lat="39.221077" lon="-6.281297">
        <ele>404.594</ele>
        <time>2019-02-27T02:39:18Z</time>
      </trkpt>
      <trkpt lat="39.221564" lon="-6.281392">
        <ele>404.563</ele>
        <time>2019-02-27T02:39:31Z</time>
      </trkpt>
      <trkpt lat="39.222133" lon="-6.281540">
        <ele>404.582</ele>
        <time>2019-02-27T02:39:46Z</time>
      </trkpt>
      <trkpt lat="39.222543" lon="-6.281583">
        <ele>404.567</ele>
        <time>2019-02-27T02:39:57Z</time>
      </trkpt>
      <trkpt lat="39.222585" lon="-6.281595">
        <ele>404.581</ele>
        <time>2019-02-27T02:39:58Z</time>
      </trkpt>
      <trkpt lat="39.223147" lon="-6.281790">
        <ele>404.519</ele>
        <time>2019-02-27T02:40:12Z</time>
      </trkpt>
      <trkpt lat="39.223262" lon="-6.281868">
        <ele>404.508</ele>
        <time>2019-02-27T02:40:15Z</time>
      </trkpt>
      <trkpt lat="39.223305" lon="-6.281890">
        <ele>404.579</ele>
        <time>2019-02-27T02:40:16Z</time>
      </trkpt>
      <trkpt lat="39.224017" lon="-6.282282">
        <ele>404.090</ele>
        <time>2019-02-27T02:40:31Z</time>
      </trkpt>
      <trkpt lat="39.224057" lon="-6.282325">
        <ele>403.831</ele>
        <time>2019-02-27T02:40:32Z</time>
      </trkpt>
      <trkpt lat="39.224135" lon="-6.282408">
        <ele>403.580</ele>
        <time>2019-02-27T02:40:34Z</time>
      </trkpt>
      <trkpt lat="39.224176" lon="-6.282441">
        <ele>403.494</ele>
        <time>2019-02-27T02:40:35Z</time>
      </trkpt>
      <trkpt lat="39.224219" lon="-6.282468">
        <ele>403.267</ele>
        <time>2019-02-27T02:40:36Z</time>
      </trkpt>
      <trkpt lat="39.224507" lon="-6.282675">
        <ele>402.656</ele>
        <time>2019-02-27T02:40:43Z</time>
      </trkpt>
      <trkpt lat="39.224743" lon="-6.282896">
        <ele>402.585</ele>
        <time>2019-02-27T02:40:49Z</time>
      </trkpt>
      <trkpt lat="39.225258" lon="-6.283338">
        <ele>400.967</ele>
        <time>2019-02-27T02:41:02Z</time>
      </trkpt>
      <trkpt lat="39.226034" lon="-6.284087">
        <ele>398.881</ele>
        <time>2019-02-27T02:41:17Z</time>
      </trkpt>
      <trkpt lat="39.226097" lon="-6.284175">
        <ele>398.719</ele>
        <time>2019-02-27T02:41:19Z</time>
      </trkpt>
      <trkpt lat="39.226129" lon="-6.284196">
        <ele>398.708</ele>
        <time>2019-02-27T02:41:20Z</time>
      </trkpt>
      <trkpt lat="39.226162" lon="-6.284201">
        <ele>398.539</ele>
        <time>2019-02-27T02:41:21Z</time>
      </trkpt>
      <trkpt lat="39.226197" lon="-6.284187">
        <ele>398.550</ele>
        <time>2019-02-27T02:41:22Z</time>
      </trkpt>
      <trkpt lat="39.226233" lon="-6.284160">
        <ele>398.471</ele>
        <time>2019-02-27T02:41:23Z</time>
      </trkpt>
      <trkpt lat="39.226266" lon="-6.284130">
        <ele>398.350</ele>
        <time>2019-02-27T02:41:24Z</time>
      </trkpt>
      <trkpt lat="39.226300" lon="-6.284108">
        <ele>398.354</ele>
        <time>2019-02-27T02:41:25Z</time>
      </trkpt>
      <trkpt lat="39.226335" lon="-6.284097">
        <ele>398.217</ele>
        <time>2019-02-27T02:41:26Z</time>
      </trkpt>
      <trkpt lat="39.226373" lon="-6.284094">
        <ele>398.246</ele>
        <time>2019-02-27T02:41:27Z</time>
      </trkpt>
      <trkpt lat="39.226413" lon="-6.284097">
        <ele>398.225</ele>
        <time>2019-02-27T02:41:28Z</time>
      </trkpt>
      <trkpt lat="39.226451" lon="-6.284109">
        <ele>398.189</ele>
        <time>2019-02-27T02:41:29Z</time>
      </trkpt>
      <trkpt lat="39.226489" lon="-6.284124">
        <ele>398.106</ele>
        <time>2019-02-27T02:41:30Z</time>
      </trkpt>
      <trkpt lat="39.226812" lon="-6.284323">
        <ele>398.026</ele>
        <time>2019-02-27T02:41:39Z</time>
      </trkpt>
      <trkpt lat="39.226850" lon="-6.284344">
        <ele>398.008</ele>
        <time>2019-02-27T02:41:40Z</time>
      </trkpt>
      <trkpt lat="39.227167" lon="-6.284507">
        <ele>398.071</ele>
        <time>2019-02-27T02:41:48Z</time>
      </trkpt>
      <trkpt lat="39.227208" lon="-6.284522">
        <ele>398.012</ele>
        <time>2019-02-27T02:41:49Z</time>
      </trkpt>
      <trkpt lat="39.227246" lon="-6.284543">
        <ele>398.053</ele>
        <time>2019-02-27T02:41:50Z</time>
      </trkpt>
      <trkpt lat="39.227705" lon="-6.284801">
        <ele>398.032</ele>
        <time>2019-02-27T02:42:01Z</time>
      </trkpt>
      <trkpt lat="39.227877" lon="-6.284906">
        <ele>398.156</ele>
        <time>2019-02-27T02:42:05Z</time>
      </trkpt>
      <trkpt lat="39.227918" lon="-6.284933">
        <ele>398.199</ele>
        <time>2019-02-27T02:42:06Z</time>
      </trkpt>
      <trkpt lat="39.227958" lon="-6.284959">
        <ele>398.218</ele>
        <time>2019-02-27T02:42:07Z</time>
      </trkpt>
      <trkpt lat="39.228279" lon="-6.285152">
        <ele>398.417</ele>
        <time>2019-02-27T02:42:15Z</time>
      </trkpt>
      <trkpt lat="39.228318" lon="-6.285183">
        <ele>398.469</ele>
        <time>2019-02-27T02:42:16Z</time>
      </trkpt>
      <trkpt lat="39.228929" lon="-6.285566">
        <ele>398.704</ele>
        <time>2019-02-27T02:42:31Z</time>
      </trkpt>
      <trkpt lat="39.229127" lon="-6.285726">
        <ele>398.824</ele>
        <time>2019-02-27T02:42:36Z</time>
      </trkpt>
      <trkpt lat="39.229199" lon="-6.285806">
        <ele>398.808</ele>
        <time>2019-02-27T02:42:38Z</time>
      </trkpt>
      <trkpt lat="39.229237" lon="-6.285844">
        <ele>398.819</ele>
        <time>2019-02-27T02:42:39Z</time>
      </trkpt>
      <trkpt lat="39.229274" lon="-6.285882">
        <ele>398.870</ele>
        <time>2019-02-27T02:42:40Z</time>
      </trkpt>
      <trkpt lat="39.229500" lon="-6.286091">
        <ele>398.961</ele>
        <time>2019-02-27T02:42:46Z</time>
      </trkpt>
      <trkpt lat="39.229710" lon="-6.286310">
        <ele>399.050</ele>
        <time>2019-02-27T02:42:52Z</time>
      </trkpt>
      <trkpt lat="39.229740" lon="-6.286351">
        <ele>399.194</ele>
        <time>2019-02-27T02:42:53Z</time>
      </trkpt>
      <trkpt lat="39.229773" lon="-6.286390">
        <ele>399.197</ele>
        <time>2019-02-27T02:42:54Z</time>
      </trkpt>
      <trkpt lat="39.229807" lon="-6.286425">
        <ele>399.126</ele>
        <time>2019-02-27T02:42:55Z</time>
      </trkpt>
      <trkpt lat="39.229843" lon="-6.286454">
        <ele>399.185</ele>
        <time>2019-02-27T02:42:56Z</time>
      </trkpt>
      <trkpt lat="39.229878" lon="-6.286481">
        <ele>399.193</ele>
        <time>2019-02-27T02:42:57Z</time>
      </trkpt>
      <trkpt lat="39.230252" lon="-6.286847">
        <ele>399.365</ele>
        <time>2019-02-27T02:43:10Z</time>
      </trkpt>
      <trkpt lat="39.230639" lon="-6.287186">
        <ele>399.321</ele>
        <time>2019-02-27T02:43:23Z</time>
      </trkpt>
      <trkpt lat="39.230850" lon="-6.287368">
        <ele>399.108</ele>
        <time>2019-02-27T02:43:29Z</time>
      </trkpt>
      <trkpt lat="39.230890" lon="-6.287391">
        <ele>399.062</ele>
        <time>2019-02-27T02:43:30Z</time>
      </trkpt>
      <trkpt lat="39.231013" lon="-6.287460">
        <ele>398.743</ele>
        <time>2019-02-27T02:43:33Z</time>
      </trkpt>
      <trkpt lat="39.231053" lon="-6.287482">
        <ele>398.734</ele>
        <time>2019-02-27T02:43:34Z</time>
      </trkpt>
      <trkpt lat="39.231132" lon="-6.287533">
        <ele>398.563</ele>
        <time>2019-02-27T02:43:36Z</time>
      </trkpt>
      <trkpt lat="39.231561" lon="-6.287769">
        <ele>397.327</ele>
        <time>2019-02-27T02:43:49Z</time>
      </trkpt>
      <trkpt lat="39.232152" lon="-6.288125">
        <ele>395.810</ele>
        <time>2019-02-27T02:44:02Z</time>
      </trkpt>
      <trkpt lat="39.232467" lon="-6.288369">
        <ele>395.289</ele>
        <time>2019-02-27T02:44:10Z</time>
      </trkpt>
      <trkpt lat="39.232503" lon="-6.288401">
        <ele>395.188</ele>
        <time>2019-02-27T02:44:11Z</time>
      </trkpt>
      <trkpt lat="39.232533" lon="-6.288436">
        <ele>395.044</ele>
        <time>2019-02-27T02:44:12Z</time>
      </trkpt>
      <trkpt lat="39.232560" lon="-6.288468">
        <ele>394.905</ele>
        <time>2019-02-27T02:44:13Z</time>
      </trkpt>
      <trkpt lat="39.232589" lon="-6.288492">
        <ele>394.815</ele>
        <time>2019-02-27T02:44:14Z</time>
      </trkpt>
      <trkpt lat="39.232621" lon="-6.288513">
        <ele>394.708</ele>
        <time>2019-02-27T02:44:15Z</time>
      </trkpt>
      <trkpt lat="39.232964" lon="-6.288872">
        <ele>393.527</ele>
        <time>2019-02-27T02:44:25Z</time>
      </trkpt>
      <trkpt lat="39.233045" lon="-6.288942">
        <ele>393.188</ele>
        <time>2019-02-27T02:44:27Z</time>
      </trkpt>
      <trkpt lat="39.233472" lon="-6.289316">
        <ele>390.979</ele>
        <time>2019-02-27T02:44:38Z</time>
      </trkpt>
      <trkpt lat="39.233671" lon="-6.289555">
        <ele>389.898</ele>
        <time>2019-02-27T02:44:48Z</time>
      </trkpt>
      <trkpt lat="39.233671" lon="-6.289554">
        <ele>389.852</ele>
        <time>2019-02-27T02:44:49Z</time>
      </trkpt>
      <trkpt lat="39.233688" lon="-6.289592">
        <ele>389.775</ele>
        <time>2019-02-27T02:45:20Z</time>
      </trkpt>
      <trkpt lat="39.233867" lon="-6.289906">
        <ele>388.914</ele>
        <time>2019-02-27T02:45:31Z</time>
      </trkpt>
      <trkpt lat="39.233900" lon="-6.289905">
        <ele>388.943</ele>
        <time>2019-02-27T02:45:38Z</time>
      </trkpt>
      <trkpt lat="39.233976" lon="-6.289881">
        <ele>388.989</ele>
        <time>2019-02-27T02:45:54Z</time>
      </trkpt>
      <trkpt lat="39.234147" lon="-6.289845">
        <ele>388.906</ele>
        <time>2019-02-27T02:46:11Z</time>
      </trkpt>
      <trkpt lat="39.234228" lon="-6.289789">
        <ele>388.926</ele>
        <time>2019-02-27T02:46:24Z</time>
      </trkpt>
      <trkpt lat="39.234203" lon="-6.289792">
        <ele>389.008</ele>
        <time>2019-02-27T02:46:51Z</time>
      </trkpt>
      <trkpt lat="39.234142" lon="-6.289862">
        <ele>389.141</ele>
        <time>2019-02-27T02:47:03Z</time>
      </trkpt>
      <trkpt lat="39.234211" lon="-6.289814">
        <ele>389.212</ele>
        <time>2019-02-27T02:47:49Z</time>
      </trkpt>
      <trkpt lat="39.234217" lon="-6.289800">
        <ele>389.223</ele>
        <time>2019-02-27T02:47:50Z</time>
      </trkpt>
      <trkpt lat="39.234356" lon="-6.289623">
        <ele>390.052</ele>
        <time>2019-02-27T02:48:07Z</time>
      </trkpt>
      <trkpt lat="39.234367" lon="-6.289628">
        <ele>390.086</ele>
        <time>2019-02-27T02:48:08Z</time>
      </trkpt>
      <trkpt lat="39.234377" lon="-6.289634">
        <ele>390.019</ele>
        <time>2019-02-27T02:48:09Z</time>
      </trkpt>
      <trkpt lat="39.234408" lon="-6.289655">
        <ele>390.068</ele>
        <time>2019-02-27T02:48:16Z</time>
      </trkpt>
      <trkpt lat="39.234396" lon="-6.289743">
        <ele>390.057</ele>
        <time>2019-02-27T02:48:51Z</time>
      </trkpt>
      <trkpt lat="39.234399" lon="-6.289777">
        <ele>390.035</ele>
        <time>2019-02-27T02:48:52Z</time>
      </trkpt>
      <trkpt lat="39.234404" lon="-6.289815">
        <ele>390.186</ele>
        <time>2019-02-27T02:48:53Z</time>
      </trkpt>
      <trkpt lat="39.234422" lon="-6.290034">
        <ele>390.314</ele>
        <time>2019-02-27T02:49:05Z</time>
      </trkpt>
      <trkpt lat="39.234439" lon="-6.290291">
        <ele>390.808</ele>
        <time>2019-02-27T02:49:15Z</time>
      </trkpt>
      <trkpt lat="39.234441" lon="-6.290311">
        <ele>390.846</ele>
        <time>2019-02-27T02:49:16Z</time>
      </trkpt>
      <trkpt lat="39.234435" lon="-6.290323">
        <ele>390.847</ele>
        <time>2019-02-27T02:49:17Z</time>
      </trkpt>
      <trkpt lat="39.234425" lon="-6.290313">
        <ele>390.838</ele>
        <time>2019-02-27T02:49:18Z</time>
      </trkpt>
      <trkpt lat="39.234413" lon="-6.290257">
        <ele>390.777</ele>
        <time>2019-02-27T02:49:20Z</time>
      </trkpt>
      <trkpt lat="39.234411" lon="-6.290222">
        <ele>390.631</ele>
        <time>2019-02-27T02:49:21Z</time>
      </trkpt>
      <trkpt lat="39.234410" lon="-6.290184">
        <ele>390.574</ele>
        <time>2019-02-27T02:49:22Z</time>
      </trkpt>
      <trkpt lat="39.234410" lon="-6.290145">
        <ele>390.553</ele>
        <time>2019-02-27T02:49:23Z</time>
      </trkpt>
      <trkpt lat="39.234410" lon="-6.290106">
        <ele>390.412</ele>
        <time>2019-02-27T02:49:24Z</time>
      </trkpt>
      <trkpt lat="39.234414" lon="-6.290071">
        <ele>390.414</ele>
        <time>2019-02-27T02:49:25Z</time>
      </trkpt>
      <trkpt lat="39.234423" lon="-6.290043">
        <ele>390.354</ele>
        <time>2019-02-27T02:49:26Z</time>
      </trkpt>
      <trkpt lat="39.234431" lon="-6.290025">
        <ele>390.309</ele>
        <time>2019-02-27T02:49:27Z</time>
      </trkpt>
      <trkpt lat="39.234432" lon="-6.290011">
        <ele>390.308</ele>
        <time>2019-02-27T02:49:28Z</time>
      </trkpt>
      <trkpt lat="39.234429" lon="-6.289992">
        <ele>390.294</ele>
        <time>2019-02-27T02:49:29Z</time>
      </trkpt>
      <trkpt lat="39.234425" lon="-6.289969">
        <ele>390.415</ele>
        <time>2019-02-27T02:49:30Z</time>
      </trkpt>
      <trkpt lat="39.234422" lon="-6.289945">
        <ele>390.436</ele>
        <time>2019-02-27T02:49:31Z</time>
      </trkpt>
      <trkpt lat="39.234408" lon="-6.289879">
        <ele>390.555</ele>
        <time>2019-02-27T02:49:39Z</time>
      </trkpt>
      <trkpt lat="39.234434" lon="-6.289941">
        <ele>390.729</ele>
        <time>2019-02-27T02:50:31Z</time>
      </trkpt>
      <trkpt lat="39.234456" lon="-6.289951">
        <ele>390.752</ele>
        <time>2019-02-27T02:50:32Z</time>
      </trkpt>
      <trkpt lat="39.234479" lon="-6.289965">
        <ele>390.811</ele>
        <time>2019-02-27T02:50:33Z</time>
      </trkpt>
      <trkpt lat="39.234500" lon="-6.289982">
        <ele>390.850</ele>
        <time>2019-02-27T02:50:34Z</time>
      </trkpt>
      <trkpt lat="39.234521" lon="-6.290003">
        <ele>390.989</ele>
        <time>2019-02-27T02:50:35Z</time>
      </trkpt>
      <trkpt lat="39.234735" lon="-6.290278">
        <ele>392.506</ele>
        <time>2019-02-27T02:50:51Z</time>
      </trkpt>
      <trkpt lat="39.234766" lon="-6.290341">
        <ele>392.326</ele>
        <time>2019-02-27T02:50:58Z</time>
      </trkpt>
      <trkpt lat="39.234755" lon="-6.290302">
        <ele>392.208</ele>
        <time>2019-02-27T02:51:09Z</time>
      </trkpt>
      <trkpt lat="39.234549" lon="-6.290074">
        <ele>391.241</ele>
        <time>2019-02-27T02:51:17Z</time>
      </trkpt>
      <trkpt lat="39.234366" lon="-6.289722">
        <ele>390.032</ele>
        <time>2019-02-27T02:51:27Z</time>
      </trkpt>
      <trkpt lat="39.234367" lon="-6.289572">
        <ele>390.013</ele>
        <time>2019-02-27T02:51:31Z</time>
      </trkpt>
      <trkpt lat="39.234384" lon="-6.289547">
        <ele>390.032</ele>
        <time>2019-02-27T02:51:32Z</time>
      </trkpt>
      <trkpt lat="39.234408" lon="-6.289524">
        <ele>390.016</ele>
        <time>2019-02-27T02:51:33Z</time>
      </trkpt>
      <trkpt lat="39.234438" lon="-6.289505">
        <ele>390.119</ele>
        <time>2019-02-27T02:51:34Z</time>
      </trkpt>
      <trkpt lat="39.234622" lon="-6.289419">
        <ele>390.958</ele>
        <time>2019-02-27T02:51:46Z</time>
      </trkpt>
      <trkpt lat="39.234621" lon="-6.289421">
        <ele>390.947</ele>
        <time>2019-02-27T02:51:47Z</time>
      </trkpt>
      <trkpt lat="39.234560" lon="-6.289446">
        <ele>390.752</ele>
        <time>2019-02-27T02:52:08Z</time>
      </trkpt>
      <trkpt lat="39.234415" lon="-6.289589">
        <ele>390.053</ele>
        <time>2019-02-27T02:52:16Z</time>
      </trkpt>
      <trkpt lat="39.234401" lon="-6.289625">
        <ele>390.008</ele>
        <time>2019-02-27T02:52:17Z</time>
      </trkpt>
      <trkpt lat="39.234397" lon="-6.289665">
        <ele>390.008</ele>
        <time>2019-02-27T02:52:18Z</time>
      </trkpt>
      <trkpt lat="39.234398" lon="-6.289707">
        <ele>390.068</ele>
        <time>2019-02-27T02:52:19Z</time>
      </trkpt>
      <trkpt lat="39.234402" lon="-6.289750">
        <ele>390.039</ele>
        <time>2019-02-27T02:52:20Z</time>
      </trkpt>
      <trkpt lat="39.234528" lon="-6.290005">
        <ele>390.940</ele>
        <time>2019-02-27T02:52:29Z</time>
      </trkpt>
      <trkpt lat="39.234777" lon="-6.290328">
        <ele>392.839</ele>
        <time>2019-02-27T02:52:42Z</time>
      </trkpt>
      <trkpt lat="39.234932" lon="-6.290603">
        <ele>394.753</ele>
        <time>2019-02-27T02:52:53Z</time>
      </trkpt>
      <trkpt lat="39.235100" lon="-6.290891">
        <ele>396.656</ele>
        <time>2019-02-27T02:53:05Z</time>
      </trkpt>
      <trkpt lat="39.235142" lon="-6.291251">
        <ele>396.955</ele>
        <time>2019-02-27T02:53:18Z</time>
      </trkpt>
      <trkpt lat="39.235129" lon="-6.291303">
        <ele>396.944</ele>
        <time>2019-02-27T02:53:20Z</time>
      </trkpt>
      <trkpt lat="39.235110" lon="-6.291708">
        <ele>396.823</ele>
        <time>2019-02-27T02:53:31Z</time>
      </trkpt>
      <trkpt lat="39.235137" lon="-6.291985">
        <ele>396.483</ele>
        <time>2019-02-27T02:53:36Z</time>
      </trkpt>
      <trkpt lat="39.235097" lon="-6.292358">
        <ele>395.011</ele>
        <time>2019-02-27T02:53:42Z</time>
      </trkpt>
      <trkpt lat="39.235059" lon="-6.292549">
        <ele>393.808</ele>
        <time>2019-02-27T02:53:45Z</time>
      </trkpt>
      <trkpt lat="39.234998" lon="-6.292753">
        <ele>393.145</ele>
        <time>2019-02-27T02:53:54Z</time>
      </trkpt>
      <trkpt lat="39.234982" lon="-6.292897">
        <ele>392.966</ele>
        <time>2019-02-27T02:54:28Z</time>
      </trkpt>
      <trkpt lat="39.234909" lon="-6.293422">
        <ele>391.897</ele>
        <time>2019-02-27T02:54:35Z</time>
      </trkpt>
      <trkpt lat="39.234902" lon="-6.293471">
        <ele>391.696</ele>
        <time>2019-02-27T02:54:36Z</time>
      </trkpt>
      <trkpt lat="39.234769" lon="-6.293872">
        <ele>389.590</ele>
        <time>2019-02-27T02:54:45Z</time>
      </trkpt>
      <trkpt lat="39.234561" lon="-6.294545">
        <ele>388.123</ele>
        <time>2019-02-27T02:55:01Z</time>
      </trkpt>
      <trkpt lat="39.234410" lon="-6.295162">
        <ele>387.762</ele>
        <time>2019-02-27T02:55:17Z</time>
      </trkpt>
      <trkpt lat="39.234338" lon="-6.296031">
        <ele>387.981</ele>
        <time>2019-02-27T02:55:32Z</time>
      </trkpt>
      <trkpt lat="39.234404" lon="-6.296575">
        <ele>387.261</ele>
        <time>2019-02-27T02:55:41Z</time>
      </trkpt>
      <trkpt lat="39.234447" lon="-6.297256">
        <ele>387.521</ele>
        <time>2019-02-27T02:55:53Z</time>
      </trkpt>
      <trkpt lat="39.234458" lon="-6.297307">
        <ele>387.613</ele>
        <time>2019-02-27T02:55:54Z</time>
      </trkpt>
      <trkpt lat="39.234479" lon="-6.297352">
        <ele>387.608</ele>
        <time>2019-02-27T02:55:55Z</time>
      </trkpt>
      <trkpt lat="39.234509" lon="-6.297388">
        <ele>387.769</ele>
        <time>2019-02-27T02:55:56Z</time>
      </trkpt>
      <trkpt lat="39.234543" lon="-6.297407">
        <ele>387.730</ele>
        <time>2019-02-27T02:55:57Z</time>
      </trkpt>
      <trkpt lat="39.234577" lon="-6.297416">
        <ele>387.731</ele>
        <time>2019-02-27T02:55:58Z</time>
      </trkpt>
      <trkpt lat="39.234607" lon="-6.297426">
        <ele>387.790</ele>
        <time>2019-02-27T02:55:59Z</time>
      </trkpt>
      <trkpt lat="39.234636" lon="-6.297440">
        <ele>387.784</ele>
        <time>2019-02-27T02:56:00Z</time>
      </trkpt>
      <trkpt lat="39.234663" lon="-6.297457">
        <ele>387.797</ele>
        <time>2019-02-27T02:56:01Z</time>
      </trkpt>
      <trkpt lat="39.234690" lon="-6.297476">
        <ele>387.796</ele>
        <time>2019-02-27T02:56:02Z</time>
      </trkpt>
      <trkpt lat="39.234996" lon="-6.297691">
        <ele>387.845</ele>
        <time>2019-02-27T02:56:13Z</time>
      </trkpt>
      <trkpt lat="39.235013" lon="-6.297687">
        <ele>387.862</ele>
        <time>2019-02-27T02:56:14Z</time>
      </trkpt>
      <trkpt lat="39.235028" lon="-6.297676">
        <ele>387.883</ele>
        <time>2019-02-27T02:56:15Z</time>
      </trkpt>
      <trkpt lat="39.235144" lon="-6.297647">
        <ele>387.811</ele>
        <time>2019-02-27T02:56:22Z</time>
      </trkpt>
      <trkpt lat="39.235225" lon="-6.297696">
        <ele>387.908</ele>
        <time>2019-02-27T02:56:30Z</time>
      </trkpt>
      <trkpt lat="39.235284" lon="-6.297742">
        <ele>388.149</ele>
        <time>2019-02-27T02:56:53Z</time>
      </trkpt>
      <trkpt lat="39.235398" lon="-6.297998">
        <ele>388.880</ele>
        <time>2019-02-27T02:57:04Z</time>
      </trkpt>
      <trkpt lat="39.235480" lon="-6.298054">
        <ele>389.091</ele>
        <time>2019-02-27T02:57:08Z</time>
      </trkpt>
      <trkpt lat="39.235498" lon="-6.298080">
        <ele>389.080</ele>
        <time>2019-02-27T02:57:09Z</time>
      </trkpt>
      <trkpt lat="39.235526" lon="-6.298107">
        <ele>389.034</ele>
        <time>2019-02-27T02:57:10Z</time>
      </trkpt>
      <trkpt lat="39.235562" lon="-6.298121">
        <ele>388.947</ele>
        <time>2019-02-27T02:57:11Z</time>
      </trkpt>
      <trkpt lat="39.235601" lon="-6.298128">
        <ele>388.966</ele>
        <time>2019-02-27T02:57:12Z</time>
      </trkpt>
      <trkpt lat="39.235953" lon="-6.298294">
        <ele>388.555</ele>
        <time>2019-02-27T02:57:23Z</time>
      </trkpt>
      <trkpt lat="39.236118" lon="-6.298411">
        <ele>388.397</ele>
        <time>2019-02-27T02:57:27Z</time>
      </trkpt>
      <trkpt lat="39.236536" lon="-6.298770">
        <ele>387.723</ele>
        <time>2019-02-27T02:57:40Z</time>
      </trkpt>
      <trkpt lat="39.236570" lon="-6.298802">
        <ele>387.725</ele>
        <time>2019-02-27T02:57:41Z</time>
      </trkpt>
      <trkpt lat="39.236668" lon="-6.298911">
        <ele>387.408</ele>
        <time>2019-02-27T02:57:44Z</time>
      </trkpt>
      <trkpt lat="39.236704" lon="-6.298955">
        <ele>387.392</ele>
        <time>2019-02-27T02:57:45Z</time>
      </trkpt>
      <trkpt lat="39.236775" lon="-6.299038">
        <ele>387.123</ele>
        <time>2019-02-27T02:57:47Z</time>
      </trkpt>
      <trkpt lat="39.236815" lon="-6.299070">
        <ele>387.074</ele>
        <time>2019-02-27T02:57:48Z</time>
      </trkpt>
      <trkpt lat="39.236890" lon="-6.299124">
        <ele>386.893</ele>
        <time>2019-02-27T02:57:50Z</time>
      </trkpt>
      <trkpt lat="39.236924" lon="-6.299151">
        <ele>386.827</ele>
        <time>2019-02-27T02:57:51Z</time>
      </trkpt>
      <trkpt lat="39.236959" lon="-6.299172">
        <ele>386.850</ele>
        <time>2019-02-27T02:57:52Z</time>
      </trkpt>
      <trkpt lat="39.237478" lon="-6.299522">
        <ele>386.779</ele>
        <time>2019-02-27T02:58:08Z</time>
      </trkpt>
      <trkpt lat="39.237794" lon="-6.299982">
        <ele>387.288</ele>
        <time>2019-02-27T02:58:22Z</time>
      </trkpt>
      <trkpt lat="39.238241" lon="-6.300177">
        <ele>387.953</ele>
        <time>2019-02-27T02:58:36Z</time>
      </trkpt>
      <trkpt lat="39.238606" lon="-6.300365">
        <ele>388.304</ele>
        <time>2019-02-27T02:58:50Z</time>
      </trkpt>
      <trkpt lat="39.239013" lon="-6.300685">
        <ele>388.714</ele>
        <time>2019-02-27T02:59:03Z</time>
      </trkpt>
      <trkpt lat="39.239273" lon="-6.300778">
        <ele>388.708</ele>
        <time>2019-02-27T02:59:10Z</time>
      </trkpt>
      <trkpt lat="39.239773" lon="-6.300933">
        <ele>388.868</ele>
        <time>2019-02-27T02:59:22Z</time>
      </trkpt>
      <trkpt lat="39.239813" lon="-6.300967">
        <ele>388.839</ele>
        <time>2019-02-27T02:59:23Z</time>
      </trkpt>
      <trkpt lat="39.239850" lon="-6.301010">
        <ele>388.890</ele>
        <time>2019-02-27T02:59:24Z</time>
      </trkpt>
      <trkpt lat="39.239915" lon="-6.301099">
        <ele>388.759</ele>
        <time>2019-02-27T02:59:26Z</time>
      </trkpt>
      <trkpt lat="39.239932" lon="-6.301143">
        <ele>388.663</ele>
        <time>2019-02-27T02:59:27Z</time>
      </trkpt>
      <trkpt lat="39.239956" lon="-6.301184">
        <ele>388.646</ele>
        <time>2019-02-27T02:59:28Z</time>
      </trkpt>
      <trkpt lat="39.240271" lon="-6.301430">
        <ele>387.855</ele>
        <time>2019-02-27T02:59:38Z</time>
      </trkpt>
      <trkpt lat="39.240498" lon="-6.301453">
        <ele>386.844</ele>
        <time>2019-02-27T02:59:44Z</time>
      </trkpt>
      <trkpt lat="39.240541" lon="-6.301452">
        <ele>386.628</ele>
        <time>2019-02-27T02:59:45Z</time>
      </trkpt>
      <trkpt lat="39.240672" lon="-6.301463">
        <ele>386.189</ele>
        <time>2019-02-27T02:59:48Z</time>
      </trkpt>
      <trkpt lat="39.241107" lon="-6.301632">
        <ele>384.917</ele>
        <time>2019-02-27T02:59:58Z</time>
      </trkpt>
      <trkpt lat="39.241148" lon="-6.301658">
        <ele>384.808</ele>
        <time>2019-02-27T02:59:59Z</time>
      </trkpt>
      <trkpt lat="39.241189" lon="-6.301677">
        <ele>384.815</ele>
        <time>2019-02-27T03:00:00Z</time>
      </trkpt>
      <trkpt lat="39.241626" lon="-6.301908">
        <ele>384.896</ele>
        <time>2019-02-27T03:00:13Z</time>
      </trkpt>
      <trkpt lat="39.241956" lon="-6.302130">
        <ele>385.537</ele>
        <time>2019-02-27T03:00:25Z</time>
      </trkpt>
      <trkpt lat="39.242435" lon="-6.302416">
        <ele>386.386</ele>
        <time>2019-02-27T03:00:40Z</time>
      </trkpt>
      <trkpt lat="39.243161" lon="-6.302736">
        <ele>386.350</ele>
        <time>2019-02-27T03:00:57Z</time>
      </trkpt>
      <trkpt lat="39.243314" lon="-6.302786">
        <ele>386.293</ele>
        <time>2019-02-27T03:01:00Z</time>
      </trkpt>
      <trkpt lat="39.243560" lon="-6.302940">
        <ele>386.072</ele>
        <time>2019-02-27T03:01:06Z</time>
      </trkpt>
      <trkpt lat="39.243619" lon="-6.302988">
        <ele>385.951</ele>
        <time>2019-02-27T03:01:08Z</time>
      </trkpt>
      <trkpt lat="39.243650" lon="-6.302988">
        <ele>385.928</ele>
        <time>2019-02-27T03:01:09Z</time>
      </trkpt>
      <trkpt lat="39.243681" lon="-6.302988">
        <ele>385.889</ele>
        <time>2019-02-27T03:01:10Z</time>
      </trkpt>
      <trkpt lat="39.243715" lon="-6.302996">
        <ele>385.817</ele>
        <time>2019-02-27T03:01:11Z</time>
      </trkpt>
      <trkpt lat="39.243748" lon="-6.303009">
        <ele>385.708</ele>
        <time>2019-02-27T03:01:12Z</time>
      </trkpt>
      <trkpt lat="39.243779" lon="-6.303034">
        <ele>385.755</ele>
        <time>2019-02-27T03:01:13Z</time>
      </trkpt>
      <trkpt lat="39.243813" lon="-6.303062">
        <ele>385.676</ele>
        <time>2019-02-27T03:01:14Z</time>
      </trkpt>
      <trkpt lat="39.243852" lon="-6.303087">
        <ele>385.687</ele>
        <time>2019-02-27T03:01:15Z</time>
      </trkpt>
      <trkpt lat="39.243893" lon="-6.303102">
        <ele>385.686</ele>
        <time>2019-02-27T03:01:16Z</time>
      </trkpt>
      <trkpt lat="39.243936" lon="-6.303109">
        <ele>385.520</ele>
        <time>2019-02-27T03:01:17Z</time>
      </trkpt>
      <trkpt lat="39.243978" lon="-6.303127">
        <ele>385.553</ele>
        <time>2019-02-27T03:01:18Z</time>
      </trkpt>
      <trkpt lat="39.244014" lon="-6.303157">
        <ele>385.512</ele>
        <time>2019-02-27T03:01:19Z</time>
      </trkpt>
      <trkpt lat="39.244048" lon="-6.303176">
        <ele>385.481</ele>
        <time>2019-02-27T03:01:20Z</time>
      </trkpt>
      <trkpt lat="39.244085" lon="-6.303182">
        <ele>385.419</ele>
        <time>2019-02-27T03:01:21Z</time>
      </trkpt>
      <trkpt lat="39.244124" lon="-6.303184">
        <ele>385.409</ele>
        <time>2019-02-27T03:01:22Z</time>
      </trkpt>
      <trkpt lat="39.244202" lon="-6.303211">
        <ele>385.219</ele>
        <time>2019-02-27T03:01:24Z</time>
      </trkpt>
      <trkpt lat="39.244240" lon="-6.303238">
        <ele>385.208</ele>
        <time>2019-02-27T03:01:25Z</time>
      </trkpt>
      <trkpt lat="39.244280" lon="-6.303261">
        <ele>385.184</ele>
        <time>2019-02-27T03:01:26Z</time>
      </trkpt>
      <trkpt lat="39.244323" lon="-6.303278">
        <ele>385.035</ele>
        <time>2019-02-27T03:01:27Z</time>
      </trkpt>
      <trkpt lat="39.244365" lon="-6.303296">
        <ele>384.916</ele>
        <time>2019-02-27T03:01:28Z</time>
      </trkpt>
      <trkpt lat="39.244408" lon="-6.303312">
        <ele>384.845</ele>
        <time>2019-02-27T03:01:29Z</time>
      </trkpt>
      <trkpt lat="39.244451" lon="-6.303325">
        <ele>384.829</ele>
        <time>2019-02-27T03:01:30Z</time>
      </trkpt>
      <trkpt lat="39.244493" lon="-6.303343">
        <ele>384.732</ele>
        <time>2019-02-27T03:01:31Z</time>
      </trkpt>
      <trkpt lat="39.244615" lon="-6.303400">
        <ele>384.531</ele>
        <time>2019-02-27T03:01:34Z</time>
      </trkpt>
      <trkpt lat="39.244655" lon="-6.303422">
        <ele>384.420</ele>
        <time>2019-02-27T03:01:35Z</time>
      </trkpt>
      <trkpt lat="39.244698" lon="-6.303439">
        <ele>384.391</ele>
        <time>2019-02-27T03:01:36Z</time>
      </trkpt>
      <trkpt lat="39.244745" lon="-6.303458">
        <ele>384.281</ele>
        <time>2019-02-27T03:01:37Z</time>
      </trkpt>
      <trkpt lat="39.244792" lon="-6.303481">
        <ele>384.119</ele>
        <time>2019-02-27T03:01:38Z</time>
      </trkpt>
      <trkpt lat="39.244840" lon="-6.303506">
        <ele>384.108</ele>
        <time>2019-02-27T03:01:39Z</time>
      </trkpt>
      <trkpt lat="39.245086" lon="-6.303635">
        <ele>383.832</ele>
        <time>2019-02-27T03:01:44Z</time>
      </trkpt>
      <trkpt lat="39.245266" lon="-6.303752">
        <ele>383.623</ele>
        <time>2019-02-27T03:01:48Z</time>
      </trkpt>
      <trkpt lat="39.245744" lon="-6.304035">
        <ele>383.374</ele>
        <time>2019-02-27T03:02:00Z</time>
      </trkpt>
      <trkpt lat="39.245783" lon="-6.304052">
        <ele>383.393</ele>
        <time>2019-02-27T03:02:01Z</time>
      </trkpt>
      <trkpt lat="39.246275" lon="-6.304196">
        <ele>383.497</ele>
        <time>2019-02-27T03:02:15Z</time>
      </trkpt>
      <trkpt lat="39.246923" lon="-6.304491">
        <ele>383.560</ele>
        <time>2019-02-27T03:02:31Z</time>
      </trkpt>
      <trkpt lat="39.246961" lon="-6.304513">
        <ele>383.589</ele>
        <time>2019-02-27T03:02:32Z</time>
      </trkpt>
      <trkpt lat="39.247186" lon="-6.304656">
        <ele>383.688</ele>
        <time>2019-02-27T03:02:38Z</time>
      </trkpt>
      <trkpt lat="39.247798" lon="-6.305125">
        <ele>384.351</ele>
        <time>2019-02-27T03:02:55Z</time>
      </trkpt>
      <trkpt lat="39.248535" lon="-6.305601">
        <ele>385.301</ele>
        <time>2019-02-27T03:03:14Z</time>
      </trkpt>
      <trkpt lat="39.248991" lon="-6.305831">
        <ele>386.611</ele>
        <time>2019-02-27T03:03:29Z</time>
      </trkpt>
      <trkpt lat="39.249429" lon="-6.306015">
        <ele>387.708</ele>
        <time>2019-02-27T03:03:45Z</time>
      </trkpt>
      <trkpt lat="39.249784" lon="-6.306163">
        <ele>388.268</ele>
        <time>2019-02-27T03:03:56Z</time>
      </trkpt>
      <trkpt lat="39.249982" lon="-6.306199">
        <ele>388.129</ele>
        <time>2019-02-27T03:04:09Z</time>
      </trkpt>
      <trkpt lat="39.250328" lon="-6.306361">
        <ele>387.560</ele>
        <time>2019-02-27T03:04:22Z</time>
      </trkpt>
      <trkpt lat="39.250629" lon="-6.306628">
        <ele>386.319</ele>
        <time>2019-02-27T03:04:33Z</time>
      </trkpt>
      <trkpt lat="39.251234" lon="-6.306774">
        <ele>384.913</ele>
        <time>2019-02-27T03:04:48Z</time>
      </trkpt>
      <trkpt lat="39.251374" lon="-6.306760">
        <ele>384.736</ele>
        <time>2019-02-27T03:04:57Z</time>
      </trkpt>
      <trkpt lat="39.251406" lon="-6.306806">
        <ele>384.615</ele>
        <time>2019-02-27T03:05:19Z</time>
      </trkpt>
      <trkpt lat="39.251570" lon="-6.306954">
        <ele>384.424</ele>
        <time>2019-02-27T03:05:25Z</time>
      </trkpt>
      <trkpt lat="39.251647" lon="-6.306994">
        <ele>384.327</ele>
        <time>2019-02-27T03:05:27Z</time>
      </trkpt>
      <trkpt lat="39.251827" lon="-6.307113">
        <ele>384.268</ele>
        <time>2019-02-27T03:05:32Z</time>
      </trkpt>
      <trkpt lat="39.251860" lon="-6.307146">
        <ele>384.214</ele>
        <time>2019-02-27T03:05:33Z</time>
      </trkpt>
      <trkpt lat="39.251895" lon="-6.307174">
        <ele>384.108</ele>
        <time>2019-02-27T03:05:34Z</time>
      </trkpt>
      <trkpt lat="39.251930" lon="-6.307197">
        <ele>384.165</ele>
        <time>2019-02-27T03:05:35Z</time>
      </trkpt>
      <trkpt lat="39.251965" lon="-6.307220">
        <ele>384.126</ele>
        <time>2019-02-27T03:05:36Z</time>
      </trkpt>
      <trkpt lat="39.252327" lon="-6.307488">
        <ele>383.517</ele>
        <time>2019-02-27T03:05:48Z</time>
      </trkpt>
      <trkpt lat="39.252792" lon="-6.307756">
        <ele>383.186</ele>
        <time>2019-02-27T03:05:59Z</time>
      </trkpt>
      <trkpt lat="39.252893" lon="-6.307782">
        <ele>383.010</ele>
        <time>2019-02-27T03:06:01Z</time>
      </trkpt>
      <trkpt lat="39.253190" lon="-6.307874">
        <ele>382.543</ele>
        <time>2019-02-27T03:06:07Z</time>
      </trkpt>
      <trkpt lat="39.253239" lon="-6.307901">
        <ele>382.442</ele>
        <time>2019-02-27T03:06:08Z</time>
      </trkpt>
      <trkpt lat="39.253286" lon="-6.307933">
        <ele>382.321</ele>
        <time>2019-02-27T03:06:09Z</time>
      </trkpt>
      <trkpt lat="39.253794" lon="-6.308259">
        <ele>382.033</ele>
        <time>2019-02-27T03:06:19Z</time>
      </trkpt>
      <trkpt lat="39.253846" lon="-6.308275">
        <ele>382.023</ele>
        <time>2019-02-27T03:06:20Z</time>
      </trkpt>
      <trkpt lat="39.254368" lon="-6.308368">
        <ele>381.915</ele>
        <time>2019-02-27T03:06:30Z</time>
      </trkpt>
      <trkpt lat="39.254421" lon="-6.308385">
        <ele>381.908</ele>
        <time>2019-02-27T03:06:31Z</time>
      </trkpt>
      <trkpt lat="39.254938" lon="-6.308577">
        <ele>381.886</ele>
        <time>2019-02-27T03:06:42Z</time>
      </trkpt>
      <trkpt lat="39.254977" lon="-6.308606">
        <ele>381.967</ele>
        <time>2019-02-27T03:06:43Z</time>
      </trkpt>
      <trkpt lat="39.255008" lon="-6.308642">
        <ele>381.918</ele>
        <time>2019-02-27T03:06:44Z</time>
      </trkpt>
      <trkpt lat="39.255038" lon="-6.308676">
        <ele>382.027</ele>
        <time>2019-02-27T03:06:45Z</time>
      </trkpt>
      <trkpt lat="39.255067" lon="-6.308709">
        <ele>382.121</ele>
        <time>2019-02-27T03:06:46Z</time>
      </trkpt>
      <trkpt lat="39.255184" lon="-6.308862">
        <ele>382.414</ele>
        <time>2019-02-27T03:06:50Z</time>
      </trkpt>
      <trkpt lat="39.255218" lon="-6.308895">
        <ele>382.563</ele>
        <time>2019-02-27T03:06:51Z</time>
      </trkpt>
      <trkpt lat="39.255855" lon="-6.309252">
        <ele>382.422</ele>
        <time>2019-02-27T03:07:09Z</time>
      </trkpt>
      <trkpt lat="39.256490" lon="-6.309579">
        <ele>381.689</ele>
        <time>2019-02-27T03:07:24Z</time>
      </trkpt>
      <trkpt lat="39.256529" lon="-6.309620">
        <ele>381.506</ele>
        <time>2019-02-27T03:07:25Z</time>
      </trkpt>
      <trkpt lat="39.256569" lon="-6.309658">
        <ele>381.526</ele>
        <time>2019-02-27T03:07:26Z</time>
      </trkpt>
      <trkpt lat="39.256610" lon="-6.309690">
        <ele>381.408</ele>
        <time>2019-02-27T03:07:27Z</time>
      </trkpt>
      <trkpt lat="39.256651" lon="-6.309717">
        <ele>381.381</ele>
        <time>2019-02-27T03:07:28Z</time>
      </trkpt>
      <trkpt lat="39.256899" lon="-6.309846">
        <ele>381.032</ele>
        <time>2019-02-27T03:07:34Z</time>
      </trkpt>
      <trkpt lat="39.256937" lon="-6.309864">
        <ele>380.983</ele>
        <time>2019-02-27T03:07:35Z</time>
      </trkpt>
      <trkpt lat="39.257452" lon="-6.310226">
        <ele>379.842</ele>
        <time>2019-02-27T03:07:49Z</time>
      </trkpt>
      <trkpt lat="39.257991" lon="-6.310523">
        <ele>377.226</ele>
        <time>2019-02-27T03:08:01Z</time>
      </trkpt>
      <trkpt lat="39.258035" lon="-6.310539">
        <ele>377.019</ele>
        <time>2019-02-27T03:08:02Z</time>
      </trkpt>
      <trkpt lat="39.258795" lon="-6.310903">
        <ele>377.348</ele>
        <time>2019-02-27T03:08:20Z</time>
      </trkpt>
      <trkpt lat="39.259165" lon="-6.311075">
        <ele>377.047</ele>
        <time>2019-02-27T03:08:28Z</time>
      </trkpt>
      <trkpt lat="39.259827" lon="-6.311388">
        <ele>376.394</ele>
        <time>2019-02-27T03:08:43Z</time>
      </trkpt>
      <trkpt lat="39.260678" lon="-6.311805">
        <ele>375.357</ele>
        <time>2019-02-27T03:09:03Z</time>
      </trkpt>
      <trkpt lat="39.261247" lon="-6.312091">
        <ele>375.322</ele>
        <time>2019-02-27T03:09:15Z</time>
      </trkpt>
      <trkpt lat="39.261792" lon="-6.312363">
        <ele>374.508</ele>
        <time>2019-02-27T03:09:30Z</time>
      </trkpt>
      <trkpt lat="39.262197" lon="-6.312583">
        <ele>374.932</ele>
        <time>2019-02-27T03:09:42Z</time>
      </trkpt>
      <trkpt lat="39.262718" lon="-6.312849">
        <ele>375.113</ele>
        <time>2019-02-27T03:09:57Z</time>
      </trkpt>
      <trkpt lat="39.263231" lon="-6.313098">
        <ele>375.134</ele>
        <time>2019-02-27T03:10:12Z</time>
      </trkpt>
      <trkpt lat="39.263824" lon="-6.313322">
        <ele>375.363</ele>
        <time>2019-02-27T03:10:27Z</time>
      </trkpt>
      <trkpt lat="39.264084" lon="-6.313399">
        <ele>374.857</ele>
        <time>2019-02-27T03:10:37Z</time>
      </trkpt>
      <trkpt lat="39.264083" lon="-6.313399">
        <ele>374.890</ele>
        <time>2019-02-27T03:10:38Z</time>
      </trkpt>
      <trkpt lat="39.264087" lon="-6.313210">
        <ele>374.889</ele>
        <time>2019-02-27T03:12:09Z</time>
      </trkpt>
      <trkpt lat="39.264067" lon="-6.313181">
        <ele>374.978</ele>
        <time>2019-02-27T03:12:12Z</time>
      </trkpt>
      <trkpt lat="39.264109" lon="-6.313131">
        <ele>375.055</ele>
        <time>2019-02-27T03:12:21Z</time>
      </trkpt>
      <trkpt lat="39.264180" lon="-6.313142">
        <ele>374.807</ele>
        <time>2019-02-27T03:12:38Z</time>
      </trkpt>
      <trkpt lat="39.264352" lon="-6.313211">
        <ele>374.517</ele>
        <time>2019-02-27T03:12:55Z</time>
      </trkpt>
      <trkpt lat="39.264475" lon="-6.313278">
        <ele>374.608</ele>
        <time>2019-02-27T03:13:13Z</time>
      </trkpt>
      <trkpt lat="39.264504" lon="-6.313294">
        <ele>374.758</ele>
        <time>2019-02-27T03:13:16Z</time>
      </trkpt>
      <trkpt lat="39.264663" lon="-6.313406">
        <ele>374.619</ele>
        <time>2019-02-27T03:13:34Z</time>
      </trkpt>
      <trkpt lat="39.264793" lon="-6.313685">
        <ele>374.180</ele>
        <time>2019-02-27T03:13:45Z</time>
      </trkpt>
      <trkpt lat="39.265070" lon="-6.313977">
        <ele>374.369</ele>
        <time>2019-02-27T03:13:59Z</time>
      </trkpt>
      <trkpt lat="39.265426" lon="-6.314202">
        <ele>375.213</ele>
        <time>2019-02-27T03:14:15Z</time>
      </trkpt>
      <trkpt lat="39.265764" lon="-6.314424">
        <ele>376.616</ele>
        <time>2019-02-27T03:14:30Z</time>
      </trkpt>
      <trkpt lat="39.265921" lon="-6.314811">
        <ele>377.295</ele>
        <time>2019-02-27T03:14:43Z</time>
      </trkpt>
      <trkpt lat="39.266278" lon="-6.315061">
        <ele>377.664</ele>
        <time>2019-02-27T03:14:56Z</time>
      </trkpt>
      <trkpt lat="39.266760" lon="-6.315315">
        <ele>379.082</ele>
        <time>2019-02-27T03:15:15Z</time>
      </trkpt>
      <trkpt lat="39.267042" lon="-6.315488">
        <ele>379.543</ele>
        <time>2019-02-27T03:15:29Z</time>
      </trkpt>
      <trkpt lat="39.267044" lon="-6.315489">
        <ele>379.617</ele>
        <time>2019-02-27T03:15:32Z</time>
      </trkpt>
      <trkpt lat="39.267100" lon="-6.315514">
        <ele>379.808</ele>
        <time>2019-02-27T03:15:36Z</time>
      </trkpt>
      <trkpt lat="39.267474" lon="-6.315711">
        <ele>381.311</ele>
        <time>2019-02-27T03:15:53Z</time>
      </trkpt>
      <trkpt lat="39.267826" lon="-6.315920">
        <ele>382.732</ele>
        <time>2019-02-27T03:16:09Z</time>
      </trkpt>
      <trkpt lat="39.268174" lon="-6.316107">
        <ele>383.483</ele>
        <time>2019-02-27T03:16:24Z</time>
      </trkpt>
      <trkpt lat="39.268674" lon="-6.316350">
        <ele>384.252</ele>
        <time>2019-02-27T03:16:43Z</time>
      </trkpt>
      <trkpt lat="39.269107" lon="-6.316441">
        <ele>384.676</ele>
        <time>2019-02-27T03:16:58Z</time>
      </trkpt>
      <trkpt lat="39.269607" lon="-6.316562">
        <ele>383.969</ele>
        <time>2019-02-27T03:17:13Z</time>
      </trkpt>
      <trkpt lat="39.269684" lon="-6.316596">
        <ele>383.788</ele>
        <time>2019-02-27T03:17:15Z</time>
      </trkpt>
      <trkpt lat="39.269726" lon="-6.316601">
        <ele>383.557</ele>
        <time>2019-02-27T03:17:16Z</time>
      </trkpt>
      <trkpt lat="39.269770" lon="-6.316597">
        <ele>383.351</ele>
        <time>2019-02-27T03:17:17Z</time>
      </trkpt>
      <trkpt lat="39.269814" lon="-6.316585">
        <ele>383.101</ele>
        <time>2019-02-27T03:17:18Z</time>
      </trkpt>
      <trkpt lat="39.269855" lon="-6.316572">
        <ele>382.911</ele>
        <time>2019-02-27T03:17:19Z</time>
      </trkpt>
      <trkpt lat="39.269898" lon="-6.316562">
        <ele>382.608</ele>
        <time>2019-02-27T03:17:20Z</time>
      </trkpt>
      <trkpt lat="39.270252" lon="-6.316537">
        <ele>381.498</ele>
        <time>2019-02-27T03:17:27Z</time>
      </trkpt>
      <trkpt lat="39.270306" lon="-6.316549">
        <ele>381.359</ele>
        <time>2019-02-27T03:17:28Z</time>
      </trkpt>
      <trkpt lat="39.271181" lon="-6.316946">
        <ele>380.310</ele>
        <time>2019-02-27T03:17:45Z</time>
      </trkpt>
      <trkpt lat="39.272100" lon="-6.317459">
        <ele>379.769</ele>
        <time>2019-02-27T03:18:04Z</time>
      </trkpt>
      <trkpt lat="39.272515" lon="-6.317741">
        <ele>379.733</ele>
        <time>2019-02-27T03:18:17Z</time>
      </trkpt>
      <trkpt lat="39.272997" lon="-6.317945">
        <ele>379.786</ele>
        <time>2019-02-27T03:18:31Z</time>
      </trkpt>
      <trkpt lat="39.273411" lon="-6.318052">
        <ele>379.535</ele>
        <time>2019-02-27T03:18:45Z</time>
      </trkpt>
      <trkpt lat="39.273890" lon="-6.318352">
        <ele>379.344</ele>
        <time>2019-02-27T03:19:00Z</time>
      </trkpt>
      <trkpt lat="39.274370" lon="-6.318647">
        <ele>378.869</ele>
        <time>2019-02-27T03:19:14Z</time>
      </trkpt>
      <trkpt lat="39.274798" lon="-6.318851">
        <ele>378.504</ele>
        <time>2019-02-27T03:19:26Z</time>
      </trkpt>
      <trkpt lat="39.274853" lon="-6.318896">
        <ele>378.524</ele>
        <time>2019-02-27T03:19:29Z</time>
      </trkpt>
      <trkpt lat="39.274834" lon="-6.318986">
        <ele>378.408</ele>
        <time>2019-02-27T03:19:33Z</time>
      </trkpt>
      <trkpt lat="39.274817" lon="-6.319032">
        <ele>378.449</ele>
        <time>2019-02-27T03:19:39Z</time>
      </trkpt>
      <trkpt lat="39.274857" lon="-6.318900">
        <ele>378.480</ele>
        <time>2019-02-27T03:20:52Z</time>
      </trkpt>
      <trkpt lat="39.274903" lon="-6.318903">
        <ele>378.471</ele>
        <time>2019-02-27T03:20:54Z</time>
      </trkpt>
      <trkpt lat="39.274928" lon="-6.318916">
        <ele>378.430</ele>
        <time>2019-02-27T03:20:55Z</time>
      </trkpt>
      <trkpt lat="39.274953" lon="-6.318929">
        <ele>378.444</ele>
        <time>2019-02-27T03:20:56Z</time>
      </trkpt>
      <trkpt lat="39.275301" lon="-6.319072">
        <ele>378.757</ele>
        <time>2019-02-27T03:21:08Z</time>
      </trkpt>
      <trkpt lat="39.275591" lon="-6.319181">
        <ele>379.136</ele>
        <time>2019-02-27T03:21:19Z</time>
      </trkpt>
      <trkpt lat="39.275948" lon="-6.319312">
        <ele>379.055</ele>
        <time>2019-02-27T03:21:33Z</time>
      </trkpt>
      <trkpt lat="39.276315" lon="-6.319417">
        <ele>378.451</ele>
        <time>2019-02-27T03:21:46Z</time>
      </trkpt>
      <trkpt lat="39.276860" lon="-6.319652">
        <ele>378.001</ele>
        <time>2019-02-27T03:22:00Z</time>
      </trkpt>
      <trkpt lat="39.276943" lon="-6.319687">
        <ele>378.011</ele>
        <time>2019-02-27T03:22:02Z</time>
      </trkpt>
      <trkpt lat="39.276984" lon="-6.319695">
        <ele>377.908</ele>
        <time>2019-02-27T03:22:03Z</time>
      </trkpt>
      <trkpt lat="39.277499" lon="-6.319784">
        <ele>377.698</ele>
        <time>2019-02-27T03:22:15Z</time>
      </trkpt>
      <trkpt lat="39.277695" lon="-6.319831">
        <ele>377.359</ele>
        <time>2019-02-27T03:22:20Z</time>
      </trkpt>
      <trkpt lat="39.277733" lon="-6.319852">
        <ele>377.260</ele>
        <time>2019-02-27T03:22:21Z</time>
      </trkpt>
      <trkpt lat="39.277811" lon="-6.319900">
        <ele>377.189</ele>
        <time>2019-02-27T03:22:23Z</time>
      </trkpt>
      <trkpt lat="39.278034" lon="-6.320092">
        <ele>376.623</ele>
        <time>2019-02-27T03:22:29Z</time>
      </trkpt>
      <trkpt lat="39.278064" lon="-6.320133">
        <ele>376.666</ele>
        <time>2019-02-27T03:22:30Z</time>
      </trkpt>
      <trkpt lat="39.278089" lon="-6.320180">
        <ele>376.645</ele>
        <time>2019-02-27T03:22:31Z</time>
      </trkpt>
      <trkpt lat="39.278114" lon="-6.320226">
        <ele>376.684</ele>
        <time>2019-02-27T03:22:32Z</time>
      </trkpt>
      <trkpt lat="39.278142" lon="-6.320270">
        <ele>376.789</ele>
        <time>2019-02-27T03:22:33Z</time>
      </trkpt>
      <trkpt lat="39.278238" lon="-6.320407">
        <ele>377.006</ele>
        <time>2019-02-27T03:22:36Z</time>
      </trkpt>
      <trkpt lat="39.278486" lon="-6.320690">
        <ele>378.026</ele>
        <time>2019-02-27T03:22:47Z</time>
      </trkpt>
      <trkpt lat="39.278839" lon="-6.320855">
        <ele>378.608</ele>
        <time>2019-02-27T03:23:01Z</time>
      </trkpt>
      <trkpt lat="39.279485" lon="-6.320942">
        <ele>379.731</ele>
        <time>2019-02-27T03:23:19Z</time>
      </trkpt>
      <trkpt lat="39.279943" lon="-6.321115">
        <ele>380.072</ele>
        <time>2019-02-27T03:23:36Z</time>
      </trkpt>
      <trkpt lat="39.280208" lon="-6.321343">
        <ele>381.483</ele>
        <time>2019-02-27T03:23:48Z</time>
      </trkpt>
      <trkpt lat="39.280765" lon="-6.321758">
        <ele>383.712</ele>
        <time>2019-02-27T03:24:08Z</time>
      </trkpt>
      <trkpt lat="39.281342" lon="-6.322217">
        <ele>385.026</ele>
        <time>2019-02-27T03:24:29Z</time>
      </trkpt>
      <trkpt lat="39.281769" lon="-6.322550">
        <ele>386.489</ele>
        <time>2019-02-27T03:24:46Z</time>
      </trkpt>
      <trkpt lat="39.282395" lon="-6.322990">
        <ele>386.788</ele>
        <time>2019-02-27T03:25:09Z</time>
      </trkpt>
      <trkpt lat="39.282885" lon="-6.323313">
        <ele>387.117</ele>
        <time>2019-02-27T03:25:27Z</time>
      </trkpt>
      <trkpt lat="39.283359" lon="-6.323622">
        <ele>387.091</ele>
        <time>2019-02-27T03:25:42Z</time>
      </trkpt>
      <trkpt lat="39.283747" lon="-6.323705">
        <ele>386.781</ele>
        <time>2019-02-27T03:25:55Z</time>
      </trkpt>
      <trkpt lat="39.284182" lon="-6.323116">
        <ele>387.619</ele>
        <time>2019-02-27T03:26:13Z</time>
      </trkpt>
      <trkpt lat="39.284561" lon="-6.322687">
        <ele>388.008</ele>
        <time>2019-02-27T03:26:27Z</time>
      </trkpt>
      <trkpt lat="39.284935" lon="-6.322437">
        <ele>388.442</ele>
        <time>2019-02-27T03:26:37Z</time>
      </trkpt>
      <trkpt lat="39.284975" lon="-6.322416">
        <ele>388.433</ele>
        <time>2019-02-27T03:26:38Z</time>
      </trkpt>
      <trkpt lat="39.285014" lon="-6.322393">
        <ele>388.494</ele>
        <time>2019-02-27T03:26:39Z</time>
      </trkpt>
      <trkpt lat="39.285089" lon="-6.322340">
        <ele>388.533</ele>
        <time>2019-02-27T03:26:41Z</time>
      </trkpt>
      <trkpt lat="39.285471" lon="-6.322092">
        <ele>388.947</ele>
        <time>2019-02-27T03:26:52Z</time>
      </trkpt>
      <trkpt lat="39.286001" lon="-6.321573">
        <ele>389.970</ele>
        <time>2019-02-27T03:27:09Z</time>
      </trkpt>
      <trkpt lat="39.286057" lon="-6.321507">
        <ele>390.159</ele>
        <time>2019-02-27T03:27:14Z</time>
      </trkpt>
      <trkpt lat="39.286064" lon="-6.321493">
        <ele>390.188</ele>
        <time>2019-02-27T03:27:15Z</time>
      </trkpt>
      <trkpt lat="39.286073" lon="-6.321481">
        <ele>390.257</ele>
        <time>2019-02-27T03:27:16Z</time>
      </trkpt>
      <trkpt lat="39.286081" lon="-6.321473">
        <ele>390.200</ele>
        <time>2019-02-27T03:27:17Z</time>
      </trkpt>
      <trkpt lat="39.286090" lon="-6.321461">
        <ele>390.220</ele>
        <time>2019-02-27T03:27:18Z</time>
      </trkpt>
      <trkpt lat="39.286099" lon="-6.321451">
        <ele>390.208</ele>
        <time>2019-02-27T03:27:19Z</time>
      </trkpt>
      <trkpt lat="39.286106" lon="-6.321440">
        <ele>390.388</ele>
        <time>2019-02-27T03:27:20Z</time>
      </trkpt>
      <trkpt lat="39.286109" lon="-6.321425">
        <ele>390.399</ele>
        <time>2019-02-27T03:27:25Z</time>
      </trkpt>
      <trkpt lat="39.286145" lon="-6.321367">
        <ele>390.570</ele>
        <time>2019-02-27T03:29:34Z</time>
      </trkpt>
      <trkpt lat="39.286415" lon="-6.320954">
        <ele>392.179</ele>
        <time>2019-02-27T03:29:48Z</time>
      </trkpt>
      <trkpt lat="39.286666" lon="-6.320465">
        <ele>393.543</ele>
        <time>2019-02-27T03:30:03Z</time>
      </trkpt>
      <trkpt lat="39.286706" lon="-6.320407">
        <ele>393.616</ele>
        <time>2019-02-27T03:30:06Z</time>
      </trkpt>
      <trkpt lat="39.286725" lon="-6.320409">
        <ele>393.675</ele>
        <time>2019-02-27T03:30:07Z</time>
      </trkpt>
      <trkpt lat="39.286761" lon="-6.320398">
        <ele>393.644</ele>
        <time>2019-02-27T03:30:10Z</time>
      </trkpt>
      <trkpt lat="39.286767" lon="-6.320384">
        <ele>393.613</ele>
        <time>2019-02-27T03:30:11Z</time>
      </trkpt>
      <trkpt lat="39.286786" lon="-6.320315">
        <ele>393.743</ele>
        <time>2019-02-27T03:30:15Z</time>
      </trkpt>
      <trkpt lat="39.286811" lon="-6.320279">
        <ele>393.707</ele>
        <time>2019-02-27T03:30:17Z</time>
      </trkpt>
      <trkpt lat="39.286815" lon="-6.320259">
        <ele>393.708</ele>
        <time>2019-02-27T03:30:18Z</time>
      </trkpt>
      <trkpt lat="39.286813" lon="-6.320242">
        <ele>393.734</ele>
        <time>2019-02-27T03:30:19Z</time>
      </trkpt>
      <trkpt lat="39.286811" lon="-6.320218">
        <ele>393.875</ele>
        <time>2019-02-27T03:30:21Z</time>
      </trkpt>
      <trkpt lat="39.286816" lon="-6.320205">
        <ele>393.856</ele>
        <time>2019-02-27T03:30:22Z</time>
      </trkpt>
      <trkpt lat="39.286823" lon="-6.320200">
        <ele>393.835</ele>
        <time>2019-02-27T03:30:26Z</time>
      </trkpt>
      <trkpt lat="39.286877" lon="-6.320184">
        <ele>393.879</ele>
        <time>2019-02-27T03:30:38Z</time>
      </trkpt>
      <trkpt lat="39.287092" lon="-6.319871">
        <ele>394.142</ele>
        <time>2019-02-27T03:30:48Z</time>
      </trkpt>
      <trkpt lat="39.287204" lon="-6.319748">
        <ele>394.331</ele>
        <time>2019-02-27T03:30:57Z</time>
      </trkpt>
      <trkpt lat="39.287206" lon="-6.319746">
        <ele>394.380</ele>
        <time>2019-02-27T03:30:58Z</time>
      </trkpt>
      <trkpt lat="39.287279" lon="-6.319646">
        <ele>394.432</ele>
        <time>2019-02-27T03:31:05Z</time>
      </trkpt>
      <trkpt lat="39.287349" lon="-6.319580">
        <ele>394.392</ele>
        <time>2019-02-27T03:31:12Z</time>
      </trkpt>
      <trkpt lat="39.287284" lon="-6.319623">
        <ele>394.311</ele>
        <time>2019-02-27T03:40:04Z</time>
      </trkpt>
      <trkpt lat="39.287195" lon="-6.319746">
        <ele>394.208</ele>
        <time>2019-02-27T03:40:10Z</time>
      </trkpt>
      <trkpt lat="39.286915" lon="-6.320075">
        <ele>393.916</ele>
        <time>2019-02-27T03:40:22Z</time>
      </trkpt>
      <trkpt lat="39.286608" lon="-6.320570">
        <ele>393.467</ele>
        <time>2019-02-27T03:40:35Z</time>
      </trkpt>
      <trkpt lat="39.286575" lon="-6.320624">
        <ele>393.378</ele>
        <time>2019-02-27T03:40:36Z</time>
      </trkpt>
      <trkpt lat="39.286545" lon="-6.320680">
        <ele>393.177</ele>
        <time>2019-02-27T03:40:37Z</time>
      </trkpt>
      <trkpt lat="39.286271" lon="-6.321257">
        <ele>391.161</ele>
        <time>2019-02-27T03:40:50Z</time>
      </trkpt>
      <trkpt lat="39.286268" lon="-6.321272">
        <ele>391.174</ele>
        <time>2019-02-27T03:40:51Z</time>
      </trkpt>
      <trkpt lat="39.286272" lon="-6.321297">
        <ele>391.063</ele>
        <time>2019-02-27T03:40:52Z</time>
      </trkpt>
      <trkpt lat="39.286278" lon="-6.321331">
        <ele>390.922</ele>
        <time>2019-02-27T03:40:53Z</time>
      </trkpt>
      <trkpt lat="39.286279" lon="-6.321370">
        <ele>390.823</ele>
        <time>2019-02-27T03:40:54Z</time>
      </trkpt>
      <trkpt lat="39.286277" lon="-6.321414">
        <ele>390.883</ele>
        <time>2019-02-27T03:40:55Z</time>
      </trkpt>
      <trkpt lat="39.286268" lon="-6.321458">
        <ele>390.811</ele>
        <time>2019-02-27T03:40:56Z</time>
      </trkpt>
      <trkpt lat="39.286257" lon="-6.321504">
        <ele>390.808</ele>
        <time>2019-02-27T03:40:57Z</time>
      </trkpt>
      <trkpt lat="39.286138" lon="-6.322202">
        <ele>389.765</ele>
        <time>2019-02-27T03:41:10Z</time>
      </trkpt>
      <trkpt lat="39.286094" lon="-6.322490">
        <ele>389.136</ele>
        <time>2019-02-27T03:41:15Z</time>
      </trkpt>
      <trkpt lat="39.286008" lon="-6.323437">
        <ele>386.857</ele>
        <time>2019-02-27T03:41:30Z</time>
      </trkpt>
      <trkpt lat="39.285884" lon="-6.324615">
        <ele>384.756</ele>
        <time>2019-02-27T03:41:47Z</time>
      </trkpt>
      <trkpt lat="39.285867" lon="-6.324663">
        <ele>384.670</ele>
        <time>2019-02-27T03:41:48Z</time>
      </trkpt>
      <trkpt lat="39.285855" lon="-6.324708">
        <ele>384.573</ele>
        <time>2019-02-27T03:41:49Z</time>
      </trkpt>
      <trkpt lat="39.285851" lon="-6.324751">
        <ele>384.492</ele>
        <time>2019-02-27T03:41:50Z</time>
      </trkpt>
      <trkpt lat="39.285859" lon="-6.324788">
        <ele>384.371</ele>
        <time>2019-02-27T03:41:51Z</time>
      </trkpt>
      <trkpt lat="39.285875" lon="-6.324818">
        <ele>384.346</ele>
        <time>2019-02-27T03:41:52Z</time>
      </trkpt>
      <trkpt lat="39.285896" lon="-6.324845">
        <ele>384.288</ele>
        <time>2019-02-27T03:41:53Z</time>
      </trkpt>
      <trkpt lat="39.285922" lon="-6.324864">
        <ele>384.116</ele>
        <time>2019-02-27T03:41:54Z</time>
      </trkpt>
      <trkpt lat="39.285952" lon="-6.324874">
        <ele>384.108</ele>
        <time>2019-02-27T03:41:55Z</time>
      </trkpt>
      <trkpt lat="39.285984" lon="-6.324880">
        <ele>384.047</ele>
        <time>2019-02-27T03:41:56Z</time>
      </trkpt>
      <trkpt lat="39.286224" lon="-6.324982">
        <ele>383.898</ele>
        <time>2019-02-27T03:42:03Z</time>
      </trkpt>
      <trkpt lat="39.286881" lon="-6.325328">
        <ele>383.969</ele>
        <time>2019-02-27T03:42:20Z</time>
      </trkpt>
      <trkpt lat="39.287319" lon="-6.325558">
        <ele>384.048</ele>
        <time>2019-02-27T03:42:31Z</time>
      </trkpt>
      <trkpt lat="39.287795" lon="-6.325796">
        <ele>384.632</ele>
        <time>2019-02-27T03:42:44Z</time>
      </trkpt>
      <trkpt lat="39.288381" lon="-6.326116">
        <ele>385.435</ele>
        <time>2019-02-27T03:43:02Z</time>
      </trkpt>
      <trkpt lat="39.289055" lon="-6.326440">
        <ele>386.634</ele>
        <time>2019-02-27T03:43:24Z</time>
      </trkpt>
      <trkpt lat="39.289343" lon="-6.326590">
        <ele>387.643</ele>
        <time>2019-02-27T03:43:35Z</time>
      </trkpt>
      <trkpt lat="39.289652" lon="-6.326881">
        <ele>388.285</ele>
        <time>2019-02-27T03:43:48Z</time>
      </trkpt>
      <trkpt lat="39.290162" lon="-6.327088">
        <ele>388.989</ele>
        <time>2019-02-27T03:44:05Z</time>
      </trkpt>
      <trkpt lat="39.290602" lon="-6.327257">
        <ele>389.917</ele>
        <time>2019-02-27T03:44:20Z</time>
      </trkpt>
      <trkpt lat="39.291081" lon="-6.327482">
        <ele>390.608</ele>
        <time>2019-02-27T03:44:36Z</time>
      </trkpt>
      <trkpt lat="39.291518" lon="-6.327714">
        <ele>391.061</ele>
        <time>2019-02-27T03:44:50Z</time>
      </trkpt>
      <trkpt lat="39.292108" lon="-6.328094">
        <ele>391.872</ele>
        <time>2019-02-27T03:45:08Z</time>
      </trkpt>
      <trkpt lat="39.292604" lon="-6.328301">
        <ele>393.223</ele>
        <time>2019-02-27T03:45:23Z</time>
      </trkpt>
      <trkpt lat="39.293309" lon="-6.328675">
        <ele>394.192</ele>
        <time>2019-02-27T03:45:44Z</time>
      </trkpt>
      <trkpt lat="39.293932" lon="-6.328968">
        <ele>394.266</ele>
        <time>2019-02-27T03:46:01Z</time>
      </trkpt>
      <trkpt lat="39.294518" lon="-6.329146">
        <ele>394.029</ele>
        <time>2019-02-27T03:46:16Z</time>
      </trkpt>
      <trkpt lat="39.295015" lon="-6.329357">
        <ele>394.238</ele>
        <time>2019-02-27T03:46:30Z</time>
      </trkpt>
      <trkpt lat="39.295506" lon="-6.329495">
        <ele>394.647</ele>
        <time>2019-02-27T03:46:45Z</time>
      </trkpt>
      <trkpt lat="39.296051" lon="-6.329707">
        <ele>394.919</ele>
        <time>2019-02-27T03:47:01Z</time>
      </trkpt>
      <trkpt lat="39.296127" lon="-6.329761">
        <ele>394.809</ele>
        <time>2019-02-27T03:47:03Z</time>
      </trkpt>
      <trkpt lat="39.296159" lon="-6.329787">
        <ele>394.819</ele>
        <time>2019-02-27T03:47:04Z</time>
      </trkpt>
      <trkpt lat="39.296519" lon="-6.329948">
        <ele>394.008</ele>
        <time>2019-02-27T03:47:14Z</time>
      </trkpt>
      <trkpt lat="39.296559" lon="-6.329964">
        <ele>393.894</ele>
        <time>2019-02-27T03:47:15Z</time>
      </trkpt>
      <trkpt lat="39.296594" lon="-6.329974">
        <ele>393.665</ele>
        <time>2019-02-27T03:47:16Z</time>
      </trkpt>
      <trkpt lat="39.296624" lon="-6.329981">
        <ele>393.516</ele>
        <time>2019-02-27T03:47:17Z</time>
      </trkpt>
      <trkpt lat="39.296653" lon="-6.329988">
        <ele>393.375</ele>
        <time>2019-02-27T03:47:18Z</time>
      </trkpt>
      <trkpt lat="39.296895" lon="-6.330035">
        <ele>392.479</ele>
        <time>2019-02-27T03:47:25Z</time>
      </trkpt>
      <trkpt lat="39.296937" lon="-6.330027">
        <ele>392.232</ele>
        <time>2019-02-27T03:47:26Z</time>
      </trkpt>
      <trkpt lat="39.297028" lon="-6.330005">
        <ele>391.881</ele>
        <time>2019-02-27T03:47:28Z</time>
      </trkpt>
      <trkpt lat="39.297072" lon="-6.330007">
        <ele>391.690</ele>
        <time>2019-02-27T03:47:29Z</time>
      </trkpt>
      <trkpt lat="39.297114" lon="-6.330017">
        <ele>391.526</ele>
        <time>2019-02-27T03:47:30Z</time>
      </trkpt>
      <trkpt lat="39.297154" lon="-6.330035">
        <ele>391.547</ele>
        <time>2019-02-27T03:47:31Z</time>
      </trkpt>
      <trkpt lat="39.297192" lon="-6.330057">
        <ele>391.511</ele>
        <time>2019-02-27T03:47:32Z</time>
      </trkpt>
      <trkpt lat="39.297253" lon="-6.330091">
        <ele>391.408</ele>
        <time>2019-02-27T03:47:34Z</time>
      </trkpt>
      <trkpt lat="39.297538" lon="-6.330376">
        <ele>391.235</ele>
        <time>2019-02-27T03:47:45Z</time>
      </trkpt>
      <trkpt lat="39.297912" lon="-6.330790">
        <ele>391.166</ele>
        <time>2019-02-27T03:47:56Z</time>
      </trkpt>
      <trkpt lat="39.297937" lon="-6.330821">
        <ele>391.177</ele>
        <time>2019-02-27T03:47:57Z</time>
      </trkpt>
      <trkpt lat="39.297956" lon="-6.330852">
        <ele>391.116</ele>
        <time>2019-02-27T03:47:58Z</time>
      </trkpt>
      <trkpt lat="39.297977" lon="-6.330882">
        <ele>391.180</ele>
        <time>2019-02-27T03:47:59Z</time>
      </trkpt>
      <trkpt lat="39.297997" lon="-6.330909">
        <ele>391.183</ele>
        <time>2019-02-27T03:48:00Z</time>
      </trkpt>
      <trkpt lat="39.298358" lon="-6.331042">
        <ele>392.672</ele>
        <time>2019-02-27T03:48:11Z</time>
      </trkpt>
      <trkpt lat="39.298725" lon="-6.330866">
        <ele>393.461</ele>
        <time>2019-02-27T03:48:25Z</time>
      </trkpt>
      <trkpt lat="39.299067" lon="-6.330873">
        <ele>393.886</ele>
        <time>2019-02-27T03:48:37Z</time>
      </trkpt>
      <trkpt lat="39.299368" lon="-6.330973">
        <ele>393.360</ele>
        <time>2019-02-27T03:48:50Z</time>
      </trkpt>
      <trkpt lat="39.299699" lon="-6.331168">
        <ele>391.926</ele>
        <time>2019-02-27T03:49:00Z</time>
      </trkpt>
      <trkpt lat="39.300179" lon="-6.331446">
        <ele>391.008</ele>
        <time>2019-02-27T03:49:13Z</time>
      </trkpt>
      <trkpt lat="39.300737" lon="-6.331625">
        <ele>390.891</ele>
        <time>2019-02-27T03:49:24Z</time>
      </trkpt>
      <trkpt lat="39.300786" lon="-6.331632">
        <ele>390.972</ele>
        <time>2019-02-27T03:49:25Z</time>
      </trkpt>
      <trkpt lat="39.300832" lon="-6.331632">
        <ele>390.993</ele>
        <time>2019-02-27T03:49:26Z</time>
      </trkpt>
      <trkpt lat="39.301418" lon="-6.331656">
        <ele>391.352</ele>
        <time>2019-02-27T03:49:40Z</time>
      </trkpt>
      <trkpt lat="39.302126" lon="-6.331826">
        <ele>390.826</ele>
        <time>2019-02-27T03:49:57Z</time>
      </trkpt>
      <trkpt lat="39.302753" lon="-6.332070">
        <ele>390.429</ele>
        <time>2019-02-27T03:50:13Z</time>
      </trkpt>
      <trkpt lat="39.302792" lon="-6.332095">
        <ele>390.548</ele>
        <time>2019-02-27T03:50:14Z</time>
      </trkpt>
      <trkpt lat="39.302827" lon="-6.332130">
        <ele>390.627</ele>
        <time>2019-02-27T03:50:15Z</time>
      </trkpt>
      <trkpt lat="39.302854" lon="-6.332167">
        <ele>390.846</ele>
        <time>2019-02-27T03:50:16Z</time>
      </trkpt>
      <trkpt lat="39.302874" lon="-6.332203">
        <ele>391.088</ele>
        <time>2019-02-27T03:50:17Z</time>
      </trkpt>
      <trkpt lat="39.303088" lon="-6.332533">
        <ele>392.616</ele>
        <time>2019-02-27T03:50:29Z</time>
      </trkpt>
      <trkpt lat="39.303507" lon="-6.332610">
        <ele>394.308</ele>
        <time>2019-02-27T03:50:44Z</time>
      </trkpt>
      <trkpt lat="39.303816" lon="-6.332856">
        <ele>396.377</ele>
        <time>2019-02-27T03:50:59Z</time>
      </trkpt>
      <trkpt lat="39.304125" lon="-6.333254">
        <ele>398.018</ele>
        <time>2019-02-27T03:51:16Z</time>
      </trkpt>
      <trkpt lat="39.304575" lon="-6.333728">
        <ele>399.699</ele>
        <time>2019-02-27T03:51:39Z</time>
      </trkpt>
      <trkpt lat="39.304932" lon="-6.334291">
        <ele>401.558</ele>
        <time>2019-02-27T03:52:00Z</time>
      </trkpt>
      <trkpt lat="39.305176" lon="-6.334553">
        <ele>402.282</ele>
        <time>2019-02-27T03:52:13Z</time>
      </trkpt>
      <trkpt lat="39.305508" lon="-6.334842">
        <ele>402.895</ele>
        <time>2019-02-27T03:52:28Z</time>
      </trkpt>
      <trkpt lat="39.306000" lon="-6.335146">
        <ele>403.724</ele>
        <time>2019-02-27T03:52:46Z</time>
      </trkpt>
      <trkpt lat="39.306316" lon="-6.335353">
        <ele>404.723</ele>
        <time>2019-02-27T03:52:58Z</time>
      </trkpt>
      <trkpt lat="39.306588" lon="-6.335513">
        <ele>405.592</ele>
        <time>2019-02-27T03:53:09Z</time>
      </trkpt>
      <trkpt lat="39.306980" lon="-6.335851">
        <ele>406.873</ele>
        <time>2019-02-27T03:53:25Z</time>
      </trkpt>
      <trkpt lat="39.307331" lon="-6.336016">
        <ele>407.820</ele>
        <time>2019-02-27T03:53:40Z</time>
      </trkpt>
      <trkpt lat="39.307613" lon="-6.336175">
        <ele>408.408</ele>
        <time>2019-02-27T03:53:52Z</time>
      </trkpt>
      <trkpt lat="39.307909" lon="-6.336489">
        <ele>408.632</ele>
        <time>2019-02-27T03:54:06Z</time>
      </trkpt>
      <trkpt lat="39.308327" lon="-6.336800">
        <ele>408.633</ele>
        <time>2019-02-27T03:54:20Z</time>
      </trkpt>
      <trkpt lat="39.308434" lon="-6.336874">
        <ele>408.444</ele>
        <time>2019-02-27T03:54:23Z</time>
      </trkpt>
      <trkpt lat="39.308470" lon="-6.336898">
        <ele>408.453</ele>
        <time>2019-02-27T03:54:24Z</time>
      </trkpt>
      <trkpt lat="39.308590" lon="-6.336960">
        <ele>408.127</ele>
        <time>2019-02-27T03:54:27Z</time>
      </trkpt>
      <trkpt lat="39.308628" lon="-6.336991">
        <ele>407.950</ele>
        <time>2019-02-27T03:54:28Z</time>
      </trkpt>
      <trkpt lat="39.308711" lon="-6.337053">
        <ele>407.739</ele>
        <time>2019-02-27T03:54:30Z</time>
      </trkpt>
      <trkpt lat="39.308755" lon="-6.337078">
        <ele>407.518</ele>
        <time>2019-02-27T03:54:31Z</time>
      </trkpt>
      <trkpt lat="39.308803" lon="-6.337097">
        <ele>407.419</ele>
        <time>2019-02-27T03:54:32Z</time>
      </trkpt>
      <trkpt lat="39.308953" lon="-6.337159">
        <ele>406.809</ele>
        <time>2019-02-27T03:54:35Z</time>
      </trkpt>
      <trkpt lat="39.308999" lon="-6.337190">
        <ele>406.619</ele>
        <time>2019-02-27T03:54:36Z</time>
      </trkpt>
      <trkpt lat="39.309044" lon="-6.337224">
        <ele>406.408</ele>
        <time>2019-02-27T03:54:37Z</time>
      </trkpt>
      <trkpt lat="39.309131" lon="-6.337288">
        <ele>405.964</ele>
        <time>2019-02-27T03:54:39Z</time>
      </trkpt>
      <trkpt lat="39.309176" lon="-6.337302">
        <ele>405.765</ele>
        <time>2019-02-27T03:54:40Z</time>
      </trkpt>
      <trkpt lat="39.309282" lon="-6.337325">
        <ele>405.276</ele>
        <time>2019-02-27T03:54:42Z</time>
      </trkpt>
      <trkpt lat="39.309334" lon="-6.337350">
        <ele>404.995</ele>
        <time>2019-02-27T03:54:43Z</time>
      </trkpt>
      <trkpt lat="39.309384" lon="-6.337381">
        <ele>404.759</ele>
        <time>2019-02-27T03:54:44Z</time>
      </trkpt>
      <trkpt lat="39.309432" lon="-6.337417">
        <ele>404.452</ele>
        <time>2019-02-27T03:54:45Z</time>
      </trkpt>
      <trkpt lat="39.309481" lon="-6.337457">
        <ele>404.171</ele>
        <time>2019-02-27T03:54:46Z</time>
      </trkpt>
      <trkpt lat="39.309582" lon="-6.337532">
        <ele>403.510</ele>
        <time>2019-02-27T03:54:48Z</time>
      </trkpt>
      <trkpt lat="39.309627" lon="-6.337556">
        <ele>403.275</ele>
        <time>2019-02-27T03:54:49Z</time>
      </trkpt>
      <trkpt lat="39.309672" lon="-6.337581">
        <ele>403.028</ele>
        <time>2019-02-27T03:54:50Z</time>
      </trkpt>
      <trkpt lat="39.309718" lon="-6.337613">
        <ele>402.720</ele>
        <time>2019-02-27T03:54:51Z</time>
      </trkpt>
      <trkpt lat="39.309765" lon="-6.337650">
        <ele>402.408</ele>
        <time>2019-02-27T03:54:52Z</time>
      </trkpt>
      <trkpt lat="39.309855" lon="-6.337717">
        <ele>401.950</ele>
        <time>2019-02-27T03:54:54Z</time>
      </trkpt>
      <trkpt lat="39.309898" lon="-6.337740">
        <ele>401.741</ele>
        <time>2019-02-27T03:54:55Z</time>
      </trkpt>
      <trkpt lat="39.309940" lon="-6.337762">
        <ele>401.532</ele>
        <time>2019-02-27T03:54:56Z</time>
      </trkpt>
      <trkpt lat="39.309972" lon="-6.337789">
        <ele>401.381</ele>
        <time>2019-02-27T03:54:57Z</time>
      </trkpt>
      <trkpt lat="39.310000" lon="-6.337814">
        <ele>401.135</ele>
        <time>2019-02-27T03:54:58Z</time>
      </trkpt>
      <trkpt lat="39.310034" lon="-6.337835">
        <ele>400.958</ele>
        <time>2019-02-27T03:54:59Z</time>
      </trkpt>
      <trkpt lat="39.310067" lon="-6.337856">
        <ele>400.737</ele>
        <time>2019-02-27T03:55:00Z</time>
      </trkpt>
      <trkpt lat="39.310106" lon="-6.337877">
        <ele>400.586</ele>
        <time>2019-02-27T03:55:01Z</time>
      </trkpt>
      <trkpt lat="39.310147" lon="-6.337890">
        <ele>400.342</ele>
        <time>2019-02-27T03:55:02Z</time>
      </trkpt>
      <trkpt lat="39.310185" lon="-6.337899">
        <ele>400.222</ele>
        <time>2019-02-27T03:55:03Z</time>
      </trkpt>
      <trkpt lat="39.310259" lon="-6.337906">
        <ele>399.814</ele>
        <time>2019-02-27T03:55:05Z</time>
      </trkpt>
      <trkpt lat="39.310301" lon="-6.337915">
        <ele>399.608</ele>
        <time>2019-02-27T03:55:06Z</time>
      </trkpt>
      <trkpt lat="39.310341" lon="-6.337931">
        <ele>399.447</ele>
        <time>2019-02-27T03:55:07Z</time>
      </trkpt>
      <trkpt lat="39.310378" lon="-6.337956">
        <ele>399.318</ele>
        <time>2019-02-27T03:55:08Z</time>
      </trkpt>
      <trkpt lat="39.310415" lon="-6.337985">
        <ele>399.159</ele>
        <time>2019-02-27T03:55:09Z</time>
      </trkpt>
      <trkpt lat="39.310451" lon="-6.338018">
        <ele>398.938</ele>
        <time>2019-02-27T03:55:10Z</time>
      </trkpt>
      <trkpt lat="39.310487" lon="-6.338051">
        <ele>398.862</ele>
        <time>2019-02-27T03:55:11Z</time>
      </trkpt>
      <trkpt lat="39.310830" lon="-6.338285">
        <ele>397.775</ele>
        <time>2019-02-27T03:55:21Z</time>
      </trkpt>
      <trkpt lat="39.311070" lon="-6.338437">
        <ele>397.224</ele>
        <time>2019-02-27T03:55:27Z</time>
      </trkpt>
      <trkpt lat="39.311261" lon="-6.338551">
        <ele>396.943</ele>
        <time>2019-02-27T03:55:32Z</time>
      </trkpt>
      <trkpt lat="39.311397" lon="-6.338663">
        <ele>396.824</ele>
        <time>2019-02-27T03:55:36Z</time>
      </trkpt>
      <trkpt lat="39.311432" lon="-6.338676">
        <ele>396.804</ele>
        <time>2019-02-27T03:55:37Z</time>
      </trkpt>
      <trkpt lat="39.311713" lon="-6.338862">
        <ele>397.114</ele>
        <time>2019-02-27T03:55:48Z</time>
      </trkpt>
      <trkpt lat="39.311953" lon="-6.339068">
        <ele>397.808</ele>
        <time>2019-02-27T03:56:01Z</time>
      </trkpt>
      <trkpt lat="39.312257" lon="-6.339233">
        <ele>398.385</ele>
        <time>2019-02-27T03:56:15Z</time>
      </trkpt>
      <trkpt lat="39.312745" lon="-6.339496">
        <ele>398.096</ele>
        <time>2019-02-27T03:56:29Z</time>
      </trkpt>
      <trkpt lat="39.312790" lon="-6.339494">
        <ele>398.057</ele>
        <time>2019-02-27T03:56:30Z</time>
      </trkpt>
      <trkpt lat="39.312921" lon="-6.339479">
        <ele>398.036</ele>
        <time>2019-02-27T03:56:33Z</time>
      </trkpt>
      <trkpt lat="39.312966" lon="-6.339482">
        <ele>398.050</ele>
        <time>2019-02-27T03:56:34Z</time>
      </trkpt>
      <trkpt lat="39.313011" lon="-6.339491">
        <ele>398.133</ele>
        <time>2019-02-27T03:56:35Z</time>
      </trkpt>
      <trkpt lat="39.313050" lon="-6.339508">
        <ele>398.122</ele>
        <time>2019-02-27T03:56:36Z</time>
      </trkpt>
      <trkpt lat="39.313088" lon="-6.339530">
        <ele>398.261</ele>
        <time>2019-02-27T03:56:37Z</time>
      </trkpt>
      <trkpt lat="39.313326" lon="-6.339816">
        <ele>399.086</ele>
        <time>2019-02-27T03:56:48Z</time>
      </trkpt>
      <trkpt lat="39.313579" lon="-6.340031">
        <ele>400.260</ele>
        <time>2019-02-27T03:57:00Z</time>
      </trkpt>
      <trkpt lat="39.313963" lon="-6.340162">
        <ele>401.526</ele>
        <time>2019-02-27T03:57:15Z</time>
      </trkpt>
      <trkpt lat="39.314367" lon="-6.340216">
        <ele>402.208</ele>
        <time>2019-02-27T03:57:27Z</time>
      </trkpt>
      <trkpt lat="39.314791" lon="-6.340567">
        <ele>402.661</ele>
        <time>2019-02-27T03:57:41Z</time>
      </trkpt>
      <trkpt lat="39.315115" lon="-6.340712">
        <ele>402.472</ele>
        <time>2019-02-27T03:57:51Z</time>
      </trkpt>
      <trkpt lat="39.315159" lon="-6.340733">
        <ele>402.443</ele>
        <time>2019-02-27T03:57:52Z</time>
      </trkpt>
      <trkpt lat="39.315301" lon="-6.340821">
        <ele>402.312</ele>
        <time>2019-02-27T03:57:55Z</time>
      </trkpt>
      <trkpt lat="39.315348" lon="-6.340857">
        <ele>402.396</ele>
        <time>2019-02-27T03:57:56Z</time>
      </trkpt>
      <trkpt lat="39.315439" lon="-6.340921">
        <ele>402.469</ele>
        <time>2019-02-27T03:57:58Z</time>
      </trkpt>
      <trkpt lat="39.315510" lon="-6.340985">
        <ele>402.618</ele>
        <time>2019-02-27T03:58:00Z</time>
      </trkpt>
      <trkpt lat="39.315544" lon="-6.341017">
        <ele>402.647</ele>
        <time>2019-02-27T03:58:01Z</time>
      </trkpt>
      <trkpt lat="39.315581" lon="-6.341044">
        <ele>402.834</ele>
        <time>2019-02-27T03:58:02Z</time>
      </trkpt>
      <trkpt lat="39.315877" lon="-6.341085">
        <ele>404.055</ele>
        <time>2019-02-27T03:58:12Z</time>
      </trkpt>
      <trkpt lat="39.316218" lon="-6.341100">
        <ele>405.410</ele>
        <time>2019-02-27T03:58:26Z</time>
      </trkpt>
      <trkpt lat="39.316620" lon="-6.341120">
        <ele>405.908</ele>
        <time>2019-02-27T03:58:41Z</time>
      </trkpt>
      <trkpt lat="39.317090" lon="-6.341236">
        <ele>404.736</ele>
        <time>2019-02-27T03:58:54Z</time>
      </trkpt>
      <trkpt lat="39.317258" lon="-6.341286">
        <ele>404.237</ele>
        <time>2019-02-27T03:58:58Z</time>
      </trkpt>
      <trkpt lat="39.317301" lon="-6.341305">
        <ele>404.148</ele>
        <time>2019-02-27T03:58:59Z</time>
      </trkpt>
      <trkpt lat="39.317348" lon="-6.341316">
        <ele>404.067</ele>
        <time>2019-02-27T03:59:00Z</time>
      </trkpt>
      <trkpt lat="39.317396" lon="-6.341319">
        <ele>403.931</ele>
        <time>2019-02-27T03:59:01Z</time>
      </trkpt>
      <trkpt lat="39.317446" lon="-6.341314">
        <ele>403.854</ele>
        <time>2019-02-27T03:59:02Z</time>
      </trkpt>
      <trkpt lat="39.317497" lon="-6.341302">
        <ele>403.793</ele>
        <time>2019-02-27T03:59:03Z</time>
      </trkpt>
      <trkpt lat="39.317546" lon="-6.341287">
        <ele>403.612</ele>
        <time>2019-02-27T03:59:04Z</time>
      </trkpt>
      <trkpt lat="39.317680" lon="-6.341215">
        <ele>403.565</ele>
        <time>2019-02-27T03:59:08Z</time>
      </trkpt>
      <trkpt lat="39.317716" lon="-6.341216">
        <ele>403.568</ele>
        <time>2019-02-27T03:59:09Z</time>
      </trkpt>
      <trkpt lat="39.317751" lon="-6.341214">
        <ele>403.514</ele>
        <time>2019-02-27T03:59:10Z</time>
      </trkpt>
      <trkpt lat="39.317788" lon="-6.341204">
        <ele>403.508</ele>
        <time>2019-02-27T03:59:11Z</time>
      </trkpt>
      <trkpt lat="39.317827" lon="-6.341193">
        <ele>403.649</ele>
        <time>2019-02-27T03:59:12Z</time>
      </trkpt>
      <trkpt lat="39.318235" lon="-6.341143">
        <ele>404.510</ele>
        <time>2019-02-27T03:59:24Z</time>
      </trkpt>
      <trkpt lat="39.318543" lon="-6.341157">
        <ele>405.831</ele>
        <time>2019-02-27T03:59:37Z</time>
      </trkpt>
      <trkpt lat="39.318644" lon="-6.341158">
        <ele>406.370</ele>
        <time>2019-02-27T03:59:42Z</time>
      </trkpt>
      <trkpt lat="39.318678" lon="-6.341138">
        <ele>406.544</ele>
        <time>2019-02-27T03:59:44Z</time>
      </trkpt>
      <trkpt lat="39.318699" lon="-6.341137">
        <ele>406.637</ele>
        <time>2019-02-27T03:59:45Z</time>
      </trkpt>
      <trkpt lat="39.318721" lon="-6.341134">
        <ele>406.776</ele>
        <time>2019-02-27T03:59:46Z</time>
      </trkpt>
      <trkpt lat="39.318962" lon="-6.341170">
        <ele>407.685</ele>
        <time>2019-02-27T03:59:57Z</time>
      </trkpt>
      <trkpt lat="39.319375" lon="-6.341236">
        <ele>408.717</ele>
        <time>2019-02-27T04:00:13Z</time>
      </trkpt>
      <trkpt lat="39.319731" lon="-6.341277">
        <ele>409.787</ele>
        <time>2019-02-27T04:00:27Z</time>
      </trkpt>
      <trkpt lat="39.320186" lon="-6.341285">
        <ele>410.615</ele>
        <time>2019-02-27T04:00:44Z</time>
      </trkpt>
      <trkpt lat="39.320663" lon="-6.341432">
        <ele>410.608</ele>
        <time>2019-02-27T04:00:59Z</time>
      </trkpt>
      <trkpt lat="39.320743" lon="-6.341462">
        <ele>410.534</ele>
        <time>2019-02-27T04:01:01Z</time>
      </trkpt>
      <trkpt lat="39.321450" lon="-6.341595">
        <ele>409.085</ele>
        <time>2019-02-27T04:01:19Z</time>
      </trkpt>
      <trkpt lat="39.322106" lon="-6.341694">
        <ele>407.746</ele>
        <time>2019-02-27T04:01:34Z</time>
      </trkpt>
      <trkpt lat="39.322784" lon="-6.341774">
        <ele>406.375</ele>
        <time>2019-02-27T04:01:48Z</time>
      </trkpt>
      <trkpt lat="39.323020" lon="-6.341758">
        <ele>405.999</ele>
        <time>2019-02-27T04:01:53Z</time>
      </trkpt>
      <trkpt lat="39.323436" lon="-6.341834">
        <ele>405.242</ele>
        <time>2019-02-27T04:02:02Z</time>
      </trkpt>
      <trkpt lat="39.323537" lon="-6.341860">
        <ele>405.081</ele>
        <time>2019-02-27T04:02:04Z</time>
      </trkpt>
      <trkpt lat="39.323588" lon="-6.341868">
        <ele>405.060</ele>
        <time>2019-02-27T04:02:05Z</time>
      </trkpt>
      <trkpt lat="39.324395" lon="-6.341847">
        <ele>404.218</ele>
        <time>2019-02-27T04:02:20Z</time>
      </trkpt>
      <trkpt lat="39.324447" lon="-6.341855">
        <ele>404.298</ele>
        <time>2019-02-27T04:02:21Z</time>
      </trkpt>
      <trkpt lat="39.324499" lon="-6.341868">
        <ele>404.217</ele>
        <time>2019-02-27T04:02:22Z</time>
      </trkpt>
      <trkpt lat="39.324546" lon="-6.341890">
        <ele>404.208</ele>
        <time>2019-02-27T04:02:23Z</time>
      </trkpt>
      <trkpt lat="39.324588" lon="-6.341923">
        <ele>404.224</ele>
        <time>2019-02-27T04:02:24Z</time>
      </trkpt>
      <trkpt lat="39.324623" lon="-6.341961">
        <ele>404.225</ele>
        <time>2019-02-27T04:02:25Z</time>
      </trkpt>
      <trkpt lat="39.324654" lon="-6.341995">
        <ele>404.366</ele>
        <time>2019-02-27T04:02:26Z</time>
      </trkpt>
      <trkpt lat="39.325080" lon="-6.342202">
        <ele>405.415</ele>
        <time>2019-02-27T04:02:39Z</time>
      </trkpt>
      <trkpt lat="39.325552" lon="-6.342320">
        <ele>406.749</ele>
        <time>2019-02-27T04:02:55Z</time>
      </trkpt>
      <trkpt lat="39.325867" lon="-6.342451">
        <ele>407.222</ele>
        <time>2019-02-27T04:03:06Z</time>
      </trkpt>
      <trkpt lat="39.326250" lon="-6.342528">
        <ele>407.991</ele>
        <time>2019-02-27T04:03:18Z</time>
      </trkpt>
      <trkpt lat="39.326788" lon="-6.342701">
        <ele>408.950</ele>
        <time>2019-02-27T04:03:35Z</time>
      </trkpt>
      <trkpt lat="39.327229" lon="-6.342912">
        <ele>410.079</ele>
        <time>2019-02-27T04:03:50Z</time>
      </trkpt>
      <trkpt lat="39.327694" lon="-6.343058">
        <ele>410.305</ele>
        <time>2019-02-27T04:04:06Z</time>
      </trkpt>
      <trkpt lat="39.328001" lon="-6.343069">
        <ele>410.725</ele>
        <time>2019-02-27T04:04:16Z</time>
      </trkpt>
      <trkpt lat="39.328024" lon="-6.343046">
        <ele>410.708</ele>
        <time>2019-02-27T04:04:17Z</time>
      </trkpt>
      <trkpt lat="39.328058" lon="-6.342983">
        <ele>410.720</ele>
        <time>2019-02-27T04:04:19Z</time>
      </trkpt>
      <trkpt lat="39.328118" lon="-6.342810">
        <ele>410.741</ele>
        <time>2019-02-27T04:04:24Z</time>
      </trkpt>
      <trkpt lat="39.328418" lon="-6.342762">
        <ele>410.732</ele>
        <time>2019-02-27T04:04:35Z</time>
      </trkpt>
      <trkpt lat="39.328923" lon="-6.342859">
        <ele>410.621</ele>
        <time>2019-02-27T04:04:50Z</time>
      </trkpt>
      <trkpt lat="39.329506" lon="-6.342897">
        <ele>409.785</ele>
        <time>2019-02-27T04:05:03Z</time>
      </trkpt>
      <trkpt lat="39.329655" lon="-6.342916">
        <ele>409.778</ele>
        <time>2019-02-27T04:05:06Z</time>
      </trkpt>
      <trkpt lat="39.329864" lon="-6.342957">
        <ele>409.657</ele>
        <time>2019-02-27T04:05:11Z</time>
      </trkpt>
      <trkpt lat="39.330034" lon="-6.342961">
        <ele>409.696</ele>
        <time>2019-02-27T04:05:15Z</time>
      </trkpt>
      <trkpt lat="39.330124" lon="-6.342991">
        <ele>409.667</ele>
        <time>2019-02-27T04:05:17Z</time>
      </trkpt>
      <trkpt lat="39.330580" lon="-6.343286">
        <ele>408.481</ele>
        <time>2019-02-27T04:05:27Z</time>
      </trkpt>
      <trkpt lat="39.330630" lon="-6.343315">
        <ele>408.319</ele>
        <time>2019-02-27T04:05:28Z</time>
      </trkpt>
      <trkpt lat="39.331029" lon="-6.343474">
        <ele>407.008</ele>
        <time>2019-02-27T04:05:36Z</time>
      </trkpt>
      <trkpt lat="39.331076" lon="-6.343472">
        <ele>406.969</ele>
        <time>2019-02-27T04:05:37Z</time>
      </trkpt>
      <trkpt lat="39.331175" lon="-6.343473">
        <ele>406.720</ele>
        <time>2019-02-27T04:05:39Z</time>
      </trkpt>
      <trkpt lat="39.331831" lon="-6.343646">
        <ele>403.761</ele>
        <time>2019-02-27T04:05:52Z</time>
      </trkpt>
      <trkpt lat="39.332781" lon="-6.343915">
        <ele>399.980</ele>
        <time>2019-02-27T04:06:09Z</time>
      </trkpt>
      <trkpt lat="39.333009" lon="-6.343939">
        <ele>399.664</ele>
        <time>2019-02-27T04:06:13Z</time>
      </trkpt>
      <trkpt lat="39.333267" lon="-6.344027">
        <ele>399.597</ele>
        <time>2019-02-27T04:06:18Z</time>
      </trkpt>
      <trkpt lat="39.333366" lon="-6.344079">
        <ele>399.596</ele>
        <time>2019-02-27T04:06:20Z</time>
      </trkpt>
      <trkpt lat="39.333412" lon="-6.344112">
        <ele>399.565</ele>
        <time>2019-02-27T04:06:21Z</time>
      </trkpt>
      <trkpt lat="39.333458" lon="-6.344140">
        <ele>399.581</ele>
        <time>2019-02-27T04:06:22Z</time>
      </trkpt>
      <trkpt lat="39.333502" lon="-6.344159">
        <ele>399.661</ele>
        <time>2019-02-27T04:06:23Z</time>
      </trkpt>
      <trkpt lat="39.333548" lon="-6.344176">
        <ele>399.617</ele>
        <time>2019-02-27T04:06:24Z</time>
      </trkpt>
      <trkpt lat="39.333891" lon="-6.344149">
        <ele>400.508</ele>
        <time>2019-02-27T04:06:33Z</time>
      </trkpt>
      <trkpt lat="39.334340" lon="-6.344126">
        <ele>402.991</ele>
        <time>2019-02-27T04:06:46Z</time>
      </trkpt>
      <trkpt lat="39.334701" lon="-6.344149">
        <ele>403.952</ele>
        <time>2019-02-27T04:06:59Z</time>
      </trkpt>
      <trkpt lat="39.335080" lon="-6.344207">
        <ele>405.043</ele>
        <time>2019-02-27T04:07:13Z</time>
      </trkpt>
      <trkpt lat="39.335465" lon="-6.344346">
        <ele>406.192</ele>
        <time>2019-02-27T04:07:28Z</time>
      </trkpt>
      <trkpt lat="39.335847" lon="-6.344406">
        <ele>407.346</ele>
        <time>2019-02-27T04:07:43Z</time>
      </trkpt>
      <trkpt lat="39.336344" lon="-6.344626">
        <ele>408.919</ele>
        <time>2019-02-27T04:08:01Z</time>
      </trkpt>
      <trkpt lat="39.336611" lon="-6.344748">
        <ele>410.318</ele>
        <time>2019-02-27T04:08:13Z</time>
      </trkpt>
      <trkpt lat="39.336881" lon="-6.344846">
        <ele>411.497</ele>
        <time>2019-02-27T04:08:26Z</time>
      </trkpt>
      <trkpt lat="39.337165" lon="-6.345039">
        <ele>412.339</ele>
        <time>2019-02-27T04:08:39Z</time>
      </trkpt>
      <trkpt lat="39.337538" lon="-6.345234">
        <ele>413.601</ele>
        <time>2019-02-27T04:08:55Z</time>
      </trkpt>
      <trkpt lat="39.337940" lon="-6.345368">
        <ele>414.721</ele>
        <time>2019-02-27T04:09:11Z</time>
      </trkpt>
      <trkpt lat="39.338343" lon="-6.345559">
        <ele>416.008</ele>
        <time>2019-02-27T04:09:28Z</time>
      </trkpt>
      <trkpt lat="39.338688" lon="-6.345721">
        <ele>417.256</ele>
        <time>2019-02-27T04:09:43Z</time>
      </trkpt>
      <trkpt lat="39.339052" lon="-6.345879">
        <ele>417.867</ele>
        <time>2019-02-27T04:09:58Z</time>
      </trkpt>
      <trkpt lat="39.339423" lon="-6.346090">
        <ele>418.288</ele>
        <time>2019-02-27T04:10:13Z</time>
      </trkpt>
      <trkpt lat="39.339836" lon="-6.346244">
        <ele>418.257</ele>
        <time>2019-02-27T04:10:28Z</time>
      </trkpt>
      <trkpt lat="39.340186" lon="-6.346367">
        <ele>418.331</ele>
        <time>2019-02-27T04:10:40Z</time>
      </trkpt>
      <trkpt lat="39.340618" lon="-6.346524">
        <ele>418.064</ele>
        <time>2019-02-27T04:10:53Z</time>
      </trkpt>
      <trkpt lat="39.340655" lon="-6.346541">
        <ele>418.063</ele>
        <time>2019-02-27T04:10:54Z</time>
      </trkpt>
      <trkpt lat="39.340691" lon="-6.346556">
        <ele>418.012</ele>
        <time>2019-02-27T04:10:55Z</time>
      </trkpt>
      <trkpt lat="39.340726" lon="-6.346576">
        <ele>417.964</ele>
        <time>2019-02-27T04:10:56Z</time>
      </trkpt>
      <trkpt lat="39.340761" lon="-6.346597">
        <ele>417.906</ele>
        <time>2019-02-27T04:10:57Z</time>
      </trkpt>
      <trkpt lat="39.341254" lon="-6.346937">
        <ele>417.116</ele>
        <time>2019-02-27T04:11:09Z</time>
      </trkpt>
      <trkpt lat="39.342049" lon="-6.347409">
        <ele>416.008</ele>
        <time>2019-02-27T04:11:25Z</time>
      </trkpt>
      <trkpt lat="39.342398" lon="-6.347600">
        <ele>414.979</ele>
        <time>2019-02-27T04:11:32Z</time>
      </trkpt>
      <trkpt lat="39.342437" lon="-6.347635">
        <ele>414.760</ele>
        <time>2019-02-27T04:11:33Z</time>
      </trkpt>
      <trkpt lat="39.342476" lon="-6.347669">
        <ele>414.541</ele>
        <time>2019-02-27T04:11:34Z</time>
      </trkpt>
      <trkpt lat="39.342517" lon="-6.347696">
        <ele>414.250</ele>
        <time>2019-02-27T04:11:35Z</time>
      </trkpt>
      <trkpt lat="39.342557" lon="-6.347721">
        <ele>413.924</ele>
        <time>2019-02-27T04:11:36Z</time>
      </trkpt>
      <trkpt lat="39.342673" lon="-6.347794">
        <ele>413.257</ele>
        <time>2019-02-27T04:11:39Z</time>
      </trkpt>
      <trkpt lat="39.343252" lon="-6.348051">
        <ele>411.526</ele>
        <time>2019-02-27T04:11:52Z</time>
      </trkpt>
      <trkpt lat="39.343298" lon="-6.348081">
        <ele>411.275</ele>
        <time>2019-02-27T04:11:53Z</time>
      </trkpt>
      <trkpt lat="39.343342" lon="-6.348117">
        <ele>411.061</ele>
        <time>2019-02-27T04:11:54Z</time>
      </trkpt>
      <trkpt lat="39.343386" lon="-6.348156">
        <ele>410.821</ele>
        <time>2019-02-27T04:11:55Z</time>
      </trkpt>
      <trkpt lat="39.343432" lon="-6.348188">
        <ele>410.713</ele>
        <time>2019-02-27T04:11:56Z</time>
      </trkpt>
      <trkpt lat="39.343479" lon="-6.348215">
        <ele>410.608</ele>
        <time>2019-02-27T04:11:57Z</time>
      </trkpt>
      <trkpt lat="39.343528" lon="-6.348236">
        <ele>410.699</ele>
        <time>2019-02-27T04:11:58Z</time>
      </trkpt>
      <trkpt lat="39.343576" lon="-6.348255">
        <ele>410.660</ele>
        <time>2019-02-27T04:11:59Z</time>
      </trkpt>
      <trkpt lat="39.343623" lon="-6.348279">
        <ele>410.671</ele>
        <time>2019-02-27T04:12:00Z</time>
      </trkpt>
      <trkpt lat="39.343823" lon="-6.348370">
        <ele>410.630</ele>
        <time>2019-02-27T04:12:04Z</time>
      </trkpt>
      <trkpt lat="39.343877" lon="-6.348380">
        <ele>410.524</ele>
        <time>2019-02-27T04:12:05Z</time>
      </trkpt>
      <trkpt lat="39.343932" lon="-6.348382">
        <ele>410.547</ele>
        <time>2019-02-27T04:12:06Z</time>
      </trkpt>
      <trkpt lat="39.343986" lon="-6.348386">
        <ele>410.476</ele>
        <time>2019-02-27T04:12:07Z</time>
      </trkpt>
      <trkpt lat="39.344041" lon="-6.348396">
        <ele>410.345</ele>
        <time>2019-02-27T04:12:08Z</time>
      </trkpt>
      <trkpt lat="39.344095" lon="-6.348411">
        <ele>410.344</ele>
        <time>2019-02-27T04:12:09Z</time>
      </trkpt>
      <trkpt lat="39.344208" lon="-6.348448">
        <ele>410.205</ele>
        <time>2019-02-27T04:12:11Z</time>
      </trkpt>
      <trkpt lat="39.344265" lon="-6.348470">
        <ele>410.115</ele>
        <time>2019-02-27T04:12:12Z</time>
      </trkpt>
      <trkpt lat="39.344322" lon="-6.348486">
        <ele>410.108</ele>
        <time>2019-02-27T04:12:13Z</time>
      </trkpt>
      <trkpt lat="39.345300" lon="-6.348586">
        <ele>407.587</ele>
        <time>2019-02-27T04:12:29Z</time>
      </trkpt>
      <trkpt lat="39.346133" lon="-6.348692">
        <ele>404.928</ele>
        <time>2019-02-27T04:12:43Z</time>
      </trkpt>
      <trkpt lat="39.346191" lon="-6.348710">
        <ele>404.789</ele>
        <time>2019-02-27T04:12:44Z</time>
      </trkpt>
      <trkpt lat="39.346248" lon="-6.348736">
        <ele>404.538</ele>
        <time>2019-02-27T04:12:45Z</time>
      </trkpt>
      <trkpt lat="39.346714" lon="-6.348906">
        <ele>403.252</ele>
        <time>2019-02-27T04:12:53Z</time>
      </trkpt>
      <trkpt lat="39.346774" lon="-6.348906">
        <ele>403.275</ele>
        <time>2019-02-27T04:12:54Z</time>
      </trkpt>
      <trkpt lat="39.346892" lon="-6.348896">
        <ele>403.134</ele>
        <time>2019-02-27T04:12:56Z</time>
      </trkpt>
      <trkpt lat="39.347007" lon="-6.348898">
        <ele>403.143</ele>
        <time>2019-02-27T04:12:58Z</time>
      </trkpt>
      <trkpt lat="39.347431" lon="-6.348973">
        <ele>401.943</ele>
        <time>2019-02-27T04:13:07Z</time>
      </trkpt>
      <trkpt lat="39.347479" lon="-6.348981">
        <ele>401.764</ele>
        <time>2019-02-27T04:13:08Z</time>
      </trkpt>
      <trkpt lat="39.347576" lon="-6.348998">
        <ele>401.310</ele>
        <time>2019-02-27T04:13:10Z</time>
      </trkpt>
      <trkpt lat="39.347670" lon="-6.349020">
        <ele>401.008</ele>
        <time>2019-02-27T04:13:12Z</time>
      </trkpt>
      <trkpt lat="39.347766" lon="-6.349029">
        <ele>400.847</ele>
        <time>2019-02-27T04:13:14Z</time>
      </trkpt>
      <trkpt lat="39.347815" lon="-6.349021">
        <ele>400.798</ele>
        <time>2019-02-27T04:13:15Z</time>
      </trkpt>
      <trkpt lat="39.347860" lon="-6.349004">
        <ele>400.579</ele>
        <time>2019-02-27T04:13:16Z</time>
      </trkpt>
      <trkpt lat="39.347907" lon="-6.348978">
        <ele>400.498</ele>
        <time>2019-02-27T04:13:17Z</time>
      </trkpt>
      <trkpt lat="39.347954" lon="-6.348952">
        <ele>400.322</ele>
        <time>2019-02-27T04:13:18Z</time>
      </trkpt>
      <trkpt lat="39.348004" lon="-6.348929">
        <ele>400.245</ele>
        <time>2019-02-27T04:13:19Z</time>
      </trkpt>
      <trkpt lat="39.348304" lon="-6.348821">
        <ele>398.974</ele>
        <time>2019-02-27T04:13:25Z</time>
      </trkpt>
      <trkpt lat="39.348958" lon="-6.348592">
        <ele>397.423</ele>
        <time>2019-02-27T04:13:40Z</time>
      </trkpt>
      <trkpt lat="39.349354" lon="-6.348485">
        <ele>396.792</ele>
        <time>2019-02-27T04:13:51Z</time>
      </trkpt>
      <trkpt lat="39.349788" lon="-6.348324">
        <ele>396.073</ele>
        <time>2019-02-27T04:14:04Z</time>
      </trkpt>
      <trkpt lat="39.350313" lon="-6.348196">
        <ele>395.420</ele>
        <time>2019-02-27T04:14:17Z</time>
      </trkpt>
      <trkpt lat="39.350891" lon="-6.348099">
        <ele>394.508</ele>
        <time>2019-02-27T04:14:29Z</time>
      </trkpt>
      <trkpt lat="39.351080" lon="-6.348090">
        <ele>394.252</ele>
        <time>2019-02-27T04:14:33Z</time>
      </trkpt>
      <trkpt lat="39.351169" lon="-6.348106">
        <ele>394.133</ele>
        <time>2019-02-27T04:14:35Z</time>
      </trkpt>
      <trkpt lat="39.351350" lon="-6.348128">
        <ele>393.844</ele>
        <time>2019-02-27T04:14:39Z</time>
      </trkpt>
      <trkpt lat="39.351581" lon="-6.348117">
        <ele>393.483</ele>
        <time>2019-02-27T04:14:44Z</time>
      </trkpt>
      <trkpt lat="39.351876" lon="-6.348114">
        <ele>392.947</ele>
        <time>2019-02-27T04:14:50Z</time>
      </trkpt>
      <trkpt lat="39.352236" lon="-6.348150">
        <ele>392.340</ele>
        <time>2019-02-27T04:14:57Z</time>
      </trkpt>
      <trkpt lat="39.352285" lon="-6.348165">
        <ele>392.319</ele>
        <time>2019-02-27T04:14:58Z</time>
      </trkpt>
      <trkpt lat="39.352423" lon="-6.348208">
        <ele>392.148</ele>
        <time>2019-02-27T04:15:01Z</time>
      </trkpt>
      <trkpt lat="39.352475" lon="-6.348213">
        <ele>392.064</ele>
        <time>2019-02-27T04:15:02Z</time>
      </trkpt>
      <trkpt lat="39.353085" lon="-6.348169">
        <ele>390.706</ele>
        <time>2019-02-27T04:15:13Z</time>
      </trkpt>
      <trkpt lat="39.353137" lon="-6.348145">
        <ele>390.616</ele>
        <time>2019-02-27T04:15:14Z</time>
      </trkpt>
      <trkpt lat="39.353286" lon="-6.348068">
        <ele>390.308</ele>
        <time>2019-02-27T04:15:17Z</time>
      </trkpt>
      <trkpt lat="39.353337" lon="-6.348050">
        <ele>390.259</ele>
        <time>2019-02-27T04:15:18Z</time>
      </trkpt>
      <trkpt lat="39.353387" lon="-6.348040">
        <ele>390.110</ele>
        <time>2019-02-27T04:15:19Z</time>
      </trkpt>
      <trkpt lat="39.353577" lon="-6.348010">
        <ele>389.881</ele>
        <time>2019-02-27T04:15:23Z</time>
      </trkpt>
      <trkpt lat="39.353672" lon="-6.348009">
        <ele>389.840</ele>
        <time>2019-02-27T04:15:25Z</time>
      </trkpt>
      <trkpt lat="39.353718" lon="-6.348002">
        <ele>389.894</ele>
        <time>2019-02-27T04:15:26Z</time>
      </trkpt>
      <trkpt lat="39.353862" lon="-6.347990">
        <ele>389.867</ele>
        <time>2019-02-27T04:15:29Z</time>
      </trkpt>
      <trkpt lat="39.353910" lon="-6.347999">
        <ele>389.896</ele>
        <time>2019-02-27T04:15:30Z</time>
      </trkpt>
      <trkpt lat="39.353958" lon="-6.348010">
        <ele>389.865</ele>
        <time>2019-02-27T04:15:31Z</time>
      </trkpt>
      <trkpt lat="39.354005" lon="-6.348015">
        <ele>389.891</ele>
        <time>2019-02-27T04:15:32Z</time>
      </trkpt>
      <trkpt lat="39.354050" lon="-6.348015">
        <ele>389.981</ele>
        <time>2019-02-27T04:15:33Z</time>
      </trkpt>
      <trkpt lat="39.354704" lon="-6.347820">
        <ele>389.519</ele>
        <time>2019-02-27T04:15:47Z</time>
      </trkpt>
      <trkpt lat="39.354753" lon="-6.347810">
        <ele>389.508</ele>
        <time>2019-02-27T04:15:48Z</time>
      </trkpt>
      <trkpt lat="39.354798" lon="-6.347806">
        <ele>389.532</ele>
        <time>2019-02-27T04:15:49Z</time>
      </trkpt>
      <trkpt lat="39.354885" lon="-6.347801">
        <ele>389.573</ele>
        <time>2019-02-27T04:15:51Z</time>
      </trkpt>
      <trkpt lat="39.354969" lon="-6.347783">
        <ele>389.524</ele>
        <time>2019-02-27T04:15:53Z</time>
      </trkpt>
      <trkpt lat="39.355563" lon="-6.347692">
        <ele>388.983</ele>
        <time>2019-02-27T04:16:08Z</time>
      </trkpt>
      <trkpt lat="39.355901" lon="-6.347577">
        <ele>388.947</ele>
        <time>2019-02-27T04:16:19Z</time>
      </trkpt>
      <trkpt lat="39.355966" lon="-6.347517">
        <ele>388.810</ele>
        <time>2019-02-27T04:16:21Z</time>
      </trkpt>
      <trkpt lat="39.356003" lon="-6.347493">
        <ele>388.839</ele>
        <time>2019-02-27T04:16:22Z</time>
      </trkpt>
      <trkpt lat="39.356312" lon="-6.347380">
        <ele>388.468</ele>
        <time>2019-02-27T04:16:29Z</time>
      </trkpt>
      <trkpt lat="39.357113" lon="-6.347395">
        <ele>387.153</ele>
        <time>2019-02-27T04:16:45Z</time>
      </trkpt>
      <trkpt lat="39.357826" lon="-6.347507">
        <ele>386.104</ele>
        <time>2019-02-27T04:17:01Z</time>
      </trkpt>
      <trkpt lat="39.358428" lon="-6.347617">
        <ele>384.614</ele>
        <time>2019-02-27T04:17:13Z</time>
      </trkpt>
      <trkpt lat="39.358480" lon="-6.347633">
        <ele>384.408</ele>
        <time>2019-02-27T04:17:14Z</time>
      </trkpt>
      <trkpt lat="39.358787" lon="-6.347721">
        <ele>383.758</ele>
        <time>2019-02-27T04:17:20Z</time>
      </trkpt>
      <trkpt lat="39.358839" lon="-6.347732">
        <ele>383.679</ele>
        <time>2019-02-27T04:17:21Z</time>
      </trkpt>
      <trkpt lat="39.359692" lon="-6.347789">
        <ele>381.150</ele>
        <time>2019-02-27T04:17:37Z</time>
      </trkpt>
      <trkpt lat="39.360630" lon="-6.347953">
        <ele>378.789</ele>
        <time>2019-02-27T04:17:52Z</time>
      </trkpt>
      <trkpt lat="39.361000" lon="-6.348083">
        <ele>378.593</ele>
        <time>2019-02-27T04:17:58Z</time>
      </trkpt>
      <trkpt lat="39.361058" lon="-6.348109">
        <ele>378.526</ele>
        <time>2019-02-27T04:17:59Z</time>
      </trkpt>
      <trkpt lat="39.361117" lon="-6.348126">
        <ele>378.535</ele>
        <time>2019-02-27T04:18:00Z</time>
      </trkpt>
      <trkpt lat="39.361973" lon="-6.348299">
        <ele>378.344</ele>
        <time>2019-02-27T04:18:15Z</time>
      </trkpt>
      <trkpt lat="39.363022" lon="-6.348375">
        <ele>377.061</ele>
        <time>2019-02-27T04:18:33Z</time>
      </trkpt>
      <trkpt lat="39.364009" lon="-6.348398">
        <ele>375.921</ele>
        <time>2019-02-27T04:18:49Z</time>
      </trkpt>
      <trkpt lat="39.364224" lon="-6.348376">
        <ele>375.513</ele>
        <time>2019-02-27T04:18:53Z</time>
      </trkpt>
      <trkpt lat="39.364267" lon="-6.348363">
        <ele>375.408</ele>
        <time>2019-02-27T04:18:54Z</time>
      </trkpt>
      <trkpt lat="39.364305" lon="-6.348347">
        <ele>375.369</ele>
        <time>2019-02-27T04:18:55Z</time>
      </trkpt>
      <trkpt lat="39.364339" lon="-6.348332">
        <ele>375.280</ele>
        <time>2019-02-27T04:18:56Z</time>
      </trkpt>
      <trkpt lat="39.364365" lon="-6.348326">
        <ele>375.131</ele>
        <time>2019-02-27T04:18:57Z</time>
      </trkpt>
      <trkpt lat="39.364386" lon="-6.348322">
        <ele>375.110</ele>
        <time>2019-02-27T04:18:58Z</time>
      </trkpt>
      <trkpt lat="39.364405" lon="-6.348320">
        <ele>375.034</ele>
        <time>2019-02-27T04:18:59Z</time>
      </trkpt>
      <trkpt lat="39.364423" lon="-6.348318">
        <ele>375.057</ele>
        <time>2019-02-27T04:19:00Z</time>
      </trkpt>
      <trkpt lat="39.364442" lon="-6.348312">
        <ele>374.926</ele>
        <time>2019-02-27T04:19:01Z</time>
      </trkpt>
      <trkpt lat="39.364463" lon="-6.348304">
        <ele>374.995</ele>
        <time>2019-02-27T04:19:02Z</time>
      </trkpt>
      <trkpt lat="39.364485" lon="-6.348298">
        <ele>374.863</ele>
        <time>2019-02-27T04:19:03Z</time>
      </trkpt>
      <trkpt lat="39.364617" lon="-6.348224">
        <ele>374.344</ele>
        <time>2019-02-27T04:19:15Z</time>
      </trkpt>
      <trkpt lat="39.364868" lon="-6.348047">
        <ele>373.218</ele>
        <time>2019-02-27T04:19:27Z</time>
      </trkpt>
      <trkpt lat="39.365253" lon="-6.347603">
        <ele>370.808</ele>
        <time>2019-02-27T04:19:36Z</time>
      </trkpt>
      <trkpt lat="39.365298" lon="-6.347570">
        <ele>370.659</ele>
        <time>2019-02-27T04:19:37Z</time>
      </trkpt>
      <trkpt lat="39.365346" lon="-6.347543">
        <ele>370.380</ele>
        <time>2019-02-27T04:19:38Z</time>
      </trkpt>
      <trkpt lat="39.365401" lon="-6.347525">
        <ele>370.161</ele>
        <time>2019-02-27T04:19:39Z</time>
      </trkpt>
      <trkpt lat="39.365458" lon="-6.347510">
        <ele>369.920</ele>
        <time>2019-02-27T04:19:40Z</time>
      </trkpt>
      <trkpt lat="39.365616" lon="-6.347479">
        <ele>369.544</ele>
        <time>2019-02-27T04:19:43Z</time>
      </trkpt>
      <trkpt lat="39.365666" lon="-6.347471">
        <ele>369.467</ele>
        <time>2019-02-27T04:19:44Z</time>
      </trkpt>
      <trkpt lat="39.365807" lon="-6.347449">
        <ele>369.136</ele>
        <time>2019-02-27T04:19:47Z</time>
      </trkpt>
      <trkpt lat="39.365848" lon="-6.347448">
        <ele>369.115</ele>
        <time>2019-02-27T04:19:48Z</time>
      </trkpt>
      <trkpt lat="39.366095" lon="-6.347291">
        <ele>368.916</ele>
        <time>2019-02-27T04:19:58Z</time>
      </trkpt>
      <trkpt lat="39.366323" lon="-6.346989">
        <ele>368.476</ele>
        <time>2019-02-27T04:20:09Z</time>
      </trkpt>
      <trkpt lat="39.366346" lon="-6.346883">
        <ele>368.313</ele>
        <time>2019-02-27T04:20:11Z</time>
      </trkpt>
      <trkpt lat="39.366349" lon="-6.346830">
        <ele>368.308</ele>
        <time>2019-02-27T04:20:12Z</time>
      </trkpt>
      <trkpt lat="39.366348" lon="-6.346777">
        <ele>368.284</ele>
        <time>2019-02-27T04:20:13Z</time>
      </trkpt>
      <trkpt lat="39.366343" lon="-6.346726">
        <ele>368.275</ele>
        <time>2019-02-27T04:20:14Z</time>
      </trkpt>
      <trkpt lat="39.366333" lon="-6.346677">
        <ele>368.346</ele>
        <time>2019-02-27T04:20:15Z</time>
      </trkpt>
      <trkpt lat="39.366318" lon="-6.346634">
        <ele>368.355</ele>
        <time>2019-02-27T04:20:16Z</time>
      </trkpt>
      <trkpt lat="39.366306" lon="-6.346596">
        <ele>368.429</ele>
        <time>2019-02-27T04:20:17Z</time>
      </trkpt>
      <trkpt lat="39.366300" lon="-6.346555">
        <ele>368.432</ele>
        <time>2019-02-27T04:20:18Z</time>
      </trkpt>
      <trkpt lat="39.366297" lon="-6.346516">
        <ele>368.541</ele>
        <time>2019-02-27T04:20:19Z</time>
      </trkpt>
      <trkpt lat="39.366292" lon="-6.346476">
        <ele>368.690</ele>
        <time>2019-02-27T04:20:20Z</time>
      </trkpt>
      <trkpt lat="39.366391" lon="-6.346072">
        <ele>369.313</ele>
        <time>2019-02-27T04:20:31Z</time>
      </trkpt>
      <trkpt lat="39.366458" lon="-6.346055">
        <ele>369.343</ele>
        <time>2019-02-27T04:20:34Z</time>
      </trkpt>
      <trkpt lat="39.366466" lon="-6.346065">
        <ele>369.307</ele>
        <time>2019-02-27T04:20:35Z</time>
      </trkpt>
      <trkpt lat="39.366467" lon="-6.346081">
        <ele>369.308</ele>
        <time>2019-02-27T04:20:40Z</time>
      </trkpt>
      <trkpt lat="39.366408" lon="-6.346121">
        <ele>369.334</ele>
        <time>2019-02-27T04:21:00Z</time>
      </trkpt>
      <trkpt lat="39.366394" lon="-6.346137">
        <ele>369.385</ele>
        <time>2019-02-27T04:21:01Z</time>
      </trkpt>
      <trkpt lat="39.366384" lon="-6.346158">
        <ele>369.326</ele>
        <time>2019-02-27T04:21:02Z</time>
      </trkpt>
      <trkpt lat="39.366384" lon="-6.346182">
        <ele>369.385</ele>
        <time>2019-02-27T04:21:03Z</time>
      </trkpt>
      <trkpt lat="39.366387" lon="-6.346201">
        <ele>369.359</ele>
        <time>2019-02-27T04:21:04Z</time>
      </trkpt>
      <trkpt lat="39.366393" lon="-6.346215">
        <ele>369.312</ele>
        <time>2019-02-27T04:21:09Z</time>
      </trkpt>
      <trkpt lat="39.366539" lon="-6.346223">
        <ele>369.451</ele>
        <time>2019-02-27T04:22:18Z</time>
      </trkpt>
      <trkpt lat="39.366805" lon="-6.346241">
        <ele>369.780</ele>
        <time>2019-02-27T04:22:38Z</time>
      </trkpt>
      <trkpt lat="39.367002" lon="-6.346281">
        <ele>369.991</ele>
        <time>2019-02-27T04:22:54Z</time>
      </trkpt>
      <trkpt lat="39.367221" lon="-6.346302">
        <ele>370.181</ele>
        <time>2019-02-27T04:23:13Z</time>
      </trkpt>
      <trkpt lat="39.367248" lon="-6.346307">
        <ele>370.119</ele>
        <time>2019-02-27T04:23:16Z</time>
      </trkpt>
      <trkpt lat="39.367515" lon="-6.346346">
        <ele>371.108</ele>
        <time>2019-02-27T04:23:28Z</time>
      </trkpt>
      <trkpt lat="39.367822" lon="-6.346443">
        <ele>372.582</ele>
        <time>2019-02-27T04:23:39Z</time>
      </trkpt>
      <trkpt lat="39.368291" lon="-6.346463">
        <ele>372.873</ele>
        <time>2019-02-27T04:23:55Z</time>
      </trkpt>
      <trkpt lat="39.368897" lon="-6.346468">
        <ele>373.764</ele>
        <time>2019-02-27T04:24:13Z</time>
      </trkpt>
      <trkpt lat="39.369487" lon="-6.346482">
        <ele>374.493</ele>
        <time>2019-02-27T04:24:30Z</time>
      </trkpt>
      <trkpt lat="39.370194" lon="-6.346509">
        <ele>375.077</ele>
        <time>2019-02-27T04:24:50Z</time>
      </trkpt>
      <trkpt lat="39.370929" lon="-6.346533">
        <ele>375.970</ele>
        <time>2019-02-27T04:25:12Z</time>
      </trkpt>
      <trkpt lat="39.371626" lon="-6.346543">
        <ele>376.799</ele>
        <time>2019-02-27T04:25:31Z</time>
      </trkpt>
      <trkpt lat="39.372293" lon="-6.346563">
        <ele>377.938</ele>
        <time>2019-02-27T04:25:51Z</time>
      </trkpt>
      <trkpt lat="39.372875" lon="-6.346579">
        <ele>380.317</ele>
        <time>2019-02-27T04:26:12Z</time>
      </trkpt>
      <trkpt lat="39.373267" lon="-6.346500">
        <ele>380.987</ele>
        <time>2019-02-27T04:26:27Z</time>
      </trkpt>
      <trkpt lat="39.373581" lon="-6.346494">
        <ele>381.115</ele>
        <time>2019-02-27T04:26:39Z</time>
      </trkpt>
      <trkpt lat="39.373911" lon="-6.346437">
        <ele>381.808</ele>
        <time>2019-02-27T04:26:50Z</time>
      </trkpt>
      <trkpt lat="39.374423" lon="-6.346474">
        <ele>382.454</ele>
        <time>2019-02-27T04:27:07Z</time>
      </trkpt>
      <trkpt lat="39.374912" lon="-6.346482">
        <ele>383.815</ele>
        <time>2019-02-27T04:27:25Z</time>
      </trkpt>
      <trkpt lat="39.375261" lon="-6.346524">
        <ele>384.766</ele>
        <time>2019-02-27T04:27:39Z</time>
      </trkpt>
      <trkpt lat="39.375612" lon="-6.346505">
        <ele>385.555</ele>
        <time>2019-02-27T04:27:51Z</time>
      </trkpt>
      <trkpt lat="39.375933" lon="-6.346587">
        <ele>387.119</ele>
        <time>2019-02-27T04:28:04Z</time>
      </trkpt>
      <trkpt lat="39.376253" lon="-6.346494">
        <ele>388.482</ele>
        <time>2019-02-27T04:28:16Z</time>
      </trkpt>
      <trkpt lat="39.376513" lon="-6.346490">
        <ele>389.181</ele>
        <time>2019-02-27T04:28:26Z</time>
      </trkpt>
      <trkpt lat="39.376573" lon="-6.346492">
        <ele>389.340</ele>
        <time>2019-02-27T04:28:29Z</time>
      </trkpt>
      <trkpt lat="39.376593" lon="-6.346472">
        <ele>389.249</ele>
        <time>2019-02-27T04:28:30Z</time>
      </trkpt>
      <trkpt lat="39.376610" lon="-6.346442">
        <ele>389.102</ele>
        <time>2019-02-27T04:28:31Z</time>
      </trkpt>
      <trkpt lat="39.376626" lon="-6.346407">
        <ele>389.022</ele>
        <time>2019-02-27T04:28:32Z</time>
      </trkpt>
      <trkpt lat="39.376640" lon="-6.346367">
        <ele>388.908</ele>
        <time>2019-02-27T04:28:33Z</time>
      </trkpt>
      <trkpt lat="39.376652" lon="-6.346324">
        <ele>388.717</ele>
        <time>2019-02-27T04:28:34Z</time>
      </trkpt>
      <trkpt lat="39.376741" lon="-6.346188">
        <ele>388.398</ele>
        <time>2019-02-27T04:28:38Z</time>
      </trkpt>
      <trkpt lat="39.376773" lon="-6.346178">
        <ele>388.239</ele>
        <time>2019-02-27T04:28:39Z</time>
      </trkpt>
      <trkpt lat="39.376808" lon="-6.346172">
        <ele>388.088</ele>
        <time>2019-02-27T04:28:40Z</time>
      </trkpt>
      <trkpt lat="39.377161" lon="-6.346205">
        <ele>387.742</ele>
        <time>2019-02-27T04:28:52Z</time>
      </trkpt>
      <trkpt lat="39.377528" lon="-6.346341">
        <ele>388.585</ele>
        <time>2019-02-27T04:29:05Z</time>
      </trkpt>
      <trkpt lat="39.377992" lon="-6.346524">
        <ele>388.984</ele>
        <time>2019-02-27T04:29:22Z</time>
      </trkpt>
      <trkpt lat="39.378000" lon="-6.346547">
        <ele>388.973</ele>
        <time>2019-02-27T04:29:23Z</time>
      </trkpt>
      <trkpt lat="39.378001" lon="-6.346572">
        <ele>389.053</ele>
        <time>2019-02-27T04:29:24Z</time>
      </trkpt>
      <trkpt lat="39.377987" lon="-6.346632">
        <ele>389.004</ele>
        <time>2019-02-27T04:29:26Z</time>
      </trkpt>
      <trkpt lat="39.377928" lon="-6.346817">
        <ele>389.414</ele>
        <time>2019-02-27T04:29:37Z</time>
      </trkpt>
      <trkpt lat="39.377930" lon="-6.346926">
        <ele>389.508</ele>
        <time>2019-02-27T04:30:08Z</time>
      </trkpt>
      <trkpt lat="39.377930" lon="-6.346958">
        <ele>389.528</ele>
        <time>2019-02-27T04:30:09Z</time>
      </trkpt>
      <trkpt lat="39.377923" lon="-6.347113">
        <ele>389.799</ele>
        <time>2019-02-27T04:30:14Z</time>
      </trkpt>
      <trkpt lat="39.378173" lon="-6.347217">
        <ele>389.780</ele>
        <time>2019-02-27T04:30:25Z</time>
      </trkpt>
      <trkpt lat="39.378275" lon="-6.347109">
        <ele>389.699</ele>
        <time>2019-02-27T04:30:35Z</time>
      </trkpt>
      <trkpt lat="39.378282" lon="-6.347109">
        <ele>389.683</ele>
        <time>2019-02-27T04:30:37Z</time>
      </trkpt>
      <trkpt lat="39.378241" lon="-6.347206">
        <ele>389.516</ele>
        <time>2019-02-27T04:49:06Z</time>
      </trkpt>
      <trkpt lat="39.377937" lon="-6.347147">
        <ele>389.775</ele>
        <time>2019-02-27T04:49:17Z</time>
      </trkpt>
      <trkpt lat="39.377915" lon="-6.347124">
        <ele>389.734</ele>
        <time>2019-02-27T04:49:18Z</time>
      </trkpt>
      <trkpt lat="39.377954" lon="-6.346714">
        <ele>389.282</ele>
        <time>2019-02-27T04:49:29Z</time>
      </trkpt>
      <trkpt lat="39.378047" lon="-6.346293">
        <ele>388.443</ele>
        <time>2019-02-27T04:49:40Z</time>
      </trkpt>
      <trkpt lat="39.378069" lon="-6.346179">
        <ele>387.917</ele>
        <time>2019-02-27T04:49:43Z</time>
      </trkpt>
      <trkpt lat="39.378109" lon="-6.346115">
        <ele>387.408</ele>
        <time>2019-02-27T04:49:51Z</time>
      </trkpt>
      <trkpt lat="39.378133" lon="-6.346062">
        <ele>387.421</ele>
        <time>2019-02-27T04:50:33Z</time>
      </trkpt>
      <trkpt lat="39.378168" lon="-6.346013">
        <ele>387.542</ele>
        <time>2019-02-27T04:50:35Z</time>
      </trkpt>
      <trkpt lat="39.378194" lon="-6.346004">
        <ele>387.533</ele>
        <time>2019-02-27T04:50:36Z</time>
      </trkpt>
      <trkpt lat="39.378224" lon="-6.346003">
        <ele>387.592</ele>
        <time>2019-02-27T04:50:37Z</time>
      </trkpt>
      <trkpt lat="39.378255" lon="-6.346008">
        <ele>387.526</ele>
        <time>2019-02-27T04:50:38Z</time>
      </trkpt>
      <trkpt lat="39.378285" lon="-6.346017">
        <ele>387.519</ele>
        <time>2019-02-27T04:50:39Z</time>
      </trkpt>
      <trkpt lat="39.378815" lon="-6.346158">
        <ele>386.928</ele>
        <time>2019-02-27T04:50:57Z</time>
      </trkpt>
      <trkpt lat="39.379167" lon="-6.346183">
        <ele>386.697</ele>
        <time>2019-02-27T04:51:09Z</time>
      </trkpt>
      <trkpt lat="39.379719" lon="-6.346280">
        <ele>387.461</ele>
        <time>2019-02-27T04:51:25Z</time>
      </trkpt>
      <trkpt lat="39.380018" lon="-6.346432">
        <ele>387.721</ele>
        <time>2019-02-27T04:51:38Z</time>
      </trkpt>
      <trkpt lat="39.380442" lon="-6.346543">
        <ele>388.213</ele>
        <time>2019-02-27T04:51:52Z</time>
      </trkpt>
      <trkpt lat="39.381059" lon="-6.346753">
        <ele>389.808</ele>
        <time>2019-02-27T04:52:12Z</time>
      </trkpt>
      <trkpt lat="39.381639" lon="-6.347001">
        <ele>390.589</ele>
        <time>2019-02-27T04:52:30Z</time>
      </trkpt>
      <trkpt lat="39.382224" lon="-6.347235">
        <ele>391.630</ele>
        <time>2019-02-27T04:52:47Z</time>
      </trkpt>
      <trkpt lat="39.382520" lon="-6.347320">
        <ele>392.391</ele>
        <time>2019-02-27T04:52:56Z</time>
      </trkpt>
      <trkpt lat="39.382906" lon="-6.347461">
        <ele>392.930</ele>
        <time>2019-02-27T04:53:08Z</time>
      </trkpt>
      <trkpt lat="39.383540" lon="-6.347683">
        <ele>394.324</ele>
        <time>2019-02-27T04:53:27Z</time>
      </trkpt>
      <trkpt lat="39.383776" lon="-6.347584">
        <ele>394.897</ele>
        <time>2019-02-27T04:53:37Z</time>
      </trkpt>
      <trkpt lat="39.384111" lon="-6.347534">
        <ele>394.976</ele>
        <time>2019-02-27T04:53:48Z</time>
      </trkpt>
      <trkpt lat="39.384682" lon="-6.347690">
        <ele>394.995</ele>
        <time>2019-02-27T04:54:05Z</time>
      </trkpt>
      <trkpt lat="39.385234" lon="-6.347819">
        <ele>396.384</ele>
        <time>2019-02-27T04:54:22Z</time>
      </trkpt>
      <trkpt lat="39.385720" lon="-6.347807">
        <ele>397.407</ele>
        <time>2019-02-27T04:54:39Z</time>
      </trkpt>
      <trkpt lat="39.386211" lon="-6.347733">
        <ele>397.817</ele>
        <time>2019-02-27T04:54:58Z</time>
      </trkpt>
      <trkpt lat="39.386631" lon="-6.347581">
        <ele>397.708</ele>
        <time>2019-02-27T04:55:17Z</time>
      </trkpt>
      <trkpt lat="39.386864" lon="-6.347269">
        <ele>398.661</ele>
        <time>2019-02-27T04:55:32Z</time>
      </trkpt>
      <trkpt lat="39.387138" lon="-6.346911">
        <ele>399.162</ele>
        <time>2019-02-27T04:55:47Z</time>
      </trkpt>
      <trkpt lat="39.387465" lon="-6.346794">
        <ele>397.683</ele>
        <time>2019-02-27T04:55:59Z</time>
      </trkpt>
      <trkpt lat="39.387548" lon="-6.346842">
        <ele>397.292</ele>
        <time>2019-02-27T04:56:01Z</time>
      </trkpt>
      <trkpt lat="39.387587" lon="-6.346883">
        <ele>396.996</ele>
        <time>2019-02-27T04:56:02Z</time>
      </trkpt>
      <trkpt lat="39.387622" lon="-6.346932">
        <ele>396.799</ele>
        <time>2019-02-27T04:56:03Z</time>
      </trkpt>
      <trkpt lat="39.387652" lon="-6.346990">
        <ele>396.428</ele>
        <time>2019-02-27T04:56:04Z</time>
      </trkpt>
      <trkpt lat="39.387673" lon="-6.347059">
        <ele>396.287</ele>
        <time>2019-02-27T04:56:05Z</time>
      </trkpt>
      <trkpt lat="39.387687" lon="-6.347136">
        <ele>396.026</ele>
        <time>2019-02-27T04:56:06Z</time>
      </trkpt>
      <trkpt lat="39.387696" lon="-6.347221">
        <ele>395.947</ele>
        <time>2019-02-27T04:56:07Z</time>
      </trkpt>
      <trkpt lat="39.387760" lon="-6.347607">
        <ele>395.911</ele>
        <time>2019-02-27T04:56:11Z</time>
      </trkpt>
      <trkpt lat="39.388220" lon="-6.348537">
        <ele>396.708</ele>
        <time>2019-02-27T04:56:22Z</time>
      </trkpt>
      <trkpt lat="39.388268" lon="-6.348595">
        <ele>396.825</ele>
        <time>2019-02-27T04:56:23Z</time>
      </trkpt>
      <trkpt lat="39.388317" lon="-6.348646">
        <ele>397.056</ele>
        <time>2019-02-27T04:56:24Z</time>
      </trkpt>
      <trkpt lat="39.388369" lon="-6.348688">
        <ele>397.187</ele>
        <time>2019-02-27T04:56:25Z</time>
      </trkpt>
      <trkpt lat="39.388422" lon="-6.348722">
        <ele>397.326</ele>
        <time>2019-02-27T04:56:26Z</time>
      </trkpt>
      <trkpt lat="39.388475" lon="-6.348749">
        <ele>397.450</ele>
        <time>2019-02-27T04:56:27Z</time>
      </trkpt>
      <trkpt lat="39.388527" lon="-6.348771">
        <ele>397.623</ele>
        <time>2019-02-27T04:56:28Z</time>
      </trkpt>
      <trkpt lat="39.388579" lon="-6.348789">
        <ele>397.752</ele>
        <time>2019-02-27T04:56:29Z</time>
      </trkpt>
      <trkpt lat="39.388777" lon="-6.348869">
        <ele>398.351</ele>
        <time>2019-02-27T04:56:33Z</time>
      </trkpt>
      <trkpt lat="39.388824" lon="-6.348876">
        <ele>398.422</ele>
        <time>2019-02-27T04:56:34Z</time>
      </trkpt>
      <trkpt lat="39.388871" lon="-6.348881">
        <ele>398.662</ele>
        <time>2019-02-27T04:56:35Z</time>
      </trkpt>
      <trkpt lat="39.388916" lon="-6.348889">
        <ele>398.708</ele>
        <time>2019-02-27T04:56:36Z</time>
      </trkpt>
      <trkpt lat="39.388959" lon="-6.348902">
        <ele>398.808</ele>
        <time>2019-02-27T04:56:37Z</time>
      </trkpt>
      <trkpt lat="39.389615" lon="-6.349127">
        <ele>400.265</ele>
        <time>2019-02-27T04:56:55Z</time>
      </trkpt>
      <trkpt lat="39.390122" lon="-6.349343">
        <ele>400.656</ele>
        <time>2019-02-27T04:57:11Z</time>
      </trkpt>
      <trkpt lat="39.390470" lon="-6.349404">
        <ele>401.097</ele>
        <time>2019-02-27T04:57:20Z</time>
      </trkpt>
      <trkpt lat="39.390553" lon="-6.349401">
        <ele>401.056</ele>
        <time>2019-02-27T04:57:22Z</time>
      </trkpt>
      <trkpt lat="39.390593" lon="-6.349391">
        <ele>401.140</ele>
        <time>2019-02-27T04:57:23Z</time>
      </trkpt>
      <trkpt lat="39.390807" lon="-6.349324">
        <ele>401.393</ele>
        <time>2019-02-27T04:57:28Z</time>
      </trkpt>
      <trkpt lat="39.390852" lon="-6.349319">
        <ele>401.342</ele>
        <time>2019-02-27T04:57:29Z</time>
      </trkpt>
      <trkpt lat="39.391446" lon="-6.349407">
        <ele>401.361</ele>
        <time>2019-02-27T04:57:44Z</time>
      </trkpt>
      <trkpt lat="39.391561" lon="-6.349545">
        <ele>401.497</ele>
        <time>2019-02-27T04:57:48Z</time>
      </trkpt>
      <trkpt lat="39.391595" lon="-6.349582">
        <ele>401.423</ele>
        <time>2019-02-27T04:57:49Z</time>
      </trkpt>
      <trkpt lat="39.391633" lon="-6.349613">
        <ele>401.425</ele>
        <time>2019-02-27T04:57:50Z</time>
      </trkpt>
      <trkpt lat="39.392306" lon="-6.349905">
        <ele>401.908</ele>
        <time>2019-02-27T04:58:05Z</time>
      </trkpt>
      <trkpt lat="39.392920" lon="-6.350037">
        <ele>402.642</ele>
        <time>2019-02-27T04:58:19Z</time>
      </trkpt>
      <trkpt lat="39.393258" lon="-6.350101">
        <ele>403.453</ele>
        <time>2019-02-27T04:58:27Z</time>
      </trkpt>
      <trkpt lat="39.393301" lon="-6.350113">
        <ele>403.574</ele>
        <time>2019-02-27T04:58:28Z</time>
      </trkpt>
      <trkpt lat="39.393343" lon="-6.350130">
        <ele>403.723</ele>
        <time>2019-02-27T04:58:29Z</time>
      </trkpt>
      <trkpt lat="39.393497" lon="-6.350219">
        <ele>404.177</ele>
        <time>2019-02-27T04:58:33Z</time>
      </trkpt>
      <trkpt lat="39.394100" lon="-6.350513">
        <ele>406.250</ele>
        <time>2019-02-27T04:58:49Z</time>
      </trkpt>
      <trkpt lat="39.394663" lon="-6.350643">
        <ele>408.339</ele>
        <time>2019-02-27T04:59:07Z</time>
      </trkpt>
      <trkpt lat="39.395136" lon="-6.350760">
        <ele>409.918</ele>
        <time>2019-02-27T04:59:25Z</time>
      </trkpt>
      <trkpt lat="39.395441" lon="-6.350878">
        <ele>410.464</ele>
        <time>2019-02-27T04:59:37Z</time>
      </trkpt>
      <trkpt lat="39.395814" lon="-6.351014">
        <ele>410.806</ele>
        <time>2019-02-27T04:59:52Z</time>
      </trkpt>
      <trkpt lat="39.396289" lon="-6.351140">
        <ele>411.216</ele>
        <time>2019-02-27T05:00:08Z</time>
      </trkpt>
      <trkpt lat="39.396676" lon="-6.351213">
        <ele>411.408</ele>
        <time>2019-02-27T05:00:19Z</time>
      </trkpt>
      <trkpt lat="39.397239" lon="-6.351355">
        <ele>410.169</ele>
        <time>2019-02-27T05:00:34Z</time>
      </trkpt>
      <trkpt lat="39.397328" lon="-6.351371">
        <ele>410.010</ele>
        <time>2019-02-27T05:00:36Z</time>
      </trkpt>
      <trkpt lat="39.398076" lon="-6.351475">
        <ele>410.741</ele>
        <time>2019-02-27T05:00:50Z</time>
      </trkpt>
      <trkpt lat="39.398229" lon="-6.351509">
        <ele>411.190</ele>
        <time>2019-02-27T05:00:53Z</time>
      </trkpt>
      <trkpt lat="39.398468" lon="-6.351593">
        <ele>411.884</ele>
        <time>2019-02-27T05:00:58Z</time>
      </trkpt>
      <trkpt lat="39.398650" lon="-6.351624">
        <ele>412.527</ele>
        <time>2019-02-27T05:01:02Z</time>
      </trkpt>
      <trkpt lat="39.398689" lon="-6.351641">
        <ele>412.636</ele>
        <time>2019-02-27T05:01:03Z</time>
      </trkpt>
      <trkpt lat="39.398725" lon="-6.351662">
        <ele>412.865</ele>
        <time>2019-02-27T05:01:04Z</time>
      </trkpt>
      <trkpt lat="39.398761" lon="-6.351680">
        <ele>413.068</ele>
        <time>2019-02-27T05:01:05Z</time>
      </trkpt>
      <trkpt lat="39.398797" lon="-6.351693">
        <ele>413.242</ele>
        <time>2019-02-27T05:01:06Z</time>
      </trkpt>
      <trkpt lat="39.399406" lon="-6.351826">
        <ele>416.226</ele>
        <time>2019-02-27T05:01:22Z</time>
      </trkpt>
      <trkpt lat="39.399778" lon="-6.351976">
        <ele>417.208</ele>
        <time>2019-02-27T05:01:36Z</time>
      </trkpt>
      <trkpt lat="39.400063" lon="-6.352073">
        <ele>417.769</ele>
        <time>2019-02-27T05:01:49Z</time>
      </trkpt>
      <trkpt lat="39.400480" lon="-6.352170">
        <ele>418.580</ele>
        <time>2019-02-27T05:02:06Z</time>
      </trkpt>
      <trkpt lat="39.401076" lon="-6.352414">
        <ele>420.091</ele>
        <time>2019-02-27T05:02:25Z</time>
      </trkpt>
      <trkpt lat="39.401714" lon="-6.352836">
        <ele>423.420</ele>
        <time>2019-02-27T05:02:46Z</time>
      </trkpt>
      <trkpt lat="39.401994" lon="-6.353020">
        <ele>423.914</ele>
        <time>2019-02-27T05:02:57Z</time>
      </trkpt>
      <trkpt lat="39.402388" lon="-6.353233">
        <ele>426.057</ele>
        <time>2019-02-27T05:03:13Z</time>
      </trkpt>
      <trkpt lat="39.402771" lon="-6.353452">
        <ele>428.596</ele>
        <time>2019-02-27T05:03:30Z</time>
      </trkpt>
      <trkpt lat="39.403179" lon="-6.353623">
        <ele>430.795</ele>
        <time>2019-02-27T05:03:47Z</time>
      </trkpt>
      <trkpt lat="39.403217" lon="-6.353616">
        <ele>431.059</ele>
        <time>2019-02-27T05:03:53Z</time>
      </trkpt>
      <trkpt lat="39.403289" lon="-6.353666">
        <ele>431.203</ele>
        <time>2019-02-27T05:04:07Z</time>
      </trkpt>
      <trkpt lat="39.403304" lon="-6.353685">
        <ele>431.223</ele>
        <time>2019-02-27T05:04:08Z</time>
      </trkpt>
      <trkpt lat="39.403321" lon="-6.353702">
        <ele>431.308</ele>
        <time>2019-02-27T05:04:09Z</time>
      </trkpt>
      <trkpt lat="39.403339" lon="-6.353720">
        <ele>431.438</ele>
        <time>2019-02-27T05:04:10Z</time>
      </trkpt>
      <trkpt lat="39.403355" lon="-6.353742">
        <ele>431.469</ele>
        <time>2019-02-27T05:04:11Z</time>
      </trkpt>
      <trkpt lat="39.403370" lon="-6.353766">
        <ele>431.510</ele>
        <time>2019-02-27T05:04:12Z</time>
      </trkpt>
      <trkpt lat="39.403559" lon="-6.354084">
        <ele>432.199</ele>
        <time>2019-02-27T05:04:25Z</time>
      </trkpt>
      <trkpt lat="39.403878" lon="-6.354444">
        <ele>432.743</ele>
        <time>2019-02-27T05:04:42Z</time>
      </trkpt>
      <trkpt lat="39.404273" lon="-6.354712">
        <ele>433.416</ele>
        <time>2019-02-27T05:05:00Z</time>
      </trkpt>
      <trkpt lat="39.404608" lon="-6.354816">
        <ele>434.545</ele>
        <time>2019-02-27T05:05:13Z</time>
      </trkpt>
      <trkpt lat="39.405020" lon="-6.354770">
        <ele>435.524</ele>
        <time>2019-02-27T05:05:28Z</time>
      </trkpt>
      <trkpt lat="39.405468" lon="-6.354604">
        <ele>436.381</ele>
        <time>2019-02-27T05:05:42Z</time>
      </trkpt>
      <trkpt lat="39.405870" lon="-6.354520">
        <ele>436.461</ele>
        <time>2019-02-27T05:05:51Z</time>
      </trkpt>
      <trkpt lat="39.406357" lon="-6.354364">
        <ele>436.717</ele>
        <time>2019-02-27T05:06:05Z</time>
      </trkpt>
      <trkpt lat="39.406780" lon="-6.354386">
        <ele>436.908</ele>
        <time>2019-02-27T05:06:19Z</time>
      </trkpt>
      <trkpt lat="39.406801" lon="-6.354414">
        <ele>436.931</ele>
        <time>2019-02-27T05:06:20Z</time>
      </trkpt>
      <trkpt lat="39.406816" lon="-6.354449">
        <ele>436.982</ele>
        <time>2019-02-27T05:06:21Z</time>
      </trkpt>
      <trkpt lat="39.406828" lon="-6.354486">
        <ele>436.633</ele>
        <time>2019-02-27T05:06:22Z</time>
      </trkpt>
      <trkpt lat="39.406838" lon="-6.354525">
        <ele>436.472</ele>
        <time>2019-02-27T05:06:23Z</time>
      </trkpt>
      <trkpt lat="39.406839" lon="-6.354649">
        <ele>435.726</ele>
        <time>2019-02-27T05:06:27Z</time>
      </trkpt>
      <trkpt lat="39.406832" lon="-6.354667">
        <ele>435.629</ele>
        <time>2019-02-27T05:06:28Z</time>
      </trkpt>
      <trkpt lat="39.406822" lon="-6.354695">
        <ele>435.448</ele>
        <time>2019-02-27T05:06:42Z</time>
      </trkpt>
      <trkpt lat="39.406823" lon="-6.354692">
        <ele>435.447</ele>
        <time>2019-02-27T05:06:43Z</time>
      </trkpt>
      <trkpt lat="39.406815" lon="-6.354809">
        <ele>434.826</ele>
        <time>2019-02-27T05:08:07Z</time>
      </trkpt>
      <trkpt lat="39.406835" lon="-6.354829">
        <ele>434.847</ele>
        <time>2019-02-27T05:08:08Z</time>
      </trkpt>
      <trkpt lat="39.406859" lon="-6.354845">
        <ele>434.711</ele>
        <time>2019-02-27T05:08:09Z</time>
      </trkpt>
      <trkpt lat="39.406889" lon="-6.354849">
        <ele>435.008</ele>
        <time>2019-02-27T05:08:10Z</time>
      </trkpt>
      <trkpt lat="39.406923" lon="-6.354840">
        <ele>435.215</ele>
        <time>2019-02-27T05:08:11Z</time>
      </trkpt>
      <trkpt lat="39.407196" lon="-6.354766">
        <ele>436.296</ele>
        <time>2019-02-27T05:08:24Z</time>
      </trkpt>
      <trkpt lat="39.407608" lon="-6.354697">
        <ele>437.177</ele>
        <time>2019-02-27T05:08:39Z</time>
      </trkpt>
      <trkpt lat="39.408139" lon="-6.354581">
        <ele>439.676</ele>
        <time>2019-02-27T05:08:58Z</time>
      </trkpt>
      <trkpt lat="39.408480" lon="-6.354490">
        <ele>441.760</ele>
        <time>2019-02-27T05:09:14Z</time>
      </trkpt>
      <trkpt lat="39.408760" lon="-6.354422">
        <ele>443.583</ele>
        <time>2019-02-27T05:09:29Z</time>
      </trkpt>
      <trkpt lat="39.408759" lon="-6.354420">
        <ele>443.592</ele>
        <time>2019-02-27T05:09:31Z</time>
      </trkpt>
      <trkpt lat="39.408834" lon="-6.354407">
        <ele>444.091</ele>
        <time>2019-02-27T05:09:39Z</time>
      </trkpt>
      <trkpt lat="39.409028" lon="-6.354352">
        <ele>445.243</ele>
        <time>2019-02-27T05:09:57Z</time>
      </trkpt>
      <trkpt lat="39.409071" lon="-6.354337">
        <ele>445.564</ele>
        <time>2019-02-27T05:10:03Z</time>
      </trkpt>
      <trkpt lat="39.409377" lon="-6.354255">
        <ele>447.710</ele>
        <time>2019-02-27T05:10:17Z</time>
      </trkpt>
      <trkpt lat="39.409642" lon="-6.354202">
        <ele>449.508</ele>
        <time>2019-02-27T05:10:32Z</time>
      </trkpt>
      <trkpt lat="39.409826" lon="-6.354172">
        <ele>450.587</ele>
        <time>2019-02-27T05:10:45Z</time>
      </trkpt>
      <trkpt lat="39.409839" lon="-6.354162">
        <ele>450.588</ele>
        <time>2019-02-27T05:10:46Z</time>
      </trkpt>
      <trkpt lat="39.409855" lon="-6.354154">
        <ele>450.639</ele>
        <time>2019-02-27T05:10:47Z</time>
      </trkpt>
      <trkpt lat="39.409871" lon="-6.354147">
        <ele>450.788</ele>
        <time>2019-02-27T05:10:48Z</time>
      </trkpt>
      <trkpt lat="39.409885" lon="-6.354141">
        <ele>450.812</ele>
        <time>2019-02-27T05:10:49Z</time>
      </trkpt>
      <trkpt lat="39.409901" lon="-6.354136">
        <ele>450.895</ele>
        <time>2019-02-27T05:10:50Z</time>
      </trkpt>
      <trkpt lat="39.410196" lon="-6.354096">
        <ele>451.734</ele>
        <time>2019-02-27T05:11:05Z</time>
      </trkpt>
      <trkpt lat="39.410483" lon="-6.354080">
        <ele>451.383</ele>
        <time>2019-02-27T05:11:20Z</time>
      </trkpt>
      <trkpt lat="39.410732" lon="-6.354226">
        <ele>449.723</ele>
        <time>2019-02-27T05:11:32Z</time>
      </trkpt>
      <trkpt lat="39.411102" lon="-6.354472">
        <ele>447.083</ele>
        <time>2019-02-27T05:11:44Z</time>
      </trkpt>
      <trkpt lat="39.411119" lon="-6.354467">
        <ele>446.911</ele>
        <time>2019-02-27T05:11:45Z</time>
      </trkpt>
      <trkpt lat="39.411132" lon="-6.354470">
        <ele>446.808</ele>
        <time>2019-02-27T05:11:46Z</time>
      </trkpt>
      <trkpt lat="39.411145" lon="-6.354476">
        <ele>446.725</ele>
        <time>2019-02-27T05:11:47Z</time>
      </trkpt>
      <trkpt lat="39.411159" lon="-6.354481">
        <ele>446.776</ele>
        <time>2019-02-27T05:11:48Z</time>
      </trkpt>
      <trkpt lat="39.411177" lon="-6.354485">
        <ele>446.687</ele>
        <time>2019-02-27T05:11:49Z</time>
      </trkpt>
      <trkpt lat="39.411197" lon="-6.354488">
        <ele>446.586</ele>
        <time>2019-02-27T05:11:50Z</time>
      </trkpt>
      <trkpt lat="39.411217" lon="-6.354497">
        <ele>446.440</ele>
        <time>2019-02-27T05:11:51Z</time>
      </trkpt>
      <trkpt lat="39.411237" lon="-6.354513">
        <ele>446.453</ele>
        <time>2019-02-27T05:11:52Z</time>
      </trkpt>
      <trkpt lat="39.411258" lon="-6.354529">
        <ele>446.412</ele>
        <time>2019-02-27T05:11:53Z</time>
      </trkpt>
      <trkpt lat="39.411280" lon="-6.354542">
        <ele>446.441</ele>
        <time>2019-02-27T05:11:54Z</time>
      </trkpt>
      <trkpt lat="39.411306" lon="-6.354551">
        <ele>446.473</ele>
        <time>2019-02-27T05:11:55Z</time>
      </trkpt>
      <trkpt lat="39.411339" lon="-6.354562">
        <ele>446.485</ele>
        <time>2019-02-27T05:11:56Z</time>
      </trkpt>
      <trkpt lat="39.411510" lon="-6.354689">
        <ele>446.913</ele>
        <time>2019-02-27T05:12:03Z</time>
      </trkpt>
      <trkpt lat="39.411741" lon="-6.354790">
        <ele>448.608</ele>
        <time>2019-02-27T05:12:19Z</time>
      </trkpt>
      <trkpt lat="39.411994" lon="-6.354843">
        <ele>450.690</ele>
        <time>2019-02-27T05:12:35Z</time>
      </trkpt>
      <trkpt lat="39.412207" lon="-6.354996">
        <ele>451.911</ele>
        <time>2019-02-27T05:12:49Z</time>
      </trkpt>
      <trkpt lat="39.412461" lon="-6.355210">
        <ele>453.322</ele>
        <time>2019-02-27T05:13:01Z</time>
      </trkpt>
      <trkpt lat="39.412763" lon="-6.355484">
        <ele>454.271</ele>
        <time>2019-02-27T05:13:15Z</time>
      </trkpt>
      <trkpt lat="39.413117" lon="-6.355554">
        <ele>455.125</ele>
        <time>2019-02-27T05:13:29Z</time>
      </trkpt>
      <trkpt lat="39.413452" lon="-6.355637">
        <ele>456.448</ele>
        <time>2019-02-27T05:13:43Z</time>
      </trkpt>
      <trkpt lat="39.413801" lon="-6.355657">
        <ele>457.687</ele>
        <time>2019-02-27T05:13:58Z</time>
      </trkpt>
      <trkpt lat="39.414196" lon="-6.355772">
        <ele>459.136</ele>
        <time>2019-02-27T05:14:16Z</time>
      </trkpt>
      <trkpt lat="39.414603" lon="-6.355826">
        <ele>461.263</ele>
        <time>2019-02-27T05:14:35Z</time>
      </trkpt>
      <trkpt lat="39.414957" lon="-6.355898">
        <ele>463.044</ele>
        <time>2019-02-27T05:14:49Z</time>
      </trkpt>
      <trkpt lat="39.415025" lon="-6.355897">
        <ele>463.518</ele>
        <time>2019-02-27T05:14:56Z</time>
      </trkpt>
      <trkpt lat="39.415111" lon="-6.356289">
        <ele>465.008</ele>
        <time>2019-02-27T05:16:12Z</time>
      </trkpt>
      <trkpt lat="39.415110" lon="-6.356263">
        <ele>465.199</ele>
        <time>2019-02-27T05:16:13Z</time>
      </trkpt>
      <trkpt lat="39.415032" lon="-6.355902">
        <ele>466.170</ele>
        <time>2019-02-27T05:16:42Z</time>
      </trkpt>
      <trkpt lat="39.415031" lon="-6.355915">
        <ele>466.121</ele>
        <time>2019-02-27T05:17:29Z</time>
      </trkpt>
      <trkpt lat="39.415042" lon="-6.355943">
        <ele>466.270</ele>
        <time>2019-02-27T05:17:42Z</time>
      </trkpt>
      <trkpt lat="39.415040" lon="-6.355933">
        <ele>466.274</ele>
        <time>2019-02-27T05:17:43Z</time>
      </trkpt>
      <trkpt lat="39.415064" lon="-6.355893">
        <ele>466.397</ele>
        <time>2019-02-27T05:17:52Z</time>
      </trkpt>
      <trkpt lat="39.415159" lon="-6.355881">
        <ele>466.416</ele>
        <time>2019-02-27T05:17:58Z</time>
      </trkpt>
      <trkpt lat="39.415180" lon="-6.355884">
        <ele>466.435</ele>
        <time>2019-02-27T05:17:59Z</time>
      </trkpt>
      <trkpt lat="39.415198" lon="-6.355886">
        <ele>466.498</ele>
        <time>2019-02-27T05:18:00Z</time>
      </trkpt>
      <trkpt lat="39.415217" lon="-6.355886">
        <ele>466.415</ele>
        <time>2019-02-27T05:18:01Z</time>
      </trkpt>
      <trkpt lat="39.415237" lon="-6.355882">
        <ele>466.526</ele>
        <time>2019-02-27T05:18:02Z</time>
      </trkpt>
      <trkpt lat="39.415255" lon="-6.355879">
        <ele>466.508</ele>
        <time>2019-02-27T05:18:03Z</time>
      </trkpt>
      <trkpt lat="39.415273" lon="-6.355877">
        <ele>466.512</ele>
        <time>2019-02-27T05:18:04Z</time>
      </trkpt>
      <trkpt lat="39.415290" lon="-6.355870">
        <ele>466.593</ele>
        <time>2019-02-27T05:18:05Z</time>
      </trkpt>
      <trkpt lat="39.415308" lon="-6.355862">
        <ele>466.594</ele>
        <time>2019-02-27T05:18:06Z</time>
      </trkpt>
      <trkpt lat="39.415356" lon="-6.355841">
        <ele>466.693</ele>
        <time>2019-02-27T05:18:13Z</time>
      </trkpt>
      <trkpt lat="39.415495" lon="-6.355814">
        <ele>466.737</ele>
        <time>2019-02-27T05:18:36Z</time>
      </trkpt>
      <trkpt lat="39.415815" lon="-6.355782">
        <ele>467.730</ele>
        <time>2019-02-27T05:18:51Z</time>
      </trkpt>
      <trkpt lat="39.416206" lon="-6.355793">
        <ele>468.789</ele>
        <time>2019-02-27T05:19:08Z</time>
      </trkpt>
      <trkpt lat="39.416548" lon="-6.355815">
        <ele>470.488</ele>
        <time>2019-02-27T05:19:23Z</time>
      </trkpt>
      <trkpt lat="39.416852" lon="-6.355811">
        <ele>473.088</ele>
        <time>2019-02-27T05:19:38Z</time>
      </trkpt>
      <trkpt lat="39.416952" lon="-6.355783">
        <ele>474.124</ele>
        <time>2019-02-27T05:19:43Z</time>
      </trkpt>
      <trkpt lat="39.416968" lon="-6.355764">
        <ele>474.326</ele>
        <time>2019-02-27T05:19:44Z</time>
      </trkpt>
      <trkpt lat="39.417199" lon="-6.355672">
        <ele>475.408</ele>
        <time>2019-02-27T05:19:57Z</time>
      </trkpt>
      <trkpt lat="39.417223" lon="-6.355681">
        <ele>475.551</ele>
        <time>2019-02-27T05:20:02Z</time>
      </trkpt>
      <trkpt lat="39.417281" lon="-6.355715">
        <ele>475.622</ele>
        <time>2019-02-27T05:20:10Z</time>
      </trkpt>
      <trkpt lat="39.417485" lon="-6.355760">
        <ele>475.993</ele>
        <time>2019-02-27T05:20:29Z</time>
      </trkpt>
      <trkpt lat="39.417488" lon="-6.355753">
        <ele>475.982</ele>
        <time>2019-02-27T05:20:32Z</time>
      </trkpt>
      <trkpt lat="39.417564" lon="-6.355804">
        <ele>476.056</ele>
        <time>2019-02-27T05:22:55Z</time>
      </trkpt>
      <trkpt lat="39.417581" lon="-6.355808">
        <ele>476.129</ele>
        <time>2019-02-27T05:22:56Z</time>
      </trkpt>
      <trkpt lat="39.417599" lon="-6.355813">
        <ele>476.148</ele>
        <time>2019-02-27T05:22:57Z</time>
      </trkpt>
      <trkpt lat="39.417617" lon="-6.355818">
        <ele>476.147</ele>
        <time>2019-02-27T05:22:58Z</time>
      </trkpt>
      <trkpt lat="39.417635" lon="-6.355823">
        <ele>476.166</ele>
        <time>2019-02-27T05:22:59Z</time>
      </trkpt>
      <trkpt lat="39.417651" lon="-6.355824">
        <ele>476.129</ele>
        <time>2019-02-27T05:23:00Z</time>
      </trkpt>
      <trkpt lat="39.417927" lon="-6.355876">
        <ele>476.421</ele>
        <time>2019-02-27T05:23:16Z</time>
      </trkpt>
      <trkpt lat="39.418370" lon="-6.355858">
        <ele>477.008</ele>
        <time>2019-02-27T05:23:31Z</time>
      </trkpt>
      <trkpt lat="39.418821" lon="-6.355880">
        <ele>477.569</ele>
        <time>2019-02-27T05:23:44Z</time>
      </trkpt>
      <trkpt lat="39.419278" lon="-6.355962">
        <ele>477.720</ele>
        <time>2019-02-27T05:23:56Z</time>
      </trkpt>
      <trkpt lat="39.419320" lon="-6.355960">
        <ele>477.781</ele>
        <time>2019-02-27T05:23:57Z</time>
      </trkpt>
      <trkpt lat="39.419444" lon="-6.355954">
        <ele>477.750</ele>
        <time>2019-02-27T05:24:00Z</time>
      </trkpt>
      <trkpt lat="39.419487" lon="-6.355952">
        <ele>477.784</ele>
        <time>2019-02-27T05:24:01Z</time>
      </trkpt>
      <trkpt lat="39.419532" lon="-6.355954">
        <ele>477.797</ele>
        <time>2019-02-27T05:24:02Z</time>
      </trkpt>
      <trkpt lat="39.419573" lon="-6.355959">
        <ele>477.786</ele>
        <time>2019-02-27T05:24:03Z</time>
      </trkpt>
      <trkpt lat="39.419613" lon="-6.355965">
        <ele>477.675</ele>
        <time>2019-02-27T05:24:04Z</time>
      </trkpt>
      <trkpt lat="39.419650" lon="-6.355973">
        <ele>477.511</ele>
        <time>2019-02-27T05:24:05Z</time>
      </trkpt>
      <trkpt lat="39.419690" lon="-6.355980">
        <ele>477.521</ele>
        <time>2019-02-27T05:24:06Z</time>
      </trkpt>
      <trkpt lat="39.419728" lon="-6.355993">
        <ele>477.403</ele>
        <time>2019-02-27T05:24:07Z</time>
      </trkpt>
      <trkpt lat="39.419765" lon="-6.356009">
        <ele>477.408</ele>
        <time>2019-02-27T05:24:08Z</time>
      </trkpt>
      <trkpt lat="39.419842" lon="-6.356024">
        <ele>477.274</ele>
        <time>2019-02-27T05:24:10Z</time>
      </trkpt>
      <trkpt lat="39.419886" lon="-6.356024">
        <ele>477.175</ele>
        <time>2019-02-27T05:24:11Z</time>
      </trkpt>
      <trkpt lat="39.420202" lon="-6.355996">
        <ele>476.576</ele>
        <time>2019-02-27T05:24:18Z</time>
      </trkpt>
      <trkpt lat="39.420250" lon="-6.356002">
        <ele>476.415</ele>
        <time>2019-02-27T05:24:19Z</time>
      </trkpt>
      <trkpt lat="39.420299" lon="-6.356006">
        <ele>476.399</ele>
        <time>2019-02-27T05:24:20Z</time>
      </trkpt>
      <trkpt lat="39.420445" lon="-6.356009">
        <ele>476.142</ele>
        <time>2019-02-27T05:24:23Z</time>
      </trkpt>
      <trkpt lat="39.420494" lon="-6.356014">
        <ele>476.111</ele>
        <time>2019-02-27T05:24:24Z</time>
      </trkpt>
      <trkpt lat="39.420543" lon="-6.356019">
        <ele>476.060</ele>
        <time>2019-02-27T05:24:25Z</time>
      </trkpt>
      <trkpt lat="39.420593" lon="-6.356030">
        <ele>475.988</ele>
        <time>2019-02-27T05:24:26Z</time>
      </trkpt>
      <trkpt lat="39.420643" lon="-6.356044">
        <ele>475.824</ele>
        <time>2019-02-27T05:24:27Z</time>
      </trkpt>
      <trkpt lat="39.420956" lon="-6.356167">
        <ele>475.426</ele>
        <time>2019-02-27T05:24:35Z</time>
      </trkpt>
      <trkpt lat="39.420987" lon="-6.356173">
        <ele>475.308</ele>
        <time>2019-02-27T05:24:36Z</time>
      </trkpt>
      <trkpt lat="39.421021" lon="-6.356180">
        <ele>475.211</ele>
        <time>2019-02-27T05:24:37Z</time>
      </trkpt>
      <trkpt lat="39.421061" lon="-6.356190">
        <ele>475.282</ele>
        <time>2019-02-27T05:24:38Z</time>
      </trkpt>
      <trkpt lat="39.421104" lon="-6.356200">
        <ele>475.143</ele>
        <time>2019-02-27T05:24:39Z</time>
      </trkpt>
      <trkpt lat="39.421149" lon="-6.356214">
        <ele>475.052</ele>
        <time>2019-02-27T05:24:40Z</time>
      </trkpt>
      <trkpt lat="39.421278" lon="-6.356265">
        <ele>474.626</ele>
        <time>2019-02-27T05:24:43Z</time>
      </trkpt>
      <trkpt lat="39.421319" lon="-6.356282">
        <ele>474.519</ele>
        <time>2019-02-27T05:24:44Z</time>
      </trkpt>
      <trkpt lat="39.421359" lon="-6.356292">
        <ele>474.338</ele>
        <time>2019-02-27T05:24:45Z</time>
      </trkpt>
      <trkpt lat="39.421551" lon="-6.356307">
        <ele>473.347</ele>
        <time>2019-02-27T05:24:50Z</time>
      </trkpt>
      <trkpt lat="39.422000" lon="-6.356370">
        <ele>470.279</ele>
        <time>2019-02-27T05:25:05Z</time>
      </trkpt>
      <trkpt lat="39.422326" lon="-6.356567">
        <ele>469.605</ele>
        <time>2019-02-27T05:25:18Z</time>
      </trkpt>
      <trkpt lat="39.422691" lon="-6.356668">
        <ele>470.325</ele>
        <time>2019-02-27T05:25:33Z</time>
      </trkpt>
      <trkpt lat="39.423008" lon="-6.356804">
        <ele>468.508</ele>
        <time>2019-02-27T05:25:43Z</time>
      </trkpt>
      <trkpt lat="39.423053" lon="-6.356826">
        <ele>468.470</ele>
        <time>2019-02-27T05:25:44Z</time>
      </trkpt>
      <trkpt lat="39.423100" lon="-6.356843">
        <ele>468.391</ele>
        <time>2019-02-27T05:25:45Z</time>
      </trkpt>
      <trkpt lat="39.423435" lon="-6.356953">
        <ele>467.762</ele>
        <time>2019-02-27T05:25:52Z</time>
      </trkpt>
      <trkpt lat="39.423484" lon="-6.356961">
        <ele>467.651</ele>
        <time>2019-02-27T05:25:53Z</time>
      </trkpt>
      <trkpt lat="39.423532" lon="-6.356972">
        <ele>467.555</ele>
        <time>2019-02-27T05:25:54Z</time>
      </trkpt>
      <trkpt lat="39.423966" lon="-6.357119">
        <ele>467.438</ele>
        <time>2019-02-27T05:26:05Z</time>
      </trkpt>
      <trkpt lat="39.424444" lon="-6.357279">
        <ele>467.727</ele>
        <time>2019-02-27T05:26:19Z</time>
      </trkpt>
      <trkpt lat="39.424811" lon="-6.357510">
        <ele>467.916</ele>
        <time>2019-02-27T05:26:31Z</time>
      </trkpt>
      <trkpt lat="39.425306" lon="-6.357713">
        <ele>469.091</ele>
        <time>2019-02-27T05:26:47Z</time>
      </trkpt>
      <trkpt lat="39.425659" lon="-6.357952">
        <ele>470.581</ele>
        <time>2019-02-27T05:27:02Z</time>
      </trkpt>
      <trkpt lat="39.425987" lon="-6.358011">
        <ele>472.819</ele>
        <time>2019-02-27T05:27:19Z</time>
      </trkpt>
      <trkpt lat="39.426264" lon="-6.358124">
        <ele>474.608</ele>
        <time>2019-02-27T05:27:34Z</time>
      </trkpt>
      <trkpt lat="39.426533" lon="-6.358344">
        <ele>475.012</ele>
        <time>2019-02-27T05:27:48Z</time>
      </trkpt>
      <trkpt lat="39.426734" lon="-6.358448">
        <ele>474.173</ele>
        <time>2019-02-27T05:27:54Z</time>
      </trkpt>
      <trkpt lat="39.426897" lon="-6.358520">
        <ele>473.414</ele>
        <time>2019-02-27T05:27:58Z</time>
      </trkpt>
      <trkpt lat="39.427203" lon="-6.358545">
        <ele>472.133</ele>
        <time>2019-02-27T05:28:07Z</time>
      </trkpt>
      <trkpt lat="39.427247" lon="-6.358541">
        <ele>471.947</ele>
        <time>2019-02-27T05:28:08Z</time>
      </trkpt>
      <trkpt lat="39.427343" lon="-6.358520">
        <ele>471.550</ele>
        <time>2019-02-27T05:28:10Z</time>
      </trkpt>
      <trkpt lat="39.427987" lon="-6.358450">
        <ele>469.879</ele>
        <time>2019-02-27T05:28:23Z</time>
      </trkpt>
      <trkpt lat="39.428032" lon="-6.358456">
        <ele>469.768</ele>
        <time>2019-02-27T05:28:24Z</time>
      </trkpt>
      <trkpt lat="39.428075" lon="-6.358464">
        <ele>469.677</ele>
        <time>2019-02-27T05:28:25Z</time>
      </trkpt>
      <trkpt lat="39.428118" lon="-6.358476">
        <ele>469.661</ele>
        <time>2019-02-27T05:28:26Z</time>
      </trkpt>
      <trkpt lat="39.428160" lon="-6.358492">
        <ele>469.527</ele>
        <time>2019-02-27T05:28:27Z</time>
      </trkpt>
      <trkpt lat="39.428201" lon="-6.358500">
        <ele>469.408</ele>
        <time>2019-02-27T05:28:28Z</time>
      </trkpt>
      <trkpt lat="39.428329" lon="-6.358494">
        <ele>469.270</ele>
        <time>2019-02-27T05:28:31Z</time>
      </trkpt>
      <trkpt lat="39.428371" lon="-6.358493">
        <ele>469.111</ele>
        <time>2019-02-27T05:28:32Z</time>
      </trkpt>
      <trkpt lat="39.428413" lon="-6.358500">
        <ele>469.042</ele>
        <time>2019-02-27T05:28:33Z</time>
      </trkpt>
      <trkpt lat="39.428457" lon="-6.358509">
        <ele>468.971</ele>
        <time>2019-02-27T05:28:34Z</time>
      </trkpt>
      <trkpt lat="39.428499" lon="-6.358514">
        <ele>468.825</ele>
        <time>2019-02-27T05:28:35Z</time>
      </trkpt>
      <trkpt lat="39.428825" lon="-6.358634">
        <ele>467.898</ele>
        <time>2019-02-27T05:28:42Z</time>
      </trkpt>
      <trkpt lat="39.428871" lon="-6.358663">
        <ele>467.537</ele>
        <time>2019-02-27T05:28:43Z</time>
      </trkpt>
      <trkpt lat="39.428911" lon="-6.358699">
        <ele>467.256</ele>
        <time>2019-02-27T05:28:44Z</time>
      </trkpt>
      <trkpt lat="39.428942" lon="-6.358744">
        <ele>466.978</ele>
        <time>2019-02-27T05:28:45Z</time>
      </trkpt>
      <trkpt lat="39.428974" lon="-6.358791">
        <ele>466.533</ele>
        <time>2019-02-27T05:28:46Z</time>
      </trkpt>
      <trkpt lat="39.429193" lon="-6.359038">
        <ele>463.926</ele>
        <time>2019-02-27T05:28:54Z</time>
      </trkpt>
      <trkpt lat="39.429533" lon="-6.359233">
        <ele>462.808</ele>
        <time>2019-02-27T05:29:01Z</time>
      </trkpt>
      <trkpt lat="39.430192" lon="-6.359600">
        <ele>463.080</ele>
        <time>2019-02-27T05:29:14Z</time>
      </trkpt>
      <trkpt lat="39.430765" lon="-6.359803">
        <ele>463.871</ele>
        <time>2019-02-27T05:29:29Z</time>
      </trkpt>
      <trkpt lat="39.431286" lon="-6.360114">
        <ele>465.012</ele>
        <time>2019-02-27T05:29:46Z</time>
      </trkpt>
      <trkpt lat="39.431830" lon="-6.360460">
        <ele>466.441</ele>
        <time>2019-02-27T05:30:03Z</time>
      </trkpt>
      <trkpt lat="39.432355" lon="-6.360884">
        <ele>468.165</ele>
        <time>2019-02-27T05:30:20Z</time>
      </trkpt>
      <trkpt lat="39.432881" lon="-6.361248">
        <ele>469.748</ele>
        <time>2019-02-27T05:30:36Z</time>
      </trkpt>
      <trkpt lat="39.433317" lon="-6.361622">
        <ele>471.177</ele>
        <time>2019-02-27T05:30:52Z</time>
      </trkpt>
      <trkpt lat="39.433725" lon="-6.361930">
        <ele>471.866</ele>
        <time>2019-02-27T05:31:09Z</time>
      </trkpt>
      <trkpt lat="39.434261" lon="-6.362329">
        <ele>471.625</ele>
        <time>2019-02-27T05:31:28Z</time>
      </trkpt>
      <trkpt lat="39.434755" lon="-6.362749">
        <ele>471.826</ele>
        <time>2019-02-27T05:31:44Z</time>
      </trkpt>
      <trkpt lat="39.435109" lon="-6.363144">
        <ele>472.908</ele>
        <time>2019-02-27T05:31:58Z</time>
      </trkpt>
      <trkpt lat="39.435487" lon="-6.363501">
        <ele>473.008</ele>
        <time>2019-02-27T05:32:12Z</time>
      </trkpt>
      <trkpt lat="39.436042" lon="-6.363796">
        <ele>472.215</ele>
        <time>2019-02-27T05:32:25Z</time>
      </trkpt>
      <trkpt lat="39.436131" lon="-6.363836">
        <ele>472.046</ele>
        <time>2019-02-27T05:32:27Z</time>
      </trkpt>
      <trkpt lat="39.436254" lon="-6.363913">
        <ele>471.877</ele>
        <time>2019-02-27T05:32:30Z</time>
      </trkpt>
      <trkpt lat="39.436295" lon="-6.363929">
        <ele>471.636</ele>
        <time>2019-02-27T05:32:31Z</time>
      </trkpt>
      <trkpt lat="39.436444" lon="-6.363993">
        <ele>471.320</ele>
        <time>2019-02-27T05:32:39Z</time>
      </trkpt>
      <trkpt lat="39.436445" lon="-6.363992">
        <ele>471.313</ele>
        <time>2019-02-27T05:32:40Z</time>
      </trkpt>
      <trkpt lat="39.436501" lon="-6.364035">
        <ele>471.242</ele>
        <time>2019-02-27T05:33:13Z</time>
      </trkpt>
      <trkpt lat="39.436601" lon="-6.364101">
        <ele>470.971</ele>
        <time>2019-02-27T05:33:16Z</time>
      </trkpt>
      <trkpt lat="39.436636" lon="-6.364130">
        <ele>470.827</ele>
        <time>2019-02-27T05:33:17Z</time>
      </trkpt>
      <trkpt lat="39.436746" lon="-6.364233">
        <ele>470.268</ele>
        <time>2019-02-27T05:33:20Z</time>
      </trkpt>
      <trkpt lat="39.436895" lon="-6.364387">
        <ele>469.214</ele>
        <time>2019-02-27T05:33:24Z</time>
      </trkpt>
      <trkpt lat="39.436942" lon="-6.364415">
        <ele>469.008</ele>
        <time>2019-02-27T05:33:25Z</time>
      </trkpt>
      <trkpt lat="39.436988" lon="-6.364432">
        <ele>468.725</ele>
        <time>2019-02-27T05:33:26Z</time>
      </trkpt>
      <trkpt lat="39.437031" lon="-6.364442">
        <ele>468.326</ele>
        <time>2019-02-27T05:33:27Z</time>
      </trkpt>
      <trkpt lat="39.437073" lon="-6.364441">
        <ele>468.137</ele>
        <time>2019-02-27T05:33:28Z</time>
      </trkpt>
      <trkpt lat="39.437114" lon="-6.364431">
        <ele>468.026</ele>
        <time>2019-02-27T05:33:29Z</time>
      </trkpt>
      <trkpt lat="39.437152" lon="-6.364413">
        <ele>467.980</ele>
        <time>2019-02-27T05:33:30Z</time>
      </trkpt>
      <trkpt lat="39.437187" lon="-6.364393">
        <ele>467.833</ele>
        <time>2019-02-27T05:33:31Z</time>
      </trkpt>
      <trkpt lat="39.437300" lon="-6.364349">
        <ele>467.582</ele>
        <time>2019-02-27T05:33:34Z</time>
      </trkpt>
      <trkpt lat="39.437703" lon="-6.364285">
        <ele>466.851</ele>
        <time>2019-02-27T05:33:44Z</time>
      </trkpt>
      <trkpt lat="39.438057" lon="-6.364199">
        <ele>465.629</ele>
        <time>2019-02-27T05:33:52Z</time>
      </trkpt>
      <trkpt lat="39.438097" lon="-6.364189">
        <ele>465.600</ele>
        <time>2019-02-27T05:33:53Z</time>
      </trkpt>
      <trkpt lat="39.438136" lon="-6.364181">
        <ele>465.520</ele>
        <time>2019-02-27T05:33:54Z</time>
      </trkpt>
      <trkpt lat="39.438174" lon="-6.364178">
        <ele>465.508</ele>
        <time>2019-02-27T05:33:55Z</time>
      </trkpt>
      <trkpt lat="39.438213" lon="-6.364177">
        <ele>465.465</ele>
        <time>2019-02-27T05:33:56Z</time>
      </trkpt>
      <trkpt lat="39.438665" lon="-6.364216">
        <ele>463.836</ele>
        <time>2019-02-27T05:34:08Z</time>
      </trkpt>
      <trkpt lat="39.439098" lon="-6.364207">
        <ele>463.557</ele>
        <time>2019-02-27T05:34:18Z</time>
      </trkpt>
      <trkpt lat="39.439360" lon="-6.364107">
        <ele>463.466</ele>
        <time>2019-02-27T05:34:25Z</time>
      </trkpt>
      <trkpt lat="39.439400" lon="-6.364092">
        <ele>463.360</ele>
        <time>2019-02-27T05:34:26Z</time>
      </trkpt>
      <trkpt lat="39.439441" lon="-6.364086">
        <ele>463.223</ele>
        <time>2019-02-27T05:34:27Z</time>
      </trkpt>
      <trkpt lat="39.439482" lon="-6.364084">
        <ele>463.192</ele>
        <time>2019-02-27T05:34:28Z</time>
      </trkpt>
      <trkpt lat="39.439521" lon="-6.364076">
        <ele>463.061</ele>
        <time>2019-02-27T05:34:29Z</time>
      </trkpt>
      <trkpt lat="39.439559" lon="-6.364062">
        <ele>462.916</ele>
        <time>2019-02-27T05:34:30Z</time>
      </trkpt>
      <trkpt lat="39.439599" lon="-6.364045">
        <ele>462.776</ele>
        <time>2019-02-27T05:34:31Z</time>
      </trkpt>
      <trkpt lat="39.439642" lon="-6.364030">
        <ele>462.513</ele>
        <time>2019-02-27T05:34:32Z</time>
      </trkpt>
      <trkpt lat="39.439691" lon="-6.364017">
        <ele>462.308</ele>
        <time>2019-02-27T05:34:33Z</time>
      </trkpt>
      <trkpt lat="39.439742" lon="-6.364008">
        <ele>462.114</ele>
        <time>2019-02-27T05:34:34Z</time>
      </trkpt>
      <trkpt lat="39.440314" lon="-6.363997">
        <ele>460.355</ele>
        <time>2019-02-27T05:34:44Z</time>
      </trkpt>
      <trkpt lat="39.440372" lon="-6.363996">
        <ele>460.156</ele>
        <time>2019-02-27T05:34:45Z</time>
      </trkpt>
      <trkpt lat="39.441150" lon="-6.363996">
        <ele>457.995</ele>
        <time>2019-02-27T05:34:58Z</time>
      </trkpt>
      <trkpt lat="39.441199" lon="-6.364002">
        <ele>457.889</ele>
        <time>2019-02-27T05:34:59Z</time>
      </trkpt>
      <trkpt lat="39.441243" lon="-6.363998">
        <ele>457.712</ele>
        <time>2019-02-27T05:35:00Z</time>
      </trkpt>
      <trkpt lat="39.441328" lon="-6.363987">
        <ele>457.641</ele>
        <time>2019-02-27T05:35:02Z</time>
      </trkpt>
      <trkpt lat="39.441369" lon="-6.363988">
        <ele>457.530</ele>
        <time>2019-02-27T05:35:03Z</time>
      </trkpt>
      <trkpt lat="39.441497" lon="-6.363995">
        <ele>457.219</ele>
        <time>2019-02-27T05:35:06Z</time>
      </trkpt>
      <trkpt lat="39.441590" lon="-6.364014">
        <ele>456.909</ele>
        <time>2019-02-27T05:35:08Z</time>
      </trkpt>
      <trkpt lat="39.442354" lon="-6.364044">
        <ele>454.819</ele>
        <time>2019-02-27T05:35:24Z</time>
      </trkpt>
      <trkpt lat="39.442485" lon="-6.364090">
        <ele>454.508</ele>
        <time>2019-02-27T05:35:27Z</time>
      </trkpt>
      <trkpt lat="39.442531" lon="-6.364099">
        <ele>454.534</ele>
        <time>2019-02-27T05:35:28Z</time>
      </trkpt>
      <trkpt lat="39.442842" lon="-6.364160">
        <ele>454.255</ele>
        <time>2019-02-27T05:35:34Z</time>
      </trkpt>
      <trkpt lat="39.443671" lon="-6.364338">
        <ele>453.676</ele>
        <time>2019-02-27T05:35:47Z</time>
      </trkpt>
      <trkpt lat="39.444774" lon="-6.364569">
        <ele>452.645</ele>
        <time>2019-02-27T05:36:04Z</time>
      </trkpt>
      <trkpt lat="39.445571" lon="-6.364658">
        <ele>451.699</ele>
        <time>2019-02-27T05:36:17Z</time>
      </trkpt>
      <trkpt lat="39.445980" lon="-6.364711">
        <ele>451.572</ele>
        <time>2019-02-27T05:36:24Z</time>
      </trkpt>
      <trkpt lat="39.446483" lon="-6.364757">
        <ele>451.521</ele>
        <time>2019-02-27T05:36:33Z</time>
      </trkpt>
      <trkpt lat="39.446811" lon="-6.364821">
        <ele>451.370</ele>
        <time>2019-02-27T05:36:40Z</time>
      </trkpt>
      <trkpt lat="39.446860" lon="-6.364822">
        <ele>451.256</ele>
        <time>2019-02-27T05:36:41Z</time>
      </trkpt>
      <trkpt lat="39.447013" lon="-6.364821">
        <ele>451.159</ele>
        <time>2019-02-27T05:36:44Z</time>
      </trkpt>
      <trkpt lat="39.447436" lon="-6.364751">
        <ele>450.414</ele>
        <time>2019-02-27T05:36:52Z</time>
      </trkpt>
      <trkpt lat="39.447489" lon="-6.364753">
        <ele>450.208</ele>
        <time>2019-02-27T05:36:53Z</time>
      </trkpt>
      <trkpt lat="39.448333" lon="-6.364799">
        <ele>447.578</ele>
        <time>2019-02-27T05:37:09Z</time>
      </trkpt>
      <trkpt lat="39.448434" lon="-6.364824">
        <ele>447.289</ele>
        <time>2019-02-27T05:37:11Z</time>
      </trkpt>
      <trkpt lat="39.448483" lon="-6.364842">
        <ele>447.060</ele>
        <time>2019-02-27T05:37:12Z</time>
      </trkpt>
      <trkpt lat="39.448532" lon="-6.364853">
        <ele>446.979</ele>
        <time>2019-02-27T05:37:13Z</time>
      </trkpt>
      <trkpt lat="39.448854" lon="-6.364885">
        <ele>446.063</ele>
        <time>2019-02-27T05:37:20Z</time>
      </trkpt>
      <trkpt lat="39.448895" lon="-6.364879">
        <ele>445.946</ele>
        <time>2019-02-27T05:37:21Z</time>
      </trkpt>
      <trkpt lat="39.448935" lon="-6.364879">
        <ele>445.855</ele>
        <time>2019-02-27T05:37:22Z</time>
      </trkpt>
      <trkpt lat="39.449305" lon="-6.365078">
        <ele>445.054</ele>
        <time>2019-02-27T05:37:33Z</time>
      </trkpt>
      <trkpt lat="39.449404" lon="-6.365282">
        <ele>444.553</ele>
        <time>2019-02-27T05:37:37Z</time>
      </trkpt>
      <trkpt lat="39.449440" lon="-6.365325">
        <ele>444.404</ele>
        <time>2019-02-27T05:37:38Z</time>
      </trkpt>
      <trkpt lat="39.449481" lon="-6.365356">
        <ele>444.314</ele>
        <time>2019-02-27T05:37:39Z</time>
      </trkpt>
      <trkpt lat="39.449848" lon="-6.365488">
        <ele>443.908</ele>
        <time>2019-02-27T05:37:49Z</time>
      </trkpt>
      <trkpt lat="39.450302" lon="-6.365565">
        <ele>443.738</ele>
        <time>2019-02-27T05:37:59Z</time>
      </trkpt>
      <trkpt lat="39.450803" lon="-6.365704">
        <ele>444.389</ele>
        <time>2019-02-27T05:38:11Z</time>
      </trkpt>
      <trkpt lat="39.451270" lon="-6.365734">
        <ele>444.730</ele>
        <time>2019-02-27T05:38:21Z</time>
      </trkpt>
      <trkpt lat="39.451779" lon="-6.365824">
        <ele>444.519</ele>
        <time>2019-02-27T05:38:33Z</time>
      </trkpt>
      <trkpt lat="39.451998" lon="-6.365862">
        <ele>444.033</ele>
        <time>2019-02-27T05:38:38Z</time>
      </trkpt>
      <trkpt lat="39.452044" lon="-6.365877">
        <ele>443.936</ele>
        <time>2019-02-27T05:38:39Z</time>
      </trkpt>
      <trkpt lat="39.452090" lon="-6.365894">
        <ele>443.885</ele>
        <time>2019-02-27T05:38:40Z</time>
      </trkpt>
      <trkpt lat="39.452698" lon="-6.366033">
        <ele>442.234</ele>
        <time>2019-02-27T05:38:51Z</time>
      </trkpt>
      <trkpt lat="39.452751" lon="-6.366040">
        <ele>442.073</ele>
        <time>2019-02-27T05:38:52Z</time>
      </trkpt>
      <trkpt lat="39.452804" lon="-6.366048">
        <ele>441.985</ele>
        <time>2019-02-27T05:38:53Z</time>
      </trkpt>
      <trkpt lat="39.452850" lon="-6.366074">
        <ele>441.713</ele>
        <time>2019-02-27T05:38:54Z</time>
      </trkpt>
      <trkpt lat="39.452964" lon="-6.366137">
        <ele>441.508</ele>
        <time>2019-02-27T05:38:57Z</time>
      </trkpt>
      <trkpt lat="39.453011" lon="-6.366146">
        <ele>441.460</ele>
        <time>2019-02-27T05:38:58Z</time>
      </trkpt>
      <trkpt lat="39.453217" lon="-6.366174">
        <ele>441.171</ele>
        <time>2019-02-27T05:39:06Z</time>
      </trkpt>
      <trkpt lat="39.453546" lon="-6.366290">
        <ele>440.522</ele>
        <time>2019-02-27T05:39:16Z</time>
      </trkpt>
      <trkpt lat="39.453588" lon="-6.366319">
        <ele>440.481</ele>
        <time>2019-02-27T05:39:17Z</time>
      </trkpt>
      <trkpt lat="39.453638" lon="-6.366342">
        <ele>440.445</ele>
        <time>2019-02-27T05:39:18Z</time>
      </trkpt>
      <trkpt lat="39.454065" lon="-6.366630">
        <ele>440.418</ele>
        <time>2019-02-27T05:39:29Z</time>
      </trkpt>
      <trkpt lat="39.454105" lon="-6.366659">
        <ele>440.417</ele>
        <time>2019-02-27T05:39:30Z</time>
      </trkpt>
      <trkpt lat="39.454144" lon="-6.366683">
        <ele>440.486</ele>
        <time>2019-02-27T05:39:31Z</time>
      </trkpt>
      <trkpt lat="39.454183" lon="-6.366707">
        <ele>440.458</ele>
        <time>2019-02-27T05:39:32Z</time>
      </trkpt>
      <trkpt lat="39.454416" lon="-6.366853">
        <ele>440.652</ele>
        <time>2019-02-27T05:39:38Z</time>
      </trkpt>
      <trkpt lat="39.454446" lon="-6.366840">
        <ele>440.617</ele>
        <time>2019-02-27T05:39:39Z</time>
      </trkpt>
      <trkpt lat="39.454472" lon="-6.366809">
        <ele>440.108</ele>
        <time>2019-02-27T05:39:40Z</time>
      </trkpt>
      <trkpt lat="39.454492" lon="-6.366767">
        <ele>440.098</ele>
        <time>2019-02-27T05:39:41Z</time>
      </trkpt>
      <trkpt lat="39.454510" lon="-6.366723">
        <ele>439.979</ele>
        <time>2019-02-27T05:39:42Z</time>
      </trkpt>
      <trkpt lat="39.454578" lon="-6.366592">
        <ele>439.780</ele>
        <time>2019-02-27T05:39:45Z</time>
      </trkpt>
      <trkpt lat="39.454617" lon="-6.366556">
        <ele>439.639</ele>
        <time>2019-02-27T05:39:46Z</time>
      </trkpt>
      <trkpt lat="39.454664" lon="-6.366533">
        <ele>438.883</ele>
        <time>2019-02-27T05:39:47Z</time>
      </trkpt>
      <trkpt lat="39.454719" lon="-6.366521">
        <ele>438.386</ele>
        <time>2019-02-27T05:39:48Z</time>
      </trkpt>
      <trkpt lat="39.454777" lon="-6.366524">
        <ele>437.895</ele>
        <time>2019-02-27T05:39:49Z</time>
      </trkpt>
      <trkpt lat="39.454837" lon="-6.366539">
        <ele>437.474</ele>
        <time>2019-02-27T05:39:50Z</time>
      </trkpt>
      <trkpt lat="39.454893" lon="-6.366560">
        <ele>437.278</ele>
        <time>2019-02-27T05:39:51Z</time>
      </trkpt>
      <trkpt lat="39.455177" lon="-6.366674">
        <ele>436.733</ele>
        <time>2019-02-27T05:39:56Z</time>
      </trkpt>
      <trkpt lat="39.455279" lon="-6.366727">
        <ele>436.626</ele>
        <time>2019-02-27T05:39:58Z</time>
      </trkpt>
      <trkpt lat="39.456045" lon="-6.367014">
        <ele>436.208</ele>
        <time>2019-02-27T05:40:12Z</time>
      </trkpt>
      <trkpt lat="39.456941" lon="-6.367342">
        <ele>435.030</ele>
        <time>2019-02-27T05:40:27Z</time>
      </trkpt>
      <trkpt lat="39.457558" lon="-6.367423">
        <ele>435.081</ele>
        <time>2019-02-27T05:40:37Z</time>
      </trkpt>
      <trkpt lat="39.457619" lon="-6.367435">
        <ele>435.192</ele>
        <time>2019-02-27T05:40:38Z</time>
      </trkpt>
      <trkpt lat="39.458544" lon="-6.367550">
        <ele>435.771</ele>
        <time>2019-02-27T05:40:53Z</time>
      </trkpt>
      <trkpt lat="39.458666" lon="-6.367547">
        <ele>435.835</ele>
        <time>2019-02-27T05:40:55Z</time>
      </trkpt>
      <trkpt lat="39.459418" lon="-6.367419">
        <ele>436.198</ele>
        <time>2019-02-27T05:41:08Z</time>
      </trkpt>
      <trkpt lat="39.459470" lon="-6.367404">
        <ele>436.157</ele>
        <time>2019-02-27T05:41:09Z</time>
      </trkpt>
      <trkpt lat="39.460258" lon="-6.367219">
        <ele>436.266</ele>
        <time>2019-02-27T05:41:25Z</time>
      </trkpt>
      <trkpt lat="39.460367" lon="-6.367196">
        <ele>436.468</ele>
        <time>2019-02-27T05:41:27Z</time>
      </trkpt>
      <trkpt lat="39.460424" lon="-6.367183">
        <ele>436.442</ele>
        <time>2019-02-27T05:41:28Z</time>
      </trkpt>
      <trkpt lat="39.460586" lon="-6.367153">
        <ele>436.526</ele>
        <time>2019-02-27T05:41:31Z</time>
      </trkpt>
      <trkpt lat="39.460644" lon="-6.367145">
        <ele>436.508</ele>
        <time>2019-02-27T05:41:32Z</time>
      </trkpt>
      <trkpt lat="39.460975" lon="-6.367090">
        <ele>435.689</ele>
        <time>2019-02-27T05:41:37Z</time>
      </trkpt>
      <trkpt lat="39.461666" lon="-6.366993">
        <ele>435.950</ele>
        <time>2019-02-27T05:41:49Z</time>
      </trkpt>
      <trkpt lat="39.461951" lon="-6.366991">
        <ele>436.381</ele>
        <time>2019-02-27T05:41:54Z</time>
      </trkpt>
      <trkpt lat="39.462539" lon="-6.367089">
        <ele>436.950</ele>
        <time>2019-02-27T05:42:05Z</time>
      </trkpt>
      <trkpt lat="39.462709" lon="-6.367110">
        <ele>437.094</ele>
        <time>2019-02-27T05:42:15Z</time>
      </trkpt>
      <trkpt lat="39.462734" lon="-6.367096">
        <ele>437.087</ele>
        <time>2019-02-27T05:42:17Z</time>
      </trkpt>
      <trkpt lat="39.462752" lon="-6.367064">
        <ele>437.036</ele>
        <time>2019-02-27T05:42:23Z</time>
      </trkpt>
      <trkpt lat="39.462761" lon="-6.367136">
        <ele>437.055</ele>
        <time>2019-02-27T05:42:51Z</time>
      </trkpt>
      <trkpt lat="39.463125" lon="-6.367182">
        <ele>437.154</ele>
        <time>2019-02-27T05:43:02Z</time>
      </trkpt>
      <trkpt lat="39.463358" lon="-6.367204">
        <ele>435.356</ele>
        <time>2019-02-27T05:43:08Z</time>
      </trkpt>
      <trkpt lat="39.463890" lon="-6.367162">
        <ele>434.411</ele>
        <time>2019-02-27T05:43:18Z</time>
      </trkpt>
      <trkpt lat="39.464559" lon="-6.367214">
        <ele>435.208</ele>
        <time>2019-02-27T05:43:31Z</time>
      </trkpt>
      <trkpt lat="39.464818" lon="-6.367262">
        <ele>435.548</ele>
        <time>2019-02-27T05:43:36Z</time>
      </trkpt>
      <trkpt lat="39.464922" lon="-6.367297">
        <ele>435.699</ele>
        <time>2019-02-27T05:43:38Z</time>
      </trkpt>
      <trkpt lat="39.465151" lon="-6.367396">
        <ele>435.690</ele>
        <time>2019-02-27T05:43:42Z</time>
      </trkpt>
      <trkpt lat="39.465344" lon="-6.367461">
        <ele>435.539</ele>
        <time>2019-02-27T05:43:45Z</time>
      </trkpt>
      <trkpt lat="39.466011" lon="-6.367755">
        <ele>434.483</ele>
        <time>2019-02-27T05:43:55Z</time>
      </trkpt>
      <trkpt lat="39.466891" lon="-6.368106">
        <ele>431.886</ele>
        <time>2019-02-27T05:44:06Z</time>
      </trkpt>
      <trkpt lat="39.467728" lon="-6.368465">
        <ele>430.965</ele>
        <time>2019-02-27T05:44:17Z</time>
      </trkpt>
      <trkpt lat="39.467879" lon="-6.368511">
        <ele>431.094</ele>
        <time>2019-02-27T05:44:19Z</time>
      </trkpt>
      <trkpt lat="39.468612" lon="-6.368747">
        <ele>430.112</ele>
        <time>2019-02-27T05:44:30Z</time>
      </trkpt>
      <trkpt lat="39.468861" lon="-6.368833">
        <ele>428.632</ele>
        <time>2019-02-27T05:44:34Z</time>
      </trkpt>
      <trkpt lat="39.468968" lon="-6.368875">
        <ele>428.205</ele>
        <time>2019-02-27T05:44:38Z</time>
      </trkpt>
      <trkpt lat="39.469026" lon="-6.368887">
        <ele>427.908</ele>
        <time>2019-02-27T05:44:42Z</time>
      </trkpt>
      <trkpt lat="39.469260" lon="-6.369224">
        <ele>427.554</ele>
        <time>2019-02-27T05:44:51Z</time>
      </trkpt>
      <trkpt lat="39.469473" lon="-6.369560">
        <ele>426.815</ele>
        <time>2019-02-27T05:44:57Z</time>
      </trkpt>
      <trkpt lat="39.469625" lon="-6.369786">
        <ele>426.736</ele>
        <time>2019-02-27T05:45:02Z</time>
      </trkpt>
      <trkpt lat="39.469798" lon="-6.369921">
        <ele>426.485</ele>
        <time>2019-02-27T05:45:06Z</time>
      </trkpt>
      <trkpt lat="39.470065" lon="-6.369914">
        <ele>425.759</ele>
        <time>2019-02-27T05:45:13Z</time>
      </trkpt>
      <trkpt lat="39.470074" lon="-6.369878">
        <ele>425.782</ele>
        <time>2019-02-27T05:45:22Z</time>
      </trkpt>
      <trkpt lat="39.470224" lon="-6.369884">
        <ele>425.561</ele>
        <time>2019-02-27T05:46:33Z</time>
      </trkpt>
      <trkpt lat="39.470366" lon="-6.369816">
        <ele>425.610</ele>
        <time>2019-02-27T05:46:38Z</time>
      </trkpt>
      <trkpt lat="39.470424" lon="-6.369778">
        <ele>425.634</ele>
        <time>2019-02-27T05:46:42Z</time>
      </trkpt>
      <trkpt lat="39.470444" lon="-6.369754">
        <ele>425.655</ele>
        <time>2019-02-27T05:46:44Z</time>
      </trkpt>
      <trkpt lat="39.470506" lon="-6.369734">
        <ele>425.710</ele>
        <time>2019-02-27T05:46:47Z</time>
      </trkpt>
      <trkpt lat="39.470620" lon="-6.369690">
        <ele>425.708</ele>
        <time>2019-02-27T05:46:52Z</time>
      </trkpt>
      <trkpt lat="39.470868" lon="-6.369638">
        <ele>426.536</ele>
        <time>2019-02-27T05:47:00Z</time>
      </trkpt>
      <trkpt lat="39.471192" lon="-6.369617">
        <ele>429.867</ele>
        <time>2019-02-27T05:47:08Z</time>
      </trkpt>
      <trkpt lat="39.471296" lon="-6.369645">
        <ele>430.898</ele>
        <time>2019-02-27T05:47:10Z</time>
      </trkpt>
      <trkpt lat="39.471485" lon="-6.369625">
        <ele>431.837</ele>
        <time>2019-02-27T05:47:14Z</time>
      </trkpt>
      <trkpt lat="39.471626" lon="-6.369543">
        <ele>432.471</ele>
        <time>2019-02-27T05:47:17Z</time>
      </trkpt>
      <trkpt lat="39.472153" lon="-6.369083">
        <ele>430.374</ele>
        <time>2019-02-27T05:47:26Z</time>
      </trkpt>
      <trkpt lat="39.472314" lon="-6.369027">
        <ele>428.943</ele>
        <time>2019-02-27T05:47:29Z</time>
      </trkpt>
      <trkpt lat="39.472698" lon="-6.368830">
        <ele>428.162</ele>
        <time>2019-02-27T05:47:40Z</time>
      </trkpt>
      <trkpt lat="39.472957" lon="-6.368805">
        <ele>428.529</ele>
        <time>2019-02-27T05:47:52Z</time>
      </trkpt>
      <trkpt lat="39.472955" lon="-6.368807">
        <ele>428.500</ele>
        <time>2019-02-27T05:47:55Z</time>
      </trkpt>
      <trkpt lat="39.473012" lon="-6.368848">
        <ele>428.820</ele>
        <time>2019-02-27T05:48:34Z</time>
      </trkpt>
      <trkpt lat="39.473216" lon="-6.368867">
        <ele>430.108</ele>
        <time>2019-02-27T05:48:45Z</time>
      </trkpt>
      <trkpt lat="39.473221" lon="-6.368874">
        <ele>430.265</ele>
        <time>2019-02-27T05:48:49Z</time>
      </trkpt>
      <trkpt lat="39.473318" lon="-6.368882">
        <ele>431.196</ele>
        <time>2019-02-27T05:49:24Z</time>
      </trkpt>
      <trkpt lat="39.473362" lon="-6.368930">
        <ele>432.267</ele>
        <time>2019-02-27T05:49:27Z</time>
      </trkpt>
      <trkpt lat="39.473384" lon="-6.368952">
        <ele>432.896</ele>
        <time>2019-02-27T05:49:29Z</time>
      </trkpt>
      <trkpt lat="39.473414" lon="-6.369009">
        <ele>437.540</ele>
        <time>2019-02-27T05:49:36Z</time>
      </trkpt>
      <trkpt lat="39.473952" lon="-6.370426">
        <ele>455.863</ele>
        <time>2019-02-27T05:57:17Z</time>
      </trkpt>
      <trkpt lat="39.474169" lon="-6.370449">
        <ele>454.052</ele>
        <time>2019-02-27T05:57:27Z</time>
      </trkpt>
      <trkpt lat="39.474277" lon="-6.370414">
        <ele>453.071</ele>
        <time>2019-02-27T05:57:43Z</time>
      </trkpt>
      <trkpt lat="39.474424" lon="-6.370455">
        <ele>452.086</ele>
        <time>2019-02-27T05:58:13Z</time>
      </trkpt>
      <trkpt lat="39.474444" lon="-6.370450">
        <ele>451.860</ele>
        <time>2019-02-27T05:58:14Z</time>
      </trkpt>
      <trkpt lat="39.474611" lon="-6.370284">
        <ele>450.026</ele>
        <time>2019-02-27T05:58:27Z</time>
      </trkpt>
      <trkpt lat="39.474659" lon="-6.370344">
        <ele>449.708</ele>
        <time>2019-02-27T05:58:35Z</time>
      </trkpt>
      <trkpt lat="39.474674" lon="-6.370352">
        <ele>449.621</ele>
        <time>2019-02-27T05:58:36Z</time>
      </trkpt>
      <trkpt lat="39.474691" lon="-6.370346">
        <ele>449.572</ele>
        <time>2019-02-27T05:58:41Z</time>
      </trkpt>
      <trkpt lat="39.474738" lon="-6.370277">
        <ele>449.353</ele>
        <time>2019-02-27T05:59:45Z</time>
      </trkpt>
      <trkpt lat="39.474750" lon="-6.370178">
        <ele>448.962</ele>
        <time>2019-02-27T05:59:49Z</time>
      </trkpt>
      <trkpt lat="39.474732" lon="-6.370110">
        <ele>448.786</ele>
        <time>2019-02-27T05:59:54Z</time>
      </trkpt>
      <trkpt lat="39.474779" lon="-6.370058">
        <ele>447.449</ele>
        <time>2019-02-27T06:00:02Z</time>
      </trkpt>
      <trkpt lat="39.474807" lon="-6.370030">
        <ele>447.268</ele>
        <time>2019-02-27T06:00:09Z</time>
      </trkpt>
      <trkpt lat="39.475110" lon="-6.369714">
        <ele>443.517</ele>
        <time>2019-02-27T06:00:47Z</time>
      </trkpt>
      <trkpt lat="39.475136" lon="-6.369700">
        <ele>443.019</ele>
        <time>2019-02-27T06:00:49Z</time>
      </trkpt>
      <trkpt lat="39.475161" lon="-6.369688">
        <ele>442.509</ele>
        <time>2019-02-27T06:00:55Z</time>
      </trkpt>
      <trkpt lat="39.475281" lon="-6.369625">
        <ele>441.119</ele>
        <time>2019-02-27T06:01:01Z</time>
      </trkpt>
      <trkpt lat="39.475513" lon="-6.369702">
        <ele>439.808</ele>
        <time>2019-02-27T06:01:10Z</time>
      </trkpt>
      <trkpt lat="39.475762" lon="-6.369701">
        <ele>437.594</ele>
        <time>2019-02-27T06:01:18Z</time>
      </trkpt>
      <trkpt lat="39.476012" lon="-6.369574">
        <ele>435.415</ele>
        <time>2019-02-27T06:01:24Z</time>
      </trkpt>
      <trkpt lat="39.476069" lon="-6.369484">
        <ele>434.766</ele>
        <time>2019-02-27T06:01:35Z</time>
      </trkpt>
      <trkpt lat="39.476209" lon="-6.369476">
        <ele>433.475</ele>
        <time>2019-02-27T06:01:54Z</time>
      </trkpt>
      <trkpt lat="39.476406" lon="-6.369414">
        <ele>431.489</ele>
        <time>2019-02-27T06:02:03Z</time>
      </trkpt>
      <trkpt lat="39.476431" lon="-6.369400">
        <ele>431.552</ele>
        <time>2019-02-27T06:02:09Z</time>
      </trkpt>
      <trkpt lat="39.476436" lon="-6.369465">
        <ele>431.821</ele>
        <time>2019-02-27T06:02:30Z</time>
      </trkpt>
      <trkpt lat="39.476324" lon="-6.369505">
        <ele>432.660</ele>
        <time>2019-02-27T06:02:37Z</time>
      </trkpt>
      <trkpt lat="39.476251" lon="-6.369486">
        <ele>433.056</ele>
        <time>2019-02-27T06:02:43Z</time>
      </trkpt>
      <trkpt lat="39.476167" lon="-6.369541">
        <ele>434.459</ele>
        <time>2019-02-27T06:02:50Z</time>
      </trkpt>
      <trkpt lat="39.476137" lon="-6.369374">
        <ele>434.514</ele>
        <time>2019-02-27T06:02:57Z</time>
      </trkpt>
      <trkpt lat="39.475971" lon="-6.369235">
        <ele>434.508</ele>
        <time>2019-02-27T06:03:05Z</time>
      </trkpt>
      <trkpt lat="39.475930" lon="-6.369183">
        <ele>434.598</ele>
        <time>2019-02-27T06:03:08Z</time>
      </trkpt>
      <trkpt lat="39.475916" lon="-6.369144">
        <ele>434.599</ele>
        <time>2019-02-27T06:03:13Z</time>
      </trkpt>
      <trkpt lat="39.475935" lon="-6.368964">
        <ele>430.710</ele>
        <time>2019-02-27T06:04:19Z</time>
      </trkpt>
      <trkpt lat="39.476064" lon="-6.368830">
        <ele>428.089</ele>
        <time>2019-02-27T06:04:23Z</time>
      </trkpt>
      <trkpt lat="39.476232" lon="-6.368771">
        <ele>426.483</ele>
        <time>2019-02-27T06:04:33Z</time>
      </trkpt>
      <trkpt lat="39.476294" lon="-6.368807">
        <ele>426.386</ele>
        <time>2019-02-27T06:04:43Z</time>
      </trkpt>
      <trkpt lat="39.476317" lon="-6.368816">
        <ele>426.385</ele>
        <time>2019-02-27T06:04:48Z</time>
      </trkpt>
      <trkpt lat="39.476614" lon="-6.369051">
        <ele>426.314</ele>
        <time>2019-02-27T06:05:27Z</time>
      </trkpt>
      <trkpt lat="39.476636" lon="-6.369054">
        <ele>426.639</ele>
        <time>2019-02-27T06:05:34Z</time>
      </trkpt>
      <trkpt lat="39.476539" lon="-6.369147">
        <ele>428.801</ele>
        <time>2019-02-27T06:06:02Z</time>
      </trkpt>
      <trkpt lat="39.476426" lon="-6.369224">
        <ele>430.821</ele>
        <time>2019-02-27T06:06:09Z</time>
      </trkpt>
      <trkpt lat="39.476336" lon="-6.369265">
        <ele>432.108</ele>
        <time>2019-02-27T06:06:15Z</time>
      </trkpt>
      <trkpt lat="39.476124" lon="-6.369382">
        <ele>433.716</ele>
        <time>2019-02-27T06:06:27Z</time>
      </trkpt>
      <trkpt lat="39.476103" lon="-6.369432">
        <ele>434.027</ele>
        <time>2019-02-27T06:06:31Z</time>
      </trkpt>
      <trkpt lat="39.476118" lon="-6.369455">
        <ele>434.148</ele>
        <time>2019-02-27T06:06:33Z</time>
      </trkpt>
      <trkpt lat="39.476205" lon="-6.369837">
        <ele>434.557</ele>
        <time>2019-02-27T06:06:41Z</time>
      </trkpt>
      <trkpt lat="39.476247" lon="-6.370237">
        <ele>434.761</ele>
        <time>2019-02-27T06:06:53Z</time>
      </trkpt>
      <trkpt lat="39.476279" lon="-6.370272">
        <ele>434.994</ele>
        <time>2019-02-27T06:07:02Z</time>
      </trkpt>
      <trkpt lat="39.476131" lon="-6.370405">
        <ele>435.653</ele>
        <time>2019-02-27T06:07:44Z</time>
      </trkpt>
      <trkpt lat="39.476078" lon="-6.370424">
        <ele>435.882</ele>
        <time>2019-02-27T06:07:52Z</time>
      </trkpt>
      <trkpt lat="39.475882" lon="-6.370602">
        <ele>437.044</ele>
        <time>2019-02-27T06:08:06Z</time>
      </trkpt>
      <trkpt lat="39.475684" lon="-6.370776">
        <ele>438.605</ele>
        <time>2019-02-27T06:08:14Z</time>
      </trkpt>
      <trkpt lat="39.475552" lon="-6.371027">
        <ele>438.915</ele>
        <time>2019-02-27T06:08:27Z</time>
      </trkpt>
      <trkpt lat="39.475460" lon="-6.371088">
        <ele>439.208</ele>
        <time>2019-02-27T06:09:09Z</time>
      </trkpt>
      <trkpt lat="39.475406" lon="-6.371150">
        <ele>439.417</ele>
        <time>2019-02-27T06:09:12Z</time>
      </trkpt>
      <trkpt lat="39.475404" lon="-6.371324">
        <ele>441.358</ele>
        <time>2019-02-27T06:09:17Z</time>
      </trkpt>
      <trkpt lat="39.475378" lon="-6.371377">
        <ele>441.829</ele>
        <time>2019-02-27T06:09:19Z</time>
      </trkpt>
      <trkpt lat="39.475347" lon="-6.371408">
        <ele>442.128</ele>
        <time>2019-02-27T06:09:29Z</time>
      </trkpt>
      <trkpt lat="39.475342" lon="-6.371392">
        <ele>442.252</ele>
        <time>2019-02-27T06:09:30Z</time>
      </trkpt>
      <trkpt lat="39.475256" lon="-6.371336">
        <ele>443.175</ele>
        <time>2019-02-27T06:09:54Z</time>
      </trkpt>
      <trkpt lat="39.475136" lon="-6.371323">
        <ele>444.324</ele>
        <time>2019-02-27T06:10:04Z</time>
      </trkpt>
      <trkpt lat="39.474999" lon="-6.371380">
        <ele>445.543</ele>
        <time>2019-02-27T06:10:14Z</time>
      </trkpt>
      <trkpt lat="39.474944" lon="-6.371484">
        <ele>445.932</ele>
        <time>2019-02-27T06:10:20Z</time>
      </trkpt>
      <trkpt lat="39.474926" lon="-6.371524">
        <ele>446.192</ele>
        <time>2019-02-27T06:10:22Z</time>
      </trkpt>
      <trkpt lat="39.474837" lon="-6.371525">
        <ele>446.511</ele>
        <time>2019-02-27T06:10:32Z</time>
      </trkpt>
      <trkpt lat="39.474839" lon="-6.371452">
        <ele>446.808</ele>
        <time>2019-02-27T06:10:41Z</time>
      </trkpt>
      <trkpt lat="39.474842" lon="-6.371411">
        <ele>446.956</ele>
        <time>2019-02-27T06:10:48Z</time>
      </trkpt>
      <trkpt lat="39.474797" lon="-6.371526">
        <ele>447.427</ele>
        <time>2019-02-27T06:11:46Z</time>
      </trkpt>
      <trkpt lat="39.474773" lon="-6.371553">
        <ele>447.528</ele>
        <time>2019-02-27T06:11:48Z</time>
      </trkpt>
      <trkpt lat="39.474659" lon="-6.371633">
        <ele>448.217</ele>
        <time>2019-02-27T06:12:01Z</time>
      </trkpt>
      <trkpt lat="39.474655" lon="-6.371679">
        <ele>448.481</ele>
        <time>2019-02-27T06:12:05Z</time>
      </trkpt>
      <trkpt lat="39.474692" lon="-6.371702">
        <ele>448.664</ele>
        <time>2019-02-27T06:12:08Z</time>
      </trkpt>
      <trkpt lat="39.474756" lon="-6.371766">
        <ele>449.053</ele>
        <time>2019-02-27T06:12:12Z</time>
      </trkpt>
      <trkpt lat="39.474766" lon="-6.371825">
        <ele>449.242</ele>
        <time>2019-02-27T06:12:14Z</time>
      </trkpt>
      <trkpt lat="39.474686" lon="-6.371971">
        <ele>449.955</ele>
        <time>2019-02-27T06:12:23Z</time>
      </trkpt>
      <trkpt lat="39.474623" lon="-6.372014">
        <ele>450.307</ele>
        <time>2019-02-27T06:12:30Z</time>
      </trkpt>
      <trkpt lat="39.474615" lon="-6.372092">
        <ele>450.617</ele>
        <time>2019-02-27T06:12:36Z</time>
      </trkpt>
      <trkpt lat="39.474733" lon="-6.372198">
        <ele>451.308</ele>
        <time>2019-02-27T06:12:42Z</time>
      </trkpt>
      <trkpt lat="39.474625" lon="-6.372366">
        <ele>452.778</ele>
        <time>2019-02-27T06:12:51Z</time>
      </trkpt>
      <trkpt lat="39.474528" lon="-6.372497">
        <ele>453.179</ele>
        <time>2019-02-27T06:12:59Z</time>
      </trkpt>
      <trkpt lat="39.474521" lon="-6.372517">
        <ele>453.230</ele>
        <time>2019-02-27T06:13:00Z</time>
      </trkpt>
      <trkpt lat="39.474513" lon="-6.372558">
        <ele>453.319</ele>
        <time>2019-02-27T06:13:02Z</time>
      </trkpt>
      <trkpt lat="39.474453" lon="-6.372631">
        <ele>453.693</ele>
        <time>2019-02-27T06:13:07Z</time>
      </trkpt>
      <trkpt lat="39.474354" lon="-6.372613">
        <ele>454.176</ele>
        <time>2019-02-27T06:13:12Z</time>
      </trkpt>
      <trkpt lat="39.474328" lon="-6.372714">
        <ele>454.565</ele>
        <time>2019-02-27T06:13:16Z</time>
      </trkpt>
      <trkpt lat="39.474290" lon="-6.372807">
        <ele>454.674</ele>
        <time>2019-02-27T06:13:20Z</time>
      </trkpt>
      <trkpt lat="39.474170" lon="-6.372958">
        <ele>454.991</ele>
        <time>2019-02-27T06:13:28Z</time>
      </trkpt>
      <trkpt lat="39.473982" lon="-6.373102">
        <ele>455.381</ele>
        <time>2019-02-27T06:13:37Z</time>
      </trkpt>
      <trkpt lat="39.473909" lon="-6.373262">
        <ele>455.319</ele>
        <time>2019-02-27T06:13:43Z</time>
      </trkpt>
      <trkpt lat="39.473809" lon="-6.373292">
        <ele>455.408</ele>
        <time>2019-02-27T06:13:48Z</time>
      </trkpt>
      <trkpt lat="39.473764" lon="-6.373305">
        <ele>455.532</ele>
        <time>2019-02-27T06:13:50Z</time>
      </trkpt>
      <trkpt lat="39.473668" lon="-6.373425">
        <ele>456.053</ele>
        <time>2019-02-27T06:13:56Z</time>
      </trkpt>
      <trkpt lat="39.473536" lon="-6.373591">
        <ele>456.254</ele>
        <time>2019-02-27T06:14:06Z</time>
      </trkpt>
      <trkpt lat="39.473531" lon="-6.373593">
        <ele>456.243</ele>
        <time>2019-02-27T06:14:07Z</time>
      </trkpt>
      <trkpt lat="39.473511" lon="-6.373579">
        <ele>456.247</ele>
        <time>2019-02-27T06:14:10Z</time>
      </trkpt>
      <trkpt lat="39.473585" lon="-6.373555">
        <ele>456.210</ele>
        <time>2019-02-27T06:14:20Z</time>
      </trkpt>
      <trkpt lat="39.473629" lon="-6.373597">
        <ele>456.249</ele>
        <time>2019-02-27T06:14:30Z</time>
      </trkpt>
      <trkpt lat="39.473506" lon="-6.373833">
        <ele>455.968</ele>
        <time>2019-02-27T06:17:16Z</time>
      </trkpt>
      <trkpt lat="39.473484" lon="-6.373929">
        <ele>455.945</ele>
        <time>2019-02-27T06:17:19Z</time>
      </trkpt>
      <trkpt lat="39.473397" lon="-6.374248">
        <ele>455.947</ele>
        <time>2019-02-27T06:17:28Z</time>
      </trkpt>
      <trkpt lat="39.473360" lon="-6.374311">
        <ele>456.011</ele>
        <time>2019-02-27T06:17:32Z</time>
      </trkpt>
      <trkpt lat="39.473267" lon="-6.374600">
        <ele>456.708</ele>
        <time>2019-02-27T06:17:42Z</time>
      </trkpt>
      <trkpt lat="39.473220" lon="-6.375058">
        <ele>459.217</ele>
        <time>2019-02-27T06:17:51Z</time>
      </trkpt>
      <trkpt lat="39.473160" lon="-6.375302">
        <ele>459.238</ele>
        <time>2019-02-27T06:18:00Z</time>
      </trkpt>
      <trkpt lat="39.473117" lon="-6.375333">
        <ele>459.229</ele>
        <time>2019-02-27T06:18:03Z</time>
      </trkpt>
      <trkpt lat="39.473040" lon="-6.375433">
        <ele>458.748</ele>
        <time>2019-02-27T06:18:11Z</time>
      </trkpt>
      <trkpt lat="39.472807" lon="-6.375724">
        <ele>457.212</ele>
        <time>2019-02-27T06:18:23Z</time>
      </trkpt>
      <trkpt lat="39.472627" lon="-6.376002">
        <ele>456.025</ele>
        <time>2019-02-27T06:18:32Z</time>
      </trkpt>
      <trkpt lat="39.472387" lon="-6.376195">
        <ele>455.784</ele>
        <time>2019-02-27T06:18:44Z</time>
      </trkpt>
      <trkpt lat="39.472130" lon="-6.376401">
        <ele>456.793</ele>
        <time>2019-02-27T06:18:55Z</time>
      </trkpt>
      <trkpt lat="39.472011" lon="-6.376632">
        <ele>457.071</ele>
        <time>2019-02-27T06:19:05Z</time>
      </trkpt>
      <trkpt lat="39.471967" lon="-6.376754">
        <ele>457.241</ele>
        <time>2019-02-27T06:19:12Z</time>
      </trkpt>
      <trkpt lat="39.471683" lon="-6.376956">
        <ele>458.415</ele>
        <time>2019-02-27T06:19:23Z</time>
      </trkpt>
      <trkpt lat="39.471499" lon="-6.377148">
        <ele>459.608</ele>
        <time>2019-02-27T06:19:34Z</time>
      </trkpt>
      <trkpt lat="39.471275" lon="-6.377348">
        <ele>460.910</ele>
        <time>2019-02-27T06:19:46Z</time>
      </trkpt>
      <trkpt lat="39.470860" lon="-6.377512">
        <ele>463.451</ele>
        <time>2019-02-27T06:19:57Z</time>
      </trkpt>
      <trkpt lat="39.470753" lon="-6.377560">
        <ele>463.592</ele>
        <time>2019-02-27T06:20:00Z</time>
      </trkpt>
      <trkpt lat="39.470654" lon="-6.377690">
        <ele>463.521</ele>
        <time>2019-02-27T06:20:06Z</time>
      </trkpt>
      <trkpt lat="39.470361" lon="-6.377950">
        <ele>463.275</ele>
        <time>2019-02-27T06:20:17Z</time>
      </trkpt>
      <trkpt lat="39.470101" lon="-6.378142">
        <ele>464.228</ele>
        <time>2019-02-27T06:20:27Z</time>
      </trkpt>
      <trkpt lat="39.469957" lon="-6.378244">
        <ele>465.757</ele>
        <time>2019-02-27T06:20:33Z</time>
      </trkpt>
      <trkpt lat="39.469651" lon="-6.378519">
        <ele>466.616</ele>
        <time>2019-02-27T06:20:45Z</time>
      </trkpt>
      <trkpt lat="39.469422" lon="-6.378680">
        <ele>467.817</ele>
        <time>2019-02-27T06:20:56Z</time>
      </trkpt>
      <trkpt lat="39.469115" lon="-6.378861">
        <ele>468.087</ele>
        <time>2019-02-27T06:21:07Z</time>
      </trkpt>
      <trkpt lat="39.468950" lon="-6.379135">
        <ele>469.915</ele>
        <time>2019-02-27T06:21:17Z</time>
      </trkpt>
      <trkpt lat="39.468651" lon="-6.379255">
        <ele>470.508</ele>
        <time>2019-02-27T06:21:28Z</time>
      </trkpt>
      <trkpt lat="39.468460" lon="-6.379319">
        <ele>470.344</ele>
        <time>2019-02-27T06:21:33Z</time>
      </trkpt>
      <trkpt lat="39.468370" lon="-6.379332">
        <ele>470.385</ele>
        <time>2019-02-27T06:21:35Z</time>
      </trkpt>
      <trkpt lat="39.468294" lon="-6.379295">
        <ele>470.346</ele>
        <time>2019-02-27T06:21:37Z</time>
      </trkpt>
      <trkpt lat="39.468234" lon="-6.379226">
        <ele>470.235</ele>
        <time>2019-02-27T06:21:39Z</time>
      </trkpt>
      <trkpt lat="39.468210" lon="-6.379184">
        <ele>470.219</ele>
        <time>2019-02-27T06:21:40Z</time>
      </trkpt>
      <trkpt lat="39.468157" lon="-6.379040">
        <ele>470.292</ele>
        <time>2019-02-27T06:21:43Z</time>
      </trkpt>
      <trkpt lat="39.467929" lon="-6.378638">
        <ele>467.911</ele>
        <time>2019-02-27T06:21:54Z</time>
      </trkpt>
      <trkpt lat="39.467540" lon="-6.378309">
        <ele>467.010</ele>
        <time>2019-02-27T06:22:06Z</time>
      </trkpt>
      <trkpt lat="39.467386" lon="-6.378145">
        <ele>466.785</ele>
        <time>2019-02-27T06:22:11Z</time>
      </trkpt>
      <trkpt lat="39.466901" lon="-6.377727">
        <ele>466.189</ele>
        <time>2019-02-27T06:22:22Z</time>
      </trkpt>
      <trkpt lat="39.466822" lon="-6.377693">
        <ele>466.017</ele>
        <time>2019-02-27T06:22:23Z</time>
      </trkpt>
      <trkpt lat="39.466767" lon="-6.377661">
        <ele>466.008</ele>
        <time>2019-02-27T06:22:24Z</time>
      </trkpt>
      <trkpt lat="39.466721" lon="-6.377620">
        <ele>465.921</ele>
        <time>2019-02-27T06:22:25Z</time>
      </trkpt>
      <trkpt lat="39.466684" lon="-6.377581">
        <ele>465.992</ele>
        <time>2019-02-27T06:22:26Z</time>
      </trkpt>
      <trkpt lat="39.466613" lon="-6.377507">
        <ele>465.853</ele>
        <time>2019-02-27T06:22:28Z</time>
      </trkpt>
      <trkpt lat="39.466589" lon="-6.377460">
        <ele>465.862</ele>
        <time>2019-02-27T06:22:29Z</time>
      </trkpt>
      <trkpt lat="39.466553" lon="-6.377414">
        <ele>465.816</ele>
        <time>2019-02-27T06:22:30Z</time>
      </trkpt>
      <trkpt lat="39.466489" lon="-6.377333">
        <ele>465.749</ele>
        <time>2019-02-27T06:22:32Z</time>
      </trkpt>
      <trkpt lat="39.466456" lon="-6.377299">
        <ele>465.618</ele>
        <time>2019-02-27T06:22:33Z</time>
      </trkpt>
      <trkpt lat="39.466422" lon="-6.377266">
        <ele>465.687</ele>
        <time>2019-02-27T06:22:34Z</time>
      </trkpt>
      <trkpt lat="39.466392" lon="-6.377231">
        <ele>465.592</ele>
        <time>2019-02-27T06:22:35Z</time>
      </trkpt>
      <trkpt lat="39.466361" lon="-6.377192">
        <ele>465.573</ele>
        <time>2019-02-27T06:22:36Z</time>
      </trkpt>
      <trkpt lat="39.466238" lon="-6.377030">
        <ele>465.320</ele>
        <time>2019-02-27T06:22:40Z</time>
      </trkpt>
      <trkpt lat="39.466198" lon="-6.376992">
        <ele>465.208</ele>
        <time>2019-02-27T06:22:41Z</time>
      </trkpt>
      <trkpt lat="39.466164" lon="-6.376963">
        <ele>465.162</ele>
        <time>2019-02-27T06:22:42Z</time>
      </trkpt>
      <trkpt lat="39.466128" lon="-6.376930">
        <ele>465.193</ele>
        <time>2019-02-27T06:22:43Z</time>
      </trkpt>
      <trkpt lat="39.466089" lon="-6.376889">
        <ele>464.754</ele>
        <time>2019-02-27T06:22:44Z</time>
      </trkpt>
      <trkpt lat="39.466054" lon="-6.376845">
        <ele>464.513</ele>
        <time>2019-02-27T06:22:45Z</time>
      </trkpt>
      <trkpt lat="39.466011" lon="-6.376801">
        <ele>464.317</ele>
        <time>2019-02-27T06:22:46Z</time>
      </trkpt>
      <trkpt lat="39.465973" lon="-6.376758">
        <ele>464.140</ele>
        <time>2019-02-27T06:22:47Z</time>
      </trkpt>
      <trkpt lat="39.465876" lon="-6.376631">
        <ele>463.659</ele>
        <time>2019-02-27T06:22:50Z</time>
      </trkpt>
      <trkpt lat="39.465849" lon="-6.376580">
        <ele>463.458</ele>
        <time>2019-02-27T06:22:51Z</time>
      </trkpt>
      <trkpt lat="39.465814" lon="-6.376529">
        <ele>463.343</ele>
        <time>2019-02-27T06:22:52Z</time>
      </trkpt>
      <trkpt lat="39.465778" lon="-6.376491">
        <ele>463.164</ele>
        <time>2019-02-27T06:22:53Z</time>
      </trkpt>
      <trkpt lat="39.465713" lon="-6.376459">
        <ele>463.010</ele>
        <time>2019-02-27T06:22:54Z</time>
      </trkpt>
      <trkpt lat="39.465647" lon="-6.376419">
        <ele>463.008</ele>
        <time>2019-02-27T06:22:55Z</time>
      </trkpt>
      <trkpt lat="39.464988" lon="-6.375940">
        <ele>461.827</ele>
        <time>2019-02-27T06:23:07Z</time>
      </trkpt>
      <trkpt lat="39.464621" lon="-6.375632">
        <ele>461.478</ele>
        <time>2019-02-27T06:23:15Z</time>
      </trkpt>
      <trkpt lat="39.464112" lon="-6.375197">
        <ele>460.529</ele>
        <time>2019-02-27T06:23:24Z</time>
      </trkpt>
      <trkpt lat="39.463733" lon="-6.374867">
        <ele>456.958</ele>
        <time>2019-02-27T06:23:30Z</time>
      </trkpt>
      <trkpt lat="39.463673" lon="-6.374817">
        <ele>456.932</ele>
        <time>2019-02-27T06:23:31Z</time>
      </trkpt>
      <trkpt lat="39.462937" lon="-6.374133">
        <ele>451.165</ele>
        <time>2019-02-27T06:23:42Z</time>
      </trkpt>
      <trkpt lat="39.462363" lon="-6.373616">
        <ele>447.744</ele>
        <time>2019-02-27T06:23:52Z</time>
      </trkpt>
      <trkpt lat="39.461616" lon="-6.372930">
        <ele>442.393</ele>
        <time>2019-02-27T06:24:03Z</time>
      </trkpt>
      <trkpt lat="39.460930" lon="-6.372296">
        <ele>441.554</ele>
        <time>2019-02-27T06:24:14Z</time>
      </trkpt>
      <trkpt lat="39.460882" lon="-6.372247">
        <ele>442.056</ele>
        <time>2019-02-27T06:24:15Z</time>
      </trkpt>
      <trkpt lat="39.460836" lon="-6.372199">
        <ele>442.211</ele>
        <time>2019-02-27T06:24:16Z</time>
      </trkpt>
      <trkpt lat="39.460796" lon="-6.372149">
        <ele>442.408</ele>
        <time>2019-02-27T06:24:17Z</time>
      </trkpt>
      <trkpt lat="39.460757" lon="-6.372099">
        <ele>442.738</ele>
        <time>2019-02-27T06:24:18Z</time>
      </trkpt>
      <trkpt lat="39.460685" lon="-6.372018">
        <ele>443.049</ele>
        <time>2019-02-27T06:24:20Z</time>
      </trkpt>
      <trkpt lat="39.460659" lon="-6.371991">
        <ele>443.070</ele>
        <time>2019-02-27T06:24:21Z</time>
      </trkpt>
      <trkpt lat="39.460645" lon="-6.371964">
        <ele>443.089</ele>
        <time>2019-02-27T06:24:22Z</time>
      </trkpt>
      <trkpt lat="39.460651" lon="-6.371938">
        <ele>443.013</ele>
        <time>2019-02-27T06:24:23Z</time>
      </trkpt>
      <trkpt lat="39.460671" lon="-6.371922">
        <ele>443.056</ele>
        <time>2019-02-27T06:24:24Z</time>
      </trkpt>
      <trkpt lat="39.460740" lon="-6.371941">
        <ele>443.035</ele>
        <time>2019-02-27T06:24:27Z</time>
      </trkpt>
      <trkpt lat="39.460767" lon="-6.371965">
        <ele>442.934</ele>
        <time>2019-02-27T06:24:28Z</time>
      </trkpt>
      <trkpt lat="39.461024" lon="-6.372239">
        <ele>441.824</ele>
        <time>2019-02-27T06:24:37Z</time>
      </trkpt>
      <trkpt lat="39.461054" lon="-6.372276">
        <ele>441.704</ele>
        <time>2019-02-27T06:24:38Z</time>
      </trkpt>
      <trkpt lat="39.461089" lon="-6.372313">
        <ele>441.614</ele>
        <time>2019-02-27T06:24:39Z</time>
      </trkpt>
      <trkpt lat="39.461543" lon="-6.372685">
        <ele>441.808</ele>
        <time>2019-02-27T06:24:51Z</time>
      </trkpt>
      <trkpt lat="39.461586" lon="-6.372694">
        <ele>442.285</ele>
        <time>2019-02-27T06:24:52Z</time>
      </trkpt>
      <trkpt lat="39.461630" lon="-6.372693">
        <ele>442.496</ele>
        <time>2019-02-27T06:24:53Z</time>
      </trkpt>
      <trkpt lat="39.461674" lon="-6.372680">
        <ele>442.617</ele>
        <time>2019-02-27T06:24:54Z</time>
      </trkpt>
      <trkpt lat="39.461711" lon="-6.372648">
        <ele>442.746</ele>
        <time>2019-02-27T06:24:55Z</time>
      </trkpt>
      <trkpt lat="39.461733" lon="-6.372604">
        <ele>442.980</ele>
        <time>2019-02-27T06:24:56Z</time>
      </trkpt>
      <trkpt lat="39.461743" lon="-6.372364">
        <ele>443.073</ele>
        <time>2019-02-27T06:25:00Z</time>
      </trkpt>
      <trkpt lat="39.461702" lon="-6.371862">
        <ele>442.812</ele>
        <time>2019-02-27T06:25:08Z</time>
      </trkpt>
      <trkpt lat="39.461650" lon="-6.371329">
        <ele>441.541</ele>
        <time>2019-02-27T06:25:19Z</time>
      </trkpt>
      <trkpt lat="39.461642" lon="-6.371276">
        <ele>441.461</ele>
        <time>2019-02-27T06:25:24Z</time>
      </trkpt>
      <trkpt lat="39.461618" lon="-6.371083">
        <ele>440.621</ele>
        <time>2019-02-27T06:25:31Z</time>
      </trkpt>
      <trkpt lat="39.461697" lon="-6.370729">
        <ele>440.013</ele>
        <time>2019-02-27T06:25:38Z</time>
      </trkpt>
      <trkpt lat="39.461740" lon="-6.370493">
        <ele>440.008</ele>
        <time>2019-02-27T06:25:42Z</time>
      </trkpt>
      <trkpt lat="39.461872" lon="-6.370125">
        <ele>440.059</ele>
        <time>2019-02-27T06:25:52Z</time>
      </trkpt>
      <trkpt lat="39.461847" lon="-6.370191">
        <ele>440.080</ele>
        <time>2019-02-27T06:27:31Z</time>
      </trkpt>
      <trkpt lat="39.461792" lon="-6.370288">
        <ele>440.041</ele>
        <time>2019-02-27T06:27:41Z</time>
      </trkpt>
      <trkpt lat="39.461916" lon="-6.370211">
        <ele>440.060</ele>
        <time>2019-02-27T06:32:13Z</time>
      </trkpt>
      <trkpt lat="39.461935" lon="-6.370097">
        <ele>440.114</ele>
        <time>2019-02-27T06:32:17Z</time>
      </trkpt>
      <trkpt lat="39.462042" lon="-6.369600">
        <ele>440.147</ele>
        <time>2019-02-27T06:32:28Z</time>
      </trkpt>
      <trkpt lat="39.462073" lon="-6.369485">
        <ele>439.866</ele>
        <time>2019-02-27T06:32:30Z</time>
      </trkpt>
      <trkpt lat="39.462241" lon="-6.368966">
        <ele>439.375</ele>
        <time>2019-02-27T06:32:39Z</time>
      </trkpt>
      <trkpt lat="39.462266" lon="-6.368852">
        <ele>439.374</ele>
        <time>2019-02-27T06:32:41Z</time>
      </trkpt>
      <trkpt lat="39.462349" lon="-6.368602">
        <ele>438.956</ele>
        <time>2019-02-27T06:32:45Z</time>
      </trkpt>
      <trkpt lat="39.462480" lon="-6.368112">
        <ele>438.321</ele>
        <time>2019-02-27T06:32:53Z</time>
      </trkpt>
      <trkpt lat="39.462583" lon="-6.367740">
        <ele>437.708</ele>
        <time>2019-02-27T06:33:00Z</time>
      </trkpt>
      <trkpt lat="39.462818" lon="-6.367267">
        <ele>437.340</ele>
        <time>2019-02-27T06:33:12Z</time>
      </trkpt>
      <trkpt lat="39.462907" lon="-6.367100">
        <ele>437.351</ele>
        <time>2019-02-27T06:33:23Z</time>
      </trkpt>
      <trkpt lat="39.463304" lon="-6.367148">
        <ele>435.582</ele>
        <time>2019-02-27T06:33:33Z</time>
      </trkpt>
      <trkpt lat="39.463501" lon="-6.367185">
        <ele>434.881</ele>
        <time>2019-02-27T06:33:38Z</time>
      </trkpt>
      <trkpt lat="39.463644" lon="-6.367193">
        <ele>434.725</ele>
        <time>2019-02-27T06:33:41Z</time>
      </trkpt>
      <trkpt lat="39.464056" lon="-6.367152">
        <ele>434.338</ele>
        <time>2019-02-27T06:33:50Z</time>
      </trkpt>
      <trkpt lat="39.464921" lon="-6.367269">
        <ele>435.687</ele>
        <time>2019-02-27T06:34:08Z</time>
      </trkpt>
      <trkpt lat="39.465695" lon="-6.367602">
        <ele>435.136</ele>
        <time>2019-02-27T06:34:23Z</time>
      </trkpt>
      <trkpt lat="39.466236" lon="-6.367842">
        <ele>433.763</ele>
        <time>2019-02-27T06:34:32Z</time>
      </trkpt>
      <trkpt lat="39.466547" lon="-6.367971">
        <ele>432.744</ele>
        <time>2019-02-27T06:34:37Z</time>
      </trkpt>
      <trkpt lat="39.466862" lon="-6.368100">
        <ele>431.818</ele>
        <time>2019-02-27T06:34:42Z</time>
      </trkpt>
      <trkpt lat="39.467115" lon="-6.368192">
        <ele>431.708</ele>
        <time>2019-02-27T06:34:46Z</time>
      </trkpt>
      <trkpt lat="39.467444" lon="-6.368340">
        <ele>431.339</ele>
        <time>2019-02-27T06:34:51Z</time>
      </trkpt>
      <trkpt lat="39.468209" lon="-6.368664">
        <ele>430.840</ele>
        <time>2019-02-27T06:35:03Z</time>
      </trkpt>
      <trkpt lat="39.468472" lon="-6.368762">
        <ele>430.241</ele>
        <time>2019-02-27T06:35:07Z</time>
      </trkpt>
      <trkpt lat="39.468595" lon="-6.368792">
        <ele>429.940</ele>
        <time>2019-02-27T06:35:09Z</time>
      </trkpt>
      <trkpt lat="39.468827" lon="-6.368921">
        <ele>428.644</ele>
        <time>2019-02-27T06:35:13Z</time>
      </trkpt>
      <trkpt lat="39.469016" lon="-6.369109">
        <ele>427.887</ele>
        <time>2019-02-27T06:35:17Z</time>
      </trkpt>
      <trkpt lat="39.469160" lon="-6.369287">
        <ele>427.516</ele>
        <time>2019-02-27T06:35:20Z</time>
      </trkpt>
      <trkpt lat="39.469498" lon="-6.369638">
        <ele>426.725</ele>
        <time>2019-02-27T06:35:26Z</time>
      </trkpt>
      <trkpt lat="39.469571" lon="-6.369741">
        <ele>426.761</ele>
        <time>2019-02-27T06:35:28Z</time>
      </trkpt>
      <trkpt lat="39.469791" lon="-6.369893">
        <ele>426.421</ele>
        <time>2019-02-27T06:35:32Z</time>
      </trkpt>
      <trkpt lat="39.469932" lon="-6.369939">
        <ele>426.113</ele>
        <time>2019-02-27T06:35:34Z</time>
      </trkpt>
      <trkpt lat="39.470118" lon="-6.370286">
        <ele>427.508</ele>
        <time>2019-02-27T06:35:40Z</time>
      </trkpt>
      <trkpt lat="39.470092" lon="-6.370343">
        <ele>427.589</ele>
        <time>2019-02-27T06:35:41Z</time>
      </trkpt>
      <trkpt lat="39.470016" lon="-6.370516">
        <ele>428.920</ele>
        <time>2019-02-27T06:35:45Z</time>
      </trkpt>
      <trkpt lat="39.470108" lon="-6.370987">
        <ele>431.251</ele>
        <time>2019-02-27T06:35:55Z</time>
      </trkpt>
      <trkpt lat="39.470148" lon="-6.371076">
        <ele>431.660</ele>
        <time>2019-02-27T06:35:57Z</time>
      </trkpt>
      <trkpt lat="39.470355" lon="-6.371609">
        <ele>433.934</ele>
        <time>2019-02-27T06:36:09Z</time>
      </trkpt>
      <trkpt lat="39.470549" lon="-6.372135">
        <ele>436.637</ele>
        <time>2019-02-27T06:36:23Z</time>
      </trkpt>
      <trkpt lat="39.470605" lon="-6.372545">
        <ele>438.116</ele>
        <time>2019-02-27T06:36:34Z</time>
      </trkpt>
      <trkpt lat="39.470694" lon="-6.372896">
        <ele>440.275</ele>
        <time>2019-02-27T06:36:43Z</time>
      </trkpt>
      <trkpt lat="39.470967" lon="-6.373202">
        <ele>440.715</ele>
        <time>2019-02-27T06:36:54Z</time>
      </trkpt>
      <trkpt lat="39.471040" lon="-6.373328">
        <ele>440.865</ele>
        <time>2019-02-27T06:36:58Z</time>
      </trkpt>
      <trkpt lat="39.471307" lon="-6.373674">
        <ele>441.711</ele>
        <time>2019-02-27T06:37:10Z</time>
      </trkpt>
      <trkpt lat="39.471526" lon="-6.373892">
        <ele>442.508</ele>
        <time>2019-02-27T06:37:19Z</time>
      </trkpt>
      <trkpt lat="39.471831" lon="-6.374287">
        <ele>444.294</ele>
        <time>2019-02-27T06:37:31Z</time>
      </trkpt>
      <trkpt lat="39.472050" lon="-6.374528">
        <ele>446.335</ele>
        <time>2019-02-27T06:37:42Z</time>
      </trkpt>
      <trkpt lat="39.472207" lon="-6.374682">
        <ele>447.586</ele>
        <time>2019-02-27T06:37:52Z</time>
      </trkpt>
      <trkpt lat="39.472396" lon="-6.374657">
        <ele>448.715</ele>
        <time>2019-02-27T06:38:03Z</time>
      </trkpt>
      <trkpt lat="39.472476" lon="-6.374561">
        <ele>449.569</ele>
        <time>2019-02-27T06:38:09Z</time>
      </trkpt>
      <trkpt lat="39.472648" lon="-6.374359">
        <ele>450.522</ele>
        <time>2019-02-27T06:38:21Z</time>
      </trkpt>
      <trkpt lat="39.472772" lon="-6.374218">
        <ele>452.021</ele>
        <time>2019-02-27T06:38:29Z</time>
      </trkpt>
      <trkpt lat="39.472980" lon="-6.374073">
        <ele>453.490</ele>
        <time>2019-02-27T06:38:39Z</time>
      </trkpt>
      <trkpt lat="39.473159" lon="-6.373947">
        <ele>454.475</ele>
        <time>2019-02-27T06:38:44Z</time>
      </trkpt>
      <trkpt lat="39.473255" lon="-6.373906">
        <ele>454.928</ele>
        <time>2019-02-27T06:38:47Z</time>
      </trkpt>
      <trkpt lat="39.473460" lon="-6.373654">
        <ele>455.920</ele>
        <time>2019-02-27T06:38:59Z</time>
      </trkpt>
      <trkpt lat="39.473496" lon="-6.373641">
        <ele>456.108</ele>
        <time>2019-02-27T06:39:05Z</time>
      </trkpt>
      <trkpt lat="39.473754" lon="-6.373544">
        <ele>455.850</ele>
        <time>2019-02-27T06:40:08Z</time>
      </trkpt>
      <trkpt lat="39.473988" lon="-6.373276">
        <ele>455.371</ele>
        <time>2019-02-27T06:40:18Z</time>
      </trkpt>
      <trkpt lat="39.474193" lon="-6.373008">
        <ele>455.292</ele>
        <time>2019-02-27T06:40:27Z</time>
      </trkpt>
      <trkpt lat="39.474236" lon="-6.372945">
        <ele>455.251</ele>
        <time>2019-02-27T06:40:36Z</time>
      </trkpt>
      <trkpt lat="39.474168" lon="-6.373039">
        <ele>455.075</ele>
        <time>2019-02-27T06:40:50Z</time>
      </trkpt>
      <trkpt lat="39.474063" lon="-6.373200">
        <ele>455.388</ele>
        <time>2019-02-27T06:40:58Z</time>
      </trkpt>
      <trkpt lat="39.474003" lon="-6.373336">
        <ele>455.317</ele>
        <time>2019-02-27T06:41:08Z</time>
      </trkpt>
      <trkpt lat="39.474223" lon="-6.373376">
        <ele>455.916</ele>
        <time>2019-02-27T06:41:27Z</time>
      </trkpt>
      <trkpt lat="39.474270" lon="-6.373352">
        <ele>456.057</ele>
        <time>2019-02-27T06:41:29Z</time>
      </trkpt>
      <trkpt lat="39.474519" lon="-6.373349">
        <ele>455.300</ele>
        <time>2019-02-27T06:41:38Z</time>
      </trkpt>
      <trkpt lat="39.474776" lon="-6.373231">
        <ele>453.720</ele>
        <time>2019-02-27T06:41:43Z</time>
      </trkpt>
      <trkpt lat="39.475013" lon="-6.373188">
        <ele>452.108</ele>
        <time>2019-02-27T06:41:48Z</time>
      </trkpt>
      <trkpt lat="39.475437" lon="-6.373155">
        <ele>446.638</ele>
        <time>2019-02-27T06:41:58Z</time>
      </trkpt>
      <trkpt lat="39.475545" lon="-6.373074">
        <ele>445.639</ele>
        <time>2019-02-27T06:42:02Z</time>
      </trkpt>
      <trkpt lat="39.475854" lon="-6.372783">
        <ele>442.220</ele>
        <time>2019-02-27T06:42:12Z</time>
      </trkpt>
      <trkpt lat="39.475973" lon="-6.372613">
        <ele>441.579</ele>
        <time>2019-02-27T06:42:17Z</time>
      </trkpt>
      <trkpt lat="39.476289" lon="-6.372391">
        <ele>438.693</ele>
        <time>2019-02-27T06:42:24Z</time>
      </trkpt>
      <trkpt lat="39.476526" lon="-6.372163">
        <ele>434.626</ele>
        <time>2019-02-27T06:42:30Z</time>
      </trkpt>
      <trkpt lat="39.476592" lon="-6.372114">
        <ele>433.785</ele>
        <time>2019-02-27T06:42:32Z</time>
      </trkpt>
      <trkpt lat="39.476854" lon="-6.372320">
        <ele>432.874</ele>
        <time>2019-02-27T06:42:43Z</time>
      </trkpt>
      <trkpt lat="39.477025" lon="-6.372501">
        <ele>433.386</ele>
        <time>2019-02-27T06:42:53Z</time>
      </trkpt>
      <trkpt lat="39.477060" lon="-6.372513">
        <ele>433.460</ele>
        <time>2019-02-27T06:43:02Z</time>
      </trkpt>
      <trkpt lat="39.477165" lon="-6.372586">
        <ele>433.626</ele>
        <time>2019-02-27T22:42:39Z</time>
      </trkpt>
      <trkpt lat="39.477175" lon="-6.372597">
        <ele>433.708</ele>
        <time>2019-02-27T22:42:40Z</time>
      </trkpt>
      <trkpt lat="39.477293" lon="-6.372752">
        <ele>434.061</ele>
        <time>2019-02-27T22:42:53Z</time>
      </trkpt>
      <trkpt lat="39.477266" lon="-6.372797">
        <ele>434.272</ele>
        <time>2019-02-27T22:43:15Z</time>
      </trkpt>
      <trkpt lat="39.477267" lon="-6.372804">
        <ele>434.273</ele>
        <time>2019-02-27T22:43:22Z</time>
      </trkpt>
      <trkpt lat="39.477321" lon="-6.372920">
        <ele>434.542</ele>
        <time>2019-02-27T22:43:50Z</time>
      </trkpt>
      <trkpt lat="39.477483" lon="-6.373042">
        <ele>435.256</ele>
        <time>2019-02-27T22:44:00Z</time>
      </trkpt>
      <trkpt lat="39.477580" lon="-6.373105">
        <ele>435.899</ele>
        <time>2019-02-27T22:44:06Z</time>
      </trkpt>
      <trkpt lat="39.477882" lon="-6.373359">
        <ele>437.178</ele>
        <time>2019-02-27T22:44:20Z</time>
      </trkpt>
      <trkpt lat="39.478140" lon="-6.373583">
        <ele>437.457</ele>
        <time>2019-02-27T22:44:32Z</time>
      </trkpt>
      <trkpt lat="39.478435" lon="-6.373856">
        <ele>437.787</ele>
        <time>2019-02-27T22:44:46Z</time>
      </trkpt>
      <trkpt lat="39.478651" lon="-6.374132">
        <ele>437.642</ele>
        <time>2019-02-27T22:44:57Z</time>
      </trkpt>
      <trkpt lat="39.478886" lon="-6.374353">
        <ele>437.426</ele>
        <time>2019-02-27T22:45:05Z</time>
      </trkpt>
      <trkpt lat="39.478953" lon="-6.374421">
        <ele>437.308</ele>
        <time>2019-02-27T22:45:07Z</time>
      </trkpt>
      <trkpt lat="39.479371" lon="-6.374767">
        <ele>437.661</ele>
        <time>2019-02-27T22:45:20Z</time>
      </trkpt>
      <trkpt lat="39.479728" lon="-6.375021">
        <ele>436.942</ele>
        <time>2019-02-27T22:45:36Z</time>
      </trkpt>
      <trkpt lat="39.479877" lon="-6.375136">
        <ele>436.633</ele>
        <time>2019-02-27T22:45:42Z</time>
      </trkpt>
      <trkpt lat="39.479924" lon="-6.375181">
        <ele>436.692</ele>
        <time>2019-02-27T22:45:50Z</time>
      </trkpt>
      <trkpt lat="39.479987" lon="-6.375233">
        <ele>436.656</ele>
        <time>2019-02-27T22:46:42Z</time>
      </trkpt>
      <trkpt lat="39.479987" lon="-6.375338">
        <ele>436.639</ele>
        <time>2019-02-27T22:46:45Z</time>
      </trkpt>
      <trkpt lat="39.479995" lon="-6.375758">
        <ele>437.538</ele>
        <time>2019-02-27T22:46:54Z</time>
      </trkpt>
      <trkpt lat="39.480262" lon="-6.376204">
        <ele>435.127</ele>
        <time>2019-02-27T22:47:02Z</time>
      </trkpt>
      <trkpt lat="39.480286" lon="-6.376276">
        <ele>435.065</ele>
        <time>2019-02-27T22:47:03Z</time>
      </trkpt>
      <trkpt lat="39.480300" lon="-6.376352">
        <ele>434.668</ele>
        <time>2019-02-27T22:47:04Z</time>
      </trkpt>
      <trkpt lat="39.480312" lon="-6.376513">
        <ele>433.414</ele>
        <time>2019-02-27T22:47:06Z</time>
      </trkpt>
      <trkpt lat="39.480252" lon="-6.377395">
        <ele>425.908</ele>
        <time>2019-02-27T22:47:16Z</time>
      </trkpt>
      <trkpt lat="39.480204" lon="-6.377831">
        <ele>422.989</ele>
        <time>2019-02-27T22:47:23Z</time>
      </trkpt>
      <trkpt lat="39.480185" lon="-6.377961">
        <ele>422.350</ele>
        <time>2019-02-27T22:47:25Z</time>
      </trkpt>
      <trkpt lat="39.480170" lon="-6.378308">
        <ele>420.771</ele>
        <time>2019-02-27T22:47:30Z</time>
      </trkpt>
      <trkpt lat="39.480180" lon="-6.378376">
        <ele>420.330</ele>
        <time>2019-02-27T22:47:31Z</time>
      </trkpt>
      <trkpt lat="39.480200" lon="-6.378452">
        <ele>419.954</ele>
        <time>2019-02-27T22:47:32Z</time>
      </trkpt>
      <trkpt lat="39.480228" lon="-6.378529">
        <ele>419.427</ele>
        <time>2019-02-27T22:47:33Z</time>
      </trkpt>
      <trkpt lat="39.480268" lon="-6.378605">
        <ele>418.426</ele>
        <time>2019-02-27T22:47:34Z</time>
      </trkpt>
      <trkpt lat="39.480319" lon="-6.378678">
        <ele>418.045</ele>
        <time>2019-02-27T22:47:35Z</time>
      </trkpt>
      <trkpt lat="39.480382" lon="-6.378747">
        <ele>417.549</ele>
        <time>2019-02-27T22:47:36Z</time>
      </trkpt>
      <trkpt lat="39.480454" lon="-6.378810">
        <ele>416.802</ele>
        <time>2019-02-27T22:47:37Z</time>
      </trkpt>
      <trkpt lat="39.480531" lon="-6.378869">
        <ele>415.922</ele>
        <time>2019-02-27T22:47:38Z</time>
      </trkpt>
      <trkpt lat="39.481008" lon="-6.379169">
        <ele>411.808</ele>
        <time>2019-02-27T22:47:44Z</time>
      </trkpt>
      <trkpt lat="39.481259" lon="-6.379309">
        <ele>410.157</ele>
        <time>2019-02-27T22:47:49Z</time>
      </trkpt>
      <trkpt lat="39.481401" lon="-6.379417">
        <ele>409.198</ele>
        <time>2019-02-27T22:47:52Z</time>
      </trkpt>
      <trkpt lat="39.481760" lon="-6.379741">
        <ele>406.469</ele>
        <time>2019-02-27T22:47:58Z</time>
      </trkpt>
      <trkpt lat="39.482325" lon="-6.380115">
        <ele>403.738</ele>
        <time>2019-02-27T22:48:05Z</time>
      </trkpt>
      <trkpt lat="39.483157" lon="-6.380578">
        <ele>399.482</ele>
        <time>2019-02-27T22:48:16Z</time>
      </trkpt>
      <trkpt lat="39.484112" lon="-6.381205">
        <ele>394.955</ele>
        <time>2019-02-27T22:48:29Z</time>
      </trkpt>
      <trkpt lat="39.485115" lon="-6.381868">
        <ele>391.234</ele>
        <time>2019-02-27T22:48:43Z</time>
      </trkpt>
      <trkpt lat="39.485525" lon="-6.382139">
        <ele>391.523</ele>
        <time>2019-02-27T22:48:51Z</time>
      </trkpt>
      <trkpt lat="39.485573" lon="-6.382152">
        <ele>391.641</ele>
        <time>2019-02-27T22:48:52Z</time>
      </trkpt>
      <trkpt lat="39.485619" lon="-6.382156">
        <ele>391.781</ele>
        <time>2019-02-27T22:48:53Z</time>
      </trkpt>
      <trkpt lat="39.485662" lon="-6.382152">
        <ele>391.909</ele>
        <time>2019-02-27T22:48:54Z</time>
      </trkpt>
      <trkpt lat="39.485706" lon="-6.382141">
        <ele>392.008</ele>
        <time>2019-02-27T22:48:55Z</time>
      </trkpt>
      <trkpt lat="39.485747" lon="-6.382124">
        <ele>392.167</ele>
        <time>2019-02-27T22:48:56Z</time>
      </trkpt>
      <trkpt lat="39.485787" lon="-6.382104">
        <ele>392.278</ele>
        <time>2019-02-27T22:48:57Z</time>
      </trkpt>
      <trkpt lat="39.485941" lon="-6.382011">
        <ele>393.239</ele>
        <time>2019-02-27T22:49:01Z</time>
      </trkpt>
      <trkpt lat="39.485980" lon="-6.381998">
        <ele>393.488</ele>
        <time>2019-02-27T22:49:02Z</time>
      </trkpt>
      <trkpt lat="39.486340" lon="-6.382169">
        <ele>395.922</ele>
        <time>2019-02-27T22:49:13Z</time>
      </trkpt>
      <trkpt lat="39.486507" lon="-6.382563">
        <ele>399.715</ele>
        <time>2019-02-27T22:49:24Z</time>
      </trkpt>
      <trkpt lat="39.486955" lon="-6.382714">
        <ele>401.344</ele>
        <time>2019-02-27T22:49:38Z</time>
      </trkpt>
      <trkpt lat="39.487558" lon="-6.382943">
        <ele>401.673</ele>
        <time>2019-02-27T22:49:57Z</time>
      </trkpt>
      <trkpt lat="39.488329" lon="-6.383235">
        <ele>399.266</ele>
        <time>2019-02-27T22:50:18Z</time>
      </trkpt>
      <trkpt lat="39.489154" lon="-6.383545">
        <ele>394.829</ele>
        <time>2019-02-27T22:50:32Z</time>
      </trkpt>
      <trkpt lat="39.490137" lon="-6.383924">
        <ele>389.921</ele>
        <time>2019-02-27T22:50:44Z</time>
      </trkpt>
      <trkpt lat="39.490867" lon="-6.384196">
        <ele>388.208</ele>
        <time>2019-02-27T22:50:52Z</time>
      </trkpt>
      <trkpt lat="39.492053" lon="-6.384641">
        <ele>386.689</ele>
        <time>2019-02-27T22:51:06Z</time>
      </trkpt>
      <trkpt lat="39.493585" lon="-6.385197">
        <ele>383.840</ele>
        <time>2019-02-27T22:51:26Z</time>
      </trkpt>
      <trkpt lat="39.495141" lon="-6.385832">
        <ele>380.081</ele>
        <time>2019-02-27T22:51:48Z</time>
      </trkpt>
      <trkpt lat="39.496214" lon="-6.386362">
        <ele>373.580</ele>
        <time>2019-02-27T22:52:02Z</time>
      </trkpt>
      <trkpt lat="39.496980" lon="-6.386751">
        <ele>373.264</ele>
        <time>2019-02-27T22:52:11Z</time>
      </trkpt>
      <trkpt lat="39.498149" lon="-6.387335">
        <ele>375.577</ele>
        <time>2019-02-27T22:52:27Z</time>
      </trkpt>
      <trkpt lat="39.499191" lon="-6.387852">
        <ele>375.926</ele>
        <time>2019-02-27T22:52:47Z</time>
      </trkpt>
      <trkpt lat="39.500303" lon="-6.388413">
        <ele>374.325</ele>
        <time>2019-02-27T22:53:06Z</time>
      </trkpt>
      <trkpt lat="39.501640" lon="-6.389091">
        <ele>371.298</ele>
        <time>2019-02-27T22:53:26Z</time>
      </trkpt>
      <trkpt lat="39.502680" lon="-6.389615">
        <ele>367.715</ele>
        <time>2019-02-27T22:53:39Z</time>
      </trkpt>
      <trkpt lat="39.503596" lon="-6.390083">
        <ele>365.426</ele>
        <time>2019-02-27T22:53:50Z</time>
      </trkpt>
      <trkpt lat="39.504562" lon="-6.390565">
        <ele>363.708</ele>
        <time>2019-02-27T22:54:02Z</time>
      </trkpt>
      <trkpt lat="39.506007" lon="-6.391297">
        <ele>362.342</ele>
        <time>2019-02-27T22:54:23Z</time>
      </trkpt>
      <trkpt lat="39.507293" lon="-6.391928">
        <ele>357.733</ele>
        <time>2019-02-27T22:54:43Z</time>
      </trkpt>
      <trkpt lat="39.507526" lon="-6.392044">
        <ele>356.934</ele>
        <time>2019-02-27T22:54:52Z</time>
      </trkpt>
      <trkpt lat="39.507524" lon="-6.392042">
        <ele>356.963</ele>
        <time>2019-02-27T22:54:54Z</time>
      </trkpt>
      <trkpt lat="39.507519" lon="-6.392131">
        <ele>356.617</ele>
        <time>2019-02-27T22:55:00Z</time>
      </trkpt>
      <trkpt lat="39.507509" lon="-6.392157">
        <ele>356.630</ele>
        <time>2019-02-27T22:55:01Z</time>
      </trkpt>
      <trkpt lat="39.507496" lon="-6.392181">
        <ele>356.789</ele>
        <time>2019-02-27T22:55:02Z</time>
      </trkpt>
      <trkpt lat="39.507479" lon="-6.392205">
        <ele>356.848</ele>
        <time>2019-02-27T22:55:03Z</time>
      </trkpt>
      <trkpt lat="39.507459" lon="-6.392235">
        <ele>356.822</ele>
        <time>2019-02-27T22:55:04Z</time>
      </trkpt>
      <trkpt lat="39.507441" lon="-6.392271">
        <ele>356.962</ele>
        <time>2019-02-27T22:55:05Z</time>
      </trkpt>
      <trkpt lat="39.507432" lon="-6.392310">
        <ele>357.008</ele>
        <time>2019-02-27T22:55:06Z</time>
      </trkpt>
      <trkpt lat="39.507429" lon="-6.392350">
        <ele>357.108</ele>
        <time>2019-02-27T22:55:07Z</time>
      </trkpt>
      <trkpt lat="39.507429" lon="-6.392387">
        <ele>357.135</ele>
        <time>2019-02-27T22:55:08Z</time>
      </trkpt>
      <trkpt lat="39.507430" lon="-6.392419">
        <ele>357.216</ele>
        <time>2019-02-27T22:55:09Z</time>
      </trkpt>
      <trkpt lat="39.507432" lon="-6.392624">
        <ele>357.617</ele>
        <time>2019-02-27T22:55:20Z</time>
      </trkpt>
      <trkpt lat="39.507683" lon="-6.392822">
        <ele>357.246</ele>
        <time>2019-02-27T22:55:33Z</time>
      </trkpt>
      <trkpt lat="39.508002" lon="-6.392987">
        <ele>356.420</ele>
        <time>2019-02-27T22:55:47Z</time>
      </trkpt>
      <trkpt lat="39.508410" lon="-6.393101">
        <ele>357.993</ele>
        <time>2019-02-27T22:56:02Z</time>
      </trkpt>
      <trkpt lat="39.508841" lon="-6.393395">
        <ele>359.352</ele>
        <time>2019-02-27T22:56:19Z</time>
      </trkpt>
      <trkpt lat="39.509247" lon="-6.393555">
        <ele>359.491</ele>
        <time>2019-02-27T22:56:31Z</time>
      </trkpt>
      <trkpt lat="39.509757" lon="-6.393712">
        <ele>360.044</ele>
        <time>2019-02-27T22:56:45Z</time>
      </trkpt>
      <trkpt lat="39.510257" lon="-6.393915">
        <ele>362.205</ele>
        <time>2019-02-27T22:57:03Z</time>
      </trkpt>
      <trkpt lat="39.510811" lon="-6.394126">
        <ele>364.015</ele>
        <time>2019-02-27T22:57:22Z</time>
      </trkpt>
      <trkpt lat="39.511440" lon="-6.394421">
        <ele>364.108</ele>
        <time>2019-02-27T22:57:39Z</time>
      </trkpt>
      <trkpt lat="39.511476" lon="-6.394451">
        <ele>363.817</ele>
        <time>2019-02-27T22:57:40Z</time>
      </trkpt>
      <trkpt lat="39.511896" lon="-6.394921">
        <ele>363.488</ele>
        <time>2019-02-27T22:57:55Z</time>
      </trkpt>
      <trkpt lat="39.512348" lon="-6.395425">
        <ele>365.149</ele>
        <time>2019-02-27T22:58:13Z</time>
      </trkpt>
      <trkpt lat="39.512705" lon="-6.395816">
        <ele>366.578</ele>
        <time>2019-02-27T22:58:28Z</time>
      </trkpt>
      <trkpt lat="39.513222" lon="-6.396390">
        <ele>367.722</ele>
        <time>2019-02-27T22:58:49Z</time>
      </trkpt>
      <trkpt lat="39.513773" lon="-6.396849">
        <ele>366.865</ele>
        <time>2019-02-27T22:59:04Z</time>
      </trkpt>
      <trkpt lat="39.513821" lon="-6.396868">
        <ele>366.834</ele>
        <time>2019-02-27T22:59:05Z</time>
      </trkpt>
      <trkpt lat="39.513868" lon="-6.396884">
        <ele>366.733</ele>
        <time>2019-02-27T22:59:06Z</time>
      </trkpt>
      <trkpt lat="39.514627" lon="-6.397018">
        <ele>364.685</ele>
        <time>2019-02-27T22:59:20Z</time>
      </trkpt>
      <trkpt lat="39.515302" lon="-6.397159">
        <ele>361.489</ele>
        <time>2019-02-27T22:59:31Z</time>
      </trkpt>
      <trkpt lat="39.515907" lon="-6.397262">
        <ele>358.317</ele>
        <time>2019-02-27T22:59:41Z</time>
      </trkpt>
      <trkpt lat="39.516475" lon="-6.397367">
        <ele>355.308</ele>
        <time>2019-02-27T22:59:53Z</time>
      </trkpt>
      <trkpt lat="39.516480" lon="-6.397371">
        <ele>355.351</ele>
        <time>2019-02-27T22:59:58Z</time>
      </trkpt>
      <trkpt lat="39.516477" lon="-6.397430">
        <ele>355.142</ele>
        <time>2019-02-27T23:00:10Z</time>
      </trkpt>
      <trkpt lat="39.516889" lon="-6.397700">
        <ele>353.263</ele>
        <time>2019-02-27T23:00:23Z</time>
      </trkpt>
      <trkpt lat="39.517481" lon="-6.397881">
        <ele>350.482</ele>
        <time>2019-02-27T23:00:34Z</time>
      </trkpt>
      <trkpt lat="39.517731" lon="-6.397919">
        <ele>350.636</ele>
        <time>2019-02-27T23:00:46Z</time>
      </trkpt>
      <trkpt lat="39.518048" lon="-6.398038">
        <ele>353.219</ele>
        <time>2019-02-27T23:01:01Z</time>
      </trkpt>
      <trkpt lat="39.518388" lon="-6.398221">
        <ele>355.398</ele>
        <time>2019-02-27T23:01:18Z</time>
      </trkpt>
      <trkpt lat="39.518760" lon="-6.398513">
        <ele>356.837</ele>
        <time>2019-02-27T23:01:35Z</time>
      </trkpt>
      <trkpt lat="39.519254" lon="-6.398928">
        <ele>356.219</ele>
        <time>2019-02-27T23:01:48Z</time>
      </trkpt>
      <trkpt lat="39.520188" lon="-6.399539">
        <ele>353.209</ele>
        <time>2019-02-27T23:02:05Z</time>
      </trkpt>
      <trkpt lat="39.520961" lon="-6.399999">
        <ele>350.219</ele>
        <time>2019-02-27T23:02:19Z</time>
      </trkpt>
      <trkpt lat="39.521004" lon="-6.400041">
        <ele>350.308</ele>
        <time>2019-02-27T23:02:20Z</time>
      </trkpt>
      <trkpt lat="39.521636" lon="-6.400757">
        <ele>351.724</ele>
        <time>2019-02-27T23:02:39Z</time>
      </trkpt>
      <trkpt lat="39.521774" lon="-6.400957">
        <ele>351.725</ele>
        <time>2019-02-27T23:02:44Z</time>
      </trkpt>
      <trkpt lat="39.521807" lon="-6.400990">
        <ele>351.756</ele>
        <time>2019-02-27T23:02:45Z</time>
      </trkpt>
      <trkpt lat="39.521843" lon="-6.401018">
        <ele>351.785</ele>
        <time>2019-02-27T23:02:46Z</time>
      </trkpt>
      <trkpt lat="39.521884" lon="-6.401039">
        <ele>351.759</ele>
        <time>2019-02-27T23:02:47Z</time>
      </trkpt>
      <trkpt lat="39.521926" lon="-6.401054">
        <ele>351.782</ele>
        <time>2019-02-27T23:02:48Z</time>
      </trkpt>
      <trkpt lat="39.521965" lon="-6.401063">
        <ele>351.771</ele>
        <time>2019-02-27T23:02:49Z</time>
      </trkpt>
      <trkpt lat="39.522004" lon="-6.401064">
        <ele>351.790</ele>
        <time>2019-02-27T23:02:50Z</time>
      </trkpt>
      <trkpt lat="39.522044" lon="-6.401063">
        <ele>351.795</ele>
        <time>2019-02-27T23:02:51Z</time>
      </trkpt>
      <trkpt lat="39.522573" lon="-6.401164">
        <ele>353.949</ele>
        <time>2019-02-27T23:03:07Z</time>
      </trkpt>
      <trkpt lat="39.523192" lon="-6.401509">
        <ele>358.223</ele>
        <time>2019-02-27T23:03:29Z</time>
      </trkpt>
      <trkpt lat="39.523480" lon="-6.401950">
        <ele>361.708</ele>
        <time>2019-02-27T23:03:45Z</time>
      </trkpt>
      <trkpt lat="39.523665" lon="-6.402267">
        <ele>363.592</ele>
        <time>2019-02-27T23:04:00Z</time>
      </trkpt>
      <trkpt lat="39.524106" lon="-6.402690">
        <ele>364.063</ele>
        <time>2019-02-27T23:04:18Z</time>
      </trkpt>
      <trkpt lat="39.524443" lon="-6.403079">
        <ele>365.634</ele>
        <time>2019-02-27T23:04:34Z</time>
      </trkpt>
      <trkpt lat="39.525014" lon="-6.403571">
        <ele>367.183</ele>
        <time>2019-02-27T23:04:57Z</time>
      </trkpt>
      <trkpt lat="39.525401" lon="-6.403832">
        <ele>367.477</ele>
        <time>2019-02-27T23:05:09Z</time>
      </trkpt>
      <trkpt lat="39.525441" lon="-6.403860">
        <ele>367.430</ele>
        <time>2019-02-27T23:05:10Z</time>
      </trkpt>
      <trkpt lat="39.526310" lon="-6.404488">
        <ele>367.479</ele>
        <time>2019-02-27T23:05:30Z</time>
      </trkpt>
      <trkpt lat="39.527056" lon="-6.405266">
        <ele>363.738</ele>
        <time>2019-02-27T23:05:45Z</time>
      </trkpt>
      <trkpt lat="39.527330" lon="-6.405583">
        <ele>362.416</ele>
        <time>2019-02-27T23:05:50Z</time>
      </trkpt>
      <trkpt lat="39.527504" lon="-6.405708">
        <ele>362.276</ele>
        <time>2019-02-27T23:05:53Z</time>
      </trkpt>
      <trkpt lat="39.527559" lon="-6.405733">
        <ele>362.213</ele>
        <time>2019-02-27T23:05:54Z</time>
      </trkpt>
      <trkpt lat="39.528316" lon="-6.406158">
        <ele>361.008</ele>
        <time>2019-02-27T23:06:10Z</time>
      </trkpt>
      <trkpt lat="39.528609" lon="-6.406451">
        <ele>360.154</ele>
        <time>2019-02-27T23:06:16Z</time>
      </trkpt>
      <trkpt lat="39.529069" lon="-6.407071">
        <ele>357.235</ele>
        <time>2019-02-27T23:06:28Z</time>
      </trkpt>
      <trkpt lat="39.529515" lon="-6.407451">
        <ele>358.816</ele>
        <time>2019-02-27T23:06:45Z</time>
      </trkpt>
      <trkpt lat="39.529901" lon="-6.407752">
        <ele>362.845</ele>
        <time>2019-02-27T23:07:03Z</time>
      </trkpt>
      <trkpt lat="39.530207" lon="-6.408058">
        <ele>365.699</ele>
        <time>2019-02-27T23:07:20Z</time>
      </trkpt>
      <trkpt lat="39.530596" lon="-6.408197">
        <ele>366.062</ele>
        <time>2019-02-27T23:07:34Z</time>
      </trkpt>
      <trkpt lat="39.530945" lon="-6.408217">
        <ele>364.071</ele>
        <time>2019-02-27T23:07:40Z</time>
      </trkpt>
      <trkpt lat="39.531616" lon="-6.408599">
        <ele>362.150</ele>
        <time>2019-02-27T23:07:53Z</time>
      </trkpt>
      <trkpt lat="39.531867" lon="-6.408711">
        <ele>361.543</ele>
        <time>2019-02-27T23:07:57Z</time>
      </trkpt>
      <trkpt lat="39.531925" lon="-6.408752">
        <ele>361.564</ele>
        <time>2019-02-27T23:07:58Z</time>
      </trkpt>
      <trkpt lat="39.531977" lon="-6.408797">
        <ele>361.410</ele>
        <time>2019-02-27T23:07:59Z</time>
      </trkpt>
      <trkpt lat="39.532364" lon="-6.409150">
        <ele>362.408</ele>
        <time>2019-02-27T23:08:11Z</time>
      </trkpt>
      <trkpt lat="39.532637" lon="-6.409354">
        <ele>365.227</ele>
        <time>2019-02-27T23:08:24Z</time>
      </trkpt>
      <trkpt lat="39.533015" lon="-6.409362">
        <ele>368.148</ele>
        <time>2019-02-27T23:08:41Z</time>
      </trkpt>
      <trkpt lat="39.533396" lon="-6.409301">
        <ele>370.229</ele>
        <time>2019-02-27T23:08:58Z</time>
      </trkpt>
      <trkpt lat="39.533787" lon="-6.409015">
        <ele>370.718</ele>
        <time>2019-02-27T23:09:13Z</time>
      </trkpt>
      <trkpt lat="39.533830" lon="-6.408995">
        <ele>370.752</ele>
        <time>2019-02-27T23:09:14Z</time>
      </trkpt>
      <trkpt lat="39.534574" lon="-6.408762">
        <ele>367.795</ele>
        <time>2019-02-27T23:09:27Z</time>
      </trkpt>
      <trkpt lat="39.534641" lon="-6.408756">
        <ele>367.524</ele>
        <time>2019-02-27T23:09:28Z</time>
      </trkpt>
      <trkpt lat="39.534772" lon="-6.408762">
        <ele>367.463</ele>
        <time>2019-02-27T23:09:30Z</time>
      </trkpt>
      <trkpt lat="39.534832" lon="-6.408779">
        <ele>367.384</ele>
        <time>2019-02-27T23:09:31Z</time>
      </trkpt>
      <trkpt lat="39.534887" lon="-6.408804">
        <ele>367.307</ele>
        <time>2019-02-27T23:09:32Z</time>
      </trkpt>
      <trkpt lat="39.535097" lon="-6.408971">
        <ele>367.317</ele>
        <time>2019-02-27T23:09:37Z</time>
      </trkpt>
      <trkpt lat="39.535129" lon="-6.409003">
        <ele>367.308</ele>
        <time>2019-02-27T23:09:38Z</time>
      </trkpt>
      <trkpt lat="39.535158" lon="-6.409036">
        <ele>367.391</ele>
        <time>2019-02-27T23:09:39Z</time>
      </trkpt>
      <trkpt lat="39.535184" lon="-6.409069">
        <ele>367.442</ele>
        <time>2019-02-27T23:09:40Z</time>
      </trkpt>
      <trkpt lat="39.535207" lon="-6.409102">
        <ele>367.463</ele>
        <time>2019-02-27T23:09:41Z</time>
      </trkpt>
      <trkpt lat="39.535543" lon="-6.409551">
        <ele>368.752</ele>
        <time>2019-02-27T23:09:55Z</time>
      </trkpt>
      <trkpt lat="39.535573" lon="-6.409574">
        <ele>368.876</ele>
        <time>2019-02-27T23:09:56Z</time>
      </trkpt>
      <trkpt lat="39.535597" lon="-6.409602">
        <ele>368.939</ele>
        <time>2019-02-27T23:09:57Z</time>
      </trkpt>
      <trkpt lat="39.535896" lon="-6.409988">
        <ele>369.938</ele>
        <time>2019-02-27T23:10:10Z</time>
      </trkpt>
      <trkpt lat="39.536227" lon="-6.409939">
        <ele>372.247</ele>
        <time>2019-02-27T23:10:21Z</time>
      </trkpt>
      <trkpt lat="39.536672" lon="-6.409745">
        <ele>375.082</ele>
        <time>2019-02-27T23:10:39Z</time>
      </trkpt>
      <trkpt lat="39.537105" lon="-6.409640">
        <ele>376.443</ele>
        <time>2019-02-27T23:11:00Z</time>
      </trkpt>
      <trkpt lat="39.537466" lon="-6.409532">
        <ele>376.317</ele>
        <time>2019-02-27T23:11:18Z</time>
      </trkpt>
      <trkpt lat="39.537882" lon="-6.409352">
        <ele>375.408</ele>
        <time>2019-02-27T23:11:35Z</time>
      </trkpt>
      <trkpt lat="39.537957" lon="-6.409348">
        <ele>375.471</ele>
        <time>2019-02-27T23:11:37Z</time>
      </trkpt>
      <trkpt lat="39.538003" lon="-6.409355">
        <ele>375.472</ele>
        <time>2019-02-27T23:11:38Z</time>
      </trkpt>
      <trkpt lat="39.538050" lon="-6.409370">
        <ele>375.573</ele>
        <time>2019-02-27T23:11:39Z</time>
      </trkpt>
      <trkpt lat="39.538092" lon="-6.409391">
        <ele>375.672</ele>
        <time>2019-02-27T23:11:40Z</time>
      </trkpt>
      <trkpt lat="39.538129" lon="-6.409414">
        <ele>375.786</ele>
        <time>2019-02-27T23:11:41Z</time>
      </trkpt>
      <trkpt lat="39.538513" lon="-6.409654">
        <ele>376.949</ele>
        <time>2019-02-27T23:11:55Z</time>
      </trkpt>
      <trkpt lat="39.538946" lon="-6.409857">
        <ele>379.388</ele>
        <time>2019-02-27T23:12:13Z</time>
      </trkpt>
      <trkpt lat="39.539431" lon="-6.410070">
        <ele>380.777</ele>
        <time>2019-02-27T23:12:33Z</time>
      </trkpt>
      <trkpt lat="39.539809" lon="-6.410190">
        <ele>380.273</ele>
        <time>2019-02-27T23:12:46Z</time>
      </trkpt>
      <trkpt lat="39.539851" lon="-6.410197">
        <ele>380.185</ele>
        <time>2019-02-27T23:12:47Z</time>
      </trkpt>
      <trkpt lat="39.540622" lon="-6.410349">
        <ele>378.513</ele>
        <time>2019-02-27T23:13:01Z</time>
      </trkpt>
      <trkpt lat="39.541567" lon="-6.410729">
        <ele>378.408</ele>
        <time>2019-02-27T23:13:19Z</time>
      </trkpt>
      <trkpt lat="39.541658" lon="-6.410767">
        <ele>378.550</ele>
        <time>2019-02-27T23:13:21Z</time>
      </trkpt>
      <trkpt lat="39.542300" lon="-6.410982">
        <ele>378.871</ele>
        <time>2019-02-27T23:13:35Z</time>
      </trkpt>
      <trkpt lat="39.542868" lon="-6.411205">
        <ele>378.852</ele>
        <time>2019-02-27T23:13:47Z</time>
      </trkpt>
      <trkpt lat="39.542914" lon="-6.411228">
        <ele>378.831</ele>
        <time>2019-02-27T23:13:48Z</time>
      </trkpt>
      <trkpt lat="39.542961" lon="-6.411245">
        <ele>378.975</ele>
        <time>2019-02-27T23:13:49Z</time>
      </trkpt>
      <trkpt lat="39.543008" lon="-6.411264">
        <ele>378.978</ele>
        <time>2019-02-27T23:13:50Z</time>
      </trkpt>
      <trkpt lat="39.543052" lon="-6.411287">
        <ele>378.987</ele>
        <time>2019-02-27T23:13:51Z</time>
      </trkpt>
      <trkpt lat="39.543596" lon="-6.411519">
        <ele>379.136</ele>
        <time>2019-02-27T23:14:03Z</time>
      </trkpt>
      <trkpt lat="39.543641" lon="-6.411532">
        <ele>379.166</ele>
        <time>2019-02-27T23:14:04Z</time>
      </trkpt>
      <trkpt lat="39.544282" lon="-6.411739">
        <ele>380.429</ele>
        <time>2019-02-27T23:14:19Z</time>
      </trkpt>
      <trkpt lat="39.544320" lon="-6.411757">
        <ele>380.521</ele>
        <time>2019-02-27T23:14:20Z</time>
      </trkpt>
      <trkpt lat="39.544359" lon="-6.411771">
        <ele>380.608</ele>
        <time>2019-02-27T23:14:21Z</time>
      </trkpt>
      <trkpt lat="39.545125" lon="-6.412097">
        <ele>381.259</ele>
        <time>2019-02-27T23:14:40Z</time>
      </trkpt>
      <trkpt lat="39.545471" lon="-6.412255">
        <ele>381.190</ele>
        <time>2019-02-27T23:14:48Z</time>
      </trkpt>
      <trkpt lat="39.545556" lon="-6.412287">
        <ele>381.071</ele>
        <time>2019-02-27T23:14:50Z</time>
      </trkpt>
      <trkpt lat="39.545941" lon="-6.412461">
        <ele>381.210</ele>
        <time>2019-02-27T23:14:59Z</time>
      </trkpt>
      <trkpt lat="39.546391" lon="-6.412599">
        <ele>381.164</ele>
        <time>2019-02-27T23:15:09Z</time>
      </trkpt>
      <trkpt lat="39.546432" lon="-6.412624">
        <ele>381.177</ele>
        <time>2019-02-27T23:15:10Z</time>
      </trkpt>
      <trkpt lat="39.546472" lon="-6.412649">
        <ele>381.176</ele>
        <time>2019-02-27T23:15:11Z</time>
      </trkpt>
      <trkpt lat="39.546513" lon="-6.412667">
        <ele>381.265</ele>
        <time>2019-02-27T23:15:12Z</time>
      </trkpt>
      <trkpt lat="39.546556" lon="-6.412679">
        <ele>381.292</ele>
        <time>2019-02-27T23:15:13Z</time>
      </trkpt>
      <trkpt lat="39.546600" lon="-6.412686">
        <ele>381.273</ele>
        <time>2019-02-27T23:15:14Z</time>
      </trkpt>
      <trkpt lat="39.546868" lon="-6.412788">
        <ele>381.220</ele>
        <time>2019-02-27T23:15:20Z</time>
      </trkpt>
      <trkpt lat="39.546913" lon="-6.412803">
        <ele>381.208</ele>
        <time>2019-02-27T23:15:21Z</time>
      </trkpt>
      <trkpt lat="39.547349" lon="-6.413001">
        <ele>381.812</ele>
        <time>2019-02-27T23:15:31Z</time>
      </trkpt>
      <trkpt lat="39.547394" lon="-6.413018">
        <ele>381.913</ele>
        <time>2019-02-27T23:15:32Z</time>
      </trkpt>
      <trkpt lat="39.547439" lon="-6.413035">
        <ele>382.084</ele>
        <time>2019-02-27T23:15:33Z</time>
      </trkpt>
      <trkpt lat="39.547481" lon="-6.413057">
        <ele>382.153</ele>
        <time>2019-02-27T23:15:34Z</time>
      </trkpt>
      <trkpt lat="39.547521" lon="-6.413084">
        <ele>382.187</ele>
        <time>2019-02-27T23:15:35Z</time>
      </trkpt>
      <trkpt lat="39.547562" lon="-6.413113">
        <ele>382.250</ele>
        <time>2019-02-27T23:15:36Z</time>
      </trkpt>
      <trkpt lat="39.547603" lon="-6.413143">
        <ele>382.219</ele>
        <time>2019-02-27T23:15:37Z</time>
      </trkpt>
      <trkpt lat="39.547765" lon="-6.413254">
        <ele>382.358</ele>
        <time>2019-02-27T23:15:41Z</time>
      </trkpt>
      <trkpt lat="39.548102" lon="-6.413406">
        <ele>382.325</ele>
        <time>2019-02-27T23:15:49Z</time>
      </trkpt>
      <trkpt lat="39.548144" lon="-6.413421">
        <ele>382.326</ele>
        <time>2019-02-27T23:15:50Z</time>
      </trkpt>
      <trkpt lat="39.548183" lon="-6.413441">
        <ele>382.308</ele>
        <time>2019-02-27T23:15:51Z</time>
      </trkpt>
      <trkpt lat="39.548431" lon="-6.413586">
        <ele>382.208</ele>
        <time>2019-02-27T23:16:02Z</time>
      </trkpt>
      <trkpt lat="39.548430" lon="-6.413586">
        <ele>382.275</ele>
        <time>2019-02-27T23:16:03Z</time>
      </trkpt>
      <trkpt lat="39.548435" lon="-6.413498">
        <ele>382.176</ele>
        <time>2019-02-27T23:17:10Z</time>
      </trkpt>
      <trkpt lat="39.548410" lon="-6.413599">
        <ele>382.057</ele>
        <time>2019-02-27T23:17:32Z</time>
      </trkpt>
      <trkpt lat="39.548408" lon="-6.413609">
        <ele>382.076</ele>
        <time>2019-02-27T23:17:40Z</time>
      </trkpt>
      <trkpt lat="39.548435" lon="-6.413606">
        <ele>381.960</ele>
        <time>2019-02-27T23:18:14Z</time>
      </trkpt>
      <trkpt lat="39.548481" lon="-6.413625">
        <ele>381.963</ele>
        <time>2019-02-27T23:18:17Z</time>
      </trkpt>
      <trkpt lat="39.548852" lon="-6.413753">
        <ele>381.692</ele>
        <time>2019-02-27T23:18:30Z</time>
      </trkpt>
      <trkpt lat="39.549126" lon="-6.413848">
        <ele>380.971</ele>
        <time>2019-02-27T23:18:37Z</time>
      </trkpt>
      <trkpt lat="39.549169" lon="-6.413859">
        <ele>380.758</ele>
        <time>2019-02-27T23:18:38Z</time>
      </trkpt>
      <trkpt lat="39.549212" lon="-6.413876">
        <ele>380.652</ele>
        <time>2019-02-27T23:18:39Z</time>
      </trkpt>
      <trkpt lat="39.549253" lon="-6.413902">
        <ele>380.517</ele>
        <time>2019-02-27T23:18:40Z</time>
      </trkpt>
      <trkpt lat="39.549294" lon="-6.413936">
        <ele>380.308</ele>
        <time>2019-02-27T23:18:41Z</time>
      </trkpt>
      <trkpt lat="39.549335" lon="-6.413969">
        <ele>380.228</ele>
        <time>2019-02-27T23:18:42Z</time>
      </trkpt>
      <trkpt lat="39.549381" lon="-6.413996">
        <ele>380.119</ele>
        <time>2019-02-27T23:18:43Z</time>
      </trkpt>
      <trkpt lat="39.549428" lon="-6.414019">
        <ele>380.040</ele>
        <time>2019-02-27T23:18:44Z</time>
      </trkpt>
      <trkpt lat="39.550243" lon="-6.414388">
        <ele>378.489</ele>
        <time>2019-02-27T23:19:01Z</time>
      </trkpt>
      <trkpt lat="39.550781" lon="-6.414647">
        <ele>377.993</ele>
        <time>2019-02-27T23:19:12Z</time>
      </trkpt>
      <trkpt lat="39.550830" lon="-6.414656">
        <ele>377.836</ele>
        <time>2019-02-27T23:19:13Z</time>
      </trkpt>
      <trkpt lat="39.551026" lon="-6.414664">
        <ele>377.675</ele>
        <time>2019-02-27T23:19:17Z</time>
      </trkpt>
      <trkpt lat="39.551073" lon="-6.414654">
        <ele>377.644</ele>
        <time>2019-02-27T23:19:18Z</time>
      </trkpt>
      <trkpt lat="39.551875" lon="-6.414409">
        <ele>376.217</ele>
        <time>2019-02-27T23:19:34Z</time>
      </trkpt>
      <trkpt lat="39.552120" lon="-6.414328">
        <ele>375.787</ele>
        <time>2019-02-27T23:19:42Z</time>
      </trkpt>
      <trkpt lat="39.552133" lon="-6.414306">
        <ele>375.715</ele>
        <time>2019-02-27T23:19:43Z</time>
      </trkpt>
      <trkpt lat="39.552140" lon="-6.414285">
        <ele>375.708</ele>
        <time>2019-02-27T23:19:44Z</time>
      </trkpt>
      <trkpt lat="39.552145" lon="-6.414267">
        <ele>375.764</ele>
        <time>2019-02-27T23:19:45Z</time>
      </trkpt>
      <trkpt lat="39.552147" lon="-6.414252">
        <ele>375.895</ele>
        <time>2019-02-27T23:19:46Z</time>
      </trkpt>
      <trkpt lat="39.552148" lon="-6.414237">
        <ele>375.836</ele>
        <time>2019-02-27T23:19:47Z</time>
      </trkpt>
      <trkpt lat="39.552172" lon="-6.414179">
        <ele>375.975</ele>
        <time>2019-02-27T23:19:50Z</time>
      </trkpt>
      <trkpt lat="39.552187" lon="-6.414156">
        <ele>375.969</ele>
        <time>2019-02-27T23:19:51Z</time>
      </trkpt>
      <trkpt lat="39.552207" lon="-6.414134">
        <ele>375.962</ele>
        <time>2019-02-27T23:19:52Z</time>
      </trkpt>
      <trkpt lat="39.552231" lon="-6.414121">
        <ele>375.981</ele>
        <time>2019-02-27T23:19:53Z</time>
      </trkpt>
      <trkpt lat="39.552262" lon="-6.414117">
        <ele>375.830</ele>
        <time>2019-02-27T23:19:54Z</time>
      </trkpt>
      <trkpt lat="39.552298" lon="-6.414119">
        <ele>375.816</ele>
        <time>2019-02-27T23:19:55Z</time>
      </trkpt>
      <trkpt lat="39.552335" lon="-6.414125">
        <ele>375.776</ele>
        <time>2019-02-27T23:19:56Z</time>
      </trkpt>
      <trkpt lat="39.552375" lon="-6.414135">
        <ele>375.713</ele>
        <time>2019-02-27T23:19:57Z</time>
      </trkpt>
      <trkpt lat="39.553084" lon="-6.414423">
        <ele>374.808</ele>
        <time>2019-02-27T23:20:11Z</time>
      </trkpt>
      <trkpt lat="39.554007" lon="-6.414740">
        <ele>374.164</ele>
        <time>2019-02-27T23:20:28Z</time>
      </trkpt>
      <trkpt lat="39.554532" lon="-6.414875">
        <ele>374.095</ele>
        <time>2019-02-27T23:20:40Z</time>
      </trkpt>
      <trkpt lat="39.555007" lon="-6.415020">
        <ele>373.816</ele>
        <time>2019-02-27T23:20:51Z</time>
      </trkpt>
      <trkpt lat="39.555316" lon="-6.415158">
        <ele>373.855</ele>
        <time>2019-02-27T23:21:01Z</time>
      </trkpt>
      <trkpt lat="39.555314" lon="-6.415160">
        <ele>373.839</ele>
        <time>2019-02-27T23:21:04Z</time>
      </trkpt>
      <trkpt lat="39.555374" lon="-6.415169">
        <ele>373.922</ele>
        <time>2019-02-27T23:21:23Z</time>
      </trkpt>
      <trkpt lat="39.555708" lon="-6.415299">
        <ele>374.171</ele>
        <time>2019-02-27T23:21:32Z</time>
      </trkpt>
      <trkpt lat="39.555890" lon="-6.415345">
        <ele>374.350</ele>
        <time>2019-02-27T23:21:36Z</time>
      </trkpt>
      <trkpt lat="39.555934" lon="-6.415359">
        <ele>374.347</ele>
        <time>2019-02-27T23:21:37Z</time>
      </trkpt>
      <trkpt lat="39.556628" lon="-6.415539">
        <ele>374.929</ele>
        <time>2019-02-27T23:21:51Z</time>
      </trkpt>
      <trkpt lat="39.557319" lon="-6.415752">
        <ele>374.921</ele>
        <time>2019-02-27T23:22:06Z</time>
      </trkpt>
      <trkpt lat="39.557448" lon="-6.415792">
        <ele>374.808</ele>
        <time>2019-02-27T23:22:09Z</time>
      </trkpt>
      <trkpt lat="39.557679" lon="-6.415856">
        <ele>374.517</ele>
        <time>2019-02-27T23:22:15Z</time>
      </trkpt>
      <trkpt lat="39.557719" lon="-6.415867">
        <ele>374.458</ele>
        <time>2019-02-27T23:22:16Z</time>
      </trkpt>
      <trkpt lat="39.557995" lon="-6.415975">
        <ele>374.059</ele>
        <time>2019-02-27T23:22:23Z</time>
      </trkpt>
      <trkpt lat="39.558164" lon="-6.416017">
        <ele>373.698</ele>
        <time>2019-02-27T23:22:27Z</time>
      </trkpt>
      <trkpt lat="39.558211" lon="-6.416026">
        <ele>373.572</ele>
        <time>2019-02-27T23:22:28Z</time>
      </trkpt>
      <trkpt lat="39.558347" lon="-6.416056">
        <ele>373.115</ele>
        <time>2019-02-27T23:22:32Z</time>
      </trkpt>
      <trkpt lat="39.558366" lon="-6.416050">
        <ele>373.044</ele>
        <time>2019-02-27T23:22:37Z</time>
      </trkpt>
      <trkpt lat="39.558452" lon="-6.416068">
        <ele>372.983</ele>
        <time>2019-02-27T23:22:50Z</time>
      </trkpt>
      <trkpt lat="39.558481" lon="-6.416078">
        <ele>372.842</ele>
        <time>2019-02-27T23:22:51Z</time>
      </trkpt>
      <trkpt lat="39.558628" lon="-6.416135">
        <ele>372.622</ele>
        <time>2019-02-27T23:22:55Z</time>
      </trkpt>
      <trkpt lat="39.558671" lon="-6.416153">
        <ele>372.514</ele>
        <time>2019-02-27T23:22:56Z</time>
      </trkpt>
      <trkpt lat="39.558717" lon="-6.416180">
        <ele>372.408</ele>
        <time>2019-02-27T23:22:57Z</time>
      </trkpt>
      <trkpt lat="39.558766" lon="-6.416203">
        <ele>372.397</ele>
        <time>2019-02-27T23:22:58Z</time>
      </trkpt>
      <trkpt lat="39.558817" lon="-6.416223">
        <ele>372.228</ele>
        <time>2019-02-27T23:22:59Z</time>
      </trkpt>
      <trkpt lat="39.558921" lon="-6.416262">
        <ele>372.059</ele>
        <time>2019-02-27T23:23:01Z</time>
      </trkpt>
      <trkpt lat="39.559077" lon="-6.416318">
        <ele>371.718</ele>
        <time>2019-02-27T23:23:04Z</time>
      </trkpt>
      <trkpt lat="39.559129" lon="-6.416340">
        <ele>371.552</ele>
        <time>2019-02-27T23:23:05Z</time>
      </trkpt>
      <trkpt lat="39.559183" lon="-6.416356">
        <ele>371.435</ele>
        <time>2019-02-27T23:23:06Z</time>
      </trkpt>
      <trkpt lat="39.559346" lon="-6.416410">
        <ele>371.124</ele>
        <time>2019-02-27T23:23:09Z</time>
      </trkpt>
      <trkpt lat="39.559463" lon="-6.416451">
        <ele>370.923</ele>
        <time>2019-02-27T23:23:11Z</time>
      </trkpt>
      <trkpt lat="39.559522" lon="-6.416470">
        <ele>370.716</ele>
        <time>2019-02-27T23:23:12Z</time>
      </trkpt>
      <trkpt lat="39.559755" lon="-6.416544">
        <ele>369.576</ele>
        <time>2019-02-27T23:23:16Z</time>
      </trkpt>
      <trkpt lat="39.560280" lon="-6.416702">
        <ele>368.713</ele>
        <time>2019-02-27T23:23:25Z</time>
      </trkpt>
      <trkpt lat="39.560337" lon="-6.416707">
        <ele>368.608</ele>
        <time>2019-02-27T23:23:26Z</time>
      </trkpt>
      <trkpt lat="39.560619" lon="-6.416751">
        <ele>368.234</ele>
        <time>2019-02-27T23:23:34Z</time>
      </trkpt>
      <trkpt lat="39.560913" lon="-6.416825">
        <ele>367.785</ele>
        <time>2019-02-27T23:23:41Z</time>
      </trkpt>
      <trkpt lat="39.561339" lon="-6.416943">
        <ele>367.236</ele>
        <time>2019-02-27T23:23:52Z</time>
      </trkpt>
      <trkpt lat="39.561539" lon="-6.416985">
        <ele>367.115</ele>
        <time>2019-02-27T23:23:58Z</time>
      </trkpt>
      <trkpt lat="39.561544" lon="-6.417013">
        <ele>367.159</ele>
        <time>2019-02-27T23:24:03Z</time>
      </trkpt>
      <trkpt lat="39.561579" lon="-6.417077">
        <ele>367.172</ele>
        <time>2019-02-27T23:24:24Z</time>
      </trkpt>
      <trkpt lat="39.561839" lon="-6.417120">
        <ele>366.071</ele>
        <time>2019-02-27T23:24:31Z</time>
      </trkpt>
      <trkpt lat="39.561882" lon="-6.417128">
        <ele>365.970</ele>
        <time>2019-02-27T23:24:32Z</time>
      </trkpt>
      <trkpt lat="39.562019" lon="-6.417157">
        <ele>365.778</ele>
        <time>2019-02-27T23:24:35Z</time>
      </trkpt>
      <trkpt lat="39.562154" lon="-6.417216">
        <ele>365.533</ele>
        <time>2019-02-27T23:24:38Z</time>
      </trkpt>
      <trkpt lat="39.562198" lon="-6.417236">
        <ele>365.326</ele>
        <time>2019-02-27T23:24:39Z</time>
      </trkpt>
      <trkpt lat="39.562297" lon="-6.417262">
        <ele>364.908</ele>
        <time>2019-02-27T23:24:41Z</time>
      </trkpt>
      <trkpt lat="39.562350" lon="-6.417277">
        <ele>364.680</ele>
        <time>2019-02-27T23:24:42Z</time>
      </trkpt>
      <trkpt lat="39.562404" lon="-6.417290">
        <ele>364.481</ele>
        <time>2019-02-27T23:24:43Z</time>
      </trkpt>
      <trkpt lat="39.563014" lon="-6.417457">
        <ele>362.422</ele>
        <time>2019-02-27T23:24:55Z</time>
      </trkpt>
      <trkpt lat="39.563870" lon="-6.417769">
        <ele>359.291</ele>
        <time>2019-02-27T23:25:08Z</time>
      </trkpt>
      <trkpt lat="39.564165" lon="-6.417883">
        <ele>357.885</ele>
        <time>2019-02-27T23:25:12Z</time>
      </trkpt>
      <trkpt lat="39.565004" lon="-6.418383">
        <ele>354.128</ele>
        <time>2019-02-27T23:25:25Z</time>
      </trkpt>
      <trkpt lat="39.565707" lon="-6.418790">
        <ele>351.417</ele>
        <time>2019-02-27T23:25:38Z</time>
      </trkpt>
      <trkpt lat="39.565815" lon="-6.418853">
        <ele>350.876</ele>
        <time>2019-02-27T23:25:40Z</time>
      </trkpt>
      <trkpt lat="39.565866" lon="-6.418896">
        <ele>350.733</ele>
        <time>2019-02-27T23:25:41Z</time>
      </trkpt>
      <trkpt lat="39.565915" lon="-6.418948">
        <ele>350.523</ele>
        <time>2019-02-27T23:25:42Z</time>
      </trkpt>
      <trkpt lat="39.566065" lon="-6.419093">
        <ele>350.115</ele>
        <time>2019-02-27T23:25:45Z</time>
      </trkpt>
      <trkpt lat="39.566121" lon="-6.419127">
        <ele>350.008</ele>
        <time>2019-02-27T23:25:46Z</time>
      </trkpt>
      <trkpt lat="39.566824" lon="-6.419502">
        <ele>350.996</ele>
        <time>2019-02-27T23:26:00Z</time>
      </trkpt>
      <trkpt lat="39.567149" lon="-6.419629">
        <ele>351.677</ele>
        <time>2019-02-27T23:26:07Z</time>
      </trkpt>
      <trkpt lat="39.567195" lon="-6.419637">
        <ele>351.758</ele>
        <time>2019-02-27T23:26:08Z</time>
      </trkpt>
      <trkpt lat="39.567810" lon="-6.419776">
        <ele>351.947</ele>
        <time>2019-02-27T23:26:22Z</time>
      </trkpt>
      <trkpt lat="39.568458" lon="-6.420049">
        <ele>353.061</ele>
        <time>2019-02-27T23:26:39Z</time>
      </trkpt>
      <trkpt lat="39.568993" lon="-6.420234">
        <ele>355.684</ele>
        <time>2019-02-27T23:26:57Z</time>
      </trkpt>
      <trkpt lat="39.569374" lon="-6.420448">
        <ele>358.173</ele>
        <time>2019-02-27T23:27:15Z</time>
      </trkpt>
      <trkpt lat="39.569684" lon="-6.420745">
        <ele>359.262</ele>
        <time>2019-02-27T23:27:29Z</time>
      </trkpt>
      <trkpt lat="39.570017" lon="-6.421130">
        <ele>360.129</ele>
        <time>2019-02-27T23:27:44Z</time>
      </trkpt>
      <trkpt lat="39.570446" lon="-6.421636">
        <ele>362.100</ele>
        <time>2019-02-27T23:28:04Z</time>
      </trkpt>
      <trkpt lat="39.570773" lon="-6.422019">
        <ele>364.020</ele>
        <time>2019-02-27T23:28:21Z</time>
      </trkpt>
      <trkpt lat="39.571123" lon="-6.422587">
        <ele>365.308</ele>
        <time>2019-02-27T23:28:41Z</time>
      </trkpt>
      <trkpt lat="39.571444" lon="-6.423147">
        <ele>365.995</ele>
        <time>2019-02-27T23:28:57Z</time>
      </trkpt>
      <trkpt lat="39.571798" lon="-6.423647">
        <ele>367.736</ele>
        <time>2019-02-27T23:29:16Z</time>
      </trkpt>
      <trkpt lat="39.572042" lon="-6.424049">
        <ele>369.987</ele>
        <time>2019-02-27T23:29:31Z</time>
      </trkpt>
      <trkpt lat="39.572328" lon="-6.424639">
        <ele>372.326</ele>
        <time>2019-02-27T23:29:51Z</time>
      </trkpt>
      <trkpt lat="39.572640" lon="-6.425142">
        <ele>374.880</ele>
        <time>2019-02-27T23:30:12Z</time>
      </trkpt>
      <trkpt lat="39.572872" lon="-6.425472">
        <ele>377.443</ele>
        <time>2019-02-27T23:30:30Z</time>
      </trkpt>
      <trkpt lat="39.573063" lon="-6.425777">
        <ele>380.272</ele>
        <time>2019-02-27T23:30:46Z</time>
      </trkpt>
      <trkpt lat="39.573276" lon="-6.426075">
        <ele>382.561</ele>
        <time>2019-02-27T23:31:04Z</time>
      </trkpt>
      <trkpt lat="39.573503" lon="-6.426388">
        <ele>384.819</ele>
        <time>2019-02-27T23:31:23Z</time>
      </trkpt>
      <trkpt lat="39.573736" lon="-6.426762">
        <ele>386.009</ele>
        <time>2019-02-27T23:31:42Z</time>
      </trkpt>
      <trkpt lat="39.574062" lon="-6.427377">
        <ele>385.919</ele>
        <time>2019-02-27T23:31:55Z</time>
      </trkpt>
      <trkpt lat="39.574350" lon="-6.427969">
        <ele>386.208</ele>
        <time>2019-02-27T23:32:08Z</time>
      </trkpt>
      <trkpt lat="39.574486" lon="-6.428404">
        <ele>387.744</ele>
        <time>2019-02-27T23:32:24Z</time>
      </trkpt>
      <trkpt lat="39.574595" lon="-6.428683">
        <ele>390.115</ele>
        <time>2019-02-27T23:32:38Z</time>
      </trkpt>
      <trkpt lat="39.574815" lon="-6.428934">
        <ele>393.166</ele>
        <time>2019-02-27T23:32:55Z</time>
      </trkpt>
      <trkpt lat="39.574882" lon="-6.428992">
        <ele>393.395</ele>
        <time>2019-02-27T23:33:00Z</time>
      </trkpt>
      <trkpt lat="39.574888" lon="-6.429013">
        <ele>393.429</ele>
        <time>2019-02-27T23:33:01Z</time>
      </trkpt>
      <trkpt lat="39.574896" lon="-6.429035">
        <ele>393.462</ele>
        <time>2019-02-27T23:33:02Z</time>
      </trkpt>
      <trkpt lat="39.574906" lon="-6.429057">
        <ele>393.591</ele>
        <time>2019-02-27T23:33:03Z</time>
      </trkpt>
      <trkpt lat="39.574919" lon="-6.429078">
        <ele>393.580</ele>
        <time>2019-02-27T23:33:04Z</time>
      </trkpt>
      <trkpt lat="39.574933" lon="-6.429098">
        <ele>393.673</ele>
        <time>2019-02-27T23:33:05Z</time>
      </trkpt>
      <trkpt lat="39.574949" lon="-6.429117">
        <ele>393.685</ele>
        <time>2019-02-27T23:33:06Z</time>
      </trkpt>
      <trkpt lat="39.575184" lon="-6.429422">
        <ele>394.213</ele>
        <time>2019-02-27T23:33:22Z</time>
      </trkpt>
      <trkpt lat="39.575182" lon="-6.429444">
        <ele>394.208</ele>
        <time>2019-02-27T23:33:23Z</time>
      </trkpt>
      <trkpt lat="39.575175" lon="-6.429457">
        <ele>394.250</ele>
        <time>2019-02-27T23:33:24Z</time>
      </trkpt>
      <trkpt lat="39.575161" lon="-6.429473">
        <ele>394.281</ele>
        <time>2019-02-27T23:33:29Z</time>
      </trkpt>
      <trkpt lat="39.575116" lon="-6.429380">
        <ele>394.372</ele>
        <time>2019-02-27T23:34:21Z</time>
      </trkpt>
      <trkpt lat="39.574886" lon="-6.429046">
        <ele>393.551</ele>
        <time>2019-02-27T23:34:32Z</time>
      </trkpt>
      <trkpt lat="39.574879" lon="-6.429021">
        <ele>393.425</ele>
        <time>2019-02-27T23:34:33Z</time>
      </trkpt>
      <trkpt lat="39.574881" lon="-6.429001">
        <ele>393.438</ele>
        <time>2019-02-27T23:34:34Z</time>
      </trkpt>
      <trkpt lat="39.574887" lon="-6.428985">
        <ele>393.497</ele>
        <time>2019-02-27T23:34:35Z</time>
      </trkpt>
      <trkpt lat="39.574897" lon="-6.428976">
        <ele>393.426</ele>
        <time>2019-02-27T23:34:36Z</time>
      </trkpt>
      <trkpt lat="39.574908" lon="-6.428973">
        <ele>393.428</ele>
        <time>2019-02-27T23:34:37Z</time>
      </trkpt>
      <trkpt lat="39.574921" lon="-6.428978">
        <ele>393.089</ele>
        <time>2019-02-27T23:34:38Z</time>
      </trkpt>
      <trkpt lat="39.574930" lon="-6.428990">
        <ele>393.017</ele>
        <time>2019-02-27T23:34:39Z</time>
      </trkpt>
      <trkpt lat="39.574932" lon="-6.428995">
        <ele>393.008</ele>
        <time>2019-02-27T23:34:43Z</time>
      </trkpt>
      <trkpt lat="39.574982" lon="-6.429002">
        <ele>393.015</ele>
        <time>2019-02-27T23:35:08Z</time>
      </trkpt>
      <trkpt lat="39.575001" lon="-6.429002">
        <ele>393.066</ele>
        <time>2019-02-27T23:35:09Z</time>
      </trkpt>
      <trkpt lat="39.575021" lon="-6.429004">
        <ele>393.027</ele>
        <time>2019-02-27T23:35:10Z</time>
      </trkpt>
      <trkpt lat="39.575042" lon="-6.429007">
        <ele>393.026</ele>
        <time>2019-02-27T23:35:11Z</time>
      </trkpt>
      <trkpt lat="39.575444" lon="-6.429044">
        <ele>392.720</ele>
        <time>2019-02-27T23:35:29Z</time>
      </trkpt>
      <trkpt lat="39.576047" lon="-6.429118">
        <ele>392.433</ele>
        <time>2019-02-27T23:35:43Z</time>
      </trkpt>
      <trkpt lat="39.576965" lon="-6.429260">
        <ele>392.822</ele>
        <time>2019-02-27T23:35:59Z</time>
      </trkpt>
      <trkpt lat="39.577871" lon="-6.429414">
        <ele>394.561</ele>
        <time>2019-02-27T23:36:17Z</time>
      </trkpt>
      <trkpt lat="39.578683" lon="-6.429548">
        <ele>395.867</ele>
        <time>2019-02-27T23:36:37Z</time>
      </trkpt>
      <trkpt lat="39.579420" lon="-6.429663">
        <ele>394.981</ele>
        <time>2019-02-27T23:36:59Z</time>
      </trkpt>
      <trkpt lat="39.580310" lon="-6.429822">
        <ele>395.119</ele>
        <time>2019-02-27T23:37:16Z</time>
      </trkpt>
      <trkpt lat="39.581055" lon="-6.429937">
        <ele>395.108</ele>
        <time>2019-02-27T23:37:32Z</time>
      </trkpt>
      <trkpt lat="39.581361" lon="-6.429999">
        <ele>395.829</ele>
        <time>2019-02-27T23:37:38Z</time>
      </trkpt>
      <trkpt lat="39.581845" lon="-6.430122">
        <ele>396.810</ele>
        <time>2019-02-27T23:37:49Z</time>
      </trkpt>
      <trkpt lat="39.581885" lon="-6.430130">
        <ele>397.081</ele>
        <time>2019-02-27T23:37:50Z</time>
      </trkpt>
      <trkpt lat="39.582386" lon="-6.430186">
        <ele>398.440</ele>
        <time>2019-02-27T23:38:06Z</time>
      </trkpt>
      <trkpt lat="39.582845" lon="-6.430233">
        <ele>400.134</ele>
        <time>2019-02-27T23:38:21Z</time>
      </trkpt>
      <trkpt lat="39.583377" lon="-6.430324">
        <ele>401.947</ele>
        <time>2019-02-27T23:38:40Z</time>
      </trkpt>
      <trkpt lat="39.584029" lon="-6.430422">
        <ele>402.036</ele>
        <time>2019-02-27T23:38:59Z</time>
      </trkpt>
      <trkpt lat="39.584058" lon="-6.430411">
        <ele>402.045</ele>
        <time>2019-02-27T23:39:04Z</time>
      </trkpt>
      <trkpt lat="39.584060" lon="-6.430375">
        <ele>402.019</ele>
        <time>2019-02-27T23:39:10Z</time>
      </trkpt>
      <trkpt lat="39.584117" lon="-6.430442">
        <ele>401.909</ele>
        <time>2019-02-27T23:40:06Z</time>
      </trkpt>
      <trkpt lat="39.584605" lon="-6.430521">
        <ele>401.319</ele>
        <time>2019-02-27T23:40:20Z</time>
      </trkpt>
      <trkpt lat="39.585491" lon="-6.430666">
        <ele>399.708</ele>
        <time>2019-02-27T23:40:36Z</time>
      </trkpt>
      <trkpt lat="39.586486" lon="-6.430824">
        <ele>396.864</ele>
        <time>2019-02-27T23:40:52Z</time>
      </trkpt>
      <trkpt lat="39.587430" lon="-6.430968">
        <ele>393.975</ele>
        <time>2019-02-27T23:41:07Z</time>
      </trkpt>
      <trkpt lat="39.588485" lon="-6.431143">
        <ele>391.666</ele>
        <time>2019-02-27T23:41:22Z</time>
      </trkpt>
      <trkpt lat="39.589590" lon="-6.431313">
        <ele>389.155</ele>
        <time>2019-02-27T23:41:40Z</time>
      </trkpt>
      <trkpt lat="39.590678" lon="-6.431481">
        <ele>388.189</ele>
        <time>2019-02-27T23:41:57Z</time>
      </trkpt>
      <trkpt lat="39.591507" lon="-6.431706">
        <ele>390.182</ele>
        <time>2019-02-27T23:42:11Z</time>
      </trkpt>
      <trkpt lat="39.591549" lon="-6.431738">
        <ele>390.121</ele>
        <time>2019-02-27T23:42:12Z</time>
      </trkpt>
      <trkpt lat="39.591578" lon="-6.431767">
        <ele>390.130</ele>
        <time>2019-02-27T23:42:13Z</time>
      </trkpt>
      <trkpt lat="39.591907" lon="-6.432048">
        <ele>390.179</ele>
        <time>2019-02-27T23:42:26Z</time>
      </trkpt>
      <trkpt lat="39.592489" lon="-6.432358">
        <ele>389.705</ele>
        <time>2019-02-27T23:42:43Z</time>
      </trkpt>
      <trkpt lat="39.592825" lon="-6.432618">
        <ele>390.025</ele>
        <time>2019-02-27T23:42:52Z</time>
      </trkpt>
      <trkpt lat="39.593492" lon="-6.432830">
        <ele>390.508</ele>
        <time>2019-02-27T23:43:08Z</time>
      </trkpt>
      <trkpt lat="39.594276" lon="-6.432996">
        <ele>391.650</ele>
        <time>2019-02-27T23:43:24Z</time>
      </trkpt>
      <trkpt lat="39.594579" lon="-6.433195">
        <ele>392.261</ele>
        <time>2019-02-27T23:43:33Z</time>
      </trkpt>
      <trkpt lat="39.595137" lon="-6.433626">
        <ele>392.582</ele>
        <time>2019-02-27T23:43:48Z</time>
      </trkpt>
      <trkpt lat="39.595301" lon="-6.433679">
        <ele>392.551</ele>
        <time>2019-02-27T23:43:52Z</time>
      </trkpt>
      <trkpt lat="39.595981" lon="-6.433719">
        <ele>393.395</ele>
        <time>2019-02-27T23:44:08Z</time>
      </trkpt>
      <trkpt lat="39.596290" lon="-6.433707">
        <ele>393.488</ele>
        <time>2019-02-27T23:44:21Z</time>
      </trkpt>
      <trkpt lat="39.596354" lon="-6.433710">
        <ele>393.417</ele>
        <time>2019-02-27T23:45:01Z</time>
      </trkpt>
      <trkpt lat="39.596837" lon="-6.433939">
        <ele>393.466</ele>
        <time>2019-02-27T23:45:14Z</time>
      </trkpt>
      <trkpt lat="39.597283" lon="-6.434029">
        <ele>392.617</ele>
        <time>2019-02-27T23:45:24Z</time>
      </trkpt>
      <trkpt lat="39.597329" lon="-6.434045">
        <ele>392.587</ele>
        <time>2019-02-27T23:45:25Z</time>
      </trkpt>
      <trkpt lat="39.598102" lon="-6.434442">
        <ele>390.915</ele>
        <time>2019-02-27T23:45:39Z</time>
      </trkpt>
      <trkpt lat="39.598720" lon="-6.434583">
        <ele>391.308</ele>
        <time>2019-02-27T23:45:50Z</time>
      </trkpt>
      <trkpt lat="39.598762" lon="-6.434572">
        <ele>391.314</ele>
        <time>2019-02-27T23:45:51Z</time>
      </trkpt>
      <trkpt lat="39.599412" lon="-6.434516">
        <ele>391.225</ele>
        <time>2019-02-27T23:46:05Z</time>
      </trkpt>
      <trkpt lat="39.600234" lon="-6.434551">
        <ele>389.546</ele>
        <time>2019-02-27T23:46:21Z</time>
      </trkpt>
      <trkpt lat="39.600986" lon="-6.434887">
        <ele>388.415</ele>
        <time>2019-02-27T23:46:35Z</time>
      </trkpt>
      <trkpt lat="39.601865" lon="-6.435308">
        <ele>388.469</ele>
        <time>2019-02-27T23:46:51Z</time>
      </trkpt>
      <trkpt lat="39.602994" lon="-6.435694">
        <ele>388.892</ele>
        <time>2019-02-27T23:47:10Z</time>
      </trkpt>
      <trkpt lat="39.603822" lon="-6.435994">
        <ele>390.151</ele>
        <time>2019-02-27T23:47:26Z</time>
      </trkpt>
      <trkpt lat="39.604141" lon="-6.436108">
        <ele>390.450</ele>
        <time>2019-02-27T23:47:33Z</time>
      </trkpt>
      <trkpt lat="39.605023" lon="-6.436409">
        <ele>389.155</ele>
        <time>2019-02-27T23:47:52Z</time>
      </trkpt>
      <trkpt lat="39.605992" lon="-6.436746">
        <ele>387.907</ele>
        <time>2019-02-27T23:48:08Z</time>
      </trkpt>
      <trkpt lat="39.606854" lon="-6.437045">
        <ele>390.317</ele>
        <time>2019-02-27T23:48:23Z</time>
      </trkpt>
      <trkpt lat="39.607411" lon="-6.437248">
        <ele>390.008</ele>
        <time>2019-02-27T23:48:40Z</time>
      </trkpt>
      <trkpt lat="39.607451" lon="-6.437251">
        <ele>389.918</ele>
        <time>2019-02-27T23:48:41Z</time>
      </trkpt>
      <trkpt lat="39.607571" lon="-6.437246">
        <ele>389.689</ele>
        <time>2019-02-27T23:48:44Z</time>
      </trkpt>
      <trkpt lat="39.608263" lon="-6.437155">
        <ele>388.760</ele>
        <time>2019-02-27T23:49:03Z</time>
      </trkpt>
      <trkpt lat="39.608616" lon="-6.436971">
        <ele>389.479</ele>
        <time>2019-02-27T23:49:17Z</time>
      </trkpt>
      <trkpt lat="39.608647" lon="-6.436947">
        <ele>389.573</ele>
        <time>2019-02-27T23:49:23Z</time>
      </trkpt>
      <trkpt lat="39.608714" lon="-6.436898">
        <ele>389.876</ele>
        <time>2019-02-27T23:49:31Z</time>
      </trkpt>
      <trkpt lat="39.609117" lon="-6.436736">
        <ele>390.115</ele>
        <time>2019-02-27T23:49:42Z</time>
      </trkpt>
      <trkpt lat="39.609478" lon="-6.436830">
        <ele>389.494</ele>
        <time>2019-02-27T23:49:50Z</time>
      </trkpt>
      <trkpt lat="39.609509" lon="-6.436842">
        <ele>389.494</ele>
        <time>2019-02-27T23:49:51Z</time>
      </trkpt>
      <trkpt lat="39.609520" lon="-6.436849">
        <ele>389.457</ele>
        <time>2019-02-27T23:49:56Z</time>
      </trkpt>
      <trkpt lat="39.609590" lon="-6.436876">
        <ele>389.422</ele>
        <time>2019-02-27T23:50:02Z</time>
      </trkpt>
      <trkpt lat="39.610136" lon="-6.437067">
        <ele>388.708</ele>
        <time>2019-02-27T23:50:15Z</time>
      </trkpt>
      <trkpt lat="39.611106" lon="-6.437378">
        <ele>387.232</ele>
        <time>2019-02-27T23:50:31Z</time>
      </trkpt>
      <trkpt lat="39.612125" lon="-6.437727">
        <ele>386.893</ele>
        <time>2019-02-27T23:50:50Z</time>
      </trkpt>
      <trkpt lat="39.613371" lon="-6.438155">
        <ele>385.154</ele>
        <time>2019-02-27T23:51:11Z</time>
      </trkpt>
      <trkpt lat="39.614114" lon="-6.438356">
        <ele>383.963</ele>
        <time>2019-02-27T23:51:23Z</time>
      </trkpt>
      <trkpt lat="39.614176" lon="-6.438386">
        <ele>383.797</ele>
        <time>2019-02-27T23:51:24Z</time>
      </trkpt>
      <trkpt lat="39.614413" lon="-6.438527">
        <ele>383.290</ele>
        <time>2019-02-27T23:51:28Z</time>
      </trkpt>
      <trkpt lat="39.614469" lon="-6.438564">
        <ele>383.229</ele>
        <time>2019-02-27T23:51:29Z</time>
      </trkpt>
      <trkpt lat="39.615394" lon="-6.439111">
        <ele>382.778</ele>
        <time>2019-02-27T23:51:46Z</time>
      </trkpt>
      <trkpt lat="39.615442" lon="-6.439163">
        <ele>382.486</ele>
        <time>2019-02-27T23:51:47Z</time>
      </trkpt>
      <trkpt lat="39.615488" lon="-6.439221">
        <ele>382.260</ele>
        <time>2019-02-27T23:51:48Z</time>
      </trkpt>
      <trkpt lat="39.615530" lon="-6.439284">
        <ele>381.926</ele>
        <time>2019-02-27T23:51:49Z</time>
      </trkpt>
      <trkpt lat="39.615571" lon="-6.439352">
        <ele>381.608</ele>
        <time>2019-02-27T23:51:50Z</time>
      </trkpt>
      <trkpt lat="39.615612" lon="-6.439426">
        <ele>381.371</ele>
        <time>2019-02-27T23:51:51Z</time>
      </trkpt>
      <trkpt lat="39.616325" lon="-6.440411">
        <ele>378.722</ele>
        <time>2019-02-27T23:52:05Z</time>
      </trkpt>
      <trkpt lat="39.617447" lon="-6.441602">
        <ele>376.633</ele>
        <time>2019-02-27T23:52:25Z</time>
      </trkpt>
      <trkpt lat="39.617514" lon="-6.441631">
        <ele>376.542</ele>
        <time>2019-02-27T23:52:26Z</time>
      </trkpt>
      <trkpt lat="39.618703" lon="-6.442035">
        <ele>373.696</ele>
        <time>2019-02-27T23:52:43Z</time>
      </trkpt>
      <trkpt lat="39.619351" lon="-6.442259">
        <ele>376.879</ele>
        <time>2019-02-27T23:52:56Z</time>
      </trkpt>
      <trkpt lat="39.620241" lon="-6.442574">
        <ele>376.498</ele>
        <time>2019-02-27T23:53:14Z</time>
      </trkpt>
      <trkpt lat="39.621033" lon="-6.442627">
        <ele>376.587</ele>
        <time>2019-02-27T23:53:28Z</time>
      </trkpt>
      <trkpt lat="39.621842" lon="-6.442670">
        <ele>378.716</ele>
        <time>2019-02-27T23:53:46Z</time>
      </trkpt>
      <trkpt lat="39.622381" lon="-6.442838">
        <ele>381.776</ele>
        <time>2019-02-27T23:54:04Z</time>
      </trkpt>
      <trkpt lat="39.623087" lon="-6.443061">
        <ele>380.913</ele>
        <time>2019-02-27T23:54:21Z</time>
      </trkpt>
      <trkpt lat="39.623969" lon="-6.443212">
        <ele>381.708</ele>
        <time>2019-02-27T23:54:36Z</time>
      </trkpt>
      <trkpt lat="39.624024" lon="-6.443202">
        <ele>382.064</ele>
        <time>2019-02-27T23:54:37Z</time>
      </trkpt>
      <trkpt lat="39.624078" lon="-6.443185">
        <ele>382.245</ele>
        <time>2019-02-27T23:54:38Z</time>
      </trkpt>
      <trkpt lat="39.624129" lon="-6.443161">
        <ele>382.426</ele>
        <time>2019-02-27T23:54:39Z</time>
      </trkpt>
      <trkpt lat="39.624175" lon="-6.443133">
        <ele>382.545</ele>
        <time>2019-02-27T23:54:40Z</time>
      </trkpt>
      <trkpt lat="39.624215" lon="-6.443097">
        <ele>382.799</ele>
        <time>2019-02-27T23:54:41Z</time>
      </trkpt>
      <trkpt lat="39.624250" lon="-6.443057">
        <ele>382.942</ele>
        <time>2019-02-27T23:54:42Z</time>
      </trkpt>
      <trkpt lat="39.624283" lon="-6.443019">
        <ele>383.081</ele>
        <time>2019-02-27T23:54:43Z</time>
      </trkpt>
      <trkpt lat="39.624594" lon="-6.442984">
        <ele>383.630</ele>
        <time>2019-02-27T23:54:53Z</time>
      </trkpt>
      <trkpt lat="39.625193" lon="-6.443140">
        <ele>383.873</ele>
        <time>2019-02-27T23:55:09Z</time>
      </trkpt>
      <trkpt lat="39.625237" lon="-6.443163">
        <ele>383.885</ele>
        <time>2019-02-27T23:55:10Z</time>
      </trkpt>
      <trkpt lat="39.625278" lon="-6.443192">
        <ele>383.813</ele>
        <time>2019-02-27T23:55:11Z</time>
      </trkpt>
      <trkpt lat="39.625317" lon="-6.443229">
        <ele>383.808</ele>
        <time>2019-02-27T23:55:12Z</time>
      </trkpt>
      <trkpt lat="39.625352" lon="-6.443272">
        <ele>383.890</ele>
        <time>2019-02-27T23:55:13Z</time>
      </trkpt>
      <trkpt lat="39.625386" lon="-6.443320">
        <ele>383.881</ele>
        <time>2019-02-27T23:55:14Z</time>
      </trkpt>
      <trkpt lat="39.625420" lon="-6.443370">
        <ele>383.872</ele>
        <time>2019-02-27T23:55:15Z</time>
      </trkpt>
      <trkpt lat="39.625457" lon="-6.443416">
        <ele>383.831</ele>
        <time>2019-02-27T23:55:16Z</time>
      </trkpt>
      <trkpt lat="39.625495" lon="-6.443457">
        <ele>383.825</ele>
        <time>2019-02-27T23:55:17Z</time>
      </trkpt>
      <trkpt lat="39.625537" lon="-6.443493">
        <ele>383.858</ele>
        <time>2019-02-27T23:55:18Z</time>
      </trkpt>
      <trkpt lat="39.625580" lon="-6.443527">
        <ele>383.817</ele>
        <time>2019-02-27T23:55:19Z</time>
      </trkpt>
      <trkpt lat="39.625624" lon="-6.443554">
        <ele>383.896</ele>
        <time>2019-02-27T23:55:20Z</time>
      </trkpt>
      <trkpt lat="39.625671" lon="-6.443575">
        <ele>383.897</ele>
        <time>2019-02-27T23:55:21Z</time>
      </trkpt>
      <trkpt lat="39.625718" lon="-6.443589">
        <ele>383.823</ele>
        <time>2019-02-27T23:55:22Z</time>
      </trkpt>
      <trkpt lat="39.626073" lon="-6.443758">
        <ele>383.725</ele>
        <time>2019-02-27T23:55:31Z</time>
      </trkpt>
      <trkpt lat="39.626116" lon="-6.443769">
        <ele>383.708</ele>
        <time>2019-02-27T23:55:32Z</time>
      </trkpt>
      <trkpt lat="39.626232" lon="-6.443792">
        <ele>383.632</ele>
        <time>2019-02-27T23:55:40Z</time>
      </trkpt>
      <trkpt lat="39.626302" lon="-6.443788">
        <ele>383.633</ele>
        <time>2019-02-27T23:55:59Z</time>
      </trkpt>
      <trkpt lat="39.626782" lon="-6.443828">
        <ele>382.334</ele>
        <time>2019-02-27T23:56:12Z</time>
      </trkpt>
      <trkpt lat="39.627429" lon="-6.444057">
        <ele>381.493</ele>
        <time>2019-02-27T23:56:26Z</time>
      </trkpt>
      <trkpt lat="39.627880" lon="-6.444161">
        <ele>380.897</ele>
        <time>2019-02-27T23:56:34Z</time>
      </trkpt>
      <trkpt lat="39.627977" lon="-6.444191">
        <ele>380.440</ele>
        <time>2019-02-27T23:56:36Z</time>
      </trkpt>
      <trkpt lat="39.628271" lon="-6.444281">
        <ele>379.369</ele>
        <time>2019-02-27T23:56:43Z</time>
      </trkpt>
      <trkpt lat="39.628357" lon="-6.444315">
        <ele>378.918</ele>
        <time>2019-02-27T23:56:45Z</time>
      </trkpt>
      <trkpt lat="39.628405" lon="-6.444323">
        <ele>378.742</ele>
        <time>2019-02-27T23:56:46Z</time>
      </trkpt>
      <trkpt lat="39.628455" lon="-6.444321">
        <ele>378.622</ele>
        <time>2019-02-27T23:56:47Z</time>
      </trkpt>
      <trkpt lat="39.628507" lon="-6.444309">
        <ele>378.414</ele>
        <time>2019-02-27T23:56:48Z</time>
      </trkpt>
      <trkpt lat="39.628558" lon="-6.444289">
        <ele>378.208</ele>
        <time>2019-02-27T23:56:49Z</time>
      </trkpt>
      <trkpt lat="39.628608" lon="-6.444261">
        <ele>378.127</ele>
        <time>2019-02-27T23:56:50Z</time>
      </trkpt>
      <trkpt lat="39.628659" lon="-6.444232">
        <ele>377.988</ele>
        <time>2019-02-27T23:56:51Z</time>
      </trkpt>
      <trkpt lat="39.628714" lon="-6.444207">
        <ele>377.789</ele>
        <time>2019-02-27T23:56:52Z</time>
      </trkpt>
      <trkpt lat="39.628830" lon="-6.444171">
        <ele>377.268</ele>
        <time>2019-02-27T23:56:54Z</time>
      </trkpt>
      <trkpt lat="39.628891" lon="-6.444167">
        <ele>377.062</ele>
        <time>2019-02-27T23:56:55Z</time>
      </trkpt>
      <trkpt lat="39.628952" lon="-6.444173">
        <ele>376.975</ele>
        <time>2019-02-27T23:56:56Z</time>
      </trkpt>
      <trkpt lat="39.629376" lon="-6.444193">
        <ele>376.084</ele>
        <time>2019-02-27T23:57:05Z</time>
      </trkpt>
      <trkpt lat="39.629375" lon="-6.444193">
        <ele>376.063</ele>
        <time>2019-02-27T23:57:07Z</time>
      </trkpt>
      <trkpt lat="39.629463" lon="-6.444184">
        <ele>375.978</ele>
        <time>2019-02-27T23:57:21Z</time>
      </trkpt>
      <trkpt lat="39.630160" lon="-6.444243">
        <ele>375.033</ele>
        <time>2019-02-27T23:57:34Z</time>
      </trkpt>
      <trkpt lat="39.631040" lon="-6.444374">
        <ele>373.826</ele>
        <time>2019-02-27T23:57:50Z</time>
      </trkpt>
      <trkpt lat="39.631231" lon="-6.444381">
        <ele>373.208</ele>
        <time>2019-02-27T23:57:54Z</time>
      </trkpt>
      <trkpt lat="39.631279" lon="-6.444382">
        <ele>373.030</ele>
        <time>2019-02-27T23:57:55Z</time>
      </trkpt>
      <trkpt lat="39.631327" lon="-6.444390">
        <ele>372.811</ele>
        <time>2019-02-27T23:57:56Z</time>
      </trkpt>
      <trkpt lat="39.632230" lon="-6.444624">
        <ele>370.462</ele>
        <time>2019-02-27T23:58:11Z</time>
      </trkpt>
      <trkpt lat="39.632294" lon="-6.444661">
        <ele>370.311</ele>
        <time>2019-02-27T23:58:12Z</time>
      </trkpt>
      <trkpt lat="39.632356" lon="-6.444705">
        <ele>370.295</ele>
        <time>2019-02-27T23:58:13Z</time>
      </trkpt>
      <trkpt lat="39.632815" lon="-6.445082">
        <ele>370.258</ele>
        <time>2019-02-27T23:58:21Z</time>
      </trkpt>
      <trkpt lat="39.632861" lon="-6.445122">
        <ele>370.237</ele>
        <time>2019-02-27T23:58:22Z</time>
      </trkpt>
      <trkpt lat="39.633253" lon="-6.445389">
        <ele>370.456</ele>
        <time>2019-02-27T23:58:31Z</time>
      </trkpt>
      <trkpt lat="39.633297" lon="-6.445399">
        <ele>370.522</ele>
        <time>2019-02-27T23:58:32Z</time>
      </trkpt>
      <trkpt lat="39.633861" lon="-6.445598">
        <ele>371.262</ele>
        <time>2019-02-27T23:58:48Z</time>
      </trkpt>
      <trkpt lat="39.633898" lon="-6.445624">
        <ele>371.308</ele>
        <time>2019-02-27T23:58:54Z</time>
      </trkpt>
      <trkpt lat="39.633958" lon="-6.445669">
        <ele>371.408</ele>
        <time>2019-02-27T23:59:16Z</time>
      </trkpt>
      <trkpt lat="39.634251" lon="-6.445982">
        <ele>371.525</ele>
        <time>2019-02-27T23:59:29Z</time>
      </trkpt>
      <trkpt lat="39.634771" lon="-6.446360">
        <ele>373.126</ele>
        <time>2019-02-27T23:59:49Z</time>
      </trkpt>
      <trkpt lat="39.635137" lon="-6.446639">
        <ele>374.237</ele>
        <time>2019-02-28T00:00:00Z</time>
      </trkpt>
      <trkpt lat="39.635179" lon="-6.446678">
        <ele>374.286</ele>
        <time>2019-02-28T00:00:01Z</time>
      </trkpt>
      <trkpt lat="39.635220" lon="-6.446721">
        <ele>374.260</ele>
        <time>2019-02-28T00:00:02Z</time>
      </trkpt>
      <trkpt lat="39.635258" lon="-6.446772">
        <ele>374.243</ele>
        <time>2019-02-28T00:00:03Z</time>
      </trkpt>
      <trkpt lat="39.635293" lon="-6.446827">
        <ele>374.242</ele>
        <time>2019-02-28T00:00:04Z</time>
      </trkpt>
      <trkpt lat="39.635326" lon="-6.446886">
        <ele>374.121</ele>
        <time>2019-02-28T00:00:05Z</time>
      </trkpt>
      <trkpt lat="39.635563" lon="-6.447311">
        <ele>373.123</ele>
        <time>2019-02-28T00:00:15Z</time>
      </trkpt>
      <trkpt lat="39.635563" lon="-6.447308">
        <ele>373.183</ele>
        <time>2019-02-28T00:00:19Z</time>
      </trkpt>
      <trkpt lat="39.635589" lon="-6.447362">
        <ele>372.911</ele>
        <time>2019-02-28T00:00:33Z</time>
      </trkpt>
      <trkpt lat="39.635786" lon="-6.447795">
        <ele>372.908</ele>
        <time>2019-02-28T00:00:47Z</time>
      </trkpt>
      <trkpt lat="39.635980" lon="-6.448138">
        <ele>374.495</ele>
        <time>2019-02-28T00:01:02Z</time>
      </trkpt>
      <trkpt lat="39.636013" lon="-6.448521">
        <ele>376.686</ele>
        <time>2019-02-28T00:01:19Z</time>
      </trkpt>
      <trkpt lat="39.636172" lon="-6.448730">
        <ele>377.477</ele>
        <time>2019-02-28T00:01:31Z</time>
      </trkpt>
      <trkpt lat="39.636503" lon="-6.449044">
        <ele>377.536</ele>
        <time>2019-02-28T00:01:44Z</time>
      </trkpt>
      <trkpt lat="39.636850" lon="-6.449482">
        <ele>377.530</ele>
        <time>2019-02-28T00:01:58Z</time>
      </trkpt>
      <trkpt lat="39.636932" lon="-6.449603">
        <ele>377.593</ele>
        <time>2019-02-28T00:02:01Z</time>
      </trkpt>
      <trkpt lat="39.637204" lon="-6.450313">
        <ele>377.572</ele>
        <time>2019-02-28T00:02:17Z</time>
      </trkpt>
      <trkpt lat="39.637356" lon="-6.450597">
        <ele>377.471</ele>
        <time>2019-02-28T00:02:24Z</time>
      </trkpt>
      <trkpt lat="39.637391" lon="-6.450634">
        <ele>377.443</ele>
        <time>2019-02-28T00:02:25Z</time>
      </trkpt>
      <trkpt lat="39.637468" lon="-6.450700">
        <ele>377.464</ele>
        <time>2019-02-28T00:02:27Z</time>
      </trkpt>
      <trkpt lat="39.637509" lon="-6.450719">
        <ele>377.410</ele>
        <time>2019-02-28T00:02:28Z</time>
      </trkpt>
      <trkpt lat="39.637553" lon="-6.450737">
        <ele>377.408</ele>
        <time>2019-02-28T00:02:29Z</time>
      </trkpt>
      <trkpt lat="39.637594" lon="-6.450765">
        <ele>377.427</ele>
        <time>2019-02-28T00:02:30Z</time>
      </trkpt>
      <trkpt lat="39.637631" lon="-6.450801">
        <ele>377.448</ele>
        <time>2019-02-28T00:02:31Z</time>
      </trkpt>
      <trkpt lat="39.637669" lon="-6.450835">
        <ele>377.419</ele>
        <time>2019-02-28T00:02:32Z</time>
      </trkpt>
      <trkpt lat="39.637711" lon="-6.450859">
        <ele>377.348</ele>
        <time>2019-02-28T00:02:33Z</time>
      </trkpt>
      <trkpt lat="39.637755" lon="-6.450875">
        <ele>377.262</ele>
        <time>2019-02-28T00:02:34Z</time>
      </trkpt>
      <trkpt lat="39.637802" lon="-6.450883">
        <ele>377.035</ele>
        <time>2019-02-28T00:02:35Z</time>
      </trkpt>
      <trkpt lat="39.637847" lon="-6.450880">
        <ele>376.784</ele>
        <time>2019-02-28T00:02:36Z</time>
      </trkpt>
      <trkpt lat="39.637888" lon="-6.450876">
        <ele>376.383</ele>
        <time>2019-02-28T00:02:37Z</time>
      </trkpt>
      <trkpt lat="39.637924" lon="-6.450880">
        <ele>375.971</ele>
        <time>2019-02-28T00:02:38Z</time>
      </trkpt>
      <trkpt lat="39.637955" lon="-6.450894">
        <ele>375.541</ele>
        <time>2019-02-28T00:02:39Z</time>
      </trkpt>
      <trkpt lat="39.637976" lon="-6.450919">
        <ele>375.215</ele>
        <time>2019-02-28T00:02:40Z</time>
      </trkpt>
      <trkpt lat="39.637987" lon="-6.450949">
        <ele>374.908</ele>
        <time>2019-02-28T00:02:41Z</time>
      </trkpt>
      <trkpt lat="39.637989" lon="-6.450981">
        <ele>374.560</ele>
        <time>2019-02-28T00:02:42Z</time>
      </trkpt>
      <trkpt lat="39.637986" lon="-6.451012">
        <ele>374.271</ele>
        <time>2019-02-28T00:02:43Z</time>
      </trkpt>
      <trkpt lat="39.637985" lon="-6.451038">
        <ele>373.942</ele>
        <time>2019-02-28T00:02:44Z</time>
      </trkpt>
      <trkpt lat="39.637988" lon="-6.451059">
        <ele>373.861</ele>
        <time>2019-02-28T00:02:45Z</time>
      </trkpt>
      <trkpt lat="39.637993" lon="-6.451075">
        <ele>373.635</ele>
        <time>2019-02-28T00:02:46Z</time>
      </trkpt>
      <trkpt lat="39.637998" lon="-6.451095">
        <ele>373.558</ele>
        <time>2019-02-28T00:02:51Z</time>
      </trkpt>
      <trkpt lat="39.638095" lon="-6.451174">
        <ele>372.367</ele>
        <time>2019-02-28T00:03:39Z</time>
      </trkpt>
      <trkpt lat="39.638348" lon="-6.451503">
        <ele>370.956</ele>
        <time>2019-02-28T00:03:49Z</time>
      </trkpt>
      <trkpt lat="39.638379" lon="-6.451539">
        <ele>370.949</ele>
        <time>2019-02-28T00:03:50Z</time>
      </trkpt>
      <trkpt lat="39.638414" lon="-6.451570">
        <ele>370.902</ele>
        <time>2019-02-28T00:03:51Z</time>
      </trkpt>
      <trkpt lat="39.638451" lon="-6.451596">
        <ele>370.922</ele>
        <time>2019-02-28T00:03:52Z</time>
      </trkpt>
      <trkpt lat="39.638486" lon="-6.451619">
        <ele>370.908</ele>
        <time>2019-02-28T00:03:53Z</time>
      </trkpt>
      <trkpt lat="39.638774" lon="-6.452024">
        <ele>371.577</ele>
        <time>2019-02-28T00:04:06Z</time>
      </trkpt>
      <trkpt lat="39.639047" lon="-6.452269">
        <ele>373.128</ele>
        <time>2019-02-28T00:04:20Z</time>
      </trkpt>
      <trkpt lat="39.639425" lon="-6.452446">
        <ele>376.939</ele>
        <time>2019-02-28T00:04:40Z</time>
      </trkpt>
      <trkpt lat="39.639868" lon="-6.452642">
        <ele>378.498</ele>
        <time>2019-02-28T00:04:59Z</time>
      </trkpt>
      <trkpt lat="39.640292" lon="-6.452848">
        <ele>378.462</ele>
        <time>2019-02-28T00:05:11Z</time>
      </trkpt>
      <trkpt lat="39.640424" lon="-6.452890">
        <ele>378.385</ele>
        <time>2019-02-28T00:05:14Z</time>
      </trkpt>
      <trkpt lat="39.640473" lon="-6.452895">
        <ele>378.354</ele>
        <time>2019-02-28T00:05:15Z</time>
      </trkpt>
      <trkpt lat="39.640581" lon="-6.452907">
        <ele>378.233</ele>
        <time>2019-02-28T00:05:17Z</time>
      </trkpt>
      <trkpt lat="39.640633" lon="-6.452929">
        <ele>378.123</ele>
        <time>2019-02-28T00:05:18Z</time>
      </trkpt>
      <trkpt lat="39.640683" lon="-6.452961">
        <ele>377.983</ele>
        <time>2019-02-28T00:05:19Z</time>
      </trkpt>
      <trkpt lat="39.640732" lon="-6.453000">
        <ele>377.611</ele>
        <time>2019-02-28T00:05:20Z</time>
      </trkpt>
      <trkpt lat="39.640780" lon="-6.453040">
        <ele>377.208</ele>
        <time>2019-02-28T00:05:21Z</time>
      </trkpt>
      <trkpt lat="39.641429" lon="-6.453522">
        <ele>374.485</ele>
        <time>2019-02-28T00:05:34Z</time>
      </trkpt>
      <trkpt lat="39.641583" lon="-6.453596">
        <ele>373.966</ele>
        <time>2019-02-28T00:05:37Z</time>
      </trkpt>
      <trkpt lat="39.641673" lon="-6.453655">
        <ele>373.657</ele>
        <time>2019-02-28T00:05:39Z</time>
      </trkpt>
      <trkpt lat="39.641802" lon="-6.453731">
        <ele>373.566</ele>
        <time>2019-02-28T00:05:42Z</time>
      </trkpt>
      <trkpt lat="39.641841" lon="-6.453765">
        <ele>373.510</ele>
        <time>2019-02-28T00:05:43Z</time>
      </trkpt>
      <trkpt lat="39.642393" lon="-6.454238">
        <ele>373.313</ele>
        <time>2019-02-28T00:05:58Z</time>
      </trkpt>
      <trkpt lat="39.642716" lon="-6.454421">
        <ele>372.962</ele>
        <time>2019-02-28T00:06:06Z</time>
      </trkpt>
      <trkpt lat="39.642762" lon="-6.454437">
        <ele>372.961</ele>
        <time>2019-02-28T00:06:07Z</time>
      </trkpt>
      <trkpt lat="39.642807" lon="-6.454452">
        <ele>372.933</ele>
        <time>2019-02-28T00:06:08Z</time>
      </trkpt>
      <trkpt lat="39.643239" lon="-6.454637">
        <ele>372.923</ele>
        <time>2019-02-28T00:06:18Z</time>
      </trkpt>
      <trkpt lat="39.643287" lon="-6.454647">
        <ele>372.915</ele>
        <time>2019-02-28T00:06:19Z</time>
      </trkpt>
      <trkpt lat="39.643380" lon="-6.454655">
        <ele>372.908</ele>
        <time>2019-02-28T00:06:21Z</time>
      </trkpt>
      <trkpt lat="39.643920" lon="-6.454544">
        <ele>372.856</ele>
        <time>2019-02-28T00:06:36Z</time>
      </trkpt>
      <trkpt lat="39.644404" lon="-6.454491">
        <ele>372.837</ele>
        <time>2019-02-28T00:06:52Z</time>
      </trkpt>
      <trkpt lat="39.644907" lon="-6.454470">
        <ele>372.798</ele>
        <time>2019-02-28T00:07:06Z</time>
      </trkpt>
      <trkpt lat="39.645294" lon="-6.454470">
        <ele>371.717</ele>
        <time>2019-02-28T00:07:17Z</time>
      </trkpt>
      <trkpt lat="39.645292" lon="-6.454471">
        <ele>371.761</ele>
        <time>2019-02-28T00:07:19Z</time>
      </trkpt>
      <trkpt lat="39.645353" lon="-6.454457">
        <ele>371.714</ele>
        <time>2019-02-28T00:08:00Z</time>
      </trkpt>
      <trkpt lat="39.645825" lon="-6.454493">
        <ele>371.453</ele>
        <time>2019-02-28T00:08:14Z</time>
      </trkpt>
      <trkpt lat="39.645928" lon="-6.454516">
        <ele>371.122</ele>
        <time>2019-02-28T00:08:23Z</time>
      </trkpt>
      <trkpt lat="39.645941" lon="-6.454519">
        <ele>371.077</ele>
        <time>2019-02-28T00:08:51Z</time>
      </trkpt>
      <trkpt lat="39.645943" lon="-6.454528">
        <ele>371.061</ele>
        <time>2019-02-28T00:08:56Z</time>
      </trkpt>
      <trkpt lat="39.645967" lon="-6.454508">
        <ele>370.927</ele>
        <time>2019-02-28T00:09:15Z</time>
      </trkpt>
      <trkpt lat="39.645986" lon="-6.454498">
        <ele>370.808</ele>
        <time>2019-02-28T00:09:20Z</time>
      </trkpt>
      <trkpt lat="39.646042" lon="-6.454486">
        <ele>370.550</ele>
        <time>2019-02-28T00:09:25Z</time>
      </trkpt>
      <trkpt lat="39.646290" lon="-6.454444">
        <ele>370.131</ele>
        <time>2019-02-28T00:09:35Z</time>
      </trkpt>
      <trkpt lat="39.646289" lon="-6.454443">
        <ele>370.132</ele>
        <time>2019-02-28T00:09:37Z</time>
      </trkpt>
      <trkpt lat="39.646353" lon="-6.454406">
        <ele>370.271</ele>
        <time>2019-02-28T00:10:06Z</time>
      </trkpt>
      <trkpt lat="39.646767" lon="-6.454239">
        <ele>369.655</ele>
        <time>2019-02-28T00:10:21Z</time>
      </trkpt>
      <trkpt lat="39.647188" lon="-6.454194">
        <ele>368.428</ele>
        <time>2019-02-28T00:10:36Z</time>
      </trkpt>
      <trkpt lat="39.647243" lon="-6.454196">
        <ele>368.397</ele>
        <time>2019-02-28T00:10:39Z</time>
      </trkpt>
      <trkpt lat="39.647262" lon="-6.454218">
        <ele>368.556</ele>
        <time>2019-02-28T00:10:41Z</time>
      </trkpt>
      <trkpt lat="39.647268" lon="-6.454235">
        <ele>368.787</ele>
        <time>2019-02-28T00:10:42Z</time>
      </trkpt>
      <trkpt lat="39.647277" lon="-6.454256">
        <ele>368.742</ele>
        <time>2019-02-28T00:10:43Z</time>
      </trkpt>
      <trkpt lat="39.647299" lon="-6.454278">
        <ele>368.926</ele>
        <time>2019-02-28T00:10:44Z</time>
      </trkpt>
      <trkpt lat="39.647333" lon="-6.454299">
        <ele>368.908</ele>
        <time>2019-02-28T00:10:45Z</time>
      </trkpt>
      <trkpt lat="39.647375" lon="-6.454317">
        <ele>368.971</ele>
        <time>2019-02-28T00:10:46Z</time>
      </trkpt>
      <trkpt lat="39.647421" lon="-6.454335">
        <ele>369.082</ele>
        <time>2019-02-28T00:10:47Z</time>
      </trkpt>
      <trkpt lat="39.647467" lon="-6.454359">
        <ele>369.023</ele>
        <time>2019-02-28T00:10:48Z</time>
      </trkpt>
      <trkpt lat="39.647508" lon="-6.454390">
        <ele>368.972</ele>
        <time>2019-02-28T00:10:49Z</time>
      </trkpt>
      <trkpt lat="39.647629" lon="-6.454477">
        <ele>368.766</ele>
        <time>2019-02-28T00:10:52Z</time>
      </trkpt>
      <trkpt lat="39.647672" lon="-6.454492">
        <ele>368.789</ele>
        <time>2019-02-28T00:10:53Z</time>
      </trkpt>
      <trkpt lat="39.647715" lon="-6.454501">
        <ele>368.858</ele>
        <time>2019-02-28T00:10:54Z</time>
      </trkpt>
      <trkpt lat="39.648169" lon="-6.454488">
        <ele>367.667</ele>
        <time>2019-02-28T00:11:05Z</time>
      </trkpt>
      <trkpt lat="39.648712" lon="-6.454479">
        <ele>367.623</ele>
        <time>2019-02-28T00:11:14Z</time>
      </trkpt>
      <trkpt lat="39.649149" lon="-6.454470">
        <ele>367.883</ele>
        <time>2019-02-28T00:11:24Z</time>
      </trkpt>
      <trkpt lat="39.649337" lon="-6.454499">
        <ele>367.711</ele>
        <time>2019-02-28T00:11:35Z</time>
      </trkpt>
      <trkpt lat="39.649271" lon="-6.454494">
        <ele>367.708</ele>
        <time>2019-02-28T00:11:57Z</time>
      </trkpt>
      <trkpt lat="39.649078" lon="-6.454453">
        <ele>367.885</ele>
        <time>2019-02-28T00:12:06Z</time>
      </trkpt>
      <trkpt lat="39.649125" lon="-6.454395">
        <ele>367.426</ele>
        <time>2019-02-28T00:12:10Z</time>
      </trkpt>
      <trkpt lat="39.649147" lon="-6.454382">
        <ele>367.397</ele>
        <time>2019-02-28T00:12:11Z</time>
      </trkpt>
      <trkpt lat="39.649172" lon="-6.454363">
        <ele>367.336</ele>
        <time>2019-02-28T00:12:12Z</time>
      </trkpt>
      <trkpt lat="39.649265" lon="-6.454295">
        <ele>366.830</ele>
        <time>2019-02-28T00:12:15Z</time>
      </trkpt>
      <trkpt lat="39.649927" lon="-6.453884">
        <ele>364.883</ele>
        <time>2019-02-28T00:12:33Z</time>
      </trkpt>
      <trkpt lat="39.650153" lon="-6.453813">
        <ele>364.512</ele>
        <time>2019-02-28T00:12:43Z</time>
      </trkpt>
      <trkpt lat="39.650152" lon="-6.453814">
        <ele>364.541</ele>
        <time>2019-02-28T00:12:45Z</time>
      </trkpt>
      <trkpt lat="39.650210" lon="-6.453833">
        <ele>364.582</ele>
        <time>2019-02-28T00:13:05Z</time>
      </trkpt>
      <trkpt lat="39.650622" lon="-6.453911">
        <ele>364.543</ele>
        <time>2019-02-28T00:13:18Z</time>
      </trkpt>
      <trkpt lat="39.651000" lon="-6.454011">
        <ele>365.317</ele>
        <time>2019-02-28T00:13:32Z</time>
      </trkpt>
      <trkpt lat="39.651636" lon="-6.454187">
        <ele>365.008</ele>
        <time>2019-02-28T00:13:49Z</time>
      </trkpt>
      <trkpt lat="39.652069" lon="-6.454307">
        <ele>363.771</ele>
        <time>2019-02-28T00:13:58Z</time>
      </trkpt>
      <trkpt lat="39.652118" lon="-6.454319">
        <ele>363.642</ele>
        <time>2019-02-28T00:13:59Z</time>
      </trkpt>
      <trkpt lat="39.652422" lon="-6.454411">
        <ele>362.633</ele>
        <time>2019-02-28T00:14:05Z</time>
      </trkpt>
      <trkpt lat="39.652470" lon="-6.454441">
        <ele>362.492</ele>
        <time>2019-02-28T00:14:06Z</time>
      </trkpt>
      <trkpt lat="39.653231" lon="-6.454817">
        <ele>359.076</ele>
        <time>2019-02-28T00:14:19Z</time>
      </trkpt>
      <trkpt lat="39.653647" lon="-6.454891">
        <ele>358.069</ele>
        <time>2019-02-28T00:14:28Z</time>
      </trkpt>
      <trkpt lat="39.653656" lon="-6.454892">
        <ele>358.068</ele>
        <time>2019-02-28T00:14:32Z</time>
      </trkpt>
      <trkpt lat="39.653734" lon="-6.454906">
        <ele>358.137</ele>
        <time>2019-02-28T00:14:53Z</time>
      </trkpt>
      <trkpt lat="39.654069" lon="-6.455006">
        <ele>358.534</ele>
        <time>2019-02-28T00:15:05Z</time>
      </trkpt>
      <trkpt lat="39.654053" lon="-6.455003">
        <ele>358.655</ele>
        <time>2019-02-28T00:15:11Z</time>
      </trkpt>
      <trkpt lat="39.654093" lon="-6.455003">
        <ele>358.610</ele>
        <time>2019-02-28T00:15:31Z</time>
      </trkpt>
      <trkpt lat="39.654460" lon="-6.455059">
        <ele>359.508</ele>
        <time>2019-02-28T00:15:42Z</time>
      </trkpt>
      <trkpt lat="39.654930" lon="-6.455124">
        <ele>361.146</ele>
        <time>2019-02-28T00:15:58Z</time>
      </trkpt>
      <trkpt lat="39.655133" lon="-6.455170">
        <ele>360.047</ele>
        <time>2019-02-28T00:16:03Z</time>
      </trkpt>
      <trkpt lat="39.655181" lon="-6.455176">
        <ele>359.698</ele>
        <time>2019-02-28T00:16:04Z</time>
      </trkpt>
      <trkpt lat="39.655231" lon="-6.455178">
        <ele>359.327</ele>
        <time>2019-02-28T00:16:05Z</time>
      </trkpt>
      <trkpt lat="39.655788" lon="-6.455179">
        <ele>356.521</ele>
        <time>2019-02-28T00:16:17Z</time>
      </trkpt>
      <trkpt lat="39.655806" lon="-6.455181">
        <ele>356.554</ele>
        <time>2019-02-28T00:16:21Z</time>
      </trkpt>
      <trkpt lat="39.655947" lon="-6.455225">
        <ele>356.153</ele>
        <time>2019-02-28T00:17:06Z</time>
      </trkpt>
      <trkpt lat="39.656510" lon="-6.455564">
        <ele>355.012</ele>
        <time>2019-02-28T00:17:21Z</time>
      </trkpt>
      <trkpt lat="39.657327" lon="-6.456220">
        <ele>354.962</ele>
        <time>2019-02-28T00:17:42Z</time>
      </trkpt>
      <trkpt lat="39.657738" lon="-6.456531">
        <ele>356.783</ele>
        <time>2019-02-28T00:17:58Z</time>
      </trkpt>
      <trkpt lat="39.658087" lon="-6.456846">
        <ele>356.211</ele>
        <time>2019-02-28T00:18:08Z</time>
      </trkpt>
      <trkpt lat="39.658509" lon="-6.457395">
        <ele>356.908</ele>
        <time>2019-02-28T00:18:23Z</time>
      </trkpt>
      <trkpt lat="39.658823" lon="-6.457784">
        <ele>358.919</ele>
        <time>2019-02-28T00:18:36Z</time>
      </trkpt>
      <trkpt lat="39.658982" lon="-6.458094">
        <ele>358.740</ele>
        <time>2019-02-28T00:18:45Z</time>
      </trkpt>
      <trkpt lat="39.659015" lon="-6.458133">
        <ele>358.581</ele>
        <time>2019-02-28T00:18:46Z</time>
      </trkpt>
      <trkpt lat="39.659591" lon="-6.458557">
        <ele>354.770</ele>
        <time>2019-02-28T00:18:58Z</time>
      </trkpt>
      <trkpt lat="39.660099" lon="-6.458906">
        <ele>351.824</ele>
        <time>2019-02-28T00:19:09Z</time>
      </trkpt>
      <trkpt lat="39.660548" lon="-6.459445">
        <ele>348.017</ele>
        <time>2019-02-28T00:19:22Z</time>
      </trkpt>
      <trkpt lat="39.660678" lon="-6.459563">
        <ele>347.296</ele>
        <time>2019-02-28T00:19:26Z</time>
      </trkpt>
      <trkpt lat="39.660821" lon="-6.459711">
        <ele>346.225</ele>
        <time>2019-02-28T00:19:30Z</time>
      </trkpt>
      <trkpt lat="39.661284" lon="-6.460400">
        <ele>343.424</ele>
        <time>2019-02-28T00:19:44Z</time>
      </trkpt>
      <trkpt lat="39.661749" lon="-6.460937">
        <ele>342.904</ele>
        <time>2019-02-28T00:19:56Z</time>
      </trkpt>
      <trkpt lat="39.661793" lon="-6.460961">
        <ele>342.814</ele>
        <time>2019-02-28T00:19:57Z</time>
      </trkpt>
      <trkpt lat="39.661837" lon="-6.460979">
        <ele>342.808</ele>
        <time>2019-02-28T00:19:58Z</time>
      </trkpt>
      <trkpt lat="39.662345" lon="-6.461119">
        <ele>343.655</ele>
        <time>2019-02-28T00:20:11Z</time>
      </trkpt>
      <trkpt lat="39.662926" lon="-6.461212">
        <ele>343.756</ele>
        <time>2019-02-28T00:20:26Z</time>
      </trkpt>
      <trkpt lat="39.663825" lon="-6.461281">
        <ele>343.987</ele>
        <time>2019-02-28T00:20:45Z</time>
      </trkpt>
      <trkpt lat="39.664450" lon="-6.461399">
        <ele>343.746</ele>
        <time>2019-02-28T00:20:59Z</time>
      </trkpt>
      <trkpt lat="39.665142" lon="-6.461950">
        <ele>342.490</ele>
        <time>2019-02-28T00:21:15Z</time>
      </trkpt>
      <trkpt lat="39.665791" lon="-6.462409">
        <ele>342.333</ele>
        <time>2019-02-28T00:21:31Z</time>
      </trkpt>
      <trkpt lat="39.665826" lon="-6.462445">
        <ele>342.312</ele>
        <time>2019-02-28T00:21:32Z</time>
      </trkpt>
      <trkpt lat="39.665856" lon="-6.462485">
        <ele>342.391</ele>
        <time>2019-02-28T00:21:33Z</time>
      </trkpt>
      <trkpt lat="39.665885" lon="-6.462526">
        <ele>342.246</ele>
        <time>2019-02-28T00:21:34Z</time>
      </trkpt>
      <trkpt lat="39.665919" lon="-6.462564">
        <ele>342.288</ele>
        <time>2019-02-28T00:21:35Z</time>
      </trkpt>
      <trkpt lat="39.665956" lon="-6.462600">
        <ele>342.216</ele>
        <time>2019-02-28T00:21:36Z</time>
      </trkpt>
      <trkpt lat="39.665995" lon="-6.462630">
        <ele>342.208</ele>
        <time>2019-02-28T00:21:37Z</time>
      </trkpt>
      <trkpt lat="39.666033" lon="-6.462651">
        <ele>342.197</ele>
        <time>2019-02-28T00:21:38Z</time>
      </trkpt>
      <trkpt lat="39.666519" lon="-6.462912">
        <ele>341.078</ele>
        <time>2019-02-28T00:21:50Z</time>
      </trkpt>
      <trkpt lat="39.666755" lon="-6.462999">
        <ele>340.869</ele>
        <time>2019-02-28T00:21:55Z</time>
      </trkpt>
      <trkpt lat="39.667365" lon="-6.463277">
        <ele>340.968</ele>
        <time>2019-02-28T00:22:09Z</time>
      </trkpt>
      <trkpt lat="39.667754" lon="-6.463651">
        <ele>341.312</ele>
        <time>2019-02-28T00:22:24Z</time>
      </trkpt>
      <trkpt lat="39.667988" lon="-6.464054">
        <ele>341.815</ele>
        <time>2019-02-28T00:22:40Z</time>
      </trkpt>
      <trkpt lat="39.668304" lon="-6.464237">
        <ele>340.444</ele>
        <time>2019-02-28T00:22:55Z</time>
      </trkpt>
      <trkpt lat="39.668356" lon="-6.464250">
        <ele>340.183</ele>
        <time>2019-02-28T00:23:02Z</time>
      </trkpt>
      <trkpt lat="39.668335" lon="-6.464316">
        <ele>339.739</ele>
        <time>2019-02-28T00:23:53Z</time>
      </trkpt>
      <trkpt lat="39.668321" lon="-6.464404">
        <ele>339.301</ele>
        <time>2019-02-28T00:23:57Z</time>
      </trkpt>
      <trkpt lat="39.668341" lon="-6.464425">
        <ele>339.221</ele>
        <time>2019-02-28T00:23:58Z</time>
      </trkpt>
      <trkpt lat="39.668364" lon="-6.464448">
        <ele>339.008</ele>
        <time>2019-02-28T00:23:59Z</time>
      </trkpt>
      <trkpt lat="39.668397" lon="-6.464470">
        <ele>338.846</ele>
        <time>2019-02-28T00:24:00Z</time>
      </trkpt>
      <trkpt lat="39.668436" lon="-6.464480">
        <ele>338.717</ele>
        <time>2019-02-28T00:24:01Z</time>
      </trkpt>
      <trkpt lat="39.668476" lon="-6.464482">
        <ele>338.588</ele>
        <time>2019-02-28T00:24:02Z</time>
      </trkpt>
      <trkpt lat="39.668514" lon="-6.464482">
        <ele>338.497</ele>
        <time>2019-02-28T00:24:03Z</time>
      </trkpt>
      <trkpt lat="39.668553" lon="-6.464486">
        <ele>338.241</ele>
        <time>2019-02-28T00:24:04Z</time>
      </trkpt>
      <trkpt lat="39.668595" lon="-6.464497">
        <ele>338.024</ele>
        <time>2019-02-28T00:24:05Z</time>
      </trkpt>
      <trkpt lat="39.668641" lon="-6.464506">
        <ele>337.863</ele>
        <time>2019-02-28T00:24:06Z</time>
      </trkpt>
      <trkpt lat="39.668688" lon="-6.464513">
        <ele>337.552</ele>
        <time>2019-02-28T00:24:07Z</time>
      </trkpt>
      <trkpt lat="39.669053" lon="-6.464650">
        <ele>335.715</ele>
        <time>2019-02-28T00:24:14Z</time>
      </trkpt>
      <trkpt lat="39.669101" lon="-6.464687">
        <ele>335.565</ele>
        <time>2019-02-28T00:24:15Z</time>
      </trkpt>
      <trkpt lat="39.669145" lon="-6.464730">
        <ele>335.411</ele>
        <time>2019-02-28T00:24:16Z</time>
      </trkpt>
      <trkpt lat="39.669184" lon="-6.464776">
        <ele>335.208</ele>
        <time>2019-02-28T00:24:17Z</time>
      </trkpt>
      <trkpt lat="39.669220" lon="-6.464825">
        <ele>335.014</ele>
        <time>2019-02-28T00:24:18Z</time>
      </trkpt>
      <trkpt lat="39.669256" lon="-6.464880">
        <ele>334.875</ele>
        <time>2019-02-28T00:24:19Z</time>
      </trkpt>
      <trkpt lat="39.669291" lon="-6.464938">
        <ele>334.546</ele>
        <time>2019-02-28T00:24:20Z</time>
      </trkpt>
      <trkpt lat="39.669465" lon="-6.465142">
        <ele>333.795</ele>
        <time>2019-02-28T00:24:24Z</time>
      </trkpt>
      <trkpt lat="39.669518" lon="-6.465178">
        <ele>333.569</ele>
        <time>2019-02-28T00:24:25Z</time>
      </trkpt>
      <trkpt lat="39.670519" lon="-6.465614">
        <ele>331.342</ele>
        <time>2019-02-28T00:24:42Z</time>
      </trkpt>
      <trkpt lat="39.671280" lon="-6.465985">
        <ele>330.071</ele>
        <time>2019-02-28T00:24:55Z</time>
      </trkpt>
      <trkpt lat="39.672012" lon="-6.466340">
        <ele>329.370</ele>
        <time>2019-02-28T00:25:09Z</time>
      </trkpt>
      <trkpt lat="39.672603" lon="-6.466611">
        <ele>329.861</ele>
        <time>2019-02-28T00:25:22Z</time>
      </trkpt>
      <trkpt lat="39.673097" lon="-6.466860">
        <ele>331.921</ele>
        <time>2019-02-28T00:25:39Z</time>
      </trkpt>
      <trkpt lat="39.673534" lon="-6.467138">
        <ele>331.613</ele>
        <time>2019-02-28T00:25:53Z</time>
      </trkpt>
      <trkpt lat="39.673767" lon="-6.467353">
        <ele>330.008</ele>
        <time>2019-02-28T00:25:59Z</time>
      </trkpt>
      <trkpt lat="39.673809" lon="-6.467375">
        <ele>329.899</ele>
        <time>2019-02-28T00:26:00Z</time>
      </trkpt>
      <trkpt lat="39.673850" lon="-6.467390">
        <ele>329.590</ele>
        <time>2019-02-28T00:26:01Z</time>
      </trkpt>
      <trkpt lat="39.674142" lon="-6.467469">
        <ele>327.891</ele>
        <time>2019-02-28T00:26:12Z</time>
      </trkpt>
      <trkpt lat="39.674278" lon="-6.467603">
        <ele>327.560</ele>
        <time>2019-02-28T00:26:26Z</time>
      </trkpt>
      <trkpt lat="39.674135" lon="-6.467683">
        <ele>327.014</ele>
        <time>2019-02-28T00:27:23Z</time>
      </trkpt>
      <trkpt lat="39.674113" lon="-6.467693">
        <ele>326.927</ele>
        <time>2019-02-28T00:27:24Z</time>
      </trkpt>
      <trkpt lat="39.673610" lon="-6.468029">
        <ele>324.016</ele>
        <time>2019-02-28T00:27:37Z</time>
      </trkpt>
      <trkpt lat="39.673181" lon="-6.468243">
        <ele>325.035</ele>
        <time>2019-02-28T00:27:48Z</time>
      </trkpt>
      <trkpt lat="39.672905" lon="-6.468353">
        <ele>328.412</ele>
        <time>2019-02-28T00:28:01Z</time>
      </trkpt>
      <trkpt lat="39.672674" lon="-6.468465">
        <ele>330.232</ele>
        <time>2019-02-28T00:28:15Z</time>
      </trkpt>
      <trkpt lat="39.672275" lon="-6.468728">
        <ele>329.705</ele>
        <time>2019-02-28T00:28:26Z</time>
      </trkpt>
      <trkpt lat="39.671688" lon="-6.469126">
        <ele>325.608</ele>
        <time>2019-02-28T00:28:39Z</time>
      </trkpt>
      <trkpt lat="39.671496" lon="-6.469271">
        <ele>323.834</ele>
        <time>2019-02-28T00:28:45Z</time>
      </trkpt>
      <trkpt lat="39.671223" lon="-6.469529">
        <ele>319.825</ele>
        <time>2019-02-28T00:28:51Z</time>
      </trkpt>
      <trkpt lat="39.670913" lon="-6.469774">
        <ele>316.626</ele>
        <time>2019-02-28T00:28:57Z</time>
      </trkpt>
      <trkpt lat="39.670484" lon="-6.469975">
        <ele>313.175</ele>
        <time>2019-02-28T00:29:06Z</time>
      </trkpt>
      <trkpt lat="39.670259" lon="-6.470029">
        <ele>310.499</ele>
        <time>2019-02-28T00:29:14Z</time>
      </trkpt>
      <trkpt lat="39.670208" lon="-6.470091">
        <ele>309.362</ele>
        <time>2019-02-28T00:29:16Z</time>
      </trkpt>
      <trkpt lat="39.670165" lon="-6.470263">
        <ele>306.771</ele>
        <time>2019-02-28T00:29:20Z</time>
      </trkpt>
      <trkpt lat="39.670176" lon="-6.470383">
        <ele>305.730</ele>
        <time>2019-02-28T00:29:23Z</time>
      </trkpt>
      <trkpt lat="39.670469" lon="-6.470796">
        <ele>303.767</ele>
        <time>2019-02-28T00:29:35Z</time>
      </trkpt>
      <trkpt lat="39.670704" lon="-6.470733">
        <ele>304.381</ele>
        <time>2019-02-28T00:29:48Z</time>
      </trkpt>
      <trkpt lat="39.671022" lon="-6.470557">
        <ele>307.419</ele>
        <time>2019-02-28T00:30:04Z</time>
      </trkpt>
      <trkpt lat="39.671403" lon="-6.470331">
        <ele>309.908</ele>
        <time>2019-02-28T00:30:20Z</time>
      </trkpt>
      <trkpt lat="39.671777" lon="-6.470211">
        <ele>311.689</ele>
        <time>2019-02-28T00:30:35Z</time>
      </trkpt>
      <trkpt lat="39.672199" lon="-6.470243">
        <ele>313.150</ele>
        <time>2019-02-28T00:30:48Z</time>
      </trkpt>
      <trkpt lat="39.672631" lon="-6.470432">
        <ele>313.881</ele>
        <time>2019-02-28T00:31:03Z</time>
      </trkpt>
      <trkpt lat="39.672941" lon="-6.470601">
        <ele>314.030</ele>
        <time>2019-02-28T00:31:15Z</time>
      </trkpt>
      <trkpt lat="39.673046" lon="-6.470654">
        <ele>314.024</ele>
        <time>2019-02-28T00:31:20Z</time>
      </trkpt>
      <trkpt lat="39.673050" lon="-6.470668">
        <ele>314.047</ele>
        <time>2019-02-28T00:31:21Z</time>
      </trkpt>
      <trkpt lat="39.673047" lon="-6.470682">
        <ele>314.086</ele>
        <time>2019-02-28T00:31:22Z</time>
      </trkpt>
      <trkpt lat="39.673036" lon="-6.470693">
        <ele>314.035</ele>
        <time>2019-02-28T00:31:23Z</time>
      </trkpt>
      <trkpt lat="39.673020" lon="-6.470694">
        <ele>314.017</ele>
        <time>2019-02-28T00:31:24Z</time>
      </trkpt>
      <trkpt lat="39.672999" lon="-6.470688">
        <ele>314.087</ele>
        <time>2019-02-28T00:31:25Z</time>
      </trkpt>
      <trkpt lat="39.672686" lon="-6.470797">
        <ele>312.815</ele>
        <time>2019-02-28T00:31:38Z</time>
      </trkpt>
      <trkpt lat="39.672621" lon="-6.470858">
        <ele>312.208</ele>
        <time>2019-02-28T00:31:46Z</time>
      </trkpt>
      <trkpt lat="39.672649" lon="-6.470932">
        <ele>311.524</ele>
        <time>2019-02-28T00:32:37Z</time>
      </trkpt>
      <trkpt lat="39.672674" lon="-6.470949">
        <ele>311.585</ele>
        <time>2019-02-28T00:32:38Z</time>
      </trkpt>
      <trkpt lat="39.672703" lon="-6.470965">
        <ele>311.526</ele>
        <time>2019-02-28T00:32:39Z</time>
      </trkpt>
      <trkpt lat="39.672734" lon="-6.470985">
        <ele>311.585</ele>
        <time>2019-02-28T00:32:40Z</time>
      </trkpt>
      <trkpt lat="39.672765" lon="-6.471007">
        <ele>311.669</ele>
        <time>2019-02-28T00:32:41Z</time>
      </trkpt>
      <trkpt lat="39.673361" lon="-6.471412">
        <ele>311.142</ele>
        <time>2019-02-28T00:32:54Z</time>
      </trkpt>
      <trkpt lat="39.674280" lon="-6.472121">
        <ele>304.681</ele>
        <time>2019-02-28T00:33:08Z</time>
      </trkpt>
      <trkpt lat="39.674887" lon="-6.473168">
        <ele>303.410</ele>
        <time>2019-02-28T00:33:19Z</time>
      </trkpt>
      <trkpt lat="39.675206" lon="-6.473784">
        <ele>301.033</ele>
        <time>2019-02-28T00:33:25Z</time>
      </trkpt>
      <trkpt lat="39.675275" lon="-6.473870">
        <ele>300.423</ele>
        <time>2019-02-28T00:33:26Z</time>
      </trkpt>
      <trkpt lat="39.675350" lon="-6.473948">
        <ele>299.715</ele>
        <time>2019-02-28T00:33:27Z</time>
      </trkpt>
      <trkpt lat="39.675432" lon="-6.474017">
        <ele>299.108</ele>
        <time>2019-02-28T00:33:28Z</time>
      </trkpt>
      <trkpt lat="39.675521" lon="-6.474072">
        <ele>298.566</ele>
        <time>2019-02-28T00:33:29Z</time>
      </trkpt>
      <trkpt lat="39.675613" lon="-6.474118">
        <ele>297.897</ele>
        <time>2019-02-28T00:33:30Z</time>
      </trkpt>
      <trkpt lat="39.675710" lon="-6.474151">
        <ele>296.998</ele>
        <time>2019-02-28T00:33:31Z</time>
      </trkpt>
      <trkpt lat="39.675809" lon="-6.474171">
        <ele>296.597</ele>
        <time>2019-02-28T00:33:32Z</time>
      </trkpt>
      <trkpt lat="39.675910" lon="-6.474180">
        <ele>296.031</ele>
        <time>2019-02-28T00:33:33Z</time>
      </trkpt>
      <trkpt lat="39.676009" lon="-6.474179">
        <ele>295.714</ele>
        <time>2019-02-28T00:33:34Z</time>
      </trkpt>
      <trkpt lat="39.676108" lon="-6.474167">
        <ele>295.593</ele>
        <time>2019-02-28T00:33:35Z</time>
      </trkpt>
      <trkpt lat="39.676207" lon="-6.474145">
        <ele>295.442</ele>
        <time>2019-02-28T00:33:36Z</time>
      </trkpt>
      <trkpt lat="39.676305" lon="-6.474116">
        <ele>295.229</ele>
        <time>2019-02-28T00:33:37Z</time>
      </trkpt>
      <trkpt lat="39.677101" lon="-6.473853">
        <ele>288.700</ele>
        <time>2019-02-28T00:33:45Z</time>
      </trkpt>
      <trkpt lat="39.677513" lon="-6.473850">
        <ele>286.120</ele>
        <time>2019-02-28T00:33:49Z</time>
      </trkpt>
      <trkpt lat="39.677612" lon="-6.473876">
        <ele>285.808</ele>
        <time>2019-02-28T00:33:50Z</time>
      </trkpt>
      <trkpt lat="39.677708" lon="-6.473914">
        <ele>285.735</ele>
        <time>2019-02-28T00:33:51Z</time>
      </trkpt>
      <trkpt lat="39.677801" lon="-6.473963">
        <ele>285.586</ele>
        <time>2019-02-28T00:33:52Z</time>
      </trkpt>
      <trkpt lat="39.677894" lon="-6.474016">
        <ele>285.327</ele>
        <time>2019-02-28T00:33:53Z</time>
      </trkpt>
      <trkpt lat="39.678683" lon="-6.474607">
        <ele>281.376</ele>
        <time>2019-02-28T00:34:02Z</time>
      </trkpt>
      <trkpt lat="39.679047" lon="-6.474838">
        <ele>280.860</ele>
        <time>2019-02-28T00:34:06Z</time>
      </trkpt>
      <trkpt lat="39.679141" lon="-6.474871">
        <ele>280.533</ele>
        <time>2019-02-28T00:34:07Z</time>
      </trkpt>
      <trkpt lat="39.679231" lon="-6.474891">
        <ele>280.142</ele>
        <time>2019-02-28T00:34:08Z</time>
      </trkpt>
      <trkpt lat="39.679318" lon="-6.474899">
        <ele>279.871</ele>
        <time>2019-02-28T00:34:09Z</time>
      </trkpt>
      <trkpt lat="39.679398" lon="-6.474900">
        <ele>279.421</ele>
        <time>2019-02-28T00:34:10Z</time>
      </trkpt>
      <trkpt lat="39.679773" lon="-6.474863">
        <ele>277.441</ele>
        <time>2019-02-28T00:34:16Z</time>
      </trkpt>
      <trkpt lat="39.679822" lon="-6.474846">
        <ele>277.105</ele>
        <time>2019-02-28T00:34:22Z</time>
      </trkpt>
      <trkpt lat="39.679905" lon="-6.474830">
        <ele>276.708</ele>
        <time>2019-02-28T00:34:37Z</time>
      </trkpt>
      <trkpt lat="39.680502" lon="-6.474741">
        <ele>271.595</ele>
        <time>2019-02-28T00:34:47Z</time>
      </trkpt>
      <trkpt lat="39.681348" lon="-6.474425">
        <ele>264.816</ele>
        <time>2019-02-28T00:34:57Z</time>
      </trkpt>
      <trkpt lat="39.681865" lon="-6.473992">
        <ele>262.677</ele>
        <time>2019-02-28T00:35:03Z</time>
      </trkpt>
      <trkpt lat="39.681955" lon="-6.473944">
        <ele>262.416</ele>
        <time>2019-02-28T00:35:04Z</time>
      </trkpt>
      <trkpt lat="39.682046" lon="-6.473902">
        <ele>262.120</ele>
        <time>2019-02-28T00:35:05Z</time>
      </trkpt>
      <trkpt lat="39.682134" lon="-6.473871">
        <ele>261.873</ele>
        <time>2019-02-28T00:35:06Z</time>
      </trkpt>
      <trkpt lat="39.682221" lon="-6.473849">
        <ele>261.532</ele>
        <time>2019-02-28T00:35:07Z</time>
      </trkpt>
      <trkpt lat="39.682305" lon="-6.473834">
        <ele>261.271</ele>
        <time>2019-02-28T00:35:08Z</time>
      </trkpt>
      <trkpt lat="39.683254" lon="-6.473736">
        <ele>261.933</ele>
        <time>2019-02-28T00:35:22Z</time>
      </trkpt>
      <trkpt lat="39.683351" lon="-6.473697">
        <ele>262.123</ele>
        <time>2019-02-28T00:35:24Z</time>
      </trkpt>
      <trkpt lat="39.683826" lon="-6.473248">
        <ele>263.615</ele>
        <time>2019-02-28T00:35:36Z</time>
      </trkpt>
      <trkpt lat="39.683857" lon="-6.473219">
        <ele>263.708</ele>
        <time>2019-02-28T00:35:37Z</time>
      </trkpt>
      <trkpt lat="39.683889" lon="-6.473203">
        <ele>263.816</ele>
        <time>2019-02-28T00:35:38Z</time>
      </trkpt>
      <trkpt lat="39.683916" lon="-6.473184">
        <ele>264.077</ele>
        <time>2019-02-28T00:35:39Z</time>
      </trkpt>
      <trkpt lat="39.683938" lon="-6.473159">
        <ele>264.168</ele>
        <time>2019-02-28T00:35:40Z</time>
      </trkpt>
      <trkpt lat="39.683956" lon="-6.473130">
        <ele>264.227</ele>
        <time>2019-02-28T00:35:41Z</time>
      </trkpt>
      <trkpt lat="39.683972" lon="-6.473097">
        <ele>264.491</ele>
        <time>2019-02-28T00:35:42Z</time>
      </trkpt>
      <trkpt lat="39.684008" lon="-6.472934">
        <ele>264.884</ele>
        <time>2019-02-28T00:35:50Z</time>
      </trkpt>
      <trkpt lat="39.683999" lon="-6.472877">
        <ele>264.983</ele>
        <time>2019-02-28T00:36:15Z</time>
      </trkpt>
      <trkpt lat="39.683989" lon="-6.472820">
        <ele>265.112</ele>
        <time>2019-02-28T00:36:16Z</time>
      </trkpt>
      <trkpt lat="39.683998" lon="-6.472763">
        <ele>265.234</ele>
        <time>2019-02-28T00:36:17Z</time>
      </trkpt>
      <trkpt lat="39.684011" lon="-6.472705">
        <ele>265.255</ele>
        <time>2019-02-28T00:36:18Z</time>
      </trkpt>
      <trkpt lat="39.684323" lon="-6.471652">
        <ele>262.710</ele>
        <time>2019-02-28T00:36:34Z</time>
      </trkpt>
      <trkpt lat="39.684366" lon="-6.471576">
        <ele>262.508</ele>
        <time>2019-02-28T00:36:35Z</time>
      </trkpt>
      <trkpt lat="39.684415" lon="-6.471502">
        <ele>262.386</ele>
        <time>2019-02-28T00:36:36Z</time>
      </trkpt>
      <trkpt lat="39.684471" lon="-6.471430">
        <ele>262.127</ele>
        <time>2019-02-28T00:36:37Z</time>
      </trkpt>
      <trkpt lat="39.684534" lon="-6.471361">
        <ele>261.948</ele>
        <time>2019-02-28T00:36:38Z</time>
      </trkpt>
      <trkpt lat="39.684603" lon="-6.471297">
        <ele>261.627</ele>
        <time>2019-02-28T00:36:39Z</time>
      </trkpt>
      <trkpt lat="39.684680" lon="-6.471239">
        <ele>261.391</ele>
        <time>2019-02-28T00:36:40Z</time>
      </trkpt>
      <trkpt lat="39.684763" lon="-6.471186">
        <ele>260.944</ele>
        <time>2019-02-28T00:36:41Z</time>
      </trkpt>
      <trkpt lat="39.684853" lon="-6.471138">
        <ele>260.563</ele>
        <time>2019-02-28T00:36:42Z</time>
      </trkpt>
      <trkpt lat="39.684949" lon="-6.471100">
        <ele>260.122</ele>
        <time>2019-02-28T00:36:43Z</time>
      </trkpt>
      <trkpt lat="39.685047" lon="-6.471072">
        <ele>259.799</ele>
        <time>2019-02-28T00:36:44Z</time>
      </trkpt>
      <trkpt lat="39.685147" lon="-6.471054">
        <ele>259.407</ele>
        <time>2019-02-28T00:36:45Z</time>
      </trkpt>
      <trkpt lat="39.685248" lon="-6.471047">
        <ele>259.027</ele>
        <time>2019-02-28T00:36:46Z</time>
      </trkpt>
      <trkpt lat="39.685349" lon="-6.471054">
        <ele>258.508</ele>
        <time>2019-02-28T00:36:47Z</time>
      </trkpt>
      <trkpt lat="39.685449" lon="-6.471075">
        <ele>257.932</ele>
        <time>2019-02-28T00:36:48Z</time>
      </trkpt>
      <trkpt lat="39.685549" lon="-6.471109">
        <ele>257.463</ele>
        <time>2019-02-28T00:36:49Z</time>
      </trkpt>
      <trkpt lat="39.685647" lon="-6.471154">
        <ele>256.574</ele>
        <time>2019-02-28T00:36:50Z</time>
      </trkpt>
      <trkpt lat="39.685745" lon="-6.471205">
        <ele>255.453</ele>
        <time>2019-02-28T00:36:51Z</time>
      </trkpt>
      <trkpt lat="39.686239" lon="-6.471487">
        <ele>252.527</ele>
        <time>2019-02-28T00:36:56Z</time>
      </trkpt>
      <trkpt lat="39.686449" lon="-6.471576">
        <ele>252.130</ele>
        <time>2019-02-28T00:36:58Z</time>
      </trkpt>
      <trkpt lat="39.686557" lon="-6.471597">
        <ele>251.799</ele>
        <time>2019-02-28T00:36:59Z</time>
      </trkpt>
      <trkpt lat="39.686667" lon="-6.471603">
        <ele>251.378</ele>
        <time>2019-02-28T00:37:00Z</time>
      </trkpt>
      <trkpt lat="39.686777" lon="-6.471596">
        <ele>250.646</ele>
        <time>2019-02-28T00:37:01Z</time>
      </trkpt>
      <trkpt lat="39.686886" lon="-6.471574">
        <ele>250.088</ele>
        <time>2019-02-28T00:37:02Z</time>
      </trkpt>
      <trkpt lat="39.686992" lon="-6.471535">
        <ele>249.516</ele>
        <time>2019-02-28T00:37:03Z</time>
      </trkpt>
      <trkpt lat="39.687094" lon="-6.471478">
        <ele>248.908</ele>
        <time>2019-02-28T00:37:04Z</time>
      </trkpt>
      <trkpt lat="39.687192" lon="-6.471409">
        <ele>248.317</ele>
        <time>2019-02-28T00:37:05Z</time>
      </trkpt>
      <trkpt lat="39.687285" lon="-6.471329">
        <ele>247.668</ele>
        <time>2019-02-28T00:37:06Z</time>
      </trkpt>
      <trkpt lat="39.687375" lon="-6.471244">
        <ele>246.939</ele>
        <time>2019-02-28T00:37:07Z</time>
      </trkpt>
      <trkpt lat="39.687888" lon="-6.470784">
        <ele>240.438</ele>
        <time>2019-02-28T00:37:13Z</time>
      </trkpt>
      <trkpt lat="39.688635" lon="-6.470551">
        <ele>236.342</ele>
        <time>2019-02-28T00:37:21Z</time>
      </trkpt>
      <trkpt lat="39.689193" lon="-6.470323">
        <ele>233.895</ele>
        <time>2019-02-28T00:37:27Z</time>
      </trkpt>
      <trkpt lat="39.689275" lon="-6.470256">
        <ele>233.314</ele>
        <time>2019-02-28T00:37:28Z</time>
      </trkpt>
      <trkpt lat="39.689352" lon="-6.470180">
        <ele>232.953</ele>
        <time>2019-02-28T00:37:29Z</time>
      </trkpt>
      <trkpt lat="39.689422" lon="-6.470095">
        <ele>232.441</ele>
        <time>2019-02-28T00:37:30Z</time>
      </trkpt>
      <trkpt lat="39.689485" lon="-6.470004">
        <ele>232.081</ele>
        <time>2019-02-28T00:37:31Z</time>
      </trkpt>
      <trkpt lat="39.689543" lon="-6.469908">
        <ele>231.509</ele>
        <time>2019-02-28T00:37:32Z</time>
      </trkpt>
      <trkpt lat="39.689594" lon="-6.469809">
        <ele>231.108</ele>
        <time>2019-02-28T00:37:33Z</time>
      </trkpt>
      <trkpt lat="39.689640" lon="-6.469705">
        <ele>230.697</ele>
        <time>2019-02-28T00:37:34Z</time>
      </trkpt>
      <trkpt lat="39.689682" lon="-6.469597">
        <ele>230.158</ele>
        <time>2019-02-28T00:37:35Z</time>
      </trkpt>
      <trkpt lat="39.690066" lon="-6.468547">
        <ele>223.949</ele>
        <time>2019-02-28T00:37:45Z</time>
      </trkpt>
      <trkpt lat="39.690154" lon="-6.468338">
        <ele>222.278</ele>
        <time>2019-02-28T00:37:48Z</time>
      </trkpt>
      <trkpt lat="39.690181" lon="-6.468327">
        <ele>222.022</ele>
        <time>2019-02-28T00:37:49Z</time>
      </trkpt>
      <trkpt lat="39.690208" lon="-6.468337">
        <ele>221.845</ele>
        <time>2019-02-28T00:37:50Z</time>
      </trkpt>
      <trkpt lat="39.690230" lon="-6.468348">
        <ele>221.724</ele>
        <time>2019-02-28T00:37:51Z</time>
      </trkpt>
      <trkpt lat="39.690250" lon="-6.468354">
        <ele>221.633</ele>
        <time>2019-02-28T00:37:52Z</time>
      </trkpt>
      <trkpt lat="39.690266" lon="-6.468356">
        <ele>221.579</ele>
        <time>2019-02-28T00:37:53Z</time>
      </trkpt>
      <trkpt lat="39.690267" lon="-6.468359">
        <ele>221.505</ele>
        <time>2019-02-28T00:37:57Z</time>
      </trkpt>
      <trkpt lat="39.690213" lon="-6.468401">
        <ele>221.125</ele>
        <time>2019-02-28T00:38:18Z</time>
      </trkpt>
      <trkpt lat="39.690198" lon="-6.468394">
        <ele>221.008</ele>
        <time>2019-02-28T00:38:19Z</time>
      </trkpt>
      <trkpt lat="39.690162" lon="-6.468334">
        <ele>220.730</ele>
        <time>2019-02-28T00:38:22Z</time>
      </trkpt>
      <trkpt lat="39.690168" lon="-6.468297">
        <ele>220.561</ele>
        <time>2019-02-28T00:38:23Z</time>
      </trkpt>
      <trkpt lat="39.690180" lon="-6.468249">
        <ele>220.322</ele>
        <time>2019-02-28T00:38:24Z</time>
      </trkpt>
      <trkpt lat="39.690213" lon="-6.468143">
        <ele>219.761</ele>
        <time>2019-02-28T00:38:26Z</time>
      </trkpt>
      <trkpt lat="39.690476" lon="-6.467405">
        <ele>216.945</ele>
        <time>2019-02-28T00:38:41Z</time>
      </trkpt>
      <trkpt lat="39.690731" lon="-6.466689">
        <ele>214.748</ele>
        <time>2019-02-28T00:38:57Z</time>
      </trkpt>
      <trkpt lat="39.691099" lon="-6.465698">
        <ele>211.927</ele>
        <time>2019-02-28T00:39:14Z</time>
      </trkpt>
      <trkpt lat="39.691466" lon="-6.464728">
        <ele>209.276</ele>
        <time>2019-02-28T00:39:31Z</time>
      </trkpt>
      <trkpt lat="39.691949" lon="-6.463954">
        <ele>214.894</ele>
        <time>2019-02-28T00:39:46Z</time>
      </trkpt>
      <trkpt lat="39.691995" lon="-6.463920">
        <ele>215.457</ele>
        <time>2019-02-28T00:39:47Z</time>
      </trkpt>
      <trkpt lat="39.692044" lon="-6.463892">
        <ele>215.922</ele>
        <time>2019-02-28T00:39:48Z</time>
      </trkpt>
      <trkpt lat="39.692302" lon="-6.463777">
        <ele>215.808</ele>
        <time>2019-02-28T00:39:53Z</time>
      </trkpt>
      <trkpt lat="39.692356" lon="-6.463765">
        <ele>215.642</ele>
        <time>2019-02-28T00:39:54Z</time>
      </trkpt>
      <trkpt lat="39.692413" lon="-6.463759">
        <ele>215.383</ele>
        <time>2019-02-28T00:39:55Z</time>
      </trkpt>
      <trkpt lat="39.693199" lon="-6.463977">
        <ele>213.834</ele>
        <time>2019-02-28T00:40:07Z</time>
      </trkpt>
      <trkpt lat="39.694533" lon="-6.464680">
        <ele>218.773</ele>
        <time>2019-02-28T00:40:25Z</time>
      </trkpt>
      <trkpt lat="39.694854" lon="-6.464803">
        <ele>220.077</ele>
        <time>2019-02-28T00:40:30Z</time>
      </trkpt>
      <trkpt lat="39.694914" lon="-6.464811">
        <ele>220.240</ele>
        <time>2019-02-28T00:40:31Z</time>
      </trkpt>
      <trkpt lat="39.694973" lon="-6.464812">
        <ele>220.319</ele>
        <time>2019-02-28T00:40:32Z</time>
      </trkpt>
      <trkpt lat="39.695030" lon="-6.464811">
        <ele>220.518</ele>
        <time>2019-02-28T00:40:33Z</time>
      </trkpt>
      <trkpt lat="39.695085" lon="-6.464806">
        <ele>220.675</ele>
        <time>2019-02-28T00:40:34Z</time>
      </trkpt>
      <trkpt lat="39.695420" lon="-6.464690">
        <ele>221.628</ele>
        <time>2019-02-28T00:40:41Z</time>
      </trkpt>
      <trkpt lat="39.695953" lon="-6.464142">
        <ele>223.820</ele>
        <time>2019-02-28T00:40:58Z</time>
      </trkpt>
      <trkpt lat="39.696394" lon="-6.463640">
        <ele>226.208</ele>
        <time>2019-02-28T00:41:16Z</time>
      </trkpt>
      <trkpt lat="39.696866" lon="-6.463368">
        <ele>228.740</ele>
        <time>2019-02-28T00:41:33Z</time>
      </trkpt>
      <trkpt lat="39.697441" lon="-6.463260">
        <ele>231.171</ele>
        <time>2019-02-28T00:41:50Z</time>
      </trkpt>
      <trkpt lat="39.697977" lon="-6.463170">
        <ele>233.462</ele>
        <time>2019-02-28T00:42:08Z</time>
      </trkpt>
      <trkpt lat="39.698498" lon="-6.462930">
        <ele>235.581</ele>
        <time>2019-02-28T00:42:26Z</time>
      </trkpt>
      <trkpt lat="39.698851" lon="-6.462465">
        <ele>237.595</ele>
        <time>2019-02-28T00:42:42Z</time>
      </trkpt>
      <trkpt lat="39.699197" lon="-6.461845">
        <ele>240.428</ele>
        <time>2019-02-28T00:43:01Z</time>
      </trkpt>
      <trkpt lat="39.699567" lon="-6.461158">
        <ele>243.197</ele>
        <time>2019-02-28T00:43:21Z</time>
      </trkpt>
      <trkpt lat="39.699933" lon="-6.460517">
        <ele>245.966</ele>
        <time>2019-02-28T00:43:41Z</time>
      </trkpt>
      <trkpt lat="39.700217" lon="-6.459782">
        <ele>248.886</ele>
        <time>2019-02-28T00:44:03Z</time>
      </trkpt>
      <trkpt lat="39.700367" lon="-6.459215">
        <ele>251.160</ele>
        <time>2019-02-28T00:44:19Z</time>
      </trkpt>
      <trkpt lat="39.700569" lon="-6.458499">
        <ele>253.926</ele>
        <time>2019-02-28T00:44:39Z</time>
      </trkpt>
      <trkpt lat="39.700802" lon="-6.457736">
        <ele>254.508</ele>
        <time>2019-02-28T00:44:56Z</time>
      </trkpt>
      <trkpt lat="39.701160" lon="-6.457200">
        <ele>255.541</ele>
        <time>2019-02-28T00:45:11Z</time>
      </trkpt>
      <trkpt lat="39.701222" lon="-6.457155">
        <ele>255.742</ele>
        <time>2019-02-28T00:45:17Z</time>
      </trkpt>
      <trkpt lat="39.701233" lon="-6.457222">
        <ele>255.843</ele>
        <time>2019-02-28T00:46:25Z</time>
      </trkpt>
      <trkpt lat="39.701213" lon="-6.457229">
        <ele>255.972</ele>
        <time>2019-02-28T00:46:26Z</time>
      </trkpt>
      <trkpt lat="39.701218" lon="-6.457171">
        <ele>256.096</ele>
        <time>2019-02-28T00:46:50Z</time>
      </trkpt>
      <trkpt lat="39.701235" lon="-6.457167">
        <ele>256.099</ele>
        <time>2019-02-28T00:46:55Z</time>
      </trkpt>
      <trkpt lat="39.701593" lon="-6.457002">
        <ele>256.868</ele>
        <time>2019-02-28T00:47:08Z</time>
      </trkpt>
      <trkpt lat="39.702275" lon="-6.456896">
        <ele>257.817</ele>
        <time>2019-02-28T00:47:25Z</time>
      </trkpt>
      <trkpt lat="39.702940" lon="-6.456838">
        <ele>257.717</ele>
        <time>2019-02-28T00:47:43Z</time>
      </trkpt>
      <trkpt lat="39.703871" lon="-6.456745">
        <ele>256.387</ele>
        <time>2019-02-28T00:48:06Z</time>
      </trkpt>
      <trkpt lat="39.704762" lon="-6.456654">
        <ele>255.715</ele>
        <time>2019-02-28T00:48:22Z</time>
      </trkpt>
      <trkpt lat="39.705890" lon="-6.456523">
        <ele>257.608</ele>
        <time>2019-02-28T00:48:41Z</time>
      </trkpt>
      <trkpt lat="39.706752" lon="-6.456579">
        <ele>257.924</ele>
        <time>2019-02-28T00:49:01Z</time>
      </trkpt>
      <trkpt lat="39.707621" lon="-6.456743">
        <ele>255.715</ele>
        <time>2019-02-28T00:49:21Z</time>
      </trkpt>
      <trkpt lat="39.707909" lon="-6.456771">
        <ele>254.626</ele>
        <time>2019-02-28T00:49:26Z</time>
      </trkpt>
      <trkpt lat="39.708243" lon="-6.456705">
        <ele>253.475</ele>
        <time>2019-02-28T00:49:31Z</time>
      </trkpt>
      <trkpt lat="39.709149" lon="-6.456095">
        <ele>250.189</ele>
        <time>2019-02-28T00:49:44Z</time>
      </trkpt>
      <trkpt lat="39.710122" lon="-6.455378">
        <ele>246.282</ele>
        <time>2019-02-28T00:49:57Z</time>
      </trkpt>
      <trkpt lat="39.710922" lon="-6.454783">
        <ele>243.341</ele>
        <time>2019-02-28T00:50:08Z</time>
      </trkpt>
      <trkpt lat="39.711812" lon="-6.453896">
        <ele>238.890</ele>
        <time>2019-02-28T00:50:21Z</time>
      </trkpt>
      <trkpt lat="39.712601" lon="-6.452841">
        <ele>234.762</ele>
        <time>2019-02-28T00:50:34Z</time>
      </trkpt>
      <trkpt lat="39.712671" lon="-6.452784">
        <ele>234.383</ele>
        <time>2019-02-28T00:50:35Z</time>
      </trkpt>
      <trkpt lat="39.713576" lon="-6.452452">
        <ele>231.411</ele>
        <time>2019-02-28T00:50:47Z</time>
      </trkpt>
      <trkpt lat="39.714247" lon="-6.452167">
        <ele>230.208</ele>
        <time>2019-02-28T00:50:56Z</time>
      </trkpt>
      <trkpt lat="39.714307" lon="-6.452108">
        <ele>230.139</ele>
        <time>2019-02-28T00:50:57Z</time>
      </trkpt>
      <trkpt lat="39.714764" lon="-6.451298">
        <ele>229.280</ele>
        <time>2019-02-28T00:51:09Z</time>
      </trkpt>
      <trkpt lat="39.714899" lon="-6.450958">
        <ele>228.871</ele>
        <time>2019-02-28T00:51:19Z</time>
      </trkpt>
      <trkpt lat="39.714899" lon="-6.450958">
        <ele>228.860</ele>
        <time>2019-02-28T00:51:21Z</time>
      </trkpt>
      <trkpt lat="39.714943" lon="-6.450870">
        <ele>228.664</ele>
        <time>2019-02-28T00:51:45Z</time>
      </trkpt>
      <trkpt lat="39.715284" lon="-6.450476">
        <ele>228.037</ele>
        <time>2019-02-28T00:51:56Z</time>
      </trkpt>
      <trkpt lat="39.716094" lon="-6.450071">
        <ele>227.226</ele>
        <time>2019-02-28T00:52:13Z</time>
      </trkpt>
      <trkpt lat="39.716885" lon="-6.449714">
        <ele>227.285</ele>
        <time>2019-02-28T00:52:29Z</time>
      </trkpt>
      <trkpt lat="39.717806" lon="-6.449291">
        <ele>226.498</ele>
        <time>2019-02-28T00:52:50Z</time>
      </trkpt>
      <trkpt lat="39.718528" lon="-6.448957">
        <ele>225.115</ele>
        <time>2019-02-28T00:53:07Z</time>
      </trkpt>
      <trkpt lat="39.718571" lon="-6.448932">
        <ele>225.026</ele>
        <time>2019-02-28T00:53:08Z</time>
      </trkpt>
      <trkpt lat="39.718616" lon="-6.448912">
        <ele>224.908</ele>
        <time>2019-02-28T00:53:09Z</time>
      </trkpt>
      <trkpt lat="39.719445" lon="-6.448536">
        <ele>224.992</ele>
        <time>2019-02-28T00:53:28Z</time>
      </trkpt>
      <trkpt lat="39.719710" lon="-6.448445">
        <ele>226.463</ele>
        <time>2019-02-28T00:53:34Z</time>
      </trkpt>
      <trkpt lat="39.720391" lon="-6.448602">
        <ele>231.394</ele>
        <time>2019-02-28T00:53:49Z</time>
      </trkpt>
      <trkpt lat="39.720918" lon="-6.448966">
        <ele>235.023</ele>
        <time>2019-02-28T00:54:06Z</time>
      </trkpt>
      <trkpt lat="39.721298" lon="-6.449078">
        <ele>237.267</ele>
        <time>2019-02-28T00:54:22Z</time>
      </trkpt>
      <trkpt lat="39.721737" lon="-6.448969">
        <ele>240.010</ele>
        <time>2019-02-28T00:54:41Z</time>
      </trkpt>
      <trkpt lat="39.722155" lon="-6.448778">
        <ele>242.229</ele>
        <time>2019-02-28T00:55:00Z</time>
      </trkpt>
      <trkpt lat="39.722417" lon="-6.448678">
        <ele>243.928</ele>
        <time>2019-02-28T00:55:13Z</time>
      </trkpt>
      <trkpt lat="39.722812" lon="-6.448500">
        <ele>246.228</ele>
        <time>2019-02-28T00:55:33Z</time>
      </trkpt>
      <trkpt lat="39.723339" lon="-6.448255">
        <ele>249.489</ele>
        <time>2019-02-28T00:55:56Z</time>
      </trkpt>
      <trkpt lat="39.723695" lon="-6.448101">
        <ele>251.617</ele>
        <time>2019-02-28T00:56:12Z</time>
      </trkpt>
      <trkpt lat="39.724190" lon="-6.447932">
        <ele>254.708</ele>
        <time>2019-02-28T00:56:35Z</time>
      </trkpt>
      <trkpt lat="39.724554" lon="-6.447989">
        <ele>256.715</ele>
        <time>2019-02-28T00:56:52Z</time>
      </trkpt>
      <trkpt lat="39.724857" lon="-6.448090">
        <ele>257.956</ele>
        <time>2019-02-28T00:57:05Z</time>
      </trkpt>
      <trkpt lat="39.725300" lon="-6.448235">
        <ele>259.977</ele>
        <time>2019-02-28T00:57:25Z</time>
      </trkpt>
      <trkpt lat="39.725765" lon="-6.448369">
        <ele>261.946</ele>
        <time>2019-02-28T00:57:45Z</time>
      </trkpt>
      <trkpt lat="39.726215" lon="-6.448506">
        <ele>264.130</ele>
        <time>2019-02-28T00:58:05Z</time>
      </trkpt>
      <trkpt lat="39.726626" lon="-6.448622">
        <ele>264.353</ele>
        <time>2019-02-28T00:58:20Z</time>
      </trkpt>
      <trkpt lat="39.727186" lon="-6.448782">
        <ele>263.662</ele>
        <time>2019-02-28T00:58:36Z</time>
      </trkpt>
      <trkpt lat="39.727388" lon="-6.448858">
        <ele>263.071</ele>
        <time>2019-02-28T00:58:44Z</time>
      </trkpt>
      <trkpt lat="39.727403" lon="-6.448892">
        <ele>262.914</ele>
        <time>2019-02-28T00:58:45Z</time>
      </trkpt>
      <trkpt lat="39.727487" lon="-6.449120">
        <ele>260.754</ele>
        <time>2019-02-28T00:58:57Z</time>
      </trkpt>
      <trkpt lat="39.727488" lon="-6.449118">
        <ele>260.609</ele>
        <time>2019-02-28T00:58:58Z</time>
      </trkpt>
      <trkpt lat="39.727561" lon="-6.449105">
        <ele>260.408</ele>
        <time>2019-02-28T01:00:19Z</time>
      </trkpt>
      <trkpt lat="39.727580" lon="-6.449106">
        <ele>260.324</ele>
        <time>2019-02-28T01:00:20Z</time>
      </trkpt>
      <trkpt lat="39.727599" lon="-6.449117">
        <ele>260.285</ele>
        <time>2019-02-28T01:00:21Z</time>
      </trkpt>
      <trkpt lat="39.727719" lon="-6.449227">
        <ele>259.816</ele>
        <time>2019-02-28T01:00:25Z</time>
      </trkpt>
      <trkpt lat="39.727747" lon="-6.449265">
        <ele>259.785</ele>
        <time>2019-02-28T01:00:26Z</time>
      </trkpt>
      <trkpt lat="39.727833" lon="-6.449418">
        <ele>259.729</ele>
        <time>2019-02-28T01:00:35Z</time>
      </trkpt>
      <trkpt lat="39.727812" lon="-6.449364">
        <ele>259.792</ele>
        <time>2019-02-28T01:00:58Z</time>
      </trkpt>
      <trkpt lat="39.727803" lon="-6.449341">
        <ele>259.741</ele>
        <time>2019-02-28T01:00:59Z</time>
      </trkpt>
      <trkpt lat="39.727787" lon="-6.449318">
        <ele>259.750</ele>
        <time>2019-02-28T01:01:00Z</time>
      </trkpt>
      <trkpt lat="39.727768" lon="-6.449294">
        <ele>259.736</ele>
        <time>2019-02-28T01:01:01Z</time>
      </trkpt>
      <trkpt lat="39.727679" lon="-6.449181">
        <ele>259.917</ele>
        <time>2019-02-28T01:01:10Z</time>
      </trkpt>
      <trkpt lat="39.727608" lon="-6.449063">
        <ele>260.418</ele>
        <time>2019-02-28T01:01:20Z</time>
      </trkpt>
      <trkpt lat="39.727686" lon="-6.448877">
        <ele>262.008</ele>
        <time>2019-02-28T01:01:35Z</time>
      </trkpt>
      <trkpt lat="39.727688" lon="-6.448877">
        <ele>262.016</ele>
        <time>2019-02-28T01:01:38Z</time>
      </trkpt>
      <trkpt lat="39.727755" lon="-6.448896">
        <ele>261.897</ele>
        <time>2019-02-28T01:01:48Z</time>
      </trkpt>
      <trkpt lat="39.727779" lon="-6.448901">
        <ele>261.778</ele>
        <time>2019-02-28T01:01:49Z</time>
      </trkpt>
      <trkpt lat="39.727799" lon="-6.448901">
        <ele>261.627</ele>
        <time>2019-02-28T01:01:50Z</time>
      </trkpt>
      <trkpt lat="39.727817" lon="-6.448889">
        <ele>261.371</ele>
        <time>2019-02-28T01:01:51Z</time>
      </trkpt>
      <trkpt lat="39.727834" lon="-6.448869">
        <ele>261.264</ele>
        <time>2019-02-28T01:01:52Z</time>
      </trkpt>
      <trkpt lat="39.727846" lon="-6.448843">
        <ele>261.263</ele>
        <time>2019-02-28T01:01:53Z</time>
      </trkpt>
      <trkpt lat="39.727850" lon="-6.448815">
        <ele>261.162</ele>
        <time>2019-02-28T01:01:54Z</time>
      </trkpt>
      <trkpt lat="39.727832" lon="-6.448725">
        <ele>261.291</ele>
        <time>2019-02-28T01:02:03Z</time>
      </trkpt>
      <trkpt lat="39.727787" lon="-6.448610">
        <ele>261.781</ele>
        <time>2019-02-28T01:02:17Z</time>
      </trkpt>
      <trkpt lat="39.727776" lon="-6.448605">
        <ele>261.719</ele>
        <time>2019-02-28T01:02:18Z</time>
      </trkpt>
      <trkpt lat="39.727766" lon="-6.448598">
        <ele>261.808</ele>
        <time>2019-02-28T01:02:19Z</time>
      </trkpt>
      <trkpt lat="39.727687" lon="-6.448566">
        <ele>262.322</ele>
        <time>2019-02-28T01:02:28Z</time>
      </trkpt>
      <trkpt lat="39.727674" lon="-6.448566">
        <ele>262.433</ele>
        <time>2019-02-28T01:02:29Z</time>
      </trkpt>
      <trkpt lat="39.727556" lon="-6.448614">
        <ele>263.264</ele>
        <time>2019-02-28T01:02:39Z</time>
      </trkpt>
      <trkpt lat="39.727483" lon="-6.448601">
        <ele>263.863</ele>
        <time>2019-02-28T01:02:49Z</time>
      </trkpt>
      <trkpt lat="39.727435" lon="-6.448572">
        <ele>264.397</ele>
        <time>2019-02-28T01:02:57Z</time>
      </trkpt>
      <trkpt lat="39.727420" lon="-6.448560">
        <ele>264.480</ele>
        <time>2019-02-28T01:02:58Z</time>
      </trkpt>
      <trkpt lat="39.727407" lon="-6.448548">
        <ele>264.589</ele>
        <time>2019-02-28T01:02:59Z</time>
      </trkpt>
      <trkpt lat="39.727393" lon="-6.448536">
        <ele>264.778</ele>
        <time>2019-02-28T01:03:00Z</time>
      </trkpt>
      <trkpt lat="39.727200" lon="-6.448395">
        <ele>266.369</ele>
        <time>2019-02-28T01:03:15Z</time>
      </trkpt>
      <trkpt lat="39.727007" lon="-6.448321">
        <ele>268.104</ele>
        <time>2019-02-28T01:03:30Z</time>
      </trkpt>
      <trkpt lat="39.726825" lon="-6.448236">
        <ele>270.024</ele>
        <time>2019-02-28T01:03:45Z</time>
      </trkpt>
      <trkpt lat="39.726683" lon="-6.448149">
        <ele>271.908</ele>
        <time>2019-02-28T01:03:58Z</time>
      </trkpt>
      <trkpt lat="39.726665" lon="-6.448148">
        <ele>272.249</ele>
        <time>2019-02-28T01:04:00Z</time>
      </trkpt>
      <trkpt lat="39.726635" lon="-6.448136">
        <ele>272.660</ele>
        <time>2019-02-28T01:04:06Z</time>
      </trkpt>
      <trkpt lat="39.726359" lon="-6.448023">
        <ele>276.121</ele>
        <time>2019-02-28T01:04:42Z</time>
      </trkpt>
      <trkpt lat="39.726279" lon="-6.447977">
        <ele>276.910</ele>
        <time>2019-02-28T01:04:54Z</time>
      </trkpt>
      <trkpt lat="39.726196" lon="-6.447987">
        <ele>277.524</ele>
        <time>2019-02-28T01:05:03Z</time>
      </trkpt>
      <trkpt lat="39.725885" lon="-6.447928">
        <ele>278.787</ele>
        <time>2019-02-28T01:05:14Z</time>
      </trkpt>
      <trkpt lat="39.725501" lon="-6.447911">
        <ele>277.646</ele>
        <time>2019-02-28T01:05:25Z</time>
      </trkpt>
      <trkpt lat="39.725248" lon="-6.447607">
        <ele>275.465</ele>
        <time>2019-02-28T01:05:37Z</time>
      </trkpt>
      <trkpt lat="39.725287" lon="-6.447348">
        <ele>277.862</ele>
        <time>2019-02-28T01:05:49Z</time>
      </trkpt>
      <trkpt lat="39.725370" lon="-6.447104">
        <ele>278.983</ele>
        <time>2019-02-28T01:06:04Z</time>
      </trkpt>
      <trkpt lat="39.725365" lon="-6.446816">
        <ele>280.111</ele>
        <time>2019-02-28T01:06:19Z</time>
      </trkpt>
      <trkpt lat="39.725361" lon="-6.446749">
        <ele>280.308</ele>
        <time>2019-02-28T01:06:22Z</time>
      </trkpt>
      <trkpt lat="39.725353" lon="-6.446729">
        <ele>280.379</ele>
        <time>2019-02-28T01:06:23Z</time>
      </trkpt>
      <trkpt lat="39.725348" lon="-6.446707">
        <ele>280.490</ele>
        <time>2019-02-28T01:06:24Z</time>
      </trkpt>
      <trkpt lat="39.725339" lon="-6.446682">
        <ele>280.541</ele>
        <time>2019-02-28T01:06:25Z</time>
      </trkpt>
      <trkpt lat="39.725328" lon="-6.446656">
        <ele>280.670</ele>
        <time>2019-02-28T01:06:26Z</time>
      </trkpt>
      <trkpt lat="39.725229" lon="-6.446599">
        <ele>281.384</ele>
        <time>2019-02-28T01:06:32Z</time>
      </trkpt>
      <trkpt lat="39.725060" lon="-6.446716">
        <ele>282.467</ele>
        <time>2019-02-28T01:06:44Z</time>
      </trkpt>
      <trkpt lat="39.725000" lon="-6.446700">
        <ele>282.786</ele>
        <time>2019-02-28T01:06:48Z</time>
      </trkpt>
      <trkpt lat="39.724987" lon="-6.446688">
        <ele>282.865</ele>
        <time>2019-02-28T01:06:49Z</time>
      </trkpt>
      <trkpt lat="39.724975" lon="-6.446677">
        <ele>282.876</ele>
        <time>2019-02-28T01:06:50Z</time>
      </trkpt>
      <trkpt lat="39.724967" lon="-6.446665">
        <ele>282.990</ele>
        <time>2019-02-28T01:06:51Z</time>
      </trkpt>
      <trkpt lat="39.724960" lon="-6.446653">
        <ele>282.919</ele>
        <time>2019-02-28T01:06:52Z</time>
      </trkpt>
      <trkpt lat="39.724954" lon="-6.446641">
        <ele>283.008</ele>
        <time>2019-02-28T01:06:53Z</time>
      </trkpt>
      <trkpt lat="39.724863" lon="-6.446475">
        <ele>283.720</ele>
        <time>2019-02-28T01:07:04Z</time>
      </trkpt>
      <trkpt lat="39.724851" lon="-6.446468">
        <ele>283.831</ele>
        <time>2019-02-28T01:07:05Z</time>
      </trkpt>
      <trkpt lat="39.724839" lon="-6.446458">
        <ele>283.932</ele>
        <time>2019-02-28T01:07:06Z</time>
      </trkpt>
      <trkpt lat="39.724823" lon="-6.446450">
        <ele>283.941</ele>
        <time>2019-02-28T01:07:07Z</time>
      </trkpt>
      <trkpt lat="39.724803" lon="-6.446443">
        <ele>284.025</ele>
        <time>2019-02-28T01:07:08Z</time>
      </trkpt>
      <trkpt lat="39.724782" lon="-6.446439">
        <ele>284.118</ele>
        <time>2019-02-28T01:07:09Z</time>
      </trkpt>
      <trkpt lat="39.724762" lon="-6.446435">
        <ele>284.297</ele>
        <time>2019-02-28T01:07:10Z</time>
      </trkpt>
      <trkpt lat="39.724547" lon="-6.446474">
        <ele>285.036</ele>
        <time>2019-02-28T01:07:24Z</time>
      </trkpt>
      <trkpt lat="39.724370" lon="-6.446262">
        <ele>286.145</ele>
        <time>2019-02-28T01:07:39Z</time>
      </trkpt>
      <trkpt lat="39.724390" lon="-6.445999">
        <ele>287.047</ele>
        <time>2019-02-28T01:07:51Z</time>
      </trkpt>
      <trkpt lat="39.724518" lon="-6.445677">
        <ele>288.411</ele>
        <time>2019-02-28T01:08:06Z</time>
      </trkpt>
      <trkpt lat="39.724711" lon="-6.445436">
        <ele>289.708</ele>
        <time>2019-02-28T01:08:23Z</time>
      </trkpt>
      <trkpt lat="39.724710" lon="-6.445416">
        <ele>289.887</ele>
        <time>2019-02-28T01:08:24Z</time>
      </trkpt>
      <trkpt lat="39.724703" lon="-6.445396">
        <ele>289.968</ele>
        <time>2019-02-28T01:08:25Z</time>
      </trkpt>
      <trkpt lat="39.724586" lon="-6.445146">
        <ele>291.229</ele>
        <time>2019-02-28T01:08:42Z</time>
      </trkpt>
      <trkpt lat="39.724538" lon="-6.445091">
        <ele>291.598</ele>
        <time>2019-02-28T01:09:07Z</time>
      </trkpt>
      <trkpt lat="39.724403" lon="-6.445024">
        <ele>292.622</ele>
        <time>2019-02-28T01:09:18Z</time>
      </trkpt>
      <trkpt lat="39.724391" lon="-6.445021">
        <ele>292.725</ele>
        <time>2019-02-28T01:09:19Z</time>
      </trkpt>
      <trkpt lat="39.724381" lon="-6.445014">
        <ele>292.814</ele>
        <time>2019-02-28T01:09:20Z</time>
      </trkpt>
      <trkpt lat="39.724370" lon="-6.445005">
        <ele>292.953</ele>
        <time>2019-02-28T01:09:21Z</time>
      </trkpt>
      <trkpt lat="39.724356" lon="-6.444998">
        <ele>293.023</ele>
        <time>2019-02-28T01:09:22Z</time>
      </trkpt>
      <trkpt lat="39.724343" lon="-6.444989">
        <ele>293.183</ele>
        <time>2019-02-28T01:09:23Z</time>
      </trkpt>
      <trkpt lat="39.724328" lon="-6.444981">
        <ele>293.211</ele>
        <time>2019-02-28T01:09:24Z</time>
      </trkpt>
      <trkpt lat="39.724314" lon="-6.444972">
        <ele>293.308</ele>
        <time>2019-02-28T01:09:25Z</time>
      </trkpt>
      <trkpt lat="39.724301" lon="-6.444961">
        <ele>293.485</ele>
        <time>2019-02-28T01:09:26Z</time>
      </trkpt>
      <trkpt lat="39.724289" lon="-6.444948">
        <ele>293.546</ele>
        <time>2019-02-28T01:09:27Z</time>
      </trkpt>
      <trkpt lat="39.724280" lon="-6.444933">
        <ele>293.597</ele>
        <time>2019-02-28T01:09:28Z</time>
      </trkpt>
      <trkpt lat="39.724275" lon="-6.444913">
        <ele>293.676</ele>
        <time>2019-02-28T01:09:29Z</time>
      </trkpt>
      <trkpt lat="39.724272" lon="-6.444894">
        <ele>293.720</ele>
        <time>2019-02-28T01:09:30Z</time>
      </trkpt>
      <trkpt lat="39.724272" lon="-6.444876">
        <ele>293.863</ele>
        <time>2019-02-28T01:09:31Z</time>
      </trkpt>
      <trkpt lat="39.724274" lon="-6.444855">
        <ele>293.922</ele>
        <time>2019-02-28T01:09:32Z</time>
      </trkpt>
      <trkpt lat="39.724278" lon="-6.444834">
        <ele>294.081</ele>
        <time>2019-02-28T01:09:33Z</time>
      </trkpt>
      <trkpt lat="39.724284" lon="-6.444812">
        <ele>294.145</ele>
        <time>2019-02-28T01:09:34Z</time>
      </trkpt>
      <trkpt lat="39.724293" lon="-6.444789">
        <ele>294.247</ele>
        <time>2019-02-28T01:09:35Z</time>
      </trkpt>
      <trkpt lat="39.724427" lon="-6.444569">
        <ele>295.711</ele>
        <time>2019-02-28T01:09:47Z</time>
      </trkpt>
      <trkpt lat="39.724465" lon="-6.444456">
        <ele>296.508</ele>
        <time>2019-02-28T01:09:53Z</time>
      </trkpt>
      <trkpt lat="39.724465" lon="-6.444437">
        <ele>296.647</ele>
        <time>2019-02-28T01:09:54Z</time>
      </trkpt>
      <trkpt lat="39.724464" lon="-6.444420">
        <ele>296.718</ele>
        <time>2019-02-28T01:09:55Z</time>
      </trkpt>
      <trkpt lat="39.724458" lon="-6.444401">
        <ele>296.899</ele>
        <time>2019-02-28T01:09:56Z</time>
      </trkpt>
      <trkpt lat="39.724450" lon="-6.444383">
        <ele>296.828</ele>
        <time>2019-02-28T01:09:57Z</time>
      </trkpt>
      <trkpt lat="39.724440" lon="-6.444366">
        <ele>296.962</ele>
        <time>2019-02-28T01:09:58Z</time>
      </trkpt>
      <trkpt lat="39.724428" lon="-6.444348">
        <ele>297.015</ele>
        <time>2019-02-28T01:09:59Z</time>
      </trkpt>
      <trkpt lat="39.724242" lon="-6.444302">
        <ele>298.024</ele>
        <time>2019-02-28T01:10:12Z</time>
      </trkpt>
      <trkpt lat="39.724032" lon="-6.444430">
        <ele>299.213</ele>
        <time>2019-02-28T01:10:26Z</time>
      </trkpt>
      <trkpt lat="39.723800" lon="-6.444573">
        <ele>300.798</ele>
        <time>2019-02-28T01:10:43Z</time>
      </trkpt>
      <trkpt lat="39.723523" lon="-6.444651">
        <ele>302.215</ele>
        <time>2019-02-28T01:11:01Z</time>
      </trkpt>
      <trkpt lat="39.723506" lon="-6.444644">
        <ele>302.226</ele>
        <time>2019-02-28T01:11:02Z</time>
      </trkpt>
      <trkpt lat="39.723491" lon="-6.444641">
        <ele>302.308</ele>
        <time>2019-02-28T01:11:03Z</time>
      </trkpt>
      <trkpt lat="39.723477" lon="-6.444634">
        <ele>302.492</ele>
        <time>2019-02-28T01:11:04Z</time>
      </trkpt>
      <trkpt lat="39.723464" lon="-6.444624">
        <ele>302.523</ele>
        <time>2019-02-28T01:11:05Z</time>
      </trkpt>
      <trkpt lat="39.723451" lon="-6.444615">
        <ele>302.574</ele>
        <time>2019-02-28T01:11:06Z</time>
      </trkpt>
      <trkpt lat="39.723323" lon="-6.444347">
        <ele>303.633</ele>
        <time>2019-02-28T01:11:20Z</time>
      </trkpt>
      <trkpt lat="39.723323" lon="-6.444329">
        <ele>303.657</ele>
        <time>2019-02-28T01:11:25Z</time>
      </trkpt>
      <trkpt lat="39.723354" lon="-6.444225">
        <ele>303.930</ele>
        <time>2019-02-28T01:12:00Z</time>
      </trkpt>
      <trkpt lat="39.723533" lon="-6.443935">
        <ele>304.519</ele>
        <time>2019-02-28T01:12:15Z</time>
      </trkpt>
      <trkpt lat="39.723880" lon="-6.443673">
        <ele>305.658</ele>
        <time>2019-02-28T01:12:34Z</time>
      </trkpt>
      <trkpt lat="39.724000" lon="-6.443446">
        <ele>306.543</ele>
        <time>2019-02-28T01:12:48Z</time>
      </trkpt>
      <trkpt lat="39.724004" lon="-6.443429">
        <ele>306.664</ele>
        <time>2019-02-28T01:12:49Z</time>
      </trkpt>
      <trkpt lat="39.724013" lon="-6.443414">
        <ele>306.710</ele>
        <time>2019-02-28T01:12:50Z</time>
      </trkpt>
      <trkpt lat="39.724020" lon="-6.443401">
        <ele>306.708</ele>
        <time>2019-02-28T01:12:51Z</time>
      </trkpt>
      <trkpt lat="39.724025" lon="-6.443387">
        <ele>306.817</ele>
        <time>2019-02-28T01:12:52Z</time>
      </trkpt>
      <trkpt lat="39.724027" lon="-6.443373">
        <ele>306.978</ele>
        <time>2019-02-28T01:12:53Z</time>
      </trkpt>
      <trkpt lat="39.724028" lon="-6.443359">
        <ele>307.099</ele>
        <time>2019-02-28T01:12:54Z</time>
      </trkpt>
      <trkpt lat="39.724030" lon="-6.443344">
        <ele>307.158</ele>
        <time>2019-02-28T01:12:55Z</time>
      </trkpt>
      <trkpt lat="39.724030" lon="-6.443328">
        <ele>307.242</ele>
        <time>2019-02-28T01:12:56Z</time>
      </trkpt>
      <trkpt lat="39.724095" lon="-6.443113">
        <ele>308.685</ele>
        <time>2019-02-28T01:13:10Z</time>
      </trkpt>
      <trkpt lat="39.724103" lon="-6.443102">
        <ele>308.784</ele>
        <time>2019-02-28T01:13:11Z</time>
      </trkpt>
      <trkpt lat="39.724112" lon="-6.443090">
        <ele>308.853</ele>
        <time>2019-02-28T01:13:12Z</time>
      </trkpt>
      <trkpt lat="39.724120" lon="-6.443077">
        <ele>308.853</ele>
        <time>2019-02-28T01:13:13Z</time>
      </trkpt>
      <trkpt lat="39.724126" lon="-6.443062">
        <ele>308.904</ele>
        <time>2019-02-28T01:13:14Z</time>
      </trkpt>
      <trkpt lat="39.724130" lon="-6.443044">
        <ele>308.914</ele>
        <time>2019-02-28T01:13:15Z</time>
      </trkpt>
      <trkpt lat="39.724128" lon="-6.442768">
        <ele>309.908</ele>
        <time>2019-02-28T01:13:29Z</time>
      </trkpt>
      <trkpt lat="39.724162" lon="-6.442476">
        <ele>310.658</ele>
        <time>2019-02-28T01:13:42Z</time>
      </trkpt>
      <trkpt lat="39.724456" lon="-6.442504">
        <ele>311.039</ele>
        <time>2019-02-28T01:13:55Z</time>
      </trkpt>
      <trkpt lat="39.724804" lon="-6.442505">
        <ele>311.540</ele>
        <time>2019-02-28T01:14:08Z</time>
      </trkpt>
      <trkpt lat="39.725155" lon="-6.442224">
        <ele>312.829</ele>
        <time>2019-02-28T01:14:24Z</time>
      </trkpt>
      <trkpt lat="39.725443" lon="-6.441865">
        <ele>314.313</ele>
        <time>2019-02-28T01:14:42Z</time>
      </trkpt>
      <trkpt lat="39.725554" lon="-6.441607">
        <ele>315.756</ele>
        <time>2019-02-28T01:14:57Z</time>
      </trkpt>
      <trkpt lat="39.725610" lon="-6.441361">
        <ele>316.785</ele>
        <time>2019-02-28T01:15:13Z</time>
      </trkpt>
      <trkpt lat="39.725639" lon="-6.441162">
        <ele>317.854</ele>
        <time>2019-02-28T01:15:27Z</time>
      </trkpt>
      <trkpt lat="39.725639" lon="-6.441162">
        <ele>317.865</ele>
        <time>2019-02-28T01:15:28Z</time>
      </trkpt>
      <trkpt lat="39.725651" lon="-6.441092">
        <ele>318.168</ele>
        <time>2019-02-28T01:15:43Z</time>
      </trkpt>
      <trkpt lat="39.725713" lon="-6.440838">
        <ele>319.414</ele>
        <time>2019-02-28T01:15:58Z</time>
      </trkpt>
      <trkpt lat="39.725719" lon="-6.440818">
        <ele>319.508</ele>
        <time>2019-02-28T01:16:03Z</time>
      </trkpt>
      <trkpt lat="39.725780" lon="-6.440461">
        <ele>321.429</ele>
        <time>2019-02-28T01:16:38Z</time>
      </trkpt>
      <trkpt lat="39.725842" lon="-6.440164">
        <ele>323.020</ele>
        <time>2019-02-28T01:16:59Z</time>
      </trkpt>
      <trkpt lat="39.725859" lon="-6.440139">
        <ele>323.271</ele>
        <time>2019-02-28T01:17:02Z</time>
      </trkpt>
      <trkpt lat="39.725865" lon="-6.440127">
        <ele>323.210</ele>
        <time>2019-02-28T01:17:03Z</time>
      </trkpt>
      <trkpt lat="39.725896" lon="-6.439976">
        <ele>323.754</ele>
        <time>2019-02-28T01:17:15Z</time>
      </trkpt>
      <trkpt lat="39.725895" lon="-6.439945">
        <ele>323.727</ele>
        <time>2019-02-28T01:17:17Z</time>
      </trkpt>
      <trkpt lat="39.725899" lon="-6.439925">
        <ele>323.836</ele>
        <time>2019-02-28T01:17:18Z</time>
      </trkpt>
      <trkpt lat="39.726084" lon="-6.439492">
        <ele>323.995</ele>
        <time>2019-02-28T01:17:34Z</time>
      </trkpt>
      <trkpt lat="39.726340" lon="-6.439194">
        <ele>323.281</ele>
        <time>2019-02-28T01:17:47Z</time>
      </trkpt>
      <trkpt lat="39.726671" lon="-6.438860">
        <ele>322.761</ele>
        <time>2019-02-28T01:18:01Z</time>
      </trkpt>
      <trkpt lat="39.727034" lon="-6.438556">
        <ele>322.917</ele>
        <time>2019-02-28T01:18:16Z</time>
      </trkpt>
      <trkpt lat="39.727412" lon="-6.438294">
        <ele>322.908</ele>
        <time>2019-02-28T01:18:29Z</time>
      </trkpt>
      <trkpt lat="39.727789" lon="-6.438041">
        <ele>323.021</ele>
        <time>2019-02-28T01:18:42Z</time>
      </trkpt>
      <trkpt lat="39.728045" lon="-6.437704">
        <ele>323.562</ele>
        <time>2019-02-28T01:18:57Z</time>
      </trkpt>
      <trkpt lat="39.728244" lon="-6.437345">
        <ele>324.283</ele>
        <time>2019-02-28T01:19:10Z</time>
      </trkpt>
      <trkpt lat="39.728400" lon="-6.437062">
        <ele>325.032</ele>
        <time>2019-02-28T01:19:21Z</time>
      </trkpt>
      <trkpt lat="39.728562" lon="-6.436773">
        <ele>325.826</ele>
        <time>2019-02-28T01:19:39Z</time>
      </trkpt>
      <trkpt lat="39.728689" lon="-6.436584">
        <ele>326.629</ele>
        <time>2019-02-28T01:19:53Z</time>
      </trkpt>
      <trkpt lat="39.728805" lon="-6.436405">
        <ele>327.468</ele>
        <time>2019-02-28T01:20:07Z</time>
      </trkpt>
      <trkpt lat="39.728979" lon="-6.436175">
        <ele>328.477</ele>
        <time>2019-02-28T01:20:22Z</time>
      </trkpt>
      <trkpt lat="39.729215" lon="-6.435902">
        <ele>329.311</ele>
        <time>2019-02-28T01:20:35Z</time>
      </trkpt>
      <trkpt lat="39.729500" lon="-6.435503">
        <ele>329.621</ele>
        <time>2019-02-28T01:20:50Z</time>
      </trkpt>
      <trkpt lat="39.729839" lon="-6.435182">
        <ele>329.003</ele>
        <time>2019-02-28T01:21:01Z</time>
      </trkpt>
      <trkpt lat="39.730142" lon="-6.434858">
        <ele>329.008</ele>
        <time>2019-02-28T01:21:13Z</time>
      </trkpt>
      <trkpt lat="39.730635" lon="-6.434508">
        <ele>330.234</ele>
        <time>2019-02-28T01:21:31Z</time>
      </trkpt>
      <trkpt lat="39.730858" lon="-6.434233">
        <ele>331.075</ele>
        <time>2019-02-28T01:21:42Z</time>
      </trkpt>
      <trkpt lat="39.731133" lon="-6.433954">
        <ele>331.576</ele>
        <time>2019-02-28T01:21:55Z</time>
      </trkpt>
      <trkpt lat="39.731454" lon="-6.433612">
        <ele>331.925</ele>
        <time>2019-02-28T01:22:08Z</time>
      </trkpt>
      <trkpt lat="39.731736" lon="-6.433303">
        <ele>331.919</ele>
        <time>2019-02-28T01:22:21Z</time>
      </trkpt>
      <trkpt lat="39.731936" lon="-6.433092">
        <ele>331.852</ele>
        <time>2019-02-28T01:22:31Z</time>
      </trkpt>
      <trkpt lat="39.732273" lon="-6.432903">
        <ele>331.351</ele>
        <time>2019-02-28T01:22:43Z</time>
      </trkpt>
      <trkpt lat="39.732579" lon="-6.432712">
        <ele>330.720</ele>
        <time>2019-02-28T01:22:53Z</time>
      </trkpt>
      <trkpt lat="39.732710" lon="-6.432650">
        <ele>330.119</ele>
        <time>2019-02-28T01:22:59Z</time>
      </trkpt>
      <trkpt lat="39.732738" lon="-6.432647">
        <ele>329.909</ele>
        <time>2019-02-28T01:23:01Z</time>
      </trkpt>
      <trkpt lat="39.733028" lon="-6.432306">
        <ele>328.419</ele>
        <time>2019-02-28T01:23:11Z</time>
      </trkpt>
      <trkpt lat="39.733077" lon="-6.432234">
        <ele>328.208</ele>
        <time>2019-02-28T01:23:18Z</time>
      </trkpt>
      <trkpt lat="39.733112" lon="-6.432200">
        <ele>328.134</ele>
        <time>2019-02-28T01:25:13Z</time>
      </trkpt>
      <trkpt lat="39.733331" lon="-6.431888">
        <ele>327.965</ele>
        <time>2019-02-28T01:25:26Z</time>
      </trkpt>
      <trkpt lat="39.733651" lon="-6.431536">
        <ele>328.166</ele>
        <time>2019-02-28T01:25:39Z</time>
      </trkpt>
      <trkpt lat="39.733674" lon="-6.431514">
        <ele>328.165</ele>
        <time>2019-02-28T01:25:40Z</time>
      </trkpt>
      <trkpt lat="39.733689" lon="-6.431481">
        <ele>328.199</ele>
        <time>2019-02-28T01:25:41Z</time>
      </trkpt>
      <trkpt lat="39.733702" lon="-6.431447">
        <ele>328.152</ele>
        <time>2019-02-28T01:25:42Z</time>
      </trkpt>
      <trkpt lat="39.733719" lon="-6.431413">
        <ele>328.141</ele>
        <time>2019-02-28T01:25:43Z</time>
      </trkpt>
      <trkpt lat="39.733739" lon="-6.431383">
        <ele>328.190</ele>
        <time>2019-02-28T01:25:44Z</time>
      </trkpt>
      <trkpt lat="39.733762" lon="-6.431358">
        <ele>328.167</ele>
        <time>2019-02-28T01:25:45Z</time>
      </trkpt>
      <trkpt lat="39.733785" lon="-6.431334">
        <ele>328.181</ele>
        <time>2019-02-28T01:25:46Z</time>
      </trkpt>
      <trkpt lat="39.734040" lon="-6.430888">
        <ele>328.719</ele>
        <time>2019-02-28T01:26:01Z</time>
      </trkpt>
      <trkpt lat="39.734240" lon="-6.430423">
        <ele>329.908</ele>
        <time>2019-02-28T01:26:18Z</time>
      </trkpt>
      <trkpt lat="39.734418" lon="-6.430017">
        <ele>331.129</ele>
        <time>2019-02-28T01:26:31Z</time>
      </trkpt>
      <trkpt lat="39.734591" lon="-6.429806">
        <ele>331.360</ele>
        <time>2019-02-28T01:26:43Z</time>
      </trkpt>
      <trkpt lat="39.734783" lon="-6.429565">
        <ele>330.461</ele>
        <time>2019-02-28T01:26:54Z</time>
      </trkpt>
      <trkpt lat="39.734945" lon="-6.429413">
        <ele>329.870</ele>
        <time>2019-02-28T01:27:01Z</time>
      </trkpt>
      <trkpt lat="39.734974" lon="-6.429405">
        <ele>329.744</ele>
        <time>2019-02-28T01:27:02Z</time>
      </trkpt>
      <trkpt lat="39.735004" lon="-6.429393">
        <ele>329.587</ele>
        <time>2019-02-28T01:27:03Z</time>
      </trkpt>
      <trkpt lat="39.735384" lon="-6.429220">
        <ele>328.656</ele>
        <time>2019-02-28T01:27:15Z</time>
      </trkpt>
      <trkpt lat="39.735527" lon="-6.429086">
        <ele>328.295</ele>
        <time>2019-02-28T01:27:26Z</time>
      </trkpt>
      <trkpt lat="39.735541" lon="-6.428773">
        <ele>327.827</ele>
        <time>2019-02-28T01:27:37Z</time>
      </trkpt>
      <trkpt lat="39.735464" lon="-6.428297">
        <ele>327.768</ele>
        <time>2019-02-28T01:27:51Z</time>
      </trkpt>
      <trkpt lat="39.735452" lon="-6.428112">
        <ele>327.914</ele>
        <time>2019-02-28T01:27:58Z</time>
      </trkpt>
      <trkpt lat="39.735427" lon="-6.428029">
        <ele>328.008</ele>
        <time>2019-02-28T01:28:01Z</time>
      </trkpt>
      <trkpt lat="39.735525" lon="-6.427555">
        <ele>328.695</ele>
        <time>2019-02-28T01:28:14Z</time>
      </trkpt>
      <trkpt lat="39.735756" lon="-6.427071">
        <ele>329.686</ele>
        <time>2019-02-28T01:28:31Z</time>
      </trkpt>
      <trkpt lat="39.736064" lon="-6.426855">
        <ele>329.627</ele>
        <time>2019-02-28T01:28:44Z</time>
      </trkpt>
      <trkpt lat="39.736235" lon="-6.426501">
        <ele>329.166</ele>
        <time>2019-02-28T01:28:55Z</time>
      </trkpt>
      <trkpt lat="39.736349" lon="-6.425948">
        <ele>328.930</ele>
        <time>2019-02-28T01:29:08Z</time>
      </trkpt>
      <trkpt lat="39.736504" lon="-6.425490">
        <ele>328.873</ele>
        <time>2019-02-28T01:29:20Z</time>
      </trkpt>
      <trkpt lat="39.736745" lon="-6.425237">
        <ele>327.162</ele>
        <time>2019-02-28T01:29:31Z</time>
      </trkpt>
      <trkpt lat="39.736974" lon="-6.425110">
        <ele>325.891</ele>
        <time>2019-02-28T01:29:42Z</time>
      </trkpt>
      <trkpt lat="39.737161" lon="-6.424988">
        <ele>325.341</ele>
        <time>2019-02-28T01:29:47Z</time>
      </trkpt>
      <trkpt lat="39.737198" lon="-6.424974">
        <ele>325.381</ele>
        <time>2019-02-28T01:29:48Z</time>
      </trkpt>
      <trkpt lat="39.737458" lon="-6.424783">
        <ele>325.209</ele>
        <time>2019-02-28T01:29:59Z</time>
      </trkpt>
      <trkpt lat="39.737771" lon="-6.424323">
        <ele>325.308</ele>
        <time>2019-02-28T01:30:13Z</time>
      </trkpt>
      <trkpt lat="39.737863" lon="-6.424059">
        <ele>325.977</ele>
        <time>2019-02-28T01:30:26Z</time>
      </trkpt>
      <trkpt lat="39.738006" lon="-6.423793">
        <ele>326.868</ele>
        <time>2019-02-28T01:30:40Z</time>
      </trkpt>
      <trkpt lat="39.738158" lon="-6.423611">
        <ele>327.249</ele>
        <time>2019-02-28T01:30:53Z</time>
      </trkpt>
      <trkpt lat="39.738382" lon="-6.423310">
        <ele>327.838</ele>
        <time>2019-02-28T01:31:10Z</time>
      </trkpt>
      <trkpt lat="39.738619" lon="-6.422939">
        <ele>328.912</ele>
        <time>2019-02-28T01:31:27Z</time>
      </trkpt>
      <trkpt lat="39.738877" lon="-6.422630">
        <ele>329.265</ele>
        <time>2019-02-28T01:31:42Z</time>
      </trkpt>
      <trkpt lat="39.739135" lon="-6.422275">
        <ele>329.874</ele>
        <time>2019-02-28T01:31:57Z</time>
      </trkpt>
      <trkpt lat="39.739389" lon="-6.421988">
        <ele>331.023</ele>
        <time>2019-02-28T01:32:15Z</time>
      </trkpt>
      <trkpt lat="39.739570" lon="-6.421816">
        <ele>331.769</ele>
        <time>2019-02-28T01:32:30Z</time>
      </trkpt>
      <trkpt lat="39.739751" lon="-6.421623">
        <ele>333.104</ele>
        <time>2019-02-28T01:32:46Z</time>
      </trkpt>
      <trkpt lat="39.739905" lon="-6.421434">
        <ele>334.124</ele>
        <time>2019-02-28T01:33:02Z</time>
      </trkpt>
      <trkpt lat="39.739987" lon="-6.421336">
        <ele>334.908</ele>
        <time>2019-02-28T01:33:11Z</time>
      </trkpt>
      <trkpt lat="39.739997" lon="-6.421325">
        <ele>335.019</ele>
        <time>2019-02-28T01:33:12Z</time>
      </trkpt>
      <trkpt lat="39.740156" lon="-6.421186">
        <ele>335.930</ele>
        <time>2019-02-28T01:33:28Z</time>
      </trkpt>
      <trkpt lat="39.740353" lon="-6.420988">
        <ele>337.241</ele>
        <time>2019-02-28T01:33:45Z</time>
      </trkpt>
      <trkpt lat="39.740577" lon="-6.420781">
        <ele>338.030</ele>
        <time>2019-02-28T01:34:00Z</time>
      </trkpt>
      <trkpt lat="39.740848" lon="-6.420568">
        <ele>338.994</ele>
        <time>2019-02-28T01:34:13Z</time>
      </trkpt>
      <trkpt lat="39.741133" lon="-6.420412">
        <ele>339.647</ele>
        <time>2019-02-28T01:34:26Z</time>
      </trkpt>
      <trkpt lat="39.741388" lon="-6.420273">
        <ele>339.746</ele>
        <time>2019-02-28T01:34:37Z</time>
      </trkpt>
      <trkpt lat="39.741706" lon="-6.420078">
        <ele>339.725</ele>
        <time>2019-02-28T01:34:46Z</time>
      </trkpt>
      <trkpt lat="39.741746" lon="-6.420065">
        <ele>339.765</ele>
        <time>2019-02-28T01:34:47Z</time>
      </trkpt>
      <trkpt lat="39.742087" lon="-6.419868">
        <ele>339.768</ele>
        <time>2019-02-28T01:34:59Z</time>
      </trkpt>
      <trkpt lat="39.742624" lon="-6.419573">
        <ele>338.914</ele>
        <time>2019-02-28T01:35:15Z</time>
      </trkpt>
      <trkpt lat="39.742948" lon="-6.419381">
        <ele>337.808</ele>
        <time>2019-02-28T01:35:26Z</time>
      </trkpt>
      <trkpt lat="39.743323" lon="-6.419219">
        <ele>337.699</ele>
        <time>2019-02-28T01:35:38Z</time>
      </trkpt>
      <trkpt lat="39.743640" lon="-6.419019">
        <ele>337.590</ele>
        <time>2019-02-28T01:35:50Z</time>
      </trkpt>
      <trkpt lat="39.743953" lon="-6.418875">
        <ele>337.541</ele>
        <time>2019-02-28T01:36:02Z</time>
      </trkpt>
      <trkpt lat="39.744296" lon="-6.418676">
        <ele>337.570</ele>
        <time>2019-02-28T01:36:15Z</time>
      </trkpt>
      <trkpt lat="39.744376" lon="-6.418630">
        <ele>337.564</ele>
        <time>2019-02-28T01:36:18Z</time>
      </trkpt>
      <trkpt lat="39.744392" lon="-6.418613">
        <ele>337.537</ele>
        <time>2019-02-28T01:36:19Z</time>
      </trkpt>
      <trkpt lat="39.744413" lon="-6.418599">
        <ele>337.586</ele>
        <time>2019-02-28T01:36:20Z</time>
      </trkpt>
      <trkpt lat="39.744810" lon="-6.418354">
        <ele>337.555</ele>
        <time>2019-02-28T01:36:35Z</time>
      </trkpt>
      <trkpt lat="39.745093" lon="-6.418214">
        <ele>337.515</ele>
        <time>2019-02-28T01:36:47Z</time>
      </trkpt>
      <trkpt lat="39.745374" lon="-6.418010">
        <ele>337.565</ele>
        <time>2019-02-28T01:37:00Z</time>
      </trkpt>
      <trkpt lat="39.745542" lon="-6.417667">
        <ele>337.511</ele>
        <time>2019-02-28T01:37:13Z</time>
      </trkpt>
      <trkpt lat="39.745807" lon="-6.417085">
        <ele>337.808</ele>
        <time>2019-02-28T01:37:33Z</time>
      </trkpt>
      <trkpt lat="39.746045" lon="-6.416307">
        <ele>339.224</ele>
        <time>2019-02-28T01:37:52Z</time>
      </trkpt>
      <trkpt lat="39.746113" lon="-6.415973">
        <ele>339.245</ele>
        <time>2019-02-28T01:38:01Z</time>
      </trkpt>
      <trkpt lat="39.746308" lon="-6.415580">
        <ele>337.976</ele>
        <time>2019-02-28T01:38:12Z</time>
      </trkpt>
      <trkpt lat="39.746362" lon="-6.415432">
        <ele>337.555</ele>
        <time>2019-02-28T01:38:15Z</time>
      </trkpt>
      <trkpt lat="39.746504" lon="-6.415139">
        <ele>337.379</ele>
        <time>2019-02-28T01:38:21Z</time>
      </trkpt>
      <trkpt lat="39.746613" lon="-6.414445">
        <ele>337.262</ele>
        <time>2019-02-28T01:38:36Z</time>
      </trkpt>
      <trkpt lat="39.746559" lon="-6.413911">
        <ele>337.211</ele>
        <time>2019-02-28T01:38:49Z</time>
      </trkpt>
      <trkpt lat="39.746570" lon="-6.413564">
        <ele>337.290</ele>
        <time>2019-02-28T01:38:56Z</time>
      </trkpt>
      <trkpt lat="39.746581" lon="-6.413515">
        <ele>337.242</ele>
        <time>2019-02-28T01:38:57Z</time>
      </trkpt>
      <trkpt lat="39.746862" lon="-6.412907">
        <ele>337.222</ele>
        <time>2019-02-28T01:39:12Z</time>
      </trkpt>
      <trkpt lat="39.747263" lon="-6.412425">
        <ele>337.414</ele>
        <time>2019-02-28T01:39:29Z</time>
      </trkpt>
      <trkpt lat="39.747583" lon="-6.412028">
        <ele>338.508</ele>
        <time>2019-02-28T01:39:46Z</time>
      </trkpt>
      <trkpt lat="39.747713" lon="-6.411770">
        <ele>339.087</ele>
        <time>2019-02-28T01:39:57Z</time>
      </trkpt>
      <trkpt lat="39.748068" lon="-6.411245">
        <ele>339.328</ele>
        <time>2019-02-28T01:40:13Z</time>
      </trkpt>
      <trkpt lat="39.748437" lon="-6.410689">
        <ele>339.959</ele>
        <time>2019-02-28T01:40:30Z</time>
      </trkpt>
      <trkpt lat="39.748782" lon="-6.410189">
        <ele>341.058</ele>
        <time>2019-02-28T01:40:47Z</time>
      </trkpt>
      <trkpt lat="39.749087" lon="-6.409744">
        <ele>341.372</ele>
        <time>2019-02-28T01:41:03Z</time>
      </trkpt>
      <trkpt lat="39.749300" lon="-6.409434">
        <ele>341.665</ele>
        <time>2019-02-28T01:41:16Z</time>
      </trkpt>
      <trkpt lat="39.749572" lon="-6.409050">
        <ele>342.864</ele>
        <time>2019-02-28T01:41:30Z</time>
      </trkpt>
      <trkpt lat="39.749876" lon="-6.408580">
        <ele>343.663</ele>
        <time>2019-02-28T01:41:48Z</time>
      </trkpt>
      <trkpt lat="39.750164" lon="-6.408132">
        <ele>344.995</ele>
        <time>2019-02-28T01:42:07Z</time>
      </trkpt>
      <trkpt lat="39.750430" lon="-6.407708">
        <ele>345.549</ele>
        <time>2019-02-28T01:42:25Z</time>
      </trkpt>
      <trkpt lat="39.750678" lon="-6.407326">
        <ele>346.723</ele>
        <time>2019-02-28T01:42:41Z</time>
      </trkpt>
      <trkpt lat="39.750902" lon="-6.406979">
        <ele>347.308</ele>
        <time>2019-02-28T01:42:54Z</time>
      </trkpt>
      <trkpt lat="39.751082" lon="-6.406627">
        <ele>347.472</ele>
        <time>2019-02-28T01:43:07Z</time>
      </trkpt>
      <trkpt lat="39.751380" lon="-6.406229">
        <ele>347.183</ele>
        <time>2019-02-28T01:43:19Z</time>
      </trkpt>
      <trkpt lat="39.751586" lon="-6.405991">
        <ele>347.074</ele>
        <time>2019-02-28T01:43:26Z</time>
      </trkpt>
      <trkpt lat="39.751607" lon="-6.405946">
        <ele>346.923</ele>
        <time>2019-02-28T01:43:27Z</time>
      </trkpt>
      <trkpt lat="39.751634" lon="-6.405907">
        <ele>346.817</ele>
        <time>2019-02-28T01:43:28Z</time>
      </trkpt>
      <trkpt lat="39.751692" lon="-6.405832">
        <ele>346.770</ele>
        <time>2019-02-28T01:43:30Z</time>
      </trkpt>
      <trkpt lat="39.751728" lon="-6.405797">
        <ele>346.619</ele>
        <time>2019-02-28T01:43:31Z</time>
      </trkpt>
      <trkpt lat="39.751763" lon="-6.405766">
        <ele>346.588</ele>
        <time>2019-02-28T01:43:32Z</time>
      </trkpt>
      <trkpt lat="39.751907" lon="-6.405655">
        <ele>345.914</ele>
        <time>2019-02-28T01:43:36Z</time>
      </trkpt>
      <trkpt lat="39.752232" lon="-6.405222">
        <ele>344.954</ele>
        <time>2019-02-28T01:43:50Z</time>
      </trkpt>
      <trkpt lat="39.752347" lon="-6.404759">
        <ele>344.909</ele>
        <time>2019-02-28T01:44:01Z</time>
      </trkpt>
      <trkpt lat="39.752351" lon="-6.404595">
        <ele>345.008</ele>
        <time>2019-02-28T01:44:04Z</time>
      </trkpt>
      <trkpt lat="39.752380" lon="-6.404029">
        <ele>345.254</ele>
        <time>2019-02-28T01:44:17Z</time>
      </trkpt>
      <trkpt lat="39.752421" lon="-6.403882">
        <ele>345.295</ele>
        <time>2019-02-28T01:44:20Z</time>
      </trkpt>
      <trkpt lat="39.752433" lon="-6.403824">
        <ele>345.236</ele>
        <time>2019-02-28T01:44:21Z</time>
      </trkpt>
      <trkpt lat="39.752470" lon="-6.403597">
        <ele>345.225</ele>
        <time>2019-02-28T01:44:25Z</time>
      </trkpt>
      <trkpt lat="39.752745" lon="-6.403147">
        <ele>345.359</ele>
        <time>2019-02-28T01:44:37Z</time>
      </trkpt>
      <trkpt lat="39.753031" lon="-6.402841">
        <ele>345.382</ele>
        <time>2019-02-28T01:44:52Z</time>
      </trkpt>
      <trkpt lat="39.753370" lon="-6.402595">
        <ele>345.311</ele>
        <time>2019-02-28T01:45:03Z</time>
      </trkpt>
      <trkpt lat="39.753838" lon="-6.402500">
        <ele>345.320</ele>
        <time>2019-02-28T01:45:18Z</time>
      </trkpt>
      <trkpt lat="39.754321" lon="-6.402570">
        <ele>345.381</ele>
        <time>2019-02-28T01:45:32Z</time>
      </trkpt>
      <trkpt lat="39.754735" lon="-6.402605">
        <ele>345.361</ele>
        <time>2019-02-28T01:45:44Z</time>
      </trkpt>
      <trkpt lat="39.755129" lon="-6.402713">
        <ele>345.417</ele>
        <time>2019-02-28T01:45:57Z</time>
      </trkpt>
      <trkpt lat="39.755378" lon="-6.402897">
        <ele>345.408</ele>
        <time>2019-02-28T01:46:10Z</time>
      </trkpt>
      <trkpt lat="39.755771" lon="-6.403036">
        <ele>345.361</ele>
        <time>2019-02-28T01:46:23Z</time>
      </trkpt>
      <trkpt lat="39.756197" lon="-6.403203">
        <ele>344.882</ele>
        <time>2019-02-28T01:46:32Z</time>
      </trkpt>
      <trkpt lat="39.756394" lon="-6.403297">
        <ele>344.183</ele>
        <time>2019-02-28T01:46:38Z</time>
      </trkpt>
      <trkpt lat="39.756521" lon="-6.403339">
        <ele>343.642</ele>
        <time>2019-02-28T01:46:49Z</time>
      </trkpt>
      <trkpt lat="39.756524" lon="-6.403337">
        <ele>343.686</ele>
        <time>2019-02-28T01:46:50Z</time>
      </trkpt>
      <trkpt lat="39.756589" lon="-6.403309">
        <ele>343.929</ele>
        <time>2019-02-28T01:47:01Z</time>
      </trkpt>
      <trkpt lat="39.756645" lon="-6.403310">
        <ele>344.338</ele>
        <time>2019-02-28T01:47:06Z</time>
      </trkpt>
      <trkpt lat="39.756832" lon="-6.403470">
        <ele>345.577</ele>
        <time>2019-02-28T01:47:25Z</time>
      </trkpt>
      <trkpt lat="39.756872" lon="-6.403500">
        <ele>345.864</ele>
        <time>2019-02-28T01:47:33Z</time>
      </trkpt>
      <trkpt lat="39.756980" lon="-6.403555">
        <ele>346.406</ele>
        <time>2019-02-28T01:48:06Z</time>
      </trkpt>
      <trkpt lat="39.757362" lon="-6.403603">
        <ele>346.916</ele>
        <time>2019-02-28T01:48:17Z</time>
      </trkpt>
      <trkpt lat="39.757476" lon="-6.403564">
        <ele>346.808</ele>
        <time>2019-02-28T01:48:20Z</time>
      </trkpt>
      <trkpt lat="39.757520" lon="-6.403536">
        <ele>346.769</ele>
        <time>2019-02-28T01:48:21Z</time>
      </trkpt>
      <trkpt lat="39.757613" lon="-6.403473">
        <ele>346.630</ele>
        <time>2019-02-28T01:48:23Z</time>
      </trkpt>
      <trkpt lat="39.757659" lon="-6.403452">
        <ele>346.591</ele>
        <time>2019-02-28T01:48:24Z</time>
      </trkpt>
      <trkpt lat="39.757701" lon="-6.403441">
        <ele>346.390</ele>
        <time>2019-02-28T01:48:25Z</time>
      </trkpt>
      <trkpt lat="39.757738" lon="-6.403447">
        <ele>346.144</ele>
        <time>2019-02-28T01:48:26Z</time>
      </trkpt>
      <trkpt lat="39.757771" lon="-6.403462">
        <ele>346.057</ele>
        <time>2019-02-28T01:48:27Z</time>
      </trkpt>
      <trkpt lat="39.757804" lon="-6.403479">
        <ele>345.856</ele>
        <time>2019-02-28T01:48:28Z</time>
      </trkpt>
      <trkpt lat="39.758171" lon="-6.403766">
        <ele>345.045</ele>
        <time>2019-02-28T01:48:41Z</time>
      </trkpt>
      <trkpt lat="39.758346" lon="-6.403975">
        <ele>345.052</ele>
        <time>2019-02-28T01:48:51Z</time>
      </trkpt>
      <trkpt lat="39.758363" lon="-6.403987">
        <ele>345.053</ele>
        <time>2019-02-28T01:48:52Z</time>
      </trkpt>
      <trkpt lat="39.758381" lon="-6.403998">
        <ele>345.108</ele>
        <time>2019-02-28T01:48:53Z</time>
      </trkpt>
      <trkpt lat="39.758739" lon="-6.404196">
        <ele>346.608</ele>
        <time>2019-02-28T01:49:11Z</time>
      </trkpt>
      <trkpt lat="39.759180" lon="-6.404266">
        <ele>346.788</ele>
        <time>2019-02-28T01:49:24Z</time>
      </trkpt>
      <trkpt lat="39.759559" lon="-6.404342">
        <ele>347.199</ele>
        <time>2019-02-28T01:49:37Z</time>
      </trkpt>
      <trkpt lat="39.759816" lon="-6.404270">
        <ele>348.220</ele>
        <time>2019-02-28T01:49:51Z</time>
      </trkpt>
      <trkpt lat="39.759836" lon="-6.404271">
        <ele>348.399</ele>
        <time>2019-02-28T01:49:52Z</time>
      </trkpt>
      <trkpt lat="39.759850" lon="-6.404264">
        <ele>348.473</ele>
        <time>2019-02-28T01:49:53Z</time>
      </trkpt>
      <trkpt lat="39.759864" lon="-6.404249">
        <ele>348.536</ele>
        <time>2019-02-28T01:49:54Z</time>
      </trkpt>
      <trkpt lat="39.759877" lon="-6.404239">
        <ele>348.545</ele>
        <time>2019-02-28T01:49:55Z</time>
      </trkpt>
      <trkpt lat="39.759887" lon="-6.404234">
        <ele>348.614</ele>
        <time>2019-02-28T01:49:56Z</time>
      </trkpt>
      <trkpt lat="39.760095" lon="-6.404073">
        <ele>349.687</ele>
        <time>2019-02-28T01:50:09Z</time>
      </trkpt>
      <trkpt lat="39.760399" lon="-6.403750">
        <ele>350.442</ele>
        <time>2019-02-28T01:50:21Z</time>
      </trkpt>
      <trkpt lat="39.760659" lon="-6.403426">
        <ele>349.926</ele>
        <time>2019-02-28T01:50:32Z</time>
      </trkpt>
      <trkpt lat="39.760820" lon="-6.403224">
        <ele>349.008</ele>
        <time>2019-02-28T01:50:39Z</time>
      </trkpt>
      <trkpt lat="39.760846" lon="-6.403203">
        <ele>348.911</ele>
        <time>2019-02-28T01:50:40Z</time>
      </trkpt>
      <trkpt lat="39.761172" lon="-6.403015">
        <ele>348.282</ele>
        <time>2019-02-28T01:50:52Z</time>
      </trkpt>
      <trkpt lat="39.761481" lon="-6.403054">
        <ele>346.893</ele>
        <time>2019-02-28T01:51:03Z</time>
      </trkpt>
      <trkpt lat="39.761809" lon="-6.403075">
        <ele>345.942</ele>
        <time>2019-02-28T01:51:13Z</time>
      </trkpt>
      <trkpt lat="39.762173" lon="-6.403018">
        <ele>344.556</ele>
        <time>2019-02-28T01:51:24Z</time>
      </trkpt>
      <trkpt lat="39.762655" lon="-6.403025">
        <ele>344.349</ele>
        <time>2019-02-28T01:51:38Z</time>
      </trkpt>
      <trkpt lat="39.763154" lon="-6.403011">
        <ele>344.268</ele>
        <time>2019-02-28T01:51:51Z</time>
      </trkpt>
      <trkpt lat="39.763291" lon="-6.403017">
        <ele>344.227</ele>
        <time>2019-02-28T01:51:56Z</time>
      </trkpt>
      <trkpt lat="39.763311" lon="-6.403013">
        <ele>344.239</ele>
        <time>2019-02-28T01:51:57Z</time>
      </trkpt>
      <trkpt lat="39.763331" lon="-6.403015">
        <ele>344.101</ele>
        <time>2019-02-28T01:51:58Z</time>
      </trkpt>
      <trkpt lat="39.763742" lon="-6.403167">
        <ele>342.521</ele>
        <time>2019-02-28T01:52:12Z</time>
      </trkpt>
      <trkpt lat="39.764003" lon="-6.403372">
        <ele>342.008</ele>
        <time>2019-02-28T01:52:22Z</time>
      </trkpt>
      <trkpt lat="39.764391" lon="-6.403450">
        <ele>341.946</ele>
        <time>2019-02-28T01:52:33Z</time>
      </trkpt>
      <trkpt lat="39.764662" lon="-6.403496">
        <ele>341.867</ele>
        <time>2019-02-28T01:52:44Z</time>
      </trkpt>
      <trkpt lat="39.764856" lon="-6.403440">
        <ele>341.448</ele>
        <time>2019-02-28T01:52:50Z</time>
      </trkpt>
      <trkpt lat="39.764895" lon="-6.403443">
        <ele>341.427</ele>
        <time>2019-02-28T01:52:51Z</time>
      </trkpt>
      <trkpt lat="39.764930" lon="-6.403449">
        <ele>341.381</ele>
        <time>2019-02-28T01:52:52Z</time>
      </trkpt>
      <trkpt lat="39.765215" lon="-6.403541">
        <ele>340.054</ele>
        <time>2019-02-28T01:53:00Z</time>
      </trkpt>
      <trkpt lat="39.765305" lon="-6.403561">
        <ele>339.813</ele>
        <time>2019-02-28T01:53:02Z</time>
      </trkpt>
      <trkpt lat="39.765353" lon="-6.403564">
        <ele>339.892</ele>
        <time>2019-02-28T01:53:03Z</time>
      </trkpt>
      <trkpt lat="39.765401" lon="-6.403561">
        <ele>339.763</ele>
        <time>2019-02-28T01:53:04Z</time>
      </trkpt>
      <trkpt lat="39.765449" lon="-6.403553">
        <ele>339.744</ele>
        <time>2019-02-28T01:53:05Z</time>
      </trkpt>
      <trkpt lat="39.765498" lon="-6.403537">
        <ele>339.618</ele>
        <time>2019-02-28T01:53:06Z</time>
      </trkpt>
      <trkpt lat="39.765542" lon="-6.403514">
        <ele>339.608</ele>
        <time>2019-02-28T01:53:07Z</time>
      </trkpt>
      <trkpt lat="39.765584" lon="-6.403487">
        <ele>339.639</ele>
        <time>2019-02-28T01:53:08Z</time>
      </trkpt>
      <trkpt lat="39.765788" lon="-6.403175">
        <ele>339.620</ele>
        <time>2019-02-28T01:53:18Z</time>
      </trkpt>
      <trkpt lat="39.765974" lon="-6.403089">
        <ele>339.571</ele>
        <time>2019-02-28T01:53:31Z</time>
      </trkpt>
      <trkpt lat="39.766257" lon="-6.403181">
        <ele>339.590</ele>
        <time>2019-02-28T01:53:41Z</time>
      </trkpt>
      <trkpt lat="39.766622" lon="-6.403034">
        <ele>339.594</ele>
        <time>2019-02-28T01:53:56Z</time>
      </trkpt>
      <trkpt lat="39.766918" lon="-6.402706">
        <ele>339.847</ele>
        <time>2019-02-28T01:54:10Z</time>
      </trkpt>
      <trkpt lat="39.767226" lon="-6.402499">
        <ele>342.186</ele>
        <time>2019-02-28T01:54:25Z</time>
      </trkpt>
      <trkpt lat="39.767551" lon="-6.402478">
        <ele>343.475</ele>
        <time>2019-02-28T01:54:36Z</time>
      </trkpt>
      <trkpt lat="39.767597" lon="-6.402477">
        <ele>343.411</ele>
        <time>2019-02-28T01:54:37Z</time>
      </trkpt>
      <trkpt lat="39.767643" lon="-6.402476">
        <ele>343.421</ele>
        <time>2019-02-28T01:54:38Z</time>
      </trkpt>
      <trkpt lat="39.768256" lon="-6.402525">
        <ele>341.803</ele>
        <time>2019-02-28T01:54:51Z</time>
      </trkpt>
      <trkpt lat="39.768309" lon="-6.402521">
        <ele>341.808</ele>
        <time>2019-02-28T01:54:52Z</time>
      </trkpt>
      <trkpt lat="39.768361" lon="-6.402509">
        <ele>341.794</ele>
        <time>2019-02-28T01:54:53Z</time>
      </trkpt>
      <trkpt lat="39.768408" lon="-6.402487">
        <ele>341.685</ele>
        <time>2019-02-28T01:54:54Z</time>
      </trkpt>
      <trkpt lat="39.768450" lon="-6.402461">
        <ele>341.636</ele>
        <time>2019-02-28T01:54:55Z</time>
      </trkpt>
      <trkpt lat="39.768736" lon="-6.402195">
        <ele>341.885</ele>
        <time>2019-02-28T01:55:07Z</time>
      </trkpt>
      <trkpt lat="39.769037" lon="-6.401922">
        <ele>343.299</ele>
        <time>2019-02-28T01:55:23Z</time>
      </trkpt>
      <trkpt lat="39.769372" lon="-6.401820">
        <ele>343.122</ele>
        <time>2019-02-28T01:55:33Z</time>
      </trkpt>
      <trkpt lat="39.769744" lon="-6.401935">
        <ele>342.131</ele>
        <time>2019-02-28T01:55:44Z</time>
      </trkpt>
      <trkpt lat="39.769823" lon="-6.401987">
        <ele>341.930</ele>
        <time>2019-02-28T01:55:46Z</time>
      </trkpt>
      <trkpt lat="39.770350" lon="-6.402041">
        <ele>341.272</ele>
        <time>2019-02-28T01:55:59Z</time>
      </trkpt>
      <trkpt lat="39.770684" lon="-6.401920">
        <ele>341.313</ele>
        <time>2019-02-28T01:56:10Z</time>
      </trkpt>
      <trkpt lat="39.771002" lon="-6.401715">
        <ele>340.414</ele>
        <time>2019-02-28T01:56:22Z</time>
      </trkpt>
      <trkpt lat="39.771165" lon="-6.401597">
        <ele>339.408</ele>
        <time>2019-02-28T01:56:31Z</time>
      </trkpt>
      <trkpt lat="39.771442" lon="-6.401501">
        <ele>337.030</ele>
        <time>2019-02-28T01:56:43Z</time>
      </trkpt>
      <trkpt lat="39.771549" lon="-6.401414">
        <ele>336.011</ele>
        <time>2019-02-28T01:56:48Z</time>
      </trkpt>
      <trkpt lat="39.771564" lon="-6.401386">
        <ele>335.962</ele>
        <time>2019-02-28T01:56:49Z</time>
      </trkpt>
      <trkpt lat="39.771583" lon="-6.401361">
        <ele>335.751</ele>
        <time>2019-02-28T01:56:50Z</time>
      </trkpt>
      <trkpt lat="39.771605" lon="-6.401335">
        <ele>335.685</ele>
        <time>2019-02-28T01:56:51Z</time>
      </trkpt>
      <trkpt lat="39.771625" lon="-6.401309">
        <ele>335.518</ele>
        <time>2019-02-28T01:56:52Z</time>
      </trkpt>
      <trkpt lat="39.771646" lon="-6.401286">
        <ele>335.397</ele>
        <time>2019-02-28T01:56:53Z</time>
      </trkpt>
      <trkpt lat="39.771669" lon="-6.401262">
        <ele>335.246</ele>
        <time>2019-02-28T01:56:54Z</time>
      </trkpt>
      <trkpt lat="39.771931" lon="-6.400794">
        <ele>334.099</ele>
        <time>2019-02-28T01:57:06Z</time>
      </trkpt>
      <trkpt lat="39.771992" lon="-6.400230">
        <ele>333.707</ele>
        <time>2019-02-28T01:57:19Z</time>
      </trkpt>
      <trkpt lat="39.772034" lon="-6.399684">
        <ele>333.227</ele>
        <time>2019-02-28T01:57:33Z</time>
      </trkpt>
      <trkpt lat="39.772063" lon="-6.399308">
        <ele>332.308</ele>
        <time>2019-02-28T01:57:42Z</time>
      </trkpt>
      <trkpt lat="39.772081" lon="-6.399259">
        <ele>332.332</ele>
        <time>2019-02-28T01:57:43Z</time>
      </trkpt>
      <trkpt lat="39.772103" lon="-6.399213">
        <ele>332.373</ele>
        <time>2019-02-28T01:57:44Z</time>
      </trkpt>
      <trkpt lat="39.772129" lon="-6.399170">
        <ele>332.324</ele>
        <time>2019-02-28T01:57:45Z</time>
      </trkpt>
      <trkpt lat="39.772158" lon="-6.399131">
        <ele>332.263</ele>
        <time>2019-02-28T01:57:46Z</time>
      </trkpt>
      <trkpt lat="39.772189" lon="-6.399094">
        <ele>332.277</ele>
        <time>2019-02-28T01:57:47Z</time>
      </trkpt>
      <trkpt lat="39.772220" lon="-6.399059">
        <ele>332.270</ele>
        <time>2019-02-28T01:57:48Z</time>
      </trkpt>
      <trkpt lat="39.772450" lon="-6.398830">
        <ele>331.929</ele>
        <time>2019-02-28T01:57:55Z</time>
      </trkpt>
      <trkpt lat="39.772473" lon="-6.398788">
        <ele>331.858</ele>
        <time>2019-02-28T01:57:56Z</time>
      </trkpt>
      <trkpt lat="39.772518" lon="-6.398695">
        <ele>331.533</ele>
        <time>2019-02-28T01:57:58Z</time>
      </trkpt>
      <trkpt lat="39.772591" lon="-6.398553">
        <ele>331.323</ele>
        <time>2019-02-28T01:58:01Z</time>
      </trkpt>
      <trkpt lat="39.772837" lon="-6.398319">
        <ele>330.215</ele>
        <time>2019-02-28T01:58:11Z</time>
      </trkpt>
      <trkpt lat="39.772977" lon="-6.398222">
        <ele>329.608</ele>
        <time>2019-02-28T01:58:18Z</time>
      </trkpt>
      <trkpt lat="39.772999" lon="-6.398215">
        <ele>329.596</ele>
        <time>2019-02-28T01:58:19Z</time>
      </trkpt>
      <trkpt lat="39.773019" lon="-6.398207">
        <ele>329.377</ele>
        <time>2019-02-28T01:58:20Z</time>
      </trkpt>
      <trkpt lat="39.773036" lon="-6.398196">
        <ele>329.288</ele>
        <time>2019-02-28T01:58:21Z</time>
      </trkpt>
      <trkpt lat="39.773052" lon="-6.398187">
        <ele>329.157</ele>
        <time>2019-02-28T01:58:22Z</time>
      </trkpt>
      <trkpt lat="39.773069" lon="-6.398181">
        <ele>328.931</ele>
        <time>2019-02-28T01:58:23Z</time>
      </trkpt>
      <trkpt lat="39.773085" lon="-6.398172">
        <ele>328.884</ele>
        <time>2019-02-28T01:58:24Z</time>
      </trkpt>
      <trkpt lat="39.773105" lon="-6.398163">
        <ele>328.713</ele>
        <time>2019-02-28T01:58:25Z</time>
      </trkpt>
      <trkpt lat="39.773128" lon="-6.398154">
        <ele>328.582</ele>
        <time>2019-02-28T01:58:26Z</time>
      </trkpt>
      <trkpt lat="39.773295" lon="-6.397883">
        <ele>326.597</ele>
        <time>2019-02-28T01:58:37Z</time>
      </trkpt>
      <trkpt lat="39.773289" lon="-6.397828">
        <ele>326.223</ele>
        <time>2019-02-28T01:58:38Z</time>
      </trkpt>
      <trkpt lat="39.773278" lon="-6.397783">
        <ele>325.925</ele>
        <time>2019-02-28T01:58:39Z</time>
      </trkpt>
      <trkpt lat="39.773203" lon="-6.397429">
        <ele>324.308</ele>
        <time>2019-02-28T01:58:50Z</time>
      </trkpt>
      <trkpt lat="39.773462" lon="-6.397123">
        <ele>322.592</ele>
        <time>2019-02-28T01:59:01Z</time>
      </trkpt>
      <trkpt lat="39.773697" lon="-6.396972">
        <ele>321.423</ele>
        <time>2019-02-28T01:59:14Z</time>
      </trkpt>
      <trkpt lat="39.773873" lon="-6.396806">
        <ele>320.134</ele>
        <time>2019-02-28T01:59:20Z</time>
      </trkpt>
      <trkpt lat="39.773905" lon="-6.396768">
        <ele>319.923</ele>
        <time>2019-02-28T01:59:21Z</time>
      </trkpt>
      <trkpt lat="39.773933" lon="-6.396726">
        <ele>319.757</ele>
        <time>2019-02-28T01:59:22Z</time>
      </trkpt>
      <trkpt lat="39.773958" lon="-6.396680">
        <ele>319.610</ele>
        <time>2019-02-28T01:59:23Z</time>
      </trkpt>
      <trkpt lat="39.773981" lon="-6.396631">
        <ele>319.559</ele>
        <time>2019-02-28T01:59:24Z</time>
      </trkpt>
      <trkpt lat="39.774000" lon="-6.396578">
        <ele>319.448</ele>
        <time>2019-02-28T01:59:25Z</time>
      </trkpt>
      <trkpt lat="39.774014" lon="-6.396524">
        <ele>319.397</ele>
        <time>2019-02-28T01:59:26Z</time>
      </trkpt>
      <trkpt lat="39.774288" lon="-6.395945">
        <ele>318.223</ele>
        <time>2019-02-28T01:59:39Z</time>
      </trkpt>
      <trkpt lat="39.774322" lon="-6.395912">
        <ele>318.125</ele>
        <time>2019-02-28T01:59:40Z</time>
      </trkpt>
      <trkpt lat="39.774668" lon="-6.395646">
        <ele>317.508</ele>
        <time>2019-02-28T01:59:51Z</time>
      </trkpt>
      <trkpt lat="39.774702" lon="-6.395621">
        <ele>317.532</ele>
        <time>2019-02-28T01:59:52Z</time>
      </trkpt>
      <trkpt lat="39.774730" lon="-6.395596">
        <ele>317.463</ele>
        <time>2019-02-28T01:59:53Z</time>
      </trkpt>
      <trkpt lat="39.774761" lon="-6.395576">
        <ele>317.414</ele>
        <time>2019-02-28T01:59:54Z</time>
      </trkpt>
      <trkpt lat="39.774792" lon="-6.395554">
        <ele>317.443</ele>
        <time>2019-02-28T01:59:55Z</time>
      </trkpt>
      <trkpt lat="39.774824" lon="-6.395527">
        <ele>317.347</ele>
        <time>2019-02-28T01:59:56Z</time>
      </trkpt>
      <trkpt lat="39.774960" lon="-6.395408">
        <ele>317.240</ele>
        <time>2019-02-28T02:00:00Z</time>
      </trkpt>
      <trkpt lat="39.775367" lon="-6.395136">
        <ele>316.449</ele>
        <time>2019-02-28T02:00:13Z</time>
      </trkpt>
      <trkpt lat="39.775649" lon="-6.395016">
        <ele>315.268</ele>
        <time>2019-02-28T02:00:20Z</time>
      </trkpt>
      <trkpt lat="39.775686" lon="-6.394990">
        <ele>315.027</ele>
        <time>2019-02-28T02:00:21Z</time>
      </trkpt>
      <trkpt lat="39.775719" lon="-6.394961">
        <ele>314.968</ele>
        <time>2019-02-28T02:00:22Z</time>
      </trkpt>
      <trkpt lat="39.775747" lon="-6.394929">
        <ele>314.814</ele>
        <time>2019-02-28T02:00:23Z</time>
      </trkpt>
      <trkpt lat="39.775775" lon="-6.394896">
        <ele>314.708</ele>
        <time>2019-02-28T02:00:24Z</time>
      </trkpt>
      <trkpt lat="39.776059" lon="-6.394714">
        <ele>315.985</ele>
        <time>2019-02-28T02:00:37Z</time>
      </trkpt>
      <trkpt lat="39.776297" lon="-6.394801">
        <ele>317.176</ele>
        <time>2019-02-28T02:00:51Z</time>
      </trkpt>
      <trkpt lat="39.776527" lon="-6.394851">
        <ele>317.857</ele>
        <time>2019-02-28T02:01:02Z</time>
      </trkpt>
      <trkpt lat="39.776554" lon="-6.394866">
        <ele>317.996</ele>
        <time>2019-02-28T02:01:03Z</time>
      </trkpt>
      <trkpt lat="39.776580" lon="-6.394881">
        <ele>317.960</ele>
        <time>2019-02-28T02:01:04Z</time>
      </trkpt>
      <trkpt lat="39.776606" lon="-6.394891">
        <ele>318.073</ele>
        <time>2019-02-28T02:01:05Z</time>
      </trkpt>
      <trkpt lat="39.776632" lon="-6.394896">
        <ele>318.052</ele>
        <time>2019-02-28T02:01:06Z</time>
      </trkpt>
      <trkpt lat="39.776658" lon="-6.394901">
        <ele>318.051</ele>
        <time>2019-02-28T02:01:07Z</time>
      </trkpt>
      <trkpt lat="39.776685" lon="-6.394909">
        <ele>318.059</ele>
        <time>2019-02-28T02:01:08Z</time>
      </trkpt>
      <trkpt lat="39.777012" lon="-6.395053">
        <ele>318.303</ele>
        <time>2019-02-28T02:01:22Z</time>
      </trkpt>
      <trkpt lat="39.777497" lon="-6.395174">
        <ele>319.123</ele>
        <time>2019-02-28T02:01:39Z</time>
      </trkpt>
      <trkpt lat="39.777737" lon="-6.395206">
        <ele>319.908</ele>
        <time>2019-02-28T02:01:51Z</time>
      </trkpt>
      <trkpt lat="39.777980" lon="-6.394934">
        <ele>321.358</ele>
        <time>2019-02-28T02:02:04Z</time>
      </trkpt>
      <trkpt lat="39.778194" lon="-6.394529">
        <ele>321.679</ele>
        <time>2019-02-28T02:02:17Z</time>
      </trkpt>
      <trkpt lat="39.778423" lon="-6.394506">
        <ele>319.460</ele>
        <time>2019-02-28T02:02:30Z</time>
      </trkpt>
      <trkpt lat="39.778456" lon="-6.394517">
        <ele>319.099</ele>
        <time>2019-02-28T02:02:36Z</time>
      </trkpt>
      <trkpt lat="39.778589" lon="-6.394538">
        <ele>317.593</ele>
        <time>2019-02-28T02:02:53Z</time>
      </trkpt>
      <trkpt lat="39.778615" lon="-6.394566">
        <ele>317.086</ele>
        <time>2019-02-28T02:03:00Z</time>
      </trkpt>
      <trkpt lat="39.778864" lon="-6.394775">
        <ele>312.495</ele>
        <time>2019-02-28T02:03:37Z</time>
      </trkpt>
      <trkpt lat="39.778949" lon="-6.394870">
        <ele>311.074</ele>
        <time>2019-02-28T02:03:50Z</time>
      </trkpt>
      <trkpt lat="39.778968" lon="-6.394926">
        <ele>310.412</ele>
        <time>2019-02-28T02:03:55Z</time>
      </trkpt>
      <trkpt lat="39.779049" lon="-6.395104">
        <ele>308.532</ele>
        <time>2019-02-28T02:04:06Z</time>
      </trkpt>
      <trkpt lat="39.779148" lon="-6.395249">
        <ele>306.805</ele>
        <time>2019-02-28T02:04:13Z</time>
      </trkpt>
      <trkpt lat="39.779156" lon="-6.395267">
        <ele>306.608</ele>
        <time>2019-02-28T02:04:14Z</time>
      </trkpt>
      <trkpt lat="39.779163" lon="-6.395283">
        <ele>306.524</ele>
        <time>2019-02-28T02:04:15Z</time>
      </trkpt>
      <trkpt lat="39.779171" lon="-6.395297">
        <ele>306.325</ele>
        <time>2019-02-28T02:04:16Z</time>
      </trkpt>
      <trkpt lat="39.779180" lon="-6.395310">
        <ele>306.216</ele>
        <time>2019-02-28T02:04:17Z</time>
      </trkpt>
      <trkpt lat="39.779192" lon="-6.395324">
        <ele>305.945</ele>
        <time>2019-02-28T02:04:18Z</time>
      </trkpt>
      <trkpt lat="39.779201" lon="-6.395338">
        <ele>305.779</ele>
        <time>2019-02-28T02:04:19Z</time>
      </trkpt>
      <trkpt lat="39.779211" lon="-6.395352">
        <ele>305.552</ele>
        <time>2019-02-28T02:04:20Z</time>
      </trkpt>
      <trkpt lat="39.779223" lon="-6.395366">
        <ele>305.221</ele>
        <time>2019-02-28T02:04:21Z</time>
      </trkpt>
      <trkpt lat="39.779235" lon="-6.395382">
        <ele>304.950</ele>
        <time>2019-02-28T02:04:22Z</time>
      </trkpt>
      <trkpt lat="39.779246" lon="-6.395398">
        <ele>304.681</ele>
        <time>2019-02-28T02:04:23Z</time>
      </trkpt>
      <trkpt lat="39.779255" lon="-6.395414">
        <ele>304.461</ele>
        <time>2019-02-28T02:04:24Z</time>
      </trkpt>
      <trkpt lat="39.779340" lon="-6.395590">
        <ele>301.717</ele>
        <time>2019-02-28T02:04:39Z</time>
      </trkpt>
      <trkpt lat="39.779359" lon="-6.395607">
        <ele>301.408</ele>
        <time>2019-02-28T02:04:41Z</time>
      </trkpt>
      <trkpt lat="39.779383" lon="-6.395606">
        <ele>301.021</ele>
        <time>2019-02-28T02:04:47Z</time>
      </trkpt>
      <trkpt lat="39.779787" lon="-6.395680">
        <ele>295.852</ele>
        <time>2019-02-28T02:05:37Z</time>
      </trkpt>
      <trkpt lat="39.779948" lon="-6.395788">
        <ele>294.023</ele>
        <time>2019-02-28T02:05:52Z</time>
      </trkpt>
      <trkpt lat="39.779986" lon="-6.395890">
        <ele>293.052</ele>
        <time>2019-02-28T02:06:02Z</time>
      </trkpt>
      <trkpt lat="39.780005" lon="-6.395943">
        <ele>292.566</ele>
        <time>2019-02-28T02:06:06Z</time>
      </trkpt>
      <trkpt lat="39.780120" lon="-6.396169">
        <ele>291.089</ele>
        <time>2019-02-28T02:06:14Z</time>
      </trkpt>
      <trkpt lat="39.780142" lon="-6.396177">
        <ele>290.898</ele>
        <time>2019-02-28T02:06:15Z</time>
      </trkpt>
      <trkpt lat="39.780169" lon="-6.396182">
        <ele>290.747</ele>
        <time>2019-02-28T02:06:16Z</time>
      </trkpt>
      <trkpt lat="39.780191" lon="-6.396197">
        <ele>290.692</ele>
        <time>2019-02-28T02:06:17Z</time>
      </trkpt>
      <trkpt lat="39.780213" lon="-6.396221">
        <ele>290.573</ele>
        <time>2019-02-28T02:06:18Z</time>
      </trkpt>
      <trkpt lat="39.780236" lon="-6.396249">
        <ele>290.420</ele>
        <time>2019-02-28T02:06:19Z</time>
      </trkpt>
      <trkpt lat="39.780260" lon="-6.396281">
        <ele>290.208</ele>
        <time>2019-02-28T02:06:20Z</time>
      </trkpt>
      <trkpt lat="39.780285" lon="-6.396318">
        <ele>290.282</ele>
        <time>2019-02-28T02:06:21Z</time>
      </trkpt>
      <trkpt lat="39.780371" lon="-6.396470">
        <ele>289.993</ele>
        <time>2019-02-28T02:06:30Z</time>
      </trkpt>
      <trkpt lat="39.780380" lon="-6.396572">
        <ele>289.734</ele>
        <time>2019-02-28T02:07:04Z</time>
      </trkpt>
      <trkpt lat="39.780384" lon="-6.396608">
        <ele>289.733</ele>
        <time>2019-02-28T02:07:05Z</time>
      </trkpt>
      <trkpt lat="39.780388" lon="-6.396645">
        <ele>289.797</ele>
        <time>2019-02-28T02:07:06Z</time>
      </trkpt>
      <trkpt lat="39.780609" lon="-6.396934">
        <ele>289.940</ele>
        <time>2019-02-28T02:07:17Z</time>
      </trkpt>
      <trkpt lat="39.780986" lon="-6.396804">
        <ele>290.579</ele>
        <time>2019-02-28T02:07:29Z</time>
      </trkpt>
      <trkpt lat="39.781252" lon="-6.396353">
        <ele>291.368</ele>
        <time>2019-02-28T02:07:43Z</time>
      </trkpt>
      <trkpt lat="39.781249" lon="-6.396071">
        <ele>291.615</ele>
        <time>2019-02-28T02:07:50Z</time>
      </trkpt>
      <trkpt lat="39.781265" lon="-6.396053">
        <ele>291.765</ele>
        <time>2019-02-28T02:07:51Z</time>
      </trkpt>
      <trkpt lat="39.781284" lon="-6.396041">
        <ele>291.711</ele>
        <time>2019-02-28T02:07:52Z</time>
      </trkpt>
      <trkpt lat="39.781304" lon="-6.396033">
        <ele>291.808</ele>
        <time>2019-02-28T02:07:53Z</time>
      </trkpt>
      <trkpt lat="39.781322" lon="-6.396024">
        <ele>291.894</ele>
        <time>2019-02-28T02:07:54Z</time>
      </trkpt>
      <trkpt lat="39.781359" lon="-6.396019">
        <ele>291.975</ele>
        <time>2019-02-28T02:07:57Z</time>
      </trkpt>
      <trkpt lat="39.781673" lon="-6.395885">
        <ele>293.396</ele>
        <time>2019-02-28T02:08:11Z</time>
      </trkpt>
      <trkpt lat="39.781888" lon="-6.395670">
        <ele>295.645</ele>
        <time>2019-02-28T02:08:25Z</time>
      </trkpt>
      <trkpt lat="39.782080" lon="-6.395475">
        <ele>297.239</ele>
        <time>2019-02-28T02:08:40Z</time>
      </trkpt>
      <trkpt lat="39.782279" lon="-6.395288">
        <ele>299.272</ele>
        <time>2019-02-28T02:08:54Z</time>
      </trkpt>
      <trkpt lat="39.782480" lon="-6.395085">
        <ele>300.991</ele>
        <time>2019-02-28T02:09:09Z</time>
      </trkpt>
      <trkpt lat="39.782686" lon="-6.394883">
        <ele>303.470</ele>
        <time>2019-02-28T02:09:25Z</time>
      </trkpt>
      <trkpt lat="39.782865" lon="-6.394713">
        <ele>305.665</ele>
        <time>2019-02-28T02:09:39Z</time>
      </trkpt>
      <trkpt lat="39.783117" lon="-6.394590">
        <ele>308.168</ele>
        <time>2019-02-28T02:09:57Z</time>
      </trkpt>
      <trkpt lat="39.783337" lon="-6.394496">
        <ele>310.114</ele>
        <time>2019-02-28T02:10:12Z</time>
      </trkpt>
      <trkpt lat="39.783479" lon="-6.394485">
        <ele>311.808</ele>
        <time>2019-02-28T02:10:21Z</time>
      </trkpt>
      <trkpt lat="39.783494" lon="-6.394490">
        <ele>312.079</ele>
        <time>2019-02-28T02:10:22Z</time>
      </trkpt>
      <trkpt lat="39.783727" lon="-6.394515">
        <ele>314.160</ele>
        <time>2019-02-28T02:10:37Z</time>
      </trkpt>
      <trkpt lat="39.783741" lon="-6.394515">
        <ele>314.341</ele>
        <time>2019-02-28T02:10:38Z</time>
      </trkpt>
      <trkpt lat="39.783752" lon="-6.394511">
        <ele>314.410</ele>
        <time>2019-02-28T02:10:39Z</time>
      </trkpt>
      <trkpt lat="39.783765" lon="-6.394506">
        <ele>314.634</ele>
        <time>2019-02-28T02:10:40Z</time>
      </trkpt>
      <trkpt lat="39.783780" lon="-6.394505">
        <ele>314.717</ele>
        <time>2019-02-28T02:10:41Z</time>
      </trkpt>
      <trkpt lat="39.783795" lon="-6.394506">
        <ele>314.986</ele>
        <time>2019-02-28T02:10:42Z</time>
      </trkpt>
      <trkpt lat="39.784040" lon="-6.394536">
        <ele>317.015</ele>
        <time>2019-02-28T02:10:57Z</time>
      </trkpt>
      <trkpt lat="39.784256" lon="-6.394569">
        <ele>318.612</ele>
        <time>2019-02-28T02:11:12Z</time>
      </trkpt>
      <trkpt lat="39.784465" lon="-6.394584">
        <ele>320.132</ele>
        <time>2019-02-28T02:11:26Z</time>
      </trkpt>
      <trkpt lat="39.784733" lon="-6.394535">
        <ele>321.805</ele>
        <time>2019-02-28T02:11:41Z</time>
      </trkpt>
      <trkpt lat="39.785022" lon="-6.394463">
        <ele>323.408</ele>
        <time>2019-02-28T02:11:55Z</time>
      </trkpt>
      <trkpt lat="39.785264" lon="-6.394402">
        <ele>325.344</ele>
        <time>2019-02-28T02:12:09Z</time>
      </trkpt>
      <trkpt lat="39.785272" lon="-6.394404">
        <ele>325.375</ele>
        <time>2019-02-28T02:12:12Z</time>
      </trkpt>
      <trkpt lat="39.785588" lon="-6.394593">
        <ele>328.266</ele>
        <time>2019-02-28T02:12:53Z</time>
      </trkpt>
      <trkpt lat="39.785634" lon="-6.394595">
        <ele>328.695</ele>
        <time>2019-02-28T02:12:56Z</time>
      </trkpt>
      <trkpt lat="39.785645" lon="-6.394586">
        <ele>328.769</ele>
        <time>2019-02-28T02:12:57Z</time>
      </trkpt>
      <trkpt lat="39.785660" lon="-6.394578">
        <ele>328.962</ele>
        <time>2019-02-28T02:12:58Z</time>
      </trkpt>
      <trkpt lat="39.785974" lon="-6.394471">
        <ele>331.351</ele>
        <time>2019-02-28T02:13:13Z</time>
      </trkpt>
      <trkpt lat="39.786253" lon="-6.394349">
        <ele>333.480</ele>
        <time>2019-02-28T02:13:27Z</time>
      </trkpt>
      <trkpt lat="39.786580" lon="-6.394184">
        <ele>335.972</ele>
        <time>2019-02-28T02:13:43Z</time>
      </trkpt>
      <trkpt lat="39.786937" lon="-6.394017">
        <ele>337.613</ele>
        <time>2019-02-28T02:14:00Z</time>
      </trkpt>
      <trkpt lat="39.787352" lon="-6.393830">
        <ele>340.814</ele>
        <time>2019-02-28T02:14:21Z</time>
      </trkpt>
      <trkpt lat="39.787700" lon="-6.393656">
        <ele>343.008</ele>
        <time>2019-02-28T02:14:39Z</time>
      </trkpt>
      <trkpt lat="39.787977" lon="-6.393529">
        <ele>344.860</ele>
        <time>2019-02-28T02:14:54Z</time>
      </trkpt>
      <trkpt lat="39.788282" lon="-6.393423">
        <ele>347.081</ele>
        <time>2019-02-28T02:15:08Z</time>
      </trkpt>
      <trkpt lat="39.788592" lon="-6.393205">
        <ele>348.732</ele>
        <time>2019-02-28T02:15:24Z</time>
      </trkpt>
      <trkpt lat="39.788904" lon="-6.392805">
        <ele>350.311</ele>
        <time>2019-02-28T02:15:44Z</time>
      </trkpt>
      <trkpt lat="39.789156" lon="-6.392368">
        <ele>351.725</ele>
        <time>2019-02-28T02:16:03Z</time>
      </trkpt>
      <trkpt lat="39.789332" lon="-6.392067">
        <ele>352.718</ele>
        <time>2019-02-28T02:16:17Z</time>
      </trkpt>
      <trkpt lat="39.789629" lon="-6.391944">
        <ele>353.577</ele>
        <time>2019-02-28T02:16:31Z</time>
      </trkpt>
      <trkpt lat="39.790115" lon="-6.392030">
        <ele>356.286</ele>
        <time>2019-02-28T02:16:47Z</time>
      </trkpt>
      <trkpt lat="39.790461" lon="-6.392119">
        <ele>359.318</ele>
        <time>2019-02-28T02:16:58Z</time>
      </trkpt>
      <trkpt lat="39.790834" lon="-6.391839">
        <ele>361.198</ele>
        <time>2019-02-28T02:17:11Z</time>
      </trkpt>
      <trkpt lat="39.791108" lon="-6.391432">
        <ele>361.917</ele>
        <time>2019-02-28T02:17:25Z</time>
      </trkpt>
      <trkpt lat="39.791322" lon="-6.391123">
        <ele>363.308</ele>
        <time>2019-02-28T02:17:39Z</time>
      </trkpt>
      <trkpt lat="39.791323" lon="-6.391119">
        <ele>363.444</ele>
        <time>2019-02-28T02:17:42Z</time>
      </trkpt>
      <trkpt lat="39.791366" lon="-6.391051">
        <ele>363.795</ele>
        <time>2019-02-28T02:17:51Z</time>
      </trkpt>
      <trkpt lat="39.791713" lon="-6.390765">
        <ele>365.796</ele>
        <time>2019-02-28T02:18:07Z</time>
      </trkpt>
      <trkpt lat="39.792112" lon="-6.390722">
        <ele>367.025</ele>
        <time>2019-02-28T02:18:22Z</time>
      </trkpt>
      <trkpt lat="39.792193" lon="-6.390713">
        <ele>367.229</ele>
        <time>2019-02-28T02:18:32Z</time>
      </trkpt>
      <trkpt lat="39.792204" lon="-6.390701">
        <ele>367.342</ele>
        <time>2019-02-28T02:18:36Z</time>
      </trkpt>
      <trkpt lat="39.792195" lon="-6.390814">
        <ele>367.491</ele>
        <time>2019-02-28T02:51:39Z</time>
      </trkpt>
      <trkpt lat="39.792214" lon="-6.390812">
        <ele>367.570</ele>
        <time>2019-02-28T02:51:40Z</time>
      </trkpt>
      <trkpt lat="39.792542" lon="-6.390744">
        <ele>368.522</ele>
        <time>2019-02-28T02:51:54Z</time>
      </trkpt>
      <trkpt lat="39.792813" lon="-6.390588">
        <ele>369.862</ele>
        <time>2019-02-28T02:52:05Z</time>
      </trkpt>
      <trkpt lat="39.792866" lon="-6.390023">
        <ele>370.208</ele>
        <time>2019-02-28T02:52:17Z</time>
      </trkpt>
      <trkpt lat="39.792772" lon="-6.388936">
        <ele>367.208</ele>
        <time>2019-02-28T02:52:39Z</time>
      </trkpt>
      <trkpt lat="39.792985" lon="-6.387942">
        <ele>365.455</ele>
        <time>2019-02-28T02:52:57Z</time>
      </trkpt>
      <trkpt lat="39.793124" lon="-6.387669">
        <ele>365.156</ele>
        <time>2019-02-28T02:53:02Z</time>
      </trkpt>
      <trkpt lat="39.793528" lon="-6.386968">
        <ele>363.667</ele>
        <time>2019-02-28T02:53:15Z</time>
      </trkpt>
      <trkpt lat="39.794110" lon="-6.385927">
        <ele>362.846</ele>
        <time>2019-02-28T02:53:35Z</time>
      </trkpt>
      <trkpt lat="39.794462" lon="-6.385246">
        <ele>362.640</ele>
        <time>2019-02-28T02:53:54Z</time>
      </trkpt>
      <trkpt lat="39.794849" lon="-6.384538">
        <ele>367.343</ele>
        <time>2019-02-28T02:54:18Z</time>
      </trkpt>
      <trkpt lat="39.795157" lon="-6.383939">
        <ele>370.022</ele>
        <time>2019-02-28T02:54:38Z</time>
      </trkpt>
      <trkpt lat="39.795424" lon="-6.383352">
        <ele>371.941</ele>
        <time>2019-02-28T02:54:58Z</time>
      </trkpt>
      <trkpt lat="39.795486" lon="-6.382834">
        <ele>374.085</ele>
        <time>2019-02-28T02:55:14Z</time>
      </trkpt>
      <trkpt lat="39.795410" lon="-6.382024">
        <ele>375.889</ele>
        <time>2019-02-28T02:55:38Z</time>
      </trkpt>
      <trkpt lat="39.795339" lon="-6.381272">
        <ele>378.317</ele>
        <time>2019-02-28T02:56:01Z</time>
      </trkpt>
      <trkpt lat="39.795403" lon="-6.380660">
        <ele>379.608</ele>
        <time>2019-02-28T02:56:20Z</time>
      </trkpt>
      <trkpt lat="39.795598" lon="-6.380026">
        <ele>381.311</ele>
        <time>2019-02-28T02:56:40Z</time>
      </trkpt>
      <trkpt lat="39.795798" lon="-6.379454">
        <ele>383.262</ele>
        <time>2019-02-28T02:56:58Z</time>
      </trkpt>
      <trkpt lat="39.796090" lon="-6.378721">
        <ele>385.293</ele>
        <time>2019-02-28T02:57:20Z</time>
      </trkpt>
      <trkpt lat="39.796334" lon="-6.378231">
        <ele>386.062</ele>
        <time>2019-02-28T02:57:36Z</time>
      </trkpt>
      <trkpt lat="39.796538" lon="-6.377609">
        <ele>387.536</ele>
        <time>2019-02-28T02:57:54Z</time>
      </trkpt>
      <trkpt lat="39.796688" lon="-6.376821">
        <ele>389.399</ele>
        <time>2019-02-28T02:58:15Z</time>
      </trkpt>
      <trkpt lat="39.796764" lon="-6.376233">
        <ele>390.598</ele>
        <time>2019-02-28T02:58:32Z</time>
      </trkpt>
      <trkpt lat="39.796751" lon="-6.376203">
        <ele>390.657</ele>
        <time>2019-02-28T02:58:33Z</time>
      </trkpt>
      <trkpt lat="39.796737" lon="-6.376170">
        <ele>390.723</ele>
        <time>2019-02-28T02:58:34Z</time>
      </trkpt>
      <trkpt lat="39.796726" lon="-6.376132">
        <ele>390.883</ele>
        <time>2019-02-28T02:58:35Z</time>
      </trkpt>
      <trkpt lat="39.796724" lon="-6.376091">
        <ele>391.011</ele>
        <time>2019-02-28T02:58:36Z</time>
      </trkpt>
      <trkpt lat="39.796726" lon="-6.376052">
        <ele>391.108</ele>
        <time>2019-02-28T02:58:37Z</time>
      </trkpt>
      <trkpt lat="39.796732" lon="-6.376017">
        <ele>391.235</ele>
        <time>2019-02-28T02:58:38Z</time>
      </trkpt>
      <trkpt lat="39.796739" lon="-6.375985">
        <ele>391.496</ele>
        <time>2019-02-28T02:58:39Z</time>
      </trkpt>
      <trkpt lat="39.796863" lon="-6.375491">
        <ele>392.937</ele>
        <time>2019-02-28T02:58:54Z</time>
      </trkpt>
      <trkpt lat="39.796872" lon="-6.375022">
        <ele>393.276</ele>
        <time>2019-02-28T02:59:08Z</time>
      </trkpt>
      <trkpt lat="39.796707" lon="-6.374481">
        <ele>393.710</ele>
        <time>2019-02-28T02:59:22Z</time>
      </trkpt>
      <trkpt lat="39.796724" lon="-6.374445">
        <ele>393.913</ele>
        <time>2019-02-28T02:59:23Z</time>
      </trkpt>
      <trkpt lat="39.796748" lon="-6.374414">
        <ele>394.322</ele>
        <time>2019-02-28T02:59:24Z</time>
      </trkpt>
      <trkpt lat="39.796773" lon="-6.374384">
        <ele>394.371</ele>
        <time>2019-02-28T02:59:25Z</time>
      </trkpt>
      <trkpt lat="39.797150" lon="-6.374248">
        <ele>397.167</ele>
        <time>2019-02-28T02:59:39Z</time>
      </trkpt>
      <trkpt lat="39.797270" lon="-6.374311">
        <ele>397.681</ele>
        <time>2019-02-28T02:59:49Z</time>
      </trkpt>
      <trkpt lat="39.797347" lon="-6.374346">
        <ele>398.119</ele>
        <time>2019-02-28T03:00:24Z</time>
      </trkpt>
      <trkpt lat="39.797605" lon="-6.374221">
        <ele>399.908</ele>
        <time>2019-02-28T03:00:36Z</time>
      </trkpt>
      <trkpt lat="39.797934" lon="-6.373965">
        <ele>400.369</ele>
        <time>2019-02-28T03:00:51Z</time>
      </trkpt>
      <trkpt lat="39.798365" lon="-6.373703">
        <ele>400.480</ele>
        <time>2019-02-28T03:01:06Z</time>
      </trkpt>
      <trkpt lat="39.799161" lon="-6.373292">
        <ele>399.821</ele>
        <time>2019-02-28T03:01:29Z</time>
      </trkpt>
      <trkpt lat="39.800028" lon="-6.372778">
        <ele>399.290</ele>
        <time>2019-02-28T03:01:52Z</time>
      </trkpt>
      <trkpt lat="39.800464" lon="-6.372295">
        <ele>398.064</ele>
        <time>2019-02-28T03:02:08Z</time>
      </trkpt>
      <trkpt lat="39.800790" lon="-6.371682">
        <ele>397.977</ele>
        <time>2019-02-28T03:02:23Z</time>
      </trkpt>
      <trkpt lat="39.801121" lon="-6.370905">
        <ele>397.796</ele>
        <time>2019-02-28T03:02:40Z</time>
      </trkpt>
      <trkpt lat="39.801494" lon="-6.370003">
        <ele>398.025</ele>
        <time>2019-02-28T03:03:01Z</time>
      </trkpt>
      <trkpt lat="39.801928" lon="-6.369233">
        <ele>399.318</ele>
        <time>2019-02-28T03:03:23Z</time>
      </trkpt>
      <trkpt lat="39.802460" lon="-6.368730">
        <ele>400.698</ele>
        <time>2019-02-28T03:03:43Z</time>
      </trkpt>
      <trkpt lat="39.803152" lon="-6.368429">
        <ele>402.117</ele>
        <time>2019-02-28T03:04:05Z</time>
      </trkpt>
      <trkpt lat="39.803794" lon="-6.368269">
        <ele>402.408</ele>
        <time>2019-02-28T03:04:24Z</time>
      </trkpt>
      <trkpt lat="39.804439" lon="-6.368123">
        <ele>403.734</ele>
        <time>2019-02-28T03:04:44Z</time>
      </trkpt>
      <trkpt lat="39.804948" lon="-6.368005">
        <ele>405.495</ele>
        <time>2019-02-28T03:05:02Z</time>
      </trkpt>
      <trkpt lat="39.805415" lon="-6.367895">
        <ele>408.346</ele>
        <time>2019-02-28T03:05:20Z</time>
      </trkpt>
      <trkpt lat="39.805889" lon="-6.367783">
        <ele>410.385</ele>
        <time>2019-02-28T03:05:40Z</time>
      </trkpt>
      <trkpt lat="39.806407" lon="-6.367660">
        <ele>413.219</ele>
        <time>2019-02-28T03:06:00Z</time>
      </trkpt>
      <trkpt lat="39.806964" lon="-6.367519">
        <ele>416.932</ele>
        <time>2019-02-28T03:06:23Z</time>
      </trkpt>
      <trkpt lat="39.807414" lon="-6.367520">
        <ele>420.221</ele>
        <time>2019-02-28T03:06:43Z</time>
      </trkpt>
      <trkpt lat="39.807819" lon="-6.367836">
        <ele>423.120</ele>
        <time>2019-02-28T03:07:05Z</time>
      </trkpt>
      <trkpt lat="39.808087" lon="-6.368211">
        <ele>425.433</ele>
        <time>2019-02-28T03:07:23Z</time>
      </trkpt>
      <trkpt lat="39.808326" lon="-6.368614">
        <ele>427.523</ele>
        <time>2019-02-28T03:07:40Z</time>
      </trkpt>
      <trkpt lat="39.808468" lon="-6.368935">
        <ele>429.115</ele>
        <time>2019-02-28T03:07:52Z</time>
      </trkpt>
      <trkpt lat="39.808635" lon="-6.369372">
        <ele>431.108</ele>
        <time>2019-02-28T03:08:07Z</time>
      </trkpt>
      <trkpt lat="39.808861" lon="-6.370012">
        <ele>433.836</ele>
        <time>2019-02-28T03:08:28Z</time>
      </trkpt>
      <trkpt lat="39.809121" lon="-6.370579">
        <ele>436.667</ele>
        <time>2019-02-28T03:08:49Z</time>
      </trkpt>
      <trkpt lat="39.809467" lon="-6.370730">
        <ele>439.678</ele>
        <time>2019-02-28T03:09:04Z</time>
      </trkpt>
      <trkpt lat="39.809913" lon="-6.370625">
        <ele>442.577</ele>
        <time>2019-02-28T03:09:22Z</time>
      </trkpt>
      <trkpt lat="39.810139" lon="-6.370573">
        <ele>443.831</ele>
        <time>2019-02-28T03:09:33Z</time>
      </trkpt>
      <trkpt lat="39.810579" lon="-6.370459">
        <ele>446.394</ele>
        <time>2019-02-28T03:09:53Z</time>
      </trkpt>
      <trkpt lat="39.810938" lon="-6.370334">
        <ele>449.223</ele>
        <time>2019-02-28T03:10:09Z</time>
      </trkpt>
      <trkpt lat="39.811254" lon="-6.370049">
        <ele>452.122</ele>
        <time>2019-02-28T03:10:26Z</time>
      </trkpt>
      <trkpt lat="39.811428" lon="-6.369677">
        <ele>454.266</ele>
        <time>2019-02-28T03:10:40Z</time>
      </trkpt>
      <trkpt lat="39.811603" lon="-6.369122">
        <ele>458.329</ele>
        <time>2019-02-28T03:10:59Z</time>
      </trkpt>
      <trkpt lat="39.811754" lon="-6.368696">
        <ele>460.821</ele>
        <time>2019-02-28T03:11:15Z</time>
      </trkpt>
      <trkpt lat="39.812029" lon="-6.368287">
        <ele>461.708</ele>
        <time>2019-02-28T03:11:32Z</time>
      </trkpt>
      <trkpt lat="39.812363" lon="-6.368049">
        <ele>461.489</ele>
        <time>2019-02-28T03:11:47Z</time>
      </trkpt>
      <trkpt lat="39.812746" lon="-6.367791">
        <ele>461.360</ele>
        <time>2019-02-28T03:12:04Z</time>
      </trkpt>
      <trkpt lat="39.813062" lon="-6.367590">
        <ele>462.291</ele>
        <time>2019-02-28T03:12:19Z</time>
      </trkpt>
      <trkpt lat="39.813457" lon="-6.367338">
        <ele>464.570</ele>
        <time>2019-02-28T03:12:37Z</time>
      </trkpt>
      <trkpt lat="39.813984" lon="-6.366994">
        <ele>467.334</ele>
        <time>2019-02-28T03:13:01Z</time>
      </trkpt>
      <trkpt lat="39.814365" lon="-6.366754">
        <ele>469.027</ele>
        <time>2019-02-28T03:13:18Z</time>
      </trkpt>
      <trkpt lat="39.814668" lon="-6.366627">
        <ele>470.466</ele>
        <time>2019-02-28T03:13:31Z</time>
      </trkpt>
      <trkpt lat="39.814962" lon="-6.366549">
        <ele>472.335</ele>
        <time>2019-02-28T03:13:43Z</time>
      </trkpt>
      <trkpt lat="39.815444" lon="-6.366402">
        <ele>475.024</ele>
        <time>2019-02-28T03:14:01Z</time>
      </trkpt>
      <trkpt lat="39.815790" lon="-6.366336">
        <ele>476.004</ele>
        <time>2019-02-28T03:14:16Z</time>
      </trkpt>
      <trkpt lat="39.816036" lon="-6.366288">
        <ele>476.614</ele>
        <time>2019-02-28T03:14:28Z</time>
      </trkpt>
      <trkpt lat="39.816345" lon="-6.366197">
        <ele>477.608</ele>
        <time>2019-02-28T03:14:42Z</time>
      </trkpt>
      <trkpt lat="39.816573" lon="-6.366128">
        <ele>478.475</ele>
        <time>2019-02-28T03:14:53Z</time>
      </trkpt>
      <trkpt lat="39.816835" lon="-6.366022">
        <ele>479.596</ele>
        <time>2019-02-28T03:15:04Z</time>
      </trkpt>
      <trkpt lat="39.817223" lon="-6.365769">
        <ele>481.247</ele>
        <time>2019-02-28T03:15:21Z</time>
      </trkpt>
      <trkpt lat="39.817507" lon="-6.365543">
        <ele>482.546</ele>
        <time>2019-02-28T03:15:35Z</time>
      </trkpt>
      <trkpt lat="39.817863" lon="-6.365289">
        <ele>484.210</ele>
        <time>2019-02-28T03:15:52Z</time>
      </trkpt>
      <trkpt lat="39.818228" lon="-6.365080">
        <ele>486.823</ele>
        <time>2019-02-28T03:16:09Z</time>
      </trkpt>
      <trkpt lat="39.818570" lon="-6.364975">
        <ele>489.582</ele>
        <time>2019-02-28T03:16:23Z</time>
      </trkpt>
      <trkpt lat="39.818935" lon="-6.364949">
        <ele>492.251</ele>
        <time>2019-02-28T03:16:39Z</time>
      </trkpt>
      <trkpt lat="39.819290" lon="-6.364998">
        <ele>494.433</ele>
        <time>2019-02-28T03:16:53Z</time>
      </trkpt>
      <trkpt lat="39.819668" lon="-6.365078">
        <ele>493.523</ele>
        <time>2019-02-28T03:17:07Z</time>
      </trkpt>
      <trkpt lat="39.819693" lon="-6.365059">
        <ele>493.415</ele>
        <time>2019-02-28T03:17:08Z</time>
      </trkpt>
      <trkpt lat="39.819713" lon="-6.365033">
        <ele>493.308</ele>
        <time>2019-02-28T03:17:09Z</time>
      </trkpt>
      <trkpt lat="39.819731" lon="-6.365004">
        <ele>493.066</ele>
        <time>2019-02-28T03:17:10Z</time>
      </trkpt>
      <trkpt lat="39.819748" lon="-6.364974">
        <ele>493.037</ele>
        <time>2019-02-28T03:17:11Z</time>
      </trkpt>
      <trkpt lat="39.820014" lon="-6.364628">
        <ele>491.668</ele>
        <time>2019-02-28T03:17:23Z</time>
      </trkpt>
      <trkpt lat="39.820324" lon="-6.364846">
        <ele>491.047</ele>
        <time>2019-02-28T03:17:33Z</time>
      </trkpt>
      <trkpt lat="39.820343" lon="-6.364894">
        <ele>490.991</ele>
        <time>2019-02-28T03:17:34Z</time>
      </trkpt>
      <trkpt lat="39.820355" lon="-6.364945">
        <ele>490.974</ele>
        <time>2019-02-28T03:17:35Z</time>
      </trkpt>
      <trkpt lat="39.820359" lon="-6.364997">
        <ele>490.853</ele>
        <time>2019-02-28T03:17:36Z</time>
      </trkpt>
      <trkpt lat="39.820356" lon="-6.365046">
        <ele>490.762</ele>
        <time>2019-02-28T03:17:37Z</time>
      </trkpt>
      <trkpt lat="39.820354" lon="-6.365093">
        <ele>490.981</ele>
        <time>2019-02-28T03:17:38Z</time>
      </trkpt>
      <trkpt lat="39.820354" lon="-6.365142">
        <ele>491.061</ele>
        <time>2019-02-28T03:17:39Z</time>
      </trkpt>
      <trkpt lat="39.820372" lon="-6.365296">
        <ele>490.617</ele>
        <time>2019-02-28T03:17:42Z</time>
      </trkpt>
      <trkpt lat="39.820390" lon="-6.365349">
        <ele>490.308</ele>
        <time>2019-02-28T03:17:43Z</time>
      </trkpt>
      <trkpt lat="39.820757" lon="-6.365912">
        <ele>485.561</ele>
        <time>2019-02-28T03:17:56Z</time>
      </trkpt>
      <trkpt lat="39.820840" lon="-6.366040">
        <ele>484.192</ele>
        <time>2019-02-28T03:18:01Z</time>
      </trkpt>
      <trkpt lat="39.820849" lon="-6.366044">
        <ele>484.173</ele>
        <time>2019-02-28T03:18:05Z</time>
      </trkpt>
      <trkpt lat="39.820889" lon="-6.365963">
        <ele>484.072</ele>
        <time>2019-02-28T03:18:10Z</time>
      </trkpt>
      <trkpt lat="39.820892" lon="-6.365925">
        <ele>484.046</ele>
        <time>2019-02-28T03:18:11Z</time>
      </trkpt>
      <trkpt lat="39.820835" lon="-6.365578">
        <ele>484.349</ele>
        <time>2019-02-28T03:18:24Z</time>
      </trkpt>
      <trkpt lat="39.820889" lon="-6.365368">
        <ele>484.548</ele>
        <time>2019-02-28T03:18:34Z</time>
      </trkpt>
      <trkpt lat="39.820919" lon="-6.365342">
        <ele>484.547</ele>
        <time>2019-02-28T03:18:40Z</time>
      </trkpt>
      <trkpt lat="39.820995" lon="-6.365232">
        <ele>484.429</ele>
        <time>2019-02-28T03:19:40Z</time>
      </trkpt>
      <trkpt lat="39.821025" lon="-6.365176">
        <ele>484.400</ele>
        <time>2019-02-28T03:19:42Z</time>
      </trkpt>
      <trkpt lat="39.821368" lon="-6.364962">
        <ele>484.520</ele>
        <time>2019-02-28T03:19:57Z</time>
      </trkpt>
      <trkpt lat="39.821587" lon="-6.365026">
        <ele>483.208</ele>
        <time>2019-02-28T03:20:08Z</time>
      </trkpt>
      <trkpt lat="39.821587" lon="-6.365028">
        <ele>483.285</ele>
        <time>2019-02-28T03:20:10Z</time>
      </trkpt>
      <trkpt lat="39.821705" lon="-6.365030">
        <ele>482.666</ele>
        <time>2019-02-28T03:21:24Z</time>
      </trkpt>
      <trkpt lat="39.822022" lon="-6.365032">
        <ele>481.497</ele>
        <time>2019-02-28T03:21:33Z</time>
      </trkpt>
      <trkpt lat="39.822460" lon="-6.365020">
        <ele>480.146</ele>
        <time>2019-02-28T03:21:43Z</time>
      </trkpt>
      <trkpt lat="39.823004" lon="-6.365032">
        <ele>478.940</ele>
        <time>2019-02-28T03:21:55Z</time>
      </trkpt>
      <trkpt lat="39.823194" lon="-6.365011">
        <ele>478.553</ele>
        <time>2019-02-28T03:22:04Z</time>
      </trkpt>
      <trkpt lat="39.823192" lon="-6.365011">
        <ele>478.562</ele>
        <time>2019-02-28T03:22:05Z</time>
      </trkpt>
      <trkpt lat="39.823253" lon="-6.364990">
        <ele>478.451</ele>
        <time>2019-02-28T03:22:21Z</time>
      </trkpt>
      <trkpt lat="39.823556" lon="-6.364939">
        <ele>478.242</ele>
        <time>2019-02-28T03:22:34Z</time>
      </trkpt>
      <trkpt lat="39.823958" lon="-6.365047">
        <ele>477.922</ele>
        <time>2019-02-28T03:22:46Z</time>
      </trkpt>
      <trkpt lat="39.824360" lon="-6.365068">
        <ele>476.914</ele>
        <time>2019-02-28T03:22:57Z</time>
      </trkpt>
      <trkpt lat="39.824678" lon="-6.364885">
        <ele>477.208</ele>
        <time>2019-02-28T03:23:08Z</time>
      </trkpt>
      <trkpt lat="39.824690" lon="-6.364871">
        <ele>477.377</ele>
        <time>2019-02-28T03:23:12Z</time>
      </trkpt>
      <trkpt lat="39.824740" lon="-6.364813">
        <ele>477.568</ele>
        <time>2019-02-28T03:23:36Z</time>
      </trkpt>
      <trkpt lat="39.824761" lon="-6.364770">
        <ele>477.639</ele>
        <time>2019-02-28T03:23:38Z</time>
      </trkpt>
      <trkpt lat="39.824828" lon="-6.364613">
        <ele>478.438</ele>
        <time>2019-02-28T03:23:45Z</time>
      </trkpt>
      <trkpt lat="39.825018" lon="-6.364467">
        <ele>479.592</ele>
        <time>2019-02-28T03:23:57Z</time>
      </trkpt>
      <trkpt lat="39.825270" lon="-6.364340">
        <ele>480.095</ele>
        <time>2019-02-28T03:24:09Z</time>
      </trkpt>
      <trkpt lat="39.825531" lon="-6.364244">
        <ele>479.994</ele>
        <time>2019-02-28T03:24:20Z</time>
      </trkpt>
      <trkpt lat="39.825931" lon="-6.364158">
        <ele>479.383</ele>
        <time>2019-02-28T03:24:32Z</time>
      </trkpt>
      <trkpt lat="39.826249" lon="-6.364110">
        <ele>479.586</ele>
        <time>2019-02-28T03:24:41Z</time>
      </trkpt>
      <trkpt lat="39.826584" lon="-6.364021">
        <ele>480.760</ele>
        <time>2019-02-28T03:24:53Z</time>
      </trkpt>
      <trkpt lat="39.827051" lon="-6.363874">
        <ele>481.526</ele>
        <time>2019-02-28T03:25:10Z</time>
      </trkpt>
      <trkpt lat="39.827491" lon="-6.363896">
        <ele>480.108</ele>
        <time>2019-02-28T03:25:22Z</time>
      </trkpt>
      <trkpt lat="39.827702" lon="-6.363932">
        <ele>477.871</ele>
        <time>2019-02-28T03:25:28Z</time>
      </trkpt>
      <trkpt lat="39.827893" lon="-6.364164">
        <ele>475.572</ele>
        <time>2019-02-28T03:25:37Z</time>
      </trkpt>
      <trkpt lat="39.827911" lon="-6.364222">
        <ele>475.193</ele>
        <time>2019-02-28T03:25:40Z</time>
      </trkpt>
      <trkpt lat="39.828078" lon="-6.364587">
        <ele>473.392</ele>
        <time>2019-02-28T03:25:53Z</time>
      </trkpt>
      <trkpt lat="39.828381" lon="-6.365001">
        <ele>472.336</ele>
        <time>2019-02-28T03:26:05Z</time>
      </trkpt>
      <trkpt lat="39.828719" lon="-6.365118">
        <ele>472.279</ele>
        <time>2019-02-28T03:26:16Z</time>
      </trkpt>
      <trkpt lat="39.829127" lon="-6.365104">
        <ele>471.988</ele>
        <time>2019-02-28T03:26:29Z</time>
      </trkpt>
      <trkpt lat="39.829658" lon="-6.365105">
        <ele>470.677</ele>
        <time>2019-02-28T03:26:43Z</time>
      </trkpt>
      <trkpt lat="39.830162" lon="-6.364969">
        <ele>468.659</ele>
        <time>2019-02-28T03:26:55Z</time>
      </trkpt>
      <trkpt lat="39.830584" lon="-6.364881">
        <ele>467.203</ele>
        <time>2019-02-28T03:27:05Z</time>
      </trkpt>
      <trkpt lat="39.830972" lon="-6.364788">
        <ele>467.023</ele>
        <time>2019-02-28T03:27:16Z</time>
      </trkpt>
      <trkpt lat="39.831317" lon="-6.364757">
        <ele>467.208</ele>
        <time>2019-02-28T03:27:27Z</time>
      </trkpt>
      <trkpt lat="39.831666" lon="-6.364680">
        <ele>466.658</ele>
        <time>2019-02-28T03:27:37Z</time>
      </trkpt>
      <trkpt lat="39.832090" lon="-6.364537">
        <ele>465.489</ele>
        <time>2019-02-28T03:27:48Z</time>
      </trkpt>
      <trkpt lat="39.832220" lon="-6.364509">
        <ele>464.930</ele>
        <time>2019-02-28T03:27:51Z</time>
      </trkpt>
      <trkpt lat="39.832265" lon="-6.364497">
        <ele>464.849</ele>
        <time>2019-02-28T03:27:52Z</time>
      </trkpt>
      <trkpt lat="39.832310" lon="-6.364491">
        <ele>464.633</ele>
        <time>2019-02-28T03:27:53Z</time>
      </trkpt>
      <trkpt lat="39.832359" lon="-6.364480">
        <ele>464.426</ele>
        <time>2019-02-28T03:27:54Z</time>
      </trkpt>
      <trkpt lat="39.832411" lon="-6.364467">
        <ele>464.255</ele>
        <time>2019-02-28T03:27:55Z</time>
      </trkpt>
      <trkpt lat="39.832563" lon="-6.364434">
        <ele>463.874</ele>
        <time>2019-02-28T03:27:58Z</time>
      </trkpt>
      <trkpt lat="39.833020" lon="-6.364361">
        <ele>461.892</ele>
        <time>2019-02-28T03:28:09Z</time>
      </trkpt>
      <trkpt lat="39.833066" lon="-6.364347">
        <ele>461.673</ele>
        <time>2019-02-28T03:28:10Z</time>
      </trkpt>
      <trkpt lat="39.833111" lon="-6.364339">
        <ele>461.320</ele>
        <time>2019-02-28T03:28:11Z</time>
      </trkpt>
      <trkpt lat="39.833158" lon="-6.364330">
        <ele>461.108</ele>
        <time>2019-02-28T03:28:12Z</time>
      </trkpt>
      <trkpt lat="39.833205" lon="-6.364317">
        <ele>460.892</ele>
        <time>2019-02-28T03:28:13Z</time>
      </trkpt>
      <trkpt lat="39.833507" lon="-6.364206">
        <ele>459.423</ele>
        <time>2019-02-28T03:28:19Z</time>
      </trkpt>
      <trkpt lat="39.833558" lon="-6.364193">
        <ele>459.124</ele>
        <time>2019-02-28T03:28:20Z</time>
      </trkpt>
      <trkpt lat="39.833605" lon="-6.364180">
        <ele>458.973</ele>
        <time>2019-02-28T03:28:21Z</time>
      </trkpt>
      <trkpt lat="39.833649" lon="-6.364171">
        <ele>458.697</ele>
        <time>2019-02-28T03:28:22Z</time>
      </trkpt>
      <trkpt lat="39.833696" lon="-6.364168">
        <ele>458.450</ele>
        <time>2019-02-28T03:28:23Z</time>
      </trkpt>
      <trkpt lat="39.833743" lon="-6.364169">
        <ele>458.219</ele>
        <time>2019-02-28T03:28:24Z</time>
      </trkpt>
      <trkpt lat="39.834061" lon="-6.364142">
        <ele>457.048</ele>
        <time>2019-02-28T03:28:31Z</time>
      </trkpt>
      <trkpt lat="39.834373" lon="-6.364096">
        <ele>456.184</ele>
        <time>2019-02-28T03:28:37Z</time>
      </trkpt>
      <trkpt lat="39.834541" lon="-6.364040">
        <ele>455.507</ele>
        <time>2019-02-28T03:28:40Z</time>
      </trkpt>
      <trkpt lat="39.835161" lon="-6.363905">
        <ele>453.617</ele>
        <time>2019-02-28T03:28:52Z</time>
      </trkpt>
      <trkpt lat="39.835387" lon="-6.363857">
        <ele>453.208</ele>
        <time>2019-02-28T03:28:58Z</time>
      </trkpt>
      <trkpt lat="39.835811" lon="-6.363696">
        <ele>452.811</ele>
        <time>2019-02-28T03:29:09Z</time>
      </trkpt>
      <trkpt lat="39.836016" lon="-6.363575">
        <ele>452.862</ele>
        <time>2019-02-28T03:29:18Z</time>
      </trkpt>
      <trkpt lat="39.836014" lon="-6.363576">
        <ele>452.863</ele>
        <time>2019-02-28T03:29:20Z</time>
      </trkpt>
      <trkpt lat="39.836090" lon="-6.363552">
        <ele>452.872</ele>
        <time>2019-02-28T03:29:36Z</time>
      </trkpt>
      <trkpt lat="39.836437" lon="-6.363470">
        <ele>453.366</ele>
        <time>2019-02-28T03:29:49Z</time>
      </trkpt>
      <trkpt lat="39.836837" lon="-6.363356">
        <ele>454.179</ele>
        <time>2019-02-28T03:30:04Z</time>
      </trkpt>
      <trkpt lat="39.836941" lon="-6.363295">
        <ele>453.948</ele>
        <time>2019-02-28T03:30:07Z</time>
      </trkpt>
      <trkpt lat="39.837108" lon="-6.363176">
        <ele>453.497</ele>
        <time>2019-02-28T03:30:11Z</time>
      </trkpt>
      <trkpt lat="39.837199" lon="-6.363134">
        <ele>452.952</ele>
        <time>2019-02-28T03:30:13Z</time>
      </trkpt>
      <trkpt lat="39.837238" lon="-6.363099">
        <ele>452.653</ele>
        <time>2019-02-28T03:30:14Z</time>
      </trkpt>
      <trkpt lat="39.837269" lon="-6.363052">
        <ele>452.408</ele>
        <time>2019-02-28T03:30:15Z</time>
      </trkpt>
      <trkpt lat="39.837301" lon="-6.363000">
        <ele>452.108</ele>
        <time>2019-02-28T03:30:16Z</time>
      </trkpt>
      <trkpt lat="39.837336" lon="-6.362953">
        <ele>451.928</ele>
        <time>2019-02-28T03:30:17Z</time>
      </trkpt>
      <trkpt lat="39.837375" lon="-6.362907">
        <ele>451.729</ele>
        <time>2019-02-28T03:30:18Z</time>
      </trkpt>
      <trkpt lat="39.837420" lon="-6.362867">
        <ele>451.540</ele>
        <time>2019-02-28T03:30:19Z</time>
      </trkpt>
      <trkpt lat="39.837512" lon="-6.362798">
        <ele>450.959</ele>
        <time>2019-02-28T03:30:21Z</time>
      </trkpt>
      <trkpt lat="39.837555" lon="-6.362774">
        <ele>450.773</ele>
        <time>2019-02-28T03:30:22Z</time>
      </trkpt>
      <trkpt lat="39.837600" lon="-6.362747">
        <ele>450.446</ele>
        <time>2019-02-28T03:30:23Z</time>
      </trkpt>
      <trkpt lat="39.837642" lon="-6.362710">
        <ele>450.245</ele>
        <time>2019-02-28T03:30:24Z</time>
      </trkpt>
      <trkpt lat="39.837679" lon="-6.362671">
        <ele>450.184</ele>
        <time>2019-02-28T03:30:25Z</time>
      </trkpt>
      <trkpt lat="39.837717" lon="-6.362632">
        <ele>449.926</ele>
        <time>2019-02-28T03:30:26Z</time>
      </trkpt>
      <trkpt lat="39.837755" lon="-6.362598">
        <ele>449.847</ele>
        <time>2019-02-28T03:30:27Z</time>
      </trkpt>
      <trkpt lat="39.837795" lon="-6.362569">
        <ele>449.811</ele>
        <time>2019-02-28T03:30:28Z</time>
      </trkpt>
      <trkpt lat="39.837837" lon="-6.362547">
        <ele>449.708</ele>
        <time>2019-02-28T03:30:29Z</time>
      </trkpt>
      <trkpt lat="39.838195" lon="-6.362334">
        <ele>449.055</ele>
        <time>2019-02-28T03:30:38Z</time>
      </trkpt>
      <trkpt lat="39.838332" lon="-6.362273">
        <ele>448.886</ele>
        <time>2019-02-28T03:30:41Z</time>
      </trkpt>
      <trkpt lat="39.838376" lon="-6.362245">
        <ele>448.797</ele>
        <time>2019-02-28T03:30:42Z</time>
      </trkpt>
      <trkpt lat="39.838416" lon="-6.362212">
        <ele>448.546</ele>
        <time>2019-02-28T03:30:43Z</time>
      </trkpt>
      <trkpt lat="39.838549" lon="-6.362064">
        <ele>448.120</ele>
        <time>2019-02-28T03:30:47Z</time>
      </trkpt>
      <trkpt lat="39.838624" lon="-6.361918">
        <ele>447.713</ele>
        <time>2019-02-28T03:30:50Z</time>
      </trkpt>
      <trkpt lat="39.838691" lon="-6.361757">
        <ele>447.362</ele>
        <time>2019-02-28T03:30:53Z</time>
      </trkpt>
      <trkpt lat="39.838723" lon="-6.361709">
        <ele>447.271</ele>
        <time>2019-02-28T03:30:54Z</time>
      </trkpt>
      <trkpt lat="39.838793" lon="-6.361592">
        <ele>446.962</ele>
        <time>2019-02-28T03:30:56Z</time>
      </trkpt>
      <trkpt lat="39.838818" lon="-6.361519">
        <ele>446.683</ele>
        <time>2019-02-28T03:30:57Z</time>
      </trkpt>
      <trkpt lat="39.838835" lon="-6.361441">
        <ele>446.211</ele>
        <time>2019-02-28T03:30:58Z</time>
      </trkpt>
      <trkpt lat="39.838845" lon="-6.361362">
        <ele>445.808</ele>
        <time>2019-02-28T03:30:59Z</time>
      </trkpt>
      <trkpt lat="39.838851" lon="-6.361285">
        <ele>445.479</ele>
        <time>2019-02-28T03:31:00Z</time>
      </trkpt>
      <trkpt lat="39.838879" lon="-6.360644">
        <ele>443.830</ele>
        <time>2019-02-28T03:31:09Z</time>
      </trkpt>
      <trkpt lat="39.838864" lon="-6.360519">
        <ele>443.661</ele>
        <time>2019-02-28T03:31:11Z</time>
      </trkpt>
      <trkpt lat="39.838863" lon="-6.360465">
        <ele>443.460</ele>
        <time>2019-02-28T03:31:12Z</time>
      </trkpt>
      <trkpt lat="39.838861" lon="-6.360410">
        <ele>443.344</ele>
        <time>2019-02-28T03:31:13Z</time>
      </trkpt>
      <trkpt lat="39.838873" lon="-6.360029">
        <ele>442.697</ele>
        <time>2019-02-28T03:31:22Z</time>
      </trkpt>
      <trkpt lat="39.838865" lon="-6.359997">
        <ele>442.516</ele>
        <time>2019-02-28T03:31:23Z</time>
      </trkpt>
      <trkpt lat="39.838856" lon="-6.359963">
        <ele>442.415</ele>
        <time>2019-02-28T03:31:24Z</time>
      </trkpt>
      <trkpt lat="39.838849" lon="-6.359921">
        <ele>442.396</ele>
        <time>2019-02-28T03:31:25Z</time>
      </trkpt>
      <trkpt lat="39.838839" lon="-6.359883">
        <ele>442.231</ele>
        <time>2019-02-28T03:31:26Z</time>
      </trkpt>
      <trkpt lat="39.838832" lon="-6.359855">
        <ele>442.124</ele>
        <time>2019-02-28T03:31:27Z</time>
      </trkpt>
      <trkpt lat="39.838823" lon="-6.359827">
        <ele>442.008</ele>
        <time>2019-02-28T03:31:28Z</time>
      </trkpt>
      <trkpt lat="39.838811" lon="-6.359797">
        <ele>441.982</ele>
        <time>2019-02-28T03:31:29Z</time>
      </trkpt>
      <trkpt lat="39.838803" lon="-6.359714">
        <ele>441.763</ele>
        <time>2019-02-28T03:31:31Z</time>
      </trkpt>
      <trkpt lat="39.838814" lon="-6.359662">
        <ele>441.444</ele>
        <time>2019-02-28T03:31:32Z</time>
      </trkpt>
      <trkpt lat="39.838835" lon="-6.359619">
        <ele>441.153</ele>
        <time>2019-02-28T03:31:33Z</time>
      </trkpt>
      <trkpt lat="39.838861" lon="-6.359583">
        <ele>441.097</ele>
        <time>2019-02-28T03:31:34Z</time>
      </trkpt>
      <trkpt lat="39.838880" lon="-6.359544">
        <ele>440.810</ele>
        <time>2019-02-28T03:31:35Z</time>
      </trkpt>
      <trkpt lat="39.838893" lon="-6.359500">
        <ele>440.639</ele>
        <time>2019-02-28T03:31:36Z</time>
      </trkpt>
      <trkpt lat="39.838904" lon="-6.359457">
        <ele>440.568</ele>
        <time>2019-02-28T03:31:37Z</time>
      </trkpt>
      <trkpt lat="39.838996" lon="-6.359175">
        <ele>439.011</ele>
        <time>2019-02-28T03:31:45Z</time>
      </trkpt>
      <trkpt lat="39.839149" lon="-6.358868">
        <ele>436.521</ele>
        <time>2019-02-28T03:31:56Z</time>
      </trkpt>
      <trkpt lat="39.839223" lon="-6.358502">
        <ele>434.003</ele>
        <time>2019-02-28T03:32:08Z</time>
      </trkpt>
      <trkpt lat="39.839127" lon="-6.358274">
        <ele>433.008</ele>
        <time>2019-02-28T03:32:19Z</time>
      </trkpt>
      <trkpt lat="39.839118" lon="-6.358258">
        <ele>432.924</ele>
        <time>2019-02-28T03:32:23Z</time>
      </trkpt>
      <trkpt lat="39.839108" lon="-6.358181">
        <ele>432.815</ele>
        <time>2019-02-28T03:32:28Z</time>
      </trkpt>
      <trkpt lat="39.839113" lon="-6.358174">
        <ele>432.836</ele>
        <time>2019-02-28T03:32:32Z</time>
      </trkpt>
      <trkpt lat="39.839164" lon="-6.358115">
        <ele>432.765</ele>
        <time>2019-02-28T03:32:45Z</time>
      </trkpt>
      <trkpt lat="39.839183" lon="-6.358107">
        <ele>432.719</ele>
        <time>2019-02-28T03:32:47Z</time>
      </trkpt>
      <trkpt lat="39.839217" lon="-6.358040">
        <ele>432.742</ele>
        <time>2019-02-28T03:32:57Z</time>
      </trkpt>
      <trkpt lat="39.839321" lon="-6.357886">
        <ele>432.811</ele>
        <time>2019-02-28T03:35:15Z</time>
      </trkpt>
      <trkpt lat="39.839386" lon="-6.357696">
        <ele>433.010</ele>
        <time>2019-02-28T03:35:22Z</time>
      </trkpt>
      <trkpt lat="39.839557" lon="-6.357464">
        <ele>433.634</ele>
        <time>2019-02-28T03:35:35Z</time>
      </trkpt>
      <trkpt lat="39.839644" lon="-6.357401">
        <ele>433.955</ele>
        <time>2019-02-28T03:35:45Z</time>
      </trkpt>
      <trkpt lat="39.839691" lon="-6.357391">
        <ele>434.110</ele>
        <time>2019-02-28T03:36:05Z</time>
      </trkpt>
      <trkpt lat="39.839914" lon="-6.357327">
        <ele>434.708</ele>
        <time>2019-02-28T03:36:18Z</time>
      </trkpt>
      <trkpt lat="39.840124" lon="-6.357190">
        <ele>435.136</ele>
        <time>2019-02-28T03:36:28Z</time>
      </trkpt>
      <trkpt lat="39.840429" lon="-6.356930">
        <ele>435.347</ele>
        <time>2019-02-28T03:36:41Z</time>
      </trkpt>
      <trkpt lat="39.840609" lon="-6.356776">
        <ele>434.548</ele>
        <time>2019-02-28T03:36:46Z</time>
      </trkpt>
      <trkpt lat="39.840850" lon="-6.356600">
        <ele>433.617</ele>
        <time>2019-02-28T03:36:53Z</time>
      </trkpt>
      <trkpt lat="39.841346" lon="-6.356211">
        <ele>430.351</ele>
        <time>2019-02-28T03:37:09Z</time>
      </trkpt>
      <trkpt lat="39.841394" lon="-6.356216">
        <ele>429.954</ele>
        <time>2019-02-28T03:37:15Z</time>
      </trkpt>
      <trkpt lat="39.841544" lon="-6.356190">
        <ele>428.853</ele>
        <time>2019-02-28T03:37:51Z</time>
      </trkpt>
      <trkpt lat="39.841647" lon="-6.356129">
        <ele>427.922</ele>
        <time>2019-02-28T03:37:55Z</time>
      </trkpt>
      <trkpt lat="39.841671" lon="-6.356102">
        <ele>427.715</ele>
        <time>2019-02-28T03:37:56Z</time>
      </trkpt>
      <trkpt lat="39.841690" lon="-6.356079">
        <ele>427.665</ele>
        <time>2019-02-28T03:37:57Z</time>
      </trkpt>
      <trkpt lat="39.841706" lon="-6.356056">
        <ele>427.411</ele>
        <time>2019-02-28T03:37:58Z</time>
      </trkpt>
      <trkpt lat="39.841723" lon="-6.356036">
        <ele>427.308</ele>
        <time>2019-02-28T03:37:59Z</time>
      </trkpt>
      <trkpt lat="39.841744" lon="-6.356020">
        <ele>427.254</ele>
        <time>2019-02-28T03:38:00Z</time>
      </trkpt>
      <trkpt lat="39.841998" lon="-6.355716">
        <ele>424.665</ele>
        <time>2019-02-28T03:38:11Z</time>
      </trkpt>
      <trkpt lat="39.842058" lon="-6.355624">
        <ele>424.036</ele>
        <time>2019-02-28T03:38:16Z</time>
      </trkpt>
      <trkpt lat="39.842152" lon="-6.355583">
        <ele>423.955</ele>
        <time>2019-02-28T03:38:24Z</time>
      </trkpt>
      <trkpt lat="39.842157" lon="-6.355586">
        <ele>423.969</ele>
        <time>2019-02-28T03:38:28Z</time>
      </trkpt>
      <trkpt lat="39.842353" lon="-6.355432">
        <ele>425.182</ele>
        <time>2019-02-28T03:41:18Z</time>
      </trkpt>
      <trkpt lat="39.842465" lon="-6.355288">
        <ele>425.891</ele>
        <time>2019-02-28T03:41:31Z</time>
      </trkpt>
      <trkpt lat="39.842585" lon="-6.355089">
        <ele>426.260</ele>
        <time>2019-02-28T03:41:47Z</time>
      </trkpt>
      <trkpt lat="39.842624" lon="-6.355036">
        <ele>426.369</ele>
        <time>2019-02-28T03:41:52Z</time>
      </trkpt>
      <trkpt lat="39.842631" lon="-6.355020">
        <ele>426.404</ele>
        <time>2019-02-28T03:41:53Z</time>
      </trkpt>
      <trkpt lat="39.842639" lon="-6.355005">
        <ele>426.524</ele>
        <time>2019-02-28T03:41:54Z</time>
      </trkpt>
      <trkpt lat="39.842648" lon="-6.354990">
        <ele>426.608</ele>
        <time>2019-02-28T03:41:55Z</time>
      </trkpt>
      <trkpt lat="39.842657" lon="-6.354975">
        <ele>426.719</ele>
        <time>2019-02-28T03:41:56Z</time>
      </trkpt>
      <trkpt lat="39.842709" lon="-6.354895">
        <ele>427.170</ele>
        <time>2019-02-28T03:42:02Z</time>
      </trkpt>
      <trkpt lat="39.842713" lon="-6.354877">
        <ele>427.271</ele>
        <time>2019-02-28T03:42:03Z</time>
      </trkpt>
      <trkpt lat="39.842718" lon="-6.354862">
        <ele>427.380</ele>
        <time>2019-02-28T03:42:04Z</time>
      </trkpt>
      <trkpt lat="39.842724" lon="-6.354848">
        <ele>427.324</ele>
        <time>2019-02-28T03:42:05Z</time>
      </trkpt>
      <trkpt lat="39.842731" lon="-6.354832">
        <ele>427.487</ele>
        <time>2019-02-28T03:42:06Z</time>
      </trkpt>
      <trkpt lat="39.842739" lon="-6.354816">
        <ele>427.556</ele>
        <time>2019-02-28T03:42:07Z</time>
      </trkpt>
      <trkpt lat="39.842747" lon="-6.354802">
        <ele>427.545</ele>
        <time>2019-02-28T03:42:08Z</time>
      </trkpt>
      <trkpt lat="39.842754" lon="-6.354788">
        <ele>427.696</ele>
        <time>2019-02-28T03:42:09Z</time>
      </trkpt>
      <trkpt lat="39.842760" lon="-6.354771">
        <ele>427.631</ele>
        <time>2019-02-28T03:42:10Z</time>
      </trkpt>
      <trkpt lat="39.842765" lon="-6.354755">
        <ele>427.724</ele>
        <time>2019-02-28T03:42:11Z</time>
      </trkpt>
      <trkpt lat="39.842775" lon="-6.354742">
        <ele>427.808</ele>
        <time>2019-02-28T03:42:12Z</time>
      </trkpt>
      <trkpt lat="39.842784" lon="-6.354724">
        <ele>427.832</ele>
        <time>2019-02-28T03:42:13Z</time>
      </trkpt>
      <trkpt lat="39.842795" lon="-6.354708">
        <ele>427.993</ele>
        <time>2019-02-28T03:42:14Z</time>
      </trkpt>
      <trkpt lat="39.842807" lon="-6.354697">
        <ele>428.094</ele>
        <time>2019-02-28T03:42:15Z</time>
      </trkpt>
      <trkpt lat="39.842817" lon="-6.354686">
        <ele>428.063</ele>
        <time>2019-02-28T03:42:16Z</time>
      </trkpt>
      <trkpt lat="39.842823" lon="-6.354670">
        <ele>428.127</ele>
        <time>2019-02-28T03:42:17Z</time>
      </trkpt>
      <trkpt lat="39.842829" lon="-6.354653">
        <ele>428.160</ele>
        <time>2019-02-28T03:42:18Z</time>
      </trkpt>
      <trkpt lat="39.842836" lon="-6.354635">
        <ele>428.279</ele>
        <time>2019-02-28T03:42:19Z</time>
      </trkpt>
      <trkpt lat="39.842961" lon="-6.354275">
        <ele>430.028</ele>
        <time>2019-02-28T03:42:36Z</time>
      </trkpt>
      <trkpt lat="39.842999" lon="-6.353970">
        <ele>431.281</ele>
        <time>2019-02-28T03:42:51Z</time>
      </trkpt>
      <trkpt lat="39.843142" lon="-6.353747">
        <ele>432.161</ele>
        <time>2019-02-28T03:43:03Z</time>
      </trkpt>
      <trkpt lat="39.843249" lon="-6.353466">
        <ele>433.217</ele>
        <time>2019-02-28T03:43:18Z</time>
      </trkpt>
      <trkpt lat="39.843336" lon="-6.353301">
        <ele>434.008</ele>
        <time>2019-02-28T03:43:27Z</time>
      </trkpt>
      <trkpt lat="39.843340" lon="-6.353281">
        <ele>434.091</ele>
        <time>2019-02-28T03:43:28Z</time>
      </trkpt>
      <trkpt lat="39.843347" lon="-6.353262">
        <ele>434.162</ele>
        <time>2019-02-28T03:43:29Z</time>
      </trkpt>
      <trkpt lat="39.843379" lon="-6.353163">
        <ele>434.563</ele>
        <time>2019-02-28T03:43:40Z</time>
      </trkpt>
      <trkpt lat="39.843395" lon="-6.353103">
        <ele>434.892</ele>
        <time>2019-02-28T03:43:44Z</time>
      </trkpt>
      <trkpt lat="39.843494" lon="-6.352744">
        <ele>436.056</ele>
        <time>2019-02-28T03:44:00Z</time>
      </trkpt>
      <trkpt lat="39.843687" lon="-6.352397">
        <ele>437.559</ele>
        <time>2019-02-28T03:44:18Z</time>
      </trkpt>
      <trkpt lat="39.843824" lon="-6.352052">
        <ele>438.788</ele>
        <time>2019-02-28T03:44:34Z</time>
      </trkpt>
      <trkpt lat="39.843979" lon="-6.351737">
        <ele>440.077</ele>
        <time>2019-02-28T03:44:50Z</time>
      </trkpt>
      <trkpt lat="39.844112" lon="-6.351455">
        <ele>441.416</ele>
        <time>2019-02-28T03:45:04Z</time>
      </trkpt>
      <trkpt lat="39.844229" lon="-6.351182">
        <ele>442.576</ele>
        <time>2019-02-28T03:45:18Z</time>
      </trkpt>
      <trkpt lat="39.844368" lon="-6.350903">
        <ele>444.213</ele>
        <time>2019-02-28T03:45:32Z</time>
      </trkpt>
      <trkpt lat="39.844600" lon="-6.350655">
        <ele>445.608</ele>
        <time>2019-02-28T03:45:48Z</time>
      </trkpt>
      <trkpt lat="39.844820" lon="-6.350354">
        <ele>447.114</ele>
        <time>2019-02-28T03:46:04Z</time>
      </trkpt>
      <trkpt lat="39.844990" lon="-6.350163">
        <ele>448.015</ele>
        <time>2019-02-28T03:46:17Z</time>
      </trkpt>
      <trkpt lat="39.845118" lon="-6.350019">
        <ele>448.976</ele>
        <time>2019-02-28T03:46:26Z</time>
      </trkpt>
      <trkpt lat="39.845279" lon="-6.349888">
        <ele>450.495</ele>
        <time>2019-02-28T03:46:38Z</time>
      </trkpt>
      <trkpt lat="39.845483" lon="-6.349697">
        <ele>452.549</ele>
        <time>2019-02-28T03:46:54Z</time>
      </trkpt>
      <trkpt lat="39.845529" lon="-6.349671">
        <ele>453.142</ele>
        <time>2019-02-28T03:46:58Z</time>
      </trkpt>
      <trkpt lat="39.845538" lon="-6.349660">
        <ele>453.271</ele>
        <time>2019-02-28T03:46:59Z</time>
      </trkpt>
      <trkpt lat="39.845548" lon="-6.349649">
        <ele>453.410</ele>
        <time>2019-02-28T03:47:00Z</time>
      </trkpt>
      <trkpt lat="39.845648" lon="-6.349538">
        <ele>454.821</ele>
        <time>2019-02-28T03:47:10Z</time>
      </trkpt>
      <trkpt lat="39.845659" lon="-6.349531">
        <ele>454.941</ele>
        <time>2019-02-28T03:47:11Z</time>
      </trkpt>
      <trkpt lat="39.845672" lon="-6.349525">
        <ele>455.105</ele>
        <time>2019-02-28T03:47:12Z</time>
      </trkpt>
      <trkpt lat="39.845681" lon="-6.349514">
        <ele>455.208</ele>
        <time>2019-02-28T03:47:13Z</time>
      </trkpt>
      <trkpt lat="39.845690" lon="-6.349504">
        <ele>455.385</ele>
        <time>2019-02-28T03:47:14Z</time>
      </trkpt>
      <trkpt lat="39.845699" lon="-6.349493">
        <ele>455.456</ele>
        <time>2019-02-28T03:47:15Z</time>
      </trkpt>
      <trkpt lat="39.845706" lon="-6.349482">
        <ele>455.577</ele>
        <time>2019-02-28T03:47:16Z</time>
      </trkpt>
      <trkpt lat="39.845713" lon="-6.349470">
        <ele>455.676</ele>
        <time>2019-02-28T03:47:17Z</time>
      </trkpt>
      <trkpt lat="39.845722" lon="-6.349458">
        <ele>455.750</ele>
        <time>2019-02-28T03:47:18Z</time>
      </trkpt>
      <trkpt lat="39.845903" lon="-6.349238">
        <ele>458.143</ele>
        <time>2019-02-28T03:47:35Z</time>
      </trkpt>
      <trkpt lat="39.846116" lon="-6.349035">
        <ele>459.162</ele>
        <time>2019-02-28T03:47:53Z</time>
      </trkpt>
      <trkpt lat="39.846273" lon="-6.348878">
        <ele>459.571</ele>
        <time>2019-02-28T03:48:06Z</time>
      </trkpt>
      <trkpt lat="39.846454" lon="-6.348517">
        <ele>458.486</ele>
        <time>2019-02-28T03:48:18Z</time>
      </trkpt>
      <trkpt lat="39.846483" lon="-6.348476">
        <ele>458.260</ele>
        <time>2019-02-28T03:48:19Z</time>
      </trkpt>
      <trkpt lat="39.846513" lon="-6.348432">
        <ele>457.926</ele>
        <time>2019-02-28T03:48:20Z</time>
      </trkpt>
      <trkpt lat="39.846600" lon="-6.348291">
        <ele>457.108</ele>
        <time>2019-02-28T03:48:23Z</time>
      </trkpt>
      <trkpt lat="39.846624" lon="-6.348240">
        <ele>456.831</ele>
        <time>2019-02-28T03:48:24Z</time>
      </trkpt>
      <trkpt lat="39.846644" lon="-6.348186">
        <ele>456.632</ele>
        <time>2019-02-28T03:48:25Z</time>
      </trkpt>
      <trkpt lat="39.846719" lon="-6.347948">
        <ele>455.843</ele>
        <time>2019-02-28T03:48:29Z</time>
      </trkpt>
      <trkpt lat="39.846806" lon="-6.347709">
        <ele>455.122</ele>
        <time>2019-02-28T03:48:33Z</time>
      </trkpt>
      <trkpt lat="39.846827" lon="-6.347649">
        <ele>454.886</ele>
        <time>2019-02-28T03:48:34Z</time>
      </trkpt>
      <trkpt lat="39.846854" lon="-6.347591">
        <ele>454.619</ele>
        <time>2019-02-28T03:48:35Z</time>
      </trkpt>
      <trkpt lat="39.847035" lon="-6.347193">
        <ele>453.558</ele>
        <time>2019-02-28T03:48:45Z</time>
      </trkpt>
      <trkpt lat="39.847042" lon="-6.347178">
        <ele>453.567</ele>
        <time>2019-02-28T03:48:50Z</time>
      </trkpt>
      <trkpt lat="39.847068" lon="-6.347091">
        <ele>453.395</ele>
        <time>2019-02-28T03:49:25Z</time>
      </trkpt>
      <trkpt lat="39.847111" lon="-6.346953">
        <ele>452.349</ele>
        <time>2019-02-28T03:49:38Z</time>
      </trkpt>
      <trkpt lat="39.847173" lon="-6.346844">
        <ele>451.723</ele>
        <time>2019-02-28T03:50:19Z</time>
      </trkpt>
      <trkpt lat="39.847293" lon="-6.346608">
        <ele>451.308</ele>
        <time>2019-02-28T03:50:30Z</time>
      </trkpt>
      <trkpt lat="39.847475" lon="-6.346306">
        <ele>451.042</ele>
        <time>2019-02-28T03:50:41Z</time>
      </trkpt>
      <trkpt lat="39.847728" lon="-6.345866">
        <ele>450.923</ele>
        <time>2019-02-28T03:50:55Z</time>
      </trkpt>
      <trkpt lat="39.848003" lon="-6.345421">
        <ele>451.614</ele>
        <time>2019-02-28T03:51:11Z</time>
      </trkpt>
      <trkpt lat="39.848230" lon="-6.345091">
        <ele>451.663</ele>
        <time>2019-02-28T03:51:26Z</time>
      </trkpt>
      <trkpt lat="39.848242" lon="-6.345076">
        <ele>451.677</ele>
        <time>2019-02-28T03:51:32Z</time>
      </trkpt>
      <trkpt lat="39.848269" lon="-6.345021">
        <ele>451.640</ele>
        <time>2019-02-28T03:51:42Z</time>
      </trkpt>
      <trkpt lat="39.848522" lon="-6.344592">
        <ele>451.519</ele>
        <time>2019-02-28T03:51:56Z</time>
      </trkpt>
      <trkpt lat="39.848819" lon="-6.344045">
        <ele>451.378</ele>
        <time>2019-02-28T03:52:09Z</time>
      </trkpt>
      <trkpt lat="39.849378" lon="-6.342950">
        <ele>450.749</ele>
        <time>2019-02-28T03:52:30Z</time>
      </trkpt>
      <trkpt lat="39.849556" lon="-6.342606">
        <ele>449.902</ele>
        <time>2019-02-28T03:52:37Z</time>
      </trkpt>
      <trkpt lat="39.849735" lon="-6.342149">
        <ele>449.822</ele>
        <time>2019-02-28T03:52:48Z</time>
      </trkpt>
      <trkpt lat="39.850068" lon="-6.341632">
        <ele>451.308</ele>
        <time>2019-02-28T03:53:05Z</time>
      </trkpt>
      <trkpt lat="39.850403" lon="-6.341108">
        <ele>452.547</ele>
        <time>2019-02-28T03:53:23Z</time>
      </trkpt>
      <trkpt lat="39.850539" lon="-6.340843">
        <ele>453.438</ele>
        <time>2019-02-28T03:53:38Z</time>
      </trkpt>
      <trkpt lat="39.850591" lon="-6.340800">
        <ele>453.449</ele>
        <time>2019-02-28T03:54:10Z</time>
      </trkpt>
      <trkpt lat="39.850623" lon="-6.340781">
        <ele>453.568</ele>
        <time>2019-02-28T03:54:13Z</time>
      </trkpt>
      <trkpt lat="39.850628" lon="-6.340768">
        <ele>453.482</ele>
        <time>2019-02-28T03:54:14Z</time>
      </trkpt>
      <trkpt lat="39.850631" lon="-6.340751">
        <ele>453.415</ele>
        <time>2019-02-28T03:54:19Z</time>
      </trkpt>
      <trkpt lat="39.850664" lon="-6.340678">
        <ele>453.414</ele>
        <time>2019-02-28T03:54:51Z</time>
      </trkpt>
      <trkpt lat="39.850734" lon="-6.340546">
        <ele>453.583</ele>
        <time>2019-02-28T03:55:03Z</time>
      </trkpt>
      <trkpt lat="39.850914" lon="-6.340142">
        <ele>453.338</ele>
        <time>2019-02-28T03:55:17Z</time>
      </trkpt>
      <trkpt lat="39.851060" lon="-6.339890">
        <ele>453.070</ele>
        <time>2019-02-28T03:55:24Z</time>
      </trkpt>
      <trkpt lat="39.851120" lon="-6.339741">
        <ele>452.817</ele>
        <time>2019-02-28T03:55:27Z</time>
      </trkpt>
      <trkpt lat="39.851189" lon="-6.339590">
        <ele>452.608</ele>
        <time>2019-02-28T03:55:30Z</time>
      </trkpt>
      <trkpt lat="39.851208" lon="-6.339535">
        <ele>452.516</ele>
        <time>2019-02-28T03:55:31Z</time>
      </trkpt>
      <trkpt lat="39.851243" lon="-6.339418">
        <ele>452.427</ele>
        <time>2019-02-28T03:55:33Z</time>
      </trkpt>
      <trkpt lat="39.851359" lon="-6.339123">
        <ele>451.968</ele>
        <time>2019-02-28T03:55:38Z</time>
      </trkpt>
      <trkpt lat="39.851416" lon="-6.339020">
        <ele>451.667</ele>
        <time>2019-02-28T03:55:40Z</time>
      </trkpt>
      <trkpt lat="39.851444" lon="-6.338968">
        <ele>451.391</ele>
        <time>2019-02-28T03:55:41Z</time>
      </trkpt>
      <trkpt lat="39.851465" lon="-6.338906">
        <ele>451.114</ele>
        <time>2019-02-28T03:55:42Z</time>
      </trkpt>
      <trkpt lat="39.851534" lon="-6.338721">
        <ele>450.463</ele>
        <time>2019-02-28T03:55:45Z</time>
      </trkpt>
      <trkpt lat="39.851896" lon="-6.337911">
        <ele>447.832</ele>
        <time>2019-02-28T03:55:58Z</time>
      </trkpt>
      <trkpt lat="39.851963" lon="-6.337711">
        <ele>447.522</ele>
        <time>2019-02-28T03:56:01Z</time>
      </trkpt>
      <trkpt lat="39.851992" lon="-6.337652">
        <ele>447.562</ele>
        <time>2019-02-28T03:56:02Z</time>
      </trkpt>
      <trkpt lat="39.852026" lon="-6.337595">
        <ele>447.508</ele>
        <time>2019-02-28T03:56:03Z</time>
      </trkpt>
      <trkpt lat="39.852064" lon="-6.337541">
        <ele>447.408</ele>
        <time>2019-02-28T03:56:04Z</time>
      </trkpt>
      <trkpt lat="39.852098" lon="-6.337484">
        <ele>447.385</ele>
        <time>2019-02-28T03:56:05Z</time>
      </trkpt>
      <trkpt lat="39.852125" lon="-6.337427">
        <ele>447.146</ele>
        <time>2019-02-28T03:56:06Z</time>
      </trkpt>
      <trkpt lat="39.852143" lon="-6.337373">
        <ele>447.067</ele>
        <time>2019-02-28T03:56:07Z</time>
      </trkpt>
      <trkpt lat="39.852162" lon="-6.337322">
        <ele>447.046</ele>
        <time>2019-02-28T03:56:08Z</time>
      </trkpt>
      <trkpt lat="39.852174" lon="-6.337267">
        <ele>447.050</ele>
        <time>2019-02-28T03:56:09Z</time>
      </trkpt>
      <trkpt lat="39.852186" lon="-6.337210">
        <ele>446.963</ele>
        <time>2019-02-28T03:56:10Z</time>
      </trkpt>
      <trkpt lat="39.852205" lon="-6.337158">
        <ele>446.872</ele>
        <time>2019-02-28T03:56:11Z</time>
      </trkpt>
      <trkpt lat="39.852234" lon="-6.337114">
        <ele>446.761</ele>
        <time>2019-02-28T03:56:12Z</time>
      </trkpt>
      <trkpt lat="39.852267" lon="-6.337073">
        <ele>446.744</ele>
        <time>2019-02-28T03:56:13Z</time>
      </trkpt>
      <trkpt lat="39.852288" lon="-6.337029">
        <ele>446.705</ele>
        <time>2019-02-28T03:56:14Z</time>
      </trkpt>
      <trkpt lat="39.852297" lon="-6.336993">
        <ele>446.715</ele>
        <time>2019-02-28T03:56:15Z</time>
      </trkpt>
      <trkpt lat="39.852302" lon="-6.336971">
        <ele>446.708</ele>
        <time>2019-02-28T03:56:16Z</time>
      </trkpt>
      <trkpt lat="39.852299" lon="-6.336971">
        <ele>446.737</ele>
        <time>2019-02-28T03:56:20Z</time>
      </trkpt>
      <trkpt lat="39.852323" lon="-6.336903">
        <ele>446.628</ele>
        <time>2019-02-28T03:56:42Z</time>
      </trkpt>
      <trkpt lat="39.852370" lon="-6.336636">
        <ele>446.679</ele>
        <time>2019-02-28T03:56:51Z</time>
      </trkpt>
      <trkpt lat="39.852377" lon="-6.336617">
        <ele>446.668</ele>
        <time>2019-02-28T03:56:52Z</time>
      </trkpt>
      <trkpt lat="39.852395" lon="-6.336593">
        <ele>446.682</ele>
        <time>2019-02-28T03:56:53Z</time>
      </trkpt>
      <trkpt lat="39.852422" lon="-6.336566">
        <ele>446.675</ele>
        <time>2019-02-28T03:56:54Z</time>
      </trkpt>
      <trkpt lat="39.852448" lon="-6.336547">
        <ele>446.674</ele>
        <time>2019-02-28T03:56:55Z</time>
      </trkpt>
      <trkpt lat="39.852468" lon="-6.336527">
        <ele>446.523</ele>
        <time>2019-02-28T03:56:56Z</time>
      </trkpt>
      <trkpt lat="39.852484" lon="-6.336501">
        <ele>446.589</ele>
        <time>2019-02-28T03:56:57Z</time>
      </trkpt>
      <trkpt lat="39.852498" lon="-6.336476">
        <ele>446.506</ele>
        <time>2019-02-28T03:56:58Z</time>
      </trkpt>
      <trkpt lat="39.852512" lon="-6.336453">
        <ele>446.526</ele>
        <time>2019-02-28T03:56:59Z</time>
      </trkpt>
      <trkpt lat="39.852702" lon="-6.336158">
        <ele>446.608</ele>
        <time>2019-02-28T03:57:11Z</time>
      </trkpt>
      <trkpt lat="39.852800" lon="-6.335871">
        <ele>447.051</ele>
        <time>2019-02-28T03:57:24Z</time>
      </trkpt>
      <trkpt lat="39.852837" lon="-6.335816">
        <ele>447.152</ele>
        <time>2019-02-28T03:57:48Z</time>
      </trkpt>
      <trkpt lat="39.852851" lon="-6.335795">
        <ele>447.113</ele>
        <time>2019-02-28T03:57:49Z</time>
      </trkpt>
      <trkpt lat="39.852866" lon="-6.335772">
        <ele>447.162</ele>
        <time>2019-02-28T03:57:50Z</time>
      </trkpt>
      <trkpt lat="39.852882" lon="-6.335746">
        <ele>447.116</ele>
        <time>2019-02-28T03:57:51Z</time>
      </trkpt>
      <trkpt lat="39.852896" lon="-6.335717">
        <ele>447.229</ele>
        <time>2019-02-28T03:57:52Z</time>
      </trkpt>
      <trkpt lat="39.852909" lon="-6.335683">
        <ele>447.298</ele>
        <time>2019-02-28T03:57:53Z</time>
      </trkpt>
      <trkpt lat="39.852921" lon="-6.335649">
        <ele>447.337</ele>
        <time>2019-02-28T03:57:54Z</time>
      </trkpt>
      <trkpt lat="39.853102" lon="-6.335236">
        <ele>447.959</ele>
        <time>2019-02-28T03:58:08Z</time>
      </trkpt>
      <trkpt lat="39.853267" lon="-6.334858">
        <ele>447.903</ele>
        <time>2019-02-28T03:58:20Z</time>
      </trkpt>
      <trkpt lat="39.853423" lon="-6.334395">
        <ele>447.123</ele>
        <time>2019-02-28T03:58:31Z</time>
      </trkpt>
      <trkpt lat="39.853472" lon="-6.334176">
        <ele>447.208</ele>
        <time>2019-02-28T03:58:35Z</time>
      </trkpt>
      <trkpt lat="39.853489" lon="-6.334063">
        <ele>447.378</ele>
        <time>2019-02-28T03:58:37Z</time>
      </trkpt>
      <trkpt lat="39.853507" lon="-6.334011">
        <ele>447.479</ele>
        <time>2019-02-28T03:58:38Z</time>
      </trkpt>
      <trkpt lat="39.853571" lon="-6.333824">
        <ele>447.910</ele>
        <time>2019-02-28T03:58:42Z</time>
      </trkpt>
      <trkpt lat="39.853589" lon="-6.333779">
        <ele>447.969</ele>
        <time>2019-02-28T03:58:43Z</time>
      </trkpt>
      <trkpt lat="39.853608" lon="-6.333746">
        <ele>447.923</ele>
        <time>2019-02-28T03:58:44Z</time>
      </trkpt>
      <trkpt lat="39.853642" lon="-6.333691">
        <ele>448.076</ele>
        <time>2019-02-28T03:58:46Z</time>
      </trkpt>
      <trkpt lat="39.853657" lon="-6.333659">
        <ele>448.095</ele>
        <time>2019-02-28T03:58:47Z</time>
      </trkpt>
      <trkpt lat="39.853674" lon="-6.333628">
        <ele>448.124</ele>
        <time>2019-02-28T03:58:48Z</time>
      </trkpt>
      <trkpt lat="39.853692" lon="-6.333598">
        <ele>448.223</ele>
        <time>2019-02-28T03:58:49Z</time>
      </trkpt>
      <trkpt lat="39.853709" lon="-6.333569">
        <ele>448.383</ele>
        <time>2019-02-28T03:58:50Z</time>
      </trkpt>
      <trkpt lat="39.853725" lon="-6.333539">
        <ele>448.411</ele>
        <time>2019-02-28T03:58:51Z</time>
      </trkpt>
      <trkpt lat="39.853743" lon="-6.333511">
        <ele>448.508</ele>
        <time>2019-02-28T03:58:52Z</time>
      </trkpt>
      <trkpt lat="39.853763" lon="-6.333485">
        <ele>448.635</ele>
        <time>2019-02-28T03:58:53Z</time>
      </trkpt>
      <trkpt lat="39.854069" lon="-6.333027">
        <ele>450.056</ele>
        <time>2019-02-28T03:59:07Z</time>
      </trkpt>
      <trkpt lat="39.854333" lon="-6.332618">
        <ele>451.347</ele>
        <time>2019-02-28T03:59:20Z</time>
      </trkpt>
      <trkpt lat="39.854674" lon="-6.332292">
        <ele>452.936</ele>
        <time>2019-02-28T03:59:33Z</time>
      </trkpt>
      <trkpt lat="39.854958" lon="-6.331806">
        <ele>454.330</ele>
        <time>2019-02-28T03:59:49Z</time>
      </trkpt>
      <trkpt lat="39.855218" lon="-6.331477">
        <ele>455.413</ele>
        <time>2019-02-28T04:00:02Z</time>
      </trkpt>
      <trkpt lat="39.855565" lon="-6.331005">
        <ele>456.382</ele>
        <time>2019-02-28T04:00:20Z</time>
      </trkpt>
      <trkpt lat="39.855847" lon="-6.330603">
        <ele>457.011</ele>
        <time>2019-02-28T04:00:36Z</time>
      </trkpt>
      <trkpt lat="39.856163" lon="-6.330137">
        <ele>457.933</ele>
        <time>2019-02-28T04:00:55Z</time>
      </trkpt>
      <trkpt lat="39.856370" lon="-6.329789">
        <ele>458.623</ele>
        <time>2019-02-28T04:01:08Z</time>
      </trkpt>
      <trkpt lat="39.856417" lon="-6.329720">
        <ele>458.815</ele>
        <time>2019-02-28T04:01:11Z</time>
      </trkpt>
      <trkpt lat="39.856422" lon="-6.329687">
        <ele>458.908</ele>
        <time>2019-02-28T04:01:12Z</time>
      </trkpt>
      <trkpt lat="39.856429" lon="-6.329651">
        <ele>459.066</ele>
        <time>2019-02-28T04:01:13Z</time>
      </trkpt>
      <trkpt lat="39.856580" lon="-6.329163">
        <ele>460.467</ele>
        <time>2019-02-28T04:01:31Z</time>
      </trkpt>
      <trkpt lat="39.856717" lon="-6.328856">
        <ele>461.678</ele>
        <time>2019-02-28T04:01:43Z</time>
      </trkpt>
      <trkpt lat="39.857001" lon="-6.328553">
        <ele>462.957</ele>
        <time>2019-02-28T04:01:58Z</time>
      </trkpt>
      <trkpt lat="39.857015" lon="-6.328525">
        <ele>463.081</ele>
        <time>2019-02-28T04:01:59Z</time>
      </trkpt>
      <trkpt lat="39.857033" lon="-6.328499">
        <ele>463.174</ele>
        <time>2019-02-28T04:02:00Z</time>
      </trkpt>
      <trkpt lat="39.857053" lon="-6.328476">
        <ele>463.213</ele>
        <time>2019-02-28T04:02:01Z</time>
      </trkpt>
      <trkpt lat="39.857074" lon="-6.328455">
        <ele>463.312</ele>
        <time>2019-02-28T04:02:02Z</time>
      </trkpt>
      <trkpt lat="39.857334" lon="-6.328066">
        <ele>464.065</ele>
        <time>2019-02-28T04:02:17Z</time>
      </trkpt>
      <trkpt lat="39.857648" lon="-6.327752">
        <ele>464.468</ele>
        <time>2019-02-28T04:02:33Z</time>
      </trkpt>
      <trkpt lat="39.857959" lon="-6.327268">
        <ele>465.214</ele>
        <time>2019-02-28T04:02:52Z</time>
      </trkpt>
      <trkpt lat="39.858164" lon="-6.327038">
        <ele>465.808</ele>
        <time>2019-02-28T04:03:04Z</time>
      </trkpt>
      <trkpt lat="39.858404" lon="-6.326715">
        <ele>466.519</ele>
        <time>2019-02-28T04:03:19Z</time>
      </trkpt>
      <trkpt lat="39.858594" lon="-6.326511">
        <ele>467.150</ele>
        <time>2019-02-28T04:03:31Z</time>
      </trkpt>
      <trkpt lat="39.858692" lon="-6.326434">
        <ele>467.411</ele>
        <time>2019-02-28T04:03:36Z</time>
      </trkpt>
      <trkpt lat="39.858850" lon="-6.326207">
        <ele>468.350</ele>
        <time>2019-02-28T04:03:48Z</time>
      </trkpt>
      <trkpt lat="39.859180" lon="-6.325934">
        <ele>469.274</ele>
        <time>2019-02-28T04:04:05Z</time>
      </trkpt>
      <trkpt lat="39.859528" lon="-6.325645">
        <ele>469.047</ele>
        <time>2019-02-28T04:04:21Z</time>
      </trkpt>
      <trkpt lat="39.859963" lon="-6.325210">
        <ele>469.286</ele>
        <time>2019-02-28T04:04:37Z</time>
      </trkpt>
      <trkpt lat="39.860291" lon="-6.324956">
        <ele>470.285</ele>
        <time>2019-02-28T04:04:50Z</time>
      </trkpt>
      <trkpt lat="39.860678" lon="-6.324677">
        <ele>471.045</ele>
        <time>2019-02-28T04:05:04Z</time>
      </trkpt>
      <trkpt lat="39.861035" lon="-6.324470">
        <ele>471.047</ele>
        <time>2019-02-28T04:05:19Z</time>
      </trkpt>
      <trkpt lat="39.861074" lon="-6.324463">
        <ele>470.911</ele>
        <time>2019-02-28T04:05:25Z</time>
      </trkpt>
      <trkpt lat="39.861171" lon="-6.324408">
        <ele>470.908</ele>
        <time>2019-02-28T04:05:55Z</time>
      </trkpt>
      <trkpt lat="39.861465" lon="-6.324228">
        <ele>470.737</ele>
        <time>2019-02-28T04:06:12Z</time>
      </trkpt>
      <trkpt lat="39.861463" lon="-6.324226">
        <ele>470.788</ele>
        <time>2019-02-28T04:06:14Z</time>
      </trkpt>
      <trkpt lat="39.861491" lon="-6.324178">
        <ele>470.759</ele>
        <time>2019-02-28T04:08:20Z</time>
      </trkpt>
      <trkpt lat="39.861753" lon="-6.323990">
        <ele>471.328</ele>
        <time>2019-02-28T04:08:32Z</time>
      </trkpt>
      <trkpt lat="39.862044" lon="-6.323774">
        <ele>472.512</ele>
        <time>2019-02-28T04:08:46Z</time>
      </trkpt>
      <trkpt lat="39.862260" lon="-6.323616">
        <ele>473.325</ele>
        <time>2019-02-28T04:08:57Z</time>
      </trkpt>
      <trkpt lat="39.862462" lon="-6.323476">
        <ele>473.724</ele>
        <time>2019-02-28T04:09:08Z</time>
      </trkpt>
      <trkpt lat="39.862473" lon="-6.323459">
        <ele>473.713</ele>
        <time>2019-02-28T04:09:09Z</time>
      </trkpt>
      <trkpt lat="39.862488" lon="-6.323446">
        <ele>473.736</ele>
        <time>2019-02-28T04:09:10Z</time>
      </trkpt>
      <trkpt lat="39.862504" lon="-6.323438">
        <ele>473.717</ele>
        <time>2019-02-28T04:09:11Z</time>
      </trkpt>
      <trkpt lat="39.862518" lon="-6.323435">
        <ele>473.718</ele>
        <time>2019-02-28T04:09:12Z</time>
      </trkpt>
      <trkpt lat="39.862535" lon="-6.323430">
        <ele>473.708</ele>
        <time>2019-02-28T04:09:13Z</time>
      </trkpt>
      <trkpt lat="39.862554" lon="-6.323419">
        <ele>473.826</ele>
        <time>2019-02-28T04:09:14Z</time>
      </trkpt>
      <trkpt lat="39.862575" lon="-6.323409">
        <ele>473.877</ele>
        <time>2019-02-28T04:09:15Z</time>
      </trkpt>
      <trkpt lat="39.862595" lon="-6.323399">
        <ele>473.818</ele>
        <time>2019-02-28T04:09:16Z</time>
      </trkpt>
      <trkpt lat="39.862613" lon="-6.323385">
        <ele>473.817</ele>
        <time>2019-02-28T04:09:17Z</time>
      </trkpt>
      <trkpt lat="39.862630" lon="-6.323369">
        <ele>473.891</ele>
        <time>2019-02-28T04:09:18Z</time>
      </trkpt>
      <trkpt lat="39.862646" lon="-6.323351">
        <ele>473.834</ele>
        <time>2019-02-28T04:09:19Z</time>
      </trkpt>
      <trkpt lat="39.862664" lon="-6.323330">
        <ele>473.823</ele>
        <time>2019-02-28T04:09:20Z</time>
      </trkpt>
      <trkpt lat="39.862683" lon="-6.323307">
        <ele>473.842</ele>
        <time>2019-02-28T04:09:21Z</time>
      </trkpt>
      <trkpt lat="39.863014" lon="-6.323058">
        <ele>473.632</ele>
        <time>2019-02-28T04:09:33Z</time>
      </trkpt>
      <trkpt lat="39.863306" lon="-6.322827">
        <ele>473.592</ele>
        <time>2019-02-28T04:09:43Z</time>
      </trkpt>
      <trkpt lat="39.863667" lon="-6.322556">
        <ele>473.011</ele>
        <time>2019-02-28T04:09:55Z</time>
      </trkpt>
      <trkpt lat="39.863908" lon="-6.322370">
        <ele>472.708</ele>
        <time>2019-02-28T04:10:07Z</time>
      </trkpt>
      <trkpt lat="39.864150" lon="-6.322197">
        <ele>472.636</ele>
        <time>2019-02-28T04:10:21Z</time>
      </trkpt>
      <trkpt lat="39.864235" lon="-6.322139">
        <ele>472.757</ele>
        <time>2019-02-28T04:10:26Z</time>
      </trkpt>
      <trkpt lat="39.864250" lon="-6.322134">
        <ele>472.718</ele>
        <time>2019-02-28T04:10:27Z</time>
      </trkpt>
      <trkpt lat="39.864266" lon="-6.322125">
        <ele>472.717</ele>
        <time>2019-02-28T04:10:28Z</time>
      </trkpt>
      <trkpt lat="39.864533" lon="-6.321916">
        <ele>472.511</ele>
        <time>2019-02-28T04:10:43Z</time>
      </trkpt>
      <trkpt lat="39.864763" lon="-6.321787">
        <ele>472.184</ele>
        <time>2019-02-28T04:10:54Z</time>
      </trkpt>
      <trkpt lat="39.864947" lon="-6.321594">
        <ele>471.713</ele>
        <time>2019-02-28T04:11:06Z</time>
      </trkpt>
      <trkpt lat="39.865150" lon="-6.321384">
        <ele>471.672</ele>
        <time>2019-02-28T04:11:18Z</time>
      </trkpt>
      <trkpt lat="39.865498" lon="-6.320960">
        <ele>471.621</ele>
        <time>2019-02-28T04:11:32Z</time>
      </trkpt>
      <trkpt lat="39.865784" lon="-6.320660">
        <ele>471.641</ele>
        <time>2019-02-28T04:11:45Z</time>
      </trkpt>
      <trkpt lat="39.866138" lon="-6.320233">
        <ele>471.905</ele>
        <time>2019-02-28T04:11:58Z</time>
      </trkpt>
      <trkpt lat="39.866492" lon="-6.319753">
        <ele>472.108</ele>
        <time>2019-02-28T04:12:14Z</time>
      </trkpt>
      <trkpt lat="39.866850" lon="-6.319302">
        <ele>470.745</ele>
        <time>2019-02-28T04:12:30Z</time>
      </trkpt>
      <trkpt lat="39.867213" lon="-6.318861">
        <ele>468.676</ele>
        <time>2019-02-28T04:12:42Z</time>
      </trkpt>
      <trkpt lat="39.867484" lon="-6.318493">
        <ele>467.927</ele>
        <time>2019-02-28T04:12:51Z</time>
      </trkpt>
      <trkpt lat="39.867725" lon="-6.318141">
        <ele>467.926</ele>
        <time>2019-02-28T04:13:02Z</time>
      </trkpt>
      <trkpt lat="39.867906" lon="-6.317735">
        <ele>468.150</ele>
        <time>2019-02-28T04:13:14Z</time>
      </trkpt>
      <trkpt lat="39.868091" lon="-6.317318">
        <ele>468.563</ele>
        <time>2019-02-28T04:13:23Z</time>
      </trkpt>
      <trkpt lat="39.868114" lon="-6.317265">
        <ele>468.452</ele>
        <time>2019-02-28T04:13:24Z</time>
      </trkpt>
      <trkpt lat="39.868130" lon="-6.317210">
        <ele>468.421</ele>
        <time>2019-02-28T04:13:25Z</time>
      </trkpt>
      <trkpt lat="39.868145" lon="-6.317159">
        <ele>468.425</ele>
        <time>2019-02-28T04:13:26Z</time>
      </trkpt>
      <trkpt lat="39.868157" lon="-6.317115">
        <ele>468.426</ele>
        <time>2019-02-28T04:13:27Z</time>
      </trkpt>
      <trkpt lat="39.868167" lon="-6.317072">
        <ele>468.308</ele>
        <time>2019-02-28T04:13:28Z</time>
      </trkpt>
      <trkpt lat="39.868177" lon="-6.317032">
        <ele>468.308</ele>
        <time>2019-02-28T04:13:29Z</time>
      </trkpt>
      <trkpt lat="39.868188" lon="-6.316995">
        <ele>468.455</ele>
        <time>2019-02-28T04:13:30Z</time>
      </trkpt>
      <trkpt lat="39.868400" lon="-6.316421">
        <ele>470.096</ele>
        <time>2019-02-28T04:13:46Z</time>
      </trkpt>
      <trkpt lat="39.868661" lon="-6.315795">
        <ele>472.017</ele>
        <time>2019-02-28T04:14:02Z</time>
      </trkpt>
      <trkpt lat="39.868873" lon="-6.315209">
        <ele>472.696</ele>
        <time>2019-02-28T04:14:17Z</time>
      </trkpt>
      <trkpt lat="39.869093" lon="-6.314646">
        <ele>473.430</ele>
        <time>2019-02-28T04:14:34Z</time>
      </trkpt>
      <trkpt lat="39.869377" lon="-6.314072">
        <ele>473.213</ele>
        <time>2019-02-28T04:14:51Z</time>
      </trkpt>
      <trkpt lat="39.869711" lon="-6.313458">
        <ele>472.462</ele>
        <time>2019-02-28T04:15:06Z</time>
      </trkpt>
      <trkpt lat="39.869735" lon="-6.313415">
        <ele>472.461</ele>
        <time>2019-02-28T04:15:07Z</time>
      </trkpt>
      <trkpt lat="39.869912" lon="-6.313037">
        <ele>471.757</ele>
        <time>2019-02-28T04:15:15Z</time>
      </trkpt>
      <trkpt lat="39.870208" lon="-6.312442">
        <ele>470.800</ele>
        <time>2019-02-28T04:15:30Z</time>
      </trkpt>
      <trkpt lat="39.870385" lon="-6.312235">
        <ele>470.620</ele>
        <time>2019-02-28T04:15:36Z</time>
      </trkpt>
      <trkpt lat="39.870457" lon="-6.312154">
        <ele>470.608</ele>
        <time>2019-02-28T04:15:38Z</time>
      </trkpt>
      <trkpt lat="39.870492" lon="-6.312109">
        <ele>470.518</ele>
        <time>2019-02-28T04:15:39Z</time>
      </trkpt>
      <trkpt lat="39.870905" lon="-6.311565">
        <ele>470.199</ele>
        <time>2019-02-28T04:15:54Z</time>
      </trkpt>
      <trkpt lat="39.871051" lon="-6.311334">
        <ele>469.810</ele>
        <time>2019-02-28T04:16:00Z</time>
      </trkpt>
      <trkpt lat="39.871116" lon="-6.311238">
        <ele>469.869</ele>
        <time>2019-02-28T04:16:02Z</time>
      </trkpt>
      <trkpt lat="39.871255" lon="-6.311062">
        <ele>470.063</ele>
        <time>2019-02-28T04:16:06Z</time>
      </trkpt>
      <trkpt lat="39.871283" lon="-6.311011">
        <ele>470.026</ele>
        <time>2019-02-28T04:16:07Z</time>
      </trkpt>
      <trkpt lat="39.871531" lon="-6.310483">
        <ele>471.025</ele>
        <time>2019-02-28T04:16:21Z</time>
      </trkpt>
      <trkpt lat="39.871696" lon="-6.310116">
        <ele>472.074</ele>
        <time>2019-02-28T04:16:36Z</time>
      </trkpt>
      <trkpt lat="39.871917" lon="-6.309718">
        <ele>472.078</ele>
        <time>2019-02-28T04:16:54Z</time>
      </trkpt>
      <trkpt lat="39.872332" lon="-6.309375">
        <ele>472.633</ele>
        <time>2019-02-28T04:17:07Z</time>
      </trkpt>
      <trkpt lat="39.872979" lon="-6.308988">
        <ele>472.126</ele>
        <time>2019-02-28T04:17:24Z</time>
      </trkpt>
      <trkpt lat="39.873518" lon="-6.308667">
        <ele>469.408</ele>
        <time>2019-02-28T04:17:40Z</time>
      </trkpt>
      <trkpt lat="39.873885" lon="-6.308531">
        <ele>467.370</ele>
        <time>2019-02-28T04:17:49Z</time>
      </trkpt>
      <trkpt lat="39.873925" lon="-6.308525">
        <ele>466.961</ele>
        <time>2019-02-28T04:17:50Z</time>
      </trkpt>
      <trkpt lat="39.873961" lon="-6.308517">
        <ele>466.652</ele>
        <time>2019-02-28T04:17:51Z</time>
      </trkpt>
      <trkpt lat="39.873994" lon="-6.308511">
        <ele>466.521</ele>
        <time>2019-02-28T04:17:52Z</time>
      </trkpt>
      <trkpt lat="39.874033" lon="-6.308510">
        <ele>466.455</ele>
        <time>2019-02-28T04:17:53Z</time>
      </trkpt>
      <trkpt lat="39.874077" lon="-6.308508">
        <ele>466.278</ele>
        <time>2019-02-28T04:17:54Z</time>
      </trkpt>
      <trkpt lat="39.874118" lon="-6.308504">
        <ele>466.057</ele>
        <time>2019-02-28T04:17:55Z</time>
      </trkpt>
      <trkpt lat="39.874194" lon="-6.308493">
        <ele>465.286</ele>
        <time>2019-02-28T04:17:57Z</time>
      </trkpt>
      <trkpt lat="39.874234" lon="-6.308480">
        <ele>465.088</ele>
        <time>2019-02-28T04:17:58Z</time>
      </trkpt>
      <trkpt lat="39.874511" lon="-6.308339">
        <ele>461.924</ele>
        <time>2019-02-28T04:18:08Z</time>
      </trkpt>
      <trkpt lat="39.874517" lon="-6.308338">
        <ele>461.826</ele>
        <time>2019-02-28T04:18:11Z</time>
      </trkpt>
      <trkpt lat="39.874627" lon="-6.308311">
        <ele>460.608</ele>
        <time>2019-02-28T04:18:27Z</time>
      </trkpt>
      <trkpt lat="39.874766" lon="-6.308299">
        <ele>459.671</ele>
        <time>2019-02-28T04:18:31Z</time>
      </trkpt>
      <trkpt lat="39.874808" lon="-6.308308">
        <ele>458.922</ele>
        <time>2019-02-28T04:18:32Z</time>
      </trkpt>
      <trkpt lat="39.874847" lon="-6.308315">
        <ele>458.773</ele>
        <time>2019-02-28T04:18:33Z</time>
      </trkpt>
      <trkpt lat="39.874884" lon="-6.308308">
        <ele>458.532</ele>
        <time>2019-02-28T04:18:34Z</time>
      </trkpt>
      <trkpt lat="39.874921" lon="-6.308292">
        <ele>458.236</ele>
        <time>2019-02-28T04:18:35Z</time>
      </trkpt>
      <trkpt lat="39.875309" lon="-6.308235">
        <ele>455.059</ele>
        <time>2019-02-28T04:18:45Z</time>
      </trkpt>
      <trkpt lat="39.875359" lon="-6.308232">
        <ele>454.668</ele>
        <time>2019-02-28T04:18:46Z</time>
      </trkpt>
      <trkpt lat="39.875660" lon="-6.308292">
        <ele>453.087</ele>
        <time>2019-02-28T04:18:55Z</time>
      </trkpt>
      <trkpt lat="39.875893" lon="-6.308372">
        <ele>452.127</ele>
        <time>2019-02-28T04:19:04Z</time>
      </trkpt>
      <trkpt lat="39.875930" lon="-6.308365">
        <ele>451.768</ele>
        <time>2019-02-28T04:19:09Z</time>
      </trkpt>
      <trkpt lat="39.875930" lon="-6.308363">
        <ele>451.714</ele>
        <time>2019-02-28T04:19:11Z</time>
      </trkpt>
      <trkpt lat="39.876048" lon="-6.308233">
        <ele>450.008</ele>
        <time>2019-02-28T04:20:18Z</time>
      </trkpt>
      <trkpt lat="39.876055" lon="-6.308219">
        <ele>449.985</ele>
        <time>2019-02-28T04:20:19Z</time>
      </trkpt>
      <trkpt lat="39.876064" lon="-6.308206">
        <ele>449.726</ele>
        <time>2019-02-28T04:20:20Z</time>
      </trkpt>
      <trkpt lat="39.876127" lon="-6.308077">
        <ele>448.577</ele>
        <time>2019-02-28T04:20:35Z</time>
      </trkpt>
      <trkpt lat="39.876173" lon="-6.307997">
        <ele>447.736</ele>
        <time>2019-02-28T04:20:47Z</time>
      </trkpt>
      <trkpt lat="39.876330" lon="-6.307889">
        <ele>446.010</ele>
        <time>2019-02-28T04:21:00Z</time>
      </trkpt>
      <trkpt lat="39.876461" lon="-6.307723">
        <ele>444.233</ele>
        <time>2019-02-28T04:21:53Z</time>
      </trkpt>
      <trkpt lat="39.876551" lon="-6.307675">
        <ele>443.442</ele>
        <time>2019-02-28T04:21:56Z</time>
      </trkpt>
      <trkpt lat="39.876720" lon="-6.307671">
        <ele>442.211</ele>
        <time>2019-02-28T04:22:01Z</time>
      </trkpt>
      <trkpt lat="39.876859" lon="-6.307717">
        <ele>441.785</ele>
        <time>2019-02-28T04:22:06Z</time>
      </trkpt>
      <trkpt lat="39.876971" lon="-6.307638">
        <ele>440.789</ele>
        <time>2019-02-28T04:22:12Z</time>
      </trkpt>
      <trkpt lat="39.877098" lon="-6.307517">
        <ele>438.917</ele>
        <time>2019-02-28T04:22:17Z</time>
      </trkpt>
      <trkpt lat="39.877173" lon="-6.307376">
        <ele>437.008</ele>
        <time>2019-02-28T04:22:20Z</time>
      </trkpt>
      <trkpt lat="39.877424" lon="-6.306642">
        <ele>433.521</ele>
        <time>2019-02-28T04:22:35Z</time>
      </trkpt>
      <trkpt lat="39.877598" lon="-6.305993">
        <ele>430.952</ele>
        <time>2019-02-28T04:22:48Z</time>
      </trkpt>
      <trkpt lat="39.877609" lon="-6.305939">
        <ele>430.843</ele>
        <time>2019-02-28T04:22:49Z</time>
      </trkpt>
      <trkpt lat="39.877629" lon="-6.305885">
        <ele>430.622</ele>
        <time>2019-02-28T04:22:50Z</time>
      </trkpt>
      <trkpt lat="39.877652" lon="-6.305832">
        <ele>430.336</ele>
        <time>2019-02-28T04:22:51Z</time>
      </trkpt>
      <trkpt lat="39.877677" lon="-6.305779">
        <ele>430.219</ele>
        <time>2019-02-28T04:22:52Z</time>
      </trkpt>
      <trkpt lat="39.877699" lon="-6.305719">
        <ele>430.078</ele>
        <time>2019-02-28T04:22:53Z</time>
      </trkpt>
      <trkpt lat="39.877716" lon="-6.305658">
        <ele>429.957</ele>
        <time>2019-02-28T04:22:54Z</time>
      </trkpt>
      <trkpt lat="39.877739" lon="-6.305526">
        <ele>429.618</ele>
        <time>2019-02-28T04:22:56Z</time>
      </trkpt>
      <trkpt lat="39.877816" lon="-6.305224">
        <ele>429.098</ele>
        <time>2019-02-28T04:23:02Z</time>
      </trkpt>
      <trkpt lat="39.878130" lon="-6.305032">
        <ele>428.517</ele>
        <time>2019-02-28T04:23:16Z</time>
      </trkpt>
      <trkpt lat="39.878205" lon="-6.304952">
        <ele>428.408</ele>
        <time>2019-02-28T04:23:24Z</time>
      </trkpt>
      <trkpt lat="39.878251" lon="-6.304834">
        <ele>428.394</ele>
        <time>2019-02-28T04:24:23Z</time>
      </trkpt>
      <trkpt lat="39.878452" lon="-6.304441">
        <ele>428.295</ele>
        <time>2019-02-28T04:24:35Z</time>
      </trkpt>
      <trkpt lat="39.878741" lon="-6.303969">
        <ele>427.876</ele>
        <time>2019-02-28T04:24:48Z</time>
      </trkpt>
      <trkpt lat="39.879050" lon="-6.303506">
        <ele>427.025</ele>
        <time>2019-02-28T04:25:00Z</time>
      </trkpt>
      <trkpt lat="39.879270" lon="-6.303228">
        <ele>427.369</ele>
        <time>2019-02-28T04:25:09Z</time>
      </trkpt>
      <trkpt lat="39.879568" lon="-6.302836">
        <ele>427.892</ele>
        <time>2019-02-28T04:25:23Z</time>
      </trkpt>
      <trkpt lat="39.879681" lon="-6.302654">
        <ele>428.171</ele>
        <time>2019-02-28T04:25:27Z</time>
      </trkpt>
      <trkpt lat="39.879720" lon="-6.302607">
        <ele>428.110</ele>
        <time>2019-02-28T04:25:28Z</time>
      </trkpt>
      <trkpt lat="39.880049" lon="-6.302229">
        <ele>426.922</ele>
        <time>2019-02-28T04:25:39Z</time>
      </trkpt>
      <trkpt lat="39.880344" lon="-6.301858">
        <ele>426.462</ele>
        <time>2019-02-28T04:25:50Z</time>
      </trkpt>
      <trkpt lat="39.880726" lon="-6.301389">
        <ele>424.208</ele>
        <time>2019-02-28T04:26:03Z</time>
      </trkpt>
      <trkpt lat="39.880805" lon="-6.301309">
        <ele>424.008</ele>
        <time>2019-02-28T04:26:05Z</time>
      </trkpt>
      <trkpt lat="39.880987" lon="-6.301134">
        <ele>423.635</ele>
        <time>2019-02-28T04:26:14Z</time>
      </trkpt>
      <trkpt lat="39.881162" lon="-6.300826">
        <ele>422.566</ele>
        <time>2019-02-28T04:26:27Z</time>
      </trkpt>
      <trkpt lat="39.881296" lon="-6.300437">
        <ele>421.017</ele>
        <time>2019-02-28T04:26:34Z</time>
      </trkpt>
      <trkpt lat="39.881325" lon="-6.300328">
        <ele>420.566</ele>
        <time>2019-02-28T04:26:36Z</time>
      </trkpt>
      <trkpt lat="39.881418" lon="-6.300069">
        <ele>419.240</ele>
        <time>2019-02-28T04:26:41Z</time>
      </trkpt>
      <trkpt lat="39.881717" lon="-6.299221">
        <ele>412.763</ele>
        <time>2019-02-28T04:26:57Z</time>
      </trkpt>
      <trkpt lat="39.881782" lon="-6.299066">
        <ele>411.052</ele>
        <time>2019-02-28T04:27:00Z</time>
      </trkpt>
      <trkpt lat="39.881823" lon="-6.298957">
        <ele>410.221</ele>
        <time>2019-02-28T04:27:02Z</time>
      </trkpt>
      <trkpt lat="39.881845" lon="-6.298901">
        <ele>409.854</ele>
        <time>2019-02-28T04:27:03Z</time>
      </trkpt>
      <trkpt lat="39.881956" lon="-6.298690">
        <ele>408.456</ele>
        <time>2019-02-28T04:27:08Z</time>
      </trkpt>
      <trkpt lat="39.881982" lon="-6.298648">
        <ele>408.111</ele>
        <time>2019-02-28T04:27:09Z</time>
      </trkpt>
      <trkpt lat="39.882221" lon="-6.298204">
        <ele>405.908</ele>
        <time>2019-02-28T04:27:19Z</time>
      </trkpt>
      <trkpt lat="39.882566" lon="-6.297718">
        <ele>402.788</ele>
        <time>2019-02-28T04:27:29Z</time>
      </trkpt>
      <trkpt lat="39.882793" lon="-6.297389">
        <ele>400.979</ele>
        <time>2019-02-28T04:27:39Z</time>
      </trkpt>
      <trkpt lat="39.882899" lon="-6.297196">
        <ele>400.240</ele>
        <time>2019-02-28T04:27:50Z</time>
      </trkpt>
      <trkpt lat="39.882928" lon="-6.297092">
        <ele>400.129</ele>
        <time>2019-02-28T04:29:06Z</time>
      </trkpt>
      <trkpt lat="39.882943" lon="-6.297065">
        <ele>400.113</ele>
        <time>2019-02-28T04:29:07Z</time>
      </trkpt>
      <trkpt lat="39.882961" lon="-6.297030">
        <ele>400.066</ele>
        <time>2019-02-28T04:29:08Z</time>
      </trkpt>
      <trkpt lat="39.882980" lon="-6.296992">
        <ele>400.055</ele>
        <time>2019-02-28T04:29:09Z</time>
      </trkpt>
      <trkpt lat="39.883181" lon="-6.296710">
        <ele>400.374</ele>
        <time>2019-02-28T04:29:20Z</time>
      </trkpt>
      <trkpt lat="39.883432" lon="-6.296339">
        <ele>400.459</ele>
        <time>2019-02-28T04:29:38Z</time>
      </trkpt>
      <trkpt lat="39.883531" lon="-6.295997">
        <ele>400.503</ele>
        <time>2019-02-28T04:29:47Z</time>
      </trkpt>
      <trkpt lat="39.883547" lon="-6.295945">
        <ele>400.623</ele>
        <time>2019-02-28T04:29:48Z</time>
      </trkpt>
      <trkpt lat="39.883781" lon="-6.295322">
        <ele>401.308</ele>
        <time>2019-02-28T04:30:02Z</time>
      </trkpt>
      <trkpt lat="39.883950" lon="-6.294862">
        <ele>402.568</ele>
        <time>2019-02-28T04:30:15Z</time>
      </trkpt>
      <trkpt lat="39.884102" lon="-6.294567">
        <ele>403.699</ele>
        <time>2019-02-28T04:30:31Z</time>
      </trkpt>
      <trkpt lat="39.884218" lon="-6.294205">
        <ele>404.350</ele>
        <time>2019-02-28T04:30:48Z</time>
      </trkpt>
      <trkpt lat="39.884374" lon="-6.293868">
        <ele>404.719</ele>
        <time>2019-02-28T04:31:05Z</time>
      </trkpt>
      <trkpt lat="39.884577" lon="-6.293548">
        <ele>404.873</ele>
        <time>2019-02-28T04:31:21Z</time>
      </trkpt>
      <trkpt lat="39.884772" lon="-6.293060">
        <ele>406.216</ele>
        <time>2019-02-28T04:31:35Z</time>
      </trkpt>
      <trkpt lat="39.884884" lon="-6.292775">
        <ele>407.495</ele>
        <time>2019-02-28T04:31:40Z</time>
      </trkpt>
      <trkpt lat="39.885297" lon="-6.292154">
        <ele>411.024</ele>
        <time>2019-02-28T04:31:56Z</time>
      </trkpt>
      <trkpt lat="39.885616" lon="-6.291727">
        <ele>416.752</ele>
        <time>2019-02-28T04:32:13Z</time>
      </trkpt>
      <trkpt lat="39.885891" lon="-6.291498">
        <ele>420.653</ele>
        <time>2019-02-28T04:32:30Z</time>
      </trkpt>
      <trkpt lat="39.886053" lon="-6.291327">
        <ele>423.008</ele>
        <time>2019-02-28T04:32:47Z</time>
      </trkpt>
      <trkpt lat="39.886053" lon="-6.291326">
        <ele>423.008</ele>
        <time>2019-02-28T04:32:48Z</time>
      </trkpt>
      <trkpt lat="39.886178" lon="-6.291160">
        <ele>424.778</ele>
        <time>2019-02-28T04:33:07Z</time>
      </trkpt>
      <trkpt lat="39.886231" lon="-6.291092">
        <ele>425.129</ele>
        <time>2019-02-28T04:33:18Z</time>
      </trkpt>
      <trkpt lat="39.886262" lon="-6.291053">
        <ele>425.330</ele>
        <time>2019-02-28T04:33:25Z</time>
      </trkpt>
      <trkpt lat="39.886276" lon="-6.291045">
        <ele>425.399</ele>
        <time>2019-02-28T04:33:26Z</time>
      </trkpt>
      <trkpt lat="39.886291" lon="-6.291040">
        <ele>425.483</ele>
        <time>2019-02-28T04:33:27Z</time>
      </trkpt>
      <trkpt lat="39.886304" lon="-6.291031">
        <ele>425.436</ele>
        <time>2019-02-28T04:33:28Z</time>
      </trkpt>
      <trkpt lat="39.886358" lon="-6.290987">
        <ele>425.675</ele>
        <time>2019-02-28T04:33:33Z</time>
      </trkpt>
      <trkpt lat="39.886366" lon="-6.290975">
        <ele>425.644</ele>
        <time>2019-02-28T04:33:34Z</time>
      </trkpt>
      <trkpt lat="39.886376" lon="-6.290961">
        <ele>425.613</ele>
        <time>2019-02-28T04:33:35Z</time>
      </trkpt>
      <trkpt lat="39.886386" lon="-6.290949">
        <ele>425.743</ele>
        <time>2019-02-28T04:33:36Z</time>
      </trkpt>
      <trkpt lat="39.886397" lon="-6.290939">
        <ele>425.707</ele>
        <time>2019-02-28T04:33:37Z</time>
      </trkpt>
      <trkpt lat="39.886406" lon="-6.290929">
        <ele>425.708</ele>
        <time>2019-02-28T04:33:38Z</time>
      </trkpt>
      <trkpt lat="39.886415" lon="-6.290916">
        <ele>425.794</ele>
        <time>2019-02-28T04:33:39Z</time>
      </trkpt>
      <trkpt lat="39.886550" lon="-6.290783">
        <ele>426.085</ele>
        <time>2019-02-28T04:33:51Z</time>
      </trkpt>
      <trkpt lat="39.886560" lon="-6.290769">
        <ele>426.166</ele>
        <time>2019-02-28T04:33:52Z</time>
      </trkpt>
      <trkpt lat="39.886570" lon="-6.290754">
        <ele>426.185</ele>
        <time>2019-02-28T04:33:53Z</time>
      </trkpt>
      <trkpt lat="39.886582" lon="-6.290740">
        <ele>426.189</ele>
        <time>2019-02-28T04:33:54Z</time>
      </trkpt>
      <trkpt lat="39.886594" lon="-6.290726">
        <ele>426.292</ele>
        <time>2019-02-28T04:33:55Z</time>
      </trkpt>
      <trkpt lat="39.886605" lon="-6.290712">
        <ele>426.221</ele>
        <time>2019-02-28T04:33:56Z</time>
      </trkpt>
      <trkpt lat="39.886618" lon="-6.290699">
        <ele>426.230</ele>
        <time>2019-02-28T04:33:57Z</time>
      </trkpt>
      <trkpt lat="39.886631" lon="-6.290687">
        <ele>426.333</ele>
        <time>2019-02-28T04:33:58Z</time>
      </trkpt>
      <trkpt lat="39.886848" lon="-6.290414">
        <ele>426.623</ele>
        <time>2019-02-28T04:34:19Z</time>
      </trkpt>
      <trkpt lat="39.886847" lon="-6.290411">
        <ele>426.615</ele>
        <time>2019-02-28T04:34:22Z</time>
      </trkpt>
      <trkpt lat="39.886948" lon="-6.290333">
        <ele>426.508</ele>
        <time>2019-02-28T04:35:17Z</time>
      </trkpt>
      <trkpt lat="39.886971" lon="-6.290318">
        <ele>426.586</ele>
        <time>2019-02-28T04:35:18Z</time>
      </trkpt>
      <trkpt lat="39.887145" lon="-6.290235">
        <ele>426.477</ele>
        <time>2019-02-28T04:35:30Z</time>
      </trkpt>
      <trkpt lat="39.887145" lon="-6.290237">
        <ele>426.488</ele>
        <time>2019-02-28T04:35:32Z</time>
      </trkpt>
      <trkpt lat="39.887120" lon="-6.290272">
        <ele>426.557</ele>
        <time>2019-02-28T04:36:08Z</time>
      </trkpt>
      <trkpt lat="39.887108" lon="-6.290275">
        <ele>426.571</ele>
        <time>2019-02-28T04:36:09Z</time>
      </trkpt>
      <trkpt lat="39.887096" lon="-6.290281">
        <ele>426.544</ele>
        <time>2019-02-28T04:36:10Z</time>
      </trkpt>
      <trkpt lat="39.887083" lon="-6.290287">
        <ele>426.543</ele>
        <time>2019-02-28T04:36:11Z</time>
      </trkpt>
      <trkpt lat="39.886859" lon="-6.290410">
        <ele>426.672</ele>
        <time>2019-02-28T04:36:31Z</time>
      </trkpt>
      <trkpt lat="39.886856" lon="-6.290409">
        <ele>426.669</ele>
        <time>2019-02-28T04:36:35Z</time>
      </trkpt>
      <trkpt lat="39.886983" lon="-6.290508">
        <ele>427.204</ele>
        <time>2019-02-28T04:39:08Z</time>
      </trkpt>
      <trkpt lat="39.887002" lon="-6.290513">
        <ele>427.324</ele>
        <time>2019-02-28T04:39:09Z</time>
      </trkpt>
      <trkpt lat="39.887021" lon="-6.290521">
        <ele>427.408</ele>
        <time>2019-02-28T04:39:10Z</time>
      </trkpt>
      <trkpt lat="39.887044" lon="-6.290526">
        <ele>427.529</ele>
        <time>2019-02-28T04:39:11Z</time>
      </trkpt>
      <trkpt lat="39.887066" lon="-6.290531">
        <ele>427.530</ele>
        <time>2019-02-28T04:39:12Z</time>
      </trkpt>
      <trkpt lat="39.887084" lon="-6.290538">
        <ele>427.641</ele>
        <time>2019-02-28T04:39:13Z</time>
      </trkpt>
      <trkpt lat="39.887101" lon="-6.290543">
        <ele>427.720</ele>
        <time>2019-02-28T04:39:14Z</time>
      </trkpt>
      <trkpt lat="39.887116" lon="-6.290551">
        <ele>427.754</ele>
        <time>2019-02-28T04:39:15Z</time>
      </trkpt>
      <trkpt lat="39.887133" lon="-6.290558">
        <ele>427.817</ele>
        <time>2019-02-28T04:39:16Z</time>
      </trkpt>
      <trkpt lat="39.887153" lon="-6.290570">
        <ele>427.846</ele>
        <time>2019-02-28T04:39:17Z</time>
      </trkpt>
      <trkpt lat="39.887173" lon="-6.290584">
        <ele>427.975</ele>
        <time>2019-02-28T04:39:18Z</time>
      </trkpt>
      <trkpt lat="39.887295" lon="-6.290840">
        <ele>428.274</ele>
        <time>2019-02-28T04:39:31Z</time>
      </trkpt>
      <trkpt lat="39.887485" lon="-6.291114">
        <ele>428.556</ele>
        <time>2019-02-28T04:39:45Z</time>
      </trkpt>
      <trkpt lat="39.887595" lon="-6.291264">
        <ele>428.421</ele>
        <time>2019-02-28T04:39:50Z</time>
      </trkpt>
      <trkpt lat="39.887634" lon="-6.291294">
        <ele>428.308</ele>
        <time>2019-02-28T04:39:51Z</time>
      </trkpt>
      <trkpt lat="39.887680" lon="-6.291328">
        <ele>428.480</ele>
        <time>2019-02-28T04:39:52Z</time>
      </trkpt>
      <trkpt lat="39.887724" lon="-6.291369">
        <ele>428.441</ele>
        <time>2019-02-28T04:39:53Z</time>
      </trkpt>
      <trkpt lat="39.887766" lon="-6.291416">
        <ele>428.332</ele>
        <time>2019-02-28T04:39:54Z</time>
      </trkpt>
      <trkpt lat="39.887806" lon="-6.291470">
        <ele>428.251</ele>
        <time>2019-02-28T04:39:55Z</time>
      </trkpt>
      <trkpt lat="39.887837" lon="-6.291532">
        <ele>428.055</ele>
        <time>2019-02-28T04:39:56Z</time>
      </trkpt>
      <trkpt lat="39.887862" lon="-6.291597">
        <ele>427.878</ele>
        <time>2019-02-28T04:39:57Z</time>
      </trkpt>
      <trkpt lat="39.887887" lon="-6.291659">
        <ele>427.727</ele>
        <time>2019-02-28T04:39:58Z</time>
      </trkpt>
      <trkpt lat="39.887914" lon="-6.291717">
        <ele>427.576</ele>
        <time>2019-02-28T04:39:59Z</time>
      </trkpt>
      <trkpt lat="39.888070" lon="-6.292103">
        <ele>426.216</ele>
        <time>2019-02-28T04:40:07Z</time>
      </trkpt>
      <trkpt lat="39.888100" lon="-6.292152">
        <ele>426.176</ele>
        <time>2019-02-28T04:40:08Z</time>
      </trkpt>
      <trkpt lat="39.888354" lon="-6.292447">
        <ele>425.013</ele>
        <time>2019-02-28T04:40:16Z</time>
      </trkpt>
      <trkpt lat="39.888681" lon="-6.292713">
        <ele>423.808</ele>
        <time>2019-02-28T04:40:26Z</time>
      </trkpt>
      <trkpt lat="39.889060" lon="-6.293305">
        <ele>421.264</ele>
        <time>2019-02-28T04:40:35Z</time>
      </trkpt>
      <trkpt lat="39.889354" lon="-6.293795">
        <ele>420.315</ele>
        <time>2019-02-28T04:40:44Z</time>
      </trkpt>
      <trkpt lat="39.889494" lon="-6.293995">
        <ele>420.486</ele>
        <time>2019-02-28T04:40:49Z</time>
      </trkpt>
      <trkpt lat="39.889662" lon="-6.294191">
        <ele>421.025</ele>
        <time>2019-02-28T04:40:54Z</time>
      </trkpt>
      <trkpt lat="39.889688" lon="-6.294236">
        <ele>421.159</ele>
        <time>2019-02-28T04:40:55Z</time>
      </trkpt>
      <trkpt lat="39.889710" lon="-6.294280">
        <ele>421.232</ele>
        <time>2019-02-28T04:40:56Z</time>
      </trkpt>
      <trkpt lat="39.889730" lon="-6.294323">
        <ele>421.371</ele>
        <time>2019-02-28T04:40:57Z</time>
      </trkpt>
      <trkpt lat="39.889751" lon="-6.294361">
        <ele>421.480</ele>
        <time>2019-02-28T04:40:58Z</time>
      </trkpt>
      <trkpt lat="39.889768" lon="-6.294398">
        <ele>421.515</ele>
        <time>2019-02-28T04:40:59Z</time>
      </trkpt>
      <trkpt lat="39.889784" lon="-6.294434">
        <ele>421.665</ele>
        <time>2019-02-28T04:41:00Z</time>
      </trkpt>
      <trkpt lat="39.889984" lon="-6.294787">
        <ele>422.311</ele>
        <time>2019-02-28T04:41:12Z</time>
      </trkpt>
      <trkpt lat="39.890383" lon="-6.295312">
        <ele>420.908</ele>
        <time>2019-02-28T04:41:30Z</time>
      </trkpt>
      <trkpt lat="39.890524" lon="-6.295519">
        <ele>418.874</ele>
        <time>2019-02-28T04:41:34Z</time>
      </trkpt>
      <trkpt lat="39.890645" lon="-6.295647">
        <ele>417.025</ele>
        <time>2019-02-28T04:41:37Z</time>
      </trkpt>
      <trkpt lat="39.890793" lon="-6.295844">
        <ele>414.816</ele>
        <time>2019-02-28T04:41:42Z</time>
      </trkpt>
      <trkpt lat="39.890874" lon="-6.296014">
        <ele>413.515</ele>
        <time>2019-02-28T04:41:45Z</time>
      </trkpt>
      <trkpt lat="39.890955" lon="-6.296239">
        <ele>412.149</ele>
        <time>2019-02-28T04:41:48Z</time>
      </trkpt>
      <trkpt lat="39.890999" lon="-6.296314">
        <ele>411.752</ele>
        <time>2019-02-28T04:41:49Z</time>
      </trkpt>
      <trkpt lat="39.891092" lon="-6.296456">
        <ele>410.761</ele>
        <time>2019-02-28T04:41:51Z</time>
      </trkpt>
      <trkpt lat="39.891133" lon="-6.296516">
        <ele>410.480</ele>
        <time>2019-02-28T04:41:52Z</time>
      </trkpt>
      <trkpt lat="39.891171" lon="-6.296568">
        <ele>410.211</ele>
        <time>2019-02-28T04:41:53Z</time>
      </trkpt>
      <trkpt lat="39.891210" lon="-6.296607">
        <ele>409.921</ele>
        <time>2019-02-28T04:41:54Z</time>
      </trkpt>
      <trkpt lat="39.891254" lon="-6.296638">
        <ele>409.603</ele>
        <time>2019-02-28T04:41:55Z</time>
      </trkpt>
      <trkpt lat="39.891302" lon="-6.296669">
        <ele>409.408</ele>
        <time>2019-02-28T04:41:56Z</time>
      </trkpt>
      <trkpt lat="39.891592" lon="-6.296878">
        <ele>407.654</ele>
        <time>2019-02-28T04:42:02Z</time>
      </trkpt>
      <trkpt lat="39.891896" lon="-6.297146">
        <ele>405.345</ele>
        <time>2019-02-28T04:42:07Z</time>
      </trkpt>
      <trkpt lat="39.892469" lon="-6.297787">
        <ele>405.386</ele>
        <time>2019-02-28T04:42:19Z</time>
      </trkpt>
      <trkpt lat="39.892497" lon="-6.297840">
        <ele>405.345</ele>
        <time>2019-02-28T04:42:20Z</time>
      </trkpt>
      <trkpt lat="39.892712" lon="-6.298152">
        <ele>405.879</ele>
        <time>2019-02-28T04:42:27Z</time>
      </trkpt>
      <trkpt lat="39.892748" lon="-6.298185">
        <ele>405.862</ele>
        <time>2019-02-28T04:42:28Z</time>
      </trkpt>
      <trkpt lat="39.892784" lon="-6.298218">
        <ele>405.971</ele>
        <time>2019-02-28T04:42:29Z</time>
      </trkpt>
      <trkpt lat="39.893130" lon="-6.298511">
        <ele>405.070</ele>
        <time>2019-02-28T04:42:42Z</time>
      </trkpt>
      <trkpt lat="39.893434" lon="-6.298660">
        <ele>403.271</ele>
        <time>2019-02-28T04:42:58Z</time>
      </trkpt>
      <trkpt lat="39.893808" lon="-6.298937">
        <ele>398.441</ele>
        <time>2019-02-28T04:43:10Z</time>
      </trkpt>
      <trkpt lat="39.893947" lon="-6.299080">
        <ele>396.615</ele>
        <time>2019-02-28T04:43:16Z</time>
      </trkpt>
      <trkpt lat="39.894071" lon="-6.299161">
        <ele>394.608</ele>
        <time>2019-02-28T04:43:21Z</time>
      </trkpt>
      <trkpt lat="39.894103" lon="-6.299187">
        <ele>394.240</ele>
        <time>2019-02-28T04:43:22Z</time>
      </trkpt>
      <trkpt lat="39.894216" lon="-6.299263">
        <ele>392.371</ele>
        <time>2019-02-28T04:43:25Z</time>
      </trkpt>
      <trkpt lat="39.894258" lon="-6.299289">
        <ele>391.942</ele>
        <time>2019-02-28T04:43:26Z</time>
      </trkpt>
      <trkpt lat="39.894546" lon="-6.299478">
        <ele>388.851</ele>
        <time>2019-02-28T04:43:31Z</time>
      </trkpt>
      <trkpt lat="39.894800" lon="-6.299647">
        <ele>385.945</ele>
        <time>2019-02-28T04:43:36Z</time>
      </trkpt>
      <trkpt lat="39.894843" lon="-6.299669">
        <ele>385.488</ele>
        <time>2019-02-28T04:43:37Z</time>
      </trkpt>
      <trkpt lat="39.895217" lon="-6.299816">
        <ele>378.157</ele>
        <time>2019-02-28T04:43:43Z</time>
      </trkpt>
      <trkpt lat="39.895424" lon="-6.299869">
        <ele>374.646</ele>
        <time>2019-02-28T04:43:46Z</time>
      </trkpt>
      <trkpt lat="39.895498" lon="-6.299876">
        <ele>373.113</ele>
        <time>2019-02-28T04:43:47Z</time>
      </trkpt>
      <trkpt lat="39.895895" lon="-6.299850">
        <ele>367.743</ele>
        <time>2019-02-28T04:43:53Z</time>
      </trkpt>
      <trkpt lat="39.896233" lon="-6.299882">
        <ele>365.607</ele>
        <time>2019-02-28T04:44:02Z</time>
      </trkpt>
      <trkpt lat="39.896602" lon="-6.299984">
        <ele>363.508</ele>
        <time>2019-02-28T04:44:09Z</time>
      </trkpt>
      <trkpt lat="39.897018" lon="-6.300161">
        <ele>359.874</ele>
        <time>2019-02-28T04:44:17Z</time>
      </trkpt>
      <trkpt lat="39.897507" lon="-6.300415">
        <ele>353.955</ele>
        <time>2019-02-28T04:44:24Z</time>
      </trkpt>
      <trkpt lat="39.897918" lon="-6.300631">
        <ele>351.156</ele>
        <time>2019-02-28T04:44:29Z</time>
      </trkpt>
      <trkpt lat="39.898327" lon="-6.300826">
        <ele>350.345</ele>
        <time>2019-02-28T04:44:34Z</time>
      </trkpt>
      <trkpt lat="39.898604" lon="-6.300968">
        <ele>350.219</ele>
        <time>2019-02-28T04:44:38Z</time>
      </trkpt>
      <trkpt lat="39.899121" lon="-6.301248">
        <ele>350.792</ele>
        <time>2019-02-28T04:44:49Z</time>
      </trkpt>
      <trkpt lat="39.899448" lon="-6.301415">
        <ele>349.961</ele>
        <time>2019-02-28T04:44:59Z</time>
      </trkpt>
      <trkpt lat="39.899916" lon="-6.301637">
        <ele>349.120</ele>
        <time>2019-02-28T04:45:07Z</time>
      </trkpt>
      <trkpt lat="39.900394" lon="-6.301814">
        <ele>351.667</ele>
        <time>2019-02-28T04:45:17Z</time>
      </trkpt>
      <trkpt lat="39.900651" lon="-6.301924">
        <ele>353.581</ele>
        <time>2019-02-28T04:45:31Z</time>
      </trkpt>
      <trkpt lat="39.900947" lon="-6.302024">
        <ele>355.219</ele>
        <time>2019-02-28T04:45:50Z</time>
      </trkpt>
      <trkpt lat="39.901236" lon="-6.302086">
        <ele>356.608</ele>
        <time>2019-02-28T04:46:08Z</time>
      </trkpt>
      <trkpt lat="39.901543" lon="-6.302096">
        <ele>357.599</ele>
        <time>2019-02-28T04:46:26Z</time>
      </trkpt>
      <trkpt lat="39.901842" lon="-6.302092">
        <ele>356.710</ele>
        <time>2019-02-28T04:46:44Z</time>
      </trkpt>
      <trkpt lat="39.902169" lon="-6.302179">
        <ele>355.741</ele>
        <time>2019-02-28T04:46:58Z</time>
      </trkpt>
      <trkpt lat="39.902347" lon="-6.302293">
        <ele>354.370</ele>
        <time>2019-02-28T04:47:04Z</time>
      </trkpt>
      <trkpt lat="39.902382" lon="-6.302328">
        <ele>353.974</ele>
        <time>2019-02-28T04:47:05Z</time>
      </trkpt>
      <trkpt lat="39.902426" lon="-6.302364">
        <ele>353.397</ele>
        <time>2019-02-28T04:47:06Z</time>
      </trkpt>
      <trkpt lat="39.902814" lon="-6.302626">
        <ele>346.566</ele>
        <time>2019-02-28T04:47:13Z</time>
      </trkpt>
      <trkpt lat="39.902867" lon="-6.302667">
        <ele>345.655</ele>
        <time>2019-02-28T04:47:14Z</time>
      </trkpt>
      <trkpt lat="39.903040" lon="-6.302798">
        <ele>342.762</ele>
        <time>2019-02-28T04:47:17Z</time>
      </trkpt>
      <trkpt lat="39.903303" lon="-6.302979">
        <ele>338.983</ele>
        <time>2019-02-28T04:47:21Z</time>
      </trkpt>
      <trkpt lat="39.903556" lon="-6.303157">
        <ele>334.811</ele>
        <time>2019-02-28T04:47:25Z</time>
      </trkpt>
      <trkpt lat="39.903809" lon="-6.303337">
        <ele>331.508</ele>
        <time>2019-02-28T04:47:29Z</time>
      </trkpt>
      <trkpt lat="39.904039" lon="-6.303504">
        <ele>328.549</ele>
        <time>2019-02-28T04:47:33Z</time>
      </trkpt>
      <trkpt lat="39.904256" lon="-6.303659">
        <ele>326.190</ele>
        <time>2019-02-28T04:47:37Z</time>
      </trkpt>
      <trkpt lat="39.904529" lon="-6.303848">
        <ele>323.871</ele>
        <time>2019-02-28T04:47:41Z</time>
      </trkpt>
      <trkpt lat="39.904771" lon="-6.304008">
        <ele>322.380</ele>
        <time>2019-02-28T04:47:44Z</time>
      </trkpt>
      <trkpt lat="39.905171" lon="-6.304260">
        <ele>321.764</ele>
        <time>2019-02-28T04:47:49Z</time>
      </trkpt>
      <trkpt lat="39.905807" lon="-6.304652">
        <ele>323.887</ele>
        <time>2019-02-28T04:48:00Z</time>
      </trkpt>
      <trkpt lat="39.906175" lon="-6.304784">
        <ele>325.346</ele>
        <time>2019-02-28T04:48:13Z</time>
      </trkpt>
      <trkpt lat="39.906514" lon="-6.304910">
        <ele>325.825</ele>
        <time>2019-02-28T04:48:31Z</time>
      </trkpt>
      <trkpt lat="39.907032" lon="-6.305075">
        <ele>322.698</ele>
        <time>2019-02-28T04:48:45Z</time>
      </trkpt>
      <trkpt lat="39.907781" lon="-6.305300">
        <ele>319.515</ele>
        <time>2019-02-28T04:48:54Z</time>
      </trkpt>
      <trkpt lat="39.907930" lon="-6.305347">
        <ele>319.626</ele>
        <time>2019-02-28T04:48:56Z</time>
      </trkpt>
      <trkpt lat="39.908497" lon="-6.305523">
        <ele>319.908</ele>
        <time>2019-02-28T04:49:07Z</time>
      </trkpt>
      <trkpt lat="39.909008" lon="-6.305696">
        <ele>319.652</ele>
        <time>2019-02-28T04:49:23Z</time>
      </trkpt>
      <trkpt lat="39.909114" lon="-6.305724">
        <ele>319.323</ele>
        <time>2019-02-28T04:49:25Z</time>
      </trkpt>
      <trkpt lat="39.909173" lon="-6.305748">
        <ele>319.174</ele>
        <time>2019-02-28T04:49:26Z</time>
      </trkpt>
      <trkpt lat="39.909981" lon="-6.306047">
        <ele>314.253</ele>
        <time>2019-02-28T04:49:37Z</time>
      </trkpt>
      <trkpt lat="39.910625" lon="-6.306267">
        <ele>313.027</ele>
        <time>2019-02-28T04:49:45Z</time>
      </trkpt>
      <trkpt lat="39.911042" lon="-6.306382">
        <ele>310.240</ele>
        <time>2019-02-28T04:49:51Z</time>
      </trkpt>
      <trkpt lat="39.911108" lon="-6.306410">
        <ele>309.559</ele>
        <time>2019-02-28T04:49:52Z</time>
      </trkpt>
      <trkpt lat="39.911177" lon="-6.306440">
        <ele>308.918</ele>
        <time>2019-02-28T04:49:53Z</time>
      </trkpt>
      <trkpt lat="39.911836" lon="-6.306665">
        <ele>302.864</ele>
        <time>2019-02-28T04:50:02Z</time>
      </trkpt>
      <trkpt lat="39.912173" lon="-6.306772">
        <ele>297.606</ele>
        <time>2019-02-28T04:50:07Z</time>
      </trkpt>
      <trkpt lat="39.912364" lon="-6.306827">
        <ele>295.616</ele>
        <time>2019-02-28T04:50:10Z</time>
      </trkpt>
      <trkpt lat="39.912595" lon="-6.306888">
        <ele>294.708</ele>
        <time>2019-02-28T04:50:14Z</time>
      </trkpt>
      <trkpt lat="39.912644" lon="-6.306893">
        <ele>294.769</ele>
        <time>2019-02-28T04:50:15Z</time>
      </trkpt>
      <trkpt lat="39.912841" lon="-6.306880">
        <ele>293.460</ele>
        <time>2019-02-28T04:50:20Z</time>
      </trkpt>
      <trkpt lat="39.913064" lon="-6.306804">
        <ele>291.541</ele>
        <time>2019-02-28T04:50:25Z</time>
      </trkpt>
      <trkpt lat="39.913136" lon="-6.306799">
        <ele>290.970</ele>
        <time>2019-02-28T04:50:26Z</time>
      </trkpt>
      <trkpt lat="39.913638" lon="-6.306802">
        <ele>288.584</ele>
        <time>2019-02-28T04:50:33Z</time>
      </trkpt>
      <trkpt lat="39.913690" lon="-6.306789">
        <ele>288.287</ele>
        <time>2019-02-28T04:50:34Z</time>
      </trkpt>
      <trkpt lat="39.914079" lon="-6.306641">
        <ele>286.586</ele>
        <time>2019-02-28T04:50:42Z</time>
      </trkpt>
      <trkpt lat="39.914723" lon="-6.306396">
        <ele>284.375</ele>
        <time>2019-02-28T04:50:55Z</time>
      </trkpt>
      <trkpt lat="39.915405" lon="-6.305977">
        <ele>281.989</ele>
        <time>2019-02-28T04:51:09Z</time>
      </trkpt>
      <trkpt lat="39.915996" lon="-6.305395">
        <ele>279.406</ele>
        <time>2019-02-28T04:51:23Z</time>
      </trkpt>
      <trkpt lat="39.916775" lon="-6.304832">
        <ele>276.526</ele>
        <time>2019-02-28T04:51:42Z</time>
      </trkpt>
      <trkpt lat="39.917018" lon="-6.304784">
        <ele>275.908</ele>
        <time>2019-02-28T04:51:47Z</time>
      </trkpt>
      <trkpt lat="39.917311" lon="-6.304786">
        <ele>275.431</ele>
        <time>2019-02-28T04:51:53Z</time>
      </trkpt>
      <trkpt lat="39.917593" lon="-6.304823">
        <ele>274.972</ele>
        <time>2019-02-28T04:51:59Z</time>
      </trkpt>
      <trkpt lat="39.917635" lon="-6.304821">
        <ele>274.873</ele>
        <time>2019-02-28T04:52:00Z</time>
      </trkpt>
      <trkpt lat="39.918189" lon="-6.304600">
        <ele>273.042</ele>
        <time>2019-02-28T04:52:12Z</time>
      </trkpt>
      <trkpt lat="39.918726" lon="-6.304416">
        <ele>272.646</ele>
        <time>2019-02-28T04:52:23Z</time>
      </trkpt>
      <trkpt lat="39.918993" lon="-6.304322">
        <ele>272.219</ele>
        <time>2019-02-28T04:52:34Z</time>
      </trkpt>
      <trkpt lat="39.918996" lon="-6.304326">
        <ele>272.298</ele>
        <time>2019-02-28T04:52:36Z</time>
      </trkpt>
      <trkpt lat="39.919103" lon="-6.304282">
        <ele>272.157</ele>
        <time>2019-02-28T04:52:54Z</time>
      </trkpt>
      <trkpt lat="39.919109" lon="-6.304248">
        <ele>272.174</ele>
        <time>2019-02-28T04:52:55Z</time>
      </trkpt>
      <trkpt lat="39.919112" lon="-6.304209">
        <ele>272.156</ele>
        <time>2019-02-28T04:52:56Z</time>
      </trkpt>
      <trkpt lat="39.919112" lon="-6.304171">
        <ele>272.221</ele>
        <time>2019-02-28T04:52:57Z</time>
      </trkpt>
      <trkpt lat="39.919110" lon="-6.304136">
        <ele>272.208</ele>
        <time>2019-02-28T04:52:58Z</time>
      </trkpt>
      <trkpt lat="39.919124" lon="-6.303850">
        <ele>272.280</ele>
        <time>2019-02-28T04:53:12Z</time>
      </trkpt>
      <trkpt lat="39.919091" lon="-6.303817">
        <ele>272.261</ele>
        <time>2019-02-28T05:08:42Z</time>
      </trkpt>
      <trkpt lat="39.919111" lon="-6.303882">
        <ele>272.112</ele>
        <time>2019-02-28T05:08:45Z</time>
      </trkpt>
      <trkpt lat="39.919172" lon="-6.304277">
        <ele>271.951</ele>
        <time>2019-02-28T05:08:57Z</time>
      </trkpt>
      <trkpt lat="39.919248" lon="-6.304672">
        <ele>271.945</ele>
        <time>2019-02-28T05:09:08Z</time>
      </trkpt>
      <trkpt lat="39.919387" lon="-6.305294">
        <ele>271.768</ele>
        <time>2019-02-28T05:09:21Z</time>
      </trkpt>
      <trkpt lat="39.919500" lon="-6.305941">
        <ele>271.267</ele>
        <time>2019-02-28T05:09:32Z</time>
      </trkpt>
      <trkpt lat="39.919506" lon="-6.306069">
        <ele>271.116</ele>
        <time>2019-02-28T05:09:34Z</time>
      </trkpt>
      <trkpt lat="39.919516" lon="-6.306136">
        <ele>271.081</ele>
        <time>2019-02-28T05:09:35Z</time>
      </trkpt>
      <trkpt lat="39.919564" lon="-6.306395">
        <ele>270.561</ele>
        <time>2019-02-28T05:09:39Z</time>
      </trkpt>
      <trkpt lat="39.919583" lon="-6.306601">
        <ele>270.117</ele>
        <time>2019-02-28T05:09:48Z</time>
      </trkpt>
      <trkpt lat="39.919661" lon="-6.306648">
        <ele>269.808</ele>
        <time>2019-02-28T05:10:33Z</time>
      </trkpt>
      <trkpt lat="39.919751" lon="-6.307154">
        <ele>268.771</ele>
        <time>2019-02-28T05:10:44Z</time>
      </trkpt>
      <trkpt lat="39.919956" lon="-6.308213">
        <ele>266.922</ele>
        <time>2019-02-28T05:11:01Z</time>
      </trkpt>
      <trkpt lat="39.920236" lon="-6.309402">
        <ele>265.413</ele>
        <time>2019-02-28T05:11:19Z</time>
      </trkpt>
      <trkpt lat="39.920274" lon="-6.309517">
        <ele>264.862</ele>
        <time>2019-02-28T05:11:21Z</time>
      </trkpt>
      <trkpt lat="39.920300" lon="-6.309559">
        <ele>264.286</ele>
        <time>2019-02-28T05:11:22Z</time>
      </trkpt>
      <trkpt lat="39.920330" lon="-6.309586">
        <ele>264.149</ele>
        <time>2019-02-28T05:11:23Z</time>
      </trkpt>
      <trkpt lat="39.920362" lon="-6.309600">
        <ele>264.038</ele>
        <time>2019-02-28T05:11:24Z</time>
      </trkpt>
      <trkpt lat="39.920394" lon="-6.309605">
        <ele>264.047</ele>
        <time>2019-02-28T05:11:25Z</time>
      </trkpt>
      <trkpt lat="39.920426" lon="-6.309601">
        <ele>263.879</ele>
        <time>2019-02-28T05:11:26Z</time>
      </trkpt>
      <trkpt lat="39.920461" lon="-6.309595">
        <ele>263.705</ele>
        <time>2019-02-28T05:11:27Z</time>
      </trkpt>
      <trkpt lat="39.920541" lon="-6.309591">
        <ele>263.425</ele>
        <time>2019-02-28T05:11:29Z</time>
      </trkpt>
      <trkpt lat="39.920585" lon="-6.309598">
        <ele>263.308</ele>
        <time>2019-02-28T05:11:30Z</time>
      </trkpt>
      <trkpt lat="39.920630" lon="-6.309615">
        <ele>263.040</ele>
        <time>2019-02-28T05:11:31Z</time>
      </trkpt>
      <trkpt lat="39.920672" lon="-6.309643">
        <ele>263.051</ele>
        <time>2019-02-28T05:11:32Z</time>
      </trkpt>
      <trkpt lat="39.920712" lon="-6.309677">
        <ele>263.082</ele>
        <time>2019-02-28T05:11:33Z</time>
      </trkpt>
      <trkpt lat="39.920748" lon="-6.309718">
        <ele>263.091</ele>
        <time>2019-02-28T05:11:34Z</time>
      </trkpt>
      <trkpt lat="39.920781" lon="-6.309766">
        <ele>263.035</ele>
        <time>2019-02-28T05:11:35Z</time>
      </trkpt>
      <trkpt lat="39.920809" lon="-6.309818">
        <ele>262.998</ele>
        <time>2019-02-28T05:11:36Z</time>
      </trkpt>
      <trkpt lat="39.920832" lon="-6.309873">
        <ele>262.997</ele>
        <time>2019-02-28T05:11:37Z</time>
      </trkpt>
      <trkpt lat="39.920852" lon="-6.309929">
        <ele>262.956</ele>
        <time>2019-02-28T05:11:38Z</time>
      </trkpt>
      <trkpt lat="39.920871" lon="-6.309986">
        <ele>262.971</ele>
        <time>2019-02-28T05:11:39Z</time>
      </trkpt>
      <trkpt lat="39.921165" lon="-6.311100">
        <ele>262.041</ele>
        <time>2019-02-28T05:11:56Z</time>
      </trkpt>
      <trkpt lat="39.921541" lon="-6.311929">
        <ele>261.415</ele>
        <time>2019-02-28T05:12:10Z</time>
      </trkpt>
      <trkpt lat="39.921973" lon="-6.312644">
        <ele>261.408</ele>
        <time>2019-02-28T05:12:25Z</time>
      </trkpt>
      <trkpt lat="39.922031" lon="-6.312761">
        <ele>261.350</ele>
        <time>2019-02-28T05:12:27Z</time>
      </trkpt>
      <trkpt lat="39.922449" lon="-6.313591">
        <ele>261.371</ele>
        <time>2019-02-28T05:12:42Z</time>
      </trkpt>
      <trkpt lat="39.923097" lon="-6.314816">
        <ele>259.762</ele>
        <time>2019-02-28T05:13:04Z</time>
      </trkpt>
      <trkpt lat="39.923787" lon="-6.316089">
        <ele>258.091</ele>
        <time>2019-02-28T05:13:23Z</time>
      </trkpt>
      <trkpt lat="39.924499" lon="-6.317179">
        <ele>256.885</ele>
        <time>2019-02-28T05:13:39Z</time>
      </trkpt>
      <trkpt lat="39.925188" lon="-6.318099">
        <ele>256.428</ele>
        <time>2019-02-28T05:13:53Z</time>
      </trkpt>
      <trkpt lat="39.925730" lon="-6.318861">
        <ele>256.387</ele>
        <time>2019-02-28T05:14:05Z</time>
      </trkpt>
      <trkpt lat="39.925773" lon="-6.318892">
        <ele>256.286</ele>
        <time>2019-02-28T05:14:06Z</time>
      </trkpt>
      <trkpt lat="39.925819" lon="-6.318891">
        <ele>256.215</ele>
        <time>2019-02-28T05:14:07Z</time>
      </trkpt>
      <trkpt lat="39.925863" lon="-6.318866">
        <ele>256.265</ele>
        <time>2019-02-28T05:14:08Z</time>
      </trkpt>
      <trkpt lat="39.925903" lon="-6.318831">
        <ele>256.211</ele>
        <time>2019-02-28T05:14:09Z</time>
      </trkpt>
      <trkpt lat="39.925944" lon="-6.318791">
        <ele>256.208</ele>
        <time>2019-02-28T05:14:10Z</time>
      </trkpt>
      <trkpt lat="39.926772" lon="-6.318020">
        <ele>254.864</ele>
        <time>2019-02-28T05:14:27Z</time>
      </trkpt>
      <trkpt lat="39.927817" lon="-6.317152">
        <ele>254.745</ele>
        <time>2019-02-28T05:14:46Z</time>
      </trkpt>
      <trkpt lat="39.928594" lon="-6.316910">
        <ele>255.096</ele>
        <time>2019-02-28T05:15:00Z</time>
      </trkpt>
      <trkpt lat="39.928995" lon="-6.316889">
        <ele>255.495</ele>
        <time>2019-02-28T05:15:08Z</time>
      </trkpt>
      <trkpt lat="39.929693" lon="-6.316792">
        <ele>256.169</ele>
        <time>2019-02-28T05:15:25Z</time>
      </trkpt>
      <trkpt lat="39.930342" lon="-6.316350">
        <ele>256.262</ele>
        <time>2019-02-28T05:15:42Z</time>
      </trkpt>
      <trkpt lat="39.931020" lon="-6.315838">
        <ele>256.361</ele>
        <time>2019-02-28T05:16:00Z</time>
      </trkpt>
      <trkpt lat="39.931805" lon="-6.315222">
        <ele>257.670</ele>
        <time>2019-02-28T05:16:21Z</time>
      </trkpt>
      <trkpt lat="39.932480" lon="-6.314719">
        <ele>258.334</ele>
        <time>2019-02-28T05:16:41Z</time>
      </trkpt>
      <trkpt lat="39.933267" lon="-6.314169">
        <ele>259.255</ele>
        <time>2019-02-28T05:17:01Z</time>
      </trkpt>
      <trkpt lat="39.934194" lon="-6.313716">
        <ele>260.510</ele>
        <time>2019-02-28T05:17:25Z</time>
      </trkpt>
      <trkpt lat="39.934737" lon="-6.313443">
        <ele>260.408</ele>
        <time>2019-02-28T05:17:44Z</time>
      </trkpt>
      <trkpt lat="39.935129" lon="-6.313253">
        <ele>260.366</ele>
        <time>2019-02-28T05:17:57Z</time>
      </trkpt>
      <trkpt lat="39.935763" lon="-6.312994">
        <ele>260.697</ele>
        <time>2019-02-28T05:18:14Z</time>
      </trkpt>
      <trkpt lat="39.936427" lon="-6.312751">
        <ele>260.648</ele>
        <time>2019-02-28T05:18:30Z</time>
      </trkpt>
      <trkpt lat="39.936510" lon="-6.312726">
        <ele>260.727</ele>
        <time>2019-02-28T05:18:32Z</time>
      </trkpt>
      <trkpt lat="39.937397" lon="-6.312382">
        <ele>261.041</ele>
        <time>2019-02-28T05:18:52Z</time>
      </trkpt>
      <trkpt lat="39.938047" lon="-6.312144">
        <ele>260.494</ele>
        <time>2019-02-28T05:19:09Z</time>
      </trkpt>
      <trkpt lat="39.938590" lon="-6.311904">
        <ele>258.813</ele>
        <time>2019-02-28T05:19:24Z</time>
      </trkpt>
      <trkpt lat="39.938587" lon="-6.311905">
        <ele>258.862</ele>
        <time>2019-02-28T05:19:26Z</time>
      </trkpt>
      <trkpt lat="39.938648" lon="-6.311904">
        <ele>258.767</ele>
        <time>2019-02-28T05:20:05Z</time>
      </trkpt>
      <trkpt lat="39.938674" lon="-6.311893">
        <ele>258.681</ele>
        <time>2019-02-28T05:20:06Z</time>
      </trkpt>
      <trkpt lat="39.938702" lon="-6.311881">
        <ele>258.519</ele>
        <time>2019-02-28T05:20:07Z</time>
      </trkpt>
      <trkpt lat="39.939280" lon="-6.311647">
        <ele>256.908</ele>
        <time>2019-02-28T05:20:22Z</time>
      </trkpt>
      <trkpt lat="39.940150" lon="-6.311283">
        <ele>256.279</ele>
        <time>2019-02-28T05:20:38Z</time>
      </trkpt>
      <trkpt lat="39.941343" lon="-6.310783">
        <ele>254.230</ele>
        <time>2019-02-28T05:20:58Z</time>
      </trkpt>
      <trkpt lat="39.942276" lon="-6.310229">
        <ele>252.591</ele>
        <time>2019-02-28T05:21:15Z</time>
      </trkpt>
      <trkpt lat="39.943352" lon="-6.309403">
        <ele>252.070</ele>
        <time>2019-02-28T05:21:37Z</time>
      </trkpt>
      <trkpt lat="39.944289" lon="-6.308671">
        <ele>251.864</ele>
        <time>2019-02-28T05:21:57Z</time>
      </trkpt>
      <trkpt lat="39.945255" lon="-6.307892">
        <ele>253.247</ele>
        <time>2019-02-28T05:22:19Z</time>
      </trkpt>
      <trkpt lat="39.945296" lon="-6.307847">
        <ele>253.296</ele>
        <time>2019-02-28T05:22:20Z</time>
      </trkpt>
      <trkpt lat="39.945334" lon="-6.307799">
        <ele>253.145</ele>
        <time>2019-02-28T05:22:21Z</time>
      </trkpt>
      <trkpt lat="39.945369" lon="-6.307748">
        <ele>253.088</ele>
        <time>2019-02-28T05:22:22Z</time>
      </trkpt>
      <trkpt lat="39.945401" lon="-6.307694">
        <ele>252.924</ele>
        <time>2019-02-28T05:22:23Z</time>
      </trkpt>
      <trkpt lat="39.945431" lon="-6.307636">
        <ele>252.826</ele>
        <time>2019-02-28T05:22:24Z</time>
      </trkpt>
      <trkpt lat="39.946013" lon="-6.306933">
        <ele>250.408</ele>
        <time>2019-02-28T05:22:36Z</time>
      </trkpt>
      <trkpt lat="39.946388" lon="-6.306046">
        <ele>246.391</ele>
        <time>2019-02-28T05:22:45Z</time>
      </trkpt>
      <trkpt lat="39.946610" lon="-6.305264">
        <ele>242.672</ele>
        <time>2019-02-28T05:22:52Z</time>
      </trkpt>
      <trkpt lat="39.946928" lon="-6.304158">
        <ele>241.563</ele>
        <time>2019-02-28T05:23:05Z</time>
      </trkpt>
      <trkpt lat="39.947256" lon="-6.303057">
        <ele>241.112</ele>
        <time>2019-02-28T05:23:22Z</time>
      </trkpt>
      <trkpt lat="39.947640" lon="-6.301768">
        <ele>241.366</ele>
        <time>2019-02-28T05:23:42Z</time>
      </trkpt>
      <trkpt lat="39.947861" lon="-6.301037">
        <ele>241.289</ele>
        <time>2019-02-28T05:23:55Z</time>
      </trkpt>
      <trkpt lat="39.948176" lon="-6.299970">
        <ele>241.458</ele>
        <time>2019-02-28T05:24:14Z</time>
      </trkpt>
      <trkpt lat="39.948554" lon="-6.298680">
        <ele>241.917</ele>
        <time>2019-02-28T05:24:36Z</time>
      </trkpt>
      <trkpt lat="39.948826" lon="-6.297811">
        <ele>242.792</ele>
        <time>2019-02-28T05:24:52Z</time>
      </trkpt>
      <trkpt lat="39.948917" lon="-6.297585">
        <ele>243.073</ele>
        <time>2019-02-28T05:24:56Z</time>
      </trkpt>
      <trkpt lat="39.949483" lon="-6.296895">
        <ele>243.020</ele>
        <time>2019-02-28T05:25:12Z</time>
      </trkpt>
      <trkpt lat="39.950279" lon="-6.296293">
        <ele>242.608</ele>
        <time>2019-02-28T05:25:30Z</time>
      </trkpt>
      <trkpt lat="39.950999" lon="-6.295754">
        <ele>242.372</ele>
        <time>2019-02-28T05:25:47Z</time>
      </trkpt>
      <trkpt lat="39.951331" lon="-6.295493">
        <ele>242.243</ele>
        <time>2019-02-28T05:25:55Z</time>
      </trkpt>
      <trkpt lat="39.952098" lon="-6.294915">
        <ele>242.224</ele>
        <time>2019-02-28T05:26:13Z</time>
      </trkpt>
      <trkpt lat="39.952932" lon="-6.294285">
        <ele>243.013</ele>
        <time>2019-02-28T05:26:34Z</time>
      </trkpt>
      <trkpt lat="39.953513" lon="-6.293851">
        <ele>244.947</ele>
        <time>2019-02-28T05:26:53Z</time>
      </trkpt>
      <trkpt lat="39.954011" lon="-6.293384">
        <ele>247.470</ele>
        <time>2019-02-28T05:27:12Z</time>
      </trkpt>
      <trkpt lat="39.954181" lon="-6.292907">
        <ele>250.179</ele>
        <time>2019-02-28T05:27:29Z</time>
      </trkpt>
      <trkpt lat="39.954317" lon="-6.292283">
        <ele>252.818</ele>
        <time>2019-02-28T05:27:49Z</time>
      </trkpt>
      <trkpt lat="39.954434" lon="-6.291570">
        <ele>255.738</ele>
        <time>2019-02-28T05:28:09Z</time>
      </trkpt>
      <trkpt lat="39.954376" lon="-6.290830">
        <ele>258.770</ele>
        <time>2019-02-28T05:28:29Z</time>
      </trkpt>
      <trkpt lat="39.954310" lon="-6.290126">
        <ele>261.817</ele>
        <time>2019-02-28T05:28:49Z</time>
      </trkpt>
      <trkpt lat="39.954247" lon="-6.289460">
        <ele>264.708</ele>
        <time>2019-02-28T05:29:09Z</time>
      </trkpt>
      <trkpt lat="39.954260" lon="-6.288901">
        <ele>266.966</ele>
        <time>2019-02-28T05:29:26Z</time>
      </trkpt>
      <trkpt lat="39.954338" lon="-6.288363">
        <ele>268.257</ele>
        <time>2019-02-28T05:29:42Z</time>
      </trkpt>
      <trkpt lat="39.954449" lon="-6.287607">
        <ele>268.978</ele>
        <time>2019-02-28T05:30:00Z</time>
      </trkpt>
      <trkpt lat="39.954549" lon="-6.287178">
        <ele>269.337</ele>
        <time>2019-02-28T05:30:13Z</time>
      </trkpt>
      <trkpt lat="39.954757" lon="-6.286820">
        <ele>270.131</ele>
        <time>2019-02-28T05:30:25Z</time>
      </trkpt>
      <trkpt lat="39.955353" lon="-6.286580">
        <ele>270.534</ele>
        <time>2019-02-28T05:30:42Z</time>
      </trkpt>
      <trkpt lat="39.956121" lon="-6.286491">
        <ele>270.533</ele>
        <time>2019-02-28T05:30:59Z</time>
      </trkpt>
      <trkpt lat="39.956575" lon="-6.286392">
        <ele>268.262</ele>
        <time>2019-02-28T05:31:06Z</time>
      </trkpt>
      <trkpt lat="39.957307" lon="-6.286012">
        <ele>262.723</ele>
        <time>2019-02-28T05:31:15Z</time>
      </trkpt>
      <trkpt lat="39.957989" lon="-6.285672">
        <ele>256.783</ele>
        <time>2019-02-28T05:31:22Z</time>
      </trkpt>
      <trkpt lat="39.958518" lon="-6.285408">
        <ele>251.611</ele>
        <time>2019-02-28T05:31:27Z</time>
      </trkpt>
      <trkpt lat="39.958967" lon="-6.285196">
        <ele>247.708</ele>
        <time>2019-02-28T05:31:31Z</time>
      </trkpt>
      <trkpt lat="39.959421" lon="-6.284972">
        <ele>244.465</ele>
        <time>2019-02-28T05:31:35Z</time>
      </trkpt>
      <trkpt lat="39.960001" lon="-6.284674">
        <ele>242.976</ele>
        <time>2019-02-28T05:31:41Z</time>
      </trkpt>
      <trkpt lat="39.960775" lon="-6.284283">
        <ele>244.237</ele>
        <time>2019-02-28T05:31:52Z</time>
      </trkpt>
      <trkpt lat="39.961260" lon="-6.284046">
        <ele>246.366</ele>
        <time>2019-02-28T05:32:05Z</time>
      </trkpt>
      <trkpt lat="39.961637" lon="-6.283862">
        <ele>250.730</ele>
        <time>2019-02-28T05:32:21Z</time>
      </trkpt>
      <trkpt lat="39.962076" lon="-6.283648">
        <ele>255.393</ele>
        <time>2019-02-28T05:32:41Z</time>
      </trkpt>
      <trkpt lat="39.962465" lon="-6.283454">
        <ele>259.072</ele>
        <time>2019-02-28T05:33:00Z</time>
      </trkpt>
      <trkpt lat="39.962862" lon="-6.283249">
        <ele>262.891</ele>
        <time>2019-02-28T05:33:19Z</time>
      </trkpt>
      <trkpt lat="39.963303" lon="-6.283033">
        <ele>266.045</ele>
        <time>2019-02-28T05:33:40Z</time>
      </trkpt>
      <trkpt lat="39.963765" lon="-6.282804">
        <ele>269.547</ele>
        <time>2019-02-28T05:34:02Z</time>
      </trkpt>
      <trkpt lat="39.964295" lon="-6.282542">
        <ele>272.711</ele>
        <time>2019-02-28T05:34:26Z</time>
      </trkpt>
      <trkpt lat="39.964703" lon="-6.282333">
        <ele>273.908</ele>
        <time>2019-02-28T05:34:43Z</time>
      </trkpt>
      <trkpt lat="39.965146" lon="-6.281959">
        <ele>274.787</ele>
        <time>2019-02-28T05:35:01Z</time>
      </trkpt>
      <trkpt lat="39.965541" lon="-6.281365">
        <ele>276.218</ele>
        <time>2019-02-28T05:35:21Z</time>
      </trkpt>
      <trkpt lat="39.965767" lon="-6.280701">
        <ele>276.259</ele>
        <time>2019-02-28T05:35:38Z</time>
      </trkpt>
      <trkpt lat="39.966002" lon="-6.279748">
        <ele>274.398</ele>
        <time>2019-02-28T05:35:53Z</time>
      </trkpt>
      <trkpt lat="39.966330" lon="-6.278538">
        <ele>270.942</ele>
        <time>2019-02-28T05:36:09Z</time>
      </trkpt>
      <trkpt lat="39.966410" lon="-6.278192">
        <ele>270.235</ele>
        <time>2019-02-28T05:36:14Z</time>
      </trkpt>
      <trkpt lat="39.966518" lon="-6.277758">
        <ele>269.114</ele>
        <time>2019-02-28T05:36:26Z</time>
      </trkpt>
      <trkpt lat="39.966614" lon="-6.277439">
        <ele>268.423</ele>
        <time>2019-02-28T05:36:33Z</time>
      </trkpt>
      <trkpt lat="39.966621" lon="-6.277384">
        <ele>268.355</ele>
        <time>2019-02-28T05:36:34Z</time>
      </trkpt>
      <trkpt lat="39.966632" lon="-6.277329">
        <ele>268.207</ele>
        <time>2019-02-28T05:36:35Z</time>
      </trkpt>
      <trkpt lat="39.966645" lon="-6.277273">
        <ele>268.117</ele>
        <time>2019-02-28T05:36:36Z</time>
      </trkpt>
      <trkpt lat="39.966655" lon="-6.277218">
        <ele>268.008</ele>
        <time>2019-02-28T05:36:37Z</time>
      </trkpt>
      <trkpt lat="39.966753" lon="-6.276857">
        <ele>267.278</ele>
        <time>2019-02-28T05:36:44Z</time>
      </trkpt>
      <trkpt lat="39.966959" lon="-6.276120">
        <ele>267.169</ele>
        <time>2019-02-28T05:36:58Z</time>
      </trkpt>
      <trkpt lat="39.967161" lon="-6.275827">
        <ele>267.890</ele>
        <time>2019-02-28T05:37:05Z</time>
      </trkpt>
      <trkpt lat="39.967200" lon="-6.275798">
        <ele>267.919</ele>
        <time>2019-02-28T05:37:06Z</time>
      </trkpt>
      <trkpt lat="39.967508" lon="-6.275645">
        <ele>267.933</ele>
        <time>2019-02-28T05:37:13Z</time>
      </trkpt>
      <trkpt lat="39.968472" lon="-6.275518">
        <ele>266.516</ele>
        <time>2019-02-28T05:37:30Z</time>
      </trkpt>
      <trkpt lat="39.969400" lon="-6.275385">
        <ele>266.215</ele>
        <time>2019-02-28T05:37:47Z</time>
      </trkpt>
      <trkpt lat="39.970486" lon="-6.275214">
        <ele>265.994</ele>
        <time>2019-02-28T05:38:07Z</time>
      </trkpt>
      <trkpt lat="39.971344" lon="-6.275118">
        <ele>265.476</ele>
        <time>2019-02-28T05:38:23Z</time>
      </trkpt>
      <trkpt lat="39.971713" lon="-6.275065">
        <ele>265.190</ele>
        <time>2019-02-28T05:38:31Z</time>
      </trkpt>
      <trkpt lat="39.972526" lon="-6.274936">
        <ele>265.419</ele>
        <time>2019-02-28T05:38:48Z</time>
      </trkpt>
      <trkpt lat="39.973453" lon="-6.274797">
        <ele>265.308</ele>
        <time>2019-02-28T05:39:06Z</time>
      </trkpt>
      <trkpt lat="39.974396" lon="-6.274582">
        <ele>265.240</ele>
        <time>2019-02-28T05:39:25Z</time>
      </trkpt>
      <trkpt lat="39.974439" lon="-6.274543">
        <ele>265.131</ele>
        <time>2019-02-28T05:39:26Z</time>
      </trkpt>
      <trkpt lat="39.974564" lon="-6.274412">
        <ele>264.892</ele>
        <time>2019-02-28T05:39:29Z</time>
      </trkpt>
      <trkpt lat="39.975010" lon="-6.273614">
        <ele>262.241</ele>
        <time>2019-02-28T05:39:41Z</time>
      </trkpt>
      <trkpt lat="39.975326" lon="-6.272792">
        <ele>258.375</ele>
        <time>2019-02-28T05:39:53Z</time>
      </trkpt>
      <trkpt lat="39.975610" lon="-6.272027">
        <ele>257.558</ele>
        <time>2019-02-28T05:40:07Z</time>
      </trkpt>
      <trkpt lat="39.975594" lon="-6.271659">
        <ele>260.467</ele>
        <time>2019-02-28T05:40:21Z</time>
      </trkpt>
      <trkpt lat="39.975648" lon="-6.271354">
        <ele>262.146</ele>
        <time>2019-02-28T05:40:34Z</time>
      </trkpt>
      <trkpt lat="39.975730" lon="-6.271035">
        <ele>262.638</ele>
        <time>2019-02-28T05:40:47Z</time>
      </trkpt>
      <trkpt lat="39.975732" lon="-6.270715">
        <ele>264.570</ele>
        <time>2019-02-28T05:41:01Z</time>
      </trkpt>
      <trkpt lat="39.975738" lon="-6.270703">
        <ele>264.617</ele>
        <time>2019-02-28T05:41:05Z</time>
      </trkpt>
      <trkpt lat="39.975800" lon="-6.270614">
        <ele>265.608</ele>
        <time>2019-02-28T05:41:30Z</time>
      </trkpt>
      <trkpt lat="39.975976" lon="-6.270368">
        <ele>268.676</ele>
        <time>2019-02-28T05:41:46Z</time>
      </trkpt>
      <trkpt lat="39.976141" lon="-6.270157">
        <ele>271.367</ele>
        <time>2019-02-28T05:42:00Z</time>
      </trkpt>
      <trkpt lat="39.976351" lon="-6.269918">
        <ele>274.968</ele>
        <time>2019-02-28T05:42:16Z</time>
      </trkpt>
      <trkpt lat="39.976473" lon="-6.269814">
        <ele>277.147</ele>
        <time>2019-02-28T05:42:25Z</time>
      </trkpt>
      <trkpt lat="39.976482" lon="-6.269806">
        <ele>277.281</ele>
        <time>2019-02-28T05:42:26Z</time>
      </trkpt>
      <trkpt lat="39.976492" lon="-6.269794">
        <ele>277.494</ele>
        <time>2019-02-28T05:42:27Z</time>
      </trkpt>
      <trkpt lat="39.976500" lon="-6.269776">
        <ele>277.783</ele>
        <time>2019-02-28T05:42:28Z</time>
      </trkpt>
      <trkpt lat="39.976507" lon="-6.269759">
        <ele>277.992</ele>
        <time>2019-02-28T05:42:29Z</time>
      </trkpt>
      <trkpt lat="39.976511" lon="-6.269742">
        <ele>278.178</ele>
        <time>2019-02-28T05:42:30Z</time>
      </trkpt>
      <trkpt lat="39.976512" lon="-6.269724">
        <ele>278.333</ele>
        <time>2019-02-28T05:42:31Z</time>
      </trkpt>
      <trkpt lat="39.976505" lon="-6.269713">
        <ele>278.426</ele>
        <time>2019-02-28T05:42:32Z</time>
      </trkpt>
      <trkpt lat="39.976492" lon="-6.269706">
        <ele>278.908</ele>
        <time>2019-02-28T05:42:33Z</time>
      </trkpt>
      <trkpt lat="39.976476" lon="-6.269708">
        <ele>279.060</ele>
        <time>2019-02-28T05:42:34Z</time>
      </trkpt>
      <trkpt lat="39.976460" lon="-6.269715">
        <ele>279.221</ele>
        <time>2019-02-28T05:42:35Z</time>
      </trkpt>
      <trkpt lat="39.976442" lon="-6.269721">
        <ele>279.332</ele>
        <time>2019-02-28T05:42:36Z</time>
      </trkpt>
      <trkpt lat="39.976424" lon="-6.269723">
        <ele>279.441</ele>
        <time>2019-02-28T05:42:37Z</time>
      </trkpt>
      <trkpt lat="39.976406" lon="-6.269724">
        <ele>279.615</ele>
        <time>2019-02-28T05:42:38Z</time>
      </trkpt>
      <trkpt lat="39.976387" lon="-6.269725">
        <ele>279.768</ele>
        <time>2019-02-28T05:42:39Z</time>
      </trkpt>
      <trkpt lat="39.976367" lon="-6.269725">
        <ele>279.997</ele>
        <time>2019-02-28T05:42:40Z</time>
      </trkpt>
      <trkpt lat="39.975991" lon="-6.269763">
        <ele>283.176</ele>
        <time>2019-02-28T05:42:59Z</time>
      </trkpt>
      <trkpt lat="39.975641" lon="-6.269793">
        <ele>286.187</ele>
        <time>2019-02-28T05:43:17Z</time>
      </trkpt>
      <trkpt lat="39.975381" lon="-6.269771">
        <ele>287.942</ele>
        <time>2019-02-28T05:43:31Z</time>
      </trkpt>
      <trkpt lat="39.975152" lon="-6.269501">
        <ele>289.826</ele>
        <time>2019-02-28T05:43:47Z</time>
      </trkpt>
      <trkpt lat="39.974925" lon="-6.269090">
        <ele>292.108</ele>
        <time>2019-02-28T05:44:06Z</time>
      </trkpt>
      <trkpt lat="39.974908" lon="-6.268748">
        <ele>294.291</ele>
        <time>2019-02-28T05:44:21Z</time>
      </trkpt>
      <trkpt lat="39.974896" lon="-6.268575">
        <ele>295.292</ele>
        <time>2019-02-28T05:44:32Z</time>
      </trkpt>
      <trkpt lat="39.974879" lon="-6.268471">
        <ele>295.943</ele>
        <time>2019-02-28T05:44:40Z</time>
      </trkpt>
      <trkpt lat="39.974923" lon="-6.268358">
        <ele>296.732</ele>
        <time>2019-02-28T05:50:17Z</time>
      </trkpt>
      <trkpt lat="39.974934" lon="-6.268340">
        <ele>296.916</ele>
        <time>2019-02-28T05:50:18Z</time>
      </trkpt>
      <trkpt lat="39.974944" lon="-6.268322">
        <ele>297.139</ele>
        <time>2019-02-28T05:50:19Z</time>
      </trkpt>
      <trkpt lat="39.974954" lon="-6.268305">
        <ele>297.258</ele>
        <time>2019-02-28T05:50:20Z</time>
      </trkpt>
      <trkpt lat="39.974964" lon="-6.268288">
        <ele>297.417</ele>
        <time>2019-02-28T05:50:21Z</time>
      </trkpt>
      <trkpt lat="39.974971" lon="-6.268270">
        <ele>297.656</ele>
        <time>2019-02-28T05:50:22Z</time>
      </trkpt>
      <trkpt lat="39.975053" lon="-6.267999">
        <ele>302.559</ele>
        <time>2019-02-28T05:50:39Z</time>
      </trkpt>
      <trkpt lat="39.975076" lon="-6.267942">
        <ele>303.614</ele>
        <time>2019-02-28T05:50:45Z</time>
      </trkpt>
      <trkpt lat="39.975089" lon="-6.267941">
        <ele>303.908</ele>
        <time>2019-02-28T05:50:46Z</time>
      </trkpt>
      <trkpt lat="39.975102" lon="-6.267936">
        <ele>304.288</ele>
        <time>2019-02-28T05:50:47Z</time>
      </trkpt>
      <trkpt lat="39.975118" lon="-6.267925">
        <ele>304.549</ele>
        <time>2019-02-28T05:50:52Z</time>
      </trkpt>
      <trkpt lat="39.975276" lon="-6.267938">
        <ele>306.250</ele>
        <time>2019-02-28T05:51:33Z</time>
      </trkpt>
      <trkpt lat="39.975347" lon="-6.268200">
        <ele>305.269</ele>
        <time>2019-02-28T05:51:45Z</time>
      </trkpt>
      <trkpt lat="39.975479" lon="-6.268154">
        <ele>305.823</ele>
        <time>2019-02-28T05:51:56Z</time>
      </trkpt>
      <trkpt lat="39.975634" lon="-6.267937">
        <ele>306.756</ele>
        <time>2019-02-28T05:52:07Z</time>
      </trkpt>
      <trkpt lat="39.975811" lon="-6.267782">
        <ele>307.175</ele>
        <time>2019-02-28T05:52:16Z</time>
      </trkpt>
      <trkpt lat="39.975916" lon="-6.267635">
        <ele>307.444</ele>
        <time>2019-02-28T05:52:22Z</time>
      </trkpt>
      <trkpt lat="39.975926" lon="-6.267321">
        <ele>307.117</ele>
        <time>2019-02-28T05:52:31Z</time>
      </trkpt>
      <trkpt lat="39.976062" lon="-6.267153">
        <ele>307.187</ele>
        <time>2019-02-28T05:52:37Z</time>
      </trkpt>
      <trkpt lat="39.976270" lon="-6.267055">
        <ele>307.015</ele>
        <time>2019-02-28T05:52:45Z</time>
      </trkpt>
      <trkpt lat="39.976365" lon="-6.267206">
        <ele>307.308</ele>
        <time>2019-02-28T05:52:51Z</time>
      </trkpt>
      <trkpt lat="39.976507" lon="-6.267617">
        <ele>306.134</ele>
        <time>2019-02-28T05:53:04Z</time>
      </trkpt>
      <trkpt lat="39.976501" lon="-6.267648">
        <ele>306.075</ele>
        <time>2019-02-28T05:53:10Z</time>
      </trkpt>
      <trkpt lat="39.976557" lon="-6.267745">
        <ele>305.576</ele>
        <time>2019-02-28T05:53:26Z</time>
      </trkpt>
      <trkpt lat="39.976596" lon="-6.267818">
        <ele>305.275</ele>
        <time>2019-02-28T05:53:34Z</time>
      </trkpt>
      <trkpt lat="39.976691" lon="-6.267833">
        <ele>303.999</ele>
        <time>2019-02-28T05:54:03Z</time>
      </trkpt>
      <trkpt lat="39.976711" lon="-6.267856">
        <ele>303.562</ele>
        <time>2019-02-28T05:54:04Z</time>
      </trkpt>
      <trkpt lat="39.976731" lon="-6.267881">
        <ele>303.281</ele>
        <time>2019-02-28T05:54:05Z</time>
      </trkpt>
      <trkpt lat="39.976815" lon="-6.267965">
        <ele>301.040</ele>
        <time>2019-02-28T05:54:08Z</time>
      </trkpt>
      <trkpt lat="39.976845" lon="-6.268005">
        <ele>300.267</ele>
        <time>2019-02-28T05:54:09Z</time>
      </trkpt>
      <trkpt lat="39.976875" lon="-6.268047">
        <ele>299.481</ele>
        <time>2019-02-28T05:54:10Z</time>
      </trkpt>
      <trkpt lat="39.976995" lon="-6.268236">
        <ele>295.919</ele>
        <time>2019-02-28T05:54:14Z</time>
      </trkpt>
      <trkpt lat="39.977233" lon="-6.268761">
        <ele>287.308</ele>
        <time>2019-02-28T05:54:23Z</time>
      </trkpt>
      <trkpt lat="39.977411" lon="-6.269007">
        <ele>282.119</ele>
        <time>2019-02-28T05:54:28Z</time>
      </trkpt>
      <trkpt lat="39.977548" lon="-6.269105">
        <ele>279.470</ele>
        <time>2019-02-28T05:54:31Z</time>
      </trkpt>
      <trkpt lat="39.977604" lon="-6.269131">
        <ele>278.661</ele>
        <time>2019-02-28T05:54:32Z</time>
      </trkpt>
      <trkpt lat="39.977662" lon="-6.269159">
        <ele>277.940</ele>
        <time>2019-02-28T05:54:33Z</time>
      </trkpt>
      <trkpt lat="39.977779" lon="-6.269214">
        <ele>276.444</ele>
        <time>2019-02-28T05:54:35Z</time>
      </trkpt>
      <trkpt lat="39.978090" lon="-6.269315">
        <ele>272.887</ele>
        <time>2019-02-28T05:54:40Z</time>
      </trkpt>
      <trkpt lat="39.978328" lon="-6.269372">
        <ele>269.766</ele>
        <time>2019-02-28T05:54:44Z</time>
      </trkpt>
      <trkpt lat="39.978614" lon="-6.269451">
        <ele>264.535</ele>
        <time>2019-02-28T05:54:48Z</time>
      </trkpt>
      <trkpt lat="39.978685" lon="-6.269485">
        <ele>263.352</ele>
        <time>2019-02-28T05:54:49Z</time>
      </trkpt>
      <trkpt lat="39.978748" lon="-6.269528">
        <ele>261.853</ele>
        <time>2019-02-28T05:54:50Z</time>
      </trkpt>
      <trkpt lat="39.978804" lon="-6.269584">
        <ele>260.308</ele>
        <time>2019-02-28T05:54:51Z</time>
      </trkpt>
      <trkpt lat="39.979031" lon="-6.269804">
        <ele>257.508</ele>
        <time>2019-02-28T05:54:55Z</time>
      </trkpt>
      <trkpt lat="39.979371" lon="-6.270075">
        <ele>257.078</ele>
        <time>2019-02-28T05:55:00Z</time>
      </trkpt>
      <trkpt lat="39.979740" lon="-6.270438">
        <ele>254.259</ele>
        <time>2019-02-28T05:55:05Z</time>
      </trkpt>
      <trkpt lat="39.980183" lon="-6.270958">
        <ele>249.870</ele>
        <time>2019-02-28T05:55:11Z</time>
      </trkpt>
      <trkpt lat="39.980228" lon="-6.270999">
        <ele>249.369</ele>
        <time>2019-02-28T05:55:12Z</time>
      </trkpt>
      <trkpt lat="39.980268" lon="-6.271025">
        <ele>248.833</ele>
        <time>2019-02-28T05:55:13Z</time>
      </trkpt>
      <trkpt lat="39.980725" lon="-6.271247">
        <ele>246.956</ele>
        <time>2019-02-28T05:55:23Z</time>
      </trkpt>
      <trkpt lat="39.981120" lon="-6.271347">
        <ele>247.185</ele>
        <time>2019-02-28T05:55:36Z</time>
      </trkpt>
      <trkpt lat="39.981118" lon="-6.271349">
        <ele>247.184</ele>
        <time>2019-02-28T05:55:40Z</time>
      </trkpt>
      <trkpt lat="39.981169" lon="-6.271359">
        <ele>247.143</ele>
        <time>2019-02-28T05:55:55Z</time>
      </trkpt>
      <trkpt lat="39.981449" lon="-6.271344">
        <ele>247.964</ele>
        <time>2019-02-28T05:56:10Z</time>
      </trkpt>
      <trkpt lat="39.981449" lon="-6.271344">
        <ele>247.910</ele>
        <time>2019-02-28T05:56:13Z</time>
      </trkpt>
      <trkpt lat="39.981476" lon="-6.271363">
        <ele>248.108</ele>
        <time>2019-02-28T05:57:26Z</time>
      </trkpt>
      <trkpt lat="39.981489" lon="-6.271366">
        <ele>248.287</ele>
        <time>2019-02-28T05:57:27Z</time>
      </trkpt>
      <trkpt lat="39.981693" lon="-6.271395">
        <ele>250.678</ele>
        <time>2019-02-28T05:57:44Z</time>
      </trkpt>
      <trkpt lat="39.982150" lon="-6.271432">
        <ele>252.329</ele>
        <time>2019-02-28T05:57:53Z</time>
      </trkpt>
      <trkpt lat="39.982609" lon="-6.271559">
        <ele>254.388</ele>
        <time>2019-02-28T05:58:02Z</time>
      </trkpt>
      <trkpt lat="39.982894" lon="-6.271609">
        <ele>258.122</ele>
        <time>2019-02-28T05:58:16Z</time>
      </trkpt>
      <trkpt lat="39.983097" lon="-6.271487">
        <ele>260.635</ele>
        <time>2019-02-28T05:58:28Z</time>
      </trkpt>
      <trkpt lat="39.983325" lon="-6.271218">
        <ele>263.194</ele>
        <time>2019-02-28T05:58:45Z</time>
      </trkpt>
      <trkpt lat="39.983547" lon="-6.270952">
        <ele>264.193</ele>
        <time>2019-02-28T05:59:01Z</time>
      </trkpt>
      <trkpt lat="39.983616" lon="-6.270476">
        <ele>262.033</ele>
        <time>2019-02-28T05:59:13Z</time>
      </trkpt>
      <trkpt lat="39.983630" lon="-6.270306">
        <ele>261.323</ele>
        <time>2019-02-28T05:59:16Z</time>
      </trkpt>
      <trkpt lat="39.983634" lon="-6.270179">
        <ele>260.815</ele>
        <time>2019-02-28T05:59:18Z</time>
      </trkpt>
      <trkpt lat="39.983690" lon="-6.269994">
        <ele>260.208</ele>
        <time>2019-02-28T05:59:22Z</time>
      </trkpt>
      <trkpt lat="39.983898" lon="-6.269561">
        <ele>259.566</ele>
        <time>2019-02-28T05:59:33Z</time>
      </trkpt>
      <trkpt lat="39.984129" lon="-6.269413">
        <ele>259.447</ele>
        <time>2019-02-28T05:59:39Z</time>
      </trkpt>
      <trkpt lat="39.984180" lon="-6.269423">
        <ele>259.468</ele>
        <time>2019-02-28T05:59:40Z</time>
      </trkpt>
      <trkpt lat="39.984231" lon="-6.269443">
        <ele>259.557</ele>
        <time>2019-02-28T05:59:41Z</time>
      </trkpt>
      <trkpt lat="39.984280" lon="-6.269474">
        <ele>259.691</ele>
        <time>2019-02-28T05:59:42Z</time>
      </trkpt>
      <trkpt lat="39.984328" lon="-6.269510">
        <ele>259.824</ele>
        <time>2019-02-28T05:59:43Z</time>
      </trkpt>
      <trkpt lat="39.984378" lon="-6.269540">
        <ele>259.963</ele>
        <time>2019-02-28T05:59:44Z</time>
      </trkpt>
      <trkpt lat="39.984433" lon="-6.269560">
        <ele>260.092</ele>
        <time>2019-02-28T05:59:45Z</time>
      </trkpt>
      <trkpt lat="39.984491" lon="-6.269567">
        <ele>260.135</ele>
        <time>2019-02-28T05:59:46Z</time>
      </trkpt>
      <trkpt lat="39.984551" lon="-6.269566">
        <ele>260.286</ele>
        <time>2019-02-28T05:59:47Z</time>
      </trkpt>
      <trkpt lat="39.984611" lon="-6.269562">
        <ele>260.414</ele>
        <time>2019-02-28T05:59:48Z</time>
      </trkpt>
      <trkpt lat="39.985300" lon="-6.269428">
        <ele>261.808</ele>
        <time>2019-02-28T06:00:00Z</time>
      </trkpt>
      <trkpt lat="39.985417" lon="-6.269397">
        <ele>261.986</ele>
        <time>2019-02-28T06:00:03Z</time>
      </trkpt>
      <trkpt lat="39.985454" lon="-6.269395">
        <ele>262.077</ele>
        <time>2019-02-28T06:00:04Z</time>
      </trkpt>
      <trkpt lat="39.985476" lon="-6.269405">
        <ele>262.098</ele>
        <time>2019-02-28T06:00:05Z</time>
      </trkpt>
      <trkpt lat="39.985503" lon="-6.269406">
        <ele>262.047</ele>
        <time>2019-02-28T06:00:06Z</time>
      </trkpt>
      <trkpt lat="39.985534" lon="-6.269410">
        <ele>262.041</ele>
        <time>2019-02-28T06:00:07Z</time>
      </trkpt>
      <trkpt lat="39.986006" lon="-6.269127">
        <ele>262.774</ele>
        <time>2019-02-28T06:00:22Z</time>
      </trkpt>
      <trkpt lat="39.986032" lon="-6.269084">
        <ele>262.733</ele>
        <time>2019-02-28T06:00:23Z</time>
      </trkpt>
      <trkpt lat="39.986243" lon="-6.268578">
        <ele>262.232</ele>
        <time>2019-02-28T06:00:34Z</time>
      </trkpt>
      <trkpt lat="39.986394" lon="-6.267545">
        <ele>261.998</ele>
        <time>2019-02-28T06:00:49Z</time>
      </trkpt>
      <trkpt lat="39.986425" lon="-6.267487">
        <ele>261.915</ele>
        <time>2019-02-28T06:00:50Z</time>
      </trkpt>
      <trkpt lat="39.986460" lon="-6.267433">
        <ele>261.926</ele>
        <time>2019-02-28T06:00:51Z</time>
      </trkpt>
      <trkpt lat="39.986498" lon="-6.267381">
        <ele>261.908</ele>
        <time>2019-02-28T06:00:52Z</time>
      </trkpt>
      <trkpt lat="39.986539" lon="-6.267332">
        <ele>261.992</ele>
        <time>2019-02-28T06:00:53Z</time>
      </trkpt>
      <trkpt lat="39.986584" lon="-6.267288">
        <ele>261.963</ele>
        <time>2019-02-28T06:00:54Z</time>
      </trkpt>
      <trkpt lat="39.986633" lon="-6.267247">
        <ele>261.914</ele>
        <time>2019-02-28T06:00:55Z</time>
      </trkpt>
      <trkpt lat="39.986683" lon="-6.267209">
        <ele>261.963</ele>
        <time>2019-02-28T06:00:56Z</time>
      </trkpt>
      <trkpt lat="39.987802" lon="-6.266355">
        <ele>261.477</ele>
        <time>2019-02-28T06:01:17Z</time>
      </trkpt>
      <trkpt lat="39.988755" lon="-6.265610">
        <ele>260.760</ele>
        <time>2019-02-28T06:01:36Z</time>
      </trkpt>
      <trkpt lat="39.989623" lon="-6.264928">
        <ele>261.899</ele>
        <time>2019-02-28T06:01:55Z</time>
      </trkpt>
      <trkpt lat="39.990342" lon="-6.264589">
        <ele>262.078</ele>
        <time>2019-02-28T06:02:10Z</time>
      </trkpt>
      <trkpt lat="39.990410" lon="-6.264598">
        <ele>261.675</ele>
        <time>2019-02-28T06:02:11Z</time>
      </trkpt>
      <trkpt lat="39.991217" lon="-6.264862">
        <ele>256.528</ele>
        <time>2019-02-28T06:02:21Z</time>
      </trkpt>
      <trkpt lat="39.992179" lon="-6.265206">
        <ele>255.420</ele>
        <time>2019-02-28T06:02:34Z</time>
      </trkpt>
      <trkpt lat="39.993630" lon="-6.265704">
        <ele>256.008</ele>
        <time>2019-02-28T06:02:58Z</time>
      </trkpt>
      <trkpt lat="39.993689" lon="-6.265704">
        <ele>256.140</ele>
        <time>2019-02-28T06:02:59Z</time>
      </trkpt>
      <trkpt lat="39.993748" lon="-6.265696">
        <ele>256.191</ele>
        <time>2019-02-28T06:03:00Z</time>
      </trkpt>
      <trkpt lat="39.993807" lon="-6.265680">
        <ele>256.222</ele>
        <time>2019-02-28T06:03:01Z</time>
      </trkpt>
      <trkpt lat="39.993865" lon="-6.265660">
        <ele>256.341</ele>
        <time>2019-02-28T06:03:02Z</time>
      </trkpt>
      <trkpt lat="39.994952" lon="-6.265198">
        <ele>255.315</ele>
        <time>2019-02-28T06:03:20Z</time>
      </trkpt>
      <trkpt lat="39.996176" lon="-6.264669">
        <ele>255.338</ele>
        <time>2019-02-28T06:03:41Z</time>
      </trkpt>
      <trkpt lat="39.996273" lon="-6.264607">
        <ele>255.527</ele>
        <time>2019-02-28T06:03:43Z</time>
      </trkpt>
      <trkpt lat="39.996317" lon="-6.264569">
        <ele>255.646</ele>
        <time>2019-02-28T06:03:44Z</time>
      </trkpt>
      <trkpt lat="39.996985" lon="-6.263773">
        <ele>256.361</ele>
        <time>2019-02-28T06:04:01Z</time>
      </trkpt>
      <trkpt lat="39.997955" lon="-6.262574">
        <ele>255.621</ele>
        <time>2019-02-28T06:04:24Z</time>
      </trkpt>
      <trkpt lat="39.998201" lon="-6.262084">
        <ele>255.813</ele>
        <time>2019-02-28T06:04:33Z</time>
      </trkpt>
      <trkpt lat="39.998610" lon="-6.261110">
        <ele>255.908</ele>
        <time>2019-02-28T06:04:49Z</time>
      </trkpt>
      <trkpt lat="39.998990" lon="-6.260196">
        <ele>255.459</ele>
        <time>2019-02-28T06:05:04Z</time>
      </trkpt>
      <trkpt lat="39.999635" lon="-6.259184">
        <ele>255.610</ele>
        <time>2019-02-28T06:05:22Z</time>
      </trkpt>
      <trkpt lat="40.000252" lon="-6.258214">
        <ele>255.951</ele>
        <time>2019-02-28T06:05:40Z</time>
      </trkpt>
      <trkpt lat="40.000278" lon="-6.258157">
        <ele>255.940</ele>
        <time>2019-02-28T06:05:46Z</time>
      </trkpt>
      <trkpt lat="40.000334" lon="-6.258098">
        <ele>255.994</ele>
        <time>2019-02-28T06:06:24Z</time>
      </trkpt>
      <trkpt lat="40.000548" lon="-6.257755">
        <ele>255.867</ele>
        <time>2019-02-28T06:06:35Z</time>
      </trkpt>
      <trkpt lat="40.000875" lon="-6.257092">
        <ele>256.196</ele>
        <time>2019-02-28T06:06:49Z</time>
      </trkpt>
      <trkpt lat="40.000922" lon="-6.256986">
        <ele>256.225</ele>
        <time>2019-02-28T06:06:51Z</time>
      </trkpt>
      <trkpt lat="40.000945" lon="-6.256932">
        <ele>256.299</ele>
        <time>2019-02-28T06:06:52Z</time>
      </trkpt>
      <trkpt lat="40.000971" lon="-6.256879">
        <ele>256.307</ele>
        <time>2019-02-28T06:06:53Z</time>
      </trkpt>
      <trkpt lat="40.001369" lon="-6.256043">
        <ele>257.627</ele>
        <time>2019-02-28T06:07:09Z</time>
      </trkpt>
      <trkpt lat="40.001475" lon="-6.255769">
        <ele>257.908</ele>
        <time>2019-02-28T06:07:15Z</time>
      </trkpt>
      <trkpt lat="40.001559" lon="-6.255560">
        <ele>257.992</ele>
        <time>2019-02-28T06:07:19Z</time>
      </trkpt>
      <trkpt lat="40.002029" lon="-6.254659">
        <ele>257.543</ele>
        <time>2019-02-28T06:07:35Z</time>
      </trkpt>
      <trkpt lat="40.002399" lon="-6.253869">
        <ele>257.114</ele>
        <time>2019-02-28T06:07:48Z</time>
      </trkpt>
      <trkpt lat="40.002691" lon="-6.253252">
        <ele>257.473</ele>
        <time>2019-02-28T06:07:58Z</time>
      </trkpt>
      <trkpt lat="40.002713" lon="-6.253186">
        <ele>257.467</ele>
        <time>2019-02-28T06:07:59Z</time>
      </trkpt>
      <trkpt lat="40.002838" lon="-6.252060">
        <ele>257.340</ele>
        <time>2019-02-28T06:08:15Z</time>
      </trkpt>
      <trkpt lat="40.002987" lon="-6.250674">
        <ele>256.549</ele>
        <time>2019-02-28T06:08:33Z</time>
      </trkpt>
      <trkpt lat="40.003101" lon="-6.249792">
        <ele>256.698</ele>
        <time>2019-02-28T06:08:45Z</time>
      </trkpt>
      <trkpt lat="40.003119" lon="-6.249724">
        <ele>256.552</ele>
        <time>2019-02-28T06:08:46Z</time>
      </trkpt>
      <trkpt lat="40.003138" lon="-6.249660">
        <ele>256.553</ele>
        <time>2019-02-28T06:08:47Z</time>
      </trkpt>
      <trkpt lat="40.003577" lon="-6.248902">
        <ele>258.208</ele>
        <time>2019-02-28T06:09:02Z</time>
      </trkpt>
      <trkpt lat="40.003604" lon="-6.248858">
        <ele>258.308</ele>
        <time>2019-02-28T06:09:03Z</time>
      </trkpt>
      <trkpt lat="40.004116" lon="-6.248069">
        <ele>260.398</ele>
        <time>2019-02-28T06:09:23Z</time>
      </trkpt>
      <trkpt lat="40.004711" lon="-6.247580">
        <ele>262.049</ele>
        <time>2019-02-28T06:09:41Z</time>
      </trkpt>
      <trkpt lat="40.005331" lon="-6.247160">
        <ele>263.940</ele>
        <time>2019-02-28T06:09:59Z</time>
      </trkpt>
      <trkpt lat="40.005762" lon="-6.246523">
        <ele>265.169</ele>
        <time>2019-02-28T06:10:15Z</time>
      </trkpt>
      <trkpt lat="40.006214" lon="-6.245713">
        <ele>266.443</ele>
        <time>2019-02-28T06:10:31Z</time>
      </trkpt>
      <trkpt lat="40.006751" lon="-6.244735">
        <ele>266.786</ele>
        <time>2019-02-28T06:10:49Z</time>
      </trkpt>
      <trkpt lat="40.007600" lon="-6.243206">
        <ele>267.155</ele>
        <time>2019-02-28T06:11:17Z</time>
      </trkpt>
      <trkpt lat="40.008041" lon="-6.242402">
        <ele>268.294</ele>
        <time>2019-02-28T06:11:34Z</time>
      </trkpt>
      <trkpt lat="40.008520" lon="-6.241748">
        <ele>269.563</ele>
        <time>2019-02-28T06:11:51Z</time>
      </trkpt>
      <trkpt lat="40.009185" lon="-6.241173">
        <ele>269.444</ele>
        <time>2019-02-28T06:12:08Z</time>
      </trkpt>
      <trkpt lat="40.010007" lon="-6.240437">
        <ele>264.218</ele>
        <time>2019-02-28T06:12:22Z</time>
      </trkpt>
      <trkpt lat="40.010364" lon="-6.240023">
        <ele>264.108</ele>
        <time>2019-02-28T06:12:30Z</time>
      </trkpt>
      <trkpt lat="40.010640" lon="-6.239433">
        <ele>266.299</ele>
        <time>2019-02-28T06:12:45Z</time>
      </trkpt>
      <trkpt lat="40.010933" lon="-6.239108">
        <ele>267.850</ele>
        <time>2019-02-28T06:13:00Z</time>
      </trkpt>
      <trkpt lat="40.011264" lon="-6.238949">
        <ele>268.331</ele>
        <time>2019-02-28T06:13:10Z</time>
      </trkpt>
      <trkpt lat="40.011657" lon="-6.238685">
        <ele>268.040</ele>
        <time>2019-02-28T06:13:20Z</time>
      </trkpt>
      <trkpt lat="40.012115" lon="-6.238299">
        <ele>267.584</ele>
        <time>2019-02-28T06:13:31Z</time>
      </trkpt>
      <trkpt lat="40.012196" lon="-6.238206">
        <ele>267.337</ele>
        <time>2019-02-28T06:13:33Z</time>
      </trkpt>
      <trkpt lat="40.012234" lon="-6.238152">
        <ele>267.286</ele>
        <time>2019-02-28T06:13:34Z</time>
      </trkpt>
      <trkpt lat="40.012269" lon="-6.238095">
        <ele>267.145</ele>
        <time>2019-02-28T06:13:35Z</time>
      </trkpt>
      <trkpt lat="40.012301" lon="-6.238034">
        <ele>266.947</ele>
        <time>2019-02-28T06:13:36Z</time>
      </trkpt>
      <trkpt lat="40.012331" lon="-6.237971">
        <ele>266.829</ele>
        <time>2019-02-28T06:13:37Z</time>
      </trkpt>
      <trkpt lat="40.012772" lon="-6.236940">
        <ele>265.721</ele>
        <time>2019-02-28T06:13:54Z</time>
      </trkpt>
      <trkpt lat="40.013170" lon="-6.236031">
        <ele>265.508</ele>
        <time>2019-02-28T06:14:10Z</time>
      </trkpt>
      <trkpt lat="40.013265" lon="-6.235832">
        <ele>265.377</ele>
        <time>2019-02-28T06:14:14Z</time>
      </trkpt>
      <trkpt lat="40.013838" lon="-6.234919">
        <ele>264.738</ele>
        <time>2019-02-28T06:14:32Z</time>
      </trkpt>
      <trkpt lat="40.014522" lon="-6.233907">
        <ele>262.859</ele>
        <time>2019-02-28T06:14:51Z</time>
      </trkpt>
      <trkpt lat="40.015113" lon="-6.233198">
        <ele>262.698</ele>
        <time>2019-02-28T06:15:05Z</time>
      </trkpt>
      <trkpt lat="40.015702" lon="-6.232570">
        <ele>261.852</ele>
        <time>2019-02-28T06:15:21Z</time>
      </trkpt>
      <trkpt lat="40.016403" lon="-6.231825">
        <ele>258.575</ele>
        <time>2019-02-28T06:15:34Z</time>
      </trkpt>
      <trkpt lat="40.016994" lon="-6.231202">
        <ele>257.714</ele>
        <time>2019-02-28T06:15:44Z</time>
      </trkpt>
      <trkpt lat="40.017776" lon="-6.230467">
        <ele>257.723</ele>
        <time>2019-02-28T06:16:01Z</time>
      </trkpt>
      <trkpt lat="40.018705" lon="-6.229674">
        <ele>255.458</ele>
        <time>2019-02-28T06:16:17Z</time>
      </trkpt>
      <trkpt lat="40.019758" lon="-6.228769">
        <ele>254.852</ele>
        <time>2019-02-28T06:16:39Z</time>
      </trkpt>
      <trkpt lat="40.020425" lon="-6.228179">
        <ele>254.917</ele>
        <time>2019-02-28T06:16:54Z</time>
      </trkpt>
      <trkpt lat="40.021519" lon="-6.227254">
        <ele>254.908</ele>
        <time>2019-02-28T06:17:18Z</time>
      </trkpt>
      <trkpt lat="40.022463" lon="-6.226450">
        <ele>255.078</ele>
        <time>2019-02-28T06:17:39Z</time>
      </trkpt>
      <trkpt lat="40.023469" lon="-6.225577">
        <ele>256.019</ele>
        <time>2019-02-28T06:18:03Z</time>
      </trkpt>
      <trkpt lat="40.024396" lon="-6.224780">
        <ele>257.130</ele>
        <time>2019-02-28T06:18:27Z</time>
      </trkpt>
      <trkpt lat="40.024879" lon="-6.224362">
        <ele>259.729</ele>
        <time>2019-02-28T06:18:47Z</time>
      </trkpt>
      <trkpt lat="40.025356" lon="-6.223955">
        <ele>262.253</ele>
        <time>2019-02-28T06:19:09Z</time>
      </trkpt>
      <trkpt lat="40.025749" lon="-6.223626">
        <ele>263.086</ele>
        <time>2019-02-28T06:19:25Z</time>
      </trkpt>
      <trkpt lat="40.026245" lon="-6.223202">
        <ele>263.925</ele>
        <time>2019-02-28T06:19:44Z</time>
      </trkpt>
      <trkpt lat="40.026895" lon="-6.222636">
        <ele>264.284</ele>
        <time>2019-02-28T06:20:03Z</time>
      </trkpt>
      <trkpt lat="40.027807" lon="-6.221853">
        <ele>265.122</ele>
        <time>2019-02-28T06:20:28Z</time>
      </trkpt>
      <trkpt lat="40.028620" lon="-6.221153">
        <ele>265.262</ele>
        <time>2019-02-28T06:20:50Z</time>
      </trkpt>
      <trkpt lat="40.029399" lon="-6.220485">
        <ele>265.208</ele>
        <time>2019-02-28T06:21:08Z</time>
      </trkpt>
      <trkpt lat="40.030211" lon="-6.219784">
        <ele>265.208</ele>
        <time>2019-02-28T06:21:26Z</time>
      </trkpt>
      <trkpt lat="40.031247" lon="-6.218908">
        <ele>265.355</ele>
        <time>2019-02-28T06:21:49Z</time>
      </trkpt>
      <trkpt lat="40.032105" lon="-6.218177">
        <ele>264.686</ele>
        <time>2019-02-28T06:22:05Z</time>
      </trkpt>
      <trkpt lat="40.033151" lon="-6.217493">
        <ele>262.557</ele>
        <time>2019-02-28T06:22:22Z</time>
      </trkpt>
      <trkpt lat="40.034105" lon="-6.217076">
        <ele>259.876</ele>
        <time>2019-02-28T06:22:35Z</time>
      </trkpt>
      <trkpt lat="40.034909" lon="-6.216720">
        <ele>257.720</ele>
        <time>2019-02-28T06:22:49Z</time>
      </trkpt>
      <trkpt lat="40.035466" lon="-6.216468">
        <ele>259.053</ele>
        <time>2019-02-28T06:23:05Z</time>
      </trkpt>
      <trkpt lat="40.036114" lon="-6.216185">
        <ele>262.012</ele>
        <time>2019-02-28T06:23:27Z</time>
      </trkpt>
      <trkpt lat="40.036629" lon="-6.215952">
        <ele>264.571</ele>
        <time>2019-02-28T06:23:46Z</time>
      </trkpt>
      <trkpt lat="40.037125" lon="-6.215716">
        <ele>265.492</ele>
        <time>2019-02-28T06:24:00Z</time>
      </trkpt>
      <trkpt lat="40.037192" lon="-6.215672">
        <ele>265.373</ele>
        <time>2019-02-28T06:24:09Z</time>
      </trkpt>
      <trkpt lat="40.037191" lon="-6.215675">
        <ele>265.320</ele>
        <time>2019-02-28T06:24:12Z</time>
      </trkpt>
      <trkpt lat="40.037262" lon="-6.215683">
        <ele>265.108</ele>
        <time>2019-02-28T06:25:10Z</time>
      </trkpt>
      <trkpt lat="40.037711" lon="-6.215464">
        <ele>263.182</ele>
        <time>2019-02-28T06:25:20Z</time>
      </trkpt>
      <trkpt lat="40.038680" lon="-6.215038">
        <ele>260.893</ele>
        <time>2019-02-28T06:25:36Z</time>
      </trkpt>
      <trkpt lat="40.039401" lon="-6.214709">
        <ele>260.184</ele>
        <time>2019-02-28T06:25:48Z</time>
      </trkpt>
      <trkpt lat="40.039452" lon="-6.214684">
        <ele>260.183</ele>
        <time>2019-02-28T06:25:49Z</time>
      </trkpt>
      <trkpt lat="40.040283" lon="-6.214304">
        <ele>258.837</ele>
        <time>2019-02-28T06:26:03Z</time>
      </trkpt>
      <trkpt lat="40.041430" lon="-6.213792">
        <ele>258.530</ele>
        <time>2019-02-28T06:26:23Z</time>
      </trkpt>
      <trkpt lat="40.042452" lon="-6.213325">
        <ele>259.419</ele>
        <time>2019-02-28T06:26:44Z</time>
      </trkpt>
      <trkpt lat="40.043461" lon="-6.212897">
        <ele>260.918</ele>
        <time>2019-02-28T06:27:06Z</time>
      </trkpt>
      <trkpt lat="40.044235" lon="-6.212785">
        <ele>261.377</ele>
        <time>2019-02-28T06:27:21Z</time>
      </trkpt>
      <trkpt lat="40.044967" lon="-6.212745">
        <ele>261.861</ele>
        <time>2019-02-28T06:27:35Z</time>
      </trkpt>
      <trkpt lat="40.045629" lon="-6.212661">
        <ele>262.627</ele>
        <time>2019-02-28T06:27:48Z</time>
      </trkpt>
      <trkpt lat="40.045675" lon="-6.212640">
        <ele>262.608</ele>
        <time>2019-02-28T06:27:49Z</time>
      </trkpt>
      <trkpt lat="40.045803" lon="-6.212554">
        <ele>262.890</ele>
        <time>2019-02-28T06:27:52Z</time>
      </trkpt>
      <trkpt lat="40.046455" lon="-6.211953">
        <ele>264.341</ele>
        <time>2019-02-28T06:28:10Z</time>
      </trkpt>
      <trkpt lat="40.047240" lon="-6.211535">
        <ele>263.322</ele>
        <time>2019-02-28T06:28:25Z</time>
      </trkpt>
      <trkpt lat="40.047561" lon="-6.211344">
        <ele>264.241</ele>
        <time>2019-02-28T06:28:34Z</time>
      </trkpt>
      <trkpt lat="40.047590" lon="-6.211361">
        <ele>264.495</ele>
        <time>2019-02-28T06:28:35Z</time>
      </trkpt>
      <trkpt lat="40.047616" lon="-6.211384">
        <ele>264.728</ele>
        <time>2019-02-28T06:28:36Z</time>
      </trkpt>
      <trkpt lat="40.047987" lon="-6.211848">
        <ele>266.717</ele>
        <time>2019-02-28T06:28:52Z</time>
      </trkpt>
      <trkpt lat="40.048280" lon="-6.212360">
        <ele>270.226</ele>
        <time>2019-02-28T06:29:09Z</time>
      </trkpt>
      <trkpt lat="40.048555" lon="-6.213158">
        <ele>273.965</ele>
        <time>2019-02-28T06:29:31Z</time>
      </trkpt>
      <trkpt lat="40.048880" lon="-6.213816">
        <ele>275.268</ele>
        <time>2019-02-28T06:29:54Z</time>
      </trkpt>
      <trkpt lat="40.049075" lon="-6.214149">
        <ele>275.314</ele>
        <time>2019-02-28T06:30:07Z</time>
      </trkpt>
      <trkpt lat="40.049019" lon="-6.214144">
        <ele>275.308</ele>
        <time>2019-02-28T06:30:11Z</time>
      </trkpt>
      <trkpt lat="40.048975" lon="-6.214125">
        <ele>275.359</ele>
        <time>2019-02-28T06:30:13Z</time>
      </trkpt>
      <trkpt lat="40.048904" lon="-6.214096">
        <ele>275.360</ele>
        <time>2019-02-28T06:30:18Z</time>
      </trkpt>
      <trkpt lat="40.048880" lon="-6.214052">
        <ele>275.331</ele>
        <time>2019-02-28T06:30:25Z</time>
      </trkpt>
      <trkpt lat="40.048830" lon="-6.213803">
        <ele>275.440</ele>
        <time>2019-02-28T22:57:16Z</time>
      </trkpt>
      <trkpt lat="40.048828" lon="-6.213810">
        <ele>275.424</ele>
        <time>2019-02-28T22:57:17Z</time>
      </trkpt>
      <trkpt lat="40.048864" lon="-6.213830">
        <ele>275.467</ele>
        <time>2019-02-28T22:57:20Z</time>
      </trkpt>
      <trkpt lat="40.048953" lon="-6.213857">
        <ele>275.466</ele>
        <time>2019-02-28T22:57:24Z</time>
      </trkpt>
      <trkpt lat="40.048972" lon="-6.213874">
        <ele>275.455</ele>
        <time>2019-02-28T22:57:25Z</time>
      </trkpt>
      <trkpt lat="40.048989" lon="-6.213893">
        <ele>275.454</ele>
        <time>2019-02-28T22:57:26Z</time>
      </trkpt>
      <trkpt lat="40.049249" lon="-6.214258">
        <ele>276.156</ele>
        <time>2019-02-28T22:57:42Z</time>
      </trkpt>
      <trkpt lat="40.049381" lon="-6.214455">
        <ele>276.511</ele>
        <time>2019-02-28T22:57:51Z</time>
      </trkpt>
      <trkpt lat="40.049506" lon="-6.214401">
        <ele>276.608</ele>
        <time>2019-02-28T22:58:00Z</time>
      </trkpt>
      <trkpt lat="40.049505" lon="-6.214430">
        <ele>276.638</ele>
        <time>2019-02-28T22:58:01Z</time>
      </trkpt>
      <trkpt lat="40.049505" lon="-6.214458">
        <ele>276.639</ele>
        <time>2019-02-28T22:59:05Z</time>
      </trkpt>
      <trkpt lat="40.049504" lon="-6.214487">
        <ele>276.680</ele>
        <time>2019-02-28T22:59:06Z</time>
      </trkpt>
      <trkpt lat="40.049496" lon="-6.214451">
        <ele>276.669</ele>
        <time>2019-02-28T22:59:08Z</time>
      </trkpt>
      <trkpt lat="40.049475" lon="-6.214389">
        <ele>276.723</ele>
        <time>2019-02-28T22:59:36Z</time>
      </trkpt>
      <trkpt lat="40.049437" lon="-6.214532">
        <ele>276.746</ele>
        <time>2019-02-28T23:00:05Z</time>
      </trkpt>
      <trkpt lat="40.049453" lon="-6.214489">
        <ele>276.735</ele>
        <time>2019-02-28T23:00:06Z</time>
      </trkpt>
      <trkpt lat="40.049519" lon="-6.214319">
        <ele>276.824</ele>
        <time>2019-02-28T23:00:10Z</time>
      </trkpt>
      <trkpt lat="40.049469" lon="-6.214389">
        <ele>276.892</ele>
        <time>2019-02-28T23:00:23Z</time>
      </trkpt>
      <trkpt lat="40.049536" lon="-6.214354">
        <ele>276.973</ele>
        <time>2019-02-28T23:00:28Z</time>
      </trkpt>
      <trkpt lat="40.049601" lon="-6.214151">
        <ele>276.920</ele>
        <time>2019-02-28T23:00:36Z</time>
      </trkpt>
      <trkpt lat="40.049503" lon="-6.213660">
        <ele>276.208</ele>
        <time>2019-02-28T23:00:47Z</time>
      </trkpt>
      <trkpt lat="40.049455" lon="-6.213449">
        <ele>276.232</ele>
        <time>2019-02-28T23:00:51Z</time>
      </trkpt>
      <trkpt lat="40.049410" lon="-6.213285">
        <ele>276.063</ele>
        <time>2019-02-28T23:00:55Z</time>
      </trkpt>
      <trkpt lat="40.049493" lon="-6.213211">
        <ele>275.874</ele>
        <time>2019-02-28T23:00:59Z</time>
      </trkpt>
      <trkpt lat="40.049682" lon="-6.213213">
        <ele>275.843</ele>
        <time>2019-02-28T23:01:05Z</time>
      </trkpt>
      <trkpt lat="40.050059" lon="-6.213133">
        <ele>274.757</ele>
        <time>2019-02-28T23:01:16Z</time>
      </trkpt>
      <trkpt lat="40.050308" lon="-6.212922">
        <ele>273.810</ele>
        <time>2019-02-28T23:01:28Z</time>
      </trkpt>
      <trkpt lat="40.050608" lon="-6.212554">
        <ele>271.689</ele>
        <time>2019-02-28T23:01:42Z</time>
      </trkpt>
      <trkpt lat="40.051084" lon="-6.212108">
        <ele>268.358</ele>
        <time>2019-02-28T23:01:57Z</time>
      </trkpt>
      <trkpt lat="40.051310" lon="-6.211745">
        <ele>267.455</ele>
        <time>2019-02-28T23:02:09Z</time>
      </trkpt>
      <trkpt lat="40.051627" lon="-6.211000">
        <ele>264.807</ele>
        <time>2019-02-28T23:02:26Z</time>
      </trkpt>
      <trkpt lat="40.051710" lon="-6.210710">
        <ele>263.917</ele>
        <time>2019-02-28T23:02:32Z</time>
      </trkpt>
      <trkpt lat="40.051802" lon="-6.210172">
        <ele>261.708</ele>
        <time>2019-02-28T23:02:43Z</time>
      </trkpt>
      <trkpt lat="40.051882" lon="-6.209465">
        <ele>259.768</ele>
        <time>2019-02-28T23:02:58Z</time>
      </trkpt>
      <trkpt lat="40.051840" lon="-6.209014">
        <ele>260.569</ele>
        <time>2019-02-28T23:03:11Z</time>
      </trkpt>
      <trkpt lat="40.051620" lon="-6.208683">
        <ele>261.990</ele>
        <time>2019-02-28T23:03:27Z</time>
      </trkpt>
      <trkpt lat="40.051199" lon="-6.208184">
        <ele>262.389</ele>
        <time>2019-02-28T23:03:45Z</time>
      </trkpt>
      <trkpt lat="40.050978" lon="-6.207713">
        <ele>262.693</ele>
        <time>2019-02-28T23:04:01Z</time>
      </trkpt>
      <trkpt lat="40.051226" lon="-6.207395">
        <ele>262.776</ele>
        <time>2019-02-28T23:04:14Z</time>
      </trkpt>
      <trkpt lat="40.051549" lon="-6.206959">
        <ele>263.465</ele>
        <time>2019-02-28T23:04:31Z</time>
      </trkpt>
      <trkpt lat="40.051752" lon="-6.206786">
        <ele>264.014</ele>
        <time>2019-02-28T23:04:47Z</time>
      </trkpt>
      <trkpt lat="40.051801" lon="-6.206808">
        <ele>264.159</ele>
        <time>2019-02-28T23:05:22Z</time>
      </trkpt>
      <trkpt lat="40.051825" lon="-6.206812">
        <ele>264.203</ele>
        <time>2019-02-28T23:05:23Z</time>
      </trkpt>
      <trkpt lat="40.052201" lon="-6.206830">
        <ele>264.723</ele>
        <time>2019-02-28T23:05:37Z</time>
      </trkpt>
      <trkpt lat="40.052628" lon="-6.206852">
        <ele>266.108</ele>
        <time>2019-02-28T23:05:56Z</time>
      </trkpt>
      <trkpt lat="40.053012" lon="-6.206827">
        <ele>267.848</ele>
        <time>2019-02-28T23:06:11Z</time>
      </trkpt>
      <trkpt lat="40.053468" lon="-6.206824">
        <ele>268.969</ele>
        <time>2019-02-28T23:06:28Z</time>
      </trkpt>
      <trkpt lat="40.053961" lon="-6.206825">
        <ele>270.230</ele>
        <time>2019-02-28T23:06:48Z</time>
      </trkpt>
      <trkpt lat="40.054341" lon="-6.206838">
        <ele>271.339</ele>
        <time>2019-02-28T23:07:05Z</time>
      </trkpt>
      <trkpt lat="40.054729" lon="-6.206811">
        <ele>272.513</ele>
        <time>2019-02-28T23:07:22Z</time>
      </trkpt>
      <trkpt lat="40.054952" lon="-6.206478">
        <ele>272.456</ele>
        <time>2019-02-28T23:07:35Z</time>
      </trkpt>
      <trkpt lat="40.055042" lon="-6.206075">
        <ele>272.325</ele>
        <time>2019-02-28T23:07:48Z</time>
      </trkpt>
      <trkpt lat="40.054827" lon="-6.205470">
        <ele>271.124</ele>
        <time>2019-02-28T23:08:03Z</time>
      </trkpt>
      <trkpt lat="40.054563" lon="-6.204968">
        <ele>267.019</ele>
        <time>2019-02-28T23:08:15Z</time>
      </trkpt>
      <trkpt lat="40.054175" lon="-6.204220">
        <ele>264.009</ele>
        <time>2019-02-28T23:08:28Z</time>
      </trkpt>
      <trkpt lat="40.053866" lon="-6.203735">
        <ele>264.719</ele>
        <time>2019-02-28T23:08:37Z</time>
      </trkpt>
      <trkpt lat="40.053636" lon="-6.203365">
        <ele>266.808</ele>
        <time>2019-02-28T23:08:43Z</time>
      </trkpt>
      <trkpt lat="40.053599" lon="-6.203315">
        <ele>267.064</ele>
        <time>2019-02-28T23:08:44Z</time>
      </trkpt>
      <trkpt lat="40.053570" lon="-6.203264">
        <ele>267.355</ele>
        <time>2019-02-28T23:08:45Z</time>
      </trkpt>
      <trkpt lat="40.053550" lon="-6.203219">
        <ele>267.686</ele>
        <time>2019-02-28T23:08:46Z</time>
      </trkpt>
      <trkpt lat="40.053541" lon="-6.203177">
        <ele>267.875</ele>
        <time>2019-02-28T23:08:47Z</time>
      </trkpt>
      <trkpt lat="40.053539" lon="-6.203138">
        <ele>267.989</ele>
        <time>2019-02-28T23:08:48Z</time>
      </trkpt>
      <trkpt lat="40.053539" lon="-6.203106">
        <ele>268.152</ele>
        <time>2019-02-28T23:08:49Z</time>
      </trkpt>
      <trkpt lat="40.053537" lon="-6.203074">
        <ele>268.261</ele>
        <time>2019-02-28T23:08:50Z</time>
      </trkpt>
      <trkpt lat="40.053533" lon="-6.203047">
        <ele>268.420</ele>
        <time>2019-02-28T23:08:51Z</time>
      </trkpt>
      <trkpt lat="40.053529" lon="-6.203023">
        <ele>268.522</ele>
        <time>2019-02-28T23:08:52Z</time>
      </trkpt>
      <trkpt lat="40.053524" lon="-6.203002">
        <ele>268.762</ele>
        <time>2019-02-28T23:08:53Z</time>
      </trkpt>
      <trkpt lat="40.053519" lon="-6.202984">
        <ele>268.808</ele>
        <time>2019-02-28T23:08:54Z</time>
      </trkpt>
      <trkpt lat="40.053325" lon="-6.202747">
        <ele>270.808</ele>
        <time>2019-02-28T23:09:09Z</time>
      </trkpt>
      <trkpt lat="40.052992" lon="-6.202353">
        <ele>273.295</ele>
        <time>2019-02-28T23:09:29Z</time>
      </trkpt>
      <trkpt lat="40.052755" lon="-6.202003">
        <ele>275.196</ele>
        <time>2019-02-28T23:09:49Z</time>
      </trkpt>
      <trkpt lat="40.052588" lon="-6.201624">
        <ele>276.177</ele>
        <time>2019-02-28T23:10:10Z</time>
      </trkpt>
      <trkpt lat="40.052471" lon="-6.201217">
        <ele>276.036</ele>
        <time>2019-02-28T23:10:30Z</time>
      </trkpt>
      <trkpt lat="40.052553" lon="-6.200783">
        <ele>275.240</ele>
        <time>2019-02-28T23:10:46Z</time>
      </trkpt>
      <trkpt lat="40.052714" lon="-6.200124">
        <ele>273.943</ele>
        <time>2019-02-28T23:11:02Z</time>
      </trkpt>
      <trkpt lat="40.052628" lon="-6.199174">
        <ele>273.752</ele>
        <time>2019-02-28T23:11:17Z</time>
      </trkpt>
      <trkpt lat="40.052600" lon="-6.198792">
        <ele>273.811</ele>
        <time>2019-02-28T23:11:23Z</time>
      </trkpt>
      <trkpt lat="40.052596" lon="-6.198731">
        <ele>273.818</ele>
        <time>2019-02-28T23:11:24Z</time>
      </trkpt>
      <trkpt lat="40.052627" lon="-6.198035">
        <ele>273.998</ele>
        <time>2019-02-28T23:11:37Z</time>
      </trkpt>
      <trkpt lat="40.052701" lon="-6.197370">
        <ele>273.617</ele>
        <time>2019-02-28T23:11:50Z</time>
      </trkpt>
      <trkpt lat="40.052792" lon="-6.196474">
        <ele>273.008</ele>
        <time>2019-02-28T23:12:07Z</time>
      </trkpt>
      <trkpt lat="40.052901" lon="-6.195534">
        <ele>272.564</ele>
        <time>2019-02-28T23:12:22Z</time>
      </trkpt>
      <trkpt lat="40.052969" lon="-6.194837">
        <ele>272.435</ele>
        <time>2019-02-28T23:12:33Z</time>
      </trkpt>
      <trkpt lat="40.053063" lon="-6.193999">
        <ele>272.346</ele>
        <time>2019-02-28T23:12:49Z</time>
      </trkpt>
      <trkpt lat="40.053140" lon="-6.193327">
        <ele>272.525</ele>
        <time>2019-02-28T23:13:04Z</time>
      </trkpt>
      <trkpt lat="40.053228" lon="-6.192551">
        <ele>273.579</ele>
        <time>2019-02-28T23:13:21Z</time>
      </trkpt>
      <trkpt lat="40.053337" lon="-6.192272">
        <ele>275.172</ele>
        <time>2019-02-28T23:13:34Z</time>
      </trkpt>
      <trkpt lat="40.053377" lon="-6.192235">
        <ele>275.611</ele>
        <time>2019-02-28T23:13:37Z</time>
      </trkpt>
      <trkpt lat="40.053393" lon="-6.192234">
        <ele>275.790</ele>
        <time>2019-02-28T23:13:38Z</time>
      </trkpt>
      <trkpt lat="40.053405" lon="-6.192238">
        <ele>275.793</ele>
        <time>2019-02-28T23:13:42Z</time>
      </trkpt>
      <trkpt lat="40.053442" lon="-6.192280">
        <ele>275.865</ele>
        <time>2019-02-28T23:13:54Z</time>
      </trkpt>
      <trkpt lat="40.053456" lon="-6.192292">
        <ele>275.821</ele>
        <time>2019-02-28T23:13:55Z</time>
      </trkpt>
      <trkpt lat="40.053471" lon="-6.192299">
        <ele>275.908</ele>
        <time>2019-02-28T23:13:56Z</time>
      </trkpt>
      <trkpt lat="40.053486" lon="-6.192301">
        <ele>275.952</ele>
        <time>2019-02-28T23:13:57Z</time>
      </trkpt>
      <trkpt lat="40.053502" lon="-6.192301">
        <ele>276.093</ele>
        <time>2019-02-28T23:13:58Z</time>
      </trkpt>
      <trkpt lat="40.053521" lon="-6.192302">
        <ele>276.134</ele>
        <time>2019-02-28T23:13:59Z</time>
      </trkpt>
      <trkpt lat="40.053887" lon="-6.192247">
        <ele>277.433</ele>
        <time>2019-02-28T23:14:18Z</time>
      </trkpt>
      <trkpt lat="40.054173" lon="-6.192194">
        <ele>278.967</ele>
        <time>2019-02-28T23:14:34Z</time>
      </trkpt>
      <trkpt lat="40.054481" lon="-6.192180">
        <ele>281.470</ele>
        <time>2019-02-28T23:14:51Z</time>
      </trkpt>
      <trkpt lat="40.054732" lon="-6.192302">
        <ele>283.319</ele>
        <time>2019-02-28T23:15:09Z</time>
      </trkpt>
      <trkpt lat="40.054926" lon="-6.192486">
        <ele>283.938</ele>
        <time>2019-02-28T23:15:24Z</time>
      </trkpt>
      <trkpt lat="40.054946" lon="-6.192504">
        <ele>283.977</ele>
        <time>2019-02-28T23:15:29Z</time>
      </trkpt>
      <trkpt lat="40.054982" lon="-6.192556">
        <ele>284.061</ele>
        <time>2019-02-28T23:15:47Z</time>
      </trkpt>
      <trkpt lat="40.055000" lon="-6.192572">
        <ele>284.127</ele>
        <time>2019-02-28T23:15:48Z</time>
      </trkpt>
      <trkpt lat="40.055331" lon="-6.192889">
        <ele>285.108</ele>
        <time>2019-02-28T23:16:06Z</time>
      </trkpt>
      <trkpt lat="40.055495" lon="-6.193189">
        <ele>286.160</ele>
        <time>2019-02-28T23:16:20Z</time>
      </trkpt>
      <trkpt lat="40.055496" lon="-6.193197">
        <ele>286.121</ele>
        <time>2019-02-28T23:16:24Z</time>
      </trkpt>
      <trkpt lat="40.055516" lon="-6.193278">
        <ele>286.232</ele>
        <time>2019-02-28T23:16:34Z</time>
      </trkpt>
      <trkpt lat="40.055528" lon="-6.193306">
        <ele>286.271</ele>
        <time>2019-02-28T23:16:35Z</time>
      </trkpt>
      <trkpt lat="40.055542" lon="-6.193336">
        <ele>286.235</ele>
        <time>2019-02-28T23:16:36Z</time>
      </trkpt>
      <trkpt lat="40.055791" lon="-6.193873">
        <ele>286.348</ele>
        <time>2019-02-28T23:16:52Z</time>
      </trkpt>
      <trkpt lat="40.056033" lon="-6.194452">
        <ele>286.457</ele>
        <time>2019-02-28T23:17:08Z</time>
      </trkpt>
      <trkpt lat="40.056231" lon="-6.194673">
        <ele>286.466</ele>
        <time>2019-02-28T23:17:21Z</time>
      </trkpt>
      <trkpt lat="40.056378" lon="-6.194826">
        <ele>286.448</ele>
        <time>2019-02-28T23:17:35Z</time>
      </trkpt>
      <trkpt lat="40.056380" lon="-6.194831">
        <ele>286.461</ele>
        <time>2019-02-28T23:17:38Z</time>
      </trkpt>
      <trkpt lat="40.056482" lon="-6.194855">
        <ele>286.417</ele>
        <time>2019-02-28T23:19:00Z</time>
      </trkpt>
      <trkpt lat="40.056762" lon="-6.194890">
        <ele>286.408</ele>
        <time>2019-02-28T23:19:13Z</time>
      </trkpt>
      <trkpt lat="40.057213" lon="-6.194892">
        <ele>286.417</ele>
        <time>2019-02-28T23:19:29Z</time>
      </trkpt>
      <trkpt lat="40.057627" lon="-6.194879">
        <ele>286.738</ele>
        <time>2019-02-28T23:19:44Z</time>
      </trkpt>
      <trkpt lat="40.058093" lon="-6.194871">
        <ele>288.199</ele>
        <time>2019-02-28T23:20:03Z</time>
      </trkpt>
      <trkpt lat="40.058569" lon="-6.194904">
        <ele>289.728</ele>
        <time>2019-02-28T23:20:22Z</time>
      </trkpt>
      <trkpt lat="40.059005" lon="-6.194907">
        <ele>291.932</ele>
        <time>2019-02-28T23:20:41Z</time>
      </trkpt>
      <trkpt lat="40.059351" lon="-6.194922">
        <ele>293.625</ele>
        <time>2019-02-28T23:20:59Z</time>
      </trkpt>
      <trkpt lat="40.059624" lon="-6.194935">
        <ele>295.194</ele>
        <time>2019-02-28T23:21:14Z</time>
      </trkpt>
      <trkpt lat="40.059939" lon="-6.194804">
        <ele>296.863</ele>
        <time>2019-02-28T23:21:32Z</time>
      </trkpt>
      <trkpt lat="40.060087" lon="-6.194674">
        <ele>297.536</ele>
        <time>2019-02-28T23:21:44Z</time>
      </trkpt>
      <trkpt lat="40.060238" lon="-6.194607">
        <ele>298.517</ele>
        <time>2019-02-28T23:21:58Z</time>
      </trkpt>
      <trkpt lat="40.060307" lon="-6.194586">
        <ele>298.918</ele>
        <time>2019-02-28T23:24:13Z</time>
      </trkpt>
      <trkpt lat="40.060321" lon="-6.194575">
        <ele>299.008</ele>
        <time>2019-02-28T23:24:14Z</time>
      </trkpt>
      <trkpt lat="40.060337" lon="-6.194566">
        <ele>299.156</ele>
        <time>2019-02-28T23:24:15Z</time>
      </trkpt>
      <trkpt lat="40.060629" lon="-6.194390">
        <ele>300.817</ele>
        <time>2019-02-28T23:24:32Z</time>
      </trkpt>
      <trkpt lat="40.060857" lon="-6.194251">
        <ele>302.668</ele>
        <time>2019-02-28T23:24:48Z</time>
      </trkpt>
      <trkpt lat="40.061143" lon="-6.194097">
        <ele>304.897</ele>
        <time>2019-02-28T23:25:05Z</time>
      </trkpt>
      <trkpt lat="40.061617" lon="-6.193833">
        <ele>305.651</ele>
        <time>2019-02-28T23:25:23Z</time>
      </trkpt>
      <trkpt lat="40.062306" lon="-6.193441">
        <ele>305.644</ele>
        <time>2019-02-28T23:25:43Z</time>
      </trkpt>
      <trkpt lat="40.062765" lon="-6.192994">
        <ele>305.663</ele>
        <time>2019-02-28T23:25:58Z</time>
      </trkpt>
      <trkpt lat="40.062925" lon="-6.192856">
        <ele>305.652</ele>
        <time>2019-02-28T23:26:09Z</time>
      </trkpt>
      <trkpt lat="40.063040" lon="-6.192851">
        <ele>305.689</ele>
        <time>2019-02-28T23:27:10Z</time>
      </trkpt>
      <trkpt lat="40.063390" lon="-6.192715">
        <ele>305.606</ele>
        <time>2019-02-28T23:27:23Z</time>
      </trkpt>
      <trkpt lat="40.063904" lon="-6.192597">
        <ele>305.726</ele>
        <time>2019-02-28T23:27:41Z</time>
      </trkpt>
      <trkpt lat="40.064373" lon="-6.192764">
        <ele>305.708</ele>
        <time>2019-02-28T23:27:56Z</time>
      </trkpt>
      <trkpt lat="40.064682" lon="-6.193021">
        <ele>305.731</ele>
        <time>2019-02-28T23:28:10Z</time>
      </trkpt>
      <trkpt lat="40.064683" lon="-6.193021">
        <ele>305.722</ele>
        <time>2019-02-28T23:28:11Z</time>
      </trkpt>
      <trkpt lat="40.064740" lon="-6.193074">
        <ele>305.733</ele>
        <time>2019-02-28T23:28:28Z</time>
      </trkpt>
      <trkpt lat="40.065213" lon="-6.193401">
        <ele>305.722</ele>
        <time>2019-02-28T23:28:45Z</time>
      </trkpt>
      <trkpt lat="40.065602" lon="-6.193596">
        <ele>305.746</ele>
        <time>2019-02-28T23:28:56Z</time>
      </trkpt>
      <trkpt lat="40.065643" lon="-6.193614">
        <ele>305.719</ele>
        <time>2019-02-28T23:28:57Z</time>
      </trkpt>
      <trkpt lat="40.066258" lon="-6.193857">
        <ele>305.338</ele>
        <time>2019-02-28T23:29:13Z</time>
      </trkpt>
      <trkpt lat="40.066509" lon="-6.193899">
        <ele>304.417</ele>
        <time>2019-02-28T23:29:22Z</time>
      </trkpt>
      <trkpt lat="40.066902" lon="-6.194007">
        <ele>303.845</ele>
        <time>2019-02-28T23:29:37Z</time>
      </trkpt>
      <trkpt lat="40.067363" lon="-6.194021">
        <ele>303.847</ele>
        <time>2019-02-28T23:29:48Z</time>
      </trkpt>
      <trkpt lat="40.068114" lon="-6.194062">
        <ele>303.811</ele>
        <time>2019-02-28T23:30:07Z</time>
      </trkpt>
      <trkpt lat="40.068520" lon="-6.193802">
        <ele>304.108</ele>
        <time>2019-02-28T23:30:23Z</time>
      </trkpt>
      <trkpt lat="40.068787" lon="-6.193448">
        <ele>305.877</ele>
        <time>2019-02-28T23:30:39Z</time>
      </trkpt>
      <trkpt lat="40.069151" lon="-6.193050">
        <ele>307.958</ele>
        <time>2019-02-28T23:30:55Z</time>
      </trkpt>
      <trkpt lat="40.069547" lon="-6.192712">
        <ele>308.359</ele>
        <time>2019-02-28T23:31:11Z</time>
      </trkpt>
      <trkpt lat="40.069752" lon="-6.192596">
        <ele>308.438</ele>
        <time>2019-02-28T23:31:24Z</time>
      </trkpt>
      <trkpt lat="40.069812" lon="-6.192561">
        <ele>308.432</ele>
        <time>2019-02-28T23:32:00Z</time>
      </trkpt>
      <trkpt lat="40.070085" lon="-6.192367">
        <ele>308.825</ele>
        <time>2019-02-28T23:32:13Z</time>
      </trkpt>
      <trkpt lat="40.070482" lon="-6.192370">
        <ele>309.824</ele>
        <time>2019-02-28T23:32:24Z</time>
      </trkpt>
      <trkpt lat="40.070945" lon="-6.192392">
        <ele>308.693</ele>
        <time>2019-02-28T23:32:37Z</time>
      </trkpt>
      <trkpt lat="40.071384" lon="-6.192351">
        <ele>307.262</ele>
        <time>2019-02-28T23:32:50Z</time>
      </trkpt>
      <trkpt lat="40.071544" lon="-6.192364">
        <ele>306.483</ele>
        <time>2019-02-28T23:32:54Z</time>
      </trkpt>
      <trkpt lat="40.071996" lon="-6.192515">
        <ele>304.711</ele>
        <time>2019-02-28T23:33:08Z</time>
      </trkpt>
      <trkpt lat="40.072015" lon="-6.192521">
        <ele>304.608</ele>
        <time>2019-02-28T23:33:14Z</time>
      </trkpt>
      <trkpt lat="40.072071" lon="-6.192533">
        <ele>304.549</ele>
        <time>2019-02-28T23:33:31Z</time>
      </trkpt>
      <trkpt lat="40.072565" lon="-6.192618">
        <ele>302.620</ele>
        <time>2019-02-28T23:33:44Z</time>
      </trkpt>
      <trkpt lat="40.073021" lon="-6.192645">
        <ele>302.031</ele>
        <time>2019-02-28T23:33:57Z</time>
      </trkpt>
      <trkpt lat="40.073064" lon="-6.192653">
        <ele>302.060</ele>
        <time>2019-02-28T23:33:58Z</time>
      </trkpt>
      <trkpt lat="40.073427" lon="-6.192723">
        <ele>302.084</ele>
        <time>2019-02-28T23:34:07Z</time>
      </trkpt>
      <trkpt lat="40.073467" lon="-6.192721">
        <ele>302.017</ele>
        <time>2019-02-28T23:34:08Z</time>
      </trkpt>
      <trkpt lat="40.073506" lon="-6.192714">
        <ele>301.966</ele>
        <time>2019-02-28T23:34:09Z</time>
      </trkpt>
      <trkpt lat="40.073772" lon="-6.192763">
        <ele>301.775</ele>
        <time>2019-02-28T23:34:20Z</time>
      </trkpt>
      <trkpt lat="40.073769" lon="-6.192767">
        <ele>301.639</ele>
        <time>2019-02-28T23:34:23Z</time>
      </trkpt>
      <trkpt lat="40.073727" lon="-6.192757">
        <ele>301.501</ele>
        <time>2019-02-28T23:34:31Z</time>
      </trkpt>
      <trkpt lat="40.073658" lon="-6.192731">
        <ele>301.421</ele>
        <time>2019-02-28T23:34:36Z</time>
      </trkpt>
      <trkpt lat="40.073647" lon="-6.192674">
        <ele>301.308</ele>
        <time>2019-02-28T23:34:43Z</time>
      </trkpt>
      <trkpt lat="40.073639" lon="-6.192651">
        <ele>301.246</ele>
        <time>2019-02-28T23:35:06Z</time>
      </trkpt>
      <trkpt lat="40.073747" lon="-6.192643">
        <ele>300.737</ele>
        <time>2019-02-28T23:35:17Z</time>
      </trkpt>
      <trkpt lat="40.073795" lon="-6.192734">
        <ele>300.488</ele>
        <time>2019-02-28T23:35:40Z</time>
      </trkpt>
      <trkpt lat="40.073811" lon="-6.192732">
        <ele>300.327</ele>
        <time>2019-02-28T23:35:46Z</time>
      </trkpt>
      <trkpt lat="40.073892" lon="-6.192739">
        <ele>300.231</ele>
        <time>2019-02-28T23:37:04Z</time>
      </trkpt>
      <trkpt lat="40.074223" lon="-6.192704">
        <ele>300.194</ele>
        <time>2019-02-28T23:37:19Z</time>
      </trkpt>
      <trkpt lat="40.074556" lon="-6.192568">
        <ele>300.173</ele>
        <time>2019-02-28T23:37:33Z</time>
      </trkpt>
      <trkpt lat="40.074878" lon="-6.192337">
        <ele>300.292</ele>
        <time>2019-02-28T23:37:48Z</time>
      </trkpt>
      <trkpt lat="40.075113" lon="-6.192128">
        <ele>300.591</ele>
        <time>2019-02-28T23:38:00Z</time>
      </trkpt>
      <trkpt lat="40.075133" lon="-6.192136">
        <ele>300.681</ele>
        <time>2019-02-28T23:38:01Z</time>
      </trkpt>
      <trkpt lat="40.075495" lon="-6.192519">
        <ele>301.919</ele>
        <time>2019-02-28T23:38:16Z</time>
      </trkpt>
      <trkpt lat="40.075727" lon="-6.193127">
        <ele>302.208</ele>
        <time>2019-02-28T23:38:30Z</time>
      </trkpt>
      <trkpt lat="40.075772" lon="-6.193259">
        <ele>302.182</ele>
        <time>2019-02-28T23:38:34Z</time>
      </trkpt>
      <trkpt lat="40.075788" lon="-6.193261">
        <ele>302.163</ele>
        <time>2019-02-28T23:38:35Z</time>
      </trkpt>
      <trkpt lat="40.075804" lon="-6.193252">
        <ele>302.134</ele>
        <time>2019-02-28T23:38:36Z</time>
      </trkpt>
      <trkpt lat="40.075816" lon="-6.193242">
        <ele>302.153</ele>
        <time>2019-02-28T23:38:37Z</time>
      </trkpt>
      <trkpt lat="40.075825" lon="-6.193237">
        <ele>302.117</ele>
        <time>2019-02-28T23:38:42Z</time>
      </trkpt>
      <trkpt lat="40.075906" lon="-6.193262">
        <ele>303.740</ele>
        <time>2019-02-28T23:39:06Z</time>
      </trkpt>
      <trkpt lat="40.075925" lon="-6.193278">
        <ele>303.899</ele>
        <time>2019-02-28T23:39:07Z</time>
      </trkpt>
      <trkpt lat="40.075942" lon="-6.193302">
        <ele>303.988</ele>
        <time>2019-02-28T23:39:08Z</time>
      </trkpt>
      <trkpt lat="40.075957" lon="-6.193330">
        <ele>304.199</ele>
        <time>2019-02-28T23:39:09Z</time>
      </trkpt>
      <trkpt lat="40.075969" lon="-6.193359">
        <ele>304.207</ele>
        <time>2019-02-28T23:39:10Z</time>
      </trkpt>
      <trkpt lat="40.075983" lon="-6.193389">
        <ele>304.327</ele>
        <time>2019-02-28T23:39:11Z</time>
      </trkpt>
      <trkpt lat="40.075997" lon="-6.193418">
        <ele>304.408</ele>
        <time>2019-02-28T23:39:12Z</time>
      </trkpt>
      <trkpt lat="40.076009" lon="-6.193448">
        <ele>304.662</ele>
        <time>2019-02-28T23:39:13Z</time>
      </trkpt>
      <trkpt lat="40.076144" lon="-6.193833">
        <ele>306.353</ele>
        <time>2019-02-28T23:39:26Z</time>
      </trkpt>
      <trkpt lat="40.076237" lon="-6.194125">
        <ele>308.584</ele>
        <time>2019-02-28T23:39:42Z</time>
      </trkpt>
      <trkpt lat="40.076396" lon="-6.194405">
        <ele>311.033</ele>
        <time>2019-02-28T23:39:59Z</time>
      </trkpt>
      <trkpt lat="40.076623" lon="-6.194654">
        <ele>313.487</ele>
        <time>2019-02-28T23:40:17Z</time>
      </trkpt>
      <trkpt lat="40.076800" lon="-6.194917">
        <ele>315.980</ele>
        <time>2019-02-28T23:40:36Z</time>
      </trkpt>
      <trkpt lat="40.076813" lon="-6.194929">
        <ele>316.179</ele>
        <time>2019-02-28T23:40:37Z</time>
      </trkpt>
      <trkpt lat="40.076828" lon="-6.194939">
        <ele>316.388</ele>
        <time>2019-02-28T23:40:38Z</time>
      </trkpt>
      <trkpt lat="40.076843" lon="-6.194946">
        <ele>316.533</ele>
        <time>2019-02-28T23:40:39Z</time>
      </trkpt>
      <trkpt lat="40.077016" lon="-6.194803">
        <ele>317.823</ele>
        <time>2019-02-28T23:40:55Z</time>
      </trkpt>
      <trkpt lat="40.077025" lon="-6.194765">
        <ele>317.915</ele>
        <time>2019-02-28T23:41:01Z</time>
      </trkpt>
      <trkpt lat="40.077021" lon="-6.194697">
        <ele>318.208</ele>
        <time>2019-02-28T23:41:34Z</time>
      </trkpt>
      <trkpt lat="40.076913" lon="-6.194381">
        <ele>320.366</ele>
        <time>2019-02-28T23:41:50Z</time>
      </trkpt>
      <trkpt lat="40.076981" lon="-6.194124">
        <ele>321.677</ele>
        <time>2019-02-28T23:42:04Z</time>
      </trkpt>
      <trkpt lat="40.077105" lon="-6.193799">
        <ele>323.268</ele>
        <time>2019-02-28T23:42:22Z</time>
      </trkpt>
      <trkpt lat="40.077257" lon="-6.193529">
        <ele>324.587</ele>
        <time>2019-02-28T23:42:37Z</time>
      </trkpt>
      <trkpt lat="40.077419" lon="-6.193195">
        <ele>325.841</ele>
        <time>2019-02-28T23:42:53Z</time>
      </trkpt>
      <trkpt lat="40.077534" lon="-6.192914">
        <ele>326.814</ele>
        <time>2019-02-28T23:43:07Z</time>
      </trkpt>
      <trkpt lat="40.077537" lon="-6.192913">
        <ele>326.993</ele>
        <time>2019-02-28T23:43:11Z</time>
      </trkpt>
      <trkpt lat="40.077553" lon="-6.192830">
        <ele>327.122</ele>
        <time>2019-02-28T23:43:27Z</time>
      </trkpt>
      <trkpt lat="40.077701" lon="-6.192534">
        <ele>328.253</ele>
        <time>2019-02-28T23:43:40Z</time>
      </trkpt>
      <trkpt lat="40.077862" lon="-6.192150">
        <ele>330.604</ele>
        <time>2019-02-28T23:43:58Z</time>
      </trkpt>
      <trkpt lat="40.077995" lon="-6.191860">
        <ele>332.414</ele>
        <time>2019-02-28T23:44:15Z</time>
      </trkpt>
      <trkpt lat="40.078168" lon="-6.191631">
        <ele>333.908</ele>
        <time>2019-02-28T23:44:29Z</time>
      </trkpt>
      <trkpt lat="40.078380" lon="-6.191409">
        <ele>335.588</ele>
        <time>2019-02-28T23:44:44Z</time>
      </trkpt>
      <trkpt lat="40.078618" lon="-6.191242">
        <ele>337.489</ele>
        <time>2019-02-28T23:45:00Z</time>
      </trkpt>
      <trkpt lat="40.078866" lon="-6.191063">
        <ele>339.390</ele>
        <time>2019-02-28T23:45:17Z</time>
      </trkpt>
      <trkpt lat="40.079062" lon="-6.190856">
        <ele>340.999</ele>
        <time>2019-02-28T23:45:33Z</time>
      </trkpt>
      <trkpt lat="40.079291" lon="-6.190621">
        <ele>342.343</ele>
        <time>2019-02-28T23:45:49Z</time>
      </trkpt>
      <trkpt lat="40.079485" lon="-6.190399">
        <ele>343.796</ele>
        <time>2019-02-28T23:46:03Z</time>
      </trkpt>
      <trkpt lat="40.079713" lon="-6.190181">
        <ele>344.755</ele>
        <time>2019-02-28T23:46:17Z</time>
      </trkpt>
      <trkpt lat="40.080071" lon="-6.189969">
        <ele>346.544</ele>
        <time>2019-02-28T23:46:36Z</time>
      </trkpt>
      <trkpt lat="40.080396" lon="-6.189817">
        <ele>347.776</ele>
        <time>2019-02-28T23:46:53Z</time>
      </trkpt>
      <trkpt lat="40.080495" lon="-6.189752">
        <ele>348.390</ele>
        <time>2019-02-28T23:46:59Z</time>
      </trkpt>
      <trkpt lat="40.080510" lon="-6.189748">
        <ele>348.419</ele>
        <time>2019-02-28T23:47:00Z</time>
      </trkpt>
      <trkpt lat="40.080525" lon="-6.189739">
        <ele>348.608</ele>
        <time>2019-02-28T23:47:01Z</time>
      </trkpt>
      <trkpt lat="40.080542" lon="-6.189729">
        <ele>348.760</ele>
        <time>2019-02-28T23:47:02Z</time>
      </trkpt>
      <trkpt lat="40.080557" lon="-6.189721">
        <ele>348.991</ele>
        <time>2019-02-28T23:47:03Z</time>
      </trkpt>
      <trkpt lat="40.080572" lon="-6.189717">
        <ele>349.032</ele>
        <time>2019-02-28T23:47:04Z</time>
      </trkpt>
      <trkpt lat="40.080587" lon="-6.189714">
        <ele>349.221</ele>
        <time>2019-02-28T23:47:05Z</time>
      </trkpt>
      <trkpt lat="40.080837" lon="-6.189745">
        <ele>351.545</ele>
        <time>2019-02-28T23:47:20Z</time>
      </trkpt>
      <trkpt lat="40.081050" lon="-6.189642">
        <ele>353.588</ele>
        <time>2019-02-28T23:47:35Z</time>
      </trkpt>
      <trkpt lat="40.081286" lon="-6.189526">
        <ele>356.127</ele>
        <time>2019-02-28T23:47:50Z</time>
      </trkpt>
      <trkpt lat="40.081530" lon="-6.189387">
        <ele>357.876</ele>
        <time>2019-02-28T23:48:06Z</time>
      </trkpt>
      <trkpt lat="40.081722" lon="-6.189110">
        <ele>359.126</ele>
        <time>2019-02-28T23:48:22Z</time>
      </trkpt>
      <trkpt lat="40.081789" lon="-6.188957">
        <ele>359.547</ele>
        <time>2019-02-28T23:48:34Z</time>
      </trkpt>
      <trkpt lat="40.081847" lon="-6.188915">
        <ele>359.711</ele>
        <time>2019-02-28T23:48:56Z</time>
      </trkpt>
      <trkpt lat="40.082083" lon="-6.188737">
        <ele>360.408</ele>
        <time>2019-02-28T23:49:09Z</time>
      </trkpt>
      <trkpt lat="40.082347" lon="-6.188569">
        <ele>361.075</ele>
        <time>2019-02-28T23:49:23Z</time>
      </trkpt>
      <trkpt lat="40.082678" lon="-6.188415">
        <ele>361.176</ele>
        <time>2019-02-28T23:49:38Z</time>
      </trkpt>
      <trkpt lat="40.083215" lon="-6.188177">
        <ele>360.177</ele>
        <time>2019-02-28T23:49:51Z</time>
      </trkpt>
      <trkpt lat="40.083264" lon="-6.188154">
        <ele>360.056</ele>
        <time>2019-02-28T23:49:52Z</time>
      </trkpt>
      <trkpt lat="40.083935" lon="-6.187767">
        <ele>358.510</ele>
        <time>2019-02-28T23:50:05Z</time>
      </trkpt>
      <trkpt lat="40.084292" lon="-6.187501">
        <ele>359.743</ele>
        <time>2019-02-28T23:50:16Z</time>
      </trkpt>
      <trkpt lat="40.084449" lon="-6.187456">
        <ele>360.572</ele>
        <time>2019-02-28T23:50:27Z</time>
      </trkpt>
      <trkpt lat="40.084552" lon="-6.187386">
        <ele>360.711</ele>
        <time>2019-02-28T23:51:22Z</time>
      </trkpt>
      <trkpt lat="40.084943" lon="-6.187325">
        <ele>361.084</ele>
        <time>2019-02-28T23:51:35Z</time>
      </trkpt>
      <trkpt lat="40.085379" lon="-6.187112">
        <ele>361.407</ele>
        <time>2019-02-28T23:51:48Z</time>
      </trkpt>
      <trkpt lat="40.085787" lon="-6.186762">
        <ele>361.617</ele>
        <time>2019-02-28T23:52:05Z</time>
      </trkpt>
      <trkpt lat="40.085817" lon="-6.186687">
        <ele>361.608</ele>
        <time>2019-02-28T23:52:13Z</time>
      </trkpt>
      <trkpt lat="40.085802" lon="-6.186598">
        <ele>361.561</ele>
        <time>2019-02-28T23:52:39Z</time>
      </trkpt>
      <trkpt lat="40.085861" lon="-6.186268">
        <ele>362.092</ele>
        <time>2019-02-28T23:52:51Z</time>
      </trkpt>
      <trkpt lat="40.085865" lon="-6.186258">
        <ele>362.073</ele>
        <time>2019-02-28T23:52:54Z</time>
      </trkpt>
      <trkpt lat="40.085899" lon="-6.186160">
        <ele>362.342</ele>
        <time>2019-02-28T23:53:05Z</time>
      </trkpt>
      <trkpt lat="40.085985" lon="-6.185955">
        <ele>363.626</ele>
        <time>2019-02-28T23:53:15Z</time>
      </trkpt>
      <trkpt lat="40.086229" lon="-6.185700">
        <ele>365.429</ele>
        <time>2019-02-28T23:53:32Z</time>
      </trkpt>
      <trkpt lat="40.086547" lon="-6.185499">
        <ele>366.828</ele>
        <time>2019-02-28T23:53:48Z</time>
      </trkpt>
      <trkpt lat="40.086864" lon="-6.185261">
        <ele>367.627</ele>
        <time>2019-02-28T23:54:05Z</time>
      </trkpt>
      <trkpt lat="40.087227" lon="-6.185032">
        <ele>367.387</ele>
        <time>2019-02-28T23:54:18Z</time>
      </trkpt>
      <trkpt lat="40.087267" lon="-6.185019">
        <ele>367.242</ele>
        <time>2019-02-28T23:54:19Z</time>
      </trkpt>
      <trkpt lat="40.087305" lon="-6.185002">
        <ele>367.226</ele>
        <time>2019-02-28T23:54:20Z</time>
      </trkpt>
      <trkpt lat="40.087335" lon="-6.184978">
        <ele>367.008</ele>
        <time>2019-02-28T23:54:21Z</time>
      </trkpt>
      <trkpt lat="40.087352" lon="-6.184946">
        <ele>366.961</ele>
        <time>2019-02-28T23:54:22Z</time>
      </trkpt>
      <trkpt lat="40.087365" lon="-6.184916">
        <ele>366.782</ele>
        <time>2019-02-28T23:54:23Z</time>
      </trkpt>
      <trkpt lat="40.087383" lon="-6.184893">
        <ele>366.683</ele>
        <time>2019-02-28T23:54:24Z</time>
      </trkpt>
      <trkpt lat="40.087405" lon="-6.184877">
        <ele>366.542</ele>
        <time>2019-02-28T23:54:25Z</time>
      </trkpt>
      <trkpt lat="40.087424" lon="-6.184865">
        <ele>366.416</ele>
        <time>2019-02-28T23:54:30Z</time>
      </trkpt>
      <trkpt lat="40.087495" lon="-6.184820">
        <ele>366.079</ele>
        <time>2019-02-28T23:54:51Z</time>
      </trkpt>
      <trkpt lat="40.087633" lon="-6.184773">
        <ele>365.658</ele>
        <time>2019-02-28T23:55:01Z</time>
      </trkpt>
      <trkpt lat="40.087805" lon="-6.184469">
        <ele>365.617</ele>
        <time>2019-02-28T23:55:12Z</time>
      </trkpt>
      <trkpt lat="40.087860" lon="-6.184423">
        <ele>365.769</ele>
        <time>2019-02-28T23:55:18Z</time>
      </trkpt>
      <trkpt lat="40.087901" lon="-6.184385">
        <ele>365.804</ele>
        <time>2019-02-28T23:55:24Z</time>
      </trkpt>
      <trkpt lat="40.088039" lon="-6.184286">
        <ele>366.124</ele>
        <time>2019-02-28T23:55:35Z</time>
      </trkpt>
      <trkpt lat="40.088147" lon="-6.184195">
        <ele>366.608</ele>
        <time>2019-02-28T23:55:45Z</time>
      </trkpt>
      <trkpt lat="40.088147" lon="-6.184195">
        <ele>366.699</ele>
        <time>2019-02-28T23:55:46Z</time>
      </trkpt>
      <trkpt lat="40.088206" lon="-6.184126">
        <ele>367.040</ele>
        <time>2019-02-28T23:56:04Z</time>
      </trkpt>
      <trkpt lat="40.088217" lon="-6.184104">
        <ele>367.171</ele>
        <time>2019-02-28T23:56:05Z</time>
      </trkpt>
      <trkpt lat="40.088226" lon="-6.184081">
        <ele>367.210</ele>
        <time>2019-02-28T23:56:06Z</time>
      </trkpt>
      <trkpt lat="40.088236" lon="-6.184059">
        <ele>367.224</ele>
        <time>2019-02-28T23:56:07Z</time>
      </trkpt>
      <trkpt lat="40.088247" lon="-6.184040">
        <ele>367.397</ele>
        <time>2019-02-28T23:56:08Z</time>
      </trkpt>
      <trkpt lat="40.088259" lon="-6.184024">
        <ele>367.496</ele>
        <time>2019-02-28T23:56:09Z</time>
      </trkpt>
      <trkpt lat="40.088274" lon="-6.184010">
        <ele>367.545</ele>
        <time>2019-02-28T23:56:10Z</time>
      </trkpt>
      <trkpt lat="40.088290" lon="-6.183999">
        <ele>367.674</ele>
        <time>2019-02-28T23:56:11Z</time>
      </trkpt>
      <trkpt lat="40.088308" lon="-6.183987">
        <ele>367.756</ele>
        <time>2019-02-28T23:56:12Z</time>
      </trkpt>
      <trkpt lat="40.088323" lon="-6.183973">
        <ele>367.821</ele>
        <time>2019-02-28T23:56:13Z</time>
      </trkpt>
      <trkpt lat="40.088337" lon="-6.183960">
        <ele>367.808</ele>
        <time>2019-02-28T23:56:14Z</time>
      </trkpt>
      <trkpt lat="40.088352" lon="-6.183951">
        <ele>367.970</ele>
        <time>2019-02-28T23:56:15Z</time>
      </trkpt>
      <trkpt lat="40.088368" lon="-6.183943">
        <ele>368.091</ele>
        <time>2019-02-28T23:56:16Z</time>
      </trkpt>
      <trkpt lat="40.088387" lon="-6.183938">
        <ele>368.142</ele>
        <time>2019-02-28T23:56:17Z</time>
      </trkpt>
      <trkpt lat="40.088409" lon="-6.183941">
        <ele>368.291</ele>
        <time>2019-02-28T23:56:18Z</time>
      </trkpt>
      <trkpt lat="40.088433" lon="-6.183951">
        <ele>368.395</ele>
        <time>2019-02-28T23:56:19Z</time>
      </trkpt>
      <trkpt lat="40.088459" lon="-6.183962">
        <ele>368.418</ele>
        <time>2019-02-28T23:56:20Z</time>
      </trkpt>
      <trkpt lat="40.088855" lon="-6.183888">
        <ele>369.457</ele>
        <time>2019-02-28T23:56:34Z</time>
      </trkpt>
      <trkpt lat="40.089125" lon="-6.183822">
        <ele>369.826</ele>
        <time>2019-02-28T23:56:47Z</time>
      </trkpt>
      <trkpt lat="40.089236" lon="-6.183786">
        <ele>369.963</ele>
        <time>2019-02-28T23:57:04Z</time>
      </trkpt>
      <trkpt lat="40.089618" lon="-6.183616">
        <ele>370.544</ele>
        <time>2019-02-28T23:57:16Z</time>
      </trkpt>
      <trkpt lat="40.090173" lon="-6.183453">
        <ele>370.418</ele>
        <time>2019-02-28T23:57:31Z</time>
      </trkpt>
      <trkpt lat="40.090511" lon="-6.183358">
        <ele>370.608</ele>
        <time>2019-02-28T23:57:41Z</time>
      </trkpt>
      <trkpt lat="40.090838" lon="-6.183335">
        <ele>371.569</ele>
        <time>2019-02-28T23:57:53Z</time>
      </trkpt>
      <trkpt lat="40.091178" lon="-6.183196">
        <ele>372.510</ele>
        <time>2019-02-28T23:58:07Z</time>
      </trkpt>
      <trkpt lat="40.091448" lon="-6.183074">
        <ele>373.631</ele>
        <time>2019-02-28T23:58:20Z</time>
      </trkpt>
      <trkpt lat="40.091741" lon="-6.183117">
        <ele>374.720</ele>
        <time>2019-02-28T23:58:32Z</time>
      </trkpt>
      <trkpt lat="40.092124" lon="-6.183118">
        <ele>374.974</ele>
        <time>2019-02-28T23:58:43Z</time>
      </trkpt>
      <trkpt lat="40.092594" lon="-6.182983">
        <ele>374.647</ele>
        <time>2019-02-28T23:58:55Z</time>
      </trkpt>
      <trkpt lat="40.092677" lon="-6.182948">
        <ele>374.516</ele>
        <time>2019-02-28T23:58:57Z</time>
      </trkpt>
      <trkpt lat="40.092721" lon="-6.182938">
        <ele>374.595</ele>
        <time>2019-02-28T23:58:58Z</time>
      </trkpt>
      <trkpt lat="40.092768" lon="-6.182926">
        <ele>374.558</ele>
        <time>2019-02-28T23:58:59Z</time>
      </trkpt>
      <trkpt lat="40.092901" lon="-6.182887">
        <ele>374.452</ele>
        <time>2019-02-28T23:59:02Z</time>
      </trkpt>
      <trkpt lat="40.093291" lon="-6.182676">
        <ele>374.817</ele>
        <time>2019-02-28T23:59:14Z</time>
      </trkpt>
      <trkpt lat="40.093560" lon="-6.182589">
        <ele>375.208</ele>
        <time>2019-02-28T23:59:23Z</time>
      </trkpt>
      <trkpt lat="40.093957" lon="-6.182564">
        <ele>375.828</ele>
        <time>2019-02-28T23:59:36Z</time>
      </trkpt>
      <trkpt lat="40.094306" lon="-6.182512">
        <ele>376.619</ele>
        <time>2019-02-28T23:59:48Z</time>
      </trkpt>
      <trkpt lat="40.094624" lon="-6.182493">
        <ele>377.380</ele>
        <time>2019-02-28T23:59:59Z</time>
      </trkpt>
      <trkpt lat="40.095017" lon="-6.182462">
        <ele>378.099</ele>
        <time>2019-03-01T00:00:12Z</time>
      </trkpt>
      <trkpt lat="40.095500" lon="-6.182397">
        <ele>378.833</ele>
        <time>2019-03-01T00:00:26Z</time>
      </trkpt>
      <trkpt lat="40.095831" lon="-6.182270">
        <ele>379.576</ele>
        <time>2019-03-01T00:00:37Z</time>
      </trkpt>
      <trkpt lat="40.096246" lon="-6.182090">
        <ele>380.165</ele>
        <time>2019-03-01T00:00:50Z</time>
      </trkpt>
      <trkpt lat="40.096657" lon="-6.181871">
        <ele>380.954</ele>
        <time>2019-03-01T00:01:05Z</time>
      </trkpt>
      <trkpt lat="40.096672" lon="-6.181833">
        <ele>381.013</ele>
        <time>2019-03-01T00:01:10Z</time>
      </trkpt>
      <trkpt lat="40.096672" lon="-6.181815">
        <ele>381.143</ele>
        <time>2019-03-01T00:01:11Z</time>
      </trkpt>
      <trkpt lat="40.096671" lon="-6.181797">
        <ele>381.107</ele>
        <time>2019-03-01T00:01:12Z</time>
      </trkpt>
      <trkpt lat="40.096661" lon="-6.181751">
        <ele>381.208</ele>
        <time>2019-03-01T00:01:19Z</time>
      </trkpt>
      <trkpt lat="40.096728" lon="-6.181701">
        <ele>381.514</ele>
        <time>2019-03-01T00:04:05Z</time>
      </trkpt>
      <trkpt lat="40.096748" lon="-6.181695">
        <ele>381.575</ele>
        <time>2019-03-01T00:04:06Z</time>
      </trkpt>
      <trkpt lat="40.096770" lon="-6.181688">
        <ele>381.666</ele>
        <time>2019-03-01T00:04:07Z</time>
      </trkpt>
      <trkpt lat="40.097058" lon="-6.181536">
        <ele>382.115</ele>
        <time>2019-03-01T00:04:18Z</time>
      </trkpt>
      <trkpt lat="40.097409" lon="-6.181344">
        <ele>382.899</ele>
        <time>2019-03-01T00:04:31Z</time>
      </trkpt>
      <trkpt lat="40.097743" lon="-6.181306">
        <ele>384.362</ele>
        <time>2019-03-01T00:04:45Z</time>
      </trkpt>
      <trkpt lat="40.098006" lon="-6.181224">
        <ele>384.871</ele>
        <time>2019-03-01T00:04:58Z</time>
      </trkpt>
      <trkpt lat="40.098366" lon="-6.181034">
        <ele>384.920</ele>
        <time>2019-03-01T00:05:10Z</time>
      </trkpt>
      <trkpt lat="40.098753" lon="-6.180881">
        <ele>385.181</ele>
        <time>2019-03-01T00:05:21Z</time>
      </trkpt>
      <trkpt lat="40.099144" lon="-6.180659">
        <ele>385.761</ele>
        <time>2019-03-01T00:05:33Z</time>
      </trkpt>
      <trkpt lat="40.099412" lon="-6.180659">
        <ele>386.517</ele>
        <time>2019-03-01T00:05:42Z</time>
      </trkpt>
      <trkpt lat="40.099717" lon="-6.180530">
        <ele>387.508</ele>
        <time>2019-03-01T00:05:53Z</time>
      </trkpt>
      <trkpt lat="40.099997" lon="-6.180435">
        <ele>388.361</ele>
        <time>2019-03-01T00:06:02Z</time>
      </trkpt>
      <trkpt lat="40.100315" lon="-6.180342">
        <ele>389.562</ele>
        <time>2019-03-01T00:06:14Z</time>
      </trkpt>
      <trkpt lat="40.100553" lon="-6.180238">
        <ele>390.563</ele>
        <time>2019-03-01T00:06:25Z</time>
      </trkpt>
      <trkpt lat="40.100600" lon="-6.180185">
        <ele>390.872</ele>
        <time>2019-03-01T00:06:28Z</time>
      </trkpt>
      <trkpt lat="40.100623" lon="-6.180180">
        <ele>390.986</ele>
        <time>2019-03-01T00:06:29Z</time>
      </trkpt>
      <trkpt lat="40.100651" lon="-6.180182">
        <ele>391.099</ele>
        <time>2019-03-01T00:06:30Z</time>
      </trkpt>
      <trkpt lat="40.100739" lon="-6.180185">
        <ele>391.488</ele>
        <time>2019-03-01T00:06:33Z</time>
      </trkpt>
      <trkpt lat="40.100761" lon="-6.180168">
        <ele>391.597</ele>
        <time>2019-03-01T00:06:34Z</time>
      </trkpt>
      <trkpt lat="40.100780" lon="-6.180143">
        <ele>391.671</ele>
        <time>2019-03-01T00:06:35Z</time>
      </trkpt>
      <trkpt lat="40.100798" lon="-6.180123">
        <ele>391.741</ele>
        <time>2019-03-01T00:06:36Z</time>
      </trkpt>
      <trkpt lat="40.100817" lon="-6.180111">
        <ele>391.815</ele>
        <time>2019-03-01T00:06:37Z</time>
      </trkpt>
      <trkpt lat="40.100838" lon="-6.180105">
        <ele>391.808</ele>
        <time>2019-03-01T00:06:38Z</time>
      </trkpt>
      <trkpt lat="40.100860" lon="-6.180101">
        <ele>391.980</ele>
        <time>2019-03-01T00:06:39Z</time>
      </trkpt>
      <trkpt lat="40.101194" lon="-6.180027">
        <ele>393.411</ele>
        <time>2019-03-01T00:06:53Z</time>
      </trkpt>
      <trkpt lat="40.101550" lon="-6.179852">
        <ele>395.312</ele>
        <time>2019-03-01T00:07:08Z</time>
      </trkpt>
      <trkpt lat="40.101790" lon="-6.179887">
        <ele>396.411</ele>
        <time>2019-03-01T00:07:20Z</time>
      </trkpt>
      <trkpt lat="40.101836" lon="-6.179906">
        <ele>396.685</ele>
        <time>2019-03-01T00:07:24Z</time>
      </trkpt>
      <trkpt lat="40.101850" lon="-6.179904">
        <ele>396.658</ele>
        <time>2019-03-01T00:07:25Z</time>
      </trkpt>
      <trkpt lat="40.101866" lon="-6.179904">
        <ele>396.777</ele>
        <time>2019-03-01T00:07:26Z</time>
      </trkpt>
      <trkpt lat="40.102183" lon="-6.179880">
        <ele>397.496</ele>
        <time>2019-03-01T00:07:40Z</time>
      </trkpt>
      <trkpt lat="40.102553" lon="-6.179783">
        <ele>397.625</ele>
        <time>2019-03-01T00:07:51Z</time>
      </trkpt>
      <trkpt lat="40.102708" lon="-6.179744">
        <ele>397.626</ele>
        <time>2019-03-01T00:07:55Z</time>
      </trkpt>
      <trkpt lat="40.102750" lon="-6.179743">
        <ele>397.708</ele>
        <time>2019-03-01T00:07:56Z</time>
      </trkpt>
      <trkpt lat="40.102792" lon="-6.179740">
        <ele>397.708</ele>
        <time>2019-03-01T00:07:57Z</time>
      </trkpt>
      <trkpt lat="40.102916" lon="-6.179717">
        <ele>397.715</ele>
        <time>2019-03-01T00:08:00Z</time>
      </trkpt>
      <trkpt lat="40.102957" lon="-6.179712">
        <ele>397.756</ele>
        <time>2019-03-01T00:08:01Z</time>
      </trkpt>
      <trkpt lat="40.102999" lon="-6.179703">
        <ele>397.757</ele>
        <time>2019-03-01T00:08:02Z</time>
      </trkpt>
      <trkpt lat="40.103039" lon="-6.179692">
        <ele>397.736</ele>
        <time>2019-03-01T00:08:03Z</time>
      </trkpt>
      <trkpt lat="40.103081" lon="-6.179680">
        <ele>397.760</ele>
        <time>2019-03-01T00:08:04Z</time>
      </trkpt>
      <trkpt lat="40.103245" lon="-6.179631">
        <ele>397.733</ele>
        <time>2019-03-01T00:08:08Z</time>
      </trkpt>
      <trkpt lat="40.103289" lon="-6.179630">
        <ele>397.712</ele>
        <time>2019-03-01T00:08:09Z</time>
      </trkpt>
      <trkpt lat="40.103422" lon="-6.179629">
        <ele>397.721</ele>
        <time>2019-03-01T00:08:12Z</time>
      </trkpt>
      <trkpt lat="40.103611" lon="-6.179595">
        <ele>397.628</ele>
        <time>2019-03-01T00:08:16Z</time>
      </trkpt>
      <trkpt lat="40.103660" lon="-6.179574">
        <ele>397.589</ele>
        <time>2019-03-01T00:08:17Z</time>
      </trkpt>
      <trkpt lat="40.103709" lon="-6.179546">
        <ele>397.517</ele>
        <time>2019-03-01T00:08:18Z</time>
      </trkpt>
      <trkpt lat="40.103761" lon="-6.179521">
        <ele>397.508</ele>
        <time>2019-03-01T00:08:19Z</time>
      </trkpt>
      <trkpt lat="40.103813" lon="-6.179501">
        <ele>397.515</ele>
        <time>2019-03-01T00:08:20Z</time>
      </trkpt>
      <trkpt lat="40.103863" lon="-6.179489">
        <ele>397.586</ele>
        <time>2019-03-01T00:08:21Z</time>
      </trkpt>
      <trkpt lat="40.104456" lon="-6.179365">
        <ele>398.387</ele>
        <time>2019-03-01T00:08:35Z</time>
      </trkpt>
      <trkpt lat="40.104856" lon="-6.179342">
        <ele>399.776</ele>
        <time>2019-03-01T00:08:48Z</time>
      </trkpt>
      <trkpt lat="40.105087" lon="-6.179301">
        <ele>400.520</ele>
        <time>2019-03-01T00:08:59Z</time>
      </trkpt>
      <trkpt lat="40.105253" lon="-6.179280">
        <ele>400.533</ele>
        <time>2019-03-01T00:09:11Z</time>
      </trkpt>
      <trkpt lat="40.105325" lon="-6.179282">
        <ele>400.292</ele>
        <time>2019-03-01T00:09:25Z</time>
      </trkpt>
      <trkpt lat="40.105483" lon="-6.179292">
        <ele>399.241</ele>
        <time>2019-03-01T00:09:30Z</time>
      </trkpt>
      <trkpt lat="40.105504" lon="-6.179281">
        <ele>399.123</ele>
        <time>2019-03-01T00:09:31Z</time>
      </trkpt>
      <trkpt lat="40.105517" lon="-6.179266">
        <ele>399.083</ele>
        <time>2019-03-01T00:09:32Z</time>
      </trkpt>
      <trkpt lat="40.105530" lon="-6.179244">
        <ele>398.911</ele>
        <time>2019-03-01T00:09:37Z</time>
      </trkpt>
      <trkpt lat="40.105634" lon="-6.179177">
        <ele>398.408</ele>
        <time>2019-03-01T00:10:03Z</time>
      </trkpt>
      <trkpt lat="40.105663" lon="-6.179168">
        <ele>398.395</ele>
        <time>2019-03-01T00:10:04Z</time>
      </trkpt>
      <trkpt lat="40.105692" lon="-6.179159">
        <ele>398.256</ele>
        <time>2019-03-01T00:10:05Z</time>
      </trkpt>
      <trkpt lat="40.105719" lon="-6.179146">
        <ele>398.127</ele>
        <time>2019-03-01T00:10:06Z</time>
      </trkpt>
      <trkpt lat="40.105750" lon="-6.179128">
        <ele>398.056</ele>
        <time>2019-03-01T00:10:07Z</time>
      </trkpt>
      <trkpt lat="40.105778" lon="-6.179106">
        <ele>397.980</ele>
        <time>2019-03-01T00:10:08Z</time>
      </trkpt>
      <trkpt lat="40.105800" lon="-6.179073">
        <ele>397.943</ele>
        <time>2019-03-01T00:10:09Z</time>
      </trkpt>
      <trkpt lat="40.105818" lon="-6.179032">
        <ele>397.882</ele>
        <time>2019-03-01T00:10:10Z</time>
      </trkpt>
      <trkpt lat="40.105835" lon="-6.178990">
        <ele>397.711</ele>
        <time>2019-03-01T00:10:11Z</time>
      </trkpt>
      <trkpt lat="40.105909" lon="-6.178886">
        <ele>397.595</ele>
        <time>2019-03-01T00:10:14Z</time>
      </trkpt>
      <trkpt lat="40.105948" lon="-6.178878">
        <ele>397.449</ele>
        <time>2019-03-01T00:10:15Z</time>
      </trkpt>
      <trkpt lat="40.105993" lon="-6.178869">
        <ele>397.323</ele>
        <time>2019-03-01T00:10:16Z</time>
      </trkpt>
      <trkpt lat="40.106135" lon="-6.178836">
        <ele>397.108</ele>
        <time>2019-03-01T00:10:19Z</time>
      </trkpt>
      <trkpt lat="40.106182" lon="-6.178827">
        <ele>397.162</ele>
        <time>2019-03-01T00:10:20Z</time>
      </trkpt>
      <trkpt lat="40.106525" lon="-6.178919">
        <ele>397.013</ele>
        <time>2019-03-01T00:10:29Z</time>
      </trkpt>
      <trkpt lat="40.106962" lon="-6.178958">
        <ele>397.724</ele>
        <time>2019-03-01T00:10:43Z</time>
      </trkpt>
      <trkpt lat="40.107262" lon="-6.178842">
        <ele>398.993</ele>
        <time>2019-03-01T00:10:54Z</time>
      </trkpt>
      <trkpt lat="40.107584" lon="-6.178813">
        <ele>400.017</ele>
        <time>2019-03-01T00:11:06Z</time>
      </trkpt>
      <trkpt lat="40.107866" lon="-6.178761">
        <ele>401.030</ele>
        <time>2019-03-01T00:11:16Z</time>
      </trkpt>
      <trkpt lat="40.107885" lon="-6.178737">
        <ele>401.159</ele>
        <time>2019-03-01T00:11:17Z</time>
      </trkpt>
      <trkpt lat="40.107903" lon="-6.178712">
        <ele>401.238</ele>
        <time>2019-03-01T00:11:18Z</time>
      </trkpt>
      <trkpt lat="40.107917" lon="-6.178689">
        <ele>401.268</ele>
        <time>2019-03-01T00:11:19Z</time>
      </trkpt>
      <trkpt lat="40.107929" lon="-6.178670">
        <ele>401.342</ele>
        <time>2019-03-01T00:11:20Z</time>
      </trkpt>
      <trkpt lat="40.107944" lon="-6.178654">
        <ele>401.326</ele>
        <time>2019-03-01T00:11:21Z</time>
      </trkpt>
      <trkpt lat="40.107964" lon="-6.178641">
        <ele>401.408</ele>
        <time>2019-03-01T00:11:22Z</time>
      </trkpt>
      <trkpt lat="40.107991" lon="-6.178629">
        <ele>401.499</ele>
        <time>2019-03-01T00:11:23Z</time>
      </trkpt>
      <trkpt lat="40.108019" lon="-6.178617">
        <ele>401.550</ele>
        <time>2019-03-01T00:11:24Z</time>
      </trkpt>
      <trkpt lat="40.108263" lon="-6.178563">
        <ele>401.681</ele>
        <time>2019-03-01T00:11:32Z</time>
      </trkpt>
      <trkpt lat="40.108290" lon="-6.178570">
        <ele>401.670</ele>
        <time>2019-03-01T00:11:33Z</time>
      </trkpt>
      <trkpt lat="40.108640" lon="-6.178562">
        <ele>401.444</ele>
        <time>2019-03-01T00:11:43Z</time>
      </trkpt>
      <trkpt lat="40.108998" lon="-6.178461">
        <ele>402.037</ele>
        <time>2019-03-01T00:11:55Z</time>
      </trkpt>
      <trkpt lat="40.109316" lon="-6.178348">
        <ele>403.146</ele>
        <time>2019-03-01T00:12:07Z</time>
      </trkpt>
      <trkpt lat="40.109693" lon="-6.178169">
        <ele>404.725</ele>
        <time>2019-03-01T00:12:22Z</time>
      </trkpt>
      <trkpt lat="40.110069" lon="-6.178052">
        <ele>406.043</ele>
        <time>2019-03-01T00:12:37Z</time>
      </trkpt>
      <trkpt lat="40.110365" lon="-6.177878">
        <ele>407.264</ele>
        <time>2019-03-01T00:12:49Z</time>
      </trkpt>
      <trkpt lat="40.110400" lon="-6.177837">
        <ele>407.310</ele>
        <time>2019-03-01T00:12:51Z</time>
      </trkpt>
      <trkpt lat="40.110407" lon="-6.177812">
        <ele>407.408</ele>
        <time>2019-03-01T00:12:52Z</time>
      </trkpt>
      <trkpt lat="40.110613" lon="-6.177602">
        <ele>408.217</ele>
        <time>2019-03-01T00:13:01Z</time>
      </trkpt>
      <trkpt lat="40.110642" lon="-6.177588">
        <ele>408.338</ele>
        <time>2019-03-01T00:13:02Z</time>
      </trkpt>
      <trkpt lat="40.111039" lon="-6.177566">
        <ele>409.879</ele>
        <time>2019-03-01T00:13:17Z</time>
      </trkpt>
      <trkpt lat="40.111376" lon="-6.177602">
        <ele>410.928</ele>
        <time>2019-03-01T00:13:30Z</time>
      </trkpt>
      <trkpt lat="40.111397" lon="-6.177593">
        <ele>410.972</ele>
        <time>2019-03-01T00:13:31Z</time>
      </trkpt>
      <trkpt lat="40.111419" lon="-6.177585">
        <ele>411.065</ele>
        <time>2019-03-01T00:13:32Z</time>
      </trkpt>
      <trkpt lat="40.111471" lon="-6.177578">
        <ele>411.144</ele>
        <time>2019-03-01T00:13:34Z</time>
      </trkpt>
      <trkpt lat="40.111799" lon="-6.177497">
        <ele>412.143</ele>
        <time>2019-03-01T00:13:48Z</time>
      </trkpt>
      <trkpt lat="40.112144" lon="-6.177260">
        <ele>412.837</ele>
        <time>2019-03-01T00:14:02Z</time>
      </trkpt>
      <trkpt lat="40.112435" lon="-6.177117">
        <ele>413.249</ele>
        <time>2019-03-01T00:14:15Z</time>
      </trkpt>
      <trkpt lat="40.112725" lon="-6.177036">
        <ele>413.113</ele>
        <time>2019-03-01T00:14:27Z</time>
      </trkpt>
      <trkpt lat="40.112984" lon="-6.176805">
        <ele>412.608</ele>
        <time>2019-03-01T00:14:39Z</time>
      </trkpt>
      <trkpt lat="40.113230" lon="-6.176307">
        <ele>411.426</ele>
        <time>2019-03-01T00:14:52Z</time>
      </trkpt>
      <trkpt lat="40.113264" lon="-6.176276">
        <ele>411.257</ele>
        <time>2019-03-01T00:14:53Z</time>
      </trkpt>
      <trkpt lat="40.113341" lon="-6.176215">
        <ele>410.838</ele>
        <time>2019-03-01T00:14:55Z</time>
      </trkpt>
      <trkpt lat="40.113384" lon="-6.176189">
        <ele>410.617</ele>
        <time>2019-03-01T00:14:56Z</time>
      </trkpt>
      <trkpt lat="40.113487" lon="-6.176131">
        <ele>410.361</ele>
        <time>2019-03-01T00:15:03Z</time>
      </trkpt>
      <trkpt lat="40.113485" lon="-6.176126">
        <ele>410.334</ele>
        <time>2019-03-01T00:15:05Z</time>
      </trkpt>
      <trkpt lat="40.113558" lon="-6.176073">
        <ele>410.053</ele>
        <time>2019-03-01T00:17:01Z</time>
      </trkpt>
      <trkpt lat="40.113870" lon="-6.175838">
        <ele>409.522</ele>
        <time>2019-03-01T00:17:12Z</time>
      </trkpt>
      <trkpt lat="40.114286" lon="-6.175626">
        <ele>409.768</ele>
        <time>2019-03-01T00:17:28Z</time>
      </trkpt>
      <trkpt lat="40.114574" lon="-6.175473">
        <ele>410.542</ele>
        <time>2019-03-01T00:17:40Z</time>
      </trkpt>
      <trkpt lat="40.114886" lon="-6.175085">
        <ele>412.626</ele>
        <time>2019-03-01T00:17:53Z</time>
      </trkpt>
      <trkpt lat="40.115110" lon="-6.174797">
        <ele>411.608</ele>
        <time>2019-03-01T00:18:02Z</time>
      </trkpt>
      <trkpt lat="40.115146" lon="-6.174773">
        <ele>411.399</ele>
        <time>2019-03-01T00:18:03Z</time>
      </trkpt>
      <trkpt lat="40.115186" lon="-6.174760">
        <ele>411.180</ele>
        <time>2019-03-01T00:18:04Z</time>
      </trkpt>
      <trkpt lat="40.115228" lon="-6.174756">
        <ele>410.871</ele>
        <time>2019-03-01T00:18:05Z</time>
      </trkpt>
      <trkpt lat="40.115270" lon="-6.174751">
        <ele>410.750</ele>
        <time>2019-03-01T00:18:06Z</time>
      </trkpt>
      <trkpt lat="40.115308" lon="-6.174735">
        <ele>410.624</ele>
        <time>2019-03-01T00:18:07Z</time>
      </trkpt>
      <trkpt lat="40.115344" lon="-6.174708">
        <ele>410.567</ele>
        <time>2019-03-01T00:18:08Z</time>
      </trkpt>
      <trkpt lat="40.115378" lon="-6.174675">
        <ele>410.546</ele>
        <time>2019-03-01T00:18:09Z</time>
      </trkpt>
      <trkpt lat="40.115410" lon="-6.174640">
        <ele>410.535</ele>
        <time>2019-03-01T00:18:10Z</time>
      </trkpt>
      <trkpt lat="40.115442" lon="-6.174607">
        <ele>410.517</ele>
        <time>2019-03-01T00:18:11Z</time>
      </trkpt>
      <trkpt lat="40.115477" lon="-6.174579">
        <ele>410.587</ele>
        <time>2019-03-01T00:18:12Z</time>
      </trkpt>
      <trkpt lat="40.115514" lon="-6.174554">
        <ele>410.515</ele>
        <time>2019-03-01T00:18:13Z</time>
      </trkpt>
      <trkpt lat="40.115550" lon="-6.174531">
        <ele>410.508</ele>
        <time>2019-03-01T00:18:14Z</time>
      </trkpt>
      <trkpt lat="40.115802" lon="-6.174211">
        <ele>410.534</ele>
        <time>2019-03-01T00:18:24Z</time>
      </trkpt>
      <trkpt lat="40.116100" lon="-6.173854">
        <ele>408.965</ele>
        <time>2019-03-01T00:18:34Z</time>
      </trkpt>
      <trkpt lat="40.116546" lon="-6.173432">
        <ele>408.746</ele>
        <time>2019-03-01T00:18:49Z</time>
      </trkpt>
      <trkpt lat="40.116897" lon="-6.173486">
        <ele>408.475</ele>
        <time>2019-03-01T00:19:03Z</time>
      </trkpt>
      <trkpt lat="40.116896" lon="-6.173488">
        <ele>408.469</ele>
        <time>2019-03-01T00:19:05Z</time>
      </trkpt>
      <trkpt lat="40.116923" lon="-6.173408">
        <ele>408.392</ele>
        <time>2019-03-01T00:19:13Z</time>
      </trkpt>
      <trkpt lat="40.116941" lon="-6.173388">
        <ele>408.391</ele>
        <time>2019-03-01T00:19:14Z</time>
      </trkpt>
      <trkpt lat="40.116963" lon="-6.173364">
        <ele>408.340</ele>
        <time>2019-03-01T00:19:15Z</time>
      </trkpt>
      <trkpt lat="40.116986" lon="-6.173338">
        <ele>408.345</ele>
        <time>2019-03-01T00:19:16Z</time>
      </trkpt>
      <trkpt lat="40.117012" lon="-6.173314">
        <ele>408.347</ele>
        <time>2019-03-01T00:19:17Z</time>
      </trkpt>
      <trkpt lat="40.117040" lon="-6.173291">
        <ele>408.311</ele>
        <time>2019-03-01T00:19:18Z</time>
      </trkpt>
      <trkpt lat="40.117069" lon="-6.173270">
        <ele>408.308</ele>
        <time>2019-03-01T00:19:19Z</time>
      </trkpt>
      <trkpt lat="40.117097" lon="-6.173256">
        <ele>408.397</ele>
        <time>2019-03-01T00:19:20Z</time>
      </trkpt>
      <trkpt lat="40.117125" lon="-6.173241">
        <ele>408.398</ele>
        <time>2019-03-01T00:19:21Z</time>
      </trkpt>
      <trkpt lat="40.117152" lon="-6.173220">
        <ele>408.369</ele>
        <time>2019-03-01T00:19:22Z</time>
      </trkpt>
      <trkpt lat="40.117180" lon="-6.173195">
        <ele>408.448</ele>
        <time>2019-03-01T00:19:23Z</time>
      </trkpt>
      <trkpt lat="40.117207" lon="-6.173164">
        <ele>408.452</ele>
        <time>2019-03-01T00:19:24Z</time>
      </trkpt>
      <trkpt lat="40.117234" lon="-6.173130">
        <ele>408.515</ele>
        <time>2019-03-01T00:19:25Z</time>
      </trkpt>
      <trkpt lat="40.117654" lon="-6.172674">
        <ele>409.174</ele>
        <time>2019-03-01T00:19:39Z</time>
      </trkpt>
      <trkpt lat="40.117795" lon="-6.172503">
        <ele>409.153</ele>
        <time>2019-03-01T00:19:43Z</time>
      </trkpt>
      <trkpt lat="40.117834" lon="-6.172461">
        <ele>409.183</ele>
        <time>2019-03-01T00:19:44Z</time>
      </trkpt>
      <trkpt lat="40.118212" lon="-6.172050">
        <ele>408.125</ele>
        <time>2019-03-01T00:19:56Z</time>
      </trkpt>
      <trkpt lat="40.118436" lon="-6.171876">
        <ele>407.317</ele>
        <time>2019-03-01T00:20:05Z</time>
      </trkpt>
      <trkpt lat="40.118646" lon="-6.171688">
        <ele>406.508</ele>
        <time>2019-03-01T00:20:12Z</time>
      </trkpt>
      <trkpt lat="40.118685" lon="-6.171672">
        <ele>406.451</ele>
        <time>2019-03-01T00:20:13Z</time>
      </trkpt>
      <trkpt lat="40.119020" lon="-6.171432">
        <ele>405.152</ele>
        <time>2019-03-01T00:20:24Z</time>
      </trkpt>
      <trkpt lat="40.119194" lon="-6.171229">
        <ele>404.273</ele>
        <time>2019-03-01T00:20:30Z</time>
      </trkpt>
      <trkpt lat="40.119225" lon="-6.171200">
        <ele>404.142</ele>
        <time>2019-03-01T00:20:31Z</time>
      </trkpt>
      <trkpt lat="40.119382" lon="-6.171022">
        <ele>403.566</ele>
        <time>2019-03-01T00:20:42Z</time>
      </trkpt>
      <trkpt lat="40.119445" lon="-6.170880">
        <ele>402.929</ele>
        <time>2019-03-01T00:21:38Z</time>
      </trkpt>
      <trkpt lat="40.119605" lon="-6.170635">
        <ele>402.418</ele>
        <time>2019-03-01T00:21:49Z</time>
      </trkpt>
      <trkpt lat="40.119866" lon="-6.170306">
        <ele>402.897</ele>
        <time>2019-03-01T00:22:04Z</time>
      </trkpt>
      <trkpt lat="40.120214" lon="-6.169994">
        <ele>404.064</ele>
        <time>2019-03-01T00:22:19Z</time>
      </trkpt>
      <trkpt lat="40.120537" lon="-6.169713">
        <ele>405.906</ele>
        <time>2019-03-01T00:22:35Z</time>
      </trkpt>
      <trkpt lat="40.120802" lon="-6.169518">
        <ele>407.616</ele>
        <time>2019-03-01T00:22:50Z</time>
      </trkpt>
      <trkpt lat="40.120852" lon="-6.169485">
        <ele>408.008</ele>
        <time>2019-03-01T00:22:54Z</time>
      </trkpt>
      <trkpt lat="40.120860" lon="-6.169465">
        <ele>408.149</ele>
        <time>2019-03-01T00:22:55Z</time>
      </trkpt>
      <trkpt lat="40.121034" lon="-6.169169">
        <ele>409.160</ele>
        <time>2019-03-01T00:23:07Z</time>
      </trkpt>
      <trkpt lat="40.121331" lon="-6.168799">
        <ele>408.811</ele>
        <time>2019-03-01T00:23:17Z</time>
      </trkpt>
      <trkpt lat="40.121597" lon="-6.168517">
        <ele>407.990</ele>
        <time>2019-03-01T00:23:24Z</time>
      </trkpt>
      <trkpt lat="40.121709" lon="-6.168365">
        <ele>407.584</ele>
        <time>2019-03-01T00:23:27Z</time>
      </trkpt>
      <trkpt lat="40.121900" lon="-6.168158">
        <ele>407.287</ele>
        <time>2019-03-01T00:23:32Z</time>
      </trkpt>
      <trkpt lat="40.122310" lon="-6.167617">
        <ele>407.316</ele>
        <time>2019-03-01T00:23:47Z</time>
      </trkpt>
      <trkpt lat="40.122339" lon="-6.167588">
        <ele>407.425</ele>
        <time>2019-03-01T00:23:53Z</time>
      </trkpt>
      <trkpt lat="40.122386" lon="-6.167533">
        <ele>407.574</ele>
        <time>2019-03-01T00:24:04Z</time>
      </trkpt>
      <trkpt lat="40.122615" lon="-6.167356">
        <ele>408.056</ele>
        <time>2019-03-01T00:24:17Z</time>
      </trkpt>
      <trkpt lat="40.122643" lon="-6.167357">
        <ele>408.121</ele>
        <time>2019-03-01T00:24:22Z</time>
      </trkpt>
      <trkpt lat="40.122618" lon="-6.167214">
        <ele>408.108</ele>
        <time>2019-03-01T00:24:53Z</time>
      </trkpt>
      <trkpt lat="40.122609" lon="-6.167178">
        <ele>408.190</ele>
        <time>2019-03-01T00:24:54Z</time>
      </trkpt>
      <trkpt lat="40.122604" lon="-6.167140">
        <ele>408.051</ele>
        <time>2019-03-01T00:24:55Z</time>
      </trkpt>
      <trkpt lat="40.122601" lon="-6.167100">
        <ele>407.952</ele>
        <time>2019-03-01T00:24:56Z</time>
      </trkpt>
      <trkpt lat="40.122613" lon="-6.166828">
        <ele>407.411</ele>
        <time>2019-03-01T00:25:04Z</time>
      </trkpt>
      <trkpt lat="40.122603" lon="-6.166806">
        <ele>407.365</ele>
        <time>2019-03-01T00:25:05Z</time>
      </trkpt>
      <trkpt lat="40.122593" lon="-6.166788">
        <ele>407.248</ele>
        <time>2019-03-01T00:25:10Z</time>
      </trkpt>
      <trkpt lat="40.122598" lon="-6.166704">
        <ele>407.037</ele>
        <time>2019-03-01T00:25:38Z</time>
      </trkpt>
      <trkpt lat="40.122593" lon="-6.166676">
        <ele>406.946</ele>
        <time>2019-03-01T00:25:39Z</time>
      </trkpt>
      <trkpt lat="40.122586" lon="-6.166650">
        <ele>406.875</ele>
        <time>2019-03-01T00:25:40Z</time>
      </trkpt>
      <trkpt lat="40.122578" lon="-6.166623">
        <ele>406.728</ele>
        <time>2019-03-01T00:25:41Z</time>
      </trkpt>
      <trkpt lat="40.122571" lon="-6.166601">
        <ele>406.720</ele>
        <time>2019-03-01T00:25:42Z</time>
      </trkpt>
      <trkpt lat="40.122566" lon="-6.166584">
        <ele>406.608</ele>
        <time>2019-03-01T00:25:43Z</time>
      </trkpt>
      <trkpt lat="40.122596" lon="-6.166454">
        <ele>406.290</ele>
        <time>2019-03-01T00:25:53Z</time>
      </trkpt>
      <trkpt lat="40.122595" lon="-6.166454">
        <ele>406.211</ele>
        <time>2019-03-01T00:25:54Z</time>
      </trkpt>
      <trkpt lat="40.122653" lon="-6.166367">
        <ele>405.952</ele>
        <time>2019-03-01T00:27:51Z</time>
      </trkpt>
      <trkpt lat="40.122717" lon="-6.166316">
        <ele>405.711</ele>
        <time>2019-03-01T00:27:54Z</time>
      </trkpt>
      <trkpt lat="40.122830" lon="-6.166199">
        <ele>405.585</ele>
        <time>2019-03-01T00:27:59Z</time>
      </trkpt>
      <trkpt lat="40.123157" lon="-6.166263">
        <ele>405.948</ele>
        <time>2019-03-01T00:28:13Z</time>
      </trkpt>
      <trkpt lat="40.123415" lon="-6.166117">
        <ele>405.977</ele>
        <time>2019-03-01T00:28:24Z</time>
      </trkpt>
      <trkpt lat="40.123653" lon="-6.165951">
        <ele>405.156</ele>
        <time>2019-03-01T00:28:31Z</time>
      </trkpt>
      <trkpt lat="40.123979" lon="-6.165577">
        <ele>403.445</ele>
        <time>2019-03-01T00:28:44Z</time>
      </trkpt>
      <trkpt lat="40.124050" lon="-6.165491">
        <ele>403.247</ele>
        <time>2019-03-01T00:28:56Z</time>
      </trkpt>
      <trkpt lat="40.124294" lon="-6.165235">
        <ele>403.411</ele>
        <time>2019-03-01T00:29:10Z</time>
      </trkpt>
      <trkpt lat="40.124536" lon="-6.165009">
        <ele>404.208</ele>
        <time>2019-03-01T00:29:23Z</time>
      </trkpt>
      <trkpt lat="40.124715" lon="-6.164832">
        <ele>405.387</ele>
        <time>2019-03-01T00:29:35Z</time>
      </trkpt>
      <trkpt lat="40.124914" lon="-6.164558">
        <ele>407.398</ele>
        <time>2019-03-01T00:29:52Z</time>
      </trkpt>
      <trkpt lat="40.125077" lon="-6.164454">
        <ele>408.659</ele>
        <time>2019-03-01T00:30:03Z</time>
      </trkpt>
      <trkpt lat="40.125205" lon="-6.164213">
        <ele>409.298</ele>
        <time>2019-03-01T00:30:10Z</time>
      </trkpt>
      <trkpt lat="40.125238" lon="-6.164170">
        <ele>409.172</ele>
        <time>2019-03-01T00:30:11Z</time>
      </trkpt>
      <trkpt lat="40.125388" lon="-6.163968">
        <ele>408.775</ele>
        <time>2019-03-01T00:30:16Z</time>
      </trkpt>
      <trkpt lat="40.125561" lon="-6.163778">
        <ele>408.334</ele>
        <time>2019-03-01T00:30:21Z</time>
      </trkpt>
      <trkpt lat="40.125598" lon="-6.163773">
        <ele>408.283</ele>
        <time>2019-03-01T00:30:22Z</time>
      </trkpt>
      <trkpt lat="40.125630" lon="-6.163783">
        <ele>408.226</ele>
        <time>2019-03-01T00:30:23Z</time>
      </trkpt>
      <trkpt lat="40.125659" lon="-6.163790">
        <ele>408.147</ele>
        <time>2019-03-01T00:30:24Z</time>
      </trkpt>
      <trkpt lat="40.125688" lon="-6.163791">
        <ele>408.111</ele>
        <time>2019-03-01T00:30:25Z</time>
      </trkpt>
      <trkpt lat="40.125712" lon="-6.163780">
        <ele>408.108</ele>
        <time>2019-03-01T00:30:26Z</time>
      </trkpt>
      <trkpt lat="40.125734" lon="-6.163755">
        <ele>408.035</ele>
        <time>2019-03-01T00:30:27Z</time>
      </trkpt>
      <trkpt lat="40.125750" lon="-6.163726">
        <ele>408.016</ele>
        <time>2019-03-01T00:30:28Z</time>
      </trkpt>
      <trkpt lat="40.125762" lon="-6.163696">
        <ele>408.077</ele>
        <time>2019-03-01T00:30:29Z</time>
      </trkpt>
      <trkpt lat="40.125804" lon="-6.163602">
        <ele>407.936</ele>
        <time>2019-03-01T00:30:31Z</time>
      </trkpt>
      <trkpt lat="40.125835" lon="-6.163552">
        <ele>407.850</ele>
        <time>2019-03-01T00:30:32Z</time>
      </trkpt>
      <trkpt lat="40.125867" lon="-6.163510">
        <ele>407.883</ele>
        <time>2019-03-01T00:30:33Z</time>
      </trkpt>
      <trkpt lat="40.126149" lon="-6.163209">
        <ele>407.572</ele>
        <time>2019-03-01T00:30:42Z</time>
      </trkpt>
      <trkpt lat="40.126476" lon="-6.162921">
        <ele>407.531</ele>
        <time>2019-03-01T00:30:53Z</time>
      </trkpt>
      <trkpt lat="40.126781" lon="-6.162598">
        <ele>407.954</ele>
        <time>2019-03-01T00:31:08Z</time>
      </trkpt>
      <trkpt lat="40.127016" lon="-6.162276">
        <ele>408.556</ele>
        <time>2019-03-01T00:31:19Z</time>
      </trkpt>
      <trkpt lat="40.127235" lon="-6.161976">
        <ele>409.011</ele>
        <time>2019-03-01T00:31:30Z</time>
      </trkpt>
      <trkpt lat="40.127430" lon="-6.161676">
        <ele>409.408</ele>
        <time>2019-03-01T00:31:40Z</time>
      </trkpt>
      <trkpt lat="40.127501" lon="-6.161584">
        <ele>409.678</ele>
        <time>2019-03-01T00:31:47Z</time>
      </trkpt>
      <trkpt lat="40.127523" lon="-6.161529">
        <ele>409.759</ele>
        <time>2019-03-01T00:32:30Z</time>
      </trkpt>
      <trkpt lat="40.127604" lon="-6.161448">
        <ele>409.990</ele>
        <time>2019-03-01T00:32:38Z</time>
      </trkpt>
      <trkpt lat="40.127696" lon="-6.161286">
        <ele>410.359</ele>
        <time>2019-03-01T00:33:25Z</time>
      </trkpt>
      <trkpt lat="40.127815" lon="-6.161196">
        <ele>410.653</ele>
        <time>2019-03-01T00:33:33Z</time>
      </trkpt>
      <trkpt lat="40.127837" lon="-6.161142">
        <ele>410.786</ele>
        <time>2019-03-01T00:33:36Z</time>
      </trkpt>
      <trkpt lat="40.127853" lon="-6.161129">
        <ele>410.825</ele>
        <time>2019-03-01T00:33:37Z</time>
      </trkpt>
      <trkpt lat="40.127869" lon="-6.161119">
        <ele>410.824</ele>
        <time>2019-03-01T00:33:38Z</time>
      </trkpt>
      <trkpt lat="40.127880" lon="-6.161107">
        <ele>410.942</ele>
        <time>2019-03-01T00:33:39Z</time>
      </trkpt>
      <trkpt lat="40.127932" lon="-6.161036">
        <ele>411.222</ele>
        <time>2019-03-01T00:33:46Z</time>
      </trkpt>
      <trkpt lat="40.127940" lon="-6.161021">
        <ele>411.214</ele>
        <time>2019-03-01T00:33:47Z</time>
      </trkpt>
      <trkpt lat="40.127950" lon="-6.161006">
        <ele>411.308</ele>
        <time>2019-03-01T00:33:48Z</time>
      </trkpt>
      <trkpt lat="40.127956" lon="-6.160991">
        <ele>411.497</ele>
        <time>2019-03-01T00:33:49Z</time>
      </trkpt>
      <trkpt lat="40.127965" lon="-6.160972">
        <ele>411.428</ele>
        <time>2019-03-01T00:33:50Z</time>
      </trkpt>
      <trkpt lat="40.127973" lon="-6.160951">
        <ele>411.559</ele>
        <time>2019-03-01T00:33:51Z</time>
      </trkpt>
      <trkpt lat="40.127980" lon="-6.160930">
        <ele>411.648</ele>
        <time>2019-03-01T00:33:52Z</time>
      </trkpt>
      <trkpt lat="40.127988" lon="-6.160909">
        <ele>411.642</ele>
        <time>2019-03-01T00:33:53Z</time>
      </trkpt>
      <trkpt lat="40.127999" lon="-6.160888">
        <ele>411.785</ele>
        <time>2019-03-01T00:33:54Z</time>
      </trkpt>
      <trkpt lat="40.128012" lon="-6.160869">
        <ele>411.734</ele>
        <time>2019-03-01T00:33:55Z</time>
      </trkpt>
      <trkpt lat="40.128023" lon="-6.160850">
        <ele>411.823</ele>
        <time>2019-03-01T00:33:56Z</time>
      </trkpt>
      <trkpt lat="40.128037" lon="-6.160830">
        <ele>411.844</ele>
        <time>2019-03-01T00:33:57Z</time>
      </trkpt>
      <trkpt lat="40.128050" lon="-6.160809">
        <ele>411.905</ele>
        <time>2019-03-01T00:33:58Z</time>
      </trkpt>
      <trkpt lat="40.128061" lon="-6.160787">
        <ele>412.015</ele>
        <time>2019-03-01T00:33:59Z</time>
      </trkpt>
      <trkpt lat="40.128072" lon="-6.160769">
        <ele>412.008</ele>
        <time>2019-03-01T00:34:00Z</time>
      </trkpt>
      <trkpt lat="40.128226" lon="-6.160552">
        <ele>412.877</ele>
        <time>2019-03-01T00:34:13Z</time>
      </trkpt>
      <trkpt lat="40.128324" lon="-6.160405">
        <ele>413.198</ele>
        <time>2019-03-01T00:34:19Z</time>
      </trkpt>
      <trkpt lat="40.128333" lon="-6.160394">
        <ele>413.179</ele>
        <time>2019-03-01T00:34:24Z</time>
      </trkpt>
      <trkpt lat="40.128408" lon="-6.160319">
        <ele>413.288</ele>
        <time>2019-03-01T00:34:45Z</time>
      </trkpt>
      <trkpt lat="40.128419" lon="-6.160297">
        <ele>413.212</ele>
        <time>2019-03-01T00:34:46Z</time>
      </trkpt>
      <trkpt lat="40.128432" lon="-6.160276">
        <ele>413.215</ele>
        <time>2019-03-01T00:34:47Z</time>
      </trkpt>
      <trkpt lat="40.128446" lon="-6.160254">
        <ele>413.314</ele>
        <time>2019-03-01T00:34:48Z</time>
      </trkpt>
      <trkpt lat="40.128461" lon="-6.160231">
        <ele>413.363</ele>
        <time>2019-03-01T00:34:49Z</time>
      </trkpt>
      <trkpt lat="40.128698" lon="-6.159797">
        <ele>414.128</ele>
        <time>2019-03-01T00:35:04Z</time>
      </trkpt>
      <trkpt lat="40.128941" lon="-6.159426">
        <ele>415.089</ele>
        <time>2019-03-01T00:35:17Z</time>
      </trkpt>
      <trkpt lat="40.129215" lon="-6.159150">
        <ele>416.417</ele>
        <time>2019-03-01T00:35:32Z</time>
      </trkpt>
      <trkpt lat="40.129377" lon="-6.158905">
        <ele>417.508</ele>
        <time>2019-03-01T00:35:43Z</time>
      </trkpt>
      <trkpt lat="40.129566" lon="-6.158602">
        <ele>418.365</ele>
        <time>2019-03-01T00:35:55Z</time>
      </trkpt>
      <trkpt lat="40.129631" lon="-6.158533">
        <ele>418.526</ele>
        <time>2019-03-01T00:36:00Z</time>
      </trkpt>
      <trkpt lat="40.129646" lon="-6.158520">
        <ele>418.567</ele>
        <time>2019-03-01T00:36:01Z</time>
      </trkpt>
      <trkpt lat="40.129661" lon="-6.158505">
        <ele>418.676</ele>
        <time>2019-03-01T00:36:02Z</time>
      </trkpt>
      <trkpt lat="40.129901" lon="-6.158169">
        <ele>419.680</ele>
        <time>2019-03-01T00:36:17Z</time>
      </trkpt>
      <trkpt lat="40.129983" lon="-6.158082">
        <ele>420.093</ele>
        <time>2019-03-01T00:36:23Z</time>
      </trkpt>
      <trkpt lat="40.129994" lon="-6.158068">
        <ele>420.072</ele>
        <time>2019-03-01T00:36:24Z</time>
      </trkpt>
      <trkpt lat="40.130006" lon="-6.158048">
        <ele>420.081</ele>
        <time>2019-03-01T00:36:25Z</time>
      </trkpt>
      <trkpt lat="40.130019" lon="-6.158023">
        <ele>420.197</ele>
        <time>2019-03-01T00:36:26Z</time>
      </trkpt>
      <trkpt lat="40.130038" lon="-6.157996">
        <ele>420.223</ele>
        <time>2019-03-01T00:36:27Z</time>
      </trkpt>
      <trkpt lat="40.130057" lon="-6.157967">
        <ele>420.225</ele>
        <time>2019-03-01T00:36:28Z</time>
      </trkpt>
      <trkpt lat="40.130077" lon="-6.157940">
        <ele>420.308</ele>
        <time>2019-03-01T00:36:29Z</time>
      </trkpt>
      <trkpt lat="40.130313" lon="-6.157667">
        <ele>420.972</ele>
        <time>2019-03-01T00:36:42Z</time>
      </trkpt>
      <trkpt lat="40.130596" lon="-6.157379">
        <ele>421.593</ele>
        <time>2019-03-01T00:36:57Z</time>
      </trkpt>
      <trkpt lat="40.130925" lon="-6.156963">
        <ele>422.584</ele>
        <time>2019-03-01T00:37:12Z</time>
      </trkpt>
      <trkpt lat="40.131236" lon="-6.156581">
        <ele>423.323</ele>
        <time>2019-03-01T00:37:25Z</time>
      </trkpt>
      <trkpt lat="40.131460" lon="-6.156292">
        <ele>423.767</ele>
        <time>2019-03-01T00:37:36Z</time>
      </trkpt>
      <trkpt lat="40.131469" lon="-6.156286">
        <ele>423.750</ele>
        <time>2019-03-01T00:37:40Z</time>
      </trkpt>
      <trkpt lat="40.131551" lon="-6.156253">
        <ele>423.819</ele>
        <time>2019-03-01T00:37:54Z</time>
      </trkpt>
      <trkpt lat="40.131566" lon="-6.156248">
        <ele>423.888</ele>
        <time>2019-03-01T00:37:57Z</time>
      </trkpt>
      <trkpt lat="40.131719" lon="-6.156182">
        <ele>423.971</ele>
        <time>2019-03-01T00:38:15Z</time>
      </trkpt>
      <trkpt lat="40.131946" lon="-6.156022">
        <ele>423.841</ele>
        <time>2019-03-01T00:38:25Z</time>
      </trkpt>
      <trkpt lat="40.132255" lon="-6.155860">
        <ele>424.615</ele>
        <time>2019-03-01T00:38:38Z</time>
      </trkpt>
      <trkpt lat="40.132277" lon="-6.155867">
        <ele>424.608</ele>
        <time>2019-03-01T00:38:39Z</time>
      </trkpt>
      <trkpt lat="40.132593" lon="-6.155960">
        <ele>424.420</ele>
        <time>2019-03-01T00:38:51Z</time>
      </trkpt>
      <trkpt lat="40.132909" lon="-6.155872">
        <ele>424.221</ele>
        <time>2019-03-01T00:39:01Z</time>
      </trkpt>
      <trkpt lat="40.133075" lon="-6.155804">
        <ele>424.122</ele>
        <time>2019-03-01T00:39:12Z</time>
      </trkpt>
      <trkpt lat="40.133074" lon="-6.155803">
        <ele>424.161</ele>
        <time>2019-03-01T00:39:14Z</time>
      </trkpt>
      <trkpt lat="40.133132" lon="-6.155794">
        <ele>424.095</ele>
        <time>2019-03-01T00:39:42Z</time>
      </trkpt>
      <trkpt lat="40.133487" lon="-6.155639">
        <ele>423.558</ele>
        <time>2019-03-01T00:39:54Z</time>
      </trkpt>
      <trkpt lat="40.133755" lon="-6.155578">
        <ele>422.917</ele>
        <time>2019-03-01T00:40:01Z</time>
      </trkpt>
      <trkpt lat="40.133796" lon="-6.155562">
        <ele>422.926</ele>
        <time>2019-03-01T00:40:02Z</time>
      </trkpt>
      <trkpt lat="40.133836" lon="-6.155537">
        <ele>422.882</ele>
        <time>2019-03-01T00:40:03Z</time>
      </trkpt>
      <trkpt lat="40.133878" lon="-6.155512">
        <ele>422.743</ele>
        <time>2019-03-01T00:40:04Z</time>
      </trkpt>
      <trkpt lat="40.133921" lon="-6.155492">
        <ele>422.717</ele>
        <time>2019-03-01T00:40:05Z</time>
      </trkpt>
      <trkpt lat="40.133964" lon="-6.155477">
        <ele>422.608</ele>
        <time>2019-03-01T00:40:06Z</time>
      </trkpt>
      <trkpt lat="40.134722" lon="-6.155241">
        <ele>422.091</ele>
        <time>2019-03-01T00:40:23Z</time>
      </trkpt>
      <trkpt lat="40.134764" lon="-6.155240">
        <ele>422.092</ele>
        <time>2019-03-01T00:40:24Z</time>
      </trkpt>
      <trkpt lat="40.134803" lon="-6.155231">
        <ele>422.093</ele>
        <time>2019-03-01T00:40:25Z</time>
      </trkpt>
      <trkpt lat="40.134893" lon="-6.155201">
        <ele>421.982</ele>
        <time>2019-03-01T00:40:32Z</time>
      </trkpt>
      <trkpt lat="40.134829" lon="-6.155235">
        <ele>421.926</ele>
        <time>2019-03-01T00:40:44Z</time>
      </trkpt>
      <trkpt lat="40.134805" lon="-6.155244">
        <ele>422.099</ele>
        <time>2019-03-01T00:40:45Z</time>
      </trkpt>
      <trkpt lat="40.134777" lon="-6.155252">
        <ele>422.078</ele>
        <time>2019-03-01T00:40:46Z</time>
      </trkpt>
      <trkpt lat="40.134150" lon="-6.155441">
        <ele>422.477</ele>
        <time>2019-03-01T00:41:05Z</time>
      </trkpt>
      <trkpt lat="40.133636" lon="-6.155617">
        <ele>423.212</ele>
        <time>2019-03-01T00:41:21Z</time>
      </trkpt>
      <trkpt lat="40.133134" lon="-6.155826">
        <ele>424.032</ele>
        <time>2019-03-01T00:41:34Z</time>
      </trkpt>
      <trkpt lat="40.132611" lon="-6.156005">
        <ele>424.405</ele>
        <time>2019-03-01T00:41:48Z</time>
      </trkpt>
      <trkpt lat="40.132327" lon="-6.155960">
        <ele>424.508</ele>
        <time>2019-03-01T00:41:58Z</time>
      </trkpt>
      <trkpt lat="40.132201" lon="-6.155898">
        <ele>424.634</ele>
        <time>2019-03-01T00:42:04Z</time>
      </trkpt>
      <trkpt lat="40.132175" lon="-6.155903">
        <ele>424.565</ele>
        <time>2019-03-01T00:42:05Z</time>
      </trkpt>
      <trkpt lat="40.132153" lon="-6.155911">
        <ele>424.426</ele>
        <time>2019-03-01T00:42:06Z</time>
      </trkpt>
      <trkpt lat="40.132134" lon="-6.155920">
        <ele>424.495</ele>
        <time>2019-03-01T00:42:07Z</time>
      </trkpt>
      <trkpt lat="40.132115" lon="-6.155932">
        <ele>424.459</ele>
        <time>2019-03-01T00:42:08Z</time>
      </trkpt>
      <trkpt lat="40.132094" lon="-6.155948">
        <ele>424.332</ele>
        <time>2019-03-01T00:42:09Z</time>
      </trkpt>
      <trkpt lat="40.131964" lon="-6.156037">
        <ele>423.851</ele>
        <time>2019-03-01T00:42:15Z</time>
      </trkpt>
      <trkpt lat="40.131950" lon="-6.156022">
        <ele>423.850</ele>
        <time>2019-03-01T00:42:16Z</time>
      </trkpt>
      <trkpt lat="40.131946" lon="-6.156000">
        <ele>423.813</ele>
        <time>2019-03-01T00:42:17Z</time>
      </trkpt>
      <trkpt lat="40.131950" lon="-6.155973">
        <ele>423.843</ele>
        <time>2019-03-01T00:42:18Z</time>
      </trkpt>
      <trkpt lat="40.131959" lon="-6.155939">
        <ele>423.807</ele>
        <time>2019-03-01T00:42:19Z</time>
      </trkpt>
      <trkpt lat="40.132179" lon="-6.155481">
        <ele>423.508</ele>
        <time>2019-03-01T00:42:31Z</time>
      </trkpt>
      <trkpt lat="40.132520" lon="-6.155058">
        <ele>423.014</ele>
        <time>2019-03-01T00:42:45Z</time>
      </trkpt>
      <trkpt lat="40.132539" lon="-6.155035">
        <ele>423.055</ele>
        <time>2019-03-01T00:42:50Z</time>
      </trkpt>
      <trkpt lat="40.132569" lon="-6.154995">
        <ele>422.966</ele>
        <time>2019-03-01T00:42:55Z</time>
      </trkpt>
      <trkpt lat="40.132832" lon="-6.154642">
        <ele>422.625</ele>
        <time>2019-03-01T00:43:06Z</time>
      </trkpt>
      <trkpt lat="40.132929" lon="-6.154512">
        <ele>422.479</ele>
        <time>2019-03-01T00:43:09Z</time>
      </trkpt>
      <trkpt lat="40.133035" lon="-6.154401">
        <ele>422.392</ele>
        <time>2019-03-01T00:43:12Z</time>
      </trkpt>
      <trkpt lat="40.133064" lon="-6.154360">
        <ele>422.261</ele>
        <time>2019-03-01T00:43:13Z</time>
      </trkpt>
      <trkpt lat="40.133391" lon="-6.153915">
        <ele>421.980</ele>
        <time>2019-03-01T00:43:23Z</time>
      </trkpt>
      <trkpt lat="40.133669" lon="-6.153529">
        <ele>421.426</ele>
        <time>2019-03-01T00:43:31Z</time>
      </trkpt>
      <trkpt lat="40.133713" lon="-6.153494">
        <ele>421.347</ele>
        <time>2019-03-01T00:43:32Z</time>
      </trkpt>
      <trkpt lat="40.133761" lon="-6.153467">
        <ele>421.211</ele>
        <time>2019-03-01T00:43:33Z</time>
      </trkpt>
      <trkpt lat="40.133846" lon="-6.153416">
        <ele>421.008</ele>
        <time>2019-03-01T00:43:35Z</time>
      </trkpt>
      <trkpt lat="40.133875" lon="-6.153380">
        <ele>421.095</ele>
        <time>2019-03-01T00:43:36Z</time>
      </trkpt>
      <trkpt lat="40.133899" lon="-6.153339">
        <ele>420.986</ele>
        <time>2019-03-01T00:43:37Z</time>
      </trkpt>
      <trkpt lat="40.133923" lon="-6.153298">
        <ele>420.877</ele>
        <time>2019-03-01T00:43:38Z</time>
      </trkpt>
      <trkpt lat="40.133947" lon="-6.153265">
        <ele>420.726</ele>
        <time>2019-03-01T00:43:39Z</time>
      </trkpt>
      <trkpt lat="40.133971" lon="-6.153237">
        <ele>420.680</ele>
        <time>2019-03-01T00:43:40Z</time>
      </trkpt>
      <trkpt lat="40.133996" lon="-6.153210">
        <ele>420.653</ele>
        <time>2019-03-01T00:43:41Z</time>
      </trkpt>
      <trkpt lat="40.134156" lon="-6.152858">
        <ele>420.062</ele>
        <time>2019-03-01T00:43:50Z</time>
      </trkpt>
      <trkpt lat="40.134299" lon="-6.152554">
        <ele>419.451</ele>
        <time>2019-03-01T00:43:57Z</time>
      </trkpt>
      <trkpt lat="40.134324" lon="-6.152500">
        <ele>419.362</ele>
        <time>2019-03-01T00:43:58Z</time>
      </trkpt>
      <trkpt lat="40.134696" lon="-6.151846">
        <ele>418.683</ele>
        <time>2019-03-01T00:44:09Z</time>
      </trkpt>
      <trkpt lat="40.135141" lon="-6.151021">
        <ele>418.111</ele>
        <time>2019-03-01T00:44:24Z</time>
      </trkpt>
      <trkpt lat="40.135344" lon="-6.150714">
        <ele>418.008</ele>
        <time>2019-03-01T00:44:30Z</time>
      </trkpt>
      <trkpt lat="40.135366" lon="-6.150664">
        <ele>417.919</ele>
        <time>2019-03-01T00:44:31Z</time>
      </trkpt>
      <trkpt lat="40.135403" lon="-6.150567">
        <ele>417.970</ele>
        <time>2019-03-01T00:44:33Z</time>
      </trkpt>
      <trkpt lat="40.135791" lon="-6.149972">
        <ele>417.551</ele>
        <time>2019-03-01T00:44:47Z</time>
      </trkpt>
      <trkpt lat="40.135826" lon="-6.149932">
        <ele>417.410</ele>
        <time>2019-03-01T00:44:48Z</time>
      </trkpt>
      <trkpt lat="40.135856" lon="-6.149888">
        <ele>417.324</ele>
        <time>2019-03-01T00:44:49Z</time>
      </trkpt>
      <trkpt lat="40.136420" lon="-6.149073">
        <ele>415.767</ele>
        <time>2019-03-01T00:45:06Z</time>
      </trkpt>
      <trkpt lat="40.136591" lon="-6.148827">
        <ele>415.376</ele>
        <time>2019-03-01T00:45:12Z</time>
      </trkpt>
      <trkpt lat="40.137047" lon="-6.147920">
        <ele>414.975</ele>
        <time>2019-03-01T00:45:27Z</time>
      </trkpt>
      <trkpt lat="40.137084" lon="-6.147866">
        <ele>414.839</ele>
        <time>2019-03-01T00:45:28Z</time>
      </trkpt>
      <trkpt lat="40.137423" lon="-6.147374">
        <ele>414.501</ele>
        <time>2019-03-01T00:45:38Z</time>
      </trkpt>
      <trkpt lat="40.137497" lon="-6.147237">
        <ele>414.521</ele>
        <time>2019-03-01T00:45:41Z</time>
      </trkpt>
      <trkpt lat="40.137981" lon="-6.146468">
        <ele>413.608</ele>
        <time>2019-03-01T00:45:58Z</time>
      </trkpt>
      <trkpt lat="40.138108" lon="-6.146281">
        <ele>413.386</ele>
        <time>2019-03-01T00:46:02Z</time>
      </trkpt>
      <trkpt lat="40.138436" lon="-6.145796">
        <ele>413.287</ele>
        <time>2019-03-01T00:46:15Z</time>
      </trkpt>
      <trkpt lat="40.138452" lon="-6.145753">
        <ele>413.348</ele>
        <time>2019-03-01T00:46:20Z</time>
      </trkpt>
      <trkpt lat="40.138460" lon="-6.145730">
        <ele>413.397</ele>
        <time>2019-03-01T00:46:22Z</time>
      </trkpt>
      <trkpt lat="40.138468" lon="-6.145722">
        <ele>413.371</ele>
        <time>2019-03-01T00:46:23Z</time>
      </trkpt>
      <trkpt lat="40.138476" lon="-6.145712">
        <ele>413.314</ele>
        <time>2019-03-01T00:46:24Z</time>
      </trkpt>
      <trkpt lat="40.138485" lon="-6.145698">
        <ele>413.363</ele>
        <time>2019-03-01T00:46:28Z</time>
      </trkpt>
      <trkpt lat="40.138530" lon="-6.145646">
        <ele>413.432</ele>
        <time>2019-03-01T00:46:32Z</time>
      </trkpt>
      <trkpt lat="40.138870" lon="-6.145297">
        <ele>414.051</ele>
        <time>2019-03-01T00:46:45Z</time>
      </trkpt>
      <trkpt lat="40.139374" lon="-6.144702">
        <ele>414.001</ele>
        <time>2019-03-01T00:47:05Z</time>
      </trkpt>
      <trkpt lat="40.139504" lon="-6.144416">
        <ele>413.611</ele>
        <time>2019-03-01T00:47:15Z</time>
      </trkpt>
      <trkpt lat="40.139530" lon="-6.144307">
        <ele>413.508</ele>
        <time>2019-03-01T00:47:22Z</time>
      </trkpt>
      <trkpt lat="40.139530" lon="-6.144290">
        <ele>413.568</ele>
        <time>2019-03-01T00:47:23Z</time>
      </trkpt>
      <trkpt lat="40.139531" lon="-6.144269">
        <ele>413.479</ele>
        <time>2019-03-01T00:47:24Z</time>
      </trkpt>
      <trkpt lat="40.139538" lon="-6.144245">
        <ele>413.470</ele>
        <time>2019-03-01T00:47:25Z</time>
      </trkpt>
      <trkpt lat="40.139547" lon="-6.144220">
        <ele>413.419</ele>
        <time>2019-03-01T00:47:26Z</time>
      </trkpt>
      <trkpt lat="40.139557" lon="-6.144194">
        <ele>413.453</ele>
        <time>2019-03-01T00:47:27Z</time>
      </trkpt>
      <trkpt lat="40.139856" lon="-6.143739">
        <ele>413.116</ele>
        <time>2019-03-01T00:47:39Z</time>
      </trkpt>
      <trkpt lat="40.140184" lon="-6.143308">
        <ele>412.825</ele>
        <time>2019-03-01T00:47:49Z</time>
      </trkpt>
      <trkpt lat="40.140204" lon="-6.143258">
        <ele>412.824</ele>
        <time>2019-03-01T00:47:50Z</time>
      </trkpt>
      <trkpt lat="40.140221" lon="-6.143206">
        <ele>412.732</ele>
        <time>2019-03-01T00:47:51Z</time>
      </trkpt>
      <trkpt lat="40.140351" lon="-6.142822">
        <ele>411.792</ele>
        <time>2019-03-01T00:47:59Z</time>
      </trkpt>
      <trkpt lat="40.140604" lon="-6.142481">
        <ele>410.911</ele>
        <time>2019-03-01T00:48:12Z</time>
      </trkpt>
      <trkpt lat="40.140750" lon="-6.142319">
        <ele>411.408</ele>
        <time>2019-03-01T00:48:25Z</time>
      </trkpt>
      <trkpt lat="40.141061" lon="-6.141824">
        <ele>412.796</ele>
        <time>2019-03-01T00:48:41Z</time>
      </trkpt>
      <trkpt lat="40.141300" lon="-6.141553">
        <ele>413.067</ele>
        <time>2019-03-01T00:48:49Z</time>
      </trkpt>
      <trkpt lat="40.141324" lon="-6.141504">
        <ele>413.048</ele>
        <time>2019-03-01T00:48:50Z</time>
      </trkpt>
      <trkpt lat="40.141345" lon="-6.141451">
        <ele>413.077</ele>
        <time>2019-03-01T00:48:51Z</time>
      </trkpt>
      <trkpt lat="40.141386" lon="-6.141343">
        <ele>412.911</ele>
        <time>2019-03-01T00:48:53Z</time>
      </trkpt>
      <trkpt lat="40.141408" lon="-6.141290">
        <ele>412.924</ele>
        <time>2019-03-01T00:48:54Z</time>
      </trkpt>
      <trkpt lat="40.141434" lon="-6.141243">
        <ele>412.933</ele>
        <time>2019-03-01T00:48:55Z</time>
      </trkpt>
      <trkpt lat="40.141463" lon="-6.141199">
        <ele>412.862</ele>
        <time>2019-03-01T00:48:56Z</time>
      </trkpt>
      <trkpt lat="40.141494" lon="-6.141157">
        <ele>412.837</ele>
        <time>2019-03-01T00:48:57Z</time>
      </trkpt>
      <trkpt lat="40.141523" lon="-6.141110">
        <ele>412.749</ele>
        <time>2019-03-01T00:48:58Z</time>
      </trkpt>
      <trkpt lat="40.141549" lon="-6.141057">
        <ele>412.613</ele>
        <time>2019-03-01T00:48:59Z</time>
      </trkpt>
      <trkpt lat="40.141602" lon="-6.140954">
        <ele>412.508</ele>
        <time>2019-03-01T00:49:01Z</time>
      </trkpt>
      <trkpt lat="40.141632" lon="-6.140908">
        <ele>412.546</ele>
        <time>2019-03-01T00:49:02Z</time>
      </trkpt>
      <trkpt lat="40.141736" lon="-6.140772">
        <ele>412.397</ele>
        <time>2019-03-01T00:49:05Z</time>
      </trkpt>
      <trkpt lat="40.141767" lon="-6.140727">
        <ele>412.318</ele>
        <time>2019-03-01T00:49:06Z</time>
      </trkpt>
      <trkpt lat="40.142163" lon="-6.140080">
        <ele>412.087</ele>
        <time>2019-03-01T00:49:20Z</time>
      </trkpt>
      <trkpt lat="40.142459" lon="-6.139633">
        <ele>412.091</ele>
        <time>2019-03-01T00:49:29Z</time>
      </trkpt>
      <trkpt lat="40.142543" lon="-6.139483">
        <ele>412.144</ele>
        <time>2019-03-01T00:49:32Z</time>
      </trkpt>
      <trkpt lat="40.142574" lon="-6.139440">
        <ele>412.233</ele>
        <time>2019-03-01T00:49:33Z</time>
      </trkpt>
      <trkpt lat="40.142766" lon="-6.139194">
        <ele>412.612</ele>
        <time>2019-03-01T00:49:39Z</time>
      </trkpt>
      <trkpt lat="40.143152" lon="-6.138493">
        <ele>413.273</ele>
        <time>2019-03-01T00:49:54Z</time>
      </trkpt>
      <trkpt lat="40.143609" lon="-6.137819">
        <ele>413.385</ele>
        <time>2019-03-01T00:50:09Z</time>
      </trkpt>
      <trkpt lat="40.143665" lon="-6.137716">
        <ele>413.313</ele>
        <time>2019-03-01T00:50:11Z</time>
      </trkpt>
      <trkpt lat="40.144182" lon="-6.136968">
        <ele>413.308</ele>
        <time>2019-03-01T00:50:26Z</time>
      </trkpt>
      <trkpt lat="40.144346" lon="-6.136695">
        <ele>413.150</ele>
        <time>2019-03-01T00:50:31Z</time>
      </trkpt>
      <trkpt lat="40.144372" lon="-6.136641">
        <ele>413.051</ele>
        <time>2019-03-01T00:50:32Z</time>
      </trkpt>
      <trkpt lat="40.144433" lon="-6.136540">
        <ele>412.992</ele>
        <time>2019-03-01T00:50:34Z</time>
      </trkpt>
      <trkpt lat="40.144901" lon="-6.135836">
        <ele>411.981</ele>
        <time>2019-03-01T00:50:47Z</time>
      </trkpt>
      <trkpt lat="40.145325" lon="-6.135084">
        <ele>410.895</ele>
        <time>2019-03-01T00:51:01Z</time>
      </trkpt>
      <trkpt lat="40.145360" lon="-6.135033">
        <ele>410.758</ele>
        <time>2019-03-01T00:51:02Z</time>
      </trkpt>
      <trkpt lat="40.145399" lon="-6.134989">
        <ele>410.667</ele>
        <time>2019-03-01T00:51:03Z</time>
      </trkpt>
      <trkpt lat="40.145436" lon="-6.134943">
        <ele>410.576</ele>
        <time>2019-03-01T00:51:04Z</time>
      </trkpt>
      <trkpt lat="40.145474" lon="-6.134893">
        <ele>410.425</ele>
        <time>2019-03-01T00:51:05Z</time>
      </trkpt>
      <trkpt lat="40.145514" lon="-6.134838">
        <ele>410.326</ele>
        <time>2019-03-01T00:51:06Z</time>
      </trkpt>
      <trkpt lat="40.145551" lon="-6.134780">
        <ele>410.208</ele>
        <time>2019-03-01T00:51:07Z</time>
      </trkpt>
      <trkpt lat="40.145831" lon="-6.134309">
        <ele>409.408</ele>
        <time>2019-03-01T00:51:15Z</time>
      </trkpt>
      <trkpt lat="40.145939" lon="-6.134156">
        <ele>409.125</ele>
        <time>2019-03-01T00:51:18Z</time>
      </trkpt>
      <trkpt lat="40.146113" lon="-6.133927">
        <ele>408.816</ele>
        <time>2019-03-01T00:51:27Z</time>
      </trkpt>
      <trkpt lat="40.146139" lon="-6.133883">
        <ele>408.997</ele>
        <time>2019-03-01T00:51:29Z</time>
      </trkpt>
      <trkpt lat="40.146148" lon="-6.133855">
        <ele>408.926</ele>
        <time>2019-03-01T00:51:30Z</time>
      </trkpt>
      <trkpt lat="40.146163" lon="-6.133828">
        <ele>408.970</ele>
        <time>2019-03-01T00:51:31Z</time>
      </trkpt>
      <trkpt lat="40.146179" lon="-6.133797">
        <ele>408.943</ele>
        <time>2019-03-01T00:51:32Z</time>
      </trkpt>
      <trkpt lat="40.146197" lon="-6.133766">
        <ele>408.912</ele>
        <time>2019-03-01T00:51:33Z</time>
      </trkpt>
      <trkpt lat="40.146216" lon="-6.133735">
        <ele>408.941</ele>
        <time>2019-03-01T00:51:34Z</time>
      </trkpt>
      <trkpt lat="40.146236" lon="-6.133704">
        <ele>409.069</ele>
        <time>2019-03-01T00:51:35Z</time>
      </trkpt>
      <trkpt lat="40.146557" lon="-6.133257">
        <ele>409.004</ele>
        <time>2019-03-01T00:51:47Z</time>
      </trkpt>
      <trkpt lat="40.146848" lon="-6.132787">
        <ele>409.024</ele>
        <time>2019-03-01T00:51:58Z</time>
      </trkpt>
      <trkpt lat="40.146917" lon="-6.132648">
        <ele>408.908</ele>
        <time>2019-03-01T00:52:01Z</time>
      </trkpt>
      <trkpt lat="40.147319" lon="-6.131974">
        <ele>408.939</ele>
        <time>2019-03-01T00:52:16Z</time>
      </trkpt>
      <trkpt lat="40.147342" lon="-6.131930">
        <ele>408.930</ele>
        <time>2019-03-01T00:52:17Z</time>
      </trkpt>
      <trkpt lat="40.147643" lon="-6.131449">
        <ele>409.221</ele>
        <time>2019-03-01T00:52:30Z</time>
      </trkpt>
      <trkpt lat="40.147820" lon="-6.131168">
        <ele>409.880</ele>
        <time>2019-03-01T00:52:41Z</time>
      </trkpt>
      <trkpt lat="40.148120" lon="-6.130724">
        <ele>410.384</ele>
        <time>2019-03-01T00:52:55Z</time>
      </trkpt>
      <trkpt lat="40.148261" lon="-6.130521">
        <ele>410.247</ele>
        <time>2019-03-01T00:53:01Z</time>
      </trkpt>
      <trkpt lat="40.148458" lon="-6.130245">
        <ele>410.036</ele>
        <time>2019-03-01T00:53:07Z</time>
      </trkpt>
      <trkpt lat="40.148824" lon="-6.129623">
        <ele>408.985</ele>
        <time>2019-03-01T00:53:20Z</time>
      </trkpt>
      <trkpt lat="40.149103" lon="-6.129187">
        <ele>407.472</ele>
        <time>2019-03-01T00:53:31Z</time>
      </trkpt>
      <trkpt lat="40.149380" lon="-6.128805">
        <ele>406.213</ele>
        <time>2019-03-01T00:53:41Z</time>
      </trkpt>
      <trkpt lat="40.149594" lon="-6.128435">
        <ele>405.914</ele>
        <time>2019-03-01T00:53:53Z</time>
      </trkpt>
      <trkpt lat="40.149756" lon="-6.128113">
        <ele>406.608</ele>
        <time>2019-03-01T00:54:07Z</time>
      </trkpt>
      <trkpt lat="40.150007" lon="-6.127656">
        <ele>407.760</ele>
        <time>2019-03-01T00:54:21Z</time>
      </trkpt>
      <trkpt lat="40.150341" lon="-6.127258">
        <ele>408.321</ele>
        <time>2019-03-01T00:54:34Z</time>
      </trkpt>
      <trkpt lat="40.150513" lon="-6.126861">
        <ele>408.922</ele>
        <time>2019-03-01T00:54:45Z</time>
      </trkpt>
      <trkpt lat="40.150827" lon="-6.126422">
        <ele>409.731</ele>
        <time>2019-03-01T00:55:00Z</time>
      </trkpt>
      <trkpt lat="40.151048" lon="-6.126051">
        <ele>410.155</ele>
        <time>2019-03-01T00:55:13Z</time>
      </trkpt>
      <trkpt lat="40.151174" lon="-6.125834">
        <ele>410.238</ele>
        <time>2019-03-01T00:55:25Z</time>
      </trkpt>
      <trkpt lat="40.151174" lon="-6.125834">
        <ele>410.267</ele>
        <time>2019-03-01T00:55:26Z</time>
      </trkpt>
      <trkpt lat="40.151220" lon="-6.125754">
        <ele>410.266</ele>
        <time>2019-03-01T00:57:00Z</time>
      </trkpt>
      <trkpt lat="40.151237" lon="-6.125731">
        <ele>410.314</ele>
        <time>2019-03-01T00:57:01Z</time>
      </trkpt>
      <trkpt lat="40.151497" lon="-6.125322">
        <ele>410.554</ele>
        <time>2019-03-01T00:57:16Z</time>
      </trkpt>
      <trkpt lat="40.151818" lon="-6.124877">
        <ele>411.009</ele>
        <time>2019-03-01T00:57:33Z</time>
      </trkpt>
      <trkpt lat="40.152135" lon="-6.124465">
        <ele>411.908</ele>
        <time>2019-03-01T00:57:48Z</time>
      </trkpt>
      <trkpt lat="40.152443" lon="-6.124103">
        <ele>412.834</ele>
        <time>2019-03-01T00:58:03Z</time>
      </trkpt>
      <trkpt lat="40.152686" lon="-6.123638">
        <ele>414.355</ele>
        <time>2019-03-01T00:58:19Z</time>
      </trkpt>
      <trkpt lat="40.152861" lon="-6.123326">
        <ele>415.666</ele>
        <time>2019-03-01T00:58:30Z</time>
      </trkpt>
      <trkpt lat="40.153027" lon="-6.123019">
        <ele>416.845</ele>
        <time>2019-03-01T00:58:42Z</time>
      </trkpt>
      <trkpt lat="40.153141" lon="-6.122759">
        <ele>417.659</ele>
        <time>2019-03-01T00:58:54Z</time>
      </trkpt>
      <trkpt lat="40.153320" lon="-6.122501">
        <ele>418.532</ele>
        <time>2019-03-01T00:59:06Z</time>
      </trkpt>
      <trkpt lat="40.153482" lon="-6.122215">
        <ele>419.221</ele>
        <time>2019-03-01T00:59:18Z</time>
      </trkpt>
      <trkpt lat="40.153664" lon="-6.121933">
        <ele>419.990</ele>
        <time>2019-03-01T00:59:30Z</time>
      </trkpt>
      <trkpt lat="40.153675" lon="-6.121918">
        <ele>420.014</ele>
        <time>2019-03-01T00:59:31Z</time>
      </trkpt>
      <trkpt lat="40.153681" lon="-6.121896">
        <ele>420.054</ele>
        <time>2019-03-01T00:59:32Z</time>
      </trkpt>
      <trkpt lat="40.153786" lon="-6.121727">
        <ele>420.509</ele>
        <time>2019-03-01T00:59:39Z</time>
      </trkpt>
      <trkpt lat="40.153800" lon="-6.121703">
        <ele>420.608</ele>
        <time>2019-03-01T00:59:40Z</time>
      </trkpt>
      <trkpt lat="40.153816" lon="-6.121678">
        <ele>420.744</ele>
        <time>2019-03-01T00:59:41Z</time>
      </trkpt>
      <trkpt lat="40.153832" lon="-6.121657">
        <ele>420.745</ele>
        <time>2019-03-01T00:59:42Z</time>
      </trkpt>
      <trkpt lat="40.153848" lon="-6.121634">
        <ele>420.846</ele>
        <time>2019-03-01T00:59:43Z</time>
      </trkpt>
      <trkpt lat="40.154096" lon="-6.121278">
        <ele>421.925</ele>
        <time>2019-03-01T00:59:57Z</time>
      </trkpt>
      <trkpt lat="40.154322" lon="-6.120886">
        <ele>423.129</ele>
        <time>2019-03-01T01:00:11Z</time>
      </trkpt>
      <trkpt lat="40.154562" lon="-6.120592">
        <ele>423.652</ele>
        <time>2019-03-01T01:00:24Z</time>
      </trkpt>
      <trkpt lat="40.154862" lon="-6.120219">
        <ele>424.381</ele>
        <time>2019-03-01T01:00:38Z</time>
      </trkpt>
      <trkpt lat="40.155188" lon="-6.119726">
        <ele>426.020</ele>
        <time>2019-03-01T01:00:57Z</time>
      </trkpt>
      <trkpt lat="40.155295" lon="-6.119421">
        <ele>426.966</ele>
        <time>2019-03-01T01:01:07Z</time>
      </trkpt>
      <trkpt lat="40.155542" lon="-6.118988">
        <ele>428.129</ele>
        <time>2019-03-01T01:01:23Z</time>
      </trkpt>
      <trkpt lat="40.155777" lon="-6.118606">
        <ele>428.721</ele>
        <time>2019-03-01T01:01:36Z</time>
      </trkpt>
      <trkpt lat="40.156047" lon="-6.118189">
        <ele>429.108</ele>
        <time>2019-03-01T01:01:49Z</time>
      </trkpt>
      <trkpt lat="40.156328" lon="-6.117737">
        <ele>429.259</ele>
        <time>2019-03-01T01:02:03Z</time>
      </trkpt>
      <trkpt lat="40.156645" lon="-6.117323">
        <ele>429.390</ele>
        <time>2019-03-01T01:02:17Z</time>
      </trkpt>
      <trkpt lat="40.156683" lon="-6.117297">
        <ele>429.391</ele>
        <time>2019-03-01T01:02:18Z</time>
      </trkpt>
      <trkpt lat="40.157005" lon="-6.116900">
        <ele>429.320</ele>
        <time>2019-03-01T01:02:30Z</time>
      </trkpt>
      <trkpt lat="40.157433" lon="-6.116136">
        <ele>429.824</ele>
        <time>2019-03-01T01:02:48Z</time>
      </trkpt>
      <trkpt lat="40.157690" lon="-6.115784">
        <ele>429.687</ele>
        <time>2019-03-01T01:02:57Z</time>
      </trkpt>
      <trkpt lat="40.157835" lon="-6.115637">
        <ele>429.336</ele>
        <time>2019-03-01T01:03:01Z</time>
      </trkpt>
      <trkpt lat="40.157869" lon="-6.115596">
        <ele>429.255</ele>
        <time>2019-03-01T01:03:02Z</time>
      </trkpt>
      <trkpt lat="40.157941" lon="-6.115501">
        <ele>429.094</ele>
        <time>2019-03-01T01:03:04Z</time>
      </trkpt>
      <trkpt lat="40.158494" lon="-6.114685">
        <ele>427.457</ele>
        <time>2019-03-01T01:03:17Z</time>
      </trkpt>
      <trkpt lat="40.158563" lon="-6.114565">
        <ele>427.222</ele>
        <time>2019-03-01T01:03:19Z</time>
      </trkpt>
      <trkpt lat="40.158653" lon="-6.114401">
        <ele>427.008</ele>
        <time>2019-03-01T01:03:22Z</time>
      </trkpt>
      <trkpt lat="40.158721" lon="-6.114315">
        <ele>426.932</ele>
        <time>2019-03-01T01:03:24Z</time>
      </trkpt>
      <trkpt lat="40.158761" lon="-6.114279">
        <ele>426.893</ele>
        <time>2019-03-01T01:03:25Z</time>
      </trkpt>
      <trkpt lat="40.158919" lon="-6.114134">
        <ele>426.754</ele>
        <time>2019-03-01T01:03:29Z</time>
      </trkpt>
      <trkpt lat="40.158945" lon="-6.114087">
        <ele>426.783</ele>
        <time>2019-03-01T01:03:30Z</time>
      </trkpt>
      <trkpt lat="40.159019" lon="-6.113944">
        <ele>426.757</ele>
        <time>2019-03-01T01:03:33Z</time>
      </trkpt>
      <trkpt lat="40.159157" lon="-6.113777">
        <ele>426.750</ele>
        <time>2019-03-01T01:03:37Z</time>
      </trkpt>
      <trkpt lat="40.159189" lon="-6.113730">
        <ele>426.739</ele>
        <time>2019-03-01T01:03:38Z</time>
      </trkpt>
      <trkpt lat="40.159216" lon="-6.113677">
        <ele>426.628</ele>
        <time>2019-03-01T01:03:39Z</time>
      </trkpt>
      <trkpt lat="40.159238" lon="-6.113617">
        <ele>426.546</ele>
        <time>2019-03-01T01:03:40Z</time>
      </trkpt>
      <trkpt lat="40.159254" lon="-6.113552">
        <ele>426.588</ele>
        <time>2019-03-01T01:03:41Z</time>
      </trkpt>
      <trkpt lat="40.159267" lon="-6.113485">
        <ele>426.416</ele>
        <time>2019-03-01T01:03:42Z</time>
      </trkpt>
      <trkpt lat="40.159285" lon="-6.113418">
        <ele>426.308</ele>
        <time>2019-03-01T01:03:43Z</time>
      </trkpt>
      <trkpt lat="40.159311" lon="-6.113355">
        <ele>426.157</ele>
        <time>2019-03-01T01:03:44Z</time>
      </trkpt>
      <trkpt lat="40.159342" lon="-6.113299">
        <ele>426.068</ele>
        <time>2019-03-01T01:03:45Z</time>
      </trkpt>
      <trkpt lat="40.159377" lon="-6.113243">
        <ele>425.829</ele>
        <time>2019-03-01T01:03:46Z</time>
      </trkpt>
      <trkpt lat="40.159857" lon="-6.112426">
        <ele>423.258</ele>
        <time>2019-03-01T01:03:58Z</time>
      </trkpt>
      <trkpt lat="40.160445" lon="-6.111651">
        <ele>421.312</ele>
        <time>2019-03-01T01:04:11Z</time>
      </trkpt>
      <trkpt lat="40.160646" lon="-6.111448">
        <ele>420.735</ele>
        <time>2019-03-01T01:04:15Z</time>
      </trkpt>
      <trkpt lat="40.161435" lon="-6.110892">
        <ele>416.654</ele>
        <time>2019-03-01T01:04:29Z</time>
      </trkpt>
      <trkpt lat="40.161764" lon="-6.110559">
        <ele>416.173</ele>
        <time>2019-03-01T01:04:37Z</time>
      </trkpt>
      <trkpt lat="40.162235" lon="-6.109757">
        <ele>416.058</ele>
        <time>2019-03-01T01:04:54Z</time>
      </trkpt>
      <trkpt lat="40.162397" lon="-6.109372">
        <ele>415.952</ele>
        <time>2019-03-01T01:05:02Z</time>
      </trkpt>
      <trkpt lat="40.162444" lon="-6.109209">
        <ele>415.917</ele>
        <time>2019-03-01T01:05:05Z</time>
      </trkpt>
      <trkpt lat="40.162506" lon="-6.108164">
        <ele>415.008</ele>
        <time>2019-03-01T01:05:20Z</time>
      </trkpt>
      <trkpt lat="40.162518" lon="-6.108098">
        <ele>414.898</ele>
        <time>2019-03-01T01:05:21Z</time>
      </trkpt>
      <trkpt lat="40.162572" lon="-6.107901">
        <ele>414.369</ele>
        <time>2019-03-01T01:05:24Z</time>
      </trkpt>
      <trkpt lat="40.162599" lon="-6.107839">
        <ele>414.230</ele>
        <time>2019-03-01T01:05:25Z</time>
      </trkpt>
      <trkpt lat="40.162702" lon="-6.107660">
        <ele>413.999</ele>
        <time>2019-03-01T01:05:28Z</time>
      </trkpt>
      <trkpt lat="40.162744" lon="-6.107609">
        <ele>413.933</ele>
        <time>2019-03-01T01:05:29Z</time>
      </trkpt>
      <trkpt lat="40.162786" lon="-6.107561">
        <ele>413.866</ele>
        <time>2019-03-01T01:05:30Z</time>
      </trkpt>
      <trkpt lat="40.162909" lon="-6.107424">
        <ele>413.735</ele>
        <time>2019-03-01T01:05:33Z</time>
      </trkpt>
      <trkpt lat="40.162947" lon="-6.107373">
        <ele>413.754</ele>
        <time>2019-03-01T01:05:34Z</time>
      </trkpt>
      <trkpt lat="40.163413" lon="-6.106529">
        <ele>409.796</ele>
        <time>2019-03-01T01:05:46Z</time>
      </trkpt>
      <trkpt lat="40.163591" lon="-6.106287">
        <ele>408.331</ele>
        <time>2019-03-01T01:05:50Z</time>
      </trkpt>
      <trkpt lat="40.163616" lon="-6.106242">
        <ele>408.024</ele>
        <time>2019-03-01T01:05:51Z</time>
      </trkpt>
      <trkpt lat="40.163773" lon="-6.105935">
        <ele>405.808</ele>
        <time>2019-03-01T01:05:59Z</time>
      </trkpt>
      <trkpt lat="40.163792" lon="-6.105888">
        <ele>405.632</ele>
        <time>2019-03-01T01:06:00Z</time>
      </trkpt>
      <trkpt lat="40.163817" lon="-6.105842">
        <ele>405.323</ele>
        <time>2019-03-01T01:06:01Z</time>
      </trkpt>
      <trkpt lat="40.163930" lon="-6.105685">
        <ele>404.784</ele>
        <time>2019-03-01T01:06:05Z</time>
      </trkpt>
      <trkpt lat="40.164078" lon="-6.105483">
        <ele>404.243</ele>
        <time>2019-03-01T01:06:10Z</time>
      </trkpt>
      <trkpt lat="40.164103" lon="-6.105428">
        <ele>404.037</ele>
        <time>2019-03-01T01:06:11Z</time>
      </trkpt>
      <trkpt lat="40.164123" lon="-6.105369">
        <ele>403.840</ele>
        <time>2019-03-01T01:06:12Z</time>
      </trkpt>
      <trkpt lat="40.164295" lon="-6.104937">
        <ele>402.419</ele>
        <time>2019-03-01T01:06:22Z</time>
      </trkpt>
      <trkpt lat="40.164308" lon="-6.104936">
        <ele>402.438</ele>
        <time>2019-03-01T01:06:27Z</time>
      </trkpt>
      <trkpt lat="40.164353" lon="-6.104847">
        <ele>402.029</ele>
        <time>2019-03-01T01:06:45Z</time>
      </trkpt>
      <trkpt lat="40.164366" lon="-6.104822">
        <ele>401.900</ele>
        <time>2019-03-01T01:06:46Z</time>
      </trkpt>
      <trkpt lat="40.164381" lon="-6.104791">
        <ele>401.820</ele>
        <time>2019-03-01T01:06:47Z</time>
      </trkpt>
      <trkpt lat="40.164652" lon="-6.104286">
        <ele>399.908</ele>
        <time>2019-03-01T01:07:00Z</time>
      </trkpt>
      <trkpt lat="40.164700" lon="-6.104195">
        <ele>399.665</ele>
        <time>2019-03-01T01:07:02Z</time>
      </trkpt>
      <trkpt lat="40.164832" lon="-6.103979">
        <ele>398.856</ele>
        <time>2019-03-01T01:07:07Z</time>
      </trkpt>
      <trkpt lat="40.164862" lon="-6.103931">
        <ele>398.627</ele>
        <time>2019-03-01T01:07:08Z</time>
      </trkpt>
      <trkpt lat="40.164892" lon="-6.103885">
        <ele>398.476</ele>
        <time>2019-03-01T01:07:09Z</time>
      </trkpt>
      <trkpt lat="40.164977" lon="-6.103737">
        <ele>397.990</ele>
        <time>2019-03-01T01:07:12Z</time>
      </trkpt>
      <trkpt lat="40.165291" lon="-6.103387">
        <ele>397.233</ele>
        <time>2019-03-01T01:07:24Z</time>
      </trkpt>
      <trkpt lat="40.165564" lon="-6.103123">
        <ele>397.072</ele>
        <time>2019-03-01T01:07:35Z</time>
      </trkpt>
      <trkpt lat="40.165797" lon="-6.102755">
        <ele>397.221</ele>
        <time>2019-03-01T01:07:47Z</time>
      </trkpt>
      <trkpt lat="40.165867" lon="-6.102646">
        <ele>397.347</ele>
        <time>2019-03-01T01:07:59Z</time>
      </trkpt>
      <trkpt lat="40.165912" lon="-6.102549">
        <ele>397.529</ele>
        <time>2019-03-01T01:08:27Z</time>
      </trkpt>
      <trkpt lat="40.165926" lon="-6.102525">
        <ele>397.521</ele>
        <time>2019-03-01T01:08:28Z</time>
      </trkpt>
      <trkpt lat="40.165942" lon="-6.102504">
        <ele>397.608</ele>
        <time>2019-03-01T01:08:29Z</time>
      </trkpt>
      <trkpt lat="40.165960" lon="-6.102483">
        <ele>397.797</ele>
        <time>2019-03-01T01:08:30Z</time>
      </trkpt>
      <trkpt lat="40.166115" lon="-6.102225">
        <ele>398.688</ele>
        <time>2019-03-01T01:08:42Z</time>
      </trkpt>
      <trkpt lat="40.166132" lon="-6.102191">
        <ele>398.739</ele>
        <time>2019-03-01T01:08:44Z</time>
      </trkpt>
      <trkpt lat="40.166138" lon="-6.102172">
        <ele>398.828</ele>
        <time>2019-03-01T01:08:45Z</time>
      </trkpt>
      <trkpt lat="40.166147" lon="-6.102153">
        <ele>398.892</ele>
        <time>2019-03-01T01:08:46Z</time>
      </trkpt>
      <trkpt lat="40.166251" lon="-6.101787">
        <ele>399.945</ele>
        <time>2019-03-01T01:08:59Z</time>
      </trkpt>
      <trkpt lat="40.166249" lon="-6.101681">
        <ele>400.164</ele>
        <time>2019-03-01T01:09:08Z</time>
      </trkpt>
      <trkpt lat="40.166277" lon="-6.101590">
        <ele>400.433</ele>
        <time>2019-03-01T01:09:41Z</time>
      </trkpt>
      <trkpt lat="40.166297" lon="-6.101550">
        <ele>400.568</ele>
        <time>2019-03-01T01:09:44Z</time>
      </trkpt>
      <trkpt lat="40.166306" lon="-6.101539">
        <ele>400.642</ele>
        <time>2019-03-01T01:09:45Z</time>
      </trkpt>
      <trkpt lat="40.166442" lon="-6.101304">
        <ele>401.326</ele>
        <time>2019-03-01T01:10:03Z</time>
      </trkpt>
      <trkpt lat="40.166556" lon="-6.101083">
        <ele>401.908</ele>
        <time>2019-03-01T01:10:19Z</time>
      </trkpt>
      <trkpt lat="40.166573" lon="-6.101040">
        <ele>402.049</ele>
        <time>2019-03-01T01:10:22Z</time>
      </trkpt>
      <trkpt lat="40.166578" lon="-6.101027">
        <ele>402.050</ele>
        <time>2019-03-01T01:10:23Z</time>
      </trkpt>
      <trkpt lat="40.166592" lon="-6.101000">
        <ele>402.111</ele>
        <time>2019-03-01T01:10:28Z</time>
      </trkpt>
      <trkpt lat="40.166623" lon="-6.100913">
        <ele>402.050</ele>
        <time>2019-03-01T01:12:07Z</time>
      </trkpt>
      <trkpt lat="40.166644" lon="-6.100879">
        <ele>402.014</ele>
        <time>2019-03-01T01:12:13Z</time>
      </trkpt>
      <trkpt lat="40.166704" lon="-6.100821">
        <ele>401.897</ele>
        <time>2019-03-01T01:18:41Z</time>
      </trkpt>
      <trkpt lat="40.166896" lon="-6.100416">
        <ele>400.756</ele>
        <time>2019-03-01T01:18:53Z</time>
      </trkpt>
      <trkpt lat="40.167011" lon="-6.100171">
        <ele>399.925</ele>
        <time>2019-03-01T01:19:03Z</time>
      </trkpt>
      <trkpt lat="40.167010" lon="-6.100111">
        <ele>399.793</ele>
        <time>2019-03-01T01:19:43Z</time>
      </trkpt>
      <trkpt lat="40.167109" lon="-6.099946">
        <ele>398.765</ele>
        <time>2019-03-01T01:19:48Z</time>
      </trkpt>
      <trkpt lat="40.167140" lon="-6.099908">
        <ele>398.421</ele>
        <time>2019-03-01T01:19:49Z</time>
      </trkpt>
      <trkpt lat="40.167172" lon="-6.099863">
        <ele>398.108</ele>
        <time>2019-03-01T01:19:50Z</time>
      </trkpt>
      <trkpt lat="40.167259" lon="-6.099729">
        <ele>397.182</ele>
        <time>2019-03-01T01:19:53Z</time>
      </trkpt>
      <trkpt lat="40.167680" lon="-6.098961">
        <ele>392.273</ele>
        <time>2019-03-01T01:20:06Z</time>
      </trkpt>
      <trkpt lat="40.167892" lon="-6.098617">
        <ele>389.884</ele>
        <time>2019-03-01T01:20:11Z</time>
      </trkpt>
      <trkpt lat="40.167927" lon="-6.098545">
        <ele>389.213</ele>
        <time>2019-03-01T01:20:12Z</time>
      </trkpt>
      <trkpt lat="40.167955" lon="-6.098475">
        <ele>388.827</ele>
        <time>2019-03-01T01:20:13Z</time>
      </trkpt>
      <trkpt lat="40.167975" lon="-6.098408">
        <ele>388.310</ele>
        <time>2019-03-01T01:20:14Z</time>
      </trkpt>
      <trkpt lat="40.167990" lon="-6.098345">
        <ele>387.949</ele>
        <time>2019-03-01T01:20:15Z</time>
      </trkpt>
      <trkpt lat="40.168003" lon="-6.098287">
        <ele>387.588</ele>
        <time>2019-03-01T01:20:16Z</time>
      </trkpt>
      <trkpt lat="40.168032" lon="-6.098096">
        <ele>386.266</ele>
        <time>2019-03-01T01:20:20Z</time>
      </trkpt>
      <trkpt lat="40.168034" lon="-6.097912">
        <ele>385.229</ele>
        <time>2019-03-01T01:20:25Z</time>
      </trkpt>
      <trkpt lat="40.168015" lon="-6.097890">
        <ele>385.321</ele>
        <time>2019-03-01T01:20:26Z</time>
      </trkpt>
      <trkpt lat="40.167991" lon="-6.097881">
        <ele>385.508</ele>
        <time>2019-03-01T01:20:27Z</time>
      </trkpt>
      <trkpt lat="40.167970" lon="-6.097873">
        <ele>385.619</ele>
        <time>2019-03-01T01:20:28Z</time>
      </trkpt>
      <trkpt lat="40.167950" lon="-6.097864">
        <ele>385.810</ele>
        <time>2019-03-01T01:20:29Z</time>
      </trkpt>
      <trkpt lat="40.167696" lon="-6.097730">
        <ele>387.761</ele>
        <time>2019-03-01T01:20:43Z</time>
      </trkpt>
      <trkpt lat="40.167519" lon="-6.097635">
        <ele>389.370</ele>
        <time>2019-03-01T01:20:52Z</time>
      </trkpt>
      <trkpt lat="40.167537" lon="-6.097612">
        <ele>389.544</ele>
        <time>2019-03-01T01:20:56Z</time>
      </trkpt>
      <trkpt lat="40.167551" lon="-6.097610">
        <ele>389.617</ele>
        <time>2019-03-01T01:20:57Z</time>
      </trkpt>
      <trkpt lat="40.167574" lon="-6.097616">
        <ele>389.836</ele>
        <time>2019-03-01T01:20:58Z</time>
      </trkpt>
      <trkpt lat="40.167603" lon="-6.097632">
        <ele>389.585</ele>
        <time>2019-03-01T01:20:59Z</time>
      </trkpt>
      <trkpt lat="40.167639" lon="-6.097654">
        <ele>389.192</ele>
        <time>2019-03-01T01:21:00Z</time>
      </trkpt>
      <trkpt lat="40.168032" lon="-6.097876">
        <ele>385.473</ele>
        <time>2019-03-01T01:21:09Z</time>
      </trkpt>
      <trkpt lat="40.168051" lon="-6.097873">
        <ele>385.220</ele>
        <time>2019-03-01T01:21:10Z</time>
      </trkpt>
      <trkpt lat="40.168064" lon="-6.097861">
        <ele>385.108</ele>
        <time>2019-03-01T01:21:11Z</time>
      </trkpt>
      <trkpt lat="40.168076" lon="-6.097839">
        <ele>384.852</ele>
        <time>2019-03-01T01:21:12Z</time>
      </trkpt>
      <trkpt lat="40.168085" lon="-6.097812">
        <ele>384.723</ele>
        <time>2019-03-01T01:21:13Z</time>
      </trkpt>
      <trkpt lat="40.168092" lon="-6.097777">
        <ele>384.784</ele>
        <time>2019-03-01T01:21:14Z</time>
      </trkpt>
      <trkpt lat="40.168101" lon="-6.097736">
        <ele>384.733</ele>
        <time>2019-03-01T01:21:15Z</time>
      </trkpt>
      <trkpt lat="40.168107" lon="-6.097690">
        <ele>384.657</ele>
        <time>2019-03-01T01:21:16Z</time>
      </trkpt>
      <trkpt lat="40.168112" lon="-6.097639">
        <ele>384.650</ele>
        <time>2019-03-01T01:21:17Z</time>
      </trkpt>
      <trkpt lat="40.168119" lon="-6.097408">
        <ele>383.999</ele>
        <time>2019-03-01T01:21:21Z</time>
      </trkpt>
      <trkpt lat="40.168119" lon="-6.097344">
        <ele>383.738</ele>
        <time>2019-03-01T01:21:22Z</time>
      </trkpt>
      <trkpt lat="40.168124" lon="-6.097288">
        <ele>383.656</ele>
        <time>2019-03-01T01:21:23Z</time>
      </trkpt>
      <trkpt lat="40.168128" lon="-6.097236">
        <ele>383.459</ele>
        <time>2019-03-01T01:21:24Z</time>
      </trkpt>
      <trkpt lat="40.168128" lon="-6.097189">
        <ele>383.414</ele>
        <time>2019-03-01T01:21:25Z</time>
      </trkpt>
      <trkpt lat="40.168128" lon="-6.097147">
        <ele>383.308</ele>
        <time>2019-03-01T01:21:26Z</time>
      </trkpt>
      <trkpt lat="40.168129" lon="-6.097110">
        <ele>383.348</ele>
        <time>2019-03-01T01:21:27Z</time>
      </trkpt>
      <trkpt lat="40.168129" lon="-6.097075">
        <ele>383.399</ele>
        <time>2019-03-01T01:21:28Z</time>
      </trkpt>
      <trkpt lat="40.168132" lon="-6.097043">
        <ele>383.340</ele>
        <time>2019-03-01T01:21:29Z</time>
      </trkpt>
      <trkpt lat="40.168133" lon="-6.097013">
        <ele>383.389</ele>
        <time>2019-03-01T01:21:30Z</time>
      </trkpt>
      <trkpt lat="40.168137" lon="-6.096984">
        <ele>383.343</ele>
        <time>2019-03-01T01:21:31Z</time>
      </trkpt>
      <trkpt lat="40.168140" lon="-6.096955">
        <ele>383.386</ele>
        <time>2019-03-01T01:21:32Z</time>
      </trkpt>
      <trkpt lat="40.168141" lon="-6.096923">
        <ele>383.445</ele>
        <time>2019-03-01T01:21:33Z</time>
      </trkpt>
      <trkpt lat="40.168144" lon="-6.096891">
        <ele>383.434</ele>
        <time>2019-03-01T01:21:34Z</time>
      </trkpt>
      <trkpt lat="40.168148" lon="-6.096857">
        <ele>383.499</ele>
        <time>2019-03-01T01:21:35Z</time>
      </trkpt>
      <trkpt lat="40.168153" lon="-6.096821">
        <ele>383.507</ele>
        <time>2019-03-01T01:21:36Z</time>
      </trkpt>
      <trkpt lat="40.168205" lon="-6.096408">
        <ele>384.127</ele>
        <time>2019-03-01T01:21:48Z</time>
      </trkpt>
      <trkpt lat="40.168224" lon="-6.095916">
        <ele>385.108</ele>
        <time>2019-03-01T01:22:02Z</time>
      </trkpt>
      <trkpt lat="40.168267" lon="-6.095459">
        <ele>386.252</ele>
        <time>2019-03-01T01:22:15Z</time>
      </trkpt>
      <trkpt lat="40.168268" lon="-6.094764">
        <ele>386.643</ele>
        <time>2019-03-01T01:22:30Z</time>
      </trkpt>
      <trkpt lat="40.168283" lon="-6.094431">
        <ele>386.394</ele>
        <time>2019-03-01T01:22:36Z</time>
      </trkpt>
      <trkpt lat="40.168284" lon="-6.094372">
        <ele>386.153</ele>
        <time>2019-03-01T01:22:37Z</time>
      </trkpt>
      <trkpt lat="40.168284" lon="-6.094311">
        <ele>386.037</ele>
        <time>2019-03-01T01:22:38Z</time>
      </trkpt>
      <trkpt lat="40.168313" lon="-6.093400">
        <ele>382.620</ele>
        <time>2019-03-01T01:22:51Z</time>
      </trkpt>
      <trkpt lat="40.168315" lon="-6.093215">
        <ele>382.119</ele>
        <time>2019-03-01T01:22:54Z</time>
      </trkpt>
      <trkpt lat="40.168327" lon="-6.093092">
        <ele>381.848</ele>
        <time>2019-03-01T01:22:56Z</time>
      </trkpt>
      <trkpt lat="40.168333" lon="-6.092760">
        <ele>380.859</ele>
        <time>2019-03-01T01:23:01Z</time>
      </trkpt>
      <trkpt lat="40.168339" lon="-6.092690">
        <ele>380.503</ele>
        <time>2019-03-01T01:23:02Z</time>
      </trkpt>
      <trkpt lat="40.168343" lon="-6.092619">
        <ele>380.123</ele>
        <time>2019-03-01T01:23:03Z</time>
      </trkpt>
      <trkpt lat="40.168359" lon="-6.092311">
        <ele>378.408</ele>
        <time>2019-03-01T01:23:08Z</time>
      </trkpt>
      <trkpt lat="40.168362" lon="-6.092259">
        <ele>378.138</ele>
        <time>2019-03-01T01:23:09Z</time>
      </trkpt>
      <trkpt lat="40.168363" lon="-6.092213">
        <ele>378.019</ele>
        <time>2019-03-01T01:23:10Z</time>
      </trkpt>
      <trkpt lat="40.168358" lon="-6.091729">
        <ele>378.210</ele>
        <time>2019-03-01T01:23:22Z</time>
      </trkpt>
      <trkpt lat="40.168384" lon="-6.091325">
        <ele>379.219</ele>
        <time>2019-03-01T01:23:34Z</time>
      </trkpt>
      <trkpt lat="40.168405" lon="-6.090925">
        <ele>380.243</ele>
        <time>2019-03-01T01:23:46Z</time>
      </trkpt>
      <trkpt lat="40.168401" lon="-6.090893">
        <ele>380.256</ele>
        <time>2019-03-01T01:23:47Z</time>
      </trkpt>
      <trkpt lat="40.168398" lon="-6.090860">
        <ele>380.375</ele>
        <time>2019-03-01T01:23:48Z</time>
      </trkpt>
      <trkpt lat="40.168398" lon="-6.090826">
        <ele>380.474</ele>
        <time>2019-03-01T01:23:49Z</time>
      </trkpt>
      <trkpt lat="40.168399" lon="-6.090791">
        <ele>380.576</ele>
        <time>2019-03-01T01:23:50Z</time>
      </trkpt>
      <trkpt lat="40.168407" lon="-6.090216">
        <ele>381.790</ele>
        <time>2019-03-01T01:24:06Z</time>
      </trkpt>
      <trkpt lat="40.168416" lon="-6.089562">
        <ele>382.719</ele>
        <time>2019-03-01T01:24:21Z</time>
      </trkpt>
      <trkpt lat="40.168427" lon="-6.089168">
        <ele>382.808</ele>
        <time>2019-03-01T01:24:28Z</time>
      </trkpt>
      <trkpt lat="40.168452" lon="-6.088492">
        <ele>382.280</ele>
        <time>2019-03-01T01:24:42Z</time>
      </trkpt>
      <trkpt lat="40.168469" lon="-6.088046">
        <ele>381.591</ele>
        <time>2019-03-01T01:24:51Z</time>
      </trkpt>
      <trkpt lat="40.168465" lon="-6.087994">
        <ele>381.472</ele>
        <time>2019-03-01T01:24:52Z</time>
      </trkpt>
      <trkpt lat="40.168462" lon="-6.087943">
        <ele>381.321</ele>
        <time>2019-03-01T01:24:53Z</time>
      </trkpt>
      <trkpt lat="40.168488" lon="-6.087047">
        <ele>380.295</ele>
        <time>2019-03-01T01:25:09Z</time>
      </trkpt>
      <trkpt lat="40.168502" lon="-6.086236">
        <ele>379.858</ele>
        <time>2019-03-01T01:25:23Z</time>
      </trkpt>
      <trkpt lat="40.168519" lon="-6.085994">
        <ele>379.587</ele>
        <time>2019-03-01T01:25:27Z</time>
      </trkpt>
      <trkpt lat="40.168525" lon="-6.085936">
        <ele>379.576</ele>
        <time>2019-03-01T01:25:28Z</time>
      </trkpt>
      <trkpt lat="40.168537" lon="-6.085444">
        <ele>378.921</ele>
        <time>2019-03-01T01:25:39Z</time>
      </trkpt>
      <trkpt lat="40.168542" lon="-6.085001">
        <ele>378.541</ele>
        <time>2019-03-01T01:25:52Z</time>
      </trkpt>
      <trkpt lat="40.168552" lon="-6.084535">
        <ele>378.805</ele>
        <time>2019-03-01T01:26:08Z</time>
      </trkpt>
      <trkpt lat="40.168590" lon="-6.083963">
        <ele>379.608</ele>
        <time>2019-03-01T01:26:24Z</time>
      </trkpt>
      <trkpt lat="40.168594" lon="-6.083566">
        <ele>380.135</ele>
        <time>2019-03-01T01:26:35Z</time>
      </trkpt>
      <trkpt lat="40.168629" lon="-6.083040">
        <ele>381.546</ele>
        <time>2019-03-01T01:26:48Z</time>
      </trkpt>
      <trkpt lat="40.168671" lon="-6.082589">
        <ele>382.197</ele>
        <time>2019-03-01T01:26:59Z</time>
      </trkpt>
      <trkpt lat="40.168664" lon="-6.082182">
        <ele>382.826</ele>
        <time>2019-03-01T01:27:10Z</time>
      </trkpt>
      <trkpt lat="40.168698" lon="-6.081728">
        <ele>383.940</ele>
        <time>2019-03-01T01:27:23Z</time>
      </trkpt>
      <trkpt lat="40.168688" lon="-6.081441">
        <ele>384.593</ele>
        <time>2019-03-01T01:27:36Z</time>
      </trkpt>
      <trkpt lat="40.168671" lon="-6.081420">
        <ele>384.652</ele>
        <time>2019-03-01T01:27:43Z</time>
      </trkpt>
      <trkpt lat="40.168677" lon="-6.081266">
        <ele>384.951</ele>
        <time>2019-03-01T01:28:56Z</time>
      </trkpt>
      <trkpt lat="40.168773" lon="-6.080808">
        <ele>385.481</ele>
        <time>2019-03-01T01:29:08Z</time>
      </trkpt>
      <trkpt lat="40.168782" lon="-6.080752">
        <ele>385.461</ele>
        <time>2019-03-01T01:29:09Z</time>
      </trkpt>
      <trkpt lat="40.168893" lon="-6.080235">
        <ele>385.417</ele>
        <time>2019-03-01T01:29:20Z</time>
      </trkpt>
      <trkpt lat="40.169045" lon="-6.079636">
        <ele>384.508</ele>
        <time>2019-03-01T01:29:35Z</time>
      </trkpt>
      <trkpt lat="40.169160" lon="-6.079096">
        <ele>383.531</ele>
        <time>2019-03-01T01:29:47Z</time>
      </trkpt>
      <trkpt lat="40.169400" lon="-6.078210">
        <ele>382.342</ele>
        <time>2019-03-01T01:30:03Z</time>
      </trkpt>
      <trkpt lat="40.169526" lon="-6.077689">
        <ele>381.073</ele>
        <time>2019-03-01T01:30:16Z</time>
      </trkpt>
      <trkpt lat="40.169525" lon="-6.077685">
        <ele>381.092</ele>
        <time>2019-03-01T01:30:17Z</time>
      </trkpt>
      <trkpt lat="40.169567" lon="-6.077539">
        <ele>380.796</ele>
        <time>2019-03-01T01:31:36Z</time>
      </trkpt>
      <trkpt lat="40.169784" lon="-6.077045">
        <ele>379.789</ele>
        <time>2019-03-01T01:31:48Z</time>
      </trkpt>
      <trkpt lat="40.169885" lon="-6.076851">
        <ele>379.378</ele>
        <time>2019-03-01T01:31:52Z</time>
      </trkpt>
      <trkpt lat="40.169911" lon="-6.076807">
        <ele>379.247</ele>
        <time>2019-03-01T01:31:53Z</time>
      </trkpt>
      <trkpt lat="40.169965" lon="-6.076720">
        <ele>379.129</ele>
        <time>2019-03-01T01:31:55Z</time>
      </trkpt>
      <trkpt lat="40.169991" lon="-6.076677">
        <ele>379.000</ele>
        <time>2019-03-01T01:31:56Z</time>
      </trkpt>
      <trkpt lat="40.170273" lon="-6.076034">
        <ele>378.520</ele>
        <time>2019-03-01T01:32:10Z</time>
      </trkpt>
      <trkpt lat="40.170340" lon="-6.075875">
        <ele>378.408</ele>
        <time>2019-03-01T01:32:13Z</time>
      </trkpt>
      <trkpt lat="40.170366" lon="-6.075827">
        <ele>378.445</ele>
        <time>2019-03-01T01:32:14Z</time>
      </trkpt>
      <trkpt lat="40.170390" lon="-6.075781">
        <ele>378.356</ele>
        <time>2019-03-01T01:32:15Z</time>
      </trkpt>
      <trkpt lat="40.170806" lon="-6.074934">
        <ele>377.527</ele>
        <time>2019-03-01T01:32:32Z</time>
      </trkpt>
      <trkpt lat="40.171100" lon="-6.074229">
        <ele>376.676</ele>
        <time>2019-03-01T01:32:46Z</time>
      </trkpt>
      <trkpt lat="40.171326" lon="-6.073731">
        <ele>375.770</ele>
        <time>2019-03-01T01:32:57Z</time>
      </trkpt>
      <trkpt lat="40.171573" lon="-6.073364">
        <ele>374.083</ele>
        <time>2019-03-01T01:33:09Z</time>
      </trkpt>
      <trkpt lat="40.171605" lon="-6.073309">
        <ele>373.652</ele>
        <time>2019-03-01T01:33:16Z</time>
      </trkpt>
      <trkpt lat="40.171691" lon="-6.073135">
        <ele>372.331</ele>
        <time>2019-03-01T01:33:54Z</time>
      </trkpt>
      <trkpt lat="40.171703" lon="-6.073100">
        <ele>372.162</ele>
        <time>2019-03-01T01:34:01Z</time>
      </trkpt>
      <trkpt lat="40.171736" lon="-6.073035">
        <ele>371.883</ele>
        <time>2019-03-01T01:34:19Z</time>
      </trkpt>
      <trkpt lat="40.171987" lon="-6.072694">
        <ele>371.611</ele>
        <time>2019-03-01T01:34:35Z</time>
      </trkpt>
      <trkpt lat="40.172253" lon="-6.072384">
        <ele>372.708</ele>
        <time>2019-03-01T01:34:50Z</time>
      </trkpt>
      <trkpt lat="40.172562" lon="-6.072021">
        <ele>374.629</ele>
        <time>2019-03-01T01:35:07Z</time>
      </trkpt>
      <trkpt lat="40.172915" lon="-6.071586">
        <ele>376.510</ele>
        <time>2019-03-01T01:35:27Z</time>
      </trkpt>
      <trkpt lat="40.173207" lon="-6.071240">
        <ele>377.891</ele>
        <time>2019-03-01T01:35:42Z</time>
      </trkpt>
      <trkpt lat="40.173607" lon="-6.070682">
        <ele>378.980</ele>
        <time>2019-03-01T01:35:58Z</time>
      </trkpt>
      <trkpt lat="40.173805" lon="-6.070464">
        <ele>379.064</ele>
        <time>2019-03-01T01:36:09Z</time>
      </trkpt>
      <trkpt lat="40.173801" lon="-6.070468">
        <ele>379.037</ele>
        <time>2019-03-01T01:36:10Z</time>
      </trkpt>
      <trkpt lat="40.173858" lon="-6.070405">
        <ele>379.066</ele>
        <time>2019-03-01T01:36:29Z</time>
      </trkpt>
      <trkpt lat="40.174168" lon="-6.069928">
        <ele>378.835</ele>
        <time>2019-03-01T01:36:43Z</time>
      </trkpt>
      <trkpt lat="40.174402" lon="-6.069658">
        <ele>378.738</ele>
        <time>2019-03-01T01:36:51Z</time>
      </trkpt>
      <trkpt lat="40.174430" lon="-6.069620">
        <ele>378.770</ele>
        <time>2019-03-01T01:36:52Z</time>
      </trkpt>
      <trkpt lat="40.174725" lon="-6.069159">
        <ele>379.117</ele>
        <time>2019-03-01T01:37:06Z</time>
      </trkpt>
      <trkpt lat="40.175064" lon="-6.068611">
        <ele>380.808</ele>
        <time>2019-03-01T01:37:22Z</time>
      </trkpt>
      <trkpt lat="40.175298" lon="-6.068200">
        <ele>381.416</ele>
        <time>2019-03-01T01:37:32Z</time>
      </trkpt>
      <trkpt lat="40.175790" lon="-6.067352">
        <ele>381.557</ele>
        <time>2019-03-01T01:37:48Z</time>
      </trkpt>
      <trkpt lat="40.176164" lon="-6.066682">
        <ele>381.328</ele>
        <time>2019-03-01T01:38:00Z</time>
      </trkpt>
      <trkpt lat="40.176191" lon="-6.066630">
        <ele>381.357</ele>
        <time>2019-03-01T01:38:01Z</time>
      </trkpt>
      <trkpt lat="40.176223" lon="-6.066580">
        <ele>381.381</ele>
        <time>2019-03-01T01:38:02Z</time>
      </trkpt>
      <trkpt lat="40.176254" lon="-6.066529">
        <ele>381.294</ele>
        <time>2019-03-01T01:38:03Z</time>
      </trkpt>
      <trkpt lat="40.176283" lon="-6.066475">
        <ele>381.263</ele>
        <time>2019-03-01T01:38:04Z</time>
      </trkpt>
      <trkpt lat="40.176344" lon="-6.066378">
        <ele>381.232</ele>
        <time>2019-03-01T01:38:06Z</time>
      </trkpt>
      <trkpt lat="40.176376" lon="-6.066332">
        <ele>381.125</ele>
        <time>2019-03-01T01:38:07Z</time>
      </trkpt>
      <trkpt lat="40.176406" lon="-6.066282">
        <ele>381.126</ele>
        <time>2019-03-01T01:38:08Z</time>
      </trkpt>
      <trkpt lat="40.176863" lon="-6.065426">
        <ele>380.308</ele>
        <time>2019-03-01T01:38:24Z</time>
      </trkpt>
      <trkpt lat="40.177029" lon="-6.065185">
        <ele>378.808</ele>
        <time>2019-03-01T01:38:34Z</time>
      </trkpt>
      <trkpt lat="40.177049" lon="-6.065158">
        <ele>378.645</ele>
        <time>2019-03-01T01:38:43Z</time>
      </trkpt>
      <trkpt lat="40.177058" lon="-6.065140">
        <ele>378.526</ele>
        <time>2019-03-01T01:39:44Z</time>
      </trkpt>
      <trkpt lat="40.177061" lon="-6.065128">
        <ele>378.457</ele>
        <time>2019-03-01T01:39:48Z</time>
      </trkpt>
      <trkpt lat="40.177089" lon="-6.065048">
        <ele>377.946</ele>
        <time>2019-03-01T01:40:05Z</time>
      </trkpt>
      <trkpt lat="40.177133" lon="-6.064960">
        <ele>377.380</ele>
        <time>2019-03-01T01:40:09Z</time>
      </trkpt>
      <trkpt lat="40.177182" lon="-6.064801">
        <ele>376.843</ele>
        <time>2019-03-01T01:40:20Z</time>
      </trkpt>
      <trkpt lat="40.177283" lon="-6.064655">
        <ele>376.892</ele>
        <time>2019-03-01T01:40:32Z</time>
      </trkpt>
      <trkpt lat="40.177423" lon="-6.064364">
        <ele>378.061</ele>
        <time>2019-03-01T01:40:44Z</time>
      </trkpt>
      <trkpt lat="40.177670" lon="-6.064020">
        <ele>379.821</ele>
        <time>2019-03-01T01:40:58Z</time>
      </trkpt>
      <trkpt lat="40.177675" lon="-6.064007">
        <ele>379.941</ele>
        <time>2019-03-01T01:41:03Z</time>
      </trkpt>
      <trkpt lat="40.177743" lon="-6.063952">
        <ele>380.205</ele>
        <time>2019-03-01T01:41:29Z</time>
      </trkpt>
      <trkpt lat="40.177882" lon="-6.063615">
        <ele>380.808</ele>
        <time>2019-03-01T01:41:39Z</time>
      </trkpt>
      <trkpt lat="40.178142" lon="-6.063077">
        <ele>380.685</ele>
        <time>2019-03-01T01:41:52Z</time>
      </trkpt>
      <trkpt lat="40.178573" lon="-6.062239">
        <ele>380.056</ele>
        <time>2019-03-01T01:42:07Z</time>
      </trkpt>
      <trkpt lat="40.178638" lon="-6.062117">
        <ele>379.817</ele>
        <time>2019-03-01T01:42:09Z</time>
      </trkpt>
      <trkpt lat="40.178852" lon="-6.061784">
        <ele>379.166</ele>
        <time>2019-03-01T01:42:15Z</time>
      </trkpt>
      <trkpt lat="40.178876" lon="-6.061732">
        <ele>379.050</ele>
        <time>2019-03-01T01:42:16Z</time>
      </trkpt>
      <trkpt lat="40.179134" lon="-6.061129">
        <ele>378.313</ele>
        <time>2019-03-01T01:42:31Z</time>
      </trkpt>
      <trkpt lat="40.179485" lon="-6.060437">
        <ele>379.622</ele>
        <time>2019-03-01T01:42:48Z</time>
      </trkpt>
      <trkpt lat="40.179908" lon="-6.059670">
        <ele>379.461</ele>
        <time>2019-03-01T01:43:02Z</time>
      </trkpt>
      <trkpt lat="40.179968" lon="-6.059555">
        <ele>379.214</ele>
        <time>2019-03-01T01:43:04Z</time>
      </trkpt>
      <trkpt lat="40.180252" lon="-6.059097">
        <ele>377.254</ele>
        <time>2019-03-01T01:43:13Z</time>
      </trkpt>
      <trkpt lat="40.180277" lon="-6.059049">
        <ele>377.009</ele>
        <time>2019-03-01T01:43:14Z</time>
      </trkpt>
      <trkpt lat="40.180394" lon="-6.058786">
        <ele>376.008</ele>
        <time>2019-03-01T01:43:19Z</time>
      </trkpt>
      <trkpt lat="40.180423" lon="-6.058733">
        <ele>375.844</ele>
        <time>2019-03-01T01:43:20Z</time>
      </trkpt>
      <trkpt lat="40.180727" lon="-6.058151">
        <ele>372.965</ele>
        <time>2019-03-01T01:43:33Z</time>
      </trkpt>
      <trkpt lat="40.180853" lon="-6.058003">
        <ele>371.746</ele>
        <time>2019-03-01T01:43:40Z</time>
      </trkpt>
      <trkpt lat="40.180866" lon="-6.058001">
        <ele>371.685</ele>
        <time>2019-03-01T01:43:41Z</time>
      </trkpt>
      <trkpt lat="40.180870" lon="-6.058003">
        <ele>371.649</ele>
        <time>2019-03-01T01:43:46Z</time>
      </trkpt>
      <trkpt lat="40.180898" lon="-6.057982">
        <ele>371.462</ele>
        <time>2019-03-01T01:44:02Z</time>
      </trkpt>
      <trkpt lat="40.180916" lon="-6.057967">
        <ele>371.291</ele>
        <time>2019-03-01T01:44:04Z</time>
      </trkpt>
      <trkpt lat="40.180946" lon="-6.057888">
        <ele>370.840</ele>
        <time>2019-03-01T01:44:10Z</time>
      </trkpt>
      <trkpt lat="40.180955" lon="-6.057881">
        <ele>370.778</ele>
        <time>2019-03-01T01:44:11Z</time>
      </trkpt>
      <trkpt lat="40.180987" lon="-6.057837">
        <ele>370.633</ele>
        <time>2019-03-01T01:44:16Z</time>
      </trkpt>
      <trkpt lat="40.180995" lon="-6.057823">
        <ele>370.626</ele>
        <time>2019-03-01T01:44:17Z</time>
      </trkpt>
      <trkpt lat="40.181001" lon="-6.057809">
        <ele>370.608</ele>
        <time>2019-03-01T01:44:18Z</time>
      </trkpt>
      <trkpt lat="40.181004" lon="-6.057795">
        <ele>370.540</ele>
        <time>2019-03-01T01:44:19Z</time>
      </trkpt>
      <trkpt lat="40.181027" lon="-6.057737">
        <ele>370.431</ele>
        <time>2019-03-01T01:44:26Z</time>
      </trkpt>
      <trkpt lat="40.181256" lon="-6.057374">
        <ele>370.012</ele>
        <time>2019-03-01T01:44:38Z</time>
      </trkpt>
      <trkpt lat="40.181588" lon="-6.056852">
        <ele>370.071</ele>
        <time>2019-03-01T01:44:53Z</time>
      </trkpt>
      <trkpt lat="40.181896" lon="-6.056409">
        <ele>370.435</ele>
        <time>2019-03-01T01:45:06Z</time>
      </trkpt>
      <trkpt lat="40.182281" lon="-6.055903">
        <ele>370.998</ele>
        <time>2019-03-01T01:45:22Z</time>
      </trkpt>
      <trkpt lat="40.182490" lon="-6.055546">
        <ele>371.517</ele>
        <time>2019-03-01T01:45:34Z</time>
      </trkpt>
      <trkpt lat="40.182666" lon="-6.055286">
        <ele>372.296</ele>
        <time>2019-03-01T01:45:47Z</time>
      </trkpt>
      <trkpt lat="40.182892" lon="-6.055112">
        <ele>373.764</ele>
        <time>2019-03-01T01:46:01Z</time>
      </trkpt>
      <trkpt lat="40.183041" lon="-6.054870">
        <ele>375.606</ele>
        <time>2019-03-01T01:46:14Z</time>
      </trkpt>
      <trkpt lat="40.183200" lon="-6.054525">
        <ele>377.616</ele>
        <time>2019-03-01T01:46:27Z</time>
      </trkpt>
      <trkpt lat="40.183362" lon="-6.054177">
        <ele>376.808</ele>
        <time>2019-03-01T01:46:37Z</time>
      </trkpt>
      <trkpt lat="40.183705" lon="-6.053447">
        <ele>374.869</ele>
        <time>2019-03-01T01:46:50Z</time>
      </trkpt>
      <trkpt lat="40.183923" lon="-6.052812">
        <ele>373.180</ele>
        <time>2019-03-01T01:46:59Z</time>
      </trkpt>
      <trkpt lat="40.183961" lon="-6.052625">
        <ele>372.871</ele>
        <time>2019-03-01T01:47:02Z</time>
      </trkpt>
      <trkpt lat="40.183982" lon="-6.052572">
        <ele>372.670</ele>
        <time>2019-03-01T01:47:03Z</time>
      </trkpt>
      <trkpt lat="40.184006" lon="-6.052524">
        <ele>372.634</ele>
        <time>2019-03-01T01:47:04Z</time>
      </trkpt>
      <trkpt lat="40.184355" lon="-6.052173">
        <ele>371.937</ele>
        <time>2019-03-01T01:47:15Z</time>
      </trkpt>
      <trkpt lat="40.184542" lon="-6.052014">
        <ele>371.426</ele>
        <time>2019-03-01T01:47:27Z</time>
      </trkpt>
      <trkpt lat="40.184544" lon="-6.052013">
        <ele>371.435</ele>
        <time>2019-03-01T01:47:29Z</time>
      </trkpt>
      <trkpt lat="40.184639" lon="-6.052016">
        <ele>371.426</ele>
        <time>2019-03-01T01:47:56Z</time>
      </trkpt>
      <trkpt lat="40.184659" lon="-6.051983">
        <ele>371.447</ele>
        <time>2019-03-01T01:48:05Z</time>
      </trkpt>
      <trkpt lat="40.184666" lon="-6.051851">
        <ele>371.511</ele>
        <time>2019-03-01T01:48:42Z</time>
      </trkpt>
      <trkpt lat="40.184668" lon="-6.051854">
        <ele>371.508</ele>
        <time>2019-03-01T01:48:46Z</time>
      </trkpt>
      <trkpt lat="40.184687" lon="-6.051786">
        <ele>371.645</ele>
        <time>2019-03-01T01:49:07Z</time>
      </trkpt>
      <trkpt lat="40.184695" lon="-6.051770">
        <ele>371.686</ele>
        <time>2019-03-01T01:49:08Z</time>
      </trkpt>
      <trkpt lat="40.184703" lon="-6.051754">
        <ele>371.797</ele>
        <time>2019-03-01T01:49:09Z</time>
      </trkpt>
      <trkpt lat="40.184713" lon="-6.051734">
        <ele>371.736</ele>
        <time>2019-03-01T01:49:10Z</time>
      </trkpt>
      <trkpt lat="40.184858" lon="-6.051393">
        <ele>372.660</ele>
        <time>2019-03-01T01:49:21Z</time>
      </trkpt>
      <trkpt lat="40.185008" lon="-6.050919">
        <ele>374.113</ele>
        <time>2019-03-01T01:49:34Z</time>
      </trkpt>
      <trkpt lat="40.185228" lon="-6.050515">
        <ele>375.892</ele>
        <time>2019-03-01T01:49:49Z</time>
      </trkpt>
      <trkpt lat="40.185465" lon="-6.050147">
        <ele>377.431</ele>
        <time>2019-03-01T01:50:03Z</time>
      </trkpt>
      <trkpt lat="40.185647" lon="-6.049862">
        <ele>378.415</ele>
        <time>2019-03-01T01:50:15Z</time>
      </trkpt>
      <trkpt lat="40.185796" lon="-6.049535">
        <ele>379.365</ele>
        <time>2019-03-01T01:50:27Z</time>
      </trkpt>
      <trkpt lat="40.185985" lon="-6.049012">
        <ele>380.611</ele>
        <time>2019-03-01T01:50:43Z</time>
      </trkpt>
      <trkpt lat="40.186093" lon="-6.048677">
        <ele>381.308</ele>
        <time>2019-03-01T01:50:53Z</time>
      </trkpt>
      <trkpt lat="40.186237" lon="-6.048188">
        <ele>382.154</ele>
        <time>2019-03-01T01:51:07Z</time>
      </trkpt>
      <trkpt lat="40.186443" lon="-6.047662">
        <ele>383.055</ele>
        <time>2019-03-01T01:51:22Z</time>
      </trkpt>
      <trkpt lat="40.186740" lon="-6.047061">
        <ele>383.756</ele>
        <time>2019-03-01T01:51:40Z</time>
      </trkpt>
      <trkpt lat="40.187013" lon="-6.046535">
        <ele>384.225</ele>
        <time>2019-03-01T01:51:57Z</time>
      </trkpt>
      <trkpt lat="40.187254" lon="-6.046044">
        <ele>384.869</ele>
        <time>2019-03-01T01:52:13Z</time>
      </trkpt>
      <trkpt lat="40.187260" lon="-6.045996">
        <ele>385.052</ele>
        <time>2019-03-01T01:52:19Z</time>
      </trkpt>
      <trkpt lat="40.187277" lon="-6.045859">
        <ele>385.641</ele>
        <time>2019-03-01T01:52:52Z</time>
      </trkpt>
      <trkpt lat="40.187298" lon="-6.045839">
        <ele>385.870</ele>
        <time>2019-03-01T01:52:53Z</time>
      </trkpt>
      <trkpt lat="40.187355" lon="-6.045810">
        <ele>386.049</ele>
        <time>2019-03-01T01:52:55Z</time>
      </trkpt>
      <trkpt lat="40.187387" lon="-6.045798">
        <ele>386.102</ele>
        <time>2019-03-01T01:52:56Z</time>
      </trkpt>
      <trkpt lat="40.187418" lon="-6.045787">
        <ele>386.122</ele>
        <time>2019-03-01T01:52:57Z</time>
      </trkpt>
      <trkpt lat="40.187448" lon="-6.045773">
        <ele>386.108</ele>
        <time>2019-03-01T01:52:58Z</time>
      </trkpt>
      <trkpt lat="40.187834" lon="-6.045429">
        <ele>386.537</ele>
        <time>2019-03-01T01:53:12Z</time>
      </trkpt>
      <trkpt lat="40.188041" lon="-6.045056">
        <ele>386.848</ele>
        <time>2019-03-01T01:53:22Z</time>
      </trkpt>
      <trkpt lat="40.188277" lon="-6.044603">
        <ele>387.179</ele>
        <time>2019-03-01T01:53:35Z</time>
      </trkpt>
      <trkpt lat="40.188596" lon="-6.044004">
        <ele>387.188</ele>
        <time>2019-03-01T01:53:51Z</time>
      </trkpt>
      <trkpt lat="40.188855" lon="-6.043507">
        <ele>387.152</ele>
        <time>2019-03-01T01:54:04Z</time>
      </trkpt>
      <trkpt lat="40.189380" lon="-6.042517">
        <ele>387.025</ele>
        <time>2019-03-01T01:54:22Z</time>
      </trkpt>
      <trkpt lat="40.190021" lon="-6.041317">
        <ele>387.044</ele>
        <time>2019-03-01T01:54:41Z</time>
      </trkpt>
      <trkpt lat="40.190770" lon="-6.039941">
        <ele>387.343</ele>
        <time>2019-03-01T01:55:03Z</time>
      </trkpt>
      <trkpt lat="40.191245" lon="-6.039054">
        <ele>387.784</ele>
        <time>2019-03-01T01:55:19Z</time>
      </trkpt>
      <trkpt lat="40.191847" lon="-6.037941">
        <ele>386.807</ele>
        <time>2019-03-01T01:55:37Z</time>
      </trkpt>
      <trkpt lat="40.192379" lon="-6.036972">
        <ele>383.517</ele>
        <time>2019-03-01T01:55:52Z</time>
      </trkpt>
      <trkpt lat="40.192974" lon="-6.035835">
        <ele>381.108</ele>
        <time>2019-03-01T01:56:07Z</time>
      </trkpt>
      <trkpt lat="40.193638" lon="-6.034548">
        <ele>381.371</ele>
        <time>2019-03-01T01:56:23Z</time>
      </trkpt>
      <trkpt lat="40.194186" lon="-6.033462">
        <ele>382.252</ele>
        <time>2019-03-01T01:56:40Z</time>
      </trkpt>
      <trkpt lat="40.194195" lon="-6.033439">
        <ele>382.273</ele>
        <time>2019-03-01T01:56:47Z</time>
      </trkpt>
      <trkpt lat="40.194246" lon="-6.033354">
        <ele>382.452</ele>
        <time>2019-03-01T01:57:11Z</time>
      </trkpt>
      <trkpt lat="40.194575" lon="-6.032716">
        <ele>384.446</ele>
        <time>2019-03-01T01:57:25Z</time>
      </trkpt>
      <trkpt lat="40.195020" lon="-6.031850">
        <ele>386.489</ele>
        <time>2019-03-01T01:57:45Z</time>
      </trkpt>
      <trkpt lat="40.195018" lon="-6.031853">
        <ele>386.428</ele>
        <time>2019-03-01T01:57:48Z</time>
      </trkpt>
      <trkpt lat="40.195017" lon="-6.031791">
        <ele>386.657</ele>
        <time>2019-03-01T01:57:54Z</time>
      </trkpt>
      <trkpt lat="40.195018" lon="-6.031776">
        <ele>386.668</ele>
        <time>2019-03-01T01:57:55Z</time>
      </trkpt>
      <trkpt lat="40.195019" lon="-6.031760">
        <ele>386.742</ele>
        <time>2019-03-01T01:57:56Z</time>
      </trkpt>
      <trkpt lat="40.195040" lon="-6.031553">
        <ele>387.226</ele>
        <time>2019-03-01T01:58:09Z</time>
      </trkpt>
      <trkpt lat="40.195315" lon="-6.030962">
        <ele>388.808</ele>
        <time>2019-03-01T01:58:26Z</time>
      </trkpt>
      <trkpt lat="40.195531" lon="-6.030516">
        <ele>390.189</ele>
        <time>2019-03-01T01:58:41Z</time>
      </trkpt>
      <trkpt lat="40.195768" lon="-6.030035">
        <ele>390.980</ele>
        <time>2019-03-01T01:58:57Z</time>
      </trkpt>
      <trkpt lat="40.195956" lon="-6.029627">
        <ele>391.481</ele>
        <time>2019-03-01T01:59:11Z</time>
      </trkpt>
      <trkpt lat="40.196170" lon="-6.029263">
        <ele>391.410</ele>
        <time>2019-03-01T01:59:24Z</time>
      </trkpt>
      <trkpt lat="40.196442" lon="-6.028723">
        <ele>390.794</ele>
        <time>2019-03-01T01:59:38Z</time>
      </trkpt>
      <trkpt lat="40.196502" lon="-6.028632">
        <ele>390.577</ele>
        <time>2019-03-01T01:59:40Z</time>
      </trkpt>
      <trkpt lat="40.196528" lon="-6.028582">
        <ele>390.566</ele>
        <time>2019-03-01T01:59:41Z</time>
      </trkpt>
      <trkpt lat="40.196924" lon="-6.027849">
        <ele>390.435</ele>
        <time>2019-03-01T01:59:55Z</time>
      </trkpt>
      <trkpt lat="40.196963" lon="-6.027736">
        <ele>390.472</ele>
        <time>2019-03-01T01:59:57Z</time>
      </trkpt>
      <trkpt lat="40.196972" lon="-6.027679">
        <ele>390.413</ele>
        <time>2019-03-01T01:59:58Z</time>
      </trkpt>
      <trkpt lat="40.196984" lon="-6.027627">
        <ele>390.414</ele>
        <time>2019-03-01T01:59:59Z</time>
      </trkpt>
      <trkpt lat="40.196998" lon="-6.027578">
        <ele>390.408</ele>
        <time>2019-03-01T02:00:00Z</time>
      </trkpt>
      <trkpt lat="40.197008" lon="-6.027533">
        <ele>390.450</ele>
        <time>2019-03-01T02:00:01Z</time>
      </trkpt>
      <trkpt lat="40.197021" lon="-6.027490">
        <ele>390.421</ele>
        <time>2019-03-01T02:00:02Z</time>
      </trkpt>
      <trkpt lat="40.197036" lon="-6.027453">
        <ele>390.412</ele>
        <time>2019-03-01T02:00:03Z</time>
      </trkpt>
      <trkpt lat="40.197052" lon="-6.027422">
        <ele>390.481</ele>
        <time>2019-03-01T02:00:04Z</time>
      </trkpt>
      <trkpt lat="40.197200" lon="-6.027323">
        <ele>390.485</ele>
        <time>2019-03-01T02:00:09Z</time>
      </trkpt>
      <trkpt lat="40.197233" lon="-6.027291">
        <ele>390.478</ele>
        <time>2019-03-01T02:00:10Z</time>
      </trkpt>
      <trkpt lat="40.197625" lon="-6.026642">
        <ele>390.417</ele>
        <time>2019-03-01T02:00:23Z</time>
      </trkpt>
      <trkpt lat="40.197836" lon="-6.026284">
        <ele>390.636</ele>
        <time>2019-03-01T02:00:30Z</time>
      </trkpt>
      <trkpt lat="40.197966" lon="-6.026036">
        <ele>390.639</ele>
        <time>2019-03-01T02:00:35Z</time>
      </trkpt>
      <trkpt lat="40.197988" lon="-6.025988">
        <ele>390.601</ele>
        <time>2019-03-01T02:00:36Z</time>
      </trkpt>
      <trkpt lat="40.198068" lon="-6.025848">
        <ele>390.521</ele>
        <time>2019-03-01T02:00:39Z</time>
      </trkpt>
      <trkpt lat="40.198130" lon="-6.025765">
        <ele>390.508</ele>
        <time>2019-03-01T02:00:41Z</time>
      </trkpt>
      <trkpt lat="40.198162" lon="-6.025726">
        <ele>390.496</ele>
        <time>2019-03-01T02:00:42Z</time>
      </trkpt>
      <trkpt lat="40.198402" lon="-6.025369">
        <ele>390.487</ele>
        <time>2019-03-01T02:00:50Z</time>
      </trkpt>
      <trkpt lat="40.198787" lon="-6.024714">
        <ele>390.028</ele>
        <time>2019-03-01T02:01:04Z</time>
      </trkpt>
      <trkpt lat="40.198810" lon="-6.024663">
        <ele>390.057</ele>
        <time>2019-03-01T02:01:05Z</time>
      </trkpt>
      <trkpt lat="40.198838" lon="-6.024620">
        <ele>389.991</ele>
        <time>2019-03-01T02:01:06Z</time>
      </trkpt>
      <trkpt lat="40.199169" lon="-6.024119">
        <ele>389.114</ele>
        <time>2019-03-01T02:01:17Z</time>
      </trkpt>
      <trkpt lat="40.199524" lon="-6.023456">
        <ele>388.833</ele>
        <time>2019-03-01T02:01:31Z</time>
      </trkpt>
      <trkpt lat="40.199591" lon="-6.023366">
        <ele>388.822</ele>
        <time>2019-03-01T02:01:36Z</time>
      </trkpt>
      <trkpt lat="40.199610" lon="-6.023372">
        <ele>388.813</ele>
        <time>2019-03-01T02:01:37Z</time>
      </trkpt>
      <trkpt lat="40.199633" lon="-6.023387">
        <ele>388.843</ele>
        <time>2019-03-01T02:01:38Z</time>
      </trkpt>
      <trkpt lat="40.199657" lon="-6.023409">
        <ele>388.807</ele>
        <time>2019-03-01T02:01:39Z</time>
      </trkpt>
      <trkpt lat="40.199683" lon="-6.023435">
        <ele>388.708</ele>
        <time>2019-03-01T02:01:40Z</time>
      </trkpt>
      <trkpt lat="40.199740" lon="-6.023459">
        <ele>388.794</ele>
        <time>2019-03-01T02:01:42Z</time>
      </trkpt>
      <trkpt lat="40.199767" lon="-6.023441">
        <ele>388.725</ele>
        <time>2019-03-01T02:01:43Z</time>
      </trkpt>
      <trkpt lat="40.199789" lon="-6.023408">
        <ele>388.786</ele>
        <time>2019-03-01T02:01:44Z</time>
      </trkpt>
      <trkpt lat="40.200211" lon="-6.022694">
        <ele>388.835</ele>
        <time>2019-03-01T02:02:00Z</time>
      </trkpt>
      <trkpt lat="40.200677" lon="-6.021892">
        <ele>389.579</ele>
        <time>2019-03-01T02:02:18Z</time>
      </trkpt>
      <trkpt lat="40.200672" lon="-6.021854">
        <ele>389.652</ele>
        <time>2019-03-01T02:02:19Z</time>
      </trkpt>
      <trkpt lat="40.200655" lon="-6.021827">
        <ele>389.691</ele>
        <time>2019-03-01T02:02:20Z</time>
      </trkpt>
      <trkpt lat="40.200633" lon="-6.021816">
        <ele>389.680</ele>
        <time>2019-03-01T02:02:21Z</time>
      </trkpt>
      <trkpt lat="40.200610" lon="-6.021808">
        <ele>389.625</ele>
        <time>2019-03-01T02:02:22Z</time>
      </trkpt>
      <trkpt lat="40.200588" lon="-6.021794">
        <ele>389.726</ele>
        <time>2019-03-01T02:02:23Z</time>
      </trkpt>
      <trkpt lat="40.200567" lon="-6.021775">
        <ele>389.708</ele>
        <time>2019-03-01T02:02:24Z</time>
      </trkpt>
      <trkpt lat="40.200554" lon="-6.021749">
        <ele>389.708</ele>
        <time>2019-03-01T02:02:25Z</time>
      </trkpt>
      <trkpt lat="40.200555" lon="-6.021717">
        <ele>389.765</ele>
        <time>2019-03-01T02:02:26Z</time>
      </trkpt>
      <trkpt lat="40.200565" lon="-6.021685">
        <ele>389.836</ele>
        <time>2019-03-01T02:02:27Z</time>
      </trkpt>
      <trkpt lat="40.200577" lon="-6.021652">
        <ele>389.887</ele>
        <time>2019-03-01T02:02:28Z</time>
      </trkpt>
      <trkpt lat="40.200827" lon="-6.021188">
        <ele>390.096</ele>
        <time>2019-03-01T02:02:41Z</time>
      </trkpt>
      <trkpt lat="40.201157" lon="-6.020415">
        <ele>390.070</ele>
        <time>2019-03-01T02:02:59Z</time>
      </trkpt>
      <trkpt lat="40.201327" lon="-6.019789">
        <ele>389.873</ele>
        <time>2019-03-01T02:03:12Z</time>
      </trkpt>
      <trkpt lat="40.201387" lon="-6.019584">
        <ele>389.792</ele>
        <time>2019-03-01T02:03:16Z</time>
      </trkpt>
      <trkpt lat="40.201401" lon="-6.019536">
        <ele>389.751</ele>
        <time>2019-03-01T02:03:17Z</time>
      </trkpt>
      <trkpt lat="40.201421" lon="-6.019491">
        <ele>389.788</ele>
        <time>2019-03-01T02:03:18Z</time>
      </trkpt>
      <trkpt lat="40.201441" lon="-6.019444">
        <ele>389.724</ele>
        <time>2019-03-01T02:03:19Z</time>
      </trkpt>
      <trkpt lat="40.201459" lon="-6.019394">
        <ele>389.726</ele>
        <time>2019-03-01T02:03:20Z</time>
      </trkpt>
      <trkpt lat="40.201476" lon="-6.019343">
        <ele>389.608</ele>
        <time>2019-03-01T02:03:21Z</time>
      </trkpt>
      <trkpt lat="40.201597" lon="-6.018977">
        <ele>389.661</ele>
        <time>2019-03-01T02:03:28Z</time>
      </trkpt>
      <trkpt lat="40.201610" lon="-6.018925">
        <ele>389.652</ele>
        <time>2019-03-01T02:03:29Z</time>
      </trkpt>
      <trkpt lat="40.201629" lon="-6.018881">
        <ele>389.513</ele>
        <time>2019-03-01T02:03:30Z</time>
      </trkpt>
      <trkpt lat="40.201649" lon="-6.018839">
        <ele>389.572</ele>
        <time>2019-03-01T02:03:31Z</time>
      </trkpt>
      <trkpt lat="40.201667" lon="-6.018796">
        <ele>389.586</ele>
        <time>2019-03-01T02:03:32Z</time>
      </trkpt>
      <trkpt lat="40.201754" lon="-6.018503">
        <ele>389.379</ele>
        <time>2019-03-01T02:03:38Z</time>
      </trkpt>
      <trkpt lat="40.201975" lon="-6.018071">
        <ele>390.698</ele>
        <time>2019-03-01T02:03:50Z</time>
      </trkpt>
      <trkpt lat="40.201992" lon="-6.018017">
        <ele>390.627</ele>
        <time>2019-03-01T02:03:51Z</time>
      </trkpt>
      <trkpt lat="40.202026" lon="-6.017914">
        <ele>390.459</ele>
        <time>2019-03-01T02:03:53Z</time>
      </trkpt>
      <trkpt lat="40.202049" lon="-6.017866">
        <ele>390.303</ele>
        <time>2019-03-01T02:03:54Z</time>
      </trkpt>
      <trkpt lat="40.202136" lon="-6.017688">
        <ele>390.123</ele>
        <time>2019-03-01T02:03:58Z</time>
      </trkpt>
      <trkpt lat="40.202435" lon="-6.017107">
        <ele>389.808</ele>
        <time>2019-03-01T02:04:11Z</time>
      </trkpt>
      <trkpt lat="40.202705" lon="-6.016614">
        <ele>390.088</ele>
        <time>2019-03-01T02:04:25Z</time>
      </trkpt>
      <trkpt lat="40.202892" lon="-6.016222">
        <ele>390.099</ele>
        <time>2019-03-01T02:04:35Z</time>
      </trkpt>
      <trkpt lat="40.203362" lon="-6.015374">
        <ele>390.250</ele>
        <time>2019-03-01T02:04:55Z</time>
      </trkpt>
      <trkpt lat="40.203643" lon="-6.014795">
        <ele>390.799</ele>
        <time>2019-03-01T02:05:10Z</time>
      </trkpt>
      <trkpt lat="40.203846" lon="-6.014341">
        <ele>391.093</ele>
        <time>2019-03-01T02:05:23Z</time>
      </trkpt>
      <trkpt lat="40.203997" lon="-6.014046">
        <ele>391.396</ele>
        <time>2019-03-01T02:05:34Z</time>
      </trkpt>
      <trkpt lat="40.203998" lon="-6.014045">
        <ele>391.335</ele>
        <time>2019-03-01T02:05:36Z</time>
      </trkpt>
      <trkpt lat="40.204153" lon="-6.013835">
        <ele>391.334</ele>
        <time>2019-03-01T02:06:40Z</time>
      </trkpt>
      <trkpt lat="40.204303" lon="-6.013481">
        <ele>391.235</ele>
        <time>2019-03-01T02:06:50Z</time>
      </trkpt>
      <trkpt lat="40.204516" lon="-6.013020">
        <ele>390.786</ele>
        <time>2019-03-01T02:07:03Z</time>
      </trkpt>
      <trkpt lat="40.204696" lon="-6.012666">
        <ele>390.814</ele>
        <time>2019-03-01T02:07:13Z</time>
      </trkpt>
      <trkpt lat="40.205009" lon="-6.012104">
        <ele>390.508</ele>
        <time>2019-03-01T02:07:26Z</time>
      </trkpt>
      <trkpt lat="40.205315" lon="-6.011491">
        <ele>390.116</ele>
        <time>2019-03-01T02:07:40Z</time>
      </trkpt>
      <trkpt lat="40.205391" lon="-6.011336">
        <ele>390.117</ele>
        <time>2019-03-01T02:07:44Z</time>
      </trkpt>
      <trkpt lat="40.205412" lon="-6.011301">
        <ele>390.138</ele>
        <time>2019-03-01T02:07:45Z</time>
      </trkpt>
      <trkpt lat="40.205427" lon="-6.011263">
        <ele>390.127</ele>
        <time>2019-03-01T02:07:46Z</time>
      </trkpt>
      <trkpt lat="40.205445" lon="-6.011226">
        <ele>390.171</ele>
        <time>2019-03-01T02:07:47Z</time>
      </trkpt>
      <trkpt lat="40.205464" lon="-6.011190">
        <ele>390.194</ele>
        <time>2019-03-01T02:07:48Z</time>
      </trkpt>
      <trkpt lat="40.205479" lon="-6.011155">
        <ele>390.133</ele>
        <time>2019-03-01T02:07:49Z</time>
      </trkpt>
      <trkpt lat="40.205491" lon="-6.011122">
        <ele>390.162</ele>
        <time>2019-03-01T02:07:50Z</time>
      </trkpt>
      <trkpt lat="40.205498" lon="-6.011096">
        <ele>390.138</ele>
        <time>2019-03-01T02:07:51Z</time>
      </trkpt>
      <trkpt lat="40.205658" lon="-6.010814">
        <ele>389.970</ele>
        <time>2019-03-01T02:08:01Z</time>
      </trkpt>
      <trkpt lat="40.205863" lon="-6.010413">
        <ele>390.017</ele>
        <time>2019-03-01T02:08:12Z</time>
      </trkpt>
      <trkpt lat="40.206111" lon="-6.009892">
        <ele>390.308</ele>
        <time>2019-03-01T02:08:25Z</time>
      </trkpt>
      <trkpt lat="40.206342" lon="-6.009532">
        <ele>390.576</ele>
        <time>2019-03-01T02:08:36Z</time>
      </trkpt>
      <trkpt lat="40.206583" lon="-6.009071">
        <ele>390.637</ele>
        <time>2019-03-01T02:08:49Z</time>
      </trkpt>
      <trkpt lat="40.206809" lon="-6.008616">
        <ele>390.648</ele>
        <time>2019-03-01T02:09:02Z</time>
      </trkpt>
      <trkpt lat="40.206919" lon="-6.008379">
        <ele>390.867</ele>
        <time>2019-03-01T02:09:12Z</time>
      </trkpt>
      <trkpt lat="40.206940" lon="-6.008336">
        <ele>390.851</ele>
        <time>2019-03-01T02:09:19Z</time>
      </trkpt>
      <trkpt lat="40.207018" lon="-6.008391">
        <ele>390.624</ele>
        <time>2019-03-01T02:09:24Z</time>
      </trkpt>
      <trkpt lat="40.207175" lon="-6.008490">
        <ele>389.873</ele>
        <time>2019-03-01T02:09:29Z</time>
      </trkpt>
      <trkpt lat="40.207198" lon="-6.008462">
        <ele>389.892</ele>
        <time>2019-03-01T02:09:30Z</time>
      </trkpt>
      <trkpt lat="40.207214" lon="-6.008420">
        <ele>389.816</ele>
        <time>2019-03-01T02:09:31Z</time>
      </trkpt>
      <trkpt lat="40.207232" lon="-6.008378">
        <ele>389.876</ele>
        <time>2019-03-01T02:09:32Z</time>
      </trkpt>
      <trkpt lat="40.207253" lon="-6.008335">
        <ele>389.813</ele>
        <time>2019-03-01T02:09:33Z</time>
      </trkpt>
      <trkpt lat="40.207636" lon="-6.007582">
        <ele>389.908</ele>
        <time>2019-03-01T02:09:48Z</time>
      </trkpt>
      <trkpt lat="40.208196" lon="-6.006526">
        <ele>388.264</ele>
        <time>2019-03-01T02:10:06Z</time>
      </trkpt>
      <trkpt lat="40.208392" lon="-6.006134">
        <ele>389.075</ele>
        <time>2019-03-01T02:10:13Z</time>
      </trkpt>
      <trkpt lat="40.208409" lon="-6.006070">
        <ele>389.146</ele>
        <time>2019-03-01T02:10:14Z</time>
      </trkpt>
      <trkpt lat="40.208421" lon="-6.006002">
        <ele>389.225</ele>
        <time>2019-03-01T02:10:15Z</time>
      </trkpt>
      <trkpt lat="40.208429" lon="-6.005936">
        <ele>389.259</ele>
        <time>2019-03-01T02:10:16Z</time>
      </trkpt>
      <trkpt lat="40.208434" lon="-6.005870">
        <ele>389.212</ele>
        <time>2019-03-01T02:10:17Z</time>
      </trkpt>
      <trkpt lat="40.208440" lon="-6.005805">
        <ele>389.351</ele>
        <time>2019-03-01T02:10:18Z</time>
      </trkpt>
      <trkpt lat="40.208523" lon="-6.004789">
        <ele>389.630</ele>
        <time>2019-03-01T02:10:35Z</time>
      </trkpt>
      <trkpt lat="40.208610" lon="-6.004313">
        <ele>389.822</ele>
        <time>2019-03-01T02:10:43Z</time>
      </trkpt>
      <trkpt lat="40.209117" lon="-6.003403">
        <ele>389.462</ele>
        <time>2019-03-01T02:10:58Z</time>
      </trkpt>
      <trkpt lat="40.209523" lon="-6.002735">
        <ele>388.708</ele>
        <time>2019-03-01T02:11:10Z</time>
      </trkpt>
      <trkpt lat="40.209904" lon="-6.001927">
        <ele>388.208</ele>
        <time>2019-03-01T02:11:24Z</time>
      </trkpt>
      <trkpt lat="40.210240" lon="-6.001130">
        <ele>388.235</ele>
        <time>2019-03-01T02:11:39Z</time>
      </trkpt>
      <trkpt lat="40.210789" lon="-6.000190">
        <ele>389.296</ele>
        <time>2019-03-01T02:12:00Z</time>
      </trkpt>
      <trkpt lat="40.210918" lon="-5.999754">
        <ele>389.637</ele>
        <time>2019-03-01T02:12:12Z</time>
      </trkpt>
      <trkpt lat="40.210936" lon="-5.999718">
        <ele>389.676</ele>
        <time>2019-03-01T02:12:13Z</time>
      </trkpt>
      <trkpt lat="40.210961" lon="-5.999695">
        <ele>389.760</ele>
        <time>2019-03-01T02:12:14Z</time>
      </trkpt>
      <trkpt lat="40.210988" lon="-5.999684">
        <ele>389.763</ele>
        <time>2019-03-01T02:12:15Z</time>
      </trkpt>
      <trkpt lat="40.211119" lon="-5.999632">
        <ele>391.292</ele>
        <time>2019-03-01T02:12:19Z</time>
      </trkpt>
      <trkpt lat="40.211151" lon="-5.999597">
        <ele>391.341</ele>
        <time>2019-03-01T02:12:20Z</time>
      </trkpt>
      <trkpt lat="40.211182" lon="-5.999556">
        <ele>391.317</ele>
        <time>2019-03-01T02:12:21Z</time>
      </trkpt>
      <trkpt lat="40.211210" lon="-5.999511">
        <ele>391.387</ele>
        <time>2019-03-01T02:12:22Z</time>
      </trkpt>
      <trkpt lat="40.211237" lon="-5.999466">
        <ele>391.415</ele>
        <time>2019-03-01T02:12:23Z</time>
      </trkpt>
      <trkpt lat="40.211311" lon="-5.999324">
        <ele>391.308</ele>
        <time>2019-03-01T02:12:26Z</time>
      </trkpt>
      <trkpt lat="40.211876" lon="-5.998236">
        <ele>391.784</ele>
        <time>2019-03-01T02:12:48Z</time>
      </trkpt>
      <trkpt lat="40.212334" lon="-5.997318">
        <ele>392.175</ele>
        <time>2019-03-01T02:13:06Z</time>
      </trkpt>
      <trkpt lat="40.212906" lon="-5.996200">
        <ele>392.876</ele>
        <time>2019-03-01T02:13:26Z</time>
      </trkpt>
      <trkpt lat="40.212934" lon="-5.996146">
        <ele>392.815</ele>
        <time>2019-03-01T02:13:27Z</time>
      </trkpt>
      <trkpt lat="40.212957" lon="-5.996090">
        <ele>392.879</ele>
        <time>2019-03-01T02:13:28Z</time>
      </trkpt>
      <trkpt lat="40.213406" lon="-5.995157">
        <ele>392.462</ele>
        <time>2019-03-01T02:13:45Z</time>
      </trkpt>
      <trkpt lat="40.214070" lon="-5.994096">
        <ele>392.721</ele>
        <time>2019-03-01T02:14:06Z</time>
      </trkpt>
      <trkpt lat="40.214812" lon="-5.992965">
        <ele>392.630</ele>
        <time>2019-03-01T02:14:26Z</time>
      </trkpt>
      <trkpt lat="40.215536" lon="-5.991856">
        <ele>393.269</ele>
        <time>2019-03-01T02:14:46Z</time>
      </trkpt>
      <trkpt lat="40.216264" lon="-5.990764">
        <ele>394.004</ele>
        <time>2019-03-01T02:15:08Z</time>
      </trkpt>
      <trkpt lat="40.217011" lon="-5.989688">
        <ele>395.524</ele>
        <time>2019-03-01T02:15:31Z</time>
      </trkpt>
      <trkpt lat="40.217576" lon="-5.988864">
        <ele>396.308</ele>
        <time>2019-03-01T02:15:50Z</time>
      </trkpt>
      <trkpt lat="40.218049" lon="-5.988163">
        <ele>397.879</ele>
        <time>2019-03-01T02:16:10Z</time>
      </trkpt>
      <trkpt lat="40.218565" lon="-5.987414">
        <ele>400.140</ele>
        <time>2019-03-01T02:16:32Z</time>
      </trkpt>
      <trkpt lat="40.218940" lon="-5.986960">
        <ele>401.461</ele>
        <time>2019-03-01T02:16:47Z</time>
      </trkpt>
      <trkpt lat="40.219263" lon="-5.986600">
        <ele>402.440</ele>
        <time>2019-03-01T02:17:00Z</time>
      </trkpt>
      <trkpt lat="40.219839" lon="-5.985914">
        <ele>402.964</ele>
        <time>2019-03-01T02:17:18Z</time>
      </trkpt>
      <trkpt lat="40.220496" lon="-5.984939">
        <ele>402.977</ele>
        <time>2019-03-01T02:17:36Z</time>
      </trkpt>
      <trkpt lat="40.220687" lon="-5.984679">
        <ele>402.666</ele>
        <time>2019-03-01T02:17:41Z</time>
      </trkpt>
      <trkpt lat="40.220736" lon="-5.984643">
        <ele>402.565</ele>
        <time>2019-03-01T02:17:42Z</time>
      </trkpt>
      <trkpt lat="40.220789" lon="-5.984614">
        <ele>402.492</ele>
        <time>2019-03-01T02:17:43Z</time>
      </trkpt>
      <trkpt lat="40.221324" lon="-5.984276">
        <ele>401.773</ele>
        <time>2019-03-01T02:17:53Z</time>
      </trkpt>
      <trkpt lat="40.221306" lon="-5.984360">
        <ele>401.720</ele>
        <time>2019-03-01T02:17:58Z</time>
      </trkpt>
      <trkpt lat="40.221277" lon="-5.984373">
        <ele>401.708</ele>
        <time>2019-03-01T02:17:59Z</time>
      </trkpt>
      <trkpt lat="40.221251" lon="-5.984392">
        <ele>401.742</ele>
        <time>2019-03-01T02:18:00Z</time>
      </trkpt>
      <trkpt lat="40.221228" lon="-5.984413">
        <ele>401.883</ele>
        <time>2019-03-01T02:18:01Z</time>
      </trkpt>
      <trkpt lat="40.220810" lon="-5.984676">
        <ele>402.224</ele>
        <time>2019-03-01T02:18:14Z</time>
      </trkpt>
      <trkpt lat="40.220704" lon="-5.984735">
        <ele>402.433</ele>
        <time>2019-03-01T02:18:17Z</time>
      </trkpt>
      <trkpt lat="40.220667" lon="-5.984765">
        <ele>402.557</ele>
        <time>2019-03-01T02:18:18Z</time>
      </trkpt>
      <trkpt lat="40.220636" lon="-5.984804">
        <ele>402.530</ele>
        <time>2019-03-01T02:18:19Z</time>
      </trkpt>
      <trkpt lat="40.220283" lon="-5.985400">
        <ele>403.169</ele>
        <time>2019-03-01T02:18:34Z</time>
      </trkpt>
      <trkpt lat="40.220277" lon="-5.985414">
        <ele>403.118</ele>
        <time>2019-03-01T02:18:39Z</time>
      </trkpt>
      <trkpt lat="40.220274" lon="-5.985345">
        <ele>403.182</ele>
        <time>2019-03-01T02:18:45Z</time>
      </trkpt>
      <trkpt lat="40.220389" lon="-5.985125">
        <ele>403.043</ele>
        <time>2019-03-01T02:18:51Z</time>
      </trkpt>
      <trkpt lat="40.220819" lon="-5.984631">
        <ele>402.217</ele>
        <time>2019-03-01T02:19:05Z</time>
      </trkpt>
      <trkpt lat="40.220870" lon="-5.984651">
        <ele>402.108</ele>
        <time>2019-03-01T02:19:11Z</time>
      </trkpt>
      <trkpt lat="40.220925" lon="-5.984611">
        <ele>402.141</ele>
        <time>2019-03-01T02:19:23Z</time>
      </trkpt>
      <trkpt lat="40.220946" lon="-5.984587">
        <ele>402.162</ele>
        <time>2019-03-01T02:19:24Z</time>
      </trkpt>
      <trkpt lat="40.220973" lon="-5.984561">
        <ele>402.033</ele>
        <time>2019-03-01T02:19:25Z</time>
      </trkpt>
      <trkpt lat="40.221488" lon="-5.984158">
        <ele>401.472</ele>
        <time>2019-03-01T02:19:37Z</time>
      </trkpt>
      <trkpt lat="40.222148" lon="-5.983517">
        <ele>401.576</ele>
        <time>2019-03-01T02:19:55Z</time>
      </trkpt>
      <trkpt lat="40.222574" lon="-5.982935">
        <ele>402.629</ele>
        <time>2019-03-01T02:20:09Z</time>
      </trkpt>
      <trkpt lat="40.222619" lon="-5.982289">
        <ele>403.558</ele>
        <time>2019-03-01T02:20:23Z</time>
      </trkpt>
      <trkpt lat="40.222336" lon="-5.981876">
        <ele>404.047</ele>
        <time>2019-03-01T02:20:36Z</time>
      </trkpt>
      <trkpt lat="40.222288" lon="-5.981830">
        <ele>404.279</ele>
        <time>2019-03-01T02:20:39Z</time>
      </trkpt>
      <trkpt lat="40.222281" lon="-5.981805">
        <ele>404.305</ele>
        <time>2019-03-01T02:20:40Z</time>
      </trkpt>
      <trkpt lat="40.222280" lon="-5.981779">
        <ele>404.325</ele>
        <time>2019-03-01T02:20:41Z</time>
      </trkpt>
      <trkpt lat="40.222286" lon="-5.981756">
        <ele>404.308</ele>
        <time>2019-03-01T02:20:42Z</time>
      </trkpt>
      <trkpt lat="40.222296" lon="-5.981736">
        <ele>404.340</ele>
        <time>2019-03-01T02:20:43Z</time>
      </trkpt>
      <trkpt lat="40.222307" lon="-5.981716">
        <ele>404.451</ele>
        <time>2019-03-01T02:20:44Z</time>
      </trkpt>
      <trkpt lat="40.222523" lon="-5.981560">
        <ele>404.212</ele>
        <time>2019-03-01T02:20:58Z</time>
      </trkpt>
      <trkpt lat="40.222541" lon="-5.981559">
        <ele>404.131</ele>
        <time>2019-03-01T02:20:59Z</time>
      </trkpt>
      <trkpt lat="40.222556" lon="-5.981544">
        <ele>404.135</ele>
        <time>2019-03-01T02:21:05Z</time>
      </trkpt>
      <trkpt lat="40.222429" lon="-5.981619">
        <ele>404.338</ele>
        <time>2019-03-01T02:21:56Z</time>
      </trkpt>
      <trkpt lat="40.222420" lon="-5.981627">
        <ele>404.337</ele>
        <time>2019-03-01T02:22:00Z</time>
      </trkpt>
      <trkpt lat="40.222375" lon="-5.981674">
        <ele>404.486</ele>
        <time>2019-03-01T02:22:05Z</time>
      </trkpt>
      <trkpt lat="40.222058" lon="-5.981812">
        <ele>404.288</ele>
        <time>2019-03-01T02:22:17Z</time>
      </trkpt>
      <trkpt lat="40.221497" lon="-5.981999">
        <ele>405.324</ele>
        <time>2019-03-01T02:22:33Z</time>
      </trkpt>
      <trkpt lat="40.221002" lon="-5.982214">
        <ele>406.326</ele>
        <time>2019-03-01T02:22:48Z</time>
      </trkpt>
      <trkpt lat="40.220639" lon="-5.982124">
        <ele>407.508</ele>
        <time>2019-03-01T02:23:02Z</time>
      </trkpt>
      <trkpt lat="40.220640" lon="-5.982093">
        <ele>407.731</ele>
        <time>2019-03-01T02:23:03Z</time>
      </trkpt>
      <trkpt lat="40.220648" lon="-5.982062">
        <ele>407.892</ele>
        <time>2019-03-01T02:23:04Z</time>
      </trkpt>
      <trkpt lat="40.220695" lon="-5.981949">
        <ele>407.683</ele>
        <time>2019-03-01T02:23:11Z</time>
      </trkpt>
      <trkpt lat="40.220713" lon="-5.981947">
        <ele>407.662</ele>
        <time>2019-03-01T02:23:12Z</time>
      </trkpt>
      <trkpt lat="40.220734" lon="-5.981939">
        <ele>407.546</ele>
        <time>2019-03-01T02:23:13Z</time>
      </trkpt>
      <trkpt lat="40.220759" lon="-5.981926">
        <ele>407.599</ele>
        <time>2019-03-01T02:23:14Z</time>
      </trkpt>
      <trkpt lat="40.220787" lon="-5.981911">
        <ele>407.498</ele>
        <time>2019-03-01T02:23:15Z</time>
      </trkpt>
      <trkpt lat="40.221363" lon="-5.981628">
        <ele>406.027</ele>
        <time>2019-03-01T02:23:32Z</time>
      </trkpt>
      <trkpt lat="40.222014" lon="-5.981379">
        <ele>406.795</ele>
        <time>2019-03-01T02:23:48Z</time>
      </trkpt>
      <trkpt lat="40.222818" lon="-5.981139">
        <ele>406.749</ele>
        <time>2019-03-01T02:24:06Z</time>
      </trkpt>
      <trkpt lat="40.223578" lon="-5.980932">
        <ele>404.323</ele>
        <time>2019-03-01T02:24:21Z</time>
      </trkpt>
      <trkpt lat="40.223970" lon="-5.980873">
        <ele>405.408</ele>
        <time>2019-03-01T02:24:31Z</time>
      </trkpt>
      <trkpt lat="40.224230" lon="-5.980910">
        <ele>406.262</ele>
        <time>2019-03-01T02:24:39Z</time>
      </trkpt>
      <trkpt lat="40.225123" lon="-5.980470">
        <ele>408.073</ele>
        <time>2019-03-01T02:24:49Z</time>
      </trkpt>
      <trkpt lat="40.226098" lon="-5.980020">
        <ele>409.824</ele>
        <time>2019-03-01T02:25:06Z</time>
      </trkpt>
      <trkpt lat="40.227300" lon="-5.979300">
        <ele>409.623</ele>
        <time>2019-03-01T02:25:29Z</time>
      </trkpt>
      <trkpt lat="40.227622" lon="-5.979085">
        <ele>410.447</ele>
        <time>2019-03-01T02:25:36Z</time>
      </trkpt>
      <trkpt lat="40.227654" lon="-5.979045">
        <ele>410.750</ele>
        <time>2019-03-01T02:25:37Z</time>
      </trkpt>
      <trkpt lat="40.227678" lon="-5.978996">
        <ele>411.079</ele>
        <time>2019-03-01T02:25:38Z</time>
      </trkpt>
      <trkpt lat="40.227702" lon="-5.978945">
        <ele>411.128</ele>
        <time>2019-03-01T02:25:39Z</time>
      </trkpt>
      <trkpt lat="40.227734" lon="-5.978905">
        <ele>411.115</ele>
        <time>2019-03-01T02:25:40Z</time>
      </trkpt>
      <trkpt lat="40.227772" lon="-5.978878">
        <ele>411.265</ele>
        <time>2019-03-01T02:25:41Z</time>
      </trkpt>
      <trkpt lat="40.227810" lon="-5.978855">
        <ele>411.311</ele>
        <time>2019-03-01T02:25:42Z</time>
      </trkpt>
      <trkpt lat="40.227846" lon="-5.978827">
        <ele>411.408</ele>
        <time>2019-03-01T02:25:43Z</time>
      </trkpt>
      <trkpt lat="40.228350" lon="-5.978480">
        <ele>413.444</ele>
        <time>2019-03-01T02:25:57Z</time>
      </trkpt>
      <trkpt lat="40.228879" lon="-5.978115">
        <ele>415.175</ele>
        <time>2019-03-01T02:26:14Z</time>
      </trkpt>
      <trkpt lat="40.229312" lon="-5.977831">
        <ele>416.926</ele>
        <time>2019-03-01T02:26:30Z</time>
      </trkpt>
      <trkpt lat="40.229676" lon="-5.977575">
        <ele>419.265</ele>
        <time>2019-03-01T02:26:44Z</time>
      </trkpt>
      <trkpt lat="40.229679" lon="-5.977545">
        <ele>419.449</ele>
        <time>2019-03-01T02:26:45Z</time>
      </trkpt>
      <trkpt lat="40.229676" lon="-5.977515">
        <ele>419.652</ele>
        <time>2019-03-01T02:26:46Z</time>
      </trkpt>
      <trkpt lat="40.229669" lon="-5.977488">
        <ele>419.621</ele>
        <time>2019-03-01T02:26:47Z</time>
      </trkpt>
      <trkpt lat="40.229659" lon="-5.977459">
        <ele>419.630</ele>
        <time>2019-03-01T02:26:48Z</time>
      </trkpt>
      <trkpt lat="40.229451" lon="-5.976956">
        <ele>418.897</ele>
        <time>2019-03-01T02:26:59Z</time>
      </trkpt>
      <trkpt lat="40.229318" lon="-5.976614">
        <ele>417.123</ele>
        <time>2019-03-01T02:27:05Z</time>
      </trkpt>
      <trkpt lat="40.229283" lon="-5.976570">
        <ele>416.825</ele>
        <time>2019-03-01T02:27:06Z</time>
      </trkpt>
      <trkpt lat="40.229257" lon="-5.976529">
        <ele>416.608</ele>
        <time>2019-03-01T02:27:07Z</time>
      </trkpt>
      <trkpt lat="40.229246" lon="-5.976480">
        <ele>416.442</ele>
        <time>2019-03-01T02:27:08Z</time>
      </trkpt>
      <trkpt lat="40.229240" lon="-5.976433">
        <ele>416.273</ele>
        <time>2019-03-01T02:27:09Z</time>
      </trkpt>
      <trkpt lat="40.229244" lon="-5.976391">
        <ele>416.064</ele>
        <time>2019-03-01T02:27:10Z</time>
      </trkpt>
      <trkpt lat="40.229252" lon="-5.976356">
        <ele>416.183</ele>
        <time>2019-03-01T02:27:11Z</time>
      </trkpt>
      <trkpt lat="40.229263" lon="-5.976328">
        <ele>416.247</ele>
        <time>2019-03-01T02:27:12Z</time>
      </trkpt>
      <trkpt lat="40.229275" lon="-5.976306">
        <ele>416.450</ele>
        <time>2019-03-01T02:27:13Z</time>
      </trkpt>
      <trkpt lat="40.229290" lon="-5.976287">
        <ele>416.569</ele>
        <time>2019-03-01T02:27:14Z</time>
      </trkpt>
      <trkpt lat="40.229307" lon="-5.976271">
        <ele>416.628</ele>
        <time>2019-03-01T02:27:15Z</time>
      </trkpt>
      <trkpt lat="40.229326" lon="-5.976260">
        <ele>416.832</ele>
        <time>2019-03-01T02:27:16Z</time>
      </trkpt>
      <trkpt lat="40.229343" lon="-5.976249">
        <ele>416.992</ele>
        <time>2019-03-01T02:27:17Z</time>
      </trkpt>
      <trkpt lat="40.229359" lon="-5.976237">
        <ele>417.011</ele>
        <time>2019-03-01T02:27:18Z</time>
      </trkpt>
      <trkpt lat="40.229375" lon="-5.976226">
        <ele>417.108</ele>
        <time>2019-03-01T02:27:19Z</time>
      </trkpt>
      <trkpt lat="40.229653" lon="-5.976157">
        <ele>418.826</ele>
        <time>2019-03-01T02:27:34Z</time>
      </trkpt>
      <trkpt lat="40.229954" lon="-5.976038">
        <ele>420.497</ele>
        <time>2019-03-01T02:27:51Z</time>
      </trkpt>
      <trkpt lat="40.230180" lon="-5.975885">
        <ele>421.418</ele>
        <time>2019-03-01T02:28:05Z</time>
      </trkpt>
      <trkpt lat="40.230493" lon="-5.975646">
        <ele>422.517</ele>
        <time>2019-03-01T02:28:23Z</time>
      </trkpt>
      <trkpt lat="40.230834" lon="-5.975404">
        <ele>424.321</ele>
        <time>2019-03-01T02:28:38Z</time>
      </trkpt>
      <trkpt lat="40.231375" lon="-5.975035">
        <ele>426.684</ele>
        <time>2019-03-01T02:29:01Z</time>
      </trkpt>
      <trkpt lat="40.231736" lon="-5.974798">
        <ele>426.743</ele>
        <time>2019-03-01T02:29:15Z</time>
      </trkpt>
      <trkpt lat="40.232021" lon="-5.974614">
        <ele>426.652</ele>
        <time>2019-03-01T02:29:28Z</time>
      </trkpt>
      <trkpt lat="40.232218" lon="-5.974492">
        <ele>426.695</ele>
        <time>2019-03-01T02:29:35Z</time>
      </trkpt>
      <trkpt lat="40.232675" lon="-5.974225">
        <ele>426.649</ele>
        <time>2019-03-01T02:29:49Z</time>
      </trkpt>
      <trkpt lat="40.232734" lon="-5.974162">
        <ele>426.623</ele>
        <time>2019-03-01T02:29:52Z</time>
      </trkpt>
      <trkpt lat="40.232740" lon="-5.974136">
        <ele>426.708</ele>
        <time>2019-03-01T02:29:53Z</time>
      </trkpt>
      <trkpt lat="40.232743" lon="-5.974110">
        <ele>426.762</ele>
        <time>2019-03-01T02:29:54Z</time>
      </trkpt>
      <trkpt lat="40.232741" lon="-5.974087">
        <ele>426.713</ele>
        <time>2019-03-01T02:29:55Z</time>
      </trkpt>
      <trkpt lat="40.232732" lon="-5.974062">
        <ele>426.854</ele>
        <time>2019-03-01T02:29:56Z</time>
      </trkpt>
      <trkpt lat="40.232719" lon="-5.974035">
        <ele>426.883</ele>
        <time>2019-03-01T02:29:57Z</time>
      </trkpt>
      <trkpt lat="40.232703" lon="-5.974007">
        <ele>426.947</ele>
        <time>2019-03-01T02:29:58Z</time>
      </trkpt>
      <trkpt lat="40.232512" lon="-5.973542">
        <ele>427.920</ele>
        <time>2019-03-01T02:30:12Z</time>
      </trkpt>
      <trkpt lat="40.232177" lon="-5.973005">
        <ele>429.329</ele>
        <time>2019-03-01T02:30:30Z</time>
      </trkpt>
      <trkpt lat="40.231840" lon="-5.972713">
        <ele>431.518</ele>
        <time>2019-03-01T02:30:44Z</time>
      </trkpt>
      <trkpt lat="40.231568" lon="-5.972338">
        <ele>434.017</ele>
        <time>2019-03-01T02:30:57Z</time>
      </trkpt>
      <trkpt lat="40.231306" lon="-5.972139">
        <ele>434.187</ele>
        <time>2019-03-01T02:31:07Z</time>
      </trkpt>
      <trkpt lat="40.231097" lon="-5.972205">
        <ele>434.015</ele>
        <time>2019-03-01T02:31:16Z</time>
      </trkpt>
      <trkpt lat="40.230701" lon="-5.972315">
        <ele>433.508</ele>
        <time>2019-03-01T02:31:30Z</time>
      </trkpt>
      <trkpt lat="40.230458" lon="-5.972337">
        <ele>432.634</ele>
        <time>2019-03-01T02:31:36Z</time>
      </trkpt>
      <trkpt lat="40.230411" lon="-5.972333">
        <ele>432.655</ele>
        <time>2019-03-01T02:31:37Z</time>
      </trkpt>
      <trkpt lat="40.230365" lon="-5.972321">
        <ele>432.616</ele>
        <time>2019-03-01T02:31:38Z</time>
      </trkpt>
      <trkpt lat="40.230323" lon="-5.972297">
        <ele>432.655</ele>
        <time>2019-03-01T02:31:39Z</time>
      </trkpt>
      <trkpt lat="40.230284" lon="-5.972265">
        <ele>432.599</ele>
        <time>2019-03-01T02:31:40Z</time>
      </trkpt>
      <trkpt lat="40.230249" lon="-5.972228">
        <ele>432.552</ele>
        <time>2019-03-01T02:31:41Z</time>
      </trkpt>
      <trkpt lat="40.230215" lon="-5.972193">
        <ele>432.421</ele>
        <time>2019-03-01T02:31:42Z</time>
      </trkpt>
      <trkpt lat="40.230183" lon="-5.972160">
        <ele>432.460</ele>
        <time>2019-03-01T02:31:43Z</time>
      </trkpt>
      <trkpt lat="40.229821" lon="-5.971685">
        <ele>431.921</ele>
        <time>2019-03-01T02:31:57Z</time>
      </trkpt>
      <trkpt lat="40.229452" lon="-5.971130">
        <ele>433.341</ele>
        <time>2019-03-01T02:32:12Z</time>
      </trkpt>
      <trkpt lat="40.229423" lon="-5.971084">
        <ele>433.405</ele>
        <time>2019-03-01T02:32:13Z</time>
      </trkpt>
      <trkpt lat="40.229391" lon="-5.971040">
        <ele>433.608</ele>
        <time>2019-03-01T02:32:14Z</time>
      </trkpt>
      <trkpt lat="40.229223" lon="-5.970828">
        <ele>433.845</ele>
        <time>2019-03-01T02:32:19Z</time>
      </trkpt>
      <trkpt lat="40.229184" lon="-5.970802">
        <ele>433.716</ele>
        <time>2019-03-01T02:32:20Z</time>
      </trkpt>
      <trkpt lat="40.229142" lon="-5.970785">
        <ele>433.637</ele>
        <time>2019-03-01T02:32:21Z</time>
      </trkpt>
      <trkpt lat="40.229101" lon="-5.970778">
        <ele>433.526</ele>
        <time>2019-03-01T02:32:22Z</time>
      </trkpt>
      <trkpt lat="40.229059" lon="-5.970777">
        <ele>433.480</ele>
        <time>2019-03-01T02:32:23Z</time>
      </trkpt>
      <trkpt lat="40.229016" lon="-5.970780">
        <ele>433.443</ele>
        <time>2019-03-01T02:32:24Z</time>
      </trkpt>
      <trkpt lat="40.228972" lon="-5.970784">
        <ele>433.322</ele>
        <time>2019-03-01T02:32:25Z</time>
      </trkpt>
      <trkpt lat="40.228263" lon="-5.970756">
        <ele>435.311</ele>
        <time>2019-03-01T02:32:45Z</time>
      </trkpt>
      <trkpt lat="40.227770" lon="-5.970491">
        <ele>439.176</ele>
        <time>2019-03-01T02:33:05Z</time>
      </trkpt>
      <trkpt lat="40.227440" lon="-5.970070">
        <ele>441.690</ele>
        <time>2019-03-01T02:33:23Z</time>
      </trkpt>
      <trkpt lat="40.227117" lon="-5.969860">
        <ele>442.319</ele>
        <time>2019-03-01T02:33:37Z</time>
      </trkpt>
      <trkpt lat="40.226831" lon="-5.969794">
        <ele>442.708</ele>
        <time>2019-03-01T02:33:51Z</time>
      </trkpt>
      <trkpt lat="40.226563" lon="-5.969706">
        <ele>443.010</ele>
        <time>2019-03-01T02:34:04Z</time>
      </trkpt>
      <trkpt lat="40.226265" lon="-5.969603">
        <ele>443.051</ele>
        <time>2019-03-01T02:34:17Z</time>
      </trkpt>
      <trkpt lat="40.225946" lon="-5.969317">
        <ele>443.112</ele>
        <time>2019-03-01T02:34:30Z</time>
      </trkpt>
      <trkpt lat="40.225631" lon="-5.968922">
        <ele>443.211</ele>
        <time>2019-03-01T02:34:44Z</time>
      </trkpt>
      <trkpt lat="40.225565" lon="-5.968828">
        <ele>443.245</ele>
        <time>2019-03-01T02:34:48Z</time>
      </trkpt>
      <trkpt lat="40.225272" lon="-5.968496">
        <ele>443.058</ele>
        <time>2019-03-01T02:35:04Z</time>
      </trkpt>
      <trkpt lat="40.225061" lon="-5.968193">
        <ele>443.617</ele>
        <time>2019-03-01T02:35:16Z</time>
      </trkpt>
      <trkpt lat="40.224781" lon="-5.967725">
        <ele>444.136</ele>
        <time>2019-03-01T02:35:32Z</time>
      </trkpt>
      <trkpt lat="40.224789" lon="-5.967697">
        <ele>444.273</ele>
        <time>2019-03-01T02:35:33Z</time>
      </trkpt>
      <trkpt lat="40.224804" lon="-5.967670">
        <ele>444.285</ele>
        <time>2019-03-01T02:35:34Z</time>
      </trkpt>
      <trkpt lat="40.224816" lon="-5.967645">
        <ele>444.313</ele>
        <time>2019-03-01T02:35:35Z</time>
      </trkpt>
      <trkpt lat="40.224830" lon="-5.967625">
        <ele>444.408</ele>
        <time>2019-03-01T02:35:36Z</time>
      </trkpt>
      <trkpt lat="40.224850" lon="-5.967609">
        <ele>444.540</ele>
        <time>2019-03-01T02:35:37Z</time>
      </trkpt>
      <trkpt lat="40.224872" lon="-5.967596">
        <ele>444.661</ele>
        <time>2019-03-01T02:35:38Z</time>
      </trkpt>
      <trkpt lat="40.225137" lon="-5.967535">
        <ele>446.172</ele>
        <time>2019-03-01T02:35:48Z</time>
      </trkpt>
      <trkpt lat="40.225472" lon="-5.967450">
        <ele>447.781</ele>
        <time>2019-03-01T02:36:03Z</time>
      </trkpt>
      <trkpt lat="40.225715" lon="-5.967439">
        <ele>448.495</ele>
        <time>2019-03-01T02:36:14Z</time>
      </trkpt>
      <trkpt lat="40.226063" lon="-5.967406">
        <ele>448.638</ele>
        <time>2019-03-01T02:36:28Z</time>
      </trkpt>
      <trkpt lat="40.226575" lon="-5.967446">
        <ele>448.617</ele>
        <time>2019-03-01T02:36:44Z</time>
      </trkpt>
      <trkpt lat="40.226969" lon="-5.967582">
        <ele>451.416</ele>
        <time>2019-03-01T02:36:59Z</time>
      </trkpt>
      <trkpt lat="40.227228" lon="-5.967600">
        <ele>453.738</ele>
        <time>2019-03-01T02:37:12Z</time>
      </trkpt>
      <trkpt lat="40.227674" lon="-5.967613">
        <ele>456.070</ele>
        <time>2019-03-01T02:37:28Z</time>
      </trkpt>
      <trkpt lat="40.228056" lon="-5.967423">
        <ele>456.817</ele>
        <time>2019-03-01T02:37:44Z</time>
      </trkpt>
      <trkpt lat="40.228257" lon="-5.967115">
        <ele>457.508</ele>
        <time>2019-03-01T02:37:57Z</time>
      </trkpt>
      <trkpt lat="40.228397" lon="-5.966614">
        <ele>459.086</ele>
        <time>2019-03-01T02:38:13Z</time>
      </trkpt>
      <trkpt lat="40.228559" lon="-5.966343">
        <ele>461.047</ele>
        <time>2019-03-01T02:38:28Z</time>
      </trkpt>
      <trkpt lat="40.228681" lon="-5.966235">
        <ele>461.978</ele>
        <time>2019-03-01T02:38:42Z</time>
      </trkpt>
      <trkpt lat="40.228685" lon="-5.966228">
        <ele>461.917</ele>
        <time>2019-03-01T02:38:43Z</time>
      </trkpt>
      <trkpt lat="40.228815" lon="-5.966092">
        <ele>463.391</ele>
        <time>2019-03-01T02:41:32Z</time>
      </trkpt>
      <trkpt lat="40.228827" lon="-5.966077">
        <ele>463.414</ele>
        <time>2019-03-01T02:41:33Z</time>
      </trkpt>
      <trkpt lat="40.229134" lon="-5.965811">
        <ele>466.143</ele>
        <time>2019-03-01T02:41:48Z</time>
      </trkpt>
      <trkpt lat="40.229549" lon="-5.965522">
        <ele>468.922</ele>
        <time>2019-03-01T02:42:08Z</time>
      </trkpt>
      <trkpt lat="40.229847" lon="-5.965340">
        <ele>470.262</ele>
        <time>2019-03-01T02:42:24Z</time>
      </trkpt>
      <trkpt lat="40.229952" lon="-5.965284">
        <ele>470.683</ele>
        <time>2019-03-01T02:42:31Z</time>
      </trkpt>
      <trkpt lat="40.229965" lon="-5.965276">
        <ele>470.711</ele>
        <time>2019-03-01T02:42:32Z</time>
      </trkpt>
      <trkpt lat="40.230147" lon="-5.965146">
        <ele>472.008</ele>
        <time>2019-03-01T02:42:48Z</time>
      </trkpt>
      <trkpt lat="40.230154" lon="-5.965136">
        <ele>472.139</ele>
        <time>2019-03-01T02:42:49Z</time>
      </trkpt>
      <trkpt lat="40.230173" lon="-5.965106">
        <ele>472.320</ele>
        <time>2019-03-01T02:42:52Z</time>
      </trkpt>
      <trkpt lat="40.230184" lon="-5.965101">
        <ele>472.411</ele>
        <time>2019-03-01T02:42:53Z</time>
      </trkpt>
      <trkpt lat="40.230195" lon="-5.965097">
        <ele>472.520</ele>
        <time>2019-03-01T02:42:54Z</time>
      </trkpt>
      <trkpt lat="40.230202" lon="-5.965088">
        <ele>472.624</ele>
        <time>2019-03-01T02:42:55Z</time>
      </trkpt>
      <trkpt lat="40.230323" lon="-5.964947">
        <ele>473.687</ele>
        <time>2019-03-01T02:43:09Z</time>
      </trkpt>
      <trkpt lat="40.230368" lon="-5.964901">
        <ele>473.786</ele>
        <time>2019-03-01T02:43:14Z</time>
      </trkpt>
      <trkpt lat="40.230382" lon="-5.964891">
        <ele>473.885</ele>
        <time>2019-03-01T02:43:15Z</time>
      </trkpt>
      <trkpt lat="40.230540" lon="-5.964619">
        <ele>474.716</ele>
        <time>2019-03-01T02:43:27Z</time>
      </trkpt>
      <trkpt lat="40.230748" lon="-5.964298">
        <ele>475.176</ele>
        <time>2019-03-01T02:43:39Z</time>
      </trkpt>
      <trkpt lat="40.231059" lon="-5.963996">
        <ele>474.413</ele>
        <time>2019-03-01T02:43:51Z</time>
      </trkpt>
      <trkpt lat="40.231316" lon="-5.963853">
        <ele>473.308</ele>
        <time>2019-03-01T02:43:57Z</time>
      </trkpt>
      <trkpt lat="40.231890" lon="-5.963478">
        <ele>474.464</ele>
        <time>2019-03-01T02:44:09Z</time>
      </trkpt>
      <trkpt lat="40.232107" lon="-5.963274">
        <ele>474.415</ele>
        <time>2019-03-01T02:44:14Z</time>
      </trkpt>
      <trkpt lat="40.232146" lon="-5.963225">
        <ele>474.456</ele>
        <time>2019-03-01T02:44:15Z</time>
      </trkpt>
      <trkpt lat="40.232506" lon="-5.962750">
        <ele>475.235</ele>
        <time>2019-03-01T02:44:27Z</time>
      </trkpt>
      <trkpt lat="40.232935" lon="-5.962232">
        <ele>475.879</ele>
        <time>2019-03-01T02:44:41Z</time>
      </trkpt>
      <trkpt lat="40.233326" lon="-5.961888">
        <ele>478.072</ele>
        <time>2019-03-01T02:44:53Z</time>
      </trkpt>
      <trkpt lat="40.233635" lon="-5.961502">
        <ele>478.261</ele>
        <time>2019-03-01T02:45:04Z</time>
      </trkpt>
      <trkpt lat="40.233949" lon="-5.961197">
        <ele>479.060</ele>
        <time>2019-03-01T02:45:17Z</time>
      </trkpt>
      <trkpt lat="40.234049" lon="-5.961131">
        <ele>479.292</ele>
        <time>2019-03-01T02:45:21Z</time>
      </trkpt>
      <trkpt lat="40.234070" lon="-5.961106">
        <ele>479.173</ele>
        <time>2019-03-01T02:45:22Z</time>
      </trkpt>
      <trkpt lat="40.234094" lon="-5.961085">
        <ele>479.020</ele>
        <time>2019-03-01T02:45:23Z</time>
      </trkpt>
      <trkpt lat="40.234116" lon="-5.961063">
        <ele>479.008</ele>
        <time>2019-03-01T02:45:24Z</time>
      </trkpt>
      <trkpt lat="40.234134" lon="-5.961039">
        <ele>478.972</ele>
        <time>2019-03-01T02:45:25Z</time>
      </trkpt>
      <trkpt lat="40.234154" lon="-5.961020">
        <ele>478.843</ele>
        <time>2019-03-01T02:45:26Z</time>
      </trkpt>
      <trkpt lat="40.234173" lon="-5.961001">
        <ele>478.754</ele>
        <time>2019-03-01T02:45:27Z</time>
      </trkpt>
      <trkpt lat="40.234489" lon="-5.960875">
        <ele>477.913</ele>
        <time>2019-03-01T02:45:39Z</time>
      </trkpt>
      <trkpt lat="40.234635" lon="-5.960779">
        <ele>477.867</ele>
        <time>2019-03-01T02:45:50Z</time>
      </trkpt>
      <trkpt lat="40.234653" lon="-5.960767">
        <ele>477.780</ele>
        <time>2019-03-01T02:45:51Z</time>
      </trkpt>
      <trkpt lat="40.234674" lon="-5.960759">
        <ele>477.779</ele>
        <time>2019-03-01T02:45:52Z</time>
      </trkpt>
      <trkpt lat="40.234729" lon="-5.960736">
        <ele>477.848</ele>
        <time>2019-03-01T02:45:55Z</time>
      </trkpt>
      <trkpt lat="40.234811" lon="-5.960527">
        <ele>478.171</ele>
        <time>2019-03-01T02:46:08Z</time>
      </trkpt>
      <trkpt lat="40.234987" lon="-5.960226">
        <ele>479.241</ele>
        <time>2019-03-01T02:46:24Z</time>
      </trkpt>
      <trkpt lat="40.235249" lon="-5.959977">
        <ele>480.815</ele>
        <time>2019-03-01T02:46:36Z</time>
      </trkpt>
      <trkpt lat="40.235472" lon="-5.959636">
        <ele>482.708</ele>
        <time>2019-03-01T02:46:48Z</time>
      </trkpt>
      <trkpt lat="40.235726" lon="-5.959269">
        <ele>484.550</ele>
        <time>2019-03-01T02:47:01Z</time>
      </trkpt>
      <trkpt lat="40.236023" lon="-5.959054">
        <ele>484.791</ele>
        <time>2019-03-01T02:47:13Z</time>
      </trkpt>
      <trkpt lat="40.236321" lon="-5.958736">
        <ele>485.062</ele>
        <time>2019-03-01T02:47:28Z</time>
      </trkpt>
      <trkpt lat="40.236575" lon="-5.958611">
        <ele>485.121</ele>
        <time>2019-03-01T02:47:41Z</time>
      </trkpt>
      <trkpt lat="40.236799" lon="-5.958322">
        <ele>485.185</ele>
        <time>2019-03-01T02:47:52Z</time>
      </trkpt>
      <trkpt lat="40.237167" lon="-5.957936">
        <ele>485.178</ele>
        <time>2019-03-01T02:48:05Z</time>
      </trkpt>
      <trkpt lat="40.237449" lon="-5.957691">
        <ele>486.047</ele>
        <time>2019-03-01T02:48:17Z</time>
      </trkpt>
      <trkpt lat="40.237722" lon="-5.957478">
        <ele>486.396</ele>
        <time>2019-03-01T02:48:27Z</time>
      </trkpt>
      <trkpt lat="40.238075" lon="-5.957222">
        <ele>485.527</ele>
        <time>2019-03-01T02:48:39Z</time>
      </trkpt>
      <trkpt lat="40.238349" lon="-5.956829">
        <ele>485.068</ele>
        <time>2019-03-01T02:48:51Z</time>
      </trkpt>
      <trkpt lat="40.238426" lon="-5.956725">
        <ele>484.814</ele>
        <time>2019-03-01T02:48:55Z</time>
      </trkpt>
      <trkpt lat="40.238701" lon="-5.956453">
        <ele>483.208</ele>
        <time>2019-03-01T02:49:06Z</time>
      </trkpt>
      <trkpt lat="40.238728" lon="-5.956441">
        <ele>483.115</ele>
        <time>2019-03-01T02:49:07Z</time>
      </trkpt>
      <trkpt lat="40.238756" lon="-5.956426">
        <ele>483.126</ele>
        <time>2019-03-01T02:49:08Z</time>
      </trkpt>
      <trkpt lat="40.238856" lon="-5.956345">
        <ele>483.197</ele>
        <time>2019-03-01T02:49:11Z</time>
      </trkpt>
      <trkpt lat="40.238887" lon="-5.956305">
        <ele>483.126</ele>
        <time>2019-03-01T02:49:12Z</time>
      </trkpt>
      <trkpt lat="40.238945" lon="-5.956226">
        <ele>483.180</ele>
        <time>2019-03-01T02:49:14Z</time>
      </trkpt>
      <trkpt lat="40.238981" lon="-5.956189">
        <ele>483.363</ele>
        <time>2019-03-01T02:49:15Z</time>
      </trkpt>
      <trkpt lat="40.239301" lon="-5.955809">
        <ele>483.982</ele>
        <time>2019-03-01T02:49:26Z</time>
      </trkpt>
      <trkpt lat="40.239562" lon="-5.955537">
        <ele>483.941</ele>
        <time>2019-03-01T02:49:37Z</time>
      </trkpt>
      <trkpt lat="40.239895" lon="-5.955164">
        <ele>483.086</ele>
        <time>2019-03-01T02:49:49Z</time>
      </trkpt>
      <trkpt lat="40.240255" lon="-5.954786">
        <ele>482.660</ele>
        <time>2019-03-01T02:50:01Z</time>
      </trkpt>
      <trkpt lat="40.240638" lon="-5.954540">
        <ele>484.526</ele>
        <time>2019-03-01T02:50:12Z</time>
      </trkpt>
      <trkpt lat="40.240759" lon="-5.954443">
        <ele>484.908</ele>
        <time>2019-03-01T02:50:15Z</time>
      </trkpt>
      <trkpt lat="40.240799" lon="-5.954403">
        <ele>485.011</ele>
        <time>2019-03-01T02:50:16Z</time>
      </trkpt>
      <trkpt lat="40.240833" lon="-5.954359">
        <ele>484.922</ele>
        <time>2019-03-01T02:50:17Z</time>
      </trkpt>
      <trkpt lat="40.240866" lon="-5.954312">
        <ele>484.833</ele>
        <time>2019-03-01T02:50:18Z</time>
      </trkpt>
      <trkpt lat="40.240902" lon="-5.954267">
        <ele>484.642</ele>
        <time>2019-03-01T02:50:19Z</time>
      </trkpt>
      <trkpt lat="40.240942" lon="-5.954229">
        <ele>484.596</ele>
        <time>2019-03-01T02:50:20Z</time>
      </trkpt>
      <trkpt lat="40.240983" lon="-5.954197">
        <ele>484.569</ele>
        <time>2019-03-01T02:50:21Z</time>
      </trkpt>
      <trkpt lat="40.241026" lon="-5.954163">
        <ele>484.368</ele>
        <time>2019-03-01T02:50:22Z</time>
      </trkpt>
      <trkpt lat="40.241069" lon="-5.954125">
        <ele>484.067</ele>
        <time>2019-03-01T02:50:23Z</time>
      </trkpt>
      <trkpt lat="40.241237" lon="-5.953947">
        <ele>482.967</ele>
        <time>2019-03-01T02:50:27Z</time>
      </trkpt>
      <trkpt lat="40.241275" lon="-5.953899">
        <ele>482.781</ele>
        <time>2019-03-01T02:50:28Z</time>
      </trkpt>
      <trkpt lat="40.241319" lon="-5.953856">
        <ele>482.119</ele>
        <time>2019-03-01T02:50:29Z</time>
      </trkpt>
      <trkpt lat="40.241368" lon="-5.953820">
        <ele>481.808</ele>
        <time>2019-03-01T02:50:30Z</time>
      </trkpt>
      <trkpt lat="40.241417" lon="-5.953785">
        <ele>481.639</ele>
        <time>2019-03-01T02:50:31Z</time>
      </trkpt>
      <trkpt lat="40.241460" lon="-5.953742">
        <ele>481.340</ele>
        <time>2019-03-01T02:50:32Z</time>
      </trkpt>
      <trkpt lat="40.241501" lon="-5.953692">
        <ele>481.291</ele>
        <time>2019-03-01T02:50:33Z</time>
      </trkpt>
      <trkpt lat="40.241539" lon="-5.953642">
        <ele>481.120</ele>
        <time>2019-03-01T02:50:34Z</time>
      </trkpt>
      <trkpt lat="40.241845" lon="-5.953424">
        <ele>480.654</ele>
        <time>2019-03-01T02:50:43Z</time>
      </trkpt>
      <trkpt lat="40.242202" lon="-5.953000">
        <ele>480.767</ele>
        <time>2019-03-01T02:50:55Z</time>
      </trkpt>
      <trkpt lat="40.242230" lon="-5.952964">
        <ele>480.876</ele>
        <time>2019-03-01T02:50:56Z</time>
      </trkpt>
      <trkpt lat="40.242471" lon="-5.952691">
        <ele>481.275</ele>
        <time>2019-03-01T02:51:07Z</time>
      </trkpt>
      <trkpt lat="40.242741" lon="-5.952389">
        <ele>481.336</ele>
        <time>2019-03-01T02:51:20Z</time>
      </trkpt>
      <trkpt lat="40.243132" lon="-5.951985">
        <ele>478.217</ele>
        <time>2019-03-01T02:51:33Z</time>
      </trkpt>
      <trkpt lat="40.243239" lon="-5.951913">
        <ele>477.318</ele>
        <time>2019-03-01T02:51:36Z</time>
      </trkpt>
      <trkpt lat="40.243769" lon="-5.951480">
        <ele>475.008</ele>
        <time>2019-03-01T02:51:49Z</time>
      </trkpt>
      <trkpt lat="40.243802" lon="-5.951456">
        <ele>474.986</ele>
        <time>2019-03-01T02:51:50Z</time>
      </trkpt>
      <trkpt lat="40.243830" lon="-5.951432">
        <ele>474.977</ele>
        <time>2019-03-01T02:51:51Z</time>
      </trkpt>
      <trkpt lat="40.243854" lon="-5.951413">
        <ele>474.998</ele>
        <time>2019-03-01T02:51:52Z</time>
      </trkpt>
      <trkpt lat="40.243878" lon="-5.951393">
        <ele>474.967</ele>
        <time>2019-03-01T02:51:53Z</time>
      </trkpt>
      <trkpt lat="40.244119" lon="-5.951188">
        <ele>475.381</ele>
        <time>2019-03-01T02:52:08Z</time>
      </trkpt>
      <trkpt lat="40.244335" lon="-5.951059">
        <ele>475.734</ele>
        <time>2019-03-01T02:52:25Z</time>
      </trkpt>
      <trkpt lat="40.244603" lon="-5.950929">
        <ele>475.323</ele>
        <time>2019-03-01T02:52:39Z</time>
      </trkpt>
      <trkpt lat="40.244973" lon="-5.950649">
        <ele>474.472</ele>
        <time>2019-03-01T02:52:51Z</time>
      </trkpt>
      <trkpt lat="40.245180" lon="-5.950366">
        <ele>474.661</ele>
        <time>2019-03-01T02:53:02Z</time>
      </trkpt>
      <trkpt lat="40.245205" lon="-5.950322">
        <ele>474.521</ele>
        <time>2019-03-01T02:53:03Z</time>
      </trkpt>
      <trkpt lat="40.245573" lon="-5.949791">
        <ele>474.013</ele>
        <time>2019-03-01T02:53:14Z</time>
      </trkpt>
      <trkpt lat="40.245616" lon="-5.949750">
        <ele>474.208</ele>
        <time>2019-03-01T02:53:15Z</time>
      </trkpt>
      <trkpt lat="40.245911" lon="-5.949455">
        <ele>477.249</ele>
        <time>2019-03-01T02:53:26Z</time>
      </trkpt>
      <trkpt lat="40.246137" lon="-5.949087">
        <ele>478.650</ele>
        <time>2019-03-01T02:53:37Z</time>
      </trkpt>
      <trkpt lat="40.246202" lon="-5.949024">
        <ele>478.511</ele>
        <time>2019-03-01T02:53:39Z</time>
      </trkpt>
      <trkpt lat="40.246243" lon="-5.949006">
        <ele>478.540</ele>
        <time>2019-03-01T02:53:40Z</time>
      </trkpt>
      <trkpt lat="40.246280" lon="-5.948999">
        <ele>478.634</ele>
        <time>2019-03-01T02:53:41Z</time>
      </trkpt>
      <trkpt lat="40.246308" lon="-5.949006">
        <ele>478.697</ele>
        <time>2019-03-01T02:53:42Z</time>
      </trkpt>
      <trkpt lat="40.246329" lon="-5.949012">
        <ele>478.666</ele>
        <time>2019-03-01T02:53:43Z</time>
      </trkpt>
      <trkpt lat="40.246345" lon="-5.949013">
        <ele>478.795</ele>
        <time>2019-03-01T02:53:44Z</time>
      </trkpt>
      <trkpt lat="40.246360" lon="-5.949014">
        <ele>478.872</ele>
        <time>2019-03-01T02:53:45Z</time>
      </trkpt>
      <trkpt lat="40.246373" lon="-5.949021">
        <ele>478.813</ele>
        <time>2019-03-01T02:53:46Z</time>
      </trkpt>
      <trkpt lat="40.246384" lon="-5.949028">
        <ele>478.914</ele>
        <time>2019-03-01T02:53:47Z</time>
      </trkpt>
      <trkpt lat="40.246549" lon="-5.949007">
        <ele>480.208</ele>
        <time>2019-03-01T02:53:57Z</time>
      </trkpt>
      <trkpt lat="40.246566" lon="-5.948998">
        <ele>480.430</ele>
        <time>2019-03-01T02:54:02Z</time>
      </trkpt>
      <trkpt lat="40.246691" lon="-5.948918">
        <ele>481.771</ele>
        <time>2019-03-01T02:54:51Z</time>
      </trkpt>
      <trkpt lat="40.246959" lon="-5.948857">
        <ele>483.952</ele>
        <time>2019-03-01T02:55:03Z</time>
      </trkpt>
      <trkpt lat="40.247289" lon="-5.948770">
        <ele>487.571</ele>
        <time>2019-03-01T02:55:19Z</time>
      </trkpt>
      <trkpt lat="40.247531" lon="-5.948611">
        <ele>489.825</ele>
        <time>2019-03-01T02:55:35Z</time>
      </trkpt>
      <trkpt lat="40.247647" lon="-5.948573">
        <ele>489.878</ele>
        <time>2019-03-01T02:55:44Z</time>
      </trkpt>
      <trkpt lat="40.247660" lon="-5.948569">
        <ele>489.747</ele>
        <time>2019-03-01T02:55:45Z</time>
      </trkpt>
      <trkpt lat="40.247675" lon="-5.948566">
        <ele>489.736</ele>
        <time>2019-03-01T02:55:46Z</time>
      </trkpt>
      <trkpt lat="40.247702" lon="-5.948554">
        <ele>489.628</ele>
        <time>2019-03-01T02:55:48Z</time>
      </trkpt>
      <trkpt lat="40.247715" lon="-5.948543">
        <ele>489.589</ele>
        <time>2019-03-01T02:55:49Z</time>
      </trkpt>
      <trkpt lat="40.247732" lon="-5.948534">
        <ele>489.517</ele>
        <time>2019-03-01T02:55:50Z</time>
      </trkpt>
      <trkpt lat="40.247984" lon="-5.948447">
        <ele>489.108</ele>
        <time>2019-03-01T02:56:07Z</time>
      </trkpt>
      <trkpt lat="40.248157" lon="-5.948329">
        <ele>489.275</ele>
        <time>2019-03-01T02:56:18Z</time>
      </trkpt>
      <trkpt lat="40.248168" lon="-5.948312">
        <ele>489.286</ele>
        <time>2019-03-01T02:56:19Z</time>
      </trkpt>
      <trkpt lat="40.248179" lon="-5.948296">
        <ele>489.397</ele>
        <time>2019-03-01T02:56:20Z</time>
      </trkpt>
      <trkpt lat="40.248191" lon="-5.948284">
        <ele>489.366</ele>
        <time>2019-03-01T02:56:21Z</time>
      </trkpt>
      <trkpt lat="40.248206" lon="-5.948275">
        <ele>489.340</ele>
        <time>2019-03-01T02:56:22Z</time>
      </trkpt>
      <trkpt lat="40.248427" lon="-5.948167">
        <ele>489.913</ele>
        <time>2019-03-01T02:56:35Z</time>
      </trkpt>
      <trkpt lat="40.248703" lon="-5.947966">
        <ele>491.842</ele>
        <time>2019-03-01T02:56:51Z</time>
      </trkpt>
      <trkpt lat="40.248788" lon="-5.947898">
        <ele>492.381</ele>
        <time>2019-03-01T02:57:00Z</time>
      </trkpt>
      <trkpt lat="40.249268" lon="-5.947498">
        <ele>497.479</ele>
        <time>2019-03-01T02:58:41Z</time>
      </trkpt>
      <trkpt lat="40.249469" lon="-5.947337">
        <ele>497.905</ele>
        <time>2019-03-01T02:59:01Z</time>
      </trkpt>
      <trkpt lat="40.249584" lon="-5.947255">
        <ele>498.225</ele>
        <time>2019-03-01T02:59:18Z</time>
      </trkpt>
      <trkpt lat="40.249631" lon="-5.947148">
        <ele>498.608</ele>
        <time>2019-03-01T02:59:45Z</time>
      </trkpt>
      <trkpt lat="40.249760" lon="-5.946740">
        <ele>499.680</ele>
        <time>2019-03-01T03:00:01Z</time>
      </trkpt>
      <trkpt lat="40.249829" lon="-5.946437">
        <ele>500.991</ele>
        <time>2019-03-01T03:00:16Z</time>
      </trkpt>
      <trkpt lat="40.249829" lon="-5.946415">
        <ele>500.982</ele>
        <time>2019-03-01T03:00:17Z</time>
      </trkpt>
      <trkpt lat="40.249832" lon="-5.946393">
        <ele>501.091</ele>
        <time>2019-03-01T03:00:18Z</time>
      </trkpt>
      <trkpt lat="40.249931" lon="-5.946006">
        <ele>501.825</ele>
        <time>2019-03-01T03:00:33Z</time>
      </trkpt>
      <trkpt lat="40.250143" lon="-5.945773">
        <ele>503.238</ele>
        <time>2019-03-01T03:00:45Z</time>
      </trkpt>
      <trkpt lat="40.250613" lon="-5.946112">
        <ele>504.487</ele>
        <time>2019-03-01T03:01:01Z</time>
      </trkpt>
      <trkpt lat="40.251078" lon="-5.946586">
        <ele>502.296</ele>
        <time>2019-03-01T03:01:12Z</time>
      </trkpt>
      <trkpt lat="40.251441" lon="-5.946942">
        <ele>500.859</ele>
        <time>2019-03-01T03:01:19Z</time>
      </trkpt>
      <trkpt lat="40.251564" lon="-5.947014">
        <ele>500.603</ele>
        <time>2019-03-01T03:01:22Z</time>
      </trkpt>
      <trkpt lat="40.251604" lon="-5.947034">
        <ele>500.523</ele>
        <time>2019-03-01T03:01:23Z</time>
      </trkpt>
      <trkpt lat="40.251653" lon="-5.947045">
        <ele>500.508</ele>
        <time>2019-03-01T03:01:24Z</time>
      </trkpt>
      <trkpt lat="40.251698" lon="-5.947045">
        <ele>500.188</ele>
        <time>2019-03-01T03:01:25Z</time>
      </trkpt>
      <trkpt lat="40.251736" lon="-5.947034">
        <ele>500.119</ele>
        <time>2019-03-01T03:01:26Z</time>
      </trkpt>
      <trkpt lat="40.251764" lon="-5.947013">
        <ele>500.060</ele>
        <time>2019-03-01T03:01:27Z</time>
      </trkpt>
      <trkpt lat="40.251785" lon="-5.946989">
        <ele>500.029</ele>
        <time>2019-03-01T03:01:28Z</time>
      </trkpt>
      <trkpt lat="40.251800" lon="-5.946963">
        <ele>500.023</ele>
        <time>2019-03-01T03:01:29Z</time>
      </trkpt>
      <trkpt lat="40.251809" lon="-5.946936">
        <ele>500.096</ele>
        <time>2019-03-01T03:01:30Z</time>
      </trkpt>
      <trkpt lat="40.251819" lon="-5.946903">
        <ele>499.925</ele>
        <time>2019-03-01T03:01:31Z</time>
      </trkpt>
      <trkpt lat="40.251829" lon="-5.946867">
        <ele>499.934</ele>
        <time>2019-03-01T03:01:32Z</time>
      </trkpt>
      <trkpt lat="40.251843" lon="-5.946830">
        <ele>499.918</ele>
        <time>2019-03-01T03:01:33Z</time>
      </trkpt>
      <trkpt lat="40.252035" lon="-5.946483">
        <ele>499.798</ele>
        <time>2019-03-01T03:01:44Z</time>
      </trkpt>
      <trkpt lat="40.252282" lon="-5.946005">
        <ele>499.917</ele>
        <time>2019-03-01T03:02:01Z</time>
      </trkpt>
      <trkpt lat="40.252514" lon="-5.945521">
        <ele>501.108</ele>
        <time>2019-03-01T03:02:18Z</time>
      </trkpt>
      <trkpt lat="40.252722" lon="-5.944988">
        <ele>503.344</ele>
        <time>2019-03-01T03:02:35Z</time>
      </trkpt>
      <trkpt lat="40.252926" lon="-5.944395">
        <ele>505.965</ele>
        <time>2019-03-01T03:02:54Z</time>
      </trkpt>
      <trkpt lat="40.253058" lon="-5.943937">
        <ele>508.166</ele>
        <time>2019-03-01T03:03:09Z</time>
      </trkpt>
      <trkpt lat="40.253176" lon="-5.943488">
        <ele>510.345</ele>
        <time>2019-03-01T03:03:24Z</time>
      </trkpt>
      <trkpt lat="40.253333" lon="-5.942885">
        <ele>512.689</ele>
        <time>2019-03-01T03:03:42Z</time>
      </trkpt>
      <trkpt lat="40.253528" lon="-5.942352">
        <ele>515.072</ele>
        <time>2019-03-01T03:03:59Z</time>
      </trkpt>
      <trkpt lat="40.253659" lon="-5.942083">
        <ele>516.241</ele>
        <time>2019-03-01T03:04:09Z</time>
      </trkpt>
      <trkpt lat="40.253668" lon="-5.942078">
        <ele>516.290</ele>
        <time>2019-03-01T03:04:13Z</time>
      </trkpt>
      <trkpt lat="40.253639" lon="-5.942027">
        <ele>516.528</ele>
        <time>2019-03-01T03:04:54Z</time>
      </trkpt>
      <trkpt lat="40.253648" lon="-5.941869">
        <ele>517.089</ele>
        <time>2019-03-01T03:05:10Z</time>
      </trkpt>
      <trkpt lat="40.253695" lon="-5.941985">
        <ele>517.417</ele>
        <time>2019-03-01T03:05:55Z</time>
      </trkpt>
      <trkpt lat="40.253944" lon="-5.941601">
        <ele>519.008</ele>
        <time>2019-03-01T03:06:10Z</time>
      </trkpt>
      <trkpt lat="40.254201" lon="-5.941203">
        <ele>520.495</ele>
        <time>2019-03-01T03:06:23Z</time>
      </trkpt>
      <trkpt lat="40.254552" lon="-5.940634">
        <ele>521.946</ele>
        <time>2019-03-01T03:06:40Z</time>
      </trkpt>
      <trkpt lat="40.254907" lon="-5.940062">
        <ele>522.917</ele>
        <time>2019-03-01T03:06:57Z</time>
      </trkpt>
      <trkpt lat="40.255150" lon="-5.939647">
        <ele>524.426</ele>
        <time>2019-03-01T03:07:10Z</time>
      </trkpt>
      <trkpt lat="40.255133" lon="-5.939619">
        <ele>524.570</ele>
        <time>2019-03-01T03:07:11Z</time>
      </trkpt>
      <trkpt lat="40.255111" lon="-5.939604">
        <ele>524.693</ele>
        <time>2019-03-01T03:07:12Z</time>
      </trkpt>
      <trkpt lat="40.255090" lon="-5.939592">
        <ele>524.762</ele>
        <time>2019-03-01T03:07:13Z</time>
      </trkpt>
      <trkpt lat="40.255067" lon="-5.939579">
        <ele>524.851</ele>
        <time>2019-03-01T03:07:14Z</time>
      </trkpt>
      <trkpt lat="40.255046" lon="-5.939565">
        <ele>524.995</ele>
        <time>2019-03-01T03:07:15Z</time>
      </trkpt>
      <trkpt lat="40.255029" lon="-5.939549">
        <ele>525.049</ele>
        <time>2019-03-01T03:07:16Z</time>
      </trkpt>
      <trkpt lat="40.255015" lon="-5.939530">
        <ele>525.123</ele>
        <time>2019-03-01T03:07:17Z</time>
      </trkpt>
      <trkpt lat="40.255006" lon="-5.939507">
        <ele>525.108</ele>
        <time>2019-03-01T03:07:18Z</time>
      </trkpt>
      <trkpt lat="40.255003" lon="-5.939480">
        <ele>525.272</ele>
        <time>2019-03-01T03:07:19Z</time>
      </trkpt>
      <trkpt lat="40.255004" lon="-5.939455">
        <ele>525.343</ele>
        <time>2019-03-01T03:07:20Z</time>
      </trkpt>
      <trkpt lat="40.255007" lon="-5.939430">
        <ele>525.424</ele>
        <time>2019-03-01T03:07:21Z</time>
      </trkpt>
      <trkpt lat="40.255108" lon="-5.939114">
        <ele>526.523</ele>
        <time>2019-03-01T03:07:33Z</time>
      </trkpt>
      <trkpt lat="40.255313" lon="-5.938569">
        <ele>528.417</ele>
        <time>2019-03-01T03:07:46Z</time>
      </trkpt>
      <trkpt lat="40.255465" lon="-5.938165">
        <ele>529.240</ele>
        <time>2019-03-01T03:07:57Z</time>
      </trkpt>
      <trkpt lat="40.255644" lon="-5.937708">
        <ele>530.549</ele>
        <time>2019-03-01T03:08:11Z</time>
      </trkpt>
      <trkpt lat="40.255864" lon="-5.937130">
        <ele>532.128</ele>
        <time>2019-03-01T03:08:27Z</time>
      </trkpt>
      <trkpt lat="40.256070" lon="-5.936604">
        <ele>533.549</ele>
        <time>2019-03-01T03:08:41Z</time>
      </trkpt>
      <trkpt lat="40.256288" lon="-5.936072">
        <ele>534.702</ele>
        <time>2019-03-01T03:08:55Z</time>
      </trkpt>
      <trkpt lat="40.256448" lon="-5.935626">
        <ele>535.222</ele>
        <time>2019-03-01T03:09:08Z</time>
      </trkpt>
      <trkpt lat="40.256625" lon="-5.935215">
        <ele>535.508</ele>
        <time>2019-03-01T03:09:20Z</time>
      </trkpt>
      <trkpt lat="40.256822" lon="-5.934717">
        <ele>536.077</ele>
        <time>2019-03-01T03:09:32Z</time>
      </trkpt>
      <trkpt lat="40.256939" lon="-5.934477">
        <ele>536.558</ele>
        <time>2019-03-01T03:09:42Z</time>
      </trkpt>
      <trkpt lat="40.257049" lon="-5.934183">
        <ele>536.739</ele>
        <time>2019-03-01T03:09:51Z</time>
      </trkpt>
      <trkpt lat="40.257089" lon="-5.934085">
        <ele>536.818</ele>
        <time>2019-03-01T03:09:53Z</time>
      </trkpt>
      <trkpt lat="40.257160" lon="-5.933934">
        <ele>537.062</ele>
        <time>2019-03-01T03:09:56Z</time>
      </trkpt>
      <trkpt lat="40.257188" lon="-5.933888">
        <ele>537.085</ele>
        <time>2019-03-01T03:09:57Z</time>
      </trkpt>
      <trkpt lat="40.257217" lon="-5.933843">
        <ele>537.174</ele>
        <time>2019-03-01T03:09:58Z</time>
      </trkpt>
      <trkpt lat="40.257243" lon="-5.933794">
        <ele>537.243</ele>
        <time>2019-03-01T03:09:59Z</time>
      </trkpt>
      <trkpt lat="40.257264" lon="-5.933743">
        <ele>537.224</ele>
        <time>2019-03-01T03:10:00Z</time>
      </trkpt>
      <trkpt lat="40.257286" lon="-5.933692">
        <ele>537.304</ele>
        <time>2019-03-01T03:10:01Z</time>
      </trkpt>
      <trkpt lat="40.257449" lon="-5.933309">
        <ele>537.514</ele>
        <time>2019-03-01T03:10:09Z</time>
      </trkpt>
      <trkpt lat="40.257467" lon="-5.933260">
        <ele>537.608</ele>
        <time>2019-03-01T03:10:10Z</time>
      </trkpt>
      <trkpt lat="40.257758" lon="-5.932583">
        <ele>536.685</ele>
        <time>2019-03-01T03:10:24Z</time>
      </trkpt>
      <trkpt lat="40.258142" lon="-5.931625">
        <ele>532.946</ele>
        <time>2019-03-01T03:10:40Z</time>
      </trkpt>
      <trkpt lat="40.258299" lon="-5.931195">
        <ele>531.517</ele>
        <time>2019-03-01T03:10:46Z</time>
      </trkpt>
      <trkpt lat="40.258313" lon="-5.931145">
        <ele>531.386</ele>
        <time>2019-03-01T03:10:47Z</time>
      </trkpt>
      <trkpt lat="40.258510" lon="-5.930604">
        <ele>530.890</ele>
        <time>2019-03-01T03:10:57Z</time>
      </trkpt>
      <trkpt lat="40.258626" lon="-5.930317">
        <ele>530.343</ele>
        <time>2019-03-01T03:11:04Z</time>
      </trkpt>
      <trkpt lat="40.258675" lon="-5.930200">
        <ele>530.232</ele>
        <time>2019-03-01T03:11:12Z</time>
      </trkpt>
      <trkpt lat="40.258709" lon="-5.930119">
        <ele>530.171</ele>
        <time>2019-03-01T03:11:19Z</time>
      </trkpt>
      <trkpt lat="40.258810" lon="-5.929848">
        <ele>530.038</ele>
        <time>2019-03-01T03:11:28Z</time>
      </trkpt>
      <trkpt lat="40.258976" lon="-5.929898">
        <ele>529.370</ele>
        <time>2019-03-01T03:11:38Z</time>
      </trkpt>
      <trkpt lat="40.258970" lon="-5.929908">
        <ele>529.317</ele>
        <time>2019-03-01T03:11:41Z</time>
      </trkpt>
      <trkpt lat="40.258988" lon="-5.929810">
        <ele>529.208</ele>
        <time>2019-03-01T03:12:40Z</time>
      </trkpt>
      <trkpt lat="40.259017" lon="-5.929800">
        <ele>529.276</ele>
        <time>2019-03-01T03:12:43Z</time>
      </trkpt>
      <trkpt lat="40.259187" lon="-5.929821">
        <ele>528.497</ele>
        <time>2019-03-01T03:12:58Z</time>
      </trkpt>
      <trkpt lat="40.259189" lon="-5.929818">
        <ele>528.438</ele>
        <time>2019-03-01T03:12:59Z</time>
      </trkpt>
      <trkpt lat="40.259106" lon="-5.929727">
        <ele>528.867</ele>
        <time>2019-03-01T03:39:21Z</time>
      </trkpt>
      <trkpt lat="40.258994" lon="-5.929615">
        <ele>529.331</ele>
        <time>2019-03-01T03:39:28Z</time>
      </trkpt>
      <trkpt lat="40.258957" lon="-5.929565">
        <ele>529.524</ele>
        <time>2019-03-01T03:39:32Z</time>
      </trkpt>
      <trkpt lat="40.259000" lon="-5.929485">
        <ele>529.493</ele>
        <time>2019-03-01T03:39:36Z</time>
      </trkpt>
      <trkpt lat="40.259069" lon="-5.929386">
        <ele>529.392</ele>
        <time>2019-03-01T03:39:40Z</time>
      </trkpt>
      <trkpt lat="40.259074" lon="-5.929356">
        <ele>529.255</ele>
        <time>2019-03-01T03:39:41Z</time>
      </trkpt>
      <trkpt lat="40.259082" lon="-5.929250">
        <ele>529.207</ele>
        <time>2019-03-01T03:39:49Z</time>
      </trkpt>
      <trkpt lat="40.259134" lon="-5.929139">
        <ele>529.217</ele>
        <time>2019-03-01T03:40:23Z</time>
      </trkpt>
      <trkpt lat="40.259150" lon="-5.929116">
        <ele>529.208</ele>
        <time>2019-03-01T03:40:24Z</time>
      </trkpt>
      <trkpt lat="40.259174" lon="-5.929099">
        <ele>529.298</ele>
        <time>2019-03-01T03:40:25Z</time>
      </trkpt>
      <trkpt lat="40.259190" lon="-5.929078">
        <ele>529.229</ele>
        <time>2019-03-01T03:40:26Z</time>
      </trkpt>
      <trkpt lat="40.259208" lon="-5.929052">
        <ele>529.280</ele>
        <time>2019-03-01T03:40:31Z</time>
      </trkpt>
      <trkpt lat="40.259246" lon="-5.928951">
        <ele>529.259</ele>
        <time>2019-03-01T03:40:50Z</time>
      </trkpt>
      <trkpt lat="40.259383" lon="-5.928669">
        <ele>529.533</ele>
        <time>2019-03-01T03:41:01Z</time>
      </trkpt>
      <trkpt lat="40.259410" lon="-5.928608">
        <ele>529.596</ele>
        <time>2019-03-01T03:41:03Z</time>
      </trkpt>
      <trkpt lat="40.259424" lon="-5.928590">
        <ele>529.615</ele>
        <time>2019-03-01T03:41:12Z</time>
      </trkpt>
      <trkpt lat="40.259475" lon="-5.928499">
        <ele>529.494</ele>
        <time>2019-03-01T03:41:33Z</time>
      </trkpt>
      <trkpt lat="40.259493" lon="-5.928447">
        <ele>529.478</ele>
        <time>2019-03-01T03:41:39Z</time>
      </trkpt>
      <trkpt lat="40.259445" lon="-5.928423">
        <ele>529.433</ele>
        <time>2019-03-01T03:41:43Z</time>
      </trkpt>
      <trkpt lat="40.259437" lon="-5.928406">
        <ele>529.326</ele>
        <time>2019-03-01T03:41:44Z</time>
      </trkpt>
      <trkpt lat="40.259483" lon="-5.928204">
        <ele>529.208</ele>
        <time>2019-03-01T03:41:55Z</time>
      </trkpt>
      <trkpt lat="40.259463" lon="-5.928126">
        <ele>529.140</ele>
        <time>2019-03-01T03:42:01Z</time>
      </trkpt>
      <trkpt lat="40.259478" lon="-5.928038">
        <ele>529.151</ele>
        <time>2019-03-01T03:42:09Z</time>
      </trkpt>
      <trkpt lat="40.259420" lon="-5.928108">
        <ele>529.092</ele>
        <time>2019-03-01T03:42:32Z</time>
      </trkpt>
      <trkpt lat="40.259436" lon="-5.928144">
        <ele>529.011</ele>
        <time>2019-03-01T03:42:34Z</time>
      </trkpt>
      <trkpt lat="40.259512" lon="-5.928084">
        <ele>528.915</ele>
        <time>2019-03-01T03:42:40Z</time>
      </trkpt>
      <trkpt lat="40.259542" lon="-5.928023">
        <ele>528.938</ele>
        <time>2019-03-01T03:42:44Z</time>
      </trkpt>
      <trkpt lat="40.259586" lon="-5.927950">
        <ele>528.857</ele>
        <time>2019-03-01T03:42:48Z</time>
      </trkpt>
      <trkpt lat="40.259757" lon="-5.927647">
        <ele>528.216</ele>
        <time>2019-03-01T03:43:00Z</time>
      </trkpt>
      <trkpt lat="40.259898" lon="-5.927354">
        <ele>528.398</ele>
        <time>2019-03-01T03:43:10Z</time>
      </trkpt>
      <trkpt lat="40.260039" lon="-5.927451">
        <ele>528.515</ele>
        <time>2019-03-01T03:43:19Z</time>
      </trkpt>
      <trkpt lat="40.260106" lon="-5.927318">
        <ele>528.726</ele>
        <time>2019-03-01T03:43:28Z</time>
      </trkpt>
      <trkpt lat="40.260108" lon="-5.927321">
        <ele>528.708</ele>
        <time>2019-03-01T03:43:29Z</time>
      </trkpt>
      <trkpt lat="40.260267" lon="-5.927135">
        <ele>528.042</ele>
        <time>2019-03-01T03:44:45Z</time>
      </trkpt>
      <trkpt lat="40.260291" lon="-5.926940">
        <ele>527.663</ele>
        <time>2019-03-01T03:44:49Z</time>
      </trkpt>
      <trkpt lat="40.260326" lon="-5.926778">
        <ele>527.284</ele>
        <time>2019-03-01T03:44:52Z</time>
      </trkpt>
      <trkpt lat="40.260363" lon="-5.926577">
        <ele>526.833</ele>
        <time>2019-03-01T03:44:55Z</time>
      </trkpt>
      <trkpt lat="40.260427" lon="-5.926319">
        <ele>526.457</ele>
        <time>2019-03-01T03:44:59Z</time>
      </trkpt>
      <trkpt lat="40.260469" lon="-5.926061">
        <ele>526.250</ele>
        <time>2019-03-01T03:45:03Z</time>
      </trkpt>
      <trkpt lat="40.260487" lon="-5.925952">
        <ele>526.179</ele>
        <time>2019-03-01T03:45:05Z</time>
      </trkpt>
      <trkpt lat="40.260562" lon="-5.925551">
        <ele>524.258</ele>
        <time>2019-03-01T03:45:13Z</time>
      </trkpt>
      <trkpt lat="40.260583" lon="-5.925443">
        <ele>524.026</ele>
        <time>2019-03-01T03:45:15Z</time>
      </trkpt>
      <trkpt lat="40.260589" lon="-5.925388">
        <ele>523.847</ele>
        <time>2019-03-01T03:45:16Z</time>
      </trkpt>
      <trkpt lat="40.260606" lon="-5.925103">
        <ele>523.211</ele>
        <time>2019-03-01T03:45:21Z</time>
      </trkpt>
      <trkpt lat="40.260598" lon="-5.925042">
        <ele>523.108</ele>
        <time>2019-03-01T03:45:22Z</time>
      </trkpt>
      <trkpt lat="40.260596" lon="-5.924980">
        <ele>523.055</ele>
        <time>2019-03-01T03:45:23Z</time>
      </trkpt>
      <trkpt lat="40.260602" lon="-5.924918">
        <ele>522.976</ele>
        <time>2019-03-01T03:45:24Z</time>
      </trkpt>
      <trkpt lat="40.260609" lon="-5.924855">
        <ele>522.827</ele>
        <time>2019-03-01T03:45:25Z</time>
      </trkpt>
      <trkpt lat="40.260699" lon="-5.923998">
        <ele>522.226</ele>
        <time>2019-03-01T03:45:39Z</time>
      </trkpt>
      <trkpt lat="40.260702" lon="-5.923933">
        <ele>522.240</ele>
        <time>2019-03-01T03:45:40Z</time>
      </trkpt>
      <trkpt lat="40.260705" lon="-5.923871">
        <ele>522.333</ele>
        <time>2019-03-01T03:45:41Z</time>
      </trkpt>
      <trkpt lat="40.260715" lon="-5.923814">
        <ele>522.392</ele>
        <time>2019-03-01T03:45:42Z</time>
      </trkpt>
      <trkpt lat="40.260730" lon="-5.923759">
        <ele>522.391</ele>
        <time>2019-03-01T03:45:43Z</time>
      </trkpt>
      <trkpt lat="40.260754" lon="-5.923713">
        <ele>522.499</ele>
        <time>2019-03-01T03:45:44Z</time>
      </trkpt>
      <trkpt lat="40.260786" lon="-5.923681">
        <ele>522.407</ele>
        <time>2019-03-01T03:45:45Z</time>
      </trkpt>
      <trkpt lat="40.260821" lon="-5.923659">
        <ele>522.427</ele>
        <time>2019-03-01T03:45:46Z</time>
      </trkpt>
      <trkpt lat="40.260860" lon="-5.923640">
        <ele>522.508</ele>
        <time>2019-03-01T03:45:47Z</time>
      </trkpt>
      <trkpt lat="40.260902" lon="-5.923623">
        <ele>522.592</ele>
        <time>2019-03-01T03:45:48Z</time>
      </trkpt>
      <trkpt lat="40.260944" lon="-5.923603">
        <ele>522.573</ele>
        <time>2019-03-01T03:45:49Z</time>
      </trkpt>
      <trkpt lat="40.260984" lon="-5.923577">
        <ele>522.594</ele>
        <time>2019-03-01T03:45:50Z</time>
      </trkpt>
      <trkpt lat="40.261024" lon="-5.923546">
        <ele>522.633</ele>
        <time>2019-03-01T03:45:51Z</time>
      </trkpt>
      <trkpt lat="40.261064" lon="-5.923512">
        <ele>522.647</ele>
        <time>2019-03-01T03:45:52Z</time>
      </trkpt>
      <trkpt lat="40.261102" lon="-5.923476">
        <ele>522.620</ele>
        <time>2019-03-01T03:45:53Z</time>
      </trkpt>
      <trkpt lat="40.261207" lon="-5.923358">
        <ele>522.779</ele>
        <time>2019-03-01T03:45:56Z</time>
      </trkpt>
      <trkpt lat="40.261405" lon="-5.923087">
        <ele>522.888</ele>
        <time>2019-03-01T03:46:03Z</time>
      </trkpt>
      <trkpt lat="40.261434" lon="-5.923051">
        <ele>522.849</ele>
        <time>2019-03-01T03:46:04Z</time>
      </trkpt>
      <trkpt lat="40.261625" lon="-5.922786">
        <ele>523.502</ele>
        <time>2019-03-01T03:46:15Z</time>
      </trkpt>
      <trkpt lat="40.261861" lon="-5.922098">
        <ele>526.522</ele>
        <time>2019-03-01T03:46:35Z</time>
      </trkpt>
      <trkpt lat="40.261939" lon="-5.921687">
        <ele>528.208</ele>
        <time>2019-03-01T03:46:48Z</time>
      </trkpt>
      <trkpt lat="40.262105" lon="-5.921225">
        <ele>530.047</ele>
        <time>2019-03-01T03:47:05Z</time>
      </trkpt>
      <trkpt lat="40.262237" lon="-5.920814">
        <ele>531.598</ele>
        <time>2019-03-01T03:47:20Z</time>
      </trkpt>
      <trkpt lat="40.262407" lon="-5.920540">
        <ele>532.459</ele>
        <time>2019-03-01T03:47:33Z</time>
      </trkpt>
      <trkpt lat="40.262595" lon="-5.920066">
        <ele>533.258</ele>
        <time>2019-03-01T03:47:49Z</time>
      </trkpt>
      <trkpt lat="40.262886" lon="-5.919563">
        <ele>534.252</ele>
        <time>2019-03-01T03:48:02Z</time>
      </trkpt>
      <trkpt lat="40.263088" lon="-5.919165">
        <ele>535.025</ele>
        <time>2019-03-01T03:48:14Z</time>
      </trkpt>
      <trkpt lat="40.263362" lon="-5.918457">
        <ele>536.484</ele>
        <time>2019-03-01T03:48:34Z</time>
      </trkpt>
      <trkpt lat="40.263612" lon="-5.917855">
        <ele>537.823</ele>
        <time>2019-03-01T03:48:51Z</time>
      </trkpt>
      <trkpt lat="40.263808" lon="-5.917402">
        <ele>538.739</ele>
        <time>2019-03-01T03:49:09Z</time>
      </trkpt>
      <trkpt lat="40.263984" lon="-5.917083">
        <ele>539.901</ele>
        <time>2019-03-01T03:49:22Z</time>
      </trkpt>
      <trkpt lat="40.263951" lon="-5.916696">
        <ele>540.921</ele>
        <time>2019-03-01T03:49:34Z</time>
      </trkpt>
      <trkpt lat="40.264038" lon="-5.916460">
        <ele>541.208</ele>
        <time>2019-03-01T03:49:45Z</time>
      </trkpt>
      <trkpt lat="40.264043" lon="-5.916431">
        <ele>541.396</ele>
        <time>2019-03-01T03:49:46Z</time>
      </trkpt>
      <trkpt lat="40.264045" lon="-5.916398">
        <ele>541.377</ele>
        <time>2019-03-01T03:49:47Z</time>
      </trkpt>
      <trkpt lat="40.264042" lon="-5.916366">
        <ele>541.358</ele>
        <time>2019-03-01T03:49:48Z</time>
      </trkpt>
      <trkpt lat="40.264036" lon="-5.916332">
        <ele>541.397</ele>
        <time>2019-03-01T03:49:49Z</time>
      </trkpt>
      <trkpt lat="40.264030" lon="-5.916299">
        <ele>541.351</ele>
        <time>2019-03-01T03:49:50Z</time>
      </trkpt>
      <trkpt lat="40.264022" lon="-5.916264">
        <ele>541.324</ele>
        <time>2019-03-01T03:49:51Z</time>
      </trkpt>
      <trkpt lat="40.264015" lon="-5.916229">
        <ele>541.353</ele>
        <time>2019-03-01T03:49:52Z</time>
      </trkpt>
      <trkpt lat="40.264008" lon="-5.916194">
        <ele>541.492</ele>
        <time>2019-03-01T03:49:53Z</time>
      </trkpt>
      <trkpt lat="40.263866" lon="-5.915626">
        <ele>541.392</ele>
        <time>2019-03-01T03:50:11Z</time>
      </trkpt>
      <trkpt lat="40.263755" lon="-5.915209">
        <ele>542.173</ele>
        <time>2019-03-01T03:50:25Z</time>
      </trkpt>
      <trkpt lat="40.263590" lon="-5.914587">
        <ele>543.720</ele>
        <time>2019-03-01T03:50:43Z</time>
      </trkpt>
      <trkpt lat="40.263333" lon="-5.914179">
        <ele>545.208</ele>
        <time>2019-03-01T03:50:56Z</time>
      </trkpt>
      <trkpt lat="40.263347" lon="-5.913790">
        <ele>545.952</ele>
        <time>2019-03-01T03:51:06Z</time>
      </trkpt>
      <trkpt lat="40.263614" lon="-5.913597">
        <ele>546.443</ele>
        <time>2019-03-01T03:51:18Z</time>
      </trkpt>
      <trkpt lat="40.263654" lon="-5.913571">
        <ele>546.574</ele>
        <time>2019-03-01T03:51:20Z</time>
      </trkpt>
      <trkpt lat="40.263674" lon="-5.913570">
        <ele>546.463</ele>
        <time>2019-03-01T03:51:21Z</time>
      </trkpt>
      <trkpt lat="40.263693" lon="-5.913566">
        <ele>546.477</ele>
        <time>2019-03-01T03:51:22Z</time>
      </trkpt>
      <trkpt lat="40.263717" lon="-5.913566">
        <ele>546.350</ele>
        <time>2019-03-01T03:51:23Z</time>
      </trkpt>
      <trkpt lat="40.263743" lon="-5.913570">
        <ele>546.319</ele>
        <time>2019-03-01T03:51:24Z</time>
      </trkpt>
      <trkpt lat="40.263768" lon="-5.913578">
        <ele>546.298</ele>
        <time>2019-03-01T03:51:25Z</time>
      </trkpt>
      <trkpt lat="40.263792" lon="-5.913590">
        <ele>546.114</ele>
        <time>2019-03-01T03:51:26Z</time>
      </trkpt>
      <trkpt lat="40.263816" lon="-5.913603">
        <ele>546.154</ele>
        <time>2019-03-01T03:51:27Z</time>
      </trkpt>
      <trkpt lat="40.264232" lon="-5.913832">
        <ele>544.909</ele>
        <time>2019-03-01T03:51:39Z</time>
      </trkpt>
      <trkpt lat="40.264657" lon="-5.913844">
        <ele>544.308</ele>
        <time>2019-03-01T03:51:54Z</time>
      </trkpt>
      <trkpt lat="40.265172" lon="-5.913429">
        <ele>544.054</ele>
        <time>2019-03-01T03:52:09Z</time>
      </trkpt>
      <trkpt lat="40.265321" lon="-5.913351">
        <ele>543.725</ele>
        <time>2019-03-01T03:52:13Z</time>
      </trkpt>
      <trkpt lat="40.265353" lon="-5.913321">
        <ele>543.716</ele>
        <time>2019-03-01T03:52:14Z</time>
      </trkpt>
      <trkpt lat="40.265378" lon="-5.913281">
        <ele>543.685</ele>
        <time>2019-03-01T03:52:15Z</time>
      </trkpt>
      <trkpt lat="40.265527" lon="-5.913027">
        <ele>543.639</ele>
        <time>2019-03-01T03:52:25Z</time>
      </trkpt>
      <trkpt lat="40.265719" lon="-5.912698">
        <ele>543.762</ele>
        <time>2019-03-01T03:52:37Z</time>
      </trkpt>
      <trkpt lat="40.266010" lon="-5.912306">
        <ele>544.461</ele>
        <time>2019-03-01T03:52:51Z</time>
      </trkpt>
      <trkpt lat="40.266489" lon="-5.911730">
        <ele>546.320</ele>
        <time>2019-03-01T03:53:05Z</time>
      </trkpt>
      <trkpt lat="40.266957" lon="-5.910947">
        <ele>548.138</ele>
        <time>2019-03-01T03:53:21Z</time>
      </trkpt>
      <trkpt lat="40.267279" lon="-5.910242">
        <ele>548.270</ele>
        <time>2019-03-01T03:53:35Z</time>
      </trkpt>
      <trkpt lat="40.267824" lon="-5.908974">
        <ele>548.417</ele>
        <time>2019-03-01T03:53:57Z</time>
      </trkpt>
      <trkpt lat="40.268309" lon="-5.907875">
        <ele>548.008</ele>
        <time>2019-03-01T03:54:14Z</time>
      </trkpt>
      <trkpt lat="40.268779" lon="-5.906978">
        <ele>548.066</ele>
        <time>2019-03-01T03:54:29Z</time>
      </trkpt>
      <trkpt lat="40.269150" lon="-5.906423">
        <ele>548.227</ele>
        <time>2019-03-01T03:54:41Z</time>
      </trkpt>
      <trkpt lat="40.269736" lon="-5.905540">
        <ele>548.748</ele>
        <time>2019-03-01T03:55:00Z</time>
      </trkpt>
      <trkpt lat="40.270134" lon="-5.905028">
        <ele>549.487</ele>
        <time>2019-03-01T03:55:14Z</time>
      </trkpt>
      <trkpt lat="40.270218" lon="-5.904926">
        <ele>549.711</ele>
        <time>2019-03-01T03:55:18Z</time>
      </trkpt>
      <trkpt lat="40.270228" lon="-5.904895">
        <ele>549.874</ele>
        <time>2019-03-01T03:55:19Z</time>
      </trkpt>
      <trkpt lat="40.270239" lon="-5.904867">
        <ele>549.883</ele>
        <time>2019-03-01T03:55:20Z</time>
      </trkpt>
      <trkpt lat="40.270253" lon="-5.904844">
        <ele>549.772</ele>
        <time>2019-03-01T03:55:21Z</time>
      </trkpt>
      <trkpt lat="40.270267" lon="-5.904827">
        <ele>549.717</ele>
        <time>2019-03-01T03:55:22Z</time>
      </trkpt>
      <trkpt lat="40.270281" lon="-5.904812">
        <ele>549.687</ele>
        <time>2019-03-01T03:55:23Z</time>
      </trkpt>
      <trkpt lat="40.270354" lon="-5.904726">
        <ele>549.315</ele>
        <time>2019-03-01T03:55:34Z</time>
      </trkpt>
      <trkpt lat="40.270433" lon="-5.904742">
        <ele>549.008</ele>
        <time>2019-03-01T03:56:10Z</time>
      </trkpt>
      <trkpt lat="40.270861" lon="-5.904413">
        <ele>548.074</ele>
        <time>2019-03-01T03:56:23Z</time>
      </trkpt>
      <trkpt lat="40.271376" lon="-5.903849">
        <ele>549.115</ele>
        <time>2019-03-01T03:56:40Z</time>
      </trkpt>
      <trkpt lat="40.271708" lon="-5.903043">
        <ele>553.016</ele>
        <time>2019-03-01T03:56:58Z</time>
      </trkpt>
      <trkpt lat="40.271951" lon="-5.902348">
        <ele>555.385</ele>
        <time>2019-03-01T03:57:15Z</time>
      </trkpt>
      <trkpt lat="40.272192" lon="-5.901631">
        <ele>559.269</ele>
        <time>2019-03-01T03:57:34Z</time>
      </trkpt>
      <trkpt lat="40.272406" lon="-5.900998">
        <ele>561.522</ele>
        <time>2019-03-01T03:57:52Z</time>
      </trkpt>
      <trkpt lat="40.272624" lon="-5.900404">
        <ele>562.371</ele>
        <time>2019-03-01T03:58:13Z</time>
      </trkpt>
      <trkpt lat="40.272870" lon="-5.899886">
        <ele>563.490</ele>
        <time>2019-03-01T03:58:33Z</time>
      </trkpt>
      <trkpt lat="40.273208" lon="-5.899256">
        <ele>565.338</ele>
        <time>2019-03-01T03:58:52Z</time>
      </trkpt>
      <trkpt lat="40.273548" lon="-5.898624">
        <ele>567.570</ele>
        <time>2019-03-01T03:59:12Z</time>
      </trkpt>
      <trkpt lat="40.273882" lon="-5.898020">
        <ele>569.517</ele>
        <time>2019-03-01T03:59:31Z</time>
      </trkpt>
      <trkpt lat="40.274172" lon="-5.897501">
        <ele>571.208</ele>
        <time>2019-03-01T03:59:47Z</time>
      </trkpt>
      <trkpt lat="40.274568" lon="-5.896790">
        <ele>571.986</ele>
        <time>2019-03-01T04:00:09Z</time>
      </trkpt>
      <trkpt lat="40.274893" lon="-5.896191">
        <ele>571.937</ele>
        <time>2019-03-01T04:00:23Z</time>
      </trkpt>
      <trkpt lat="40.275303" lon="-5.895447">
        <ele>572.738</ele>
        <time>2019-03-01T04:00:43Z</time>
      </trkpt>
      <trkpt lat="40.275607" lon="-5.894892">
        <ele>575.367</ele>
        <time>2019-03-01T04:00:59Z</time>
      </trkpt>
      <trkpt lat="40.275937" lon="-5.894309">
        <ele>577.951</ele>
        <time>2019-03-01T04:01:15Z</time>
      </trkpt>
      <trkpt lat="40.276286" lon="-5.893704">
        <ele>579.544</ele>
        <time>2019-03-01T04:01:33Z</time>
      </trkpt>
      <trkpt lat="40.276657" lon="-5.893013">
        <ele>582.093</ele>
        <time>2019-03-01T04:01:54Z</time>
      </trkpt>
      <trkpt lat="40.277110" lon="-5.892196">
        <ele>584.212</ele>
        <time>2019-03-01T04:02:18Z</time>
      </trkpt>
      <trkpt lat="40.277452" lon="-5.891577">
        <ele>585.999</ele>
        <time>2019-03-01T04:02:32Z</time>
      </trkpt>
      <trkpt lat="40.277872" lon="-5.890811">
        <ele>588.107</ele>
        <time>2019-03-01T04:02:49Z</time>
      </trkpt>
      <trkpt lat="40.278289" lon="-5.890060">
        <ele>589.427</ele>
        <time>2019-03-01T04:03:10Z</time>
      </trkpt>
      <trkpt lat="40.278753" lon="-5.889324">
        <ele>590.508</ele>
        <time>2019-03-01T04:03:32Z</time>
      </trkpt>
      <trkpt lat="40.279337" lon="-5.888558">
        <ele>592.152</ele>
        <time>2019-03-01T04:03:56Z</time>
      </trkpt>
      <trkpt lat="40.279797" lon="-5.887941">
        <ele>593.463</ele>
        <time>2019-03-01T04:04:14Z</time>
      </trkpt>
      <trkpt lat="40.280281" lon="-5.887330">
        <ele>595.194</ele>
        <time>2019-03-01T04:04:34Z</time>
      </trkpt>
      <trkpt lat="40.280575" lon="-5.886950">
        <ele>596.253</ele>
        <time>2019-03-01T04:04:48Z</time>
      </trkpt>
      <trkpt lat="40.281169" lon="-5.886187">
        <ele>598.577</ele>
        <time>2019-03-01T04:05:10Z</time>
      </trkpt>
      <trkpt lat="40.281577" lon="-5.885655">
        <ele>599.480</ele>
        <time>2019-03-01T04:05:27Z</time>
      </trkpt>
      <trkpt lat="40.282214" lon="-5.884808">
        <ele>600.259</ele>
        <time>2019-03-01T04:05:46Z</time>
      </trkpt>
      <trkpt lat="40.282855" lon="-5.883971">
        <ele>598.198</ele>
        <time>2019-03-01T04:06:04Z</time>
      </trkpt>
      <trkpt lat="40.283527" lon="-5.883106">
        <ele>598.175</ele>
        <time>2019-03-01T04:06:24Z</time>
      </trkpt>
      <trkpt lat="40.283964" lon="-5.882532">
        <ele>599.628</ele>
        <time>2019-03-01T04:06:41Z</time>
      </trkpt>
      <trkpt lat="40.284490" lon="-5.881909">
        <ele>601.620</ele>
        <time>2019-03-01T04:07:01Z</time>
      </trkpt>
      <trkpt lat="40.285086" lon="-5.881343">
        <ele>603.408</ele>
        <time>2019-03-01T04:07:21Z</time>
      </trkpt>
      <trkpt lat="40.285691" lon="-5.880771">
        <ele>605.320</ele>
        <time>2019-03-01T04:07:41Z</time>
      </trkpt>
      <trkpt lat="40.286251" lon="-5.880239">
        <ele>608.091</ele>
        <time>2019-03-01T04:08:01Z</time>
      </trkpt>
      <trkpt lat="40.286851" lon="-5.879694">
        <ele>610.952</ele>
        <time>2019-03-01T04:08:23Z</time>
      </trkpt>
      <trkpt lat="40.287373" lon="-5.879203">
        <ele>613.161</ele>
        <time>2019-03-01T04:08:45Z</time>
      </trkpt>
      <trkpt lat="40.287834" lon="-5.878757">
        <ele>615.785</ele>
        <time>2019-03-01T04:09:05Z</time>
      </trkpt>
      <trkpt lat="40.288291" lon="-5.878352">
        <ele>619.268</ele>
        <time>2019-03-01T04:09:27Z</time>
      </trkpt>
      <trkpt lat="40.288811" lon="-5.877937">
        <ele>620.547</ele>
        <time>2019-03-01T04:09:49Z</time>
      </trkpt>
      <trkpt lat="40.289095" lon="-5.877719">
        <ele>621.326</ele>
        <time>2019-03-01T04:10:02Z</time>
      </trkpt>
      <trkpt lat="40.289547" lon="-5.877373">
        <ele>622.931</ele>
        <time>2019-03-01T04:10:19Z</time>
      </trkpt>
      <trkpt lat="40.290041" lon="-5.876988">
        <ele>624.861</ele>
        <time>2019-03-01T04:10:37Z</time>
      </trkpt>
      <trkpt lat="40.290442" lon="-5.876665">
        <ele>627.007</ele>
        <time>2019-03-01T04:10:53Z</time>
      </trkpt>
      <trkpt lat="40.290996" lon="-5.876227">
        <ele>633.508</ele>
        <time>2019-03-01T04:11:15Z</time>
      </trkpt>
      <trkpt lat="40.291348" lon="-5.875952">
        <ele>637.556</ele>
        <time>2019-03-01T04:11:29Z</time>
      </trkpt>
      <trkpt lat="40.291797" lon="-5.875603">
        <ele>642.387</ele>
        <time>2019-03-01T04:11:49Z</time>
      </trkpt>
      <trkpt lat="40.292183" lon="-5.875299">
        <ele>644.888</ele>
        <time>2019-03-01T04:12:08Z</time>
      </trkpt>
      <trkpt lat="40.292572" lon="-5.874994">
        <ele>645.147</ele>
        <time>2019-03-01T04:12:27Z</time>
      </trkpt>
      <trkpt lat="40.293019" lon="-5.874653">
        <ele>645.561</ele>
        <time>2019-03-01T04:12:48Z</time>
      </trkpt>
      <trkpt lat="40.293426" lon="-5.874363">
        <ele>645.814</ele>
        <time>2019-03-01T04:13:07Z</time>
      </trkpt>
      <trkpt lat="40.293890" lon="-5.874165">
        <ele>646.033</ele>
        <time>2019-03-01T04:13:25Z</time>
      </trkpt>
      <trkpt lat="40.294404" lon="-5.873983">
        <ele>646.312</ele>
        <time>2019-03-01T04:13:44Z</time>
      </trkpt>
      <trkpt lat="40.294774" lon="-5.873873">
        <ele>646.452</ele>
        <time>2019-03-01T04:14:01Z</time>
      </trkpt>
      <trkpt lat="40.295230" lon="-5.873845">
        <ele>646.653</ele>
        <time>2019-03-01T04:14:18Z</time>
      </trkpt>
      <trkpt lat="40.295771" lon="-5.873850">
        <ele>646.708</ele>
        <time>2019-03-01T04:14:37Z</time>
      </trkpt>
      <trkpt lat="40.296247" lon="-5.873743">
        <ele>647.008</ele>
        <time>2019-03-01T04:14:56Z</time>
      </trkpt>
      <trkpt lat="40.296751" lon="-5.873570">
        <ele>647.718</ele>
        <time>2019-03-01T04:15:16Z</time>
      </trkpt>
      <trkpt lat="40.297120" lon="-5.873254">
        <ele>648.639</ele>
        <time>2019-03-01T04:15:31Z</time>
      </trkpt>
      <trkpt lat="40.297642" lon="-5.872567">
        <ele>649.390</ele>
        <time>2019-03-01T04:15:45Z</time>
      </trkpt>
      <trkpt lat="40.298265" lon="-5.872158">
        <ele>649.649</ele>
        <time>2019-03-01T04:15:59Z</time>
      </trkpt>
      <trkpt lat="40.299016" lon="-5.871785">
        <ele>649.613</ele>
        <time>2019-03-01T04:16:17Z</time>
      </trkpt>
      <trkpt lat="40.299639" lon="-5.871155">
        <ele>649.456</ele>
        <time>2019-03-01T04:16:29Z</time>
      </trkpt>
      <trkpt lat="40.300431" lon="-5.870655">
        <ele>650.295</ele>
        <time>2019-03-01T04:16:44Z</time>
      </trkpt>
      <trkpt lat="40.300593" lon="-5.870593">
        <ele>650.794</ele>
        <time>2019-03-01T04:16:47Z</time>
      </trkpt>
      <trkpt lat="40.301189" lon="-5.870306">
        <ele>652.838</ele>
        <time>2019-03-01T04:17:01Z</time>
      </trkpt>
      <trkpt lat="40.301721" lon="-5.870053">
        <ele>654.070</ele>
        <time>2019-03-01T04:17:14Z</time>
      </trkpt>
      <trkpt lat="40.302303" lon="-5.869777">
        <ele>655.117</ele>
        <time>2019-03-01T04:17:31Z</time>
      </trkpt>
      <trkpt lat="40.302867" lon="-5.869511">
        <ele>656.508</ele>
        <time>2019-03-01T04:17:48Z</time>
      </trkpt>
      <trkpt lat="40.303352" lon="-5.869282">
        <ele>659.076</ele>
        <time>2019-03-01T04:18:06Z</time>
      </trkpt>
      <trkpt lat="40.303288" lon="-5.869213">
        <ele>659.557</ele>
        <time>2019-03-01T04:18:11Z</time>
      </trkpt>
      <trkpt lat="40.303245" lon="-5.869191">
        <ele>659.758</ele>
        <time>2019-03-01T04:18:17Z</time>
      </trkpt>
      <trkpt lat="40.303256" lon="-5.869253">
        <ele>660.077</ele>
        <time>2019-03-01T04:20:36Z</time>
      </trkpt>
      <trkpt lat="40.303372" lon="-5.869267">
        <ele>660.741</ele>
        <time>2019-03-01T04:20:41Z</time>
      </trkpt>
      <trkpt lat="40.303397" lon="-5.869259">
        <ele>660.844</ele>
        <time>2019-03-01T04:20:42Z</time>
      </trkpt>
      <trkpt lat="40.303427" lon="-5.869250">
        <ele>661.083</ele>
        <time>2019-03-01T04:20:43Z</time>
      </trkpt>
      <trkpt lat="40.303452" lon="-5.869241">
        <ele>661.232</ele>
        <time>2019-03-01T04:20:44Z</time>
      </trkpt>
      <trkpt lat="40.303476" lon="-5.869229">
        <ele>661.234</ele>
        <time>2019-03-01T04:20:45Z</time>
      </trkpt>
      <trkpt lat="40.303501" lon="-5.869221">
        <ele>661.355</ele>
        <time>2019-03-01T04:20:46Z</time>
      </trkpt>
      <trkpt lat="40.303525" lon="-5.869213">
        <ele>661.410</ele>
        <time>2019-03-01T04:20:47Z</time>
      </trkpt>
      <trkpt lat="40.303549" lon="-5.869205">
        <ele>661.408</ele>
        <time>2019-03-01T04:20:48Z</time>
      </trkpt>
      <trkpt lat="40.303573" lon="-5.869198">
        <ele>661.536</ele>
        <time>2019-03-01T04:20:49Z</time>
      </trkpt>
      <trkpt lat="40.303593" lon="-5.869191">
        <ele>661.687</ele>
        <time>2019-03-01T04:20:50Z</time>
      </trkpt>
      <trkpt lat="40.303994" lon="-5.869112">
        <ele>663.438</ele>
        <time>2019-03-01T04:21:05Z</time>
      </trkpt>
      <trkpt lat="40.304520" lon="-5.869000">
        <ele>666.687</ele>
        <time>2019-03-01T04:21:25Z</time>
      </trkpt>
      <trkpt lat="40.304984" lon="-5.868826">
        <ele>669.271</ele>
        <time>2019-03-01T04:21:43Z</time>
      </trkpt>
      <trkpt lat="40.305418" lon="-5.868595">
        <ele>670.654</ele>
        <time>2019-03-01T04:22:01Z</time>
      </trkpt>
      <trkpt lat="40.305946" lon="-5.868149">
        <ele>671.433</ele>
        <time>2019-03-01T04:22:16Z</time>
      </trkpt>
      <trkpt lat="40.306878" lon="-5.867298">
        <ele>672.782</ele>
        <time>2019-03-01T04:22:35Z</time>
      </trkpt>
      <trkpt lat="40.307686" lon="-5.866345">
        <ele>674.046</ele>
        <time>2019-03-01T04:22:51Z</time>
      </trkpt>
      <trkpt lat="40.307740" lon="-5.866306">
        <ele>674.088</ele>
        <time>2019-03-01T04:22:54Z</time>
      </trkpt>
      <trkpt lat="40.307745" lon="-5.866333">
        <ele>674.016</ele>
        <time>2019-03-01T04:22:55Z</time>
      </trkpt>
      <trkpt lat="40.307748" lon="-5.866356">
        <ele>673.908</ele>
        <time>2019-03-01T04:22:56Z</time>
      </trkpt>
      <trkpt lat="40.307765" lon="-5.866379">
        <ele>673.937</ele>
        <time>2019-03-01T04:23:02Z</time>
      </trkpt>
      <trkpt lat="40.307867" lon="-5.866356">
        <ele>673.778</ele>
        <time>2019-03-01T04:24:39Z</time>
      </trkpt>
      <trkpt lat="40.308101" lon="-5.865970">
        <ele>672.479</ele>
        <time>2019-03-01T04:24:49Z</time>
      </trkpt>
      <trkpt lat="40.308182" lon="-5.865862">
        <ele>672.068</ele>
        <time>2019-03-01T04:24:57Z</time>
      </trkpt>
      <trkpt lat="40.308411" lon="-5.865537">
        <ele>671.232</ele>
        <time>2019-03-01T04:25:10Z</time>
      </trkpt>
      <trkpt lat="40.308782" lon="-5.865169">
        <ele>671.475</ele>
        <time>2019-03-01T04:25:23Z</time>
      </trkpt>
      <trkpt lat="40.309004" lon="-5.865056">
        <ele>668.074</ele>
        <time>2019-03-01T04:25:30Z</time>
      </trkpt>
      <trkpt lat="40.309039" lon="-5.865035">
        <ele>667.623</ele>
        <time>2019-03-01T04:25:31Z</time>
      </trkpt>
      <trkpt lat="40.309511" lon="-5.864852">
        <ele>665.734</ele>
        <time>2019-03-01T04:25:43Z</time>
      </trkpt>
      <trkpt lat="40.309725" lon="-5.864700">
        <ele>667.155</ele>
        <time>2019-03-01T04:25:53Z</time>
      </trkpt>
      <trkpt lat="40.309898" lon="-5.864560">
        <ele>668.710</ele>
        <time>2019-03-01T04:26:05Z</time>
      </trkpt>
      <trkpt lat="40.310010" lon="-5.864497">
        <ele>669.408</ele>
        <time>2019-03-01T04:26:16Z</time>
      </trkpt>
      <trkpt lat="40.310013" lon="-5.864495">
        <ele>669.426</ele>
        <time>2019-03-01T04:26:17Z</time>
      </trkpt>
      <trkpt lat="40.310117" lon="-5.864427">
        <ele>670.187</ele>
        <time>2019-03-01T04:27:00Z</time>
      </trkpt>
      <trkpt lat="40.310315" lon="-5.864291">
        <ele>672.218</ele>
        <time>2019-03-01T04:27:13Z</time>
      </trkpt>
      <trkpt lat="40.310470" lon="-5.864178">
        <ele>674.237</ele>
        <time>2019-03-01T04:27:23Z</time>
      </trkpt>
      <trkpt lat="40.310574" lon="-5.864098">
        <ele>675.871</ele>
        <time>2019-03-01T04:27:30Z</time>
      </trkpt>
      <trkpt lat="40.310589" lon="-5.864092">
        <ele>676.084</ele>
        <time>2019-03-01T04:27:31Z</time>
      </trkpt>
      <trkpt lat="40.310734" lon="-5.864011">
        <ele>677.923</ele>
        <time>2019-03-01T04:27:43Z</time>
      </trkpt>
      <trkpt lat="40.310748" lon="-5.863999">
        <ele>678.192</ele>
        <time>2019-03-01T04:27:44Z</time>
      </trkpt>
      <trkpt lat="40.310762" lon="-5.863992">
        <ele>678.392</ele>
        <time>2019-03-01T04:27:45Z</time>
      </trkpt>
      <trkpt lat="40.310940" lon="-5.863877">
        <ele>680.073</ele>
        <time>2019-03-01T04:27:57Z</time>
      </trkpt>
      <trkpt lat="40.311058" lon="-5.863802">
        <ele>681.020</ele>
        <time>2019-03-01T04:28:07Z</time>
      </trkpt>
      <trkpt lat="40.311080" lon="-5.863791">
        <ele>681.208</ele>
        <time>2019-03-01T04:28:09Z</time>
      </trkpt>
      <trkpt lat="40.311093" lon="-5.863783">
        <ele>681.382</ele>
        <time>2019-03-01T04:28:10Z</time>
      </trkpt>
      <trkpt lat="40.311107" lon="-5.863775">
        <ele>681.463</ele>
        <time>2019-03-01T04:28:11Z</time>
      </trkpt>
      <trkpt lat="40.311153" lon="-5.863748">
        <ele>681.874</ele>
        <time>2019-03-01T04:28:15Z</time>
      </trkpt>
      <trkpt lat="40.311165" lon="-5.863736">
        <ele>681.963</ele>
        <time>2019-03-01T04:28:16Z</time>
      </trkpt>
      <trkpt lat="40.311181" lon="-5.863721">
        <ele>682.067</ele>
        <time>2019-03-01T04:28:17Z</time>
      </trkpt>
      <trkpt lat="40.311339" lon="-5.863586">
        <ele>683.210</ele>
        <time>2019-03-01T04:28:28Z</time>
      </trkpt>
      <trkpt lat="40.311499" lon="-5.863447">
        <ele>684.279</ele>
        <time>2019-03-01T04:28:40Z</time>
      </trkpt>
      <trkpt lat="40.311703" lon="-5.863315">
        <ele>685.798</ele>
        <time>2019-03-01T04:28:54Z</time>
      </trkpt>
      <trkpt lat="40.311930" lon="-5.863205">
        <ele>687.759</ele>
        <time>2019-03-01T04:29:10Z</time>
      </trkpt>
      <trkpt lat="40.312129" lon="-5.863088">
        <ele>689.803</ele>
        <time>2019-03-01T04:29:25Z</time>
      </trkpt>
      <trkpt lat="40.312297" lon="-5.863004">
        <ele>691.023</ele>
        <time>2019-03-01T04:29:40Z</time>
      </trkpt>
      <trkpt lat="40.312304" lon="-5.862994">
        <ele>691.108</ele>
        <time>2019-03-01T04:29:41Z</time>
      </trkpt>
      <trkpt lat="40.312314" lon="-5.862988">
        <ele>691.228</ele>
        <time>2019-03-01T04:29:42Z</time>
      </trkpt>
      <trkpt lat="40.312327" lon="-5.862985">
        <ele>691.419</ele>
        <time>2019-03-01T04:29:43Z</time>
      </trkpt>
      <trkpt lat="40.312342" lon="-5.862980">
        <ele>691.530</ele>
        <time>2019-03-01T04:29:44Z</time>
      </trkpt>
      <trkpt lat="40.312357" lon="-5.862974">
        <ele>691.659</ele>
        <time>2019-03-01T04:29:45Z</time>
      </trkpt>
      <trkpt lat="40.312478" lon="-5.862926">
        <ele>693.013</ele>
        <time>2019-03-01T04:29:55Z</time>
      </trkpt>
      <trkpt lat="40.312486" lon="-5.862915">
        <ele>693.126</ele>
        <time>2019-03-01T04:29:56Z</time>
      </trkpt>
      <trkpt lat="40.312491" lon="-5.862890">
        <ele>693.485</ele>
        <time>2019-03-01T04:29:58Z</time>
      </trkpt>
      <trkpt lat="40.312490" lon="-5.862876">
        <ele>693.564</ele>
        <time>2019-03-01T04:29:59Z</time>
      </trkpt>
      <trkpt lat="40.312500" lon="-5.862863">
        <ele>693.747</ele>
        <time>2019-03-01T04:30:00Z</time>
      </trkpt>
      <trkpt lat="40.312512" lon="-5.862846">
        <ele>693.929</ele>
        <time>2019-03-01T04:30:01Z</time>
      </trkpt>
      <trkpt lat="40.312521" lon="-5.862831">
        <ele>694.121</ele>
        <time>2019-03-01T04:30:02Z</time>
      </trkpt>
      <trkpt lat="40.312536" lon="-5.862816">
        <ele>694.308</ele>
        <time>2019-03-01T04:30:03Z</time>
      </trkpt>
      <trkpt lat="40.312548" lon="-5.862804">
        <ele>694.477</ele>
        <time>2019-03-01T04:30:04Z</time>
      </trkpt>
      <trkpt lat="40.312562" lon="-5.862799">
        <ele>694.658</ele>
        <time>2019-03-01T04:30:05Z</time>
      </trkpt>
      <trkpt lat="40.312578" lon="-5.862793">
        <ele>694.789</ele>
        <time>2019-03-01T04:30:06Z</time>
      </trkpt>
      <trkpt lat="40.312586" lon="-5.862791">
        <ele>694.718</ele>
        <time>2019-03-01T04:30:10Z</time>
      </trkpt>
      <trkpt lat="40.312575" lon="-5.862739">
        <ele>694.412</ele>
        <time>2019-03-01T04:30:28Z</time>
      </trkpt>
      <trkpt lat="40.312578" lon="-5.862710">
        <ele>694.285</ele>
        <time>2019-03-01T04:30:29Z</time>
      </trkpt>
      <trkpt lat="40.312591" lon="-5.862684">
        <ele>694.034</ele>
        <time>2019-03-01T04:30:30Z</time>
      </trkpt>
      <trkpt lat="40.312605" lon="-5.862663">
        <ele>693.953</ele>
        <time>2019-03-01T04:30:31Z</time>
      </trkpt>
      <trkpt lat="40.312910" lon="-5.862411">
        <ele>690.733</ele>
        <time>2019-03-01T04:30:47Z</time>
      </trkpt>
      <trkpt lat="40.313157" lon="-5.862248">
        <ele>689.523</ele>
        <time>2019-03-01T04:31:00Z</time>
      </trkpt>
      <trkpt lat="40.313425" lon="-5.861816">
        <ele>689.715</ele>
        <time>2019-03-01T04:31:14Z</time>
      </trkpt>
      <trkpt lat="40.313702" lon="-5.861310">
        <ele>690.108</ele>
        <time>2019-03-01T04:31:29Z</time>
      </trkpt>
      <trkpt lat="40.314232" lon="-5.860765">
        <ele>689.816</ele>
        <time>2019-03-01T04:31:45Z</time>
      </trkpt>
      <trkpt lat="40.314794" lon="-5.860346">
        <ele>690.737</ele>
        <time>2019-03-01T04:32:01Z</time>
      </trkpt>
      <trkpt lat="40.315311" lon="-5.860092">
        <ele>693.338</ele>
        <time>2019-03-01T04:32:18Z</time>
      </trkpt>
      <trkpt lat="40.315546" lon="-5.859923">
        <ele>695.397</ele>
        <time>2019-03-01T04:32:31Z</time>
      </trkpt>
      <trkpt lat="40.315595" lon="-5.859852">
        <ele>696.291</ele>
        <time>2019-03-01T04:32:39Z</time>
      </trkpt>
      <trkpt lat="40.315625" lon="-5.859762">
        <ele>696.744</ele>
        <time>2019-03-01T04:34:21Z</time>
      </trkpt>
      <trkpt lat="40.315674" lon="-5.859648">
        <ele>697.583</ele>
        <time>2019-03-01T04:34:32Z</time>
      </trkpt>
      <trkpt lat="40.315677" lon="-5.859643">
        <ele>697.542</ele>
        <time>2019-03-01T04:34:33Z</time>
      </trkpt>
      <trkpt lat="40.315771" lon="-5.859555">
        <ele>698.497</ele>
        <time>2019-03-01T04:35:05Z</time>
      </trkpt>
      <trkpt lat="40.315844" lon="-5.859453">
        <ele>699.223</ele>
        <time>2019-03-01T04:35:12Z</time>
      </trkpt>
      <trkpt lat="40.315857" lon="-5.859443">
        <ele>699.425</ele>
        <time>2019-03-01T04:35:13Z</time>
      </trkpt>
      <trkpt lat="40.315868" lon="-5.859432">
        <ele>699.508</ele>
        <time>2019-03-01T04:35:14Z</time>
      </trkpt>
      <trkpt lat="40.316022" lon="-5.859257">
        <ele>701.082</ele>
        <time>2019-03-01T04:35:28Z</time>
      </trkpt>
      <trkpt lat="40.316052" lon="-5.859223">
        <ele>701.383</ele>
        <time>2019-03-01T04:35:31Z</time>
      </trkpt>
      <trkpt lat="40.316107" lon="-5.859072">
        <ele>702.454</ele>
        <time>2019-03-01T04:35:41Z</time>
      </trkpt>
      <trkpt lat="40.316072" lon="-5.858973">
        <ele>703.143</ele>
        <time>2019-03-01T04:35:46Z</time>
      </trkpt>
      <trkpt lat="40.316042" lon="-5.858879">
        <ele>703.827</ele>
        <time>2019-03-01T04:35:51Z</time>
      </trkpt>
      <trkpt lat="40.316110" lon="-5.858639">
        <ele>705.850</ele>
        <time>2019-03-01T04:36:03Z</time>
      </trkpt>
      <trkpt lat="40.316120" lon="-5.858608">
        <ele>706.139</ele>
        <time>2019-03-01T04:36:08Z</time>
      </trkpt>
      <trkpt lat="40.316260" lon="-5.858572">
        <ele>705.648</ele>
        <time>2019-03-01T04:36:35Z</time>
      </trkpt>
      <trkpt lat="40.316275" lon="-5.858558">
        <ele>705.487</ele>
        <time>2019-03-01T04:36:36Z</time>
      </trkpt>
      <trkpt lat="40.316450" lon="-5.858709">
        <ele>704.242</ele>
        <time>2019-03-01T04:36:46Z</time>
      </trkpt>
      <trkpt lat="40.316543" lon="-5.858711">
        <ele>703.826</ele>
        <time>2019-03-01T04:36:55Z</time>
      </trkpt>
      <trkpt lat="40.316544" lon="-5.858708">
        <ele>703.808</ele>
        <time>2019-03-01T04:36:56Z</time>
      </trkpt>
      <trkpt lat="40.316582" lon="-5.858780">
        <ele>703.691</ele>
        <time>2019-03-01T04:37:16Z</time>
      </trkpt>
      <trkpt lat="40.316813" lon="-5.858908">
        <ele>703.312</ele>
        <time>2019-03-01T04:37:25Z</time>
      </trkpt>
      <trkpt lat="40.316907" lon="-5.858950">
        <ele>703.583</ele>
        <time>2019-03-01T04:37:33Z</time>
      </trkpt>
      <trkpt lat="40.316919" lon="-5.858947">
        <ele>703.552</ele>
        <time>2019-03-01T04:37:34Z</time>
      </trkpt>
      <trkpt lat="40.317036" lon="-5.858940">
        <ele>703.886</ele>
        <time>2019-03-01T04:37:41Z</time>
      </trkpt>
      <trkpt lat="40.317201" lon="-5.858917">
        <ele>704.239</ele>
        <time>2019-03-01T04:37:49Z</time>
      </trkpt>
      <trkpt lat="40.317285" lon="-5.858874">
        <ele>704.598</ele>
        <time>2019-03-01T04:37:53Z</time>
      </trkpt>
      <trkpt lat="40.317343" lon="-5.858856">
        <ele>704.647</ele>
        <time>2019-03-01T04:37:56Z</time>
      </trkpt>
      <trkpt lat="40.317519" lon="-5.858670">
        <ele>705.845</ele>
        <time>2019-03-01T04:38:05Z</time>
      </trkpt>
      <trkpt lat="40.317525" lon="-5.858648">
        <ele>705.847</ele>
        <time>2019-03-01T04:38:06Z</time>
      </trkpt>
      <trkpt lat="40.317598" lon="-5.858398">
        <ele>706.711</ele>
        <time>2019-03-01T04:38:14Z</time>
      </trkpt>
      <trkpt lat="40.317621" lon="-5.858364">
        <ele>706.808</ele>
        <time>2019-03-01T04:38:15Z</time>
      </trkpt>
      <trkpt lat="40.317637" lon="-5.858329">
        <ele>706.877</ele>
        <time>2019-03-01T04:38:16Z</time>
      </trkpt>
      <trkpt lat="40.317777" lon="-5.857989">
        <ele>708.688</ele>
        <time>2019-03-01T04:38:27Z</time>
      </trkpt>
      <trkpt lat="40.317781" lon="-5.857962">
        <ele>708.759</ele>
        <time>2019-03-01T04:38:28Z</time>
      </trkpt>
      <trkpt lat="40.317784" lon="-5.857935">
        <ele>708.978</ele>
        <time>2019-03-01T04:38:29Z</time>
      </trkpt>
      <trkpt lat="40.317786" lon="-5.857903">
        <ele>709.062</ele>
        <time>2019-03-01T04:38:30Z</time>
      </trkpt>
      <trkpt lat="40.317790" lon="-5.857871">
        <ele>709.115</ele>
        <time>2019-03-01T04:38:31Z</time>
      </trkpt>
      <trkpt lat="40.317794" lon="-5.857839">
        <ele>709.394</ele>
        <time>2019-03-01T04:38:32Z</time>
      </trkpt>
      <trkpt lat="40.317792" lon="-5.857808">
        <ele>709.433</ele>
        <time>2019-03-01T04:38:33Z</time>
      </trkpt>
      <trkpt lat="40.317780" lon="-5.857785">
        <ele>709.511</ele>
        <time>2019-03-01T04:38:34Z</time>
      </trkpt>
      <trkpt lat="40.317791" lon="-5.857689">
        <ele>710.021</ele>
        <time>2019-03-01T04:38:37Z</time>
      </trkpt>
      <trkpt lat="40.317907" lon="-5.857419">
        <ele>711.503</ele>
        <time>2019-03-01T04:38:49Z</time>
      </trkpt>
      <trkpt lat="40.317917" lon="-5.857393">
        <ele>711.608</ele>
        <time>2019-03-01T04:38:50Z</time>
      </trkpt>
      <trkpt lat="40.317972" lon="-5.857247">
        <ele>712.624</ele>
        <time>2019-03-01T04:39:00Z</time>
      </trkpt>
      <trkpt lat="40.317969" lon="-5.857387">
        <ele>712.675</ele>
        <time>2019-03-01T04:52:26Z</time>
      </trkpt>
      <trkpt lat="40.318042" lon="-5.857329">
        <ele>712.866</ele>
        <time>2019-03-01T04:52:39Z</time>
      </trkpt>
      <trkpt lat="40.317961" lon="-5.857402">
        <ele>712.645</ele>
        <time>2019-03-01T04:53:23Z</time>
      </trkpt>
      <trkpt lat="40.317943" lon="-5.857411">
        <ele>712.659</ele>
        <time>2019-03-01T04:53:26Z</time>
      </trkpt>
      <trkpt lat="40.317936" lon="-5.857410">
        <ele>712.652</ele>
        <time>2019-03-01T04:53:31Z</time>
      </trkpt>
      <trkpt lat="40.318103" lon="-5.857368">
        <ele>712.921</ele>
        <time>2019-03-01T04:54:55Z</time>
      </trkpt>
      <trkpt lat="40.318247" lon="-5.857377">
        <ele>712.850</ele>
        <time>2019-03-01T04:55:12Z</time>
      </trkpt>
      <trkpt lat="40.318560" lon="-5.857202">
        <ele>713.752</ele>
        <time>2019-03-01T04:56:49Z</time>
      </trkpt>
      <trkpt lat="40.318602" lon="-5.857141">
        <ele>713.753</ele>
        <time>2019-03-01T04:56:53Z</time>
      </trkpt>
      <trkpt lat="40.318678" lon="-5.857026">
        <ele>715.208</ele>
        <time>2019-03-01T04:57:03Z</time>
      </trkpt>
      <trkpt lat="40.319561" lon="-5.856029">
        <ele>732.008</ele>
        <time>2019-03-01T04:59:40Z</time>
      </trkpt>
      <trkpt lat="40.319685" lon="-5.855987">
        <ele>731.848</ele>
        <time>2019-03-01T04:59:48Z</time>
      </trkpt>
      <trkpt lat="40.319774" lon="-5.855979">
        <ele>731.399</ele>
        <time>2019-03-01T04:59:53Z</time>
      </trkpt>
      <trkpt lat="40.320022" lon="-5.855946">
        <ele>731.970</ele>
        <time>2019-03-01T05:00:06Z</time>
      </trkpt>
      <trkpt lat="40.320269" lon="-5.855882">
        <ele>731.769</ele>
        <time>2019-03-01T05:00:20Z</time>
      </trkpt>
      <trkpt lat="40.320505" lon="-5.855793">
        <ele>731.863</ele>
        <time>2019-03-01T05:00:33Z</time>
      </trkpt>
      <trkpt lat="40.320724" lon="-5.855751">
        <ele>732.266</ele>
        <time>2019-03-01T05:00:45Z</time>
      </trkpt>
      <trkpt lat="40.320936" lon="-5.855706">
        <ele>732.635</ele>
        <time>2019-03-01T05:00:57Z</time>
      </trkpt>
      <trkpt lat="40.321147" lon="-5.855674">
        <ele>733.934</ele>
        <time>2019-03-01T05:01:10Z</time>
      </trkpt>
      <trkpt lat="40.321167" lon="-5.855663">
        <ele>734.275</ele>
        <time>2019-03-01T05:01:11Z</time>
      </trkpt>
      <trkpt lat="40.321464" lon="-5.855566">
        <ele>736.428</ele>
        <time>2019-03-01T05:01:27Z</time>
      </trkpt>
      <trkpt lat="40.321811" lon="-5.855537">
        <ele>738.220</ele>
        <time>2019-03-01T05:01:42Z</time>
      </trkpt>
      <trkpt lat="40.322153" lon="-5.855551">
        <ele>740.608</ele>
        <time>2019-03-01T05:01:56Z</time>
      </trkpt>
      <trkpt lat="40.322574" lon="-5.855526">
        <ele>742.150</ele>
        <time>2019-03-01T05:02:13Z</time>
      </trkpt>
      <trkpt lat="40.323079" lon="-5.855425">
        <ele>744.261</ele>
        <time>2019-03-01T05:02:35Z</time>
      </trkpt>
      <trkpt lat="40.323411" lon="-5.855287">
        <ele>746.612</ele>
        <time>2019-03-01T05:02:50Z</time>
      </trkpt>
      <trkpt lat="40.323744" lon="-5.855202">
        <ele>748.081</ele>
        <time>2019-03-01T05:03:05Z</time>
      </trkpt>
      <trkpt lat="40.324087" lon="-5.855355">
        <ele>749.585</ele>
        <time>2019-03-01T05:03:19Z</time>
      </trkpt>
      <trkpt lat="40.324488" lon="-5.855528">
        <ele>751.188</ele>
        <time>2019-03-01T05:03:36Z</time>
      </trkpt>
      <trkpt lat="40.324786" lon="-5.855668">
        <ele>753.867</ele>
        <time>2019-03-01T05:03:49Z</time>
      </trkpt>
      <trkpt lat="40.325146" lon="-5.855857">
        <ele>755.656</ele>
        <time>2019-03-01T05:04:06Z</time>
      </trkpt>
      <trkpt lat="40.325285" lon="-5.855975">
        <ele>756.249</ele>
        <time>2019-03-01T05:04:14Z</time>
      </trkpt>
      <trkpt lat="40.325300" lon="-5.856002">
        <ele>756.302</ele>
        <time>2019-03-01T05:04:15Z</time>
      </trkpt>
      <trkpt lat="40.325312" lon="-5.856032">
        <ele>756.422</ele>
        <time>2019-03-01T05:04:16Z</time>
      </trkpt>
      <trkpt lat="40.325322" lon="-5.856066">
        <ele>756.508</ele>
        <time>2019-03-01T05:04:17Z</time>
      </trkpt>
      <trkpt lat="40.325329" lon="-5.856100">
        <ele>756.667</ele>
        <time>2019-03-01T05:04:18Z</time>
      </trkpt>
      <trkpt lat="40.325330" lon="-5.856135">
        <ele>756.718</ele>
        <time>2019-03-01T05:04:19Z</time>
      </trkpt>
      <trkpt lat="40.325328" lon="-5.856172">
        <ele>756.959</ele>
        <time>2019-03-01T05:04:20Z</time>
      </trkpt>
      <trkpt lat="40.325320" lon="-5.856209">
        <ele>757.088</ele>
        <time>2019-03-01T05:04:21Z</time>
      </trkpt>
      <trkpt lat="40.325307" lon="-5.856247">
        <ele>757.292</ele>
        <time>2019-03-01T05:04:22Z</time>
      </trkpt>
      <trkpt lat="40.325291" lon="-5.856284">
        <ele>757.415</ele>
        <time>2019-03-01T05:04:23Z</time>
      </trkpt>
      <trkpt lat="40.324990" lon="-5.856643">
        <ele>760.234</ele>
        <time>2019-03-01T05:04:37Z</time>
      </trkpt>
      <trkpt lat="40.324594" lon="-5.857048">
        <ele>765.393</ele>
        <time>2019-03-01T05:04:57Z</time>
      </trkpt>
      <trkpt lat="40.324236" lon="-5.857442">
        <ele>769.057</ele>
        <time>2019-03-01T05:05:15Z</time>
      </trkpt>
      <trkpt lat="40.323982" lon="-5.857814">
        <ele>773.200</ele>
        <time>2019-03-01T05:05:30Z</time>
      </trkpt>
      <trkpt lat="40.323893" lon="-5.858404">
        <ele>778.520</ele>
        <time>2019-03-01T05:05:49Z</time>
      </trkpt>
      <trkpt lat="40.324007" lon="-5.859018">
        <ele>784.708</ele>
        <time>2019-03-01T05:06:09Z</time>
      </trkpt>
      <trkpt lat="40.324156" lon="-5.859560">
        <ele>787.628</ele>
        <time>2019-03-01T05:06:27Z</time>
      </trkpt>
      <trkpt lat="40.324237" lon="-5.860032">
        <ele>789.439</ele>
        <time>2019-03-01T05:06:42Z</time>
      </trkpt>
      <trkpt lat="40.324123" lon="-5.860493">
        <ele>793.010</ele>
        <time>2019-03-01T05:06:55Z</time>
      </trkpt>
      <trkpt lat="40.324313" lon="-5.860720">
        <ele>795.279</ele>
        <time>2019-03-01T05:07:06Z</time>
      </trkpt>
      <trkpt lat="40.324640" lon="-5.860586">
        <ele>799.913</ele>
        <time>2019-03-01T05:07:20Z</time>
      </trkpt>
      <trkpt lat="40.324987" lon="-5.860356">
        <ele>805.266</ele>
        <time>2019-03-01T05:07:36Z</time>
      </trkpt>
      <trkpt lat="40.325227" lon="-5.860110">
        <ele>809.125</ele>
        <time>2019-03-01T05:07:49Z</time>
      </trkpt>
      <trkpt lat="40.325565" lon="-5.859756">
        <ele>808.814</ele>
        <time>2019-03-01T05:08:06Z</time>
      </trkpt>
      <trkpt lat="40.325947" lon="-5.859381">
        <ele>808.744</ele>
        <time>2019-03-01T05:08:25Z</time>
      </trkpt>
      <trkpt lat="40.326218" lon="-5.859058">
        <ele>812.305</ele>
        <time>2019-03-01T05:08:40Z</time>
      </trkpt>
      <trkpt lat="40.326563" lon="-5.858764">
        <ele>818.215</ele>
        <time>2019-03-01T05:08:56Z</time>
      </trkpt>
      <trkpt lat="40.326900" lon="-5.858451">
        <ele>818.008</ele>
        <time>2019-03-01T05:09:13Z</time>
      </trkpt>
      <trkpt lat="40.327080" lon="-5.858284">
        <ele>817.597</ele>
        <time>2019-03-01T05:09:23Z</time>
      </trkpt>
      <trkpt lat="40.327386" lon="-5.857956">
        <ele>816.938</ele>
        <time>2019-03-01T05:09:39Z</time>
      </trkpt>
      <trkpt lat="40.327805" lon="-5.857464">
        <ele>816.179</ele>
        <time>2019-03-01T05:10:02Z</time>
      </trkpt>
      <trkpt lat="40.327987" lon="-5.857100">
        <ele>815.748</ele>
        <time>2019-03-01T05:10:16Z</time>
      </trkpt>
      <trkpt lat="40.327975" lon="-5.857074">
        <ele>815.752</ele>
        <time>2019-03-01T05:10:17Z</time>
      </trkpt>
      <trkpt lat="40.327958" lon="-5.857053">
        <ele>815.725</ele>
        <time>2019-03-01T05:10:18Z</time>
      </trkpt>
      <trkpt lat="40.327937" lon="-5.857037">
        <ele>815.764</ele>
        <time>2019-03-01T05:10:19Z</time>
      </trkpt>
      <trkpt lat="40.327916" lon="-5.857023">
        <ele>815.653</ele>
        <time>2019-03-01T05:10:20Z</time>
      </trkpt>
      <trkpt lat="40.327609" lon="-5.857090">
        <ele>815.522</ele>
        <time>2019-03-01T05:10:33Z</time>
      </trkpt>
      <trkpt lat="40.327284" lon="-5.857114">
        <ele>815.862</ele>
        <time>2019-03-01T05:10:47Z</time>
      </trkpt>
      <trkpt lat="40.327083" lon="-5.856736">
        <ele>816.108</ele>
        <time>2019-03-01T05:11:01Z</time>
      </trkpt>
      <trkpt lat="40.326916" lon="-5.856247">
        <ele>816.208</ele>
        <time>2019-03-01T05:11:18Z</time>
      </trkpt>
      <trkpt lat="40.326908" lon="-5.855787">
        <ele>816.255</ele>
        <time>2019-03-01T05:11:33Z</time>
      </trkpt>
      <trkpt lat="40.327176" lon="-5.855545">
        <ele>816.036</ele>
        <time>2019-03-01T05:11:47Z</time>
      </trkpt>
      <trkpt lat="40.327407" lon="-5.855584">
        <ele>817.377</ele>
        <time>2019-03-01T05:12:01Z</time>
      </trkpt>
      <trkpt lat="40.327417" lon="-5.855593">
        <ele>817.456</ele>
        <time>2019-03-01T05:13:10Z</time>
      </trkpt>
      <trkpt lat="40.327426" lon="-5.855603">
        <ele>817.630</ele>
        <time>2019-03-01T05:13:11Z</time>
      </trkpt>
      <trkpt lat="40.327372" lon="-5.855591">
        <ele>818.293</ele>
        <time>2019-03-01T05:13:35Z</time>
      </trkpt>
      <trkpt lat="40.327375" lon="-5.855604">
        <ele>818.332</ele>
        <time>2019-03-01T05:13:40Z</time>
      </trkpt>
      <trkpt lat="40.327422" lon="-5.855644">
        <ele>818.931</ele>
        <time>2019-03-01T05:14:53Z</time>
      </trkpt>
      <trkpt lat="40.327527" lon="-5.855694">
        <ele>820.259</ele>
        <time>2019-03-01T05:15:07Z</time>
      </trkpt>
      <trkpt lat="40.327843" lon="-5.855714">
        <ele>823.603</ele>
        <time>2019-03-01T05:15:22Z</time>
      </trkpt>
      <trkpt lat="40.328202" lon="-5.855551">
        <ele>827.523</ele>
        <time>2019-03-01T05:15:41Z</time>
      </trkpt>
      <trkpt lat="40.328578" lon="-5.855328">
        <ele>832.108</ele>
        <time>2019-03-01T05:15:59Z</time>
      </trkpt>
      <trkpt lat="40.328909" lon="-5.855142">
        <ele>836.318</ele>
        <time>2019-03-01T05:16:16Z</time>
      </trkpt>
      <trkpt lat="40.329284" lon="-5.854919">
        <ele>840.179</ele>
        <time>2019-03-01T05:16:34Z</time>
      </trkpt>
      <trkpt lat="40.329677" lon="-5.854556">
        <ele>845.230</ele>
        <time>2019-03-01T05:16:54Z</time>
      </trkpt>
      <trkpt lat="40.329970" lon="-5.854140">
        <ele>849.199</ele>
        <time>2019-03-01T05:17:13Z</time>
      </trkpt>
      <trkpt lat="40.330340" lon="-5.853712">
        <ele>852.653</ele>
        <time>2019-03-01T05:17:33Z</time>
      </trkpt>
      <trkpt lat="40.330698" lon="-5.853388">
        <ele>855.376</ele>
        <time>2019-03-01T05:17:52Z</time>
      </trkpt>
      <trkpt lat="40.330940" lon="-5.853106">
        <ele>856.225</ele>
        <time>2019-03-01T05:18:07Z</time>
      </trkpt>
      <trkpt lat="40.331113" lon="-5.852889">
        <ele>857.884</ele>
        <time>2019-03-01T05:18:20Z</time>
      </trkpt>
      <trkpt lat="40.331308" lon="-5.852673">
        <ele>860.432</ele>
        <time>2019-03-01T05:18:31Z</time>
      </trkpt>
      <trkpt lat="40.331522" lon="-5.852515">
        <ele>862.392</ele>
        <time>2019-03-01T05:18:42Z</time>
      </trkpt>
      <trkpt lat="40.331667" lon="-5.852424">
        <ele>863.011</ele>
        <time>2019-03-01T05:18:51Z</time>
      </trkpt>
      <trkpt lat="40.331685" lon="-5.852415">
        <ele>863.108</ele>
        <time>2019-03-01T05:18:52Z</time>
      </trkpt>
      <trkpt lat="40.331702" lon="-5.852407">
        <ele>863.136</ele>
        <time>2019-03-01T05:18:53Z</time>
      </trkpt>
      <trkpt lat="40.331723" lon="-5.852390">
        <ele>863.287</ele>
        <time>2019-03-01T05:18:54Z</time>
      </trkpt>
      <trkpt lat="40.331746" lon="-5.852378">
        <ele>863.378</ele>
        <time>2019-03-01T05:18:55Z</time>
      </trkpt>
      <trkpt lat="40.331765" lon="-5.852362">
        <ele>863.467</ele>
        <time>2019-03-01T05:18:56Z</time>
      </trkpt>
      <trkpt lat="40.331787" lon="-5.852345">
        <ele>863.591</ele>
        <time>2019-03-01T05:18:57Z</time>
      </trkpt>
      <trkpt lat="40.332048" lon="-5.852142">
        <ele>865.194</ele>
        <time>2019-03-01T05:19:09Z</time>
      </trkpt>
      <trkpt lat="40.332302" lon="-5.852043">
        <ele>866.813</ele>
        <time>2019-03-01T05:19:22Z</time>
      </trkpt>
      <trkpt lat="40.332589" lon="-5.851979">
        <ele>868.572</ele>
        <time>2019-03-01T05:19:35Z</time>
      </trkpt>
      <trkpt lat="40.332866" lon="-5.851951">
        <ele>870.393</ele>
        <time>2019-03-01T05:19:48Z</time>
      </trkpt>
      <trkpt lat="40.333178" lon="-5.851883">
        <ele>872.765</ele>
        <time>2019-03-01T05:20:02Z</time>
      </trkpt>
      <trkpt lat="40.333553" lon="-5.851776">
        <ele>875.321</ele>
        <time>2019-03-01T05:20:17Z</time>
      </trkpt>
      <trkpt lat="40.333853" lon="-5.851647">
        <ele>878.508</ele>
        <time>2019-03-01T05:20:29Z</time>
      </trkpt>
      <trkpt lat="40.334224" lon="-5.851460">
        <ele>885.292</ele>
        <time>2019-03-01T05:20:45Z</time>
      </trkpt>
      <trkpt lat="40.334651" lon="-5.851166">
        <ele>890.163</ele>
        <time>2019-03-01T05:21:03Z</time>
      </trkpt>
      <trkpt lat="40.334969" lon="-5.850968">
        <ele>890.954</ele>
        <time>2019-03-01T05:21:18Z</time>
      </trkpt>
      <trkpt lat="40.335285" lon="-5.850770">
        <ele>891.993</ele>
        <time>2019-03-01T05:21:32Z</time>
      </trkpt>
      <trkpt lat="40.335613" lon="-5.850542">
        <ele>892.827</ele>
        <time>2019-03-01T05:21:46Z</time>
      </trkpt>
      <trkpt lat="40.336035" lon="-5.850262">
        <ele>893.730</ele>
        <time>2019-03-01T05:22:05Z</time>
      </trkpt>
      <trkpt lat="40.336384" lon="-5.850048">
        <ele>894.459</ele>
        <time>2019-03-01T05:22:21Z</time>
      </trkpt>
      <trkpt lat="40.336746" lon="-5.849817">
        <ele>895.088</ele>
        <time>2019-03-01T05:22:38Z</time>
      </trkpt>
      <trkpt lat="40.337138" lon="-5.849641">
        <ele>895.639</ele>
        <time>2019-03-01T05:22:56Z</time>
      </trkpt>
      <trkpt lat="40.337447" lon="-5.849587">
        <ele>895.901</ele>
        <time>2019-03-01T05:23:09Z</time>
      </trkpt>
      <trkpt lat="40.337679" lon="-5.849576">
        <ele>896.021</ele>
        <time>2019-03-01T05:23:21Z</time>
      </trkpt>
      <trkpt lat="40.338062" lon="-5.849485">
        <ele>895.808</ele>
        <time>2019-03-01T05:23:35Z</time>
      </trkpt>
      <trkpt lat="40.338486" lon="-5.849407">
        <ele>895.356</ele>
        <time>2019-03-01T05:23:51Z</time>
      </trkpt>
      <trkpt lat="40.338961" lon="-5.849301">
        <ele>894.397</ele>
        <time>2019-03-01T05:24:09Z</time>
      </trkpt>
      <trkpt lat="40.339525" lon="-5.849167">
        <ele>893.698</ele>
        <time>2019-03-01T05:24:27Z</time>
      </trkpt>
      <trkpt lat="40.339558" lon="-5.849149">
        <ele>894.017</ele>
        <time>2019-03-01T05:24:32Z</time>
      </trkpt>
      <trkpt lat="40.339634" lon="-5.849168">
        <ele>894.941</ele>
        <time>2019-03-01T05:25:53Z</time>
      </trkpt>
      <trkpt lat="40.340116" lon="-5.849045">
        <ele>898.974</ele>
        <time>2019-03-01T05:26:07Z</time>
      </trkpt>
      <trkpt lat="40.340365" lon="-5.848938">
        <ele>901.713</ele>
        <time>2019-03-01T05:26:13Z</time>
      </trkpt>
      <trkpt lat="40.341118" lon="-5.848483">
        <ele>898.552</ele>
        <time>2019-03-01T05:26:27Z</time>
      </trkpt>
      <trkpt lat="40.342224" lon="-5.847850">
        <ele>897.213</ele>
        <time>2019-03-01T05:26:42Z</time>
      </trkpt>
      <trkpt lat="40.343003" lon="-5.847426">
        <ele>898.743</ele>
        <time>2019-03-01T05:26:54Z</time>
      </trkpt>
      <trkpt lat="40.343339" lon="-5.847318">
        <ele>896.407</ele>
        <time>2019-03-01T05:27:05Z</time>
      </trkpt>
      <trkpt lat="40.343800" lon="-5.847028">
        <ele>893.108</ele>
        <time>2019-03-01T05:27:16Z</time>
      </trkpt>
      <trkpt lat="40.344233" lon="-5.846811">
        <ele>890.474</ele>
        <time>2019-03-01T05:27:28Z</time>
      </trkpt>
      <trkpt lat="40.344673" lon="-5.846657">
        <ele>889.095</ele>
        <time>2019-03-01T05:27:41Z</time>
      </trkpt>
      <trkpt lat="40.345000" lon="-5.846590">
        <ele>887.316</ele>
        <time>2019-03-01T05:27:50Z</time>
      </trkpt>
      <trkpt lat="40.345052" lon="-5.846582">
        <ele>887.095</ele>
        <time>2019-03-01T05:27:51Z</time>
      </trkpt>
      <trkpt lat="40.345682" lon="-5.846557">
        <ele>884.949</ele>
        <time>2019-03-01T05:28:02Z</time>
      </trkpt>
      <trkpt lat="40.345853" lon="-5.846557">
        <ele>884.572</ele>
        <time>2019-03-01T05:28:05Z</time>
      </trkpt>
      <trkpt lat="40.345907" lon="-5.846564">
        <ele>884.381</ele>
        <time>2019-03-01T05:28:06Z</time>
      </trkpt>
      <trkpt lat="40.346056" lon="-5.846578">
        <ele>883.810</ele>
        <time>2019-03-01T05:28:09Z</time>
      </trkpt>
      <trkpt lat="40.346096" lon="-5.846577">
        <ele>883.775</ele>
        <time>2019-03-01T05:28:10Z</time>
      </trkpt>
      <trkpt lat="40.346133" lon="-5.846581">
        <ele>883.728</ele>
        <time>2019-03-01T05:28:11Z</time>
      </trkpt>
      <trkpt lat="40.346165" lon="-5.846589">
        <ele>883.620</ele>
        <time>2019-03-01T05:28:12Z</time>
      </trkpt>
      <trkpt lat="40.346195" lon="-5.846602">
        <ele>883.608</ele>
        <time>2019-03-01T05:28:13Z</time>
      </trkpt>
      <trkpt lat="40.346224" lon="-5.846611">
        <ele>883.590</ele>
        <time>2019-03-01T05:28:14Z</time>
      </trkpt>
      <trkpt lat="40.346252" lon="-5.846617">
        <ele>883.541</ele>
        <time>2019-03-01T05:28:15Z</time>
      </trkpt>
      <trkpt lat="40.346577" lon="-5.846619">
        <ele>883.162</ele>
        <time>2019-03-01T05:28:26Z</time>
      </trkpt>
      <trkpt lat="40.346774" lon="-5.846596">
        <ele>882.941</ele>
        <time>2019-03-01T05:28:35Z</time>
      </trkpt>
      <trkpt lat="40.346812" lon="-5.846584">
        <ele>882.885</ele>
        <time>2019-03-01T05:28:42Z</time>
      </trkpt>
      <trkpt lat="40.347065" lon="-5.846677">
        <ele>882.588</ele>
        <time>2019-03-01T05:30:25Z</time>
      </trkpt>
      <trkpt lat="40.347357" lon="-5.846751">
        <ele>882.417</ele>
        <time>2019-03-01T05:30:37Z</time>
      </trkpt>
      <trkpt lat="40.347856" lon="-5.846686">
        <ele>882.366</ele>
        <time>2019-03-01T05:30:51Z</time>
      </trkpt>
      <trkpt lat="40.348352" lon="-5.846679">
        <ele>881.886</ele>
        <time>2019-03-01T05:31:05Z</time>
      </trkpt>
      <trkpt lat="40.348378" lon="-5.846689">
        <ele>881.760</ele>
        <time>2019-03-01T05:31:06Z</time>
      </trkpt>
      <trkpt lat="40.348406" lon="-5.846701">
        <ele>881.626</ele>
        <time>2019-03-01T05:31:07Z</time>
      </trkpt>
      <trkpt lat="40.348437" lon="-5.846710">
        <ele>881.508</ele>
        <time>2019-03-01T05:31:08Z</time>
      </trkpt>
      <trkpt lat="40.348806" lon="-5.846787">
        <ele>881.041</ele>
        <time>2019-03-01T05:31:18Z</time>
      </trkpt>
      <trkpt lat="40.349013" lon="-5.846817">
        <ele>880.592</ele>
        <time>2019-03-01T05:31:22Z</time>
      </trkpt>
      <trkpt lat="40.349058" lon="-5.846825">
        <ele>880.433</ele>
        <time>2019-03-01T05:31:23Z</time>
      </trkpt>
      <trkpt lat="40.349103" lon="-5.846839">
        <ele>880.212</ele>
        <time>2019-03-01T05:31:24Z</time>
      </trkpt>
      <trkpt lat="40.349152" lon="-5.846856">
        <ele>880.056</ele>
        <time>2019-03-01T05:31:25Z</time>
      </trkpt>
      <trkpt lat="40.349198" lon="-5.846867">
        <ele>879.889</ele>
        <time>2019-03-01T05:31:26Z</time>
      </trkpt>
      <trkpt lat="40.349243" lon="-5.846881">
        <ele>879.698</ele>
        <time>2019-03-01T05:31:27Z</time>
      </trkpt>
      <trkpt lat="40.349285" lon="-5.846898">
        <ele>879.577</ele>
        <time>2019-03-01T05:31:28Z</time>
      </trkpt>
      <trkpt lat="40.349421" lon="-5.846969">
        <ele>878.966</ele>
        <time>2019-03-01T05:31:31Z</time>
      </trkpt>
      <trkpt lat="40.349574" lon="-5.847024">
        <ele>878.129</ele>
        <time>2019-03-01T05:31:38Z</time>
      </trkpt>
      <trkpt lat="40.349616" lon="-5.847020">
        <ele>877.821</ele>
        <time>2019-03-01T05:31:45Z</time>
      </trkpt>
      <trkpt lat="40.349630" lon="-5.846984">
        <ele>877.608</ele>
        <time>2019-03-01T05:32:48Z</time>
      </trkpt>
      <trkpt lat="40.349643" lon="-5.846986">
        <ele>877.669</ele>
        <time>2019-03-01T05:32:49Z</time>
      </trkpt>
      <trkpt lat="40.349663" lon="-5.846992">
        <ele>877.490</ele>
        <time>2019-03-01T05:32:54Z</time>
      </trkpt>
      <trkpt lat="40.349666" lon="-5.847064">
        <ele>877.261</ele>
        <time>2019-03-01T05:34:21Z</time>
      </trkpt>
      <trkpt lat="40.349976" lon="-5.847271">
        <ele>876.710</ele>
        <time>2019-03-01T05:34:32Z</time>
      </trkpt>
      <trkpt lat="40.350230" lon="-5.847411">
        <ele>876.664</ele>
        <time>2019-03-01T05:34:40Z</time>
      </trkpt>
      <trkpt lat="40.350280" lon="-5.847424">
        <ele>876.627</ele>
        <time>2019-03-01T05:34:41Z</time>
      </trkpt>
      <trkpt lat="40.350377" lon="-5.847448">
        <ele>876.066</ele>
        <time>2019-03-01T05:34:43Z</time>
      </trkpt>
      <trkpt lat="40.350422" lon="-5.847459">
        <ele>875.815</ele>
        <time>2019-03-01T05:34:44Z</time>
      </trkpt>
      <trkpt lat="40.350470" lon="-5.847469">
        <ele>875.623</ele>
        <time>2019-03-01T05:34:45Z</time>
      </trkpt>
      <trkpt lat="40.350563" lon="-5.847496">
        <ele>875.283</ele>
        <time>2019-03-01T05:34:47Z</time>
      </trkpt>
      <trkpt lat="40.350605" lon="-5.847517">
        <ele>875.011</ele>
        <time>2019-03-01T05:34:48Z</time>
      </trkpt>
      <trkpt lat="40.350903" lon="-5.847815">
        <ele>873.208</ele>
        <time>2019-03-01T05:34:58Z</time>
      </trkpt>
      <trkpt lat="40.350911" lon="-5.847842">
        <ele>873.065</ele>
        <time>2019-03-01T05:34:59Z</time>
      </trkpt>
      <trkpt lat="40.350923" lon="-5.847866">
        <ele>872.916</ele>
        <time>2019-03-01T05:35:05Z</time>
      </trkpt>
      <trkpt lat="40.350984" lon="-5.848000">
        <ele>872.137</ele>
        <time>2019-03-01T05:35:22Z</time>
      </trkpt>
      <trkpt lat="40.351105" lon="-5.848226">
        <ele>870.766</ele>
        <time>2019-03-01T05:35:27Z</time>
      </trkpt>
      <trkpt lat="40.351210" lon="-5.848385">
        <ele>869.670</ele>
        <time>2019-03-01T05:35:30Z</time>
      </trkpt>
      <trkpt lat="40.351247" lon="-5.848435">
        <ele>869.263</ele>
        <time>2019-03-01T05:35:31Z</time>
      </trkpt>
      <trkpt lat="40.351276" lon="-5.848489">
        <ele>868.762</ele>
        <time>2019-03-01T05:35:32Z</time>
      </trkpt>
      <trkpt lat="40.351362" lon="-5.848683">
        <ele>867.331</ele>
        <time>2019-03-01T05:35:36Z</time>
      </trkpt>
      <trkpt lat="40.351425" lon="-5.848797">
        <ele>866.531</ele>
        <time>2019-03-01T05:35:38Z</time>
      </trkpt>
      <trkpt lat="40.351608" lon="-5.849039">
        <ele>864.661</ele>
        <time>2019-03-01T05:35:42Z</time>
      </trkpt>
      <trkpt lat="40.351905" lon="-5.849309">
        <ele>862.507</ele>
        <time>2019-03-01T05:35:47Z</time>
      </trkpt>
      <trkpt lat="40.351976" lon="-5.849349">
        <ele>862.208</ele>
        <time>2019-03-01T05:35:48Z</time>
      </trkpt>
      <trkpt lat="40.352762" lon="-5.849656">
        <ele>859.066</ele>
        <time>2019-03-01T05:36:00Z</time>
      </trkpt>
      <trkpt lat="40.352956" lon="-5.849693">
        <ele>858.287</ele>
        <time>2019-03-01T05:36:03Z</time>
      </trkpt>
      <trkpt lat="40.353604" lon="-5.849878">
        <ele>854.938</ele>
        <time>2019-03-01T05:36:12Z</time>
      </trkpt>
      <trkpt lat="40.353664" lon="-5.849899">
        <ele>854.537</ele>
        <time>2019-03-01T05:36:13Z</time>
      </trkpt>
      <trkpt lat="40.353716" lon="-5.849913">
        <ele>854.131</ele>
        <time>2019-03-01T05:36:14Z</time>
      </trkpt>
      <trkpt lat="40.353975" lon="-5.849862">
        <ele>852.524</ele>
        <time>2019-03-01T05:36:22Z</time>
      </trkpt>
      <trkpt lat="40.354282" lon="-5.849572">
        <ele>849.483</ele>
        <time>2019-03-01T05:36:31Z</time>
      </trkpt>
      <trkpt lat="40.354326" lon="-5.849557">
        <ele>849.052</ele>
        <time>2019-03-01T05:36:32Z</time>
      </trkpt>
      <trkpt lat="40.354378" lon="-5.849550">
        <ele>848.552</ele>
        <time>2019-03-01T05:36:33Z</time>
      </trkpt>
      <trkpt lat="40.354431" lon="-5.849550">
        <ele>848.053</ele>
        <time>2019-03-01T05:36:34Z</time>
      </trkpt>
      <trkpt lat="40.354487" lon="-5.849555">
        <ele>847.508</ele>
        <time>2019-03-01T05:36:35Z</time>
      </trkpt>
      <trkpt lat="40.354542" lon="-5.849566">
        <ele>847.108</ele>
        <time>2019-03-01T05:36:36Z</time>
      </trkpt>
      <trkpt lat="40.354596" lon="-5.849579">
        <ele>846.748</ele>
        <time>2019-03-01T05:36:37Z</time>
      </trkpt>
      <trkpt lat="40.355162" lon="-5.849603">
        <ele>843.619</ele>
        <time>2019-03-01T05:36:46Z</time>
      </trkpt>
      <trkpt lat="40.355207" lon="-5.849589">
        <ele>843.340</ele>
        <time>2019-03-01T05:36:47Z</time>
      </trkpt>
      <trkpt lat="40.355254" lon="-5.849574">
        <ele>843.199</ele>
        <time>2019-03-01T05:36:48Z</time>
      </trkpt>
      <trkpt lat="40.355471" lon="-5.849520">
        <ele>841.613</ele>
        <time>2019-03-01T05:36:52Z</time>
      </trkpt>
      <trkpt lat="40.355820" lon="-5.849373">
        <ele>838.946</ele>
        <time>2019-03-01T05:37:01Z</time>
      </trkpt>
      <trkpt lat="40.355918" lon="-5.849314">
        <ele>838.195</ele>
        <time>2019-03-01T05:37:03Z</time>
      </trkpt>
      <trkpt lat="40.355999" lon="-5.849244">
        <ele>837.244</ele>
        <time>2019-03-01T05:37:05Z</time>
      </trkpt>
      <trkpt lat="40.356038" lon="-5.849202">
        <ele>836.896</ele>
        <time>2019-03-01T05:37:06Z</time>
      </trkpt>
      <trkpt lat="40.356252" lon="-5.848847">
        <ele>833.931</ele>
        <time>2019-03-01T05:37:12Z</time>
      </trkpt>
      <trkpt lat="40.356349" lon="-5.848553">
        <ele>833.024</ele>
        <time>2019-03-01T05:37:20Z</time>
      </trkpt>
      <trkpt lat="40.356458" lon="-5.848104">
        <ele>832.408</ele>
        <time>2019-03-01T05:37:32Z</time>
      </trkpt>
      <trkpt lat="40.356476" lon="-5.848062">
        <ele>832.442</ele>
        <time>2019-03-01T05:37:33Z</time>
      </trkpt>
      <trkpt lat="40.356493" lon="-5.848016">
        <ele>832.333</ele>
        <time>2019-03-01T05:37:34Z</time>
      </trkpt>
      <trkpt lat="40.356506" lon="-5.847966">
        <ele>832.264</ele>
        <time>2019-03-01T05:37:35Z</time>
      </trkpt>
      <trkpt lat="40.356518" lon="-5.847914">
        <ele>832.283</ele>
        <time>2019-03-01T05:37:36Z</time>
      </trkpt>
      <trkpt lat="40.356633" lon="-5.847508">
        <ele>831.127</ele>
        <time>2019-03-01T05:37:48Z</time>
      </trkpt>
      <trkpt lat="40.356660" lon="-5.847492">
        <ele>831.070</ele>
        <time>2019-03-01T05:37:54Z</time>
      </trkpt>
      <trkpt lat="40.356679" lon="-5.847386">
        <ele>830.539</ele>
        <time>2019-03-01T05:38:10Z</time>
      </trkpt>
      <trkpt lat="40.356790" lon="-5.847115">
        <ele>829.048</ele>
        <time>2019-03-01T05:38:15Z</time>
      </trkpt>
      <trkpt lat="40.357087" lon="-5.846481">
        <ele>825.271</ele>
        <time>2019-03-01T05:38:25Z</time>
      </trkpt>
      <trkpt lat="40.357161" lon="-5.846361">
        <ele>824.141</ele>
        <time>2019-03-01T05:38:28Z</time>
      </trkpt>
      <trkpt lat="40.357184" lon="-5.846306">
        <ele>823.715</ele>
        <time>2019-03-01T05:38:29Z</time>
      </trkpt>
      <trkpt lat="40.357206" lon="-5.846243">
        <ele>823.208</ele>
        <time>2019-03-01T05:38:30Z</time>
      </trkpt>
      <trkpt lat="40.357222" lon="-5.846178">
        <ele>822.680</ele>
        <time>2019-03-01T05:38:31Z</time>
      </trkpt>
      <trkpt lat="40.357237" lon="-5.846115">
        <ele>822.011</ele>
        <time>2019-03-01T05:38:32Z</time>
      </trkpt>
      <trkpt lat="40.357281" lon="-5.845793">
        <ele>819.042</ele>
        <time>2019-03-01T05:38:40Z</time>
      </trkpt>
      <trkpt lat="40.357220" lon="-5.845458">
        <ele>815.271</ele>
        <time>2019-03-01T05:38:48Z</time>
      </trkpt>
      <trkpt lat="40.357118" lon="-5.845173">
        <ele>812.115</ele>
        <time>2019-03-01T05:38:56Z</time>
      </trkpt>
      <trkpt lat="40.357202" lon="-5.844945">
        <ele>809.638</ele>
        <time>2019-03-01T05:39:03Z</time>
      </trkpt>
      <trkpt lat="40.357327" lon="-5.844700">
        <ele>806.317</ele>
        <time>2019-03-01T05:39:10Z</time>
      </trkpt>
      <trkpt lat="40.357377" lon="-5.844445">
        <ele>803.496</ele>
        <time>2019-03-01T05:39:18Z</time>
      </trkpt>
      <trkpt lat="40.357449" lon="-5.844131">
        <ele>800.571</ele>
        <time>2019-03-01T05:39:25Z</time>
      </trkpt>
      <trkpt lat="40.357482" lon="-5.844006">
        <ele>799.541</ele>
        <time>2019-03-01T05:39:27Z</time>
      </trkpt>
      <trkpt lat="40.357543" lon="-5.843741">
        <ele>796.715</ele>
        <time>2019-03-01T05:39:31Z</time>
      </trkpt>
      <trkpt lat="40.357574" lon="-5.843677">
        <ele>795.908</ele>
        <time>2019-03-01T05:39:32Z</time>
      </trkpt>
      <trkpt lat="40.357613" lon="-5.843607">
        <ele>794.920</ele>
        <time>2019-03-01T05:39:33Z</time>
      </trkpt>
      <trkpt lat="40.357663" lon="-5.843538">
        <ele>793.611</ele>
        <time>2019-03-01T05:39:34Z</time>
      </trkpt>
      <trkpt lat="40.357714" lon="-5.843460">
        <ele>792.012</ele>
        <time>2019-03-01T05:39:35Z</time>
      </trkpt>
      <trkpt lat="40.358072" lon="-5.843039">
        <ele>785.951</ele>
        <time>2019-03-01T05:39:41Z</time>
      </trkpt>
      <trkpt lat="40.358246" lon="-5.842832">
        <ele>782.935</ele>
        <time>2019-03-01T05:39:45Z</time>
      </trkpt>
      <trkpt lat="40.358391" lon="-5.842712">
        <ele>780.598</ele>
        <time>2019-03-01T05:39:49Z</time>
      </trkpt>
      <trkpt lat="40.358651" lon="-5.842517">
        <ele>777.237</ele>
        <time>2019-03-01T05:39:55Z</time>
      </trkpt>
      <trkpt lat="40.359030" lon="-5.842258">
        <ele>772.996</ele>
        <time>2019-03-01T05:40:02Z</time>
      </trkpt>
      <trkpt lat="40.359429" lon="-5.842000">
        <ele>768.864</ele>
        <time>2019-03-01T05:40:09Z</time>
      </trkpt>
      <trkpt lat="40.359486" lon="-5.841984">
        <ele>768.406</ele>
        <time>2019-03-01T05:40:10Z</time>
      </trkpt>
      <trkpt lat="40.359548" lon="-5.841973">
        <ele>767.916</ele>
        <time>2019-03-01T05:40:11Z</time>
      </trkpt>
      <trkpt lat="40.359743" lon="-5.841944">
        <ele>766.708</ele>
        <time>2019-03-01T05:40:14Z</time>
      </trkpt>
      <trkpt lat="40.360307" lon="-5.841830">
        <ele>763.329</ele>
        <time>2019-03-01T05:40:22Z</time>
      </trkpt>
      <trkpt lat="40.360655" lon="-5.841829">
        <ele>761.160</ele>
        <time>2019-03-01T05:40:27Z</time>
      </trkpt>
      <trkpt lat="40.360706" lon="-5.841845">
        <ele>760.771</ele>
        <time>2019-03-01T05:40:28Z</time>
      </trkpt>
      <trkpt lat="40.360877" lon="-5.841933">
        <ele>759.310</ele>
        <time>2019-03-01T05:40:34Z</time>
      </trkpt>
      <trkpt lat="40.360898" lon="-5.841978">
        <ele>758.964</ele>
        <time>2019-03-01T05:40:35Z</time>
      </trkpt>
      <trkpt lat="40.360952" lon="-5.842087">
        <ele>757.837</ele>
        <time>2019-03-01T05:40:37Z</time>
      </trkpt>
      <trkpt lat="40.360976" lon="-5.842136">
        <ele>757.316</ele>
        <time>2019-03-01T05:40:38Z</time>
      </trkpt>
      <trkpt lat="40.361010" lon="-5.842192">
        <ele>756.735</ele>
        <time>2019-03-01T05:40:39Z</time>
      </trkpt>
      <trkpt lat="40.361138" lon="-5.842418">
        <ele>755.171</ele>
        <time>2019-03-01T05:40:43Z</time>
      </trkpt>
      <trkpt lat="40.361181" lon="-5.842463">
        <ele>754.741</ele>
        <time>2019-03-01T05:40:44Z</time>
      </trkpt>
      <trkpt lat="40.361218" lon="-5.842501">
        <ele>754.515</ele>
        <time>2019-03-01T05:40:45Z</time>
      </trkpt>
      <trkpt lat="40.361242" lon="-5.842522">
        <ele>754.308</ele>
        <time>2019-03-01T05:40:46Z</time>
      </trkpt>
      <trkpt lat="40.361260" lon="-5.842541">
        <ele>754.260</ele>
        <time>2019-03-01T05:40:47Z</time>
      </trkpt>
      <trkpt lat="40.361272" lon="-5.842555">
        <ele>754.131</ele>
        <time>2019-03-01T05:40:48Z</time>
      </trkpt>
      <trkpt lat="40.361312" lon="-5.842576">
        <ele>753.832</ele>
        <time>2019-03-01T05:40:54Z</time>
      </trkpt>
      <trkpt lat="40.361486" lon="-5.842624">
        <ele>752.991</ele>
        <time>2019-03-01T05:41:25Z</time>
      </trkpt>
      <trkpt lat="40.361702" lon="-5.842696">
        <ele>751.645</ele>
        <time>2019-03-01T05:41:30Z</time>
      </trkpt>
      <trkpt lat="40.361754" lon="-5.842724">
        <ele>751.168</ele>
        <time>2019-03-01T05:41:31Z</time>
      </trkpt>
      <trkpt lat="40.361853" lon="-5.842801">
        <ele>750.467</ele>
        <time>2019-03-01T05:41:33Z</time>
      </trkpt>
      <trkpt lat="40.361897" lon="-5.842856">
        <ele>750.186</ele>
        <time>2019-03-01T05:41:34Z</time>
      </trkpt>
      <trkpt lat="40.362176" lon="-5.843151">
        <ele>748.474</ele>
        <time>2019-03-01T05:41:43Z</time>
      </trkpt>
      <trkpt lat="40.362805" lon="-5.843317">
        <ele>745.856</ele>
        <time>2019-03-01T05:41:54Z</time>
      </trkpt>
      <trkpt lat="40.362878" lon="-5.843326">
        <ele>745.421</ele>
        <time>2019-03-01T05:41:55Z</time>
      </trkpt>
      <trkpt lat="40.363330" lon="-5.843380">
        <ele>743.408</ele>
        <time>2019-03-01T05:42:03Z</time>
      </trkpt>
      <trkpt lat="40.363373" lon="-5.843390">
        <ele>743.350</ele>
        <time>2019-03-01T05:42:04Z</time>
      </trkpt>
      <trkpt lat="40.363498" lon="-5.843443">
        <ele>743.041</ele>
        <time>2019-03-01T05:42:07Z</time>
      </trkpt>
      <trkpt lat="40.363529" lon="-5.843461">
        <ele>742.972</ele>
        <time>2019-03-01T05:42:08Z</time>
      </trkpt>
      <trkpt lat="40.363567" lon="-5.843467">
        <ele>742.821</ele>
        <time>2019-03-01T05:42:09Z</time>
      </trkpt>
      <trkpt lat="40.364022" lon="-5.843641">
        <ele>741.925</ele>
        <time>2019-03-01T05:42:19Z</time>
      </trkpt>
      <trkpt lat="40.364070" lon="-5.843680">
        <ele>741.818</ele>
        <time>2019-03-01T05:42:20Z</time>
      </trkpt>
      <trkpt lat="40.364161" lon="-5.843760">
        <ele>741.497</ele>
        <time>2019-03-01T05:42:22Z</time>
      </trkpt>
      <trkpt lat="40.364358" lon="-5.843905">
        <ele>740.596</ele>
        <time>2019-03-01T05:42:26Z</time>
      </trkpt>
      <trkpt lat="40.364410" lon="-5.843935">
        <ele>740.374</ele>
        <time>2019-03-01T05:42:27Z</time>
      </trkpt>
      <trkpt lat="40.364462" lon="-5.843970">
        <ele>740.256</ele>
        <time>2019-03-01T05:42:28Z</time>
      </trkpt>
      <trkpt lat="40.364606" lon="-5.844066">
        <ele>739.821</ele>
        <time>2019-03-01T05:42:31Z</time>
      </trkpt>
      <trkpt lat="40.364648" lon="-5.844088">
        <ele>739.708</ele>
        <time>2019-03-01T05:42:32Z</time>
      </trkpt>
      <trkpt lat="40.364794" lon="-5.844156">
        <ele>739.290</ele>
        <time>2019-03-01T05:42:36Z</time>
      </trkpt>
      <trkpt lat="40.364834" lon="-5.844184">
        <ele>739.091</ele>
        <time>2019-03-01T05:42:37Z</time>
      </trkpt>
      <trkpt lat="40.364873" lon="-5.844207">
        <ele>738.892</ele>
        <time>2019-03-01T05:42:38Z</time>
      </trkpt>
      <trkpt lat="40.364923" lon="-5.844238">
        <ele>738.651</ele>
        <time>2019-03-01T05:42:39Z</time>
      </trkpt>
      <trkpt lat="40.364979" lon="-5.844273">
        <ele>738.325</ele>
        <time>2019-03-01T05:42:40Z</time>
      </trkpt>
      <trkpt lat="40.365038" lon="-5.844304">
        <ele>738.038</ele>
        <time>2019-03-01T05:42:41Z</time>
      </trkpt>
      <trkpt lat="40.365102" lon="-5.844328">
        <ele>737.887</ele>
        <time>2019-03-01T05:42:42Z</time>
      </trkpt>
      <trkpt lat="40.365166" lon="-5.844350">
        <ele>737.546</ele>
        <time>2019-03-01T05:42:43Z</time>
      </trkpt>
      <trkpt lat="40.365235" lon="-5.844369">
        <ele>737.235</ele>
        <time>2019-03-01T05:42:44Z</time>
      </trkpt>
      <trkpt lat="40.365308" lon="-5.844395">
        <ele>737.086</ele>
        <time>2019-03-01T05:42:45Z</time>
      </trkpt>
      <trkpt lat="40.365814" lon="-5.844558">
        <ele>734.214</ele>
        <time>2019-03-01T05:42:53Z</time>
      </trkpt>
      <trkpt lat="40.365957" lon="-5.844615">
        <ele>733.108</ele>
        <time>2019-03-01T05:42:56Z</time>
      </trkpt>
      <trkpt lat="40.365991" lon="-5.844661">
        <ele>732.726</ele>
        <time>2019-03-01T05:42:57Z</time>
      </trkpt>
      <trkpt lat="40.366023" lon="-5.844722">
        <ele>732.297</ele>
        <time>2019-03-01T05:42:58Z</time>
      </trkpt>
      <trkpt lat="40.366043" lon="-5.844798">
        <ele>731.798</ele>
        <time>2019-03-01T05:42:59Z</time>
      </trkpt>
      <trkpt lat="40.366064" lon="-5.844867">
        <ele>731.297</ele>
        <time>2019-03-01T05:43:00Z</time>
      </trkpt>
      <trkpt lat="40.366231" lon="-5.845274">
        <ele>728.691</ele>
        <time>2019-03-01T05:43:08Z</time>
      </trkpt>
      <trkpt lat="40.366350" lon="-5.845373">
        <ele>727.554</ele>
        <time>2019-03-01T05:43:13Z</time>
      </trkpt>
      <trkpt lat="40.366385" lon="-5.845369">
        <ele>727.153</ele>
        <time>2019-03-01T05:43:14Z</time>
      </trkpt>
      <trkpt lat="40.366416" lon="-5.845368">
        <ele>726.822</ele>
        <time>2019-03-01T05:43:15Z</time>
      </trkpt>
      <trkpt lat="40.366518" lon="-5.845341">
        <ele>725.626</ele>
        <time>2019-03-01T05:43:21Z</time>
      </trkpt>
      <trkpt lat="40.366533" lon="-5.845347">
        <ele>725.547</ele>
        <time>2019-03-01T05:43:22Z</time>
      </trkpt>
      <trkpt lat="40.366547" lon="-5.845370">
        <ele>725.211</ele>
        <time>2019-03-01T05:43:23Z</time>
      </trkpt>
      <trkpt lat="40.366583" lon="-5.845453">
        <ele>724.208</ele>
        <time>2019-03-01T05:43:25Z</time>
      </trkpt>
      <trkpt lat="40.366594" lon="-5.845508">
        <ele>723.635</ele>
        <time>2019-03-01T05:43:26Z</time>
      </trkpt>
      <trkpt lat="40.366595" lon="-5.845565">
        <ele>723.076</ele>
        <time>2019-03-01T05:43:27Z</time>
      </trkpt>
      <trkpt lat="40.366595" lon="-5.845728">
        <ele>721.537</ele>
        <time>2019-03-01T05:43:30Z</time>
      </trkpt>
      <trkpt lat="40.366631" lon="-5.845897">
        <ele>720.086</ele>
        <time>2019-03-01T05:43:33Z</time>
      </trkpt>
      <trkpt lat="40.366652" lon="-5.845944">
        <ele>719.530</ele>
        <time>2019-03-01T05:43:34Z</time>
      </trkpt>
      <trkpt lat="40.366804" lon="-5.846266">
        <ele>716.293</ele>
        <time>2019-03-01T05:43:42Z</time>
      </trkpt>
      <trkpt lat="40.366907" lon="-5.846414">
        <ele>713.882</ele>
        <time>2019-03-01T05:43:49Z</time>
      </trkpt>
      <trkpt lat="40.367139" lon="-5.846523">
        <ele>709.731</ele>
        <time>2019-03-01T05:43:56Z</time>
      </trkpt>
      <trkpt lat="40.367183" lon="-5.846514">
        <ele>709.042</ele>
        <time>2019-03-01T05:43:57Z</time>
      </trkpt>
      <trkpt lat="40.367214" lon="-5.846490">
        <ele>708.522</ele>
        <time>2019-03-01T05:43:58Z</time>
      </trkpt>
      <trkpt lat="40.367238" lon="-5.846459">
        <ele>708.114</ele>
        <time>2019-03-01T05:43:59Z</time>
      </trkpt>
      <trkpt lat="40.367255" lon="-5.846432">
        <ele>707.808</ele>
        <time>2019-03-01T05:44:00Z</time>
      </trkpt>
      <trkpt lat="40.367268" lon="-5.846410">
        <ele>707.597</ele>
        <time>2019-03-01T05:44:01Z</time>
      </trkpt>
      <trkpt lat="40.367273" lon="-5.846392">
        <ele>707.218</ele>
        <time>2019-03-01T05:44:02Z</time>
      </trkpt>
      <trkpt lat="40.367280" lon="-5.846377">
        <ele>707.019</ele>
        <time>2019-03-01T05:44:03Z</time>
      </trkpt>
      <trkpt lat="40.367285" lon="-5.846359">
        <ele>706.888</ele>
        <time>2019-03-01T05:44:04Z</time>
      </trkpt>
      <trkpt lat="40.367286" lon="-5.846339">
        <ele>706.542</ele>
        <time>2019-03-01T05:44:05Z</time>
      </trkpt>
      <trkpt lat="40.367289" lon="-5.846319">
        <ele>706.335</ele>
        <time>2019-03-01T05:44:06Z</time>
      </trkpt>
      <trkpt lat="40.367300" lon="-5.846291">
        <ele>706.024</ele>
        <time>2019-03-01T05:44:07Z</time>
      </trkpt>
      <trkpt lat="40.367320" lon="-5.846258">
        <ele>705.633</ele>
        <time>2019-03-01T05:44:08Z</time>
      </trkpt>
      <trkpt lat="40.367359" lon="-5.846222">
        <ele>704.834</ele>
        <time>2019-03-01T05:44:09Z</time>
      </trkpt>
      <trkpt lat="40.367405" lon="-5.846189">
        <ele>704.055</ele>
        <time>2019-03-01T05:44:10Z</time>
      </trkpt>
      <trkpt lat="40.367456" lon="-5.846158">
        <ele>703.310</ele>
        <time>2019-03-01T05:44:11Z</time>
      </trkpt>
      <trkpt lat="40.367510" lon="-5.846133">
        <ele>702.508</ele>
        <time>2019-03-01T05:44:12Z</time>
      </trkpt>
      <trkpt lat="40.367737" lon="-5.846036">
        <ele>699.186</ele>
        <time>2019-03-01T05:44:18Z</time>
      </trkpt>
      <trkpt lat="40.367898" lon="-5.845962">
        <ele>696.517</ele>
        <time>2019-03-01T05:44:24Z</time>
      </trkpt>
      <trkpt lat="40.367942" lon="-5.845939">
        <ele>695.748</ele>
        <time>2019-03-01T05:44:26Z</time>
      </trkpt>
      <trkpt lat="40.368077" lon="-5.845927">
        <ele>693.687</ele>
        <time>2019-03-01T05:44:30Z</time>
      </trkpt>
      <trkpt lat="40.368107" lon="-5.845959">
        <ele>693.211</ele>
        <time>2019-03-01T05:44:31Z</time>
      </trkpt>
      <trkpt lat="40.368126" lon="-5.845998">
        <ele>692.734</ele>
        <time>2019-03-01T05:44:32Z</time>
      </trkpt>
      <trkpt lat="40.368138" lon="-5.846045">
        <ele>692.223</ele>
        <time>2019-03-01T05:44:33Z</time>
      </trkpt>
      <trkpt lat="40.368146" lon="-5.846093">
        <ele>691.742</ele>
        <time>2019-03-01T05:44:34Z</time>
      </trkpt>
      <trkpt lat="40.368148" lon="-5.846139">
        <ele>691.127</ele>
        <time>2019-03-01T05:44:35Z</time>
      </trkpt>
      <trkpt lat="40.368149" lon="-5.846181">
        <ele>690.668</ele>
        <time>2019-03-01T05:44:36Z</time>
      </trkpt>
      <trkpt lat="40.368153" lon="-5.846230">
        <ele>690.014</ele>
        <time>2019-03-01T05:44:37Z</time>
      </trkpt>
      <trkpt lat="40.368286" lon="-5.846521">
        <ele>686.008</ele>
        <time>2019-03-01T05:44:44Z</time>
      </trkpt>
      <trkpt lat="40.368393" lon="-5.846576">
        <ele>684.345</ele>
        <time>2019-03-01T05:44:48Z</time>
      </trkpt>
      <trkpt lat="40.368418" lon="-5.846603">
        <ele>683.836</ele>
        <time>2019-03-01T05:44:49Z</time>
      </trkpt>
      <trkpt lat="40.368437" lon="-5.846637">
        <ele>683.267</ele>
        <time>2019-03-01T05:44:50Z</time>
      </trkpt>
      <trkpt lat="40.368450" lon="-5.846675">
        <ele>682.746</ele>
        <time>2019-03-01T05:44:51Z</time>
      </trkpt>
      <trkpt lat="40.368462" lon="-5.846715">
        <ele>682.210</ele>
        <time>2019-03-01T05:44:52Z</time>
      </trkpt>
      <trkpt lat="40.368478" lon="-5.846818">
        <ele>681.083</ele>
        <time>2019-03-01T05:44:54Z</time>
      </trkpt>
      <trkpt lat="40.368469" lon="-5.847068">
        <ele>678.392</ele>
        <time>2019-03-01T05:44:58Z</time>
      </trkpt>
      <trkpt lat="40.368477" lon="-5.847138">
        <ele>678.311</ele>
        <time>2019-03-01T05:44:59Z</time>
      </trkpt>
      <trkpt lat="40.368494" lon="-5.847203">
        <ele>678.247</ele>
        <time>2019-03-01T05:45:00Z</time>
      </trkpt>
      <trkpt lat="40.368521" lon="-5.847257">
        <ele>678.229</ele>
        <time>2019-03-01T05:45:01Z</time>
      </trkpt>
      <trkpt lat="40.368560" lon="-5.847302">
        <ele>678.221</ele>
        <time>2019-03-01T05:45:02Z</time>
      </trkpt>
      <trkpt lat="40.368603" lon="-5.847342">
        <ele>678.208</ele>
        <time>2019-03-01T05:45:03Z</time>
      </trkpt>
      <trkpt lat="40.368852" lon="-5.847529">
        <ele>677.557</ele>
        <time>2019-03-01T05:45:08Z</time>
      </trkpt>
      <trkpt lat="40.368890" lon="-5.847573">
        <ele>677.248</ele>
        <time>2019-03-01T05:45:09Z</time>
      </trkpt>
      <trkpt lat="40.368920" lon="-5.847630">
        <ele>676.959</ele>
        <time>2019-03-01T05:45:10Z</time>
      </trkpt>
      <trkpt lat="40.368942" lon="-5.847691">
        <ele>676.578</ele>
        <time>2019-03-01T05:45:11Z</time>
      </trkpt>
      <trkpt lat="40.368958" lon="-5.847752">
        <ele>676.052</ele>
        <time>2019-03-01T05:45:12Z</time>
      </trkpt>
      <trkpt lat="40.368968" lon="-5.847812">
        <ele>675.535</ele>
        <time>2019-03-01T05:45:13Z</time>
      </trkpt>
      <trkpt lat="40.368973" lon="-5.847870">
        <ele>675.044</ele>
        <time>2019-03-01T05:45:14Z</time>
      </trkpt>
      <trkpt lat="40.368974" lon="-5.847924">
        <ele>674.413</ele>
        <time>2019-03-01T05:45:15Z</time>
      </trkpt>
      <trkpt lat="40.368971" lon="-5.847970">
        <ele>674.013</ele>
        <time>2019-03-01T05:45:16Z</time>
      </trkpt>
      <trkpt lat="40.368965" lon="-5.848010">
        <ele>673.643</ele>
        <time>2019-03-01T05:45:17Z</time>
      </trkpt>
      <trkpt lat="40.368960" lon="-5.848043">
        <ele>673.307</ele>
        <time>2019-03-01T05:45:18Z</time>
      </trkpt>
      <trkpt lat="40.368961" lon="-5.848075">
        <ele>673.008</ele>
        <time>2019-03-01T05:45:19Z</time>
      </trkpt>
      <trkpt lat="40.368968" lon="-5.848112">
        <ele>672.714</ele>
        <time>2019-03-01T05:45:20Z</time>
      </trkpt>
      <trkpt lat="40.368983" lon="-5.848148">
        <ele>672.415</ele>
        <time>2019-03-01T05:45:21Z</time>
      </trkpt>
      <trkpt lat="40.369001" lon="-5.848177">
        <ele>672.166</ele>
        <time>2019-03-01T05:45:22Z</time>
      </trkpt>
      <trkpt lat="40.369056" lon="-5.848214">
        <ele>671.685</ele>
        <time>2019-03-01T05:45:24Z</time>
      </trkpt>
      <trkpt lat="40.369102" lon="-5.848217">
        <ele>671.269</ele>
        <time>2019-03-01T05:45:25Z</time>
      </trkpt>
      <trkpt lat="40.369148" lon="-5.848215">
        <ele>670.822</ele>
        <time>2019-03-01T05:45:26Z</time>
      </trkpt>
      <trkpt lat="40.369188" lon="-5.848222">
        <ele>670.421</ele>
        <time>2019-03-01T05:45:27Z</time>
      </trkpt>
      <trkpt lat="40.369229" lon="-5.848227">
        <ele>670.040</ele>
        <time>2019-03-01T05:45:28Z</time>
      </trkpt>
      <trkpt lat="40.369274" lon="-5.848225">
        <ele>669.513</ele>
        <time>2019-03-01T05:45:29Z</time>
      </trkpt>
      <trkpt lat="40.369485" lon="-5.848199">
        <ele>667.343</ele>
        <time>2019-03-01T05:45:34Z</time>
      </trkpt>
      <trkpt lat="40.370090" lon="-5.848219">
        <ele>664.907</ele>
        <time>2019-03-01T05:45:43Z</time>
      </trkpt>
      <trkpt lat="40.370290" lon="-5.848273">
        <ele>665.208</ele>
        <time>2019-03-01T05:45:50Z</time>
      </trkpt>
      <trkpt lat="40.370299" lon="-5.848272">
        <ele>665.294</ele>
        <time>2019-03-01T05:45:53Z</time>
      </trkpt>
      <trkpt lat="40.370374" lon="-5.848281">
        <ele>665.325</ele>
        <time>2019-03-01T05:48:01Z</time>
      </trkpt>
      <trkpt lat="40.370388" lon="-5.848293">
        <ele>665.336</ele>
        <time>2019-03-01T05:48:02Z</time>
      </trkpt>
      <trkpt lat="40.370629" lon="-5.848444">
        <ele>666.455</ele>
        <time>2019-03-01T05:48:15Z</time>
      </trkpt>
      <trkpt lat="40.370885" lon="-5.848550">
        <ele>668.839</ele>
        <time>2019-03-01T05:48:27Z</time>
      </trkpt>
      <trkpt lat="40.371194" lon="-5.848542">
        <ele>671.132</ele>
        <time>2019-03-01T05:48:43Z</time>
      </trkpt>
      <trkpt lat="40.371230" lon="-5.848529">
        <ele>671.481</ele>
        <time>2019-03-01T05:48:50Z</time>
      </trkpt>
      <trkpt lat="40.371305" lon="-5.848516">
        <ele>671.920</ele>
        <time>2019-03-01T05:49:31Z</time>
      </trkpt>
      <trkpt lat="40.371541" lon="-5.848367">
        <ele>673.454</ele>
        <time>2019-03-01T05:49:46Z</time>
      </trkpt>
      <trkpt lat="40.371713" lon="-5.848188">
        <ele>674.256</ele>
        <time>2019-03-01T05:49:59Z</time>
      </trkpt>
      <trkpt lat="40.371941" lon="-5.847991">
        <ele>675.411</ele>
        <time>2019-03-01T05:50:13Z</time>
      </trkpt>
      <trkpt lat="40.372217" lon="-5.847841">
        <ele>676.108</ele>
        <time>2019-03-01T05:50:26Z</time>
      </trkpt>
      <trkpt lat="40.372608" lon="-5.847542">
        <ele>676.728</ele>
        <time>2019-03-01T05:50:46Z</time>
      </trkpt>
      <trkpt lat="40.372753" lon="-5.847383">
        <ele>676.979</ele>
        <time>2019-03-01T05:50:59Z</time>
      </trkpt>
      <trkpt lat="40.372791" lon="-5.847356">
        <ele>676.970</ele>
        <time>2019-03-01T05:51:54Z</time>
      </trkpt>
      <trkpt lat="40.373071" lon="-5.847130">
        <ele>677.029</ele>
        <time>2019-03-01T05:52:08Z</time>
      </trkpt>
      <trkpt lat="40.373443" lon="-5.846736">
        <ele>677.193</ele>
        <time>2019-03-01T05:52:24Z</time>
      </trkpt>
      <trkpt lat="40.373808" lon="-5.846285">
        <ele>677.526</ele>
        <time>2019-03-01T05:52:40Z</time>
      </trkpt>
      <trkpt lat="40.374151" lon="-5.845874">
        <ele>678.455</ele>
        <time>2019-03-01T05:52:54Z</time>
      </trkpt>
      <trkpt lat="40.374562" lon="-5.845457">
        <ele>680.284</ele>
        <time>2019-03-01T05:53:12Z</time>
      </trkpt>
      <trkpt lat="40.374790" lon="-5.845192">
        <ele>681.317</ele>
        <time>2019-03-01T05:53:27Z</time>
      </trkpt>
      <trkpt lat="40.374952" lon="-5.844998">
        <ele>682.387</ele>
        <time>2019-03-01T05:53:40Z</time>
      </trkpt>
      <trkpt lat="40.375115" lon="-5.844788">
        <ele>682.615</ele>
        <time>2019-03-01T05:53:55Z</time>
      </trkpt>
      <trkpt lat="40.375269" lon="-5.844703">
        <ele>682.308</ele>
        <time>2019-03-01T05:54:07Z</time>
      </trkpt>
      <trkpt lat="40.375282" lon="-5.844694">
        <ele>682.334</ele>
        <time>2019-03-01T05:54:08Z</time>
      </trkpt>
      <trkpt lat="40.375294" lon="-5.844691">
        <ele>682.245</ele>
        <time>2019-03-01T05:54:09Z</time>
      </trkpt>
      <trkpt lat="40.375307" lon="-5.844690">
        <ele>682.256</ele>
        <time>2019-03-01T05:54:10Z</time>
      </trkpt>
      <trkpt lat="40.375321" lon="-5.844688">
        <ele>682.225</ele>
        <time>2019-03-01T05:54:11Z</time>
      </trkpt>
      <trkpt lat="40.375336" lon="-5.844686">
        <ele>682.169</ele>
        <time>2019-03-01T05:54:12Z</time>
      </trkpt>
      <trkpt lat="40.375407" lon="-5.844671">
        <ele>682.482</ele>
        <time>2019-03-01T05:54:17Z</time>
      </trkpt>
      <trkpt lat="40.375729" lon="-5.844407">
        <ele>686.931</ele>
        <time>2019-03-01T05:54:29Z</time>
      </trkpt>
      <trkpt lat="40.376384" lon="-5.843935">
        <ele>692.580</ele>
        <time>2019-03-01T05:54:44Z</time>
      </trkpt>
      <trkpt lat="40.376868" lon="-5.843590">
        <ele>696.663</ele>
        <time>2019-03-01T05:54:56Z</time>
      </trkpt>
      <trkpt lat="40.377336" lon="-5.843205">
        <ele>698.644</ele>
        <time>2019-03-01T05:55:09Z</time>
      </trkpt>
      <trkpt lat="40.377509" lon="-5.843002">
        <ele>698.618</ele>
        <time>2019-03-01T05:55:14Z</time>
      </trkpt>
      <trkpt lat="40.377539" lon="-5.842953">
        <ele>698.608</ele>
        <time>2019-03-01T05:55:15Z</time>
      </trkpt>
      <trkpt lat="40.377566" lon="-5.842905">
        <ele>698.659</ele>
        <time>2019-03-01T05:55:16Z</time>
      </trkpt>
      <trkpt lat="40.377593" lon="-5.842857">
        <ele>698.650</ele>
        <time>2019-03-01T05:55:17Z</time>
      </trkpt>
      <trkpt lat="40.377623" lon="-5.842816">
        <ele>698.651</ele>
        <time>2019-03-01T05:55:18Z</time>
      </trkpt>
      <trkpt lat="40.377652" lon="-5.842782">
        <ele>698.560</ele>
        <time>2019-03-01T05:55:19Z</time>
      </trkpt>
      <trkpt lat="40.377998" lon="-5.842460">
        <ele>697.874</ele>
        <time>2019-03-01T05:55:29Z</time>
      </trkpt>
      <trkpt lat="40.378071" lon="-5.842408">
        <ele>697.737</ele>
        <time>2019-03-01T05:55:31Z</time>
      </trkpt>
      <trkpt lat="40.378111" lon="-5.842392">
        <ele>697.666</ele>
        <time>2019-03-01T05:55:32Z</time>
      </trkpt>
      <trkpt lat="40.378150" lon="-5.842375">
        <ele>697.555</ele>
        <time>2019-03-01T05:55:33Z</time>
      </trkpt>
      <trkpt lat="40.378791" lon="-5.842126">
        <ele>697.487</ele>
        <time>2019-03-01T05:55:49Z</time>
      </trkpt>
      <trkpt lat="40.379133" lon="-5.841901">
        <ele>696.842</ele>
        <time>2019-03-01T05:56:00Z</time>
      </trkpt>
      <trkpt lat="40.379318" lon="-5.841821">
        <ele>696.726</ele>
        <time>2019-03-01T05:56:04Z</time>
      </trkpt>
      <trkpt lat="40.379364" lon="-5.841804">
        <ele>696.808</ele>
        <time>2019-03-01T05:56:05Z</time>
      </trkpt>
      <trkpt lat="40.379407" lon="-5.841783">
        <ele>696.871</ele>
        <time>2019-03-01T05:56:06Z</time>
      </trkpt>
      <trkpt lat="40.379448" lon="-5.841764">
        <ele>696.812</ele>
        <time>2019-03-01T05:56:07Z</time>
      </trkpt>
      <trkpt lat="40.379485" lon="-5.841747">
        <ele>696.993</ele>
        <time>2019-03-01T05:56:08Z</time>
      </trkpt>
      <trkpt lat="40.379520" lon="-5.841730">
        <ele>696.962</ele>
        <time>2019-03-01T05:56:09Z</time>
      </trkpt>
      <trkpt lat="40.379945" lon="-5.841522">
        <ele>698.236</ele>
        <time>2019-03-01T05:56:23Z</time>
      </trkpt>
      <trkpt lat="40.380338" lon="-5.841385">
        <ele>699.919</ele>
        <time>2019-03-01T05:56:36Z</time>
      </trkpt>
      <trkpt lat="40.380764" lon="-5.841267">
        <ele>700.868</ele>
        <time>2019-03-01T05:56:51Z</time>
      </trkpt>
      <trkpt lat="40.381138" lon="-5.841057">
        <ele>701.837</ele>
        <time>2019-03-01T05:57:05Z</time>
      </trkpt>
      <trkpt lat="40.381526" lon="-5.840919">
        <ele>703.232</ele>
        <time>2019-03-01T05:57:19Z</time>
      </trkpt>
      <trkpt lat="40.381922" lon="-5.840787">
        <ele>705.092</ele>
        <time>2019-03-01T05:57:36Z</time>
      </trkpt>
      <trkpt lat="40.382225" lon="-5.840630">
        <ele>706.111</ele>
        <time>2019-03-01T05:57:49Z</time>
      </trkpt>
      <trkpt lat="40.382563" lon="-5.840471">
        <ele>706.008</ele>
        <time>2019-03-01T05:58:01Z</time>
      </trkpt>
      <trkpt lat="40.382839" lon="-5.840256">
        <ele>706.286</ele>
        <time>2019-03-01T05:58:12Z</time>
      </trkpt>
      <trkpt lat="40.383092" lon="-5.840071">
        <ele>706.757</ele>
        <time>2019-03-01T05:58:23Z</time>
      </trkpt>
      <trkpt lat="40.383437" lon="-5.839756">
        <ele>706.368</ele>
        <time>2019-03-01T05:58:36Z</time>
      </trkpt>
      <trkpt lat="40.383900" lon="-5.839407">
        <ele>705.377</ele>
        <time>2019-03-01T05:58:47Z</time>
      </trkpt>
      <trkpt lat="40.383937" lon="-5.839377">
        <ele>705.261</ele>
        <time>2019-03-01T05:58:48Z</time>
      </trkpt>
      <trkpt lat="40.383970" lon="-5.839345">
        <ele>705.214</ele>
        <time>2019-03-01T05:58:49Z</time>
      </trkpt>
      <trkpt lat="40.384001" lon="-5.839310">
        <ele>705.263</ele>
        <time>2019-03-01T05:58:50Z</time>
      </trkpt>
      <trkpt lat="40.384032" lon="-5.839274">
        <ele>705.222</ele>
        <time>2019-03-01T05:58:51Z</time>
      </trkpt>
      <trkpt lat="40.384233" lon="-5.839032">
        <ele>705.365</ele>
        <time>2019-03-01T05:58:59Z</time>
      </trkpt>
      <trkpt lat="40.384421" lon="-5.838899">
        <ele>705.568</ele>
        <time>2019-03-01T05:59:08Z</time>
      </trkpt>
      <trkpt lat="40.384759" lon="-5.838681">
        <ele>706.214</ele>
        <time>2019-03-01T05:59:21Z</time>
      </trkpt>
      <trkpt lat="40.385121" lon="-5.838510">
        <ele>707.508</ele>
        <time>2019-03-01T05:59:37Z</time>
      </trkpt>
      <trkpt lat="40.385370" lon="-5.838276">
        <ele>703.179</ele>
        <time>2019-03-01T05:59:50Z</time>
      </trkpt>
      <trkpt lat="40.385691" lon="-5.838021">
        <ele>696.780</ele>
        <time>2019-03-01T06:00:05Z</time>
      </trkpt>
      <trkpt lat="40.385783" lon="-5.837935">
        <ele>694.891</ele>
        <time>2019-03-01T06:00:13Z</time>
      </trkpt>
      <trkpt lat="40.385796" lon="-5.837931">
        <ele>694.690</ele>
        <time>2019-03-01T06:00:14Z</time>
      </trkpt>
      <trkpt lat="40.385992" lon="-5.837715">
        <ele>690.844</ele>
        <time>2019-03-01T06:00:29Z</time>
      </trkpt>
      <trkpt lat="40.386324" lon="-5.837431">
        <ele>689.277</ele>
        <time>2019-03-01T06:00:47Z</time>
      </trkpt>
      <trkpt lat="40.386546" lon="-5.837290">
        <ele>688.676</ele>
        <time>2019-03-01T06:00:58Z</time>
      </trkpt>
      <trkpt lat="40.386885" lon="-5.837094">
        <ele>688.515</ele>
        <time>2019-03-01T06:01:12Z</time>
      </trkpt>
      <trkpt lat="40.386906" lon="-5.837070">
        <ele>688.638</ele>
        <time>2019-03-01T06:01:17Z</time>
      </trkpt>
      <trkpt lat="40.386966" lon="-5.837007">
        <ele>688.670</ele>
        <time>2019-03-01T06:01:24Z</time>
      </trkpt>
      <trkpt lat="40.387020" lon="-5.836935">
        <ele>688.717</ele>
        <time>2019-03-01T06:01:32Z</time>
      </trkpt>
      <trkpt lat="40.387085" lon="-5.836873">
        <ele>688.808</ele>
        <time>2019-03-01T06:03:20Z</time>
      </trkpt>
      <trkpt lat="40.387273" lon="-5.836664">
        <ele>689.196</ele>
        <time>2019-03-01T06:03:32Z</time>
      </trkpt>
      <trkpt lat="40.387597" lon="-5.836420">
        <ele>689.597</ele>
        <time>2019-03-01T06:03:47Z</time>
      </trkpt>
      <trkpt lat="40.387954" lon="-5.836142">
        <ele>690.548</ele>
        <time>2019-03-01T06:04:01Z</time>
      </trkpt>
      <trkpt lat="40.388234" lon="-5.835915">
        <ele>691.727</ele>
        <time>2019-03-01T06:04:16Z</time>
      </trkpt>
      <trkpt lat="40.388474" lon="-5.835701">
        <ele>691.981</ele>
        <time>2019-03-01T06:04:29Z</time>
      </trkpt>
      <trkpt lat="40.388614" lon="-5.835313">
        <ele>691.344</ele>
        <time>2019-03-01T06:04:42Z</time>
      </trkpt>
      <trkpt lat="40.388795" lon="-5.834931">
        <ele>690.193</ele>
        <time>2019-03-01T06:04:54Z</time>
      </trkpt>
      <trkpt lat="40.389083" lon="-5.834587">
        <ele>688.912</ele>
        <time>2019-03-01T06:05:04Z</time>
      </trkpt>
      <trkpt lat="40.389115" lon="-5.834548">
        <ele>688.828</ele>
        <time>2019-03-01T06:05:05Z</time>
      </trkpt>
      <trkpt lat="40.389208" lon="-5.834425">
        <ele>688.589</ele>
        <time>2019-03-01T06:05:08Z</time>
      </trkpt>
      <trkpt lat="40.389240" lon="-5.834384">
        <ele>688.417</ele>
        <time>2019-03-01T06:05:09Z</time>
      </trkpt>
      <trkpt lat="40.389366" lon="-5.834224">
        <ele>687.908</ele>
        <time>2019-03-01T06:05:13Z</time>
      </trkpt>
      <trkpt lat="40.389683" lon="-5.833966">
        <ele>686.985</ele>
        <time>2019-03-01T06:05:22Z</time>
      </trkpt>
      <trkpt lat="40.389723" lon="-5.833944">
        <ele>686.836</ele>
        <time>2019-03-01T06:05:23Z</time>
      </trkpt>
      <trkpt lat="40.389760" lon="-5.833918">
        <ele>686.887</ele>
        <time>2019-03-01T06:05:24Z</time>
      </trkpt>
      <trkpt lat="40.389797" lon="-5.833892">
        <ele>686.726</ele>
        <time>2019-03-01T06:05:25Z</time>
      </trkpt>
      <trkpt lat="40.389836" lon="-5.833873">
        <ele>686.660</ele>
        <time>2019-03-01T06:05:26Z</time>
      </trkpt>
      <trkpt lat="40.389874" lon="-5.833854">
        <ele>686.663</ele>
        <time>2019-03-01T06:05:27Z</time>
      </trkpt>
      <trkpt lat="40.390285" lon="-5.833533">
        <ele>686.372</ele>
        <time>2019-03-01T06:05:42Z</time>
      </trkpt>
      <trkpt lat="40.390421" lon="-5.833307">
        <ele>686.851</ele>
        <time>2019-03-01T06:05:53Z</time>
      </trkpt>
      <trkpt lat="40.390479" lon="-5.833199">
        <ele>687.516</ele>
        <time>2019-03-01T06:05:57Z</time>
      </trkpt>
      <trkpt lat="40.390674" lon="-5.832862">
        <ele>690.076</ele>
        <time>2019-03-01T06:06:10Z</time>
      </trkpt>
      <trkpt lat="40.390949" lon="-5.832593">
        <ele>692.413</ele>
        <time>2019-03-01T06:06:24Z</time>
      </trkpt>
      <trkpt lat="40.391302" lon="-5.832252">
        <ele>695.108</ele>
        <time>2019-03-01T06:06:42Z</time>
      </trkpt>
      <trkpt lat="40.391587" lon="-5.832023">
        <ele>696.674</ele>
        <time>2019-03-01T06:06:57Z</time>
      </trkpt>
      <trkpt lat="40.391898" lon="-5.831707">
        <ele>698.365</ele>
        <time>2019-03-01T06:07:13Z</time>
      </trkpt>
      <trkpt lat="40.392146" lon="-5.831516">
        <ele>699.816</ele>
        <time>2019-03-01T06:07:26Z</time>
      </trkpt>
      <trkpt lat="40.392262" lon="-5.831451">
        <ele>700.495</ele>
        <time>2019-03-01T06:07:33Z</time>
      </trkpt>
      <trkpt lat="40.392275" lon="-5.831448">
        <ele>700.599</ele>
        <time>2019-03-01T06:07:34Z</time>
      </trkpt>
      <trkpt lat="40.392430" lon="-5.831363">
        <ele>701.472</ele>
        <time>2019-03-01T06:07:47Z</time>
      </trkpt>
      <trkpt lat="40.392556" lon="-5.831274">
        <ele>702.281</ele>
        <time>2019-03-01T06:07:59Z</time>
      </trkpt>
      <trkpt lat="40.392581" lon="-5.831252">
        <ele>702.330</ele>
        <time>2019-03-01T06:08:01Z</time>
      </trkpt>
      <trkpt lat="40.392595" lon="-5.831246">
        <ele>702.412</ele>
        <time>2019-03-01T06:08:02Z</time>
      </trkpt>
      <trkpt lat="40.392606" lon="-5.831236">
        <ele>702.532</ele>
        <time>2019-03-01T06:08:03Z</time>
      </trkpt>
      <trkpt lat="40.392619" lon="-5.831229">
        <ele>702.605</ele>
        <time>2019-03-01T06:08:04Z</time>
      </trkpt>
      <trkpt lat="40.392635" lon="-5.831224">
        <ele>702.608</ele>
        <time>2019-03-01T06:08:05Z</time>
      </trkpt>
      <trkpt lat="40.392841" lon="-5.831091">
        <ele>703.864</ele>
        <time>2019-03-01T06:08:20Z</time>
      </trkpt>
      <trkpt lat="40.392963" lon="-5.830935">
        <ele>704.355</ele>
        <time>2019-03-01T06:08:31Z</time>
      </trkpt>
      <trkpt lat="40.393116" lon="-5.830792">
        <ele>704.776</ele>
        <time>2019-03-01T06:08:46Z</time>
      </trkpt>
      <trkpt lat="40.393265" lon="-5.830483">
        <ele>704.985</ele>
        <time>2019-03-01T06:09:00Z</time>
      </trkpt>
      <trkpt lat="40.393475" lon="-5.830107">
        <ele>705.339</ele>
        <time>2019-03-01T06:09:13Z</time>
      </trkpt>
      <trkpt lat="40.393740" lon="-5.829806">
        <ele>706.252</ele>
        <time>2019-03-01T06:09:27Z</time>
      </trkpt>
      <trkpt lat="40.393946" lon="-5.829675">
        <ele>707.011</ele>
        <time>2019-03-01T06:09:38Z</time>
      </trkpt>
      <trkpt lat="40.394310" lon="-5.829438">
        <ele>708.630</ele>
        <time>2019-03-01T06:09:54Z</time>
      </trkpt>
      <trkpt lat="40.394527" lon="-5.829289">
        <ele>709.883</ele>
        <time>2019-03-01T06:10:08Z</time>
      </trkpt>
      <trkpt lat="40.394575" lon="-5.829261">
        <ele>710.125</ele>
        <time>2019-03-01T06:10:15Z</time>
      </trkpt>
      <trkpt lat="40.394644" lon="-5.829208">
        <ele>710.417</ele>
        <time>2019-03-01T06:10:35Z</time>
      </trkpt>
      <trkpt lat="40.394807" lon="-5.829117">
        <ele>710.908</ele>
        <time>2019-03-01T06:10:53Z</time>
      </trkpt>
      <trkpt lat="40.394919" lon="-5.828945">
        <ele>711.451</ele>
        <time>2019-03-01T06:11:04Z</time>
      </trkpt>
      <trkpt lat="40.395073" lon="-5.828693">
        <ele>711.992</ele>
        <time>2019-03-01T06:11:18Z</time>
      </trkpt>
      <trkpt lat="40.395195" lon="-5.828536">
        <ele>712.063</ele>
        <time>2019-03-01T06:11:29Z</time>
      </trkpt>
      <trkpt lat="40.395204" lon="-5.828517">
        <ele>712.022</ele>
        <time>2019-03-01T06:11:30Z</time>
      </trkpt>
      <trkpt lat="40.395214" lon="-5.828497">
        <ele>711.976</ele>
        <time>2019-03-01T06:11:31Z</time>
      </trkpt>
      <trkpt lat="40.395361" lon="-5.828170">
        <ele>711.589</ele>
        <time>2019-03-01T06:11:44Z</time>
      </trkpt>
      <trkpt lat="40.395638" lon="-5.827616">
        <ele>711.778</ele>
        <time>2019-03-01T06:12:02Z</time>
      </trkpt>
      <trkpt lat="40.395949" lon="-5.826920">
        <ele>709.167</ele>
        <time>2019-03-01T06:12:12Z</time>
      </trkpt>
      <trkpt lat="40.395989" lon="-5.826850">
        <ele>708.835</ele>
        <time>2019-03-01T06:12:13Z</time>
      </trkpt>
      <trkpt lat="40.396261" lon="-5.826481">
        <ele>706.686</ele>
        <time>2019-03-01T06:12:22Z</time>
      </trkpt>
      <trkpt lat="40.396456" lon="-5.826302">
        <ele>707.314</ele>
        <time>2019-03-01T06:12:34Z</time>
      </trkpt>
      <trkpt lat="40.396457" lon="-5.826301">
        <ele>707.308</ele>
        <time>2019-03-01T06:12:36Z</time>
      </trkpt>
      <trkpt lat="40.396488" lon="-5.826225">
        <ele>707.676</ele>
        <time>2019-03-01T06:12:45Z</time>
      </trkpt>
      <trkpt lat="40.396493" lon="-5.826212">
        <ele>707.757</ele>
        <time>2019-03-01T06:12:46Z</time>
      </trkpt>
      <trkpt lat="40.396497" lon="-5.826196">
        <ele>707.788</ele>
        <time>2019-03-01T06:12:47Z</time>
      </trkpt>
      <trkpt lat="40.396501" lon="-5.826179">
        <ele>707.887</ele>
        <time>2019-03-01T06:12:48Z</time>
      </trkpt>
      <trkpt lat="40.396518" lon="-5.826136">
        <ele>708.091</ele>
        <time>2019-03-01T06:12:51Z</time>
      </trkpt>
      <trkpt lat="40.396527" lon="-5.826124">
        <ele>708.144</ele>
        <time>2019-03-01T06:12:52Z</time>
      </trkpt>
      <trkpt lat="40.396569" lon="-5.826045">
        <ele>708.553</ele>
        <time>2019-03-01T06:12:58Z</time>
      </trkpt>
      <trkpt lat="40.396594" lon="-5.826012">
        <ele>708.722</ele>
        <time>2019-03-01T06:13:01Z</time>
      </trkpt>
      <trkpt lat="40.396604" lon="-5.825984">
        <ele>708.873</ele>
        <time>2019-03-01T06:13:03Z</time>
      </trkpt>
      <trkpt lat="40.396612" lon="-5.825968">
        <ele>708.985</ele>
        <time>2019-03-01T06:13:04Z</time>
      </trkpt>
      <trkpt lat="40.396624" lon="-5.825944">
        <ele>709.013</ele>
        <time>2019-03-01T06:13:09Z</time>
      </trkpt>
      <trkpt lat="40.396670" lon="-5.825798">
        <ele>709.608</ele>
        <time>2019-03-01T06:13:21Z</time>
      </trkpt>
      <trkpt lat="40.396676" lon="-5.825781">
        <ele>709.880</ele>
        <time>2019-03-01T06:13:22Z</time>
      </trkpt>
      <trkpt lat="40.396735" lon="-5.825658">
        <ele>710.541</ele>
        <time>2019-03-01T06:13:34Z</time>
      </trkpt>
      <trkpt lat="40.396746" lon="-5.825607">
        <ele>710.762</ele>
        <time>2019-03-01T06:13:51Z</time>
      </trkpt>
      <trkpt lat="40.396780" lon="-5.825397">
        <ele>711.851</ele>
        <time>2019-03-01T06:14:02Z</time>
      </trkpt>
      <trkpt lat="40.396791" lon="-5.825375">
        <ele>711.965</ele>
        <time>2019-03-01T06:14:03Z</time>
      </trkpt>
      <trkpt lat="40.396799" lon="-5.825355">
        <ele>712.038</ele>
        <time>2019-03-01T06:14:04Z</time>
      </trkpt>
      <trkpt lat="40.396807" lon="-5.825335">
        <ele>712.117</ele>
        <time>2019-03-01T06:14:05Z</time>
      </trkpt>
      <trkpt lat="40.396812" lon="-5.825317">
        <ele>712.246</ele>
        <time>2019-03-01T06:14:06Z</time>
      </trkpt>
      <trkpt lat="40.396818" lon="-5.825295">
        <ele>712.378</ele>
        <time>2019-03-01T06:14:07Z</time>
      </trkpt>
      <trkpt lat="40.396826" lon="-5.825273">
        <ele>712.533</ele>
        <time>2019-03-01T06:14:08Z</time>
      </trkpt>
      <trkpt lat="40.396835" lon="-5.825254">
        <ele>712.626</ele>
        <time>2019-03-01T06:14:09Z</time>
      </trkpt>
      <trkpt lat="40.396904" lon="-5.825058">
        <ele>714.908</ele>
        <time>2019-03-01T06:14:23Z</time>
      </trkpt>
      <trkpt lat="40.396970" lon="-5.824937">
        <ele>716.880</ele>
        <time>2019-03-01T06:14:37Z</time>
      </trkpt>
      <trkpt lat="40.397041" lon="-5.824824">
        <ele>718.411</ele>
        <time>2019-03-01T06:14:53Z</time>
      </trkpt>
      <trkpt lat="40.397056" lon="-5.824833">
        <ele>718.742</ele>
        <time>2019-03-01T06:14:55Z</time>
      </trkpt>
      <trkpt lat="40.397085" lon="-5.824878">
        <ele>719.461</ele>
        <time>2019-03-01T06:15:00Z</time>
      </trkpt>
      <trkpt lat="40.397085" lon="-5.824893">
        <ele>719.675</ele>
        <time>2019-03-01T06:15:01Z</time>
      </trkpt>
      <trkpt lat="40.397083" lon="-5.824908">
        <ele>719.828</ele>
        <time>2019-03-01T06:15:02Z</time>
      </trkpt>
      <trkpt lat="40.397122" lon="-5.825040">
        <ele>721.437</ele>
        <time>2019-03-01T06:15:17Z</time>
      </trkpt>
      <trkpt lat="40.397162" lon="-5.825108">
        <ele>722.276</ele>
        <time>2019-03-01T06:15:30Z</time>
      </trkpt>
      <trkpt lat="40.398153" lon="-5.824797">
        <ele>737.399</ele>
        <time>2019-03-01T06:20:04Z</time>
      </trkpt>
      <trkpt lat="40.398303" lon="-5.824764">
        <ele>738.507</ele>
        <time>2019-03-01T06:20:19Z</time>
      </trkpt>
      <trkpt lat="40.398505" lon="-5.824750">
        <ele>740.427</ele>
        <time>2019-03-01T06:20:37Z</time>
      </trkpt>
      <trkpt lat="40.398615" lon="-5.824769">
        <ele>741.408</ele>
        <time>2019-03-01T06:20:51Z</time>
      </trkpt>
      <trkpt lat="40.398723" lon="-5.824744">
        <ele>742.252</ele>
        <time>2019-03-01T06:21:58Z</time>
      </trkpt>
      <trkpt lat="40.398872" lon="-5.824652">
        <ele>743.283</ele>
        <time>2019-03-01T06:22:10Z</time>
      </trkpt>
      <trkpt lat="40.399008" lon="-5.824530">
        <ele>744.574</ele>
        <time>2019-03-01T06:22:24Z</time>
      </trkpt>
      <trkpt lat="40.399039" lon="-5.824490">
        <ele>744.913</ele>
        <time>2019-03-01T06:22:28Z</time>
      </trkpt>
      <trkpt lat="40.399082" lon="-5.824473">
        <ele>745.257</ele>
        <time>2019-03-01T06:22:32Z</time>
      </trkpt>
      <trkpt lat="40.399239" lon="-5.824333">
        <ele>746.740</ele>
        <time>2019-03-01T06:22:48Z</time>
      </trkpt>
      <trkpt lat="40.399475" lon="-5.824129">
        <ele>748.789</ele>
        <time>2019-03-01T06:23:09Z</time>
      </trkpt>
      <trkpt lat="40.399526" lon="-5.824100">
        <ele>749.028</ele>
        <time>2019-03-01T06:23:17Z</time>
      </trkpt>
      <trkpt lat="40.399569" lon="-5.824080">
        <ele>749.326</ele>
        <time>2019-03-01T06:23:22Z</time>
      </trkpt>
      <trkpt lat="40.399839" lon="-5.824011">
        <ele>750.647</ele>
        <time>2019-03-01T06:23:38Z</time>
      </trkpt>
      <trkpt lat="40.400058" lon="-5.823969">
        <ele>751.911</ele>
        <time>2019-03-01T06:23:51Z</time>
      </trkpt>
      <trkpt lat="40.400236" lon="-5.823959">
        <ele>752.808</ele>
        <time>2019-03-01T06:24:06Z</time>
      </trkpt>
      <trkpt lat="40.400236" lon="-5.823959">
        <ele>752.875</ele>
        <time>2019-03-01T06:24:07Z</time>
      </trkpt>
      <trkpt lat="40.400336" lon="-5.823930">
        <ele>753.336</ele>
        <time>2019-03-01T06:24:28Z</time>
      </trkpt>
      <trkpt lat="40.400542" lon="-5.823881">
        <ele>754.367</ele>
        <time>2019-03-01T06:24:42Z</time>
      </trkpt>
      <trkpt lat="40.400825" lon="-5.823856">
        <ele>755.756</ele>
        <time>2019-03-01T06:24:58Z</time>
      </trkpt>
      <trkpt lat="40.401073" lon="-5.823853">
        <ele>757.160</ele>
        <time>2019-03-01T06:25:12Z</time>
      </trkpt>
      <trkpt lat="40.401319" lon="-5.823765">
        <ele>758.573</ele>
        <time>2019-03-01T06:25:28Z</time>
      </trkpt>
      <trkpt lat="40.401404" lon="-5.823724">
        <ele>758.942</ele>
        <time>2019-03-01T06:25:34Z</time>
      </trkpt>
      <trkpt lat="40.401473" lon="-5.823720">
        <ele>759.391</ele>
        <time>2019-03-01T06:25:39Z</time>
      </trkpt>
      <trkpt lat="40.401797" lon="-5.823585">
        <ele>760.626</ele>
        <time>2019-03-01T06:25:55Z</time>
      </trkpt>
      <trkpt lat="40.402214" lon="-5.823277">
        <ele>761.847</ele>
        <time>2019-03-01T06:26:12Z</time>
      </trkpt>
      <trkpt lat="40.402437" lon="-5.823022">
        <ele>763.011</ele>
        <time>2019-03-01T06:26:25Z</time>
      </trkpt>
      <trkpt lat="40.402537" lon="-5.822882">
        <ele>763.908</ele>
        <time>2019-03-01T06:26:36Z</time>
      </trkpt>
      <trkpt lat="40.402550" lon="-5.822878">
        <ele>763.915</ele>
        <time>2019-03-01T06:26:37Z</time>
      </trkpt>
      <trkpt lat="40.402564" lon="-5.822872">
        <ele>764.076</ele>
        <time>2019-03-01T06:26:38Z</time>
      </trkpt>
      <trkpt lat="40.402576" lon="-5.822864">
        <ele>764.097</ele>
        <time>2019-03-01T06:26:39Z</time>
      </trkpt>
      <trkpt lat="40.402587" lon="-5.822856">
        <ele>764.176</ele>
        <time>2019-03-01T06:26:40Z</time>
      </trkpt>
      <trkpt lat="40.402599" lon="-5.822846">
        <ele>764.110</ele>
        <time>2019-03-01T06:26:41Z</time>
      </trkpt>
      <trkpt lat="40.402613" lon="-5.822835">
        <ele>764.233</ele>
        <time>2019-03-01T06:26:42Z</time>
      </trkpt>
      <trkpt lat="40.402898" lon="-5.822605">
        <ele>765.172</ele>
        <time>2019-03-01T06:26:55Z</time>
      </trkpt>
      <trkpt lat="40.403263" lon="-5.822374">
        <ele>765.861</ele>
        <time>2019-03-01T06:27:09Z</time>
      </trkpt>
      <trkpt lat="40.403593" lon="-5.822170">
        <ele>766.732</ele>
        <time>2019-03-01T06:27:24Z</time>
      </trkpt>
      <trkpt lat="40.403713" lon="-5.821805">
        <ele>768.292</ele>
        <time>2019-03-01T06:27:37Z</time>
      </trkpt>
      <trkpt lat="40.403872" lon="-5.821575">
        <ele>770.211</ele>
        <time>2019-03-01T06:27:53Z</time>
      </trkpt>
      <trkpt lat="40.403870" lon="-5.821573">
        <ele>770.308</ele>
        <time>2019-03-01T06:27:56Z</time>
      </trkpt>
      <trkpt lat="40.404055" lon="-5.821371">
        <ele>772.416</ele>
        <time>2019-03-01T06:28:23Z</time>
      </trkpt>
      <trkpt lat="40.404185" lon="-5.821308">
        <ele>773.257</ele>
        <time>2019-03-01T06:28:38Z</time>
      </trkpt>
      <trkpt lat="40.404467" lon="-5.821079">
        <ele>774.448</ele>
        <time>2019-03-01T06:28:51Z</time>
      </trkpt>
      <trkpt lat="40.404708" lon="-5.820782">
        <ele>775.437</ele>
        <time>2019-03-01T06:29:05Z</time>
      </trkpt>
      <trkpt lat="40.404916" lon="-5.820373">
        <ele>776.251</ele>
        <time>2019-03-01T06:29:20Z</time>
      </trkpt>
      <trkpt lat="40.405202" lon="-5.819802">
        <ele>776.594</ele>
        <time>2019-03-01T06:29:35Z</time>
      </trkpt>
      <trkpt lat="40.405600" lon="-5.819285">
        <ele>777.083</ele>
        <time>2019-03-01T06:29:51Z</time>
      </trkpt>
      <trkpt lat="40.405873" lon="-5.819029">
        <ele>777.432</ele>
        <time>2019-03-01T06:30:03Z</time>
      </trkpt>
      <trkpt lat="40.406352" lon="-5.818461">
        <ele>777.337</ele>
        <time>2019-03-01T06:30:18Z</time>
      </trkpt>
      <trkpt lat="40.406623" lon="-5.818152">
        <ele>777.649</ele>
        <time>2019-03-01T06:30:30Z</time>
      </trkpt>
      <trkpt lat="40.407069" lon="-5.817790">
        <ele>778.413</ele>
        <time>2019-03-01T06:30:45Z</time>
      </trkpt>
      <trkpt lat="40.407669" lon="-5.817372">
        <ele>779.208</ele>
        <time>2019-03-01T06:31:03Z</time>
      </trkpt>
      <trkpt lat="40.407979" lon="-5.817192">
        <ele>780.336</ele>
        <time>2019-03-01T06:31:19Z</time>
      </trkpt>
      <trkpt lat="40.408351" lon="-5.817158">
        <ele>783.127</ele>
        <time>2019-03-01T06:31:37Z</time>
      </trkpt>
      <trkpt lat="40.408669" lon="-5.817092">
        <ele>786.648</ele>
        <time>2019-03-01T06:31:55Z</time>
      </trkpt>
      <trkpt lat="40.408930" lon="-5.816886">
        <ele>790.097</ele>
        <time>2019-03-01T06:32:12Z</time>
      </trkpt>
      <trkpt lat="40.409161" lon="-5.816714">
        <ele>792.421</ele>
        <time>2019-03-01T06:32:27Z</time>
      </trkpt>
      <trkpt lat="40.409442" lon="-5.816550">
        <ele>794.534</ele>
        <time>2019-03-01T06:32:45Z</time>
      </trkpt>
      <trkpt lat="40.409470" lon="-5.816550">
        <ele>794.553</ele>
        <time>2019-03-01T06:32:47Z</time>
      </trkpt>
      <trkpt lat="40.409478" lon="-5.816562">
        <ele>794.552</ele>
        <time>2019-03-01T06:32:48Z</time>
      </trkpt>
      <trkpt lat="40.409472" lon="-5.816612">
        <ele>794.659</ele>
        <time>2019-03-01T06:32:51Z</time>
      </trkpt>
      <trkpt lat="40.409344" lon="-5.816797">
        <ele>794.703</ele>
        <time>2019-03-01T06:33:06Z</time>
      </trkpt>
      <trkpt lat="40.409345" lon="-5.816800">
        <ele>794.723</ele>
        <time>2019-03-01T06:33:07Z</time>
      </trkpt>
      <trkpt lat="40.409354" lon="-5.816746">
        <ele>794.808</ele>
        <time>2019-03-01T23:00:54Z</time>
      </trkpt>
      <trkpt lat="40.409355" lon="-5.816744">
        <ele>794.828</ele>
        <time>2019-03-01T23:00:55Z</time>
      </trkpt>
      <trkpt lat="40.409365" lon="-5.816732">
        <ele>794.889</ele>
        <time>2019-03-01T23:00:57Z</time>
      </trkpt>
      <trkpt lat="40.409399" lon="-5.816674">
        <ele>794.810</ele>
        <time>2019-03-01T23:01:01Z</time>
      </trkpt>
      <trkpt lat="40.409453" lon="-5.816571">
        <ele>794.929</ele>
        <time>2019-03-01T23:01:08Z</time>
      </trkpt>
      <trkpt lat="40.409484" lon="-5.816501">
        <ele>794.913</ele>
        <time>2019-03-01T23:01:22Z</time>
      </trkpt>
      <trkpt lat="40.409499" lon="-5.816479">
        <ele>795.076</ele>
        <time>2019-03-01T23:01:50Z</time>
      </trkpt>
      <trkpt lat="40.409558" lon="-5.816420">
        <ele>795.475</ele>
        <time>2019-03-01T23:02:07Z</time>
      </trkpt>
      <trkpt lat="40.409771" lon="-5.816291">
        <ele>795.894</ele>
        <time>2019-03-01T23:02:20Z</time>
      </trkpt>
      <trkpt lat="40.409903" lon="-5.816161">
        <ele>795.818</ele>
        <time>2019-03-01T23:02:27Z</time>
      </trkpt>
      <trkpt lat="40.409976" lon="-5.816093">
        <ele>795.998</ele>
        <time>2019-03-01T23:02:31Z</time>
      </trkpt>
      <trkpt lat="40.410001" lon="-5.816078">
        <ele>796.017</ele>
        <time>2019-03-01T23:02:32Z</time>
      </trkpt>
      <trkpt lat="40.410170" lon="-5.815984">
        <ele>796.208</ele>
        <time>2019-03-01T23:02:42Z</time>
      </trkpt>
      <trkpt lat="40.410169" lon="-5.815987">
        <ele>796.274</ele>
        <time>2019-03-01T23:02:43Z</time>
      </trkpt>
      <trkpt lat="40.410247" lon="-5.815963">
        <ele>796.235</ele>
        <time>2019-03-01T23:03:20Z</time>
      </trkpt>
      <trkpt lat="40.410266" lon="-5.815959">
        <ele>796.246</ele>
        <time>2019-03-01T23:03:21Z</time>
      </trkpt>
      <trkpt lat="40.410286" lon="-5.815952">
        <ele>796.245</ele>
        <time>2019-03-01T23:03:22Z</time>
      </trkpt>
      <trkpt lat="40.410303" lon="-5.815939">
        <ele>796.219</ele>
        <time>2019-03-01T23:03:23Z</time>
      </trkpt>
      <trkpt lat="40.410323" lon="-5.815925">
        <ele>796.192</ele>
        <time>2019-03-01T23:03:24Z</time>
      </trkpt>
      <trkpt lat="40.410342" lon="-5.815912">
        <ele>796.141</ele>
        <time>2019-03-01T23:03:25Z</time>
      </trkpt>
      <trkpt lat="40.410361" lon="-5.815902">
        <ele>796.280</ele>
        <time>2019-03-01T23:03:26Z</time>
      </trkpt>
      <trkpt lat="40.410686" lon="-5.815779">
        <ele>795.611</ele>
        <time>2019-03-01T23:03:40Z</time>
      </trkpt>
      <trkpt lat="40.411040" lon="-5.815724">
        <ele>794.121</ele>
        <time>2019-03-01T23:03:50Z</time>
      </trkpt>
      <trkpt lat="40.411177" lon="-5.815707">
        <ele>793.703</ele>
        <time>2019-03-01T23:03:53Z</time>
      </trkpt>
      <trkpt lat="40.411224" lon="-5.815688">
        <ele>793.608</ele>
        <time>2019-03-01T23:03:54Z</time>
      </trkpt>
      <trkpt lat="40.411414" lon="-5.815592">
        <ele>792.754</ele>
        <time>2019-03-01T23:04:03Z</time>
      </trkpt>
      <trkpt lat="40.411413" lon="-5.815592">
        <ele>792.795</ele>
        <time>2019-03-01T23:04:04Z</time>
      </trkpt>
      <trkpt lat="40.411472" lon="-5.815569">
        <ele>792.446</ele>
        <time>2019-03-01T23:04:41Z</time>
      </trkpt>
      <trkpt lat="40.411493" lon="-5.815568">
        <ele>792.375</ele>
        <time>2019-03-01T23:04:42Z</time>
      </trkpt>
      <trkpt lat="40.411564" lon="-5.815564">
        <ele>791.979</ele>
        <time>2019-03-01T23:04:45Z</time>
      </trkpt>
      <trkpt lat="40.411587" lon="-5.815545">
        <ele>791.752</ele>
        <time>2019-03-01T23:04:46Z</time>
      </trkpt>
      <trkpt lat="40.411958" lon="-5.815316">
        <ele>790.371</ele>
        <time>2019-03-01T23:05:00Z</time>
      </trkpt>
      <trkpt lat="40.412451" lon="-5.815004">
        <ele>789.180</ele>
        <time>2019-03-01T23:05:13Z</time>
      </trkpt>
      <trkpt lat="40.413221" lon="-5.814503">
        <ele>787.449</ele>
        <time>2019-03-01T23:05:28Z</time>
      </trkpt>
      <trkpt lat="40.413605" lon="-5.814223">
        <ele>786.602</ele>
        <time>2019-03-01T23:05:39Z</time>
      </trkpt>
      <trkpt lat="40.413946" lon="-5.814155">
        <ele>785.622</ele>
        <time>2019-03-01T23:05:50Z</time>
      </trkpt>
      <trkpt lat="40.414395" lon="-5.814017">
        <ele>785.208</ele>
        <time>2019-03-01T23:06:03Z</time>
      </trkpt>
      <trkpt lat="40.414941" lon="-5.813804">
        <ele>783.947</ele>
        <time>2019-03-01T23:06:17Z</time>
      </trkpt>
      <trkpt lat="40.415347" lon="-5.813656">
        <ele>783.528</ele>
        <time>2019-03-01T23:06:28Z</time>
      </trkpt>
      <trkpt lat="40.415690" lon="-5.813513">
        <ele>783.159</ele>
        <time>2019-03-01T23:06:36Z</time>
      </trkpt>
      <trkpt lat="40.415961" lon="-5.813451">
        <ele>782.848</ele>
        <time>2019-03-01T23:06:42Z</time>
      </trkpt>
      <trkpt lat="40.416367" lon="-5.813259">
        <ele>782.412</ele>
        <time>2019-03-01T23:06:56Z</time>
      </trkpt>
      <trkpt lat="40.416642" lon="-5.813161">
        <ele>782.225</ele>
        <time>2019-03-01T23:07:08Z</time>
      </trkpt>
      <trkpt lat="40.416975" lon="-5.813055">
        <ele>781.874</ele>
        <time>2019-03-01T23:07:23Z</time>
      </trkpt>
      <trkpt lat="40.417325" lon="-5.812904">
        <ele>781.593</ele>
        <time>2019-03-01T23:07:35Z</time>
      </trkpt>
      <trkpt lat="40.417964" lon="-5.812645">
        <ele>780.944</ele>
        <time>2019-03-01T23:07:51Z</time>
      </trkpt>
      <trkpt lat="40.418447" lon="-5.812432">
        <ele>780.705</ele>
        <time>2019-03-01T23:08:03Z</time>
      </trkpt>
      <trkpt lat="40.418488" lon="-5.812426">
        <ele>780.715</ele>
        <time>2019-03-01T23:08:04Z</time>
      </trkpt>
      <trkpt lat="40.418617" lon="-5.812398">
        <ele>780.708</ele>
        <time>2019-03-01T23:08:07Z</time>
      </trkpt>
      <trkpt lat="40.418981" lon="-5.812230">
        <ele>780.597</ele>
        <time>2019-03-01T23:08:16Z</time>
      </trkpt>
      <trkpt lat="40.419266" lon="-5.812134">
        <ele>780.528</ele>
        <time>2019-03-01T23:08:23Z</time>
      </trkpt>
      <trkpt lat="40.420020" lon="-5.811833">
        <ele>780.019</ele>
        <time>2019-03-01T23:08:40Z</time>
      </trkpt>
      <trkpt lat="40.420333" lon="-5.811685">
        <ele>779.998</ele>
        <time>2019-03-01T23:08:47Z</time>
      </trkpt>
      <trkpt lat="40.420457" lon="-5.811618">
        <ele>779.852</ele>
        <time>2019-03-01T23:08:50Z</time>
      </trkpt>
      <trkpt lat="40.420503" lon="-5.811603">
        <ele>779.855</ele>
        <time>2019-03-01T23:08:51Z</time>
      </trkpt>
      <trkpt lat="40.421079" lon="-5.811403">
        <ele>779.434</ele>
        <time>2019-03-01T23:09:05Z</time>
      </trkpt>
      <trkpt lat="40.421298" lon="-5.811291">
        <ele>779.013</ele>
        <time>2019-03-01T23:09:16Z</time>
      </trkpt>
      <trkpt lat="40.421569" lon="-5.811206">
        <ele>778.872</ele>
        <time>2019-03-01T23:09:26Z</time>
      </trkpt>
      <trkpt lat="40.422142" lon="-5.811024">
        <ele>778.213</ele>
        <time>2019-03-01T23:09:39Z</time>
      </trkpt>
      <trkpt lat="40.422186" lon="-5.811005">
        <ele>778.114</ele>
        <time>2019-03-01T23:09:40Z</time>
      </trkpt>
      <trkpt lat="40.422822" lon="-5.810765">
        <ele>777.608</ele>
        <time>2019-03-01T23:09:54Z</time>
      </trkpt>
      <trkpt lat="40.423618" lon="-5.810463">
        <ele>777.430</ele>
        <time>2019-03-01T23:10:09Z</time>
      </trkpt>
      <trkpt lat="40.424229" lon="-5.810216">
        <ele>777.731</ele>
        <time>2019-03-01T23:10:21Z</time>
      </trkpt>
      <trkpt lat="40.424275" lon="-5.810207">
        <ele>777.822</ele>
        <time>2019-03-01T23:10:22Z</time>
      </trkpt>
      <trkpt lat="40.424506" lon="-5.810130">
        <ele>778.191</ele>
        <time>2019-03-01T23:10:27Z</time>
      </trkpt>
      <trkpt lat="40.424546" lon="-5.810109">
        <ele>778.145</ele>
        <time>2019-03-01T23:10:28Z</time>
      </trkpt>
      <trkpt lat="40.424842" lon="-5.809982">
        <ele>778.958</ele>
        <time>2019-03-01T23:10:35Z</time>
      </trkpt>
      <trkpt lat="40.424884" lon="-5.809969">
        <ele>779.037</ele>
        <time>2019-03-01T23:10:36Z</time>
      </trkpt>
      <trkpt lat="40.424923" lon="-5.809956">
        <ele>779.176</ele>
        <time>2019-03-01T23:10:37Z</time>
      </trkpt>
      <trkpt lat="40.424964" lon="-5.809946">
        <ele>779.276</ele>
        <time>2019-03-01T23:10:38Z</time>
      </trkpt>
      <trkpt lat="40.425005" lon="-5.809936">
        <ele>779.490</ele>
        <time>2019-03-01T23:10:39Z</time>
      </trkpt>
      <trkpt lat="40.425046" lon="-5.809924">
        <ele>779.519</ele>
        <time>2019-03-01T23:10:40Z</time>
      </trkpt>
      <trkpt lat="40.425549" lon="-5.809731">
        <ele>781.508</ele>
        <time>2019-03-01T23:10:53Z</time>
      </trkpt>
      <trkpt lat="40.426046" lon="-5.809528">
        <ele>783.430</ele>
        <time>2019-03-01T23:11:09Z</time>
      </trkpt>
      <trkpt lat="40.426529" lon="-5.809359">
        <ele>785.081</ele>
        <time>2019-03-01T23:11:26Z</time>
      </trkpt>
      <trkpt lat="40.426926" lon="-5.809217">
        <ele>785.322</ele>
        <time>2019-03-01T23:11:41Z</time>
      </trkpt>
      <trkpt lat="40.427410" lon="-5.809077">
        <ele>784.861</ele>
        <time>2019-03-01T23:12:00Z</time>
      </trkpt>
      <trkpt lat="40.427613" lon="-5.808987">
        <ele>784.335</ele>
        <time>2019-03-01T23:12:10Z</time>
      </trkpt>
      <trkpt lat="40.427613" lon="-5.808960">
        <ele>784.238</ele>
        <time>2019-03-01T23:12:11Z</time>
      </trkpt>
      <trkpt lat="40.427611" lon="-5.808940">
        <ele>784.277</ele>
        <time>2019-03-01T23:12:12Z</time>
      </trkpt>
      <trkpt lat="40.427660" lon="-5.808889">
        <ele>784.026</ele>
        <time>2019-03-01T23:12:16Z</time>
      </trkpt>
      <trkpt lat="40.428058" lon="-5.808710">
        <ele>782.365</ele>
        <time>2019-03-01T23:12:30Z</time>
      </trkpt>
      <trkpt lat="40.428074" lon="-5.808703">
        <ele>782.368</ele>
        <time>2019-03-01T23:12:35Z</time>
      </trkpt>
      <trkpt lat="40.428102" lon="-5.808686">
        <ele>782.114</ele>
        <time>2019-03-01T23:13:13Z</time>
      </trkpt>
      <trkpt lat="40.428128" lon="-5.808674">
        <ele>782.008</ele>
        <time>2019-03-01T23:13:14Z</time>
      </trkpt>
      <trkpt lat="40.428705" lon="-5.808447">
        <ele>780.759</ele>
        <time>2019-03-01T23:13:28Z</time>
      </trkpt>
      <trkpt lat="40.429609" lon="-5.808075">
        <ele>779.880</ele>
        <time>2019-03-01T23:13:43Z</time>
      </trkpt>
      <trkpt lat="40.430442" lon="-5.807780">
        <ele>780.081</ele>
        <time>2019-03-01T23:13:58Z</time>
      </trkpt>
      <trkpt lat="40.431128" lon="-5.807522">
        <ele>780.470</ele>
        <time>2019-03-01T23:14:12Z</time>
      </trkpt>
      <trkpt lat="40.431982" lon="-5.807189">
        <ele>781.564</ele>
        <time>2019-03-01T23:14:31Z</time>
      </trkpt>
      <trkpt lat="40.432671" lon="-5.806902">
        <ele>782.627</ele>
        <time>2019-03-01T23:14:49Z</time>
      </trkpt>
      <trkpt lat="40.433472" lon="-5.806597">
        <ele>783.196</ele>
        <time>2019-03-01T23:15:11Z</time>
      </trkpt>
      <trkpt lat="40.433842" lon="-5.806462">
        <ele>783.315</ele>
        <time>2019-03-01T23:15:21Z</time>
      </trkpt>
      <trkpt lat="40.434561" lon="-5.806179">
        <ele>785.419</ele>
        <time>2019-03-01T23:15:39Z</time>
      </trkpt>
      <trkpt lat="40.435226" lon="-5.805918">
        <ele>786.209</ele>
        <time>2019-03-01T23:15:59Z</time>
      </trkpt>
      <trkpt lat="40.435706" lon="-5.805777">
        <ele>786.419</ele>
        <time>2019-03-01T23:16:15Z</time>
      </trkpt>
      <trkpt lat="40.436221" lon="-5.805577">
        <ele>786.408</ele>
        <time>2019-03-01T23:16:31Z</time>
      </trkpt>
      <trkpt lat="40.436656" lon="-5.805411">
        <ele>786.474</ele>
        <time>2019-03-01T23:16:44Z</time>
      </trkpt>
      <trkpt lat="40.437263" lon="-5.805183">
        <ele>786.625</ele>
        <time>2019-03-01T23:17:00Z</time>
      </trkpt>
      <trkpt lat="40.437337" lon="-5.805143">
        <ele>786.796</ele>
        <time>2019-03-01T23:17:02Z</time>
      </trkpt>
      <trkpt lat="40.437377" lon="-5.805131">
        <ele>786.775</ele>
        <time>2019-03-01T23:17:03Z</time>
      </trkpt>
      <trkpt lat="40.437419" lon="-5.805120">
        <ele>786.829</ele>
        <time>2019-03-01T23:17:04Z</time>
      </trkpt>
      <trkpt lat="40.437458" lon="-5.805099">
        <ele>786.892</ele>
        <time>2019-03-01T23:17:05Z</time>
      </trkpt>
      <trkpt lat="40.437494" lon="-5.805074">
        <ele>786.921</ele>
        <time>2019-03-01T23:17:06Z</time>
      </trkpt>
      <trkpt lat="40.437916" lon="-5.804858">
        <ele>787.390</ele>
        <time>2019-03-01T23:17:18Z</time>
      </trkpt>
      <trkpt lat="40.438656" lon="-5.804613">
        <ele>787.286</ele>
        <time>2019-03-01T23:17:37Z</time>
      </trkpt>
      <trkpt lat="40.439300" lon="-5.804343">
        <ele>786.560</ele>
        <time>2019-03-01T23:17:54Z</time>
      </trkpt>
      <trkpt lat="40.439382" lon="-5.804305">
        <ele>786.426</ele>
        <time>2019-03-01T23:17:56Z</time>
      </trkpt>
      <trkpt lat="40.439427" lon="-5.804293">
        <ele>786.408</ele>
        <time>2019-03-01T23:17:57Z</time>
      </trkpt>
      <trkpt lat="40.439471" lon="-5.804284">
        <ele>786.451</ele>
        <time>2019-03-01T23:17:58Z</time>
      </trkpt>
      <trkpt lat="40.439559" lon="-5.804262">
        <ele>786.342</ele>
        <time>2019-03-01T23:18:00Z</time>
      </trkpt>
      <trkpt lat="40.439603" lon="-5.804243">
        <ele>786.243</ele>
        <time>2019-03-01T23:18:01Z</time>
      </trkpt>
      <trkpt lat="40.439645" lon="-5.804228">
        <ele>786.192</ele>
        <time>2019-03-01T23:18:02Z</time>
      </trkpt>
      <trkpt lat="40.439731" lon="-5.804197">
        <ele>785.956</ele>
        <time>2019-03-01T23:18:04Z</time>
      </trkpt>
      <trkpt lat="40.439771" lon="-5.804169">
        <ele>785.899</ele>
        <time>2019-03-01T23:18:05Z</time>
      </trkpt>
      <trkpt lat="40.440274" lon="-5.803892">
        <ele>784.698</ele>
        <time>2019-03-01T23:18:17Z</time>
      </trkpt>
      <trkpt lat="40.441107" lon="-5.803232">
        <ele>782.497</ele>
        <time>2019-03-01T23:18:35Z</time>
      </trkpt>
      <trkpt lat="40.441268" lon="-5.803098">
        <ele>781.855</ele>
        <time>2019-03-01T23:18:39Z</time>
      </trkpt>
      <trkpt lat="40.441305" lon="-5.803069">
        <ele>781.607</ele>
        <time>2019-03-01T23:18:40Z</time>
      </trkpt>
      <trkpt lat="40.441927" lon="-5.802503">
        <ele>778.717</ele>
        <time>2019-03-01T23:18:55Z</time>
      </trkpt>
      <trkpt lat="40.442017" lon="-5.802463">
        <ele>778.508</ele>
        <time>2019-03-01T23:19:02Z</time>
      </trkpt>
      <trkpt lat="40.442074" lon="-5.802430">
        <ele>778.448</ele>
        <time>2019-03-01T23:19:30Z</time>
      </trkpt>
      <trkpt lat="40.442516" lon="-5.802088">
        <ele>777.519</ele>
        <time>2019-03-01T23:19:41Z</time>
      </trkpt>
      <trkpt lat="40.442675" lon="-5.801993">
        <ele>777.590</ele>
        <time>2019-03-01T23:19:44Z</time>
      </trkpt>
      <trkpt lat="40.442867" lon="-5.801942">
        <ele>778.069</ele>
        <time>2019-03-01T23:19:48Z</time>
      </trkpt>
      <trkpt lat="40.442910" lon="-5.801942">
        <ele>778.183</ele>
        <time>2019-03-01T23:19:49Z</time>
      </trkpt>
      <trkpt lat="40.442953" lon="-5.801952">
        <ele>778.246</ele>
        <time>2019-03-01T23:19:50Z</time>
      </trkpt>
      <trkpt lat="40.442995" lon="-5.801969">
        <ele>778.475</ele>
        <time>2019-03-01T23:19:51Z</time>
      </trkpt>
      <trkpt lat="40.443036" lon="-5.801990">
        <ele>778.514</ele>
        <time>2019-03-01T23:19:52Z</time>
      </trkpt>
      <trkpt lat="40.443533" lon="-5.802168">
        <ele>780.428</ele>
        <time>2019-03-01T23:20:06Z</time>
      </trkpt>
      <trkpt lat="40.443835" lon="-5.802127">
        <ele>780.589</ele>
        <time>2019-03-01T23:20:17Z</time>
      </trkpt>
      <trkpt lat="40.444165" lon="-5.802121">
        <ele>780.217</ele>
        <time>2019-03-01T23:20:29Z</time>
      </trkpt>
      <trkpt lat="40.444410" lon="-5.802179">
        <ele>780.108</ele>
        <time>2019-03-01T23:20:35Z</time>
      </trkpt>
      <trkpt lat="40.444968" lon="-5.802046">
        <ele>780.265</ele>
        <time>2019-03-01T23:20:49Z</time>
      </trkpt>
      <trkpt lat="40.445223" lon="-5.801871">
        <ele>780.446</ele>
        <time>2019-03-01T23:21:01Z</time>
      </trkpt>
      <trkpt lat="40.445222" lon="-5.801871">
        <ele>780.477</ele>
        <time>2019-03-01T23:21:03Z</time>
      </trkpt>
      <trkpt lat="40.445281" lon="-5.801838">
        <ele>780.516</ele>
        <time>2019-03-01T23:21:57Z</time>
      </trkpt>
      <trkpt lat="40.445674" lon="-5.801603">
        <ele>780.780</ele>
        <time>2019-03-01T23:22:10Z</time>
      </trkpt>
      <trkpt lat="40.446261" lon="-5.801209">
        <ele>780.893</ele>
        <time>2019-03-01T23:22:26Z</time>
      </trkpt>
      <trkpt lat="40.446416" lon="-5.801125">
        <ele>780.732</ele>
        <time>2019-03-01T23:22:30Z</time>
      </trkpt>
      <trkpt lat="40.446457" lon="-5.801104">
        <ele>780.621</ele>
        <time>2019-03-01T23:22:31Z</time>
      </trkpt>
      <trkpt lat="40.446495" lon="-5.801085">
        <ele>780.529</ele>
        <time>2019-03-01T23:22:32Z</time>
      </trkpt>
      <trkpt lat="40.446533" lon="-5.801060">
        <ele>780.400</ele>
        <time>2019-03-01T23:22:33Z</time>
      </trkpt>
      <trkpt lat="40.446568" lon="-5.801036">
        <ele>780.420</ele>
        <time>2019-03-01T23:22:34Z</time>
      </trkpt>
      <trkpt lat="40.446936" lon="-5.800817">
        <ele>780.008</ele>
        <time>2019-03-01T23:22:46Z</time>
      </trkpt>
      <trkpt lat="40.447307" lon="-5.800593">
        <ele>779.785</ele>
        <time>2019-03-01T23:22:56Z</time>
      </trkpt>
      <trkpt lat="40.447381" lon="-5.800538">
        <ele>779.696</ele>
        <time>2019-03-01T23:22:58Z</time>
      </trkpt>
      <trkpt lat="40.447681" lon="-5.800405">
        <ele>779.337</ele>
        <time>2019-03-01T23:23:05Z</time>
      </trkpt>
      <trkpt lat="40.447723" lon="-5.800395">
        <ele>779.386</ele>
        <time>2019-03-01T23:23:06Z</time>
      </trkpt>
      <trkpt lat="40.447764" lon="-5.800381">
        <ele>779.230</ele>
        <time>2019-03-01T23:23:07Z</time>
      </trkpt>
      <trkpt lat="40.448273" lon="-5.800137">
        <ele>778.853</ele>
        <time>2019-03-01T23:23:18Z</time>
      </trkpt>
      <trkpt lat="40.449036" lon="-5.799778">
        <ele>778.152</ele>
        <time>2019-03-01T23:23:33Z</time>
      </trkpt>
      <trkpt lat="40.449130" lon="-5.799730">
        <ele>778.051</ele>
        <time>2019-03-01T23:23:35Z</time>
      </trkpt>
      <trkpt lat="40.449176" lon="-5.799707">
        <ele>778.015</ele>
        <time>2019-03-01T23:23:36Z</time>
      </trkpt>
      <trkpt lat="40.449632" lon="-5.799468">
        <ele>778.065</ele>
        <time>2019-03-01T23:23:46Z</time>
      </trkpt>
      <trkpt lat="40.449684" lon="-5.799446">
        <ele>778.011</ele>
        <time>2019-03-01T23:23:47Z</time>
      </trkpt>
      <trkpt lat="40.450116" lon="-5.799300">
        <ele>778.108</ele>
        <time>2019-03-01T23:23:56Z</time>
      </trkpt>
      <trkpt lat="40.450161" lon="-5.799288">
        <ele>778.154</ele>
        <time>2019-03-01T23:23:57Z</time>
      </trkpt>
      <trkpt lat="40.450205" lon="-5.799271">
        <ele>778.165</ele>
        <time>2019-03-01T23:23:58Z</time>
      </trkpt>
      <trkpt lat="40.450250" lon="-5.799253">
        <ele>778.186</ele>
        <time>2019-03-01T23:23:59Z</time>
      </trkpt>
      <trkpt lat="40.450298" lon="-5.799236">
        <ele>778.165</ele>
        <time>2019-03-01T23:24:00Z</time>
      </trkpt>
      <trkpt lat="40.450429" lon="-5.799183">
        <ele>778.259</ele>
        <time>2019-03-01T23:24:03Z</time>
      </trkpt>
      <trkpt lat="40.450727" lon="-5.799088">
        <ele>778.372</ele>
        <time>2019-03-01T23:24:09Z</time>
      </trkpt>
      <trkpt lat="40.450776" lon="-5.799075">
        <ele>778.331</ele>
        <time>2019-03-01T23:24:10Z</time>
      </trkpt>
      <trkpt lat="40.451303" lon="-5.798885">
        <ele>778.030</ele>
        <time>2019-03-01T23:24:21Z</time>
      </trkpt>
      <trkpt lat="40.451524" lon="-5.798798">
        <ele>777.796</ele>
        <time>2019-03-01T23:24:26Z</time>
      </trkpt>
      <trkpt lat="40.451569" lon="-5.798776">
        <ele>777.731</ele>
        <time>2019-03-01T23:24:27Z</time>
      </trkpt>
      <trkpt lat="40.451617" lon="-5.798759">
        <ele>777.624</ele>
        <time>2019-03-01T23:24:28Z</time>
      </trkpt>
      <trkpt lat="40.451665" lon="-5.798749">
        <ele>777.608</ele>
        <time>2019-03-01T23:24:29Z</time>
      </trkpt>
      <trkpt lat="40.451716" lon="-5.798741">
        <ele>777.692</ele>
        <time>2019-03-01T23:24:30Z</time>
      </trkpt>
      <trkpt lat="40.451909" lon="-5.798703">
        <ele>777.623</ele>
        <time>2019-03-01T23:24:34Z</time>
      </trkpt>
      <trkpt lat="40.451956" lon="-5.798684">
        <ele>777.674</ele>
        <time>2019-03-01T23:24:35Z</time>
      </trkpt>
      <trkpt lat="40.452393" lon="-5.798543">
        <ele>777.213</ele>
        <time>2019-03-01T23:24:44Z</time>
      </trkpt>
      <trkpt lat="40.452435" lon="-5.798522">
        <ele>777.237</ele>
        <time>2019-03-01T23:24:45Z</time>
      </trkpt>
      <trkpt lat="40.452556" lon="-5.798465">
        <ele>777.130</ele>
        <time>2019-03-01T23:24:48Z</time>
      </trkpt>
      <trkpt lat="40.452636" lon="-5.798426">
        <ele>777.119</ele>
        <time>2019-03-01T23:24:50Z</time>
      </trkpt>
      <trkpt lat="40.452681" lon="-5.798425">
        <ele>777.178</ele>
        <time>2019-03-01T23:24:51Z</time>
      </trkpt>
      <trkpt lat="40.452725" lon="-5.798423">
        <ele>777.189</ele>
        <time>2019-03-01T23:24:52Z</time>
      </trkpt>
      <trkpt lat="40.452772" lon="-5.798415">
        <ele>777.106</ele>
        <time>2019-03-01T23:24:53Z</time>
      </trkpt>
      <trkpt lat="40.452815" lon="-5.798399">
        <ele>777.226</ele>
        <time>2019-03-01T23:24:54Z</time>
      </trkpt>
      <trkpt lat="40.452855" lon="-5.798373">
        <ele>777.208</ele>
        <time>2019-03-01T23:24:55Z</time>
      </trkpt>
      <trkpt lat="40.452896" lon="-5.798351">
        <ele>777.241</ele>
        <time>2019-03-01T23:24:56Z</time>
      </trkpt>
      <trkpt lat="40.452938" lon="-5.798333">
        <ele>777.382</ele>
        <time>2019-03-01T23:24:57Z</time>
      </trkpt>
      <trkpt lat="40.452980" lon="-5.798319">
        <ele>777.313</ele>
        <time>2019-03-01T23:24:58Z</time>
      </trkpt>
      <trkpt lat="40.453491" lon="-5.798163">
        <ele>776.952</ele>
        <time>2019-03-01T23:25:10Z</time>
      </trkpt>
      <trkpt lat="40.453720" lon="-5.798087">
        <ele>776.696</ele>
        <time>2019-03-01T23:25:15Z</time>
      </trkpt>
      <trkpt lat="40.453867" lon="-5.798041">
        <ele>776.449</ele>
        <time>2019-03-01T23:25:18Z</time>
      </trkpt>
      <trkpt lat="40.454616" lon="-5.797762">
        <ele>775.618</ele>
        <time>2019-03-01T23:25:33Z</time>
      </trkpt>
      <trkpt lat="40.454666" lon="-5.797755">
        <ele>775.617</ele>
        <time>2019-03-01T23:25:34Z</time>
      </trkpt>
      <trkpt lat="40.454712" lon="-5.797750">
        <ele>775.559</ele>
        <time>2019-03-01T23:25:35Z</time>
      </trkpt>
      <trkpt lat="40.455392" lon="-5.797508">
        <ele>774.303</ele>
        <time>2019-03-01T23:25:49Z</time>
      </trkpt>
      <trkpt lat="40.455449" lon="-5.797490">
        <ele>774.223</ele>
        <time>2019-03-01T23:25:50Z</time>
      </trkpt>
      <trkpt lat="40.456067" lon="-5.797284">
        <ele>774.708</ele>
        <time>2019-03-01T23:26:03Z</time>
      </trkpt>
      <trkpt lat="40.456399" lon="-5.797145">
        <ele>775.098</ele>
        <time>2019-03-01T23:26:13Z</time>
      </trkpt>
      <trkpt lat="40.456720" lon="-5.797017">
        <ele>774.529</ele>
        <time>2019-03-01T23:26:24Z</time>
      </trkpt>
      <trkpt lat="40.457399" lon="-5.796816">
        <ele>773.740</ele>
        <time>2019-03-01T23:26:39Z</time>
      </trkpt>
      <trkpt lat="40.458259" lon="-5.796513">
        <ele>773.759</ele>
        <time>2019-03-01T23:26:56Z</time>
      </trkpt>
      <trkpt lat="40.458895" lon="-5.796287">
        <ele>774.433</ele>
        <time>2019-03-01T23:27:09Z</time>
      </trkpt>
      <trkpt lat="40.459286" lon="-5.796186">
        <ele>774.686</ele>
        <time>2019-03-01T23:27:18Z</time>
      </trkpt>
      <trkpt lat="40.459604" lon="-5.796077">
        <ele>774.835</ele>
        <time>2019-03-01T23:27:26Z</time>
      </trkpt>
      <trkpt lat="40.459646" lon="-5.796063">
        <ele>774.874</ele>
        <time>2019-03-01T23:27:27Z</time>
      </trkpt>
      <trkpt lat="40.460148" lon="-5.795895">
        <ele>775.164</ele>
        <time>2019-03-01T23:27:41Z</time>
      </trkpt>
      <trkpt lat="40.460563" lon="-5.795752">
        <ele>775.206</ele>
        <time>2019-03-01T23:27:54Z</time>
      </trkpt>
      <trkpt lat="40.461048" lon="-5.795595">
        <ele>775.416</ele>
        <time>2019-03-01T23:28:08Z</time>
      </trkpt>
      <trkpt lat="40.461496" lon="-5.795469">
        <ele>775.708</ele>
        <time>2019-03-01T23:28:21Z</time>
      </trkpt>
      <trkpt lat="40.461950" lon="-5.795299">
        <ele>775.849</ele>
        <time>2019-03-01T23:28:35Z</time>
      </trkpt>
      <trkpt lat="40.462372" lon="-5.795040">
        <ele>775.270</ele>
        <time>2019-03-01T23:28:49Z</time>
      </trkpt>
      <trkpt lat="40.462459" lon="-5.795006">
        <ele>775.151</ele>
        <time>2019-03-01T23:28:57Z</time>
      </trkpt>
      <trkpt lat="40.462516" lon="-5.794981">
        <ele>775.090</ele>
        <time>2019-03-01T23:29:11Z</time>
      </trkpt>
      <trkpt lat="40.462815" lon="-5.794817">
        <ele>775.014</ele>
        <time>2019-03-01T23:29:21Z</time>
      </trkpt>
      <trkpt lat="40.462865" lon="-5.794801">
        <ele>775.127</ele>
        <time>2019-03-01T23:29:28Z</time>
      </trkpt>
      <trkpt lat="40.462980" lon="-5.794790">
        <ele>775.126</ele>
        <time>2019-03-01T23:29:44Z</time>
      </trkpt>
      <trkpt lat="40.463005" lon="-5.794782">
        <ele>775.125</ele>
        <time>2019-03-01T23:29:45Z</time>
      </trkpt>
      <trkpt lat="40.463027" lon="-5.794770">
        <ele>775.179</ele>
        <time>2019-03-01T23:29:46Z</time>
      </trkpt>
      <trkpt lat="40.463049" lon="-5.794758">
        <ele>775.105</ele>
        <time>2019-03-01T23:29:47Z</time>
      </trkpt>
      <trkpt lat="40.463345" lon="-5.794726">
        <ele>775.225</ele>
        <time>2019-03-01T23:29:57Z</time>
      </trkpt>
      <trkpt lat="40.463712" lon="-5.794777">
        <ele>775.608</ele>
        <time>2019-03-01T23:30:08Z</time>
      </trkpt>
      <trkpt lat="40.464050" lon="-5.794667">
        <ele>776.160</ele>
        <time>2019-03-01T23:30:20Z</time>
      </trkpt>
      <trkpt lat="40.464173" lon="-5.794703">
        <ele>776.311</ele>
        <time>2019-03-01T23:30:29Z</time>
      </trkpt>
      <trkpt lat="40.464231" lon="-5.794724">
        <ele>776.552</ele>
        <time>2019-03-01T23:31:34Z</time>
      </trkpt>
      <trkpt lat="40.464254" lon="-5.794740">
        <ele>776.631</ele>
        <time>2019-03-01T23:31:39Z</time>
      </trkpt>
      <trkpt lat="40.464312" lon="-5.794763">
        <ele>776.645</ele>
        <time>2019-03-01T23:31:45Z</time>
      </trkpt>
      <trkpt lat="40.464485" lon="-5.794822">
        <ele>776.628</ele>
        <time>2019-03-01T23:32:00Z</time>
      </trkpt>
      <trkpt lat="40.464619" lon="-5.794813">
        <ele>776.787</ele>
        <time>2019-03-01T23:32:12Z</time>
      </trkpt>
      <trkpt lat="40.464846" lon="-5.794762">
        <ele>777.156</ele>
        <time>2019-03-01T23:32:21Z</time>
      </trkpt>
      <trkpt lat="40.465149" lon="-5.794712">
        <ele>777.513</ele>
        <time>2019-03-01T23:32:32Z</time>
      </trkpt>
      <trkpt lat="40.465533" lon="-5.794674">
        <ele>777.643</ele>
        <time>2019-03-01T23:32:44Z</time>
      </trkpt>
      <trkpt lat="40.465884" lon="-5.794684">
        <ele>779.207</ele>
        <time>2019-03-01T23:32:56Z</time>
      </trkpt>
      <trkpt lat="40.466101" lon="-5.794478">
        <ele>780.408</ele>
        <time>2019-03-01T23:33:04Z</time>
      </trkpt>
      <trkpt lat="40.466845" lon="-5.793887">
        <ele>782.974</ele>
        <time>2019-03-01T23:33:23Z</time>
      </trkpt>
      <trkpt lat="40.467441" lon="-5.793460">
        <ele>785.325</ele>
        <time>2019-03-01T23:33:40Z</time>
      </trkpt>
      <trkpt lat="40.467858" lon="-5.793396">
        <ele>787.816</ele>
        <time>2019-03-01T23:33:54Z</time>
      </trkpt>
      <trkpt lat="40.468200" lon="-5.793168">
        <ele>789.195</ele>
        <time>2019-03-01T23:34:09Z</time>
      </trkpt>
      <trkpt lat="40.468523" lon="-5.793098">
        <ele>789.679</ele>
        <time>2019-03-01T23:34:26Z</time>
      </trkpt>
      <trkpt lat="40.468774" lon="-5.793023">
        <ele>789.852</ele>
        <time>2019-03-01T23:34:41Z</time>
      </trkpt>
      <trkpt lat="40.469020" lon="-5.792847">
        <ele>789.871</ele>
        <time>2019-03-01T23:34:57Z</time>
      </trkpt>
      <trkpt lat="40.469259" lon="-5.792756">
        <ele>789.820</ele>
        <time>2019-03-01T23:35:11Z</time>
      </trkpt>
      <trkpt lat="40.469661" lon="-5.792640">
        <ele>789.641</ele>
        <time>2019-03-01T23:35:27Z</time>
      </trkpt>
      <trkpt lat="40.469676" lon="-5.792636">
        <ele>789.681</ele>
        <time>2019-03-01T23:35:31Z</time>
      </trkpt>
      <trkpt lat="40.469742" lon="-5.792629">
        <ele>789.609</ele>
        <time>2019-03-01T23:35:52Z</time>
      </trkpt>
      <trkpt lat="40.470192" lon="-5.792410">
        <ele>789.208</ele>
        <time>2019-03-01T23:36:05Z</time>
      </trkpt>
      <trkpt lat="40.470233" lon="-5.792389">
        <ele>789.277</ele>
        <time>2019-03-01T23:36:06Z</time>
      </trkpt>
      <trkpt lat="40.470407" lon="-5.792290">
        <ele>788.898</ele>
        <time>2019-03-01T23:36:10Z</time>
      </trkpt>
      <trkpt lat="40.470448" lon="-5.792270">
        <ele>788.749</ele>
        <time>2019-03-01T23:36:11Z</time>
      </trkpt>
      <trkpt lat="40.471152" lon="-5.791902">
        <ele>786.668</ele>
        <time>2019-03-01T23:36:28Z</time>
      </trkpt>
      <trkpt lat="40.471475" lon="-5.791715">
        <ele>786.292</ele>
        <time>2019-03-01T23:36:40Z</time>
      </trkpt>
      <trkpt lat="40.471637" lon="-5.791621">
        <ele>785.975</ele>
        <time>2019-03-01T23:36:45Z</time>
      </trkpt>
      <trkpt lat="40.472145" lon="-5.791405">
        <ele>784.914</ele>
        <time>2019-03-01T23:36:58Z</time>
      </trkpt>
      <trkpt lat="40.472179" lon="-5.791381">
        <ele>784.833</ele>
        <time>2019-03-01T23:36:59Z</time>
      </trkpt>
      <trkpt lat="40.472216" lon="-5.791355">
        <ele>784.733</ele>
        <time>2019-03-01T23:37:00Z</time>
      </trkpt>
      <trkpt lat="40.472252" lon="-5.791329">
        <ele>784.623</ele>
        <time>2019-03-01T23:37:01Z</time>
      </trkpt>
      <trkpt lat="40.472329" lon="-5.791276">
        <ele>784.415</ele>
        <time>2019-03-01T23:37:03Z</time>
      </trkpt>
      <trkpt lat="40.472557" lon="-5.791153">
        <ele>783.608</ele>
        <time>2019-03-01T23:37:08Z</time>
      </trkpt>
      <trkpt lat="40.472603" lon="-5.791133">
        <ele>783.526</ele>
        <time>2019-03-01T23:37:09Z</time>
      </trkpt>
      <trkpt lat="40.472841" lon="-5.790984">
        <ele>782.787</ele>
        <time>2019-03-01T23:37:14Z</time>
      </trkpt>
      <trkpt lat="40.473654" lon="-5.790615">
        <ele>781.548</ele>
        <time>2019-03-01T23:37:29Z</time>
      </trkpt>
      <trkpt lat="40.474290" lon="-5.790337">
        <ele>782.397</ele>
        <time>2019-03-01T23:37:42Z</time>
      </trkpt>
      <trkpt lat="40.474630" lon="-5.790098">
        <ele>783.281</ele>
        <time>2019-03-01T23:37:54Z</time>
      </trkpt>
      <trkpt lat="40.475086" lon="-5.789715">
        <ele>785.424</ele>
        <time>2019-03-01T23:38:08Z</time>
      </trkpt>
      <trkpt lat="40.475587" lon="-5.789317">
        <ele>788.833</ele>
        <time>2019-03-01T23:38:24Z</time>
      </trkpt>
      <trkpt lat="40.475843" lon="-5.789082">
        <ele>790.572</ele>
        <time>2019-03-01T23:38:36Z</time>
      </trkpt>
      <trkpt lat="40.476239" lon="-5.788756">
        <ele>792.893</ele>
        <time>2019-03-01T23:38:54Z</time>
      </trkpt>
      <trkpt lat="40.476625" lon="-5.788418">
        <ele>794.765</ele>
        <time>2019-03-01T23:39:13Z</time>
      </trkpt>
      <trkpt lat="40.476914" lon="-5.788145">
        <ele>796.421</ele>
        <time>2019-03-01T23:39:32Z</time>
      </trkpt>
      <trkpt lat="40.477139" lon="-5.787926">
        <ele>797.808</ele>
        <time>2019-03-01T23:39:47Z</time>
      </trkpt>
      <trkpt lat="40.477486" lon="-5.787711">
        <ele>798.462</ele>
        <time>2019-03-01T23:40:04Z</time>
      </trkpt>
      <trkpt lat="40.477918" lon="-5.787494">
        <ele>798.623</ele>
        <time>2019-03-01T23:40:21Z</time>
      </trkpt>
      <trkpt lat="40.478274" lon="-5.787202">
        <ele>799.474</ele>
        <time>2019-03-01T23:40:35Z</time>
      </trkpt>
      <trkpt lat="40.478593" lon="-5.786922">
        <ele>800.473</ele>
        <time>2019-03-01T23:40:49Z</time>
      </trkpt>
      <trkpt lat="40.478928" lon="-5.786620">
        <ele>801.157</ele>
        <time>2019-03-01T23:41:03Z</time>
      </trkpt>
      <trkpt lat="40.479304" lon="-5.786207">
        <ele>799.120</ele>
        <time>2019-03-01T23:41:16Z</time>
      </trkpt>
      <trkpt lat="40.479831" lon="-5.785568">
        <ele>794.829</ele>
        <time>2019-03-01T23:41:30Z</time>
      </trkpt>
      <trkpt lat="40.479856" lon="-5.785521">
        <ele>794.698</ele>
        <time>2019-03-01T23:41:31Z</time>
      </trkpt>
      <trkpt lat="40.479880" lon="-5.785471">
        <ele>794.454</ele>
        <time>2019-03-01T23:41:32Z</time>
      </trkpt>
      <trkpt lat="40.479898" lon="-5.785417">
        <ele>794.256</ele>
        <time>2019-03-01T23:41:33Z</time>
      </trkpt>
      <trkpt lat="40.479910" lon="-5.785368">
        <ele>794.111</ele>
        <time>2019-03-01T23:41:34Z</time>
      </trkpt>
      <trkpt lat="40.479915" lon="-5.785325">
        <ele>794.008</ele>
        <time>2019-03-01T23:41:35Z</time>
      </trkpt>
      <trkpt lat="40.479916" lon="-5.785283">
        <ele>793.978</ele>
        <time>2019-03-01T23:41:36Z</time>
      </trkpt>
      <trkpt lat="40.479916" lon="-5.785235">
        <ele>793.899</ele>
        <time>2019-03-01T23:41:37Z</time>
      </trkpt>
      <trkpt lat="40.479990" lon="-5.784630">
        <ele>793.910</ele>
        <time>2019-03-01T23:41:53Z</time>
      </trkpt>
      <trkpt lat="40.480071" lon="-5.784226">
        <ele>795.629</ele>
        <time>2019-03-01T23:42:08Z</time>
      </trkpt>
      <trkpt lat="40.480119" lon="-5.783814">
        <ele>797.183</ele>
        <time>2019-03-01T23:42:22Z</time>
      </trkpt>
      <trkpt lat="40.480249" lon="-5.783332">
        <ele>798.836</ele>
        <time>2019-03-01T23:42:37Z</time>
      </trkpt>
      <trkpt lat="40.480307" lon="-5.782891">
        <ele>800.025</ele>
        <time>2019-03-01T23:42:51Z</time>
      </trkpt>
      <trkpt lat="40.480443" lon="-5.782456">
        <ele>801.054</ele>
        <time>2019-03-01T23:43:06Z</time>
      </trkpt>
      <trkpt lat="40.480571" lon="-5.781962">
        <ele>801.791</ele>
        <time>2019-03-01T23:43:20Z</time>
      </trkpt>
      <trkpt lat="40.480591" lon="-5.781937">
        <ele>801.781</ele>
        <time>2019-03-01T23:43:25Z</time>
      </trkpt>
      <trkpt lat="40.480569" lon="-5.781906">
        <ele>801.819</ele>
        <time>2019-03-01T23:43:57Z</time>
      </trkpt>
      <trkpt lat="40.480457" lon="-5.781868">
        <ele>801.808</ele>
        <time>2019-03-01T23:44:08Z</time>
      </trkpt>
      <trkpt lat="40.480467" lon="-5.781812">
        <ele>801.812</ele>
        <time>2019-03-01T23:44:33Z</time>
      </trkpt>
      <trkpt lat="40.480486" lon="-5.781792">
        <ele>801.923</ele>
        <time>2019-03-01T23:44:35Z</time>
      </trkpt>
      <trkpt lat="40.480668" lon="-5.781575">
        <ele>802.144</ele>
        <time>2019-03-01T23:44:48Z</time>
      </trkpt>
      <trkpt lat="40.480697" lon="-5.781361">
        <ele>802.133</ele>
        <time>2019-03-01T23:45:00Z</time>
      </trkpt>
      <trkpt lat="40.480724" lon="-5.781257">
        <ele>802.217</ele>
        <time>2019-03-01T23:45:10Z</time>
      </trkpt>
      <trkpt lat="40.480957" lon="-5.780932">
        <ele>802.640</ele>
        <time>2019-03-01T23:45:22Z</time>
      </trkpt>
      <trkpt lat="40.481176" lon="-5.780649">
        <ele>802.639</ele>
        <time>2019-03-01T23:45:31Z</time>
      </trkpt>
      <trkpt lat="40.481134" lon="-5.780575">
        <ele>802.618</ele>
        <time>2019-03-01T23:45:34Z</time>
      </trkpt>
      <trkpt lat="40.481175" lon="-5.780276">
        <ele>801.883</ele>
        <time>2019-03-01T23:45:44Z</time>
      </trkpt>
      <trkpt lat="40.481193" lon="-5.780230">
        <ele>801.725</ele>
        <time>2019-03-01T23:45:46Z</time>
      </trkpt>
      <trkpt lat="40.481208" lon="-5.780191">
        <ele>801.717</ele>
        <time>2019-03-01T23:45:48Z</time>
      </trkpt>
      <trkpt lat="40.481473" lon="-5.780179">
        <ele>802.508</ele>
        <time>2019-03-01T23:45:59Z</time>
      </trkpt>
      <trkpt lat="40.481697" lon="-5.780216">
        <ele>803.111</ele>
        <time>2019-03-01T23:46:13Z</time>
      </trkpt>
      <trkpt lat="40.481721" lon="-5.780210">
        <ele>803.122</ele>
        <time>2019-03-01T23:46:18Z</time>
      </trkpt>
      <trkpt lat="40.481751" lon="-5.780299">
        <ele>803.313</ele>
        <time>2019-03-01T23:46:44Z</time>
      </trkpt>
      <trkpt lat="40.481747" lon="-5.780328">
        <ele>803.492</ele>
        <time>2019-03-01T23:46:45Z</time>
      </trkpt>
      <trkpt lat="40.481819" lon="-5.780707">
        <ele>803.936</ele>
        <time>2019-03-01T23:46:57Z</time>
      </trkpt>
      <trkpt lat="40.481840" lon="-5.780949">
        <ele>804.199</ele>
        <time>2019-03-01T23:47:05Z</time>
      </trkpt>
      <trkpt lat="40.482023" lon="-5.781055">
        <ele>804.028</ele>
        <time>2019-03-01T23:47:14Z</time>
      </trkpt>
      <trkpt lat="40.482383" lon="-5.781279">
        <ele>804.667</ele>
        <time>2019-03-01T23:47:30Z</time>
      </trkpt>
      <trkpt lat="40.482797" lon="-5.781420">
        <ele>804.656</ele>
        <time>2019-03-01T23:47:46Z</time>
      </trkpt>
      <trkpt lat="40.483345" lon="-5.781432">
        <ele>805.359</ele>
        <time>2019-03-01T23:48:04Z</time>
      </trkpt>
      <trkpt lat="40.483729" lon="-5.781455">
        <ele>806.614</ele>
        <time>2019-03-01T23:48:19Z</time>
      </trkpt>
      <trkpt lat="40.484241" lon="-5.781427">
        <ele>808.308</ele>
        <time>2019-03-01T23:48:36Z</time>
      </trkpt>
      <trkpt lat="40.484787" lon="-5.781347">
        <ele>809.898</ele>
        <time>2019-03-01T23:48:53Z</time>
      </trkpt>
      <trkpt lat="40.485231" lon="-5.781292">
        <ele>811.129</ele>
        <time>2019-03-01T23:49:08Z</time>
      </trkpt>
      <trkpt lat="40.485832" lon="-5.781194">
        <ele>812.110</ele>
        <time>2019-03-01T23:49:26Z</time>
      </trkpt>
      <trkpt lat="40.486288" lon="-5.781219">
        <ele>812.799</ele>
        <time>2019-03-01T23:49:39Z</time>
      </trkpt>
      <trkpt lat="40.486706" lon="-5.781387">
        <ele>813.893</ele>
        <time>2019-03-01T23:49:52Z</time>
      </trkpt>
      <trkpt lat="40.487108" lon="-5.781527">
        <ele>814.436</ele>
        <time>2019-03-01T23:50:04Z</time>
      </trkpt>
      <trkpt lat="40.487711" lon="-5.781639">
        <ele>816.315</ele>
        <time>2019-03-01T23:50:22Z</time>
      </trkpt>
      <trkpt lat="40.488210" lon="-5.781564">
        <ele>816.994</ele>
        <time>2019-03-01T23:50:38Z</time>
      </trkpt>
      <trkpt lat="40.488332" lon="-5.781513">
        <ele>816.916</ele>
        <time>2019-03-01T23:50:41Z</time>
      </trkpt>
      <trkpt lat="40.488907" lon="-5.781080">
        <ele>816.376</ele>
        <time>2019-03-01T23:50:55Z</time>
      </trkpt>
      <trkpt lat="40.489610" lon="-5.780642">
        <ele>817.513</ele>
        <time>2019-03-01T23:51:13Z</time>
      </trkpt>
      <trkpt lat="40.490089" lon="-5.780489">
        <ele>819.408</ele>
        <time>2019-03-01T23:51:27Z</time>
      </trkpt>
      <trkpt lat="40.490618" lon="-5.780306">
        <ele>822.024</ele>
        <time>2019-03-01T23:51:46Z</time>
      </trkpt>
      <trkpt lat="40.491103" lon="-5.779848">
        <ele>824.855</ele>
        <time>2019-03-01T23:52:07Z</time>
      </trkpt>
      <trkpt lat="40.491486" lon="-5.779464">
        <ele>827.376</ele>
        <time>2019-03-01T23:52:26Z</time>
      </trkpt>
      <trkpt lat="40.491633" lon="-5.779377">
        <ele>828.145</ele>
        <time>2019-03-01T23:52:39Z</time>
      </trkpt>
      <trkpt lat="40.491684" lon="-5.779370">
        <ele>828.369</ele>
        <time>2019-03-01T23:53:03Z</time>
      </trkpt>
      <trkpt lat="40.492005" lon="-5.779360">
        <ele>830.532</ele>
        <time>2019-03-01T23:53:16Z</time>
      </trkpt>
      <trkpt lat="40.492301" lon="-5.779351">
        <ele>833.231</ele>
        <time>2019-03-01T23:53:31Z</time>
      </trkpt>
      <trkpt lat="40.492583" lon="-5.779311">
        <ele>836.020</ele>
        <time>2019-03-01T23:53:47Z</time>
      </trkpt>
      <trkpt lat="40.492862" lon="-5.779164">
        <ele>838.326</ele>
        <time>2019-03-01T23:54:04Z</time>
      </trkpt>
      <trkpt lat="40.493142" lon="-5.779029">
        <ele>840.147</ele>
        <time>2019-03-01T23:54:20Z</time>
      </trkpt>
      <trkpt lat="40.493426" lon="-5.778854">
        <ele>842.311</ele>
        <time>2019-03-01T23:54:37Z</time>
      </trkpt>
      <trkpt lat="40.493610" lon="-5.778583">
        <ele>844.108</ele>
        <time>2019-03-01T23:54:52Z</time>
      </trkpt>
      <trkpt lat="40.493823" lon="-5.778242">
        <ele>845.925</ele>
        <time>2019-03-01T23:55:09Z</time>
      </trkpt>
      <trkpt lat="40.494026" lon="-5.777940">
        <ele>848.296</ele>
        <time>2019-03-01T23:55:25Z</time>
      </trkpt>
      <trkpt lat="40.494226" lon="-5.777644">
        <ele>850.847</ele>
        <time>2019-03-01T23:55:41Z</time>
      </trkpt>
      <trkpt lat="40.494563" lon="-5.777381">
        <ele>853.286</ele>
        <time>2019-03-01T23:56:01Z</time>
      </trkpt>
      <trkpt lat="40.494846" lon="-5.777198">
        <ele>855.010</ele>
        <time>2019-03-01T23:56:17Z</time>
      </trkpt>
      <trkpt lat="40.495095" lon="-5.776894">
        <ele>856.963</ele>
        <time>2019-03-01T23:56:34Z</time>
      </trkpt>
      <trkpt lat="40.495170" lon="-5.776696">
        <ele>857.812</ele>
        <time>2019-03-01T23:56:46Z</time>
      </trkpt>
      <trkpt lat="40.495203" lon="-5.776605">
        <ele>858.211</ele>
        <time>2019-03-01T23:57:06Z</time>
      </trkpt>
      <trkpt lat="40.495369" lon="-5.776204">
        <ele>860.351</ele>
        <time>2019-03-01T23:57:20Z</time>
      </trkpt>
      <trkpt lat="40.495616" lon="-5.775650">
        <ele>863.401</ele>
        <time>2019-03-01T23:57:40Z</time>
      </trkpt>
      <trkpt lat="40.495845" lon="-5.775194">
        <ele>866.111</ele>
        <time>2019-03-01T23:57:58Z</time>
      </trkpt>
      <trkpt lat="40.496147" lon="-5.774885">
        <ele>867.208</ele>
        <time>2019-03-01T23:58:13Z</time>
      </trkpt>
      <trkpt lat="40.496612" lon="-5.774713">
        <ele>868.078</ele>
        <time>2019-03-01T23:58:28Z</time>
      </trkpt>
      <trkpt lat="40.497167" lon="-5.774605">
        <ele>869.489</ele>
        <time>2019-03-01T23:58:46Z</time>
      </trkpt>
      <trkpt lat="40.497618" lon="-5.774469">
        <ele>872.260</ele>
        <time>2019-03-01T23:59:03Z</time>
      </trkpt>
      <trkpt lat="40.497932" lon="-5.774187">
        <ele>875.869</ele>
        <time>2019-03-01T23:59:20Z</time>
      </trkpt>
      <trkpt lat="40.498172" lon="-5.773845">
        <ele>878.843</ele>
        <time>2019-03-01T23:59:39Z</time>
      </trkpt>
      <trkpt lat="40.498365" lon="-5.773579">
        <ele>881.696</ele>
        <time>2019-03-01T23:59:55Z</time>
      </trkpt>
      <trkpt lat="40.498583" lon="-5.773191">
        <ele>885.055</ele>
        <time>2019-03-02T00:00:16Z</time>
      </trkpt>
      <trkpt lat="40.498706" lon="-5.772813">
        <ele>887.894</ele>
        <time>2019-03-02T00:00:33Z</time>
      </trkpt>
      <trkpt lat="40.498812" lon="-5.772402">
        <ele>890.897</ele>
        <time>2019-03-02T00:00:53Z</time>
      </trkpt>
      <trkpt lat="40.498819" lon="-5.772325">
        <ele>891.423</ele>
        <time>2019-03-02T00:01:01Z</time>
      </trkpt>
      <trkpt lat="40.498839" lon="-5.772255">
        <ele>892.025</ele>
        <time>2019-03-02T00:01:37Z</time>
      </trkpt>
      <trkpt lat="40.498850" lon="-5.772237">
        <ele>892.108</ele>
        <time>2019-03-02T00:01:38Z</time>
      </trkpt>
      <trkpt lat="40.498858" lon="-5.772218">
        <ele>892.382</ele>
        <time>2019-03-02T00:01:39Z</time>
      </trkpt>
      <trkpt lat="40.498867" lon="-5.772200">
        <ele>892.563</ele>
        <time>2019-03-02T00:01:40Z</time>
      </trkpt>
      <trkpt lat="40.498876" lon="-5.772182">
        <ele>892.674</ele>
        <time>2019-03-02T00:01:41Z</time>
      </trkpt>
      <trkpt lat="40.498889" lon="-5.772165">
        <ele>892.843</ele>
        <time>2019-03-02T00:01:42Z</time>
      </trkpt>
      <trkpt lat="40.499015" lon="-5.771906">
        <ele>894.787</ele>
        <time>2019-03-02T00:01:56Z</time>
      </trkpt>
      <trkpt lat="40.499145" lon="-5.771614">
        <ele>896.440</ele>
        <time>2019-03-02T00:02:09Z</time>
      </trkpt>
      <trkpt lat="40.499344" lon="-5.771092">
        <ele>899.029</ele>
        <time>2019-03-02T00:02:27Z</time>
      </trkpt>
      <trkpt lat="40.499509" lon="-5.770585">
        <ele>901.598</ele>
        <time>2019-03-02T00:02:44Z</time>
      </trkpt>
      <trkpt lat="40.499563" lon="-5.770100">
        <ele>903.972</ele>
        <time>2019-03-02T00:03:01Z</time>
      </trkpt>
      <trkpt lat="40.499600" lon="-5.769535">
        <ele>907.013</ele>
        <time>2019-03-02T00:03:21Z</time>
      </trkpt>
      <trkpt lat="40.499695" lon="-5.769117">
        <ele>909.814</ele>
        <time>2019-03-02T00:03:37Z</time>
      </trkpt>
      <trkpt lat="40.499787" lon="-5.768804">
        <ele>911.908</ele>
        <time>2019-03-02T00:03:53Z</time>
      </trkpt>
      <trkpt lat="40.499790" lon="-5.768789">
        <ele>912.050</ele>
        <time>2019-03-02T00:03:54Z</time>
      </trkpt>
      <trkpt lat="40.499887" lon="-5.768519">
        <ele>914.351</ele>
        <time>2019-03-02T00:04:09Z</time>
      </trkpt>
      <trkpt lat="40.499940" lon="-5.768397">
        <ele>915.182</ele>
        <time>2019-03-02T00:04:16Z</time>
      </trkpt>
      <trkpt lat="40.499950" lon="-5.768381">
        <ele>915.231</ele>
        <time>2019-03-02T00:04:17Z</time>
      </trkpt>
      <trkpt lat="40.500131" lon="-5.768154">
        <ele>916.985</ele>
        <time>2019-03-02T00:04:31Z</time>
      </trkpt>
      <trkpt lat="40.500408" lon="-5.767846">
        <ele>918.868</ele>
        <time>2019-03-02T00:04:48Z</time>
      </trkpt>
      <trkpt lat="40.500834" lon="-5.767254">
        <ele>920.667</ele>
        <time>2019-03-02T00:05:10Z</time>
      </trkpt>
      <trkpt lat="40.501168" lon="-5.766855">
        <ele>922.126</ele>
        <time>2019-03-02T00:05:27Z</time>
      </trkpt>
      <trkpt lat="40.501485" lon="-5.766539">
        <ele>924.052</ele>
        <time>2019-03-02T00:05:44Z</time>
      </trkpt>
      <trkpt lat="40.501848" lon="-5.766238">
        <ele>926.153</ele>
        <time>2019-03-02T00:06:02Z</time>
      </trkpt>
      <trkpt lat="40.502201" lon="-5.765889">
        <ele>927.708</ele>
        <time>2019-03-02T00:06:20Z</time>
      </trkpt>
      <trkpt lat="40.502661" lon="-5.765615">
        <ele>929.708</ele>
        <time>2019-03-02T00:06:41Z</time>
      </trkpt>
      <trkpt lat="40.503010" lon="-5.765473">
        <ele>931.598</ele>
        <time>2019-03-02T00:06:58Z</time>
      </trkpt>
      <trkpt lat="40.503211" lon="-5.765531">
        <ele>933.119</ele>
        <time>2019-03-02T00:07:12Z</time>
      </trkpt>
      <trkpt lat="40.503226" lon="-5.765549">
        <ele>933.270</ele>
        <time>2019-03-02T00:07:17Z</time>
      </trkpt>
      <trkpt lat="40.503253" lon="-5.765589">
        <ele>933.619</ele>
        <time>2019-03-02T00:09:25Z</time>
      </trkpt>
      <trkpt lat="40.503251" lon="-5.765604">
        <ele>933.753</ele>
        <time>2019-03-02T00:09:26Z</time>
      </trkpt>
      <trkpt lat="40.503253" lon="-5.765618">
        <ele>933.846</ele>
        <time>2019-03-02T00:09:27Z</time>
      </trkpt>
      <trkpt lat="40.503256" lon="-5.765632">
        <ele>933.925</ele>
        <time>2019-03-02T00:09:32Z</time>
      </trkpt>
      <trkpt lat="40.503274" lon="-5.765684">
        <ele>934.384</ele>
        <time>2019-03-02T00:09:37Z</time>
      </trkpt>
      <trkpt lat="40.503446" lon="-5.765858">
        <ele>936.297</ele>
        <time>2019-03-02T00:09:51Z</time>
      </trkpt>
      <trkpt lat="40.503461" lon="-5.765870">
        <ele>936.423</ele>
        <time>2019-03-02T00:09:52Z</time>
      </trkpt>
      <trkpt lat="40.503476" lon="-5.765874">
        <ele>936.525</ele>
        <time>2019-03-02T00:09:53Z</time>
      </trkpt>
      <trkpt lat="40.503491" lon="-5.765875">
        <ele>936.608</ele>
        <time>2019-03-02T00:09:54Z</time>
      </trkpt>
      <trkpt lat="40.503507" lon="-5.765878">
        <ele>936.882</ele>
        <time>2019-03-02T00:09:55Z</time>
      </trkpt>
      <trkpt lat="40.503524" lon="-5.765881">
        <ele>936.993</ele>
        <time>2019-03-02T00:09:56Z</time>
      </trkpt>
      <trkpt lat="40.503535" lon="-5.765880">
        <ele>937.014</ele>
        <time>2019-03-02T00:10:01Z</time>
      </trkpt>
      <trkpt lat="40.503578" lon="-5.765890">
        <ele>937.473</ele>
        <time>2019-03-02T00:10:30Z</time>
      </trkpt>
      <trkpt lat="40.503897" lon="-5.765924">
        <ele>939.677</ele>
        <time>2019-03-02T00:10:47Z</time>
      </trkpt>
      <trkpt lat="40.504075" lon="-5.765981">
        <ele>940.610</ele>
        <time>2019-03-02T00:10:58Z</time>
      </trkpt>
      <trkpt lat="40.504339" lon="-5.765898">
        <ele>941.829</ele>
        <time>2019-03-02T00:11:15Z</time>
      </trkpt>
      <trkpt lat="40.504681" lon="-5.765811">
        <ele>943.768</ele>
        <time>2019-03-02T00:11:35Z</time>
      </trkpt>
      <trkpt lat="40.504962" lon="-5.765826">
        <ele>945.285</ele>
        <time>2019-03-02T00:11:52Z</time>
      </trkpt>
      <trkpt lat="40.505201" lon="-5.765723">
        <ele>946.289</ele>
        <time>2019-03-02T00:12:07Z</time>
      </trkpt>
      <trkpt lat="40.505456" lon="-5.765321">
        <ele>947.817</ele>
        <time>2019-03-02T00:12:25Z</time>
      </trkpt>
      <trkpt lat="40.505761" lon="-5.764928">
        <ele>949.808</ele>
        <time>2019-03-02T00:12:43Z</time>
      </trkpt>
      <trkpt lat="40.505808" lon="-5.764874">
        <ele>950.041</ele>
        <time>2019-03-02T00:12:46Z</time>
      </trkpt>
      <trkpt lat="40.505829" lon="-5.764873">
        <ele>950.172</ele>
        <time>2019-03-02T00:12:47Z</time>
      </trkpt>
      <trkpt lat="40.505853" lon="-5.764879">
        <ele>950.163</ele>
        <time>2019-03-02T00:12:48Z</time>
      </trkpt>
      <trkpt lat="40.505876" lon="-5.764882">
        <ele>950.262</ele>
        <time>2019-03-02T00:12:49Z</time>
      </trkpt>
      <trkpt lat="40.505901" lon="-5.764880">
        <ele>950.346</ele>
        <time>2019-03-02T00:12:50Z</time>
      </trkpt>
      <trkpt lat="40.505925" lon="-5.764877">
        <ele>950.429</ele>
        <time>2019-03-02T00:12:51Z</time>
      </trkpt>
      <trkpt lat="40.505950" lon="-5.764879">
        <ele>950.368</ele>
        <time>2019-03-02T00:12:52Z</time>
      </trkpt>
      <trkpt lat="40.505976" lon="-5.764892">
        <ele>950.267</ele>
        <time>2019-03-02T00:12:53Z</time>
      </trkpt>
      <trkpt lat="40.506003" lon="-5.764911">
        <ele>950.168</ele>
        <time>2019-03-02T00:12:54Z</time>
      </trkpt>
      <trkpt lat="40.506144" lon="-5.765081">
        <ele>949.542</ele>
        <time>2019-03-02T00:12:59Z</time>
      </trkpt>
      <trkpt lat="40.506189" lon="-5.765099">
        <ele>949.426</ele>
        <time>2019-03-02T00:13:00Z</time>
      </trkpt>
      <trkpt lat="40.506235" lon="-5.765099">
        <ele>949.408</ele>
        <time>2019-03-02T00:13:01Z</time>
      </trkpt>
      <trkpt lat="40.506272" lon="-5.765097">
        <ele>949.429</ele>
        <time>2019-03-02T00:13:02Z</time>
      </trkpt>
      <trkpt lat="40.506295" lon="-5.765101">
        <ele>949.480</ele>
        <time>2019-03-02T00:13:03Z</time>
      </trkpt>
      <trkpt lat="40.506316" lon="-5.765102">
        <ele>949.421</ele>
        <time>2019-03-02T00:13:04Z</time>
      </trkpt>
      <trkpt lat="40.506336" lon="-5.765100">
        <ele>949.450</ele>
        <time>2019-03-02T00:13:05Z</time>
      </trkpt>
      <trkpt lat="40.506385" lon="-5.765068">
        <ele>949.324</ele>
        <time>2019-03-02T00:13:13Z</time>
      </trkpt>
      <trkpt lat="40.506439" lon="-5.765042">
        <ele>949.247</ele>
        <time>2019-03-02T00:14:46Z</time>
      </trkpt>
      <trkpt lat="40.506459" lon="-5.765038">
        <ele>949.116</ele>
        <time>2019-03-02T00:14:51Z</time>
      </trkpt>
      <trkpt lat="40.506529" lon="-5.765023">
        <ele>948.965</ele>
        <time>2019-03-02T00:14:56Z</time>
      </trkpt>
      <trkpt lat="40.506899" lon="-5.764974">
        <ele>948.099</ele>
        <time>2019-03-02T00:15:09Z</time>
      </trkpt>
      <trkpt lat="40.507238" lon="-5.764945">
        <ele>947.207</ele>
        <time>2019-03-02T00:15:20Z</time>
      </trkpt>
      <trkpt lat="40.507644" lon="-5.764918">
        <ele>946.827</ele>
        <time>2019-03-02T00:15:32Z</time>
      </trkpt>
      <trkpt lat="40.507664" lon="-5.764892">
        <ele>946.808</ele>
        <time>2019-03-02T00:15:33Z</time>
      </trkpt>
      <trkpt lat="40.507742" lon="-5.764723">
        <ele>946.952</ele>
        <time>2019-03-02T00:15:38Z</time>
      </trkpt>
      <trkpt lat="40.507761" lon="-5.764706">
        <ele>946.963</ele>
        <time>2019-03-02T00:15:39Z</time>
      </trkpt>
      <trkpt lat="40.507783" lon="-5.764700">
        <ele>946.994</ele>
        <time>2019-03-02T00:15:40Z</time>
      </trkpt>
      <trkpt lat="40.507807" lon="-5.764698">
        <ele>946.913</ele>
        <time>2019-03-02T00:15:41Z</time>
      </trkpt>
      <trkpt lat="40.507832" lon="-5.764702">
        <ele>946.937</ele>
        <time>2019-03-02T00:15:42Z</time>
      </trkpt>
      <trkpt lat="40.507853" lon="-5.764709">
        <ele>947.070</ele>
        <time>2019-03-02T00:15:43Z</time>
      </trkpt>
      <trkpt lat="40.507870" lon="-5.764717">
        <ele>947.079</ele>
        <time>2019-03-02T00:15:44Z</time>
      </trkpt>
      <trkpt lat="40.507885" lon="-5.764726">
        <ele>947.048</ele>
        <time>2019-03-02T00:15:45Z</time>
      </trkpt>
      <trkpt lat="40.508141" lon="-5.764945">
        <ele>946.916</ele>
        <time>2019-03-02T00:15:56Z</time>
      </trkpt>
      <trkpt lat="40.508424" lon="-5.765058">
        <ele>946.676</ele>
        <time>2019-03-02T00:16:03Z</time>
      </trkpt>
      <trkpt lat="40.508462" lon="-5.765083">
        <ele>946.613</ele>
        <time>2019-03-02T00:16:04Z</time>
      </trkpt>
      <trkpt lat="40.509012" lon="-5.765398">
        <ele>946.108</ele>
        <time>2019-03-02T00:16:16Z</time>
      </trkpt>
      <trkpt lat="40.509051" lon="-5.765434">
        <ele>946.034</ele>
        <time>2019-03-02T00:16:17Z</time>
      </trkpt>
      <trkpt lat="40.509090" lon="-5.765471">
        <ele>945.925</ele>
        <time>2019-03-02T00:16:18Z</time>
      </trkpt>
      <trkpt lat="40.509132" lon="-5.765507">
        <ele>945.966</ele>
        <time>2019-03-02T00:16:19Z</time>
      </trkpt>
      <trkpt lat="40.509179" lon="-5.765537">
        <ele>945.835</ele>
        <time>2019-03-02T00:16:20Z</time>
      </trkpt>
      <trkpt lat="40.509229" lon="-5.765558">
        <ele>945.729</ele>
        <time>2019-03-02T00:16:21Z</time>
      </trkpt>
      <trkpt lat="40.509278" lon="-5.765573">
        <ele>945.752</ele>
        <time>2019-03-02T00:16:22Z</time>
      </trkpt>
      <trkpt lat="40.509461" lon="-5.765645">
        <ele>945.421</ele>
        <time>2019-03-02T00:16:26Z</time>
      </trkpt>
      <trkpt lat="40.509680" lon="-5.765756">
        <ele>945.290</ele>
        <time>2019-03-02T00:16:31Z</time>
      </trkpt>
      <trkpt lat="40.509726" lon="-5.765770">
        <ele>945.177</ele>
        <time>2019-03-02T00:16:32Z</time>
      </trkpt>
      <trkpt lat="40.509771" lon="-5.765780">
        <ele>945.161</ele>
        <time>2019-03-02T00:16:33Z</time>
      </trkpt>
      <trkpt lat="40.510008" lon="-5.765824">
        <ele>945.027</ele>
        <time>2019-03-02T00:16:38Z</time>
      </trkpt>
      <trkpt lat="40.510108" lon="-5.765855">
        <ele>945.008</ele>
        <time>2019-03-02T00:16:40Z</time>
      </trkpt>
      <trkpt lat="40.510157" lon="-5.765873">
        <ele>944.910</ele>
        <time>2019-03-02T00:16:41Z</time>
      </trkpt>
      <trkpt lat="40.510205" lon="-5.765883">
        <ele>944.951</ele>
        <time>2019-03-02T00:16:42Z</time>
      </trkpt>
      <trkpt lat="40.510252" lon="-5.765885">
        <ele>944.932</ele>
        <time>2019-03-02T00:16:43Z</time>
      </trkpt>
      <trkpt lat="40.510296" lon="-5.765889">
        <ele>944.971</ele>
        <time>2019-03-02T00:16:44Z</time>
      </trkpt>
      <trkpt lat="40.510338" lon="-5.765898">
        <ele>944.985</ele>
        <time>2019-03-02T00:16:45Z</time>
      </trkpt>
      <trkpt lat="40.510417" lon="-5.765928">
        <ele>944.878</ele>
        <time>2019-03-02T00:16:47Z</time>
      </trkpt>
      <trkpt lat="40.510457" lon="-5.765947">
        <ele>944.887</ele>
        <time>2019-03-02T00:16:48Z</time>
      </trkpt>
      <trkpt lat="40.510540" lon="-5.765976">
        <ele>944.856</ele>
        <time>2019-03-02T00:16:50Z</time>
      </trkpt>
      <trkpt lat="40.510674" lon="-5.766003">
        <ele>944.787</ele>
        <time>2019-03-02T00:16:53Z</time>
      </trkpt>
      <trkpt lat="40.510811" lon="-5.766031">
        <ele>944.642</ele>
        <time>2019-03-02T00:16:56Z</time>
      </trkpt>
      <trkpt lat="40.510907" lon="-5.766043">
        <ele>944.526</ele>
        <time>2019-03-02T00:16:58Z</time>
      </trkpt>
      <trkpt lat="40.511004" lon="-5.766069">
        <ele>944.508</ele>
        <time>2019-03-02T00:17:00Z</time>
      </trkpt>
      <trkpt lat="40.511100" lon="-5.766078">
        <ele>944.591</ele>
        <time>2019-03-02T00:17:02Z</time>
      </trkpt>
      <trkpt lat="40.511145" lon="-5.766080">
        <ele>944.662</ele>
        <time>2019-03-02T00:17:03Z</time>
      </trkpt>
      <trkpt lat="40.511230" lon="-5.766092">
        <ele>944.733</ele>
        <time>2019-03-02T00:17:05Z</time>
      </trkpt>
      <trkpt lat="40.511272" lon="-5.766105">
        <ele>944.752</ele>
        <time>2019-03-02T00:17:06Z</time>
      </trkpt>
      <trkpt lat="40.511396" lon="-5.766152">
        <ele>944.956</ele>
        <time>2019-03-02T00:17:09Z</time>
      </trkpt>
      <trkpt lat="40.511433" lon="-5.766174">
        <ele>944.929</ele>
        <time>2019-03-02T00:17:10Z</time>
      </trkpt>
      <trkpt lat="40.511838" lon="-5.766360">
        <ele>945.868</ele>
        <time>2019-03-02T00:17:23Z</time>
      </trkpt>
      <trkpt lat="40.512124" lon="-5.766499">
        <ele>946.927</ele>
        <time>2019-03-02T00:17:35Z</time>
      </trkpt>
      <trkpt lat="40.512449" lon="-5.766573">
        <ele>948.614</ele>
        <time>2019-03-02T00:17:51Z</time>
      </trkpt>
      <trkpt lat="40.512756" lon="-5.766457">
        <ele>950.354</ele>
        <time>2019-03-02T00:18:07Z</time>
      </trkpt>
      <trkpt lat="40.512810" lon="-5.766422">
        <ele>950.609</ele>
        <time>2019-03-02T00:18:14Z</time>
      </trkpt>
      <trkpt lat="40.512865" lon="-5.766396">
        <ele>951.008</ele>
        <time>2019-03-02T00:18:18Z</time>
      </trkpt>
      <trkpt lat="40.513135" lon="-5.766277">
        <ele>951.614</ele>
        <time>2019-03-02T00:18:30Z</time>
      </trkpt>
      <trkpt lat="40.513155" lon="-5.766267">
        <ele>951.615</ele>
        <time>2019-03-02T00:18:36Z</time>
      </trkpt>
      <trkpt lat="40.513241" lon="-5.766251">
        <ele>951.876</ele>
        <time>2019-03-02T00:18:56Z</time>
      </trkpt>
      <trkpt lat="40.513560" lon="-5.766303">
        <ele>952.175</ele>
        <time>2019-03-02T00:19:08Z</time>
      </trkpt>
      <trkpt lat="40.513844" lon="-5.766368">
        <ele>952.429</ele>
        <time>2019-03-02T00:19:20Z</time>
      </trkpt>
      <trkpt lat="40.513840" lon="-5.766364">
        <ele>952.472</ele>
        <time>2019-03-02T00:19:22Z</time>
      </trkpt>
      <trkpt lat="40.513813" lon="-5.766324">
        <ele>952.421</ele>
        <time>2019-03-02T00:19:27Z</time>
      </trkpt>
      <trkpt lat="40.513817" lon="-5.766264">
        <ele>952.530</ele>
        <time>2019-03-02T00:19:34Z</time>
      </trkpt>
      <trkpt lat="40.513874" lon="-5.766346">
        <ele>952.643</ele>
        <time>2019-03-02T00:24:08Z</time>
      </trkpt>
      <trkpt lat="40.514103" lon="-5.766529">
        <ele>952.964</ele>
        <time>2019-03-02T00:24:18Z</time>
      </trkpt>
      <trkpt lat="40.514516" lon="-5.766882">
        <ele>953.910</ele>
        <time>2019-03-02T00:24:31Z</time>
      </trkpt>
      <trkpt lat="40.514845" lon="-5.767109">
        <ele>954.608</ele>
        <time>2019-03-02T00:24:41Z</time>
      </trkpt>
      <trkpt lat="40.515293" lon="-5.767260">
        <ele>956.867</ele>
        <time>2019-03-02T00:24:55Z</time>
      </trkpt>
      <trkpt lat="40.515689" lon="-5.767163">
        <ele>957.918</ele>
        <time>2019-03-02T00:25:09Z</time>
      </trkpt>
      <trkpt lat="40.516078" lon="-5.767092">
        <ele>959.189</ele>
        <time>2019-03-02T00:25:23Z</time>
      </trkpt>
      <trkpt lat="40.516559" lon="-5.766991">
        <ele>960.348</ele>
        <time>2019-03-02T00:25:39Z</time>
      </trkpt>
      <trkpt lat="40.517197" lon="-5.766757">
        <ele>959.832</ele>
        <time>2019-03-02T00:25:58Z</time>
      </trkpt>
      <trkpt lat="40.517486" lon="-5.766548">
        <ele>958.885</ele>
        <time>2019-03-02T00:26:05Z</time>
      </trkpt>
      <trkpt lat="40.517658" lon="-5.766382">
        <ele>958.224</ele>
        <time>2019-03-02T00:26:09Z</time>
      </trkpt>
      <trkpt lat="40.517705" lon="-5.766345">
        <ele>958.123</ele>
        <time>2019-03-02T00:26:10Z</time>
      </trkpt>
      <trkpt lat="40.518136" lon="-5.765969">
        <ele>956.996</ele>
        <time>2019-03-02T00:26:19Z</time>
      </trkpt>
      <trkpt lat="40.518367" lon="-5.765784">
        <ele>956.131</ele>
        <time>2019-03-02T00:26:24Z</time>
      </trkpt>
      <trkpt lat="40.518465" lon="-5.765730">
        <ele>955.724</ele>
        <time>2019-03-02T00:26:26Z</time>
      </trkpt>
      <trkpt lat="40.518512" lon="-5.765694">
        <ele>955.508</ele>
        <time>2019-03-02T00:26:27Z</time>
      </trkpt>
      <trkpt lat="40.518751" lon="-5.765534">
        <ele>954.652</ele>
        <time>2019-03-02T00:26:32Z</time>
      </trkpt>
      <trkpt lat="40.518841" lon="-5.765495">
        <ele>954.313</ele>
        <time>2019-03-02T00:26:34Z</time>
      </trkpt>
      <trkpt lat="40.519024" lon="-5.765430">
        <ele>953.594</ele>
        <time>2019-03-02T00:26:38Z</time>
      </trkpt>
      <trkpt lat="40.519218" lon="-5.765394">
        <ele>952.353</ele>
        <time>2019-03-02T00:26:42Z</time>
      </trkpt>
      <trkpt lat="40.519269" lon="-5.765398">
        <ele>952.067</ele>
        <time>2019-03-02T00:26:43Z</time>
      </trkpt>
      <trkpt lat="40.519984" lon="-5.765471">
        <ele>947.830</ele>
        <time>2019-03-02T00:26:53Z</time>
      </trkpt>
      <trkpt lat="40.520545" lon="-5.765426">
        <ele>944.779</ele>
        <time>2019-03-02T00:26:59Z</time>
      </trkpt>
      <trkpt lat="40.520762" lon="-5.765386">
        <ele>943.938</ele>
        <time>2019-03-02T00:27:02Z</time>
      </trkpt>
      <trkpt lat="40.520866" lon="-5.765360">
        <ele>943.655</ele>
        <time>2019-03-02T00:27:04Z</time>
      </trkpt>
      <trkpt lat="40.520913" lon="-5.765340">
        <ele>943.507</ele>
        <time>2019-03-02T00:27:05Z</time>
      </trkpt>
      <trkpt lat="40.521286" lon="-5.765201">
        <ele>942.517</ele>
        <time>2019-03-02T00:27:13Z</time>
      </trkpt>
      <trkpt lat="40.521334" lon="-5.765170">
        <ele>942.408</ele>
        <time>2019-03-02T00:27:14Z</time>
      </trkpt>
      <trkpt lat="40.521574" lon="-5.765005">
        <ele>941.768</ele>
        <time>2019-03-02T00:27:19Z</time>
      </trkpt>
      <trkpt lat="40.521611" lon="-5.764965">
        <ele>941.679</ele>
        <time>2019-03-02T00:27:20Z</time>
      </trkpt>
      <trkpt lat="40.521649" lon="-5.764926">
        <ele>941.520</ele>
        <time>2019-03-02T00:27:21Z</time>
      </trkpt>
      <trkpt lat="40.521689" lon="-5.764893">
        <ele>941.549</ele>
        <time>2019-03-02T00:27:22Z</time>
      </trkpt>
      <trkpt lat="40.521729" lon="-5.764864">
        <ele>941.473</ele>
        <time>2019-03-02T00:27:23Z</time>
      </trkpt>
      <trkpt lat="40.521978" lon="-5.764671">
        <ele>941.176</ele>
        <time>2019-03-02T00:27:29Z</time>
      </trkpt>
      <trkpt lat="40.522027" lon="-5.764647">
        <ele>941.195</ele>
        <time>2019-03-02T00:27:30Z</time>
      </trkpt>
      <trkpt lat="40.522120" lon="-5.764607">
        <ele>941.034</ele>
        <time>2019-03-02T00:27:32Z</time>
      </trkpt>
      <trkpt lat="40.522634" lon="-5.764266">
        <ele>940.563</ele>
        <time>2019-03-02T00:27:45Z</time>
      </trkpt>
      <trkpt lat="40.522634" lon="-5.764270">
        <ele>940.544</ele>
        <time>2019-03-02T00:27:48Z</time>
      </trkpt>
      <trkpt lat="40.522636" lon="-5.764328">
        <ele>940.718</ele>
        <time>2019-03-02T00:28:06Z</time>
      </trkpt>
      <trkpt lat="40.522625" lon="-5.764395">
        <ele>940.908</ele>
        <time>2019-03-02T00:28:13Z</time>
      </trkpt>
      <trkpt lat="40.522647" lon="-5.764430">
        <ele>941.029</ele>
        <time>2019-03-02T00:28:26Z</time>
      </trkpt>
      <trkpt lat="40.522663" lon="-5.764432">
        <ele>941.160</ele>
        <time>2019-03-02T00:28:27Z</time>
      </trkpt>
      <trkpt lat="40.522677" lon="-5.764431">
        <ele>941.261</ele>
        <time>2019-03-02T00:28:28Z</time>
      </trkpt>
      <trkpt lat="40.522684" lon="-5.764427">
        <ele>941.230</ele>
        <time>2019-03-02T00:28:33Z</time>
      </trkpt>
      <trkpt lat="40.522734" lon="-5.764392">
        <ele>941.434</ele>
        <time>2019-03-02T00:29:53Z</time>
      </trkpt>
      <trkpt lat="40.523107" lon="-5.764004">
        <ele>943.157</ele>
        <time>2019-03-02T00:30:10Z</time>
      </trkpt>
      <trkpt lat="40.523512" lon="-5.763655">
        <ele>945.346</ele>
        <time>2019-03-02T00:30:29Z</time>
      </trkpt>
      <trkpt lat="40.523754" lon="-5.763625">
        <ele>945.475</ele>
        <time>2019-03-02T00:30:45Z</time>
      </trkpt>
      <trkpt lat="40.523754" lon="-5.763625">
        <ele>945.444</ele>
        <time>2019-03-02T00:30:46Z</time>
      </trkpt>
      <trkpt lat="40.523814" lon="-5.763609">
        <ele>945.205</ele>
        <time>2019-03-02T00:31:14Z</time>
      </trkpt>
      <trkpt lat="40.524201" lon="-5.763592">
        <ele>944.115</ele>
        <time>2019-03-02T00:31:23Z</time>
      </trkpt>
      <trkpt lat="40.524866" lon="-5.763494">
        <ele>943.308</ele>
        <time>2019-03-02T00:31:36Z</time>
      </trkpt>
      <trkpt lat="40.524907" lon="-5.763474">
        <ele>943.357</ele>
        <time>2019-03-02T00:31:37Z</time>
      </trkpt>
      <trkpt lat="40.525100" lon="-5.763065">
        <ele>943.528</ele>
        <time>2019-03-02T00:31:47Z</time>
      </trkpt>
      <trkpt lat="40.525339" lon="-5.762889">
        <ele>943.939</ele>
        <time>2019-03-02T00:31:56Z</time>
      </trkpt>
      <trkpt lat="40.525825" lon="-5.762633">
        <ele>945.018</ele>
        <time>2019-03-02T00:32:13Z</time>
      </trkpt>
      <trkpt lat="40.526227" lon="-5.762584">
        <ele>944.952</ele>
        <time>2019-03-02T00:32:27Z</time>
      </trkpt>
      <trkpt lat="40.526269" lon="-5.762582">
        <ele>944.825</ele>
        <time>2019-03-02T00:32:28Z</time>
      </trkpt>
      <trkpt lat="40.526313" lon="-5.762574">
        <ele>944.734</ele>
        <time>2019-03-02T00:32:29Z</time>
      </trkpt>
      <trkpt lat="40.526401" lon="-5.762547">
        <ele>944.633</ele>
        <time>2019-03-02T00:32:31Z</time>
      </trkpt>
      <trkpt lat="40.526444" lon="-5.762527">
        <ele>944.541</ele>
        <time>2019-03-02T00:32:32Z</time>
      </trkpt>
      <trkpt lat="40.526486" lon="-5.762504">
        <ele>944.481</ele>
        <time>2019-03-02T00:32:33Z</time>
      </trkpt>
      <trkpt lat="40.526765" lon="-5.762323">
        <ele>943.909</ele>
        <time>2019-03-02T00:32:45Z</time>
      </trkpt>
      <trkpt lat="40.526766" lon="-5.762322">
        <ele>943.908</ele>
        <time>2019-03-02T00:32:47Z</time>
      </trkpt>
      <trkpt lat="40.526825" lon="-5.762301">
        <ele>943.967</ele>
        <time>2019-03-02T00:33:09Z</time>
      </trkpt>
      <trkpt lat="40.526902" lon="-5.762264">
        <ele>943.978</ele>
        <time>2019-03-02T00:33:18Z</time>
      </trkpt>
      <trkpt lat="40.526962" lon="-5.762250">
        <ele>943.999</ele>
        <time>2019-03-02T00:33:42Z</time>
      </trkpt>
      <trkpt lat="40.527311" lon="-5.762238">
        <ele>944.198</ele>
        <time>2019-03-02T00:33:55Z</time>
      </trkpt>
      <trkpt lat="40.527610" lon="-5.762273">
        <ele>944.372</ele>
        <time>2019-03-02T00:34:06Z</time>
      </trkpt>
      <trkpt lat="40.527922" lon="-5.762051">
        <ele>944.855</ele>
        <time>2019-03-02T00:34:20Z</time>
      </trkpt>
      <trkpt lat="40.527926" lon="-5.762041">
        <ele>944.814</ele>
        <time>2019-03-02T00:34:23Z</time>
      </trkpt>
      <trkpt lat="40.527996" lon="-5.762010">
        <ele>944.913</ele>
        <time>2019-03-02T00:34:39Z</time>
      </trkpt>
      <trkpt lat="40.528149" lon="-5.761946">
        <ele>945.374</ele>
        <time>2019-03-02T00:34:47Z</time>
      </trkpt>
      <trkpt lat="40.528357" lon="-5.761790">
        <ele>946.756</ele>
        <time>2019-03-02T00:35:00Z</time>
      </trkpt>
      <trkpt lat="40.528629" lon="-5.761583">
        <ele>948.221</ele>
        <time>2019-03-02T00:35:14Z</time>
      </trkpt>
      <trkpt lat="40.528897" lon="-5.761668">
        <ele>948.908</ele>
        <time>2019-03-02T00:35:27Z</time>
      </trkpt>
      <trkpt lat="40.528920" lon="-5.761666">
        <ele>949.040</ele>
        <time>2019-03-02T00:35:28Z</time>
      </trkpt>
      <trkpt lat="40.528940" lon="-5.761656">
        <ele>949.061</ele>
        <time>2019-03-02T00:35:29Z</time>
      </trkpt>
      <trkpt lat="40.529164" lon="-5.761382">
        <ele>949.732</ele>
        <time>2019-03-02T00:35:42Z</time>
      </trkpt>
      <trkpt lat="40.529353" lon="-5.761073">
        <ele>950.631</ele>
        <time>2019-03-02T00:35:54Z</time>
      </trkpt>
      <trkpt lat="40.529622" lon="-5.760937">
        <ele>951.475</ele>
        <time>2019-03-02T00:36:06Z</time>
      </trkpt>
      <trkpt lat="40.529961" lon="-5.760800">
        <ele>952.848</ele>
        <time>2019-03-02T00:36:20Z</time>
      </trkpt>
      <trkpt lat="40.530240" lon="-5.760764">
        <ele>954.377</ele>
        <time>2019-03-02T00:36:32Z</time>
      </trkpt>
      <trkpt lat="40.530485" lon="-5.760719">
        <ele>955.596</ele>
        <time>2019-03-02T00:36:44Z</time>
      </trkpt>
      <trkpt lat="40.530495" lon="-5.760711">
        <ele>955.674</ele>
        <time>2019-03-02T00:36:49Z</time>
      </trkpt>
      <trkpt lat="40.530597" lon="-5.760688">
        <ele>956.256</ele>
        <time>2019-03-02T00:37:02Z</time>
      </trkpt>
      <trkpt lat="40.530850" lon="-5.760700">
        <ele>957.421</ele>
        <time>2019-03-02T00:37:17Z</time>
      </trkpt>
      <trkpt lat="40.531077" lon="-5.760721">
        <ele>958.708</ele>
        <time>2019-03-02T00:37:30Z</time>
      </trkpt>
      <trkpt lat="40.531299" lon="-5.760730">
        <ele>960.360</ele>
        <time>2019-03-02T00:37:43Z</time>
      </trkpt>
      <trkpt lat="40.531430" lon="-5.760650">
        <ele>961.011</ele>
        <time>2019-03-02T00:37:52Z</time>
      </trkpt>
      <trkpt lat="40.531443" lon="-5.760641">
        <ele>961.242</ele>
        <time>2019-03-02T00:37:53Z</time>
      </trkpt>
      <trkpt lat="40.531454" lon="-5.760633">
        <ele>961.371</ele>
        <time>2019-03-02T00:37:54Z</time>
      </trkpt>
      <trkpt lat="40.531469" lon="-5.760627">
        <ele>961.595</ele>
        <time>2019-03-02T00:37:55Z</time>
      </trkpt>
      <trkpt lat="40.531486" lon="-5.760621">
        <ele>961.788</ele>
        <time>2019-03-02T00:37:56Z</time>
      </trkpt>
      <trkpt lat="40.531597" lon="-5.760654">
        <ele>963.087</ele>
        <time>2019-03-02T00:38:03Z</time>
      </trkpt>
      <trkpt lat="40.531603" lon="-5.760666">
        <ele>963.126</ele>
        <time>2019-03-02T00:38:04Z</time>
      </trkpt>
      <trkpt lat="40.531613" lon="-5.760676">
        <ele>963.252</ele>
        <time>2019-03-02T00:38:05Z</time>
      </trkpt>
      <trkpt lat="40.531638" lon="-5.760713">
        <ele>963.553</ele>
        <time>2019-03-02T00:38:08Z</time>
      </trkpt>
      <trkpt lat="40.531648" lon="-5.760733">
        <ele>963.608</ele>
        <time>2019-03-02T00:38:09Z</time>
      </trkpt>
      <trkpt lat="40.531813" lon="-5.760789">
        <ele>965.008</ele>
        <time>2019-03-02T00:38:20Z</time>
      </trkpt>
      <trkpt lat="40.531846" lon="-5.760791">
        <ele>965.378</ele>
        <time>2019-03-02T00:38:22Z</time>
      </trkpt>
      <trkpt lat="40.531865" lon="-5.760789">
        <ele>965.499</ele>
        <time>2019-03-02T00:38:23Z</time>
      </trkpt>
      <trkpt lat="40.531886" lon="-5.760787">
        <ele>965.650</ele>
        <time>2019-03-02T00:38:24Z</time>
      </trkpt>
      <trkpt lat="40.531904" lon="-5.760783">
        <ele>965.779</ele>
        <time>2019-03-02T00:38:25Z</time>
      </trkpt>
      <trkpt lat="40.531919" lon="-5.760779">
        <ele>965.893</ele>
        <time>2019-03-02T00:38:26Z</time>
      </trkpt>
      <trkpt lat="40.531934" lon="-5.760776">
        <ele>966.046</ele>
        <time>2019-03-02T00:38:27Z</time>
      </trkpt>
      <trkpt lat="40.531953" lon="-5.760771">
        <ele>966.115</ele>
        <time>2019-03-02T00:38:28Z</time>
      </trkpt>
      <trkpt lat="40.532091" lon="-5.760720">
        <ele>967.054</ele>
        <time>2019-03-02T00:38:36Z</time>
      </trkpt>
      <trkpt lat="40.532105" lon="-5.760712">
        <ele>967.168</ele>
        <time>2019-03-02T00:38:37Z</time>
      </trkpt>
      <trkpt lat="40.532122" lon="-5.760707">
        <ele>967.242</ele>
        <time>2019-03-02T00:38:38Z</time>
      </trkpt>
      <trkpt lat="40.532140" lon="-5.760700">
        <ele>967.326</ele>
        <time>2019-03-02T00:38:39Z</time>
      </trkpt>
      <trkpt lat="40.532158" lon="-5.760694">
        <ele>967.408</ele>
        <time>2019-03-02T00:38:40Z</time>
      </trkpt>
      <trkpt lat="40.532174" lon="-5.760690">
        <ele>967.579</ele>
        <time>2019-03-02T00:38:41Z</time>
      </trkpt>
      <trkpt lat="40.532329" lon="-5.760637">
        <ele>968.820</ele>
        <time>2019-03-02T00:38:50Z</time>
      </trkpt>
      <trkpt lat="40.532345" lon="-5.760636">
        <ele>968.981</ele>
        <time>2019-03-02T00:38:51Z</time>
      </trkpt>
      <trkpt lat="40.532362" lon="-5.760634">
        <ele>969.110</ele>
        <time>2019-03-02T00:38:52Z</time>
      </trkpt>
      <trkpt lat="40.532381" lon="-5.760631">
        <ele>969.334</ele>
        <time>2019-03-02T00:38:53Z</time>
      </trkpt>
      <trkpt lat="40.532399" lon="-5.760626">
        <ele>969.567</ele>
        <time>2019-03-02T00:38:54Z</time>
      </trkpt>
      <trkpt lat="40.532701" lon="-5.760600">
        <ele>972.386</ele>
        <time>2019-03-02T00:39:10Z</time>
      </trkpt>
      <trkpt lat="40.533015" lon="-5.760563">
        <ele>975.225</ele>
        <time>2019-03-02T00:39:28Z</time>
      </trkpt>
      <trkpt lat="40.533184" lon="-5.760556">
        <ele>976.733</ele>
        <time>2019-03-02T00:39:38Z</time>
      </trkpt>
      <trkpt lat="40.533199" lon="-5.760560">
        <ele>976.823</ele>
        <time>2019-03-02T00:39:39Z</time>
      </trkpt>
      <trkpt lat="40.533210" lon="-5.760557">
        <ele>976.915</ele>
        <time>2019-03-02T00:39:40Z</time>
      </trkpt>
      <trkpt lat="40.533221" lon="-5.760553">
        <ele>977.108</ele>
        <time>2019-03-02T00:39:41Z</time>
      </trkpt>
      <trkpt lat="40.533236" lon="-5.760552">
        <ele>977.216</ele>
        <time>2019-03-02T00:39:42Z</time>
      </trkpt>
      <trkpt lat="40.533252" lon="-5.760552">
        <ele>977.417</ele>
        <time>2019-03-02T00:39:43Z</time>
      </trkpt>
      <trkpt lat="40.533532" lon="-5.760556">
        <ele>981.168</ele>
        <time>2019-03-02T00:40:01Z</time>
      </trkpt>
      <trkpt lat="40.533790" lon="-5.760546">
        <ele>983.457</ele>
        <time>2019-03-02T00:40:17Z</time>
      </trkpt>
      <trkpt lat="40.534011" lon="-5.760541">
        <ele>985.521</ele>
        <time>2019-03-02T00:40:32Z</time>
      </trkpt>
      <trkpt lat="40.534252" lon="-5.760532">
        <ele>987.984</ele>
        <time>2019-03-02T00:40:49Z</time>
      </trkpt>
      <trkpt lat="40.534261" lon="-5.760530">
        <ele>988.053</ele>
        <time>2019-03-02T00:40:52Z</time>
      </trkpt>
      <trkpt lat="40.534351" lon="-5.760522">
        <ele>988.952</ele>
        <time>2019-03-02T00:41:10Z</time>
      </trkpt>
      <trkpt lat="40.534603" lon="-5.760527">
        <ele>991.642</ele>
        <time>2019-03-02T00:41:29Z</time>
      </trkpt>
      <trkpt lat="40.534807" lon="-5.760556">
        <ele>994.322</ele>
        <time>2019-03-02T00:41:45Z</time>
      </trkpt>
      <trkpt lat="40.534918" lon="-5.760594">
        <ele>995.414</ele>
        <time>2019-03-02T00:41:54Z</time>
      </trkpt>
      <trkpt lat="40.534930" lon="-5.760589">
        <ele>995.608</ele>
        <time>2019-03-02T00:41:55Z</time>
      </trkpt>
      <trkpt lat="40.534943" lon="-5.760582">
        <ele>995.797</ele>
        <time>2019-03-02T00:41:56Z</time>
      </trkpt>
      <trkpt lat="40.535104" lon="-5.760461">
        <ele>996.538</ele>
        <time>2019-03-02T00:42:09Z</time>
      </trkpt>
      <trkpt lat="40.535116" lon="-5.760454">
        <ele>996.559</ele>
        <time>2019-03-02T00:42:10Z</time>
      </trkpt>
      <trkpt lat="40.535127" lon="-5.760446">
        <ele>996.638</ele>
        <time>2019-03-02T00:42:11Z</time>
      </trkpt>
      <trkpt lat="40.535137" lon="-5.760438">
        <ele>996.692</ele>
        <time>2019-03-02T00:42:12Z</time>
      </trkpt>
      <trkpt lat="40.535147" lon="-5.760429">
        <ele>996.765</ele>
        <time>2019-03-02T00:42:13Z</time>
      </trkpt>
      <trkpt lat="40.535311" lon="-5.760334">
        <ele>997.294</ele>
        <time>2019-03-02T00:42:27Z</time>
      </trkpt>
      <trkpt lat="40.535383" lon="-5.760265">
        <ele>997.583</ele>
        <time>2019-03-02T00:42:33Z</time>
      </trkpt>
      <trkpt lat="40.535397" lon="-5.760252">
        <ele>997.696</ele>
        <time>2019-03-02T00:42:34Z</time>
      </trkpt>
      <trkpt lat="40.535653" lon="-5.760087">
        <ele>998.531</ele>
        <time>2019-03-02T00:42:47Z</time>
      </trkpt>
      <trkpt lat="40.535910" lon="-5.759889">
        <ele>999.024</ele>
        <time>2019-03-02T00:43:00Z</time>
      </trkpt>
      <trkpt lat="40.536142" lon="-5.759689">
        <ele>999.408</ele>
        <time>2019-03-02T00:43:13Z</time>
      </trkpt>
      <trkpt lat="40.536426" lon="-5.759345">
        <ele>999.722</ele>
        <time>2019-03-02T00:43:27Z</time>
      </trkpt>
      <trkpt lat="40.536768" lon="-5.758855">
        <ele>999.673</ele>
        <time>2019-03-02T00:43:44Z</time>
      </trkpt>
      <trkpt lat="40.537174" lon="-5.758375">
        <ele>998.014</ele>
        <time>2019-03-02T00:44:03Z</time>
      </trkpt>
      <trkpt lat="40.537400" lon="-5.758105">
        <ele>997.533</ele>
        <time>2019-03-02T00:44:15Z</time>
      </trkpt>
      <trkpt lat="40.537842" lon="-5.757643">
        <ele>997.477</ele>
        <time>2019-03-02T00:44:27Z</time>
      </trkpt>
      <trkpt lat="40.538526" lon="-5.756977">
        <ele>995.430</ele>
        <time>2019-03-02T00:44:41Z</time>
      </trkpt>
      <trkpt lat="40.539211" lon="-5.756435">
        <ele>993.299</ele>
        <time>2019-03-02T00:44:55Z</time>
      </trkpt>
      <trkpt lat="40.539300" lon="-5.756391">
        <ele>993.178</ele>
        <time>2019-03-02T00:44:57Z</time>
      </trkpt>
      <trkpt lat="40.539527" lon="-5.756226">
        <ele>992.445</ele>
        <time>2019-03-02T00:45:02Z</time>
      </trkpt>
      <trkpt lat="40.540085" lon="-5.755760">
        <ele>989.847</ele>
        <time>2019-03-02T00:45:15Z</time>
      </trkpt>
      <trkpt lat="40.540392" lon="-5.755584">
        <ele>988.711</ele>
        <time>2019-03-02T00:45:21Z</time>
      </trkpt>
      <trkpt lat="40.540433" lon="-5.755560">
        <ele>988.608</ele>
        <time>2019-03-02T00:45:22Z</time>
      </trkpt>
      <trkpt lat="40.540982" lon="-5.755235">
        <ele>986.697</ele>
        <time>2019-03-02T00:45:33Z</time>
      </trkpt>
      <trkpt lat="40.541505" lon="-5.754907">
        <ele>985.028</ele>
        <time>2019-03-02T00:45:45Z</time>
      </trkpt>
      <trkpt lat="40.541970" lon="-5.754663">
        <ele>984.839</ele>
        <time>2019-03-02T00:46:00Z</time>
      </trkpt>
      <trkpt lat="40.542438" lon="-5.754327">
        <ele>983.918</ele>
        <time>2019-03-02T00:46:12Z</time>
      </trkpt>
      <trkpt lat="40.542820" lon="-5.754098">
        <ele>983.262</ele>
        <time>2019-03-02T00:46:24Z</time>
      </trkpt>
      <trkpt lat="40.543299" lon="-5.753738">
        <ele>983.295</ele>
        <time>2019-03-02T00:46:39Z</time>
      </trkpt>
      <trkpt lat="40.543477" lon="-5.753635">
        <ele>983.324</ele>
        <time>2019-03-02T00:46:46Z</time>
      </trkpt>
      <trkpt lat="40.543514" lon="-5.753583">
        <ele>983.343</ele>
        <time>2019-03-02T00:46:49Z</time>
      </trkpt>
      <trkpt lat="40.543530" lon="-5.753563">
        <ele>983.387</ele>
        <time>2019-03-02T00:46:50Z</time>
      </trkpt>
      <trkpt lat="40.543548" lon="-5.753545">
        <ele>983.342</ele>
        <time>2019-03-02T00:46:51Z</time>
      </trkpt>
      <trkpt lat="40.543568" lon="-5.753524">
        <ele>983.426</ele>
        <time>2019-03-02T00:46:52Z</time>
      </trkpt>
      <trkpt lat="40.543587" lon="-5.753501">
        <ele>983.408</ele>
        <time>2019-03-02T00:46:53Z</time>
      </trkpt>
      <trkpt lat="40.543607" lon="-5.753472">
        <ele>983.521</ele>
        <time>2019-03-02T00:46:54Z</time>
      </trkpt>
      <trkpt lat="40.543623" lon="-5.753447">
        <ele>983.572</ele>
        <time>2019-03-02T00:46:55Z</time>
      </trkpt>
      <trkpt lat="40.543837" lon="-5.753029">
        <ele>984.883</ele>
        <time>2019-03-02T00:47:12Z</time>
      </trkpt>
      <trkpt lat="40.543994" lon="-5.752638">
        <ele>986.042</ele>
        <time>2019-03-02T00:47:26Z</time>
      </trkpt>
      <trkpt lat="40.544146" lon="-5.752096">
        <ele>987.496</ele>
        <time>2019-03-02T00:47:41Z</time>
      </trkpt>
      <trkpt lat="40.544431" lon="-5.751789">
        <ele>987.779</ele>
        <time>2019-03-02T00:47:53Z</time>
      </trkpt>
      <trkpt lat="40.544731" lon="-5.751392">
        <ele>988.398</ele>
        <time>2019-03-02T00:48:07Z</time>
      </trkpt>
      <trkpt lat="40.544870" lon="-5.750915">
        <ele>989.837</ele>
        <time>2019-03-02T00:48:22Z</time>
      </trkpt>
      <trkpt lat="40.545065" lon="-5.750444">
        <ele>991.343</ele>
        <time>2019-03-02T00:48:38Z</time>
      </trkpt>
      <trkpt lat="40.545187" lon="-5.750275">
        <ele>991.764</ele>
        <time>2019-03-02T00:48:49Z</time>
      </trkpt>
      <trkpt lat="40.545187" lon="-5.750271">
        <ele>991.710</ele>
        <time>2019-03-02T00:48:50Z</time>
      </trkpt>
      <trkpt lat="40.545223" lon="-5.750211">
        <ele>991.808</ele>
        <time>2019-03-02T00:49:09Z</time>
      </trkpt>
      <trkpt lat="40.545513" lon="-5.750032">
        <ele>992.067</ele>
        <time>2019-03-02T00:49:22Z</time>
      </trkpt>
      <trkpt lat="40.545827" lon="-5.749891">
        <ele>992.258</ele>
        <time>2019-03-02T00:49:35Z</time>
      </trkpt>
      <trkpt lat="40.546099" lon="-5.749817">
        <ele>992.469</ele>
        <time>2019-03-02T00:49:46Z</time>
      </trkpt>
      <trkpt lat="40.546183" lon="-5.749777">
        <ele>992.698</ele>
        <time>2019-03-02T00:49:58Z</time>
      </trkpt>
      <trkpt lat="40.546196" lon="-5.749767">
        <ele>992.622</ele>
        <time>2019-03-02T00:50:03Z</time>
      </trkpt>
      <trkpt lat="40.546301" lon="-5.749726">
        <ele>992.735</ele>
        <time>2019-03-02T00:50:10Z</time>
      </trkpt>
      <trkpt lat="40.546632" lon="-5.749678">
        <ele>993.114</ele>
        <time>2019-03-02T00:50:20Z</time>
      </trkpt>
      <trkpt lat="40.547071" lon="-5.749576">
        <ele>993.923</ele>
        <time>2019-03-02T00:50:35Z</time>
      </trkpt>
      <trkpt lat="40.547459" lon="-5.749468">
        <ele>994.948</ele>
        <time>2019-03-02T00:50:49Z</time>
      </trkpt>
      <trkpt lat="40.547877" lon="-5.749282">
        <ele>995.661</ele>
        <time>2019-03-02T00:51:03Z</time>
      </trkpt>
      <trkpt lat="40.548296" lon="-5.749078">
        <ele>996.717</ele>
        <time>2019-03-02T00:51:18Z</time>
      </trkpt>
      <trkpt lat="40.548591" lon="-5.748904">
        <ele>997.408</ele>
        <time>2019-03-02T00:51:29Z</time>
      </trkpt>
      <trkpt lat="40.549008" lon="-5.748604">
        <ele>998.687</ele>
        <time>2019-03-02T00:51:44Z</time>
      </trkpt>
      <trkpt lat="40.549467" lon="-5.748356">
        <ele>999.398</ele>
        <time>2019-03-02T00:51:58Z</time>
      </trkpt>
      <trkpt lat="40.550018" lon="-5.748111">
        <ele>998.069</ele>
        <time>2019-03-02T00:52:09Z</time>
      </trkpt>
      <trkpt lat="40.550352" lon="-5.747966">
        <ele>996.998</ele>
        <time>2019-03-02T00:52:15Z</time>
      </trkpt>
      <trkpt lat="40.550497" lon="-5.747891">
        <ele>996.382</ele>
        <time>2019-03-02T00:52:18Z</time>
      </trkpt>
      <trkpt lat="40.550597" lon="-5.747869">
        <ele>996.055</ele>
        <time>2019-03-02T00:52:20Z</time>
      </trkpt>
      <trkpt lat="40.550649" lon="-5.747863">
        <ele>995.814</ele>
        <time>2019-03-02T00:52:21Z</time>
      </trkpt>
      <trkpt lat="40.551574" lon="-5.747846">
        <ele>993.053</ele>
        <time>2019-03-02T00:52:36Z</time>
      </trkpt>
      <trkpt lat="40.551637" lon="-5.747820">
        <ele>992.836</ele>
        <time>2019-03-02T00:52:37Z</time>
      </trkpt>
      <trkpt lat="40.551698" lon="-5.747786">
        <ele>992.717</ele>
        <time>2019-03-02T00:52:38Z</time>
      </trkpt>
      <trkpt lat="40.552280" lon="-5.747483">
        <ele>990.518</ele>
        <time>2019-03-02T00:52:48Z</time>
      </trkpt>
      <trkpt lat="40.552553" lon="-5.747376">
        <ele>988.708</ele>
        <time>2019-03-02T00:52:53Z</time>
      </trkpt>
      <trkpt lat="40.552873" lon="-5.747261">
        <ele>986.036</ele>
        <time>2019-03-02T00:52:59Z</time>
      </trkpt>
      <trkpt lat="40.553175" lon="-5.747121">
        <ele>983.547</ele>
        <time>2019-03-02T00:53:07Z</time>
      </trkpt>
      <trkpt lat="40.553902" lon="-5.746534">
        <ele>977.078</ele>
        <time>2019-03-02T00:53:22Z</time>
      </trkpt>
      <trkpt lat="40.554447" lon="-5.746109">
        <ele>974.167</ele>
        <time>2019-03-02T00:53:34Z</time>
      </trkpt>
      <trkpt lat="40.554483" lon="-5.746072">
        <ele>973.941</ele>
        <time>2019-03-02T00:53:35Z</time>
      </trkpt>
      <trkpt lat="40.554517" lon="-5.746031">
        <ele>973.654</ele>
        <time>2019-03-02T00:53:36Z</time>
      </trkpt>
      <trkpt lat="40.554552" lon="-5.745990">
        <ele>973.313</ele>
        <time>2019-03-02T00:53:37Z</time>
      </trkpt>
      <trkpt lat="40.554590" lon="-5.745952">
        <ele>973.192</ele>
        <time>2019-03-02T00:53:38Z</time>
      </trkpt>
      <trkpt lat="40.554630" lon="-5.745915">
        <ele>972.986</ele>
        <time>2019-03-02T00:53:39Z</time>
      </trkpt>
      <trkpt lat="40.555424" lon="-5.745133">
        <ele>970.660</ele>
        <time>2019-03-02T00:53:58Z</time>
      </trkpt>
      <trkpt lat="40.556112" lon="-5.744418">
        <ele>970.526</ele>
        <time>2019-03-02T00:54:15Z</time>
      </trkpt>
      <trkpt lat="40.556967" lon="-5.743620">
        <ele>970.208</ele>
        <time>2019-03-02T00:54:35Z</time>
      </trkpt>
      <trkpt lat="40.557341" lon="-5.743207">
        <ele>969.991</ele>
        <time>2019-03-02T00:54:47Z</time>
      </trkpt>
      <trkpt lat="40.557348" lon="-5.743197">
        <ele>969.922</ele>
        <time>2019-03-02T00:54:52Z</time>
      </trkpt>
      <trkpt lat="40.557367" lon="-5.743234">
        <ele>969.983</ele>
        <time>2019-03-02T00:55:20Z</time>
      </trkpt>
      <trkpt lat="40.557394" lon="-5.743234">
        <ele>969.942</ele>
        <time>2019-03-02T00:55:26Z</time>
      </trkpt>
      <trkpt lat="40.557347" lon="-5.743241">
        <ele>969.986</ele>
        <time>2019-03-02T00:56:23Z</time>
      </trkpt>
      <trkpt lat="40.557333" lon="-5.743217">
        <ele>969.939</ele>
        <time>2019-03-02T00:56:28Z</time>
      </trkpt>
      <trkpt lat="40.557321" lon="-5.743146">
        <ele>969.988</ele>
        <time>2019-03-02T00:56:34Z</time>
      </trkpt>
      <trkpt lat="40.557436" lon="-5.742779">
        <ele>969.917</ele>
        <time>2019-03-02T00:56:44Z</time>
      </trkpt>
      <trkpt lat="40.557889" lon="-5.741939">
        <ele>970.065</ele>
        <time>2019-03-02T00:57:00Z</time>
      </trkpt>
      <trkpt lat="40.558393" lon="-5.740861">
        <ele>969.268</ele>
        <time>2019-03-02T00:57:15Z</time>
      </trkpt>
      <trkpt lat="40.559134" lon="-5.739444">
        <ele>966.814</ele>
        <time>2019-03-02T00:57:33Z</time>
      </trkpt>
      <trkpt lat="40.559814" lon="-5.738148">
        <ele>964.008</ele>
        <time>2019-03-02T00:57:50Z</time>
      </trkpt>
      <trkpt lat="40.560602" lon="-5.737217">
        <ele>961.229</ele>
        <time>2019-03-02T00:58:05Z</time>
      </trkpt>
      <trkpt lat="40.561538" lon="-5.736364">
        <ele>958.370</ele>
        <time>2019-03-02T00:58:21Z</time>
      </trkpt>
      <trkpt lat="40.562314" lon="-5.735860">
        <ele>956.811</ele>
        <time>2019-03-02T00:58:35Z</time>
      </trkpt>
      <trkpt lat="40.562615" lon="-5.735558">
        <ele>958.150</ele>
        <time>2019-03-02T00:58:42Z</time>
      </trkpt>
      <trkpt lat="40.562975" lon="-5.735115">
        <ele>959.384</ele>
        <time>2019-03-02T00:58:55Z</time>
      </trkpt>
      <trkpt lat="40.563397" lon="-5.734611">
        <ele>957.827</ele>
        <time>2019-03-02T00:59:06Z</time>
      </trkpt>
      <trkpt lat="40.563793" lon="-5.734042">
        <ele>956.426</ele>
        <time>2019-03-02T00:59:17Z</time>
      </trkpt>
      <trkpt lat="40.563908" lon="-5.733821">
        <ele>955.925</ele>
        <time>2019-03-02T00:59:21Z</time>
      </trkpt>
      <trkpt lat="40.563962" lon="-5.733696">
        <ele>955.551</ele>
        <time>2019-03-02T00:59:28Z</time>
      </trkpt>
      <trkpt lat="40.563928" lon="-5.733665">
        <ele>955.401</ele>
        <time>2019-03-02T01:21:36Z</time>
      </trkpt>
      <trkpt lat="40.564159" lon="-5.733326">
        <ele>953.811</ele>
        <time>2019-03-02T01:21:48Z</time>
      </trkpt>
      <trkpt lat="40.564159" lon="-5.733326">
        <ele>953.808</ele>
        <time>2019-03-02T01:21:52Z</time>
      </trkpt>
      <trkpt lat="40.564214" lon="-5.733259">
        <ele>953.668</ele>
        <time>2019-03-02T01:22:07Z</time>
      </trkpt>
      <trkpt lat="40.564493" lon="-5.732785">
        <ele>953.379</ele>
        <time>2019-03-02T01:22:20Z</time>
      </trkpt>
      <trkpt lat="40.564546" lon="-5.732694">
        <ele>953.270</ele>
        <time>2019-03-02T01:22:22Z</time>
      </trkpt>
      <trkpt lat="40.564840" lon="-5.732085">
        <ele>951.989</ele>
        <time>2019-03-02T01:22:35Z</time>
      </trkpt>
      <trkpt lat="40.564902" lon="-5.731844">
        <ele>951.733</ele>
        <time>2019-03-02T01:22:44Z</time>
      </trkpt>
      <trkpt lat="40.564913" lon="-5.731843">
        <ele>951.786</ele>
        <time>2019-03-02T01:22:45Z</time>
      </trkpt>
      <trkpt lat="40.564923" lon="-5.731849">
        <ele>951.785</ele>
        <time>2019-03-02T01:22:46Z</time>
      </trkpt>
      <trkpt lat="40.564935" lon="-5.731863">
        <ele>951.744</ele>
        <time>2019-03-02T01:22:47Z</time>
      </trkpt>
      <trkpt lat="40.564950" lon="-5.731883">
        <ele>951.718</ele>
        <time>2019-03-02T01:22:48Z</time>
      </trkpt>
      <trkpt lat="40.565068" lon="-5.732024">
        <ele>951.598</ele>
        <time>2019-03-02T01:22:54Z</time>
      </trkpt>
      <trkpt lat="40.565101" lon="-5.732129">
        <ele>951.517</ele>
        <time>2019-03-02T01:22:57Z</time>
      </trkpt>
      <trkpt lat="40.565098" lon="-5.732170">
        <ele>951.608</ele>
        <time>2019-03-02T01:22:58Z</time>
      </trkpt>
      <trkpt lat="40.565239" lon="-5.732585">
        <ele>951.744</ele>
        <time>2019-03-02T01:23:08Z</time>
      </trkpt>
      <trkpt lat="40.565293" lon="-5.732674">
        <ele>951.675</ele>
        <time>2019-03-02T01:23:10Z</time>
      </trkpt>
      <trkpt lat="40.565315" lon="-5.732727">
        <ele>951.676</ele>
        <time>2019-03-02T01:23:11Z</time>
      </trkpt>
      <trkpt lat="40.565334" lon="-5.732784">
        <ele>951.595</ele>
        <time>2019-03-02T01:23:12Z</time>
      </trkpt>
      <trkpt lat="40.565550" lon="-5.733449">
        <ele>950.319</ele>
        <time>2019-03-02T01:23:22Z</time>
      </trkpt>
      <trkpt lat="40.565579" lon="-5.733512">
        <ele>950.242</ele>
        <time>2019-03-02T01:23:23Z</time>
      </trkpt>
      <trkpt lat="40.565612" lon="-5.733570">
        <ele>950.171</ele>
        <time>2019-03-02T01:23:24Z</time>
      </trkpt>
      <trkpt lat="40.566120" lon="-5.734180">
        <ele>950.220</ele>
        <time>2019-03-02T01:23:36Z</time>
      </trkpt>
      <trkpt lat="40.566175" lon="-5.734210">
        <ele>950.141</ele>
        <time>2019-03-02T01:23:37Z</time>
      </trkpt>
      <trkpt lat="40.567235" lon="-5.734511">
        <ele>949.281</ele>
        <time>2019-03-02T01:23:55Z</time>
      </trkpt>
      <trkpt lat="40.568322" lon="-5.734690">
        <ele>948.109</ele>
        <time>2019-03-02T01:24:13Z</time>
      </trkpt>
      <trkpt lat="40.568374" lon="-5.734680">
        <ele>948.108</ele>
        <time>2019-03-02T01:24:14Z</time>
      </trkpt>
      <trkpt lat="40.568475" lon="-5.734654">
        <ele>948.127</ele>
        <time>2019-03-02T01:24:18Z</time>
      </trkpt>
      <trkpt lat="40.568496" lon="-5.734660">
        <ele>948.138</ele>
        <time>2019-03-02T01:24:23Z</time>
      </trkpt>
      <trkpt lat="40.568550" lon="-5.734572">
        <ele>948.149</ele>
        <time>2019-03-02T01:24:32Z</time>
      </trkpt>
      <trkpt lat="40.568742" lon="-5.734347">
        <ele>948.268</ele>
        <time>2019-03-02T01:24:40Z</time>
      </trkpt>
      <trkpt lat="40.568783" lon="-5.734356">
        <ele>948.262</ele>
        <time>2019-03-02T01:24:41Z</time>
      </trkpt>
      <trkpt lat="40.568825" lon="-5.734373">
        <ele>948.255</ele>
        <time>2019-03-02T01:24:42Z</time>
      </trkpt>
      <trkpt lat="40.568868" lon="-5.734398">
        <ele>948.244</ele>
        <time>2019-03-02T01:24:43Z</time>
      </trkpt>
      <trkpt lat="40.568911" lon="-5.734429">
        <ele>948.253</ele>
        <time>2019-03-02T01:24:44Z</time>
      </trkpt>
      <trkpt lat="40.568956" lon="-5.734463">
        <ele>948.234</ele>
        <time>2019-03-02T01:24:45Z</time>
      </trkpt>
      <trkpt lat="40.569735" lon="-5.735181">
        <ele>947.355</ele>
        <time>2019-03-02T01:25:02Z</time>
      </trkpt>
      <trkpt lat="40.570151" lon="-5.735422">
        <ele>946.810</ele>
        <time>2019-03-02T01:25:13Z</time>
      </trkpt>
      <trkpt lat="40.570995" lon="-5.735893">
        <ele>947.408</ele>
        <time>2019-03-02T01:25:29Z</time>
      </trkpt>
      <trkpt lat="40.571763" lon="-5.736327">
        <ele>949.686</ele>
        <time>2019-03-02T01:25:46Z</time>
      </trkpt>
      <trkpt lat="40.571802" lon="-5.736350">
        <ele>949.727</ele>
        <time>2019-03-02T01:25:47Z</time>
      </trkpt>
      <trkpt lat="40.572422" lon="-5.736685">
        <ele>951.888</ele>
        <time>2019-03-02T01:26:06Z</time>
      </trkpt>
      <trkpt lat="40.572967" lon="-5.736954">
        <ele>952.417</ele>
        <time>2019-03-02T01:26:22Z</time>
      </trkpt>
      <trkpt lat="40.574019" lon="-5.737390">
        <ele>953.381</ele>
        <time>2019-03-02T01:26:49Z</time>
      </trkpt>
      <trkpt lat="40.574822" lon="-5.737766">
        <ele>954.644</ele>
        <time>2019-03-02T01:27:11Z</time>
      </trkpt>
      <trkpt lat="40.575233" lon="-5.738148">
        <ele>955.493</ele>
        <time>2019-03-02T01:27:24Z</time>
      </trkpt>
      <trkpt lat="40.575263" lon="-5.738148">
        <ele>955.492</ele>
        <time>2019-03-02T01:27:25Z</time>
      </trkpt>
      <trkpt lat="40.575293" lon="-5.738140">
        <ele>955.479</ele>
        <time>2019-03-02T01:27:26Z</time>
      </trkpt>
      <trkpt lat="40.575322" lon="-5.738124">
        <ele>955.405</ele>
        <time>2019-03-02T01:27:27Z</time>
      </trkpt>
      <trkpt lat="40.575353" lon="-5.738107">
        <ele>955.425</ele>
        <time>2019-03-02T01:27:28Z</time>
      </trkpt>
      <trkpt lat="40.575387" lon="-5.738091">
        <ele>955.408</ele>
        <time>2019-03-02T01:27:29Z</time>
      </trkpt>
      <trkpt lat="40.575896" lon="-5.738064">
        <ele>955.380</ele>
        <time>2019-03-02T01:27:43Z</time>
      </trkpt>
      <trkpt lat="40.576562" lon="-5.738536">
        <ele>954.931</ele>
        <time>2019-03-02T01:28:00Z</time>
      </trkpt>
      <trkpt lat="40.577068" lon="-5.738856">
        <ele>953.632</ele>
        <time>2019-03-02T01:28:13Z</time>
      </trkpt>
      <trkpt lat="40.577571" lon="-5.738740">
        <ele>953.291</ele>
        <time>2019-03-02T01:28:27Z</time>
      </trkpt>
      <trkpt lat="40.578081" lon="-5.738734">
        <ele>952.915</ele>
        <time>2019-03-02T01:28:41Z</time>
      </trkpt>
      <trkpt lat="40.578656" lon="-5.738764">
        <ele>952.888</ele>
        <time>2019-03-02T01:28:55Z</time>
      </trkpt>
      <trkpt lat="40.579257" lon="-5.738776">
        <ele>953.397</ele>
        <time>2019-03-02T01:29:10Z</time>
      </trkpt>
      <trkpt lat="40.579868" lon="-5.738824">
        <ele>953.916</ele>
        <time>2019-03-02T01:29:26Z</time>
      </trkpt>
      <trkpt lat="40.580453" lon="-5.738838">
        <ele>954.355</ele>
        <time>2019-03-02T01:29:42Z</time>
      </trkpt>
      <trkpt lat="40.581210" lon="-5.738802">
        <ele>953.207</ele>
        <time>2019-03-02T01:29:59Z</time>
      </trkpt>
      <trkpt lat="40.582117" lon="-5.738758">
        <ele>950.317</ele>
        <time>2019-03-02T01:30:14Z</time>
      </trkpt>
      <trkpt lat="40.582260" lon="-5.738763">
        <ele>949.908</ele>
        <time>2019-03-02T01:30:16Z</time>
      </trkpt>
      <trkpt lat="40.583285" lon="-5.738564">
        <ele>947.768</ele>
        <time>2019-03-02T01:30:30Z</time>
      </trkpt>
      <trkpt lat="40.584165" lon="-5.738490">
        <ele>945.679</ele>
        <time>2019-03-02T01:30:44Z</time>
      </trkpt>
      <trkpt lat="40.584165" lon="-5.738490">
        <ele>945.650</ele>
        <time>2019-03-02T01:30:47Z</time>
      </trkpt>
      <trkpt lat="40.584228" lon="-5.738498">
        <ele>945.439</ele>
        <time>2019-03-02T01:31:26Z</time>
      </trkpt>
      <trkpt lat="40.584756" lon="-5.738540">
        <ele>942.393</ele>
        <time>2019-03-02T01:31:37Z</time>
      </trkpt>
      <trkpt lat="40.585437" lon="-5.738565">
        <ele>938.596</ele>
        <time>2019-03-02T01:31:46Z</time>
      </trkpt>
      <trkpt lat="40.586145" lon="-5.738484">
        <ele>935.415</ele>
        <time>2019-03-02T01:31:54Z</time>
      </trkpt>
      <trkpt lat="40.586868" lon="-5.738355">
        <ele>933.474</ele>
        <time>2019-03-02T01:32:02Z</time>
      </trkpt>
      <trkpt lat="40.587721" lon="-5.738288">
        <ele>931.483</ele>
        <time>2019-03-02T01:32:13Z</time>
      </trkpt>
      <trkpt lat="40.587923" lon="-5.738362">
        <ele>930.725</ele>
        <time>2019-03-02T01:32:16Z</time>
      </trkpt>
      <trkpt lat="40.588059" lon="-5.738382">
        <ele>930.417</ele>
        <time>2019-03-02T01:32:18Z</time>
      </trkpt>
      <trkpt lat="40.589042" lon="-5.738343">
        <ele>927.808</ele>
        <time>2019-03-02T01:32:32Z</time>
      </trkpt>
      <trkpt lat="40.589108" lon="-5.738347">
        <ele>927.551</ele>
        <time>2019-03-02T01:32:33Z</time>
      </trkpt>
      <trkpt lat="40.589171" lon="-5.738345">
        <ele>927.222</ele>
        <time>2019-03-02T01:32:34Z</time>
      </trkpt>
      <trkpt lat="40.589436" lon="-5.738317">
        <ele>926.033</ele>
        <time>2019-03-02T01:32:42Z</time>
      </trkpt>
      <trkpt lat="40.589435" lon="-5.738316">
        <ele>926.082</ele>
        <time>2019-03-02T01:32:44Z</time>
      </trkpt>
      <trkpt lat="40.589503" lon="-5.738313">
        <ele>925.836</ele>
        <time>2019-03-02T01:32:57Z</time>
      </trkpt>
      <trkpt lat="40.590042" lon="-5.738334">
        <ele>924.519</ele>
        <time>2019-03-02T01:33:09Z</time>
      </trkpt>
      <trkpt lat="40.590370" lon="-5.738288">
        <ele>923.838</ele>
        <time>2019-03-02T01:33:15Z</time>
      </trkpt>
      <trkpt lat="40.590426" lon="-5.738291">
        <ele>923.747</ele>
        <time>2019-03-02T01:33:16Z</time>
      </trkpt>
      <trkpt lat="40.590483" lon="-5.738287">
        <ele>923.614</ele>
        <time>2019-03-02T01:33:17Z</time>
      </trkpt>
      <trkpt lat="40.590540" lon="-5.738276">
        <ele>923.454</ele>
        <time>2019-03-02T01:33:18Z</time>
      </trkpt>
      <trkpt lat="40.590598" lon="-5.738265">
        <ele>923.309</ele>
        <time>2019-03-02T01:33:19Z</time>
      </trkpt>
      <trkpt lat="40.590655" lon="-5.738251">
        <ele>923.208</ele>
        <time>2019-03-02T01:33:20Z</time>
      </trkpt>
      <trkpt lat="40.590711" lon="-5.738229">
        <ele>923.144</ele>
        <time>2019-03-02T01:33:21Z</time>
      </trkpt>
      <trkpt lat="40.590767" lon="-5.738207">
        <ele>923.085</ele>
        <time>2019-03-02T01:33:22Z</time>
      </trkpt>
      <trkpt lat="40.590824" lon="-5.738189">
        <ele>922.996</ele>
        <time>2019-03-02T01:33:23Z</time>
      </trkpt>
      <trkpt lat="40.590881" lon="-5.738180">
        <ele>922.875</ele>
        <time>2019-03-02T01:33:24Z</time>
      </trkpt>
      <trkpt lat="40.590938" lon="-5.738178">
        <ele>922.749</ele>
        <time>2019-03-02T01:33:25Z</time>
      </trkpt>
      <trkpt lat="40.591879" lon="-5.738185">
        <ele>920.422</ele>
        <time>2019-03-02T01:33:41Z</time>
      </trkpt>
      <trkpt lat="40.592245" lon="-5.738202">
        <ele>919.651</ele>
        <time>2019-03-02T01:33:47Z</time>
      </trkpt>
      <trkpt lat="40.592338" lon="-5.738225">
        <ele>919.330</ele>
        <time>2019-03-02T01:33:49Z</time>
      </trkpt>
      <trkpt lat="40.592491" lon="-5.738223">
        <ele>918.972</ele>
        <time>2019-03-02T01:33:53Z</time>
      </trkpt>
      <trkpt lat="40.592531" lon="-5.738211">
        <ele>918.813</ele>
        <time>2019-03-02T01:33:54Z</time>
      </trkpt>
      <trkpt lat="40.593129" lon="-5.738180">
        <ele>917.814</ele>
        <time>2019-03-02T01:34:08Z</time>
      </trkpt>
      <trkpt lat="40.594000" lon="-5.738167">
        <ele>917.008</ele>
        <time>2019-03-02T01:34:26Z</time>
      </trkpt>
      <trkpt lat="40.594407" lon="-5.738159">
        <ele>916.980</ele>
        <time>2019-03-02T01:34:38Z</time>
      </trkpt>
      <trkpt lat="40.594930" lon="-5.738150">
        <ele>917.131</ele>
        <time>2019-03-02T01:34:54Z</time>
      </trkpt>
      <trkpt lat="40.595339" lon="-5.738172">
        <ele>917.082</ele>
        <time>2019-03-02T01:35:09Z</time>
      </trkpt>
      <trkpt lat="40.595339" lon="-5.738172">
        <ele>917.031</ele>
        <time>2019-03-02T01:35:12Z</time>
      </trkpt>
      <trkpt lat="40.595420" lon="-5.738146">
        <ele>916.955</ele>
        <time>2019-03-02T01:35:26Z</time>
      </trkpt>
      <trkpt lat="40.595999" lon="-5.738098">
        <ele>915.758</ele>
        <time>2019-03-02T01:35:41Z</time>
      </trkpt>
      <trkpt lat="40.596503" lon="-5.738073">
        <ele>914.717</ele>
        <time>2019-03-02T01:35:54Z</time>
      </trkpt>
      <trkpt lat="40.597085" lon="-5.738005">
        <ele>912.826</ele>
        <time>2019-03-02T01:36:05Z</time>
      </trkpt>
      <trkpt lat="40.597106" lon="-5.737985">
        <ele>912.734</ele>
        <time>2019-03-02T01:36:10Z</time>
      </trkpt>
      <trkpt lat="40.597232" lon="-5.738030">
        <ele>912.555</ele>
        <time>2019-03-02T01:39:11Z</time>
      </trkpt>
      <trkpt lat="40.597599" lon="-5.738007">
        <ele>912.110</ele>
        <time>2019-03-02T01:39:20Z</time>
      </trkpt>
      <trkpt lat="40.598531" lon="-5.737960">
        <ele>910.808</ele>
        <time>2019-03-02T01:39:37Z</time>
      </trkpt>
      <trkpt lat="40.599835" lon="-5.737892">
        <ele>909.736</ele>
        <time>2019-03-02T01:39:58Z</time>
      </trkpt>
      <trkpt lat="40.600963" lon="-5.737872">
        <ele>908.997</ele>
        <time>2019-03-02T01:40:16Z</time>
      </trkpt>
      <trkpt lat="40.602182" lon="-5.737811">
        <ele>908.418</ele>
        <time>2019-03-02T01:40:37Z</time>
      </trkpt>
      <trkpt lat="40.602385" lon="-5.737794">
        <ele>908.447</ele>
        <time>2019-03-02T01:40:41Z</time>
      </trkpt>
      <trkpt lat="40.603296" lon="-5.737761">
        <ele>907.581</ele>
        <time>2019-03-02T01:40:58Z</time>
      </trkpt>
      <trkpt lat="40.603533" lon="-5.737778">
        <ele>907.274</ele>
        <time>2019-03-02T01:41:02Z</time>
      </trkpt>
      <trkpt lat="40.604693" lon="-5.737728">
        <ele>905.813</ele>
        <time>2019-03-02T01:41:20Z</time>
      </trkpt>
      <trkpt lat="40.606172" lon="-5.737664">
        <ele>904.832</ele>
        <time>2019-03-02T01:41:43Z</time>
      </trkpt>
      <trkpt lat="40.607534" lon="-5.737580">
        <ele>904.122</ele>
        <time>2019-03-02T01:42:05Z</time>
      </trkpt>
      <trkpt lat="40.608674" lon="-5.737539">
        <ele>903.762</ele>
        <time>2019-03-02T01:42:25Z</time>
      </trkpt>
      <trkpt lat="40.609419" lon="-5.737514">
        <ele>903.108</ele>
        <time>2019-03-02T01:42:39Z</time>
      </trkpt>
      <trkpt lat="40.609840" lon="-5.737481">
        <ele>903.008</ele>
        <time>2019-03-02T01:42:49Z</time>
      </trkpt>
      <trkpt lat="40.609883" lon="-5.737463">
        <ele>903.085</ele>
        <time>2019-03-02T01:42:50Z</time>
      </trkpt>
      <trkpt lat="40.609927" lon="-5.737444">
        <ele>903.056</ele>
        <time>2019-03-02T01:42:51Z</time>
      </trkpt>
      <trkpt lat="40.609972" lon="-5.737430">
        <ele>903.017</ele>
        <time>2019-03-02T01:42:52Z</time>
      </trkpt>
      <trkpt lat="40.610020" lon="-5.737423">
        <ele>902.996</ele>
        <time>2019-03-02T01:42:53Z</time>
      </trkpt>
      <trkpt lat="40.610069" lon="-5.737420">
        <ele>902.960</ele>
        <time>2019-03-02T01:42:54Z</time>
      </trkpt>
      <trkpt lat="40.610482" lon="-5.737374">
        <ele>902.883</ele>
        <time>2019-03-02T01:43:06Z</time>
      </trkpt>
      <trkpt lat="40.610585" lon="-5.737438">
        <ele>902.772</ele>
        <time>2019-03-02T01:43:16Z</time>
      </trkpt>
      <trkpt lat="40.610619" lon="-5.737426">
        <ele>902.761</ele>
        <time>2019-03-02T01:43:50Z</time>
      </trkpt>
      <trkpt lat="40.610743" lon="-5.737299">
        <ele>902.631</ele>
        <time>2019-03-02T01:43:57Z</time>
      </trkpt>
      <trkpt lat="40.611296" lon="-5.737141">
        <ele>902.261</ele>
        <time>2019-03-02T01:44:11Z</time>
      </trkpt>
      <trkpt lat="40.611344" lon="-5.737134">
        <ele>902.207</ele>
        <time>2019-03-02T01:44:12Z</time>
      </trkpt>
      <trkpt lat="40.611643" lon="-5.737129">
        <ele>902.008</ele>
        <time>2019-03-02T01:44:22Z</time>
      </trkpt>
      <trkpt lat="40.611646" lon="-5.737130">
        <ele>902.046</ele>
        <time>2019-03-02T01:44:24Z</time>
      </trkpt>
      <trkpt lat="40.611710" lon="-5.737130">
        <ele>901.987</ele>
        <time>2019-03-02T01:44:29Z</time>
      </trkpt>
      <trkpt lat="40.611901" lon="-5.737133">
        <ele>901.778</ele>
        <time>2019-03-02T01:44:38Z</time>
      </trkpt>
      <trkpt lat="40.611900" lon="-5.737134">
        <ele>901.727</ele>
        <time>2019-03-02T01:44:39Z</time>
      </trkpt>
      <trkpt lat="40.611959" lon="-5.737133">
        <ele>901.651</ele>
        <time>2019-03-02T01:46:09Z</time>
      </trkpt>
      <trkpt lat="40.612032" lon="-5.737131">
        <ele>901.694</ele>
        <time>2019-03-02T01:46:16Z</time>
      </trkpt>
      <trkpt lat="40.612109" lon="-5.737127">
        <ele>901.573</ele>
        <time>2019-03-02T01:46:38Z</time>
      </trkpt>
      <trkpt lat="40.612723" lon="-5.737111">
        <ele>900.572</ele>
        <time>2019-03-02T01:46:51Z</time>
      </trkpt>
      <trkpt lat="40.612987" lon="-5.737076">
        <ele>900.186</ele>
        <time>2019-03-02T01:46:56Z</time>
      </trkpt>
      <trkpt lat="40.613036" lon="-5.737079">
        <ele>900.060</ele>
        <time>2019-03-02T01:46:57Z</time>
      </trkpt>
      <trkpt lat="40.613082" lon="-5.737086">
        <ele>900.026</ele>
        <time>2019-03-02T01:46:58Z</time>
      </trkpt>
      <trkpt lat="40.613452" lon="-5.737157">
        <ele>899.908</ele>
        <time>2019-03-02T01:47:09Z</time>
      </trkpt>
      <trkpt lat="40.614045" lon="-5.737111">
        <ele>900.291</ele>
        <time>2019-03-02T01:47:23Z</time>
      </trkpt>
      <trkpt lat="40.614963" lon="-5.737069">
        <ele>899.932</ele>
        <time>2019-03-02T01:47:40Z</time>
      </trkpt>
      <trkpt lat="40.615136" lon="-5.737007">
        <ele>899.443</ele>
        <time>2019-03-02T01:47:45Z</time>
      </trkpt>
      <trkpt lat="40.615178" lon="-5.736990">
        <ele>899.232</ele>
        <time>2019-03-02T01:47:46Z</time>
      </trkpt>
      <trkpt lat="40.615222" lon="-5.736984">
        <ele>898.966</ele>
        <time>2019-03-02T01:47:47Z</time>
      </trkpt>
      <trkpt lat="40.615270" lon="-5.736988">
        <ele>898.549</ele>
        <time>2019-03-02T01:47:48Z</time>
      </trkpt>
      <trkpt lat="40.615318" lon="-5.736996">
        <ele>898.298</ele>
        <time>2019-03-02T01:47:49Z</time>
      </trkpt>
      <trkpt lat="40.615808" lon="-5.737103">
        <ele>897.597</ele>
        <time>2019-03-02T01:48:02Z</time>
      </trkpt>
      <trkpt lat="40.616117" lon="-5.737102">
        <ele>897.749</ele>
        <time>2019-03-02T01:48:10Z</time>
      </trkpt>
      <trkpt lat="40.616161" lon="-5.737088">
        <ele>897.702</ele>
        <time>2019-03-02T01:48:11Z</time>
      </trkpt>
      <trkpt lat="40.616755" lon="-5.736954">
        <ele>896.922</ele>
        <time>2019-03-02T01:48:25Z</time>
      </trkpt>
      <trkpt lat="40.617077" lon="-5.737013">
        <ele>896.608</ele>
        <time>2019-03-02T01:48:37Z</time>
      </trkpt>
      <trkpt lat="40.617374" lon="-5.737147">
        <ele>897.187</ele>
        <time>2019-03-02T01:48:48Z</time>
      </trkpt>
      <trkpt lat="40.617788" lon="-5.737117">
        <ele>898.438</ele>
        <time>2019-03-02T01:49:03Z</time>
      </trkpt>
      <trkpt lat="40.618263" lon="-5.737108">
        <ele>899.989</ele>
        <time>2019-03-02T01:49:20Z</time>
      </trkpt>
      <trkpt lat="40.618627" lon="-5.737140">
        <ele>901.318</ele>
        <time>2019-03-02T01:49:34Z</time>
      </trkpt>
      <trkpt lat="40.619078" lon="-5.737084">
        <ele>903.092</ele>
        <time>2019-03-02T01:49:51Z</time>
      </trkpt>
      <trkpt lat="40.619404" lon="-5.737143">
        <ele>904.445</ele>
        <time>2019-03-02T01:50:04Z</time>
      </trkpt>
      <trkpt lat="40.619685" lon="-5.737219">
        <ele>905.574</ele>
        <time>2019-03-02T01:50:17Z</time>
      </trkpt>
      <trkpt lat="40.619911" lon="-5.737173">
        <ele>906.683</ele>
        <time>2019-03-02T01:50:31Z</time>
      </trkpt>
      <trkpt lat="40.619913" lon="-5.737176">
        <ele>906.744</ele>
        <time>2019-03-02T01:50:33Z</time>
      </trkpt>
      <trkpt lat="40.620009" lon="-5.737192">
        <ele>907.105</ele>
        <time>2019-03-02T01:50:52Z</time>
      </trkpt>
      <trkpt lat="40.620364" lon="-5.737241">
        <ele>907.815</ele>
        <time>2019-03-02T01:51:04Z</time>
      </trkpt>
      <trkpt lat="40.620691" lon="-5.737247">
        <ele>907.808</ele>
        <time>2019-03-02T01:51:11Z</time>
      </trkpt>
      <trkpt lat="40.621343" lon="-5.737314">
        <ele>907.867</ele>
        <time>2019-03-02T01:51:26Z</time>
      </trkpt>
      <trkpt lat="40.621528" lon="-5.737356">
        <ele>907.858</ele>
        <time>2019-03-02T01:51:30Z</time>
      </trkpt>
      <trkpt lat="40.621623" lon="-5.737385">
        <ele>907.899</ele>
        <time>2019-03-02T01:51:32Z</time>
      </trkpt>
      <trkpt lat="40.621672" lon="-5.737392">
        <ele>907.898</ele>
        <time>2019-03-02T01:51:33Z</time>
      </trkpt>
      <trkpt lat="40.622222" lon="-5.737514">
        <ele>907.652</ele>
        <time>2019-03-02T01:51:44Z</time>
      </trkpt>
      <trkpt lat="40.622355" lon="-5.737540">
        <ele>907.695</ele>
        <time>2019-03-02T01:51:47Z</time>
      </trkpt>
      <trkpt lat="40.622741" lon="-5.737501">
        <ele>907.524</ele>
        <time>2019-03-02T01:51:58Z</time>
      </trkpt>
      <trkpt lat="40.622894" lon="-5.737513">
        <ele>907.363</ele>
        <time>2019-03-02T01:52:08Z</time>
      </trkpt>
      <trkpt lat="40.623004" lon="-5.737519">
        <ele>907.143</ele>
        <time>2019-03-02T01:52:58Z</time>
      </trkpt>
      <trkpt lat="40.623286" lon="-5.737908">
        <ele>907.864</ele>
        <time>2019-03-02T01:53:10Z</time>
      </trkpt>
      <trkpt lat="40.623649" lon="-5.738457">
        <ele>908.910</ele>
        <time>2019-03-02T01:53:25Z</time>
      </trkpt>
      <trkpt lat="40.623727" lon="-5.738518">
        <ele>909.008</ele>
        <time>2019-03-02T01:53:28Z</time>
      </trkpt>
      <trkpt lat="40.623753" lon="-5.738508">
        <ele>909.057</ele>
        <time>2019-03-02T01:53:29Z</time>
      </trkpt>
      <trkpt lat="40.623772" lon="-5.738484">
        <ele>909.048</ele>
        <time>2019-03-02T01:53:30Z</time>
      </trkpt>
      <trkpt lat="40.623785" lon="-5.738451">
        <ele>909.039</ele>
        <time>2019-03-02T01:53:31Z</time>
      </trkpt>
      <trkpt lat="40.623800" lon="-5.738417">
        <ele>909.068</ele>
        <time>2019-03-02T01:53:32Z</time>
      </trkpt>
      <trkpt lat="40.623814" lon="-5.738384">
        <ele>909.042</ele>
        <time>2019-03-02T01:53:33Z</time>
      </trkpt>
      <trkpt lat="40.624083" lon="-5.738010">
        <ele>909.755</ele>
        <time>2019-03-02T01:53:47Z</time>
      </trkpt>
      <trkpt lat="40.624582" lon="-5.738094">
        <ele>912.754</ele>
        <time>2019-03-02T01:54:06Z</time>
      </trkpt>
      <trkpt lat="40.624949" lon="-5.738222">
        <ele>914.383</ele>
        <time>2019-03-02T01:54:20Z</time>
      </trkpt>
      <trkpt lat="40.625363" lon="-5.738399">
        <ele>916.099</ele>
        <time>2019-03-02T01:54:37Z</time>
      </trkpt>
      <trkpt lat="40.625840" lon="-5.738594">
        <ele>917.407</ele>
        <time>2019-03-02T01:54:56Z</time>
      </trkpt>
      <trkpt lat="40.626170" lon="-5.738638">
        <ele>918.427</ele>
        <time>2019-03-02T01:55:09Z</time>
      </trkpt>
      <trkpt lat="40.626480" lon="-5.738724">
        <ele>919.808</ele>
        <time>2019-03-02T01:55:24Z</time>
      </trkpt>
      <trkpt lat="40.626668" lon="-5.738787">
        <ele>920.462</ele>
        <time>2019-03-02T01:55:38Z</time>
      </trkpt>
      <trkpt lat="40.626712" lon="-5.738806">
        <ele>920.573</ele>
        <time>2019-03-02T01:56:01Z</time>
      </trkpt>
      <trkpt lat="40.627080" lon="-5.738826">
        <ele>921.394</ele>
        <time>2019-03-02T01:56:16Z</time>
      </trkpt>
      <trkpt lat="40.627580" lon="-5.738919">
        <ele>922.793</ele>
        <time>2019-03-02T01:56:34Z</time>
      </trkpt>
      <trkpt lat="40.627946" lon="-5.739002">
        <ele>923.557</ele>
        <time>2019-03-02T01:56:47Z</time>
      </trkpt>
      <trkpt lat="40.628577" lon="-5.739070">
        <ele>925.060</ele>
        <time>2019-03-02T01:57:05Z</time>
      </trkpt>
      <trkpt lat="40.629056" lon="-5.739119">
        <ele>925.679</ele>
        <time>2019-03-02T01:57:19Z</time>
      </trkpt>
      <trkpt lat="40.629745" lon="-5.739267">
        <ele>927.058</ele>
        <time>2019-03-02T01:57:39Z</time>
      </trkpt>
      <trkpt lat="40.630263" lon="-5.739438">
        <ele>928.366</ele>
        <time>2019-03-02T01:57:54Z</time>
      </trkpt>
      <trkpt lat="40.630890" lon="-5.739484">
        <ele>929.929</ele>
        <time>2019-03-02T01:58:11Z</time>
      </trkpt>
      <trkpt lat="40.631656" lon="-5.739646">
        <ele>930.721</ele>
        <time>2019-03-02T01:58:32Z</time>
      </trkpt>
      <trkpt lat="40.632236" lon="-5.739824">
        <ele>931.808</ele>
        <time>2019-03-02T01:58:49Z</time>
      </trkpt>
      <trkpt lat="40.632892" lon="-5.739985">
        <ele>933.349</ele>
        <time>2019-03-02T01:59:09Z</time>
      </trkpt>
      <trkpt lat="40.633541" lon="-5.740033">
        <ele>934.560</ele>
        <time>2019-03-02T01:59:29Z</time>
      </trkpt>
      <trkpt lat="40.633707" lon="-5.740070">
        <ele>934.791</ele>
        <time>2019-03-02T01:59:39Z</time>
      </trkpt>
      <trkpt lat="40.633764" lon="-5.740076">
        <ele>934.890</ele>
        <time>2019-03-02T02:00:18Z</time>
      </trkpt>
      <trkpt lat="40.634266" lon="-5.740184">
        <ele>935.854</ele>
        <time>2019-03-02T02:00:36Z</time>
      </trkpt>
      <trkpt lat="40.634852" lon="-5.740251">
        <ele>937.447</ele>
        <time>2019-03-02T02:00:55Z</time>
      </trkpt>
      <trkpt lat="40.635387" lon="-5.740163">
        <ele>938.026</ele>
        <time>2019-03-02T02:01:12Z</time>
      </trkpt>
      <trkpt lat="40.635934" lon="-5.740014">
        <ele>938.785</ele>
        <time>2019-03-02T02:01:29Z</time>
      </trkpt>
      <trkpt lat="40.636383" lon="-5.739831">
        <ele>939.661</ele>
        <time>2019-03-02T02:01:44Z</time>
      </trkpt>
      <trkpt lat="40.636801" lon="-5.739782">
        <ele>940.421</ele>
        <time>2019-03-02T02:01:58Z</time>
      </trkpt>
      <trkpt lat="40.637473" lon="-5.739714">
        <ele>941.613</ele>
        <time>2019-03-02T02:02:18Z</time>
      </trkpt>
      <trkpt lat="40.637880" lon="-5.739713">
        <ele>942.508</ele>
        <time>2019-03-02T02:02:32Z</time>
      </trkpt>
      <trkpt lat="40.638274" lon="-5.739726">
        <ele>943.719</ele>
        <time>2019-03-02T02:02:46Z</time>
      </trkpt>
      <trkpt lat="40.638298" lon="-5.739734">
        <ele>943.770</ele>
        <time>2019-03-02T02:02:47Z</time>
      </trkpt>
      <trkpt lat="40.638319" lon="-5.739750">
        <ele>943.831</ele>
        <time>2019-03-02T02:02:48Z</time>
      </trkpt>
      <trkpt lat="40.638341" lon="-5.739764">
        <ele>943.960</ele>
        <time>2019-03-02T02:02:49Z</time>
      </trkpt>
      <trkpt lat="40.638365" lon="-5.739766">
        <ele>944.114</ele>
        <time>2019-03-02T02:02:50Z</time>
      </trkpt>
      <trkpt lat="40.638390" lon="-5.739756">
        <ele>944.167</ele>
        <time>2019-03-02T02:02:51Z</time>
      </trkpt>
      <trkpt lat="40.638412" lon="-5.739737">
        <ele>944.226</ele>
        <time>2019-03-02T02:02:52Z</time>
      </trkpt>
      <trkpt lat="40.638428" lon="-5.739709">
        <ele>944.335</ele>
        <time>2019-03-02T02:02:53Z</time>
      </trkpt>
      <trkpt lat="40.638440" lon="-5.739679">
        <ele>944.318</ele>
        <time>2019-03-02T02:02:54Z</time>
      </trkpt>
      <trkpt lat="40.638453" lon="-5.739649">
        <ele>944.498</ele>
        <time>2019-03-02T02:02:55Z</time>
      </trkpt>
      <trkpt lat="40.638468" lon="-5.739624">
        <ele>944.517</ele>
        <time>2019-03-02T02:02:56Z</time>
      </trkpt>
      <trkpt lat="40.638483" lon="-5.739606">
        <ele>944.508</ele>
        <time>2019-03-02T02:02:57Z</time>
      </trkpt>
      <trkpt lat="40.638498" lon="-5.739596">
        <ele>944.534</ele>
        <time>2019-03-02T02:02:58Z</time>
      </trkpt>
      <trkpt lat="40.638514" lon="-5.739592">
        <ele>944.675</ele>
        <time>2019-03-02T02:02:59Z</time>
      </trkpt>
      <trkpt lat="40.638530" lon="-5.739596">
        <ele>944.696</ele>
        <time>2019-03-02T02:03:00Z</time>
      </trkpt>
      <trkpt lat="40.638544" lon="-5.739604">
        <ele>944.735</ele>
        <time>2019-03-02T02:03:01Z</time>
      </trkpt>
      <trkpt lat="40.638547" lon="-5.739608">
        <ele>944.779</ele>
        <time>2019-03-02T02:03:06Z</time>
      </trkpt>
      <trkpt lat="40.638592" lon="-5.739588">
        <ele>944.862</ele>
        <time>2019-03-02T02:03:31Z</time>
      </trkpt>
      <trkpt lat="40.638875" lon="-5.739553">
        <ele>945.451</ele>
        <time>2019-03-02T02:03:45Z</time>
      </trkpt>
      <trkpt lat="40.639456" lon="-5.739521">
        <ele>946.390</ele>
        <time>2019-03-02T02:04:03Z</time>
      </trkpt>
      <trkpt lat="40.639845" lon="-5.739553">
        <ele>947.361</ele>
        <time>2019-03-02T02:04:16Z</time>
      </trkpt>
      <trkpt lat="40.640403" lon="-5.739648">
        <ele>948.421</ele>
        <time>2019-03-02T02:04:35Z</time>
      </trkpt>
      <trkpt lat="40.640805" lon="-5.739679">
        <ele>948.113</ele>
        <time>2019-03-02T02:04:47Z</time>
      </trkpt>
      <trkpt lat="40.641220" lon="-5.739736">
        <ele>946.708</ele>
        <time>2019-03-02T02:04:59Z</time>
      </trkpt>
      <trkpt lat="40.641579" lon="-5.739905">
        <ele>945.799</ele>
        <time>2019-03-02T02:05:12Z</time>
      </trkpt>
      <trkpt lat="40.642078" lon="-5.740053">
        <ele>944.190</ele>
        <time>2019-03-02T02:05:24Z</time>
      </trkpt>
      <trkpt lat="40.642267" lon="-5.740046">
        <ele>943.441</ele>
        <time>2019-03-02T02:05:28Z</time>
      </trkpt>
      <trkpt lat="40.642315" lon="-5.740057">
        <ele>943.260</ele>
        <time>2019-03-02T02:05:29Z</time>
      </trkpt>
      <trkpt lat="40.642364" lon="-5.740069">
        <ele>943.024</ele>
        <time>2019-03-02T02:05:30Z</time>
      </trkpt>
      <trkpt lat="40.642697" lon="-5.740070">
        <ele>941.697</ele>
        <time>2019-03-02T02:05:36Z</time>
      </trkpt>
      <trkpt lat="40.642750" lon="-5.740064">
        <ele>941.486</ele>
        <time>2019-03-02T02:05:37Z</time>
      </trkpt>
      <trkpt lat="40.642960" lon="-5.740072">
        <ele>940.845</ele>
        <time>2019-03-02T02:05:41Z</time>
      </trkpt>
      <trkpt lat="40.643070" lon="-5.740075">
        <ele>940.692</ele>
        <time>2019-03-02T02:05:43Z</time>
      </trkpt>
      <trkpt lat="40.643118" lon="-5.740087">
        <ele>940.573</ele>
        <time>2019-03-02T02:05:44Z</time>
      </trkpt>
      <trkpt lat="40.643163" lon="-5.740106">
        <ele>940.520</ele>
        <time>2019-03-02T02:05:45Z</time>
      </trkpt>
      <trkpt lat="40.643494" lon="-5.740187">
        <ele>941.308</ele>
        <time>2019-03-02T02:05:56Z</time>
      </trkpt>
      <trkpt lat="40.643769" lon="-5.740140">
        <ele>943.422</ele>
        <time>2019-03-02T02:06:12Z</time>
      </trkpt>
      <trkpt lat="40.643877" lon="-5.740106">
        <ele>944.433</ele>
        <time>2019-03-02T02:06:19Z</time>
      </trkpt>
      <trkpt lat="40.643935" lon="-5.740110">
        <ele>945.034</ele>
        <time>2019-03-02T02:06:23Z</time>
      </trkpt>
      <trkpt lat="40.643947" lon="-5.740102">
        <ele>945.153</ele>
        <time>2019-03-02T02:06:24Z</time>
      </trkpt>
      <trkpt lat="40.643960" lon="-5.740094">
        <ele>945.247</ele>
        <time>2019-03-02T02:06:25Z</time>
      </trkpt>
      <trkpt lat="40.643975" lon="-5.740089">
        <ele>945.450</ele>
        <time>2019-03-02T02:06:26Z</time>
      </trkpt>
      <trkpt lat="40.643990" lon="-5.740084">
        <ele>945.559</ele>
        <time>2019-03-02T02:06:27Z</time>
      </trkpt>
      <trkpt lat="40.644005" lon="-5.740078">
        <ele>945.658</ele>
        <time>2019-03-02T02:06:28Z</time>
      </trkpt>
      <trkpt lat="40.644210" lon="-5.740066">
        <ele>947.474</ele>
        <time>2019-03-02T02:06:41Z</time>
      </trkpt>
      <trkpt lat="40.644373" lon="-5.740109">
        <ele>948.656</ele>
        <time>2019-03-02T02:06:54Z</time>
      </trkpt>
      <trkpt lat="40.644409" lon="-5.740115">
        <ele>948.921</ele>
        <time>2019-03-02T02:07:26Z</time>
      </trkpt>
      <trkpt lat="40.644751" lon="-5.740090">
        <ele>951.208</ele>
        <time>2019-03-02T02:07:43Z</time>
      </trkpt>
      <trkpt lat="40.645040" lon="-5.740035">
        <ele>953.380</ele>
        <time>2019-03-02T02:08:00Z</time>
      </trkpt>
      <trkpt lat="40.645285" lon="-5.740006">
        <ele>954.951</ele>
        <time>2019-03-02T02:08:14Z</time>
      </trkpt>
      <trkpt lat="40.645585" lon="-5.739908">
        <ele>956.852</ele>
        <time>2019-03-02T02:08:29Z</time>
      </trkpt>
      <trkpt lat="40.645899" lon="-5.739802">
        <ele>958.511</ele>
        <time>2019-03-02T02:08:44Z</time>
      </trkpt>
      <trkpt lat="40.646326" lon="-5.739737">
        <ele>960.055</ele>
        <time>2019-03-02T02:09:01Z</time>
      </trkpt>
      <trkpt lat="40.646799" lon="-5.739685">
        <ele>961.398</ele>
        <time>2019-03-02T02:09:18Z</time>
      </trkpt>
      <trkpt lat="40.646895" lon="-5.739592">
        <ele>961.617</ele>
        <time>2019-03-02T02:09:26Z</time>
      </trkpt>
      <trkpt lat="40.646964" lon="-5.739624">
        <ele>961.776</ele>
        <time>2019-03-02T02:10:04Z</time>
      </trkpt>
      <trkpt lat="40.647410" lon="-5.739600">
        <ele>962.543</ele>
        <time>2019-03-02T02:10:20Z</time>
      </trkpt>
      <trkpt lat="40.647694" lon="-5.739600">
        <ele>962.964</ele>
        <time>2019-03-02T02:10:30Z</time>
      </trkpt>
      <trkpt lat="40.647704" lon="-5.739614">
        <ele>962.910</ele>
        <time>2019-03-02T02:10:31Z</time>
      </trkpt>
      <trkpt lat="40.647708" lon="-5.739637">
        <ele>962.908</ele>
        <time>2019-03-02T02:10:32Z</time>
      </trkpt>
      <trkpt lat="40.647707" lon="-5.739662">
        <ele>963.037</ele>
        <time>2019-03-02T02:10:33Z</time>
      </trkpt>
      <trkpt lat="40.647707" lon="-5.739690">
        <ele>963.068</ele>
        <time>2019-03-02T02:10:34Z</time>
      </trkpt>
      <trkpt lat="40.647709" lon="-5.739718">
        <ele>963.079</ele>
        <time>2019-03-02T02:10:35Z</time>
      </trkpt>
      <trkpt lat="40.647717" lon="-5.739743">
        <ele>963.028</ele>
        <time>2019-03-02T02:10:36Z</time>
      </trkpt>
      <trkpt lat="40.647730" lon="-5.739760">
        <ele>963.012</ele>
        <time>2019-03-02T02:10:37Z</time>
      </trkpt>
      <trkpt lat="40.647745" lon="-5.739771">
        <ele>963.025</ele>
        <time>2019-03-02T02:10:38Z</time>
      </trkpt>
      <trkpt lat="40.647760" lon="-5.739778">
        <ele>963.174</ele>
        <time>2019-03-02T02:10:39Z</time>
      </trkpt>
      <trkpt lat="40.647778" lon="-5.739784">
        <ele>963.123</ele>
        <time>2019-03-02T02:10:40Z</time>
      </trkpt>
      <trkpt lat="40.647797" lon="-5.739792">
        <ele>963.155</ele>
        <time>2019-03-02T02:10:41Z</time>
      </trkpt>
      <trkpt lat="40.647815" lon="-5.739798">
        <ele>963.107</ele>
        <time>2019-03-02T02:10:42Z</time>
      </trkpt>
      <trkpt lat="40.647832" lon="-5.739803">
        <ele>963.117</ele>
        <time>2019-03-02T02:10:43Z</time>
      </trkpt>
      <trkpt lat="40.648169" lon="-5.739744">
        <ele>963.208</ele>
        <time>2019-03-02T02:10:55Z</time>
      </trkpt>
      <trkpt lat="40.648683" lon="-5.739639">
        <ele>962.998</ele>
        <time>2019-03-02T02:11:08Z</time>
      </trkpt>
      <trkpt lat="40.649302" lon="-5.739524">
        <ele>962.819</ele>
        <time>2019-03-02T02:11:22Z</time>
      </trkpt>
      <trkpt lat="40.649943" lon="-5.739404">
        <ele>963.820</ele>
        <time>2019-03-02T02:11:38Z</time>
      </trkpt>
      <trkpt lat="40.650463" lon="-5.739320">
        <ele>964.919</ele>
        <time>2019-03-02T02:11:54Z</time>
      </trkpt>
      <trkpt lat="40.651110" lon="-5.739189">
        <ele>966.583</ele>
        <time>2019-03-02T02:12:14Z</time>
      </trkpt>
      <trkpt lat="40.651735" lon="-5.739069">
        <ele>967.486</ele>
        <time>2019-03-02T02:12:30Z</time>
      </trkpt>
      <trkpt lat="40.652326" lon="-5.738979">
        <ele>968.365</ele>
        <time>2019-03-02T02:12:45Z</time>
      </trkpt>
      <trkpt lat="40.652892" lon="-5.738914">
        <ele>969.654</ele>
        <time>2019-03-02T02:13:03Z</time>
      </trkpt>
      <trkpt lat="40.653214" lon="-5.738750">
        <ele>972.924</ele>
        <time>2019-03-02T02:13:16Z</time>
      </trkpt>
      <trkpt lat="40.653648" lon="-5.738649">
        <ele>975.304</ele>
        <time>2019-03-02T02:13:32Z</time>
      </trkpt>
      <trkpt lat="40.654142" lon="-5.738694">
        <ele>978.514</ele>
        <time>2019-03-02T02:13:50Z</time>
      </trkpt>
      <trkpt lat="40.654600" lon="-5.738648">
        <ele>981.108</ele>
        <time>2019-03-02T02:14:08Z</time>
      </trkpt>
      <trkpt lat="40.655016" lon="-5.738642">
        <ele>982.625</ele>
        <time>2019-03-02T02:14:26Z</time>
      </trkpt>
      <trkpt lat="40.655442" lon="-5.738633">
        <ele>986.586</ele>
        <time>2019-03-02T02:14:44Z</time>
      </trkpt>
      <trkpt lat="40.655897" lon="-5.738638">
        <ele>990.727</ele>
        <time>2019-03-02T02:15:04Z</time>
      </trkpt>
      <trkpt lat="40.656296" lon="-5.738653">
        <ele>993.516</ele>
        <time>2019-03-02T02:15:23Z</time>
      </trkpt>
      <trkpt lat="40.656533" lon="-5.738572">
        <ele>994.390</ele>
        <time>2019-03-02T02:15:35Z</time>
      </trkpt>
      <trkpt lat="40.656836" lon="-5.738462">
        <ele>996.133</ele>
        <time>2019-03-02T02:15:49Z</time>
      </trkpt>
      <trkpt lat="40.657195" lon="-5.738262">
        <ele>997.242</ele>
        <time>2019-03-02T02:16:03Z</time>
      </trkpt>
      <trkpt lat="40.657568" lon="-5.737905">
        <ele>997.591</ele>
        <time>2019-03-02T02:16:18Z</time>
      </trkpt>
      <trkpt lat="40.657919" lon="-5.737577">
        <ele>997.688</ele>
        <time>2019-03-02T02:16:31Z</time>
      </trkpt>
      <trkpt lat="40.658246" lon="-5.737494">
        <ele>996.924</ele>
        <time>2019-03-02T02:16:44Z</time>
      </trkpt>
      <trkpt lat="40.658409" lon="-5.737517">
        <ele>996.426</ele>
        <time>2019-03-02T02:16:48Z</time>
      </trkpt>
      <trkpt lat="40.658657" lon="-5.737591">
        <ele>995.508</ele>
        <time>2019-03-02T02:16:53Z</time>
      </trkpt>
      <trkpt lat="40.658714" lon="-5.737590">
        <ele>995.391</ele>
        <time>2019-03-02T02:16:54Z</time>
      </trkpt>
      <trkpt lat="40.658769" lon="-5.737581">
        <ele>995.142</ele>
        <time>2019-03-02T02:16:55Z</time>
      </trkpt>
      <trkpt lat="40.658822" lon="-5.737564">
        <ele>994.943</ele>
        <time>2019-03-02T02:16:56Z</time>
      </trkpt>
      <trkpt lat="40.658877" lon="-5.737544">
        <ele>994.772</ele>
        <time>2019-03-02T02:16:57Z</time>
      </trkpt>
      <trkpt lat="40.658933" lon="-5.737520">
        <ele>994.516</ele>
        <time>2019-03-02T02:16:58Z</time>
      </trkpt>
      <trkpt lat="40.658983" lon="-5.737490">
        <ele>994.319</ele>
        <time>2019-03-02T02:16:59Z</time>
      </trkpt>
      <trkpt lat="40.659031" lon="-5.737456">
        <ele>994.288</ele>
        <time>2019-03-02T02:17:00Z</time>
      </trkpt>
      <trkpt lat="40.659117" lon="-5.737393">
        <ele>993.937</ele>
        <time>2019-03-02T02:17:02Z</time>
      </trkpt>
      <trkpt lat="40.659536" lon="-5.737136">
        <ele>993.588</ele>
        <time>2019-03-02T02:17:14Z</time>
      </trkpt>
      <trkpt lat="40.659973" lon="-5.736859">
        <ele>993.824</ele>
        <time>2019-03-02T02:17:26Z</time>
      </trkpt>
      <trkpt lat="40.660179" lon="-5.736746">
        <ele>993.726</ele>
        <time>2019-03-02T02:17:31Z</time>
      </trkpt>
      <trkpt lat="40.660612" lon="-5.736314">
        <ele>993.408</ele>
        <time>2019-03-02T02:17:46Z</time>
      </trkpt>
      <trkpt lat="40.660879" lon="-5.736118">
        <ele>993.331</ele>
        <time>2019-03-02T02:17:58Z</time>
      </trkpt>
      <trkpt lat="40.661186" lon="-5.735888">
        <ele>992.472</ele>
        <time>2019-03-02T02:18:11Z</time>
      </trkpt>
      <trkpt lat="40.661566" lon="-5.735779">
        <ele>990.233</ele>
        <time>2019-03-02T02:18:25Z</time>
      </trkpt>
      <trkpt lat="40.661642" lon="-5.735793">
        <ele>989.842</ele>
        <time>2019-03-02T02:18:27Z</time>
      </trkpt>
      <trkpt lat="40.661685" lon="-5.735801">
        <ele>989.576</ele>
        <time>2019-03-02T02:18:28Z</time>
      </trkpt>
      <trkpt lat="40.661733" lon="-5.735794">
        <ele>989.359</ele>
        <time>2019-03-02T02:18:29Z</time>
      </trkpt>
      <trkpt lat="40.662103" lon="-5.735727">
        <ele>987.798</ele>
        <time>2019-03-02T02:18:36Z</time>
      </trkpt>
      <trkpt lat="40.662201" lon="-5.735724">
        <ele>987.357</ele>
        <time>2019-03-02T02:18:38Z</time>
      </trkpt>
      <trkpt lat="40.662247" lon="-5.735731">
        <ele>987.059</ele>
        <time>2019-03-02T02:18:39Z</time>
      </trkpt>
      <trkpt lat="40.662293" lon="-5.735737">
        <ele>986.803</ele>
        <time>2019-03-02T02:18:40Z</time>
      </trkpt>
      <trkpt lat="40.662740" lon="-5.735850">
        <ele>983.023</ele>
        <time>2019-03-02T02:18:52Z</time>
      </trkpt>
      <trkpt lat="40.662866" lon="-5.735948">
        <ele>981.808</ele>
        <time>2019-03-02T02:19:01Z</time>
      </trkpt>
      <trkpt lat="40.662899" lon="-5.735987">
        <ele>981.718</ele>
        <time>2019-03-02T02:19:08Z</time>
      </trkpt>
      <trkpt lat="40.662904" lon="-5.736039">
        <ele>981.539</ele>
        <time>2019-03-02T02:19:15Z</time>
      </trkpt>
      <trkpt lat="40.662990" lon="-5.736002">
        <ele>981.240</ele>
        <time>2019-03-02T02:19:40Z</time>
      </trkpt>
      <trkpt lat="40.663278" lon="-5.736062">
        <ele>980.159</ele>
        <time>2019-03-02T02:19:51Z</time>
      </trkpt>
      <trkpt lat="40.663455" lon="-5.736118">
        <ele>979.613</ele>
        <time>2019-03-02T02:19:56Z</time>
      </trkpt>
      <trkpt lat="40.663630" lon="-5.736186">
        <ele>979.016</ele>
        <time>2019-03-02T02:20:00Z</time>
      </trkpt>
      <trkpt lat="40.663676" lon="-5.736194">
        <ele>978.955</ele>
        <time>2019-03-02T02:20:01Z</time>
      </trkpt>
      <trkpt lat="40.663772" lon="-5.736203">
        <ele>978.684</ele>
        <time>2019-03-02T02:20:03Z</time>
      </trkpt>
      <trkpt lat="40.663951" lon="-5.736187">
        <ele>977.938</ele>
        <time>2019-03-02T02:20:07Z</time>
      </trkpt>
      <trkpt lat="40.663988" lon="-5.736190">
        <ele>977.770</ele>
        <time>2019-03-02T02:20:08Z</time>
      </trkpt>
      <trkpt lat="40.664313" lon="-5.736313">
        <ele>975.517</ele>
        <time>2019-03-02T02:20:16Z</time>
      </trkpt>
      <trkpt lat="40.664550" lon="-5.736385">
        <ele>973.508</ele>
        <time>2019-03-02T02:20:27Z</time>
      </trkpt>
      <trkpt lat="40.664619" lon="-5.736403">
        <ele>973.146</ele>
        <time>2019-03-02T02:20:51Z</time>
      </trkpt>
      <trkpt lat="40.664818" lon="-5.736449">
        <ele>972.287</ele>
        <time>2019-03-02T02:21:01Z</time>
      </trkpt>
      <trkpt lat="40.664912" lon="-5.736445">
        <ele>971.958</ele>
        <time>2019-03-02T02:21:07Z</time>
      </trkpt>
      <trkpt lat="40.664924" lon="-5.736447">
        <ele>972.137</ele>
        <time>2019-03-02T02:21:08Z</time>
      </trkpt>
      <trkpt lat="40.664961" lon="-5.736463">
        <ele>972.791</ele>
        <time>2019-03-02T02:21:11Z</time>
      </trkpt>
      <trkpt lat="40.664976" lon="-5.736477">
        <ele>973.034</ele>
        <time>2019-03-02T02:21:17Z</time>
      </trkpt>
      <trkpt lat="40.665323" lon="-5.736887">
        <ele>979.583</ele>
        <time>2019-03-02T02:22:20Z</time>
      </trkpt>
      <trkpt lat="40.665390" lon="-5.736890">
        <ele>980.262</ele>
        <time>2019-03-02T02:22:30Z</time>
      </trkpt>
      <trkpt lat="40.665637" lon="-5.737019">
        <ele>982.982</ele>
        <time>2019-03-02T02:23:17Z</time>
      </trkpt>
      <trkpt lat="40.665654" lon="-5.737069">
        <ele>983.343</ele>
        <time>2019-03-02T02:23:21Z</time>
      </trkpt>
      <trkpt lat="40.665684" lon="-5.737108">
        <ele>983.817</ele>
        <time>2019-03-02T02:23:28Z</time>
      </trkpt>
      <trkpt lat="40.665724" lon="-5.737135">
        <ele>984.308</ele>
        <time>2019-03-02T02:23:32Z</time>
      </trkpt>
      <trkpt lat="40.665734" lon="-5.737146">
        <ele>984.531</ele>
        <time>2019-03-02T02:23:33Z</time>
      </trkpt>
      <trkpt lat="40.665747" lon="-5.737157">
        <ele>984.782</ele>
        <time>2019-03-02T02:23:34Z</time>
      </trkpt>
      <trkpt lat="40.665761" lon="-5.737166">
        <ele>984.813</ele>
        <time>2019-03-02T02:23:35Z</time>
      </trkpt>
      <trkpt lat="40.665775" lon="-5.737170">
        <ele>985.082</ele>
        <time>2019-03-02T02:23:36Z</time>
      </trkpt>
      <trkpt lat="40.665787" lon="-5.737174">
        <ele>985.186</ele>
        <time>2019-03-02T02:23:37Z</time>
      </trkpt>
      <trkpt lat="40.665857" lon="-5.737201">
        <ele>985.929</ele>
        <time>2019-03-02T02:23:43Z</time>
      </trkpt>
      <trkpt lat="40.665884" lon="-5.737208">
        <ele>986.228</ele>
        <time>2019-03-02T02:23:45Z</time>
      </trkpt>
      <trkpt lat="40.665893" lon="-5.737219">
        <ele>986.387</ele>
        <time>2019-03-02T02:23:46Z</time>
      </trkpt>
      <trkpt lat="40.665901" lon="-5.737229">
        <ele>986.447</ele>
        <time>2019-03-02T02:23:47Z</time>
      </trkpt>
      <trkpt lat="40.665968" lon="-5.737305">
        <ele>987.129</ele>
        <time>2019-03-02T02:23:54Z</time>
      </trkpt>
      <trkpt lat="40.665979" lon="-5.737315">
        <ele>987.221</ele>
        <time>2019-03-02T02:23:55Z</time>
      </trkpt>
      <trkpt lat="40.666000" lon="-5.737327">
        <ele>987.408</ele>
        <time>2019-03-02T02:23:57Z</time>
      </trkpt>
      <trkpt lat="40.666012" lon="-5.737333">
        <ele>987.547</ele>
        <time>2019-03-02T02:23:58Z</time>
      </trkpt>
      <trkpt lat="40.666023" lon="-5.737341">
        <ele>987.798</ele>
        <time>2019-03-02T02:23:59Z</time>
      </trkpt>
      <trkpt lat="40.666188" lon="-5.737470">
        <ele>988.859</ele>
        <time>2019-03-02T02:24:12Z</time>
      </trkpt>
      <trkpt lat="40.666200" lon="-5.737481">
        <ele>988.928</ele>
        <time>2019-03-02T02:24:13Z</time>
      </trkpt>
      <trkpt lat="40.666211" lon="-5.737495">
        <ele>989.022</ele>
        <time>2019-03-02T02:24:14Z</time>
      </trkpt>
      <trkpt lat="40.666270" lon="-5.737576">
        <ele>989.885</ele>
        <time>2019-03-02T02:24:20Z</time>
      </trkpt>
      <trkpt lat="40.666285" lon="-5.737617">
        <ele>990.184</ele>
        <time>2019-03-02T02:24:23Z</time>
      </trkpt>
      <trkpt lat="40.666293" lon="-5.737628">
        <ele>990.263</ele>
        <time>2019-03-02T02:24:24Z</time>
      </trkpt>
      <trkpt lat="40.666312" lon="-5.737653">
        <ele>990.462</ele>
        <time>2019-03-02T02:24:26Z</time>
      </trkpt>
      <trkpt lat="40.666455" lon="-5.737802">
        <ele>991.483</ele>
        <time>2019-03-02T02:24:39Z</time>
      </trkpt>
      <trkpt lat="40.666486" lon="-5.737843">
        <ele>991.711</ele>
        <time>2019-03-02T02:24:42Z</time>
      </trkpt>
      <trkpt lat="40.666498" lon="-5.737854">
        <ele>991.708</ele>
        <time>2019-03-02T02:24:43Z</time>
      </trkpt>
      <trkpt lat="40.666510" lon="-5.737863">
        <ele>991.899</ele>
        <time>2019-03-02T02:24:44Z</time>
      </trkpt>
      <trkpt lat="40.666523" lon="-5.737872">
        <ele>991.960</ele>
        <time>2019-03-02T02:24:45Z</time>
      </trkpt>
      <trkpt lat="40.666536" lon="-5.737881">
        <ele>992.041</ele>
        <time>2019-03-02T02:24:46Z</time>
      </trkpt>
      <trkpt lat="40.666549" lon="-5.737892">
        <ele>992.080</ele>
        <time>2019-03-02T02:24:47Z</time>
      </trkpt>
      <trkpt lat="40.666562" lon="-5.737905">
        <ele>992.124</ele>
        <time>2019-03-02T02:24:48Z</time>
      </trkpt>
      <trkpt lat="40.666574" lon="-5.737915">
        <ele>992.177</ele>
        <time>2019-03-02T02:24:49Z</time>
      </trkpt>
      <trkpt lat="40.666587" lon="-5.737924">
        <ele>992.226</ele>
        <time>2019-03-02T02:24:50Z</time>
      </trkpt>
      <trkpt lat="40.666601" lon="-5.737934">
        <ele>992.215</ele>
        <time>2019-03-02T02:24:51Z</time>
      </trkpt>
      <trkpt lat="40.666612" lon="-5.737950">
        <ele>992.323</ele>
        <time>2019-03-02T02:24:52Z</time>
      </trkpt>
      <trkpt lat="40.666623" lon="-5.737969">
        <ele>992.483</ele>
        <time>2019-03-02T02:24:53Z</time>
      </trkpt>
      <trkpt lat="40.666878" lon="-5.738242">
        <ele>993.511</ele>
        <time>2019-03-02T02:25:06Z</time>
      </trkpt>
      <trkpt lat="40.667016" lon="-5.738394">
        <ele>994.008</ele>
        <time>2019-03-02T02:25:14Z</time>
      </trkpt>
      <trkpt lat="40.667023" lon="-5.738426">
        <ele>994.155</ele>
        <time>2019-03-02T02:25:15Z</time>
      </trkpt>
      <trkpt lat="40.667034" lon="-5.738452">
        <ele>994.146</ele>
        <time>2019-03-02T02:25:16Z</time>
      </trkpt>
      <trkpt lat="40.667049" lon="-5.738474">
        <ele>994.287</ele>
        <time>2019-03-02T02:25:17Z</time>
      </trkpt>
      <trkpt lat="40.667066" lon="-5.738494">
        <ele>994.366</ele>
        <time>2019-03-02T02:25:18Z</time>
      </trkpt>
      <trkpt lat="40.667215" lon="-5.738641">
        <ele>994.970</ele>
        <time>2019-03-02T02:25:27Z</time>
      </trkpt>
      <trkpt lat="40.667226" lon="-5.738658">
        <ele>994.923</ele>
        <time>2019-03-02T02:25:28Z</time>
      </trkpt>
      <trkpt lat="40.667241" lon="-5.738671">
        <ele>995.022</ele>
        <time>2019-03-02T02:25:29Z</time>
      </trkpt>
      <trkpt lat="40.667300" lon="-5.738721">
        <ele>995.381</ele>
        <time>2019-03-02T02:25:34Z</time>
      </trkpt>
      <trkpt lat="40.667310" lon="-5.738733">
        <ele>995.381</ele>
        <time>2019-03-02T02:25:39Z</time>
      </trkpt>
      <trkpt lat="40.667395" lon="-5.738787">
        <ele>995.861</ele>
        <time>2019-03-02T02:25:49Z</time>
      </trkpt>
      <trkpt lat="40.667427" lon="-5.738813">
        <ele>995.917</ele>
        <time>2019-03-02T02:25:51Z</time>
      </trkpt>
      <trkpt lat="40.667497" lon="-5.738841">
        <ele>996.308</ele>
        <time>2019-03-02T02:25:55Z</time>
      </trkpt>
      <trkpt lat="40.667626" lon="-5.738976">
        <ele>997.171</ele>
        <time>2019-03-02T02:26:06Z</time>
      </trkpt>
      <trkpt lat="40.667753" lon="-5.739153">
        <ele>998.332</ele>
        <time>2019-03-02T02:26:19Z</time>
      </trkpt>
      <trkpt lat="40.667833" lon="-5.739267">
        <ele>999.193</ele>
        <time>2019-03-02T02:26:26Z</time>
      </trkpt>
      <trkpt lat="40.667844" lon="-5.739283">
        <ele>999.282</ele>
        <time>2019-03-02T02:26:27Z</time>
      </trkpt>
      <trkpt lat="40.667855" lon="-5.739300">
        <ele>999.366</ele>
        <time>2019-03-02T02:26:28Z</time>
      </trkpt>
      <trkpt lat="40.667866" lon="-5.739314">
        <ele>999.419</ele>
        <time>2019-03-02T02:26:29Z</time>
      </trkpt>
      <trkpt lat="40.667878" lon="-5.739327">
        <ele>999.548</ele>
        <time>2019-03-02T02:26:30Z</time>
      </trkpt>
      <trkpt lat="40.667891" lon="-5.739343">
        <ele>999.637</ele>
        <time>2019-03-02T02:26:31Z</time>
      </trkpt>
      <trkpt lat="40.667901" lon="-5.739357">
        <ele>999.731</ele>
        <time>2019-03-02T02:26:32Z</time>
      </trkpt>
      <trkpt lat="40.667911" lon="-5.739371">
        <ele>999.761</ele>
        <time>2019-03-02T02:26:33Z</time>
      </trkpt>
      <trkpt lat="40.667921" lon="-5.739386">
        <ele>999.807</ele>
        <time>2019-03-02T02:26:34Z</time>
      </trkpt>
      <trkpt lat="40.667930" lon="-5.739401">
        <ele>999.908</ele>
        <time>2019-03-02T02:26:35Z</time>
      </trkpt>
      <trkpt lat="40.667984" lon="-5.739492">
        <ele>1000.446</ele>
        <time>2019-03-02T02:26:41Z</time>
      </trkpt>
      <trkpt lat="40.667990" lon="-5.739514">
        <ele>1000.587</ele>
        <time>2019-03-02T02:26:42Z</time>
      </trkpt>
      <trkpt lat="40.667994" lon="-5.739535">
        <ele>1000.658</ele>
        <time>2019-03-02T02:26:43Z</time>
      </trkpt>
      <trkpt lat="40.667996" lon="-5.739551">
        <ele>1000.657</ele>
        <time>2019-03-02T02:26:44Z</time>
      </trkpt>
      <trkpt lat="40.668003" lon="-5.739564">
        <ele>1000.731</ele>
        <time>2019-03-02T02:26:45Z</time>
      </trkpt>
      <trkpt lat="40.668012" lon="-5.739577">
        <ele>1000.834</ele>
        <time>2019-03-02T02:26:46Z</time>
      </trkpt>
      <trkpt lat="40.668022" lon="-5.739591">
        <ele>1000.883</ele>
        <time>2019-03-02T02:26:47Z</time>
      </trkpt>
      <trkpt lat="40.668033" lon="-5.739607">
        <ele>1000.972</ele>
        <time>2019-03-02T02:26:48Z</time>
      </trkpt>
      <trkpt lat="40.668043" lon="-5.739624">
        <ele>1001.022</ele>
        <time>2019-03-02T02:26:49Z</time>
      </trkpt>
      <trkpt lat="40.668054" lon="-5.739639">
        <ele>1001.162</ele>
        <time>2019-03-02T02:26:50Z</time>
      </trkpt>
      <trkpt lat="40.668182" lon="-5.739853">
        <ele>1002.608</ele>
        <time>2019-03-02T02:27:03Z</time>
      </trkpt>
      <trkpt lat="40.668302" lon="-5.740060">
        <ele>1004.108</ele>
        <time>2019-03-02T02:27:17Z</time>
      </trkpt>
      <trkpt lat="40.668311" lon="-5.740069">
        <ele>1004.285</ele>
        <time>2019-03-02T02:27:18Z</time>
      </trkpt>
      <trkpt lat="40.668320" lon="-5.740082">
        <ele>1004.366</ele>
        <time>2019-03-02T02:27:19Z</time>
      </trkpt>
      <trkpt lat="40.668337" lon="-5.740106">
        <ele>1004.427</ele>
        <time>2019-03-02T02:27:21Z</time>
      </trkpt>
      <trkpt lat="40.668350" lon="-5.740114">
        <ele>1004.596</ele>
        <time>2019-03-02T02:27:22Z</time>
      </trkpt>
      <trkpt lat="40.668361" lon="-5.740123">
        <ele>1004.610</ele>
        <time>2019-03-02T02:27:23Z</time>
      </trkpt>
      <trkpt lat="40.668370" lon="-5.740134">
        <ele>1004.713</ele>
        <time>2019-03-02T02:27:24Z</time>
      </trkpt>
      <trkpt lat="40.668376" lon="-5.740148">
        <ele>1004.722</ele>
        <time>2019-03-02T02:27:25Z</time>
      </trkpt>
      <trkpt lat="40.668383" lon="-5.740163">
        <ele>1004.841</ele>
        <time>2019-03-02T02:27:26Z</time>
      </trkpt>
      <trkpt lat="40.668391" lon="-5.740181">
        <ele>1004.996</ele>
        <time>2019-03-02T02:27:27Z</time>
      </trkpt>
      <trkpt lat="40.668410" lon="-5.740220">
        <ele>1005.131</ele>
        <time>2019-03-02T02:27:30Z</time>
      </trkpt>
      <trkpt lat="40.668419" lon="-5.740230">
        <ele>1005.224</ele>
        <time>2019-03-02T02:27:31Z</time>
      </trkpt>
      <trkpt lat="40.668428" lon="-5.740242">
        <ele>1005.308</ele>
        <time>2019-03-02T02:27:32Z</time>
      </trkpt>
      <trkpt lat="40.668437" lon="-5.740253">
        <ele>1005.352</ele>
        <time>2019-03-02T02:27:33Z</time>
      </trkpt>
      <trkpt lat="40.668480" lon="-5.740304">
        <ele>1005.763</ele>
        <time>2019-03-02T02:27:41Z</time>
      </trkpt>
      <trkpt lat="40.668522" lon="-5.740366">
        <ele>1006.294</ele>
        <time>2019-03-02T02:28:00Z</time>
      </trkpt>
      <trkpt lat="40.668528" lon="-5.740382">
        <ele>1006.343</ele>
        <time>2019-03-02T02:28:01Z</time>
      </trkpt>
      <trkpt lat="40.668537" lon="-5.740400">
        <ele>1006.437</ele>
        <time>2019-03-02T02:28:02Z</time>
      </trkpt>
      <trkpt lat="40.668545" lon="-5.740420">
        <ele>1006.520</ele>
        <time>2019-03-02T02:28:03Z</time>
      </trkpt>
      <trkpt lat="40.668553" lon="-5.740440">
        <ele>1006.639</ele>
        <time>2019-03-02T02:28:04Z</time>
      </trkpt>
      <trkpt lat="40.668560" lon="-5.740460">
        <ele>1006.788</ele>
        <time>2019-03-02T02:28:05Z</time>
      </trkpt>
      <trkpt lat="40.668565" lon="-5.740481">
        <ele>1006.844</ele>
        <time>2019-03-02T02:28:06Z</time>
      </trkpt>
      <trkpt lat="40.668572" lon="-5.740501">
        <ele>1006.905</ele>
        <time>2019-03-02T02:28:07Z</time>
      </trkpt>
      <trkpt lat="40.668603" lon="-5.740587">
        <ele>1007.315</ele>
        <time>2019-03-02T02:28:13Z</time>
      </trkpt>
      <trkpt lat="40.668607" lon="-5.740602">
        <ele>1007.408</ele>
        <time>2019-03-02T02:28:14Z</time>
      </trkpt>
      <trkpt lat="40.668611" lon="-5.740616">
        <ele>1007.437</ele>
        <time>2019-03-02T02:28:15Z</time>
      </trkpt>
      <trkpt lat="40.668615" lon="-5.740630">
        <ele>1007.578</ele>
        <time>2019-03-02T02:28:16Z</time>
      </trkpt>
      <trkpt lat="40.668624" lon="-5.740640">
        <ele>1007.619</ele>
        <time>2019-03-02T02:28:17Z</time>
      </trkpt>
      <trkpt lat="40.668638" lon="-5.740647">
        <ele>1007.728</ele>
        <time>2019-03-02T02:28:18Z</time>
      </trkpt>
      <trkpt lat="40.668668" lon="-5.740660">
        <ele>1007.912</ele>
        <time>2019-03-02T02:28:20Z</time>
      </trkpt>
      <trkpt lat="40.668682" lon="-5.740672">
        <ele>1008.065</ele>
        <time>2019-03-02T02:28:21Z</time>
      </trkpt>
      <trkpt lat="40.668697" lon="-5.740680">
        <ele>1008.244</ele>
        <time>2019-03-02T02:28:22Z</time>
      </trkpt>
      <trkpt lat="40.668728" lon="-5.740699">
        <ele>1008.423</ele>
        <time>2019-03-02T02:28:24Z</time>
      </trkpt>
      <trkpt lat="40.668779" lon="-5.740754">
        <ele>1008.822</ele>
        <time>2019-03-02T02:28:28Z</time>
      </trkpt>
      <trkpt lat="40.668884" lon="-5.740890">
        <ele>1009.862</ele>
        <time>2019-03-02T02:28:39Z</time>
      </trkpt>
      <trkpt lat="40.668890" lon="-5.740905">
        <ele>1009.908</ele>
        <time>2019-03-02T02:28:40Z</time>
      </trkpt>
      <trkpt lat="40.668897" lon="-5.740919">
        <ele>1010.008</ele>
        <time>2019-03-02T02:28:41Z</time>
      </trkpt>
      <trkpt lat="40.668924" lon="-5.740987">
        <ele>1010.545</ele>
        <time>2019-03-02T02:28:46Z</time>
      </trkpt>
      <trkpt lat="40.668923" lon="-5.741002">
        <ele>1010.686</ele>
        <time>2019-03-02T02:28:47Z</time>
      </trkpt>
      <trkpt lat="40.668921" lon="-5.741018">
        <ele>1010.737</ele>
        <time>2019-03-02T02:28:48Z</time>
      </trkpt>
      <trkpt lat="40.668921" lon="-5.741034">
        <ele>1010.816</ele>
        <time>2019-03-02T02:28:49Z</time>
      </trkpt>
      <trkpt lat="40.668923" lon="-5.741050">
        <ele>1010.910</ele>
        <time>2019-03-02T02:28:50Z</time>
      </trkpt>
      <trkpt lat="40.668929" lon="-5.741065">
        <ele>1011.073</ele>
        <time>2019-03-02T02:28:51Z</time>
      </trkpt>
      <trkpt lat="40.668932" lon="-5.741082">
        <ele>1011.122</ele>
        <time>2019-03-02T02:28:52Z</time>
      </trkpt>
      <trkpt lat="40.668945" lon="-5.741110">
        <ele>1011.271</ele>
        <time>2019-03-02T02:28:54Z</time>
      </trkpt>
      <trkpt lat="40.668953" lon="-5.741125">
        <ele>1011.463</ele>
        <time>2019-03-02T02:28:55Z</time>
      </trkpt>
      <trkpt lat="40.669006" lon="-5.741214">
        <ele>1012.144</ele>
        <time>2019-03-02T02:29:02Z</time>
      </trkpt>
      <trkpt lat="40.669016" lon="-5.741229">
        <ele>1012.218</ele>
        <time>2019-03-02T02:29:03Z</time>
      </trkpt>
      <trkpt lat="40.669115" lon="-5.741366">
        <ele>1013.408</ele>
        <time>2019-03-02T02:29:14Z</time>
      </trkpt>
      <trkpt lat="40.669212" lon="-5.741520">
        <ele>1015.099</ele>
        <time>2019-03-02T02:29:27Z</time>
      </trkpt>
      <trkpt lat="40.669222" lon="-5.741527">
        <ele>1015.210</ele>
        <time>2019-03-02T02:29:28Z</time>
      </trkpt>
      <trkpt lat="40.669231" lon="-5.741539">
        <ele>1015.361</ele>
        <time>2019-03-02T02:29:29Z</time>
      </trkpt>
      <trkpt lat="40.669326" lon="-5.741746">
        <ele>1017.310</ele>
        <time>2019-03-02T02:29:45Z</time>
      </trkpt>
      <trkpt lat="40.669466" lon="-5.741952">
        <ele>1019.744</ele>
        <time>2019-03-02T02:30:02Z</time>
      </trkpt>
      <trkpt lat="40.669503" lon="-5.742015">
        <ele>1020.467</ele>
        <time>2019-03-02T02:30:07Z</time>
      </trkpt>
      <trkpt lat="40.669513" lon="-5.742026">
        <ele>1020.576</ele>
        <time>2019-03-02T02:30:08Z</time>
      </trkpt>
      <trkpt lat="40.669525" lon="-5.742039">
        <ele>1020.715</ele>
        <time>2019-03-02T02:30:09Z</time>
      </trkpt>
      <trkpt lat="40.669536" lon="-5.742052">
        <ele>1020.936</ele>
        <time>2019-03-02T02:30:10Z</time>
      </trkpt>
      <trkpt lat="40.669547" lon="-5.742066">
        <ele>1021.117</ele>
        <time>2019-03-02T02:30:11Z</time>
      </trkpt>
      <trkpt lat="40.669692" lon="-5.742242">
        <ele>1023.318</ele>
        <time>2019-03-02T02:30:25Z</time>
      </trkpt>
      <trkpt lat="40.669698" lon="-5.742269">
        <ele>1023.508</ele>
        <time>2019-03-02T02:30:27Z</time>
      </trkpt>
      <trkpt lat="40.669705" lon="-5.742279">
        <ele>1023.686</ele>
        <time>2019-03-02T02:30:28Z</time>
      </trkpt>
      <trkpt lat="40.669711" lon="-5.742291">
        <ele>1023.767</ele>
        <time>2019-03-02T02:30:29Z</time>
      </trkpt>
      <trkpt lat="40.669714" lon="-5.742303">
        <ele>1023.898</ele>
        <time>2019-03-02T02:30:30Z</time>
      </trkpt>
      <trkpt lat="40.669719" lon="-5.742317">
        <ele>1023.927</ele>
        <time>2019-03-02T02:30:31Z</time>
      </trkpt>
      <trkpt lat="40.669725" lon="-5.742330">
        <ele>1024.031</ele>
        <time>2019-03-02T02:30:32Z</time>
      </trkpt>
      <trkpt lat="40.669730" lon="-5.742344">
        <ele>1024.224</ele>
        <time>2019-03-02T02:30:33Z</time>
      </trkpt>
      <trkpt lat="40.669734" lon="-5.742359">
        <ele>1024.453</ele>
        <time>2019-03-02T02:30:34Z</time>
      </trkpt>
      <trkpt lat="40.669739" lon="-5.742373">
        <ele>1024.622</ele>
        <time>2019-03-02T02:30:35Z</time>
      </trkpt>
      <trkpt lat="40.669745" lon="-5.742387">
        <ele>1024.838</ele>
        <time>2019-03-02T02:30:36Z</time>
      </trkpt>
      <trkpt lat="40.669751" lon="-5.742400">
        <ele>1024.970</ele>
        <time>2019-03-02T02:30:37Z</time>
      </trkpt>
      <trkpt lat="40.669874" lon="-5.742661">
        <ele>1027.917</ele>
        <time>2019-03-02T02:30:55Z</time>
      </trkpt>
      <trkpt lat="40.670005" lon="-5.742810">
        <ele>1030.508</ele>
        <time>2019-03-02T02:31:11Z</time>
      </trkpt>
      <trkpt lat="40.670126" lon="-5.743037">
        <ele>1032.996</ele>
        <time>2019-03-02T02:31:27Z</time>
      </trkpt>
      <trkpt lat="40.670239" lon="-5.743291">
        <ele>1035.227</ele>
        <time>2019-03-02T02:31:42Z</time>
      </trkpt>
      <trkpt lat="40.670243" lon="-5.743306">
        <ele>1035.418</ele>
        <time>2019-03-02T02:31:43Z</time>
      </trkpt>
      <trkpt lat="40.670250" lon="-5.743319">
        <ele>1035.537</ele>
        <time>2019-03-02T02:31:44Z</time>
      </trkpt>
      <trkpt lat="40.670258" lon="-5.743330">
        <ele>1035.671</ele>
        <time>2019-03-02T02:31:45Z</time>
      </trkpt>
      <trkpt lat="40.670267" lon="-5.743342">
        <ele>1035.794</ele>
        <time>2019-03-02T02:31:46Z</time>
      </trkpt>
      <trkpt lat="40.670276" lon="-5.743354">
        <ele>1035.813</ele>
        <time>2019-03-02T02:31:47Z</time>
      </trkpt>
      <trkpt lat="40.670285" lon="-5.743369">
        <ele>1035.962</ele>
        <time>2019-03-02T02:31:48Z</time>
      </trkpt>
      <trkpt lat="40.670292" lon="-5.743384">
        <ele>1036.186</ele>
        <time>2019-03-02T02:31:49Z</time>
      </trkpt>
      <trkpt lat="40.670411" lon="-5.743681">
        <ele>1038.160</ele>
        <time>2019-03-02T02:32:06Z</time>
      </trkpt>
      <trkpt lat="40.670421" lon="-5.743698">
        <ele>1038.126</ele>
        <time>2019-03-02T02:32:11Z</time>
      </trkpt>
      <trkpt lat="40.670431" lon="-5.743739">
        <ele>1038.308</ele>
        <time>2019-03-02T02:34:39Z</time>
      </trkpt>
      <trkpt lat="40.670441" lon="-5.743753">
        <ele>1038.411</ele>
        <time>2019-03-02T02:34:40Z</time>
      </trkpt>
      <trkpt lat="40.670451" lon="-5.743769">
        <ele>1038.432</ele>
        <time>2019-03-02T02:34:41Z</time>
      </trkpt>
      <trkpt lat="40.670458" lon="-5.743786">
        <ele>1038.553</ele>
        <time>2019-03-02T02:34:42Z</time>
      </trkpt>
      <trkpt lat="40.670467" lon="-5.743806">
        <ele>1038.692</ele>
        <time>2019-03-02T02:34:43Z</time>
      </trkpt>
      <trkpt lat="40.670477" lon="-5.743825">
        <ele>1038.766</ele>
        <time>2019-03-02T02:34:44Z</time>
      </trkpt>
      <trkpt lat="40.670613" lon="-5.744081">
        <ele>1039.679</ele>
        <time>2019-03-02T02:34:58Z</time>
      </trkpt>
      <trkpt lat="40.670705" lon="-5.744193">
        <ele>1040.258</ele>
        <time>2019-03-02T02:35:06Z</time>
      </trkpt>
      <trkpt lat="40.670712" lon="-5.744210">
        <ele>1040.227</ele>
        <time>2019-03-02T02:35:07Z</time>
      </trkpt>
      <trkpt lat="40.670719" lon="-5.744228">
        <ele>1040.376</ele>
        <time>2019-03-02T02:35:08Z</time>
      </trkpt>
      <trkpt lat="40.670728" lon="-5.744245">
        <ele>1040.490</ele>
        <time>2019-03-02T02:35:09Z</time>
      </trkpt>
      <trkpt lat="40.670739" lon="-5.744262">
        <ele>1040.519</ele>
        <time>2019-03-02T02:35:10Z</time>
      </trkpt>
      <trkpt lat="40.670750" lon="-5.744278">
        <ele>1040.508</ele>
        <time>2019-03-02T02:35:11Z</time>
      </trkpt>
      <trkpt lat="40.670763" lon="-5.744295">
        <ele>1040.620</ele>
        <time>2019-03-02T02:35:12Z</time>
      </trkpt>
      <trkpt lat="40.670775" lon="-5.744311">
        <ele>1040.751</ele>
        <time>2019-03-02T02:35:13Z</time>
      </trkpt>
      <trkpt lat="40.670787" lon="-5.744327">
        <ele>1040.852</ele>
        <time>2019-03-02T02:35:14Z</time>
      </trkpt>
      <trkpt lat="40.670878" lon="-5.744478">
        <ele>1041.781</ele>
        <time>2019-03-02T02:35:24Z</time>
      </trkpt>
      <trkpt lat="40.670888" lon="-5.744492">
        <ele>1041.835</ele>
        <time>2019-03-02T02:35:25Z</time>
      </trkpt>
      <trkpt lat="40.670898" lon="-5.744505">
        <ele>1041.998</ele>
        <time>2019-03-02T02:35:26Z</time>
      </trkpt>
      <trkpt lat="40.670905" lon="-5.744520">
        <ele>1042.017</ele>
        <time>2019-03-02T02:35:27Z</time>
      </trkpt>
      <trkpt lat="40.670912" lon="-5.744535">
        <ele>1042.176</ele>
        <time>2019-03-02T02:35:28Z</time>
      </trkpt>
      <trkpt lat="40.670921" lon="-5.744549">
        <ele>1042.224</ele>
        <time>2019-03-02T02:35:29Z</time>
      </trkpt>
      <trkpt lat="40.670932" lon="-5.744557">
        <ele>1042.304</ele>
        <time>2019-03-02T02:35:30Z</time>
      </trkpt>
      <trkpt lat="40.670944" lon="-5.744564">
        <ele>1042.414</ele>
        <time>2019-03-02T02:35:31Z</time>
      </trkpt>
      <trkpt lat="40.670954" lon="-5.744571">
        <ele>1042.508</ele>
        <time>2019-03-02T02:35:32Z</time>
      </trkpt>
      <trkpt lat="40.670961" lon="-5.744583">
        <ele>1042.615</ele>
        <time>2019-03-02T02:35:33Z</time>
      </trkpt>
      <trkpt lat="40.670968" lon="-5.744596">
        <ele>1042.786</ele>
        <time>2019-03-02T02:35:34Z</time>
      </trkpt>
      <trkpt lat="40.670978" lon="-5.744610">
        <ele>1042.857</ele>
        <time>2019-03-02T02:35:35Z</time>
      </trkpt>
      <trkpt lat="40.670989" lon="-5.744622">
        <ele>1042.896</ele>
        <time>2019-03-02T02:35:36Z</time>
      </trkpt>
      <trkpt lat="40.670998" lon="-5.744635">
        <ele>1042.980</ele>
        <time>2019-03-02T02:35:37Z</time>
      </trkpt>
      <trkpt lat="40.671008" lon="-5.744649">
        <ele>1043.073</ele>
        <time>2019-03-02T02:35:38Z</time>
      </trkpt>
      <trkpt lat="40.671018" lon="-5.744665">
        <ele>1043.132</ele>
        <time>2019-03-02T02:35:39Z</time>
      </trkpt>
      <trkpt lat="40.671025" lon="-5.744681">
        <ele>1043.151</ele>
        <time>2019-03-02T02:35:40Z</time>
      </trkpt>
      <trkpt lat="40.671033" lon="-5.744696">
        <ele>1043.262</ele>
        <time>2019-03-02T02:35:41Z</time>
      </trkpt>
      <trkpt lat="40.671042" lon="-5.744711">
        <ele>1043.383</ele>
        <time>2019-03-02T02:35:42Z</time>
      </trkpt>
      <trkpt lat="40.671051" lon="-5.744730">
        <ele>1043.411</ele>
        <time>2019-03-02T02:35:43Z</time>
      </trkpt>
      <trkpt lat="40.671228" lon="-5.744991">
        <ele>1044.908</ele>
        <time>2019-03-02T02:35:58Z</time>
      </trkpt>
      <trkpt lat="40.671430" lon="-5.745259">
        <ele>1046.489</ele>
        <time>2019-03-02T02:36:12Z</time>
      </trkpt>
      <trkpt lat="40.671440" lon="-5.745278">
        <ele>1046.550</ele>
        <time>2019-03-02T02:36:13Z</time>
      </trkpt>
      <trkpt lat="40.671449" lon="-5.745299">
        <ele>1046.611</ele>
        <time>2019-03-02T02:36:14Z</time>
      </trkpt>
      <trkpt lat="40.671463" lon="-5.745322">
        <ele>1046.680</ele>
        <time>2019-03-02T02:36:15Z</time>
      </trkpt>
      <trkpt lat="40.671704" lon="-5.745593">
        <ele>1048.134</ele>
        <time>2019-03-02T02:36:30Z</time>
      </trkpt>
      <trkpt lat="40.671949" lon="-5.745876">
        <ele>1050.187</ele>
        <time>2019-03-02T02:36:46Z</time>
      </trkpt>
      <trkpt lat="40.672145" lon="-5.746079">
        <ele>1051.666</ele>
        <time>2019-03-02T02:37:00Z</time>
      </trkpt>
      <trkpt lat="40.672389" lon="-5.746318">
        <ele>1054.035</ele>
        <time>2019-03-02T02:37:19Z</time>
      </trkpt>
      <trkpt lat="40.672423" lon="-5.746355">
        <ele>1054.443</ele>
        <time>2019-03-02T02:37:26Z</time>
      </trkpt>
      <trkpt lat="40.672456" lon="-5.746382">
        <ele>1054.764</ele>
        <time>2019-03-02T02:37:58Z</time>
      </trkpt>
      <trkpt lat="40.672647" lon="-5.746626">
        <ele>1056.810</ele>
        <time>2019-03-02T02:38:14Z</time>
      </trkpt>
      <trkpt lat="40.672689" lon="-5.746681">
        <ele>1057.208</ele>
        <time>2019-03-02T02:38:18Z</time>
      </trkpt>
      <trkpt lat="40.672699" lon="-5.746691">
        <ele>1057.357</ele>
        <time>2019-03-02T02:38:19Z</time>
      </trkpt>
      <trkpt lat="40.672708" lon="-5.746704">
        <ele>1057.478</ele>
        <time>2019-03-02T02:38:20Z</time>
      </trkpt>
      <trkpt lat="40.672718" lon="-5.746717">
        <ele>1057.519</ele>
        <time>2019-03-02T02:38:21Z</time>
      </trkpt>
      <trkpt lat="40.672729" lon="-5.746729">
        <ele>1057.648</ele>
        <time>2019-03-02T02:38:22Z</time>
      </trkpt>
      <trkpt lat="40.672767" lon="-5.746763">
        <ele>1057.822</ele>
        <time>2019-03-02T02:38:25Z</time>
      </trkpt>
      <trkpt lat="40.672778" lon="-5.746776">
        <ele>1057.865</ele>
        <time>2019-03-02T02:38:26Z</time>
      </trkpt>
      <trkpt lat="40.672786" lon="-5.746790">
        <ele>1057.944</ele>
        <time>2019-03-02T02:38:27Z</time>
      </trkpt>
      <trkpt lat="40.672793" lon="-5.746807">
        <ele>1058.053</ele>
        <time>2019-03-02T02:38:28Z</time>
      </trkpt>
      <trkpt lat="40.672799" lon="-5.746823">
        <ele>1058.081</ele>
        <time>2019-03-02T02:38:29Z</time>
      </trkpt>
      <trkpt lat="40.672808" lon="-5.746837">
        <ele>1058.161</ele>
        <time>2019-03-02T02:38:30Z</time>
      </trkpt>
      <trkpt lat="40.672818" lon="-5.746851">
        <ele>1058.117</ele>
        <time>2019-03-02T02:38:31Z</time>
      </trkpt>
      <trkpt lat="40.672830" lon="-5.746866">
        <ele>1058.108</ele>
        <time>2019-03-02T02:38:32Z</time>
      </trkpt>
      <trkpt lat="40.672842" lon="-5.746880">
        <ele>1058.261</ele>
        <time>2019-03-02T02:38:33Z</time>
      </trkpt>
      <trkpt lat="40.672853" lon="-5.746889">
        <ele>1058.222</ele>
        <time>2019-03-02T02:38:34Z</time>
      </trkpt>
      <trkpt lat="40.672856" lon="-5.746898">
        <ele>1058.353</ele>
        <time>2019-03-02T02:38:39Z</time>
      </trkpt>
      <trkpt lat="40.672915" lon="-5.746924">
        <ele>1058.552</ele>
        <time>2019-03-02T02:38:51Z</time>
      </trkpt>
      <trkpt lat="40.673095" lon="-5.747015">
        <ele>1058.856</ele>
        <time>2019-03-02T02:39:04Z</time>
      </trkpt>
      <trkpt lat="40.673305" lon="-5.747195">
        <ele>1058.959</ele>
        <time>2019-03-02T02:39:21Z</time>
      </trkpt>
      <trkpt lat="40.673559" lon="-5.747457">
        <ele>1059.478</ele>
        <time>2019-03-02T02:39:35Z</time>
      </trkpt>
      <trkpt lat="40.673761" lon="-5.747719">
        <ele>1060.327</ele>
        <time>2019-03-02T02:39:48Z</time>
      </trkpt>
      <trkpt lat="40.674021" lon="-5.747968">
        <ele>1061.646</ele>
        <time>2019-03-02T02:40:03Z</time>
      </trkpt>
      <trkpt lat="40.674354" lon="-5.748258">
        <ele>1062.488</ele>
        <time>2019-03-02T02:40:17Z</time>
      </trkpt>
      <trkpt lat="40.674668" lon="-5.748527">
        <ele>1062.416</ele>
        <time>2019-03-02T02:40:29Z</time>
      </trkpt>
      <trkpt lat="40.674717" lon="-5.748593">
        <ele>1062.408</ele>
        <time>2019-03-02T02:40:32Z</time>
      </trkpt>
      <trkpt lat="40.674733" lon="-5.748601">
        <ele>1062.597</ele>
        <time>2019-03-02T02:40:33Z</time>
      </trkpt>
      <trkpt lat="40.674749" lon="-5.748601">
        <ele>1062.548</ele>
        <time>2019-03-02T02:40:34Z</time>
      </trkpt>
      <trkpt lat="40.674767" lon="-5.748601">
        <ele>1062.559</ele>
        <time>2019-03-02T02:40:35Z</time>
      </trkpt>
      <trkpt lat="40.674782" lon="-5.748607">
        <ele>1062.518</ele>
        <time>2019-03-02T02:40:36Z</time>
      </trkpt>
      <trkpt lat="40.674799" lon="-5.748616">
        <ele>1062.522</ele>
        <time>2019-03-02T02:40:37Z</time>
      </trkpt>
      <trkpt lat="40.674816" lon="-5.748620">
        <ele>1062.535</ele>
        <time>2019-03-02T02:40:38Z</time>
      </trkpt>
      <trkpt lat="40.674832" lon="-5.748626">
        <ele>1062.674</ele>
        <time>2019-03-02T02:40:39Z</time>
      </trkpt>
      <trkpt lat="40.674849" lon="-5.748637">
        <ele>1062.623</ele>
        <time>2019-03-02T02:40:40Z</time>
      </trkpt>
      <trkpt lat="40.674998" lon="-5.748769">
        <ele>1062.968</ele>
        <time>2019-03-02T02:40:51Z</time>
      </trkpt>
      <trkpt lat="40.675010" lon="-5.748783">
        <ele>1063.042</ele>
        <time>2019-03-02T02:40:52Z</time>
      </trkpt>
      <trkpt lat="40.675027" lon="-5.748793">
        <ele>1063.026</ele>
        <time>2019-03-02T02:40:53Z</time>
      </trkpt>
      <trkpt lat="40.675318" lon="-5.748940">
        <ele>1063.508</ele>
        <time>2019-03-02T02:41:07Z</time>
      </trkpt>
      <trkpt lat="40.675543" lon="-5.749103">
        <ele>1064.179</ele>
        <time>2019-03-02T02:41:19Z</time>
      </trkpt>
      <trkpt lat="40.675545" lon="-5.749103">
        <ele>1064.140</ele>
        <time>2019-03-02T02:41:21Z</time>
      </trkpt>
      <trkpt lat="40.675655" lon="-5.749128">
        <ele>1064.591</ele>
        <time>2019-03-02T02:42:00Z</time>
      </trkpt>
      <trkpt lat="40.675800" lon="-5.749351">
        <ele>1065.620</ele>
        <time>2019-03-02T02:42:12Z</time>
      </trkpt>
      <trkpt lat="40.675806" lon="-5.749364">
        <ele>1065.634</ele>
        <time>2019-03-02T02:42:13Z</time>
      </trkpt>
      <trkpt lat="40.675832" lon="-5.749410">
        <ele>1065.817</ele>
        <time>2019-03-02T02:42:19Z</time>
      </trkpt>
      <trkpt lat="40.675885" lon="-5.749435">
        <ele>1066.196</ele>
        <time>2019-03-02T02:42:23Z</time>
      </trkpt>
      <trkpt lat="40.676006" lon="-5.749596">
        <ele>1067.215</ele>
        <time>2019-03-02T02:42:35Z</time>
      </trkpt>
      <trkpt lat="40.676015" lon="-5.749604">
        <ele>1067.331</ele>
        <time>2019-03-02T02:42:36Z</time>
      </trkpt>
      <trkpt lat="40.676025" lon="-5.749613">
        <ele>1067.461</ele>
        <time>2019-03-02T02:42:37Z</time>
      </trkpt>
      <trkpt lat="40.676035" lon="-5.749622">
        <ele>1067.507</ele>
        <time>2019-03-02T02:42:38Z</time>
      </trkpt>
      <trkpt lat="40.676046" lon="-5.749630">
        <ele>1067.608</ele>
        <time>2019-03-02T02:42:39Z</time>
      </trkpt>
      <trkpt lat="40.676153" lon="-5.749757">
        <ele>1068.836</ele>
        <time>2019-03-02T02:42:48Z</time>
      </trkpt>
      <trkpt lat="40.676159" lon="-5.749774">
        <ele>1068.947</ele>
        <time>2019-03-02T02:42:49Z</time>
      </trkpt>
      <trkpt lat="40.676166" lon="-5.749788">
        <ele>1069.118</ele>
        <time>2019-03-02T02:42:50Z</time>
      </trkpt>
      <trkpt lat="40.676175" lon="-5.749803">
        <ele>1069.247</ele>
        <time>2019-03-02T02:42:51Z</time>
      </trkpt>
      <trkpt lat="40.676181" lon="-5.749821">
        <ele>1069.381</ele>
        <time>2019-03-02T02:42:52Z</time>
      </trkpt>
      <trkpt lat="40.676188" lon="-5.749837">
        <ele>1069.594</ele>
        <time>2019-03-02T02:42:53Z</time>
      </trkpt>
      <trkpt lat="40.676196" lon="-5.749852">
        <ele>1069.693</ele>
        <time>2019-03-02T02:42:54Z</time>
      </trkpt>
      <trkpt lat="40.676243" lon="-5.749967">
        <ele>1070.452</ele>
        <time>2019-03-02T02:43:03Z</time>
      </trkpt>
      <trkpt lat="40.676255" lon="-5.749972">
        <ele>1070.574</ele>
        <time>2019-03-02T02:43:04Z</time>
      </trkpt>
      <trkpt lat="40.676272" lon="-5.749977">
        <ele>1070.756</ele>
        <time>2019-03-02T02:43:05Z</time>
      </trkpt>
      <trkpt lat="40.676290" lon="-5.749983">
        <ele>1070.821</ele>
        <time>2019-03-02T02:43:06Z</time>
      </trkpt>
      <trkpt lat="40.676308" lon="-5.749992">
        <ele>1070.908</ele>
        <time>2019-03-02T02:43:07Z</time>
      </trkpt>
      <trkpt lat="40.676325" lon="-5.750002">
        <ele>1071.180</ele>
        <time>2019-03-02T02:43:08Z</time>
      </trkpt>
      <trkpt lat="40.676438" lon="-5.750114">
        <ele>1072.231</ele>
        <time>2019-03-02T02:43:19Z</time>
      </trkpt>
      <trkpt lat="40.676705" lon="-5.750461">
        <ele>1076.072</ele>
        <time>2019-03-02T02:44:06Z</time>
      </trkpt>
      <trkpt lat="40.676838" lon="-5.750627">
        <ele>1077.171</ele>
        <time>2019-03-02T02:44:23Z</time>
      </trkpt>
      <trkpt lat="40.676841" lon="-5.750629">
        <ele>1077.125</ele>
        <time>2019-03-02T02:44:26Z</time>
      </trkpt>
      <trkpt lat="40.676907" lon="-5.750686">
        <ele>1077.588</ele>
        <time>2019-03-02T02:45:01Z</time>
      </trkpt>
      <trkpt lat="40.677019" lon="-5.750856">
        <ele>1078.277</ele>
        <time>2019-03-02T02:45:14Z</time>
      </trkpt>
      <trkpt lat="40.677171" lon="-5.751099">
        <ele>1078.926</ele>
        <time>2019-03-02T02:45:28Z</time>
      </trkpt>
      <trkpt lat="40.677191" lon="-5.751142">
        <ele>1079.034</ele>
        <time>2019-03-02T02:45:30Z</time>
      </trkpt>
      <trkpt lat="40.677197" lon="-5.751163">
        <ele>1079.055</ele>
        <time>2019-03-02T02:45:31Z</time>
      </trkpt>
      <trkpt lat="40.677205" lon="-5.751181">
        <ele>1079.110</ele>
        <time>2019-03-02T02:45:32Z</time>
      </trkpt>
      <trkpt lat="40.677259" lon="-5.751270">
        <ele>1079.308</ele>
        <time>2019-03-02T02:45:38Z</time>
      </trkpt>
      <trkpt lat="40.677272" lon="-5.751285">
        <ele>1079.356</ele>
        <time>2019-03-02T02:45:39Z</time>
      </trkpt>
      <trkpt lat="40.677414" lon="-5.751490">
        <ele>1079.937</ele>
        <time>2019-03-02T02:45:51Z</time>
      </trkpt>
      <trkpt lat="40.677456" lon="-5.751549">
        <ele>1080.238</ele>
        <time>2019-03-02T02:45:54Z</time>
      </trkpt>
      <trkpt lat="40.677456" lon="-5.751565">
        <ele>1080.397</ele>
        <time>2019-03-02T02:45:59Z</time>
      </trkpt>
      <trkpt lat="40.677492" lon="-5.751666">
        <ele>1080.831</ele>
        <time>2019-03-02T02:46:25Z</time>
      </trkpt>
      <trkpt lat="40.677516" lon="-5.751833">
        <ele>1081.954</ele>
        <time>2019-03-02T02:46:35Z</time>
      </trkpt>
      <trkpt lat="40.677520" lon="-5.751849">
        <ele>1082.073</ele>
        <time>2019-03-02T02:46:36Z</time>
      </trkpt>
      <trkpt lat="40.677527" lon="-5.751861">
        <ele>1082.242</ele>
        <time>2019-03-02T02:46:37Z</time>
      </trkpt>
      <trkpt lat="40.677536" lon="-5.751874">
        <ele>1082.359</ele>
        <time>2019-03-02T02:46:38Z</time>
      </trkpt>
      <trkpt lat="40.677543" lon="-5.751891">
        <ele>1082.503</ele>
        <time>2019-03-02T02:46:39Z</time>
      </trkpt>
      <trkpt lat="40.677548" lon="-5.751910">
        <ele>1082.623</ele>
        <time>2019-03-02T02:46:40Z</time>
      </trkpt>
      <trkpt lat="40.677553" lon="-5.751927">
        <ele>1082.808</ele>
        <time>2019-03-02T02:46:41Z</time>
      </trkpt>
      <trkpt lat="40.677560" lon="-5.751942">
        <ele>1082.978</ele>
        <time>2019-03-02T02:46:42Z</time>
      </trkpt>
      <trkpt lat="40.677568" lon="-5.751956">
        <ele>1083.169</ele>
        <time>2019-03-02T02:46:43Z</time>
      </trkpt>
      <trkpt lat="40.677577" lon="-5.751974">
        <ele>1083.360</ele>
        <time>2019-03-02T02:46:44Z</time>
      </trkpt>
      <trkpt lat="40.677585" lon="-5.751993">
        <ele>1083.539</ele>
        <time>2019-03-02T02:46:45Z</time>
      </trkpt>
      <trkpt lat="40.677593" lon="-5.752010">
        <ele>1083.613</ele>
        <time>2019-03-02T02:46:46Z</time>
      </trkpt>
      <trkpt lat="40.677614" lon="-5.752055">
        <ele>1084.396</ele>
        <time>2019-03-02T02:46:50Z</time>
      </trkpt>
      <trkpt lat="40.677646" lon="-5.752087">
        <ele>1085.095</ele>
        <time>2019-03-02T02:46:57Z</time>
      </trkpt>
      <trkpt lat="40.677988" lon="-5.752797">
        <ele>1095.164</ele>
        <time>2019-03-02T02:48:19Z</time>
      </trkpt>
      <trkpt lat="40.677993" lon="-5.752827">
        <ele>1095.521</ele>
        <time>2019-03-02T02:48:26Z</time>
      </trkpt>
      <trkpt lat="40.678252" lon="-5.753252">
        <ele>1101.641</ele>
        <time>2019-03-02T02:50:00Z</time>
      </trkpt>
      <trkpt lat="40.678340" lon="-5.753428">
        <ele>1103.705</ele>
        <time>2019-03-02T02:50:15Z</time>
      </trkpt>
      <trkpt lat="40.678374" lon="-5.753643">
        <ele>1106.208</ele>
        <time>2019-03-02T02:50:31Z</time>
      </trkpt>
      <trkpt lat="40.678422" lon="-5.753833">
        <ele>1108.645</ele>
        <time>2019-03-02T02:50:46Z</time>
      </trkpt>
      <trkpt lat="40.678454" lon="-5.754002">
        <ele>1110.466</ele>
        <time>2019-03-02T02:51:00Z</time>
      </trkpt>
      <trkpt lat="40.678495" lon="-5.754179">
        <ele>1112.337</ele>
        <time>2019-03-02T02:51:12Z</time>
      </trkpt>
      <trkpt lat="40.678507" lon="-5.754205">
        <ele>1112.696</ele>
        <time>2019-03-02T02:51:14Z</time>
      </trkpt>
      <trkpt lat="40.678574" lon="-5.754411">
        <ele>1114.820</ele>
        <time>2019-03-02T02:51:30Z</time>
      </trkpt>
      <trkpt lat="40.678585" lon="-5.754460">
        <ele>1115.433</ele>
        <time>2019-03-02T02:51:37Z</time>
      </trkpt>
      <trkpt lat="40.678670" lon="-5.754824">
        <ele>1119.742</ele>
        <time>2019-03-02T02:52:07Z</time>
      </trkpt>
      <trkpt lat="40.678739" lon="-5.755080">
        <ele>1122.511</ele>
        <time>2019-03-02T02:52:27Z</time>
      </trkpt>
      <trkpt lat="40.678741" lon="-5.755102">
        <ele>1122.816</ele>
        <time>2019-03-02T02:52:33Z</time>
      </trkpt>
      <trkpt lat="40.678789" lon="-5.755219">
        <ele>1124.176</ele>
        <time>2019-03-02T02:52:44Z</time>
      </trkpt>
      <trkpt lat="40.678879" lon="-5.755465">
        <ele>1127.113</ele>
        <time>2019-03-02T02:53:04Z</time>
      </trkpt>
      <trkpt lat="40.678883" lon="-5.755479">
        <ele>1127.208</ele>
        <time>2019-03-02T02:53:05Z</time>
      </trkpt>
      <trkpt lat="40.678916" lon="-5.755532">
        <ele>1128.084</ele>
        <time>2019-03-02T02:53:09Z</time>
      </trkpt>
      <trkpt lat="40.678919" lon="-5.755546">
        <ele>1128.185</ele>
        <time>2019-03-02T02:53:10Z</time>
      </trkpt>
      <trkpt lat="40.678923" lon="-5.755559">
        <ele>1128.336</ele>
        <time>2019-03-02T02:53:11Z</time>
      </trkpt>
      <trkpt lat="40.678983" lon="-5.755777">
        <ele>1130.155</ele>
        <time>2019-03-02T02:53:27Z</time>
      </trkpt>
      <trkpt lat="40.679021" lon="-5.755928">
        <ele>1131.899</ele>
        <time>2019-03-02T02:53:41Z</time>
      </trkpt>
      <trkpt lat="40.679040" lon="-5.756048">
        <ele>1133.582</ele>
        <time>2019-03-02T02:53:53Z</time>
      </trkpt>
      <trkpt lat="40.679101" lon="-5.756326">
        <ele>1137.351</ele>
        <time>2019-03-02T02:54:13Z</time>
      </trkpt>
      <trkpt lat="40.679154" lon="-5.756550">
        <ele>1139.560</ele>
        <time>2019-03-02T02:54:30Z</time>
      </trkpt>
      <trkpt lat="40.679161" lon="-5.756573">
        <ele>1139.765</ele>
        <time>2019-03-02T02:54:32Z</time>
      </trkpt>
      <trkpt lat="40.679167" lon="-5.756586">
        <ele>1139.868</ele>
        <time>2019-03-02T02:54:33Z</time>
      </trkpt>
      <trkpt lat="40.679175" lon="-5.756601">
        <ele>1139.914</ele>
        <time>2019-03-02T02:54:34Z</time>
      </trkpt>
      <trkpt lat="40.679320" lon="-5.756856">
        <ele>1141.808</ele>
        <time>2019-03-02T02:54:53Z</time>
      </trkpt>
      <trkpt lat="40.679411" lon="-5.757161">
        <ele>1144.089</ele>
        <time>2019-03-02T02:55:13Z</time>
      </trkpt>
      <trkpt lat="40.679452" lon="-5.757333">
        <ele>1145.170</ele>
        <time>2019-03-02T02:55:30Z</time>
      </trkpt>
      <trkpt lat="40.679453" lon="-5.757332">
        <ele>1145.151</ele>
        <time>2019-03-02T02:55:31Z</time>
      </trkpt>
      <trkpt lat="40.679487" lon="-5.757395">
        <ele>1145.520</ele>
        <time>2019-03-02T02:55:42Z</time>
      </trkpt>
      <trkpt lat="40.679494" lon="-5.757412">
        <ele>1145.624</ele>
        <time>2019-03-02T02:55:43Z</time>
      </trkpt>
      <trkpt lat="40.679672" lon="-5.757687">
        <ele>1147.077</ele>
        <time>2019-03-02T02:56:00Z</time>
      </trkpt>
      <trkpt lat="40.679748" lon="-5.757836">
        <ele>1147.516</ele>
        <time>2019-03-02T02:56:09Z</time>
      </trkpt>
      <trkpt lat="40.679797" lon="-5.757938">
        <ele>1147.945</ele>
        <time>2019-03-02T02:56:16Z</time>
      </trkpt>
      <trkpt lat="40.679836" lon="-5.758048">
        <ele>1148.467</ele>
        <time>2019-03-02T02:56:22Z</time>
      </trkpt>
      <trkpt lat="40.679900" lon="-5.758212">
        <ele>1149.481</ele>
        <time>2019-03-02T02:56:34Z</time>
      </trkpt>
      <trkpt lat="40.680002" lon="-5.758413">
        <ele>1150.719</ele>
        <time>2019-03-02T02:56:49Z</time>
      </trkpt>
      <trkpt lat="40.680001" lon="-5.758414">
        <ele>1150.708</ele>
        <time>2019-03-02T02:56:51Z</time>
      </trkpt>
      <trkpt lat="40.680035" lon="-5.758483">
        <ele>1151.159</ele>
        <time>2019-03-02T02:56:59Z</time>
      </trkpt>
      <trkpt lat="40.680059" lon="-5.758571">
        <ele>1151.460</ele>
        <time>2019-03-02T02:57:05Z</time>
      </trkpt>
      <trkpt lat="40.680156" lon="-5.758749">
        <ele>1152.341</ele>
        <time>2019-03-02T02:57:20Z</time>
      </trkpt>
      <trkpt lat="40.680216" lon="-5.759051">
        <ele>1154.020</ele>
        <time>2019-03-02T02:58:08Z</time>
      </trkpt>
      <trkpt lat="40.680221" lon="-5.759134">
        <ele>1154.384</ele>
        <time>2019-03-02T02:58:18Z</time>
      </trkpt>
      <trkpt lat="40.680256" lon="-5.759236">
        <ele>1154.577</ele>
        <time>2019-03-02T02:59:02Z</time>
      </trkpt>
      <trkpt lat="40.680365" lon="-5.759729">
        <ele>1154.446</ele>
        <time>2019-03-02T02:59:12Z</time>
      </trkpt>
      <trkpt lat="40.680410" lon="-5.760020">
        <ele>1155.275</ele>
        <time>2019-03-02T02:59:22Z</time>
      </trkpt>
      <trkpt lat="40.680489" lon="-5.760334">
        <ele>1155.828</ele>
        <time>2019-03-02T02:59:33Z</time>
      </trkpt>
      <trkpt lat="40.680593" lon="-5.760620">
        <ele>1155.889</ele>
        <time>2019-03-02T02:59:43Z</time>
      </trkpt>
      <trkpt lat="40.680872" lon="-5.761283">
        <ele>1154.417</ele>
        <time>2019-03-02T02:59:55Z</time>
      </trkpt>
      <trkpt lat="40.680896" lon="-5.761343">
        <ele>1154.308</ele>
        <time>2019-03-02T02:59:56Z</time>
      </trkpt>
      <trkpt lat="40.680920" lon="-5.761402">
        <ele>1154.135</ele>
        <time>2019-03-02T02:59:57Z</time>
      </trkpt>
      <trkpt lat="40.681038" lon="-5.761646">
        <ele>1153.576</ele>
        <time>2019-03-02T03:00:01Z</time>
      </trkpt>
      <trkpt lat="40.681234" lon="-5.762019">
        <ele>1152.597</ele>
        <time>2019-03-02T03:00:07Z</time>
      </trkpt>
      <trkpt lat="40.681269" lon="-5.762072">
        <ele>1152.546</ele>
        <time>2019-03-02T03:00:08Z</time>
      </trkpt>
      <trkpt lat="40.681507" lon="-5.762338">
        <ele>1152.770</ele>
        <time>2019-03-02T03:00:15Z</time>
      </trkpt>
      <trkpt lat="40.681542" lon="-5.762361">
        <ele>1152.883</ele>
        <time>2019-03-02T03:00:16Z</time>
      </trkpt>
      <trkpt lat="40.681864" lon="-5.762566">
        <ele>1153.982</ele>
        <time>2019-03-02T03:00:29Z</time>
      </trkpt>
      <trkpt lat="40.682113" lon="-5.762728">
        <ele>1154.821</ele>
        <time>2019-03-02T03:00:42Z</time>
      </trkpt>
      <trkpt lat="40.682344" lon="-5.762870">
        <ele>1155.672</ele>
        <time>2019-03-02T03:00:56Z</time>
      </trkpt>
      <trkpt lat="40.682663" lon="-5.762995">
        <ele>1156.213</ele>
        <time>2019-03-02T03:01:08Z</time>
      </trkpt>
      <trkpt lat="40.682909" lon="-5.763124">
        <ele>1156.514</ele>
        <time>2019-03-02T03:01:20Z</time>
      </trkpt>
      <trkpt lat="40.683152" lon="-5.763295">
        <ele>1156.908</ele>
        <time>2019-03-02T03:01:30Z</time>
      </trkpt>
      <trkpt lat="40.683473" lon="-5.763574">
        <ele>1157.080</ele>
        <time>2019-03-02T03:01:44Z</time>
      </trkpt>
      <trkpt lat="40.683495" lon="-5.763590">
        <ele>1157.071</ele>
        <time>2019-03-02T03:01:50Z</time>
      </trkpt>
      <trkpt lat="40.683537" lon="-5.763624">
        <ele>1156.912</ele>
        <time>2019-03-02T03:01:57Z</time>
      </trkpt>
      <trkpt lat="40.683660" lon="-5.763722">
        <ele>1156.491</ele>
        <time>2019-03-02T03:02:07Z</time>
      </trkpt>
      <trkpt lat="40.683678" lon="-5.763732">
        <ele>1156.475</ele>
        <time>2019-03-02T03:10:55Z</time>
      </trkpt>
      <trkpt lat="40.683682" lon="-5.763735">
        <ele>1156.318</ele>
        <time>2019-03-02T03:10:59Z</time>
      </trkpt>
      <trkpt lat="40.683732" lon="-5.763778">
        <ele>1156.187</ele>
        <time>2019-03-02T03:11:21Z</time>
      </trkpt>
      <trkpt lat="40.683942" lon="-5.764024">
        <ele>1155.036</ele>
        <time>2019-03-02T03:11:33Z</time>
      </trkpt>
      <trkpt lat="40.684032" lon="-5.764142">
        <ele>1154.526</ele>
        <time>2019-03-02T03:11:45Z</time>
      </trkpt>
      <trkpt lat="40.684102" lon="-5.764203">
        <ele>1154.247</ele>
        <time>2019-03-02T03:11:56Z</time>
      </trkpt>
      <trkpt lat="40.684339" lon="-5.764427">
        <ele>1152.911</ele>
        <time>2019-03-02T03:12:09Z</time>
      </trkpt>
      <trkpt lat="40.684435" lon="-5.764557">
        <ele>1152.308</ele>
        <time>2019-03-02T03:12:13Z</time>
      </trkpt>
      <trkpt lat="40.684492" lon="-5.764642">
        <ele>1152.045</ele>
        <time>2019-03-02T03:12:15Z</time>
      </trkpt>
      <trkpt lat="40.684670" lon="-5.765023">
        <ele>1150.736</ele>
        <time>2019-03-02T03:12:27Z</time>
      </trkpt>
      <trkpt lat="40.684745" lon="-5.765353">
        <ele>1148.817</ele>
        <time>2019-03-02T03:12:37Z</time>
      </trkpt>
      <trkpt lat="40.684756" lon="-5.765376">
        <ele>1148.666</ele>
        <time>2019-03-02T03:12:38Z</time>
      </trkpt>
      <trkpt lat="40.684897" lon="-5.765746">
        <ele>1145.830</ele>
        <time>2019-03-02T03:12:50Z</time>
      </trkpt>
      <trkpt lat="40.685013" lon="-5.766056">
        <ele>1143.723</ele>
        <time>2019-03-02T03:13:02Z</time>
      </trkpt>
      <trkpt lat="40.685227" lon="-5.766434">
        <ele>1139.592</ele>
        <time>2019-03-02T03:13:12Z</time>
      </trkpt>
      <trkpt lat="40.685356" lon="-5.766681">
        <ele>1136.871</ele>
        <time>2019-03-02T03:13:21Z</time>
      </trkpt>
      <trkpt lat="40.685476" lon="-5.767014">
        <ele>1133.622</ele>
        <time>2019-03-02T03:13:29Z</time>
      </trkpt>
      <trkpt lat="40.685560" lon="-5.767326">
        <ele>1130.262</ele>
        <time>2019-03-02T03:13:36Z</time>
      </trkpt>
      <trkpt lat="40.685582" lon="-5.767376">
        <ele>1129.808</ele>
        <time>2019-03-02T03:13:37Z</time>
      </trkpt>
      <trkpt lat="40.685609" lon="-5.767428">
        <ele>1129.308</ele>
        <time>2019-03-02T03:13:38Z</time>
      </trkpt>
      <trkpt lat="40.685639" lon="-5.767473">
        <ele>1128.665</ele>
        <time>2019-03-02T03:13:39Z</time>
      </trkpt>
      <trkpt lat="40.685666" lon="-5.767505">
        <ele>1128.156</ele>
        <time>2019-03-02T03:13:40Z</time>
      </trkpt>
      <trkpt lat="40.685723" lon="-5.767588">
        <ele>1127.287</ele>
        <time>2019-03-02T03:13:44Z</time>
      </trkpt>
      <trkpt lat="40.685741" lon="-5.767600">
        <ele>1126.856</ele>
        <time>2019-03-02T03:13:45Z</time>
      </trkpt>
      <trkpt lat="40.685764" lon="-5.767611">
        <ele>1126.430</ele>
        <time>2019-03-02T03:13:46Z</time>
      </trkpt>
      <trkpt lat="40.685787" lon="-5.767621">
        <ele>1126.093</ele>
        <time>2019-03-02T03:13:47Z</time>
      </trkpt>
      <trkpt lat="40.685807" lon="-5.767632">
        <ele>1125.712</ele>
        <time>2019-03-02T03:13:48Z</time>
      </trkpt>
      <trkpt lat="40.685822" lon="-5.767643">
        <ele>1125.551</ele>
        <time>2019-03-02T03:13:49Z</time>
      </trkpt>
      <trkpt lat="40.685834" lon="-5.767655">
        <ele>1125.316</ele>
        <time>2019-03-02T03:13:50Z</time>
      </trkpt>
      <trkpt lat="40.685847" lon="-5.767667">
        <ele>1125.076</ele>
        <time>2019-03-02T03:13:51Z</time>
      </trkpt>
      <trkpt lat="40.685862" lon="-5.767680">
        <ele>1124.813</ele>
        <time>2019-03-02T03:13:52Z</time>
      </trkpt>
      <trkpt lat="40.686011" lon="-5.767999">
        <ele>1120.508</ele>
        <time>2019-03-02T03:14:02Z</time>
      </trkpt>
      <trkpt lat="40.686153" lon="-5.768326">
        <ele>1116.254</ele>
        <time>2019-03-02T03:14:10Z</time>
      </trkpt>
      <trkpt lat="40.686283" lon="-5.768488">
        <ele>1112.985</ele>
        <time>2019-03-02T03:14:16Z</time>
      </trkpt>
      <trkpt lat="40.686356" lon="-5.768548">
        <ele>1111.286</ele>
        <time>2019-03-02T03:14:20Z</time>
      </trkpt>
      <trkpt lat="40.686485" lon="-5.768708">
        <ele>1108.245</ele>
        <time>2019-03-02T03:14:27Z</time>
      </trkpt>
      <trkpt lat="40.686677" lon="-5.768830">
        <ele>1103.499</ele>
        <time>2019-03-02T03:14:36Z</time>
      </trkpt>
      <trkpt lat="40.686761" lon="-5.768945">
        <ele>1101.052</ele>
        <time>2019-03-02T03:14:43Z</time>
      </trkpt>
      <trkpt lat="40.686775" lon="-5.768961">
        <ele>1100.661</ele>
        <time>2019-03-02T03:14:44Z</time>
      </trkpt>
      <trkpt lat="40.686913" lon="-5.769099">
        <ele>1097.080</ele>
        <time>2019-03-02T03:14:53Z</time>
      </trkpt>
      <trkpt lat="40.687121" lon="-5.769248">
        <ele>1092.959</ele>
        <time>2019-03-02T03:15:02Z</time>
      </trkpt>
      <trkpt lat="40.687236" lon="-5.769354">
        <ele>1090.403</ele>
        <time>2019-03-02T03:15:08Z</time>
      </trkpt>
      <trkpt lat="40.687389" lon="-5.769514">
        <ele>1087.023</ele>
        <time>2019-03-02T03:15:14Z</time>
      </trkpt>
      <trkpt lat="40.687438" lon="-5.769560">
        <ele>1085.608</ele>
        <time>2019-03-02T03:15:20Z</time>
      </trkpt>
      <trkpt lat="40.687545" lon="-5.769650">
        <ele>1082.788</ele>
        <time>2019-03-02T03:16:18Z</time>
      </trkpt>
      <trkpt lat="40.687716" lon="-5.769890">
        <ele>1076.839</ele>
        <time>2019-03-02T03:16:26Z</time>
      </trkpt>
      <trkpt lat="40.687831" lon="-5.769980">
        <ele>1073.360</ele>
        <time>2019-03-02T03:16:31Z</time>
      </trkpt>
      <trkpt lat="40.687932" lon="-5.770028">
        <ele>1071.449</ele>
        <time>2019-03-02T03:16:36Z</time>
      </trkpt>
      <trkpt lat="40.687953" lon="-5.770028">
        <ele>1071.123</ele>
        <time>2019-03-02T03:16:39Z</time>
      </trkpt>
      <trkpt lat="40.688033" lon="-5.770055">
        <ele>1069.456</ele>
        <time>2019-03-02T03:16:43Z</time>
      </trkpt>
      <trkpt lat="40.688343" lon="-5.770096">
        <ele>1063.325</ele>
        <time>2019-03-02T03:16:52Z</time>
      </trkpt>
      <trkpt lat="40.688593" lon="-5.770001">
        <ele>1060.034</ele>
        <time>2019-03-02T03:17:01Z</time>
      </trkpt>
      <trkpt lat="40.688742" lon="-5.769951">
        <ele>1058.743</ele>
        <time>2019-03-02T03:17:13Z</time>
      </trkpt>
      <trkpt lat="40.689115" lon="-5.769707">
        <ele>1056.364</ele>
        <time>2019-03-02T03:17:22Z</time>
      </trkpt>
      <trkpt lat="40.689155" lon="-5.769690">
        <ele>1056.010</ele>
        <time>2019-03-02T03:17:23Z</time>
      </trkpt>
      <trkpt lat="40.689192" lon="-5.769683">
        <ele>1055.808</ele>
        <time>2019-03-02T03:17:24Z</time>
      </trkpt>
      <trkpt lat="40.689283" lon="-5.769669">
        <ele>1055.397</ele>
        <time>2019-03-02T03:17:26Z</time>
      </trkpt>
      <trkpt lat="40.689335" lon="-5.769643">
        <ele>1055.098</ele>
        <time>2019-03-02T03:17:27Z</time>
      </trkpt>
      <trkpt lat="40.689385" lon="-5.769609">
        <ele>1054.759</ele>
        <time>2019-03-02T03:17:28Z</time>
      </trkpt>
      <trkpt lat="40.689555" lon="-5.769472">
        <ele>1053.598</ele>
        <time>2019-03-02T03:17:32Z</time>
      </trkpt>
      <trkpt lat="40.689665" lon="-5.769351">
        <ele>1052.232</ele>
        <time>2019-03-02T03:17:36Z</time>
      </trkpt>
      <trkpt lat="40.689672" lon="-5.769307">
        <ele>1051.975</ele>
        <time>2019-03-02T03:17:37Z</time>
      </trkpt>
      <trkpt lat="40.689691" lon="-5.769198">
        <ele>1051.134</ele>
        <time>2019-03-02T03:17:39Z</time>
      </trkpt>
      <trkpt lat="40.689858" lon="-5.768797">
        <ele>1048.393</ele>
        <time>2019-03-02T03:17:45Z</time>
      </trkpt>
      <trkpt lat="40.689906" lon="-5.768727">
        <ele>1047.843</ele>
        <time>2019-03-02T03:17:46Z</time>
      </trkpt>
      <trkpt lat="40.690535" lon="-5.767954">
        <ele>1041.164</ele>
        <time>2019-03-02T03:17:56Z</time>
      </trkpt>
      <trkpt lat="40.690952" lon="-5.767562">
        <ele>1037.010</ele>
        <time>2019-03-02T03:18:01Z</time>
      </trkpt>
      <trkpt lat="40.691052" lon="-5.767513">
        <ele>1036.108</ele>
        <time>2019-03-02T03:18:02Z</time>
      </trkpt>
      <trkpt lat="40.691160" lon="-5.767484">
        <ele>1035.127</ele>
        <time>2019-03-02T03:18:03Z</time>
      </trkpt>
      <trkpt lat="40.691737" lon="-5.767418">
        <ele>1029.258</ele>
        <time>2019-03-02T03:18:08Z</time>
      </trkpt>
      <trkpt lat="40.692093" lon="-5.767387">
        <ele>1025.469</ele>
        <time>2019-03-02T03:18:11Z</time>
      </trkpt>
      <trkpt lat="40.692677" lon="-5.767323">
        <ele>1020.598</ele>
        <time>2019-03-02T03:18:16Z</time>
      </trkpt>
      <trkpt lat="40.693264" lon="-5.767256">
        <ele>1016.472</ele>
        <time>2019-03-02T03:18:21Z</time>
      </trkpt>
      <trkpt lat="40.693945" lon="-5.767117">
        <ele>1012.215</ele>
        <time>2019-03-02T03:18:27Z</time>
      </trkpt>
      <trkpt lat="40.694624" lon="-5.766892">
        <ele>1005.824</ele>
        <time>2019-03-02T03:18:33Z</time>
      </trkpt>
      <trkpt lat="40.695180" lon="-5.766706">
        <ele>1002.343</ele>
        <time>2019-03-02T03:18:38Z</time>
      </trkpt>
      <trkpt lat="40.695821" lon="-5.766492">
        <ele>999.757</ele>
        <time>2019-03-02T03:18:44Z</time>
      </trkpt>
      <trkpt lat="40.696433" lon="-5.766280">
        <ele>996.700</ele>
        <time>2019-03-02T03:18:50Z</time>
      </trkpt>
      <trkpt lat="40.697218" lon="-5.766022">
        <ele>993.320</ele>
        <time>2019-03-02T03:18:58Z</time>
      </trkpt>
      <trkpt lat="40.697969" lon="-5.765762">
        <ele>990.008</ele>
        <time>2019-03-02T03:19:06Z</time>
      </trkpt>
      <trkpt lat="40.698818" lon="-5.765474">
        <ele>986.118</ele>
        <time>2019-03-02T03:19:15Z</time>
      </trkpt>
      <trkpt lat="40.699562" lon="-5.765229">
        <ele>983.439</ele>
        <time>2019-03-02T03:19:23Z</time>
      </trkpt>
      <trkpt lat="40.699735" lon="-5.765167">
        <ele>983.020</ele>
        <time>2019-03-02T03:19:25Z</time>
      </trkpt>
      <trkpt lat="40.700680" lon="-5.764860">
        <ele>984.369</ele>
        <time>2019-03-02T03:19:38Z</time>
      </trkpt>
      <trkpt lat="40.701502" lon="-5.764570">
        <ele>983.043</ele>
        <time>2019-03-02T03:19:53Z</time>
      </trkpt>
      <trkpt lat="40.702533" lon="-5.764338">
        <ele>978.126</ele>
        <time>2019-03-02T03:20:08Z</time>
      </trkpt>
      <trkpt lat="40.703297" lon="-5.764465">
        <ele>977.825</ele>
        <time>2019-03-02T03:20:20Z</time>
      </trkpt>
      <trkpt lat="40.704102" lon="-5.764603">
        <ele>980.484</ele>
        <time>2019-03-02T03:20:36Z</time>
      </trkpt>
      <trkpt lat="40.704490" lon="-5.764685">
        <ele>981.542</ele>
        <time>2019-03-02T03:20:44Z</time>
      </trkpt>
      <trkpt lat="40.705160" lon="-5.764790">
        <ele>982.922</ele>
        <time>2019-03-02T03:20:57Z</time>
      </trkpt>
      <trkpt lat="40.705881" lon="-5.764893">
        <ele>983.114</ele>
        <time>2019-03-02T03:21:11Z</time>
      </trkpt>
      <trkpt lat="40.707059" lon="-5.765042">
        <ele>981.708</ele>
        <time>2019-03-02T03:21:32Z</time>
      </trkpt>
      <trkpt lat="40.708256" lon="-5.765201">
        <ele>979.977</ele>
        <time>2019-03-02T03:21:51Z</time>
      </trkpt>
      <trkpt lat="40.709250" lon="-5.765340">
        <ele>980.718</ele>
        <time>2019-03-02T03:22:10Z</time>
      </trkpt>
      <trkpt lat="40.709890" lon="-5.765431">
        <ele>983.119</ele>
        <time>2019-03-02T03:22:27Z</time>
      </trkpt>
      <trkpt lat="40.710412" lon="-5.765504">
        <ele>984.488</ele>
        <time>2019-03-02T03:22:43Z</time>
      </trkpt>
      <trkpt lat="40.711161" lon="-5.765607">
        <ele>986.912</ele>
        <time>2019-03-02T03:23:05Z</time>
      </trkpt>
      <trkpt lat="40.711733" lon="-5.765697">
        <ele>989.815</ele>
        <time>2019-03-02T03:23:25Z</time>
      </trkpt>
      <trkpt lat="40.712314" lon="-5.765788">
        <ele>991.994</ele>
        <time>2019-03-02T03:23:44Z</time>
      </trkpt>
      <trkpt lat="40.713015" lon="-5.765890">
        <ele>992.313</ele>
        <time>2019-03-02T03:24:02Z</time>
      </trkpt>
      <trkpt lat="40.713980" lon="-5.766033">
        <ele>992.422</ele>
        <time>2019-03-02T03:24:24Z</time>
      </trkpt>
      <trkpt lat="40.714903" lon="-5.766091">
        <ele>992.762</ele>
        <time>2019-03-02T03:24:43Z</time>
      </trkpt>
      <trkpt lat="40.714953" lon="-5.766091">
        <ele>992.708</ele>
        <time>2019-03-02T03:24:44Z</time>
      </trkpt>
      <trkpt lat="40.715003" lon="-5.766082">
        <ele>992.708</ele>
        <time>2019-03-02T03:24:45Z</time>
      </trkpt>
      <trkpt lat="40.715052" lon="-5.766080">
        <ele>992.735</ele>
        <time>2019-03-02T03:24:46Z</time>
      </trkpt>
      <trkpt lat="40.715101" lon="-5.766087">
        <ele>992.756</ele>
        <time>2019-03-02T03:24:47Z</time>
      </trkpt>
      <trkpt lat="40.715152" lon="-5.766093">
        <ele>992.657</ele>
        <time>2019-03-02T03:24:48Z</time>
      </trkpt>
      <trkpt lat="40.715203" lon="-5.766092">
        <ele>992.646</ele>
        <time>2019-03-02T03:24:49Z</time>
      </trkpt>
      <trkpt lat="40.715256" lon="-5.766087">
        <ele>992.530</ele>
        <time>2019-03-02T03:24:50Z</time>
      </trkpt>
      <trkpt lat="40.715636" lon="-5.766090">
        <ele>991.573</ele>
        <time>2019-03-02T03:24:59Z</time>
      </trkpt>
      <trkpt lat="40.715632" lon="-5.766086">
        <ele>991.432</ele>
        <time>2019-03-02T03:25:02Z</time>
      </trkpt>
      <trkpt lat="40.715712" lon="-5.766083">
        <ele>991.011</ele>
        <time>2019-03-02T03:25:55Z</time>
      </trkpt>
      <trkpt lat="40.716320" lon="-5.766099">
        <ele>986.278</ele>
        <time>2019-03-02T03:26:06Z</time>
      </trkpt>
      <trkpt lat="40.717587" lon="-5.766117">
        <ele>981.133</ele>
        <time>2019-03-02T03:26:22Z</time>
      </trkpt>
      <trkpt lat="40.718943" lon="-5.766143">
        <ele>979.526</ele>
        <time>2019-03-02T03:26:38Z</time>
      </trkpt>
      <trkpt lat="40.719335" lon="-5.766155">
        <ele>979.508</ele>
        <time>2019-03-02T03:26:43Z</time>
      </trkpt>
      <trkpt lat="40.720193" lon="-5.766174">
        <ele>980.020</ele>
        <time>2019-03-02T03:26:55Z</time>
      </trkpt>
      <trkpt lat="40.720256" lon="-5.766170">
        <ele>980.131</ele>
        <time>2019-03-02T03:26:56Z</time>
      </trkpt>
      <trkpt lat="40.720320" lon="-5.766173">
        <ele>980.292</ele>
        <time>2019-03-02T03:26:57Z</time>
      </trkpt>
      <trkpt lat="40.721159" lon="-5.766191">
        <ele>980.381</ele>
        <time>2019-03-02T03:27:11Z</time>
      </trkpt>
      <trkpt lat="40.721548" lon="-5.766186">
        <ele>979.545</ele>
        <time>2019-03-02T03:27:18Z</time>
      </trkpt>
      <trkpt lat="40.721608" lon="-5.766171">
        <ele>979.388</ele>
        <time>2019-03-02T03:27:19Z</time>
      </trkpt>
      <trkpt lat="40.721669" lon="-5.766145">
        <ele>979.247</ele>
        <time>2019-03-02T03:27:20Z</time>
      </trkpt>
      <trkpt lat="40.721732" lon="-5.766107">
        <ele>979.196</ele>
        <time>2019-03-02T03:27:21Z</time>
      </trkpt>
      <trkpt lat="40.721793" lon="-5.766056">
        <ele>979.049</ele>
        <time>2019-03-02T03:27:22Z</time>
      </trkpt>
      <trkpt lat="40.721849" lon="-5.765992">
        <ele>978.902</ele>
        <time>2019-03-02T03:27:23Z</time>
      </trkpt>
      <trkpt lat="40.721903" lon="-5.765919">
        <ele>978.822</ele>
        <time>2019-03-02T03:27:24Z</time>
      </trkpt>
      <trkpt lat="40.721956" lon="-5.765840">
        <ele>978.608</ele>
        <time>2019-03-02T03:27:25Z</time>
      </trkpt>
      <trkpt lat="40.722288" lon="-5.765299">
        <ele>975.597</ele>
        <time>2019-03-02T03:27:31Z</time>
      </trkpt>
      <trkpt lat="40.722361" lon="-5.765222">
        <ele>974.958</ele>
        <time>2019-03-02T03:27:32Z</time>
      </trkpt>
      <trkpt lat="40.722440" lon="-5.765153">
        <ele>974.279</ele>
        <time>2019-03-02T03:27:33Z</time>
      </trkpt>
      <trkpt lat="40.722972" lon="-5.764798">
        <ele>969.138</ele>
        <time>2019-03-02T03:27:39Z</time>
      </trkpt>
      <trkpt lat="40.723763" lon="-5.764317">
        <ele>967.812</ele>
        <time>2019-03-02T03:27:48Z</time>
      </trkpt>
      <trkpt lat="40.724774" lon="-5.763712">
        <ele>963.815</ele>
        <time>2019-03-02T03:28:01Z</time>
      </trkpt>
      <trkpt lat="40.726225" lon="-5.762834">
        <ele>958.724</ele>
        <time>2019-03-02T03:28:20Z</time>
      </trkpt>
      <trkpt lat="40.727044" lon="-5.762346">
        <ele>955.993</ele>
        <time>2019-03-02T03:28:30Z</time>
      </trkpt>
      <trkpt lat="40.728348" lon="-5.761550">
        <ele>954.335</ele>
        <time>2019-03-02T03:28:47Z</time>
      </trkpt>
      <trkpt lat="40.729483" lon="-5.760857">
        <ele>950.286</ele>
        <time>2019-03-02T03:29:02Z</time>
      </trkpt>
      <trkpt lat="40.730261" lon="-5.760395">
        <ele>947.614</ele>
        <time>2019-03-02T03:29:11Z</time>
      </trkpt>
      <trkpt lat="40.730890" lon="-5.760093">
        <ele>942.008</ele>
        <time>2019-03-02T03:29:18Z</time>
      </trkpt>
      <trkpt lat="40.731709" lon="-5.759821">
        <ele>939.436</ele>
        <time>2019-03-02T03:29:28Z</time>
      </trkpt>
      <trkpt lat="40.732422" lon="-5.759588">
        <ele>936.497</ele>
        <time>2019-03-02T03:29:37Z</time>
      </trkpt>
      <trkpt lat="40.733329" lon="-5.759293">
        <ele>933.168</ele>
        <time>2019-03-02T03:29:48Z</time>
      </trkpt>
      <trkpt lat="40.734081" lon="-5.759018">
        <ele>935.227</ele>
        <time>2019-03-02T03:30:00Z</time>
      </trkpt>
      <trkpt lat="40.734385" lon="-5.758907">
        <ele>941.731</ele>
        <time>2019-03-02T03:30:14Z</time>
      </trkpt>
      <trkpt lat="40.734679" lon="-5.759051">
        <ele>945.754</ele>
        <time>2019-03-02T03:30:33Z</time>
      </trkpt>
      <trkpt lat="40.734946" lon="-5.759282">
        <ele>947.843</ele>
        <time>2019-03-02T03:30:50Z</time>
      </trkpt>
      <trkpt lat="40.735159" lon="-5.759441">
        <ele>948.242</ele>
        <time>2019-03-02T03:31:02Z</time>
      </trkpt>
      <trkpt lat="40.735322" lon="-5.759445">
        <ele>947.881</ele>
        <time>2019-03-02T03:31:09Z</time>
      </trkpt>
      <trkpt lat="40.735342" lon="-5.759446">
        <ele>947.861</ele>
        <time>2019-03-02T03:31:10Z</time>
      </trkpt>
      <trkpt lat="40.735353" lon="-5.759446">
        <ele>947.717</ele>
        <time>2019-03-02T03:31:14Z</time>
      </trkpt>
      <trkpt lat="40.735412" lon="-5.759438">
        <ele>947.608</ele>
        <time>2019-03-02T03:31:20Z</time>
      </trkpt>
      <trkpt lat="40.735849" lon="-5.759395">
        <ele>947.731</ele>
        <time>2019-03-02T03:31:33Z</time>
      </trkpt>
      <trkpt lat="40.736600" lon="-5.759625">
        <ele>948.732</ele>
        <time>2019-03-02T03:31:51Z</time>
      </trkpt>
      <trkpt lat="40.737166" lon="-5.759789">
        <ele>948.033</ele>
        <time>2019-03-02T03:32:04Z</time>
      </trkpt>
      <trkpt lat="40.737213" lon="-5.759785">
        <ele>948.172</ele>
        <time>2019-03-02T03:32:05Z</time>
      </trkpt>
      <trkpt lat="40.737262" lon="-5.759775">
        <ele>948.286</ele>
        <time>2019-03-02T03:32:06Z</time>
      </trkpt>
      <trkpt lat="40.737310" lon="-5.759762">
        <ele>948.459</ele>
        <time>2019-03-02T03:32:07Z</time>
      </trkpt>
      <trkpt lat="40.737356" lon="-5.759744">
        <ele>948.578</ele>
        <time>2019-03-02T03:32:08Z</time>
      </trkpt>
      <trkpt lat="40.738037" lon="-5.759339">
        <ele>950.837</ele>
        <time>2019-03-02T03:32:26Z</time>
      </trkpt>
      <trkpt lat="40.738852" lon="-5.758843">
        <ele>953.635</ele>
        <time>2019-03-02T03:32:50Z</time>
      </trkpt>
      <trkpt lat="40.739585" lon="-5.758398">
        <ele>956.386</ele>
        <time>2019-03-02T03:33:16Z</time>
      </trkpt>
      <trkpt lat="40.740038" lon="-5.758130">
        <ele>957.614</ele>
        <time>2019-03-02T03:33:33Z</time>
      </trkpt>
      <trkpt lat="40.740388" lon="-5.757875">
        <ele>958.808</ele>
        <time>2019-03-02T03:33:48Z</time>
      </trkpt>
      <trkpt lat="40.740801" lon="-5.757538">
        <ele>960.376</ele>
        <time>2019-03-02T03:34:05Z</time>
      </trkpt>
      <trkpt lat="40.741282" lon="-5.757108">
        <ele>962.137</ele>
        <time>2019-03-02T03:34:26Z</time>
      </trkpt>
      <trkpt lat="40.741827" lon="-5.756624">
        <ele>964.538</ele>
        <time>2019-03-02T03:34:50Z</time>
      </trkpt>
      <trkpt lat="40.742298" lon="-5.756195">
        <ele>965.657</ele>
        <time>2019-03-02T03:35:11Z</time>
      </trkpt>
      <trkpt lat="40.742725" lon="-5.755814">
        <ele>968.411</ele>
        <time>2019-03-02T03:35:31Z</time>
      </trkpt>
      <trkpt lat="40.743073" lon="-5.755510">
        <ele>969.894</ele>
        <time>2019-03-02T03:35:48Z</time>
      </trkpt>
      <trkpt lat="40.743518" lon="-5.755115">
        <ele>971.713</ele>
        <time>2019-03-02T03:36:09Z</time>
      </trkpt>
      <trkpt lat="40.743869" lon="-5.754789">
        <ele>973.422</ele>
        <time>2019-03-02T03:36:26Z</time>
      </trkpt>
      <trkpt lat="40.744289" lon="-5.754410">
        <ele>976.476</ele>
        <time>2019-03-02T03:36:46Z</time>
      </trkpt>
      <trkpt lat="40.744629" lon="-5.754125">
        <ele>979.390</ele>
        <time>2019-03-02T03:37:07Z</time>
      </trkpt>
      <trkpt lat="40.744937" lon="-5.753849">
        <ele>981.719</ele>
        <time>2019-03-02T03:37:28Z</time>
      </trkpt>
      <trkpt lat="40.745250" lon="-5.753574">
        <ele>985.308</ele>
        <time>2019-03-02T03:37:49Z</time>
      </trkpt>
      <trkpt lat="40.745563" lon="-5.753298">
        <ele>987.830</ele>
        <time>2019-03-02T03:38:10Z</time>
      </trkpt>
      <trkpt lat="40.745870" lon="-5.753022">
        <ele>990.921</ele>
        <time>2019-03-02T03:38:31Z</time>
      </trkpt>
      <trkpt lat="40.746098" lon="-5.752820">
        <ele>992.652</ele>
        <time>2019-03-02T03:38:46Z</time>
      </trkpt>
      <trkpt lat="40.746302" lon="-5.752632">
        <ele>993.441</ele>
        <time>2019-03-02T03:39:00Z</time>
      </trkpt>
      <trkpt lat="40.746648" lon="-5.752343">
        <ele>994.175</ele>
        <time>2019-03-02T03:39:14Z</time>
      </trkpt>
      <trkpt lat="40.747078" lon="-5.752143">
        <ele>994.718</ele>
        <time>2019-03-02T03:39:28Z</time>
      </trkpt>
      <trkpt lat="40.747719" lon="-5.752115">
        <ele>994.097</ele>
        <time>2019-03-02T03:39:42Z</time>
      </trkpt>
      <trkpt lat="40.748444" lon="-5.752103">
        <ele>991.386</ele>
        <time>2019-03-02T03:39:54Z</time>
      </trkpt>
      <trkpt lat="40.749541" lon="-5.752072">
        <ele>986.522</ele>
        <time>2019-03-02T03:40:11Z</time>
      </trkpt>
      <trkpt lat="40.750232" lon="-5.752023">
        <ele>986.262</ele>
        <time>2019-03-02T03:40:23Z</time>
      </trkpt>
      <trkpt lat="40.750669" lon="-5.751889">
        <ele>987.108</ele>
        <time>2019-03-02T03:40:37Z</time>
      </trkpt>
      <trkpt lat="40.751273" lon="-5.751676">
        <ele>989.608</ele>
        <time>2019-03-02T03:40:57Z</time>
      </trkpt>
      <trkpt lat="40.751707" lon="-5.751502">
        <ele>990.835</ele>
        <time>2019-03-02T03:41:14Z</time>
      </trkpt>
      <trkpt lat="40.751701" lon="-5.751500">
        <ele>990.896</ele>
        <time>2019-03-02T03:41:17Z</time>
      </trkpt>
      <trkpt lat="40.751750" lon="-5.751503">
        <ele>990.957</ele>
        <time>2019-03-02T03:43:14Z</time>
      </trkpt>
      <trkpt lat="40.752091" lon="-5.751397">
        <ele>991.436</ele>
        <time>2019-03-02T03:43:28Z</time>
      </trkpt>
      <trkpt lat="40.752676" lon="-5.751198">
        <ele>992.230</ele>
        <time>2019-03-02T03:43:47Z</time>
      </trkpt>
      <trkpt lat="40.753302" lon="-5.750976">
        <ele>994.113</ele>
        <time>2019-03-02T03:44:06Z</time>
      </trkpt>
      <trkpt lat="40.753744" lon="-5.750832">
        <ele>996.672</ele>
        <time>2019-03-02T03:44:24Z</time>
      </trkpt>
      <trkpt lat="40.754183" lon="-5.750690">
        <ele>998.611</ele>
        <time>2019-03-02T03:44:43Z</time>
      </trkpt>
      <trkpt lat="40.754595" lon="-5.750546">
        <ele>1000.577</ele>
        <time>2019-03-02T03:44:59Z</time>
      </trkpt>
      <trkpt lat="40.755174" lon="-5.750351">
        <ele>1002.161</ele>
        <time>2019-03-02T03:45:22Z</time>
      </trkpt>
      <trkpt lat="40.755734" lon="-5.750155">
        <ele>1003.227</ele>
        <time>2019-03-02T03:45:42Z</time>
      </trkpt>
      <trkpt lat="40.756374" lon="-5.749935">
        <ele>1001.008</ele>
        <time>2019-03-02T03:45:57Z</time>
      </trkpt>
      <trkpt lat="40.757091" lon="-5.749646">
        <ele>999.650</ele>
        <time>2019-03-02T03:46:08Z</time>
      </trkpt>
      <trkpt lat="40.757152" lon="-5.749593">
        <ele>999.481</ele>
        <time>2019-03-02T03:46:09Z</time>
      </trkpt>
      <trkpt lat="40.757207" lon="-5.749530">
        <ele>999.342</ele>
        <time>2019-03-02T03:46:10Z</time>
      </trkpt>
      <trkpt lat="40.757257" lon="-5.749457">
        <ele>999.011</ele>
        <time>2019-03-02T03:46:11Z</time>
      </trkpt>
      <trkpt lat="40.757305" lon="-5.749379">
        <ele>998.755</ele>
        <time>2019-03-02T03:46:12Z</time>
      </trkpt>
      <trkpt lat="40.757984" lon="-5.748047">
        <ele>993.718</ele>
        <time>2019-03-02T03:46:26Z</time>
      </trkpt>
      <trkpt lat="40.758405" lon="-5.747231">
        <ele>990.027</ele>
        <time>2019-03-02T03:46:34Z</time>
      </trkpt>
      <trkpt lat="40.758865" lon="-5.746605">
        <ele>987.476</ele>
        <time>2019-03-02T03:46:41Z</time>
      </trkpt>
      <trkpt lat="40.759526" lon="-5.746011">
        <ele>983.976</ele>
        <time>2019-03-02T03:46:49Z</time>
      </trkpt>
      <trkpt lat="40.760292" lon="-5.745337">
        <ele>982.190</ele>
        <time>2019-03-02T03:46:59Z</time>
      </trkpt>
      <trkpt lat="40.761247" lon="-5.744507">
        <ele>982.319</ele>
        <time>2019-03-02T03:47:15Z</time>
      </trkpt>
      <trkpt lat="40.762009" lon="-5.743845">
        <ele>983.308</ele>
        <time>2019-03-02T03:47:30Z</time>
      </trkpt>
      <trkpt lat="40.762598" lon="-5.743318">
        <ele>984.540</ele>
        <time>2019-03-02T03:47:45Z</time>
      </trkpt>
      <trkpt lat="40.763336" lon="-5.742662">
        <ele>986.341</ele>
        <time>2019-03-02T03:48:08Z</time>
      </trkpt>
      <trkpt lat="40.764012" lon="-5.742081">
        <ele>987.512</ele>
        <time>2019-03-02T03:48:28Z</time>
      </trkpt>
      <trkpt lat="40.764502" lon="-5.741645">
        <ele>988.011</ele>
        <time>2019-03-02T03:48:42Z</time>
      </trkpt>
      <trkpt lat="40.765366" lon="-5.740896">
        <ele>988.845</ele>
        <time>2019-03-02T03:49:03Z</time>
      </trkpt>
      <trkpt lat="40.766104" lon="-5.740228">
        <ele>988.878</ele>
        <time>2019-03-02T03:49:19Z</time>
      </trkpt>
      <trkpt lat="40.767111" lon="-5.739340">
        <ele>988.247</ele>
        <time>2019-03-02T03:49:39Z</time>
      </trkpt>
      <trkpt lat="40.768177" lon="-5.738401">
        <ele>987.376</ele>
        <time>2019-03-02T03:50:00Z</time>
      </trkpt>
      <trkpt lat="40.768941" lon="-5.737717">
        <ele>988.142</ele>
        <time>2019-03-02T03:50:17Z</time>
      </trkpt>
      <trkpt lat="40.768977" lon="-5.737696">
        <ele>988.122</ele>
        <time>2019-03-02T03:50:18Z</time>
      </trkpt>
      <trkpt lat="40.769013" lon="-5.737682">
        <ele>988.214</ele>
        <time>2019-03-02T03:50:19Z</time>
      </trkpt>
      <trkpt lat="40.769044" lon="-5.737666">
        <ele>988.208</ele>
        <time>2019-03-02T03:50:20Z</time>
      </trkpt>
      <trkpt lat="40.769069" lon="-5.737648">
        <ele>988.267</ele>
        <time>2019-03-02T03:50:21Z</time>
      </trkpt>
      <trkpt lat="40.769089" lon="-5.737632">
        <ele>988.228</ele>
        <time>2019-03-02T03:50:22Z</time>
      </trkpt>
      <trkpt lat="40.769104" lon="-5.737626">
        <ele>988.469</ele>
        <time>2019-03-02T03:50:27Z</time>
      </trkpt>
      <trkpt lat="40.769134" lon="-5.737677">
        <ele>988.618</ele>
        <time>2019-03-02T03:50:56Z</time>
      </trkpt>
      <trkpt lat="40.769141" lon="-5.737699">
        <ele>988.742</ele>
        <time>2019-03-02T03:50:57Z</time>
      </trkpt>
      <trkpt lat="40.769187" lon="-5.737787">
        <ele>989.145</ele>
        <time>2019-03-02T03:51:01Z</time>
      </trkpt>
      <trkpt lat="40.769211" lon="-5.737793">
        <ele>989.254</ele>
        <time>2019-03-02T03:51:02Z</time>
      </trkpt>
      <trkpt lat="40.769240" lon="-5.737788">
        <ele>989.463</ele>
        <time>2019-03-02T03:51:08Z</time>
      </trkpt>
      <trkpt lat="40.769297" lon="-5.737773">
        <ele>989.776</ele>
        <time>2019-03-02T03:51:35Z</time>
      </trkpt>
      <trkpt lat="40.769559" lon="-5.737637">
        <ele>990.990</ele>
        <time>2019-03-02T03:51:47Z</time>
      </trkpt>
      <trkpt lat="40.769934" lon="-5.737590">
        <ele>992.019</ele>
        <time>2019-03-02T03:52:04Z</time>
      </trkpt>
      <trkpt lat="40.770347" lon="-5.737519">
        <ele>992.908</ele>
        <time>2019-03-02T03:52:22Z</time>
      </trkpt>
      <trkpt lat="40.770938" lon="-5.737398">
        <ele>994.280</ele>
        <time>2019-03-02T03:52:45Z</time>
      </trkpt>
      <trkpt lat="40.771525" lon="-5.737235">
        <ele>995.941</ele>
        <time>2019-03-02T03:53:07Z</time>
      </trkpt>
      <trkpt lat="40.772080" lon="-5.737223">
        <ele>998.272</ele>
        <time>2019-03-02T03:53:28Z</time>
      </trkpt>
      <trkpt lat="40.772563" lon="-5.737248">
        <ele>1000.391</ele>
        <time>2019-03-02T03:53:49Z</time>
      </trkpt>
      <trkpt lat="40.772639" lon="-5.737246">
        <ele>1000.685</ele>
        <time>2019-03-02T03:53:57Z</time>
      </trkpt>
      <trkpt lat="40.772681" lon="-5.737253">
        <ele>1000.818</ele>
        <time>2019-03-02T03:54:33Z</time>
      </trkpt>
      <trkpt lat="40.773107" lon="-5.737274">
        <ele>1002.627</ele>
        <time>2019-03-02T03:54:52Z</time>
      </trkpt>
      <trkpt lat="40.773481" lon="-5.737272">
        <ele>1004.156</ele>
        <time>2019-03-02T03:55:09Z</time>
      </trkpt>
      <trkpt lat="40.774013" lon="-5.737283">
        <ele>1006.281</ele>
        <time>2019-03-02T03:55:33Z</time>
      </trkpt>
      <trkpt lat="40.774444" lon="-5.737297">
        <ele>1008.461</ele>
        <time>2019-03-02T03:55:53Z</time>
      </trkpt>
      <trkpt lat="40.774897" lon="-5.737312">
        <ele>1010.017</ele>
        <time>2019-03-02T03:56:12Z</time>
      </trkpt>
      <trkpt lat="40.775306" lon="-5.737320">
        <ele>1011.708</ele>
        <time>2019-03-02T03:56:30Z</time>
      </trkpt>
      <trkpt lat="40.775711" lon="-5.737328">
        <ele>1012.971</ele>
        <time>2019-03-02T03:56:47Z</time>
      </trkpt>
      <trkpt lat="40.776065" lon="-5.737360">
        <ele>1014.852</ele>
        <time>2019-03-02T03:57:03Z</time>
      </trkpt>
      <trkpt lat="40.776432" lon="-5.737365">
        <ele>1017.183</ele>
        <time>2019-03-02T03:57:23Z</time>
      </trkpt>
      <trkpt lat="40.776719" lon="-5.737393">
        <ele>1018.642</ele>
        <time>2019-03-02T03:57:39Z</time>
      </trkpt>
      <trkpt lat="40.777047" lon="-5.737419">
        <ele>1021.086</ele>
        <time>2019-03-02T03:57:58Z</time>
      </trkpt>
      <trkpt lat="40.777365" lon="-5.737455">
        <ele>1022.429</ele>
        <time>2019-03-02T03:58:16Z</time>
      </trkpt>
      <trkpt lat="40.777606" lon="-5.737518">
        <ele>1023.358</ele>
        <time>2019-03-02T03:58:30Z</time>
      </trkpt>
      <trkpt lat="40.777897" lon="-5.737607">
        <ele>1024.097</ele>
        <time>2019-03-02T03:58:45Z</time>
      </trkpt>
      <trkpt lat="40.778265" lon="-5.737800">
        <ele>1023.033</ele>
        <time>2019-03-02T03:59:02Z</time>
      </trkpt>
      <trkpt lat="40.778627" lon="-5.738043">
        <ele>1020.023</ele>
        <time>2019-03-02T03:59:14Z</time>
      </trkpt>
      <trkpt lat="40.779003" lon="-5.738172">
        <ele>1015.315</ele>
        <time>2019-03-02T03:59:25Z</time>
      </trkpt>
      <trkpt lat="40.779286" lon="-5.738330">
        <ele>1012.208</ele>
        <time>2019-03-02T03:59:34Z</time>
      </trkpt>
      <trkpt lat="40.779333" lon="-5.738364">
        <ele>1011.896</ele>
        <time>2019-03-02T03:59:35Z</time>
      </trkpt>
      <trkpt lat="40.779381" lon="-5.738400">
        <ele>1011.457</ele>
        <time>2019-03-02T03:59:36Z</time>
      </trkpt>
      <trkpt lat="40.779428" lon="-5.738435">
        <ele>1011.048</ele>
        <time>2019-03-02T03:59:37Z</time>
      </trkpt>
      <trkpt lat="40.779480" lon="-5.738469">
        <ele>1010.697</ele>
        <time>2019-03-02T03:59:38Z</time>
      </trkpt>
      <trkpt lat="40.779577" lon="-5.738542">
        <ele>1010.111</ele>
        <time>2019-03-02T03:59:40Z</time>
      </trkpt>
      <trkpt lat="40.779619" lon="-5.738578">
        <ele>1009.994</ele>
        <time>2019-03-02T03:59:41Z</time>
      </trkpt>
      <trkpt lat="40.779669" lon="-5.738611">
        <ele>1009.663</ele>
        <time>2019-03-02T03:59:42Z</time>
      </trkpt>
      <trkpt lat="40.780002" lon="-5.738818">
        <ele>1008.092</ele>
        <time>2019-03-02T03:59:51Z</time>
      </trkpt>
      <trkpt lat="40.780336" lon="-5.739036">
        <ele>1006.753</ele>
        <time>2019-03-02T04:00:03Z</time>
      </trkpt>
      <trkpt lat="40.780557" lon="-5.738986">
        <ele>1006.704</ele>
        <time>2019-03-02T04:00:14Z</time>
      </trkpt>
      <trkpt lat="40.780569" lon="-5.738981">
        <ele>1006.714</ele>
        <time>2019-03-02T04:00:18Z</time>
      </trkpt>
      <trkpt lat="40.780602" lon="-5.738952">
        <ele>1006.708</ele>
        <time>2019-03-02T04:00:39Z</time>
      </trkpt>
      <trkpt lat="40.780770" lon="-5.738845">
        <ele>1007.968</ele>
        <time>2019-03-02T04:00:56Z</time>
      </trkpt>
      <trkpt lat="40.780861" lon="-5.738800">
        <ele>1008.579</ele>
        <time>2019-03-02T04:01:08Z</time>
      </trkpt>
      <trkpt lat="40.780951" lon="-5.738716">
        <ele>1009.560</ele>
        <time>2019-03-02T04:01:22Z</time>
      </trkpt>
      <trkpt lat="40.781191" lon="-5.738218">
        <ele>1012.819</ele>
        <time>2019-03-02T04:02:52Z</time>
      </trkpt>
      <trkpt lat="40.781197" lon="-5.738129">
        <ele>1013.413</ele>
        <time>2019-03-02T04:02:58Z</time>
      </trkpt>
      <trkpt lat="40.781212" lon="-5.738102">
        <ele>1013.956</ele>
        <time>2019-03-02T04:03:05Z</time>
      </trkpt>
      <trkpt lat="40.781228" lon="-5.738162">
        <ele>1014.085</ele>
        <time>2019-03-02T04:03:17Z</time>
      </trkpt>
      <trkpt lat="40.781204" lon="-5.738261">
        <ele>1014.134</ele>
        <time>2019-03-02T04:03:29Z</time>
      </trkpt>
      <trkpt lat="40.781229" lon="-5.738318">
        <ele>1014.182</ele>
        <time>2019-03-02T04:03:33Z</time>
      </trkpt>
      <trkpt lat="40.781259" lon="-5.738474">
        <ele>1013.043</ele>
        <time>2019-03-02T04:03:43Z</time>
      </trkpt>
      <trkpt lat="40.781249" lon="-5.738638">
        <ele>1012.617</ele>
        <time>2019-03-02T04:03:55Z</time>
      </trkpt>
      <trkpt lat="40.781474" lon="-5.738852">
        <ele>1009.508</ele>
        <time>2019-03-02T04:04:14Z</time>
      </trkpt>
      <trkpt lat="40.781726" lon="-5.738967">
        <ele>1005.991</ele>
        <time>2019-03-02T04:04:33Z</time>
      </trkpt>
      <trkpt lat="40.781806" lon="-5.739068">
        <ele>1005.342</ele>
        <time>2019-03-02T04:04:41Z</time>
      </trkpt>
      <trkpt lat="40.781965" lon="-5.739085">
        <ele>1004.643</ele>
        <time>2019-03-02T04:04:53Z</time>
      </trkpt>
      <trkpt lat="40.782410" lon="-5.739044">
        <ele>1001.742</ele>
        <time>2019-03-02T04:05:06Z</time>
      </trkpt>
      <trkpt lat="40.782458" lon="-5.739043">
        <ele>1001.326</ele>
        <time>2019-03-02T04:05:12Z</time>
      </trkpt>
      <trkpt lat="40.782523" lon="-5.739040">
        <ele>1000.879</ele>
        <time>2019-03-02T04:05:35Z</time>
      </trkpt>
      <trkpt lat="40.783028" lon="-5.739022">
        <ele>997.188</ele>
        <time>2019-03-02T04:05:44Z</time>
      </trkpt>
      <trkpt lat="40.783311" lon="-5.739020">
        <ele>995.597</ele>
        <time>2019-03-02T04:05:48Z</time>
      </trkpt>
      <trkpt lat="40.783373" lon="-5.739026">
        <ele>995.284</ele>
        <time>2019-03-02T04:05:49Z</time>
      </trkpt>
      <trkpt lat="40.783433" lon="-5.739025">
        <ele>994.807</ele>
        <time>2019-03-02T04:05:50Z</time>
      </trkpt>
      <trkpt lat="40.783549" lon="-5.739017">
        <ele>994.117</ele>
        <time>2019-03-02T04:05:52Z</time>
      </trkpt>
      <trkpt lat="40.783836" lon="-5.739003">
        <ele>992.208</ele>
        <time>2019-03-02T04:05:57Z</time>
      </trkpt>
      <trkpt lat="40.783887" lon="-5.738985">
        <ele>991.951</ele>
        <time>2019-03-02T04:05:58Z</time>
      </trkpt>
      <trkpt lat="40.783939" lon="-5.738955">
        <ele>991.542</ele>
        <time>2019-03-02T04:05:59Z</time>
      </trkpt>
      <trkpt lat="40.784485" lon="-5.738538">
        <ele>987.723</ele>
        <time>2019-03-02T04:06:08Z</time>
      </trkpt>
      <trkpt lat="40.785077" lon="-5.738091">
        <ele>983.842</ele>
        <time>2019-03-02T04:06:16Z</time>
      </trkpt>
      <trkpt lat="40.785724" lon="-5.737608">
        <ele>979.836</ele>
        <time>2019-03-02T04:06:24Z</time>
      </trkpt>
      <trkpt lat="40.786265" lon="-5.737217">
        <ele>977.569</ele>
        <time>2019-03-02T04:06:31Z</time>
      </trkpt>
      <trkpt lat="40.786740" lon="-5.736856">
        <ele>975.278</ele>
        <time>2019-03-02T04:06:40Z</time>
      </trkpt>
      <trkpt lat="40.786780" lon="-5.736644">
        <ele>974.637</ele>
        <time>2019-03-02T04:06:45Z</time>
      </trkpt>
      <trkpt lat="40.786802" lon="-5.736611">
        <ele>974.641</ele>
        <time>2019-03-02T04:06:46Z</time>
      </trkpt>
      <trkpt lat="40.786836" lon="-5.736596">
        <ele>974.681</ele>
        <time>2019-03-02T04:06:47Z</time>
      </trkpt>
      <trkpt lat="40.786875" lon="-5.736592">
        <ele>974.509</ele>
        <time>2019-03-02T04:06:48Z</time>
      </trkpt>
      <trkpt lat="40.786917" lon="-5.736596">
        <ele>974.508</ele>
        <time>2019-03-02T04:06:49Z</time>
      </trkpt>
      <trkpt lat="40.786958" lon="-5.736604">
        <ele>974.497</ele>
        <time>2019-03-02T04:06:50Z</time>
      </trkpt>
      <trkpt lat="40.787138" lon="-5.736619">
        <ele>974.038</ele>
        <time>2019-03-02T04:06:54Z</time>
      </trkpt>
      <trkpt lat="40.788027" lon="-5.736734">
        <ele>972.689</ele>
        <time>2019-03-02T04:07:09Z</time>
      </trkpt>
      <trkpt lat="40.788735" lon="-5.737194">
        <ele>972.578</ele>
        <time>2019-03-02T04:07:21Z</time>
      </trkpt>
      <trkpt lat="40.789064" lon="-5.737624">
        <ele>972.262</ele>
        <time>2019-03-02T04:07:30Z</time>
      </trkpt>
      <trkpt lat="40.789103" lon="-5.737616">
        <ele>972.415</ele>
        <time>2019-03-02T04:07:31Z</time>
      </trkpt>
      <trkpt lat="40.789185" lon="-5.737534">
        <ele>973.044</ele>
        <time>2019-03-02T04:07:34Z</time>
      </trkpt>
      <trkpt lat="40.789266" lon="-5.737508">
        <ele>973.283</ele>
        <time>2019-03-02T04:07:39Z</time>
      </trkpt>
      <trkpt lat="40.789283" lon="-5.737552">
        <ele>973.358</ele>
        <time>2019-03-02T04:07:42Z</time>
      </trkpt>
      <trkpt lat="40.789351" lon="-5.737575">
        <ele>973.552</ele>
        <time>2019-03-02T04:07:47Z</time>
      </trkpt>
      <trkpt lat="40.789516" lon="-5.737602">
        <ele>974.417</ele>
        <time>2019-03-02T04:07:59Z</time>
      </trkpt>
      <trkpt lat="40.789515" lon="-5.737613">
        <ele>974.408</ele>
        <time>2019-03-02T04:08:01Z</time>
      </trkpt>
      <trkpt lat="40.789658" lon="-5.737561">
        <ele>975.248</ele>
        <time>2019-03-02T04:27:00Z</time>
      </trkpt>
      <trkpt lat="40.789783" lon="-5.737629">
        <ele>975.389</ele>
        <time>2019-03-02T04:27:07Z</time>
      </trkpt>
      <trkpt lat="40.789825" lon="-5.737639">
        <ele>975.430</ele>
        <time>2019-03-02T04:27:10Z</time>
      </trkpt>
      <trkpt lat="40.789872" lon="-5.737603">
        <ele>975.569</ele>
        <time>2019-03-02T04:27:16Z</time>
      </trkpt>
      <trkpt lat="40.790029" lon="-5.737635">
        <ele>975.413</ele>
        <time>2019-03-02T04:27:26Z</time>
      </trkpt>
      <trkpt lat="40.790172" lon="-5.737531">
        <ele>975.356</ele>
        <time>2019-03-02T04:27:35Z</time>
      </trkpt>
      <trkpt lat="40.790261" lon="-5.737498">
        <ele>975.375</ele>
        <time>2019-03-02T04:27:44Z</time>
      </trkpt>
      <trkpt lat="40.790299" lon="-5.737397">
        <ele>975.494</ele>
        <time>2019-03-02T04:27:54Z</time>
      </trkpt>
      <trkpt lat="40.790265" lon="-5.737343">
        <ele>975.569</ele>
        <time>2019-03-02T04:27:57Z</time>
      </trkpt>
      <trkpt lat="40.790146" lon="-5.736885">
        <ele>976.104</ele>
        <time>2019-03-02T04:28:13Z</time>
      </trkpt>
      <trkpt lat="40.789992" lon="-5.736512">
        <ele>976.524</ele>
        <time>2019-03-02T04:28:25Z</time>
      </trkpt>
      <trkpt lat="40.789897" lon="-5.735857">
        <ele>977.008</ele>
        <time>2019-03-02T04:28:40Z</time>
      </trkpt>
      <trkpt lat="40.789874" lon="-5.735790">
        <ele>977.269</ele>
        <time>2019-03-02T04:28:46Z</time>
      </trkpt>
      <trkpt lat="40.789883" lon="-5.735678">
        <ele>977.340</ele>
        <time>2019-03-02T04:31:26Z</time>
      </trkpt>
      <trkpt lat="40.789880" lon="-5.735471">
        <ele>977.311</ele>
        <time>2019-03-02T04:31:32Z</time>
      </trkpt>
      <trkpt lat="40.789887" lon="-5.734832">
        <ele>977.690</ele>
        <time>2019-03-02T04:31:45Z</time>
      </trkpt>
      <trkpt lat="40.789918" lon="-5.734245">
        <ele>977.984</ele>
        <time>2019-03-02T04:31:56Z</time>
      </trkpt>
      <trkpt lat="40.789909" lon="-5.734141">
        <ele>977.987</ele>
        <time>2019-03-02T04:31:58Z</time>
      </trkpt>
      <trkpt lat="40.789909" lon="-5.733481">
        <ele>977.166</ele>
        <time>2019-03-02T04:32:12Z</time>
      </trkpt>
      <trkpt lat="40.789912" lon="-5.732928">
        <ele>977.235</ele>
        <time>2019-03-02T04:32:25Z</time>
      </trkpt>
      <trkpt lat="40.789914" lon="-5.731967">
        <ele>978.162</ele>
        <time>2019-03-02T04:32:45Z</time>
      </trkpt>
      <trkpt lat="40.789933" lon="-5.731081">
        <ele>979.883</ele>
        <time>2019-03-02T04:33:04Z</time>
      </trkpt>
      <trkpt lat="40.789932" lon="-5.730236">
        <ele>981.611</ele>
        <time>2019-03-02T04:33:25Z</time>
      </trkpt>
      <trkpt lat="40.789918" lon="-5.729360">
        <ele>983.008</ele>
        <time>2019-03-02T04:33:46Z</time>
      </trkpt>
      <trkpt lat="40.789886" lon="-5.728806">
        <ele>983.969</ele>
        <time>2019-03-02T04:34:00Z</time>
      </trkpt>
      <trkpt lat="40.789824" lon="-5.728372">
        <ele>984.360</ele>
        <time>2019-03-02T04:34:11Z</time>
      </trkpt>
      <trkpt lat="40.789795" lon="-5.727772">
        <ele>985.251</ele>
        <time>2019-03-02T04:34:27Z</time>
      </trkpt>
      <trkpt lat="40.789747" lon="-5.726921">
        <ele>985.890</ele>
        <time>2019-03-02T04:34:43Z</time>
      </trkpt>
      <trkpt lat="40.789471" lon="-5.725788">
        <ele>983.354</ele>
        <time>2019-03-02T04:34:56Z</time>
      </trkpt>
      <trkpt lat="40.789413" lon="-5.724895">
        <ele>979.947</ele>
        <time>2019-03-02T04:35:05Z</time>
      </trkpt>
      <trkpt lat="40.789449" lon="-5.724611">
        <ele>978.826</ele>
        <time>2019-03-02T04:35:08Z</time>
      </trkpt>
      <trkpt lat="40.789477" lon="-5.724524">
        <ele>978.665</ele>
        <time>2019-03-02T04:35:09Z</time>
      </trkpt>
      <trkpt lat="40.789516" lon="-5.724448">
        <ele>978.471</ele>
        <time>2019-03-02T04:35:10Z</time>
      </trkpt>
      <trkpt lat="40.789561" lon="-5.724380">
        <ele>978.341</ele>
        <time>2019-03-02T04:35:11Z</time>
      </trkpt>
      <trkpt lat="40.789611" lon="-5.724318">
        <ele>978.115</ele>
        <time>2019-03-02T04:35:12Z</time>
      </trkpt>
      <trkpt lat="40.790555" lon="-5.723312">
        <ele>974.408</ele>
        <time>2019-03-02T04:35:28Z</time>
      </trkpt>
      <trkpt lat="40.791458" lon="-5.722384">
        <ele>972.580</ele>
        <time>2019-03-02T04:35:43Z</time>
      </trkpt>
      <trkpt lat="40.792313" lon="-5.721480">
        <ele>971.341</ele>
        <time>2019-03-02T04:35:59Z</time>
      </trkpt>
      <trkpt lat="40.792570" lon="-5.721213">
        <ele>970.632</ele>
        <time>2019-03-02T04:36:04Z</time>
      </trkpt>
      <trkpt lat="40.793383" lon="-5.720385">
        <ele>968.261</ele>
        <time>2019-03-02T04:36:19Z</time>
      </trkpt>
      <trkpt lat="40.793673" lon="-5.720024">
        <ele>967.295</ele>
        <time>2019-03-02T04:36:25Z</time>
      </trkpt>
      <trkpt lat="40.794377" lon="-5.718770">
        <ele>963.278</ele>
        <time>2019-03-02T04:36:40Z</time>
      </trkpt>
      <trkpt lat="40.795116" lon="-5.717718">
        <ele>962.157</ele>
        <time>2019-03-02T04:36:54Z</time>
      </trkpt>
      <trkpt lat="40.795380" lon="-5.717367">
        <ele>961.366</ele>
        <time>2019-03-02T04:37:00Z</time>
      </trkpt>
      <trkpt lat="40.795426" lon="-5.717323">
        <ele>961.252</ele>
        <time>2019-03-02T04:37:01Z</time>
      </trkpt>
      <trkpt lat="40.796101" lon="-5.716412">
        <ele>960.453</ele>
        <time>2019-03-02T04:37:17Z</time>
      </trkpt>
      <trkpt lat="40.796893" lon="-5.715672">
        <ele>959.308</ele>
        <time>2019-03-02T04:37:34Z</time>
      </trkpt>
      <trkpt lat="40.797622" lon="-5.714795">
        <ele>957.408</ele>
        <time>2019-03-02T04:37:48Z</time>
      </trkpt>
      <trkpt lat="40.798301" lon="-5.713818">
        <ele>955.458</ele>
        <time>2019-03-02T04:38:04Z</time>
      </trkpt>
      <trkpt lat="40.798967" lon="-5.712759">
        <ele>955.399</ele>
        <time>2019-03-02T04:38:20Z</time>
      </trkpt>
      <trkpt lat="40.799204" lon="-5.711846">
        <ele>955.260</ele>
        <time>2019-03-02T04:38:34Z</time>
      </trkpt>
      <trkpt lat="40.799315" lon="-5.711092">
        <ele>956.549</ele>
        <time>2019-03-02T04:38:50Z</time>
      </trkpt>
      <trkpt lat="40.799618" lon="-5.710113">
        <ele>955.933</ele>
        <time>2019-03-02T04:39:12Z</time>
      </trkpt>
      <trkpt lat="40.799954" lon="-5.709104">
        <ele>951.726</ele>
        <time>2019-03-02T04:39:25Z</time>
      </trkpt>
      <trkpt lat="40.800244" lon="-5.708229">
        <ele>949.615</ele>
        <time>2019-03-02T04:39:34Z</time>
      </trkpt>
      <trkpt lat="40.800534" lon="-5.707323">
        <ele>950.714</ele>
        <time>2019-03-02T04:39:46Z</time>
      </trkpt>
      <trkpt lat="40.800711" lon="-5.706849">
        <ele>951.984</ele>
        <time>2019-03-02T04:39:58Z</time>
      </trkpt>
      <trkpt lat="40.801008" lon="-5.706130">
        <ele>952.707</ele>
        <time>2019-03-02T04:40:17Z</time>
      </trkpt>
      <trkpt lat="40.801187" lon="-5.705750">
        <ele>952.217</ele>
        <time>2019-03-02T04:40:25Z</time>
      </trkpt>
      <trkpt lat="40.801206" lon="-5.705696">
        <ele>952.108</ele>
        <time>2019-03-02T04:40:26Z</time>
      </trkpt>
      <trkpt lat="40.801228" lon="-5.705643">
        <ele>952.021</ele>
        <time>2019-03-02T04:40:27Z</time>
      </trkpt>
      <trkpt lat="40.801254" lon="-5.705593">
        <ele>951.962</ele>
        <time>2019-03-02T04:40:28Z</time>
      </trkpt>
      <trkpt lat="40.801282" lon="-5.705544">
        <ele>951.843</ele>
        <time>2019-03-02T04:40:29Z</time>
      </trkpt>
      <trkpt lat="40.801334" lon="-5.705450">
        <ele>951.592</ele>
        <time>2019-03-02T04:40:31Z</time>
      </trkpt>
      <trkpt lat="40.801800" lon="-5.704591">
        <ele>948.776</ele>
        <time>2019-03-02T04:40:45Z</time>
      </trkpt>
      <trkpt lat="40.802050" lon="-5.704125">
        <ele>946.819</ele>
        <time>2019-03-02T04:40:51Z</time>
      </trkpt>
      <trkpt lat="40.802105" lon="-5.704054">
        <ele>946.568</ele>
        <time>2019-03-02T04:40:52Z</time>
      </trkpt>
      <trkpt lat="40.802165" lon="-5.703991">
        <ele>946.347</ele>
        <time>2019-03-02T04:40:53Z</time>
      </trkpt>
      <trkpt lat="40.802353" lon="-5.703830">
        <ele>945.728</ele>
        <time>2019-03-02T04:40:58Z</time>
      </trkpt>
      <trkpt lat="40.802365" lon="-5.703837">
        <ele>945.789</ele>
        <time>2019-03-02T04:40:59Z</time>
      </trkpt>
      <trkpt lat="40.802367" lon="-5.703856">
        <ele>945.717</ele>
        <time>2019-03-02T04:41:00Z</time>
      </trkpt>
      <trkpt lat="40.802364" lon="-5.703874">
        <ele>945.608</ele>
        <time>2019-03-02T04:41:01Z</time>
      </trkpt>
      <trkpt lat="40.802352" lon="-5.703890">
        <ele>945.675</ele>
        <time>2019-03-02T04:41:02Z</time>
      </trkpt>
      <trkpt lat="40.802333" lon="-5.703903">
        <ele>945.556</ele>
        <time>2019-03-02T04:41:03Z</time>
      </trkpt>
      <trkpt lat="40.802310" lon="-5.703908">
        <ele>945.587</ele>
        <time>2019-03-02T04:41:04Z</time>
      </trkpt>
      <trkpt lat="40.802286" lon="-5.703909">
        <ele>945.456</ele>
        <time>2019-03-02T04:41:05Z</time>
      </trkpt>
      <trkpt lat="40.802262" lon="-5.703909">
        <ele>945.350</ele>
        <time>2019-03-02T04:41:06Z</time>
      </trkpt>
      <trkpt lat="40.802242" lon="-5.703903">
        <ele>945.373</ele>
        <time>2019-03-02T04:41:07Z</time>
      </trkpt>
      <trkpt lat="40.802232" lon="-5.703889">
        <ele>945.282</ele>
        <time>2019-03-02T04:41:08Z</time>
      </trkpt>
      <trkpt lat="40.802232" lon="-5.703868">
        <ele>945.211</ele>
        <time>2019-03-02T04:41:09Z</time>
      </trkpt>
      <trkpt lat="40.802240" lon="-5.703841">
        <ele>945.158</ele>
        <time>2019-03-02T04:41:10Z</time>
      </trkpt>
      <trkpt lat="40.802254" lon="-5.703814">
        <ele>945.152</ele>
        <time>2019-03-02T04:41:11Z</time>
      </trkpt>
      <trkpt lat="40.802272" lon="-5.703787">
        <ele>945.017</ele>
        <time>2019-03-02T04:41:12Z</time>
      </trkpt>
      <trkpt lat="40.802291" lon="-5.703759">
        <ele>944.908</ele>
        <time>2019-03-02T04:41:13Z</time>
      </trkpt>
      <trkpt lat="40.802419" lon="-5.703575">
        <ele>944.368</ele>
        <time>2019-03-02T04:41:18Z</time>
      </trkpt>
      <trkpt lat="40.802445" lon="-5.703529">
        <ele>944.259</ele>
        <time>2019-03-02T04:41:19Z</time>
      </trkpt>
      <trkpt lat="40.802807" lon="-5.702740">
        <ele>941.490</ele>
        <time>2019-03-02T04:41:34Z</time>
      </trkpt>
      <trkpt lat="40.802811" lon="-5.702740">
        <ele>941.429</ele>
        <time>2019-03-02T04:41:38Z</time>
      </trkpt>
      <trkpt lat="40.802855" lon="-5.702638">
        <ele>941.133</ele>
        <time>2019-03-02T04:42:01Z</time>
      </trkpt>
      <trkpt lat="40.802962" lon="-5.702340">
        <ele>940.426</ele>
        <time>2019-03-02T04:42:07Z</time>
      </trkpt>
      <trkpt lat="40.802981" lon="-5.702286">
        <ele>940.265</ele>
        <time>2019-03-02T04:42:08Z</time>
      </trkpt>
      <trkpt lat="40.803010" lon="-5.702179">
        <ele>939.984</ele>
        <time>2019-03-02T04:42:10Z</time>
      </trkpt>
      <trkpt lat="40.803030" lon="-5.702128">
        <ele>939.856</ele>
        <time>2019-03-02T04:42:11Z</time>
      </trkpt>
      <trkpt lat="40.803075" lon="-5.702032">
        <ele>939.559</ele>
        <time>2019-03-02T04:42:13Z</time>
      </trkpt>
      <trkpt lat="40.803100" lon="-5.701991">
        <ele>939.314</ele>
        <time>2019-03-02T04:42:14Z</time>
      </trkpt>
      <trkpt lat="40.803127" lon="-5.701954">
        <ele>939.108</ele>
        <time>2019-03-02T04:42:15Z</time>
      </trkpt>
      <trkpt lat="40.803243" lon="-5.701815">
        <ele>938.738</ele>
        <time>2019-03-02T04:42:19Z</time>
      </trkpt>
      <trkpt lat="40.803621" lon="-5.701314">
        <ele>937.949</ele>
        <time>2019-03-02T04:42:33Z</time>
      </trkpt>
      <trkpt lat="40.803941" lon="-5.700894">
        <ele>937.980</ele>
        <time>2019-03-02T04:42:49Z</time>
      </trkpt>
      <trkpt lat="40.804398" lon="-5.700301">
        <ele>938.819</ele>
        <time>2019-03-02T04:43:05Z</time>
      </trkpt>
      <trkpt lat="40.804429" lon="-5.700258">
        <ele>938.873</ele>
        <time>2019-03-02T04:43:06Z</time>
      </trkpt>
      <trkpt lat="40.804570" lon="-5.700022">
        <ele>938.816</ele>
        <time>2019-03-02T04:43:16Z</time>
      </trkpt>
      <trkpt lat="40.804570" lon="-5.700022">
        <ele>938.835</ele>
        <time>2019-03-02T04:43:17Z</time>
      </trkpt>
      <trkpt lat="40.804661" lon="-5.699969">
        <ele>938.834</ele>
        <time>2019-03-02T04:47:14Z</time>
      </trkpt>
      <trkpt lat="40.804683" lon="-5.699944">
        <ele>938.858</ele>
        <time>2019-03-02T04:47:15Z</time>
      </trkpt>
      <trkpt lat="40.804889" lon="-5.699802">
        <ele>938.052</ele>
        <time>2019-03-02T04:47:21Z</time>
      </trkpt>
      <trkpt lat="40.805255" lon="-5.699543">
        <ele>935.617</ele>
        <time>2019-03-02T04:47:30Z</time>
      </trkpt>
      <trkpt lat="40.805498" lon="-5.699559">
        <ele>934.508</ele>
        <time>2019-03-02T04:47:36Z</time>
      </trkpt>
      <trkpt lat="40.805481" lon="-5.699525">
        <ele>934.698</ele>
        <time>2019-03-02T04:47:42Z</time>
      </trkpt>
      <trkpt lat="40.805508" lon="-5.699233">
        <ele>934.329</ele>
        <time>2019-03-02T04:47:52Z</time>
      </trkpt>
      <trkpt lat="40.805576" lon="-5.699153">
        <ele>933.970</ele>
        <time>2019-03-02T04:47:54Z</time>
      </trkpt>
      <trkpt lat="40.805973" lon="-5.698869">
        <ele>932.629</ele>
        <time>2019-03-02T04:48:02Z</time>
      </trkpt>
      <trkpt lat="40.806302" lon="-5.698706">
        <ele>932.153</ele>
        <time>2019-03-02T04:48:07Z</time>
      </trkpt>
      <trkpt lat="40.806397" lon="-5.698628">
        <ele>931.856</ele>
        <time>2019-03-02T04:48:09Z</time>
      </trkpt>
      <trkpt lat="40.806644" lon="-5.698529">
        <ele>931.115</ele>
        <time>2019-03-02T04:48:14Z</time>
      </trkpt>
      <trkpt lat="40.806747" lon="-5.698504">
        <ele>930.844</ele>
        <time>2019-03-02T04:48:16Z</time>
      </trkpt>
      <trkpt lat="40.806936" lon="-5.698434">
        <ele>930.358</ele>
        <time>2019-03-02T04:48:20Z</time>
      </trkpt>
      <trkpt lat="40.807277" lon="-5.698386">
        <ele>930.352</ele>
        <time>2019-03-02T04:48:31Z</time>
      </trkpt>
      <trkpt lat="40.807581" lon="-5.698281">
        <ele>930.217</ele>
        <time>2019-03-02T04:48:39Z</time>
      </trkpt>
      <trkpt lat="40.807814" lon="-5.698204">
        <ele>930.508</ele>
        <time>2019-03-02T04:48:46Z</time>
      </trkpt>
      <trkpt lat="40.808014" lon="-5.698153">
        <ele>930.638</ele>
        <time>2019-03-02T04:48:54Z</time>
      </trkpt>
      <trkpt lat="40.808103" lon="-5.698179">
        <ele>930.769</ele>
        <time>2019-03-02T04:48:59Z</time>
      </trkpt>
      <trkpt lat="40.808305" lon="-5.698213">
        <ele>931.740</ele>
        <time>2019-03-02T04:49:12Z</time>
      </trkpt>
      <trkpt lat="40.808381" lon="-5.698169">
        <ele>932.349</ele>
        <time>2019-03-02T04:49:17Z</time>
      </trkpt>
      <trkpt lat="40.808630" lon="-5.697986">
        <ele>934.393</ele>
        <time>2019-03-02T04:49:32Z</time>
      </trkpt>
      <trkpt lat="40.808919" lon="-5.697681">
        <ele>935.956</ele>
        <time>2019-03-02T04:49:51Z</time>
      </trkpt>
      <trkpt lat="40.809337" lon="-5.697405">
        <ele>935.825</ele>
        <time>2019-03-02T04:50:05Z</time>
      </trkpt>
      <trkpt lat="40.809443" lon="-5.697328">
        <ele>935.434</ele>
        <time>2019-03-02T04:50:08Z</time>
      </trkpt>
      <trkpt lat="40.809475" lon="-5.697297">
        <ele>935.391</ele>
        <time>2019-03-02T04:50:09Z</time>
      </trkpt>
      <trkpt lat="40.809606" lon="-5.697151">
        <ele>934.681</ele>
        <time>2019-03-02T04:50:13Z</time>
      </trkpt>
      <trkpt lat="40.809647" lon="-5.697116">
        <ele>934.419</ele>
        <time>2019-03-02T04:50:14Z</time>
      </trkpt>
      <trkpt lat="40.809770" lon="-5.697003">
        <ele>933.808</ele>
        <time>2019-03-02T04:50:17Z</time>
      </trkpt>
      <trkpt lat="40.809810" lon="-5.696961">
        <ele>933.672</ele>
        <time>2019-03-02T04:50:18Z</time>
      </trkpt>
      <trkpt lat="40.809855" lon="-5.696925">
        <ele>933.453</ele>
        <time>2019-03-02T04:50:19Z</time>
      </trkpt>
      <trkpt lat="40.810617" lon="-5.696355">
        <ele>931.984</ele>
        <time>2019-03-02T04:50:34Z</time>
      </trkpt>
      <trkpt lat="40.811404" lon="-5.695704">
        <ele>931.723</ele>
        <time>2019-03-02T04:50:51Z</time>
      </trkpt>
      <trkpt lat="40.811959" lon="-5.695275">
        <ele>930.917</ele>
        <time>2019-03-02T04:51:04Z</time>
      </trkpt>
      <trkpt lat="40.811990" lon="-5.695233">
        <ele>930.920</ele>
        <time>2019-03-02T04:51:05Z</time>
      </trkpt>
      <trkpt lat="40.812141" lon="-5.694990">
        <ele>930.959</ele>
        <time>2019-03-02T04:51:15Z</time>
      </trkpt>
      <trkpt lat="40.812140" lon="-5.694989">
        <ele>930.998</ele>
        <time>2019-03-02T04:51:17Z</time>
      </trkpt>
      <trkpt lat="40.812187" lon="-5.695068">
        <ele>930.976</ele>
        <time>2019-03-02T04:51:42Z</time>
      </trkpt>
      <trkpt lat="40.812206" lon="-5.695084">
        <ele>930.990</ele>
        <time>2019-03-02T04:51:43Z</time>
      </trkpt>
      <trkpt lat="40.812228" lon="-5.695084">
        <ele>930.919</ele>
        <time>2019-03-02T04:51:44Z</time>
      </trkpt>
      <trkpt lat="40.812252" lon="-5.695070">
        <ele>930.908</ele>
        <time>2019-03-02T04:51:45Z</time>
      </trkpt>
      <trkpt lat="40.812275" lon="-5.695050">
        <ele>930.960</ele>
        <time>2019-03-02T04:51:46Z</time>
      </trkpt>
      <trkpt lat="40.812299" lon="-5.695027">
        <ele>930.941</ele>
        <time>2019-03-02T04:51:47Z</time>
      </trkpt>
      <trkpt lat="40.812662" lon="-5.694768">
        <ele>931.352</ele>
        <time>2019-03-02T04:51:59Z</time>
      </trkpt>
      <trkpt lat="40.813054" lon="-5.694292">
        <ele>933.091</ele>
        <time>2019-03-02T04:52:12Z</time>
      </trkpt>
      <trkpt lat="40.813554" lon="-5.693937">
        <ele>934.865</ele>
        <time>2019-03-02T04:52:30Z</time>
      </trkpt>
      <trkpt lat="40.814008" lon="-5.693719">
        <ele>936.658</ele>
        <time>2019-03-02T04:52:48Z</time>
      </trkpt>
      <trkpt lat="40.814489" lon="-5.693460">
        <ele>938.797</ele>
        <time>2019-03-02T04:53:08Z</time>
      </trkpt>
      <trkpt lat="40.814944" lon="-5.693170">
        <ele>940.256</ele>
        <time>2019-03-02T04:53:28Z</time>
      </trkpt>
      <trkpt lat="40.815256" lon="-5.693011">
        <ele>941.271</ele>
        <time>2019-03-02T04:53:41Z</time>
      </trkpt>
      <trkpt lat="40.815630" lon="-5.692777">
        <ele>942.541</ele>
        <time>2019-03-02T04:53:57Z</time>
      </trkpt>
      <trkpt lat="40.816083" lon="-5.692517">
        <ele>944.215</ele>
        <time>2019-03-02T04:54:15Z</time>
      </trkpt>
      <trkpt lat="40.816547" lon="-5.692139">
        <ele>946.008</ele>
        <time>2019-03-02T04:54:36Z</time>
      </trkpt>
      <trkpt lat="40.816970" lon="-5.691657">
        <ele>946.720</ele>
        <time>2019-03-02T04:54:56Z</time>
      </trkpt>
      <trkpt lat="40.817310" lon="-5.691262">
        <ele>946.761</ele>
        <time>2019-03-02T04:55:11Z</time>
      </trkpt>
      <trkpt lat="40.817723" lon="-5.690716">
        <ele>946.772</ele>
        <time>2019-03-02T04:55:28Z</time>
      </trkpt>
      <trkpt lat="40.818009" lon="-5.690407">
        <ele>946.791</ele>
        <time>2019-03-02T04:55:37Z</time>
      </trkpt>
      <trkpt lat="40.818408" lon="-5.689866">
        <ele>945.915</ele>
        <time>2019-03-02T04:55:52Z</time>
      </trkpt>
      <trkpt lat="40.819009" lon="-5.688920">
        <ele>944.628</ele>
        <time>2019-03-02T04:56:09Z</time>
      </trkpt>
      <trkpt lat="40.819047" lon="-5.688855">
        <ele>944.417</ele>
        <time>2019-03-02T04:56:10Z</time>
      </trkpt>
      <trkpt lat="40.819762" lon="-5.688061">
        <ele>940.846</ele>
        <time>2019-03-02T04:56:22Z</time>
      </trkpt>
      <trkpt lat="40.820835" lon="-5.687595">
        <ele>938.365</ele>
        <time>2019-03-02T04:56:34Z</time>
      </trkpt>
      <trkpt lat="40.821922" lon="-5.687165">
        <ele>935.868</ele>
        <time>2019-03-02T04:56:47Z</time>
      </trkpt>
      <trkpt lat="40.822605" lon="-5.686744">
        <ele>932.114</ele>
        <time>2019-03-02T04:56:58Z</time>
      </trkpt>
      <trkpt lat="40.822692" lon="-5.686687">
        <ele>931.308</ele>
        <time>2019-03-02T04:57:00Z</time>
      </trkpt>
      <trkpt lat="40.822733" lon="-5.686660">
        <ele>930.879</ele>
        <time>2019-03-02T04:57:01Z</time>
      </trkpt>
      <trkpt lat="40.822991" lon="-5.686446">
        <ele>927.980</ele>
        <time>2019-03-02T04:57:08Z</time>
      </trkpt>
      <trkpt lat="40.823341" lon="-5.686307">
        <ele>923.721</ele>
        <time>2019-03-02T04:57:18Z</time>
      </trkpt>
      <trkpt lat="40.823454" lon="-5.686287">
        <ele>922.350</ele>
        <time>2019-03-02T04:57:21Z</time>
      </trkpt>
      <trkpt lat="40.823497" lon="-5.686284">
        <ele>921.924</ele>
        <time>2019-03-02T04:57:22Z</time>
      </trkpt>
      <trkpt lat="40.823544" lon="-5.686286">
        <ele>921.667</ele>
        <time>2019-03-02T04:57:23Z</time>
      </trkpt>
      <trkpt lat="40.823596" lon="-5.686293">
        <ele>921.346</ele>
        <time>2019-03-02T04:57:24Z</time>
      </trkpt>
      <trkpt lat="40.823653" lon="-5.686303">
        <ele>921.125</ele>
        <time>2019-03-02T04:57:25Z</time>
      </trkpt>
      <trkpt lat="40.824210" lon="-5.686376">
        <ele>920.859</ele>
        <time>2019-03-02T04:57:34Z</time>
      </trkpt>
      <trkpt lat="40.824267" lon="-5.686365">
        <ele>920.903</ele>
        <time>2019-03-02T04:57:35Z</time>
      </trkpt>
      <trkpt lat="40.824323" lon="-5.686348">
        <ele>921.123</ele>
        <time>2019-03-02T04:57:36Z</time>
      </trkpt>
      <trkpt lat="40.824378" lon="-5.686327">
        <ele>921.308</ele>
        <time>2019-03-02T04:57:37Z</time>
      </trkpt>
      <trkpt lat="40.824432" lon="-5.686301">
        <ele>921.438</ele>
        <time>2019-03-02T04:57:38Z</time>
      </trkpt>
      <trkpt lat="40.824484" lon="-5.686271">
        <ele>921.669</ele>
        <time>2019-03-02T04:57:39Z</time>
      </trkpt>
      <trkpt lat="40.824634" lon="-5.686189">
        <ele>922.320</ele>
        <time>2019-03-02T04:57:42Z</time>
      </trkpt>
      <trkpt lat="40.824677" lon="-5.686159">
        <ele>922.519</ele>
        <time>2019-03-02T04:57:43Z</time>
      </trkpt>
      <trkpt lat="40.824892" lon="-5.686015">
        <ele>923.633</ele>
        <time>2019-03-02T04:57:48Z</time>
      </trkpt>
      <trkpt lat="40.825354" lon="-5.685472">
        <ele>926.656</ele>
        <time>2019-03-02T04:58:05Z</time>
      </trkpt>
      <trkpt lat="40.825564" lon="-5.685053">
        <ele>928.635</ele>
        <time>2019-03-02T04:58:20Z</time>
      </trkpt>
      <trkpt lat="40.825892" lon="-5.684558">
        <ele>930.574</ele>
        <time>2019-03-02T04:58:41Z</time>
      </trkpt>
      <trkpt lat="40.826215" lon="-5.684048">
        <ele>932.981</ele>
        <time>2019-03-02T04:59:02Z</time>
      </trkpt>
      <trkpt lat="40.826606" lon="-5.683532">
        <ele>937.561</ele>
        <time>2019-03-02T04:59:25Z</time>
      </trkpt>
      <trkpt lat="40.826913" lon="-5.683228">
        <ele>940.517</ele>
        <time>2019-03-02T04:59:43Z</time>
      </trkpt>
      <trkpt lat="40.827208" lon="-5.682961">
        <ele>943.708</ele>
        <time>2019-03-02T05:00:04Z</time>
      </trkpt>
      <trkpt lat="40.827447" lon="-5.682768">
        <ele>946.551</ele>
        <time>2019-03-02T05:00:22Z</time>
      </trkpt>
      <trkpt lat="40.827655" lon="-5.682655">
        <ele>948.552</ele>
        <time>2019-03-02T05:00:37Z</time>
      </trkpt>
      <trkpt lat="40.827941" lon="-5.682481">
        <ele>951.683</ele>
        <time>2019-03-02T05:00:57Z</time>
      </trkpt>
      <trkpt lat="40.828173" lon="-5.682353">
        <ele>953.782</ele>
        <time>2019-03-02T05:01:14Z</time>
      </trkpt>
      <trkpt lat="40.828469" lon="-5.682198">
        <ele>956.136</ele>
        <time>2019-03-02T05:01:34Z</time>
      </trkpt>
      <trkpt lat="40.828767" lon="-5.681979">
        <ele>957.369</ele>
        <time>2019-03-02T05:01:53Z</time>
      </trkpt>
      <trkpt lat="40.828994" lon="-5.681794">
        <ele>957.428</ele>
        <time>2019-03-02T05:02:07Z</time>
      </trkpt>
      <trkpt lat="40.829310" lon="-5.681534">
        <ele>957.477</ele>
        <time>2019-03-02T05:02:24Z</time>
      </trkpt>
      <trkpt lat="40.829719" lon="-5.681094">
        <ele>956.133</ele>
        <time>2019-03-02T05:02:40Z</time>
      </trkpt>
      <trkpt lat="40.829789" lon="-5.681036">
        <ele>955.523</ele>
        <time>2019-03-02T05:02:47Z</time>
      </trkpt>
      <trkpt lat="40.829863" lon="-5.680956">
        <ele>954.715</ele>
        <time>2019-03-02T05:04:02Z</time>
      </trkpt>
      <trkpt lat="40.829887" lon="-5.680928">
        <ele>954.408</ele>
        <time>2019-03-02T05:04:03Z</time>
      </trkpt>
      <trkpt lat="40.829910" lon="-5.680894">
        <ele>954.246</ele>
        <time>2019-03-02T05:04:04Z</time>
      </trkpt>
      <trkpt lat="40.829931" lon="-5.680856">
        <ele>953.837</ele>
        <time>2019-03-02T05:04:05Z</time>
      </trkpt>
      <trkpt lat="40.830187" lon="-5.680412">
        <ele>950.338</ele>
        <time>2019-03-02T05:04:16Z</time>
      </trkpt>
      <trkpt lat="40.830191" lon="-5.680412">
        <ele>950.337</ele>
        <time>2019-03-02T05:04:20Z</time>
      </trkpt>
      <trkpt lat="40.830267" lon="-5.680311">
        <ele>949.611</ele>
        <time>2019-03-02T05:04:44Z</time>
      </trkpt>
      <trkpt lat="40.830622" lon="-5.679919">
        <ele>946.594</ele>
        <time>2019-03-02T05:04:54Z</time>
      </trkpt>
      <trkpt lat="40.830948" lon="-5.679726">
        <ele>944.043</ele>
        <time>2019-03-02T05:05:04Z</time>
      </trkpt>
      <trkpt lat="40.831322" lon="-5.679463">
        <ele>941.712</ele>
        <time>2019-03-02T05:05:16Z</time>
      </trkpt>
      <trkpt lat="40.831819" lon="-5.679279">
        <ele>938.883</ele>
        <time>2019-03-02T05:05:28Z</time>
      </trkpt>
      <trkpt lat="40.831971" lon="-5.679258">
        <ele>937.625</ele>
        <time>2019-03-02T05:05:32Z</time>
      </trkpt>
      <trkpt lat="40.832387" lon="-5.679115">
        <ele>934.517</ele>
        <time>2019-03-02T05:05:43Z</time>
      </trkpt>
      <trkpt lat="40.832643" lon="-5.679068">
        <ele>932.708</ele>
        <time>2019-03-02T05:05:49Z</time>
      </trkpt>
      <trkpt lat="40.833147" lon="-5.678953">
        <ele>929.621</ele>
        <time>2019-03-02T05:06:00Z</time>
      </trkpt>
      <trkpt lat="40.833201" lon="-5.678939">
        <ele>929.462</ele>
        <time>2019-03-02T05:06:01Z</time>
      </trkpt>
      <trkpt lat="40.833307" lon="-5.678901">
        <ele>929.133</ele>
        <time>2019-03-02T05:06:03Z</time>
      </trkpt>
      <trkpt lat="40.833520" lon="-5.678813">
        <ele>928.122</ele>
        <time>2019-03-02T05:06:07Z</time>
      </trkpt>
      <trkpt lat="40.833632" lon="-5.678788">
        <ele>927.416</ele>
        <time>2019-03-02T05:06:09Z</time>
      </trkpt>
      <trkpt lat="40.833680" lon="-5.678773">
        <ele>927.189</ele>
        <time>2019-03-02T05:06:10Z</time>
      </trkpt>
      <trkpt lat="40.833871" lon="-5.678710">
        <ele>925.138</ele>
        <time>2019-03-02T05:06:18Z</time>
      </trkpt>
      <trkpt lat="40.833902" lon="-5.678720">
        <ele>924.617</ele>
        <time>2019-03-02T05:06:21Z</time>
      </trkpt>
      <trkpt lat="40.833915" lon="-5.678718">
        <ele>924.571</ele>
        <time>2019-03-02T05:06:22Z</time>
      </trkpt>
      <trkpt lat="40.834040" lon="-5.678686">
        <ele>923.041</ele>
        <time>2019-03-02T05:06:30Z</time>
      </trkpt>
      <trkpt lat="40.834051" lon="-5.678671">
        <ele>922.815</ele>
        <time>2019-03-02T05:06:31Z</time>
      </trkpt>
      <trkpt lat="40.834066" lon="-5.678666">
        <ele>922.608</ele>
        <time>2019-03-02T05:06:32Z</time>
      </trkpt>
      <trkpt lat="40.834423" lon="-5.678645">
        <ele>919.270</ele>
        <time>2019-03-02T05:06:42Z</time>
      </trkpt>
      <trkpt lat="40.834655" lon="-5.678607">
        <ele>918.011</ele>
        <time>2019-03-02T05:06:48Z</time>
      </trkpt>
      <trkpt lat="40.834700" lon="-5.678602">
        <ele>917.792</ele>
        <time>2019-03-02T05:06:49Z</time>
      </trkpt>
      <trkpt lat="40.834747" lon="-5.678599">
        <ele>917.481</ele>
        <time>2019-03-02T05:06:50Z</time>
      </trkpt>
      <trkpt lat="40.835179" lon="-5.678552">
        <ele>915.965</ele>
        <time>2019-03-02T05:06:59Z</time>
      </trkpt>
      <trkpt lat="40.835353" lon="-5.678565">
        <ele>915.288</ele>
        <time>2019-03-02T05:07:03Z</time>
      </trkpt>
      <trkpt lat="40.835396" lon="-5.678563">
        <ele>915.017</ele>
        <time>2019-03-02T05:07:04Z</time>
      </trkpt>
      <trkpt lat="40.835438" lon="-5.678554">
        <ele>914.946</ele>
        <time>2019-03-02T05:07:05Z</time>
      </trkpt>
      <trkpt lat="40.835476" lon="-5.678547">
        <ele>914.769</ele>
        <time>2019-03-02T05:07:06Z</time>
      </trkpt>
      <trkpt lat="40.835508" lon="-5.678546">
        <ele>914.604</ele>
        <time>2019-03-02T05:07:07Z</time>
      </trkpt>
      <trkpt lat="40.835916" lon="-5.678585">
        <ele>913.124</ele>
        <time>2019-03-02T05:07:19Z</time>
      </trkpt>
      <trkpt lat="40.836499" lon="-5.678440">
        <ele>911.408</ele>
        <time>2019-03-02T05:07:32Z</time>
      </trkpt>
      <trkpt lat="40.836763" lon="-5.678293">
        <ele>910.679</ele>
        <time>2019-03-02T05:07:37Z</time>
      </trkpt>
      <trkpt lat="40.836819" lon="-5.678277">
        <ele>910.440</ele>
        <time>2019-03-02T05:07:38Z</time>
      </trkpt>
      <trkpt lat="40.836873" lon="-5.678267">
        <ele>910.311</ele>
        <time>2019-03-02T05:07:39Z</time>
      </trkpt>
      <trkpt lat="40.837713" lon="-5.678190">
        <ele>907.520</ele>
        <time>2019-03-02T05:07:53Z</time>
      </trkpt>
      <trkpt lat="40.838310" lon="-5.678148">
        <ele>905.064</ele>
        <time>2019-03-02T05:08:02Z</time>
      </trkpt>
      <trkpt lat="40.838450" lon="-5.678114">
        <ele>904.327</ele>
        <time>2019-03-02T05:08:04Z</time>
      </trkpt>
      <trkpt lat="40.838694" lon="-5.678092">
        <ele>903.056</ele>
        <time>2019-03-02T05:08:08Z</time>
      </trkpt>
      <trkpt lat="40.838968" lon="-5.678062">
        <ele>900.985</ele>
        <time>2019-03-02T05:08:13Z</time>
      </trkpt>
      <trkpt lat="40.839077" lon="-5.678067">
        <ele>900.053</ele>
        <time>2019-03-02T05:08:15Z</time>
      </trkpt>
      <trkpt lat="40.839502" lon="-5.678096">
        <ele>897.104</ele>
        <time>2019-03-02T05:08:22Z</time>
      </trkpt>
      <trkpt lat="40.840089" lon="-5.678225">
        <ele>896.114</ele>
        <time>2019-03-02T05:08:31Z</time>
      </trkpt>
      <trkpt lat="40.840334" lon="-5.678293">
        <ele>896.108</ele>
        <time>2019-03-02T05:08:39Z</time>
      </trkpt>
      <trkpt lat="40.840330" lon="-5.678292">
        <ele>896.178</ele>
        <time>2019-03-02T05:08:42Z</time>
      </trkpt>
      <trkpt lat="40.840381" lon="-5.678307">
        <ele>896.169</ele>
        <time>2019-03-02T05:09:12Z</time>
      </trkpt>
      <trkpt lat="40.840615" lon="-5.678339">
        <ele>895.420</ele>
        <time>2019-03-02T05:09:29Z</time>
      </trkpt>
      <trkpt lat="40.840655" lon="-5.678344">
        <ele>895.219</ele>
        <time>2019-03-02T05:09:36Z</time>
      </trkpt>
      <trkpt lat="40.840693" lon="-5.678357">
        <ele>895.113</ele>
        <time>2019-03-02T05:09:43Z</time>
      </trkpt>
      <trkpt lat="40.840705" lon="-5.678365">
        <ele>895.126</ele>
        <time>2019-03-02T05:09:44Z</time>
      </trkpt>
      <trkpt lat="40.840713" lon="-5.678386">
        <ele>895.015</ele>
        <time>2019-03-02T05:09:49Z</time>
      </trkpt>
      <trkpt lat="40.840816" lon="-5.678341">
        <ele>894.864</ele>
        <time>2019-03-02T05:11:31Z</time>
      </trkpt>
      <trkpt lat="40.841042" lon="-5.678259">
        <ele>894.297</ele>
        <time>2019-03-02T05:11:37Z</time>
      </trkpt>
      <trkpt lat="40.841238" lon="-5.678144">
        <ele>893.423</ele>
        <time>2019-03-02T05:11:41Z</time>
      </trkpt>
      <trkpt lat="40.841421" lon="-5.678016">
        <ele>892.425</ele>
        <time>2019-03-02T05:11:45Z</time>
      </trkpt>
      <trkpt lat="40.841588" lon="-5.677883">
        <ele>891.308</ele>
        <time>2019-03-02T05:11:49Z</time>
      </trkpt>
      <trkpt lat="40.842013" lon="-5.677527">
        <ele>887.852</ele>
        <time>2019-03-02T05:11:57Z</time>
      </trkpt>
      <trkpt lat="40.842108" lon="-5.677470">
        <ele>887.033</ele>
        <time>2019-03-02T05:11:59Z</time>
      </trkpt>
      <trkpt lat="40.842150" lon="-5.677434">
        <ele>886.734</ele>
        <time>2019-03-02T05:12:00Z</time>
      </trkpt>
      <trkpt lat="40.842189" lon="-5.677393">
        <ele>886.343</ele>
        <time>2019-03-02T05:12:01Z</time>
      </trkpt>
      <trkpt lat="40.842437" lon="-5.677076">
        <ele>883.857</ele>
        <time>2019-03-02T05:12:08Z</time>
      </trkpt>
      <trkpt lat="40.842481" lon="-5.677033">
        <ele>883.490</ele>
        <time>2019-03-02T05:12:09Z</time>
      </trkpt>
      <trkpt lat="40.842520" lon="-5.676982">
        <ele>883.189</ele>
        <time>2019-03-02T05:12:10Z</time>
      </trkpt>
      <trkpt lat="40.842557" lon="-5.676935">
        <ele>882.738</ele>
        <time>2019-03-02T05:12:11Z</time>
      </trkpt>
      <trkpt lat="40.842595" lon="-5.676891">
        <ele>882.451</ele>
        <time>2019-03-02T05:12:12Z</time>
      </trkpt>
      <trkpt lat="40.842669" lon="-5.676806">
        <ele>881.701</ele>
        <time>2019-03-02T05:12:14Z</time>
      </trkpt>
      <trkpt lat="40.842886" lon="-5.676568">
        <ele>879.511</ele>
        <time>2019-03-02T05:12:24Z</time>
      </trkpt>
      <trkpt lat="40.842897" lon="-5.676554">
        <ele>879.408</ele>
        <time>2019-03-02T05:12:30Z</time>
      </trkpt>
      <trkpt lat="40.842965" lon="-5.676507">
        <ele>878.938</ele>
        <time>2019-03-02T05:12:42Z</time>
      </trkpt>
      <trkpt lat="40.842977" lon="-5.676503">
        <ele>878.859</ele>
        <time>2019-03-02T05:12:47Z</time>
      </trkpt>
      <trkpt lat="40.843022" lon="-5.676496">
        <ele>878.760</ele>
        <time>2019-03-02T05:12:54Z</time>
      </trkpt>
      <trkpt lat="40.843038" lon="-5.676500">
        <ele>878.659</ele>
        <time>2019-03-02T05:12:55Z</time>
      </trkpt>
      <trkpt lat="40.843054" lon="-5.676503">
        <ele>878.563</ele>
        <time>2019-03-02T05:12:56Z</time>
      </trkpt>
      <trkpt lat="40.843266" lon="-5.676466">
        <ele>878.736</ele>
        <time>2019-03-02T05:13:10Z</time>
      </trkpt>
      <trkpt lat="40.843496" lon="-5.676307">
        <ele>880.115</ele>
        <time>2019-03-02T05:13:27Z</time>
      </trkpt>
      <trkpt lat="40.843739" lon="-5.676098">
        <ele>881.234</ele>
        <time>2019-03-02T05:13:39Z</time>
      </trkpt>
      <trkpt lat="40.844000" lon="-5.675839">
        <ele>881.849</ele>
        <time>2019-03-02T05:13:47Z</time>
      </trkpt>
      <trkpt lat="40.844029" lon="-5.675789">
        <ele>881.802</ele>
        <time>2019-03-02T05:13:48Z</time>
      </trkpt>
      <trkpt lat="40.844074" lon="-5.675687">
        <ele>881.922</ele>
        <time>2019-03-02T05:13:50Z</time>
      </trkpt>
      <trkpt lat="40.844092" lon="-5.675640">
        <ele>881.908</ele>
        <time>2019-03-02T05:13:51Z</time>
      </trkpt>
      <trkpt lat="40.844110" lon="-5.675605">
        <ele>881.967</ele>
        <time>2019-03-02T05:13:52Z</time>
      </trkpt>
      <trkpt lat="40.844126" lon="-5.675577">
        <ele>881.998</ele>
        <time>2019-03-02T05:13:53Z</time>
      </trkpt>
      <trkpt lat="40.844140" lon="-5.675557">
        <ele>881.859</ele>
        <time>2019-03-02T05:13:54Z</time>
      </trkpt>
      <trkpt lat="40.844166" lon="-5.675538">
        <ele>881.818</ele>
        <time>2019-03-02T05:14:00Z</time>
      </trkpt>
      <trkpt lat="40.844215" lon="-5.675483">
        <ele>881.752</ele>
        <time>2019-03-02T05:15:18Z</time>
      </trkpt>
      <trkpt lat="40.844224" lon="-5.675481">
        <ele>881.775</ele>
        <time>2019-03-02T05:15:22Z</time>
      </trkpt>
      <trkpt lat="40.844279" lon="-5.675497">
        <ele>881.794</ele>
        <time>2019-03-02T05:15:29Z</time>
      </trkpt>
      <trkpt lat="40.844490" lon="-5.675816">
        <ele>881.423</ele>
        <time>2019-03-02T05:15:41Z</time>
      </trkpt>
      <trkpt lat="40.844740" lon="-5.676166">
        <ele>881.672</ele>
        <time>2019-03-02T05:15:58Z</time>
      </trkpt>
      <trkpt lat="40.844954" lon="-5.676538">
        <ele>883.113</ele>
        <time>2019-03-02T05:16:15Z</time>
      </trkpt>
      <trkpt lat="40.845158" lon="-5.676729">
        <ele>883.714</ele>
        <time>2019-03-02T05:16:29Z</time>
      </trkpt>
      <trkpt lat="40.845367" lon="-5.676941">
        <ele>885.108</ele>
        <time>2019-03-02T05:16:45Z</time>
      </trkpt>
      <trkpt lat="40.845560" lon="-5.677106">
        <ele>886.170</ele>
        <time>2019-03-02T05:17:00Z</time>
      </trkpt>
      <trkpt lat="40.845853" lon="-5.677220">
        <ele>887.151</ele>
        <time>2019-03-02T05:17:16Z</time>
      </trkpt>
      <trkpt lat="40.846397" lon="-5.677401">
        <ele>887.482</ele>
        <time>2019-03-02T05:17:31Z</time>
      </trkpt>
      <trkpt lat="40.846930" lon="-5.677561">
        <ele>887.451</ele>
        <time>2019-03-02T05:17:45Z</time>
      </trkpt>
      <trkpt lat="40.847520" lon="-5.677814">
        <ele>887.585</ele>
        <time>2019-03-02T05:18:01Z</time>
      </trkpt>
      <trkpt lat="40.847914" lon="-5.677927">
        <ele>889.428</ele>
        <time>2019-03-02T05:18:16Z</time>
      </trkpt>
      <trkpt lat="40.848167" lon="-5.677969">
        <ele>891.287</ele>
        <time>2019-03-02T05:18:32Z</time>
      </trkpt>
      <trkpt lat="40.848450" lon="-5.678023">
        <ele>893.216</ele>
        <time>2019-03-02T05:18:50Z</time>
      </trkpt>
      <trkpt lat="40.848695" lon="-5.678156">
        <ele>894.489</ele>
        <time>2019-03-02T05:19:05Z</time>
      </trkpt>
      <trkpt lat="40.848952" lon="-5.678230">
        <ele>896.006</ele>
        <time>2019-03-02T05:19:20Z</time>
      </trkpt>
      <trkpt lat="40.849290" lon="-5.678287">
        <ele>897.726</ele>
        <time>2019-03-02T05:19:40Z</time>
      </trkpt>
      <trkpt lat="40.849404" lon="-5.678313">
        <ele>898.208</ele>
        <time>2019-03-02T05:19:47Z</time>
      </trkpt>
      <trkpt lat="40.849421" lon="-5.678324">
        <ele>898.251</ele>
        <time>2019-03-02T05:19:48Z</time>
      </trkpt>
      <trkpt lat="40.849440" lon="-5.678333">
        <ele>898.362</ele>
        <time>2019-03-02T05:19:49Z</time>
      </trkpt>
      <trkpt lat="40.849459" lon="-5.678345">
        <ele>898.443</ele>
        <time>2019-03-02T05:19:50Z</time>
      </trkpt>
      <trkpt lat="40.849479" lon="-5.678359">
        <ele>898.482</ele>
        <time>2019-03-02T05:19:51Z</time>
      </trkpt>
      <trkpt lat="40.849499" lon="-5.678373">
        <ele>898.546</ele>
        <time>2019-03-02T05:19:52Z</time>
      </trkpt>
      <trkpt lat="40.849520" lon="-5.678386">
        <ele>898.689</ele>
        <time>2019-03-02T05:19:53Z</time>
      </trkpt>
      <trkpt lat="40.849538" lon="-5.678399">
        <ele>898.718</ele>
        <time>2019-03-02T05:19:54Z</time>
      </trkpt>
      <trkpt lat="40.849869" lon="-5.678639">
        <ele>899.557</ele>
        <time>2019-03-02T05:20:10Z</time>
      </trkpt>
      <trkpt lat="40.850329" lon="-5.678983">
        <ele>899.887</ele>
        <time>2019-03-02T05:20:26Z</time>
      </trkpt>
      <trkpt lat="40.850402" lon="-5.679007">
        <ele>899.842</ele>
        <time>2019-03-02T05:20:34Z</time>
      </trkpt>
      <trkpt lat="40.850522" lon="-5.679033">
        <ele>899.826</ele>
        <time>2019-03-02T05:23:29Z</time>
      </trkpt>
      <trkpt lat="40.850928" lon="-5.679264">
        <ele>899.808</ele>
        <time>2019-03-02T05:23:44Z</time>
      </trkpt>
      <trkpt lat="40.851374" lon="-5.679455">
        <ele>900.261</ele>
        <time>2019-03-02T05:24:01Z</time>
      </trkpt>
      <trkpt lat="40.851667" lon="-5.679542">
        <ele>901.412</ele>
        <time>2019-03-02T05:24:17Z</time>
      </trkpt>
      <trkpt lat="40.852039" lon="-5.679726">
        <ele>903.183</ele>
        <time>2019-03-02T05:24:36Z</time>
      </trkpt>
      <trkpt lat="40.852338" lon="-5.679834">
        <ele>905.422</ele>
        <time>2019-03-02T05:24:53Z</time>
      </trkpt>
      <trkpt lat="40.852656" lon="-5.680016">
        <ele>908.216</ele>
        <time>2019-03-02T05:25:12Z</time>
      </trkpt>
      <trkpt lat="40.852854" lon="-5.680065">
        <ele>910.159</ele>
        <time>2019-03-02T05:25:26Z</time>
      </trkpt>
      <trkpt lat="40.853026" lon="-5.680185">
        <ele>911.448</ele>
        <time>2019-03-02T05:25:40Z</time>
      </trkpt>
      <trkpt lat="40.853221" lon="-5.680303">
        <ele>911.927</ele>
        <time>2019-03-02T05:25:55Z</time>
      </trkpt>
      <trkpt lat="40.853229" lon="-5.680320">
        <ele>911.981</ele>
        <time>2019-03-02T05:25:59Z</time>
      </trkpt>
      <trkpt lat="40.853297" lon="-5.680365">
        <ele>912.061</ele>
        <time>2019-03-02T05:26:29Z</time>
      </trkpt>
      <trkpt lat="40.853538" lon="-5.680523">
        <ele>912.117</ele>
        <time>2019-03-02T05:26:37Z</time>
      </trkpt>
      <trkpt lat="40.853706" lon="-5.680621">
        <ele>912.108</ele>
        <time>2019-03-02T05:26:41Z</time>
      </trkpt>
      <trkpt lat="40.853743" lon="-5.680638">
        <ele>912.151</ele>
        <time>2019-03-02T05:26:42Z</time>
      </trkpt>
      <trkpt lat="40.853777" lon="-5.680659">
        <ele>912.162</ele>
        <time>2019-03-02T05:26:43Z</time>
      </trkpt>
      <trkpt lat="40.853809" lon="-5.680682">
        <ele>912.023</ele>
        <time>2019-03-02T05:26:44Z</time>
      </trkpt>
      <trkpt lat="40.853839" lon="-5.680703">
        <ele>912.052</ele>
        <time>2019-03-02T05:26:45Z</time>
      </trkpt>
      <trkpt lat="40.853873" lon="-5.680716">
        <ele>912.086</ele>
        <time>2019-03-02T05:26:46Z</time>
      </trkpt>
      <trkpt lat="40.853911" lon="-5.680729">
        <ele>912.039</ele>
        <time>2019-03-02T05:26:47Z</time>
      </trkpt>
      <trkpt lat="40.853947" lon="-5.680746">
        <ele>911.918</ele>
        <time>2019-03-02T05:26:48Z</time>
      </trkpt>
      <trkpt lat="40.853977" lon="-5.680766">
        <ele>911.847</ele>
        <time>2019-03-02T05:26:49Z</time>
      </trkpt>
      <trkpt lat="40.854203" lon="-5.680913">
        <ele>910.971</ele>
        <time>2019-03-02T05:26:55Z</time>
      </trkpt>
      <trkpt lat="40.854240" lon="-5.680960">
        <ele>910.641</ele>
        <time>2019-03-02T05:26:56Z</time>
      </trkpt>
      <trkpt lat="40.854273" lon="-5.681006">
        <ele>910.315</ele>
        <time>2019-03-02T05:26:57Z</time>
      </trkpt>
      <trkpt lat="40.854312" lon="-5.681045">
        <ele>910.108</ele>
        <time>2019-03-02T05:26:58Z</time>
      </trkpt>
      <trkpt lat="40.854358" lon="-5.681079">
        <ele>909.750</ele>
        <time>2019-03-02T05:26:59Z</time>
      </trkpt>
      <trkpt lat="40.854409" lon="-5.681101">
        <ele>909.491</ele>
        <time>2019-03-02T05:27:00Z</time>
      </trkpt>
      <trkpt lat="40.854464" lon="-5.681117">
        <ele>909.052</ele>
        <time>2019-03-02T05:27:01Z</time>
      </trkpt>
      <trkpt lat="40.854826" lon="-5.681262">
        <ele>906.611</ele>
        <time>2019-03-02T05:27:07Z</time>
      </trkpt>
      <trkpt lat="40.855000" lon="-5.681351">
        <ele>905.485</ele>
        <time>2019-03-02T05:27:10Z</time>
      </trkpt>
      <trkpt lat="40.855140" lon="-5.681455">
        <ele>904.388</ele>
        <time>2019-03-02T05:27:13Z</time>
      </trkpt>
      <trkpt lat="40.855326" lon="-5.681621">
        <ele>902.497</ele>
        <time>2019-03-02T05:27:18Z</time>
      </trkpt>
      <trkpt lat="40.855370" lon="-5.681641">
        <ele>902.066</ele>
        <time>2019-03-02T05:27:19Z</time>
      </trkpt>
      <trkpt lat="40.855644" lon="-5.681724">
        <ele>899.775</ele>
        <time>2019-03-02T05:27:26Z</time>
      </trkpt>
      <trkpt lat="40.855996" lon="-5.681833">
        <ele>896.428</ele>
        <time>2019-03-02T05:27:35Z</time>
      </trkpt>
      <trkpt lat="40.856043" lon="-5.681838">
        <ele>896.020</ele>
        <time>2019-03-02T05:27:36Z</time>
      </trkpt>
      <trkpt lat="40.856537" lon="-5.681905">
        <ele>891.708</ele>
        <time>2019-03-02T05:27:45Z</time>
      </trkpt>
      <trkpt lat="40.856845" lon="-5.681963">
        <ele>889.760</ele>
        <time>2019-03-02T05:27:50Z</time>
      </trkpt>
      <trkpt lat="40.856977" lon="-5.681959">
        <ele>889.081</ele>
        <time>2019-03-02T05:27:52Z</time>
      </trkpt>
      <trkpt lat="40.857041" lon="-5.681971">
        <ele>888.622</ele>
        <time>2019-03-02T05:27:53Z</time>
      </trkpt>
      <trkpt lat="40.857106" lon="-5.681984">
        <ele>888.211</ele>
        <time>2019-03-02T05:27:54Z</time>
      </trkpt>
      <trkpt lat="40.857170" lon="-5.681991">
        <ele>887.895</ele>
        <time>2019-03-02T05:27:55Z</time>
      </trkpt>
      <trkpt lat="40.857229" lon="-5.681994">
        <ele>887.418</ele>
        <time>2019-03-02T05:27:56Z</time>
      </trkpt>
      <trkpt lat="40.857806" lon="-5.682046">
        <ele>885.927</ele>
        <time>2019-03-02T05:28:09Z</time>
      </trkpt>
      <trkpt lat="40.858252" lon="-5.682226">
        <ele>885.946</ele>
        <time>2019-03-02T05:28:24Z</time>
      </trkpt>
      <trkpt lat="40.858628" lon="-5.682541">
        <ele>886.398</ele>
        <time>2019-03-02T05:28:40Z</time>
      </trkpt>
      <trkpt lat="40.858871" lon="-5.682994">
        <ele>888.115</ele>
        <time>2019-03-02T05:28:56Z</time>
      </trkpt>
      <trkpt lat="40.858937" lon="-5.683582">
        <ele>888.526</ele>
        <time>2019-03-02T05:29:12Z</time>
      </trkpt>
      <trkpt lat="40.859108" lon="-5.684106">
        <ele>889.108</ele>
        <time>2019-03-02T05:29:27Z</time>
      </trkpt>
      <trkpt lat="40.859376" lon="-5.684367">
        <ele>889.112</ele>
        <time>2019-03-02T05:29:42Z</time>
      </trkpt>
      <trkpt lat="40.859652" lon="-5.684723">
        <ele>888.733</ele>
        <time>2019-03-02T05:29:55Z</time>
      </trkpt>
      <trkpt lat="40.859967" lon="-5.685085">
        <ele>887.934</ele>
        <time>2019-03-02T05:30:10Z</time>
      </trkpt>
      <trkpt lat="40.860577" lon="-5.685539">
        <ele>886.493</ele>
        <time>2019-03-02T05:30:26Z</time>
      </trkpt>
      <trkpt lat="40.860848" lon="-5.685743">
        <ele>885.927</ele>
        <time>2019-03-02T05:30:36Z</time>
      </trkpt>
      <trkpt lat="40.860891" lon="-5.685780">
        <ele>885.860</ele>
        <time>2019-03-02T05:31:00Z</time>
      </trkpt>
      <trkpt lat="40.861375" lon="-5.686165">
        <ele>884.789</ele>
        <time>2019-03-02T05:31:14Z</time>
      </trkpt>
      <trkpt lat="40.861644" lon="-5.686376">
        <ele>884.198</ele>
        <time>2019-03-02T05:31:20Z</time>
      </trkpt>
      <trkpt lat="40.861690" lon="-5.686411">
        <ele>884.017</ele>
        <time>2019-03-02T05:31:21Z</time>
      </trkpt>
      <trkpt lat="40.862715" lon="-5.687201">
        <ele>881.287</ele>
        <time>2019-03-02T05:31:41Z</time>
      </trkpt>
      <trkpt lat="40.863723" lon="-5.687973">
        <ele>879.615</ele>
        <time>2019-03-02T05:31:57Z</time>
      </trkpt>
      <trkpt lat="40.864438" lon="-5.688530">
        <ele>878.108</ele>
        <time>2019-03-02T05:32:08Z</time>
      </trkpt>
      <trkpt lat="40.865177" lon="-5.689035">
        <ele>876.584</ele>
        <time>2019-03-02T05:32:23Z</time>
      </trkpt>
      <trkpt lat="40.865690" lon="-5.689169">
        <ele>878.095</ele>
        <time>2019-03-02T05:32:39Z</time>
      </trkpt>
      <trkpt lat="40.866368" lon="-5.689301">
        <ele>874.636</ele>
        <time>2019-03-02T05:32:51Z</time>
      </trkpt>
      <trkpt lat="40.867290" lon="-5.689497">
        <ele>871.245</ele>
        <time>2019-03-02T05:33:04Z</time>
      </trkpt>
      <trkpt lat="40.868183" lon="-5.689562">
        <ele>868.219</ele>
        <time>2019-03-02T05:33:17Z</time>
      </trkpt>
      <trkpt lat="40.869137" lon="-5.689390">
        <ele>867.392</ele>
        <time>2019-03-02T05:33:34Z</time>
      </trkpt>
      <trkpt lat="40.870310" lon="-5.689219">
        <ele>863.011</ele>
        <time>2019-03-02T05:33:50Z</time>
      </trkpt>
      <trkpt lat="40.871200" lon="-5.689068">
        <ele>858.970</ele>
        <time>2019-03-02T05:34:01Z</time>
      </trkpt>
      <trkpt lat="40.871995" lon="-5.688917">
        <ele>855.966</ele>
        <time>2019-03-02T05:34:11Z</time>
      </trkpt>
      <trkpt lat="40.873110" lon="-5.688729">
        <ele>855.629</ele>
        <time>2019-03-02T05:34:29Z</time>
      </trkpt>
      <trkpt lat="40.874272" lon="-5.688530">
        <ele>854.121</ele>
        <time>2019-03-02T05:34:49Z</time>
      </trkpt>
      <trkpt lat="40.875104" lon="-5.688403">
        <ele>853.408</ele>
        <time>2019-03-02T05:35:04Z</time>
      </trkpt>
      <trkpt lat="40.876007" lon="-5.688246">
        <ele>855.429</ele>
        <time>2019-03-02T05:35:24Z</time>
      </trkpt>
      <trkpt lat="40.877133" lon="-5.688062">
        <ele>851.820</ele>
        <time>2019-03-02T05:35:42Z</time>
      </trkpt>
      <trkpt lat="40.878437" lon="-5.687855">
        <ele>847.871</ele>
        <time>2019-03-02T05:35:58Z</time>
      </trkpt>
      <trkpt lat="40.879517" lon="-5.687670">
        <ele>842.760</ele>
        <time>2019-03-02T05:36:10Z</time>
      </trkpt>
      <trkpt lat="40.879901" lon="-5.687604">
        <ele>841.014</ele>
        <time>2019-03-02T05:36:14Z</time>
      </trkpt>
      <trkpt lat="40.880826" lon="-5.687448">
        <ele>839.777</ele>
        <time>2019-03-02T05:36:24Z</time>
      </trkpt>
      <trkpt lat="40.881708" lon="-5.687304">
        <ele>834.366</ele>
        <time>2019-03-02T05:36:33Z</time>
      </trkpt>
      <trkpt lat="40.882524" lon="-5.687178">
        <ele>830.475</ele>
        <time>2019-03-02T05:36:41Z</time>
      </trkpt>
      <trkpt lat="40.883270" lon="-5.687049">
        <ele>829.248</ele>
        <time>2019-03-02T05:36:51Z</time>
      </trkpt>
      <trkpt lat="40.884379" lon="-5.686870">
        <ele>829.861</ele>
        <time>2019-03-02T05:37:08Z</time>
      </trkpt>
      <trkpt lat="40.884951" lon="-5.686771">
        <ele>830.617</ele>
        <time>2019-03-02T05:37:22Z</time>
      </trkpt>
      <trkpt lat="40.885289" lon="-5.686719">
        <ele>830.108</ele>
        <time>2019-03-02T05:37:30Z</time>
      </trkpt>
      <trkpt lat="40.886093" lon="-5.686587">
        <ele>828.597</ele>
        <time>2019-03-02T05:37:43Z</time>
      </trkpt>
      <trkpt lat="40.886636" lon="-5.686471">
        <ele>828.168</ele>
        <time>2019-03-02T05:37:55Z</time>
      </trkpt>
      <trkpt lat="40.887562" lon="-5.686227">
        <ele>827.469</ele>
        <time>2019-03-02T05:38:14Z</time>
      </trkpt>
      <trkpt lat="40.888708" lon="-5.685956">
        <ele>823.698</ele>
        <time>2019-03-02T05:38:34Z</time>
      </trkpt>
      <trkpt lat="40.889321" lon="-5.685802">
        <ele>819.832</ele>
        <time>2019-03-02T05:38:43Z</time>
      </trkpt>
      <trkpt lat="40.889498" lon="-5.685761">
        <ele>819.015</ele>
        <time>2019-03-02T05:38:46Z</time>
      </trkpt>
      <trkpt lat="40.889772" lon="-5.685698">
        <ele>817.644</ele>
        <time>2019-03-02T05:38:54Z</time>
      </trkpt>
      <trkpt lat="40.889778" lon="-5.685697">
        <ele>817.623</ele>
        <time>2019-03-02T05:38:58Z</time>
      </trkpt>
      <trkpt lat="40.889699" lon="-5.685783">
        <ele>817.114</ele>
        <time>2019-03-02T05:40:11Z</time>
      </trkpt>
      <trkpt lat="40.889805" lon="-5.685647">
        <ele>816.754</ele>
        <time>2019-03-02T05:40:14Z</time>
      </trkpt>
      <trkpt lat="40.889810" lon="-5.685659">
        <ele>816.709</ele>
        <time>2019-03-02T05:40:17Z</time>
      </trkpt>
      <trkpt lat="40.889797" lon="-5.685645">
        <ele>816.708</ele>
        <time>2019-03-02T05:40:36Z</time>
      </trkpt>
      <trkpt lat="40.889986" lon="-5.685676">
        <ele>816.674</ele>
        <time>2019-03-02T05:40:46Z</time>
      </trkpt>
      <trkpt lat="40.890482" lon="-5.685803">
        <ele>816.115</ele>
        <time>2019-03-02T05:41:00Z</time>
      </trkpt>
      <trkpt lat="40.891121" lon="-5.685757">
        <ele>816.276</ele>
        <time>2019-03-02T05:41:17Z</time>
      </trkpt>
      <trkpt lat="40.891731" lon="-5.685491">
        <ele>815.825</ele>
        <time>2019-03-02T05:41:34Z</time>
      </trkpt>
      <trkpt lat="40.892238" lon="-5.685274">
        <ele>815.769</ele>
        <time>2019-03-02T05:41:48Z</time>
      </trkpt>
      <trkpt lat="40.892678" lon="-5.685071">
        <ele>816.022</ele>
        <time>2019-03-02T05:42:01Z</time>
      </trkpt>
      <trkpt lat="40.893282" lon="-5.684832">
        <ele>816.331</ele>
        <time>2019-03-02T05:42:18Z</time>
      </trkpt>
      <trkpt lat="40.893689" lon="-5.684629">
        <ele>817.350</ele>
        <time>2019-03-02T05:42:31Z</time>
      </trkpt>
      <trkpt lat="40.894120" lon="-5.684440">
        <ele>819.541</ele>
        <time>2019-03-02T05:42:45Z</time>
      </trkpt>
      <trkpt lat="40.894434" lon="-5.684286">
        <ele>822.081</ele>
        <time>2019-03-02T05:43:00Z</time>
      </trkpt>
      <trkpt lat="40.894756" lon="-5.684136">
        <ele>824.209</ele>
        <time>2019-03-02T05:43:18Z</time>
      </trkpt>
      <trkpt lat="40.895067" lon="-5.683847">
        <ele>826.308</ele>
        <time>2019-03-02T05:43:38Z</time>
      </trkpt>
      <trkpt lat="40.895387" lon="-5.683555">
        <ele>825.497</ele>
        <time>2019-03-02T05:43:55Z</time>
      </trkpt>
      <trkpt lat="40.895473" lon="-5.683473">
        <ele>824.798</ele>
        <time>2019-03-02T05:43:58Z</time>
      </trkpt>
      <trkpt lat="40.895557" lon="-5.683409">
        <ele>824.229</ele>
        <time>2019-03-02T05:44:00Z</time>
      </trkpt>
      <trkpt lat="40.895603" lon="-5.683365">
        <ele>823.998</ele>
        <time>2019-03-02T05:44:01Z</time>
      </trkpt>
      <trkpt lat="40.896171" lon="-5.682878">
        <ele>821.882</ele>
        <time>2019-03-02T05:44:11Z</time>
      </trkpt>
      <trkpt lat="40.896238" lon="-5.682856">
        <ele>821.995</ele>
        <time>2019-03-02T05:44:12Z</time>
      </trkpt>
      <trkpt lat="40.896305" lon="-5.682855">
        <ele>822.194</ele>
        <time>2019-03-02T05:44:13Z</time>
      </trkpt>
      <trkpt lat="40.896365" lon="-5.682872">
        <ele>822.383</ele>
        <time>2019-03-02T05:44:14Z</time>
      </trkpt>
      <trkpt lat="40.896420" lon="-5.682901">
        <ele>822.685</ele>
        <time>2019-03-02T05:44:15Z</time>
      </trkpt>
      <trkpt lat="40.896466" lon="-5.682942">
        <ele>822.989</ele>
        <time>2019-03-02T05:44:16Z</time>
      </trkpt>
      <trkpt lat="40.896502" lon="-5.682989">
        <ele>823.217</ele>
        <time>2019-03-02T05:44:17Z</time>
      </trkpt>
      <trkpt lat="40.896529" lon="-5.683037">
        <ele>823.508</ele>
        <time>2019-03-02T05:44:18Z</time>
      </trkpt>
      <trkpt lat="40.896546" lon="-5.683082">
        <ele>823.881</ele>
        <time>2019-03-02T05:44:19Z</time>
      </trkpt>
      <trkpt lat="40.896556" lon="-5.683122">
        <ele>824.052</ele>
        <time>2019-03-02T05:44:20Z</time>
      </trkpt>
      <trkpt lat="40.896566" lon="-5.683155">
        <ele>824.153</ele>
        <time>2019-03-02T05:44:21Z</time>
      </trkpt>
      <trkpt lat="40.896573" lon="-5.683187">
        <ele>824.392</ele>
        <time>2019-03-02T05:44:22Z</time>
      </trkpt>
      <trkpt lat="40.896579" lon="-5.683219">
        <ele>824.436</ele>
        <time>2019-03-02T05:44:23Z</time>
      </trkpt>
      <trkpt lat="40.896767" lon="-5.683444">
        <ele>824.579</ele>
        <time>2019-03-02T05:44:38Z</time>
      </trkpt>
      <trkpt lat="40.897219" lon="-5.683371">
        <ele>824.058</ele>
        <time>2019-03-02T05:44:51Z</time>
      </trkpt>
      <trkpt lat="40.898035" lon="-5.683283">
        <ele>823.677</ele>
        <time>2019-03-02T05:45:07Z</time>
      </trkpt>
      <trkpt lat="40.898573" lon="-5.683203">
        <ele>825.185</ele>
        <time>2019-03-02T05:45:21Z</time>
      </trkpt>
      <trkpt lat="40.899355" lon="-5.683105">
        <ele>824.189</ele>
        <time>2019-03-02T05:45:40Z</time>
      </trkpt>
      <trkpt lat="40.900177" lon="-5.682991">
        <ele>822.217</ele>
        <time>2019-03-02T05:45:58Z</time>
      </trkpt>
      <trkpt lat="40.900439" lon="-5.682982">
        <ele>821.308</ele>
        <time>2019-03-02T05:46:03Z</time>
      </trkpt>
      <trkpt lat="40.901265" lon="-5.682877">
        <ele>819.391</ele>
        <time>2019-03-02T05:46:16Z</time>
      </trkpt>
      <trkpt lat="40.901321" lon="-5.682858">
        <ele>819.422</ele>
        <time>2019-03-02T05:46:17Z</time>
      </trkpt>
      <trkpt lat="40.902132" lon="-5.682437">
        <ele>817.623</ele>
        <time>2019-03-02T05:46:32Z</time>
      </trkpt>
      <trkpt lat="40.903135" lon="-5.681971">
        <ele>814.182</ele>
        <time>2019-03-02T05:46:46Z</time>
      </trkpt>
      <trkpt lat="40.904440" lon="-5.681579">
        <ele>811.176</ele>
        <time>2019-03-02T05:47:03Z</time>
      </trkpt>
      <trkpt lat="40.905426" lon="-5.681460">
        <ele>810.649</ele>
        <time>2019-03-02T05:47:19Z</time>
      </trkpt>
      <trkpt lat="40.906232" lon="-5.681209">
        <ele>811.168</ele>
        <time>2019-03-02T05:47:35Z</time>
      </trkpt>
      <trkpt lat="40.907036" lon="-5.681075">
        <ele>812.127</ele>
        <time>2019-03-02T05:47:52Z</time>
      </trkpt>
      <trkpt lat="40.907631" lon="-5.681149">
        <ele>811.216</ele>
        <time>2019-03-02T05:48:05Z</time>
      </trkpt>
      <trkpt lat="40.908537" lon="-5.681128">
        <ele>809.676</ele>
        <time>2019-03-02T05:48:21Z</time>
      </trkpt>
      <trkpt lat="40.909497" lon="-5.680780">
        <ele>806.913</ele>
        <time>2019-03-02T05:48:37Z</time>
      </trkpt>
      <trkpt lat="40.910336" lon="-5.680658">
        <ele>805.608</ele>
        <time>2019-03-02T05:48:52Z</time>
      </trkpt>
      <trkpt lat="40.910838" lon="-5.680629">
        <ele>805.544</ele>
        <time>2019-03-02T05:49:06Z</time>
      </trkpt>
      <trkpt lat="40.911316" lon="-5.680550">
        <ele>806.365</ele>
        <time>2019-03-02T05:49:20Z</time>
      </trkpt>
      <trkpt lat="40.911888" lon="-5.680386">
        <ele>807.876</ele>
        <time>2019-03-02T05:49:37Z</time>
      </trkpt>
      <trkpt lat="40.912436" lon="-5.680349">
        <ele>809.275</ele>
        <time>2019-03-02T05:49:54Z</time>
      </trkpt>
      <trkpt lat="40.912909" lon="-5.680450">
        <ele>809.949</ele>
        <time>2019-03-02T05:50:10Z</time>
      </trkpt>
      <trkpt lat="40.913067" lon="-5.680517">
        <ele>809.612</ele>
        <time>2019-03-02T05:50:20Z</time>
      </trkpt>
      <trkpt lat="40.913128" lon="-5.680535">
        <ele>809.821</ele>
        <time>2019-03-02T05:50:54Z</time>
      </trkpt>
      <trkpt lat="40.913600" lon="-5.680565">
        <ele>813.570</ele>
        <time>2019-03-02T05:51:11Z</time>
      </trkpt>
      <trkpt lat="40.914156" lon="-5.680306">
        <ele>817.053</ele>
        <time>2019-03-02T05:51:31Z</time>
      </trkpt>
      <trkpt lat="40.914567" lon="-5.680234">
        <ele>819.804</ele>
        <time>2019-03-02T05:51:50Z</time>
      </trkpt>
      <trkpt lat="40.914823" lon="-5.680276">
        <ele>821.114</ele>
        <time>2019-03-02T05:52:06Z</time>
      </trkpt>
      <trkpt lat="40.915126" lon="-5.680252">
        <ele>822.208</ele>
        <time>2019-03-02T05:52:24Z</time>
      </trkpt>
      <trkpt lat="40.915427" lon="-5.680261">
        <ele>823.798</ele>
        <time>2019-03-02T05:52:41Z</time>
      </trkpt>
      <trkpt lat="40.915715" lon="-5.680359">
        <ele>825.139</ele>
        <time>2019-03-02T05:52:58Z</time>
      </trkpt>
      <trkpt lat="40.915902" lon="-5.680406">
        <ele>825.880</ele>
        <time>2019-03-02T05:53:09Z</time>
      </trkpt>
      <trkpt lat="40.915922" lon="-5.680397">
        <ele>825.919</ele>
        <time>2019-03-02T05:53:10Z</time>
      </trkpt>
      <trkpt lat="40.915940" lon="-5.680394">
        <ele>825.913</ele>
        <time>2019-03-02T05:53:11Z</time>
      </trkpt>
      <trkpt lat="40.915958" lon="-5.680394">
        <ele>826.056</ele>
        <time>2019-03-02T05:53:12Z</time>
      </trkpt>
      <trkpt lat="40.915977" lon="-5.680396">
        <ele>826.165</ele>
        <time>2019-03-02T05:53:13Z</time>
      </trkpt>
      <trkpt lat="40.916389" lon="-5.680434">
        <ele>828.554</ele>
        <time>2019-03-02T05:53:29Z</time>
      </trkpt>
      <trkpt lat="40.916746" lon="-5.680443">
        <ele>830.652</ele>
        <time>2019-03-02T05:53:45Z</time>
      </trkpt>
      <trkpt lat="40.917048" lon="-5.680444">
        <ele>832.753</ele>
        <time>2019-03-02T05:54:03Z</time>
      </trkpt>
      <trkpt lat="40.917155" lon="-5.680489">
        <ele>833.808</ele>
        <time>2019-03-02T05:54:17Z</time>
      </trkpt>
      <trkpt lat="40.917212" lon="-5.680522">
        <ele>834.508</ele>
        <time>2019-03-02T05:54:26Z</time>
      </trkpt>
      <trkpt lat="40.917255" lon="-5.680506">
        <ele>834.968</ele>
        <time>2019-03-02T05:54:33Z</time>
      </trkpt>
      <trkpt lat="40.917266" lon="-5.680584">
        <ele>835.529</ele>
        <time>2019-03-02T05:55:23Z</time>
      </trkpt>
      <trkpt lat="40.917257" lon="-5.680645">
        <ele>836.020</ele>
        <time>2019-03-02T05:55:29Z</time>
      </trkpt>
      <trkpt lat="40.917363" lon="-5.680835">
        <ele>837.439</ele>
        <time>2019-03-02T05:56:22Z</time>
      </trkpt>
      <trkpt lat="40.917477" lon="-5.680900">
        <ele>838.173</ele>
        <time>2019-03-02T05:56:34Z</time>
      </trkpt>
      <trkpt lat="40.917657" lon="-5.680798">
        <ele>838.476</ele>
        <time>2019-03-02T05:56:52Z</time>
      </trkpt>
      <trkpt lat="40.917704" lon="-5.680742">
        <ele>838.325</ele>
        <time>2019-03-02T05:57:04Z</time>
      </trkpt>
      <trkpt lat="40.917789" lon="-5.680774">
        <ele>838.244</ele>
        <time>2019-03-02T06:00:10Z</time>
      </trkpt>
      <trkpt lat="40.917810" lon="-5.680773">
        <ele>838.297</ele>
        <time>2019-03-02T06:00:11Z</time>
      </trkpt>
      <trkpt lat="40.917830" lon="-5.680767">
        <ele>838.223</ele>
        <time>2019-03-02T06:00:12Z</time>
      </trkpt>
      <trkpt lat="40.917850" lon="-5.680755">
        <ele>838.125</ele>
        <time>2019-03-02T06:00:13Z</time>
      </trkpt>
      <trkpt lat="40.917868" lon="-5.680736">
        <ele>838.108</ele>
        <time>2019-03-02T06:00:14Z</time>
      </trkpt>
      <trkpt lat="40.917887" lon="-5.680713">
        <ele>838.112</ele>
        <time>2019-03-02T06:00:15Z</time>
      </trkpt>
      <trkpt lat="40.917905" lon="-5.680687">
        <ele>838.113</ele>
        <time>2019-03-02T06:00:16Z</time>
      </trkpt>
      <trkpt lat="40.917923" lon="-5.680661">
        <ele>838.074</ele>
        <time>2019-03-02T06:00:17Z</time>
      </trkpt>
      <trkpt lat="40.917946" lon="-5.680634">
        <ele>838.053</ele>
        <time>2019-03-02T06:00:18Z</time>
      </trkpt>
      <trkpt lat="40.918108" lon="-5.680432">
        <ele>837.597</ele>
        <time>2019-03-02T06:00:29Z</time>
      </trkpt>
      <trkpt lat="40.918147" lon="-5.680383">
        <ele>837.320</ele>
        <time>2019-03-02T06:00:35Z</time>
      </trkpt>
      <trkpt lat="40.918443" lon="-5.680172">
        <ele>836.529</ele>
        <time>2019-03-02T06:00:47Z</time>
      </trkpt>
      <trkpt lat="40.918793" lon="-5.679939">
        <ele>835.388</ele>
        <time>2019-03-02T06:01:00Z</time>
      </trkpt>
      <trkpt lat="40.918915" lon="-5.679804">
        <ele>834.983</ele>
        <time>2019-03-02T06:01:05Z</time>
      </trkpt>
      <trkpt lat="40.918940" lon="-5.679791">
        <ele>834.825</ele>
        <time>2019-03-02T06:01:06Z</time>
      </trkpt>
      <trkpt lat="40.918967" lon="-5.679782">
        <ele>834.817</ele>
        <time>2019-03-02T06:01:07Z</time>
      </trkpt>
      <trkpt lat="40.918998" lon="-5.679775">
        <ele>834.708</ele>
        <time>2019-03-02T06:01:08Z</time>
      </trkpt>
      <trkpt lat="40.919033" lon="-5.679771">
        <ele>834.681</ele>
        <time>2019-03-02T06:01:09Z</time>
      </trkpt>
      <trkpt lat="40.919416" lon="-5.679584">
        <ele>833.822</ele>
        <time>2019-03-02T06:01:20Z</time>
      </trkpt>
      <trkpt lat="40.919859" lon="-5.679510">
        <ele>832.563</ele>
        <time>2019-03-02T06:01:33Z</time>
      </trkpt>
      <trkpt lat="40.920442" lon="-5.679284">
        <ele>830.842</ele>
        <time>2019-03-02T06:01:47Z</time>
      </trkpt>
      <trkpt lat="40.921000" lon="-5.679044">
        <ele>829.856</ele>
        <time>2019-03-02T06:02:01Z</time>
      </trkpt>
      <trkpt lat="40.921653" lon="-5.678719">
        <ele>827.289</ele>
        <time>2019-03-02T06:02:16Z</time>
      </trkpt>
      <trkpt lat="40.922178" lon="-5.678441">
        <ele>824.938</ele>
        <time>2019-03-02T06:02:27Z</time>
      </trkpt>
      <trkpt lat="40.922233" lon="-5.678426">
        <ele>824.757</ele>
        <time>2019-03-02T06:02:28Z</time>
      </trkpt>
      <trkpt lat="40.923118" lon="-5.678151">
        <ele>821.632</ele>
        <time>2019-03-02T06:02:44Z</time>
      </trkpt>
      <trkpt lat="40.923940" lon="-5.677811">
        <ele>819.692</ele>
        <time>2019-03-02T06:02:59Z</time>
      </trkpt>
      <trkpt lat="40.924607" lon="-5.677582">
        <ele>818.611</ele>
        <time>2019-03-02T06:03:13Z</time>
      </trkpt>
      <trkpt lat="40.924878" lon="-5.677477">
        <ele>817.808</ele>
        <time>2019-03-02T06:03:19Z</time>
      </trkpt>
      <trkpt lat="40.924922" lon="-5.677472">
        <ele>817.666</ele>
        <time>2019-03-02T06:03:20Z</time>
      </trkpt>
      <trkpt lat="40.925675" lon="-5.677281">
        <ele>815.747</ele>
        <time>2019-03-02T06:03:37Z</time>
      </trkpt>
      <trkpt lat="40.926588" lon="-5.677033">
        <ele>814.278</ele>
        <time>2019-03-02T06:03:57Z</time>
      </trkpt>
      <trkpt lat="40.927398" lon="-5.676811">
        <ele>812.517</ele>
        <time>2019-03-02T06:04:12Z</time>
      </trkpt>
      <trkpt lat="40.928142" lon="-5.676619">
        <ele>811.491</ele>
        <time>2019-03-02T06:04:24Z</time>
      </trkpt>
      <trkpt lat="40.928803" lon="-5.676451">
        <ele>809.994</ele>
        <time>2019-03-02T06:04:36Z</time>
      </trkpt>
      <trkpt lat="40.929768" lon="-5.676336">
        <ele>807.673</ele>
        <time>2019-03-02T06:04:53Z</time>
      </trkpt>
      <trkpt lat="40.929822" lon="-5.676320">
        <ele>807.632</ele>
        <time>2019-03-02T06:04:54Z</time>
      </trkpt>
      <trkpt lat="40.930108" lon="-5.676200">
        <ele>807.269</ele>
        <time>2019-03-02T06:05:00Z</time>
      </trkpt>
      <trkpt lat="40.930195" lon="-5.676148">
        <ele>806.904</ele>
        <time>2019-03-02T06:05:02Z</time>
      </trkpt>
      <trkpt lat="40.930667" lon="-5.675946">
        <ele>804.624</ele>
        <time>2019-03-02T06:05:14Z</time>
      </trkpt>
      <trkpt lat="40.931221" lon="-5.675671">
        <ele>802.708</ele>
        <time>2019-03-02T06:05:28Z</time>
      </trkpt>
      <trkpt lat="40.931346" lon="-5.675617">
        <ele>802.589</ele>
        <time>2019-03-02T06:05:31Z</time>
      </trkpt>
      <trkpt lat="40.931385" lon="-5.675587">
        <ele>802.430</ele>
        <time>2019-03-02T06:05:32Z</time>
      </trkpt>
      <trkpt lat="40.932080" lon="-5.675111">
        <ele>801.651</ele>
        <time>2019-03-02T06:05:46Z</time>
      </trkpt>
      <trkpt lat="40.932130" lon="-5.675093">
        <ele>801.640</ele>
        <time>2019-03-02T06:05:47Z</time>
      </trkpt>
      <trkpt lat="40.932173" lon="-5.675085">
        <ele>801.654</ele>
        <time>2019-03-02T06:05:48Z</time>
      </trkpt>
      <trkpt lat="40.932212" lon="-5.675084">
        <ele>801.627</ele>
        <time>2019-03-02T06:05:49Z</time>
      </trkpt>
      <trkpt lat="40.932248" lon="-5.675077">
        <ele>801.666</ele>
        <time>2019-03-02T06:05:50Z</time>
      </trkpt>
      <trkpt lat="40.932283" lon="-5.675069">
        <ele>801.595</ele>
        <time>2019-03-02T06:05:51Z</time>
      </trkpt>
      <trkpt lat="40.932631" lon="-5.674993">
        <ele>801.686</ele>
        <time>2019-03-02T06:06:03Z</time>
      </trkpt>
      <trkpt lat="40.933180" lon="-5.674886">
        <ele>802.760</ele>
        <time>2019-03-02T06:06:18Z</time>
      </trkpt>
      <trkpt lat="40.933203" lon="-5.674869">
        <ele>802.826</ele>
        <time>2019-03-02T06:06:19Z</time>
      </trkpt>
      <trkpt lat="40.933215" lon="-5.674843">
        <ele>802.708</ele>
        <time>2019-03-02T06:06:20Z</time>
      </trkpt>
      <trkpt lat="40.933222" lon="-5.674813">
        <ele>802.741</ele>
        <time>2019-03-02T06:06:21Z</time>
      </trkpt>
      <trkpt lat="40.933228" lon="-5.674786">
        <ele>802.632</ele>
        <time>2019-03-02T06:06:22Z</time>
      </trkpt>
      <trkpt lat="40.933236" lon="-5.674762">
        <ele>802.673</ele>
        <time>2019-03-02T06:06:23Z</time>
      </trkpt>
      <trkpt lat="40.933257" lon="-5.674675">
        <ele>802.462</ele>
        <time>2019-03-02T06:06:26Z</time>
      </trkpt>
      <trkpt lat="40.933250" lon="-5.674646">
        <ele>802.456</ele>
        <time>2019-03-02T06:06:27Z</time>
      </trkpt>
      <trkpt lat="40.933169" lon="-5.674307">
        <ele>802.039</ele>
        <time>2019-03-02T06:06:38Z</time>
      </trkpt>
      <trkpt lat="40.933268" lon="-5.673989">
        <ele>801.458</ele>
        <time>2019-03-02T06:06:50Z</time>
      </trkpt>
      <trkpt lat="40.933962" lon="-5.673865">
        <ele>800.797</ele>
        <time>2019-03-02T06:07:04Z</time>
      </trkpt>
      <trkpt lat="40.934014" lon="-5.673864">
        <ele>800.774</ele>
        <time>2019-03-02T06:07:05Z</time>
      </trkpt>
      <trkpt lat="40.934174" lon="-5.673863">
        <ele>800.656</ele>
        <time>2019-03-02T06:07:08Z</time>
      </trkpt>
      <trkpt lat="40.934224" lon="-5.673851">
        <ele>800.421</ele>
        <time>2019-03-02T06:07:09Z</time>
      </trkpt>
      <trkpt lat="40.934361" lon="-5.673813">
        <ele>800.008</ele>
        <time>2019-03-02T06:07:12Z</time>
      </trkpt>
      <trkpt lat="40.934406" lon="-5.673813">
        <ele>799.860</ele>
        <time>2019-03-02T06:07:13Z</time>
      </trkpt>
      <trkpt lat="40.935241" lon="-5.673913">
        <ele>798.081</ele>
        <time>2019-03-02T06:07:29Z</time>
      </trkpt>
      <trkpt lat="40.935412" lon="-5.673909">
        <ele>797.872</ele>
        <time>2019-03-02T06:07:32Z</time>
      </trkpt>
      <trkpt lat="40.935472" lon="-5.673899">
        <ele>797.771</ele>
        <time>2019-03-02T06:07:33Z</time>
      </trkpt>
      <trkpt lat="40.936222" lon="-5.673625">
        <ele>796.445</ele>
        <time>2019-03-02T06:07:47Z</time>
      </trkpt>
      <trkpt lat="40.936994" lon="-5.673259">
        <ele>793.978</ele>
        <time>2019-03-02T06:08:03Z</time>
      </trkpt>
      <trkpt lat="40.937985" lon="-5.672997">
        <ele>791.757</ele>
        <time>2019-03-02T06:08:19Z</time>
      </trkpt>
      <trkpt lat="40.938040" lon="-5.672987">
        <ele>791.676</ele>
        <time>2019-03-02T06:08:20Z</time>
      </trkpt>
      <trkpt lat="40.938094" lon="-5.672983">
        <ele>791.679</ele>
        <time>2019-03-02T06:08:21Z</time>
      </trkpt>
      <trkpt lat="40.939004" lon="-5.672934">
        <ele>792.405</ele>
        <time>2019-03-02T06:08:39Z</time>
      </trkpt>
      <trkpt lat="40.939051" lon="-5.672918">
        <ele>792.625</ele>
        <time>2019-03-02T06:08:40Z</time>
      </trkpt>
      <trkpt lat="40.939095" lon="-5.672894">
        <ele>792.708</ele>
        <time>2019-03-02T06:08:41Z</time>
      </trkpt>
      <trkpt lat="40.939583" lon="-5.672664">
        <ele>793.750</ele>
        <time>2019-03-02T06:08:55Z</time>
      </trkpt>
      <trkpt lat="40.939896" lon="-5.672596">
        <ele>793.911</ele>
        <time>2019-03-02T06:09:09Z</time>
      </trkpt>
      <trkpt lat="40.940110" lon="-5.672936">
        <ele>792.892</ele>
        <time>2019-03-02T06:09:20Z</time>
      </trkpt>
      <trkpt lat="40.940330" lon="-5.673197">
        <ele>791.471</ele>
        <time>2019-03-02T06:09:28Z</time>
      </trkpt>
      <trkpt lat="40.940817" lon="-5.673554">
        <ele>789.165</ele>
        <time>2019-03-02T06:09:41Z</time>
      </trkpt>
      <trkpt lat="40.940893" lon="-5.673520">
        <ele>789.198</ele>
        <time>2019-03-02T06:09:44Z</time>
      </trkpt>
      <trkpt lat="40.941053" lon="-5.673665">
        <ele>788.117</ele>
        <time>2019-03-02T06:09:50Z</time>
      </trkpt>
      <trkpt lat="40.941648" lon="-5.674264">
        <ele>783.776</ele>
        <time>2019-03-02T06:10:04Z</time>
      </trkpt>
      <trkpt lat="40.941989" lon="-5.674566">
        <ele>783.234</ele>
        <time>2019-03-02T06:10:10Z</time>
      </trkpt>
      <trkpt lat="40.942050" lon="-5.674588">
        <ele>783.155</ele>
        <time>2019-03-02T06:10:11Z</time>
      </trkpt>
      <trkpt lat="40.942112" lon="-5.674596">
        <ele>783.010</ele>
        <time>2019-03-02T06:10:12Z</time>
      </trkpt>
      <trkpt lat="40.942171" lon="-5.674601">
        <ele>782.908</ele>
        <time>2019-03-02T06:10:13Z</time>
      </trkpt>
      <trkpt lat="40.942383" lon="-5.674869">
        <ele>780.636</ele>
        <time>2019-03-02T06:10:22Z</time>
      </trkpt>
      <trkpt lat="40.942372" lon="-5.674915">
        <ele>780.667</ele>
        <time>2019-03-02T06:10:23Z</time>
      </trkpt>
      <trkpt lat="40.942415" lon="-5.675096">
        <ele>778.558</ele>
        <time>2019-03-02T06:10:29Z</time>
      </trkpt>
      <trkpt lat="40.942821" lon="-5.675485">
        <ele>776.497</ele>
        <time>2019-03-02T06:10:40Z</time>
      </trkpt>
      <trkpt lat="40.943033" lon="-5.675559">
        <ele>776.711</ele>
        <time>2019-03-02T06:10:48Z</time>
      </trkpt>
      <trkpt lat="40.943592" lon="-5.674956">
        <ele>777.054</ele>
        <time>2019-03-02T06:11:04Z</time>
      </trkpt>
      <trkpt lat="40.943707" lon="-5.674849">
        <ele>777.173</ele>
        <time>2019-03-02T06:11:07Z</time>
      </trkpt>
      <trkpt lat="40.943779" lon="-5.674787">
        <ele>777.242</ele>
        <time>2019-03-02T06:11:09Z</time>
      </trkpt>
      <trkpt lat="40.944117" lon="-5.674854">
        <ele>776.872</ele>
        <time>2019-03-02T06:11:18Z</time>
      </trkpt>
      <trkpt lat="40.944360" lon="-5.675013">
        <ele>776.313</ele>
        <time>2019-03-02T06:11:27Z</time>
      </trkpt>
      <trkpt lat="40.944365" lon="-5.675013">
        <ele>776.314</ele>
        <time>2019-03-02T06:11:30Z</time>
      </trkpt>
      <trkpt lat="40.944382" lon="-5.674956">
        <ele>776.208</ele>
        <time>2019-03-02T06:11:45Z</time>
      </trkpt>
      <trkpt lat="40.944385" lon="-5.674928">
        <ele>776.120</ele>
        <time>2019-03-02T06:11:46Z</time>
      </trkpt>
      <trkpt lat="40.944324" lon="-5.674618">
        <ele>776.711</ele>
        <time>2019-03-02T06:11:55Z</time>
      </trkpt>
      <trkpt lat="40.944419" lon="-5.674503">
        <ele>777.362</ele>
        <time>2019-03-02T06:12:01Z</time>
      </trkpt>
      <trkpt lat="40.944786" lon="-5.674303">
        <ele>779.671</ele>
        <time>2019-03-02T06:12:12Z</time>
      </trkpt>
      <trkpt lat="40.944909" lon="-5.674245">
        <ele>780.625</ele>
        <time>2019-03-02T06:12:15Z</time>
      </trkpt>
      <trkpt lat="40.945246" lon="-5.674040">
        <ele>784.248</ele>
        <time>2019-03-02T06:12:28Z</time>
      </trkpt>
      <trkpt lat="40.945269" lon="-5.674017">
        <ele>784.577</ele>
        <time>2019-03-02T06:12:30Z</time>
      </trkpt>
      <trkpt lat="40.945331" lon="-5.674063">
        <ele>784.466</ele>
        <time>2019-03-02T06:12:34Z</time>
      </trkpt>
      <trkpt lat="40.945347" lon="-5.674099">
        <ele>784.337</ele>
        <time>2019-03-02T06:12:35Z</time>
      </trkpt>
      <trkpt lat="40.945603" lon="-5.674566">
        <ele>781.349</ele>
        <time>2019-03-02T06:12:47Z</time>
      </trkpt>
      <trkpt lat="40.945990" lon="-5.675198">
        <ele>780.013</ele>
        <time>2019-03-02T06:13:07Z</time>
      </trkpt>
      <trkpt lat="40.946349" lon="-5.675440">
        <ele>780.508</ele>
        <time>2019-03-02T06:13:19Z</time>
      </trkpt>
      <trkpt lat="40.946891" lon="-5.675379">
        <ele>780.916</ele>
        <time>2019-03-02T06:13:33Z</time>
      </trkpt>
      <trkpt lat="40.947421" lon="-5.675274">
        <ele>781.217</ele>
        <time>2019-03-02T06:13:47Z</time>
      </trkpt>
      <trkpt lat="40.947947" lon="-5.675109">
        <ele>782.678</ele>
        <time>2019-03-02T06:14:02Z</time>
      </trkpt>
      <trkpt lat="40.948293" lon="-5.674746">
        <ele>782.647</ele>
        <time>2019-03-02T06:14:16Z</time>
      </trkpt>
      <trkpt lat="40.948681" lon="-5.674411">
        <ele>782.741</ele>
        <time>2019-03-02T06:14:31Z</time>
      </trkpt>
      <trkpt lat="40.949000" lon="-5.674265">
        <ele>781.654</ele>
        <time>2019-03-02T06:14:42Z</time>
      </trkpt>
      <trkpt lat="40.949382" lon="-5.674330">
        <ele>779.983</ele>
        <time>2019-03-02T06:14:53Z</time>
      </trkpt>
      <trkpt lat="40.949428" lon="-5.674319">
        <ele>779.662</ele>
        <time>2019-03-02T06:14:54Z</time>
      </trkpt>
      <trkpt lat="40.949972" lon="-5.674243">
        <ele>779.476</ele>
        <time>2019-03-02T06:15:03Z</time>
      </trkpt>
      <trkpt lat="40.950033" lon="-5.674227">
        <ele>779.690</ele>
        <time>2019-03-02T06:15:04Z</time>
      </trkpt>
      <trkpt lat="40.950092" lon="-5.674212">
        <ele>779.819</ele>
        <time>2019-03-02T06:15:05Z</time>
      </trkpt>
      <trkpt lat="40.950145" lon="-5.674204">
        <ele>779.908</ele>
        <time>2019-03-02T06:15:06Z</time>
      </trkpt>
      <trkpt lat="40.950196" lon="-5.674201">
        <ele>780.020</ele>
        <time>2019-03-02T06:15:07Z</time>
      </trkpt>
      <trkpt lat="40.950669" lon="-5.674232">
        <ele>781.451</ele>
        <time>2019-03-02T06:15:21Z</time>
      </trkpt>
      <trkpt lat="40.950885" lon="-5.674226">
        <ele>782.282</ele>
        <time>2019-03-02T06:15:35Z</time>
      </trkpt>
      <trkpt lat="40.951088" lon="-5.674273">
        <ele>783.091</ele>
        <time>2019-03-02T06:15:50Z</time>
      </trkpt>
      <trkpt lat="40.951310" lon="-5.674267">
        <ele>783.795</ele>
        <time>2019-03-02T06:16:04Z</time>
      </trkpt>
      <trkpt lat="40.951513" lon="-5.674318">
        <ele>782.778</ele>
        <time>2019-03-02T06:16:15Z</time>
      </trkpt>
      <trkpt lat="40.952076" lon="-5.674460">
        <ele>778.787</ele>
        <time>2019-03-02T06:16:26Z</time>
      </trkpt>
      <trkpt lat="40.952577" lon="-5.674544">
        <ele>777.436</ele>
        <time>2019-03-02T06:16:34Z</time>
      </trkpt>
      <trkpt lat="40.952796" lon="-5.674549">
        <ele>777.252</ele>
        <time>2019-03-02T06:16:38Z</time>
      </trkpt>
      <trkpt lat="40.952845" lon="-5.674557">
        <ele>777.153</ele>
        <time>2019-03-02T06:16:39Z</time>
      </trkpt>
      <trkpt lat="40.953377" lon="-5.674651">
        <ele>776.108</ele>
        <time>2019-03-02T06:16:51Z</time>
      </trkpt>
      <trkpt lat="40.953512" lon="-5.674678">
        <ele>775.408</ele>
        <time>2019-03-02T06:16:54Z</time>
      </trkpt>
      <trkpt lat="40.953554" lon="-5.674695">
        <ele>775.358</ele>
        <time>2019-03-02T06:16:55Z</time>
      </trkpt>
      <trkpt lat="40.954172" lon="-5.674874">
        <ele>775.119</ele>
        <time>2019-03-02T06:17:11Z</time>
      </trkpt>
      <trkpt lat="40.954696" lon="-5.674588">
        <ele>778.360</ele>
        <time>2019-03-02T06:17:26Z</time>
      </trkpt>
      <trkpt lat="40.954729" lon="-5.674557">
        <ele>778.429</ele>
        <time>2019-03-02T06:17:27Z</time>
      </trkpt>
      <trkpt lat="40.954756" lon="-5.674522">
        <ele>778.643</ele>
        <time>2019-03-02T06:17:28Z</time>
      </trkpt>
      <trkpt lat="40.954779" lon="-5.674485">
        <ele>778.656</ele>
        <time>2019-03-02T06:17:29Z</time>
      </trkpt>
      <trkpt lat="40.954801" lon="-5.674448">
        <ele>778.735</ele>
        <time>2019-03-02T06:17:30Z</time>
      </trkpt>
      <trkpt lat="40.955086" lon="-5.674093">
        <ele>780.344</ele>
        <time>2019-03-02T06:17:41Z</time>
      </trkpt>
      <trkpt lat="40.955214" lon="-5.673614">
        <ele>779.169</ele>
        <time>2019-03-02T06:17:50Z</time>
      </trkpt>
      <trkpt lat="40.955228" lon="-5.673556">
        <ele>779.004</ele>
        <time>2019-03-02T06:17:51Z</time>
      </trkpt>
      <trkpt lat="40.955410" lon="-5.673080">
        <ele>778.024</ele>
        <time>2019-03-02T06:17:59Z</time>
      </trkpt>
      <trkpt lat="40.955504" lon="-5.672863">
        <ele>777.208</ele>
        <time>2019-03-02T06:18:03Z</time>
      </trkpt>
      <trkpt lat="40.955625" lon="-5.672548">
        <ele>776.549</ele>
        <time>2019-03-02T06:18:09Z</time>
      </trkpt>
      <trkpt lat="40.955780" lon="-5.672312">
        <ele>775.540</ele>
        <time>2019-03-02T06:18:15Z</time>
      </trkpt>
      <trkpt lat="40.955809" lon="-5.672311">
        <ele>775.521</ele>
        <time>2019-03-02T06:18:16Z</time>
      </trkpt>
      <trkpt lat="40.955866" lon="-5.672342">
        <ele>775.540</ele>
        <time>2019-03-02T06:18:18Z</time>
      </trkpt>
      <trkpt lat="40.955916" lon="-5.672395">
        <ele>775.074</ele>
        <time>2019-03-02T06:18:20Z</time>
      </trkpt>
      <trkpt lat="40.956144" lon="-5.672593">
        <ele>772.827</ele>
        <time>2019-03-02T06:18:28Z</time>
      </trkpt>
      <trkpt lat="40.956217" lon="-5.672465">
        <ele>772.286</ele>
        <time>2019-03-02T06:18:32Z</time>
      </trkpt>
      <trkpt lat="40.956225" lon="-5.672424">
        <ele>772.155</ele>
        <time>2019-03-02T06:18:33Z</time>
      </trkpt>
      <trkpt lat="40.956229" lon="-5.672382">
        <ele>772.064</ele>
        <time>2019-03-02T06:18:34Z</time>
      </trkpt>
      <trkpt lat="40.956236" lon="-5.672337">
        <ele>771.906</ele>
        <time>2019-03-02T06:18:35Z</time>
      </trkpt>
      <trkpt lat="40.956244" lon="-5.672293">
        <ele>771.816</ele>
        <time>2019-03-02T06:18:36Z</time>
      </trkpt>
      <trkpt lat="40.956440" lon="-5.672046">
        <ele>770.908</ele>
        <time>2019-03-02T06:18:47Z</time>
      </trkpt>
      <trkpt lat="40.956556" lon="-5.671959">
        <ele>770.849</ele>
        <time>2019-03-02T06:18:52Z</time>
      </trkpt>
      <trkpt lat="40.956541" lon="-5.671762">
        <ele>771.070</ele>
        <time>2019-03-02T06:18:56Z</time>
      </trkpt>
      <trkpt lat="40.956460" lon="-5.671502">
        <ele>771.211</ele>
        <time>2019-03-02T06:19:02Z</time>
      </trkpt>
      <trkpt lat="40.956462" lon="-5.671470">
        <ele>771.360</ele>
        <time>2019-03-02T06:19:07Z</time>
      </trkpt>
      <trkpt lat="40.956425" lon="-5.671420">
        <ele>771.364</ele>
        <time>2019-03-02T06:19:44Z</time>
      </trkpt>
      <trkpt lat="40.956302" lon="-5.671324">
        <ele>771.517</ele>
        <time>2019-03-02T06:19:51Z</time>
      </trkpt>
      <trkpt lat="40.956274" lon="-5.671259">
        <ele>771.676</ele>
        <time>2019-03-02T06:19:59Z</time>
      </trkpt>
      <trkpt lat="40.956314" lon="-5.671180">
        <ele>772.025</ele>
        <time>2019-03-02T06:20:20Z</time>
      </trkpt>
      <trkpt lat="40.956333" lon="-5.671159">
        <ele>772.113</ele>
        <time>2019-03-02T06:20:26Z</time>
      </trkpt>
      <trkpt lat="40.956402" lon="-5.671133">
        <ele>772.843</ele>
        <time>2019-03-02T06:21:13Z</time>
      </trkpt>
      <trkpt lat="40.956690" lon="-5.670936">
        <ele>775.807</ele>
        <time>2019-03-02T06:21:28Z</time>
      </trkpt>
      <trkpt lat="40.957096" lon="-5.670638">
        <ele>778.608</ele>
        <time>2019-03-02T06:21:44Z</time>
      </trkpt>
      <trkpt lat="40.957454" lon="-5.670395">
        <ele>780.414</ele>
        <time>2019-03-02T06:21:57Z</time>
      </trkpt>
      <trkpt lat="40.957493" lon="-5.670347">
        <ele>780.625</ele>
        <time>2019-03-02T06:22:00Z</time>
      </trkpt>
      <trkpt lat="40.957493" lon="-5.670329">
        <ele>780.726</ele>
        <time>2019-03-02T06:22:05Z</time>
      </trkpt>
      <trkpt lat="40.957606" lon="-5.670308">
        <ele>781.075</ele>
        <time>2019-03-02T06:24:13Z</time>
      </trkpt>
      <trkpt lat="40.957616" lon="-5.670294">
        <ele>781.099</ele>
        <time>2019-03-02T06:24:14Z</time>
      </trkpt>
      <trkpt lat="40.957626" lon="-5.670283">
        <ele>781.172</ele>
        <time>2019-03-02T06:24:15Z</time>
      </trkpt>
      <trkpt lat="40.957636" lon="-5.670272">
        <ele>781.191</ele>
        <time>2019-03-02T06:24:16Z</time>
      </trkpt>
      <trkpt lat="40.957647" lon="-5.670261">
        <ele>781.170</ele>
        <time>2019-03-02T06:24:17Z</time>
      </trkpt>
      <trkpt lat="40.957659" lon="-5.670251">
        <ele>781.221</ele>
        <time>2019-03-02T06:24:18Z</time>
      </trkpt>
      <trkpt lat="40.957670" lon="-5.670240">
        <ele>781.241</ele>
        <time>2019-03-02T06:24:19Z</time>
      </trkpt>
      <trkpt lat="40.957787" lon="-5.670129">
        <ele>781.505</ele>
        <time>2019-03-02T06:24:34Z</time>
      </trkpt>
      <trkpt lat="40.957838" lon="-5.670099">
        <ele>781.608</ele>
        <time>2019-03-02T06:25:04Z</time>
      </trkpt>
      <trkpt lat="40.958238" lon="-5.669843">
        <ele>782.475</ele>
        <time>2019-03-02T06:25:17Z</time>
      </trkpt>
      <trkpt lat="40.958913" lon="-5.669370">
        <ele>783.746</ele>
        <time>2019-03-02T06:25:35Z</time>
      </trkpt>
      <trkpt lat="40.959214" lon="-5.669135">
        <ele>786.627</ele>
        <time>2019-03-02T06:25:47Z</time>
      </trkpt>
      <trkpt lat="40.959290" lon="-5.668989">
        <ele>788.886</ele>
        <time>2019-03-02T06:25:54Z</time>
      </trkpt>
      <trkpt lat="40.959304" lon="-5.668966">
        <ele>788.990</ele>
        <time>2019-03-02T06:25:55Z</time>
      </trkpt>
      <trkpt lat="40.959357" lon="-5.668911">
        <ele>789.983</ele>
        <time>2019-03-02T06:25:59Z</time>
      </trkpt>
      <trkpt lat="40.959421" lon="-5.668805">
        <ele>790.072</ele>
        <time>2019-03-02T06:26:08Z</time>
      </trkpt>
      <trkpt lat="40.959422" lon="-5.668805">
        <ele>790.031</ele>
        <time>2019-03-02T06:26:09Z</time>
      </trkpt>
      <trkpt lat="40.959441" lon="-5.668733">
        <ele>790.142</ele>
        <time>2019-03-02T06:26:35Z</time>
      </trkpt>
      <trkpt lat="40.959451" lon="-5.668339">
        <ele>790.322</ele>
        <time>2019-03-02T06:26:48Z</time>
      </trkpt>
      <trkpt lat="40.959453" lon="-5.668004">
        <ele>790.614</ele>
        <time>2019-03-02T06:27:03Z</time>
      </trkpt>
      <trkpt lat="40.959531" lon="-5.667690">
        <ele>792.208</ele>
        <time>2019-03-02T06:27:17Z</time>
      </trkpt>
      <trkpt lat="40.959542" lon="-5.667670">
        <ele>793.697</ele>
        <time>2019-03-02T06:27:18Z</time>
      </trkpt>
      <trkpt lat="40.959596" lon="-5.667600">
        <ele>793.618</ele>
        <time>2019-03-02T06:27:23Z</time>
      </trkpt>
      <trkpt lat="40.959655" lon="-5.667511">
        <ele>797.079</ele>
        <time>2019-03-02T06:27:33Z</time>
      </trkpt>
      <trkpt lat="40.959696" lon="-5.667341">
        <ele>798.798</ele>
        <time>2019-03-02T06:27:41Z</time>
      </trkpt>
      <trkpt lat="40.959750" lon="-5.667267">
        <ele>799.522</ele>
        <time>2019-03-02T06:27:46Z</time>
      </trkpt>
      <trkpt lat="40.959784" lon="-5.667222">
        <ele>800.785</ele>
        <time>2019-03-02T06:27:52Z</time>
      </trkpt>
      <trkpt lat="40.959837" lon="-5.667185">
        <ele>802.124</ele>
        <time>2019-03-02T06:27:56Z</time>
      </trkpt>
      <trkpt lat="40.959883" lon="-5.667153">
        <ele>803.373</ele>
        <time>2019-03-02T06:28:00Z</time>
      </trkpt>
      <trkpt lat="40.959980" lon="-5.667114">
        <ele>805.688</ele>
        <time>2019-03-02T06:28:04Z</time>
      </trkpt>
      <trkpt lat="40.960115" lon="-5.667020">
        <ele>808.624</ele>
        <time>2019-03-02T06:28:12Z</time>
      </trkpt>
      <trkpt lat="40.960466" lon="-5.666874">
        <ele>812.226</ele>
        <time>2019-03-02T06:29:38Z</time>
      </trkpt>
      <trkpt lat="40.960466" lon="-5.666873">
        <ele>812.208</ele>
        <time>2019-03-02T06:29:39Z</time>
      </trkpt>
      <trkpt lat="40.960475" lon="-5.666951">
        <ele>812.271</ele>
        <time>2019-03-02T06:29:43Z</time>
      </trkpt>
      <trkpt lat="40.960544" lon="-5.666999">
        <ele>812.262</ele>
        <time>2019-03-02T06:29:52Z</time>
      </trkpt>
      <trkpt lat="40.960409" lon="-5.666994">
        <ele>812.253</ele>
        <time>2019-03-02T06:30:34Z</time>
      </trkpt>
      <trkpt lat="40.960421" lon="-5.666931">
        <ele>812.242</ele>
        <time>2019-03-02T06:30:38Z</time>
      </trkpt>
      <trkpt lat="40.960286" lon="-5.666928">
        <ele>811.816</ele>
        <time>2019-03-02T06:30:47Z</time>
      </trkpt>
      <trkpt lat="40.960177" lon="-5.666973">
        <ele>809.699</ele>
        <time>2019-03-02T06:30:57Z</time>
      </trkpt>
      <trkpt lat="40.959924" lon="-5.667145">
        <ele>807.028</ele>
        <time>2019-03-02T06:31:07Z</time>
      </trkpt>
      <trkpt lat="40.959871" lon="-5.667203">
        <ele>806.397</ele>
        <time>2019-03-02T06:31:10Z</time>
      </trkpt>
      <trkpt lat="40.959848" lon="-5.667017">
        <ele>804.549</ele>
        <time>2019-03-02T06:31:18Z</time>
      </trkpt>
      <trkpt lat="40.959817" lon="-5.666978">
        <ele>803.902</ele>
        <time>2019-03-02T06:31:20Z</time>
      </trkpt>
      <trkpt lat="40.959648" lon="-5.666798">
        <ele>798.022</ele>
        <time>2019-03-02T06:31:29Z</time>
      </trkpt>
      <trkpt lat="40.959795" lon="-5.666438">
        <ele>798.108</ele>
        <time>2019-03-02T06:31:43Z</time>
      </trkpt>
      <trkpt lat="40.959868" lon="-5.666382">
        <ele>800.887</ele>
        <time>2019-03-02T06:31:51Z</time>
      </trkpt>
      <trkpt lat="40.959913" lon="-5.666337">
        <ele>802.298</ele>
        <time>2019-03-02T06:33:32Z</time>
      </trkpt>
      <trkpt lat="40.959999" lon="-5.666288">
        <ele>805.289</ele>
        <time>2019-03-02T06:33:37Z</time>
      </trkpt>
      <trkpt lat="40.960112" lon="-5.666219">
        <ele>807.968</ele>
        <time>2019-03-02T06:33:46Z</time>
      </trkpt>
      <trkpt lat="40.959920" lon="-5.665904">
        <ele>802.632</ele>
        <time>2019-03-02T06:33:59Z</time>
      </trkpt>
      <trkpt lat="40.959770" lon="-5.665614">
        <ele>798.975</ele>
        <time>2019-03-02T06:34:08Z</time>
      </trkpt>
      <trkpt lat="40.959658" lon="-5.665573">
        <ele>797.744</ele>
        <time>2019-03-02T06:34:19Z</time>
      </trkpt>
      <trkpt lat="40.959653" lon="-5.665584">
        <ele>797.853</ele>
        <time>2019-03-02T06:34:22Z</time>
      </trkpt>
      <trkpt lat="40.959697" lon="-5.665526">
        <ele>798.346</ele>
        <time>2019-03-02T23:12:24Z</time>
      </trkpt>
      <trkpt lat="40.959710" lon="-5.665524">
        <ele>798.488</ele>
        <time>2019-03-02T23:12:25Z</time>
      </trkpt>
      <trkpt lat="40.959740" lon="-5.665583">
        <ele>798.916</ele>
        <time>2019-03-02T23:12:30Z</time>
      </trkpt>
      <trkpt lat="40.959774" lon="-5.665667">
        <ele>799.508</ele>
        <time>2019-03-02T23:12:35Z</time>
      </trkpt>
      <trkpt lat="40.959867" lon="-5.665769">
        <ele>800.547</ele>
        <time>2019-03-02T23:12:46Z</time>
      </trkpt>
      <trkpt lat="40.959914" lon="-5.665801">
        <ele>800.928</ele>
        <time>2019-03-02T23:13:03Z</time>
      </trkpt>
      <trkpt lat="40.959930" lon="-5.665835">
        <ele>801.119</ele>
        <time>2019-03-02T23:13:06Z</time>
      </trkpt>
      <trkpt lat="40.960106" lon="-5.666077">
        <ele>806.978</ele>
        <time>2019-03-02T23:13:19Z</time>
      </trkpt>
      <trkpt lat="40.960115" lon="-5.666184">
        <ele>808.192</ele>
        <time>2019-03-02T23:13:25Z</time>
      </trkpt>
      <trkpt lat="40.959874" lon="-5.666373">
        <ele>801.095</ele>
        <time>2019-03-02T23:13:32Z</time>
      </trkpt>
      <trkpt lat="40.959687" lon="-5.666768">
        <ele>798.044</ele>
        <time>2019-03-02T23:13:40Z</time>
      </trkpt>
      <trkpt lat="40.959751" lon="-5.667133">
        <ele>798.973</ele>
        <time>2019-03-02T23:13:51Z</time>
      </trkpt>
      <trkpt lat="40.959783" lon="-5.667127">
        <ele>799.018</ele>
        <time>2019-03-02T23:13:53Z</time>
      </trkpt>
      <trkpt lat="40.959907" lon="-5.667040">
        <ele>804.998</ele>
        <time>2019-03-02T23:14:01Z</time>
      </trkpt>
      <trkpt lat="40.960057" lon="-5.666970">
        <ele>808.017</ele>
        <time>2019-03-02T23:14:09Z</time>
      </trkpt>
      <trkpt lat="40.960097" lon="-5.666943">
        <ele>808.708</ele>
        <time>2019-03-02T23:14:11Z</time>
      </trkpt>
      <trkpt lat="40.960156" lon="-5.666830">
        <ele>810.174</ele>
        <time>2019-03-02T23:14:16Z</time>
      </trkpt>
      <trkpt lat="40.960366" lon="-5.666886">
        <ele>812.345</ele>
        <time>2019-03-02T23:14:28Z</time>
      </trkpt>
      <trkpt lat="40.960421" lon="-5.667157">
        <ele>813.046</ele>
        <time>2019-03-02T23:14:36Z</time>
      </trkpt>
      <trkpt lat="40.960437" lon="-5.667184">
        <ele>813.135</ele>
        <time>2019-03-02T23:14:37Z</time>
      </trkpt>
      <trkpt lat="40.960608" lon="-5.667112">
        <ele>813.189</ele>
        <time>2019-03-02T23:14:45Z</time>
      </trkpt>
      <trkpt lat="40.960714" lon="-5.667045">
        <ele>812.972</ele>
        <time>2019-03-02T23:14:51Z</time>
      </trkpt>
      <trkpt lat="40.960736" lon="-5.667028">
        <ele>812.891</ele>
        <time>2019-03-02T23:14:57Z</time>
      </trkpt>
      <trkpt lat="40.960843" lon="-5.666980">
        <ele>812.770</ele>
        <time>2019-03-02T23:15:12Z</time>
      </trkpt>
      <trkpt lat="40.960875" lon="-5.667005">
        <ele>812.685</ele>
        <time>2019-03-02T23:15:14Z</time>
      </trkpt>
      <trkpt lat="40.961052" lon="-5.667292">
        <ele>811.989</ele>
        <time>2019-03-02T23:15:27Z</time>
      </trkpt>
      <trkpt lat="40.961204" lon="-5.667497">
        <ele>811.517</ele>
        <time>2019-03-02T23:15:35Z</time>
      </trkpt>
      <trkpt lat="40.961294" lon="-5.667476">
        <ele>811.508</ele>
        <time>2019-03-02T23:15:41Z</time>
      </trkpt>
      <trkpt lat="40.961388" lon="-5.667398">
        <ele>811.561</ele>
        <time>2019-03-02T23:15:48Z</time>
      </trkpt>
      <trkpt lat="40.961442" lon="-5.667376">
        <ele>811.652</ele>
        <time>2019-03-02T23:15:51Z</time>
      </trkpt>
      <trkpt lat="40.961475" lon="-5.667367">
        <ele>811.623</ele>
        <time>2019-03-02T23:15:58Z</time>
      </trkpt>
      <trkpt lat="40.961530" lon="-5.667431">
        <ele>811.642</ele>
        <time>2019-03-02T23:16:22Z</time>
      </trkpt>
      <trkpt lat="40.961553" lon="-5.667481">
        <ele>811.676</ele>
        <time>2019-03-02T23:16:26Z</time>
      </trkpt>
      <trkpt lat="40.961484" lon="-5.667455">
        <ele>811.549</ele>
        <time>2019-03-02T23:16:33Z</time>
      </trkpt>
      <trkpt lat="40.961466" lon="-5.667397">
        <ele>811.538</ele>
        <time>2019-03-02T23:16:35Z</time>
      </trkpt>
      <trkpt lat="40.961177" lon="-5.667346">
        <ele>811.667</ele>
        <time>2019-03-02T23:16:47Z</time>
      </trkpt>
      <trkpt lat="40.960991" lon="-5.667152">
        <ele>812.294</ele>
        <time>2019-03-02T23:16:57Z</time>
      </trkpt>
      <trkpt lat="40.960860" lon="-5.666983">
        <ele>812.557</ele>
        <time>2019-03-02T23:17:04Z</time>
      </trkpt>
      <trkpt lat="40.960995" lon="-5.666727">
        <ele>812.422</ele>
        <time>2019-03-02T23:17:13Z</time>
      </trkpt>
      <trkpt lat="40.961500" lon="-5.666381">
        <ele>810.508</ele>
        <time>2019-03-02T23:17:25Z</time>
      </trkpt>
      <trkpt lat="40.961889" lon="-5.666240">
        <ele>809.972</ele>
        <time>2019-03-02T23:17:37Z</time>
      </trkpt>
      <trkpt lat="40.962051" lon="-5.666112">
        <ele>810.393</ele>
        <time>2019-03-02T23:17:48Z</time>
      </trkpt>
      <trkpt lat="40.962189" lon="-5.666038">
        <ele>810.584</ele>
        <time>2019-03-02T23:17:58Z</time>
      </trkpt>
      <trkpt lat="40.962223" lon="-5.666031">
        <ele>810.563</ele>
        <time>2019-03-02T23:18:00Z</time>
      </trkpt>
      <trkpt lat="40.962863" lon="-5.665513">
        <ele>809.217</ele>
        <time>2019-03-02T23:18:39Z</time>
      </trkpt>
      <trkpt lat="40.963178" lon="-5.665288">
        <ele>808.610</ele>
        <time>2019-03-02T23:18:49Z</time>
      </trkpt>
      <trkpt lat="40.963427" lon="-5.664983">
        <ele>808.029</ele>
        <time>2019-03-02T23:18:57Z</time>
      </trkpt>
      <trkpt lat="40.963517" lon="-5.664931">
        <ele>807.548</ele>
        <time>2019-03-02T23:19:01Z</time>
      </trkpt>
      <trkpt lat="40.963845" lon="-5.664674">
        <ele>806.792</ele>
        <time>2019-03-02T23:19:13Z</time>
      </trkpt>
      <trkpt lat="40.964010" lon="-5.664720">
        <ele>806.873</ele>
        <time>2019-03-02T23:19:18Z</time>
      </trkpt>
      <trkpt lat="40.964298" lon="-5.664836">
        <ele>807.220</ele>
        <time>2019-03-02T23:19:30Z</time>
      </trkpt>
      <trkpt lat="40.964399" lon="-5.664830">
        <ele>807.508</ele>
        <time>2019-03-02T23:19:34Z</time>
      </trkpt>
      <trkpt lat="40.964619" lon="-5.664742">
        <ele>807.462</ele>
        <time>2019-03-02T23:19:41Z</time>
      </trkpt>
      <trkpt lat="40.964668" lon="-5.664653">
        <ele>807.483</ele>
        <time>2019-03-02T23:19:43Z</time>
      </trkpt>
      <trkpt lat="40.964754" lon="-5.664334">
        <ele>807.254</ele>
        <time>2019-03-02T23:19:49Z</time>
      </trkpt>
      <trkpt lat="40.965027" lon="-5.663825">
        <ele>807.063</ele>
        <time>2019-03-02T23:20:02Z</time>
      </trkpt>
      <trkpt lat="40.965298" lon="-5.663816">
        <ele>807.647</ele>
        <time>2019-03-02T23:20:14Z</time>
      </trkpt>
      <trkpt lat="40.965314" lon="-5.663859">
        <ele>807.650</ele>
        <time>2019-03-02T23:20:20Z</time>
      </trkpt>
      <trkpt lat="40.965702" lon="-5.663923">
        <ele>808.879</ele>
        <time>2019-03-02T23:20:37Z</time>
      </trkpt>
      <trkpt lat="40.965757" lon="-5.663932">
        <ele>808.968</ele>
        <time>2019-03-02T23:20:39Z</time>
      </trkpt>
      <trkpt lat="40.966144" lon="-5.663999">
        <ele>809.542</ele>
        <time>2019-03-02T23:20:54Z</time>
      </trkpt>
      <trkpt lat="40.966447" lon="-5.664014">
        <ele>810.222</ele>
        <time>2019-03-02T23:21:05Z</time>
      </trkpt>
      <trkpt lat="40.966606" lon="-5.664052">
        <ele>810.614</ele>
        <time>2019-03-02T23:21:11Z</time>
      </trkpt>
      <trkpt lat="40.966938" lon="-5.664118">
        <ele>811.208</ele>
        <time>2019-03-02T23:21:23Z</time>
      </trkpt>
      <trkpt lat="40.967244" lon="-5.664087">
        <ele>811.487</ele>
        <time>2019-03-02T23:21:35Z</time>
      </trkpt>
      <trkpt lat="40.967523" lon="-5.664093">
        <ele>811.648</ele>
        <time>2019-03-02T23:21:46Z</time>
      </trkpt>
      <trkpt lat="40.967635" lon="-5.664098">
        <ele>811.879</ele>
        <time>2019-03-02T23:21:51Z</time>
      </trkpt>
      <trkpt lat="40.967725" lon="-5.664076">
        <ele>811.918</ele>
        <time>2019-03-02T23:21:55Z</time>
      </trkpt>
      <trkpt lat="40.968008" lon="-5.663961">
        <ele>812.772</ele>
        <time>2019-03-02T23:22:07Z</time>
      </trkpt>
      <trkpt lat="40.968095" lon="-5.663943">
        <ele>812.715</ele>
        <time>2019-03-02T23:22:11Z</time>
      </trkpt>
      <trkpt lat="40.968422" lon="-5.663844">
        <ele>813.154</ele>
        <time>2019-03-02T23:22:25Z</time>
      </trkpt>
      <trkpt lat="40.968781" lon="-5.663784">
        <ele>813.783</ele>
        <time>2019-03-02T23:22:39Z</time>
      </trkpt>
      <trkpt lat="40.969119" lon="-5.663676">
        <ele>814.376</ele>
        <time>2019-03-02T23:22:53Z</time>
      </trkpt>
      <trkpt lat="40.969448" lon="-5.663718">
        <ele>814.290</ele>
        <time>2019-03-02T23:23:05Z</time>
      </trkpt>
      <trkpt lat="40.969777" lon="-5.663700">
        <ele>814.819</ele>
        <time>2019-03-02T23:23:17Z</time>
      </trkpt>
      <trkpt lat="40.969814" lon="-5.663695">
        <ele>814.908</ele>
        <time>2019-03-02T23:23:19Z</time>
      </trkpt>
      <trkpt lat="40.969893" lon="-5.663532">
        <ele>815.790</ele>
        <time>2019-03-02T23:23:24Z</time>
      </trkpt>
      <trkpt lat="40.970102" lon="-5.663311">
        <ele>817.281</ele>
        <time>2019-03-02T23:23:33Z</time>
      </trkpt>
      <trkpt lat="40.970205" lon="-5.663399">
        <ele>817.072</ele>
        <time>2019-03-02T23:23:37Z</time>
      </trkpt>
      <trkpt lat="40.970314" lon="-5.663482">
        <ele>817.411</ele>
        <time>2019-03-02T23:23:41Z</time>
      </trkpt>
      <trkpt lat="40.970742" lon="-5.663466">
        <ele>819.745</ele>
        <time>2019-03-02T23:23:54Z</time>
      </trkpt>
      <trkpt lat="40.972958" lon="-5.663060">
        <ele>820.038</ele>
        <time>2019-03-02T23:26:27Z</time>
      </trkpt>
      <trkpt lat="40.972960" lon="-5.663061">
        <ele>820.177</ele>
        <time>2019-03-02T23:26:28Z</time>
      </trkpt>
      <trkpt lat="40.972947" lon="-5.662863">
        <ele>820.266</ele>
        <time>2019-03-02T23:26:33Z</time>
      </trkpt>
      <trkpt lat="40.972827" lon="-5.662933">
        <ele>820.451</ele>
        <time>2019-03-02T23:27:01Z</time>
      </trkpt>
      <trkpt lat="40.972929" lon="-5.662887">
        <ele>820.101</ele>
        <time>2019-03-02T23:27:09Z</time>
      </trkpt>
      <trkpt lat="40.973102" lon="-5.662913">
        <ele>819.811</ele>
        <time>2019-03-02T23:27:19Z</time>
      </trkpt>
      <trkpt lat="40.973287" lon="-5.662898">
        <ele>819.808</ele>
        <time>2019-03-02T23:27:34Z</time>
      </trkpt>
      <trkpt lat="40.973319" lon="-5.662889">
        <ele>819.948</ele>
        <time>2019-03-02T23:27:38Z</time>
      </trkpt>
      <trkpt lat="40.973514" lon="-5.662814">
        <ele>820.119</ele>
        <time>2019-03-02T23:27:59Z</time>
      </trkpt>
      <trkpt lat="40.973760" lon="-5.662777">
        <ele>820.590</ele>
        <time>2019-03-02T23:28:07Z</time>
      </trkpt>
      <trkpt lat="40.974106" lon="-5.662762">
        <ele>820.889</ele>
        <time>2019-03-02T23:28:16Z</time>
      </trkpt>
      <trkpt lat="40.974598" lon="-5.662730">
        <ele>820.073</ele>
        <time>2019-03-02T23:28:30Z</time>
      </trkpt>
      <trkpt lat="40.975346" lon="-5.662698">
        <ele>817.356</ele>
        <time>2019-03-02T23:28:46Z</time>
      </trkpt>
      <trkpt lat="40.975513" lon="-5.662620">
        <ele>817.675</ele>
        <time>2019-03-02T23:28:50Z</time>
      </trkpt>
      <trkpt lat="40.975632" lon="-5.662539">
        <ele>817.844</ele>
        <time>2019-03-02T23:28:53Z</time>
      </trkpt>
      <trkpt lat="40.975830" lon="-5.662381">
        <ele>818.525</ele>
        <time>2019-03-02T23:28:58Z</time>
      </trkpt>
      <trkpt lat="40.976089" lon="-5.662480">
        <ele>816.126</ele>
        <time>2019-03-02T23:29:07Z</time>
      </trkpt>
      <trkpt lat="40.976096" lon="-5.662522">
        <ele>816.008</ele>
        <time>2019-03-02T23:29:08Z</time>
      </trkpt>
      <trkpt lat="40.976138" lon="-5.662747">
        <ele>816.408</ele>
        <time>2019-03-02T23:29:13Z</time>
      </trkpt>
      <trkpt lat="40.976598" lon="-5.662876">
        <ele>816.125</ele>
        <time>2019-03-02T23:29:27Z</time>
      </trkpt>
      <trkpt lat="40.977269" lon="-5.662995">
        <ele>817.386</ele>
        <time>2019-03-02T23:29:45Z</time>
      </trkpt>
      <trkpt lat="40.978032" lon="-5.663111">
        <ele>818.697</ele>
        <time>2019-03-02T23:30:05Z</time>
      </trkpt>
      <trkpt lat="40.978366" lon="-5.663161">
        <ele>819.566</ele>
        <time>2019-03-02T23:30:16Z</time>
      </trkpt>
      <trkpt lat="40.978505" lon="-5.663083">
        <ele>819.980</ele>
        <time>2019-03-02T23:30:21Z</time>
      </trkpt>
      <trkpt lat="40.978813" lon="-5.662871">
        <ele>821.593</ele>
        <time>2019-03-02T23:30:34Z</time>
      </trkpt>
      <trkpt lat="40.979038" lon="-5.662683">
        <ele>823.132</ele>
        <time>2019-03-02T23:30:45Z</time>
      </trkpt>
      <trkpt lat="40.979048" lon="-5.662662">
        <ele>823.131</ele>
        <time>2019-03-02T23:30:46Z</time>
      </trkpt>
      <trkpt lat="40.979214" lon="-5.662802">
        <ele>824.099</ele>
        <time>2019-03-02T23:30:54Z</time>
      </trkpt>
      <trkpt lat="40.979550" lon="-5.663222">
        <ele>826.307</ele>
        <time>2019-03-02T23:31:08Z</time>
      </trkpt>
      <trkpt lat="40.979996" lon="-5.663336">
        <ele>828.827</ele>
        <time>2019-03-02T23:31:22Z</time>
      </trkpt>
      <trkpt lat="40.980448" lon="-5.663411">
        <ele>829.908</ele>
        <time>2019-03-02T23:31:37Z</time>
      </trkpt>
      <trkpt lat="40.980851" lon="-5.663483">
        <ele>828.622</ele>
        <time>2019-03-02T23:31:50Z</time>
      </trkpt>
      <trkpt lat="40.981348" lon="-5.663558">
        <ele>830.323</ele>
        <time>2019-03-02T23:32:07Z</time>
      </trkpt>
      <trkpt lat="40.981673" lon="-5.663689">
        <ele>831.664</ele>
        <time>2019-03-02T23:32:20Z</time>
      </trkpt>
      <trkpt lat="40.981983" lon="-5.663806">
        <ele>833.553</ele>
        <time>2019-03-02T23:32:31Z</time>
      </trkpt>
      <trkpt lat="40.982490" lon="-5.663893">
        <ele>835.847</ele>
        <time>2019-03-02T23:32:48Z</time>
      </trkpt>
      <trkpt lat="40.983079" lon="-5.663992">
        <ele>837.570</ele>
        <time>2019-03-02T23:33:07Z</time>
      </trkpt>
      <trkpt lat="40.983806" lon="-5.664117">
        <ele>839.429</ele>
        <time>2019-03-02T23:33:31Z</time>
      </trkpt>
      <trkpt lat="40.984572" lon="-5.664236">
        <ele>841.878</ele>
        <time>2019-03-02T23:33:57Z</time>
      </trkpt>
      <trkpt lat="40.985344" lon="-5.664360">
        <ele>841.446</ele>
        <time>2019-03-02T23:34:19Z</time>
      </trkpt>
      <trkpt lat="40.986241" lon="-5.664520">
        <ele>837.688</ele>
        <time>2019-03-02T23:34:36Z</time>
      </trkpt>
      <trkpt lat="40.987195" lon="-5.664683">
        <ele>833.716</ele>
        <time>2019-03-02T23:34:49Z</time>
      </trkpt>
      <trkpt lat="40.987973" lon="-5.664827">
        <ele>828.308</ele>
        <time>2019-03-02T23:34:58Z</time>
      </trkpt>
      <trkpt lat="40.988786" lon="-5.664968">
        <ele>824.297</ele>
        <time>2019-03-02T23:35:07Z</time>
      </trkpt>
      <trkpt lat="40.989523" lon="-5.665105">
        <ele>821.768</ele>
        <time>2019-03-02T23:35:15Z</time>
      </trkpt>
      <trkpt lat="40.990228" lon="-5.665231">
        <ele>819.579</ele>
        <time>2019-03-02T23:35:23Z</time>
      </trkpt>
      <trkpt lat="40.991068" lon="-5.665373">
        <ele>817.548</ele>
        <time>2019-03-02T23:35:33Z</time>
      </trkpt>
      <trkpt lat="40.991944" lon="-5.665527">
        <ele>815.842</ele>
        <time>2019-03-02T23:35:44Z</time>
      </trkpt>
      <trkpt lat="40.992454" lon="-5.665547">
        <ele>815.315</ele>
        <time>2019-03-02T23:35:51Z</time>
      </trkpt>
      <trkpt lat="40.992520" lon="-5.665521">
        <ele>815.474</ele>
        <time>2019-03-02T23:35:52Z</time>
      </trkpt>
      <trkpt lat="40.992580" lon="-5.665490">
        <ele>815.493</ele>
        <time>2019-03-02T23:35:53Z</time>
      </trkpt>
      <trkpt lat="40.992722" lon="-5.665419">
        <ele>815.411</ele>
        <time>2019-03-02T23:35:56Z</time>
      </trkpt>
      <trkpt lat="40.992764" lon="-5.665424">
        <ele>815.421</ele>
        <time>2019-03-02T23:35:57Z</time>
      </trkpt>
      <trkpt lat="40.992801" lon="-5.665446">
        <ele>815.503</ele>
        <time>2019-03-02T23:35:58Z</time>
      </trkpt>
      <trkpt lat="40.992835" lon="-5.665476">
        <ele>815.508</ele>
        <time>2019-03-02T23:35:59Z</time>
      </trkpt>
      <trkpt lat="40.992866" lon="-5.665510">
        <ele>815.534</ele>
        <time>2019-03-02T23:36:00Z</time>
      </trkpt>
      <trkpt lat="40.992898" lon="-5.665544">
        <ele>815.595</ele>
        <time>2019-03-02T23:36:01Z</time>
      </trkpt>
      <trkpt lat="40.992933" lon="-5.665573">
        <ele>815.636</ele>
        <time>2019-03-02T23:36:02Z</time>
      </trkpt>
      <trkpt lat="40.992973" lon="-5.665595">
        <ele>815.615</ele>
        <time>2019-03-02T23:36:03Z</time>
      </trkpt>
      <trkpt lat="40.993017" lon="-5.665611">
        <ele>815.649</ele>
        <time>2019-03-02T23:36:04Z</time>
      </trkpt>
      <trkpt lat="40.993063" lon="-5.665623">
        <ele>815.662</ele>
        <time>2019-03-02T23:36:05Z</time>
      </trkpt>
      <trkpt lat="40.993110" lon="-5.665632">
        <ele>815.681</ele>
        <time>2019-03-02T23:36:06Z</time>
      </trkpt>
      <trkpt lat="40.994078" lon="-5.665792">
        <ele>813.670</ele>
        <time>2019-03-02T23:36:24Z</time>
      </trkpt>
      <trkpt lat="40.994481" lon="-5.665868">
        <ele>813.374</ele>
        <time>2019-03-02T23:36:35Z</time>
      </trkpt>
      <trkpt lat="40.994615" lon="-5.665895">
        <ele>813.056</ele>
        <time>2019-03-02T23:36:46Z</time>
      </trkpt>
      <trkpt lat="40.994684" lon="-5.665915">
        <ele>812.721</ele>
        <time>2019-03-02T23:37:12Z</time>
      </trkpt>
      <trkpt lat="40.995294" lon="-5.666008">
        <ele>811.408</ele>
        <time>2019-03-02T23:37:25Z</time>
      </trkpt>
      <trkpt lat="40.995582" lon="-5.666052">
        <ele>810.550</ele>
        <time>2019-03-02T23:37:35Z</time>
      </trkpt>
      <trkpt lat="40.995634" lon="-5.666044">
        <ele>810.411</ele>
        <time>2019-03-02T23:37:50Z</time>
      </trkpt>
      <trkpt lat="40.996157" lon="-5.666170">
        <ele>809.462</ele>
        <time>2019-03-02T23:38:02Z</time>
      </trkpt>
      <trkpt lat="40.996200" lon="-5.666180">
        <ele>809.141</ele>
        <time>2019-03-02T23:38:03Z</time>
      </trkpt>
      <trkpt lat="40.996481" lon="-5.666202">
        <ele>807.055</ele>
        <time>2019-03-02T23:38:12Z</time>
      </trkpt>
      <trkpt lat="40.996752" lon="-5.665991">
        <ele>805.958</ele>
        <time>2019-03-02T23:38:23Z</time>
      </trkpt>
      <trkpt lat="40.996823" lon="-5.666039">
        <ele>805.927</ele>
        <time>2019-03-02T23:38:27Z</time>
      </trkpt>
      <trkpt lat="40.996901" lon="-5.666143">
        <ele>805.846</ele>
        <time>2019-03-02T23:38:30Z</time>
      </trkpt>
      <trkpt lat="40.997008" lon="-5.666235">
        <ele>805.995</ele>
        <time>2019-03-02T23:38:33Z</time>
      </trkpt>
      <trkpt lat="40.997772" lon="-5.666453">
        <ele>806.649</ele>
        <time>2019-03-02T23:38:49Z</time>
      </trkpt>
      <trkpt lat="40.998082" lon="-5.666495">
        <ele>808.123</ele>
        <time>2019-03-02T23:38:55Z</time>
      </trkpt>
      <trkpt lat="40.998127" lon="-5.666484">
        <ele>808.208</ele>
        <time>2019-03-02T23:38:56Z</time>
      </trkpt>
      <trkpt lat="40.998168" lon="-5.666465">
        <ele>808.312</ele>
        <time>2019-03-02T23:38:57Z</time>
      </trkpt>
      <trkpt lat="40.998206" lon="-5.666439">
        <ele>808.463</ele>
        <time>2019-03-02T23:38:58Z</time>
      </trkpt>
      <trkpt lat="40.998239" lon="-5.666406">
        <ele>808.524</ele>
        <time>2019-03-02T23:38:59Z</time>
      </trkpt>
      <trkpt lat="40.998273" lon="-5.666369">
        <ele>808.623</ele>
        <time>2019-03-02T23:39:00Z</time>
      </trkpt>
      <trkpt lat="40.998578" lon="-5.666143">
        <ele>809.377</ele>
        <time>2019-03-02T23:39:08Z</time>
      </trkpt>
      <trkpt lat="40.998620" lon="-5.666136">
        <ele>809.380</ele>
        <time>2019-03-02T23:39:09Z</time>
      </trkpt>
      <trkpt lat="40.998900" lon="-5.666208">
        <ele>809.799</ele>
        <time>2019-03-02T23:39:17Z</time>
      </trkpt>
      <trkpt lat="40.998942" lon="-5.666242">
        <ele>809.988</ele>
        <time>2019-03-02T23:39:18Z</time>
      </trkpt>
      <trkpt lat="40.998978" lon="-5.666283">
        <ele>810.042</ele>
        <time>2019-03-02T23:39:19Z</time>
      </trkpt>
      <trkpt lat="40.999010" lon="-5.666330">
        <ele>810.222</ele>
        <time>2019-03-02T23:39:20Z</time>
      </trkpt>
      <trkpt lat="40.999039" lon="-5.666380">
        <ele>810.314</ele>
        <time>2019-03-02T23:39:21Z</time>
      </trkpt>
      <trkpt lat="40.999067" lon="-5.666434">
        <ele>810.408</ele>
        <time>2019-03-02T23:39:22Z</time>
      </trkpt>
      <trkpt lat="40.999142" lon="-5.666607">
        <ele>810.947</ele>
        <time>2019-03-02T23:39:25Z</time>
      </trkpt>
      <trkpt lat="40.999174" lon="-5.666658">
        <ele>811.058</ele>
        <time>2019-03-02T23:39:26Z</time>
      </trkpt>
      <trkpt lat="40.999212" lon="-5.666701">
        <ele>811.189</ele>
        <time>2019-03-02T23:39:27Z</time>
      </trkpt>
      <trkpt lat="40.999255" lon="-5.666731">
        <ele>811.378</ele>
        <time>2019-03-02T23:39:28Z</time>
      </trkpt>
      <trkpt lat="40.999301" lon="-5.666750">
        <ele>811.422</ele>
        <time>2019-03-02T23:39:29Z</time>
      </trkpt>
      <trkpt lat="40.999348" lon="-5.666761">
        <ele>811.575</ele>
        <time>2019-03-02T23:39:30Z</time>
      </trkpt>
      <trkpt lat="40.999394" lon="-5.666767">
        <ele>811.674</ele>
        <time>2019-03-02T23:39:31Z</time>
      </trkpt>
      <trkpt lat="40.999928" lon="-5.666835">
        <ele>812.553</ele>
        <time>2019-03-02T23:39:46Z</time>
      </trkpt>
      <trkpt lat="41.000628" lon="-5.666974">
        <ele>810.844</ele>
        <time>2019-03-02T23:40:05Z</time>
      </trkpt>
      <trkpt lat="41.000712" lon="-5.666987">
        <ele>810.605</ele>
        <time>2019-03-02T23:40:07Z</time>
      </trkpt>
      <trkpt lat="41.000756" lon="-5.666986">
        <ele>810.515</ele>
        <time>2019-03-02T23:40:08Z</time>
      </trkpt>
      <trkpt lat="41.001514" lon="-5.666958">
        <ele>809.208</ele>
        <time>2019-03-02T23:40:24Z</time>
      </trkpt>
      <trkpt lat="41.002080" lon="-5.667018">
        <ele>808.147</ele>
        <time>2019-03-02T23:40:35Z</time>
      </trkpt>
      <trkpt lat="41.002128" lon="-5.667033">
        <ele>808.088</ele>
        <time>2019-03-02T23:40:36Z</time>
      </trkpt>
      <trkpt lat="41.002177" lon="-5.667048">
        <ele>807.939</ele>
        <time>2019-03-02T23:40:37Z</time>
      </trkpt>
      <trkpt lat="41.002330" lon="-5.667090">
        <ele>807.688</ele>
        <time>2019-03-02T23:40:40Z</time>
      </trkpt>
      <trkpt lat="41.002379" lon="-5.667116">
        <ele>807.582</ele>
        <time>2019-03-02T23:40:41Z</time>
      </trkpt>
      <trkpt lat="41.002425" lon="-5.667152">
        <ele>806.935</ele>
        <time>2019-03-02T23:40:42Z</time>
      </trkpt>
      <trkpt lat="41.002467" lon="-5.667194">
        <ele>806.934</ele>
        <time>2019-03-02T23:40:43Z</time>
      </trkpt>
      <trkpt lat="41.002509" lon="-5.667240">
        <ele>806.533</ele>
        <time>2019-03-02T23:40:44Z</time>
      </trkpt>
      <trkpt lat="41.002601" lon="-5.667325">
        <ele>806.299</ele>
        <time>2019-03-02T23:40:46Z</time>
      </trkpt>
      <trkpt lat="41.002651" lon="-5.667354">
        <ele>806.107</ele>
        <time>2019-03-02T23:40:47Z</time>
      </trkpt>
      <trkpt lat="41.002703" lon="-5.667376">
        <ele>805.927</ele>
        <time>2019-03-02T23:40:48Z</time>
      </trkpt>
      <trkpt lat="41.002757" lon="-5.667393">
        <ele>805.908</ele>
        <time>2019-03-02T23:40:49Z</time>
      </trkpt>
      <trkpt lat="41.002810" lon="-5.667407">
        <ele>805.862</ele>
        <time>2019-03-02T23:40:50Z</time>
      </trkpt>
      <trkpt lat="41.003230" lon="-5.667479">
        <ele>805.813</ele>
        <time>2019-03-02T23:41:01Z</time>
      </trkpt>
      <trkpt lat="41.003228" lon="-5.667479">
        <ele>805.854</ele>
        <time>2019-03-02T23:41:03Z</time>
      </trkpt>
      <trkpt lat="41.003268" lon="-5.667486">
        <ele>805.963</ele>
        <time>2019-03-02T23:42:05Z</time>
      </trkpt>
      <trkpt lat="41.003850" lon="-5.667585">
        <ele>807.097</ele>
        <time>2019-03-02T23:42:19Z</time>
      </trkpt>
      <trkpt lat="41.005092" lon="-5.667810">
        <ele>804.850</ele>
        <time>2019-03-02T23:42:40Z</time>
      </trkpt>
      <trkpt lat="41.006337" lon="-5.668029">
        <ele>803.269</ele>
        <time>2019-03-02T23:43:00Z</time>
      </trkpt>
      <trkpt lat="41.007421" lon="-5.668227">
        <ele>803.088</ele>
        <time>2019-03-02T23:43:18Z</time>
      </trkpt>
      <trkpt lat="41.007469" lon="-5.668246">
        <ele>803.111</ele>
        <time>2019-03-02T23:43:19Z</time>
      </trkpt>
      <trkpt lat="41.008054" lon="-5.668483">
        <ele>804.321</ele>
        <time>2019-03-02T23:43:34Z</time>
      </trkpt>
      <trkpt lat="41.008431" lon="-5.668715">
        <ele>807.003</ele>
        <time>2019-03-02T23:43:48Z</time>
      </trkpt>
      <trkpt lat="41.008779" lon="-5.668847">
        <ele>807.608</ele>
        <time>2019-03-02T23:44:04Z</time>
      </trkpt>
      <trkpt lat="41.009269" lon="-5.668997">
        <ele>807.224</ele>
        <time>2019-03-02T23:44:19Z</time>
      </trkpt>
      <trkpt lat="41.009891" lon="-5.669200">
        <ele>806.875</ele>
        <time>2019-03-02T23:44:35Z</time>
      </trkpt>
      <trkpt lat="41.009972" lon="-5.669235">
        <ele>806.856</ele>
        <time>2019-03-02T23:44:37Z</time>
      </trkpt>
      <trkpt lat="41.010715" lon="-5.669483">
        <ele>805.835</ele>
        <time>2019-03-02T23:44:55Z</time>
      </trkpt>
      <trkpt lat="41.010755" lon="-5.669505">
        <ele>805.749</ele>
        <time>2019-03-02T23:44:56Z</time>
      </trkpt>
      <trkpt lat="41.011061" lon="-5.669632">
        <ele>804.832</ele>
        <time>2019-03-02T23:45:04Z</time>
      </trkpt>
      <trkpt lat="41.011819" lon="-5.669824">
        <ele>800.871</ele>
        <time>2019-03-02T23:45:17Z</time>
      </trkpt>
      <trkpt lat="41.012430" lon="-5.669927">
        <ele>800.930</ele>
        <time>2019-03-02T23:45:26Z</time>
      </trkpt>
      <trkpt lat="41.013180" lon="-5.670101">
        <ele>800.188</ele>
        <time>2019-03-02T23:45:40Z</time>
      </trkpt>
      <trkpt lat="41.013780" lon="-5.670271">
        <ele>801.424</ele>
        <time>2019-03-02T23:45:56Z</time>
      </trkpt>
      <trkpt lat="41.014411" lon="-5.670414">
        <ele>803.626</ele>
        <time>2019-03-02T23:46:14Z</time>
      </trkpt>
      <trkpt lat="41.014727" lon="-5.670459">
        <ele>804.908</ele>
        <time>2019-03-02T23:46:28Z</time>
      </trkpt>
      <trkpt lat="41.014787" lon="-5.670453">
        <ele>805.131</ele>
        <time>2019-03-02T23:48:57Z</time>
      </trkpt>
      <trkpt lat="41.015171" lon="-5.670499">
        <ele>806.732</ele>
        <time>2019-03-02T23:49:12Z</time>
      </trkpt>
      <trkpt lat="41.015732" lon="-5.670542">
        <ele>809.893</ele>
        <time>2019-03-02T23:49:31Z</time>
      </trkpt>
      <trkpt lat="41.016237" lon="-5.670648">
        <ele>811.252</ele>
        <time>2019-03-02T23:49:48Z</time>
      </trkpt>
      <trkpt lat="41.016982" lon="-5.670836">
        <ele>812.296</ele>
        <time>2019-03-02T23:50:08Z</time>
      </trkpt>
      <trkpt lat="41.017277" lon="-5.670901">
        <ele>813.159</ele>
        <time>2019-03-02T23:50:15Z</time>
      </trkpt>
      <trkpt lat="41.017940" lon="-5.671042">
        <ele>813.858</ele>
        <time>2019-03-02T23:50:31Z</time>
      </trkpt>
      <trkpt lat="41.018512" lon="-5.671130">
        <ele>814.357</ele>
        <time>2019-03-02T23:50:46Z</time>
      </trkpt>
      <trkpt lat="41.018678" lon="-5.671128">
        <ele>814.343</ele>
        <time>2019-03-02T23:50:50Z</time>
      </trkpt>
      <trkpt lat="41.019107" lon="-5.671236">
        <ele>815.464</ele>
        <time>2019-03-02T23:51:01Z</time>
      </trkpt>
      <trkpt lat="41.019679" lon="-5.671228">
        <ele>817.610</ele>
        <time>2019-03-02T23:51:15Z</time>
      </trkpt>
      <trkpt lat="41.019988" lon="-5.671122">
        <ele>817.408</ele>
        <time>2019-03-02T23:51:24Z</time>
      </trkpt>
      <trkpt lat="41.020367" lon="-5.671063">
        <ele>816.957</ele>
        <time>2019-03-02T23:51:37Z</time>
      </trkpt>
      <trkpt lat="41.020447" lon="-5.671060">
        <ele>816.918</ele>
        <time>2019-03-02T23:51:42Z</time>
      </trkpt>
      <trkpt lat="41.020437" lon="-5.671174">
        <ele>817.059</ele>
        <time>2019-03-02T23:51:47Z</time>
      </trkpt>
      <trkpt lat="41.020380" lon="-5.671627">
        <ele>817.878</ele>
        <time>2019-03-02T23:52:02Z</time>
      </trkpt>
      <trkpt lat="41.020301" lon="-5.671941">
        <ele>818.922</ele>
        <time>2019-03-02T23:52:15Z</time>
      </trkpt>
      <trkpt lat="41.020271" lon="-5.672139">
        <ele>819.575</ele>
        <time>2019-03-02T23:52:22Z</time>
      </trkpt>
      <trkpt lat="41.020341" lon="-5.672199">
        <ele>819.944</ele>
        <time>2019-03-02T23:52:30Z</time>
      </trkpt>
      <trkpt lat="41.020448" lon="-5.672275">
        <ele>818.773</ele>
        <time>2019-03-02T23:52:35Z</time>
      </trkpt>
      <trkpt lat="41.020633" lon="-5.672385">
        <ele>817.299</ele>
        <time>2019-03-02T23:52:39Z</time>
      </trkpt>
      <trkpt lat="41.021232" lon="-5.672892">
        <ele>812.107</ele>
        <time>2019-03-02T23:52:53Z</time>
      </trkpt>
      <trkpt lat="41.021252" lon="-5.672908">
        <ele>812.227</ele>
        <time>2019-03-02T23:52:59Z</time>
      </trkpt>
      <trkpt lat="41.021210" lon="-5.672872">
        <ele>812.408</ele>
        <time>2019-03-02T23:53:13Z</time>
      </trkpt>
      <trkpt lat="41.020908" lon="-5.672551">
        <ele>814.912</ele>
        <time>2019-03-02T23:53:27Z</time>
      </trkpt>
      <trkpt lat="41.020555" lon="-5.672368">
        <ele>817.753</ele>
        <time>2019-03-02T23:53:44Z</time>
      </trkpt>
      <trkpt lat="41.020273" lon="-5.672455">
        <ele>820.324</ele>
        <time>2019-03-02T23:53:59Z</time>
      </trkpt>
      <trkpt lat="41.020017" lon="-5.672914">
        <ele>819.463</ele>
        <time>2019-03-02T23:54:13Z</time>
      </trkpt>
      <trkpt lat="41.019631" lon="-5.673287">
        <ele>817.687</ele>
        <time>2019-03-02T23:54:28Z</time>
      </trkpt>
      <trkpt lat="41.019488" lon="-5.673643">
        <ele>816.870</ele>
        <time>2019-03-02T23:54:38Z</time>
      </trkpt>
      <trkpt lat="41.019651" lon="-5.674561">
        <ele>817.119</ele>
        <time>2019-03-02T23:54:53Z</time>
      </trkpt>
      <trkpt lat="41.019907" lon="-5.675706">
        <ele>817.978</ele>
        <time>2019-03-02T23:55:12Z</time>
      </trkpt>
      <trkpt lat="41.019953" lon="-5.676671">
        <ele>817.849</ele>
        <time>2019-03-02T23:55:29Z</time>
      </trkpt>
      <trkpt lat="41.019964" lon="-5.676963">
        <ele>817.702</ele>
        <time>2019-03-02T23:55:34Z</time>
      </trkpt>
      <trkpt lat="41.019961" lon="-5.677021">
        <ele>817.722</ele>
        <time>2019-03-02T23:55:35Z</time>
      </trkpt>
      <trkpt lat="41.019959" lon="-5.677079">
        <ele>817.608</ele>
        <time>2019-03-02T23:55:36Z</time>
      </trkpt>
      <trkpt lat="41.019962" lon="-5.677138">
        <ele>817.677</ele>
        <time>2019-03-02T23:55:37Z</time>
      </trkpt>
      <trkpt lat="41.019968" lon="-5.677197">
        <ele>817.678</ele>
        <time>2019-03-02T23:55:38Z</time>
      </trkpt>
      <trkpt lat="41.019975" lon="-5.677257">
        <ele>817.519</ele>
        <time>2019-03-02T23:55:39Z</time>
      </trkpt>
      <trkpt lat="41.020026" lon="-5.677757">
        <ele>817.218</ele>
        <time>2019-03-02T23:55:47Z</time>
      </trkpt>
      <trkpt lat="41.020048" lon="-5.677880">
        <ele>817.272</ele>
        <time>2019-03-02T23:55:49Z</time>
      </trkpt>
      <trkpt lat="41.020121" lon="-5.678827">
        <ele>816.055</ele>
        <time>2019-03-02T23:56:05Z</time>
      </trkpt>
      <trkpt lat="41.020188" lon="-5.679625">
        <ele>816.044</ele>
        <time>2019-03-02T23:56:18Z</time>
      </trkpt>
      <trkpt lat="41.020197" lon="-5.679684">
        <ele>816.083</ele>
        <time>2019-03-02T23:56:19Z</time>
      </trkpt>
      <trkpt lat="41.020255" lon="-5.680060">
        <ele>815.568</ele>
        <time>2019-03-02T23:56:25Z</time>
      </trkpt>
      <trkpt lat="41.020266" lon="-5.680122">
        <ele>815.442</ele>
        <time>2019-03-02T23:56:26Z</time>
      </trkpt>
      <trkpt lat="41.020323" lon="-5.681172">
        <ele>814.926</ele>
        <time>2019-03-02T23:56:43Z</time>
      </trkpt>
      <trkpt lat="41.020390" lon="-5.682403">
        <ele>815.508</ele>
        <time>2019-03-02T23:57:03Z</time>
      </trkpt>
      <trkpt lat="41.020253" lon="-5.683665">
        <ele>815.249</ele>
        <time>2019-03-02T23:57:21Z</time>
      </trkpt>
      <trkpt lat="41.020127" lon="-5.684959">
        <ele>811.660</ele>
        <time>2019-03-02T23:57:37Z</time>
      </trkpt>
      <trkpt lat="41.019980" lon="-5.686064">
        <ele>809.621</ele>
        <time>2019-03-02T23:57:50Z</time>
      </trkpt>
      <trkpt lat="41.020007" lon="-5.687283">
        <ele>806.980</ele>
        <time>2019-03-02T23:58:05Z</time>
      </trkpt>
      <trkpt lat="41.019953" lon="-5.688670">
        <ele>807.394</ele>
        <time>2019-03-02T23:58:25Z</time>
      </trkpt>
      <trkpt lat="41.019973" lon="-5.688991">
        <ele>807.987</ele>
        <time>2019-03-02T23:58:36Z</time>
      </trkpt>
      <trkpt lat="41.019975" lon="-5.688990">
        <ele>807.936</ele>
        <time>2019-03-02T23:58:38Z</time>
      </trkpt>
      <trkpt lat="41.020024" lon="-5.689035">
        <ele>807.975</ele>
        <time>2019-03-02T23:59:27Z</time>
      </trkpt>
      <trkpt lat="41.020271" lon="-5.689081">
        <ele>808.568</ele>
        <time>2019-03-02T23:59:38Z</time>
      </trkpt>
      <trkpt lat="41.020764" lon="-5.689211">
        <ele>809.742</ele>
        <time>2019-03-02T23:59:57Z</time>
      </trkpt>
      <trkpt lat="41.021146" lon="-5.689276">
        <ele>810.526</ele>
        <time>2019-03-03T00:00:14Z</time>
      </trkpt>
      <trkpt lat="41.021543" lon="-5.689365">
        <ele>811.808</ele>
        <time>2019-03-03T00:00:32Z</time>
      </trkpt>
      <trkpt lat="41.022080" lon="-5.689498">
        <ele>811.139</ele>
        <time>2019-03-03T00:00:50Z</time>
      </trkpt>
      <trkpt lat="41.022676" lon="-5.689603">
        <ele>811.050</ele>
        <time>2019-03-03T00:01:04Z</time>
      </trkpt>
      <trkpt lat="41.022760" lon="-5.689629">
        <ele>811.041</ele>
        <time>2019-03-03T00:01:06Z</time>
      </trkpt>
      <trkpt lat="41.023564" lon="-5.689852">
        <ele>809.220</ele>
        <time>2019-03-03T00:01:22Z</time>
      </trkpt>
      <trkpt lat="41.024584" lon="-5.690380">
        <ele>806.034</ele>
        <time>2019-03-03T00:01:40Z</time>
      </trkpt>
      <trkpt lat="41.025574" lon="-5.690913">
        <ele>802.937</ele>
        <time>2019-03-03T00:01:59Z</time>
      </trkpt>
      <trkpt lat="41.025789" lon="-5.691036">
        <ele>802.436</ele>
        <time>2019-03-03T00:02:04Z</time>
      </trkpt>
      <trkpt lat="41.025865" lon="-5.691090">
        <ele>802.375</ele>
        <time>2019-03-03T00:02:06Z</time>
      </trkpt>
      <trkpt lat="41.025905" lon="-5.691111">
        <ele>802.239</ele>
        <time>2019-03-03T00:02:07Z</time>
      </trkpt>
      <trkpt lat="41.026657" lon="-5.691474">
        <ele>799.101</ele>
        <time>2019-03-03T00:02:24Z</time>
      </trkpt>
      <trkpt lat="41.027480" lon="-5.691900">
        <ele>793.121</ele>
        <time>2019-03-03T00:02:38Z</time>
      </trkpt>
      <trkpt lat="41.027885" lon="-5.692101">
        <ele>788.708</ele>
        <time>2019-03-03T00:02:46Z</time>
      </trkpt>
      <trkpt lat="41.028338" lon="-5.692360">
        <ele>786.326</ele>
        <time>2019-03-03T00:02:54Z</time>
      </trkpt>
      <trkpt lat="41.028756" lon="-5.692572">
        <ele>783.857</ele>
        <time>2019-03-03T00:03:00Z</time>
      </trkpt>
      <trkpt lat="41.029193" lon="-5.692718">
        <ele>780.948</ele>
        <time>2019-03-03T00:03:06Z</time>
      </trkpt>
      <trkpt lat="41.029637" lon="-5.692804">
        <ele>778.037</ele>
        <time>2019-03-03T00:03:12Z</time>
      </trkpt>
      <trkpt lat="41.030211" lon="-5.692924">
        <ele>776.821</ele>
        <time>2019-03-03T00:03:20Z</time>
      </trkpt>
      <trkpt lat="41.030864" lon="-5.693034">
        <ele>780.474</ele>
        <time>2019-03-03T00:03:32Z</time>
      </trkpt>
      <trkpt lat="41.031414" lon="-5.693132">
        <ele>783.653</ele>
        <time>2019-03-03T00:03:50Z</time>
      </trkpt>
      <trkpt lat="41.031874" lon="-5.693208">
        <ele>786.522</ele>
        <time>2019-03-03T00:04:08Z</time>
      </trkpt>
      <trkpt lat="41.032490" lon="-5.693316">
        <ele>789.139</ele>
        <time>2019-03-03T00:04:32Z</time>
      </trkpt>
      <trkpt lat="41.032995" lon="-5.693412">
        <ele>790.901</ele>
        <time>2019-03-03T00:04:53Z</time>
      </trkpt>
      <trkpt lat="41.033374" lon="-5.693470">
        <ele>791.921</ele>
        <time>2019-03-03T00:05:10Z</time>
      </trkpt>
      <trkpt lat="41.033802" lon="-5.693549">
        <ele>792.908</ele>
        <time>2019-03-03T00:05:28Z</time>
      </trkpt>
      <trkpt lat="41.034283" lon="-5.693640">
        <ele>793.766</ele>
        <time>2019-03-03T00:05:45Z</time>
      </trkpt>
      <trkpt lat="41.034679" lon="-5.693734">
        <ele>793.957</ele>
        <time>2019-03-03T00:06:00Z</time>
      </trkpt>
      <trkpt lat="41.035236" lon="-5.693851">
        <ele>794.768</ele>
        <time>2019-03-03T00:06:18Z</time>
      </trkpt>
      <trkpt lat="41.035709" lon="-5.693958">
        <ele>795.137</ele>
        <time>2019-03-03T00:06:34Z</time>
      </trkpt>
      <trkpt lat="41.036392" lon="-5.694096">
        <ele>796.821</ele>
        <time>2019-03-03T00:06:54Z</time>
      </trkpt>
      <trkpt lat="41.036840" lon="-5.694198">
        <ele>797.924</ele>
        <time>2019-03-03T00:07:08Z</time>
      </trkpt>
      <trkpt lat="41.037358" lon="-5.694307">
        <ele>799.353</ele>
        <time>2019-03-03T00:07:26Z</time>
      </trkpt>
      <trkpt lat="41.037987" lon="-5.694449">
        <ele>800.782</ele>
        <time>2019-03-03T00:07:50Z</time>
      </trkpt>
      <trkpt lat="41.038593" lon="-5.694581">
        <ele>802.229</ele>
        <time>2019-03-03T00:08:14Z</time>
      </trkpt>
      <trkpt lat="41.039218" lon="-5.694715">
        <ele>803.800</ele>
        <time>2019-03-03T00:08:38Z</time>
      </trkpt>
      <trkpt lat="41.039828" lon="-5.694848">
        <ele>803.920</ele>
        <time>2019-03-03T00:08:57Z</time>
      </trkpt>
      <trkpt lat="41.040276" lon="-5.694959">
        <ele>803.908</ele>
        <time>2019-03-03T00:09:11Z</time>
      </trkpt>
      <trkpt lat="41.040943" lon="-5.695100">
        <ele>805.155</ele>
        <time>2019-03-03T00:09:30Z</time>
      </trkpt>
      <trkpt lat="41.041631" lon="-5.695266">
        <ele>806.766</ele>
        <time>2019-03-03T00:09:51Z</time>
      </trkpt>
      <trkpt lat="41.042315" lon="-5.695410">
        <ele>808.167</ele>
        <time>2019-03-03T00:10:13Z</time>
      </trkpt>
      <trkpt lat="41.043039" lon="-5.695557">
        <ele>808.826</ele>
        <time>2019-03-03T00:10:35Z</time>
      </trkpt>
      <trkpt lat="41.043788" lon="-5.695691">
        <ele>808.560</ele>
        <time>2019-03-03T00:10:56Z</time>
      </trkpt>
      <trkpt lat="41.044414" lon="-5.695683">
        <ele>807.883</ele>
        <time>2019-03-03T00:11:12Z</time>
      </trkpt>
      <trkpt lat="41.044834" lon="-5.695673">
        <ele>808.192</ele>
        <time>2019-03-03T00:11:25Z</time>
      </trkpt>
      <trkpt lat="41.045179" lon="-5.695694">
        <ele>808.611</ele>
        <time>2019-03-03T00:11:41Z</time>
      </trkpt>
      <trkpt lat="41.045178" lon="-5.695693">
        <ele>808.623</ele>
        <time>2019-03-03T00:11:42Z</time>
      </trkpt>
      <trkpt lat="41.045240" lon="-5.695667">
        <ele>808.783</ele>
        <time>2019-03-03T00:12:15Z</time>
      </trkpt>
      <trkpt lat="41.045263" lon="-5.695667">
        <ele>808.711</ele>
        <time>2019-03-03T00:12:16Z</time>
      </trkpt>
      <trkpt lat="41.045678" lon="-5.695738">
        <ele>809.108</ele>
        <time>2019-03-03T00:12:32Z</time>
      </trkpt>
      <trkpt lat="41.046088" lon="-5.696038">
        <ele>810.365</ele>
        <time>2019-03-03T00:12:49Z</time>
      </trkpt>
      <trkpt lat="41.046521" lon="-5.696381">
        <ele>811.246</ele>
        <time>2019-03-03T00:13:05Z</time>
      </trkpt>
      <trkpt lat="41.046949" lon="-5.696733">
        <ele>812.337</ele>
        <time>2019-03-03T00:13:20Z</time>
      </trkpt>
      <trkpt lat="41.047759" lon="-5.697119">
        <ele>815.736</ele>
        <time>2019-03-03T00:13:42Z</time>
      </trkpt>
      <trkpt lat="41.048332" lon="-5.697113">
        <ele>817.960</ele>
        <time>2019-03-03T00:13:58Z</time>
      </trkpt>
      <trkpt lat="41.048771" lon="-5.696971">
        <ele>818.923</ele>
        <time>2019-03-03T00:14:15Z</time>
      </trkpt>
      <trkpt lat="41.049212" lon="-5.696791">
        <ele>819.522</ele>
        <time>2019-03-03T00:14:31Z</time>
      </trkpt>
      <trkpt lat="41.049810" lon="-5.696369">
        <ele>820.861</ele>
        <time>2019-03-03T00:14:52Z</time>
      </trkpt>
      <trkpt lat="41.050257" lon="-5.696018">
        <ele>822.115</ele>
        <time>2019-03-03T00:15:11Z</time>
      </trkpt>
      <trkpt lat="41.050599" lon="-5.696015">
        <ele>822.765</ele>
        <time>2019-03-03T00:15:22Z</time>
      </trkpt>
      <trkpt lat="41.051001" lon="-5.696045">
        <ele>823.811</ele>
        <time>2019-03-03T00:15:35Z</time>
      </trkpt>
      <trkpt lat="41.051483" lon="-5.696105">
        <ele>824.608</ele>
        <time>2019-03-03T00:15:51Z</time>
      </trkpt>
      <trkpt lat="41.051895" lon="-5.695928">
        <ele>825.424</ele>
        <time>2019-03-03T00:16:05Z</time>
      </trkpt>
      <trkpt lat="41.052292" lon="-5.695751">
        <ele>826.075</ele>
        <time>2019-03-03T00:16:19Z</time>
      </trkpt>
      <trkpt lat="41.052643" lon="-5.695827">
        <ele>825.946</ele>
        <time>2019-03-03T00:16:33Z</time>
      </trkpt>
      <trkpt lat="41.052893" lon="-5.695998">
        <ele>825.755</ele>
        <time>2019-03-03T00:16:44Z</time>
      </trkpt>
      <trkpt lat="41.052914" lon="-5.695994">
        <ele>825.789</ele>
        <time>2019-03-03T00:16:45Z</time>
      </trkpt>
      <trkpt lat="41.052933" lon="-5.695983">
        <ele>825.782</ele>
        <time>2019-03-03T00:16:46Z</time>
      </trkpt>
      <trkpt lat="41.052951" lon="-5.695968">
        <ele>825.731</ele>
        <time>2019-03-03T00:16:47Z</time>
      </trkpt>
      <trkpt lat="41.052966" lon="-5.695950">
        <ele>825.740</ele>
        <time>2019-03-03T00:16:48Z</time>
      </trkpt>
      <trkpt lat="41.053036" lon="-5.695916">
        <ele>825.788</ele>
        <time>2019-03-03T00:16:52Z</time>
      </trkpt>
      <trkpt lat="41.053055" lon="-5.695931">
        <ele>825.824</ele>
        <time>2019-03-03T00:16:53Z</time>
      </trkpt>
      <trkpt lat="41.053075" lon="-5.695952">
        <ele>825.826</ele>
        <time>2019-03-03T00:16:54Z</time>
      </trkpt>
      <trkpt lat="41.053095" lon="-5.695977">
        <ele>825.908</ele>
        <time>2019-03-03T00:16:55Z</time>
      </trkpt>
      <trkpt lat="41.053114" lon="-5.696005">
        <ele>825.981</ele>
        <time>2019-03-03T00:16:56Z</time>
      </trkpt>
      <trkpt lat="41.053468" lon="-5.696539">
        <ele>826.462</ele>
        <time>2019-03-03T00:17:15Z</time>
      </trkpt>
      <trkpt lat="41.053715" lon="-5.696910">
        <ele>827.493</ele>
        <time>2019-03-03T00:17:30Z</time>
      </trkpt>
      <trkpt lat="41.054020" lon="-5.697332">
        <ele>828.732</ele>
        <time>2019-03-03T00:17:49Z</time>
      </trkpt>
      <trkpt lat="41.054356" lon="-5.697551">
        <ele>829.896</ele>
        <time>2019-03-03T00:18:06Z</time>
      </trkpt>
      <trkpt lat="41.054793" lon="-5.697834">
        <ele>830.599</ele>
        <time>2019-03-03T00:18:25Z</time>
      </trkpt>
      <trkpt lat="41.055200" lon="-5.698112">
        <ele>830.998</ele>
        <time>2019-03-03T00:18:40Z</time>
      </trkpt>
      <trkpt lat="41.055877" lon="-5.698572">
        <ele>831.017</ele>
        <time>2019-03-03T00:19:02Z</time>
      </trkpt>
      <trkpt lat="41.056557" lon="-5.699013">
        <ele>830.179</ele>
        <time>2019-03-03T00:19:23Z</time>
      </trkpt>
      <trkpt lat="41.057275" lon="-5.699493">
        <ele>829.105</ele>
        <time>2019-03-03T00:19:42Z</time>
      </trkpt>
      <trkpt lat="41.057728" lon="-5.699810">
        <ele>828.725</ele>
        <time>2019-03-03T00:19:57Z</time>
      </trkpt>
      <trkpt lat="41.057732" lon="-5.699829">
        <ele>828.708</ele>
        <time>2019-03-03T00:20:02Z</time>
      </trkpt>
      <trkpt lat="41.057768" lon="-5.699842">
        <ele>828.680</ele>
        <time>2019-03-03T00:20:47Z</time>
      </trkpt>
      <trkpt lat="41.057789" lon="-5.699850">
        <ele>828.581</ele>
        <time>2019-03-03T00:20:48Z</time>
      </trkpt>
      <trkpt lat="41.057814" lon="-5.699858">
        <ele>828.582</ele>
        <time>2019-03-03T00:20:49Z</time>
      </trkpt>
      <trkpt lat="41.058238" lon="-5.700132">
        <ele>828.221</ele>
        <time>2019-03-03T00:21:03Z</time>
      </trkpt>
      <trkpt lat="41.058945" lon="-5.700607">
        <ele>827.265</ele>
        <time>2019-03-03T00:21:21Z</time>
      </trkpt>
      <trkpt lat="41.059763" lon="-5.701138">
        <ele>825.628</ele>
        <time>2019-03-03T00:21:37Z</time>
      </trkpt>
      <trkpt lat="41.060870" lon="-5.701890">
        <ele>823.457</ele>
        <time>2019-03-03T00:21:56Z</time>
      </trkpt>
      <trkpt lat="41.061022" lon="-5.702012">
        <ele>823.136</ele>
        <time>2019-03-03T00:21:59Z</time>
      </trkpt>
      <trkpt lat="41.061641" lon="-5.702180">
        <ele>821.891</ele>
        <time>2019-03-03T00:22:11Z</time>
      </trkpt>
      <trkpt lat="41.062381" lon="-5.701959">
        <ele>822.381</ele>
        <time>2019-03-03T00:22:27Z</time>
      </trkpt>
      <trkpt lat="41.063491" lon="-5.701627">
        <ele>821.519</ele>
        <time>2019-03-03T00:22:49Z</time>
      </trkpt>
      <trkpt lat="41.064461" lon="-5.701332">
        <ele>821.308</ele>
        <time>2019-03-03T00:23:06Z</time>
      </trkpt>
      <trkpt lat="41.065177" lon="-5.701249">
        <ele>821.042</ele>
        <time>2019-03-03T00:23:20Z</time>
      </trkpt>
      <trkpt lat="41.066165" lon="-5.701258">
        <ele>819.933</ele>
        <time>2019-03-03T00:23:37Z</time>
      </trkpt>
      <trkpt lat="41.067366" lon="-5.701260">
        <ele>817.644</ele>
        <time>2019-03-03T00:23:57Z</time>
      </trkpt>
      <trkpt lat="41.068645" lon="-5.701244">
        <ele>815.963</ele>
        <time>2019-03-03T00:24:19Z</time>
      </trkpt>
      <trkpt lat="41.069659" lon="-5.701243">
        <ele>814.827</ele>
        <time>2019-03-03T00:24:37Z</time>
      </trkpt>
      <trkpt lat="41.070658" lon="-5.701238">
        <ele>812.560</ele>
        <time>2019-03-03T00:24:55Z</time>
      </trkpt>
      <trkpt lat="41.071516" lon="-5.701242">
        <ele>812.339</ele>
        <time>2019-03-03T00:25:12Z</time>
      </trkpt>
      <trkpt lat="41.072359" lon="-5.701242">
        <ele>812.648</ele>
        <time>2019-03-03T00:25:29Z</time>
      </trkpt>
      <trkpt lat="41.073434" lon="-5.701231">
        <ele>811.956</ele>
        <time>2019-03-03T00:25:48Z</time>
      </trkpt>
      <trkpt lat="41.074666" lon="-5.701232">
        <ele>809.559</ele>
        <time>2019-03-03T00:26:07Z</time>
      </trkpt>
      <trkpt lat="41.075769" lon="-5.701232">
        <ele>807.114</ele>
        <time>2019-03-03T00:26:26Z</time>
      </trkpt>
      <trkpt lat="41.077070" lon="-5.701225">
        <ele>805.908</ele>
        <time>2019-03-03T00:26:49Z</time>
      </trkpt>
      <trkpt lat="41.078015" lon="-5.701240">
        <ele>805.618</ele>
        <time>2019-03-03T00:27:08Z</time>
      </trkpt>
      <trkpt lat="41.078689" lon="-5.701253">
        <ele>805.149</ele>
        <time>2019-03-03T00:27:22Z</time>
      </trkpt>
      <trkpt lat="41.079533" lon="-5.701499">
        <ele>804.210</ele>
        <time>2019-03-03T00:27:39Z</time>
      </trkpt>
      <trkpt lat="41.080229" lon="-5.701698">
        <ele>805.359</ele>
        <time>2019-03-03T00:27:58Z</time>
      </trkpt>
      <trkpt lat="41.080822" lon="-5.701866">
        <ele>807.463</ele>
        <time>2019-03-03T00:28:18Z</time>
      </trkpt>
      <trkpt lat="41.081486" lon="-5.702059">
        <ele>809.476</ele>
        <time>2019-03-03T00:28:39Z</time>
      </trkpt>
      <trkpt lat="41.081844" lon="-5.702160">
        <ele>809.435</ele>
        <time>2019-03-03T00:28:53Z</time>
      </trkpt>
      <trkpt lat="41.082580" lon="-5.702387">
        <ele>807.564</ele>
        <time>2019-03-03T00:29:09Z</time>
      </trkpt>
      <trkpt lat="41.083589" lon="-5.702643">
        <ele>806.119</ele>
        <time>2019-03-03T00:29:28Z</time>
      </trkpt>
      <trkpt lat="41.083818" lon="-5.702711">
        <ele>805.709</ele>
        <time>2019-03-03T00:29:33Z</time>
      </trkpt>
      <trkpt lat="41.083910" lon="-5.702718">
        <ele>805.619</ele>
        <time>2019-03-03T00:29:35Z</time>
      </trkpt>
      <trkpt lat="41.083957" lon="-5.702729">
        <ele>805.608</ele>
        <time>2019-03-03T00:29:36Z</time>
      </trkpt>
      <trkpt lat="41.084693" lon="-5.702851">
        <ele>803.844</ele>
        <time>2019-03-03T00:29:49Z</time>
      </trkpt>
      <trkpt lat="41.085466" lon="-5.703060">
        <ele>802.485</ele>
        <time>2019-03-03T00:30:01Z</time>
      </trkpt>
      <trkpt lat="41.086221" lon="-5.703202">
        <ele>801.166</ele>
        <time>2019-03-03T00:30:14Z</time>
      </trkpt>
      <trkpt lat="41.086437" lon="-5.703225">
        <ele>800.535</ele>
        <time>2019-03-03T00:30:20Z</time>
      </trkpt>
      <trkpt lat="41.086547" lon="-5.703013">
        <ele>800.429</ele>
        <time>2019-03-03T00:30:29Z</time>
      </trkpt>
      <trkpt lat="41.086633" lon="-5.702984">
        <ele>800.392</ele>
        <time>2019-03-03T00:30:33Z</time>
      </trkpt>
      <trkpt lat="41.086757" lon="-5.703125">
        <ele>800.011</ele>
        <time>2019-03-03T00:30:45Z</time>
      </trkpt>
      <trkpt lat="41.086755" lon="-5.703126">
        <ele>800.050</ele>
        <time>2019-03-03T00:30:47Z</time>
      </trkpt>
      <trkpt lat="41.086780" lon="-5.703190">
        <ele>800.044</ele>
        <time>2019-03-03T00:31:50Z</time>
      </trkpt>
      <trkpt lat="41.087107" lon="-5.703419">
        <ele>799.605</ele>
        <time>2019-03-03T00:32:01Z</time>
      </trkpt>
      <trkpt lat="41.087491" lon="-5.703491">
        <ele>799.115</ele>
        <time>2019-03-03T00:32:12Z</time>
      </trkpt>
      <trkpt lat="41.088060" lon="-5.703491">
        <ele>798.408</ele>
        <time>2019-03-03T00:32:27Z</time>
      </trkpt>
      <trkpt lat="41.088487" lon="-5.703546">
        <ele>798.747</ele>
        <time>2019-03-03T00:32:39Z</time>
      </trkpt>
      <trkpt lat="41.088994" lon="-5.703710">
        <ele>799.228</ele>
        <time>2019-03-03T00:32:54Z</time>
      </trkpt>
      <trkpt lat="41.089504" lon="-5.703974">
        <ele>802.049</ele>
        <time>2019-03-03T00:33:12Z</time>
      </trkpt>
      <trkpt lat="41.089933" lon="-5.704204">
        <ele>803.558</ele>
        <time>2019-03-03T00:33:30Z</time>
      </trkpt>
      <trkpt lat="41.090162" lon="-5.704321">
        <ele>804.812</ele>
        <time>2019-03-03T00:33:46Z</time>
      </trkpt>
      <trkpt lat="41.090411" lon="-5.704441">
        <ele>806.955</ele>
        <time>2019-03-03T00:34:04Z</time>
      </trkpt>
      <trkpt lat="41.090681" lon="-5.704557">
        <ele>808.534</ele>
        <time>2019-03-03T00:34:22Z</time>
      </trkpt>
      <trkpt lat="41.090999" lon="-5.704659">
        <ele>808.463</ele>
        <time>2019-03-03T00:34:38Z</time>
      </trkpt>
      <trkpt lat="41.091527" lon="-5.704802">
        <ele>807.149</ele>
        <time>2019-03-03T00:34:53Z</time>
      </trkpt>
      <trkpt lat="41.092141" lon="-5.704953">
        <ele>806.402</ele>
        <time>2019-03-03T00:35:07Z</time>
      </trkpt>
      <trkpt lat="41.092364" lon="-5.705015">
        <ele>806.422</ele>
        <time>2019-03-03T00:35:18Z</time>
      </trkpt>
      <trkpt lat="41.092382" lon="-5.705016">
        <ele>806.408</ele>
        <time>2019-03-03T00:35:23Z</time>
      </trkpt>
      <trkpt lat="41.092421" lon="-5.705027">
        <ele>806.427</ele>
        <time>2019-03-03T00:35:51Z</time>
      </trkpt>
      <trkpt lat="41.092920" lon="-5.705171">
        <ele>807.018</ele>
        <time>2019-03-03T00:36:06Z</time>
      </trkpt>
      <trkpt lat="41.093475" lon="-5.705336">
        <ele>809.159</ele>
        <time>2019-03-03T00:36:23Z</time>
      </trkpt>
      <trkpt lat="41.094117" lon="-5.705523">
        <ele>809.798</ele>
        <time>2019-03-03T00:36:44Z</time>
      </trkpt>
      <trkpt lat="41.094870" lon="-5.705728">
        <ele>810.882</ele>
        <time>2019-03-03T00:37:05Z</time>
      </trkpt>
      <trkpt lat="41.095507" lon="-5.705916">
        <ele>811.845</ele>
        <time>2019-03-03T00:37:24Z</time>
      </trkpt>
      <trkpt lat="41.095605" lon="-5.705946">
        <ele>812.074</ele>
        <time>2019-03-03T00:37:32Z</time>
      </trkpt>
      <trkpt lat="41.095649" lon="-5.705959">
        <ele>812.093</ele>
        <time>2019-03-03T00:38:04Z</time>
      </trkpt>
      <trkpt lat="41.096118" lon="-5.706097">
        <ele>812.983</ele>
        <time>2019-03-03T00:38:18Z</time>
      </trkpt>
      <trkpt lat="41.096670" lon="-5.706248">
        <ele>815.225</ele>
        <time>2019-03-03T00:38:36Z</time>
      </trkpt>
      <trkpt lat="41.097160" lon="-5.706383">
        <ele>817.117</ele>
        <time>2019-03-03T00:38:54Z</time>
      </trkpt>
      <trkpt lat="41.097496" lon="-5.706415">
        <ele>817.808</ele>
        <time>2019-03-03T00:39:09Z</time>
      </trkpt>
      <trkpt lat="41.097516" lon="-5.706422">
        <ele>817.881</ele>
        <time>2019-03-03T00:39:12Z</time>
      </trkpt>
      <trkpt lat="41.097522" lon="-5.706442">
        <ele>817.852</ele>
        <time>2019-03-03T00:39:17Z</time>
      </trkpt>
      <trkpt lat="41.097573" lon="-5.706361">
        <ele>818.033</ele>
        <time>2019-03-03T00:40:50Z</time>
      </trkpt>
      <trkpt lat="41.097593" lon="-5.706352">
        <ele>818.092</ele>
        <time>2019-03-03T00:40:51Z</time>
      </trkpt>
      <trkpt lat="41.097618" lon="-5.706339">
        <ele>818.166</ele>
        <time>2019-03-03T00:40:52Z</time>
      </trkpt>
      <trkpt lat="41.098166" lon="-5.706102">
        <ele>818.939</ele>
        <time>2019-03-03T00:41:06Z</time>
      </trkpt>
      <trkpt lat="41.098977" lon="-5.705755">
        <ele>820.648</ele>
        <time>2019-03-03T00:41:26Z</time>
      </trkpt>
      <trkpt lat="41.099804" lon="-5.705404">
        <ele>821.947</ele>
        <time>2019-03-03T00:41:48Z</time>
      </trkpt>
      <trkpt lat="41.100426" lon="-5.705145">
        <ele>822.968</ele>
        <time>2019-03-03T00:42:05Z</time>
      </trkpt>
      <trkpt lat="41.101422" lon="-5.704727">
        <ele>824.342</ele>
        <time>2019-03-03T00:42:32Z</time>
      </trkpt>
      <trkpt lat="41.102172" lon="-5.704408">
        <ele>825.126</ele>
        <time>2019-03-03T00:42:52Z</time>
      </trkpt>
      <trkpt lat="41.102851" lon="-5.704122">
        <ele>825.208</ele>
        <time>2019-03-03T00:43:11Z</time>
      </trkpt>
      <trkpt lat="41.103620" lon="-5.703801">
        <ele>825.879</ele>
        <time>2019-03-03T00:43:33Z</time>
      </trkpt>
      <trkpt lat="41.104264" lon="-5.703534">
        <ele>826.190</ele>
        <time>2019-03-03T00:43:52Z</time>
      </trkpt>
      <trkpt lat="41.104998" lon="-5.703222">
        <ele>826.141</ele>
        <time>2019-03-03T00:44:12Z</time>
      </trkpt>
      <trkpt lat="41.105706" lon="-5.702925">
        <ele>826.050</ele>
        <time>2019-03-03T00:44:29Z</time>
      </trkpt>
      <trkpt lat="41.106405" lon="-5.702620">
        <ele>826.034</ele>
        <time>2019-03-03T00:44:46Z</time>
      </trkpt>
      <trkpt lat="41.107378" lon="-5.702214">
        <ele>825.997</ele>
        <time>2019-03-03T00:45:08Z</time>
      </trkpt>
      <trkpt lat="41.108196" lon="-5.701872">
        <ele>825.816</ele>
        <time>2019-03-03T00:45:28Z</time>
      </trkpt>
      <trkpt lat="41.108883" lon="-5.701580">
        <ele>824.355</ele>
        <time>2019-03-03T00:45:45Z</time>
      </trkpt>
      <trkpt lat="41.109286" lon="-5.701398">
        <ele>823.732</ele>
        <time>2019-03-03T00:45:56Z</time>
      </trkpt>
      <trkpt lat="41.110002" lon="-5.701040">
        <ele>822.292</ele>
        <time>2019-03-03T00:46:12Z</time>
      </trkpt>
      <trkpt lat="41.110693" lon="-5.700681">
        <ele>823.011</ele>
        <time>2019-03-03T00:46:30Z</time>
      </trkpt>
      <trkpt lat="41.111080" lon="-5.700500">
        <ele>823.108</ele>
        <time>2019-03-03T00:46:45Z</time>
      </trkpt>
      <trkpt lat="41.111319" lon="-5.700284">
        <ele>823.336</ele>
        <time>2019-03-03T00:46:58Z</time>
      </trkpt>
      <trkpt lat="41.111318" lon="-5.700270">
        <ele>823.347</ele>
        <time>2019-03-03T00:47:02Z</time>
      </trkpt>
      <trkpt lat="41.111319" lon="-5.700212">
        <ele>823.458</ele>
        <time>2019-03-03T00:47:38Z</time>
      </trkpt>
      <trkpt lat="41.111366" lon="-5.699760">
        <ele>823.457</ele>
        <time>2019-03-03T00:47:55Z</time>
      </trkpt>
      <trkpt lat="41.111394" lon="-5.699324">
        <ele>823.171</ele>
        <time>2019-03-03T00:48:13Z</time>
      </trkpt>
      <trkpt lat="41.111404" lon="-5.699308">
        <ele>823.134</ele>
        <time>2019-03-03T00:48:14Z</time>
      </trkpt>
      <trkpt lat="41.111416" lon="-5.699302">
        <ele>823.163</ele>
        <time>2019-03-03T00:48:15Z</time>
      </trkpt>
      <trkpt lat="41.111431" lon="-5.699304">
        <ele>823.112</ele>
        <time>2019-03-03T00:48:16Z</time>
      </trkpt>
      <trkpt lat="41.111450" lon="-5.699308">
        <ele>823.112</ele>
        <time>2019-03-03T00:48:17Z</time>
      </trkpt>
      <trkpt lat="41.111993" lon="-5.699310">
        <ele>819.532</ele>
        <time>2019-03-03T00:48:33Z</time>
      </trkpt>
      <trkpt lat="41.112506" lon="-5.699272">
        <ele>818.205</ele>
        <time>2019-03-03T00:48:46Z</time>
      </trkpt>
      <trkpt lat="41.113445" lon="-5.699238">
        <ele>817.308</ele>
        <time>2019-03-03T00:49:05Z</time>
      </trkpt>
      <trkpt lat="41.114243" lon="-5.699279">
        <ele>815.094</ele>
        <time>2019-03-03T00:49:22Z</time>
      </trkpt>
      <trkpt lat="41.114586" lon="-5.699313">
        <ele>814.575</ele>
        <time>2019-03-03T00:49:34Z</time>
      </trkpt>
      <trkpt lat="41.114586" lon="-5.699313">
        <ele>814.596</ele>
        <time>2019-03-03T00:49:35Z</time>
      </trkpt>
      <trkpt lat="41.114642" lon="-5.699321">
        <ele>814.545</ele>
        <time>2019-03-03T00:49:40Z</time>
      </trkpt>
      <trkpt lat="41.114912" lon="-5.699323">
        <ele>814.679</ele>
        <time>2019-03-03T00:49:54Z</time>
      </trkpt>
      <trkpt lat="41.115200" lon="-5.699359">
        <ele>816.032</ele>
        <time>2019-03-03T00:50:11Z</time>
      </trkpt>
      <trkpt lat="41.115471" lon="-5.699404">
        <ele>817.561</ele>
        <time>2019-03-03T00:50:28Z</time>
      </trkpt>
      <trkpt lat="41.115906" lon="-5.699418">
        <ele>819.790</ele>
        <time>2019-03-03T00:50:48Z</time>
      </trkpt>
      <trkpt lat="41.116423" lon="-5.699381">
        <ele>820.814</ele>
        <time>2019-03-03T00:51:02Z</time>
      </trkpt>
      <trkpt lat="41.116981" lon="-5.699434">
        <ele>820.054</ele>
        <time>2019-03-03T00:51:16Z</time>
      </trkpt>
      <trkpt lat="41.117585" lon="-5.699487">
        <ele>819.609</ele>
        <time>2019-03-03T00:51:34Z</time>
      </trkpt>
      <trkpt lat="41.118192" lon="-5.699578">
        <ele>821.208</ele>
        <time>2019-03-03T00:51:54Z</time>
      </trkpt>
      <trkpt lat="41.118911" lon="-5.699705">
        <ele>821.324</ele>
        <time>2019-03-03T00:52:13Z</time>
      </trkpt>
      <trkpt lat="41.119417" lon="-5.700009">
        <ele>820.325</ele>
        <time>2019-03-03T00:52:27Z</time>
      </trkpt>
      <trkpt lat="41.119431" lon="-5.700018">
        <ele>820.256</ele>
        <time>2019-03-03T00:52:33Z</time>
      </trkpt>
      <trkpt lat="41.119483" lon="-5.700048">
        <ele>819.845</ele>
        <time>2019-03-03T00:53:11Z</time>
      </trkpt>
      <trkpt lat="41.119779" lon="-5.700506">
        <ele>817.719</ele>
        <time>2019-03-03T00:53:23Z</time>
      </trkpt>
      <trkpt lat="41.120082" lon="-5.701146">
        <ele>816.152</ele>
        <time>2019-03-03T00:53:37Z</time>
      </trkpt>
      <trkpt lat="41.120296" lon="-5.701446">
        <ele>816.241</ele>
        <time>2019-03-03T00:53:47Z</time>
      </trkpt>
      <trkpt lat="41.120700" lon="-5.701751">
        <ele>817.530</ele>
        <time>2019-03-03T00:54:05Z</time>
      </trkpt>
      <trkpt lat="41.121190" lon="-5.701843">
        <ele>817.817</ele>
        <time>2019-03-03T00:54:21Z</time>
      </trkpt>
      <trkpt lat="41.121537" lon="-5.701741">
        <ele>818.387</ele>
        <time>2019-03-03T00:54:35Z</time>
      </trkpt>
      <trkpt lat="41.121593" lon="-5.701766">
        <ele>818.415</ele>
        <time>2019-03-03T00:54:45Z</time>
      </trkpt>
      <trkpt lat="41.121609" lon="-5.701781">
        <ele>818.508</ele>
        <time>2019-03-03T00:54:47Z</time>
      </trkpt>
      <trkpt lat="41.121619" lon="-5.701781">
        <ele>818.524</ele>
        <time>2019-03-03T00:54:48Z</time>
      </trkpt>
      <trkpt lat="41.121640" lon="-5.701801">
        <ele>818.615</ele>
        <time>2019-03-03T00:54:54Z</time>
      </trkpt>
      <trkpt lat="41.121718" lon="-5.701786">
        <ele>818.766</ele>
        <time>2019-03-03T00:55:05Z</time>
      </trkpt>
      <trkpt lat="41.122091" lon="-5.701418">
        <ele>819.635</ele>
        <time>2019-03-03T00:55:21Z</time>
      </trkpt>
      <trkpt lat="41.122251" lon="-5.701212">
        <ele>819.939</ele>
        <time>2019-03-03T00:55:35Z</time>
      </trkpt>
      <trkpt lat="41.122182" lon="-5.701209">
        <ele>819.942</ele>
        <time>2019-03-03T00:55:46Z</time>
      </trkpt>
      <trkpt lat="41.122148" lon="-5.701234">
        <ele>819.991</ele>
        <time>2019-03-03T00:55:49Z</time>
      </trkpt>
      <trkpt lat="41.122098" lon="-5.701204">
        <ele>819.980</ele>
        <time>2019-03-03T00:55:55Z</time>
      </trkpt>
      <trkpt lat="41.122187" lon="-5.701002">
        <ele>819.916</ele>
        <time>2019-03-03T00:56:07Z</time>
      </trkpt>
      <trkpt lat="41.122503" lon="-5.700542">
        <ele>819.976</ele>
        <time>2019-03-03T00:56:23Z</time>
      </trkpt>
      <trkpt lat="41.122960" lon="-5.700216">
        <ele>819.813</ele>
        <time>2019-03-03T00:56:38Z</time>
      </trkpt>
      <trkpt lat="41.123685" lon="-5.699936">
        <ele>814.508</ele>
        <time>2019-03-03T00:56:53Z</time>
      </trkpt>
      <trkpt lat="41.124188" lon="-5.699770">
        <ele>813.324</ele>
        <time>2019-03-03T00:57:03Z</time>
      </trkpt>
      <trkpt lat="41.124767" lon="-5.699612">
        <ele>810.885</ele>
        <time>2019-03-03T00:57:15Z</time>
      </trkpt>
      <trkpt lat="41.125437" lon="-5.699500">
        <ele>807.266</ele>
        <time>2019-03-03T00:57:30Z</time>
      </trkpt>
      <trkpt lat="41.125527" lon="-5.699511">
        <ele>806.885</ele>
        <time>2019-03-03T00:57:32Z</time>
      </trkpt>
      <trkpt lat="41.126289" lon="-5.699435">
        <ele>806.519</ele>
        <time>2019-03-03T00:57:50Z</time>
      </trkpt>
      <trkpt lat="41.126870" lon="-5.699361">
        <ele>806.032</ele>
        <time>2019-03-03T00:58:05Z</time>
      </trkpt>
      <trkpt lat="41.127249" lon="-5.699339">
        <ele>802.931</ele>
        <time>2019-03-03T00:58:15Z</time>
      </trkpt>
      <trkpt lat="41.127824" lon="-5.699251">
        <ele>799.450</ele>
        <time>2019-03-03T00:58:27Z</time>
      </trkpt>
      <trkpt lat="41.128404" lon="-5.699141">
        <ele>797.766</ele>
        <time>2019-03-03T00:58:41Z</time>
      </trkpt>
      <trkpt lat="41.128580" lon="-5.699156">
        <ele>797.729</ele>
        <time>2019-03-03T00:58:50Z</time>
      </trkpt>
      <trkpt lat="41.129227" lon="-5.699013">
        <ele>797.721</ele>
        <time>2019-03-03T00:59:04Z</time>
      </trkpt>
      <trkpt lat="41.130012" lon="-5.698800">
        <ele>797.708</ele>
        <time>2019-03-03T00:59:20Z</time>
      </trkpt>
      <trkpt lat="41.130686" lon="-5.698632">
        <ele>797.799</ele>
        <time>2019-03-03T00:59:34Z</time>
      </trkpt>
      <trkpt lat="41.130909" lon="-5.698251">
        <ele>797.850</ele>
        <time>2019-03-03T00:59:43Z</time>
      </trkpt>
      <trkpt lat="41.130902" lon="-5.698141">
        <ele>797.891</ele>
        <time>2019-03-03T00:59:45Z</time>
      </trkpt>
      <trkpt lat="41.130816" lon="-5.697820">
        <ele>797.990</ele>
        <time>2019-03-03T00:59:52Z</time>
      </trkpt>
      <trkpt lat="41.130778" lon="-5.697724">
        <ele>798.024</ele>
        <time>2019-03-03T00:59:54Z</time>
      </trkpt>
      <trkpt lat="41.130567" lon="-5.697542">
        <ele>798.057</ele>
        <time>2019-03-03T01:00:01Z</time>
      </trkpt>
      <trkpt lat="41.129961" lon="-5.697679">
        <ele>798.316</ele>
        <time>2019-03-03T01:00:16Z</time>
      </trkpt>
      <trkpt lat="41.129244" lon="-5.697873">
        <ele>798.515</ele>
        <time>2019-03-03T01:00:35Z</time>
      </trkpt>
      <trkpt lat="41.128782" lon="-5.697852">
        <ele>798.879</ele>
        <time>2019-03-03T01:00:51Z</time>
      </trkpt>
      <trkpt lat="41.128731" lon="-5.697452">
        <ele>799.305</ele>
        <time>2019-03-03T01:01:03Z</time>
      </trkpt>
      <trkpt lat="41.128808" lon="-5.697079">
        <ele>800.225</ele>
        <time>2019-03-03T01:01:16Z</time>
      </trkpt>
      <trkpt lat="41.129220" lon="-5.697013">
        <ele>799.908</ele>
        <time>2019-03-03T01:01:27Z</time>
      </trkpt>
      <trkpt lat="41.129228" lon="-5.697015">
        <ele>799.910</ele>
        <time>2019-03-03T01:01:32Z</time>
      </trkpt>
      <trkpt lat="41.129276" lon="-5.697018">
        <ele>799.851</ele>
        <time>2019-03-03T01:01:42Z</time>
      </trkpt>
      <trkpt lat="41.129674" lon="-5.696974">
        <ele>799.672</ele>
        <time>2019-03-03T01:01:52Z</time>
      </trkpt>
      <trkpt lat="41.130542" lon="-5.696879">
        <ele>794.631</ele>
        <time>2019-03-03T01:02:08Z</time>
      </trkpt>
      <trkpt lat="41.131711" lon="-5.696766">
        <ele>797.025</ele>
        <time>2019-03-03T01:02:29Z</time>
      </trkpt>
      <trkpt lat="41.132964" lon="-5.696637">
        <ele>797.858</ele>
        <time>2019-03-03T01:02:50Z</time>
      </trkpt>
      <trkpt lat="41.134096" lon="-5.696524">
        <ele>799.277</ele>
        <time>2019-03-03T01:03:10Z</time>
      </trkpt>
      <trkpt lat="41.134364" lon="-5.696522">
        <ele>799.656</ele>
        <time>2019-03-03T01:03:16Z</time>
      </trkpt>
      <trkpt lat="41.134387" lon="-5.696547">
        <ele>799.768</ele>
        <time>2019-03-03T01:03:17Z</time>
      </trkpt>
      <trkpt lat="41.134403" lon="-5.696572">
        <ele>799.742</ele>
        <time>2019-03-03T01:03:18Z</time>
      </trkpt>
      <trkpt lat="41.134411" lon="-5.696595">
        <ele>799.626</ele>
        <time>2019-03-03T01:03:19Z</time>
      </trkpt>
      <trkpt lat="41.134412" lon="-5.696614">
        <ele>799.608</ele>
        <time>2019-03-03T01:03:20Z</time>
      </trkpt>
      <trkpt lat="41.134410" lon="-5.696633">
        <ele>799.549</ele>
        <time>2019-03-03T01:03:25Z</time>
      </trkpt>
      <trkpt lat="41.134372" lon="-5.696724">
        <ele>799.240</ele>
        <time>2019-03-03T01:03:46Z</time>
      </trkpt>
      <trkpt lat="41.134346" lon="-5.696747">
        <ele>799.231</ele>
        <time>2019-03-03T01:03:47Z</time>
      </trkpt>
      <trkpt lat="41.134312" lon="-5.696756">
        <ele>799.110</ele>
        <time>2019-03-03T01:03:48Z</time>
      </trkpt>
      <trkpt lat="41.134276" lon="-5.696762">
        <ele>799.034</ele>
        <time>2019-03-03T01:03:49Z</time>
      </trkpt>
      <trkpt lat="41.134242" lon="-5.696775">
        <ele>798.957</ele>
        <time>2019-03-03T01:03:50Z</time>
      </trkpt>
      <trkpt lat="41.134212" lon="-5.696792">
        <ele>798.956</ele>
        <time>2019-03-03T01:03:51Z</time>
      </trkpt>
      <trkpt lat="41.133738" lon="-5.696902">
        <ele>798.595</ele>
        <time>2019-03-03T01:04:07Z</time>
      </trkpt>
      <trkpt lat="41.133306" lon="-5.697018">
        <ele>798.317</ele>
        <time>2019-03-03T01:04:20Z</time>
      </trkpt>
      <trkpt lat="41.133183" lon="-5.697030">
        <ele>798.387</ele>
        <time>2019-03-03T01:04:29Z</time>
      </trkpt>
      <trkpt lat="41.133115" lon="-5.697043">
        <ele>798.315</ele>
        <time>2019-03-03T01:04:44Z</time>
      </trkpt>
      <trkpt lat="41.133007" lon="-5.697104">
        <ele>798.208</ele>
        <time>2019-03-03T01:04:48Z</time>
      </trkpt>
      <trkpt lat="41.132991" lon="-5.697131">
        <ele>798.264</ele>
        <time>2019-03-03T01:04:49Z</time>
      </trkpt>
      <trkpt lat="41.132943" lon="-5.697585">
        <ele>798.385</ele>
        <time>2019-03-03T01:05:00Z</time>
      </trkpt>
      <trkpt lat="41.133067" lon="-5.697972">
        <ele>798.446</ele>
        <time>2019-03-03T01:05:10Z</time>
      </trkpt>
      <trkpt lat="41.133426" lon="-5.698116">
        <ele>799.355</ele>
        <time>2019-03-03T01:05:22Z</time>
      </trkpt>
      <trkpt lat="41.134023" lon="-5.698038">
        <ele>800.449</ele>
        <time>2019-03-03T01:05:39Z</time>
      </trkpt>
      <trkpt lat="41.134560" lon="-5.697933">
        <ele>802.382</ele>
        <time>2019-03-03T01:05:57Z</time>
      </trkpt>
      <trkpt lat="41.134953" lon="-5.697835">
        <ele>804.641</ele>
        <time>2019-03-03T01:06:13Z</time>
      </trkpt>
      <trkpt lat="41.135450" lon="-5.697712">
        <ele>808.460</ele>
        <time>2019-03-03T01:06:34Z</time>
      </trkpt>
      <trkpt lat="41.135757" lon="-5.697635">
        <ele>810.755</ele>
        <time>2019-03-03T01:06:53Z</time>
      </trkpt>
      <trkpt lat="41.136058" lon="-5.697565">
        <ele>812.807</ele>
        <time>2019-03-03T01:07:13Z</time>
      </trkpt>
      <trkpt lat="41.136447" lon="-5.697487">
        <ele>814.117</ele>
        <time>2019-03-03T01:07:35Z</time>
      </trkpt>
      <trkpt lat="41.136580" lon="-5.697459">
        <ele>814.008</ele>
        <time>2019-03-03T01:07:45Z</time>
      </trkpt>
      <trkpt lat="41.136678" lon="-5.697420">
        <ele>813.818</ele>
        <time>2019-03-03T01:08:57Z</time>
      </trkpt>
      <trkpt lat="41.137174" lon="-5.697409">
        <ele>812.299</ele>
        <time>2019-03-03T01:09:10Z</time>
      </trkpt>
      <trkpt lat="41.137805" lon="-5.697394">
        <ele>811.350</ele>
        <time>2019-03-03T01:09:24Z</time>
      </trkpt>
      <trkpt lat="41.138177" lon="-5.697413">
        <ele>811.379</ele>
        <time>2019-03-03T01:09:34Z</time>
      </trkpt>
      <trkpt lat="41.138223" lon="-5.697412">
        <ele>811.323</ele>
        <time>2019-03-03T01:09:35Z</time>
      </trkpt>
      <trkpt lat="41.138738" lon="-5.697330">
        <ele>811.926</ele>
        <time>2019-03-03T01:09:47Z</time>
      </trkpt>
      <trkpt lat="41.139384" lon="-5.697204">
        <ele>814.675</ele>
        <time>2019-03-03T01:10:11Z</time>
      </trkpt>
      <trkpt lat="41.139954" lon="-5.697114">
        <ele>817.284</ele>
        <time>2019-03-03T01:10:32Z</time>
      </trkpt>
      <trkpt lat="41.140443" lon="-5.697018">
        <ele>820.198</ele>
        <time>2019-03-03T01:10:55Z</time>
      </trkpt>
      <trkpt lat="41.140969" lon="-5.696953">
        <ele>823.115</ele>
        <time>2019-03-03T01:11:19Z</time>
      </trkpt>
      <trkpt lat="41.141292" lon="-5.696914">
        <ele>824.326</ele>
        <time>2019-03-03T01:11:34Z</time>
      </trkpt>
      <trkpt lat="41.141679" lon="-5.696885">
        <ele>825.808</ele>
        <time>2019-03-03T01:11:50Z</time>
      </trkpt>
      <trkpt lat="41.142235" lon="-5.696886">
        <ele>827.612</ele>
        <time>2019-03-03T01:12:11Z</time>
      </trkpt>
      <trkpt lat="41.142708" lon="-5.696843">
        <ele>828.093</ele>
        <time>2019-03-03T01:12:28Z</time>
      </trkpt>
      <trkpt lat="41.143446" lon="-5.696803">
        <ele>826.484</ele>
        <time>2019-03-03T01:12:45Z</time>
      </trkpt>
      <trkpt lat="41.143512" lon="-5.696802">
        <ele>826.343</ele>
        <time>2019-03-03T01:12:51Z</time>
      </trkpt>
      <trkpt lat="41.143463" lon="-5.696794">
        <ele>826.367</ele>
        <time>2019-03-03T01:13:18Z</time>
      </trkpt>
      <trkpt lat="41.143117" lon="-5.696838">
        <ele>826.460</ele>
        <time>2019-03-03T01:13:28Z</time>
      </trkpt>
      <trkpt lat="41.142825" lon="-5.696838">
        <ele>827.759</ele>
        <time>2019-03-03T01:13:43Z</time>
      </trkpt>
      <trkpt lat="41.142834" lon="-5.696838">
        <ele>827.778</ele>
        <time>2019-03-03T01:13:44Z</time>
      </trkpt>
      <trkpt lat="41.143236" lon="-5.696818">
        <ele>828.124</ele>
        <time>2019-03-03T01:13:58Z</time>
      </trkpt>
      <trkpt lat="41.143651" lon="-5.696778">
        <ele>828.104</ele>
        <time>2019-03-03T01:14:11Z</time>
      </trkpt>
      <trkpt lat="41.144239" lon="-5.696720">
        <ele>828.114</ele>
        <time>2019-03-03T01:14:31Z</time>
      </trkpt>
      <trkpt lat="41.144809" lon="-5.696702">
        <ele>828.108</ele>
        <time>2019-03-03T01:14:48Z</time>
      </trkpt>
      <trkpt lat="41.145518" lon="-5.696713">
        <ele>828.335</ele>
        <time>2019-03-03T01:15:03Z</time>
      </trkpt>
      <trkpt lat="41.146447" lon="-5.696672">
        <ele>832.426</ele>
        <time>2019-03-03T01:15:24Z</time>
      </trkpt>
      <trkpt lat="41.146886" lon="-5.696642">
        <ele>833.287</ele>
        <time>2019-03-03T01:15:39Z</time>
      </trkpt>
      <trkpt lat="41.147437" lon="-5.696665">
        <ele>833.466</ele>
        <time>2019-03-03T01:16:00Z</time>
      </trkpt>
      <trkpt lat="41.148078" lon="-5.696624">
        <ele>832.290</ele>
        <time>2019-03-03T01:16:21Z</time>
      </trkpt>
      <trkpt lat="41.148828" lon="-5.696570">
        <ele>831.293</ele>
        <time>2019-03-03T01:16:36Z</time>
      </trkpt>
      <trkpt lat="41.149756" lon="-5.696567">
        <ele>833.152</ele>
        <time>2019-03-03T01:16:53Z</time>
      </trkpt>
      <trkpt lat="41.150434" lon="-5.696512">
        <ele>833.221</ele>
        <time>2019-03-03T01:17:12Z</time>
      </trkpt>
      <trkpt lat="41.151192" lon="-5.696504">
        <ele>833.227</ele>
        <time>2019-03-03T01:17:30Z</time>
      </trkpt>
      <trkpt lat="41.151665" lon="-5.696503">
        <ele>832.968</ele>
        <time>2019-03-03T01:17:41Z</time>
      </trkpt>
      <trkpt lat="41.152452" lon="-5.696469">
        <ele>834.414</ele>
        <time>2019-03-03T01:17:59Z</time>
      </trkpt>
      <trkpt lat="41.152740" lon="-5.696428">
        <ele>836.008</ele>
        <time>2019-03-03T01:18:11Z</time>
      </trkpt>
      <trkpt lat="41.153184" lon="-5.696401">
        <ele>836.235</ele>
        <time>2019-03-03T01:18:30Z</time>
      </trkpt>
      <trkpt lat="41.153673" lon="-5.696375">
        <ele>836.246</ele>
        <time>2019-03-03T01:18:47Z</time>
      </trkpt>
      <trkpt lat="41.154399" lon="-5.696342">
        <ele>836.267</ele>
        <time>2019-03-03T01:19:07Z</time>
      </trkpt>
      <trkpt lat="41.154895" lon="-5.696340">
        <ele>836.286</ele>
        <time>2019-03-03T01:19:20Z</time>
      </trkpt>
      <trkpt lat="41.155616" lon="-5.696329">
        <ele>836.260</ele>
        <time>2019-03-03T01:19:39Z</time>
      </trkpt>
      <trkpt lat="41.156476" lon="-5.696312">
        <ele>836.663</ele>
        <time>2019-03-03T01:19:58Z</time>
      </trkpt>
      <trkpt lat="41.157066" lon="-5.696283">
        <ele>837.752</ele>
        <time>2019-03-03T01:20:15Z</time>
      </trkpt>
      <trkpt lat="41.157714" lon="-5.696251">
        <ele>838.221</ele>
        <time>2019-03-03T01:20:34Z</time>
      </trkpt>
      <trkpt lat="41.158474" lon="-5.696223">
        <ele>838.282</ele>
        <time>2019-03-03T01:20:55Z</time>
      </trkpt>
      <trkpt lat="41.159165" lon="-5.696179">
        <ele>838.843</ele>
        <time>2019-03-03T01:21:15Z</time>
      </trkpt>
      <trkpt lat="41.159652" lon="-5.696163">
        <ele>840.017</ele>
        <time>2019-03-03T01:21:33Z</time>
      </trkpt>
      <trkpt lat="41.159805" lon="-5.696425">
        <ele>840.508</ele>
        <time>2019-03-03T01:21:43Z</time>
      </trkpt>
      <trkpt lat="41.160010" lon="-5.696879">
        <ele>841.211</ele>
        <time>2019-03-03T01:21:57Z</time>
      </trkpt>
      <trkpt lat="41.160301" lon="-5.696742">
        <ele>841.942</ele>
        <time>2019-03-03T01:22:08Z</time>
      </trkpt>
      <trkpt lat="41.160597" lon="-5.696565">
        <ele>842.763</ele>
        <time>2019-03-03T01:22:20Z</time>
      </trkpt>
      <trkpt lat="41.160946" lon="-5.696697">
        <ele>843.312</ele>
        <time>2019-03-03T01:22:35Z</time>
      </trkpt>
      <trkpt lat="41.161375" lon="-5.696617">
        <ele>843.446</ele>
        <time>2019-03-03T01:22:51Z</time>
      </trkpt>
      <trkpt lat="41.161659" lon="-5.696199">
        <ele>843.329</ele>
        <time>2019-03-03T01:23:05Z</time>
      </trkpt>
      <trkpt lat="41.162124" lon="-5.696099">
        <ele>843.078</ele>
        <time>2019-03-03T01:23:19Z</time>
      </trkpt>
      <trkpt lat="41.162878" lon="-5.696041">
        <ele>841.787</ele>
        <time>2019-03-03T01:23:37Z</time>
      </trkpt>
      <trkpt lat="41.163642" lon="-5.695996">
        <ele>840.867</ele>
        <time>2019-03-03T01:23:54Z</time>
      </trkpt>
      <trkpt lat="41.164412" lon="-5.695993">
        <ele>841.881</ele>
        <time>2019-03-03T01:24:11Z</time>
      </trkpt>
      <trkpt lat="41.164938" lon="-5.695970">
        <ele>842.019</ele>
        <time>2019-03-03T01:24:27Z</time>
      </trkpt>
      <trkpt lat="41.165494" lon="-5.695934">
        <ele>841.408</ele>
        <time>2019-03-03T01:24:43Z</time>
      </trkpt>
      <trkpt lat="41.166181" lon="-5.695921">
        <ele>841.179</ele>
        <time>2019-03-03T01:25:00Z</time>
      </trkpt>
      <trkpt lat="41.166388" lon="-5.695827">
        <ele>841.550</ele>
        <time>2019-03-03T01:25:11Z</time>
      </trkpt>
      <trkpt lat="41.166492" lon="-5.695907">
        <ele>841.741</ele>
        <time>2019-03-03T01:25:19Z</time>
      </trkpt>
      <trkpt lat="41.166556" lon="-5.695939">
        <ele>841.740</ele>
        <time>2019-03-03T01:25:24Z</time>
      </trkpt>
      <trkpt lat="41.166824" lon="-5.695924">
        <ele>841.864</ele>
        <time>2019-03-03T01:25:42Z</time>
      </trkpt>
      <trkpt lat="41.167237" lon="-5.695859">
        <ele>841.547</ele>
        <time>2019-03-03T01:25:59Z</time>
      </trkpt>
      <trkpt lat="41.167715" lon="-5.695827">
        <ele>840.866</ele>
        <time>2019-03-03T01:26:14Z</time>
      </trkpt>
      <trkpt lat="41.168167" lon="-5.695832">
        <ele>839.755</ele>
        <time>2019-03-03T01:26:29Z</time>
      </trkpt>
      <trkpt lat="41.168873" lon="-5.695844">
        <ele>837.588</ele>
        <time>2019-03-03T01:26:45Z</time>
      </trkpt>
      <trkpt lat="41.169781" lon="-5.695834">
        <ele>838.924</ele>
        <time>2019-03-03T01:27:01Z</time>
      </trkpt>
      <trkpt lat="41.170232" lon="-5.695780">
        <ele>839.626</ele>
        <time>2019-03-03T01:27:14Z</time>
      </trkpt>
      <trkpt lat="41.170782" lon="-5.695732">
        <ele>840.908</ele>
        <time>2019-03-03T01:27:30Z</time>
      </trkpt>
      <trkpt lat="41.171441" lon="-5.695687">
        <ele>841.591</ele>
        <time>2019-03-03T01:27:47Z</time>
      </trkpt>
      <trkpt lat="41.171702" lon="-5.695686">
        <ele>841.482</ele>
        <time>2019-03-03T01:27:52Z</time>
      </trkpt>
      <trkpt lat="41.171810" lon="-5.695710">
        <ele>841.243</ele>
        <time>2019-03-03T01:27:54Z</time>
      </trkpt>
      <trkpt lat="41.172039" lon="-5.695743">
        <ele>840.832</ele>
        <time>2019-03-03T01:27:59Z</time>
      </trkpt>
      <trkpt lat="41.172558" lon="-5.695765">
        <ele>840.666</ele>
        <time>2019-03-03T01:28:12Z</time>
      </trkpt>
      <trkpt lat="41.172913" lon="-5.695718">
        <ele>840.879</ele>
        <time>2019-03-03T01:28:20Z</time>
      </trkpt>
      <trkpt lat="41.172995" lon="-5.695705">
        <ele>840.858</ele>
        <time>2019-03-03T01:28:22Z</time>
      </trkpt>
      <trkpt lat="41.173116" lon="-5.695695">
        <ele>840.737</ele>
        <time>2019-03-03T01:28:25Z</time>
      </trkpt>
      <trkpt lat="41.173777" lon="-5.695672">
        <ele>840.628</ele>
        <time>2019-03-03T01:28:42Z</time>
      </trkpt>
      <trkpt lat="41.174505" lon="-5.695639">
        <ele>840.989</ele>
        <time>2019-03-03T01:29:02Z</time>
      </trkpt>
      <trkpt lat="41.175088" lon="-5.695604">
        <ele>841.617</ele>
        <time>2019-03-03T01:29:20Z</time>
      </trkpt>
      <trkpt lat="41.175734" lon="-5.695574">
        <ele>842.408</ele>
        <time>2019-03-03T01:29:39Z</time>
      </trkpt>
      <trkpt lat="41.176291" lon="-5.695557">
        <ele>843.135</ele>
        <time>2019-03-03T01:29:57Z</time>
      </trkpt>
      <trkpt lat="41.176765" lon="-5.695569">
        <ele>844.456</ele>
        <time>2019-03-03T01:30:16Z</time>
      </trkpt>
      <trkpt lat="41.177205" lon="-5.695625">
        <ele>845.877</ele>
        <time>2019-03-03T01:30:34Z</time>
      </trkpt>
      <trkpt lat="41.177621" lon="-5.695649">
        <ele>847.386</ele>
        <time>2019-03-03T01:30:51Z</time>
      </trkpt>
      <trkpt lat="41.177962" lon="-5.695720">
        <ele>848.740</ele>
        <time>2019-03-03T01:31:08Z</time>
      </trkpt>
      <trkpt lat="41.178302" lon="-5.695799">
        <ele>851.033</ele>
        <time>2019-03-03T01:31:29Z</time>
      </trkpt>
      <trkpt lat="41.178568" lon="-5.695841">
        <ele>853.722</ele>
        <time>2019-03-03T01:31:47Z</time>
      </trkpt>
      <trkpt lat="41.178858" lon="-5.695884">
        <ele>856.291</ele>
        <time>2019-03-03T01:32:04Z</time>
      </trkpt>
      <trkpt lat="41.179382" lon="-5.695927">
        <ele>857.721</ele>
        <time>2019-03-03T01:32:23Z</time>
      </trkpt>
      <trkpt lat="41.179876" lon="-5.695985">
        <ele>859.041</ele>
        <time>2019-03-03T01:32:44Z</time>
      </trkpt>
      <trkpt lat="41.180239" lon="-5.696090">
        <ele>860.605</ele>
        <time>2019-03-03T01:33:06Z</time>
      </trkpt>
      <trkpt lat="41.180404" lon="-5.696388">
        <ele>862.508</ele>
        <time>2019-03-03T01:33:23Z</time>
      </trkpt>
      <trkpt lat="41.180463" lon="-5.696751">
        <ele>865.175</ele>
        <time>2019-03-03T01:33:40Z</time>
      </trkpt>
      <trkpt lat="41.180725" lon="-5.696855">
        <ele>866.486</ele>
        <time>2019-03-03T01:33:54Z</time>
      </trkpt>
      <trkpt lat="41.180917" lon="-5.696652">
        <ele>865.937</ele>
        <time>2019-03-03T01:34:05Z</time>
      </trkpt>
      <trkpt lat="41.180919" lon="-5.696628">
        <ele>865.986</ele>
        <time>2019-03-03T01:34:10Z</time>
      </trkpt>
      <trkpt lat="41.180926" lon="-5.696584">
        <ele>865.890</ele>
        <time>2019-03-03T01:36:34Z</time>
      </trkpt>
      <trkpt lat="41.181197" lon="-5.696245">
        <ele>865.623</ele>
        <time>2019-03-03T01:36:46Z</time>
      </trkpt>
      <trkpt lat="41.181621" lon="-5.696274">
        <ele>864.372</ele>
        <time>2019-03-03T01:36:59Z</time>
      </trkpt>
      <trkpt lat="41.181678" lon="-5.696271">
        <ele>864.011</ele>
        <time>2019-03-03T01:37:06Z</time>
      </trkpt>
      <trkpt lat="41.181744" lon="-5.696273">
        <ele>863.797</ele>
        <time>2019-03-03T01:37:13Z</time>
      </trkpt>
      <trkpt lat="41.182333" lon="-5.696280">
        <ele>859.923</ele>
        <time>2019-03-03T01:37:26Z</time>
      </trkpt>
      <trkpt lat="41.183026" lon="-5.696262">
        <ele>855.525</ele>
        <time>2019-03-03T01:37:36Z</time>
      </trkpt>
      <trkpt lat="41.183613" lon="-5.696308">
        <ele>853.608</ele>
        <time>2019-03-03T01:37:44Z</time>
      </trkpt>
      <trkpt lat="41.184267" lon="-5.696389">
        <ele>852.622</ele>
        <time>2019-03-03T01:37:56Z</time>
      </trkpt>
      <trkpt lat="41.184351" lon="-5.696401">
        <ele>852.953</ele>
        <time>2019-03-03T01:37:59Z</time>
      </trkpt>
      <trkpt lat="41.184427" lon="-5.696348">
        <ele>853.074</ele>
        <time>2019-03-03T01:38:08Z</time>
      </trkpt>
      <trkpt lat="41.184512" lon="-5.696409">
        <ele>853.143</ele>
        <time>2019-03-03T01:38:25Z</time>
      </trkpt>
      <trkpt lat="41.184603" lon="-5.696472">
        <ele>853.297</ele>
        <time>2019-03-03T01:38:30Z</time>
      </trkpt>
      <trkpt lat="41.185096" lon="-5.696555">
        <ele>853.360</ele>
        <time>2019-03-03T01:38:50Z</time>
      </trkpt>
      <trkpt lat="41.185597" lon="-5.696682">
        <ele>853.269</ele>
        <time>2019-03-03T01:39:07Z</time>
      </trkpt>
      <trkpt lat="41.186080" lon="-5.696838">
        <ele>855.448</ele>
        <time>2019-03-03T01:39:22Z</time>
      </trkpt>
      <trkpt lat="41.186082" lon="-5.696822">
        <ele>855.553</ele>
        <time>2019-03-03T01:39:25Z</time>
      </trkpt>
      <trkpt lat="41.186096" lon="-5.696747">
        <ele>855.804</ele>
        <time>2019-03-03T01:39:29Z</time>
      </trkpt>
      <trkpt lat="41.186165" lon="-5.696798">
        <ele>856.214</ele>
        <time>2019-03-03T01:39:39Z</time>
      </trkpt>
      <trkpt lat="41.186375" lon="-5.696885">
        <ele>856.908</ele>
        <time>2019-03-03T01:39:51Z</time>
      </trkpt>
      <trkpt lat="41.186678" lon="-5.696955">
        <ele>857.338</ele>
        <time>2019-03-03T01:40:09Z</time>
      </trkpt>
      <trkpt lat="41.186977" lon="-5.697076">
        <ele>857.399</ele>
        <time>2019-03-03T01:40:27Z</time>
      </trkpt>
      <trkpt lat="41.187222" lon="-5.697170">
        <ele>857.170</ele>
        <time>2019-03-03T01:40:42Z</time>
      </trkpt>
      <trkpt lat="41.187543" lon="-5.697256">
        <ele>856.319</ele>
        <time>2019-03-03T01:40:57Z</time>
      </trkpt>
      <trkpt lat="41.188073" lon="-5.697320">
        <ele>852.973</ele>
        <time>2019-03-03T01:41:12Z</time>
      </trkpt>
      <trkpt lat="41.188788" lon="-5.697487">
        <ele>850.536</ele>
        <time>2019-03-03T01:41:25Z</time>
      </trkpt>
      <trkpt lat="41.189601" lon="-5.697790">
        <ele>846.625</ele>
        <time>2019-03-03T01:41:41Z</time>
      </trkpt>
      <trkpt lat="41.190102" lon="-5.697973">
        <ele>847.374</ele>
        <time>2019-03-03T01:41:52Z</time>
      </trkpt>
      <trkpt lat="41.190156" lon="-5.697961">
        <ele>847.599</ele>
        <time>2019-03-03T01:41:54Z</time>
      </trkpt>
      <trkpt lat="41.190243" lon="-5.697935">
        <ele>847.707</ele>
        <time>2019-03-03T01:41:59Z</time>
      </trkpt>
      <trkpt lat="41.190291" lon="-5.698013">
        <ele>847.927</ele>
        <time>2019-03-03T01:42:04Z</time>
      </trkpt>
      <trkpt lat="41.190687" lon="-5.698095">
        <ele>848.808</ele>
        <time>2019-03-03T01:42:23Z</time>
      </trkpt>
      <trkpt lat="41.191161" lon="-5.698196">
        <ele>850.092</ele>
        <time>2019-03-03T01:42:43Z</time>
      </trkpt>
      <trkpt lat="41.191751" lon="-5.698314">
        <ele>852.533</ele>
        <time>2019-03-03T01:43:04Z</time>
      </trkpt>
      <trkpt lat="41.192267" lon="-5.698381">
        <ele>855.074</ele>
        <time>2019-03-03T01:43:25Z</time>
      </trkpt>
      <trkpt lat="41.192658" lon="-5.698475">
        <ele>856.923</ele>
        <time>2019-03-03T01:43:44Z</time>
      </trkpt>
      <trkpt lat="41.193068" lon="-5.698643">
        <ele>857.827</ele>
        <time>2019-03-03T01:44:08Z</time>
      </trkpt>
      <trkpt lat="41.193485" lon="-5.698815">
        <ele>857.860</ele>
        <time>2019-03-03T01:44:33Z</time>
      </trkpt>
      <trkpt lat="41.193850" lon="-5.698926">
        <ele>857.379</ele>
        <time>2019-03-03T01:44:50Z</time>
      </trkpt>
      <trkpt lat="41.194375" lon="-5.699055">
        <ele>856.218</ele>
        <time>2019-03-03T01:45:07Z</time>
      </trkpt>
      <trkpt lat="41.194845" lon="-5.699146">
        <ele>855.843</ele>
        <time>2019-03-03T01:45:23Z</time>
      </trkpt>
      <trkpt lat="41.194844" lon="-5.699146">
        <ele>855.864</ele>
        <time>2019-03-03T01:45:25Z</time>
      </trkpt>
      <trkpt lat="41.194906" lon="-5.699158">
        <ele>855.710</ele>
        <time>2019-03-03T01:45:32Z</time>
      </trkpt>
      <trkpt lat="41.195501" lon="-5.699290">
        <ele>854.808</ele>
        <time>2019-03-03T01:45:48Z</time>
      </trkpt>
      <trkpt lat="41.196262" lon="-5.699469">
        <ele>853.487</ele>
        <time>2019-03-03T01:46:06Z</time>
      </trkpt>
      <trkpt lat="41.197055" lon="-5.699663">
        <ele>852.688</ele>
        <time>2019-03-03T01:46:23Z</time>
      </trkpt>
      <trkpt lat="41.197685" lon="-5.699822">
        <ele>852.249</ele>
        <time>2019-03-03T01:46:38Z</time>
      </trkpt>
      <trkpt lat="41.198350" lon="-5.699984">
        <ele>851.378</ele>
        <time>2019-03-03T01:46:55Z</time>
      </trkpt>
      <trkpt lat="41.199223" lon="-5.700183">
        <ele>849.722</ele>
        <time>2019-03-03T01:47:12Z</time>
      </trkpt>
      <trkpt lat="41.200121" lon="-5.700400">
        <ele>848.895</ele>
        <time>2019-03-03T01:47:31Z</time>
      </trkpt>
      <trkpt lat="41.200165" lon="-5.700426">
        <ele>848.894</ele>
        <time>2019-03-03T01:47:32Z</time>
      </trkpt>
      <trkpt lat="41.200207" lon="-5.700464">
        <ele>848.863</ele>
        <time>2019-03-03T01:47:33Z</time>
      </trkpt>
      <trkpt lat="41.200242" lon="-5.700514">
        <ele>848.726</ele>
        <time>2019-03-03T01:47:34Z</time>
      </trkpt>
      <trkpt lat="41.200269" lon="-5.700570">
        <ele>848.747</ele>
        <time>2019-03-03T01:47:35Z</time>
      </trkpt>
      <trkpt lat="41.200286" lon="-5.700630">
        <ele>848.811</ele>
        <time>2019-03-03T01:47:36Z</time>
      </trkpt>
      <trkpt lat="41.200295" lon="-5.700687">
        <ele>848.808</ele>
        <time>2019-03-03T01:47:37Z</time>
      </trkpt>
      <trkpt lat="41.200299" lon="-5.700738">
        <ele>848.855</ele>
        <time>2019-03-03T01:47:38Z</time>
      </trkpt>
      <trkpt lat="41.200300" lon="-5.700782">
        <ele>848.816</ele>
        <time>2019-03-03T01:47:39Z</time>
      </trkpt>
      <trkpt lat="41.200300" lon="-5.700825">
        <ele>848.967</ele>
        <time>2019-03-03T01:47:40Z</time>
      </trkpt>
      <trkpt lat="41.200127" lon="-5.701603">
        <ele>849.936</ele>
        <time>2019-03-03T01:47:57Z</time>
      </trkpt>
      <trkpt lat="41.200279" lon="-5.701944">
        <ele>850.330</ele>
        <time>2019-03-03T01:48:06Z</time>
      </trkpt>
      <trkpt lat="41.200507" lon="-5.701959">
        <ele>850.133</ele>
        <time>2019-03-03T01:48:13Z</time>
      </trkpt>
      <trkpt lat="41.200686" lon="-5.701609">
        <ele>849.492</ele>
        <time>2019-03-03T01:48:21Z</time>
      </trkpt>
      <trkpt lat="41.200726" lon="-5.701064">
        <ele>848.211</ele>
        <time>2019-03-03T01:48:30Z</time>
      </trkpt>
      <trkpt lat="41.201035" lon="-5.700599">
        <ele>847.415</ele>
        <time>2019-03-03T01:48:40Z</time>
      </trkpt>
      <trkpt lat="41.201135" lon="-5.700612">
        <ele>847.565</ele>
        <time>2019-03-03T01:48:42Z</time>
      </trkpt>
      <trkpt lat="41.201906" lon="-5.700814">
        <ele>846.611</ele>
        <time>2019-03-03T01:49:01Z</time>
      </trkpt>
      <trkpt lat="41.202615" lon="-5.700987">
        <ele>845.508</ele>
        <time>2019-03-03T01:49:17Z</time>
      </trkpt>
      <trkpt lat="41.202704" lon="-5.701003">
        <ele>845.314</ele>
        <time>2019-03-03T01:49:19Z</time>
      </trkpt>
      <trkpt lat="41.203479" lon="-5.701180">
        <ele>844.075</ele>
        <time>2019-03-03T01:49:34Z</time>
      </trkpt>
      <trkpt lat="41.204418" lon="-5.701429">
        <ele>843.036</ele>
        <time>2019-03-03T01:49:51Z</time>
      </trkpt>
      <trkpt lat="41.205239" lon="-5.701716">
        <ele>839.355</ele>
        <time>2019-03-03T01:50:05Z</time>
      </trkpt>
      <trkpt lat="41.205754" lon="-5.701801">
        <ele>841.039</ele>
        <time>2019-03-03T01:50:15Z</time>
      </trkpt>
      <trkpt lat="41.206253" lon="-5.701895">
        <ele>841.982</ele>
        <time>2019-03-03T01:50:32Z</time>
      </trkpt>
      <trkpt lat="41.206845" lon="-5.702033">
        <ele>841.521</ele>
        <time>2019-03-03T01:50:51Z</time>
      </trkpt>
      <trkpt lat="41.207538" lon="-5.702207">
        <ele>840.480</ele>
        <time>2019-03-03T01:51:08Z</time>
      </trkpt>
      <trkpt lat="41.208514" lon="-5.702458">
        <ele>839.517</ele>
        <time>2019-03-03T01:51:27Z</time>
      </trkpt>
      <trkpt lat="41.209067" lon="-5.702589">
        <ele>839.987</ele>
        <time>2019-03-03T01:51:41Z</time>
      </trkpt>
      <trkpt lat="41.209444" lon="-5.702696">
        <ele>839.615</ele>
        <time>2019-03-03T01:51:50Z</time>
      </trkpt>
      <trkpt lat="41.209662" lon="-5.703062">
        <ele>839.708</ele>
        <time>2019-03-03T01:51:59Z</time>
      </trkpt>
      <trkpt lat="41.209658" lon="-5.703106">
        <ele>839.744</ele>
        <time>2019-03-03T01:52:00Z</time>
      </trkpt>
      <trkpt lat="41.209528" lon="-5.703965">
        <ele>840.325</ele>
        <time>2019-03-03T01:52:19Z</time>
      </trkpt>
      <trkpt lat="41.209789" lon="-5.704233">
        <ele>840.126</ele>
        <time>2019-03-03T01:52:29Z</time>
      </trkpt>
      <trkpt lat="41.210019" lon="-5.704031">
        <ele>840.035</ele>
        <time>2019-03-03T01:52:38Z</time>
      </trkpt>
      <trkpt lat="41.210140" lon="-5.703218">
        <ele>839.769</ele>
        <time>2019-03-03T01:52:53Z</time>
      </trkpt>
      <trkpt lat="41.210455" lon="-5.702903">
        <ele>839.232</ele>
        <time>2019-03-03T01:53:02Z</time>
      </trkpt>
      <trkpt lat="41.210544" lon="-5.702923">
        <ele>838.941</ele>
        <time>2019-03-03T01:53:04Z</time>
      </trkpt>
      <trkpt lat="41.211341" lon="-5.703180">
        <ele>837.190</ele>
        <time>2019-03-03T01:53:20Z</time>
      </trkpt>
      <trkpt lat="41.211780" lon="-5.703277">
        <ele>837.334</ele>
        <time>2019-03-03T01:53:32Z</time>
      </trkpt>
      <trkpt lat="41.212335" lon="-5.703418">
        <ele>837.955</ele>
        <time>2019-03-03T01:53:49Z</time>
      </trkpt>
      <trkpt lat="41.212728" lon="-5.703550">
        <ele>837.810</ele>
        <time>2019-03-03T01:54:02Z</time>
      </trkpt>
      <trkpt lat="41.213126" lon="-5.703658">
        <ele>837.508</ele>
        <time>2019-03-03T01:54:13Z</time>
      </trkpt>
      <trkpt lat="41.213765" lon="-5.703846">
        <ele>837.146</ele>
        <time>2019-03-03T01:54:30Z</time>
      </trkpt>
      <trkpt lat="41.214267" lon="-5.703958">
        <ele>836.347</ele>
        <time>2019-03-03T01:54:42Z</time>
      </trkpt>
      <trkpt lat="41.214944" lon="-5.704131">
        <ele>835.478</ele>
        <time>2019-03-03T01:54:59Z</time>
      </trkpt>
      <trkpt lat="41.215343" lon="-5.704227">
        <ele>834.517</ele>
        <time>2019-03-03T01:55:10Z</time>
      </trkpt>
      <trkpt lat="41.215703" lon="-5.704286">
        <ele>834.091</ele>
        <time>2019-03-03T01:55:18Z</time>
      </trkpt>
      <trkpt lat="41.216195" lon="-5.704395">
        <ele>834.884</ele>
        <time>2019-03-03T01:55:33Z</time>
      </trkpt>
      <trkpt lat="41.216192" lon="-5.704394">
        <ele>834.823</ele>
        <time>2019-03-03T01:55:36Z</time>
      </trkpt>
      <trkpt lat="41.216243" lon="-5.704407">
        <ele>834.922</ele>
        <time>2019-03-03T01:55:51Z</time>
      </trkpt>
      <trkpt lat="41.216674" lon="-5.704507">
        <ele>835.244</ele>
        <time>2019-03-03T01:56:04Z</time>
      </trkpt>
      <trkpt lat="41.217162" lon="-5.704647">
        <ele>835.305</ele>
        <time>2019-03-03T01:56:19Z</time>
      </trkpt>
      <trkpt lat="41.217538" lon="-5.704838">
        <ele>834.315</ele>
        <time>2019-03-03T01:56:34Z</time>
      </trkpt>
      <trkpt lat="41.217686" lon="-5.704925">
        <ele>833.908</ele>
        <time>2019-03-03T01:56:43Z</time>
      </trkpt>
      <trkpt lat="41.217728" lon="-5.704943">
        <ele>833.917</ele>
        <time>2019-03-03T01:57:08Z</time>
      </trkpt>
      <trkpt lat="41.217964" lon="-5.705068">
        <ele>834.368</ele>
        <time>2019-03-03T01:57:15Z</time>
      </trkpt>
      <trkpt lat="41.218609" lon="-5.705150">
        <ele>835.379</ele>
        <time>2019-03-03T01:57:32Z</time>
      </trkpt>
      <trkpt lat="41.219202" lon="-5.705211">
        <ele>836.368</ele>
        <time>2019-03-03T01:57:49Z</time>
      </trkpt>
      <trkpt lat="41.219706" lon="-5.705286">
        <ele>838.352</ele>
        <time>2019-03-03T01:58:08Z</time>
      </trkpt>
      <trkpt lat="41.220169" lon="-5.705340">
        <ele>840.625</ele>
        <time>2019-03-03T01:58:27Z</time>
      </trkpt>
      <trkpt lat="41.220554" lon="-5.705392">
        <ele>843.484</ele>
        <time>2019-03-03T01:58:45Z</time>
      </trkpt>
      <trkpt lat="41.220922" lon="-5.705492">
        <ele>846.513</ele>
        <time>2019-03-03T01:59:08Z</time>
      </trkpt>
      <trkpt lat="41.221199" lon="-5.705631">
        <ele>847.974</ele>
        <time>2019-03-03T01:59:28Z</time>
      </trkpt>
      <trkpt lat="41.221505" lon="-5.705758">
        <ele>849.156</ele>
        <time>2019-03-03T01:59:49Z</time>
      </trkpt>
      <trkpt lat="41.221891" lon="-5.705809">
        <ele>849.721</ele>
        <time>2019-03-03T02:00:10Z</time>
      </trkpt>
      <trkpt lat="41.222327" lon="-5.705828">
        <ele>849.008</ele>
        <time>2019-03-03T02:00:31Z</time>
      </trkpt>
      <trkpt lat="41.222783" lon="-5.705843">
        <ele>849.690</ele>
        <time>2019-03-03T02:00:44Z</time>
      </trkpt>
      <trkpt lat="41.223136" lon="-5.705905">
        <ele>850.771</ele>
        <time>2019-03-03T02:00:58Z</time>
      </trkpt>
      <trkpt lat="41.223561" lon="-5.705984">
        <ele>851.592</ele>
        <time>2019-03-03T02:01:15Z</time>
      </trkpt>
      <trkpt lat="41.224149" lon="-5.706012">
        <ele>850.311</ele>
        <time>2019-03-03T02:01:32Z</time>
      </trkpt>
      <trkpt lat="41.224782" lon="-5.705974">
        <ele>850.755</ele>
        <time>2019-03-03T02:01:45Z</time>
      </trkpt>
      <trkpt lat="41.225109" lon="-5.706068">
        <ele>851.868</ele>
        <time>2019-03-03T02:01:57Z</time>
      </trkpt>
      <trkpt lat="41.225397" lon="-5.706162">
        <ele>851.537</ele>
        <time>2019-03-03T02:02:17Z</time>
      </trkpt>
      <trkpt lat="41.225784" lon="-5.706140">
        <ele>849.156</ele>
        <time>2019-03-03T02:02:32Z</time>
      </trkpt>
      <trkpt lat="41.226457" lon="-5.706140">
        <ele>850.994</ele>
        <time>2019-03-03T02:02:42Z</time>
      </trkpt>
      <trkpt lat="41.226760" lon="-5.706184">
        <ele>853.457</ele>
        <time>2019-03-03T02:02:52Z</time>
      </trkpt>
      <trkpt lat="41.227080" lon="-5.706250">
        <ele>856.122</ele>
        <time>2019-03-03T02:03:10Z</time>
      </trkpt>
      <trkpt lat="41.227403" lon="-5.706331">
        <ele>858.208</ele>
        <time>2019-03-03T02:03:30Z</time>
      </trkpt>
      <trkpt lat="41.227617" lon="-5.706471">
        <ele>859.612</ele>
        <time>2019-03-03T02:03:45Z</time>
      </trkpt>
      <trkpt lat="41.227716" lon="-5.706778">
        <ele>859.923</ele>
        <time>2019-03-03T02:04:01Z</time>
      </trkpt>
      <trkpt lat="41.228002" lon="-5.707004">
        <ele>859.084</ele>
        <time>2019-03-03T02:04:15Z</time>
      </trkpt>
      <trkpt lat="41.228237" lon="-5.706875">
        <ele>859.073</ele>
        <time>2019-03-03T02:04:27Z</time>
      </trkpt>
      <trkpt lat="41.228482" lon="-5.706393">
        <ele>859.127</ele>
        <time>2019-03-03T02:04:41Z</time>
      </trkpt>
      <trkpt lat="41.229118" lon="-5.706305">
        <ele>858.780</ele>
        <time>2019-03-03T02:04:56Z</time>
      </trkpt>
      <trkpt lat="41.230076" lon="-5.706187">
        <ele>856.169</ele>
        <time>2019-03-03T02:05:12Z</time>
      </trkpt>
      <trkpt lat="41.230921" lon="-5.706125">
        <ele>853.568</ele>
        <time>2019-03-03T02:05:25Z</time>
      </trkpt>
      <trkpt lat="41.231714" lon="-5.706218">
        <ele>850.525</ele>
        <time>2019-03-03T02:05:37Z</time>
      </trkpt>
      <trkpt lat="41.232325" lon="-5.706127">
        <ele>849.726</ele>
        <time>2019-03-03T02:05:50Z</time>
      </trkpt>
      <trkpt lat="41.232781" lon="-5.706004">
        <ele>849.808</ele>
        <time>2019-03-03T02:06:09Z</time>
      </trkpt>
      <trkpt lat="41.233374" lon="-5.705956">
        <ele>850.008</ele>
        <time>2019-03-03T02:06:26Z</time>
      </trkpt>
      <trkpt lat="41.233716" lon="-5.705927">
        <ele>850.395</ele>
        <time>2019-03-03T02:06:37Z</time>
      </trkpt>
      <trkpt lat="41.233722" lon="-5.705930">
        <ele>850.386</ele>
        <time>2019-03-03T02:06:39Z</time>
      </trkpt>
      <trkpt lat="41.233851" lon="-5.705922">
        <ele>850.747</ele>
        <time>2019-03-03T02:06:51Z</time>
      </trkpt>
      <trkpt lat="41.234001" lon="-5.705929">
        <ele>851.836</ele>
        <time>2019-03-03T02:07:09Z</time>
      </trkpt>
      <trkpt lat="41.234174" lon="-5.705928">
        <ele>853.060</ele>
        <time>2019-03-03T02:08:01Z</time>
      </trkpt>
      <trkpt lat="41.234625" lon="-5.705906">
        <ele>854.213</ele>
        <time>2019-03-03T02:08:18Z</time>
      </trkpt>
      <trkpt lat="41.234992" lon="-5.705850">
        <ele>854.482</ele>
        <time>2019-03-03T02:08:27Z</time>
      </trkpt>
      <trkpt lat="41.235751" lon="-5.705647">
        <ele>854.441</ele>
        <time>2019-03-03T02:08:43Z</time>
      </trkpt>
      <trkpt lat="41.236504" lon="-5.705605">
        <ele>851.417</ele>
        <time>2019-03-03T02:08:57Z</time>
      </trkpt>
      <trkpt lat="41.237405" lon="-5.705813">
        <ele>848.587</ele>
        <time>2019-03-03T02:09:13Z</time>
      </trkpt>
      <trkpt lat="41.238590" lon="-5.706083">
        <ele>844.615</ele>
        <time>2019-03-03T02:09:32Z</time>
      </trkpt>
      <trkpt lat="41.239872" lon="-5.706372">
        <ele>840.208</ele>
        <time>2019-03-03T02:09:52Z</time>
      </trkpt>
      <trkpt lat="41.240768" lon="-5.706671">
        <ele>838.384</ele>
        <time>2019-03-03T02:10:08Z</time>
      </trkpt>
      <trkpt lat="41.241365" lon="-5.707026">
        <ele>838.445</ele>
        <time>2019-03-03T02:10:21Z</time>
      </trkpt>
      <trkpt lat="41.241406" lon="-5.707046">
        <ele>838.486</ele>
        <time>2019-03-03T02:10:22Z</time>
      </trkpt>
      <trkpt lat="41.241445" lon="-5.707065">
        <ele>838.485</ele>
        <time>2019-03-03T02:10:23Z</time>
      </trkpt>
      <trkpt lat="41.241481" lon="-5.707077">
        <ele>838.489</ele>
        <time>2019-03-03T02:10:24Z</time>
      </trkpt>
      <trkpt lat="41.241513" lon="-5.707070">
        <ele>838.452</ele>
        <time>2019-03-03T02:10:25Z</time>
      </trkpt>
      <trkpt lat="41.241540" lon="-5.707045">
        <ele>838.471</ele>
        <time>2019-03-03T02:10:26Z</time>
      </trkpt>
      <trkpt lat="41.241560" lon="-5.707010">
        <ele>838.480</ele>
        <time>2019-03-03T02:10:27Z</time>
      </trkpt>
      <trkpt lat="41.241573" lon="-5.706970">
        <ele>838.452</ele>
        <time>2019-03-03T02:10:28Z</time>
      </trkpt>
      <trkpt lat="41.241582" lon="-5.706930">
        <ele>838.453</ele>
        <time>2019-03-03T02:10:29Z</time>
      </trkpt>
      <trkpt lat="41.241590" lon="-5.706895">
        <ele>838.408</ele>
        <time>2019-03-03T02:10:30Z</time>
      </trkpt>
      <trkpt lat="41.241676" lon="-5.706738">
        <ele>838.608</ele>
        <time>2019-03-03T02:10:36Z</time>
      </trkpt>
      <trkpt lat="41.241712" lon="-5.706736">
        <ele>838.848</ele>
        <time>2019-03-03T02:10:37Z</time>
      </trkpt>
      <trkpt lat="41.242371" lon="-5.706873">
        <ele>841.339</ele>
        <time>2019-03-03T02:10:54Z</time>
      </trkpt>
      <trkpt lat="41.243336" lon="-5.707104">
        <ele>844.070</ele>
        <time>2019-03-03T02:11:16Z</time>
      </trkpt>
      <trkpt lat="41.244141" lon="-5.707240">
        <ele>846.189</ele>
        <time>2019-03-03T02:11:35Z</time>
      </trkpt>
      <trkpt lat="41.244947" lon="-5.707273">
        <ele>846.313</ele>
        <time>2019-03-03T02:11:54Z</time>
      </trkpt>
      <trkpt lat="41.245422" lon="-5.707259">
        <ele>844.996</ele>
        <time>2019-03-03T02:12:09Z</time>
      </trkpt>
      <trkpt lat="41.246054" lon="-5.707157">
        <ele>843.845</ele>
        <time>2019-03-03T02:12:24Z</time>
      </trkpt>
      <trkpt lat="41.246428" lon="-5.707050">
        <ele>843.294</ele>
        <time>2019-03-03T02:12:32Z</time>
      </trkpt>
      <trkpt lat="41.246473" lon="-5.707052">
        <ele>843.362</ele>
        <time>2019-03-03T02:12:33Z</time>
      </trkpt>
      <trkpt lat="41.246521" lon="-5.707068">
        <ele>843.483</ele>
        <time>2019-03-03T02:12:34Z</time>
      </trkpt>
      <trkpt lat="41.246561" lon="-5.707101">
        <ele>843.311</ele>
        <time>2019-03-03T02:12:35Z</time>
      </trkpt>
      <trkpt lat="41.246591" lon="-5.707144">
        <ele>843.308</ele>
        <time>2019-03-03T02:12:36Z</time>
      </trkpt>
      <trkpt lat="41.246631" lon="-5.707242">
        <ele>843.239</ele>
        <time>2019-03-03T02:12:38Z</time>
      </trkpt>
      <trkpt lat="41.246749" lon="-5.707738">
        <ele>843.160</ele>
        <time>2019-03-03T02:12:48Z</time>
      </trkpt>
      <trkpt lat="41.246779" lon="-5.707778">
        <ele>843.081</ele>
        <time>2019-03-03T02:12:49Z</time>
      </trkpt>
      <trkpt lat="41.246812" lon="-5.707813">
        <ele>843.060</ele>
        <time>2019-03-03T02:12:50Z</time>
      </trkpt>
      <trkpt lat="41.246922" lon="-5.707901">
        <ele>842.824</ele>
        <time>2019-03-03T02:12:53Z</time>
      </trkpt>
      <trkpt lat="41.246965" lon="-5.707923">
        <ele>842.787</ele>
        <time>2019-03-03T02:12:54Z</time>
      </trkpt>
      <trkpt lat="41.247014" lon="-5.707938">
        <ele>842.646</ele>
        <time>2019-03-03T02:12:55Z</time>
      </trkpt>
      <trkpt lat="41.247944" lon="-5.708156">
        <ele>840.865</ele>
        <time>2019-03-03T02:13:10Z</time>
      </trkpt>
      <trkpt lat="41.249108" lon="-5.708401">
        <ele>839.115</ele>
        <time>2019-03-03T02:13:29Z</time>
      </trkpt>
      <trkpt lat="41.250114" lon="-5.708613">
        <ele>839.865</ele>
        <time>2019-03-03T02:13:47Z</time>
      </trkpt>
      <trkpt lat="41.251015" lon="-5.708818">
        <ele>839.811</ele>
        <time>2019-03-03T02:14:06Z</time>
      </trkpt>
      <trkpt lat="41.251850" lon="-5.709003">
        <ele>839.808</ele>
        <time>2019-03-03T02:14:24Z</time>
      </trkpt>
      <trkpt lat="41.252624" lon="-5.709175">
        <ele>839.874</ele>
        <time>2019-03-03T02:14:42Z</time>
      </trkpt>
      <trkpt lat="41.253302" lon="-5.709325">
        <ele>839.935</ele>
        <time>2019-03-03T02:14:58Z</time>
      </trkpt>
      <trkpt lat="41.253701" lon="-5.709494">
        <ele>840.616</ele>
        <time>2019-03-03T02:15:10Z</time>
      </trkpt>
      <trkpt lat="41.254274" lon="-5.709848">
        <ele>840.585</ele>
        <time>2019-03-03T02:15:26Z</time>
      </trkpt>
      <trkpt lat="41.254324" lon="-5.709875">
        <ele>840.579</ele>
        <time>2019-03-03T02:15:32Z</time>
      </trkpt>
      <trkpt lat="41.254398" lon="-5.709893">
        <ele>840.592</ele>
        <time>2019-03-03T02:15:49Z</time>
      </trkpt>
      <trkpt lat="41.254694" lon="-5.710088">
        <ele>840.451</ele>
        <time>2019-03-03T02:15:59Z</time>
      </trkpt>
      <trkpt lat="41.254836" lon="-5.710182">
        <ele>840.440</ele>
        <time>2019-03-03T02:16:03Z</time>
      </trkpt>
      <trkpt lat="41.254874" lon="-5.710207">
        <ele>840.332</ele>
        <time>2019-03-03T02:16:04Z</time>
      </trkpt>
      <trkpt lat="41.255279" lon="-5.710531">
        <ele>840.392</ele>
        <time>2019-03-03T02:16:17Z</time>
      </trkpt>
      <trkpt lat="41.255556" lon="-5.710735">
        <ele>840.211</ele>
        <time>2019-03-03T02:16:26Z</time>
      </trkpt>
      <trkpt lat="41.255589" lon="-5.710737">
        <ele>840.208</ele>
        <time>2019-03-03T02:16:27Z</time>
      </trkpt>
      <trkpt lat="41.255616" lon="-5.710725">
        <ele>839.986</ele>
        <time>2019-03-03T02:16:28Z</time>
      </trkpt>
      <trkpt lat="41.255659" lon="-5.710697">
        <ele>839.847</ele>
        <time>2019-03-03T02:16:30Z</time>
      </trkpt>
      <trkpt lat="41.255682" lon="-5.710687">
        <ele>839.798</ele>
        <time>2019-03-03T02:16:31Z</time>
      </trkpt>
      <trkpt lat="41.255704" lon="-5.710676">
        <ele>839.757</ele>
        <time>2019-03-03T02:16:32Z</time>
      </trkpt>
      <trkpt lat="41.255742" lon="-5.710666">
        <ele>839.651</ele>
        <time>2019-03-03T02:16:35Z</time>
      </trkpt>
      <trkpt lat="41.255757" lon="-5.710681">
        <ele>839.664</ele>
        <time>2019-03-03T02:16:40Z</time>
      </trkpt>
      <trkpt lat="41.255614" lon="-5.710804">
        <ele>840.133</ele>
        <time>2019-03-03T02:48:00Z</time>
      </trkpt>
      <trkpt lat="41.255625" lon="-5.710820">
        <ele>840.132</ele>
        <time>2019-03-03T02:48:01Z</time>
      </trkpt>
      <trkpt lat="41.255638" lon="-5.710835">
        <ele>840.133</ele>
        <time>2019-03-03T02:48:02Z</time>
      </trkpt>
      <trkpt lat="41.255655" lon="-5.710851">
        <ele>840.123</ele>
        <time>2019-03-03T02:48:03Z</time>
      </trkpt>
      <trkpt lat="41.255673" lon="-5.710869">
        <ele>840.115</ele>
        <time>2019-03-03T02:48:04Z</time>
      </trkpt>
      <trkpt lat="41.255979" lon="-5.711162">
        <ele>839.608</ele>
        <time>2019-03-03T02:48:18Z</time>
      </trkpt>
      <trkpt lat="41.256336" lon="-5.711388">
        <ele>838.656</ele>
        <time>2019-03-03T02:48:30Z</time>
      </trkpt>
      <trkpt lat="41.256615" lon="-5.711454">
        <ele>838.387</ele>
        <time>2019-03-03T02:48:42Z</time>
      </trkpt>
      <trkpt lat="41.256616" lon="-5.711453">
        <ele>838.348</ele>
        <time>2019-03-03T02:48:43Z</time>
      </trkpt>
      <trkpt lat="41.256671" lon="-5.711466">
        <ele>838.227</ele>
        <time>2019-03-03T02:49:20Z</time>
      </trkpt>
      <trkpt lat="41.257135" lon="-5.711606">
        <ele>837.961</ele>
        <time>2019-03-03T02:49:36Z</time>
      </trkpt>
      <trkpt lat="41.257460" lon="-5.711683">
        <ele>837.984</ele>
        <time>2019-03-03T02:49:49Z</time>
      </trkpt>
      <trkpt lat="41.257514" lon="-5.711711">
        <ele>837.973</ele>
        <time>2019-03-03T02:49:56Z</time>
      </trkpt>
      <trkpt lat="41.257598" lon="-5.712050">
        <ele>837.792</ele>
        <time>2019-03-03T02:50:06Z</time>
      </trkpt>
      <trkpt lat="41.257605" lon="-5.712108">
        <ele>837.797</ele>
        <time>2019-03-03T02:50:07Z</time>
      </trkpt>
      <trkpt lat="41.257618" lon="-5.712168">
        <ele>837.723</ele>
        <time>2019-03-03T02:50:08Z</time>
      </trkpt>
      <trkpt lat="41.257629" lon="-5.712228">
        <ele>837.625</ele>
        <time>2019-03-03T02:50:09Z</time>
      </trkpt>
      <trkpt lat="41.257639" lon="-5.712286">
        <ele>837.608</ele>
        <time>2019-03-03T02:50:10Z</time>
      </trkpt>
      <trkpt lat="41.257677" lon="-5.712455">
        <ele>837.382</ele>
        <time>2019-03-03T02:50:13Z</time>
      </trkpt>
      <trkpt lat="41.257697" lon="-5.712500">
        <ele>837.353</ele>
        <time>2019-03-03T02:50:14Z</time>
      </trkpt>
      <trkpt lat="41.257968" lon="-5.712902">
        <ele>836.064</ele>
        <time>2019-03-03T02:50:28Z</time>
      </trkpt>
      <trkpt lat="41.258315" lon="-5.713165">
        <ele>835.783</ele>
        <time>2019-03-03T02:50:44Z</time>
      </trkpt>
      <trkpt lat="41.258639" lon="-5.713399">
        <ele>835.457</ele>
        <time>2019-03-03T02:50:59Z</time>
      </trkpt>
      <trkpt lat="41.259171" lon="-5.713632">
        <ele>835.220</ele>
        <time>2019-03-03T02:51:18Z</time>
      </trkpt>
      <trkpt lat="41.259383" lon="-5.713794">
        <ele>835.179</ele>
        <time>2019-03-03T02:51:31Z</time>
      </trkpt>
      <trkpt lat="41.259475" lon="-5.713861">
        <ele>835.128</ele>
        <time>2019-03-03T02:53:00Z</time>
      </trkpt>
      <trkpt lat="41.259791" lon="-5.714071">
        <ele>835.036</ele>
        <time>2019-03-03T02:53:15Z</time>
      </trkpt>
      <trkpt lat="41.260186" lon="-5.714377">
        <ele>834.917</ele>
        <time>2019-03-03T02:53:31Z</time>
      </trkpt>
      <trkpt lat="41.260744" lon="-5.714826">
        <ele>835.118</ele>
        <time>2019-03-03T02:53:51Z</time>
      </trkpt>
      <trkpt lat="41.261175" lon="-5.715186">
        <ele>835.808</ele>
        <time>2019-03-03T02:54:07Z</time>
      </trkpt>
      <trkpt lat="41.261696" lon="-5.715516">
        <ele>836.566</ele>
        <time>2019-03-03T02:54:25Z</time>
      </trkpt>
      <trkpt lat="41.262165" lon="-5.715776">
        <ele>837.147</ele>
        <time>2019-03-03T02:54:41Z</time>
      </trkpt>
      <trkpt lat="41.262692" lon="-5.716075">
        <ele>837.688</ele>
        <time>2019-03-03T02:54:59Z</time>
      </trkpt>
      <trkpt lat="41.263086" lon="-5.716311">
        <ele>838.077</ele>
        <time>2019-03-03T02:55:13Z</time>
      </trkpt>
      <trkpt lat="41.263734" lon="-5.716707">
        <ele>839.051</ele>
        <time>2019-03-03T02:55:37Z</time>
      </trkpt>
      <trkpt lat="41.264289" lon="-5.716972">
        <ele>840.084</ele>
        <time>2019-03-03T02:55:56Z</time>
      </trkpt>
      <trkpt lat="41.264919" lon="-5.717126">
        <ele>840.933</ele>
        <time>2019-03-03T02:56:15Z</time>
      </trkpt>
      <trkpt lat="41.264980" lon="-5.717145">
        <ele>840.922</ele>
        <time>2019-03-03T02:56:21Z</time>
      </trkpt>
      <trkpt lat="41.265029" lon="-5.717174">
        <ele>841.048</ele>
        <time>2019-03-03T02:56:37Z</time>
      </trkpt>
      <trkpt lat="41.265427" lon="-5.717283">
        <ele>841.561</ele>
        <time>2019-03-03T02:56:53Z</time>
      </trkpt>
      <trkpt lat="41.265888" lon="-5.717443">
        <ele>842.117</ele>
        <time>2019-03-03T02:57:10Z</time>
      </trkpt>
      <trkpt lat="41.266361" lon="-5.717634">
        <ele>843.008</ele>
        <time>2019-03-03T02:57:27Z</time>
      </trkpt>
      <trkpt lat="41.266877" lon="-5.717863">
        <ele>843.527</ele>
        <time>2019-03-03T02:57:44Z</time>
      </trkpt>
      <trkpt lat="41.267556" lon="-5.718162">
        <ele>843.778</ele>
        <time>2019-03-03T02:58:04Z</time>
      </trkpt>
      <trkpt lat="41.268308" lon="-5.718613">
        <ele>844.779</ele>
        <time>2019-03-03T02:58:30Z</time>
      </trkpt>
      <trkpt lat="41.268826" lon="-5.718929">
        <ele>845.148</ele>
        <time>2019-03-03T02:58:46Z</time>
      </trkpt>
      <trkpt lat="41.269239" lon="-5.719221">
        <ele>845.272</ele>
        <time>2019-03-03T02:59:01Z</time>
      </trkpt>
      <trkpt lat="41.269561" lon="-5.719495">
        <ele>845.095</ele>
        <time>2019-03-03T02:59:13Z</time>
      </trkpt>
      <trkpt lat="41.269787" lon="-5.719762">
        <ele>845.084</ele>
        <time>2019-03-03T02:59:22Z</time>
      </trkpt>
      <trkpt lat="41.269819" lon="-5.719801">
        <ele>845.013</ele>
        <time>2019-03-03T02:59:29Z</time>
      </trkpt>
      <trkpt lat="41.269902" lon="-5.719864">
        <ele>845.163</ele>
        <time>2019-03-03T02:59:49Z</time>
      </trkpt>
      <trkpt lat="41.270236" lon="-5.720137">
        <ele>845.344</ele>
        <time>2019-03-03T03:00:02Z</time>
      </trkpt>
      <trkpt lat="41.270456" lon="-5.720248">
        <ele>845.318</ele>
        <time>2019-03-03T03:00:10Z</time>
      </trkpt>
      <trkpt lat="41.270459" lon="-5.720246">
        <ele>845.308</ele>
        <time>2019-03-03T03:00:12Z</time>
      </trkpt>
      <trkpt lat="41.270523" lon="-5.720282">
        <ele>845.329</ele>
        <time>2019-03-03T03:00:21Z</time>
      </trkpt>
      <trkpt lat="41.270715" lon="-5.720641">
        <ele>845.160</ele>
        <time>2019-03-03T03:00:34Z</time>
      </trkpt>
      <trkpt lat="41.271068" lon="-5.720885">
        <ele>845.471</ele>
        <time>2019-03-03T03:00:48Z</time>
      </trkpt>
      <trkpt lat="41.271333" lon="-5.721191">
        <ele>845.820</ele>
        <time>2019-03-03T03:01:02Z</time>
      </trkpt>
      <trkpt lat="41.271518" lon="-5.721401">
        <ele>845.944</ele>
        <time>2019-03-03T03:01:12Z</time>
      </trkpt>
      <trkpt lat="41.271893" lon="-5.721786">
        <ele>845.817</ele>
        <time>2019-03-03T03:01:26Z</time>
      </trkpt>
      <trkpt lat="41.272287" lon="-5.722082">
        <ele>845.556</ele>
        <time>2019-03-03T03:01:38Z</time>
      </trkpt>
      <trkpt lat="41.272634" lon="-5.722442">
        <ele>845.325</ele>
        <time>2019-03-03T03:01:50Z</time>
      </trkpt>
      <trkpt lat="41.273045" lon="-5.722863">
        <ele>845.264</ele>
        <time>2019-03-03T03:02:04Z</time>
      </trkpt>
      <trkpt lat="41.273338" lon="-5.723164">
        <ele>845.706</ele>
        <time>2019-03-03T03:02:16Z</time>
      </trkpt>
      <trkpt lat="41.273518" lon="-5.723440">
        <ele>845.316</ele>
        <time>2019-03-03T03:02:28Z</time>
      </trkpt>
      <trkpt lat="41.273520" lon="-5.723442">
        <ele>845.308</ele>
        <time>2019-03-03T03:02:32Z</time>
      </trkpt>
      <trkpt lat="41.273561" lon="-5.723504">
        <ele>845.239</ele>
        <time>2019-03-03T03:02:39Z</time>
      </trkpt>
      <trkpt lat="41.273797" lon="-5.723645">
        <ele>844.910</ele>
        <time>2019-03-03T03:02:51Z</time>
      </trkpt>
      <trkpt lat="41.274230" lon="-5.724036">
        <ele>845.311</ele>
        <time>2019-03-03T03:03:07Z</time>
      </trkpt>
      <trkpt lat="41.274571" lon="-5.724401">
        <ele>845.210</ele>
        <time>2019-03-03T03:03:22Z</time>
      </trkpt>
      <trkpt lat="41.274855" lon="-5.724726">
        <ele>844.834</ele>
        <time>2019-03-03T03:03:34Z</time>
      </trkpt>
      <trkpt lat="41.275266" lon="-5.725191">
        <ele>843.977</ele>
        <time>2019-03-03T03:03:47Z</time>
      </trkpt>
      <trkpt lat="41.275849" lon="-5.725819">
        <ele>844.346</ele>
        <time>2019-03-03T03:04:04Z</time>
      </trkpt>
      <trkpt lat="41.276414" lon="-5.726261">
        <ele>845.775</ele>
        <time>2019-03-03T03:04:22Z</time>
      </trkpt>
      <trkpt lat="41.277027" lon="-5.726826">
        <ele>846.623</ele>
        <time>2019-03-03T03:04:42Z</time>
      </trkpt>
      <trkpt lat="41.277554" lon="-5.727448">
        <ele>847.483</ele>
        <time>2019-03-03T03:05:02Z</time>
      </trkpt>
      <trkpt lat="41.278005" lon="-5.727943">
        <ele>848.411</ele>
        <time>2019-03-03T03:05:19Z</time>
      </trkpt>
      <trkpt lat="41.278498" lon="-5.728362">
        <ele>849.108</ele>
        <time>2019-03-03T03:05:38Z</time>
      </trkpt>
      <trkpt lat="41.278904" lon="-5.728781">
        <ele>850.265</ele>
        <time>2019-03-03T03:05:53Z</time>
      </trkpt>
      <trkpt lat="41.279269" lon="-5.729178">
        <ele>850.326</ele>
        <time>2019-03-03T03:06:06Z</time>
      </trkpt>
      <trkpt lat="41.279673" lon="-5.729456">
        <ele>850.117</ele>
        <time>2019-03-03T03:06:18Z</time>
      </trkpt>
      <trkpt lat="41.279898" lon="-5.729804">
        <ele>850.356</ele>
        <time>2019-03-03T03:06:27Z</time>
      </trkpt>
      <trkpt lat="41.279928" lon="-5.729844">
        <ele>850.370</ele>
        <time>2019-03-03T03:06:28Z</time>
      </trkpt>
      <trkpt lat="41.279960" lon="-5.729882">
        <ele>850.493</ele>
        <time>2019-03-03T03:06:29Z</time>
      </trkpt>
      <trkpt lat="41.279993" lon="-5.729917">
        <ele>850.472</ele>
        <time>2019-03-03T03:06:30Z</time>
      </trkpt>
      <trkpt lat="41.280026" lon="-5.729950">
        <ele>850.411</ele>
        <time>2019-03-03T03:06:31Z</time>
      </trkpt>
      <trkpt lat="41.280063" lon="-5.729980">
        <ele>850.531</ele>
        <time>2019-03-03T03:06:32Z</time>
      </trkpt>
      <trkpt lat="41.280645" lon="-5.730422">
        <ele>850.261</ele>
        <time>2019-03-03T03:06:48Z</time>
      </trkpt>
      <trkpt lat="41.280856" lon="-5.730754">
        <ele>850.107</ele>
        <time>2019-03-03T03:07:02Z</time>
      </trkpt>
      <trkpt lat="41.281118" lon="-5.731085">
        <ele>850.208</ele>
        <time>2019-03-03T03:07:14Z</time>
      </trkpt>
      <trkpt lat="41.281496" lon="-5.731436">
        <ele>850.346</ele>
        <time>2019-03-03T03:07:29Z</time>
      </trkpt>
      <trkpt lat="41.281707" lon="-5.731664">
        <ele>850.167</ele>
        <time>2019-03-03T03:07:41Z</time>
      </trkpt>
      <trkpt lat="41.281764" lon="-5.731683">
        <ele>850.188</ele>
        <time>2019-03-03T03:07:48Z</time>
      </trkpt>
      <trkpt lat="41.281829" lon="-5.731699">
        <ele>850.197</ele>
        <time>2019-03-03T03:07:52Z</time>
      </trkpt>
      <trkpt lat="41.282177" lon="-5.732063">
        <ele>849.841</ele>
        <time>2019-03-03T03:08:04Z</time>
      </trkpt>
      <trkpt lat="41.282249" lon="-5.732144">
        <ele>849.874</ele>
        <time>2019-03-03T03:08:06Z</time>
      </trkpt>
      <trkpt lat="41.282288" lon="-5.732178">
        <ele>849.883</ele>
        <time>2019-03-03T03:08:07Z</time>
      </trkpt>
      <trkpt lat="41.282326" lon="-5.732210">
        <ele>849.722</ele>
        <time>2019-03-03T03:08:08Z</time>
      </trkpt>
      <trkpt lat="41.282360" lon="-5.732245">
        <ele>849.766</ele>
        <time>2019-03-03T03:08:09Z</time>
      </trkpt>
      <trkpt lat="41.282393" lon="-5.732281">
        <ele>849.729</ele>
        <time>2019-03-03T03:08:10Z</time>
      </trkpt>
      <trkpt lat="41.282424" lon="-5.732316">
        <ele>849.721</ele>
        <time>2019-03-03T03:08:11Z</time>
      </trkpt>
      <trkpt lat="41.282454" lon="-5.732352">
        <ele>849.708</ele>
        <time>2019-03-03T03:08:12Z</time>
      </trkpt>
      <trkpt lat="41.282843" lon="-5.732815">
        <ele>850.089</ele>
        <time>2019-03-03T03:08:28Z</time>
      </trkpt>
      <trkpt lat="41.283451" lon="-5.733295">
        <ele>850.970</ele>
        <time>2019-03-03T03:08:47Z</time>
      </trkpt>
      <trkpt lat="41.283990" lon="-5.733814">
        <ele>850.751</ele>
        <time>2019-03-03T03:09:03Z</time>
      </trkpt>
      <trkpt lat="41.284512" lon="-5.734417">
        <ele>850.640</ele>
        <time>2019-03-03T03:09:19Z</time>
      </trkpt>
      <trkpt lat="41.284924" lon="-5.734811">
        <ele>850.814</ele>
        <time>2019-03-03T03:09:31Z</time>
      </trkpt>
      <trkpt lat="41.285267" lon="-5.735177">
        <ele>850.867</ele>
        <time>2019-03-03T03:09:42Z</time>
      </trkpt>
      <trkpt lat="41.285757" lon="-5.735584">
        <ele>850.426</ele>
        <time>2019-03-03T03:09:56Z</time>
      </trkpt>
      <trkpt lat="41.286242" lon="-5.736079">
        <ele>850.755</ele>
        <time>2019-03-03T03:10:14Z</time>
      </trkpt>
      <trkpt lat="41.286597" lon="-5.736384">
        <ele>851.564</ele>
        <time>2019-03-03T03:10:31Z</time>
      </trkpt>
      <trkpt lat="41.286938" lon="-5.736745">
        <ele>852.206</ele>
        <time>2019-03-03T03:10:49Z</time>
      </trkpt>
      <trkpt lat="41.287281" lon="-5.737175">
        <ele>853.416</ele>
        <time>2019-03-03T03:11:07Z</time>
      </trkpt>
      <trkpt lat="41.287586" lon="-5.737503">
        <ele>854.208</ele>
        <time>2019-03-03T03:11:20Z</time>
      </trkpt>
      <trkpt lat="41.287902" lon="-5.737804">
        <ele>854.859</ele>
        <time>2019-03-03T03:11:34Z</time>
      </trkpt>
      <trkpt lat="41.288237" lon="-5.738149">
        <ele>855.810</ele>
        <time>2019-03-03T03:11:50Z</time>
      </trkpt>
      <trkpt lat="41.288658" lon="-5.738596">
        <ele>857.211</ele>
        <time>2019-03-03T03:12:07Z</time>
      </trkpt>
      <trkpt lat="41.288975" lon="-5.738925">
        <ele>857.460</ele>
        <time>2019-03-03T03:12:17Z</time>
      </trkpt>
      <trkpt lat="41.289052" lon="-5.738993">
        <ele>857.434</ele>
        <time>2019-03-03T03:12:19Z</time>
      </trkpt>
      <trkpt lat="41.289348" lon="-5.739285">
        <ele>857.277</ele>
        <time>2019-03-03T03:12:32Z</time>
      </trkpt>
      <trkpt lat="41.289690" lon="-5.739581">
        <ele>858.296</ele>
        <time>2019-03-03T03:12:49Z</time>
      </trkpt>
      <trkpt lat="41.290010" lon="-5.739844">
        <ele>859.435</ele>
        <time>2019-03-03T03:13:03Z</time>
      </trkpt>
      <trkpt lat="41.290242" lon="-5.740151">
        <ele>859.986</ele>
        <time>2019-03-03T03:13:17Z</time>
      </trkpt>
      <trkpt lat="41.290483" lon="-5.740426">
        <ele>860.260</ele>
        <time>2019-03-03T03:13:30Z</time>
      </trkpt>
      <trkpt lat="41.290923" lon="-5.740822">
        <ele>860.826</ele>
        <time>2019-03-03T03:13:46Z</time>
      </trkpt>
      <trkpt lat="41.291338" lon="-5.741215">
        <ele>861.008</ele>
        <time>2019-03-03T03:14:01Z</time>
      </trkpt>
      <trkpt lat="41.291817" lon="-5.741717">
        <ele>861.171</ele>
        <time>2019-03-03T03:14:18Z</time>
      </trkpt>
      <trkpt lat="41.292282" lon="-5.742194">
        <ele>860.792</ele>
        <time>2019-03-03T03:14:34Z</time>
      </trkpt>
      <trkpt lat="41.292304" lon="-5.742239">
        <ele>860.733</ele>
        <time>2019-03-03T03:14:35Z</time>
      </trkpt>
      <trkpt lat="41.292328" lon="-5.742277">
        <ele>860.642</ele>
        <time>2019-03-03T03:14:36Z</time>
      </trkpt>
      <trkpt lat="41.292358" lon="-5.742299">
        <ele>860.566</ele>
        <time>2019-03-03T03:14:37Z</time>
      </trkpt>
      <trkpt lat="41.292391" lon="-5.742313">
        <ele>860.599</ele>
        <time>2019-03-03T03:14:38Z</time>
      </trkpt>
      <trkpt lat="41.292724" lon="-5.742575">
        <ele>859.668</ele>
        <time>2019-03-03T03:14:51Z</time>
      </trkpt>
      <trkpt lat="41.292926" lon="-5.742714">
        <ele>859.367</ele>
        <time>2019-03-03T03:14:56Z</time>
      </trkpt>
      <trkpt lat="41.293041" lon="-5.742822">
        <ele>859.148</ele>
        <time>2019-03-03T03:14:59Z</time>
      </trkpt>
      <trkpt lat="41.293356" lon="-5.743267">
        <ele>858.761</ele>
        <time>2019-03-03T03:15:09Z</time>
      </trkpt>
      <trkpt lat="41.293381" lon="-5.743313">
        <ele>858.717</ele>
        <time>2019-03-03T03:15:10Z</time>
      </trkpt>
      <trkpt lat="41.293411" lon="-5.743353">
        <ele>858.608</ele>
        <time>2019-03-03T03:15:11Z</time>
      </trkpt>
      <trkpt lat="41.293442" lon="-5.743387">
        <ele>858.527</ele>
        <time>2019-03-03T03:15:12Z</time>
      </trkpt>
      <trkpt lat="41.293473" lon="-5.743417">
        <ele>858.538</ele>
        <time>2019-03-03T03:15:13Z</time>
      </trkpt>
      <trkpt lat="41.293502" lon="-5.743442">
        <ele>858.479</ele>
        <time>2019-03-03T03:15:14Z</time>
      </trkpt>
      <trkpt lat="41.293528" lon="-5.743465">
        <ele>858.448</ele>
        <time>2019-03-03T03:15:15Z</time>
      </trkpt>
      <trkpt lat="41.293551" lon="-5.743484">
        <ele>858.492</ele>
        <time>2019-03-03T03:15:16Z</time>
      </trkpt>
      <trkpt lat="41.293573" lon="-5.743500">
        <ele>858.465</ele>
        <time>2019-03-03T03:15:17Z</time>
      </trkpt>
      <trkpt lat="41.293831" lon="-5.743716">
        <ele>858.394</ele>
        <time>2019-03-03T03:15:30Z</time>
      </trkpt>
      <trkpt lat="41.294230" lon="-5.744088">
        <ele>857.843</ele>
        <time>2019-03-03T03:15:49Z</time>
      </trkpt>
      <trkpt lat="41.294648" lon="-5.744419">
        <ele>857.738</ele>
        <time>2019-03-03T03:16:05Z</time>
      </trkpt>
      <trkpt lat="41.295003" lon="-5.744610">
        <ele>857.570</ele>
        <time>2019-03-03T03:16:17Z</time>
      </trkpt>
      <trkpt lat="41.295566" lon="-5.744865">
        <ele>858.217</ele>
        <time>2019-03-03T03:16:35Z</time>
      </trkpt>
      <trkpt lat="41.296060" lon="-5.744970">
        <ele>858.708</ele>
        <time>2019-03-03T03:16:50Z</time>
      </trkpt>
      <trkpt lat="41.296545" lon="-5.745091">
        <ele>858.546</ele>
        <time>2019-03-03T03:17:06Z</time>
      </trkpt>
      <trkpt lat="41.296714" lon="-5.745253">
        <ele>858.517</ele>
        <time>2019-03-03T03:17:19Z</time>
      </trkpt>
      <trkpt lat="41.296630" lon="-5.745252">
        <ele>858.568</ele>
        <time>2019-03-03T03:17:33Z</time>
      </trkpt>
      <trkpt lat="41.296612" lon="-5.745257">
        <ele>858.597</ele>
        <time>2019-03-03T03:17:34Z</time>
      </trkpt>
      <trkpt lat="41.296595" lon="-5.745264">
        <ele>858.561</ele>
        <time>2019-03-03T03:17:35Z</time>
      </trkpt>
      <trkpt lat="41.296581" lon="-5.745275">
        <ele>858.534</ele>
        <time>2019-03-03T03:17:36Z</time>
      </trkpt>
      <trkpt lat="41.296568" lon="-5.745287">
        <ele>858.583</ele>
        <time>2019-03-03T03:17:37Z</time>
      </trkpt>
      <trkpt lat="41.296553" lon="-5.745299">
        <ele>858.532</ele>
        <time>2019-03-03T03:17:38Z</time>
      </trkpt>
      <trkpt lat="41.296537" lon="-5.745315">
        <ele>858.538</ele>
        <time>2019-03-03T03:17:39Z</time>
      </trkpt>
      <trkpt lat="41.296206" lon="-5.745593">
        <ele>858.970</ele>
        <time>2019-03-03T03:17:54Z</time>
      </trkpt>
      <trkpt lat="41.296107" lon="-5.745886">
        <ele>859.217</ele>
        <time>2019-03-03T03:18:05Z</time>
      </trkpt>
      <trkpt lat="41.296121" lon="-5.745913">
        <ele>859.208</ele>
        <time>2019-03-03T03:18:06Z</time>
      </trkpt>
      <trkpt lat="41.296389" lon="-5.746306">
        <ele>859.596</ele>
        <time>2019-03-03T03:18:21Z</time>
      </trkpt>
      <trkpt lat="41.296604" lon="-5.746661">
        <ele>860.167</ele>
        <time>2019-03-03T03:18:34Z</time>
      </trkpt>
      <trkpt lat="41.296858" lon="-5.747082">
        <ele>860.448</ele>
        <time>2019-03-03T03:18:50Z</time>
      </trkpt>
      <trkpt lat="41.297167" lon="-5.747602">
        <ele>860.527</ele>
        <time>2019-03-03T03:19:06Z</time>
      </trkpt>
      <trkpt lat="41.297674" lon="-5.748458">
        <ele>862.031</ele>
        <time>2019-03-03T03:19:27Z</time>
      </trkpt>
      <trkpt lat="41.298128" lon="-5.749210">
        <ele>862.884</ele>
        <time>2019-03-03T03:19:46Z</time>
      </trkpt>
      <trkpt lat="41.298438" lon="-5.749732">
        <ele>862.943</ele>
        <time>2019-03-03T03:20:02Z</time>
      </trkpt>
      <trkpt lat="41.298437" lon="-5.749731">
        <ele>862.962</ele>
        <time>2019-03-03T03:20:03Z</time>
      </trkpt>
      <trkpt lat="41.298467" lon="-5.749786">
        <ele>862.912</ele>
        <time>2019-03-03T03:22:02Z</time>
      </trkpt>
      <trkpt lat="41.298751" lon="-5.750245">
        <ele>863.032</ele>
        <time>2019-03-03T03:22:16Z</time>
      </trkpt>
      <trkpt lat="41.299175" lon="-5.750954">
        <ele>864.105</ele>
        <time>2019-03-03T03:22:34Z</time>
      </trkpt>
      <trkpt lat="41.299684" lon="-5.751805">
        <ele>864.308</ele>
        <time>2019-03-03T03:22:56Z</time>
      </trkpt>
      <trkpt lat="41.300144" lon="-5.752575">
        <ele>865.194</ele>
        <time>2019-03-03T03:23:15Z</time>
      </trkpt>
      <trkpt lat="41.300575" lon="-5.753272">
        <ele>866.295</ele>
        <time>2019-03-03T03:23:33Z</time>
      </trkpt>
      <trkpt lat="41.300905" lon="-5.753841">
        <ele>867.616</ele>
        <time>2019-03-03T03:23:49Z</time>
      </trkpt>
      <trkpt lat="41.301192" lon="-5.754330">
        <ele>867.765</ele>
        <time>2019-03-03T03:24:05Z</time>
      </trkpt>
      <trkpt lat="41.301477" lon="-5.754776">
        <ele>867.859</ele>
        <time>2019-03-03T03:24:19Z</time>
      </trkpt>
      <trkpt lat="41.301769" lon="-5.755282">
        <ele>868.022</ele>
        <time>2019-03-03T03:24:32Z</time>
      </trkpt>
      <trkpt lat="41.302096" lon="-5.755840">
        <ele>868.961</ele>
        <time>2019-03-03T03:24:48Z</time>
      </trkpt>
      <trkpt lat="41.302450" lon="-5.756415">
        <ele>869.690</ele>
        <time>2019-03-03T03:25:05Z</time>
      </trkpt>
      <trkpt lat="41.302907" lon="-5.757177">
        <ele>871.674</ele>
        <time>2019-03-03T03:25:29Z</time>
      </trkpt>
      <trkpt lat="41.303223" lon="-5.757639">
        <ele>872.756</ele>
        <time>2019-03-03T03:25:44Z</time>
      </trkpt>
      <trkpt lat="41.303609" lon="-5.758149">
        <ele>872.921</ele>
        <time>2019-03-03T03:26:03Z</time>
      </trkpt>
      <trkpt lat="41.303966" lon="-5.758617">
        <ele>873.008</ele>
        <time>2019-03-03T03:26:20Z</time>
      </trkpt>
      <trkpt lat="41.304453" lon="-5.759284">
        <ele>873.530</ele>
        <time>2019-03-03T03:26:39Z</time>
      </trkpt>
      <trkpt lat="41.304922" lon="-5.759937">
        <ele>874.681</ele>
        <time>2019-03-03T03:26:58Z</time>
      </trkpt>
      <trkpt lat="41.305085" lon="-5.760163">
        <ele>875.292</ele>
        <time>2019-03-03T03:27:09Z</time>
      </trkpt>
      <trkpt lat="41.305116" lon="-5.760189">
        <ele>875.351</ele>
        <time>2019-03-03T03:28:07Z</time>
      </trkpt>
      <trkpt lat="41.305432" lon="-5.760627">
        <ele>876.355</ele>
        <time>2019-03-03T03:28:23Z</time>
      </trkpt>
      <trkpt lat="41.305784" lon="-5.761121">
        <ele>877.218</ele>
        <time>2019-03-03T03:28:42Z</time>
      </trkpt>
      <trkpt lat="41.305910" lon="-5.761285">
        <ele>877.587</ele>
        <time>2019-03-03T03:28:54Z</time>
      </trkpt>
      <trkpt lat="41.305945" lon="-5.761337">
        <ele>877.676</ele>
        <time>2019-03-03T03:29:25Z</time>
      </trkpt>
      <trkpt lat="41.306313" lon="-5.761842">
        <ele>878.648</ele>
        <time>2019-03-03T03:29:44Z</time>
      </trkpt>
      <trkpt lat="41.306631" lon="-5.762257">
        <ele>879.061</ele>
        <time>2019-03-03T03:30:01Z</time>
      </trkpt>
      <trkpt lat="41.306999" lon="-5.762753">
        <ele>879.617</ele>
        <time>2019-03-03T03:30:20Z</time>
      </trkpt>
      <trkpt lat="41.307475" lon="-5.763411">
        <ele>881.308</ele>
        <time>2019-03-03T03:30:41Z</time>
      </trkpt>
      <trkpt lat="41.307887" lon="-5.763991">
        <ele>882.977</ele>
        <time>2019-03-03T03:31:01Z</time>
      </trkpt>
      <trkpt lat="41.308268" lon="-5.764486">
        <ele>883.138</ele>
        <time>2019-03-03T03:31:20Z</time>
      </trkpt>
      <trkpt lat="41.308727" lon="-5.765113">
        <ele>882.739</ele>
        <time>2019-03-03T03:31:39Z</time>
      </trkpt>
      <trkpt lat="41.309211" lon="-5.765775">
        <ele>881.238</ele>
        <time>2019-03-03T03:31:56Z</time>
      </trkpt>
      <trkpt lat="41.309350" lon="-5.765958">
        <ele>880.842</ele>
        <time>2019-03-03T03:32:04Z</time>
      </trkpt>
      <trkpt lat="41.309397" lon="-5.766019">
        <ele>880.785</ele>
        <time>2019-03-03T03:32:26Z</time>
      </trkpt>
      <trkpt lat="41.309750" lon="-5.766499">
        <ele>878.714</ele>
        <time>2019-03-03T03:32:38Z</time>
      </trkpt>
      <trkpt lat="41.309922" lon="-5.766690">
        <ele>877.843</ele>
        <time>2019-03-03T03:32:42Z</time>
      </trkpt>
      <trkpt lat="41.309976" lon="-5.766729">
        <ele>877.678</ele>
        <time>2019-03-03T03:32:43Z</time>
      </trkpt>
      <trkpt lat="41.310036" lon="-5.766762">
        <ele>877.533</ele>
        <time>2019-03-03T03:32:44Z</time>
      </trkpt>
      <trkpt lat="41.310099" lon="-5.766790">
        <ele>877.426</ele>
        <time>2019-03-03T03:32:45Z</time>
      </trkpt>
      <trkpt lat="41.310163" lon="-5.766815">
        <ele>877.308</ele>
        <time>2019-03-03T03:32:46Z</time>
      </trkpt>
      <trkpt lat="41.310441" lon="-5.766899">
        <ele>877.340</ele>
        <time>2019-03-03T03:32:51Z</time>
      </trkpt>
      <trkpt lat="41.310486" lon="-5.766894">
        <ele>877.221</ele>
        <time>2019-03-03T03:32:52Z</time>
      </trkpt>
      <trkpt lat="41.310526" lon="-5.766881">
        <ele>877.232</ele>
        <time>2019-03-03T03:32:53Z</time>
      </trkpt>
      <trkpt lat="41.310564" lon="-5.766863">
        <ele>877.221</ele>
        <time>2019-03-03T03:32:54Z</time>
      </trkpt>
      <trkpt lat="41.310599" lon="-5.766843">
        <ele>877.165</ele>
        <time>2019-03-03T03:32:55Z</time>
      </trkpt>
      <trkpt lat="41.311014" lon="-5.766580">
        <ele>876.238</ele>
        <time>2019-03-03T03:33:09Z</time>
      </trkpt>
      <trkpt lat="41.311565" lon="-5.766297">
        <ele>873.667</ele>
        <time>2019-03-03T03:33:25Z</time>
      </trkpt>
      <trkpt lat="41.311845" lon="-5.766128">
        <ele>870.756</ele>
        <time>2019-03-03T03:33:31Z</time>
      </trkpt>
      <trkpt lat="41.311890" lon="-5.766087">
        <ele>870.375</ele>
        <time>2019-03-03T03:33:32Z</time>
      </trkpt>
      <trkpt lat="41.312265" lon="-5.765694">
        <ele>867.028</ele>
        <time>2019-03-03T03:33:41Z</time>
      </trkpt>
      <trkpt lat="41.312617" lon="-5.765214">
        <ele>865.220</ele>
        <time>2019-03-03T03:33:53Z</time>
      </trkpt>
      <trkpt lat="41.312618" lon="-5.765216">
        <ele>865.208</ele>
        <time>2019-03-03T03:33:56Z</time>
      </trkpt>
      <trkpt lat="41.312648" lon="-5.765158">
        <ele>864.920</ele>
        <time>2019-03-03T03:34:17Z</time>
      </trkpt>
      <trkpt lat="41.312885" lon="-5.764646">
        <ele>863.641</ele>
        <time>2019-03-03T03:34:29Z</time>
      </trkpt>
      <trkpt lat="41.313473" lon="-5.763925">
        <ele>862.012</ele>
        <time>2019-03-03T03:34:44Z</time>
      </trkpt>
      <trkpt lat="41.313520" lon="-5.763897">
        <ele>861.731</ele>
        <time>2019-03-03T03:34:45Z</time>
      </trkpt>
      <trkpt lat="41.313566" lon="-5.763874">
        <ele>861.595</ele>
        <time>2019-03-03T03:34:46Z</time>
      </trkpt>
      <trkpt lat="41.313609" lon="-5.763852">
        <ele>861.458</ele>
        <time>2019-03-03T03:34:47Z</time>
      </trkpt>
      <trkpt lat="41.313649" lon="-5.763831">
        <ele>861.267</ele>
        <time>2019-03-03T03:34:48Z</time>
      </trkpt>
      <trkpt lat="41.314192" lon="-5.763541">
        <ele>860.656</ele>
        <time>2019-03-03T03:35:00Z</time>
      </trkpt>
      <trkpt lat="41.314727" lon="-5.763261">
        <ele>857.924</ele>
        <time>2019-03-03T03:35:08Z</time>
      </trkpt>
      <trkpt lat="41.315078" lon="-5.762990">
        <ele>855.504</ele>
        <time>2019-03-03T03:35:14Z</time>
      </trkpt>
      <trkpt lat="41.315609" lon="-5.762763">
        <ele>852.014</ele>
        <time>2019-03-03T03:35:21Z</time>
      </trkpt>
      <trkpt lat="41.316105" lon="-5.762540">
        <ele>848.408</ele>
        <time>2019-03-03T03:35:27Z</time>
      </trkpt>
      <trkpt lat="41.316274" lon="-5.762482">
        <ele>846.975</ele>
        <time>2019-03-03T03:35:29Z</time>
      </trkpt>
      <trkpt lat="41.316360" lon="-5.762470">
        <ele>846.286</ele>
        <time>2019-03-03T03:35:30Z</time>
      </trkpt>
      <trkpt lat="41.316443" lon="-5.762467">
        <ele>845.637</ele>
        <time>2019-03-03T03:35:31Z</time>
      </trkpt>
      <trkpt lat="41.316525" lon="-5.762472">
        <ele>845.086</ele>
        <time>2019-03-03T03:35:32Z</time>
      </trkpt>
      <trkpt lat="41.316604" lon="-5.762486">
        <ele>844.530</ele>
        <time>2019-03-03T03:35:33Z</time>
      </trkpt>
      <trkpt lat="41.316680" lon="-5.762506">
        <ele>844.043</ele>
        <time>2019-03-03T03:35:34Z</time>
      </trkpt>
      <trkpt lat="41.317124" lon="-5.762609">
        <ele>841.422</ele>
        <time>2019-03-03T03:35:40Z</time>
      </trkpt>
      <trkpt lat="41.317612" lon="-5.762692">
        <ele>838.521</ele>
        <time>2019-03-03T03:35:48Z</time>
      </trkpt>
      <trkpt lat="41.318074" lon="-5.762795">
        <ele>836.237</ele>
        <time>2019-03-03T03:35:54Z</time>
      </trkpt>
      <trkpt lat="41.318185" lon="-5.762818">
        <ele>835.649</ele>
        <time>2019-03-03T03:35:56Z</time>
      </trkpt>
      <trkpt lat="41.318236" lon="-5.762829">
        <ele>835.213</ele>
        <time>2019-03-03T03:35:57Z</time>
      </trkpt>
      <trkpt lat="41.318468" lon="-5.762894">
        <ele>833.708</ele>
        <time>2019-03-03T03:36:02Z</time>
      </trkpt>
      <trkpt lat="41.318981" lon="-5.763061">
        <ele>831.996</ele>
        <time>2019-03-03T03:36:13Z</time>
      </trkpt>
      <trkpt lat="41.319688" lon="-5.763229">
        <ele>830.077</ele>
        <time>2019-03-03T03:36:26Z</time>
      </trkpt>
      <trkpt lat="41.320268" lon="-5.763210">
        <ele>828.538</ele>
        <time>2019-03-03T03:36:39Z</time>
      </trkpt>
      <trkpt lat="41.320902" lon="-5.763188">
        <ele>824.267</ele>
        <time>2019-03-03T03:36:52Z</time>
      </trkpt>
      <trkpt lat="41.320951" lon="-5.763178">
        <ele>824.031</ele>
        <time>2019-03-03T03:36:53Z</time>
      </trkpt>
      <trkpt lat="41.321004" lon="-5.763168">
        <ele>823.774</ele>
        <time>2019-03-03T03:36:54Z</time>
      </trkpt>
      <trkpt lat="41.321061" lon="-5.763166">
        <ele>823.443</ele>
        <time>2019-03-03T03:36:55Z</time>
      </trkpt>
      <trkpt lat="41.321120" lon="-5.763171">
        <ele>823.112</ele>
        <time>2019-03-03T03:36:56Z</time>
      </trkpt>
      <trkpt lat="41.321313" lon="-5.763218">
        <ele>822.317</ele>
        <time>2019-03-03T03:36:59Z</time>
      </trkpt>
      <trkpt lat="41.321690" lon="-5.763406">
        <ele>820.687</ele>
        <time>2019-03-03T03:37:05Z</time>
      </trkpt>
      <trkpt lat="41.322089" lon="-5.763629">
        <ele>819.015</ele>
        <time>2019-03-03T03:37:13Z</time>
      </trkpt>
      <trkpt lat="41.322141" lon="-5.763658">
        <ele>818.808</ele>
        <time>2019-03-03T03:37:14Z</time>
      </trkpt>
      <trkpt lat="41.322894" lon="-5.763969">
        <ele>816.664</ele>
        <time>2019-03-03T03:37:29Z</time>
      </trkpt>
      <trkpt lat="41.323624" lon="-5.764284">
        <ele>815.055</ele>
        <time>2019-03-03T03:37:47Z</time>
      </trkpt>
      <trkpt lat="41.324038" lon="-5.764362">
        <ele>813.286</ele>
        <time>2019-03-03T03:37:59Z</time>
      </trkpt>
      <trkpt lat="41.324466" lon="-5.764302">
        <ele>811.285</ele>
        <time>2019-03-03T03:38:12Z</time>
      </trkpt>
      <trkpt lat="41.324873" lon="-5.764328">
        <ele>808.829</ele>
        <time>2019-03-03T03:38:25Z</time>
      </trkpt>
      <trkpt lat="41.325307" lon="-5.764391">
        <ele>806.382</ele>
        <time>2019-03-03T03:38:37Z</time>
      </trkpt>
      <trkpt lat="41.325731" lon="-5.764494">
        <ele>804.971</ele>
        <time>2019-03-03T03:38:48Z</time>
      </trkpt>
      <trkpt lat="41.326321" lon="-5.764624">
        <ele>803.390</ele>
        <time>2019-03-03T03:39:01Z</time>
      </trkpt>
      <trkpt lat="41.326456" lon="-5.764676">
        <ele>802.885</ele>
        <time>2019-03-03T03:39:04Z</time>
      </trkpt>
      <trkpt lat="41.326500" lon="-5.764679">
        <ele>802.689</ele>
        <time>2019-03-03T03:39:05Z</time>
      </trkpt>
      <trkpt lat="41.326545" lon="-5.764672">
        <ele>802.517</ele>
        <time>2019-03-03T03:39:06Z</time>
      </trkpt>
      <trkpt lat="41.326634" lon="-5.764656">
        <ele>802.308</ele>
        <time>2019-03-03T03:39:08Z</time>
      </trkpt>
      <trkpt lat="41.326678" lon="-5.764661">
        <ele>802.331</ele>
        <time>2019-03-03T03:39:09Z</time>
      </trkpt>
      <trkpt lat="41.326939" lon="-5.764724">
        <ele>801.732</ele>
        <time>2019-03-03T03:39:19Z</time>
      </trkpt>
      <trkpt lat="41.326957" lon="-5.764721">
        <ele>801.743</ele>
        <time>2019-03-03T03:39:21Z</time>
      </trkpt>
      <trkpt lat="41.326970" lon="-5.764715">
        <ele>801.742</ele>
        <time>2019-03-03T03:39:22Z</time>
      </trkpt>
      <trkpt lat="41.326981" lon="-5.764712">
        <ele>801.776</ele>
        <time>2019-03-03T03:39:23Z</time>
      </trkpt>
      <trkpt lat="41.326991" lon="-5.764710">
        <ele>801.789</ele>
        <time>2019-03-03T03:39:24Z</time>
      </trkpt>
      <trkpt lat="41.327001" lon="-5.764704">
        <ele>801.758</ele>
        <time>2019-03-03T03:39:25Z</time>
      </trkpt>
      <trkpt lat="41.327012" lon="-5.764695">
        <ele>801.647</ele>
        <time>2019-03-03T03:39:26Z</time>
      </trkpt>
      <trkpt lat="41.327027" lon="-5.764687">
        <ele>801.699</ele>
        <time>2019-03-03T03:39:27Z</time>
      </trkpt>
      <trkpt lat="41.327046" lon="-5.764677">
        <ele>801.607</ele>
        <time>2019-03-03T03:39:28Z</time>
      </trkpt>
      <trkpt lat="41.327199" lon="-5.764619">
        <ele>801.627</ele>
        <time>2019-03-03T03:39:39Z</time>
      </trkpt>
      <trkpt lat="41.327115" lon="-5.764654">
        <ele>801.508</ele>
        <time>2019-03-03T03:39:58Z</time>
      </trkpt>
      <trkpt lat="41.326981" lon="-5.764722">
        <ele>801.562</ele>
        <time>2019-03-03T03:40:13Z</time>
      </trkpt>
      <trkpt lat="41.327075" lon="-5.764669">
        <ele>801.463</ele>
        <time>2019-03-03T03:40:37Z</time>
      </trkpt>
      <trkpt lat="41.327391" lon="-5.764593">
        <ele>801.364</ele>
        <time>2019-03-03T03:40:48Z</time>
      </trkpt>
      <trkpt lat="41.327976" lon="-5.764642">
        <ele>800.773</ele>
        <time>2019-03-03T03:41:07Z</time>
      </trkpt>
      <trkpt lat="41.328679" lon="-5.765112">
        <ele>799.017</ele>
        <time>2019-03-03T03:41:24Z</time>
      </trkpt>
      <trkpt lat="41.328941" lon="-5.765272">
        <ele>798.390</ele>
        <time>2019-03-03T03:41:31Z</time>
      </trkpt>
      <trkpt lat="41.328958" lon="-5.765303">
        <ele>798.239</ele>
        <time>2019-03-03T03:41:32Z</time>
      </trkpt>
      <trkpt lat="41.329388" lon="-5.765764">
        <ele>797.198</ele>
        <time>2019-03-03T03:41:46Z</time>
      </trkpt>
      <trkpt lat="41.329458" lon="-5.765831">
        <ele>797.098</ele>
        <time>2019-03-03T03:41:48Z</time>
      </trkpt>
      <trkpt lat="41.329488" lon="-5.765870">
        <ele>796.915</ele>
        <time>2019-03-03T03:41:49Z</time>
      </trkpt>
      <trkpt lat="41.329510" lon="-5.765912">
        <ele>796.926</ele>
        <time>2019-03-03T03:41:50Z</time>
      </trkpt>
      <trkpt lat="41.329831" lon="-5.766306">
        <ele>797.008</ele>
        <time>2019-03-03T03:42:03Z</time>
      </trkpt>
      <trkpt lat="41.330331" lon="-5.766720">
        <ele>796.572</ele>
        <time>2019-03-03T03:42:16Z</time>
      </trkpt>
      <trkpt lat="41.330653" lon="-5.766880">
        <ele>793.843</ele>
        <time>2019-03-03T03:42:23Z</time>
      </trkpt>
      <trkpt lat="41.330692" lon="-5.766909">
        <ele>793.524</ele>
        <time>2019-03-03T03:42:24Z</time>
      </trkpt>
      <trkpt lat="41.331416" lon="-5.767443">
        <ele>792.483</ele>
        <time>2019-03-03T03:42:42Z</time>
      </trkpt>
      <trkpt lat="41.331895" lon="-5.767841">
        <ele>792.497</ele>
        <time>2019-03-03T03:42:58Z</time>
      </trkpt>
      <trkpt lat="41.332443" lon="-5.768121">
        <ele>792.960</ele>
        <time>2019-03-03T03:43:14Z</time>
      </trkpt>
      <trkpt lat="41.333281" lon="-5.768441">
        <ele>790.699</ele>
        <time>2019-03-03T03:43:32Z</time>
      </trkpt>
      <trkpt lat="41.333688" lon="-5.768607">
        <ele>790.178</ele>
        <time>2019-03-03T03:43:45Z</time>
      </trkpt>
      <trkpt lat="41.333684" lon="-5.768605">
        <ele>790.157</ele>
        <time>2019-03-03T03:43:48Z</time>
      </trkpt>
      <trkpt lat="41.333754" lon="-5.768623">
        <ele>790.000</ele>
        <time>2019-03-03T03:44:08Z</time>
      </trkpt>
      <trkpt lat="41.334280" lon="-5.768737">
        <ele>788.620</ele>
        <time>2019-03-03T03:44:23Z</time>
      </trkpt>
      <trkpt lat="41.334456" lon="-5.768770">
        <ele>788.508</ele>
        <time>2019-03-03T03:44:34Z</time>
      </trkpt>
      <trkpt lat="41.334784" lon="-5.768877">
        <ele>788.598</ele>
        <time>2019-03-03T03:44:49Z</time>
      </trkpt>
      <trkpt lat="41.334849" lon="-5.768889">
        <ele>788.419</ele>
        <time>2019-03-03T03:44:56Z</time>
      </trkpt>
      <trkpt lat="41.334894" lon="-5.768930">
        <ele>788.440</ele>
        <time>2019-03-03T03:45:03Z</time>
      </trkpt>
      <trkpt lat="41.335311" lon="-5.769034">
        <ele>787.869</ele>
        <time>2019-03-03T03:45:17Z</time>
      </trkpt>
      <trkpt lat="41.335839" lon="-5.769279">
        <ele>787.153</ele>
        <time>2019-03-03T03:45:32Z</time>
      </trkpt>
      <trkpt lat="41.336220" lon="-5.769560">
        <ele>787.236</ele>
        <time>2019-03-03T03:45:47Z</time>
      </trkpt>
      <trkpt lat="41.336723" lon="-5.769858">
        <ele>787.635</ele>
        <time>2019-03-03T03:46:04Z</time>
      </trkpt>
      <trkpt lat="41.337378" lon="-5.770312">
        <ele>787.514</ele>
        <time>2019-03-03T03:46:25Z</time>
      </trkpt>
      <trkpt lat="41.338098" lon="-5.770881">
        <ele>785.769</ele>
        <time>2019-03-03T03:46:41Z</time>
      </trkpt>
      <trkpt lat="41.338298" lon="-5.771044">
        <ele>785.904</ele>
        <time>2019-03-03T03:46:45Z</time>
      </trkpt>
      <trkpt lat="41.338919" lon="-5.771358">
        <ele>787.824</ele>
        <time>2019-03-03T03:46:59Z</time>
      </trkpt>
      <trkpt lat="41.339482" lon="-5.771561">
        <ele>788.808</ele>
        <time>2019-03-03T03:47:17Z</time>
      </trkpt>
      <trkpt lat="41.340064" lon="-5.771604">
        <ele>788.859</ele>
        <time>2019-03-03T03:47:33Z</time>
      </trkpt>
      <trkpt lat="41.340897" lon="-5.771382">
        <ele>789.890</ele>
        <time>2019-03-03T03:47:53Z</time>
      </trkpt>
      <trkpt lat="41.341026" lon="-5.771351">
        <ele>789.811</ele>
        <time>2019-03-03T03:47:56Z</time>
      </trkpt>
      <trkpt lat="41.341070" lon="-5.771347">
        <ele>789.850</ele>
        <time>2019-03-03T03:47:57Z</time>
      </trkpt>
      <trkpt lat="41.341886" lon="-5.771384">
        <ele>791.724</ele>
        <time>2019-03-03T03:48:17Z</time>
      </trkpt>
      <trkpt lat="41.342441" lon="-5.771481">
        <ele>792.827</ele>
        <time>2019-03-03T03:48:36Z</time>
      </trkpt>
      <trkpt lat="41.343165" lon="-5.771438">
        <ele>793.796</ele>
        <time>2019-03-03T03:48:57Z</time>
      </trkpt>
      <trkpt lat="41.343846" lon="-5.771238">
        <ele>794.625</ele>
        <time>2019-03-03T03:49:17Z</time>
      </trkpt>
      <trkpt lat="41.344448" lon="-5.770941">
        <ele>793.399</ele>
        <time>2019-03-03T03:49:36Z</time>
      </trkpt>
      <trkpt lat="41.344951" lon="-5.770630">
        <ele>791.507</ele>
        <time>2019-03-03T03:49:50Z</time>
      </trkpt>
      <trkpt lat="41.345689" lon="-5.770206">
        <ele>787.727</ele>
        <time>2019-03-03T03:50:05Z</time>
      </trkpt>
      <trkpt lat="41.346614" lon="-5.769919">
        <ele>782.408</ele>
        <time>2019-03-03T03:50:18Z</time>
      </trkpt>
      <trkpt lat="41.347227" lon="-5.769745">
        <ele>779.082</ele>
        <time>2019-03-03T03:50:26Z</time>
      </trkpt>
      <trkpt lat="41.347825" lon="-5.769567">
        <ele>777.573</ele>
        <time>2019-03-03T03:50:34Z</time>
      </trkpt>
      <trkpt lat="41.348507" lon="-5.769469">
        <ele>775.924</ele>
        <time>2019-03-03T03:50:46Z</time>
      </trkpt>
      <trkpt lat="41.348603" lon="-5.769470">
        <ele>775.253</ele>
        <time>2019-03-03T03:50:54Z</time>
      </trkpt>
      <trkpt lat="41.348665" lon="-5.769457">
        <ele>774.877</ele>
        <time>2019-03-03T03:51:20Z</time>
      </trkpt>
      <trkpt lat="41.349254" lon="-5.769383">
        <ele>771.080</ele>
        <time>2019-03-03T03:51:31Z</time>
      </trkpt>
      <trkpt lat="41.349890" lon="-5.769314">
        <ele>768.029</ele>
        <time>2019-03-03T03:51:40Z</time>
      </trkpt>
      <trkpt lat="41.350601" lon="-5.769236">
        <ele>765.638</ele>
        <time>2019-03-03T03:51:50Z</time>
      </trkpt>
      <trkpt lat="41.351368" lon="-5.769157">
        <ele>763.459</ele>
        <time>2019-03-03T03:52:01Z</time>
      </trkpt>
      <trkpt lat="41.351596" lon="-5.769187">
        <ele>763.303</ele>
        <time>2019-03-03T03:52:05Z</time>
      </trkpt>
      <trkpt lat="41.352304" lon="-5.769318">
        <ele>762.623</ele>
        <time>2019-03-03T03:52:17Z</time>
      </trkpt>
      <trkpt lat="41.352675" lon="-5.769460">
        <ele>761.808</ele>
        <time>2019-03-03T03:52:24Z</time>
      </trkpt>
      <trkpt lat="41.353108" lon="-5.769643">
        <ele>761.318</ele>
        <time>2019-03-03T03:52:33Z</time>
      </trkpt>
      <trkpt lat="41.353138" lon="-5.769675">
        <ele>761.389</ele>
        <time>2019-03-03T03:52:34Z</time>
      </trkpt>
      <trkpt lat="41.353165" lon="-5.769706">
        <ele>761.320</ele>
        <time>2019-03-03T03:52:35Z</time>
      </trkpt>
      <trkpt lat="41.353191" lon="-5.769730">
        <ele>761.399</ele>
        <time>2019-03-03T03:52:36Z</time>
      </trkpt>
      <trkpt lat="41.353218" lon="-5.769746">
        <ele>761.493</ele>
        <time>2019-03-03T03:52:37Z</time>
      </trkpt>
      <trkpt lat="41.353245" lon="-5.769757">
        <ele>761.456</ele>
        <time>2019-03-03T03:52:38Z</time>
      </trkpt>
      <trkpt lat="41.353276" lon="-5.769767">
        <ele>761.495</ele>
        <time>2019-03-03T03:52:39Z</time>
      </trkpt>
      <trkpt lat="41.353701" lon="-5.769908">
        <ele>760.794</ele>
        <time>2019-03-03T03:52:52Z</time>
      </trkpt>
      <trkpt lat="41.353954" lon="-5.770173">
        <ele>760.254</ele>
        <time>2019-03-03T03:53:01Z</time>
      </trkpt>
      <trkpt lat="41.354165" lon="-5.770549">
        <ele>759.856</ele>
        <time>2019-03-03T03:53:12Z</time>
      </trkpt>
      <trkpt lat="41.354562" lon="-5.770699">
        <ele>759.411</ele>
        <time>2019-03-03T03:53:24Z</time>
      </trkpt>
      <trkpt lat="41.354691" lon="-5.770711">
        <ele>759.308</ele>
        <time>2019-03-03T03:53:34Z</time>
      </trkpt>
      <trkpt lat="41.354698" lon="-5.770718">
        <ele>759.328</ele>
        <time>2019-03-03T03:53:36Z</time>
      </trkpt>
      <trkpt lat="41.354779" lon="-5.770739">
        <ele>759.269</ele>
        <time>2019-03-03T03:53:44Z</time>
      </trkpt>
      <trkpt lat="41.355174" lon="-5.770763">
        <ele>757.830</ele>
        <time>2019-03-03T03:53:57Z</time>
      </trkpt>
      <trkpt lat="41.355261" lon="-5.770754">
        <ele>757.569</ele>
        <time>2019-03-03T03:53:59Z</time>
      </trkpt>
      <trkpt lat="41.355300" lon="-5.770746">
        <ele>757.413</ele>
        <time>2019-03-03T03:54:00Z</time>
      </trkpt>
      <trkpt lat="41.355337" lon="-5.770745">
        <ele>757.286</ele>
        <time>2019-03-03T03:54:01Z</time>
      </trkpt>
      <trkpt lat="41.355373" lon="-5.770750">
        <ele>757.245</ele>
        <time>2019-03-03T03:54:02Z</time>
      </trkpt>
      <trkpt lat="41.355414" lon="-5.770755">
        <ele>757.074</ele>
        <time>2019-03-03T03:54:03Z</time>
      </trkpt>
      <trkpt lat="41.355453" lon="-5.770763">
        <ele>756.914</ele>
        <time>2019-03-03T03:54:04Z</time>
      </trkpt>
      <trkpt lat="41.355491" lon="-5.770773">
        <ele>756.954</ele>
        <time>2019-03-03T03:54:05Z</time>
      </trkpt>
      <trkpt lat="41.355530" lon="-5.770782">
        <ele>756.809</ele>
        <time>2019-03-03T03:54:06Z</time>
      </trkpt>
      <trkpt lat="41.355801" lon="-5.770804">
        <ele>756.208</ele>
        <time>2019-03-03T03:54:17Z</time>
      </trkpt>
      <trkpt lat="41.355970" lon="-5.770795">
        <ele>755.764</ele>
        <time>2019-03-03T04:09:34Z</time>
      </trkpt>
      <trkpt lat="41.356218" lon="-5.770884">
        <ele>754.745</ele>
        <time>2019-03-03T04:09:43Z</time>
      </trkpt>
      <trkpt lat="41.356406" lon="-5.770948">
        <ele>754.166</ele>
        <time>2019-03-03T04:09:48Z</time>
      </trkpt>
      <trkpt lat="41.356484" lon="-5.770992">
        <ele>753.955</ele>
        <time>2019-03-03T04:09:50Z</time>
      </trkpt>
      <trkpt lat="41.356651" lon="-5.771064">
        <ele>752.779</ele>
        <time>2019-03-03T04:09:54Z</time>
      </trkpt>
      <trkpt lat="41.356855" lon="-5.771176">
        <ele>752.252</ele>
        <time>2019-03-03T04:09:59Z</time>
      </trkpt>
      <trkpt lat="41.357555" lon="-5.771591">
        <ele>750.391</ele>
        <time>2019-03-03T04:10:16Z</time>
      </trkpt>
      <trkpt lat="41.357846" lon="-5.771771">
        <ele>749.820</ele>
        <time>2019-03-03T04:10:23Z</time>
      </trkpt>
      <trkpt lat="41.357891" lon="-5.771789">
        <ele>749.751</ele>
        <time>2019-03-03T04:10:24Z</time>
      </trkpt>
      <trkpt lat="41.357933" lon="-5.771801">
        <ele>749.701</ele>
        <time>2019-03-03T04:10:25Z</time>
      </trkpt>
      <trkpt lat="41.357993" lon="-5.771823">
        <ele>749.611</ele>
        <time>2019-03-03T04:10:31Z</time>
      </trkpt>
      <trkpt lat="41.358016" lon="-5.771842">
        <ele>749.508</ele>
        <time>2019-03-03T04:12:00Z</time>
      </trkpt>
      <trkpt lat="41.358534" lon="-5.771802">
        <ele>748.678</ele>
        <time>2019-03-03T04:12:14Z</time>
      </trkpt>
      <trkpt lat="41.359355" lon="-5.771734">
        <ele>746.799</ele>
        <time>2019-03-03T04:12:32Z</time>
      </trkpt>
      <trkpt lat="41.360348" lon="-5.771658">
        <ele>744.150</ele>
        <time>2019-03-03T04:12:49Z</time>
      </trkpt>
      <trkpt lat="41.361359" lon="-5.771591">
        <ele>740.999</ele>
        <time>2019-03-03T04:13:04Z</time>
      </trkpt>
      <trkpt lat="41.362308" lon="-5.771516">
        <ele>737.523</ele>
        <time>2019-03-03T04:13:17Z</time>
      </trkpt>
      <trkpt lat="41.363089" lon="-5.771446">
        <ele>734.876</ele>
        <time>2019-03-03T04:13:29Z</time>
      </trkpt>
      <trkpt lat="41.363942" lon="-5.771406">
        <ele>731.985</ele>
        <time>2019-03-03T04:13:43Z</time>
      </trkpt>
      <trkpt lat="41.364247" lon="-5.771416">
        <ele>731.274</ele>
        <time>2019-03-03T04:13:53Z</time>
      </trkpt>
      <trkpt lat="41.364550" lon="-5.771357">
        <ele>731.594</ele>
        <time>2019-03-03T04:14:04Z</time>
      </trkpt>
      <trkpt lat="41.364693" lon="-5.771387">
        <ele>732.257</ele>
        <time>2019-03-03T04:14:09Z</time>
      </trkpt>
      <trkpt lat="41.364720" lon="-5.771378">
        <ele>732.322</ele>
        <time>2019-03-03T04:14:10Z</time>
      </trkpt>
      <trkpt lat="41.364742" lon="-5.771365">
        <ele>732.408</ele>
        <time>2019-03-03T04:14:11Z</time>
      </trkpt>
      <trkpt lat="41.365174" lon="-5.771235">
        <ele>733.272</ele>
        <time>2019-03-03T04:14:28Z</time>
      </trkpt>
      <trkpt lat="41.365372" lon="-5.771198">
        <ele>733.113</ele>
        <time>2019-03-03T04:14:39Z</time>
      </trkpt>
      <trkpt lat="41.365424" lon="-5.771188">
        <ele>733.194</ele>
        <time>2019-03-03T04:14:58Z</time>
      </trkpt>
      <trkpt lat="41.365945" lon="-5.771100">
        <ele>732.683</ele>
        <time>2019-03-03T04:15:12Z</time>
      </trkpt>
      <trkpt lat="41.366826" lon="-5.770944">
        <ele>731.797</ele>
        <time>2019-03-03T04:15:32Z</time>
      </trkpt>
      <trkpt lat="41.367590" lon="-5.770789">
        <ele>730.550</ele>
        <time>2019-03-03T04:15:48Z</time>
      </trkpt>
      <trkpt lat="41.368053" lon="-5.770723">
        <ele>729.999</ele>
        <time>2019-03-03T04:16:02Z</time>
      </trkpt>
      <trkpt lat="41.368514" lon="-5.770642">
        <ele>729.688</ele>
        <time>2019-03-03T04:16:15Z</time>
      </trkpt>
      <trkpt lat="41.368956" lon="-5.770547">
        <ele>729.513</ele>
        <time>2019-03-03T04:16:28Z</time>
      </trkpt>
      <trkpt lat="41.369324" lon="-5.770507">
        <ele>729.643</ele>
        <time>2019-03-03T04:16:41Z</time>
      </trkpt>
      <trkpt lat="41.369817" lon="-5.770416">
        <ele>728.707</ele>
        <time>2019-03-03T04:16:55Z</time>
      </trkpt>
      <trkpt lat="41.370319" lon="-5.770326">
        <ele>728.908</ele>
        <time>2019-03-03T04:17:08Z</time>
      </trkpt>
      <trkpt lat="41.371190" lon="-5.770157">
        <ele>729.394</ele>
        <time>2019-03-03T04:17:27Z</time>
      </trkpt>
      <trkpt lat="41.372283" lon="-5.769959">
        <ele>728.585</ele>
        <time>2019-03-03T04:17:49Z</time>
      </trkpt>
      <trkpt lat="41.372961" lon="-5.769871">
        <ele>728.216</ele>
        <time>2019-03-03T04:18:03Z</time>
      </trkpt>
      <trkpt lat="41.373003" lon="-5.769880">
        <ele>728.245</ele>
        <time>2019-03-03T04:18:04Z</time>
      </trkpt>
      <trkpt lat="41.373044" lon="-5.769887">
        <ele>728.159</ele>
        <time>2019-03-03T04:18:05Z</time>
      </trkpt>
      <trkpt lat="41.373086" lon="-5.769887">
        <ele>728.172</ele>
        <time>2019-03-03T04:18:06Z</time>
      </trkpt>
      <trkpt lat="41.373130" lon="-5.769884">
        <ele>728.191</ele>
        <time>2019-03-03T04:18:07Z</time>
      </trkpt>
      <trkpt lat="41.373709" lon="-5.769858">
        <ele>727.630</ele>
        <time>2019-03-03T04:18:20Z</time>
      </trkpt>
      <trkpt lat="41.373750" lon="-5.769848">
        <ele>727.688</ele>
        <time>2019-03-03T04:18:21Z</time>
      </trkpt>
      <trkpt lat="41.373834" lon="-5.769836">
        <ele>727.624</ele>
        <time>2019-03-03T04:18:23Z</time>
      </trkpt>
      <trkpt lat="41.373879" lon="-5.769835">
        <ele>727.626</ele>
        <time>2019-03-03T04:18:24Z</time>
      </trkpt>
      <trkpt lat="41.373923" lon="-5.769839">
        <ele>727.508</ele>
        <time>2019-03-03T04:18:25Z</time>
      </trkpt>
      <trkpt lat="41.373964" lon="-5.769849">
        <ele>727.511</ele>
        <time>2019-03-03T04:18:26Z</time>
      </trkpt>
      <trkpt lat="41.374003" lon="-5.769864">
        <ele>727.542</ele>
        <time>2019-03-03T04:18:27Z</time>
      </trkpt>
      <trkpt lat="41.374392" lon="-5.769903">
        <ele>727.563</ele>
        <time>2019-03-03T04:18:36Z</time>
      </trkpt>
      <trkpt lat="41.374486" lon="-5.769897">
        <ele>727.492</ele>
        <time>2019-03-03T04:18:38Z</time>
      </trkpt>
      <trkpt lat="41.374531" lon="-5.769891">
        <ele>727.466</ele>
        <time>2019-03-03T04:18:39Z</time>
      </trkpt>
      <trkpt lat="41.375181" lon="-5.769878">
        <ele>726.399</ele>
        <time>2019-03-03T04:18:56Z</time>
      </trkpt>
      <trkpt lat="41.375400" lon="-5.769882">
        <ele>725.838</ele>
        <time>2019-03-03T04:19:06Z</time>
      </trkpt>
      <trkpt lat="41.375455" lon="-5.769882">
        <ele>725.717</ele>
        <time>2019-03-03T04:19:14Z</time>
      </trkpt>
      <trkpt lat="41.375930" lon="-5.769898">
        <ele>725.158</ele>
        <time>2019-03-03T04:19:29Z</time>
      </trkpt>
      <trkpt lat="41.376542" lon="-5.769886">
        <ele>725.052</ele>
        <time>2019-03-03T04:19:46Z</time>
      </trkpt>
      <trkpt lat="41.377182" lon="-5.769886">
        <ele>724.817</ele>
        <time>2019-03-03T04:20:02Z</time>
      </trkpt>
      <trkpt lat="41.377402" lon="-5.769889">
        <ele>724.708</ele>
        <time>2019-03-03T04:20:07Z</time>
      </trkpt>
      <trkpt lat="41.377442" lon="-5.769893">
        <ele>724.778</ele>
        <time>2019-03-03T04:20:08Z</time>
      </trkpt>
      <trkpt lat="41.377876" lon="-5.770081">
        <ele>724.689</ele>
        <time>2019-03-03T04:20:21Z</time>
      </trkpt>
      <trkpt lat="41.378276" lon="-5.770281">
        <ele>724.840</ele>
        <time>2019-03-03T04:20:32Z</time>
      </trkpt>
      <trkpt lat="41.378393" lon="-5.770327">
        <ele>724.949</ele>
        <time>2019-03-03T04:20:35Z</time>
      </trkpt>
      <trkpt lat="41.378428" lon="-5.770354">
        <ele>724.993</ele>
        <time>2019-03-03T04:20:36Z</time>
      </trkpt>
      <trkpt lat="41.378466" lon="-5.770381">
        <ele>724.846</ele>
        <time>2019-03-03T04:20:37Z</time>
      </trkpt>
      <trkpt lat="41.378790" lon="-5.770540">
        <ele>724.845</ele>
        <time>2019-03-03T04:20:45Z</time>
      </trkpt>
      <trkpt lat="41.378829" lon="-5.770556">
        <ele>724.844</ele>
        <time>2019-03-03T04:20:46Z</time>
      </trkpt>
      <trkpt lat="41.378866" lon="-5.770579">
        <ele>724.872</ele>
        <time>2019-03-03T04:20:47Z</time>
      </trkpt>
      <trkpt lat="41.379260" lon="-5.770766">
        <ele>724.813</ele>
        <time>2019-03-03T04:20:58Z</time>
      </trkpt>
      <trkpt lat="41.379875" lon="-5.771069">
        <ele>724.414</ele>
        <time>2019-03-03T04:21:14Z</time>
      </trkpt>
      <trkpt lat="41.380401" lon="-5.771292">
        <ele>724.008</ele>
        <time>2019-03-03T04:21:27Z</time>
      </trkpt>
      <trkpt lat="41.380598" lon="-5.771360">
        <ele>723.980</ele>
        <time>2019-03-03T04:21:31Z</time>
      </trkpt>
      <trkpt lat="41.380684" lon="-5.771376">
        <ele>723.831</ele>
        <time>2019-03-03T04:21:33Z</time>
      </trkpt>
      <trkpt lat="41.380725" lon="-5.771397">
        <ele>723.812</ele>
        <time>2019-03-03T04:21:34Z</time>
      </trkpt>
      <trkpt lat="41.380767" lon="-5.771421">
        <ele>723.811</ele>
        <time>2019-03-03T04:21:35Z</time>
      </trkpt>
      <trkpt lat="41.380810" lon="-5.771444">
        <ele>723.875</ele>
        <time>2019-03-03T04:21:36Z</time>
      </trkpt>
      <trkpt lat="41.380853" lon="-5.771471">
        <ele>723.888</ele>
        <time>2019-03-03T04:21:37Z</time>
      </trkpt>
      <trkpt lat="41.381491" lon="-5.771709">
        <ele>723.487</ele>
        <time>2019-03-03T04:21:51Z</time>
      </trkpt>
      <trkpt lat="41.381575" lon="-5.771758">
        <ele>723.396</ele>
        <time>2019-03-03T04:21:53Z</time>
      </trkpt>
      <trkpt lat="41.381617" lon="-5.771771">
        <ele>723.334</ele>
        <time>2019-03-03T04:21:54Z</time>
      </trkpt>
      <trkpt lat="41.381660" lon="-5.771783">
        <ele>723.355</ele>
        <time>2019-03-03T04:21:55Z</time>
      </trkpt>
      <trkpt lat="41.382218" lon="-5.771967">
        <ele>723.110</ele>
        <time>2019-03-03T04:22:08Z</time>
      </trkpt>
      <trkpt lat="41.382259" lon="-5.771979">
        <ele>723.108</ele>
        <time>2019-03-03T04:22:09Z</time>
      </trkpt>
      <trkpt lat="41.382503" lon="-5.772069">
        <ele>723.286</ele>
        <time>2019-03-03T04:22:15Z</time>
      </trkpt>
      <trkpt lat="41.382543" lon="-5.772090">
        <ele>723.217</ele>
        <time>2019-03-03T04:22:16Z</time>
      </trkpt>
      <trkpt lat="41.382582" lon="-5.772110">
        <ele>723.298</ele>
        <time>2019-03-03T04:22:17Z</time>
      </trkpt>
      <trkpt lat="41.383140" lon="-5.772411">
        <ele>723.167</ele>
        <time>2019-03-03T04:22:32Z</time>
      </trkpt>
      <trkpt lat="41.383739" lon="-5.772768">
        <ele>722.781</ele>
        <time>2019-03-03T04:22:49Z</time>
      </trkpt>
      <trkpt lat="41.384245" lon="-5.773089">
        <ele>722.424</ele>
        <time>2019-03-03T04:23:04Z</time>
      </trkpt>
      <trkpt lat="41.384247" lon="-5.773091">
        <ele>722.453</ele>
        <time>2019-03-03T04:23:08Z</time>
      </trkpt>
      <trkpt lat="41.384281" lon="-5.773116">
        <ele>722.322</ele>
        <time>2019-03-03T04:23:30Z</time>
      </trkpt>
      <trkpt lat="41.384302" lon="-5.773126">
        <ele>722.346</ele>
        <time>2019-03-03T04:23:31Z</time>
      </trkpt>
      <trkpt lat="41.384326" lon="-5.773138">
        <ele>722.388</ele>
        <time>2019-03-03T04:23:32Z</time>
      </trkpt>
      <trkpt lat="41.384595" lon="-5.773329">
        <ele>722.316</ele>
        <time>2019-03-03T04:23:44Z</time>
      </trkpt>
      <trkpt lat="41.384609" lon="-5.773344">
        <ele>722.308</ele>
        <time>2019-03-03T04:23:48Z</time>
      </trkpt>
      <trkpt lat="41.384663" lon="-5.773364">
        <ele>722.427</ele>
        <time>2019-03-03T04:24:33Z</time>
      </trkpt>
      <trkpt lat="41.384953" lon="-5.773489">
        <ele>722.498</ele>
        <time>2019-03-03T04:24:46Z</time>
      </trkpt>
      <trkpt lat="41.385347" lon="-5.773725">
        <ele>721.949</ele>
        <time>2019-03-03T04:25:00Z</time>
      </trkpt>
      <trkpt lat="41.385875" lon="-5.774059">
        <ele>721.468</ele>
        <time>2019-03-03T04:25:17Z</time>
      </trkpt>
      <trkpt lat="41.386301" lon="-5.774297">
        <ele>721.012</ele>
        <time>2019-03-03T04:25:32Z</time>
      </trkpt>
      <trkpt lat="41.386967" lon="-5.774684">
        <ele>720.765</ele>
        <time>2019-03-03T04:25:50Z</time>
      </trkpt>
      <trkpt lat="41.387588" lon="-5.775050">
        <ele>720.374</ele>
        <time>2019-03-03T04:26:08Z</time>
      </trkpt>
      <trkpt lat="41.388120" lon="-5.775368">
        <ele>720.463</ele>
        <time>2019-03-03T04:26:26Z</time>
      </trkpt>
      <trkpt lat="41.388805" lon="-5.775741">
        <ele>720.131</ele>
        <time>2019-03-03T04:26:46Z</time>
      </trkpt>
      <trkpt lat="41.388837" lon="-5.775725">
        <ele>720.161</ele>
        <time>2019-03-03T04:26:47Z</time>
      </trkpt>
      <trkpt lat="41.388868" lon="-5.775703">
        <ele>720.107</ele>
        <time>2019-03-03T04:26:48Z</time>
      </trkpt>
      <trkpt lat="41.388896" lon="-5.775677">
        <ele>720.008</ele>
        <time>2019-03-03T04:26:49Z</time>
      </trkpt>
      <trkpt lat="41.388923" lon="-5.775651">
        <ele>720.076</ele>
        <time>2019-03-03T04:26:50Z</time>
      </trkpt>
      <trkpt lat="41.389158" lon="-5.775331">
        <ele>719.927</ele>
        <time>2019-03-03T04:27:02Z</time>
      </trkpt>
      <trkpt lat="41.389550" lon="-5.774820">
        <ele>719.718</ele>
        <time>2019-03-03T04:27:18Z</time>
      </trkpt>
      <trkpt lat="41.390003" lon="-5.774235">
        <ele>718.527</ele>
        <time>2019-03-03T04:27:35Z</time>
      </trkpt>
      <trkpt lat="41.390440" lon="-5.773603">
        <ele>717.761</ele>
        <time>2019-03-03T04:27:50Z</time>
      </trkpt>
      <trkpt lat="41.390456" lon="-5.773551">
        <ele>717.754</ele>
        <time>2019-03-03T04:27:51Z</time>
      </trkpt>
      <trkpt lat="41.390673" lon="-5.772481">
        <ele>717.443</ele>
        <time>2019-03-03T04:28:09Z</time>
      </trkpt>
      <trkpt lat="41.390846" lon="-5.771511">
        <ele>718.092</ele>
        <time>2019-03-03T04:28:25Z</time>
      </trkpt>
      <trkpt lat="41.390907" lon="-5.771271">
        <ele>718.272</ele>
        <time>2019-03-03T04:28:31Z</time>
      </trkpt>
      <trkpt lat="41.390915" lon="-5.771264">
        <ele>718.313</ele>
        <time>2019-03-03T04:28:35Z</time>
      </trkpt>
      <trkpt lat="41.390934" lon="-5.771152">
        <ele>718.414</ele>
        <time>2019-03-03T04:31:58Z</time>
      </trkpt>
      <trkpt lat="41.390938" lon="-5.771128">
        <ele>718.408</ele>
        <time>2019-03-03T04:31:59Z</time>
      </trkpt>
      <trkpt lat="41.390942" lon="-5.771102">
        <ele>718.480</ele>
        <time>2019-03-03T04:32:00Z</time>
      </trkpt>
      <trkpt lat="41.391026" lon="-5.770645">
        <ele>718.881</ele>
        <time>2019-03-03T04:32:15Z</time>
      </trkpt>
      <trkpt lat="41.391121" lon="-5.770090">
        <ele>719.172</ele>
        <time>2019-03-03T04:32:30Z</time>
      </trkpt>
      <trkpt lat="41.391281" lon="-5.769322">
        <ele>721.021</ele>
        <time>2019-03-03T04:32:51Z</time>
      </trkpt>
      <trkpt lat="41.391398" lon="-5.768802">
        <ele>722.665</ele>
        <time>2019-03-03T04:33:08Z</time>
      </trkpt>
      <trkpt lat="41.391512" lon="-5.768261">
        <ele>723.518</ele>
        <time>2019-03-03T04:33:27Z</time>
      </trkpt>
      <trkpt lat="41.391539" lon="-5.768128">
        <ele>723.397</ele>
        <time>2019-03-03T04:33:33Z</time>
      </trkpt>
      <trkpt lat="41.391553" lon="-5.768118">
        <ele>723.276</ele>
        <time>2019-03-03T04:33:34Z</time>
      </trkpt>
      <trkpt lat="41.391572" lon="-5.768116">
        <ele>723.229</ele>
        <time>2019-03-03T04:33:35Z</time>
      </trkpt>
      <trkpt lat="41.392006" lon="-5.768159">
        <ele>721.900</ele>
        <time>2019-03-03T04:33:48Z</time>
      </trkpt>
      <trkpt lat="41.392247" lon="-5.768210">
        <ele>721.620</ele>
        <time>2019-03-03T04:33:54Z</time>
      </trkpt>
      <trkpt lat="41.392990" lon="-5.768367">
        <ele>721.208</ele>
        <time>2019-03-03T04:34:10Z</time>
      </trkpt>
      <trkpt lat="41.393029" lon="-5.768383">
        <ele>721.235</ele>
        <time>2019-03-03T04:34:11Z</time>
      </trkpt>
      <trkpt lat="41.393067" lon="-5.768393">
        <ele>721.236</ele>
        <time>2019-03-03T04:34:12Z</time>
      </trkpt>
      <trkpt lat="41.393951" lon="-5.768584">
        <ele>720.467</ele>
        <time>2019-03-03T04:34:32Z</time>
      </trkpt>
      <trkpt lat="41.393997" lon="-5.768595">
        <ele>720.426</ele>
        <time>2019-03-03T04:34:33Z</time>
      </trkpt>
      <trkpt lat="41.394041" lon="-5.768608">
        <ele>720.430</ele>
        <time>2019-03-03T04:34:34Z</time>
      </trkpt>
      <trkpt lat="41.394621" lon="-5.768819">
        <ele>720.013</ele>
        <time>2019-03-03T04:34:49Z</time>
      </trkpt>
      <trkpt lat="41.395279" lon="-5.769126">
        <ele>719.632</ele>
        <time>2019-03-03T04:35:05Z</time>
      </trkpt>
      <trkpt lat="41.396180" lon="-5.769570">
        <ele>719.971</ele>
        <time>2019-03-03T04:35:26Z</time>
      </trkpt>
      <trkpt lat="41.397048" lon="-5.769983">
        <ele>720.894</ele>
        <time>2019-03-03T04:35:48Z</time>
      </trkpt>
      <trkpt lat="41.397781" lon="-5.770330">
        <ele>722.757</ele>
        <time>2019-03-03T04:36:11Z</time>
      </trkpt>
      <trkpt lat="41.398177" lon="-5.770527">
        <ele>723.522</ele>
        <time>2019-03-03T04:36:27Z</time>
      </trkpt>
      <trkpt lat="41.398698" lon="-5.770772">
        <ele>723.308</ele>
        <time>2019-03-03T04:36:44Z</time>
      </trkpt>
      <trkpt lat="41.399239" lon="-5.771023">
        <ele>721.772</ele>
        <time>2019-03-03T04:36:58Z</time>
      </trkpt>
      <trkpt lat="41.399279" lon="-5.771043">
        <ele>721.673</ele>
        <time>2019-03-03T04:36:59Z</time>
      </trkpt>
      <trkpt lat="41.399399" lon="-5.771103">
        <ele>721.194</ele>
        <time>2019-03-03T04:37:02Z</time>
      </trkpt>
      <trkpt lat="41.400054" lon="-5.771428">
        <ele>719.213</ele>
        <time>2019-03-03T04:37:16Z</time>
      </trkpt>
      <trkpt lat="41.400758" lon="-5.771753">
        <ele>718.287</ele>
        <time>2019-03-03T04:37:32Z</time>
      </trkpt>
      <trkpt lat="41.400816" lon="-5.771761">
        <ele>718.220</ele>
        <time>2019-03-03T04:37:35Z</time>
      </trkpt>
      <trkpt lat="41.400832" lon="-5.771748">
        <ele>718.249</ele>
        <time>2019-03-03T04:37:36Z</time>
      </trkpt>
      <trkpt lat="41.400885" lon="-5.771656">
        <ele>718.278</ele>
        <time>2019-03-03T04:37:45Z</time>
      </trkpt>
      <trkpt lat="41.400862" lon="-5.771728">
        <ele>718.217</ele>
        <time>2019-03-03T04:37:57Z</time>
      </trkpt>
      <trkpt lat="41.400864" lon="-5.771748">
        <ele>718.287</ele>
        <time>2019-03-03T04:37:58Z</time>
      </trkpt>
      <trkpt lat="41.400883" lon="-5.771780">
        <ele>718.215</ele>
        <time>2019-03-03T04:38:01Z</time>
      </trkpt>
      <trkpt lat="41.400900" lon="-5.771797">
        <ele>718.208</ele>
        <time>2019-03-03T04:38:02Z</time>
      </trkpt>
      <trkpt lat="41.400923" lon="-5.771823">
        <ele>718.024</ele>
        <time>2019-03-03T04:38:03Z</time>
      </trkpt>
      <trkpt lat="41.400947" lon="-5.771849">
        <ele>718.015</ele>
        <time>2019-03-03T04:38:04Z</time>
      </trkpt>
      <trkpt lat="41.400974" lon="-5.771863">
        <ele>717.986</ele>
        <time>2019-03-03T04:38:05Z</time>
      </trkpt>
      <trkpt lat="41.401002" lon="-5.771860">
        <ele>717.965</ele>
        <time>2019-03-03T04:38:06Z</time>
      </trkpt>
      <trkpt lat="41.401029" lon="-5.771848">
        <ele>717.949</ele>
        <time>2019-03-03T04:38:07Z</time>
      </trkpt>
      <trkpt lat="41.401054" lon="-5.771832">
        <ele>717.952</ele>
        <time>2019-03-03T04:38:08Z</time>
      </trkpt>
      <trkpt lat="41.401453" lon="-5.771604">
        <ele>719.741</ele>
        <time>2019-03-03T04:38:25Z</time>
      </trkpt>
      <trkpt lat="41.401769" lon="-5.771404">
        <ele>720.920</ele>
        <time>2019-03-03T04:38:42Z</time>
      </trkpt>
      <trkpt lat="41.402162" lon="-5.771214">
        <ele>722.188</ele>
        <time>2019-03-03T04:38:59Z</time>
      </trkpt>
      <trkpt lat="41.402569" lon="-5.771019">
        <ele>723.324</ele>
        <time>2019-03-03T04:39:17Z</time>
      </trkpt>
      <trkpt lat="41.402876" lon="-5.770869">
        <ele>724.726</ele>
        <time>2019-03-03T04:39:33Z</time>
      </trkpt>
      <trkpt lat="41.403215" lon="-5.770751">
        <ele>726.308</ele>
        <time>2019-03-03T04:39:50Z</time>
      </trkpt>
      <trkpt lat="41.403576" lon="-5.770647">
        <ele>728.391</ele>
        <time>2019-03-03T04:40:08Z</time>
      </trkpt>
      <trkpt lat="41.403898" lon="-5.770502">
        <ele>730.412</ele>
        <time>2019-03-03T04:40:28Z</time>
      </trkpt>
      <trkpt lat="41.404159" lon="-5.770448">
        <ele>732.043</ele>
        <time>2019-03-03T04:40:45Z</time>
      </trkpt>
      <trkpt lat="41.404439" lon="-5.770526">
        <ele>734.052</ele>
        <time>2019-03-03T04:41:01Z</time>
      </trkpt>
      <trkpt lat="41.404645" lon="-5.770466">
        <ele>735.846</ele>
        <time>2019-03-03T04:41:17Z</time>
      </trkpt>
      <trkpt lat="41.404658" lon="-5.770468">
        <ele>735.919</ele>
        <time>2019-03-03T04:41:18Z</time>
      </trkpt>
      <trkpt lat="41.404669" lon="-5.770471">
        <ele>736.068</ele>
        <time>2019-03-03T04:41:19Z</time>
      </trkpt>
      <trkpt lat="41.404680" lon="-5.770476">
        <ele>736.097</ele>
        <time>2019-03-03T04:41:20Z</time>
      </trkpt>
      <trkpt lat="41.404693" lon="-5.770483">
        <ele>736.131</ele>
        <time>2019-03-03T04:41:21Z</time>
      </trkpt>
      <trkpt lat="41.404940" lon="-5.770580">
        <ele>738.261</ele>
        <time>2019-03-03T04:41:37Z</time>
      </trkpt>
      <trkpt lat="41.405170" lon="-5.770747">
        <ele>739.907</ele>
        <time>2019-03-03T04:41:54Z</time>
      </trkpt>
      <trkpt lat="41.405262" lon="-5.770824">
        <ele>740.408</ele>
        <time>2019-03-03T04:42:05Z</time>
      </trkpt>
      <trkpt lat="41.405298" lon="-5.770879">
        <ele>740.566</ele>
        <time>2019-03-03T04:43:02Z</time>
      </trkpt>
      <trkpt lat="41.405311" lon="-5.770895">
        <ele>740.687</ele>
        <time>2019-03-03T04:43:03Z</time>
      </trkpt>
      <trkpt lat="41.405319" lon="-5.770915">
        <ele>740.688</ele>
        <time>2019-03-03T04:43:08Z</time>
      </trkpt>
      <trkpt lat="41.405378" lon="-5.770965">
        <ele>740.887</ele>
        <time>2019-03-03T04:43:26Z</time>
      </trkpt>
      <trkpt lat="41.405398" lon="-5.770982">
        <ele>740.841</ele>
        <time>2019-03-03T04:43:27Z</time>
      </trkpt>
      <trkpt lat="41.405630" lon="-5.771169">
        <ele>741.344</ele>
        <time>2019-03-03T04:43:41Z</time>
      </trkpt>
      <trkpt lat="41.405710" lon="-5.771227">
        <ele>741.443</ele>
        <time>2019-03-03T04:43:49Z</time>
      </trkpt>
      <trkpt lat="41.405749" lon="-5.771264">
        <ele>741.412</ele>
        <time>2019-03-03T04:44:07Z</time>
      </trkpt>
      <trkpt lat="41.405940" lon="-5.771337">
        <ele>741.746</ele>
        <time>2019-03-03T04:44:19Z</time>
      </trkpt>
      <trkpt lat="41.406335" lon="-5.771516">
        <ele>742.488</ele>
        <time>2019-03-03T04:44:36Z</time>
      </trkpt>
      <trkpt lat="41.406865" lon="-5.771615">
        <ele>743.316</ele>
        <time>2019-03-03T04:44:54Z</time>
      </trkpt>
      <trkpt lat="41.407396" lon="-5.771653">
        <ele>744.408</ele>
        <time>2019-03-03T04:45:13Z</time>
      </trkpt>
      <trkpt lat="41.407606" lon="-5.771676">
        <ele>745.097</ele>
        <time>2019-03-03T04:45:26Z</time>
      </trkpt>
      <trkpt lat="41.407615" lon="-5.771672">
        <ele>745.058</ele>
        <time>2019-03-03T04:45:27Z</time>
      </trkpt>
      <trkpt lat="41.407627" lon="-5.771668">
        <ele>745.079</ele>
        <time>2019-03-03T04:45:28Z</time>
      </trkpt>
      <trkpt lat="41.407640" lon="-5.771667">
        <ele>745.068</ele>
        <time>2019-03-03T04:45:29Z</time>
      </trkpt>
      <trkpt lat="41.407654" lon="-5.771668">
        <ele>745.142</ele>
        <time>2019-03-03T04:45:30Z</time>
      </trkpt>
      <trkpt lat="41.407667" lon="-5.771669">
        <ele>745.125</ele>
        <time>2019-03-03T04:45:31Z</time>
      </trkpt>
      <trkpt lat="41.407891" lon="-5.771639">
        <ele>745.654</ele>
        <time>2019-03-03T04:45:50Z</time>
      </trkpt>
      <trkpt lat="41.408179" lon="-5.771638">
        <ele>746.463</ele>
        <time>2019-03-03T04:46:02Z</time>
      </trkpt>
      <trkpt lat="41.408685" lon="-5.771655">
        <ele>747.526</ele>
        <time>2019-03-03T04:46:21Z</time>
      </trkpt>
      <trkpt lat="41.409273" lon="-5.771761">
        <ele>747.247</ele>
        <time>2019-03-03T04:46:40Z</time>
      </trkpt>
      <trkpt lat="41.410161" lon="-5.771768">
        <ele>746.111</ele>
        <time>2019-03-03T04:47:00Z</time>
      </trkpt>
      <trkpt lat="41.411067" lon="-5.771696">
        <ele>746.608</ele>
        <time>2019-03-03T04:47:19Z</time>
      </trkpt>
      <trkpt lat="41.411362" lon="-5.771686">
        <ele>747.945</ele>
        <time>2019-03-03T04:47:30Z</time>
      </trkpt>
      <trkpt lat="41.411370" lon="-5.771712">
        <ele>747.996</ele>
        <time>2019-03-03T04:47:31Z</time>
      </trkpt>
      <trkpt lat="41.411375" lon="-5.771738">
        <ele>747.827</ele>
        <time>2019-03-03T04:47:32Z</time>
      </trkpt>
      <trkpt lat="41.411377" lon="-5.771765">
        <ele>747.826</ele>
        <time>2019-03-03T04:47:33Z</time>
      </trkpt>
      <trkpt lat="41.411378" lon="-5.771791">
        <ele>747.880</ele>
        <time>2019-03-03T04:47:34Z</time>
      </trkpt>
      <trkpt lat="41.411381" lon="-5.771815">
        <ele>747.793</ele>
        <time>2019-03-03T04:47:35Z</time>
      </trkpt>
      <trkpt lat="41.411386" lon="-5.771838">
        <ele>747.762</ele>
        <time>2019-03-03T04:47:36Z</time>
      </trkpt>
      <trkpt lat="41.411391" lon="-5.771863">
        <ele>747.631</ele>
        <time>2019-03-03T04:47:37Z</time>
      </trkpt>
      <trkpt lat="41.411397" lon="-5.771888">
        <ele>747.621</ele>
        <time>2019-03-03T04:47:38Z</time>
      </trkpt>
      <trkpt lat="41.411483" lon="-5.772235">
        <ele>747.241</ele>
        <time>2019-03-03T04:47:51Z</time>
      </trkpt>
      <trkpt lat="41.411484" lon="-5.772234">
        <ele>747.205</ele>
        <time>2019-03-03T04:47:54Z</time>
      </trkpt>
      <trkpt lat="41.411511" lon="-5.772341">
        <ele>747.308</ele>
        <time>2019-03-03T04:48:40Z</time>
      </trkpt>
      <trkpt lat="41.411573" lon="-5.772561">
        <ele>747.435</ele>
        <time>2019-03-03T04:48:46Z</time>
      </trkpt>
      <trkpt lat="41.411589" lon="-5.772586">
        <ele>747.446</ele>
        <time>2019-03-03T04:48:47Z</time>
      </trkpt>
      <trkpt lat="41.411611" lon="-5.772607">
        <ele>747.497</ele>
        <time>2019-03-03T04:48:48Z</time>
      </trkpt>
      <trkpt lat="41.411637" lon="-5.772621">
        <ele>747.666</ele>
        <time>2019-03-03T04:48:49Z</time>
      </trkpt>
      <trkpt lat="41.411662" lon="-5.772624">
        <ele>747.770</ele>
        <time>2019-03-03T04:48:50Z</time>
      </trkpt>
      <trkpt lat="41.411685" lon="-5.772617">
        <ele>747.863</ele>
        <time>2019-03-03T04:48:51Z</time>
      </trkpt>
      <trkpt lat="41.411707" lon="-5.772604">
        <ele>747.922</ele>
        <time>2019-03-03T04:48:52Z</time>
      </trkpt>
      <trkpt lat="41.411727" lon="-5.772589">
        <ele>747.991</ele>
        <time>2019-03-03T04:48:53Z</time>
      </trkpt>
      <trkpt lat="41.412063" lon="-5.772343">
        <ele>749.178</ele>
        <time>2019-03-03T04:49:09Z</time>
      </trkpt>
      <trkpt lat="41.412426" lon="-5.772118">
        <ele>749.733</ele>
        <time>2019-03-03T04:49:24Z</time>
      </trkpt>
      <trkpt lat="41.412952" lon="-5.771817">
        <ele>748.826</ele>
        <time>2019-03-03T04:49:41Z</time>
      </trkpt>
      <trkpt lat="41.413604" lon="-5.771458">
        <ele>746.708</ele>
        <time>2019-03-03T04:49:56Z</time>
      </trkpt>
      <trkpt lat="41.413676" lon="-5.771404">
        <ele>746.690</ele>
        <time>2019-03-03T04:50:04Z</time>
      </trkpt>
      <trkpt lat="41.413761" lon="-5.771365">
        <ele>746.561</ele>
        <time>2019-03-03T04:52:22Z</time>
      </trkpt>
      <trkpt lat="41.413793" lon="-5.771345">
        <ele>746.562</ele>
        <time>2019-03-03T04:52:23Z</time>
      </trkpt>
      <trkpt lat="41.414420" lon="-5.771005">
        <ele>745.551</ele>
        <time>2019-03-03T04:52:36Z</time>
      </trkpt>
      <trkpt lat="41.415635" lon="-5.770529">
        <ele>741.965</ele>
        <time>2019-03-03T04:52:55Z</time>
      </trkpt>
      <trkpt lat="41.416992" lon="-5.770128">
        <ele>739.858</ele>
        <time>2019-03-03T04:53:17Z</time>
      </trkpt>
      <trkpt lat="41.418179" lon="-5.769826">
        <ele>736.257</ele>
        <time>2019-03-03T04:53:35Z</time>
      </trkpt>
      <trkpt lat="41.419332" lon="-5.769543">
        <ele>732.986</ele>
        <time>2019-03-03T04:53:53Z</time>
      </trkpt>
      <trkpt lat="41.420476" lon="-5.769370">
        <ele>730.547</ele>
        <time>2019-03-03T04:54:13Z</time>
      </trkpt>
      <trkpt lat="41.420785" lon="-5.769316">
        <ele>730.029</ele>
        <time>2019-03-03T04:54:19Z</time>
      </trkpt>
      <trkpt lat="41.420834" lon="-5.769304">
        <ele>730.021</ele>
        <time>2019-03-03T04:54:20Z</time>
      </trkpt>
      <trkpt lat="41.420883" lon="-5.769299">
        <ele>729.808</ele>
        <time>2019-03-03T04:54:21Z</time>
      </trkpt>
      <trkpt lat="41.420931" lon="-5.769298">
        <ele>729.777</ele>
        <time>2019-03-03T04:54:22Z</time>
      </trkpt>
      <trkpt lat="41.420978" lon="-5.769300">
        <ele>729.528</ele>
        <time>2019-03-03T04:54:23Z</time>
      </trkpt>
      <trkpt lat="41.421400" lon="-5.769366">
        <ele>727.879</ele>
        <time>2019-03-03T04:54:34Z</time>
      </trkpt>
      <trkpt lat="41.421443" lon="-5.769367">
        <ele>727.698</ele>
        <time>2019-03-03T04:54:35Z</time>
      </trkpt>
      <trkpt lat="41.422090" lon="-5.769264">
        <ele>724.942</ele>
        <time>2019-03-03T04:54:50Z</time>
      </trkpt>
      <trkpt lat="41.422272" lon="-5.769278">
        <ele>723.855</ele>
        <time>2019-03-03T04:54:59Z</time>
      </trkpt>
      <trkpt lat="41.422271" lon="-5.769277">
        <ele>723.844</ele>
        <time>2019-03-03T04:55:00Z</time>
      </trkpt>
      <trkpt lat="41.422347" lon="-5.769275">
        <ele>723.313</ele>
        <time>2019-03-03T04:55:22Z</time>
      </trkpt>
      <trkpt lat="41.422917" lon="-5.769253">
        <ele>720.585</ele>
        <time>2019-03-03T04:55:34Z</time>
      </trkpt>
      <trkpt lat="41.423031" lon="-5.769221">
        <ele>720.189</ele>
        <time>2019-03-03T04:55:36Z</time>
      </trkpt>
      <trkpt lat="41.423676" lon="-5.769101">
        <ele>717.217</ele>
        <time>2019-03-03T04:55:49Z</time>
      </trkpt>
      <trkpt lat="41.424018" lon="-5.769107">
        <ele>716.308</ele>
        <time>2019-03-03T04:55:59Z</time>
      </trkpt>
      <trkpt lat="41.424237" lon="-5.769073">
        <ele>715.871</ele>
        <time>2019-03-03T04:56:04Z</time>
      </trkpt>
      <trkpt lat="41.425031" lon="-5.768989">
        <ele>713.872</ele>
        <time>2019-03-03T04:56:21Z</time>
      </trkpt>
      <trkpt lat="41.425401" lon="-5.768993">
        <ele>712.573</ele>
        <time>2019-03-03T04:56:28Z</time>
      </trkpt>
      <trkpt lat="41.425686" lon="-5.769036">
        <ele>711.392</ele>
        <time>2019-03-03T04:56:34Z</time>
      </trkpt>
      <trkpt lat="41.425734" lon="-5.769044">
        <ele>711.116</ele>
        <time>2019-03-03T04:56:35Z</time>
      </trkpt>
      <trkpt lat="41.425783" lon="-5.769048">
        <ele>710.829</ele>
        <time>2019-03-03T04:56:36Z</time>
      </trkpt>
      <trkpt lat="41.426065" lon="-5.769077">
        <ele>709.528</ele>
        <time>2019-03-03T04:56:42Z</time>
      </trkpt>
      <trkpt lat="41.426113" lon="-5.769093">
        <ele>709.397</ele>
        <time>2019-03-03T04:56:43Z</time>
      </trkpt>
      <trkpt lat="41.426211" lon="-5.769125">
        <ele>708.846</ele>
        <time>2019-03-03T04:56:45Z</time>
      </trkpt>
      <trkpt lat="41.426448" lon="-5.769169">
        <ele>707.788</ele>
        <time>2019-03-03T04:56:49Z</time>
      </trkpt>
      <trkpt lat="41.426511" lon="-5.769191">
        <ele>707.516</ele>
        <time>2019-03-03T04:56:50Z</time>
      </trkpt>
      <trkpt lat="41.426571" lon="-5.769212">
        <ele>707.308</ele>
        <time>2019-03-03T04:56:51Z</time>
      </trkpt>
      <trkpt lat="41.426725" lon="-5.769249">
        <ele>706.887</ele>
        <time>2019-03-03T04:56:54Z</time>
      </trkpt>
      <trkpt lat="41.427058" lon="-5.769306">
        <ele>706.098</ele>
        <time>2019-03-03T04:57:05Z</time>
      </trkpt>
      <trkpt lat="41.427562" lon="-5.769362">
        <ele>705.129</ele>
        <time>2019-03-03T04:57:22Z</time>
      </trkpt>
      <trkpt lat="41.428137" lon="-5.769366">
        <ele>704.188</ele>
        <time>2019-03-03T04:57:40Z</time>
      </trkpt>
      <trkpt lat="41.428549" lon="-5.769177">
        <ele>703.272</ele>
        <time>2019-03-03T04:57:53Z</time>
      </trkpt>
      <trkpt lat="41.429113" lon="-5.768975">
        <ele>703.015</ele>
        <time>2019-03-03T04:58:08Z</time>
      </trkpt>
      <trkpt lat="41.429804" lon="-5.768810">
        <ele>701.594</ele>
        <time>2019-03-03T04:58:25Z</time>
      </trkpt>
      <trkpt lat="41.429893" lon="-5.768795">
        <ele>701.243</ele>
        <time>2019-03-03T04:58:33Z</time>
      </trkpt>
      <trkpt lat="41.429951" lon="-5.768777">
        <ele>701.032</ele>
        <time>2019-03-03T04:58:58Z</time>
      </trkpt>
      <trkpt lat="41.430372" lon="-5.768655">
        <ele>699.292</ele>
        <time>2019-03-03T04:59:12Z</time>
      </trkpt>
      <trkpt lat="41.430779" lon="-5.768601">
        <ele>698.411</ele>
        <time>2019-03-03T04:59:24Z</time>
      </trkpt>
      <trkpt lat="41.431343" lon="-5.768361">
        <ele>697.108</ele>
        <time>2019-03-03T04:59:36Z</time>
      </trkpt>
      <trkpt lat="41.431442" lon="-5.768342">
        <ele>696.726</ele>
        <time>2019-03-03T04:59:38Z</time>
      </trkpt>
      <trkpt lat="41.431753" lon="-5.768232">
        <ele>695.187</ele>
        <time>2019-03-03T04:59:45Z</time>
      </trkpt>
      <trkpt lat="41.432195" lon="-5.768054">
        <ele>694.718</ele>
        <time>2019-03-03T04:59:58Z</time>
      </trkpt>
      <trkpt lat="41.432763" lon="-5.767924">
        <ele>693.177</ele>
        <time>2019-03-03T05:00:13Z</time>
      </trkpt>
      <trkpt lat="41.433249" lon="-5.767803">
        <ele>692.121</ele>
        <time>2019-03-03T05:00:27Z</time>
      </trkpt>
      <trkpt lat="41.433701" lon="-5.767760">
        <ele>691.774</ele>
        <time>2019-03-03T05:00:40Z</time>
      </trkpt>
      <trkpt lat="41.434080" lon="-5.767665">
        <ele>690.843</ele>
        <time>2019-03-03T05:00:51Z</time>
      </trkpt>
      <trkpt lat="41.434592" lon="-5.767605">
        <ele>689.262</ele>
        <time>2019-03-03T05:01:05Z</time>
      </trkpt>
      <trkpt lat="41.435009" lon="-5.767578">
        <ele>688.172</ele>
        <time>2019-03-03T05:01:17Z</time>
      </trkpt>
      <trkpt lat="41.435052" lon="-5.767582">
        <ele>688.013</ele>
        <time>2019-03-03T05:01:18Z</time>
      </trkpt>
      <trkpt lat="41.435094" lon="-5.767584">
        <ele>688.014</ele>
        <time>2019-03-03T05:01:19Z</time>
      </trkpt>
      <trkpt lat="41.435135" lon="-5.767578">
        <ele>688.008</ele>
        <time>2019-03-03T05:01:20Z</time>
      </trkpt>
      <trkpt lat="41.435170" lon="-5.767567">
        <ele>688.070</ele>
        <time>2019-03-03T05:01:21Z</time>
      </trkpt>
      <trkpt lat="41.435208" lon="-5.767555">
        <ele>687.971</ele>
        <time>2019-03-03T05:01:22Z</time>
      </trkpt>
      <trkpt lat="41.435248" lon="-5.767548">
        <ele>687.992</ele>
        <time>2019-03-03T05:01:23Z</time>
      </trkpt>
      <trkpt lat="41.435286" lon="-5.767546">
        <ele>687.911</ele>
        <time>2019-03-03T05:01:24Z</time>
      </trkpt>
      <trkpt lat="41.435325" lon="-5.767544">
        <ele>687.995</ele>
        <time>2019-03-03T05:01:25Z</time>
      </trkpt>
      <trkpt lat="41.435363" lon="-5.767539">
        <ele>687.868</ele>
        <time>2019-03-03T05:01:26Z</time>
      </trkpt>
      <trkpt lat="41.435742" lon="-5.767478">
        <ele>686.377</ele>
        <time>2019-03-03T05:01:36Z</time>
      </trkpt>
      <trkpt lat="41.435784" lon="-5.767478">
        <ele>686.026</ele>
        <time>2019-03-03T05:01:37Z</time>
      </trkpt>
      <trkpt lat="41.435823" lon="-5.767484">
        <ele>686.053</ele>
        <time>2019-03-03T05:01:38Z</time>
      </trkpt>
      <trkpt lat="41.435860" lon="-5.767495">
        <ele>686.004</ele>
        <time>2019-03-03T05:01:39Z</time>
      </trkpt>
      <trkpt lat="41.435898" lon="-5.767508">
        <ele>686.014</ele>
        <time>2019-03-03T05:01:40Z</time>
      </trkpt>
      <trkpt lat="41.436049" lon="-5.767568">
        <ele>686.008</ele>
        <time>2019-03-03T05:01:44Z</time>
      </trkpt>
      <trkpt lat="41.436091" lon="-5.767574">
        <ele>686.058</ele>
        <time>2019-03-03T05:01:45Z</time>
      </trkpt>
      <trkpt lat="41.436532" lon="-5.767571">
        <ele>685.829</ele>
        <time>2019-03-03T05:01:55Z</time>
      </trkpt>
      <trkpt lat="41.436709" lon="-5.767590">
        <ele>685.510</ele>
        <time>2019-03-03T05:01:59Z</time>
      </trkpt>
      <trkpt lat="41.436904" lon="-5.767652">
        <ele>685.179</ele>
        <time>2019-03-03T05:02:04Z</time>
      </trkpt>
      <trkpt lat="41.436944" lon="-5.767657">
        <ele>685.053</ele>
        <time>2019-03-03T05:02:05Z</time>
      </trkpt>
      <trkpt lat="41.437684" lon="-5.767617">
        <ele>684.196</ele>
        <time>2019-03-03T05:02:22Z</time>
      </trkpt>
      <trkpt lat="41.438258" lon="-5.767550">
        <ele>683.895</ele>
        <time>2019-03-03T05:02:35Z</time>
      </trkpt>
      <trkpt lat="41.438346" lon="-5.767545">
        <ele>683.564</ele>
        <time>2019-03-03T05:02:37Z</time>
      </trkpt>
      <trkpt lat="41.438392" lon="-5.767533">
        <ele>683.453</ele>
        <time>2019-03-03T05:02:38Z</time>
      </trkpt>
      <trkpt lat="41.438437" lon="-5.767519">
        <ele>683.304</ele>
        <time>2019-03-03T05:02:39Z</time>
      </trkpt>
      <trkpt lat="41.438481" lon="-5.767511">
        <ele>683.214</ele>
        <time>2019-03-03T05:02:40Z</time>
      </trkpt>
      <trkpt lat="41.438525" lon="-5.767506">
        <ele>683.208</ele>
        <time>2019-03-03T05:02:41Z</time>
      </trkpt>
      <trkpt lat="41.439063" lon="-5.767466">
        <ele>682.348</ele>
        <time>2019-03-03T05:02:55Z</time>
      </trkpt>
      <trkpt lat="41.439633" lon="-5.767406">
        <ele>680.889</ele>
        <time>2019-03-03T05:03:08Z</time>
      </trkpt>
      <trkpt lat="41.440085" lon="-5.767314">
        <ele>679.960</ele>
        <time>2019-03-03T05:03:21Z</time>
      </trkpt>
      <trkpt lat="41.440503" lon="-5.767182">
        <ele>678.669</ele>
        <time>2019-03-03T05:03:33Z</time>
      </trkpt>
      <trkpt lat="41.440934" lon="-5.767113">
        <ele>678.243</ele>
        <time>2019-03-03T05:03:46Z</time>
      </trkpt>
      <trkpt lat="41.441020" lon="-5.767115">
        <ele>678.256</ele>
        <time>2019-03-03T05:03:48Z</time>
      </trkpt>
      <trkpt lat="41.441064" lon="-5.767121">
        <ele>678.125</ele>
        <time>2019-03-03T05:03:49Z</time>
      </trkpt>
      <trkpt lat="41.441108" lon="-5.767120">
        <ele>678.174</ele>
        <time>2019-03-03T05:03:50Z</time>
      </trkpt>
      <trkpt lat="41.441197" lon="-5.767119">
        <ele>677.936</ele>
        <time>2019-03-03T05:03:52Z</time>
      </trkpt>
      <trkpt lat="41.441794" lon="-5.767167">
        <ele>676.317</ele>
        <time>2019-03-03T05:04:06Z</time>
      </trkpt>
      <trkpt lat="41.442256" lon="-5.767162">
        <ele>676.218</ele>
        <time>2019-03-03T05:04:18Z</time>
      </trkpt>
      <trkpt lat="41.442281" lon="-5.767141">
        <ele>676.208</ele>
        <time>2019-03-03T05:04:19Z</time>
      </trkpt>
      <trkpt lat="41.442299" lon="-5.767124">
        <ele>676.236</ele>
        <time>2019-03-03T05:04:20Z</time>
      </trkpt>
      <trkpt lat="41.442313" lon="-5.767115">
        <ele>676.287</ele>
        <time>2019-03-03T05:04:21Z</time>
      </trkpt>
      <trkpt lat="41.442324" lon="-5.767108">
        <ele>676.288</ele>
        <time>2019-03-03T05:04:22Z</time>
      </trkpt>
      <trkpt lat="41.442328" lon="-5.767109">
        <ele>676.237</ele>
        <time>2019-03-03T05:04:26Z</time>
      </trkpt>
      <trkpt lat="41.442349" lon="-5.767084">
        <ele>676.251</ele>
        <time>2019-03-03T05:05:01Z</time>
      </trkpt>
      <trkpt lat="41.442372" lon="-5.767070">
        <ele>676.234</ele>
        <time>2019-03-03T05:05:03Z</time>
      </trkpt>
      <trkpt lat="41.442382" lon="-5.767074">
        <ele>676.213</ele>
        <time>2019-03-03T05:05:04Z</time>
      </trkpt>
      <trkpt lat="41.442394" lon="-5.767083">
        <ele>676.292</ele>
        <time>2019-03-03T05:05:05Z</time>
      </trkpt>
      <trkpt lat="41.442407" lon="-5.767096">
        <ele>676.283</ele>
        <time>2019-03-03T05:05:06Z</time>
      </trkpt>
      <trkpt lat="41.442419" lon="-5.767116">
        <ele>676.325</ele>
        <time>2019-03-03T05:05:07Z</time>
      </trkpt>
      <trkpt lat="41.442428" lon="-5.767142">
        <ele>676.317</ele>
        <time>2019-03-03T05:05:08Z</time>
      </trkpt>
      <trkpt lat="41.442435" lon="-5.767171">
        <ele>676.308</ele>
        <time>2019-03-03T05:05:09Z</time>
      </trkpt>
      <trkpt lat="41.442445" lon="-5.767202">
        <ele>676.431</ele>
        <time>2019-03-03T05:05:10Z</time>
      </trkpt>
      <trkpt lat="41.442458" lon="-5.767234">
        <ele>676.482</ele>
        <time>2019-03-03T05:05:11Z</time>
      </trkpt>
      <trkpt lat="41.442474" lon="-5.767268">
        <ele>676.493</ele>
        <time>2019-03-03T05:05:12Z</time>
      </trkpt>
      <trkpt lat="41.442793" lon="-5.767906">
        <ele>677.182</ele>
        <time>2019-03-03T05:05:29Z</time>
      </trkpt>
      <trkpt lat="41.443016" lon="-5.768425">
        <ele>677.786</ele>
        <time>2019-03-03T05:05:44Z</time>
      </trkpt>
      <trkpt lat="41.443305" lon="-5.769162">
        <ele>677.599</ele>
        <time>2019-03-03T05:06:01Z</time>
      </trkpt>
      <trkpt lat="41.443636" lon="-5.769960">
        <ele>676.798</ele>
        <time>2019-03-03T05:06:16Z</time>
      </trkpt>
      <trkpt lat="41.443913" lon="-5.770612">
        <ele>677.587</ele>
        <time>2019-03-03T05:06:31Z</time>
      </trkpt>
      <trkpt lat="41.444174" lon="-5.770870">
        <ele>678.077</ele>
        <time>2019-03-03T05:06:43Z</time>
      </trkpt>
      <trkpt lat="41.444844" lon="-5.770799">
        <ele>678.061</ele>
        <time>2019-03-03T05:07:01Z</time>
      </trkpt>
      <trkpt lat="41.445577" lon="-5.770748">
        <ele>676.927</ele>
        <time>2019-03-03T05:07:19Z</time>
      </trkpt>
      <trkpt lat="41.446359" lon="-5.770708">
        <ele>675.208</ele>
        <time>2019-03-03T05:07:36Z</time>
      </trkpt>
      <trkpt lat="41.447257" lon="-5.770650">
        <ele>674.220</ele>
        <time>2019-03-03T05:07:56Z</time>
      </trkpt>
      <trkpt lat="41.448164" lon="-5.770602">
        <ele>673.361</ele>
        <time>2019-03-03T05:08:16Z</time>
      </trkpt>
      <trkpt lat="41.448986" lon="-5.770560">
        <ele>673.092</ele>
        <time>2019-03-03T05:08:35Z</time>
      </trkpt>
      <trkpt lat="41.449885" lon="-5.770516">
        <ele>670.431</ele>
        <time>2019-03-03T05:08:53Z</time>
      </trkpt>
      <trkpt lat="41.450830" lon="-5.770465">
        <ele>668.165</ele>
        <time>2019-03-03T05:09:10Z</time>
      </trkpt>
      <trkpt lat="41.451746" lon="-5.770422">
        <ele>668.048</ele>
        <time>2019-03-03T05:09:31Z</time>
      </trkpt>
      <trkpt lat="41.452158" lon="-5.770320">
        <ele>668.627</ele>
        <time>2019-03-03T05:09:44Z</time>
      </trkpt>
      <trkpt lat="41.452318" lon="-5.769845">
        <ele>668.676</ele>
        <time>2019-03-03T05:09:56Z</time>
      </trkpt>
      <trkpt lat="41.452728" lon="-5.769465">
        <ele>668.671</ele>
        <time>2019-03-03T05:10:09Z</time>
      </trkpt>
      <trkpt lat="41.453183" lon="-5.769053">
        <ele>668.541</ele>
        <time>2019-03-03T05:10:23Z</time>
      </trkpt>
      <trkpt lat="41.453699" lon="-5.768358">
        <ele>668.615</ele>
        <time>2019-03-03T05:10:44Z</time>
      </trkpt>
      <trkpt lat="41.454269" lon="-5.767705">
        <ele>669.708</ele>
        <time>2019-03-03T05:11:05Z</time>
      </trkpt>
      <trkpt lat="41.454843" lon="-5.767175">
        <ele>670.510</ele>
        <time>2019-03-03T05:11:25Z</time>
      </trkpt>
      <trkpt lat="41.455545" lon="-5.766614">
        <ele>670.551</ele>
        <time>2019-03-03T05:11:48Z</time>
      </trkpt>
      <trkpt lat="41.455949" lon="-5.766337">
        <ele>670.552</ele>
        <time>2019-03-03T05:12:03Z</time>
      </trkpt>
      <trkpt lat="41.456281" lon="-5.766115">
        <ele>670.551</ele>
        <time>2019-03-03T05:12:18Z</time>
      </trkpt>
      <trkpt lat="41.456764" lon="-5.765802">
        <ele>670.695</ele>
        <time>2019-03-03T05:12:34Z</time>
      </trkpt>
      <trkpt lat="41.457206" lon="-5.765241">
        <ele>671.568</ele>
        <time>2019-03-03T05:12:50Z</time>
      </trkpt>
      <trkpt lat="41.457762" lon="-5.764616">
        <ele>671.567</ele>
        <time>2019-03-03T05:13:10Z</time>
      </trkpt>
      <trkpt lat="41.458446" lon="-5.764142">
        <ele>671.246</ele>
        <time>2019-03-03T05:13:27Z</time>
      </trkpt>
      <trkpt lat="41.459381" lon="-5.763601">
        <ele>668.577</ele>
        <time>2019-03-03T05:13:46Z</time>
      </trkpt>
      <trkpt lat="41.460198" lon="-5.763118">
        <ele>667.261</ele>
        <time>2019-03-03T05:14:01Z</time>
      </trkpt>
      <trkpt lat="41.460949" lon="-5.762694">
        <ele>665.127</ele>
        <time>2019-03-03T05:14:18Z</time>
      </trkpt>
      <trkpt lat="41.461657" lon="-5.762314">
        <ele>664.508</ele>
        <time>2019-03-03T05:14:35Z</time>
      </trkpt>
      <trkpt lat="41.461880" lon="-5.762211">
        <ele>664.550</ele>
        <time>2019-03-03T05:14:40Z</time>
      </trkpt>
      <trkpt lat="41.462062" lon="-5.762173">
        <ele>664.671</ele>
        <time>2019-03-03T05:14:44Z</time>
      </trkpt>
      <trkpt lat="41.462109" lon="-5.762171">
        <ele>664.752</ele>
        <time>2019-03-03T05:14:45Z</time>
      </trkpt>
      <trkpt lat="41.462153" lon="-5.762168">
        <ele>664.791</ele>
        <time>2019-03-03T05:14:46Z</time>
      </trkpt>
      <trkpt lat="41.462197" lon="-5.762160">
        <ele>664.755</ele>
        <time>2019-03-03T05:14:47Z</time>
      </trkpt>
      <trkpt lat="41.462240" lon="-5.762151">
        <ele>664.688</ele>
        <time>2019-03-03T05:14:48Z</time>
      </trkpt>
      <trkpt lat="41.462961" lon="-5.762093">
        <ele>664.217</ele>
        <time>2019-03-03T05:15:05Z</time>
      </trkpt>
      <trkpt lat="41.463785" lon="-5.762118">
        <ele>662.726</ele>
        <time>2019-03-03T05:15:23Z</time>
      </trkpt>
      <trkpt lat="41.464535" lon="-5.762049">
        <ele>662.126</ele>
        <time>2019-03-03T05:15:39Z</time>
      </trkpt>
      <trkpt lat="41.465172" lon="-5.761949">
        <ele>662.847</ele>
        <time>2019-03-03T05:15:57Z</time>
      </trkpt>
      <trkpt lat="41.465787" lon="-5.761952">
        <ele>663.211</ele>
        <time>2019-03-03T05:16:15Z</time>
      </trkpt>
      <trkpt lat="41.466551" lon="-5.762014">
        <ele>662.408</ele>
        <time>2019-03-03T05:16:34Z</time>
      </trkpt>
      <trkpt lat="41.466991" lon="-5.761935">
        <ele>662.225</ele>
        <time>2019-03-03T05:16:48Z</time>
      </trkpt>
      <trkpt lat="41.467081" lon="-5.761868">
        <ele>662.056</ele>
        <time>2019-03-03T05:16:57Z</time>
      </trkpt>
      <trkpt lat="41.468054" lon="-5.761778">
        <ele>660.467</ele>
        <time>2019-03-03T05:19:12Z</time>
      </trkpt>
      <trkpt lat="41.468032" lon="-5.761843">
        <ele>660.396</ele>
        <time>2019-03-03T05:19:13Z</time>
      </trkpt>
      <trkpt lat="41.467988" lon="-5.761807">
        <ele>660.240</ele>
        <time>2019-03-03T05:19:25Z</time>
      </trkpt>
      <trkpt lat="41.467986" lon="-5.761808">
        <ele>660.213</ele>
        <time>2019-03-03T05:19:34Z</time>
      </trkpt>
      <trkpt lat="41.468209" lon="-5.761749">
        <ele>659.942</ele>
        <time>2019-03-03T05:19:46Z</time>
      </trkpt>
      <trkpt lat="41.468591" lon="-5.761687">
        <ele>659.941</ele>
        <time>2019-03-03T05:19:59Z</time>
      </trkpt>
      <trkpt lat="41.469269" lon="-5.761460">
        <ele>659.878</ele>
        <time>2019-03-03T05:20:14Z</time>
      </trkpt>
      <trkpt lat="41.470011" lon="-5.761085">
        <ele>658.533</ele>
        <time>2019-03-03T05:20:31Z</time>
      </trkpt>
      <trkpt lat="41.470624" lon="-5.760589">
        <ele>656.826</ele>
        <time>2019-03-03T05:20:46Z</time>
      </trkpt>
      <trkpt lat="41.470735" lon="-5.760510">
        <ele>656.808</ele>
        <time>2019-03-03T05:20:49Z</time>
      </trkpt>
      <trkpt lat="41.470809" lon="-5.760475">
        <ele>656.820</ele>
        <time>2019-03-03T05:20:51Z</time>
      </trkpt>
      <trkpt lat="41.471340" lon="-5.760207">
        <ele>656.371</ele>
        <time>2019-03-03T05:21:05Z</time>
      </trkpt>
      <trkpt lat="41.471932" lon="-5.759912">
        <ele>655.872</ele>
        <time>2019-03-03T05:21:21Z</time>
      </trkpt>
      <trkpt lat="41.472262" lon="-5.759677">
        <ele>655.831</ele>
        <time>2019-03-03T05:21:31Z</time>
      </trkpt>
      <trkpt lat="41.472855" lon="-5.759011">
        <ele>655.515</ele>
        <time>2019-03-03T05:21:47Z</time>
      </trkpt>
      <trkpt lat="41.473181" lon="-5.758581">
        <ele>655.168</ele>
        <time>2019-03-03T05:21:56Z</time>
      </trkpt>
      <trkpt lat="41.473221" lon="-5.758548">
        <ele>655.157</ele>
        <time>2019-03-03T05:21:57Z</time>
      </trkpt>
      <trkpt lat="41.473352" lon="-5.758472">
        <ele>654.836</ele>
        <time>2019-03-03T05:22:00Z</time>
      </trkpt>
      <trkpt lat="41.473397" lon="-5.758455">
        <ele>654.862</ele>
        <time>2019-03-03T05:22:01Z</time>
      </trkpt>
      <trkpt lat="41.473796" lon="-5.758485">
        <ele>654.783</ele>
        <time>2019-03-03T05:22:12Z</time>
      </trkpt>
      <trkpt lat="41.473841" lon="-5.758483">
        <ele>654.711</ele>
        <time>2019-03-03T05:22:13Z</time>
      </trkpt>
      <trkpt lat="41.473886" lon="-5.758473">
        <ele>654.708</ele>
        <time>2019-03-03T05:22:14Z</time>
      </trkpt>
      <trkpt lat="41.473928" lon="-5.758455">
        <ele>654.719</ele>
        <time>2019-03-03T05:22:15Z</time>
      </trkpt>
      <trkpt lat="41.473964" lon="-5.758430">
        <ele>654.760</ele>
        <time>2019-03-03T05:22:16Z</time>
      </trkpt>
      <trkpt lat="41.473996" lon="-5.758400">
        <ele>654.741</ele>
        <time>2019-03-03T05:22:17Z</time>
      </trkpt>
      <trkpt lat="41.474022" lon="-5.758365">
        <ele>654.780</ele>
        <time>2019-03-03T05:22:18Z</time>
      </trkpt>
      <trkpt lat="41.474042" lon="-5.758325">
        <ele>654.734</ele>
        <time>2019-03-03T05:22:19Z</time>
      </trkpt>
      <trkpt lat="41.474057" lon="-5.758282">
        <ele>654.717</ele>
        <time>2019-03-03T05:22:20Z</time>
      </trkpt>
      <trkpt lat="41.474072" lon="-5.758238">
        <ele>654.736</ele>
        <time>2019-03-03T05:22:21Z</time>
      </trkpt>
      <trkpt lat="41.474434" lon="-5.757634">
        <ele>654.635</ele>
        <time>2019-03-03T05:22:35Z</time>
      </trkpt>
      <trkpt lat="41.474474" lon="-5.757597">
        <ele>654.642</ele>
        <time>2019-03-03T05:22:36Z</time>
      </trkpt>
      <trkpt lat="41.474514" lon="-5.757559">
        <ele>654.522</ele>
        <time>2019-03-03T05:22:37Z</time>
      </trkpt>
      <trkpt lat="41.474554" lon="-5.757518">
        <ele>654.414</ele>
        <time>2019-03-03T05:22:38Z</time>
      </trkpt>
      <trkpt lat="41.474594" lon="-5.757474">
        <ele>654.308</ele>
        <time>2019-03-03T05:22:39Z</time>
      </trkpt>
      <trkpt lat="41.474820" lon="-5.757156">
        <ele>653.957</ele>
        <time>2019-03-03T05:22:45Z</time>
      </trkpt>
      <trkpt lat="41.475141" lon="-5.756817">
        <ele>653.968</ele>
        <time>2019-03-03T05:22:53Z</time>
      </trkpt>
      <trkpt lat="41.475181" lon="-5.756793">
        <ele>653.989</ele>
        <time>2019-03-03T05:22:54Z</time>
      </trkpt>
      <trkpt lat="41.475300" lon="-5.756744">
        <ele>653.948</ele>
        <time>2019-03-03T05:22:57Z</time>
      </trkpt>
      <trkpt lat="41.475652" lon="-5.756716">
        <ele>654.372</ele>
        <time>2019-03-03T05:23:06Z</time>
      </trkpt>
      <trkpt lat="41.475691" lon="-5.756722">
        <ele>654.425</ele>
        <time>2019-03-03T05:23:07Z</time>
      </trkpt>
      <trkpt lat="41.475728" lon="-5.756721">
        <ele>654.424</ele>
        <time>2019-03-03T05:23:08Z</time>
      </trkpt>
      <trkpt lat="41.475762" lon="-5.756714">
        <ele>654.443</ele>
        <time>2019-03-03T05:23:09Z</time>
      </trkpt>
      <trkpt lat="41.475796" lon="-5.756708">
        <ele>654.432</ele>
        <time>2019-03-03T05:23:10Z</time>
      </trkpt>
      <trkpt lat="41.475832" lon="-5.756707">
        <ele>654.492</ele>
        <time>2019-03-03T05:23:11Z</time>
      </trkpt>
      <trkpt lat="41.475870" lon="-5.756709">
        <ele>654.411</ele>
        <time>2019-03-03T05:23:12Z</time>
      </trkpt>
      <trkpt lat="41.475906" lon="-5.756714">
        <ele>654.408</ele>
        <time>2019-03-03T05:23:13Z</time>
      </trkpt>
      <trkpt lat="41.476239" lon="-5.756796">
        <ele>655.316</ele>
        <time>2019-03-03T05:23:26Z</time>
      </trkpt>
      <trkpt lat="41.476582" lon="-5.756993">
        <ele>657.257</ele>
        <time>2019-03-03T05:23:46Z</time>
      </trkpt>
      <trkpt lat="41.476841" lon="-5.757142">
        <ele>658.348</ele>
        <time>2019-03-03T05:24:04Z</time>
      </trkpt>
      <trkpt lat="41.477196" lon="-5.757031">
        <ele>658.317</ele>
        <time>2019-03-03T05:24:18Z</time>
      </trkpt>
      <trkpt lat="41.477543" lon="-5.756898">
        <ele>658.411</ele>
        <time>2019-03-03T05:24:32Z</time>
      </trkpt>
      <trkpt lat="41.477864" lon="-5.756798">
        <ele>659.034</ele>
        <time>2019-03-03T05:24:44Z</time>
      </trkpt>
      <trkpt lat="41.478357" lon="-5.756636">
        <ele>659.683</ele>
        <time>2019-03-03T05:24:59Z</time>
      </trkpt>
      <trkpt lat="41.478930" lon="-5.756508">
        <ele>661.032</ele>
        <time>2019-03-03T05:25:17Z</time>
      </trkpt>
      <trkpt lat="41.479422" lon="-5.756526">
        <ele>662.484</ele>
        <time>2019-03-03T05:25:33Z</time>
      </trkpt>
      <trkpt lat="41.480196" lon="-5.756574">
        <ele>663.207</ele>
        <time>2019-03-03T05:25:55Z</time>
      </trkpt>
      <trkpt lat="41.480580" lon="-5.756563">
        <ele>663.217</ele>
        <time>2019-03-03T05:26:08Z</time>
      </trkpt>
      <trkpt lat="41.481332" lon="-5.756568">
        <ele>662.708</ele>
        <time>2019-03-03T05:26:25Z</time>
      </trkpt>
      <trkpt lat="41.481600" lon="-5.756570">
        <ele>662.361</ele>
        <time>2019-03-03T05:26:31Z</time>
      </trkpt>
      <trkpt lat="41.482297" lon="-5.756561">
        <ele>660.672</ele>
        <time>2019-03-03T05:26:45Z</time>
      </trkpt>
      <trkpt lat="41.483292" lon="-5.756470">
        <ele>658.693</ele>
        <time>2019-03-03T05:27:06Z</time>
      </trkpt>
      <trkpt lat="41.484117" lon="-5.756327">
        <ele>658.252</ele>
        <time>2019-03-03T05:27:24Z</time>
      </trkpt>
      <trkpt lat="41.484849" lon="-5.756267">
        <ele>657.376</ele>
        <time>2019-03-03T05:27:41Z</time>
      </trkpt>
      <trkpt lat="41.485572" lon="-5.756227">
        <ele>656.529</ele>
        <time>2019-03-03T05:27:57Z</time>
      </trkpt>
      <trkpt lat="41.486059" lon="-5.755834">
        <ele>654.988</ele>
        <time>2019-03-03T05:28:11Z</time>
      </trkpt>
      <trkpt lat="41.486764" lon="-5.755208">
        <ele>652.737</ele>
        <time>2019-03-03T05:28:29Z</time>
      </trkpt>
      <trkpt lat="41.487233" lon="-5.754689">
        <ele>649.721</ele>
        <time>2019-03-03T05:28:43Z</time>
      </trkpt>
      <trkpt lat="41.487736" lon="-5.754439">
        <ele>648.341</ele>
        <time>2019-03-03T05:28:54Z</time>
      </trkpt>
      <trkpt lat="41.487785" lon="-5.754440">
        <ele>648.305</ele>
        <time>2019-03-03T05:28:55Z</time>
      </trkpt>
      <trkpt lat="41.487832" lon="-5.754440">
        <ele>648.208</ele>
        <time>2019-03-03T05:28:56Z</time>
      </trkpt>
      <trkpt lat="41.487879" lon="-5.754430">
        <ele>648.165</ele>
        <time>2019-03-03T05:28:57Z</time>
      </trkpt>
      <trkpt lat="41.487924" lon="-5.754414">
        <ele>648.096</ele>
        <time>2019-03-03T05:28:58Z</time>
      </trkpt>
      <trkpt lat="41.488012" lon="-5.754392">
        <ele>647.797</ele>
        <time>2019-03-03T05:29:00Z</time>
      </trkpt>
      <trkpt lat="41.488057" lon="-5.754384">
        <ele>647.586</ele>
        <time>2019-03-03T05:29:01Z</time>
      </trkpt>
      <trkpt lat="41.488551" lon="-5.754347">
        <ele>645.750</ele>
        <time>2019-03-03T05:29:13Z</time>
      </trkpt>
      <trkpt lat="41.488596" lon="-5.754350">
        <ele>645.693</ele>
        <time>2019-03-03T05:29:14Z</time>
      </trkpt>
      <trkpt lat="41.489029" lon="-5.754334">
        <ele>644.862</ele>
        <time>2019-03-03T05:29:23Z</time>
      </trkpt>
      <trkpt lat="41.489776" lon="-5.754303">
        <ele>642.611</ele>
        <time>2019-03-03T05:29:38Z</time>
      </trkpt>
      <trkpt lat="41.490034" lon="-5.754284">
        <ele>642.671</ele>
        <time>2019-03-03T05:29:48Z</time>
      </trkpt>
      <trkpt lat="41.490584" lon="-5.754225">
        <ele>641.841</ele>
        <time>2019-03-03T05:29:58Z</time>
      </trkpt>
      <trkpt lat="41.490761" lon="-5.754205">
        <ele>640.115</ele>
        <time>2019-03-03T05:30:02Z</time>
      </trkpt>
      <trkpt lat="41.490904" lon="-5.754250">
        <ele>638.708</ele>
        <time>2019-03-03T05:30:10Z</time>
      </trkpt>
      <trkpt lat="41.490954" lon="-5.754242">
        <ele>638.210</ele>
        <time>2019-03-03T05:31:21Z</time>
      </trkpt>
      <trkpt lat="41.491004" lon="-5.754234">
        <ele>637.941</ele>
        <time>2019-03-03T05:31:22Z</time>
      </trkpt>
      <trkpt lat="41.491153" lon="-5.754233">
        <ele>636.552</ele>
        <time>2019-03-03T05:31:25Z</time>
      </trkpt>
      <trkpt lat="41.491844" lon="-5.754088">
        <ele>630.821</ele>
        <time>2019-03-03T05:31:35Z</time>
      </trkpt>
      <trkpt lat="41.492089" lon="-5.754045">
        <ele>629.815</ele>
        <time>2019-03-03T05:31:38Z</time>
      </trkpt>
      <trkpt lat="41.492886" lon="-5.754050">
        <ele>627.078</ele>
        <time>2019-03-03T05:31:48Z</time>
      </trkpt>
      <trkpt lat="41.493627" lon="-5.753852">
        <ele>625.477</ele>
        <time>2019-03-03T05:31:59Z</time>
      </trkpt>
      <trkpt lat="41.493975" lon="-5.753698">
        <ele>624.876</ele>
        <time>2019-03-03T05:32:05Z</time>
      </trkpt>
      <trkpt lat="41.494085" lon="-5.753667">
        <ele>624.624</ele>
        <time>2019-03-03T05:32:07Z</time>
      </trkpt>
      <trkpt lat="41.494717" lon="-5.753392">
        <ele>624.904</ele>
        <time>2019-03-03T05:32:20Z</time>
      </trkpt>
      <trkpt lat="41.494915" lon="-5.753286">
        <ele>625.114</ele>
        <time>2019-03-03T05:32:25Z</time>
      </trkpt>
      <trkpt lat="41.495158" lon="-5.752826">
        <ele>625.008</ele>
        <time>2019-03-03T05:32:35Z</time>
      </trkpt>
      <trkpt lat="41.495292" lon="-5.752829">
        <ele>624.965</ele>
        <time>2019-03-03T05:32:38Z</time>
      </trkpt>
      <trkpt lat="41.495335" lon="-5.752838">
        <ele>624.846</ele>
        <time>2019-03-03T05:32:39Z</time>
      </trkpt>
      <trkpt lat="41.495379" lon="-5.752838">
        <ele>624.477</ele>
        <time>2019-03-03T05:32:40Z</time>
      </trkpt>
      <trkpt lat="41.495423" lon="-5.752829">
        <ele>624.226</ele>
        <time>2019-03-03T05:32:41Z</time>
      </trkpt>
      <trkpt lat="41.495465" lon="-5.752814">
        <ele>624.250</ele>
        <time>2019-03-03T05:32:42Z</time>
      </trkpt>
      <trkpt lat="41.495505" lon="-5.752805">
        <ele>624.153</ele>
        <time>2019-03-03T05:32:43Z</time>
      </trkpt>
      <trkpt lat="41.495781" lon="-5.752530">
        <ele>624.752</ele>
        <time>2019-03-03T05:32:52Z</time>
      </trkpt>
      <trkpt lat="41.496067" lon="-5.752169">
        <ele>625.651</ele>
        <time>2019-03-03T05:33:04Z</time>
      </trkpt>
      <trkpt lat="41.496120" lon="-5.752123">
        <ele>625.757</ele>
        <time>2019-03-03T05:33:11Z</time>
      </trkpt>
      <trkpt lat="41.496191" lon="-5.752060">
        <ele>625.800</ele>
        <time>2019-03-03T05:35:43Z</time>
      </trkpt>
      <trkpt lat="41.496444" lon="-5.751728">
        <ele>625.520</ele>
        <time>2019-03-03T05:35:54Z</time>
      </trkpt>
      <trkpt lat="41.496905" lon="-5.751143">
        <ele>625.008</ele>
        <time>2019-03-03T05:36:12Z</time>
      </trkpt>
      <trkpt lat="41.497178" lon="-5.750820">
        <ele>624.968</ele>
        <time>2019-03-03T05:36:25Z</time>
      </trkpt>
      <trkpt lat="41.497330" lon="-5.750616">
        <ele>624.959</ele>
        <time>2019-03-03T05:36:37Z</time>
      </trkpt>
      <trkpt lat="41.497386" lon="-5.750537">
        <ele>624.850</ele>
        <time>2019-03-03T05:37:00Z</time>
      </trkpt>
      <trkpt lat="41.497398" lon="-5.750510">
        <ele>624.879</ele>
        <time>2019-03-03T05:37:01Z</time>
      </trkpt>
      <trkpt lat="41.497414" lon="-5.750481">
        <ele>624.893</ele>
        <time>2019-03-03T05:37:02Z</time>
      </trkpt>
      <trkpt lat="41.497633" lon="-5.749970">
        <ele>624.536</ele>
        <time>2019-03-03T05:37:17Z</time>
      </trkpt>
      <trkpt lat="41.497748" lon="-5.749437">
        <ele>624.915</ele>
        <time>2019-03-03T05:37:32Z</time>
      </trkpt>
      <trkpt lat="41.497806" lon="-5.748959">
        <ele>625.234</ele>
        <time>2019-03-03T05:37:45Z</time>
      </trkpt>
      <trkpt lat="41.497803" lon="-5.748858">
        <ele>625.312</ele>
        <time>2019-03-03T05:37:52Z</time>
      </trkpt>
      <trkpt lat="41.497811" lon="-5.748767">
        <ele>625.332</ele>
        <time>2019-03-03T05:38:38Z</time>
      </trkpt>
      <trkpt lat="41.497811" lon="-5.748739">
        <ele>625.305</ele>
        <time>2019-03-03T05:38:39Z</time>
      </trkpt>
      <trkpt lat="41.497813" lon="-5.748710">
        <ele>625.308</ele>
        <time>2019-03-03T05:38:40Z</time>
      </trkpt>
      <trkpt lat="41.497818" lon="-5.748682">
        <ele>625.374</ele>
        <time>2019-03-03T05:38:41Z</time>
      </trkpt>
      <trkpt lat="41.497823" lon="-5.748652">
        <ele>625.425</ele>
        <time>2019-03-03T05:38:42Z</time>
      </trkpt>
      <trkpt lat="41.497825" lon="-5.748101">
        <ele>625.556</ele>
        <time>2019-03-03T05:38:58Z</time>
      </trkpt>
      <trkpt lat="41.497831" lon="-5.748065">
        <ele>625.545</ele>
        <time>2019-03-03T05:38:59Z</time>
      </trkpt>
      <trkpt lat="41.497842" lon="-5.748034">
        <ele>625.679</ele>
        <time>2019-03-03T05:39:00Z</time>
      </trkpt>
      <trkpt lat="41.497857" lon="-5.748014">
        <ele>625.672</ele>
        <time>2019-03-03T05:39:01Z</time>
      </trkpt>
      <trkpt lat="41.497868" lon="-5.748006">
        <ele>625.731</ele>
        <time>2019-03-03T05:39:06Z</time>
      </trkpt>
      <trkpt lat="41.497945" lon="-5.748018">
        <ele>625.830</ele>
        <time>2019-03-03T05:40:05Z</time>
      </trkpt>
      <trkpt lat="41.497966" lon="-5.748024">
        <ele>625.955</ele>
        <time>2019-03-03T05:40:06Z</time>
      </trkpt>
      <trkpt lat="41.497986" lon="-5.748035">
        <ele>625.907</ele>
        <time>2019-03-03T05:40:07Z</time>
      </trkpt>
      <trkpt lat="41.498006" lon="-5.748048">
        <ele>626.017</ele>
        <time>2019-03-03T05:40:08Z</time>
      </trkpt>
      <trkpt lat="41.498269" lon="-5.748131">
        <ele>626.708</ele>
        <time>2019-03-03T05:40:22Z</time>
      </trkpt>
      <trkpt lat="41.498641" lon="-5.748113">
        <ele>627.898</ele>
        <time>2019-03-03T05:40:39Z</time>
      </trkpt>
      <trkpt lat="41.498756" lon="-5.748148">
        <ele>628.269</ele>
        <time>2019-03-03T05:40:48Z</time>
      </trkpt>
      <trkpt lat="41.498827" lon="-5.748086">
        <ele>628.550</ele>
        <time>2019-03-03T05:42:08Z</time>
      </trkpt>
      <trkpt lat="41.498844" lon="-5.748083">
        <ele>628.559</ele>
        <time>2019-03-03T05:42:09Z</time>
      </trkpt>
      <trkpt lat="41.499203" lon="-5.748078">
        <ele>629.473</ele>
        <time>2019-03-03T05:42:21Z</time>
      </trkpt>
      <trkpt lat="41.499762" lon="-5.748093">
        <ele>630.046</ele>
        <time>2019-03-03T05:42:38Z</time>
      </trkpt>
      <trkpt lat="41.499810" lon="-5.748087">
        <ele>630.075</ele>
        <time>2019-03-03T05:42:45Z</time>
      </trkpt>
      <trkpt lat="41.499862" lon="-5.748088">
        <ele>630.054</ele>
        <time>2019-03-03T05:43:08Z</time>
      </trkpt>
      <trkpt lat="41.500272" lon="-5.748118">
        <ele>630.071</ele>
        <time>2019-03-03T05:43:20Z</time>
      </trkpt>
      <trkpt lat="41.500364" lon="-5.748132">
        <ele>630.041</ele>
        <time>2019-03-03T05:43:29Z</time>
      </trkpt>
      <trkpt lat="41.500444" lon="-5.748117">
        <ele>630.015</ele>
        <time>2019-03-03T05:43:37Z</time>
      </trkpt>
      <trkpt lat="41.500606" lon="-5.747985">
        <ele>631.808</ele>
        <time>2019-03-03T05:43:42Z</time>
      </trkpt>
      <trkpt lat="41.500632" lon="-5.747942">
        <ele>632.070</ele>
        <time>2019-03-03T05:43:43Z</time>
      </trkpt>
      <trkpt lat="41.500682" lon="-5.747841">
        <ele>631.981</ele>
        <time>2019-03-03T05:43:45Z</time>
      </trkpt>
      <trkpt lat="41.500858" lon="-5.747417">
        <ele>631.322</ele>
        <time>2019-03-03T05:43:55Z</time>
      </trkpt>
      <trkpt lat="41.500920" lon="-5.747314">
        <ele>631.871</ele>
        <time>2019-03-03T05:44:03Z</time>
      </trkpt>
      <trkpt lat="41.501052" lon="-5.747258">
        <ele>634.075</ele>
        <time>2019-03-03T05:44:32Z</time>
      </trkpt>
      <trkpt lat="41.501313" lon="-5.747335">
        <ele>638.238</ele>
        <time>2019-03-03T05:44:45Z</time>
      </trkpt>
      <trkpt lat="41.501349" lon="-5.747364">
        <ele>638.987</ele>
        <time>2019-03-03T05:44:48Z</time>
      </trkpt>
      <trkpt lat="41.501382" lon="-5.747378">
        <ele>639.626</ele>
        <time>2019-03-03T05:44:51Z</time>
      </trkpt>
      <trkpt lat="41.501400" lon="-5.747550">
        <ele>641.456</ele>
        <time>2019-03-03T05:44:58Z</time>
      </trkpt>
      <trkpt lat="41.501273" lon="-5.747829">
        <ele>639.459</ele>
        <time>2019-03-03T05:45:13Z</time>
      </trkpt>
      <trkpt lat="41.501116" lon="-5.748051">
        <ele>638.414</ele>
        <time>2019-03-03T05:45:27Z</time>
      </trkpt>
      <trkpt lat="41.501081" lon="-5.748185">
        <ele>638.108</ele>
        <time>2019-03-03T05:45:41Z</time>
      </trkpt>
      <trkpt lat="41.501092" lon="-5.748179">
        <ele>638.048</ele>
        <time>2019-03-03T05:45:44Z</time>
      </trkpt>
      <trkpt lat="41.501301" lon="-5.748229">
        <ele>642.539</ele>
        <time>2019-03-03T23:13:31Z</time>
      </trkpt>
      <trkpt lat="41.501302" lon="-5.748229">
        <ele>642.560</ele>
        <time>2019-03-03T23:13:32Z</time>
      </trkpt>
      <trkpt lat="41.501316" lon="-5.748230">
        <ele>642.559</ele>
        <time>2019-03-03T23:13:36Z</time>
      </trkpt>
      <trkpt lat="41.501338" lon="-5.748243">
        <ele>642.583</ele>
        <time>2019-03-03T23:13:38Z</time>
      </trkpt>
      <trkpt lat="41.501411" lon="-5.748321">
        <ele>645.846</ele>
        <time>2019-03-03T23:13:45Z</time>
      </trkpt>
      <trkpt lat="41.501456" lon="-5.748350">
        <ele>647.055</ele>
        <time>2019-03-03T23:13:49Z</time>
      </trkpt>
      <trkpt lat="41.501603" lon="-5.748279">
        <ele>648.084</ele>
        <time>2019-03-03T23:14:01Z</time>
      </trkpt>
      <trkpt lat="41.501640" lon="-5.748208">
        <ele>648.418</ele>
        <time>2019-03-03T23:14:04Z</time>
      </trkpt>
      <trkpt lat="41.501728" lon="-5.748040">
        <ele>649.398</ele>
        <time>2019-03-03T23:14:11Z</time>
      </trkpt>
      <trkpt lat="41.501997" lon="-5.748122">
        <ele>652.517</ele>
        <time>2019-03-03T23:14:24Z</time>
      </trkpt>
      <trkpt lat="41.502221" lon="-5.748292">
        <ele>654.108</ele>
        <time>2019-03-03T23:14:35Z</time>
      </trkpt>
      <trkpt lat="41.502307" lon="-5.748224">
        <ele>654.244</ele>
        <time>2019-03-03T23:14:40Z</time>
      </trkpt>
      <trkpt lat="41.502550" lon="-5.747761">
        <ele>655.675</ele>
        <time>2019-03-03T23:14:56Z</time>
      </trkpt>
      <trkpt lat="41.502687" lon="-5.747438">
        <ele>656.826</ele>
        <time>2019-03-03T23:15:08Z</time>
      </trkpt>
      <trkpt lat="41.502732" lon="-5.747362">
        <ele>657.035</ele>
        <time>2019-03-03T23:15:19Z</time>
      </trkpt>
      <trkpt lat="41.502732" lon="-5.747363">
        <ele>657.069</ele>
        <time>2019-03-03T23:15:20Z</time>
      </trkpt>
      <trkpt lat="41.502970" lon="-5.747031">
        <ele>657.612</ele>
        <time>2019-03-03T23:16:43Z</time>
      </trkpt>
      <trkpt lat="41.503078" lon="-5.746724">
        <ele>657.641</ele>
        <time>2019-03-03T23:16:53Z</time>
      </trkpt>
      <trkpt lat="41.503375" lon="-5.746412">
        <ele>657.850</ele>
        <time>2019-03-03T23:17:03Z</time>
      </trkpt>
      <trkpt lat="41.503502" lon="-5.746510">
        <ele>657.811</ele>
        <time>2019-03-03T23:17:07Z</time>
      </trkpt>
      <trkpt lat="41.503758" lon="-5.746741">
        <ele>657.721</ele>
        <time>2019-03-03T23:17:17Z</time>
      </trkpt>
      <trkpt lat="41.503988" lon="-5.746820">
        <ele>657.503</ele>
        <time>2019-03-03T23:17:28Z</time>
      </trkpt>
      <trkpt lat="41.504045" lon="-5.746904">
        <ele>657.408</ele>
        <time>2019-03-03T23:17:30Z</time>
      </trkpt>
      <trkpt lat="41.504185" lon="-5.747085">
        <ele>656.744</ele>
        <time>2019-03-03T23:17:34Z</time>
      </trkpt>
      <trkpt lat="41.504274" lon="-5.747184">
        <ele>655.695</ele>
        <time>2019-03-03T23:17:36Z</time>
      </trkpt>
      <trkpt lat="41.504691" lon="-5.747617">
        <ele>650.226</ele>
        <time>2019-03-03T23:17:44Z</time>
      </trkpt>
      <trkpt lat="41.504865" lon="-5.747928">
        <ele>647.385</ele>
        <time>2019-03-03T23:17:51Z</time>
      </trkpt>
      <trkpt lat="41.504889" lon="-5.748041">
        <ele>647.329</ele>
        <time>2019-03-03T23:17:53Z</time>
      </trkpt>
      <trkpt lat="41.504910" lon="-5.748159">
        <ele>646.382</ele>
        <time>2019-03-03T23:17:56Z</time>
      </trkpt>
      <trkpt lat="41.505121" lon="-5.748789">
        <ele>644.281</ele>
        <time>2019-03-03T23:18:07Z</time>
      </trkpt>
      <trkpt lat="41.505458" lon="-5.749357">
        <ele>643.480</ele>
        <time>2019-03-03T23:18:19Z</time>
      </trkpt>
      <trkpt lat="41.505564" lon="-5.749570">
        <ele>642.574</ele>
        <time>2019-03-03T23:18:23Z</time>
      </trkpt>
      <trkpt lat="41.505639" lon="-5.749726">
        <ele>642.156</ele>
        <time>2019-03-03T23:18:26Z</time>
      </trkpt>
      <trkpt lat="41.505664" lon="-5.749779">
        <ele>642.121</ele>
        <time>2019-03-03T23:18:27Z</time>
      </trkpt>
      <trkpt lat="41.505809" lon="-5.750122">
        <ele>642.208</ele>
        <time>2019-03-03T23:18:38Z</time>
      </trkpt>
      <trkpt lat="41.505802" lon="-5.750155">
        <ele>642.380</ele>
        <time>2019-03-03T23:18:43Z</time>
      </trkpt>
      <trkpt lat="41.505845" lon="-5.750283">
        <ele>642.451</ele>
        <time>2019-03-03T23:18:54Z</time>
      </trkpt>
      <trkpt lat="41.506126" lon="-5.750630">
        <ele>643.492</ele>
        <time>2019-03-03T23:19:07Z</time>
      </trkpt>
      <trkpt lat="41.506453" lon="-5.750731">
        <ele>643.581</ele>
        <time>2019-03-03T23:19:21Z</time>
      </trkpt>
      <trkpt lat="41.506693" lon="-5.750720">
        <ele>644.165</ele>
        <time>2019-03-03T23:19:32Z</time>
      </trkpt>
      <trkpt lat="41.507102" lon="-5.750703">
        <ele>646.328</ele>
        <time>2019-03-03T23:19:46Z</time>
      </trkpt>
      <trkpt lat="41.507378" lon="-5.750756">
        <ele>648.487</ele>
        <time>2019-03-03T23:19:59Z</time>
      </trkpt>
      <trkpt lat="41.507702" lon="-5.750877">
        <ele>650.216</ele>
        <time>2019-03-03T23:20:11Z</time>
      </trkpt>
      <trkpt lat="41.508029" lon="-5.751031">
        <ele>651.819</ele>
        <time>2019-03-03T23:20:24Z</time>
      </trkpt>
      <trkpt lat="41.508403" lon="-5.751059">
        <ele>654.209</ele>
        <time>2019-03-03T23:20:40Z</time>
      </trkpt>
      <trkpt lat="41.508708" lon="-5.751130">
        <ele>656.619</ele>
        <time>2019-03-03T23:20:53Z</time>
      </trkpt>
      <trkpt lat="41.508962" lon="-5.751172">
        <ele>658.808</ele>
        <time>2019-03-03T23:21:03Z</time>
      </trkpt>
      <trkpt lat="41.509342" lon="-5.751217">
        <ele>661.664</ele>
        <time>2019-03-03T23:21:18Z</time>
      </trkpt>
      <trkpt lat="41.509654" lon="-5.751306">
        <ele>663.265</ele>
        <time>2019-03-03T23:21:32Z</time>
      </trkpt>
      <trkpt lat="41.509916" lon="-5.751388">
        <ele>663.966</ele>
        <time>2019-03-03T23:21:44Z</time>
      </trkpt>
      <trkpt lat="41.510161" lon="-5.751467">
        <ele>664.535</ele>
        <time>2019-03-03T23:21:55Z</time>
      </trkpt>
      <trkpt lat="41.510426" lon="-5.751576">
        <ele>665.199</ele>
        <time>2019-03-03T23:22:07Z</time>
      </trkpt>
      <trkpt lat="41.510767" lon="-5.751703">
        <ele>665.652</ele>
        <time>2019-03-03T23:22:20Z</time>
      </trkpt>
      <trkpt lat="41.511089" lon="-5.751821">
        <ele>665.851</ele>
        <time>2019-03-03T23:22:33Z</time>
      </trkpt>
      <trkpt lat="41.511426" lon="-5.751940">
        <ele>666.330</ele>
        <time>2019-03-03T23:22:46Z</time>
      </trkpt>
      <trkpt lat="41.511514" lon="-5.751963">
        <ele>666.562</ele>
        <time>2019-03-03T23:22:54Z</time>
      </trkpt>
      <trkpt lat="41.511668" lon="-5.751919">
        <ele>666.883</ele>
        <time>2019-03-03T23:23:17Z</time>
      </trkpt>
      <trkpt lat="41.512213" lon="-5.752134">
        <ele>668.511</ele>
        <time>2019-03-03T23:23:34Z</time>
      </trkpt>
      <trkpt lat="41.512608" lon="-5.752285">
        <ele>669.408</ele>
        <time>2019-03-03T23:23:48Z</time>
      </trkpt>
      <trkpt lat="41.513112" lon="-5.752537">
        <ele>669.059</ele>
        <time>2019-03-03T23:24:03Z</time>
      </trkpt>
      <trkpt lat="41.513697" lon="-5.752763">
        <ele>669.490</ele>
        <time>2019-03-03T23:24:19Z</time>
      </trkpt>
      <trkpt lat="41.513922" lon="-5.752863">
        <ele>669.631</ele>
        <time>2019-03-03T23:24:25Z</time>
      </trkpt>
      <trkpt lat="41.513965" lon="-5.752884">
        <ele>669.760</ele>
        <time>2019-03-03T23:24:26Z</time>
      </trkpt>
      <trkpt lat="41.514470" lon="-5.753096">
        <ele>669.244</ele>
        <time>2019-03-03T23:24:39Z</time>
      </trkpt>
      <trkpt lat="41.514819" lon="-5.753239">
        <ele>669.187</ele>
        <time>2019-03-03T23:24:49Z</time>
      </trkpt>
      <trkpt lat="41.515294" lon="-5.753392">
        <ele>669.786</ele>
        <time>2019-03-03T23:25:02Z</time>
      </trkpt>
      <trkpt lat="41.515799" lon="-5.753529">
        <ele>670.535</ele>
        <time>2019-03-03T23:25:17Z</time>
      </trkpt>
      <trkpt lat="41.516285" lon="-5.753737">
        <ele>671.333</ele>
        <time>2019-03-03T23:25:30Z</time>
      </trkpt>
      <trkpt lat="41.517041" lon="-5.754048">
        <ele>672.623</ele>
        <time>2019-03-03T23:25:52Z</time>
      </trkpt>
      <trkpt lat="41.517784" lon="-5.754349">
        <ele>673.815</ele>
        <time>2019-03-03T23:26:15Z</time>
      </trkpt>
      <trkpt lat="41.518246" lon="-5.754542">
        <ele>674.508</ele>
        <time>2019-03-03T23:26:30Z</time>
      </trkpt>
      <trkpt lat="41.518826" lon="-5.754781">
        <ele>675.236</ele>
        <time>2019-03-03T23:26:47Z</time>
      </trkpt>
      <trkpt lat="41.519230" lon="-5.754764">
        <ele>675.727</ele>
        <time>2019-03-03T23:26:59Z</time>
      </trkpt>
      <trkpt lat="41.519682" lon="-5.754819">
        <ele>675.898</ele>
        <time>2019-03-03T23:27:12Z</time>
      </trkpt>
      <trkpt lat="41.520020" lon="-5.755173">
        <ele>676.347</ele>
        <time>2019-03-03T23:27:26Z</time>
      </trkpt>
      <trkpt lat="41.520547" lon="-5.755338">
        <ele>677.191</ele>
        <time>2019-03-03T23:27:43Z</time>
      </trkpt>
      <trkpt lat="41.521070" lon="-5.755545">
        <ele>677.624</ele>
        <time>2019-03-03T23:28:01Z</time>
      </trkpt>
      <trkpt lat="41.521596" lon="-5.755757">
        <ele>678.343</ele>
        <time>2019-03-03T23:28:18Z</time>
      </trkpt>
      <trkpt lat="41.522111" lon="-5.755966">
        <ele>678.912</ele>
        <time>2019-03-03T23:28:36Z</time>
      </trkpt>
      <trkpt lat="41.522133" lon="-5.755973">
        <ele>678.982</ele>
        <time>2019-03-03T23:28:42Z</time>
      </trkpt>
      <trkpt lat="41.522105" lon="-5.755965">
        <ele>679.043</ele>
        <time>2019-03-03T23:29:10Z</time>
      </trkpt>
      <trkpt lat="41.522090" lon="-5.755952">
        <ele>679.017</ele>
        <time>2019-03-03T23:29:11Z</time>
      </trkpt>
      <trkpt lat="41.522067" lon="-5.755940">
        <ele>679.008</ele>
        <time>2019-03-03T23:29:12Z</time>
      </trkpt>
      <trkpt lat="41.521495" lon="-5.755723">
        <ele>678.291</ele>
        <time>2019-03-03T23:29:25Z</time>
      </trkpt>
      <trkpt lat="41.520574" lon="-5.755346">
        <ele>677.282</ele>
        <time>2019-03-03T23:29:44Z</time>
      </trkpt>
      <trkpt lat="41.519906" lon="-5.755148">
        <ele>676.043</ele>
        <time>2019-03-03T23:29:58Z</time>
      </trkpt>
      <trkpt lat="41.519721" lon="-5.755127">
        <ele>675.792</ele>
        <time>2019-03-03T23:30:03Z</time>
      </trkpt>
      <trkpt lat="41.519713" lon="-5.755153">
        <ele>675.736</ele>
        <time>2019-03-03T23:30:04Z</time>
      </trkpt>
      <trkpt lat="41.519580" lon="-5.755453">
        <ele>675.519</ele>
        <time>2019-03-03T23:30:11Z</time>
      </trkpt>
      <trkpt lat="41.519523" lon="-5.755551">
        <ele>675.768</ele>
        <time>2019-03-03T23:30:13Z</time>
      </trkpt>
      <trkpt lat="41.519502" lon="-5.755603">
        <ele>675.867</ele>
        <time>2019-03-03T23:30:14Z</time>
      </trkpt>
      <trkpt lat="41.519403" lon="-5.756210">
        <ele>676.857</ele>
        <time>2019-03-03T23:30:27Z</time>
      </trkpt>
      <trkpt lat="41.519325" lon="-5.756915">
        <ele>678.600</ele>
        <time>2019-03-03T23:30:43Z</time>
      </trkpt>
      <trkpt lat="41.519251" lon="-5.757383">
        <ele>680.720</ele>
        <time>2019-03-03T23:30:56Z</time>
      </trkpt>
      <trkpt lat="41.519208" lon="-5.757849">
        <ele>682.608</ele>
        <time>2019-03-03T23:31:08Z</time>
      </trkpt>
      <trkpt lat="41.519157" lon="-5.758594">
        <ele>684.178</ele>
        <time>2019-03-03T23:31:27Z</time>
      </trkpt>
      <trkpt lat="41.519313" lon="-5.759078">
        <ele>687.029</ele>
        <time>2019-03-03T23:31:42Z</time>
      </trkpt>
      <trkpt lat="41.519638" lon="-5.759366">
        <ele>689.180</ele>
        <time>2019-03-03T23:32:00Z</time>
      </trkpt>
      <trkpt lat="41.519881" lon="-5.759564">
        <ele>689.969</ele>
        <time>2019-03-03T23:32:12Z</time>
      </trkpt>
      <trkpt lat="41.520258" lon="-5.759824">
        <ele>690.193</ele>
        <time>2019-03-03T23:32:26Z</time>
      </trkpt>
      <trkpt lat="41.520869" lon="-5.760259">
        <ele>689.796</ele>
        <time>2019-03-03T23:32:45Z</time>
      </trkpt>
      <trkpt lat="41.521796" lon="-5.760908">
        <ele>690.095</ele>
        <time>2019-03-03T23:33:10Z</time>
      </trkpt>
      <trkpt lat="41.522576" lon="-5.761467">
        <ele>690.084</ele>
        <time>2019-03-03T23:33:31Z</time>
      </trkpt>
      <trkpt lat="41.523516" lon="-5.762134">
        <ele>691.142</ele>
        <time>2019-03-03T23:33:57Z</time>
      </trkpt>
      <trkpt lat="41.524229" lon="-5.762641">
        <ele>692.022</ele>
        <time>2019-03-03T23:34:19Z</time>
      </trkpt>
      <trkpt lat="41.524967" lon="-5.763185">
        <ele>693.814</ele>
        <time>2019-03-03T23:34:42Z</time>
      </trkpt>
      <trkpt lat="41.525657" lon="-5.763770">
        <ele>695.408</ele>
        <time>2019-03-03T23:35:04Z</time>
      </trkpt>
      <trkpt lat="41.526318" lon="-5.764428">
        <ele>696.777</ele>
        <time>2019-03-03T23:35:25Z</time>
      </trkpt>
      <trkpt lat="41.527234" lon="-5.765338">
        <ele>697.098</ele>
        <time>2019-03-03T23:35:54Z</time>
      </trkpt>
      <trkpt lat="41.527746" lon="-5.765732">
        <ele>697.849</ele>
        <time>2019-03-03T23:36:12Z</time>
      </trkpt>
      <trkpt lat="41.527766" lon="-5.765714">
        <ele>697.858</ele>
        <time>2019-03-03T23:36:13Z</time>
      </trkpt>
      <trkpt lat="41.527783" lon="-5.765690">
        <ele>697.872</ele>
        <time>2019-03-03T23:36:14Z</time>
      </trkpt>
      <trkpt lat="41.527801" lon="-5.765664">
        <ele>697.725</ele>
        <time>2019-03-03T23:36:15Z</time>
      </trkpt>
      <trkpt lat="41.528034" lon="-5.765102">
        <ele>698.014</ele>
        <time>2019-03-03T23:36:29Z</time>
      </trkpt>
      <trkpt lat="41.528212" lon="-5.764699">
        <ele>698.083</ele>
        <time>2019-03-03T23:36:42Z</time>
      </trkpt>
      <trkpt lat="41.528212" lon="-5.764699">
        <ele>698.016</ele>
        <time>2019-03-03T23:36:45Z</time>
      </trkpt>
      <trkpt lat="41.528281" lon="-5.764714">
        <ele>698.076</ele>
        <time>2019-03-03T23:38:53Z</time>
      </trkpt>
      <trkpt lat="41.528307" lon="-5.764712">
        <ele>697.913</ele>
        <time>2019-03-03T23:38:54Z</time>
      </trkpt>
      <trkpt lat="41.528336" lon="-5.764713">
        <ele>697.908</ele>
        <time>2019-03-03T23:38:55Z</time>
      </trkpt>
      <trkpt lat="41.528367" lon="-5.764711">
        <ele>697.944</ele>
        <time>2019-03-03T23:38:56Z</time>
      </trkpt>
      <trkpt lat="41.528883" lon="-5.764772">
        <ele>698.035</ele>
        <time>2019-03-03T23:39:11Z</time>
      </trkpt>
      <trkpt lat="41.529636" lon="-5.764818">
        <ele>697.876</ele>
        <time>2019-03-03T23:39:31Z</time>
      </trkpt>
      <trkpt lat="41.530034" lon="-5.764911">
        <ele>697.575</ele>
        <time>2019-03-03T23:39:43Z</time>
      </trkpt>
      <trkpt lat="41.530675" lon="-5.764940">
        <ele>697.319</ele>
        <time>2019-03-03T23:40:01Z</time>
      </trkpt>
      <trkpt lat="41.531234" lon="-5.764966">
        <ele>696.932</ele>
        <time>2019-03-03T23:40:16Z</time>
      </trkpt>
      <trkpt lat="41.531953" lon="-5.765121">
        <ele>695.871</ele>
        <time>2019-03-03T23:40:34Z</time>
      </trkpt>
      <trkpt lat="41.532547" lon="-5.765372">
        <ele>696.030</ele>
        <time>2019-03-03T23:40:50Z</time>
      </trkpt>
      <trkpt lat="41.533056" lon="-5.765654">
        <ele>696.076</ele>
        <time>2019-03-03T23:41:05Z</time>
      </trkpt>
      <trkpt lat="41.533927" lon="-5.766190">
        <ele>695.790</ele>
        <time>2019-03-03T23:41:28Z</time>
      </trkpt>
      <trkpt lat="41.534664" lon="-5.766643">
        <ele>695.419</ele>
        <time>2019-03-03T23:41:48Z</time>
      </trkpt>
      <trkpt lat="41.535356" lon="-5.766936">
        <ele>695.708</ele>
        <time>2019-03-03T23:42:08Z</time>
      </trkpt>
      <trkpt lat="41.535813" lon="-5.767340">
        <ele>696.080</ele>
        <time>2019-03-03T23:42:25Z</time>
      </trkpt>
      <trkpt lat="41.536204" lon="-5.767800">
        <ele>697.041</ele>
        <time>2019-03-03T23:42:41Z</time>
      </trkpt>
      <trkpt lat="41.536700" lon="-5.768392">
        <ele>698.262</ele>
        <time>2019-03-03T23:43:00Z</time>
      </trkpt>
      <trkpt lat="41.537070" lon="-5.768812">
        <ele>698.371</ele>
        <time>2019-03-03T23:43:16Z</time>
      </trkpt>
      <trkpt lat="41.537070" lon="-5.768811">
        <ele>698.315</ele>
        <time>2019-03-03T23:43:17Z</time>
      </trkpt>
      <trkpt lat="41.537108" lon="-5.768862">
        <ele>698.328</ele>
        <time>2019-03-03T23:44:02Z</time>
      </trkpt>
      <trkpt lat="41.537472" lon="-5.769292">
        <ele>698.367</ele>
        <time>2019-03-03T23:44:17Z</time>
      </trkpt>
      <trkpt lat="41.537886" lon="-5.769781">
        <ele>698.396</ele>
        <time>2019-03-03T23:44:33Z</time>
      </trkpt>
      <trkpt lat="41.538394" lon="-5.770383">
        <ele>699.696</ele>
        <time>2019-03-03T23:44:52Z</time>
      </trkpt>
      <trkpt lat="41.538872" lon="-5.770955">
        <ele>699.931</ele>
        <time>2019-03-03T23:45:09Z</time>
      </trkpt>
      <trkpt lat="41.539277" lon="-5.771342">
        <ele>699.724</ele>
        <time>2019-03-03T23:45:22Z</time>
      </trkpt>
      <trkpt lat="41.539311" lon="-5.771321">
        <ele>699.708</ele>
        <time>2019-03-03T23:45:23Z</time>
      </trkpt>
      <trkpt lat="41.539338" lon="-5.771282">
        <ele>699.762</ele>
        <time>2019-03-03T23:45:24Z</time>
      </trkpt>
      <trkpt lat="41.539357" lon="-5.771238">
        <ele>699.773</ele>
        <time>2019-03-03T23:45:25Z</time>
      </trkpt>
      <trkpt lat="41.539375" lon="-5.771192">
        <ele>699.714</ele>
        <time>2019-03-03T23:45:26Z</time>
      </trkpt>
      <trkpt lat="41.539395" lon="-5.771150">
        <ele>699.713</ele>
        <time>2019-03-03T23:45:27Z</time>
      </trkpt>
      <trkpt lat="41.539418" lon="-5.771109">
        <ele>699.747</ele>
        <time>2019-03-03T23:45:28Z</time>
      </trkpt>
      <trkpt lat="41.539812" lon="-5.770365">
        <ele>699.910</ele>
        <time>2019-03-03T23:45:47Z</time>
      </trkpt>
      <trkpt lat="41.540164" lon="-5.769732">
        <ele>701.419</ele>
        <time>2019-03-03T23:46:03Z</time>
      </trkpt>
      <trkpt lat="41.540422" lon="-5.769215">
        <ele>701.158</ele>
        <time>2019-03-03T23:46:19Z</time>
      </trkpt>
      <trkpt lat="41.540659" lon="-5.768864">
        <ele>698.911</ele>
        <time>2019-03-03T23:46:29Z</time>
      </trkpt>
      <trkpt lat="41.540702" lon="-5.768859">
        <ele>698.721</ele>
        <time>2019-03-03T23:46:30Z</time>
      </trkpt>
      <trkpt lat="41.540747" lon="-5.768865">
        <ele>698.403</ele>
        <time>2019-03-03T23:46:31Z</time>
      </trkpt>
      <trkpt lat="41.540790" lon="-5.768882">
        <ele>698.108</ele>
        <time>2019-03-03T23:46:32Z</time>
      </trkpt>
      <trkpt lat="41.540833" lon="-5.768909">
        <ele>697.854</ele>
        <time>2019-03-03T23:46:33Z</time>
      </trkpt>
      <trkpt lat="41.540874" lon="-5.768943">
        <ele>697.635</ele>
        <time>2019-03-03T23:46:34Z</time>
      </trkpt>
      <trkpt lat="41.540916" lon="-5.768981">
        <ele>697.426</ele>
        <time>2019-03-03T23:46:35Z</time>
      </trkpt>
      <trkpt lat="41.541456" lon="-5.769439">
        <ele>693.295</ele>
        <time>2019-03-03T23:46:46Z</time>
      </trkpt>
      <trkpt lat="41.542023" lon="-5.769911">
        <ele>690.819</ele>
        <time>2019-03-03T23:46:56Z</time>
      </trkpt>
      <trkpt lat="41.542366" lon="-5.770185">
        <ele>689.622</ele>
        <time>2019-03-03T23:47:02Z</time>
      </trkpt>
      <trkpt lat="41.543102" lon="-5.770777">
        <ele>688.331</ele>
        <time>2019-03-03T23:47:17Z</time>
      </trkpt>
      <trkpt lat="41.543319" lon="-5.770984">
        <ele>687.730</ele>
        <time>2019-03-03T23:47:22Z</time>
      </trkpt>
      <trkpt lat="41.543573" lon="-5.771180">
        <ele>688.039</ele>
        <time>2019-03-03T23:47:28Z</time>
      </trkpt>
      <trkpt lat="41.543614" lon="-5.771192">
        <ele>688.201</ele>
        <time>2019-03-03T23:47:29Z</time>
      </trkpt>
      <trkpt lat="41.543654" lon="-5.771197">
        <ele>688.521</ele>
        <time>2019-03-03T23:47:30Z</time>
      </trkpt>
      <trkpt lat="41.543692" lon="-5.771192">
        <ele>688.508</ele>
        <time>2019-03-03T23:47:31Z</time>
      </trkpt>
      <trkpt lat="41.543725" lon="-5.771177">
        <ele>688.656</ele>
        <time>2019-03-03T23:47:32Z</time>
      </trkpt>
      <trkpt lat="41.543748" lon="-5.771154">
        <ele>688.627</ele>
        <time>2019-03-03T23:47:33Z</time>
      </trkpt>
      <trkpt lat="41.543765" lon="-5.771128">
        <ele>688.648</ele>
        <time>2019-03-03T23:47:34Z</time>
      </trkpt>
      <trkpt lat="41.543779" lon="-5.771098">
        <ele>688.777</ele>
        <time>2019-03-03T23:47:35Z</time>
      </trkpt>
      <trkpt lat="41.543791" lon="-5.771066">
        <ele>688.781</ele>
        <time>2019-03-03T23:47:36Z</time>
      </trkpt>
      <trkpt lat="41.544063" lon="-5.770524">
        <ele>689.824</ele>
        <time>2019-03-03T23:47:53Z</time>
      </trkpt>
      <trkpt lat="41.544220" lon="-5.770004">
        <ele>690.843</ele>
        <time>2019-03-03T23:48:08Z</time>
      </trkpt>
      <trkpt lat="41.544130" lon="-5.769304">
        <ele>691.892</ele>
        <time>2019-03-03T23:48:26Z</time>
      </trkpt>
      <trkpt lat="41.544146" lon="-5.768658">
        <ele>692.574</ele>
        <time>2019-03-03T23:48:42Z</time>
      </trkpt>
      <trkpt lat="41.544293" lon="-5.768005">
        <ele>695.556</ele>
        <time>2019-03-03T23:48:57Z</time>
      </trkpt>
      <trkpt lat="41.544467" lon="-5.767584">
        <ele>695.521</ele>
        <time>2019-03-03T23:49:10Z</time>
      </trkpt>
      <trkpt lat="41.544546" lon="-5.767522">
        <ele>695.108</ele>
        <time>2019-03-03T23:49:15Z</time>
      </trkpt>
      <trkpt lat="41.544565" lon="-5.767523">
        <ele>695.020</ele>
        <time>2019-03-03T23:49:16Z</time>
      </trkpt>
      <trkpt lat="41.544594" lon="-5.767530">
        <ele>694.981</ele>
        <time>2019-03-03T23:49:17Z</time>
      </trkpt>
      <trkpt lat="41.544628" lon="-5.767542">
        <ele>694.852</ele>
        <time>2019-03-03T23:49:18Z</time>
      </trkpt>
      <trkpt lat="41.544665" lon="-5.767559">
        <ele>694.771</ele>
        <time>2019-03-03T23:49:19Z</time>
      </trkpt>
      <trkpt lat="41.544704" lon="-5.767578">
        <ele>694.685</ele>
        <time>2019-03-03T23:49:20Z</time>
      </trkpt>
      <trkpt lat="41.544744" lon="-5.767600">
        <ele>694.528</ele>
        <time>2019-03-03T23:49:21Z</time>
      </trkpt>
      <trkpt lat="41.545259" lon="-5.767861">
        <ele>694.867</ele>
        <time>2019-03-03T23:49:36Z</time>
      </trkpt>
      <trkpt lat="41.545896" lon="-5.768405">
        <ele>695.616</ele>
        <time>2019-03-03T23:49:56Z</time>
      </trkpt>
      <trkpt lat="41.546405" lon="-5.768810">
        <ele>696.033</ele>
        <time>2019-03-03T23:50:12Z</time>
      </trkpt>
      <trkpt lat="41.546458" lon="-5.768841">
        <ele>696.123</ele>
        <time>2019-03-03T23:50:20Z</time>
      </trkpt>
      <trkpt lat="41.546495" lon="-5.768881">
        <ele>696.215</ele>
        <time>2019-03-03T23:50:50Z</time>
      </trkpt>
      <trkpt lat="41.546817" lon="-5.769139">
        <ele>696.808</ele>
        <time>2019-03-03T23:51:02Z</time>
      </trkpt>
      <trkpt lat="41.547323" lon="-5.769532">
        <ele>697.096</ele>
        <time>2019-03-03T23:51:19Z</time>
      </trkpt>
      <trkpt lat="41.547907" lon="-5.769931">
        <ele>697.257</ele>
        <time>2019-03-03T23:51:37Z</time>
      </trkpt>
      <trkpt lat="41.548379" lon="-5.770265">
        <ele>697.288</ele>
        <time>2019-03-03T23:51:53Z</time>
      </trkpt>
      <trkpt lat="41.548831" lon="-5.770656">
        <ele>697.457</ele>
        <time>2019-03-03T23:52:07Z</time>
      </trkpt>
      <trkpt lat="41.549154" lon="-5.770936">
        <ele>697.561</ele>
        <time>2019-03-03T23:52:20Z</time>
      </trkpt>
      <trkpt lat="41.549158" lon="-5.770937">
        <ele>697.514</ele>
        <time>2019-03-03T23:52:23Z</time>
      </trkpt>
      <trkpt lat="41.549221" lon="-5.770980">
        <ele>697.513</ele>
        <time>2019-03-03T23:52:44Z</time>
      </trkpt>
      <trkpt lat="41.549241" lon="-5.770993">
        <ele>697.552</ele>
        <time>2019-03-03T23:52:45Z</time>
      </trkpt>
      <trkpt lat="41.549264" lon="-5.771008">
        <ele>697.586</ele>
        <time>2019-03-03T23:52:46Z</time>
      </trkpt>
      <trkpt lat="41.549291" lon="-5.771030">
        <ele>697.560</ele>
        <time>2019-03-03T23:52:47Z</time>
      </trkpt>
      <trkpt lat="41.549318" lon="-5.771054">
        <ele>697.526</ele>
        <time>2019-03-03T23:52:48Z</time>
      </trkpt>
      <trkpt lat="41.549704" lon="-5.771403">
        <ele>697.708</ele>
        <time>2019-03-03T23:53:01Z</time>
      </trkpt>
      <trkpt lat="41.550239" lon="-5.771884">
        <ele>698.181</ele>
        <time>2019-03-03T23:53:19Z</time>
      </trkpt>
      <trkpt lat="41.550709" lon="-5.772261">
        <ele>699.432</ele>
        <time>2019-03-03T23:53:34Z</time>
      </trkpt>
      <trkpt lat="41.551196" lon="-5.772670">
        <ele>699.913</ele>
        <time>2019-03-03T23:53:49Z</time>
      </trkpt>
      <trkpt lat="41.551765" lon="-5.773044">
        <ele>699.342</ele>
        <time>2019-03-03T23:54:06Z</time>
      </trkpt>
      <trkpt lat="41.552202" lon="-5.773287">
        <ele>699.176</ele>
        <time>2019-03-03T23:54:20Z</time>
      </trkpt>
      <trkpt lat="41.552638" lon="-5.773547">
        <ele>699.969</ele>
        <time>2019-03-03T23:54:34Z</time>
      </trkpt>
      <trkpt lat="41.552996" lon="-5.773684">
        <ele>700.658</ele>
        <time>2019-03-03T23:54:45Z</time>
      </trkpt>
      <trkpt lat="41.553443" lon="-5.773932">
        <ele>700.617</ele>
        <time>2019-03-03T23:54:59Z</time>
      </trkpt>
      <trkpt lat="41.554021" lon="-5.774208">
        <ele>701.121</ele>
        <time>2019-03-03T23:55:16Z</time>
      </trkpt>
      <trkpt lat="41.554626" lon="-5.774398">
        <ele>701.741</ele>
        <time>2019-03-03T23:55:35Z</time>
      </trkpt>
      <trkpt lat="41.555040" lon="-5.774556">
        <ele>702.605</ele>
        <time>2019-03-03T23:55:50Z</time>
      </trkpt>
      <trkpt lat="41.555563" lon="-5.774726">
        <ele>704.408</ele>
        <time>2019-03-03T23:56:09Z</time>
      </trkpt>
      <trkpt lat="41.555906" lon="-5.774843">
        <ele>706.495</ele>
        <time>2019-03-03T23:56:27Z</time>
      </trkpt>
      <trkpt lat="41.556218" lon="-5.774958">
        <ele>708.876</ele>
        <time>2019-03-03T23:56:46Z</time>
      </trkpt>
      <trkpt lat="41.556503" lon="-5.775107">
        <ele>710.677</ele>
        <time>2019-03-03T23:57:05Z</time>
      </trkpt>
      <trkpt lat="41.556757" lon="-5.775277">
        <ele>711.486</ele>
        <time>2019-03-03T23:57:21Z</time>
      </trkpt>
      <trkpt lat="41.557093" lon="-5.775574">
        <ele>711.580</ele>
        <time>2019-03-03T23:57:36Z</time>
      </trkpt>
      <trkpt lat="41.557608" lon="-5.776037">
        <ele>711.073</ele>
        <time>2019-03-03T23:57:53Z</time>
      </trkpt>
      <trkpt lat="41.558113" lon="-5.776485">
        <ele>710.712</ele>
        <time>2019-03-03T23:58:11Z</time>
      </trkpt>
      <trkpt lat="41.558620" lon="-5.776935">
        <ele>710.821</ele>
        <time>2019-03-03T23:58:31Z</time>
      </trkpt>
      <trkpt lat="41.558985" lon="-5.777279">
        <ele>711.016</ele>
        <time>2019-03-03T23:58:47Z</time>
      </trkpt>
      <trkpt lat="41.559376" lon="-5.777629">
        <ele>711.876</ele>
        <time>2019-03-03T23:59:06Z</time>
      </trkpt>
      <trkpt lat="41.559405" lon="-5.777654">
        <ele>711.913</ele>
        <time>2019-03-03T23:59:12Z</time>
      </trkpt>
      <trkpt lat="41.559336" lon="-5.777585">
        <ele>712.108</ele>
        <time>2019-03-03T23:59:25Z</time>
      </trkpt>
      <trkpt lat="41.559312" lon="-5.777562">
        <ele>712.054</ele>
        <time>2019-03-03T23:59:26Z</time>
      </trkpt>
      <trkpt lat="41.559286" lon="-5.777532">
        <ele>711.955</ele>
        <time>2019-03-03T23:59:27Z</time>
      </trkpt>
      <trkpt lat="41.559258" lon="-5.777499">
        <ele>711.876</ele>
        <time>2019-03-03T23:59:28Z</time>
      </trkpt>
      <trkpt lat="41.559225" lon="-5.777469">
        <ele>711.735</ele>
        <time>2019-03-03T23:59:29Z</time>
      </trkpt>
      <trkpt lat="41.559191" lon="-5.777442">
        <ele>711.699</ele>
        <time>2019-03-03T23:59:30Z</time>
      </trkpt>
      <trkpt lat="41.559158" lon="-5.777416">
        <ele>711.592</ele>
        <time>2019-03-03T23:59:31Z</time>
      </trkpt>
      <trkpt lat="41.558703" lon="-5.777044">
        <ele>710.841</ele>
        <time>2019-03-03T23:59:45Z</time>
      </trkpt>
      <trkpt lat="41.558136" lon="-5.776541">
        <ele>710.720</ele>
        <time>2019-03-04T00:00:01Z</time>
      </trkpt>
      <trkpt lat="41.558082" lon="-5.776210">
        <ele>710.771</ele>
        <time>2019-03-04T00:00:09Z</time>
      </trkpt>
      <trkpt lat="41.558478" lon="-5.775479">
        <ele>709.741</ele>
        <time>2019-03-04T00:00:26Z</time>
      </trkpt>
      <trkpt lat="41.558798" lon="-5.775001">
        <ele>709.415</ele>
        <time>2019-03-04T00:00:39Z</time>
      </trkpt>
      <trkpt lat="41.559160" lon="-5.774631">
        <ele>709.908</ele>
        <time>2019-03-04T00:00:53Z</time>
      </trkpt>
      <trkpt lat="41.559556" lon="-5.774807">
        <ele>711.570</ele>
        <time>2019-03-04T00:01:08Z</time>
      </trkpt>
      <trkpt lat="41.559996" lon="-5.774998">
        <ele>712.711</ele>
        <time>2019-03-04T00:01:27Z</time>
      </trkpt>
      <trkpt lat="41.560454" lon="-5.775190">
        <ele>714.272</ele>
        <time>2019-03-04T00:01:46Z</time>
      </trkpt>
      <trkpt lat="41.560952" lon="-5.775402">
        <ele>714.611</ele>
        <time>2019-03-04T00:02:07Z</time>
      </trkpt>
      <trkpt lat="41.561453" lon="-5.775600">
        <ele>715.975</ele>
        <time>2019-03-04T00:02:28Z</time>
      </trkpt>
      <trkpt lat="41.561743" lon="-5.775726">
        <ele>717.048</ele>
        <time>2019-03-04T00:02:42Z</time>
      </trkpt>
      <trkpt lat="41.562290" lon="-5.775948">
        <ele>719.437</ele>
        <time>2019-03-04T00:03:05Z</time>
      </trkpt>
      <trkpt lat="41.562782" lon="-5.776160">
        <ele>721.526</ele>
        <time>2019-03-04T00:03:27Z</time>
      </trkpt>
      <trkpt lat="41.563200" lon="-5.776331">
        <ele>723.923</ele>
        <time>2019-03-04T00:03:46Z</time>
      </trkpt>
      <trkpt lat="41.563669" lon="-5.776528">
        <ele>726.183</ele>
        <time>2019-03-04T00:04:09Z</time>
      </trkpt>
      <trkpt lat="41.564120" lon="-5.776717">
        <ele>728.411</ele>
        <time>2019-03-04T00:04:31Z</time>
      </trkpt>
      <trkpt lat="41.564577" lon="-5.776893">
        <ele>729.508</ele>
        <time>2019-03-04T00:04:53Z</time>
      </trkpt>
      <trkpt lat="41.565147" lon="-5.777125">
        <ele>729.625</ele>
        <time>2019-03-04T00:05:17Z</time>
      </trkpt>
      <trkpt lat="41.565573" lon="-5.777310">
        <ele>729.616</ele>
        <time>2019-03-04T00:05:33Z</time>
      </trkpt>
      <trkpt lat="41.565987" lon="-5.777474">
        <ele>729.147</ele>
        <time>2019-03-04T00:05:48Z</time>
      </trkpt>
      <trkpt lat="41.566601" lon="-5.777733">
        <ele>727.026</ele>
        <time>2019-03-04T00:06:05Z</time>
      </trkpt>
      <trkpt lat="41.567174" lon="-5.777983">
        <ele>723.670</ele>
        <time>2019-03-04T00:06:21Z</time>
      </trkpt>
      <trkpt lat="41.567618" lon="-5.778171">
        <ele>720.463</ele>
        <time>2019-03-04T00:06:30Z</time>
      </trkpt>
      <trkpt lat="41.567891" lon="-5.778285">
        <ele>718.042</ele>
        <time>2019-03-04T00:06:38Z</time>
      </trkpt>
      <trkpt lat="41.568244" lon="-5.778412">
        <ele>714.941</ele>
        <time>2019-03-04T00:06:49Z</time>
      </trkpt>
      <trkpt lat="41.568446" lon="-5.778491">
        <ele>715.169</ele>
        <time>2019-03-04T00:06:55Z</time>
      </trkpt>
      <trkpt lat="41.568878" lon="-5.778502">
        <ele>716.504</ele>
        <time>2019-03-04T00:07:09Z</time>
      </trkpt>
      <trkpt lat="41.569376" lon="-5.778513">
        <ele>718.324</ele>
        <time>2019-03-04T00:07:29Z</time>
      </trkpt>
      <trkpt lat="41.569716" lon="-5.778527">
        <ele>719.908</ele>
        <time>2019-03-04T00:07:46Z</time>
      </trkpt>
      <trkpt lat="41.570081" lon="-5.778543">
        <ele>720.649</ele>
        <time>2019-03-04T00:08:06Z</time>
      </trkpt>
      <trkpt lat="41.570510" lon="-5.778571">
        <ele>720.580</ele>
        <time>2019-03-04T00:08:26Z</time>
      </trkpt>
      <trkpt lat="41.571017" lon="-5.778595">
        <ele>718.911</ele>
        <time>2019-03-04T00:08:42Z</time>
      </trkpt>
      <trkpt lat="41.571819" lon="-5.778634">
        <ele>716.650</ele>
        <time>2019-03-04T00:09:01Z</time>
      </trkpt>
      <trkpt lat="41.572431" lon="-5.778707">
        <ele>717.814</ele>
        <time>2019-03-04T00:09:16Z</time>
      </trkpt>
      <trkpt lat="41.572917" lon="-5.778877">
        <ele>720.287</ele>
        <time>2019-03-04T00:09:36Z</time>
      </trkpt>
      <trkpt lat="41.573296" lon="-5.779015">
        <ele>721.476</ele>
        <time>2019-03-04T00:09:56Z</time>
      </trkpt>
      <trkpt lat="41.573702" lon="-5.779148">
        <ele>720.935</ele>
        <time>2019-03-04T00:10:15Z</time>
      </trkpt>
      <trkpt lat="41.574158" lon="-5.779316">
        <ele>719.863</ele>
        <time>2019-03-04T00:10:29Z</time>
      </trkpt>
      <trkpt lat="41.574790" lon="-5.779494">
        <ele>719.544</ele>
        <time>2019-03-04T00:10:45Z</time>
      </trkpt>
      <trkpt lat="41.575293" lon="-5.779682">
        <ele>721.418</ele>
        <time>2019-03-04T00:11:03Z</time>
      </trkpt>
      <trkpt lat="41.575817" lon="-5.779871">
        <ele>723.408</ele>
        <time>2019-03-04T00:11:24Z</time>
      </trkpt>
      <trkpt lat="41.576338" lon="-5.780025">
        <ele>723.819</ele>
        <time>2019-03-04T00:11:42Z</time>
      </trkpt>
      <trkpt lat="41.576885" lon="-5.780213">
        <ele>723.610</ele>
        <time>2019-03-04T00:12:00Z</time>
      </trkpt>
      <trkpt lat="41.577612" lon="-5.780482">
        <ele>723.441</ele>
        <time>2019-03-04T00:12:23Z</time>
      </trkpt>
      <trkpt lat="41.577728" lon="-5.780525">
        <ele>723.190</ele>
        <time>2019-03-04T00:12:26Z</time>
      </trkpt>
      <trkpt lat="41.578472" lon="-5.780800">
        <ele>719.554</ele>
        <time>2019-03-04T00:12:42Z</time>
      </trkpt>
      <trkpt lat="41.579213" lon="-5.781069">
        <ele>718.237</ele>
        <time>2019-03-04T00:12:57Z</time>
      </trkpt>
      <trkpt lat="41.579423" lon="-5.781118">
        <ele>718.726</ele>
        <time>2019-03-04T00:13:08Z</time>
      </trkpt>
      <trkpt lat="41.579507" lon="-5.781136">
        <ele>719.025</ele>
        <time>2019-03-04T00:19:21Z</time>
      </trkpt>
      <trkpt lat="41.579532" lon="-5.781150">
        <ele>719.184</ele>
        <time>2019-03-04T00:19:22Z</time>
      </trkpt>
      <trkpt lat="41.579557" lon="-5.781167">
        <ele>719.207</ele>
        <time>2019-03-04T00:19:23Z</time>
      </trkpt>
      <trkpt lat="41.579581" lon="-5.781184">
        <ele>719.317</ele>
        <time>2019-03-04T00:19:24Z</time>
      </trkpt>
      <trkpt lat="41.579948" lon="-5.781309">
        <ele>720.508</ele>
        <time>2019-03-04T00:19:39Z</time>
      </trkpt>
      <trkpt lat="41.580450" lon="-5.781483">
        <ele>722.261</ele>
        <time>2019-03-04T00:20:00Z</time>
      </trkpt>
      <trkpt lat="41.581006" lon="-5.781683">
        <ele>724.322</ele>
        <time>2019-03-04T00:20:23Z</time>
      </trkpt>
      <trkpt lat="41.581375" lon="-5.781804">
        <ele>724.213</ele>
        <time>2019-03-04T00:20:37Z</time>
      </trkpt>
      <trkpt lat="41.581377" lon="-5.781807">
        <ele>724.252</ele>
        <time>2019-03-04T00:20:41Z</time>
      </trkpt>
      <trkpt lat="41.581436" lon="-5.781826">
        <ele>724.256</ele>
        <time>2019-03-04T00:20:48Z</time>
      </trkpt>
      <trkpt lat="41.582016" lon="-5.782022">
        <ele>723.559</ele>
        <time>2019-03-04T00:21:03Z</time>
      </trkpt>
      <trkpt lat="41.582916" lon="-5.782327">
        <ele>720.868</ele>
        <time>2019-03-04T00:21:22Z</time>
      </trkpt>
      <trkpt lat="41.583597" lon="-5.782573">
        <ele>717.797</ele>
        <time>2019-03-04T00:21:36Z</time>
      </trkpt>
      <trkpt lat="41.584231" lon="-5.782794">
        <ele>716.727</ele>
        <time>2019-03-04T00:21:52Z</time>
      </trkpt>
      <trkpt lat="41.584641" lon="-5.782945">
        <ele>718.168</ele>
        <time>2019-03-04T00:22:07Z</time>
      </trkpt>
      <trkpt lat="41.585196" lon="-5.783130">
        <ele>720.214</ele>
        <time>2019-03-04T00:22:29Z</time>
      </trkpt>
      <trkpt lat="41.585756" lon="-5.783318">
        <ele>721.108</ele>
        <time>2019-03-04T00:22:49Z</time>
      </trkpt>
      <trkpt lat="41.586386" lon="-5.783527">
        <ele>720.075</ele>
        <time>2019-03-04T00:23:05Z</time>
      </trkpt>
      <trkpt lat="41.587059" lon="-5.783775">
        <ele>718.776</ele>
        <time>2019-03-04T00:23:20Z</time>
      </trkpt>
      <trkpt lat="41.587600" lon="-5.783974">
        <ele>719.977</ele>
        <time>2019-03-04T00:23:40Z</time>
      </trkpt>
      <trkpt lat="41.588268" lon="-5.784192">
        <ele>723.146</ele>
        <time>2019-03-04T00:24:07Z</time>
      </trkpt>
      <trkpt lat="41.588818" lon="-5.784370">
        <ele>723.110</ele>
        <time>2019-03-04T00:24:25Z</time>
      </trkpt>
      <trkpt lat="41.589211" lon="-5.784549">
        <ele>723.163</ele>
        <time>2019-03-04T00:24:39Z</time>
      </trkpt>
      <trkpt lat="41.589482" lon="-5.784944">
        <ele>724.142</ele>
        <time>2019-03-04T00:24:53Z</time>
      </trkpt>
      <trkpt lat="41.589843" lon="-5.785620">
        <ele>725.651</ele>
        <time>2019-03-04T00:25:13Z</time>
      </trkpt>
      <trkpt lat="41.590287" lon="-5.785963">
        <ele>725.795</ele>
        <time>2019-03-04T00:25:27Z</time>
      </trkpt>
      <trkpt lat="41.591074" lon="-5.786314">
        <ele>723.749</ele>
        <time>2019-03-04T00:25:45Z</time>
      </trkpt>
      <trkpt lat="41.591976" lon="-5.786728">
        <ele>720.323</ele>
        <time>2019-03-04T00:26:05Z</time>
      </trkpt>
      <trkpt lat="41.592623" lon="-5.787019">
        <ele>718.908</ele>
        <time>2019-03-04T00:26:21Z</time>
      </trkpt>
      <trkpt lat="41.593287" lon="-5.787329">
        <ele>719.222</ele>
        <time>2019-03-04T00:26:40Z</time>
      </trkpt>
      <trkpt lat="41.593864" lon="-5.787589">
        <ele>720.023</ele>
        <time>2019-03-04T00:27:01Z</time>
      </trkpt>
      <trkpt lat="41.594461" lon="-5.787870">
        <ele>721.484</ele>
        <time>2019-03-04T00:27:22Z</time>
      </trkpt>
      <trkpt lat="41.595068" lon="-5.788151">
        <ele>723.933</ele>
        <time>2019-03-04T00:27:46Z</time>
      </trkpt>
      <trkpt lat="41.595625" lon="-5.788401">
        <ele>724.747</ele>
        <time>2019-03-04T00:28:05Z</time>
      </trkpt>
      <trkpt lat="41.595716" lon="-5.788438">
        <ele>724.630</ele>
        <time>2019-03-04T00:28:13Z</time>
      </trkpt>
      <trkpt lat="41.595794" lon="-5.788485">
        <ele>724.549</ele>
        <time>2019-03-04T00:28:41Z</time>
      </trkpt>
      <trkpt lat="41.596452" lon="-5.788779">
        <ele>722.168</ele>
        <time>2019-03-04T00:28:58Z</time>
      </trkpt>
      <trkpt lat="41.597189" lon="-5.789118">
        <ele>720.365</ele>
        <time>2019-03-04T00:29:16Z</time>
      </trkpt>
      <trkpt lat="41.597899" lon="-5.789432">
        <ele>720.368</ele>
        <time>2019-03-04T00:29:34Z</time>
      </trkpt>
      <trkpt lat="41.598294" lon="-5.789626">
        <ele>721.014</ele>
        <time>2019-03-04T00:29:49Z</time>
      </trkpt>
      <trkpt lat="41.598672" lon="-5.789645">
        <ele>721.708</ele>
        <time>2019-03-04T00:30:02Z</time>
      </trkpt>
      <trkpt lat="41.599185" lon="-5.789481">
        <ele>723.029</ele>
        <time>2019-03-04T00:30:19Z</time>
      </trkpt>
      <trkpt lat="41.599404" lon="-5.789076">
        <ele>724.150</ele>
        <time>2019-03-04T00:30:31Z</time>
      </trkpt>
      <trkpt lat="41.599635" lon="-5.788227">
        <ele>723.941</ele>
        <time>2019-03-04T00:30:48Z</time>
      </trkpt>
      <trkpt lat="41.599726" lon="-5.787881">
        <ele>722.970</ele>
        <time>2019-03-04T00:30:54Z</time>
      </trkpt>
      <trkpt lat="41.599736" lon="-5.787827">
        <ele>722.734</ele>
        <time>2019-03-04T00:30:55Z</time>
      </trkpt>
      <trkpt lat="41.599797" lon="-5.787175">
        <ele>721.527</ele>
        <time>2019-03-04T00:31:08Z</time>
      </trkpt>
      <trkpt lat="41.600011" lon="-5.787171">
        <ele>721.986</ele>
        <time>2019-03-04T00:31:17Z</time>
      </trkpt>
      <trkpt lat="41.599944" lon="-5.787577">
        <ele>723.095</ele>
        <time>2019-03-04T00:31:32Z</time>
      </trkpt>
      <trkpt lat="41.599858" lon="-5.788043">
        <ele>724.141</ele>
        <time>2019-03-04T00:31:53Z</time>
      </trkpt>
      <trkpt lat="41.599790" lon="-5.788356">
        <ele>724.781</ele>
        <time>2019-03-04T00:32:10Z</time>
      </trkpt>
      <trkpt lat="41.599700" lon="-5.788824">
        <ele>724.809</ele>
        <time>2019-03-04T00:32:34Z</time>
      </trkpt>
      <trkpt lat="41.599691" lon="-5.789149">
        <ele>724.408</ele>
        <time>2019-03-04T00:32:51Z</time>
      </trkpt>
      <trkpt lat="41.599734" lon="-5.789451">
        <ele>724.747</ele>
        <time>2019-03-04T00:33:05Z</time>
      </trkpt>
      <trkpt lat="41.599810" lon="-5.789901">
        <ele>724.358</ele>
        <time>2019-03-04T00:33:21Z</time>
      </trkpt>
      <trkpt lat="41.599820" lon="-5.789934">
        <ele>724.259</ele>
        <time>2019-03-04T00:33:26Z</time>
      </trkpt>
      <trkpt lat="41.599821" lon="-5.789976">
        <ele>724.128</ele>
        <time>2019-03-04T00:35:35Z</time>
      </trkpt>
      <trkpt lat="41.599817" lon="-5.790075">
        <ele>724.292</ele>
        <time>2019-03-04T00:35:40Z</time>
      </trkpt>
      <trkpt lat="41.599628" lon="-5.790543">
        <ele>724.435</ele>
        <time>2019-03-04T00:35:52Z</time>
      </trkpt>
      <trkpt lat="41.599372" lon="-5.790956">
        <ele>724.344</ele>
        <time>2019-03-04T00:36:03Z</time>
      </trkpt>
      <trkpt lat="41.599288" lon="-5.791448">
        <ele>723.763</ele>
        <time>2019-03-04T00:36:12Z</time>
      </trkpt>
      <trkpt lat="41.599358" lon="-5.791631">
        <ele>723.075</ele>
        <time>2019-03-04T00:36:19Z</time>
      </trkpt>
      <trkpt lat="41.599599" lon="-5.791294">
        <ele>722.928</ele>
        <time>2019-03-04T00:36:30Z</time>
      </trkpt>
      <trkpt lat="41.599592" lon="-5.791207">
        <ele>723.020</ele>
        <time>2019-03-04T00:36:32Z</time>
      </trkpt>
      <trkpt lat="41.599794" lon="-5.790750">
        <ele>723.008</ele>
        <time>2019-03-04T00:36:45Z</time>
      </trkpt>
      <trkpt lat="41.600029" lon="-5.790356">
        <ele>723.210</ele>
        <time>2019-03-04T00:36:57Z</time>
      </trkpt>
      <trkpt lat="41.600360" lon="-5.790278">
        <ele>723.441</ele>
        <time>2019-03-04T00:37:07Z</time>
      </trkpt>
      <trkpt lat="41.600907" lon="-5.790482">
        <ele>723.862</ele>
        <time>2019-03-04T00:37:24Z</time>
      </trkpt>
      <trkpt lat="41.601542" lon="-5.790695">
        <ele>724.221</ele>
        <time>2019-03-04T00:37:43Z</time>
      </trkpt>
      <trkpt lat="41.602102" lon="-5.790896">
        <ele>724.635</ele>
        <time>2019-03-04T00:38:00Z</time>
      </trkpt>
      <trkpt lat="41.602882" lon="-5.791166">
        <ele>724.878</ele>
        <time>2019-03-04T00:38:21Z</time>
      </trkpt>
      <trkpt lat="41.603536" lon="-5.791384">
        <ele>724.657</ele>
        <time>2019-03-04T00:38:37Z</time>
      </trkpt>
      <trkpt lat="41.604611" lon="-5.791747">
        <ele>723.656</ele>
        <time>2019-03-04T00:38:58Z</time>
      </trkpt>
      <trkpt lat="41.605814" lon="-5.792143">
        <ele>722.478</ele>
        <time>2019-03-04T00:39:23Z</time>
      </trkpt>
      <trkpt lat="41.606675" lon="-5.792444">
        <ele>721.633</ele>
        <time>2019-03-04T00:39:42Z</time>
      </trkpt>
      <trkpt lat="41.607560" lon="-5.792755">
        <ele>721.726</ele>
        <time>2019-03-04T00:40:03Z</time>
      </trkpt>
      <trkpt lat="41.608390" lon="-5.793040">
        <ele>722.108</ele>
        <time>2019-03-04T00:40:25Z</time>
      </trkpt>
      <trkpt lat="41.609323" lon="-5.793402">
        <ele>722.280</ele>
        <time>2019-03-04T00:40:50Z</time>
      </trkpt>
      <trkpt lat="41.610166" lon="-5.793697">
        <ele>721.291</ele>
        <time>2019-03-04T00:41:08Z</time>
      </trkpt>
      <trkpt lat="41.611004" lon="-5.793987">
        <ele>720.122</ele>
        <time>2019-03-04T00:41:26Z</time>
      </trkpt>
      <trkpt lat="41.611872" lon="-5.794276">
        <ele>719.431</ele>
        <time>2019-03-04T00:41:47Z</time>
      </trkpt>
      <trkpt lat="41.612532" lon="-5.794495">
        <ele>720.245</ele>
        <time>2019-03-04T00:42:04Z</time>
      </trkpt>
      <trkpt lat="41.613077" lon="-5.794695">
        <ele>719.948</ele>
        <time>2019-03-04T00:42:19Z</time>
      </trkpt>
      <trkpt lat="41.613763" lon="-5.794925">
        <ele>717.737</ele>
        <time>2019-03-04T00:42:33Z</time>
      </trkpt>
      <trkpt lat="41.614867" lon="-5.795297">
        <ele>714.416</ele>
        <time>2019-03-04T00:42:52Z</time>
      </trkpt>
      <trkpt lat="41.615778" lon="-5.795612">
        <ele>712.489</ele>
        <time>2019-03-04T00:43:09Z</time>
      </trkpt>
      <trkpt lat="41.616571" lon="-5.795903">
        <ele>712.206</ele>
        <time>2019-03-04T00:43:25Z</time>
      </trkpt>
      <trkpt lat="41.617282" lon="-5.796147">
        <ele>711.426</ele>
        <time>2019-03-04T00:43:41Z</time>
      </trkpt>
      <trkpt lat="41.617563" lon="-5.796246">
        <ele>712.708</ele>
        <time>2019-03-04T00:43:55Z</time>
      </trkpt>
      <trkpt lat="41.617562" lon="-5.796245">
        <ele>712.741</ele>
        <time>2019-03-04T00:43:56Z</time>
      </trkpt>
      <trkpt lat="41.617603" lon="-5.796242">
        <ele>712.972</ele>
        <time>2019-03-04T00:44:24Z</time>
      </trkpt>
      <trkpt lat="41.618005" lon="-5.796376">
        <ele>715.113</ele>
        <time>2019-03-04T00:44:42Z</time>
      </trkpt>
      <trkpt lat="41.618243" lon="-5.796470">
        <ele>715.032</ele>
        <time>2019-03-04T00:44:51Z</time>
      </trkpt>
      <trkpt lat="41.618255" lon="-5.796489">
        <ele>715.046</ele>
        <time>2019-03-04T00:44:52Z</time>
      </trkpt>
      <trkpt lat="41.618262" lon="-5.796500">
        <ele>715.099</ele>
        <time>2019-03-04T00:44:56Z</time>
      </trkpt>
      <trkpt lat="41.618307" lon="-5.796509">
        <ele>714.988</ele>
        <time>2019-03-04T00:45:27Z</time>
      </trkpt>
      <trkpt lat="41.618331" lon="-5.796508">
        <ele>714.937</ele>
        <time>2019-03-04T00:45:28Z</time>
      </trkpt>
      <trkpt lat="41.618357" lon="-5.796516">
        <ele>714.989</ele>
        <time>2019-03-04T00:45:29Z</time>
      </trkpt>
      <trkpt lat="41.618386" lon="-5.796528">
        <ele>714.806</ele>
        <time>2019-03-04T00:45:30Z</time>
      </trkpt>
      <trkpt lat="41.618931" lon="-5.796708">
        <ele>714.026</ele>
        <time>2019-03-04T00:45:43Z</time>
      </trkpt>
      <trkpt lat="41.619039" lon="-5.796732">
        <ele>714.008</ele>
        <time>2019-03-04T00:45:45Z</time>
      </trkpt>
      <trkpt lat="41.620012" lon="-5.797064">
        <ele>713.811</ele>
        <time>2019-03-04T00:46:02Z</time>
      </trkpt>
      <trkpt lat="41.620719" lon="-5.797299">
        <ele>712.982</ele>
        <time>2019-03-04T00:46:19Z</time>
      </trkpt>
      <trkpt lat="41.621438" lon="-5.797592">
        <ele>711.363</ele>
        <time>2019-03-04T00:46:33Z</time>
      </trkpt>
      <trkpt lat="41.621484" lon="-5.797634">
        <ele>711.272</ele>
        <time>2019-03-04T00:46:34Z</time>
      </trkpt>
      <trkpt lat="41.621525" lon="-5.797680">
        <ele>711.186</ele>
        <time>2019-03-04T00:46:35Z</time>
      </trkpt>
      <trkpt lat="41.621562" lon="-5.797731">
        <ele>711.099</ele>
        <time>2019-03-04T00:46:36Z</time>
      </trkpt>
      <trkpt lat="41.621595" lon="-5.797787">
        <ele>710.968</ele>
        <time>2019-03-04T00:46:37Z</time>
      </trkpt>
      <trkpt lat="41.621627" lon="-5.797850">
        <ele>710.867</ele>
        <time>2019-03-04T00:46:38Z</time>
      </trkpt>
      <trkpt lat="41.622172" lon="-5.799000">
        <ele>708.345</ele>
        <time>2019-03-04T00:46:53Z</time>
      </trkpt>
      <trkpt lat="41.622882" lon="-5.800464">
        <ele>706.147</ele>
        <time>2019-03-04T00:47:15Z</time>
      </trkpt>
      <trkpt lat="41.623137" lon="-5.800784">
        <ele>705.611</ele>
        <time>2019-03-04T00:47:26Z</time>
      </trkpt>
      <trkpt lat="41.623509" lon="-5.800429">
        <ele>704.808</ele>
        <time>2019-03-04T00:47:38Z</time>
      </trkpt>
      <trkpt lat="41.624073" lon="-5.799931">
        <ele>704.777</ele>
        <time>2019-03-04T00:47:56Z</time>
      </trkpt>
      <trkpt lat="41.624537" lon="-5.799532">
        <ele>705.618</ele>
        <time>2019-03-04T00:48:15Z</time>
      </trkpt>
      <trkpt lat="41.625183" lon="-5.798966">
        <ele>706.059</ele>
        <time>2019-03-04T00:48:38Z</time>
      </trkpt>
      <trkpt lat="41.625752" lon="-5.798475">
        <ele>705.928</ele>
        <time>2019-03-04T00:48:59Z</time>
      </trkpt>
      <trkpt lat="41.626180" lon="-5.798100">
        <ele>705.952</ele>
        <time>2019-03-04T00:49:15Z</time>
      </trkpt>
      <trkpt lat="41.626551" lon="-5.797849">
        <ele>706.415</ele>
        <time>2019-03-04T00:49:30Z</time>
      </trkpt>
      <trkpt lat="41.627032" lon="-5.797928">
        <ele>707.784</ele>
        <time>2019-03-04T00:49:48Z</time>
      </trkpt>
      <trkpt lat="41.627757" lon="-5.798179">
        <ele>706.333</ele>
        <time>2019-03-04T00:50:04Z</time>
      </trkpt>
      <trkpt lat="41.628579" lon="-5.798455">
        <ele>704.477</ele>
        <time>2019-03-04T00:50:21Z</time>
      </trkpt>
      <trkpt lat="41.629378" lon="-5.798732">
        <ele>703.461</ele>
        <time>2019-03-04T00:50:38Z</time>
      </trkpt>
      <trkpt lat="41.630094" lon="-5.798982">
        <ele>702.127</ele>
        <time>2019-03-04T00:50:54Z</time>
      </trkpt>
      <trkpt lat="41.630988" lon="-5.799281">
        <ele>701.208</ele>
        <time>2019-03-04T00:51:14Z</time>
      </trkpt>
      <trkpt lat="41.631755" lon="-5.799554">
        <ele>701.120</ele>
        <time>2019-03-04T00:51:33Z</time>
      </trkpt>
      <trkpt lat="41.632263" lon="-5.799754">
        <ele>701.191</ele>
        <time>2019-03-04T00:51:48Z</time>
      </trkpt>
      <trkpt lat="41.632787" lon="-5.799903">
        <ele>701.192</ele>
        <time>2019-03-04T00:52:03Z</time>
      </trkpt>
      <trkpt lat="41.633261" lon="-5.800102">
        <ele>701.481</ele>
        <time>2019-03-04T00:52:19Z</time>
      </trkpt>
      <trkpt lat="41.633869" lon="-5.800311">
        <ele>702.795</ele>
        <time>2019-03-04T00:52:39Z</time>
      </trkpt>
      <trkpt lat="41.634482" lon="-5.800517">
        <ele>704.638</ele>
        <time>2019-03-04T00:53:00Z</time>
      </trkpt>
      <trkpt lat="41.635097" lon="-5.800726">
        <ele>704.747</ele>
        <time>2019-03-04T00:53:19Z</time>
      </trkpt>
      <trkpt lat="41.635440" lon="-5.800992">
        <ele>704.066</ele>
        <time>2019-03-04T00:53:32Z</time>
      </trkpt>
      <trkpt lat="41.635662" lon="-5.801304">
        <ele>703.667</ele>
        <time>2019-03-04T00:53:39Z</time>
      </trkpt>
      <trkpt lat="41.636009" lon="-5.801824">
        <ele>703.681</ele>
        <time>2019-03-04T00:53:53Z</time>
      </trkpt>
      <trkpt lat="41.636061" lon="-5.801911">
        <ele>703.519</ele>
        <time>2019-03-04T00:53:55Z</time>
      </trkpt>
      <trkpt lat="41.636106" lon="-5.802004">
        <ele>703.508</ele>
        <time>2019-03-04T00:53:57Z</time>
      </trkpt>
      <trkpt lat="41.636498" lon="-5.802520">
        <ele>702.099</ele>
        <time>2019-03-04T00:54:12Z</time>
      </trkpt>
      <trkpt lat="41.637008" lon="-5.803284">
        <ele>699.750</ele>
        <time>2019-03-04T00:54:28Z</time>
      </trkpt>
      <trkpt lat="41.637067" lon="-5.803392">
        <ele>699.421</ele>
        <time>2019-03-04T00:54:30Z</time>
      </trkpt>
      <trkpt lat="41.637134" lon="-5.803495">
        <ele>699.180</ele>
        <time>2019-03-04T00:54:32Z</time>
      </trkpt>
      <trkpt lat="41.637163" lon="-5.803549">
        <ele>698.974</ele>
        <time>2019-03-04T00:54:33Z</time>
      </trkpt>
      <trkpt lat="41.637194" lon="-5.803603">
        <ele>698.897</ele>
        <time>2019-03-04T00:54:34Z</time>
      </trkpt>
      <trkpt lat="41.637613" lon="-5.804216">
        <ele>697.426</ele>
        <time>2019-03-04T00:54:46Z</time>
      </trkpt>
      <trkpt lat="41.637647" lon="-5.804269">
        <ele>697.355</ele>
        <time>2019-03-04T00:54:47Z</time>
      </trkpt>
      <trkpt lat="41.637674" lon="-5.804327">
        <ele>697.291</ele>
        <time>2019-03-04T00:54:48Z</time>
      </trkpt>
      <trkpt lat="41.637702" lon="-5.804382">
        <ele>697.181</ele>
        <time>2019-03-04T00:54:49Z</time>
      </trkpt>
      <trkpt lat="41.637732" lon="-5.804432">
        <ele>697.019</ele>
        <time>2019-03-04T00:54:50Z</time>
      </trkpt>
      <trkpt lat="41.637766" lon="-5.804481">
        <ele>696.908</ele>
        <time>2019-03-04T00:54:51Z</time>
      </trkpt>
      <trkpt lat="41.637799" lon="-5.804530">
        <ele>696.892</ele>
        <time>2019-03-04T00:54:52Z</time>
      </trkpt>
      <trkpt lat="41.637830" lon="-5.804580">
        <ele>696.813</ele>
        <time>2019-03-04T00:54:53Z</time>
      </trkpt>
      <trkpt lat="41.638322" lon="-5.805305">
        <ele>697.164</ele>
        <time>2019-03-04T00:55:11Z</time>
      </trkpt>
      <trkpt lat="41.638583" lon="-5.805687">
        <ele>697.753</ele>
        <time>2019-03-04T00:55:26Z</time>
      </trkpt>
      <trkpt lat="41.638815" lon="-5.806007">
        <ele>698.477</ele>
        <time>2019-03-04T00:55:42Z</time>
      </trkpt>
      <trkpt lat="41.638811" lon="-5.806010">
        <ele>698.450</ele>
        <time>2019-03-04T00:55:46Z</time>
      </trkpt>
      <trkpt lat="41.638833" lon="-5.806038">
        <ele>698.539</ele>
        <time>2019-03-04T00:56:17Z</time>
      </trkpt>
      <trkpt lat="41.638851" lon="-5.806046">
        <ele>698.618</ele>
        <time>2019-03-04T00:56:18Z</time>
      </trkpt>
      <trkpt lat="41.638872" lon="-5.806048">
        <ele>698.736</ele>
        <time>2019-03-04T00:56:19Z</time>
      </trkpt>
      <trkpt lat="41.638895" lon="-5.806044">
        <ele>698.717</ele>
        <time>2019-03-04T00:56:20Z</time>
      </trkpt>
      <trkpt lat="41.638915" lon="-5.806036">
        <ele>698.818</ele>
        <time>2019-03-04T00:56:21Z</time>
      </trkpt>
      <trkpt lat="41.638936" lon="-5.806018">
        <ele>698.808</ele>
        <time>2019-03-04T00:56:22Z</time>
      </trkpt>
      <trkpt lat="41.638959" lon="-5.805994">
        <ele>698.826</ele>
        <time>2019-03-04T00:56:23Z</time>
      </trkpt>
      <trkpt lat="41.638982" lon="-5.805966">
        <ele>698.997</ele>
        <time>2019-03-04T00:56:24Z</time>
      </trkpt>
      <trkpt lat="41.639458" lon="-5.805536">
        <ele>699.218</ele>
        <time>2019-03-04T00:56:40Z</time>
      </trkpt>
      <trkpt lat="41.640018" lon="-5.805055">
        <ele>698.727</ele>
        <time>2019-03-04T00:56:57Z</time>
      </trkpt>
      <trkpt lat="41.640665" lon="-5.804521">
        <ele>697.471</ele>
        <time>2019-03-04T00:57:15Z</time>
      </trkpt>
      <trkpt lat="41.641053" lon="-5.804575">
        <ele>697.344</ele>
        <time>2019-03-04T00:57:28Z</time>
      </trkpt>
      <trkpt lat="41.641428" lon="-5.804685">
        <ele>697.823</ele>
        <time>2019-03-04T00:57:42Z</time>
      </trkpt>
      <trkpt lat="41.642035" lon="-5.804850">
        <ele>698.342</ele>
        <time>2019-03-04T00:58:02Z</time>
      </trkpt>
      <trkpt lat="41.642518" lon="-5.804963">
        <ele>698.789</ele>
        <time>2019-03-04T00:58:18Z</time>
      </trkpt>
      <trkpt lat="41.643026" lon="-5.805092">
        <ele>698.806</ele>
        <time>2019-03-04T00:58:34Z</time>
      </trkpt>
      <trkpt lat="41.643486" lon="-5.805234">
        <ele>698.926</ele>
        <time>2019-03-04T00:58:48Z</time>
      </trkpt>
      <trkpt lat="41.643979" lon="-5.805373">
        <ele>698.708</ele>
        <time>2019-03-04T00:59:02Z</time>
      </trkpt>
      <trkpt lat="41.644634" lon="-5.805598">
        <ele>698.171</ele>
        <time>2019-03-04T00:59:17Z</time>
      </trkpt>
      <trkpt lat="41.645071" lon="-5.805597">
        <ele>697.942</ele>
        <time>2019-03-04T00:59:29Z</time>
      </trkpt>
      <trkpt lat="41.645827" lon="-5.805451">
        <ele>697.513</ele>
        <time>2019-03-04T00:59:46Z</time>
      </trkpt>
      <trkpt lat="41.646533" lon="-5.805374">
        <ele>696.452</ele>
        <time>2019-03-04T01:00:00Z</time>
      </trkpt>
      <trkpt lat="41.647115" lon="-5.805316">
        <ele>696.366</ele>
        <time>2019-03-04T01:00:11Z</time>
      </trkpt>
      <trkpt lat="41.647284" lon="-5.805337">
        <ele>696.289</ele>
        <time>2019-03-04T01:00:14Z</time>
      </trkpt>
      <trkpt lat="41.647570" lon="-5.805320">
        <ele>695.798</ele>
        <time>2019-03-04T01:00:19Z</time>
      </trkpt>
      <trkpt lat="41.647924" lon="-5.805361">
        <ele>694.797</ele>
        <time>2019-03-04T01:00:26Z</time>
      </trkpt>
      <trkpt lat="41.648701" lon="-5.805546">
        <ele>692.453</ele>
        <time>2019-03-04T01:00:37Z</time>
      </trkpt>
      <trkpt lat="41.649165" lon="-5.805856">
        <ele>689.304</ele>
        <time>2019-03-04T01:00:46Z</time>
      </trkpt>
      <trkpt lat="41.649313" lon="-5.806025">
        <ele>689.314</ele>
        <time>2019-03-04T01:00:57Z</time>
      </trkpt>
      <trkpt lat="41.649348" lon="-5.806095">
        <ele>689.408</ele>
        <time>2019-03-04T01:01:24Z</time>
      </trkpt>
      <trkpt lat="41.649496" lon="-5.806286">
        <ele>689.458</ele>
        <time>2019-03-04T01:01:33Z</time>
      </trkpt>
      <trkpt lat="41.649505" lon="-5.806279">
        <ele>689.359</ele>
        <time>2019-03-04T01:01:36Z</time>
      </trkpt>
      <trkpt lat="41.649553" lon="-5.806234">
        <ele>689.260</ele>
        <time>2019-03-04T01:01:42Z</time>
      </trkpt>
      <trkpt lat="41.649578" lon="-5.806216">
        <ele>689.219</ele>
        <time>2019-03-04T01:01:44Z</time>
      </trkpt>
      <trkpt lat="41.649596" lon="-5.806222">
        <ele>689.153</ele>
        <time>2019-03-04T01:01:49Z</time>
      </trkpt>
      <trkpt lat="41.649583" lon="-5.806306">
        <ele>689.056</ele>
        <time>2019-03-04T01:03:04Z</time>
      </trkpt>
      <trkpt lat="41.649707" lon="-5.806744">
        <ele>689.345</ele>
        <time>2019-03-04T01:03:16Z</time>
      </trkpt>
      <trkpt lat="41.649754" lon="-5.806827">
        <ele>689.344</ele>
        <time>2019-03-04T01:03:18Z</time>
      </trkpt>
      <trkpt lat="41.649849" lon="-5.807012">
        <ele>688.798</ele>
        <time>2019-03-04T01:03:22Z</time>
      </trkpt>
      <trkpt lat="41.649925" lon="-5.807238">
        <ele>688.315</ele>
        <time>2019-03-04T01:03:27Z</time>
      </trkpt>
      <trkpt lat="41.650186" lon="-5.807047">
        <ele>687.026</ele>
        <time>2019-03-04T01:03:35Z</time>
      </trkpt>
      <trkpt lat="41.650344" lon="-5.806941">
        <ele>685.408</ele>
        <time>2019-03-04T01:03:40Z</time>
      </trkpt>
      <trkpt lat="41.650365" lon="-5.806918">
        <ele>685.132</ele>
        <time>2019-03-04T01:03:41Z</time>
      </trkpt>
      <trkpt lat="41.650381" lon="-5.806891">
        <ele>684.863</ele>
        <time>2019-03-04T01:03:42Z</time>
      </trkpt>
      <trkpt lat="41.650395" lon="-5.806864">
        <ele>684.724</ele>
        <time>2019-03-04T01:03:43Z</time>
      </trkpt>
      <trkpt lat="41.650409" lon="-5.806835">
        <ele>684.683</ele>
        <time>2019-03-04T01:03:44Z</time>
      </trkpt>
      <trkpt lat="41.650419" lon="-5.806805">
        <ele>684.567</ele>
        <time>2019-03-04T01:03:45Z</time>
      </trkpt>
      <trkpt lat="41.650450" lon="-5.806749">
        <ele>684.410</ele>
        <time>2019-03-04T01:03:52Z</time>
      </trkpt>
      <trkpt lat="41.650438" lon="-5.806627">
        <ele>684.399</ele>
        <time>2019-03-04T01:04:29Z</time>
      </trkpt>
      <trkpt lat="41.650425" lon="-5.806136">
        <ele>684.728</ele>
        <time>2019-03-04T01:04:42Z</time>
      </trkpt>
      <trkpt lat="41.650273" lon="-5.805424">
        <ele>686.082</ele>
        <time>2019-03-04T01:04:58Z</time>
      </trkpt>
      <trkpt lat="41.650317" lon="-5.804789">
        <ele>686.843</ele>
        <time>2019-03-04T01:05:11Z</time>
      </trkpt>
      <trkpt lat="41.650534" lon="-5.804187">
        <ele>687.517</ele>
        <time>2019-03-04T01:05:26Z</time>
      </trkpt>
      <trkpt lat="41.650666" lon="-5.803804">
        <ele>687.308</ele>
        <time>2019-03-04T01:05:40Z</time>
      </trkpt>
      <trkpt lat="41.650652" lon="-5.803796">
        <ele>687.331</ele>
        <time>2019-03-04T01:05:42Z</time>
      </trkpt>
      <trkpt lat="41.650643" lon="-5.803793">
        <ele>687.382</ele>
        <time>2019-03-04T01:05:43Z</time>
      </trkpt>
      <trkpt lat="41.650628" lon="-5.803787">
        <ele>687.343</ele>
        <time>2019-03-04T01:05:44Z</time>
      </trkpt>
      <trkpt lat="41.650432" lon="-5.803689">
        <ele>687.892</ele>
        <time>2019-03-04T01:05:58Z</time>
      </trkpt>
      <trkpt lat="41.650434" lon="-5.803691">
        <ele>687.886</ele>
        <time>2019-03-04T01:06:00Z</time>
      </trkpt>
      <trkpt lat="41.650505" lon="-5.803621">
        <ele>687.799</ele>
        <time>2019-03-04T01:06:28Z</time>
      </trkpt>
      <trkpt lat="41.650534" lon="-5.803626">
        <ele>687.798</ele>
        <time>2019-03-04T01:06:29Z</time>
      </trkpt>
      <trkpt lat="41.650564" lon="-5.803632">
        <ele>687.657</ele>
        <time>2019-03-04T01:06:30Z</time>
      </trkpt>
      <trkpt lat="41.650970" lon="-5.803792">
        <ele>686.413</ele>
        <time>2019-03-04T01:06:42Z</time>
      </trkpt>
      <trkpt lat="41.651217" lon="-5.803947">
        <ele>685.143</ele>
        <time>2019-03-04T01:06:53Z</time>
      </trkpt>
      <trkpt lat="41.651217" lon="-5.803947">
        <ele>685.107</ele>
        <time>2019-03-04T01:06:54Z</time>
      </trkpt>
      <trkpt lat="41.651284" lon="-5.803902">
        <ele>684.808</ele>
        <time>2019-03-04T01:07:27Z</time>
      </trkpt>
      <trkpt lat="41.651298" lon="-5.803887">
        <ele>684.774</ele>
        <time>2019-03-04T01:07:28Z</time>
      </trkpt>
      <trkpt lat="41.651314" lon="-5.803880">
        <ele>684.765</ele>
        <time>2019-03-04T01:07:29Z</time>
      </trkpt>
      <trkpt lat="41.651329" lon="-5.803879">
        <ele>684.696</ele>
        <time>2019-03-04T01:07:30Z</time>
      </trkpt>
      <trkpt lat="41.651333" lon="-5.803883">
        <ele>684.695</ele>
        <time>2019-03-04T01:07:35Z</time>
      </trkpt>
      <trkpt lat="41.651389" lon="-5.803914">
        <ele>684.559</ele>
        <time>2019-03-04T01:07:52Z</time>
      </trkpt>
      <trkpt lat="41.651915" lon="-5.804089">
        <ele>682.532</ele>
        <time>2019-03-04T01:08:07Z</time>
      </trkpt>
      <trkpt lat="41.652548" lon="-5.804307">
        <ele>683.161</ele>
        <time>2019-03-04T01:08:24Z</time>
      </trkpt>
      <trkpt lat="41.653394" lon="-5.804601">
        <ele>688.180</ele>
        <time>2019-03-04T01:08:46Z</time>
      </trkpt>
      <trkpt lat="41.653682" lon="-5.804906">
        <ele>689.762</ele>
        <time>2019-03-04T01:09:01Z</time>
      </trkpt>
      <trkpt lat="41.653696" lon="-5.805072">
        <ele>689.483</ele>
        <time>2019-03-04T01:09:04Z</time>
      </trkpt>
      <trkpt lat="41.653712" lon="-5.805142">
        <ele>689.411</ele>
        <time>2019-03-04T01:09:05Z</time>
      </trkpt>
      <trkpt lat="41.653737" lon="-5.805211">
        <ele>689.408</ele>
        <time>2019-03-04T01:09:06Z</time>
      </trkpt>
      <trkpt lat="41.653789" lon="-5.805346">
        <ele>689.599</ele>
        <time>2019-03-04T01:09:08Z</time>
      </trkpt>
      <trkpt lat="41.653803" lon="-5.805409">
        <ele>689.640</ele>
        <time>2019-03-04T01:09:09Z</time>
      </trkpt>
      <trkpt lat="41.653860" lon="-5.805807">
        <ele>691.991</ele>
        <time>2019-03-04T01:09:20Z</time>
      </trkpt>
      <trkpt lat="41.653904" lon="-5.806051">
        <ele>693.970</ele>
        <time>2019-03-04T01:09:35Z</time>
      </trkpt>
      <trkpt lat="41.654001" lon="-5.806326">
        <ele>696.784</ele>
        <time>2019-03-04T01:09:52Z</time>
      </trkpt>
      <trkpt lat="41.654164" lon="-5.806555">
        <ele>699.737</ele>
        <time>2019-03-04T01:10:10Z</time>
      </trkpt>
      <trkpt lat="41.654382" lon="-5.806803">
        <ele>702.786</ele>
        <time>2019-03-04T01:10:32Z</time>
      </trkpt>
      <trkpt lat="41.654565" lon="-5.807038">
        <ele>705.335</ele>
        <time>2019-03-04T01:10:52Z</time>
      </trkpt>
      <trkpt lat="41.654735" lon="-5.807264">
        <ele>707.291</ele>
        <time>2019-03-04T01:11:09Z</time>
      </trkpt>
      <trkpt lat="41.654950" lon="-5.807462">
        <ele>709.181</ele>
        <time>2019-03-04T01:11:28Z</time>
      </trkpt>
      <trkpt lat="41.655188" lon="-5.807538">
        <ele>710.219</ele>
        <time>2019-03-04T01:11:46Z</time>
      </trkpt>
      <trkpt lat="41.655491" lon="-5.807565">
        <ele>711.108</ele>
        <time>2019-03-04T01:12:04Z</time>
      </trkpt>
      <trkpt lat="41.655692" lon="-5.807586">
        <ele>711.632</ele>
        <time>2019-03-04T01:12:19Z</time>
      </trkpt>
      <trkpt lat="41.655761" lon="-5.807603">
        <ele>711.843</ele>
        <time>2019-03-04T01:12:48Z</time>
      </trkpt>
      <trkpt lat="41.656089" lon="-5.807648">
        <ele>712.414</ele>
        <time>2019-03-04T01:13:04Z</time>
      </trkpt>
      <trkpt lat="41.656220" lon="-5.807701">
        <ele>712.593</ele>
        <time>2019-03-04T01:13:10Z</time>
      </trkpt>
      <trkpt lat="41.656229" lon="-5.807721">
        <ele>712.577</ele>
        <time>2019-03-04T01:13:11Z</time>
      </trkpt>
      <trkpt lat="41.656227" lon="-5.807746">
        <ele>712.510</ele>
        <time>2019-03-04T01:13:17Z</time>
      </trkpt>
      <trkpt lat="41.656292" lon="-5.807703">
        <ele>712.569</ele>
        <time>2019-03-04T01:13:59Z</time>
      </trkpt>
      <trkpt lat="41.656319" lon="-5.807702">
        <ele>712.428</ele>
        <time>2019-03-04T01:14:00Z</time>
      </trkpt>
      <trkpt lat="41.656811" lon="-5.807769">
        <ele>711.589</ele>
        <time>2019-03-04T01:14:15Z</time>
      </trkpt>
      <trkpt lat="41.657403" lon="-5.807884">
        <ele>710.606</ele>
        <time>2019-03-04T01:14:31Z</time>
      </trkpt>
      <trkpt lat="41.658166" lon="-5.808229">
        <ele>710.126</ele>
        <time>2019-03-04T01:14:49Z</time>
      </trkpt>
      <trkpt lat="41.659010" lon="-5.808607">
        <ele>709.108</ele>
        <time>2019-03-04T01:15:10Z</time>
      </trkpt>
      <trkpt lat="41.659066" lon="-5.808632">
        <ele>709.171</ele>
        <time>2019-03-04T01:15:17Z</time>
      </trkpt>
      <trkpt lat="41.659158" lon="-5.808649">
        <ele>709.132</ele>
        <time>2019-03-04T01:15:54Z</time>
      </trkpt>
      <trkpt lat="41.659687" lon="-5.808697">
        <ele>708.853</ele>
        <time>2019-03-04T01:16:08Z</time>
      </trkpt>
      <trkpt lat="41.660322" lon="-5.808706">
        <ele>707.732</ele>
        <time>2019-03-04T01:16:23Z</time>
      </trkpt>
      <trkpt lat="41.660322" lon="-5.808703">
        <ele>707.736</ele>
        <time>2019-03-04T01:16:26Z</time>
      </trkpt>
      <trkpt lat="41.660392" lon="-5.808702">
        <ele>707.589</ele>
        <time>2019-03-04T01:16:56Z</time>
      </trkpt>
      <trkpt lat="41.660964" lon="-5.808710">
        <ele>706.018</ele>
        <time>2019-03-04T01:17:10Z</time>
      </trkpt>
      <trkpt lat="41.661009" lon="-5.808712">
        <ele>705.997</ele>
        <time>2019-03-04T01:17:11Z</time>
      </trkpt>
      <trkpt lat="41.661669" lon="-5.808709">
        <ele>704.392</ele>
        <time>2019-03-04T01:17:24Z</time>
      </trkpt>
      <trkpt lat="41.662585" lon="-5.808701">
        <ele>702.373</ele>
        <time>2019-03-04T01:17:39Z</time>
      </trkpt>
      <trkpt lat="41.663572" lon="-5.808683">
        <ele>701.220</ele>
        <time>2019-03-04T01:17:57Z</time>
      </trkpt>
      <trkpt lat="41.664774" lon="-5.808647">
        <ele>699.308</ele>
        <time>2019-03-04T01:18:20Z</time>
      </trkpt>
      <trkpt lat="41.665549" lon="-5.808605">
        <ele>697.812</ele>
        <time>2019-03-04T01:18:34Z</time>
      </trkpt>
      <trkpt lat="41.666319" lon="-5.808615">
        <ele>696.883</ele>
        <time>2019-03-04T01:18:49Z</time>
      </trkpt>
      <trkpt lat="41.666329" lon="-5.808630">
        <ele>696.864</ele>
        <time>2019-03-04T01:18:54Z</time>
      </trkpt>
      <trkpt lat="41.666385" lon="-5.808624">
        <ele>696.783</ele>
        <time>2019-03-04T01:19:21Z</time>
      </trkpt>
      <trkpt lat="41.666912" lon="-5.808588">
        <ele>696.067</ele>
        <time>2019-03-04T01:19:35Z</time>
      </trkpt>
      <trkpt lat="41.667613" lon="-5.808587">
        <ele>697.060</ele>
        <time>2019-03-04T01:19:52Z</time>
      </trkpt>
      <trkpt lat="41.668196" lon="-5.808672">
        <ele>697.829</ele>
        <time>2019-03-04T01:20:09Z</time>
      </trkpt>
      <trkpt lat="41.668775" lon="-5.808806">
        <ele>699.078</ele>
        <time>2019-03-04T01:20:27Z</time>
      </trkpt>
      <trkpt lat="41.669370" lon="-5.808960">
        <ele>700.122</ele>
        <time>2019-03-04T01:20:46Z</time>
      </trkpt>
      <trkpt lat="41.669963" lon="-5.809114">
        <ele>701.162</ele>
        <time>2019-03-04T01:21:06Z</time>
      </trkpt>
      <trkpt lat="41.670600" lon="-5.809300">
        <ele>702.008</ele>
        <time>2019-03-04T01:21:27Z</time>
      </trkpt>
      <trkpt lat="41.671118" lon="-5.809395">
        <ele>702.308</ele>
        <time>2019-03-04T01:21:44Z</time>
      </trkpt>
      <trkpt lat="41.671777" lon="-5.809411">
        <ele>703.275</ele>
        <time>2019-03-04T01:22:03Z</time>
      </trkpt>
      <trkpt lat="41.672499" lon="-5.809411">
        <ele>704.626</ele>
        <time>2019-03-04T01:22:24Z</time>
      </trkpt>
      <trkpt lat="41.672772" lon="-5.809418">
        <ele>705.437</ele>
        <time>2019-03-04T01:22:34Z</time>
      </trkpt>
      <trkpt lat="41.672781" lon="-5.809423">
        <ele>705.586</ele>
        <time>2019-03-04T01:22:39Z</time>
      </trkpt>
      <trkpt lat="41.672857" lon="-5.809418">
        <ele>705.860</ele>
        <time>2019-03-04T01:23:08Z</time>
      </trkpt>
      <trkpt lat="41.673271" lon="-5.809391">
        <ele>706.783</ele>
        <time>2019-03-04T01:23:24Z</time>
      </trkpt>
      <trkpt lat="41.673802" lon="-5.809383">
        <ele>705.522</ele>
        <time>2019-03-04T01:23:40Z</time>
      </trkpt>
      <trkpt lat="41.674251" lon="-5.809380">
        <ele>705.011</ele>
        <time>2019-03-04T01:23:54Z</time>
      </trkpt>
      <trkpt lat="41.674625" lon="-5.809378">
        <ele>704.939</ele>
        <time>2019-03-04T01:24:09Z</time>
      </trkpt>
      <trkpt lat="41.675141" lon="-5.809365">
        <ele>705.301</ele>
        <time>2019-03-04T01:24:24Z</time>
      </trkpt>
      <trkpt lat="41.675807" lon="-5.809349">
        <ele>705.921</ele>
        <time>2019-03-04T01:24:43Z</time>
      </trkpt>
      <trkpt lat="41.676690" lon="-5.809351">
        <ele>705.808</ele>
        <time>2019-03-04T01:25:07Z</time>
      </trkpt>
      <trkpt lat="41.677376" lon="-5.809346">
        <ele>705.186</ele>
        <time>2019-03-04T01:25:24Z</time>
      </trkpt>
      <trkpt lat="41.678198" lon="-5.809332">
        <ele>705.397</ele>
        <time>2019-03-04T01:25:42Z</time>
      </trkpt>
      <trkpt lat="41.678369" lon="-5.809333">
        <ele>705.458</ele>
        <time>2019-03-04T01:25:46Z</time>
      </trkpt>
      <trkpt lat="41.678647" lon="-5.809191">
        <ele>705.997</ele>
        <time>2019-03-04T01:25:56Z</time>
      </trkpt>
      <trkpt lat="41.678823" lon="-5.808766">
        <ele>706.351</ele>
        <time>2019-03-04T01:26:09Z</time>
      </trkpt>
      <trkpt lat="41.679097" lon="-5.808463">
        <ele>708.444</ele>
        <time>2019-03-04T01:26:23Z</time>
      </trkpt>
      <trkpt lat="41.679124" lon="-5.808483">
        <ele>708.613</ele>
        <time>2019-03-04T01:26:24Z</time>
      </trkpt>
      <trkpt lat="41.679457" lon="-5.808765">
        <ele>711.032</ele>
        <time>2019-03-04T01:26:41Z</time>
      </trkpt>
      <trkpt lat="41.679780" lon="-5.809082">
        <ele>712.326</ele>
        <time>2019-03-04T01:26:59Z</time>
      </trkpt>
      <trkpt lat="41.680164" lon="-5.809365">
        <ele>714.047</ele>
        <time>2019-03-04T01:27:20Z</time>
      </trkpt>
      <trkpt lat="41.680506" lon="-5.809313">
        <ele>715.111</ele>
        <time>2019-03-04T01:27:38Z</time>
      </trkpt>
      <trkpt lat="41.680881" lon="-5.809328">
        <ele>716.708</ele>
        <time>2019-03-04T01:27:58Z</time>
      </trkpt>
      <trkpt lat="41.681184" lon="-5.809311">
        <ele>717.895</ele>
        <time>2019-03-04T01:28:16Z</time>
      </trkpt>
      <trkpt lat="41.681482" lon="-5.809276">
        <ele>718.686</ele>
        <time>2019-03-04T01:28:34Z</time>
      </trkpt>
      <trkpt lat="41.681584" lon="-5.809269">
        <ele>718.747</ele>
        <time>2019-03-04T01:28:41Z</time>
      </trkpt>
      <trkpt lat="41.681628" lon="-5.808974">
        <ele>717.056</ele>
        <time>2019-03-04T01:28:53Z</time>
      </trkpt>
      <trkpt lat="41.681598" lon="-5.808593">
        <ele>715.390</ele>
        <time>2019-03-04T01:29:05Z</time>
      </trkpt>
      <trkpt lat="41.681563" lon="-5.808011">
        <ele>713.733</ele>
        <time>2019-03-04T01:29:19Z</time>
      </trkpt>
      <trkpt lat="41.681543" lon="-5.807761">
        <ele>712.932</ele>
        <time>2019-03-04T01:29:25Z</time>
      </trkpt>
      <trkpt lat="41.681508" lon="-5.807343">
        <ele>711.491</ele>
        <time>2019-03-04T01:29:37Z</time>
      </trkpt>
      <trkpt lat="41.681501" lon="-5.806798">
        <ele>710.564</ele>
        <time>2019-03-04T01:29:53Z</time>
      </trkpt>
      <trkpt lat="41.681505" lon="-5.806741">
        <ele>710.406</ele>
        <time>2019-03-04T01:29:56Z</time>
      </trkpt>
      <trkpt lat="41.681470" lon="-5.806664">
        <ele>710.316</ele>
        <time>2019-03-04T01:30:01Z</time>
      </trkpt>
      <trkpt lat="41.681356" lon="-5.806355">
        <ele>710.008</ele>
        <time>2019-03-04T01:30:15Z</time>
      </trkpt>
      <trkpt lat="41.681358" lon="-5.806315">
        <ele>710.059</ele>
        <time>2019-03-04T01:30:17Z</time>
      </trkpt>
      <trkpt lat="41.681375" lon="-5.806274">
        <ele>710.090</ele>
        <time>2019-03-04T01:30:19Z</time>
      </trkpt>
      <trkpt lat="41.681387" lon="-5.806261">
        <ele>710.061</ele>
        <time>2019-03-04T01:30:20Z</time>
      </trkpt>
      <trkpt lat="41.681393" lon="-5.806256">
        <ele>710.050</ele>
        <time>2019-03-04T01:30:24Z</time>
      </trkpt>
      <trkpt lat="41.681411" lon="-5.806296">
        <ele>710.034</ele>
        <time>2019-03-04T01:30:39Z</time>
      </trkpt>
      <trkpt lat="41.681546" lon="-5.806609">
        <ele>708.677</ele>
        <time>2019-03-04T01:30:55Z</time>
      </trkpt>
      <trkpt lat="41.681786" lon="-5.806720">
        <ele>708.636</ele>
        <time>2019-03-04T01:31:11Z</time>
      </trkpt>
      <trkpt lat="41.682000" lon="-5.806654">
        <ele>709.235</ele>
        <time>2019-03-04T01:31:26Z</time>
      </trkpt>
      <trkpt lat="41.682128" lon="-5.806337">
        <ele>709.624</ele>
        <time>2019-03-04T01:31:43Z</time>
      </trkpt>
      <trkpt lat="41.682138" lon="-5.805948">
        <ele>710.104</ele>
        <time>2019-03-04T01:31:55Z</time>
      </trkpt>
      <trkpt lat="41.682151" lon="-5.805106">
        <ele>711.314</ele>
        <time>2019-03-04T01:32:09Z</time>
      </trkpt>
      <trkpt lat="41.682322" lon="-5.804844">
        <ele>710.808</ele>
        <time>2019-03-04T01:32:15Z</time>
      </trkpt>
      <trkpt lat="41.682434" lon="-5.804836">
        <ele>710.555</ele>
        <time>2019-03-04T01:32:18Z</time>
      </trkpt>
      <trkpt lat="41.683255" lon="-5.804955">
        <ele>709.546</ele>
        <time>2019-03-04T01:32:32Z</time>
      </trkpt>
      <trkpt lat="41.684130" lon="-5.804819">
        <ele>705.847</ele>
        <time>2019-03-04T01:32:46Z</time>
      </trkpt>
      <trkpt lat="41.685011" lon="-5.804664">
        <ele>705.096</ele>
        <time>2019-03-04T01:33:03Z</time>
      </trkpt>
      <trkpt lat="41.685823" lon="-5.804474">
        <ele>704.260</ele>
        <time>2019-03-04T01:33:19Z</time>
      </trkpt>
      <trkpt lat="41.686528" lon="-5.803972">
        <ele>703.163</ele>
        <time>2019-03-04T01:33:35Z</time>
      </trkpt>
      <trkpt lat="41.686596" lon="-5.803902">
        <ele>703.052</ele>
        <time>2019-03-04T01:33:37Z</time>
      </trkpt>
      <trkpt lat="41.686826" lon="-5.803590">
        <ele>702.571</ele>
        <time>2019-03-04T01:33:45Z</time>
      </trkpt>
      <trkpt lat="41.686843" lon="-5.803541">
        <ele>702.478</ele>
        <time>2019-03-04T01:33:46Z</time>
      </trkpt>
      <trkpt lat="41.686854" lon="-5.803495">
        <ele>702.433</ele>
        <time>2019-03-04T01:33:47Z</time>
      </trkpt>
      <trkpt lat="41.686864" lon="-5.803312">
        <ele>702.226</ele>
        <time>2019-03-04T01:33:56Z</time>
      </trkpt>
      <trkpt lat="41.686862" lon="-5.803316">
        <ele>702.208</ele>
        <time>2019-03-04T01:33:57Z</time>
      </trkpt>
      <trkpt lat="41.686844" lon="-5.803416">
        <ele>702.250</ele>
        <time>2019-03-04T01:35:19Z</time>
      </trkpt>
      <trkpt lat="41.686844" lon="-5.803436">
        <ele>702.291</ele>
        <time>2019-03-04T01:35:20Z</time>
      </trkpt>
      <trkpt lat="41.686846" lon="-5.803457">
        <ele>702.152</ele>
        <time>2019-03-04T01:35:21Z</time>
      </trkpt>
      <trkpt lat="41.686845" lon="-5.803479">
        <ele>702.141</ele>
        <time>2019-03-04T01:35:22Z</time>
      </trkpt>
      <trkpt lat="41.686841" lon="-5.803534">
        <ele>702.195</ele>
        <time>2019-03-04T01:35:29Z</time>
      </trkpt>
      <trkpt lat="41.687146" lon="-5.803870">
        <ele>701.168</ele>
        <time>2019-03-04T01:36:30Z</time>
      </trkpt>
      <trkpt lat="41.687161" lon="-5.803876">
        <ele>701.177</ele>
        <time>2019-03-04T01:36:35Z</time>
      </trkpt>
      <trkpt lat="41.687467" lon="-5.803890">
        <ele>701.026</ele>
        <time>2019-03-04T01:37:21Z</time>
      </trkpt>
      <trkpt lat="41.687545" lon="-5.803883">
        <ele>701.077</ele>
        <time>2019-03-04T01:37:29Z</time>
      </trkpt>
      <trkpt lat="41.687570" lon="-5.803901">
        <ele>701.061</ele>
        <time>2019-03-04T01:37:32Z</time>
      </trkpt>
      <trkpt lat="41.687669" lon="-5.804023">
        <ele>701.027</ele>
        <time>2019-03-04T01:37:41Z</time>
      </trkpt>
      <trkpt lat="41.687808" lon="-5.804144">
        <ele>701.008</ele>
        <time>2019-03-04T01:37:49Z</time>
      </trkpt>
      <trkpt lat="41.687864" lon="-5.804252">
        <ele>700.920</ele>
        <time>2019-03-04T01:37:55Z</time>
      </trkpt>
      <trkpt lat="41.687801" lon="-5.804503">
        <ele>700.971</ele>
        <time>2019-03-04T01:38:32Z</time>
      </trkpt>
      <trkpt lat="41.687812" lon="-5.804509">
        <ele>700.972</ele>
        <time>2019-03-04T01:38:36Z</time>
      </trkpt>
      <trkpt lat="41.688102" lon="-5.804717">
        <ele>700.351</ele>
        <time>2019-03-04T01:39:49Z</time>
      </trkpt>
      <trkpt lat="41.688210" lon="-5.804729">
        <ele>700.225</ele>
        <time>2019-03-04T01:40:04Z</time>
      </trkpt>
      <trkpt lat="41.688022" lon="-5.804756">
        <ele>700.458</ele>
        <time>2019-03-04T01:42:38Z</time>
      </trkpt>
      <trkpt lat="41.687935" lon="-5.804667">
        <ele>700.717</ele>
        <time>2019-03-04T01:42:52Z</time>
      </trkpt>
      <trkpt lat="41.687920" lon="-5.804655">
        <ele>700.726</ele>
        <time>2019-03-04T01:42:54Z</time>
      </trkpt>
      <trkpt lat="41.687873" lon="-5.804619">
        <ele>700.859</ele>
        <time>2019-03-04T01:42:59Z</time>
      </trkpt>
      <trkpt lat="41.687857" lon="-5.804594">
        <ele>700.803</ele>
        <time>2019-03-04T01:43:02Z</time>
      </trkpt>
      <trkpt lat="41.687833" lon="-5.804563">
        <ele>700.923</ele>
        <time>2019-03-04T01:43:06Z</time>
      </trkpt>
      <trkpt lat="41.687791" lon="-5.804525">
        <ele>701.008</ele>
        <time>2019-03-04T01:43:11Z</time>
      </trkpt>
      <trkpt lat="41.687673" lon="-5.804366">
        <ele>701.198</ele>
        <time>2019-03-04T01:43:27Z</time>
      </trkpt>
      <trkpt lat="41.687542" lon="-5.804259">
        <ele>701.149</ele>
        <time>2019-03-04T01:43:42Z</time>
      </trkpt>
      <trkpt lat="41.687464" lon="-5.803856">
        <ele>701.260</ele>
        <time>2019-03-04T01:43:50Z</time>
      </trkpt>
      <trkpt lat="41.687486" lon="-5.803824">
        <ele>701.329</ele>
        <time>2019-03-04T01:43:53Z</time>
      </trkpt>
      <trkpt lat="41.687353" lon="-5.803884">
        <ele>701.163</ele>
        <time>2019-03-04T01:44:08Z</time>
      </trkpt>
      <trkpt lat="41.687174" lon="-5.803850">
        <ele>701.366</ele>
        <time>2019-03-04T01:44:24Z</time>
      </trkpt>
      <trkpt lat="41.687133" lon="-5.803734">
        <ele>701.695</ele>
        <time>2019-03-04T01:44:36Z</time>
      </trkpt>
      <trkpt lat="41.687191" lon="-5.803745">
        <ele>701.594</ele>
        <time>2019-03-04T01:44:43Z</time>
      </trkpt>
      <trkpt lat="41.686815" lon="-5.803652">
        <ele>702.265</ele>
        <time>2019-03-04T01:45:48Z</time>
      </trkpt>
      <trkpt lat="41.686811" lon="-5.803666">
        <ele>702.268</ele>
        <time>2019-03-04T01:45:53Z</time>
      </trkpt>
      <trkpt lat="41.686766" lon="-5.803721">
        <ele>702.214</ele>
        <time>2019-03-04T01:45:57Z</time>
      </trkpt>
      <trkpt lat="41.686749" lon="-5.803748">
        <ele>702.208</ele>
        <time>2019-03-04T01:45:58Z</time>
      </trkpt>
      <trkpt lat="41.686729" lon="-5.803774">
        <ele>702.399</ele>
        <time>2019-03-04T01:45:59Z</time>
      </trkpt>
      <trkpt lat="41.686349" lon="-5.804158">
        <ele>702.970</ele>
        <time>2019-03-04T01:46:14Z</time>
      </trkpt>
      <trkpt lat="41.686078" lon="-5.804389">
        <ele>703.381</ele>
        <time>2019-03-04T01:46:27Z</time>
      </trkpt>
      <trkpt lat="41.686076" lon="-5.804389">
        <ele>703.370</ele>
        <time>2019-03-04T01:46:30Z</time>
      </trkpt>
      <trkpt lat="41.686091" lon="-5.804342">
        <ele>703.424</ele>
        <time>2019-03-04T01:48:35Z</time>
      </trkpt>
      <trkpt lat="41.686301" lon="-5.804179">
        <ele>703.787</ele>
        <time>2019-03-04T01:48:47Z</time>
      </trkpt>
      <trkpt lat="41.686301" lon="-5.804179">
        <ele>703.786</ele>
        <time>2019-03-04T01:48:48Z</time>
      </trkpt>
      <trkpt lat="41.686280" lon="-5.804231">
        <ele>703.745</ele>
        <time>2019-03-04T01:50:01Z</time>
      </trkpt>
      <trkpt lat="41.686222" lon="-5.804273">
        <ele>703.879</ele>
        <time>2019-03-04T01:50:04Z</time>
      </trkpt>
      <trkpt lat="41.685916" lon="-5.804488">
        <ele>704.205</ele>
        <time>2019-03-04T01:50:17Z</time>
      </trkpt>
      <trkpt lat="41.685131" lon="-5.804693">
        <ele>704.925</ele>
        <time>2019-03-04T01:50:37Z</time>
      </trkpt>
      <trkpt lat="41.684206" lon="-5.804847">
        <ele>705.608</ele>
        <time>2019-03-04T01:50:58Z</time>
      </trkpt>
      <trkpt lat="41.683326" lon="-5.804991">
        <ele>709.280</ele>
        <time>2019-03-04T01:51:19Z</time>
      </trkpt>
      <trkpt lat="41.683130" lon="-5.805012">
        <ele>710.061</ele>
        <time>2019-03-04T01:51:30Z</time>
      </trkpt>
      <trkpt lat="41.683251" lon="-5.804965">
        <ele>709.522</ele>
        <time>2019-03-04T01:56:43Z</time>
      </trkpt>
      <trkpt lat="41.683841" lon="-5.804879">
        <ele>706.511</ele>
        <time>2019-03-04T01:56:56Z</time>
      </trkpt>
      <trkpt lat="41.684804" lon="-5.804712">
        <ele>705.155</ele>
        <time>2019-03-04T01:57:13Z</time>
      </trkpt>
      <trkpt lat="41.685988" lon="-5.804399">
        <ele>703.868</ele>
        <time>2019-03-04T01:57:33Z</time>
      </trkpt>
      <trkpt lat="41.686790" lon="-5.803675">
        <ele>702.277</ele>
        <time>2019-03-04T01:57:50Z</time>
      </trkpt>
      <trkpt lat="41.686821" lon="-5.803617">
        <ele>702.296</ele>
        <time>2019-03-04T01:57:51Z</time>
      </trkpt>
      <trkpt lat="41.686845" lon="-5.803554">
        <ele>702.157</ele>
        <time>2019-03-04T01:57:52Z</time>
      </trkpt>
      <trkpt lat="41.686862" lon="-5.803488">
        <ele>702.100</ele>
        <time>2019-03-04T01:57:53Z</time>
      </trkpt>
      <trkpt lat="41.686870" lon="-5.803416">
        <ele>702.120</ele>
        <time>2019-03-04T01:57:54Z</time>
      </trkpt>
      <trkpt lat="41.686873" lon="-5.803344">
        <ele>702.008</ele>
        <time>2019-03-04T01:57:55Z</time>
      </trkpt>
      <trkpt lat="41.686873" lon="-5.803277">
        <ele>702.038</ele>
        <time>2019-03-04T01:57:56Z</time>
      </trkpt>
      <trkpt lat="41.686754" lon="-5.802228">
        <ele>702.229</ele>
        <time>2019-03-04T01:58:14Z</time>
      </trkpt>
      <trkpt lat="41.686634" lon="-5.801315">
        <ele>704.030</ele>
        <time>2019-03-04T01:58:32Z</time>
      </trkpt>
      <trkpt lat="41.686648" lon="-5.801122">
        <ele>704.429</ele>
        <time>2019-03-04T01:58:36Z</time>
      </trkpt>
      <trkpt lat="41.686675" lon="-5.801092">
        <ele>704.583</ele>
        <time>2019-03-04T01:58:37Z</time>
      </trkpt>
      <trkpt lat="41.686737" lon="-5.801061">
        <ele>704.696</ele>
        <time>2019-03-04T01:58:39Z</time>
      </trkpt>
      <trkpt lat="41.687274" lon="-5.800931">
        <ele>706.145</ele>
        <time>2019-03-04T01:58:58Z</time>
      </trkpt>
      <trkpt lat="41.687675" lon="-5.800858">
        <ele>708.384</ele>
        <time>2019-03-04T01:59:18Z</time>
      </trkpt>
      <trkpt lat="41.687947" lon="-5.800957">
        <ele>709.399</ele>
        <time>2019-03-04T01:59:34Z</time>
      </trkpt>
      <trkpt lat="41.688069" lon="-5.801316">
        <ele>709.207</ele>
        <time>2019-03-04T01:59:44Z</time>
      </trkpt>
      <trkpt lat="41.688109" lon="-5.801416">
        <ele>709.027</ele>
        <time>2019-03-04T01:59:46Z</time>
      </trkpt>
      <trkpt lat="41.688302" lon="-5.801594">
        <ele>709.108</ele>
        <time>2019-03-04T01:59:53Z</time>
      </trkpt>
      <trkpt lat="41.688793" lon="-5.801767">
        <ele>711.162</ele>
        <time>2019-03-04T02:00:11Z</time>
      </trkpt>
      <trkpt lat="41.689226" lon="-5.801808">
        <ele>713.393</ele>
        <time>2019-03-04T02:00:29Z</time>
      </trkpt>
      <trkpt lat="41.689610" lon="-5.801679">
        <ele>716.984</ele>
        <time>2019-03-04T02:00:49Z</time>
      </trkpt>
      <trkpt lat="41.689844" lon="-5.801529">
        <ele>719.853</ele>
        <time>2019-03-04T02:01:03Z</time>
      </trkpt>
      <trkpt lat="41.690045" lon="-5.801372">
        <ele>721.077</ele>
        <time>2019-03-04T02:01:16Z</time>
      </trkpt>
      <trkpt lat="41.690256" lon="-5.801238">
        <ele>720.910</ele>
        <time>2019-03-04T02:01:33Z</time>
      </trkpt>
      <trkpt lat="41.690303" lon="-5.801201">
        <ele>720.779</ele>
        <time>2019-03-04T02:01:58Z</time>
      </trkpt>
      <trkpt lat="41.690648" lon="-5.800901">
        <ele>718.368</ele>
        <time>2019-03-04T02:02:07Z</time>
      </trkpt>
      <trkpt lat="41.690904" lon="-5.800704">
        <ele>714.277</ele>
        <time>2019-03-04T02:02:13Z</time>
      </trkpt>
      <trkpt lat="41.691070" lon="-5.800559">
        <ele>710.961</ele>
        <time>2019-03-04T02:02:18Z</time>
      </trkpt>
      <trkpt lat="41.691150" lon="-5.800503">
        <ele>710.127</ele>
        <time>2019-03-04T02:02:24Z</time>
      </trkpt>
      <trkpt lat="41.691151" lon="-5.800503">
        <ele>710.108</ele>
        <time>2019-03-04T02:02:25Z</time>
      </trkpt>
      <trkpt lat="41.691231" lon="-5.800428">
        <ele>710.220</ele>
        <time>2019-03-04T02:02:33Z</time>
      </trkpt>
      <trkpt lat="41.691619" lon="-5.800110">
        <ele>709.961</ele>
        <time>2019-03-04T02:02:45Z</time>
      </trkpt>
      <trkpt lat="41.691630" lon="-5.800101">
        <ele>709.852</ele>
        <time>2019-03-04T02:02:50Z</time>
      </trkpt>
      <trkpt lat="41.691709" lon="-5.800094">
        <ele>709.761</ele>
        <time>2019-03-04T02:03:32Z</time>
      </trkpt>
      <trkpt lat="41.691735" lon="-5.800066">
        <ele>709.665</ele>
        <time>2019-03-04T02:03:33Z</time>
      </trkpt>
      <trkpt lat="41.692392" lon="-5.799469">
        <ele>706.168</ele>
        <time>2019-03-04T02:03:47Z</time>
      </trkpt>
      <trkpt lat="41.692924" lon="-5.798871">
        <ele>703.447</ele>
        <time>2019-03-04T02:03:57Z</time>
      </trkpt>
      <trkpt lat="41.693380" lon="-5.798268">
        <ele>700.656</ele>
        <time>2019-03-04T02:04:09Z</time>
      </trkpt>
      <trkpt lat="41.693449" lon="-5.798170">
        <ele>700.412</ele>
        <time>2019-03-04T02:04:11Z</time>
      </trkpt>
      <trkpt lat="41.693593" lon="-5.798011">
        <ele>700.032</ele>
        <time>2019-03-04T02:04:15Z</time>
      </trkpt>
      <trkpt lat="41.693696" lon="-5.797891">
        <ele>699.705</ele>
        <time>2019-03-04T02:04:18Z</time>
      </trkpt>
      <trkpt lat="41.693757" lon="-5.797793">
        <ele>699.608</ele>
        <time>2019-03-04T02:04:25Z</time>
      </trkpt>
      <trkpt lat="41.693785" lon="-5.797751">
        <ele>699.554</ele>
        <time>2019-03-04T02:04:57Z</time>
      </trkpt>
      <trkpt lat="41.693988" lon="-5.797504">
        <ele>699.165</ele>
        <time>2019-03-04T02:05:06Z</time>
      </trkpt>
      <trkpt lat="41.694124" lon="-5.797356">
        <ele>698.536</ele>
        <time>2019-03-04T02:05:10Z</time>
      </trkpt>
      <trkpt lat="41.694690" lon="-5.796586">
        <ele>695.145</ele>
        <time>2019-03-04T02:05:27Z</time>
      </trkpt>
      <trkpt lat="41.694856" lon="-5.796203">
        <ele>694.749</ele>
        <time>2019-03-04T02:05:34Z</time>
      </trkpt>
      <trkpt lat="41.695352" lon="-5.795795">
        <ele>694.512</ele>
        <time>2019-03-04T02:05:48Z</time>
      </trkpt>
      <trkpt lat="41.695936" lon="-5.795336">
        <ele>694.331</ele>
        <time>2019-03-04T02:06:02Z</time>
      </trkpt>
      <trkpt lat="41.696465" lon="-5.794804">
        <ele>694.990</ele>
        <time>2019-03-04T02:06:17Z</time>
      </trkpt>
      <trkpt lat="41.697055" lon="-5.794264">
        <ele>695.819</ele>
        <time>2019-03-04T02:06:35Z</time>
      </trkpt>
      <trkpt lat="41.697276" lon="-5.794098">
        <ele>696.009</ele>
        <time>2019-03-04T02:06:48Z</time>
      </trkpt>
      <trkpt lat="41.697355" lon="-5.794056">
        <ele>696.119</ele>
        <time>2019-03-04T02:07:12Z</time>
      </trkpt>
      <trkpt lat="41.697784" lon="-5.793722">
        <ele>696.308</ele>
        <time>2019-03-04T02:07:25Z</time>
      </trkpt>
      <trkpt lat="41.698639" lon="-5.793195">
        <ele>695.964</ele>
        <time>2019-03-04T02:07:46Z</time>
      </trkpt>
      <trkpt lat="41.699405" lon="-5.792748">
        <ele>695.715</ele>
        <time>2019-03-04T02:08:04Z</time>
      </trkpt>
      <trkpt lat="41.699521" lon="-5.792719">
        <ele>695.846</ele>
        <time>2019-03-04T02:08:12Z</time>
      </trkpt>
      <trkpt lat="41.699563" lon="-5.792666">
        <ele>695.935</ele>
        <time>2019-03-04T02:08:41Z</time>
      </trkpt>
      <trkpt lat="41.699667" lon="-5.792599">
        <ele>696.039</ele>
        <time>2019-03-04T02:08:46Z</time>
      </trkpt>
      <trkpt lat="41.700132" lon="-5.792360">
        <ele>695.892</ele>
        <time>2019-03-04T02:08:59Z</time>
      </trkpt>
      <trkpt lat="41.700827" lon="-5.792038">
        <ele>690.631</ele>
        <time>2019-03-04T02:09:11Z</time>
      </trkpt>
      <trkpt lat="41.701124" lon="-5.791843">
        <ele>688.130</ele>
        <time>2019-03-04T02:09:16Z</time>
      </trkpt>
      <trkpt lat="41.701171" lon="-5.791789">
        <ele>687.458</ele>
        <time>2019-03-04T02:09:17Z</time>
      </trkpt>
      <trkpt lat="41.701211" lon="-5.791735">
        <ele>686.852</ele>
        <time>2019-03-04T02:09:18Z</time>
      </trkpt>
      <trkpt lat="41.701246" lon="-5.791679">
        <ele>686.217</ele>
        <time>2019-03-04T02:09:19Z</time>
      </trkpt>
      <trkpt lat="41.701277" lon="-5.791621">
        <ele>685.808</ele>
        <time>2019-03-04T02:09:20Z</time>
      </trkpt>
      <trkpt lat="41.701802" lon="-5.790692">
        <ele>684.638</ele>
        <time>2019-03-04T02:09:38Z</time>
      </trkpt>
      <trkpt lat="41.702144" lon="-5.790075">
        <ele>686.329</ele>
        <time>2019-03-04T02:09:54Z</time>
      </trkpt>
      <trkpt lat="41.702490" lon="-5.789468">
        <ele>687.030</ele>
        <time>2019-03-04T02:10:09Z</time>
      </trkpt>
      <trkpt lat="41.702596" lon="-5.789290">
        <ele>686.869</ele>
        <time>2019-03-04T02:10:13Z</time>
      </trkpt>
      <trkpt lat="41.703088" lon="-5.788484">
        <ele>685.773</ele>
        <time>2019-03-04T02:10:30Z</time>
      </trkpt>
      <trkpt lat="41.703314" lon="-5.788141">
        <ele>684.236</ele>
        <time>2019-03-04T02:10:37Z</time>
      </trkpt>
      <trkpt lat="41.703351" lon="-5.788099">
        <ele>684.095</ele>
        <time>2019-03-04T02:10:38Z</time>
      </trkpt>
      <trkpt lat="41.703392" lon="-5.788061">
        <ele>683.894</ele>
        <time>2019-03-04T02:10:39Z</time>
      </trkpt>
      <trkpt lat="41.703679" lon="-5.787901">
        <ele>682.412</ele>
        <time>2019-03-04T02:10:45Z</time>
      </trkpt>
      <trkpt lat="41.703732" lon="-5.787892">
        <ele>682.132</ele>
        <time>2019-03-04T02:10:46Z</time>
      </trkpt>
      <trkpt lat="41.703986" lon="-5.787885">
        <ele>681.705</ele>
        <time>2019-03-04T02:10:51Z</time>
      </trkpt>
      <trkpt lat="41.704074" lon="-5.787890">
        <ele>681.608</ele>
        <time>2019-03-04T02:10:53Z</time>
      </trkpt>
      <trkpt lat="41.704280" lon="-5.787900">
        <ele>681.244</ele>
        <time>2019-03-04T02:10:58Z</time>
      </trkpt>
      <trkpt lat="41.705040" lon="-5.788247">
        <ele>683.495</ele>
        <time>2019-03-04T02:11:16Z</time>
      </trkpt>
      <trkpt lat="41.705247" lon="-5.788393">
        <ele>683.646</ele>
        <time>2019-03-04T02:11:21Z</time>
      </trkpt>
      <trkpt lat="41.705480" lon="-5.788562">
        <ele>683.785</ele>
        <time>2019-03-04T02:11:26Z</time>
      </trkpt>
      <trkpt lat="41.705901" lon="-5.788986">
        <ele>683.929</ele>
        <time>2019-03-04T02:11:38Z</time>
      </trkpt>
      <trkpt lat="41.705902" lon="-5.788988">
        <ele>683.982</ele>
        <time>2019-03-04T02:11:42Z</time>
      </trkpt>
      <trkpt lat="41.705983" lon="-5.789037">
        <ele>684.071</ele>
        <time>2019-03-04T02:12:07Z</time>
      </trkpt>
      <trkpt lat="41.706530" lon="-5.789533">
        <ele>685.950</ele>
        <time>2019-03-04T02:12:21Z</time>
      </trkpt>
      <trkpt lat="41.707232" lon="-5.790128">
        <ele>687.382</ele>
        <time>2019-03-04T02:12:38Z</time>
      </trkpt>
      <trkpt lat="41.707469" lon="-5.790317">
        <ele>688.343</ele>
        <time>2019-03-04T02:12:44Z</time>
      </trkpt>
      <trkpt lat="41.707506" lon="-5.790341">
        <ele>688.517</ele>
        <time>2019-03-04T02:12:45Z</time>
      </trkpt>
      <trkpt lat="41.707544" lon="-5.790362">
        <ele>688.808</ele>
        <time>2019-03-04T02:12:46Z</time>
      </trkpt>
      <trkpt lat="41.707849" lon="-5.790496">
        <ele>692.611</ele>
        <time>2019-03-04T02:12:59Z</time>
      </trkpt>
      <trkpt lat="41.708175" lon="-5.790505">
        <ele>695.622</ele>
        <time>2019-03-04T02:13:18Z</time>
      </trkpt>
      <trkpt lat="41.708509" lon="-5.790417">
        <ele>697.373</ele>
        <time>2019-03-04T02:13:37Z</time>
      </trkpt>
      <trkpt lat="41.708846" lon="-5.790306">
        <ele>698.172</ele>
        <time>2019-03-04T02:13:56Z</time>
      </trkpt>
      <trkpt lat="41.709158" lon="-5.790326">
        <ele>698.056</ele>
        <time>2019-03-04T02:14:12Z</time>
      </trkpt>
      <trkpt lat="41.709281" lon="-5.790638">
        <ele>696.959</ele>
        <time>2019-03-04T02:14:25Z</time>
      </trkpt>
      <trkpt lat="41.709376" lon="-5.791245">
        <ele>696.088</ele>
        <time>2019-03-04T02:14:41Z</time>
      </trkpt>
      <trkpt lat="41.709384" lon="-5.791661">
        <ele>694.657</ele>
        <time>2019-03-04T02:14:54Z</time>
      </trkpt>
      <trkpt lat="41.709380" lon="-5.791713">
        <ele>694.668</ele>
        <time>2019-03-04T02:15:00Z</time>
      </trkpt>
      <trkpt lat="41.709488" lon="-5.791647">
        <ele>694.842</ele>
        <time>2019-03-04T02:15:36Z</time>
      </trkpt>
      <trkpt lat="41.709925" lon="-5.791417">
        <ele>695.426</ele>
        <time>2019-03-04T02:15:47Z</time>
      </trkpt>
      <trkpt lat="41.710725" lon="-5.791009">
        <ele>694.908</ele>
        <time>2019-03-04T02:16:03Z</time>
      </trkpt>
      <trkpt lat="41.711406" lon="-5.790700">
        <ele>696.049</ele>
        <time>2019-03-04T02:16:19Z</time>
      </trkpt>
      <trkpt lat="41.711998" lon="-5.790441">
        <ele>698.350</ele>
        <time>2019-03-04T02:16:36Z</time>
      </trkpt>
      <trkpt lat="41.712556" lon="-5.790336">
        <ele>700.551</ele>
        <time>2019-03-04T02:16:51Z</time>
      </trkpt>
      <trkpt lat="41.712764" lon="-5.790384">
        <ele>701.260</ele>
        <time>2019-03-04T02:16:56Z</time>
      </trkpt>
      <trkpt lat="41.713362" lon="-5.790620">
        <ele>702.554</ele>
        <time>2019-03-04T02:17:10Z</time>
      </trkpt>
      <trkpt lat="41.713501" lon="-5.790611">
        <ele>702.747</ele>
        <time>2019-03-04T02:17:13Z</time>
      </trkpt>
      <trkpt lat="41.713544" lon="-5.790593">
        <ele>702.826</ele>
        <time>2019-03-04T02:17:14Z</time>
      </trkpt>
      <trkpt lat="41.713583" lon="-5.790564">
        <ele>702.915</ele>
        <time>2019-03-04T02:17:15Z</time>
      </trkpt>
      <trkpt lat="41.713618" lon="-5.790533">
        <ele>703.067</ele>
        <time>2019-03-04T02:17:16Z</time>
      </trkpt>
      <trkpt lat="41.713651" lon="-5.790507">
        <ele>703.081</ele>
        <time>2019-03-04T02:17:17Z</time>
      </trkpt>
      <trkpt lat="41.713683" lon="-5.790491">
        <ele>703.119</ele>
        <time>2019-03-04T02:17:18Z</time>
      </trkpt>
      <trkpt lat="41.713715" lon="-5.790486">
        <ele>703.108</ele>
        <time>2019-03-04T02:17:19Z</time>
      </trkpt>
      <trkpt lat="41.713748" lon="-5.790489">
        <ele>703.239</ele>
        <time>2019-03-04T02:17:20Z</time>
      </trkpt>
      <trkpt lat="41.713782" lon="-5.790502">
        <ele>703.380</ele>
        <time>2019-03-04T02:17:21Z</time>
      </trkpt>
      <trkpt lat="41.713814" lon="-5.790521">
        <ele>703.321</ele>
        <time>2019-03-04T02:17:22Z</time>
      </trkpt>
      <trkpt lat="41.713845" lon="-5.790543">
        <ele>703.460</ele>
        <time>2019-03-04T02:17:23Z</time>
      </trkpt>
      <trkpt lat="41.714264" lon="-5.790875">
        <ele>704.674</ele>
        <time>2019-03-04T02:17:38Z</time>
      </trkpt>
      <trkpt lat="41.714698" lon="-5.791140">
        <ele>706.067</ele>
        <time>2019-03-04T02:17:55Z</time>
      </trkpt>
      <trkpt lat="41.715105" lon="-5.791606">
        <ele>706.536</ele>
        <time>2019-03-04T02:18:10Z</time>
      </trkpt>
      <trkpt lat="41.715137" lon="-5.791640">
        <ele>706.615</ele>
        <time>2019-03-04T02:18:11Z</time>
      </trkpt>
      <trkpt lat="41.715174" lon="-5.791668">
        <ele>706.651</ele>
        <time>2019-03-04T02:18:12Z</time>
      </trkpt>
      <trkpt lat="41.715827" lon="-5.792119">
        <ele>706.801</ele>
        <time>2019-03-04T02:18:29Z</time>
      </trkpt>
      <trkpt lat="41.716385" lon="-5.792330">
        <ele>708.611</ele>
        <time>2019-03-04T02:18:45Z</time>
      </trkpt>
      <trkpt lat="41.716690" lon="-5.792347">
        <ele>709.808</ele>
        <time>2019-03-04T02:18:59Z</time>
      </trkpt>
      <trkpt lat="41.717204" lon="-5.792287">
        <ele>711.248</ele>
        <time>2019-03-04T02:19:20Z</time>
      </trkpt>
      <trkpt lat="41.717812" lon="-5.792170">
        <ele>711.789</ele>
        <time>2019-03-04T02:19:41Z</time>
      </trkpt>
      <trkpt lat="41.718017" lon="-5.792137">
        <ele>711.650</ele>
        <time>2019-03-04T02:19:53Z</time>
      </trkpt>
      <trkpt lat="41.718114" lon="-5.792103">
        <ele>711.699</ele>
        <time>2019-03-04T02:20:23Z</time>
      </trkpt>
      <trkpt lat="41.718630" lon="-5.792008">
        <ele>712.093</ele>
        <time>2019-03-04T02:20:38Z</time>
      </trkpt>
      <trkpt lat="41.719084" lon="-5.791768">
        <ele>711.736</ele>
        <time>2019-03-04T02:20:52Z</time>
      </trkpt>
      <trkpt lat="41.719525" lon="-5.791440">
        <ele>711.265</ele>
        <time>2019-03-04T02:21:05Z</time>
      </trkpt>
      <trkpt lat="41.720336" lon="-5.791130">
        <ele>707.914</ele>
        <time>2019-03-04T02:21:20Z</time>
      </trkpt>
      <trkpt lat="41.720549" lon="-5.791084">
        <ele>706.715</ele>
        <time>2019-03-04T02:21:27Z</time>
      </trkpt>
      <trkpt lat="41.720549" lon="-5.791086">
        <ele>706.765</ele>
        <time>2019-03-04T02:21:30Z</time>
      </trkpt>
      <trkpt lat="41.720609" lon="-5.791073">
        <ele>706.411</ele>
        <time>2019-03-04T02:22:02Z</time>
      </trkpt>
      <trkpt lat="41.720978" lon="-5.790980">
        <ele>704.608</ele>
        <time>2019-03-04T02:22:15Z</time>
      </trkpt>
      <trkpt lat="41.721488" lon="-5.790808">
        <ele>704.924</ele>
        <time>2019-03-04T02:22:33Z</time>
      </trkpt>
      <trkpt lat="41.721829" lon="-5.790891">
        <ele>706.215</ele>
        <time>2019-03-04T02:22:48Z</time>
      </trkpt>
      <trkpt lat="41.722118" lon="-5.790803">
        <ele>706.856</ele>
        <time>2019-03-04T02:23:00Z</time>
      </trkpt>
      <trkpt lat="41.722413" lon="-5.790846">
        <ele>707.145</ele>
        <time>2019-03-04T02:23:12Z</time>
      </trkpt>
      <trkpt lat="41.722617" lon="-5.790894">
        <ele>707.289</ele>
        <time>2019-03-04T02:23:24Z</time>
      </trkpt>
      <trkpt lat="41.722863" lon="-5.790788">
        <ele>707.162</ele>
        <time>2019-03-04T02:23:34Z</time>
      </trkpt>
      <trkpt lat="41.723455" lon="-5.790493">
        <ele>707.291</ele>
        <time>2019-03-04T02:23:53Z</time>
      </trkpt>
      <trkpt lat="41.723928" lon="-5.790219">
        <ele>708.340</ele>
        <time>2019-03-04T02:24:11Z</time>
      </trkpt>
      <trkpt lat="41.724351" lon="-5.789894">
        <ele>709.666</ele>
        <time>2019-03-04T02:24:27Z</time>
      </trkpt>
      <trkpt lat="41.724878" lon="-5.789636">
        <ele>709.929</ele>
        <time>2019-03-04T02:24:44Z</time>
      </trkpt>
      <trkpt lat="41.725484" lon="-5.789505">
        <ele>710.521</ele>
        <time>2019-03-04T02:25:02Z</time>
      </trkpt>
      <trkpt lat="41.725763" lon="-5.789581">
        <ele>711.608</ele>
        <time>2019-03-04T02:25:15Z</time>
      </trkpt>
      <trkpt lat="41.726005" lon="-5.789638">
        <ele>712.749</ele>
        <time>2019-03-04T02:25:29Z</time>
      </trkpt>
      <trkpt lat="41.726342" lon="-5.789749">
        <ele>714.630</ele>
        <time>2019-03-04T02:25:48Z</time>
      </trkpt>
      <trkpt lat="41.726342" lon="-5.789748">
        <ele>714.621</ele>
        <time>2019-03-04T02:25:50Z</time>
      </trkpt>
      <trkpt lat="41.726392" lon="-5.789765">
        <ele>714.860</ele>
        <time>2019-03-04T02:26:09Z</time>
      </trkpt>
      <trkpt lat="41.726759" lon="-5.789881">
        <ele>716.564</ele>
        <time>2019-03-04T02:26:25Z</time>
      </trkpt>
      <trkpt lat="41.727220" lon="-5.790109">
        <ele>717.967</ele>
        <time>2019-03-04T02:26:40Z</time>
      </trkpt>
      <trkpt lat="41.727690" lon="-5.790332">
        <ele>718.466</ele>
        <time>2019-03-04T02:26:55Z</time>
      </trkpt>
      <trkpt lat="41.728410" lon="-5.790772">
        <ele>718.275</ele>
        <time>2019-03-04T02:27:11Z</time>
      </trkpt>
      <trkpt lat="41.728549" lon="-5.790868">
        <ele>718.032</ele>
        <time>2019-03-04T02:27:14Z</time>
      </trkpt>
      <trkpt lat="41.729218" lon="-5.791270">
        <ele>717.192</ele>
        <time>2019-03-04T02:27:29Z</time>
      </trkpt>
      <trkpt lat="41.730048" lon="-5.791768">
        <ele>715.611</ele>
        <time>2019-03-04T02:27:45Z</time>
      </trkpt>
      <trkpt lat="41.731052" lon="-5.792373">
        <ele>713.408</ele>
        <time>2019-03-04T02:28:04Z</time>
      </trkpt>
      <trkpt lat="41.731218" lon="-5.792475">
        <ele>713.346</ele>
        <time>2019-03-04T02:28:08Z</time>
      </trkpt>
      <trkpt lat="41.731258" lon="-5.792488">
        <ele>713.247</ele>
        <time>2019-03-04T02:28:09Z</time>
      </trkpt>
      <trkpt lat="41.731297" lon="-5.792489">
        <ele>713.268</ele>
        <time>2019-03-04T02:28:10Z</time>
      </trkpt>
      <trkpt lat="41.731333" lon="-5.792475">
        <ele>713.267</ele>
        <time>2019-03-04T02:28:11Z</time>
      </trkpt>
      <trkpt lat="41.731361" lon="-5.792446">
        <ele>713.281</ele>
        <time>2019-03-04T02:28:12Z</time>
      </trkpt>
      <trkpt lat="41.731375" lon="-5.792409">
        <ele>713.254</ele>
        <time>2019-03-04T02:28:13Z</time>
      </trkpt>
      <trkpt lat="41.731382" lon="-5.792367">
        <ele>713.283</ele>
        <time>2019-03-04T02:28:14Z</time>
      </trkpt>
      <trkpt lat="41.731386" lon="-5.792322">
        <ele>713.362</ele>
        <time>2019-03-04T02:28:15Z</time>
      </trkpt>
      <trkpt lat="41.731392" lon="-5.791701">
        <ele>713.166</ele>
        <time>2019-03-04T02:28:27Z</time>
      </trkpt>
      <trkpt lat="41.731401" lon="-5.791523">
        <ele>713.129</ele>
        <time>2019-03-04T02:28:30Z</time>
      </trkpt>
      <trkpt lat="41.731466" lon="-5.790430">
        <ele>712.321</ele>
        <time>2019-03-04T02:28:47Z</time>
      </trkpt>
      <trkpt lat="41.731501" lon="-5.789624">
        <ele>712.408</ele>
        <time>2019-03-04T02:28:59Z</time>
      </trkpt>
      <trkpt lat="41.731514" lon="-5.788623">
        <ele>713.089</ele>
        <time>2019-03-04T02:29:15Z</time>
      </trkpt>
      <trkpt lat="41.731594" lon="-5.787618">
        <ele>714.120</ele>
        <time>2019-03-04T02:29:34Z</time>
      </trkpt>
      <trkpt lat="41.731632" lon="-5.786925">
        <ele>714.241</ele>
        <time>2019-03-04T02:29:48Z</time>
      </trkpt>
      <trkpt lat="41.731755" lon="-5.786315">
        <ele>714.660</ele>
        <time>2019-03-04T02:30:01Z</time>
      </trkpt>
      <trkpt lat="41.732056" lon="-5.785485">
        <ele>715.914</ele>
        <time>2019-03-04T02:30:19Z</time>
      </trkpt>
      <trkpt lat="41.732411" lon="-5.784520">
        <ele>716.957</ele>
        <time>2019-03-04T02:30:39Z</time>
      </trkpt>
      <trkpt lat="41.732651" lon="-5.783679">
        <ele>717.946</ele>
        <time>2019-03-04T02:30:58Z</time>
      </trkpt>
      <trkpt lat="41.732802" lon="-5.783081">
        <ele>717.855</ele>
        <time>2019-03-04T02:31:14Z</time>
      </trkpt>
      <trkpt lat="41.732910" lon="-5.782385">
        <ele>716.487</ele>
        <time>2019-03-04T02:31:25Z</time>
      </trkpt>
      <trkpt lat="41.732971" lon="-5.782132">
        <ele>716.542</ele>
        <time>2019-03-04T02:31:29Z</time>
      </trkpt>
      <trkpt lat="41.732981" lon="-5.782080">
        <ele>716.626</ele>
        <time>2019-03-04T02:31:30Z</time>
      </trkpt>
      <trkpt lat="41.732991" lon="-5.782032">
        <ele>716.808</ele>
        <time>2019-03-04T02:31:31Z</time>
      </trkpt>
      <trkpt lat="41.733163" lon="-5.781470">
        <ele>718.551</ele>
        <time>2019-03-04T02:31:45Z</time>
      </trkpt>
      <trkpt lat="41.733305" lon="-5.781035">
        <ele>718.992</ele>
        <time>2019-03-04T02:31:57Z</time>
      </trkpt>
      <trkpt lat="41.733323" lon="-5.780982">
        <ele>718.933</ele>
        <time>2019-03-04T02:31:58Z</time>
      </trkpt>
      <trkpt lat="41.733504" lon="-5.780392">
        <ele>717.712</ele>
        <time>2019-03-04T02:32:08Z</time>
      </trkpt>
      <trkpt lat="41.733651" lon="-5.780161">
        <ele>716.676</ele>
        <time>2019-03-04T02:32:13Z</time>
      </trkpt>
      <trkpt lat="41.733705" lon="-5.780135">
        <ele>716.639</ele>
        <time>2019-03-04T02:32:15Z</time>
      </trkpt>
      <trkpt lat="41.733727" lon="-5.780168">
        <ele>716.698</ele>
        <time>2019-03-04T02:32:19Z</time>
      </trkpt>
      <trkpt lat="41.733789" lon="-5.780369">
        <ele>715.417</ele>
        <time>2019-03-04T02:32:25Z</time>
      </trkpt>
      <trkpt lat="41.733941" lon="-5.780370">
        <ele>714.078</ele>
        <time>2019-03-04T02:32:29Z</time>
      </trkpt>
      <trkpt lat="41.734086" lon="-5.780434">
        <ele>713.533</ele>
        <time>2019-03-04T02:32:33Z</time>
      </trkpt>
      <trkpt lat="41.734258" lon="-5.780672">
        <ele>712.926</ele>
        <time>2019-03-04T02:32:38Z</time>
      </trkpt>
      <trkpt lat="41.734341" lon="-5.780777">
        <ele>712.608</ele>
        <time>2019-03-04T02:32:40Z</time>
      </trkpt>
      <trkpt lat="41.734968" lon="-5.781371">
        <ele>709.620</ele>
        <time>2019-03-04T02:32:53Z</time>
      </trkpt>
      <trkpt lat="41.735308" lon="-5.781752">
        <ele>708.281</ele>
        <time>2019-03-04T02:33:01Z</time>
      </trkpt>
      <trkpt lat="41.735418" lon="-5.781903">
        <ele>707.792</ele>
        <time>2019-03-04T02:33:04Z</time>
      </trkpt>
      <trkpt lat="41.735950" lon="-5.782761">
        <ele>705.971</ele>
        <time>2019-03-04T02:33:21Z</time>
      </trkpt>
      <trkpt lat="41.736121" lon="-5.783092">
        <ele>705.155</ele>
        <time>2019-03-04T02:33:27Z</time>
      </trkpt>
      <trkpt lat="41.736196" lon="-5.783260">
        <ele>704.898</ele>
        <time>2019-03-04T02:33:30Z</time>
      </trkpt>
      <trkpt lat="41.736222" lon="-5.783309">
        <ele>704.797</ele>
        <time>2019-03-04T02:33:31Z</time>
      </trkpt>
      <trkpt lat="41.736254" lon="-5.783353">
        <ele>704.616</ele>
        <time>2019-03-04T02:33:32Z</time>
      </trkpt>
      <trkpt lat="41.736289" lon="-5.783385">
        <ele>704.522</ele>
        <time>2019-03-04T02:33:33Z</time>
      </trkpt>
      <trkpt lat="41.736326" lon="-5.783403">
        <ele>704.362</ele>
        <time>2019-03-04T02:33:34Z</time>
      </trkpt>
      <trkpt lat="41.736362" lon="-5.783405">
        <ele>704.208</ele>
        <time>2019-03-04T02:33:35Z</time>
      </trkpt>
      <trkpt lat="41.736398" lon="-5.783396">
        <ele>704.108</ele>
        <time>2019-03-04T02:33:36Z</time>
      </trkpt>
      <trkpt lat="41.736432" lon="-5.783374">
        <ele>703.935</ele>
        <time>2019-03-04T02:33:37Z</time>
      </trkpt>
      <trkpt lat="41.736466" lon="-5.783346">
        <ele>703.896</ele>
        <time>2019-03-04T02:33:38Z</time>
      </trkpt>
      <trkpt lat="41.736697" lon="-5.783186">
        <ele>703.157</ele>
        <time>2019-03-04T02:33:44Z</time>
      </trkpt>
      <trkpt lat="41.736734" lon="-5.783152">
        <ele>702.986</ele>
        <time>2019-03-04T02:33:45Z</time>
      </trkpt>
      <trkpt lat="41.736770" lon="-5.783120">
        <ele>702.950</ele>
        <time>2019-03-04T02:33:46Z</time>
      </trkpt>
      <trkpt lat="41.737580" lon="-5.782549">
        <ele>701.413</ele>
        <time>2019-03-04T02:34:03Z</time>
      </trkpt>
      <trkpt lat="41.737779" lon="-5.782415">
        <ele>701.192</ele>
        <time>2019-03-04T02:34:07Z</time>
      </trkpt>
      <trkpt lat="41.737922" lon="-5.782338">
        <ele>700.951</ele>
        <time>2019-03-04T02:34:10Z</time>
      </trkpt>
      <trkpt lat="41.738005" lon="-5.782287">
        <ele>700.834</ele>
        <time>2019-03-04T02:34:12Z</time>
      </trkpt>
      <trkpt lat="41.738086" lon="-5.782248">
        <ele>700.655</ele>
        <time>2019-03-04T02:34:14Z</time>
      </trkpt>
      <trkpt lat="41.738164" lon="-5.782195">
        <ele>700.510</ele>
        <time>2019-03-04T02:34:16Z</time>
      </trkpt>
      <trkpt lat="41.738200" lon="-5.782160">
        <ele>700.408</ele>
        <time>2019-03-04T02:34:17Z</time>
      </trkpt>
      <trkpt lat="41.738237" lon="-5.782125">
        <ele>700.426</ele>
        <time>2019-03-04T02:34:18Z</time>
      </trkpt>
      <trkpt lat="41.738277" lon="-5.782094">
        <ele>700.327</ele>
        <time>2019-03-04T02:34:19Z</time>
      </trkpt>
      <trkpt lat="41.738318" lon="-5.782063">
        <ele>700.368</ele>
        <time>2019-03-04T02:34:20Z</time>
      </trkpt>
      <trkpt lat="41.738884" lon="-5.781629">
        <ele>699.597</ele>
        <time>2019-03-04T02:34:36Z</time>
      </trkpt>
      <trkpt lat="41.739545" lon="-5.781182">
        <ele>698.811</ele>
        <time>2019-03-04T02:34:53Z</time>
      </trkpt>
      <trkpt lat="41.739846" lon="-5.780965">
        <ele>698.844</ele>
        <time>2019-03-04T02:35:00Z</time>
      </trkpt>
      <trkpt lat="41.740433" lon="-5.780521">
        <ele>698.373</ele>
        <time>2019-03-04T02:35:14Z</time>
      </trkpt>
      <trkpt lat="41.740573" lon="-5.780485">
        <ele>698.132</ele>
        <time>2019-03-04T02:35:17Z</time>
      </trkpt>
      <trkpt lat="41.740618" lon="-5.780492">
        <ele>698.113</ele>
        <time>2019-03-04T02:35:18Z</time>
      </trkpt>
      <trkpt lat="41.740666" lon="-5.780498">
        <ele>698.243</ele>
        <time>2019-03-04T02:35:19Z</time>
      </trkpt>
      <trkpt lat="41.741534" lon="-5.780612">
        <ele>698.307</ele>
        <time>2019-03-04T02:35:36Z</time>
      </trkpt>
      <trkpt lat="41.742484" lon="-5.780682">
        <ele>698.508</ele>
        <time>2019-03-04T02:35:55Z</time>
      </trkpt>
      <trkpt lat="41.743360" lon="-5.780747">
        <ele>697.754</ele>
        <time>2019-03-04T02:36:13Z</time>
      </trkpt>
      <trkpt lat="41.743865" lon="-5.780775">
        <ele>697.865</ele>
        <time>2019-03-04T02:36:27Z</time>
      </trkpt>
      <trkpt lat="41.744272" lon="-5.780735">
        <ele>698.716</ele>
        <time>2019-03-04T02:36:40Z</time>
      </trkpt>
      <trkpt lat="41.744773" lon="-5.780759">
        <ele>699.935</ele>
        <time>2019-03-04T02:36:57Z</time>
      </trkpt>
      <trkpt lat="41.745368" lon="-5.780492">
        <ele>698.659</ele>
        <time>2019-03-04T02:37:14Z</time>
      </trkpt>
      <trkpt lat="41.745596" lon="-5.780392">
        <ele>698.082</ele>
        <time>2019-03-04T02:37:20Z</time>
      </trkpt>
      <trkpt lat="41.745632" lon="-5.780369">
        <ele>698.031</ele>
        <time>2019-03-04T02:37:21Z</time>
      </trkpt>
      <trkpt lat="41.745667" lon="-5.780345">
        <ele>698.070</ele>
        <time>2019-03-04T02:37:22Z</time>
      </trkpt>
      <trkpt lat="41.745703" lon="-5.780326">
        <ele>698.075</ele>
        <time>2019-03-04T02:37:23Z</time>
      </trkpt>
      <trkpt lat="41.745740" lon="-5.780309">
        <ele>698.028</ele>
        <time>2019-03-04T02:37:24Z</time>
      </trkpt>
      <trkpt lat="41.746294" lon="-5.780055">
        <ele>698.920</ele>
        <time>2019-03-04T02:37:39Z</time>
      </trkpt>
      <trkpt lat="41.746901" lon="-5.779800">
        <ele>698.108</ele>
        <time>2019-03-04T02:37:58Z</time>
      </trkpt>
      <trkpt lat="41.747435" lon="-5.779544">
        <ele>698.530</ele>
        <time>2019-03-04T02:38:13Z</time>
      </trkpt>
      <trkpt lat="41.748033" lon="-5.779287">
        <ele>698.391</ele>
        <time>2019-03-04T02:38:29Z</time>
      </trkpt>
      <trkpt lat="41.748227" lon="-5.779219">
        <ele>699.032</ele>
        <time>2019-03-04T02:38:34Z</time>
      </trkpt>
      <trkpt lat="41.748268" lon="-5.779210">
        <ele>699.011</ele>
        <time>2019-03-04T02:38:35Z</time>
      </trkpt>
      <trkpt lat="41.748309" lon="-5.779196">
        <ele>699.165</ele>
        <time>2019-03-04T02:38:36Z</time>
      </trkpt>
      <trkpt lat="41.748467" lon="-5.779113">
        <ele>699.388</ele>
        <time>2019-03-04T02:38:40Z</time>
      </trkpt>
      <trkpt lat="41.748620" lon="-5.779015">
        <ele>698.877</ele>
        <time>2019-03-04T02:38:44Z</time>
      </trkpt>
      <trkpt lat="41.748661" lon="-5.778999">
        <ele>698.626</ele>
        <time>2019-03-04T02:38:45Z</time>
      </trkpt>
      <trkpt lat="41.748742" lon="-5.778972">
        <ele>698.374</ele>
        <time>2019-03-04T02:38:47Z</time>
      </trkpt>
      <trkpt lat="41.748822" lon="-5.778943">
        <ele>698.256</ele>
        <time>2019-03-04T02:38:49Z</time>
      </trkpt>
      <trkpt lat="41.748903" lon="-5.778924">
        <ele>698.321</ele>
        <time>2019-03-04T02:38:51Z</time>
      </trkpt>
      <trkpt lat="41.749451" lon="-5.778677">
        <ele>699.008</ele>
        <time>2019-03-04T02:39:06Z</time>
      </trkpt>
      <trkpt lat="41.750243" lon="-5.778317">
        <ele>699.720</ele>
        <time>2019-03-04T02:39:28Z</time>
      </trkpt>
      <trkpt lat="41.751060" lon="-5.777944">
        <ele>699.681</ele>
        <time>2019-03-04T02:39:49Z</time>
      </trkpt>
      <trkpt lat="41.751869" lon="-5.777586">
        <ele>697.072</ele>
        <time>2019-03-04T02:40:06Z</time>
      </trkpt>
      <trkpt lat="41.752567" lon="-5.777274">
        <ele>693.591</ele>
        <time>2019-03-04T02:40:19Z</time>
      </trkpt>
      <trkpt lat="41.753116" lon="-5.777012">
        <ele>689.925</ele>
        <time>2019-03-04T02:40:28Z</time>
      </trkpt>
      <trkpt lat="41.753637" lon="-5.776762">
        <ele>689.678</ele>
        <time>2019-03-04T02:40:36Z</time>
      </trkpt>
      <trkpt lat="41.754176" lon="-5.776530">
        <ele>690.467</ele>
        <time>2019-03-04T02:40:48Z</time>
      </trkpt>
      <trkpt lat="41.754688" lon="-5.776413">
        <ele>692.036</ele>
        <time>2019-03-04T02:41:03Z</time>
      </trkpt>
      <trkpt lat="41.755155" lon="-5.776292">
        <ele>693.293</ele>
        <time>2019-03-04T02:41:21Z</time>
      </trkpt>
      <trkpt lat="41.755624" lon="-5.776004">
        <ele>694.565</ele>
        <time>2019-03-04T02:41:40Z</time>
      </trkpt>
      <trkpt lat="41.755802" lon="-5.775492">
        <ele>695.321</ele>
        <time>2019-03-04T02:41:55Z</time>
      </trkpt>
      <trkpt lat="41.756033" lon="-5.774831">
        <ele>695.508</ele>
        <time>2019-03-04T02:42:10Z</time>
      </trkpt>
      <trkpt lat="41.756236" lon="-5.774226">
        <ele>695.582</ele>
        <time>2019-03-04T02:42:24Z</time>
      </trkpt>
      <trkpt lat="41.756490" lon="-5.773485">
        <ele>695.693</ele>
        <time>2019-03-04T02:42:41Z</time>
      </trkpt>
      <trkpt lat="41.756794" lon="-5.773039">
        <ele>696.074</ele>
        <time>2019-03-04T02:42:57Z</time>
      </trkpt>
      <trkpt lat="41.757110" lon="-5.772543">
        <ele>697.243</ele>
        <time>2019-03-04T02:43:14Z</time>
      </trkpt>
      <trkpt lat="41.757460" lon="-5.771963">
        <ele>698.127</ele>
        <time>2019-03-04T02:43:33Z</time>
      </trkpt>
      <trkpt lat="41.757933" lon="-5.771484">
        <ele>699.280</ele>
        <time>2019-03-04T02:43:51Z</time>
      </trkpt>
      <trkpt lat="41.758381" lon="-5.770964">
        <ele>700.689</ele>
        <time>2019-03-04T02:44:11Z</time>
      </trkpt>
      <trkpt lat="41.758698" lon="-5.770243">
        <ele>701.448</ele>
        <time>2019-03-04T02:44:30Z</time>
      </trkpt>
      <trkpt lat="41.758933" lon="-5.769673">
        <ele>701.269</ele>
        <time>2019-03-04T02:44:44Z</time>
      </trkpt>
      <trkpt lat="41.758925" lon="-5.769271">
        <ele>700.704</ele>
        <time>2019-03-04T02:44:56Z</time>
      </trkpt>
      <trkpt lat="41.758764" lon="-5.768427">
        <ele>700.624</ele>
        <time>2019-03-04T02:45:13Z</time>
      </trkpt>
      <trkpt lat="41.758881" lon="-5.767849">
        <ele>700.608</ele>
        <time>2019-03-04T02:45:26Z</time>
      </trkpt>
      <trkpt lat="41.759102" lon="-5.767504">
        <ele>701.119</ele>
        <time>2019-03-04T02:45:38Z</time>
      </trkpt>
      <trkpt lat="41.759151" lon="-5.767444">
        <ele>701.210</ele>
        <time>2019-03-04T02:45:45Z</time>
      </trkpt>
      <trkpt lat="41.759181" lon="-5.767373">
        <ele>701.251</ele>
        <time>2019-03-04T02:45:55Z</time>
      </trkpt>
      <trkpt lat="41.759506" lon="-5.766747">
        <ele>701.960</ele>
        <time>2019-03-04T02:46:10Z</time>
      </trkpt>
      <trkpt lat="41.759718" lon="-5.766408">
        <ele>702.274</ele>
        <time>2019-03-04T02:46:24Z</time>
      </trkpt>
      <trkpt lat="41.759718" lon="-5.766408">
        <ele>702.287</ele>
        <time>2019-03-04T02:46:26Z</time>
      </trkpt>
      <trkpt lat="41.759682" lon="-5.766467">
        <ele>702.316</ele>
        <time>2019-03-04T02:46:36Z</time>
      </trkpt>
      <trkpt lat="41.759658" lon="-5.766490">
        <ele>702.225</ele>
        <time>2019-03-04T02:46:37Z</time>
      </trkpt>
      <trkpt lat="41.759636" lon="-5.766522">
        <ele>702.259</ele>
        <time>2019-03-04T02:46:38Z</time>
      </trkpt>
      <trkpt lat="41.759617" lon="-5.766563">
        <ele>702.203</ele>
        <time>2019-03-04T02:46:39Z</time>
      </trkpt>
      <trkpt lat="41.759298" lon="-5.767170">
        <ele>701.523</ele>
        <time>2019-03-04T02:46:53Z</time>
      </trkpt>
      <trkpt lat="41.759141" lon="-5.767471">
        <ele>701.108</ele>
        <time>2019-03-04T02:47:01Z</time>
      </trkpt>
      <trkpt lat="41.759145" lon="-5.767495">
        <ele>701.268</ele>
        <time>2019-03-04T02:47:02Z</time>
      </trkpt>
      <trkpt lat="41.759156" lon="-5.767509">
        <ele>701.219</ele>
        <time>2019-03-04T02:47:06Z</time>
      </trkpt>
      <trkpt lat="41.759184" lon="-5.767446">
        <ele>701.220</ele>
        <time>2019-03-04T02:47:46Z</time>
      </trkpt>
      <trkpt lat="41.759207" lon="-5.767357">
        <ele>701.399</ele>
        <time>2019-03-04T02:47:49Z</time>
      </trkpt>
      <trkpt lat="41.759224" lon="-5.767319">
        <ele>701.363</ele>
        <time>2019-03-04T02:47:50Z</time>
      </trkpt>
      <trkpt lat="41.759242" lon="-5.767279">
        <ele>701.486</ele>
        <time>2019-03-04T02:47:51Z</time>
      </trkpt>
      <trkpt lat="41.759263" lon="-5.767239">
        <ele>701.425</ele>
        <time>2019-03-04T02:47:52Z</time>
      </trkpt>
      <trkpt lat="41.759284" lon="-5.767199">
        <ele>701.564</ele>
        <time>2019-03-04T02:47:53Z</time>
      </trkpt>
      <trkpt lat="41.759605" lon="-5.766620">
        <ele>702.298</ele>
        <time>2019-03-04T02:48:07Z</time>
      </trkpt>
      <trkpt lat="41.759828" lon="-5.766290">
        <ele>702.515</ele>
        <time>2019-03-04T02:48:16Z</time>
      </trkpt>
      <trkpt lat="41.760223" lon="-5.766021">
        <ele>702.526</ele>
        <time>2019-03-04T02:48:28Z</time>
      </trkpt>
      <trkpt lat="41.760568" lon="-5.765912">
        <ele>702.208</ele>
        <time>2019-03-04T02:48:37Z</time>
      </trkpt>
      <trkpt lat="41.760752" lon="-5.765814">
        <ele>701.852</ele>
        <time>2019-03-04T02:48:45Z</time>
      </trkpt>
      <trkpt lat="41.760854" lon="-5.765838">
        <ele>701.743</ele>
        <time>2019-03-04T02:48:48Z</time>
      </trkpt>
      <trkpt lat="41.761040" lon="-5.765860">
        <ele>701.644</ele>
        <time>2019-03-04T02:48:53Z</time>
      </trkpt>
      <trkpt lat="41.761226" lon="-5.765882">
        <ele>701.643</ele>
        <time>2019-03-04T02:48:57Z</time>
      </trkpt>
      <trkpt lat="41.761550" lon="-5.765953">
        <ele>701.337</ele>
        <time>2019-03-04T02:49:06Z</time>
      </trkpt>
      <trkpt lat="41.761989" lon="-5.766166">
        <ele>701.020</ele>
        <time>2019-03-04T02:49:21Z</time>
      </trkpt>
      <trkpt lat="41.762011" lon="-5.766166">
        <ele>701.189</ele>
        <time>2019-03-04T02:49:22Z</time>
      </trkpt>
      <trkpt lat="41.761939" lon="-5.766182">
        <ele>701.248</ele>
        <time>2019-03-04T02:49:29Z</time>
      </trkpt>
      <trkpt lat="41.761892" lon="-5.766269">
        <ele>701.466</ele>
        <time>2019-03-04T02:49:32Z</time>
      </trkpt>
      <trkpt lat="41.761652" lon="-5.766765">
        <ele>702.529</ele>
        <time>2019-03-04T02:49:48Z</time>
      </trkpt>
      <trkpt lat="41.761490" lon="-5.766849">
        <ele>702.821</ele>
        <time>2019-03-04T02:49:54Z</time>
      </trkpt>
      <trkpt lat="41.761384" lon="-5.767256">
        <ele>702.808</ele>
        <time>2019-03-04T02:50:05Z</time>
      </trkpt>
      <trkpt lat="41.761370" lon="-5.767275">
        <ele>702.819</ele>
        <time>2019-03-04T02:50:07Z</time>
      </trkpt>
      <trkpt lat="41.761323" lon="-5.767329">
        <ele>702.870</ele>
        <time>2019-03-04T02:50:10Z</time>
      </trkpt>
      <trkpt lat="41.761303" lon="-5.767353">
        <ele>702.871</ele>
        <time>2019-03-04T02:50:11Z</time>
      </trkpt>
      <trkpt lat="41.761279" lon="-5.767373">
        <ele>702.810</ele>
        <time>2019-03-04T02:50:12Z</time>
      </trkpt>
      <trkpt lat="41.760801" lon="-5.767532">
        <ele>702.864</ele>
        <time>2019-03-04T02:50:24Z</time>
      </trkpt>
      <trkpt lat="41.760607" lon="-5.767551">
        <ele>702.727</ele>
        <time>2019-03-04T02:50:28Z</time>
      </trkpt>
      <trkpt lat="41.760473" lon="-5.767549">
        <ele>702.736</ele>
        <time>2019-03-04T02:50:31Z</time>
      </trkpt>
      <trkpt lat="41.760432" lon="-5.767555">
        <ele>702.695</ele>
        <time>2019-03-04T02:50:32Z</time>
      </trkpt>
      <trkpt lat="41.760363" lon="-5.767583">
        <ele>702.633</ele>
        <time>2019-03-04T02:50:39Z</time>
      </trkpt>
      <trkpt lat="41.760462" lon="-5.767569">
        <ele>702.623</ele>
        <time>2019-03-04T03:10:14Z</time>
      </trkpt>
      <trkpt lat="41.760523" lon="-5.767574">
        <ele>702.715</ele>
        <time>2019-03-04T03:10:23Z</time>
      </trkpt>
      <trkpt lat="41.760593" lon="-5.767477">
        <ele>702.708</ele>
        <time>2019-03-04T03:10:44Z</time>
      </trkpt>
      <trkpt lat="41.760614" lon="-5.767464">
        <ele>702.776</ele>
        <time>2019-03-04T03:10:45Z</time>
      </trkpt>
      <trkpt lat="41.760642" lon="-5.767458">
        <ele>702.787</ele>
        <time>2019-03-04T03:10:46Z</time>
      </trkpt>
      <trkpt lat="41.760670" lon="-5.767451">
        <ele>702.728</ele>
        <time>2019-03-04T03:10:47Z</time>
      </trkpt>
      <trkpt lat="41.760700" lon="-5.767441">
        <ele>702.757</ele>
        <time>2019-03-04T03:10:48Z</time>
      </trkpt>
      <trkpt lat="41.760733" lon="-5.767434">
        <ele>702.741</ele>
        <time>2019-03-04T03:10:49Z</time>
      </trkpt>
      <trkpt lat="41.760766" lon="-5.767430">
        <ele>702.834</ele>
        <time>2019-03-04T03:10:50Z</time>
      </trkpt>
      <trkpt lat="41.761182" lon="-5.767469">
        <ele>702.833</ele>
        <time>2019-03-04T03:11:03Z</time>
      </trkpt>
      <trkpt lat="41.761513" lon="-5.767738">
        <ele>702.762</ele>
        <time>2019-03-04T03:11:14Z</time>
      </trkpt>
      <trkpt lat="41.761936" lon="-5.768390">
        <ele>702.178</ele>
        <time>2019-03-04T03:11:30Z</time>
      </trkpt>
      <trkpt lat="41.762270" lon="-5.769075">
        <ele>701.533</ele>
        <time>2019-03-04T03:11:45Z</time>
      </trkpt>
      <trkpt lat="41.762420" lon="-5.769412">
        <ele>701.626</ele>
        <time>2019-03-04T03:11:52Z</time>
      </trkpt>
      <trkpt lat="41.762605" lon="-5.769780">
        <ele>701.708</ele>
        <time>2019-03-04T03:12:02Z</time>
      </trkpt>
      <trkpt lat="41.762627" lon="-5.769780">
        <ele>701.750</ele>
        <time>2019-03-04T03:12:03Z</time>
      </trkpt>
      <trkpt lat="41.762647" lon="-5.769764">
        <ele>701.791</ele>
        <time>2019-03-04T03:12:04Z</time>
      </trkpt>
      <trkpt lat="41.762668" lon="-5.769739">
        <ele>701.952</ele>
        <time>2019-03-04T03:12:05Z</time>
      </trkpt>
      <trkpt lat="41.762690" lon="-5.769710">
        <ele>702.091</ele>
        <time>2019-03-04T03:12:06Z</time>
      </trkpt>
      <trkpt lat="41.763154" lon="-5.769127">
        <ele>704.525</ele>
        <time>2019-03-04T03:12:25Z</time>
      </trkpt>
      <trkpt lat="41.763707" lon="-5.768436">
        <ele>705.318</ele>
        <time>2019-03-04T03:12:48Z</time>
      </trkpt>
      <trkpt lat="41.764144" lon="-5.767885">
        <ele>706.167</ele>
        <time>2019-03-04T03:13:08Z</time>
      </trkpt>
      <trkpt lat="41.764564" lon="-5.767355">
        <ele>707.596</ele>
        <time>2019-03-04T03:13:27Z</time>
      </trkpt>
      <trkpt lat="41.765054" lon="-5.767060">
        <ele>710.267</ele>
        <time>2019-03-04T03:13:45Z</time>
      </trkpt>
      <trkpt lat="41.765648" lon="-5.766948">
        <ele>711.881</ele>
        <time>2019-03-04T03:14:06Z</time>
      </trkpt>
      <trkpt lat="41.766175" lon="-5.766838">
        <ele>712.719</ele>
        <time>2019-03-04T03:14:25Z</time>
      </trkpt>
      <trkpt lat="41.766746" lon="-5.766729">
        <ele>712.708</ele>
        <time>2019-03-04T03:14:43Z</time>
      </trkpt>
      <trkpt lat="41.767239" lon="-5.766632">
        <ele>711.859</ele>
        <time>2019-03-04T03:14:57Z</time>
      </trkpt>
      <trkpt lat="41.767288" lon="-5.766620">
        <ele>711.670</ele>
        <time>2019-03-04T03:15:03Z</time>
      </trkpt>
      <trkpt lat="41.767347" lon="-5.766601">
        <ele>711.331</ele>
        <time>2019-03-04T03:15:17Z</time>
      </trkpt>
      <trkpt lat="41.767756" lon="-5.766519">
        <ele>711.430</ele>
        <time>2019-03-04T03:15:31Z</time>
      </trkpt>
      <trkpt lat="41.768224" lon="-5.766430">
        <ele>711.274</ele>
        <time>2019-03-04T03:15:45Z</time>
      </trkpt>
      <trkpt lat="41.769017" lon="-5.766277">
        <ele>710.867</ele>
        <time>2019-03-04T03:16:04Z</time>
      </trkpt>
      <trkpt lat="41.769788" lon="-5.766110">
        <ele>710.116</ele>
        <time>2019-03-04T03:16:23Z</time>
      </trkpt>
      <trkpt lat="41.770596" lon="-5.765949">
        <ele>710.525</ele>
        <time>2019-03-04T03:16:39Z</time>
      </trkpt>
      <trkpt lat="41.771150" lon="-5.765841">
        <ele>710.924</ele>
        <time>2019-03-04T03:16:54Z</time>
      </trkpt>
      <trkpt lat="41.771674" lon="-5.765727">
        <ele>711.704</ele>
        <time>2019-03-04T03:17:14Z</time>
      </trkpt>
      <trkpt lat="41.772095" lon="-5.765650">
        <ele>713.514</ele>
        <time>2019-03-04T03:17:32Z</time>
      </trkpt>
      <trkpt lat="41.772550" lon="-5.765555">
        <ele>714.808</ele>
        <time>2019-03-04T03:17:51Z</time>
      </trkpt>
      <trkpt lat="41.773094" lon="-5.765444">
        <ele>717.835</ele>
        <time>2019-03-04T03:18:13Z</time>
      </trkpt>
      <trkpt lat="41.773564" lon="-5.765345">
        <ele>718.566</ele>
        <time>2019-03-04T03:18:31Z</time>
      </trkpt>
      <trkpt lat="41.774107" lon="-5.765238">
        <ele>718.857</ele>
        <time>2019-03-04T03:18:49Z</time>
      </trkpt>
      <trkpt lat="41.774759" lon="-5.765104">
        <ele>719.756</ele>
        <time>2019-03-04T03:19:10Z</time>
      </trkpt>
      <trkpt lat="41.775058" lon="-5.765047">
        <ele>720.020</ele>
        <time>2019-03-04T03:19:24Z</time>
      </trkpt>
      <trkpt lat="41.775510" lon="-5.764959">
        <ele>720.293</ele>
        <time>2019-03-04T03:19:38Z</time>
      </trkpt>
      <trkpt lat="41.776131" lon="-5.764838">
        <ele>720.232</ele>
        <time>2019-03-04T03:19:55Z</time>
      </trkpt>
      <trkpt lat="41.776596" lon="-5.764740">
        <ele>720.381</ele>
        <time>2019-03-04T03:20:08Z</time>
      </trkpt>
      <trkpt lat="41.776955" lon="-5.764943">
        <ele>719.916</ele>
        <time>2019-03-04T03:20:21Z</time>
      </trkpt>
      <trkpt lat="41.777273" lon="-5.765158">
        <ele>721.076</ele>
        <time>2019-03-04T03:20:35Z</time>
      </trkpt>
      <trkpt lat="41.777908" lon="-5.765336">
        <ele>723.313</ele>
        <time>2019-03-04T03:20:58Z</time>
      </trkpt>
      <trkpt lat="41.778440" lon="-5.765455">
        <ele>726.108</ele>
        <time>2019-03-04T03:21:19Z</time>
      </trkpt>
      <trkpt lat="41.778885" lon="-5.765512">
        <ele>727.954</ele>
        <time>2019-03-04T03:21:39Z</time>
      </trkpt>
      <trkpt lat="41.779388" lon="-5.765550">
        <ele>727.925</ele>
        <time>2019-03-04T03:21:57Z</time>
      </trkpt>
      <trkpt lat="41.780025" lon="-5.765560">
        <ele>725.516</ele>
        <time>2019-03-04T03:22:11Z</time>
      </trkpt>
      <trkpt lat="41.780463" lon="-5.765545">
        <ele>724.645</ele>
        <time>2019-03-04T03:22:19Z</time>
      </trkpt>
      <trkpt lat="41.781060" lon="-5.765520">
        <ele>723.199</ele>
        <time>2019-03-04T03:22:33Z</time>
      </trkpt>
      <trkpt lat="41.781431" lon="-5.765466">
        <ele>722.582</ele>
        <time>2019-03-04T03:22:46Z</time>
      </trkpt>
      <trkpt lat="41.781497" lon="-5.765169">
        <ele>721.341</ele>
        <time>2019-03-04T03:22:54Z</time>
      </trkpt>
      <trkpt lat="41.781440" lon="-5.764334">
        <ele>718.870</ele>
        <time>2019-03-04T03:23:07Z</time>
      </trkpt>
      <trkpt lat="41.781440" lon="-5.764313">
        <ele>718.813</ele>
        <time>2019-03-04T03:23:12Z</time>
      </trkpt>
      <trkpt lat="41.781446" lon="-5.764216">
        <ele>718.643</ele>
        <time>2019-03-04T03:23:22Z</time>
      </trkpt>
      <trkpt lat="41.781444" lon="-5.764035">
        <ele>718.207</ele>
        <time>2019-03-04T03:23:26Z</time>
      </trkpt>
      <trkpt lat="41.781477" lon="-5.763928">
        <ele>718.008</ele>
        <time>2019-03-04T03:23:28Z</time>
      </trkpt>
      <trkpt lat="41.781506" lon="-5.763880">
        <ele>718.014</ele>
        <time>2019-03-04T03:23:29Z</time>
      </trkpt>
      <trkpt lat="41.781539" lon="-5.763838">
        <ele>718.055</ele>
        <time>2019-03-04T03:23:30Z</time>
      </trkpt>
      <trkpt lat="41.781573" lon="-5.763801">
        <ele>718.056</ele>
        <time>2019-03-04T03:23:31Z</time>
      </trkpt>
      <trkpt lat="41.781608" lon="-5.763774">
        <ele>718.015</ele>
        <time>2019-03-04T03:23:32Z</time>
      </trkpt>
      <trkpt lat="41.781645" lon="-5.763760">
        <ele>718.159</ele>
        <time>2019-03-04T03:23:33Z</time>
      </trkpt>
      <trkpt lat="41.781680" lon="-5.763746">
        <ele>718.142</ele>
        <time>2019-03-04T03:23:34Z</time>
      </trkpt>
      <trkpt lat="41.781715" lon="-5.763733">
        <ele>718.271</ele>
        <time>2019-03-04T03:23:35Z</time>
      </trkpt>
      <trkpt lat="41.781752" lon="-5.763720">
        <ele>718.270</ele>
        <time>2019-03-04T03:23:36Z</time>
      </trkpt>
      <trkpt lat="41.782378" lon="-5.763589">
        <ele>719.121</ele>
        <time>2019-03-04T03:23:53Z</time>
      </trkpt>
      <trkpt lat="41.783056" lon="-5.763452">
        <ele>720.541</ele>
        <time>2019-03-04T03:24:14Z</time>
      </trkpt>
      <trkpt lat="41.783734" lon="-5.763312">
        <ele>721.205</ele>
        <time>2019-03-04T03:24:33Z</time>
      </trkpt>
      <trkpt lat="41.784166" lon="-5.763220">
        <ele>723.208</ele>
        <time>2019-03-04T03:24:51Z</time>
      </trkpt>
      <trkpt lat="41.784585" lon="-5.763127">
        <ele>725.235</ele>
        <time>2019-03-04T03:25:13Z</time>
      </trkpt>
      <trkpt lat="41.784970" lon="-5.763045">
        <ele>725.456</ele>
        <time>2019-03-04T03:25:31Z</time>
      </trkpt>
      <trkpt lat="41.785476" lon="-5.762910">
        <ele>726.727</ele>
        <time>2019-03-04T03:25:48Z</time>
      </trkpt>
      <trkpt lat="41.786109" lon="-5.762635">
        <ele>726.416</ele>
        <time>2019-03-04T03:26:06Z</time>
      </trkpt>
      <trkpt lat="41.786444" lon="-5.762461">
        <ele>725.710</ele>
        <time>2019-03-04T03:26:14Z</time>
      </trkpt>
      <trkpt lat="41.787025" lon="-5.762136">
        <ele>724.333</ele>
        <time>2019-03-04T03:26:28Z</time>
      </trkpt>
      <trkpt lat="41.787788" lon="-5.761705">
        <ele>722.322</ele>
        <time>2019-03-04T03:26:46Z</time>
      </trkpt>
      <trkpt lat="41.788402" lon="-5.761256">
        <ele>722.141</ele>
        <time>2019-03-04T03:27:02Z</time>
      </trkpt>
      <trkpt lat="41.788446" lon="-5.761216">
        <ele>721.994</ele>
        <time>2019-03-04T03:27:03Z</time>
      </trkpt>
      <trkpt lat="41.788493" lon="-5.761180">
        <ele>721.757</ele>
        <time>2019-03-04T03:27:04Z</time>
      </trkpt>
      <trkpt lat="41.788535" lon="-5.761149">
        <ele>721.522</ele>
        <time>2019-03-04T03:27:05Z</time>
      </trkpt>
      <trkpt lat="41.788574" lon="-5.761121">
        <ele>721.408</ele>
        <time>2019-03-04T03:27:06Z</time>
      </trkpt>
      <trkpt lat="41.788610" lon="-5.761096">
        <ele>721.462</ele>
        <time>2019-03-04T03:27:07Z</time>
      </trkpt>
      <trkpt lat="41.789096" lon="-5.760721">
        <ele>724.143</ele>
        <time>2019-03-04T03:27:24Z</time>
      </trkpt>
      <trkpt lat="41.789617" lon="-5.760312">
        <ele>724.814</ele>
        <time>2019-03-04T03:27:44Z</time>
      </trkpt>
      <trkpt lat="41.790030" lon="-5.759967">
        <ele>725.273</ele>
        <time>2019-03-04T03:27:57Z</time>
      </trkpt>
      <trkpt lat="41.790666" lon="-5.759426">
        <ele>723.327</ele>
        <time>2019-03-04T03:28:13Z</time>
      </trkpt>
      <trkpt lat="41.791187" lon="-5.759026">
        <ele>723.740</ele>
        <time>2019-03-04T03:28:28Z</time>
      </trkpt>
      <trkpt lat="41.791665" lon="-5.758770">
        <ele>726.799</ele>
        <time>2019-03-04T03:28:45Z</time>
      </trkpt>
      <trkpt lat="41.791944" lon="-5.758636">
        <ele>728.218</ele>
        <time>2019-03-04T03:29:01Z</time>
      </trkpt>
      <trkpt lat="41.792214" lon="-5.758472">
        <ele>729.434</ele>
        <time>2019-03-04T03:29:19Z</time>
      </trkpt>
      <trkpt lat="41.792486" lon="-5.758276">
        <ele>731.155</ele>
        <time>2019-03-04T03:29:36Z</time>
      </trkpt>
      <trkpt lat="41.792730" lon="-5.758119">
        <ele>731.710</ele>
        <time>2019-03-04T03:29:52Z</time>
      </trkpt>
      <trkpt lat="41.793104" lon="-5.757873">
        <ele>731.208</ele>
        <time>2019-03-04T03:30:09Z</time>
      </trkpt>
      <trkpt lat="41.793656" lon="-5.757569">
        <ele>729.936</ele>
        <time>2019-03-04T03:30:25Z</time>
      </trkpt>
      <trkpt lat="41.794462" lon="-5.757193">
        <ele>727.997</ele>
        <time>2019-03-04T03:30:42Z</time>
      </trkpt>
      <trkpt lat="41.795108" lon="-5.756922">
        <ele>726.428</ele>
        <time>2019-03-04T03:30:58Z</time>
      </trkpt>
      <trkpt lat="41.795707" lon="-5.756678">
        <ele>725.077</ele>
        <time>2019-03-04T03:31:13Z</time>
      </trkpt>
      <trkpt lat="41.796434" lon="-5.756301">
        <ele>723.531</ele>
        <time>2019-03-04T03:31:29Z</time>
      </trkpt>
      <trkpt lat="41.796772" lon="-5.756075">
        <ele>722.474</ele>
        <time>2019-03-04T03:31:36Z</time>
      </trkpt>
      <trkpt lat="41.796816" lon="-5.756033">
        <ele>722.283</ele>
        <time>2019-03-04T03:31:37Z</time>
      </trkpt>
      <trkpt lat="41.797495" lon="-5.755276">
        <ele>719.022</ele>
        <time>2019-03-04T03:31:53Z</time>
      </trkpt>
      <trkpt lat="41.797536" lon="-5.755230">
        <ele>718.837</ele>
        <time>2019-03-04T03:31:54Z</time>
      </trkpt>
      <trkpt lat="41.798062" lon="-5.754621">
        <ele>717.049</ele>
        <time>2019-03-04T03:32:08Z</time>
      </trkpt>
      <trkpt lat="41.798722" lon="-5.753890">
        <ele>715.513</ele>
        <time>2019-03-04T03:32:26Z</time>
      </trkpt>
      <trkpt lat="41.799297" lon="-5.753236">
        <ele>714.908</ele>
        <time>2019-03-04T03:32:43Z</time>
      </trkpt>
      <trkpt lat="41.799929" lon="-5.752531">
        <ele>714.726</ele>
        <time>2019-03-04T03:33:01Z</time>
      </trkpt>
      <trkpt lat="41.800550" lon="-5.751871">
        <ele>714.447</ele>
        <time>2019-03-04T03:33:18Z</time>
      </trkpt>
      <trkpt lat="41.801127" lon="-5.751250">
        <ele>713.788</ele>
        <time>2019-03-04T03:33:32Z</time>
      </trkpt>
      <trkpt lat="41.801744" lon="-5.750573">
        <ele>712.827</ele>
        <time>2019-03-04T03:33:49Z</time>
      </trkpt>
      <trkpt lat="41.802353" lon="-5.749916">
        <ele>712.391</ele>
        <time>2019-03-04T03:34:06Z</time>
      </trkpt>
      <trkpt lat="41.802972" lon="-5.749254">
        <ele>711.334</ele>
        <time>2019-03-04T03:34:23Z</time>
      </trkpt>
      <trkpt lat="41.803758" lon="-5.748417">
        <ele>709.973</ele>
        <time>2019-03-04T03:34:43Z</time>
      </trkpt>
      <trkpt lat="41.804404" lon="-5.747713">
        <ele>708.642</ele>
        <time>2019-03-04T03:35:00Z</time>
      </trkpt>
      <trkpt lat="41.805017" lon="-5.747049">
        <ele>708.036</ele>
        <time>2019-03-04T03:35:17Z</time>
      </trkpt>
      <trkpt lat="41.805614" lon="-5.746399">
        <ele>707.317</ele>
        <time>2019-03-04T03:35:34Z</time>
      </trkpt>
      <trkpt lat="41.806193" lon="-5.745782">
        <ele>706.418</ele>
        <time>2019-03-04T03:35:50Z</time>
      </trkpt>
      <trkpt lat="41.806876" lon="-5.745046">
        <ele>705.108</ele>
        <time>2019-03-04T03:36:08Z</time>
      </trkpt>
      <trkpt lat="41.807335" lon="-5.744548">
        <ele>703.746</ele>
        <time>2019-03-04T03:36:23Z</time>
      </trkpt>
      <trkpt lat="41.807580" lon="-5.744290">
        <ele>703.287</ele>
        <time>2019-03-04T03:36:35Z</time>
      </trkpt>
      <trkpt lat="41.807792" lon="-5.744029">
        <ele>702.418</ele>
        <time>2019-03-04T03:36:42Z</time>
      </trkpt>
      <trkpt lat="41.808331" lon="-5.743443">
        <ele>701.247</ele>
        <time>2019-03-04T03:36:58Z</time>
      </trkpt>
      <trkpt lat="41.808600" lon="-5.743027">
        <ele>701.591</ele>
        <time>2019-03-04T03:37:11Z</time>
      </trkpt>
      <trkpt lat="41.808650" lon="-5.742530">
        <ele>702.234</ele>
        <time>2019-03-04T03:37:24Z</time>
      </trkpt>
      <trkpt lat="41.808963" lon="-5.742205">
        <ele>702.863</ele>
        <time>2019-03-04T03:37:38Z</time>
      </trkpt>
      <trkpt lat="41.809000" lon="-5.742165">
        <ele>702.962</ele>
        <time>2019-03-04T03:37:41Z</time>
      </trkpt>
      <trkpt lat="41.809005" lon="-5.742159">
        <ele>702.948</ele>
        <time>2019-03-04T03:37:45Z</time>
      </trkpt>
      <trkpt lat="41.809059" lon="-5.742116">
        <ele>702.961</ele>
        <time>2019-03-04T03:38:07Z</time>
      </trkpt>
      <trkpt lat="41.809374" lon="-5.741875">
        <ele>703.117</ele>
        <time>2019-03-04T03:38:18Z</time>
      </trkpt>
      <trkpt lat="41.809402" lon="-5.741846">
        <ele>703.108</ele>
        <time>2019-03-04T03:38:19Z</time>
      </trkpt>
      <trkpt lat="41.809379" lon="-5.741582">
        <ele>703.417</ele>
        <time>2019-03-04T03:38:25Z</time>
      </trkpt>
      <trkpt lat="41.809277" lon="-5.740932">
        <ele>704.448</ele>
        <time>2019-03-04T03:38:38Z</time>
      </trkpt>
      <trkpt lat="41.809185" lon="-5.740487">
        <ele>705.059</ele>
        <time>2019-03-04T03:38:49Z</time>
      </trkpt>
      <trkpt lat="41.809105" lon="-5.740073">
        <ele>705.648</ele>
        <time>2019-03-04T03:39:01Z</time>
      </trkpt>
      <trkpt lat="41.809008" lon="-5.739614">
        <ele>706.372</ele>
        <time>2019-03-04T03:39:13Z</time>
      </trkpt>
      <trkpt lat="41.809026" lon="-5.739548">
        <ele>706.655</ele>
        <time>2019-03-04T03:39:15Z</time>
      </trkpt>
      <trkpt lat="41.809044" lon="-5.739515">
        <ele>706.754</ele>
        <time>2019-03-04T03:39:16Z</time>
      </trkpt>
      <trkpt lat="41.809066" lon="-5.739484">
        <ele>706.823</ele>
        <time>2019-03-04T03:39:17Z</time>
      </trkpt>
      <trkpt lat="41.809088" lon="-5.739455">
        <ele>706.971</ele>
        <time>2019-03-04T03:39:18Z</time>
      </trkpt>
      <trkpt lat="41.809354" lon="-5.739103">
        <ele>708.741</ele>
        <time>2019-03-04T03:39:32Z</time>
      </trkpt>
      <trkpt lat="41.809360" lon="-5.739094">
        <ele>708.715</ele>
        <time>2019-03-04T03:39:36Z</time>
      </trkpt>
      <trkpt lat="41.809380" lon="-5.739062">
        <ele>708.708</ele>
        <time>2019-03-04T03:40:11Z</time>
      </trkpt>
      <trkpt lat="41.809398" lon="-5.739070">
        <ele>708.780</ele>
        <time>2019-03-04T03:40:12Z</time>
      </trkpt>
      <trkpt lat="41.809417" lon="-5.739083">
        <ele>708.781</ele>
        <time>2019-03-04T03:40:13Z</time>
      </trkpt>
      <trkpt lat="41.809495" lon="-5.739170">
        <ele>708.922</ele>
        <time>2019-03-04T03:40:17Z</time>
      </trkpt>
      <trkpt lat="41.809611" lon="-5.739311">
        <ele>709.181</ele>
        <time>2019-03-04T03:40:23Z</time>
      </trkpt>
      <trkpt lat="41.809648" lon="-5.739334">
        <ele>709.265</ele>
        <time>2019-03-04T03:40:29Z</time>
      </trkpt>
      <trkpt lat="41.809836" lon="-5.739468">
        <ele>709.368</ele>
        <time>2019-03-04T03:51:11Z</time>
      </trkpt>
      <trkpt lat="41.809874" lon="-5.739572">
        <ele>709.257</ele>
        <time>2019-03-04T03:51:16Z</time>
      </trkpt>
      <trkpt lat="41.809970" lon="-5.739920">
        <ele>708.856</ele>
        <time>2019-03-04T03:51:26Z</time>
      </trkpt>
      <trkpt lat="41.809908" lon="-5.740135">
        <ele>707.921</ele>
        <time>2019-03-04T03:51:30Z</time>
      </trkpt>
      <trkpt lat="41.809837" lon="-5.740384">
        <ele>706.641</ele>
        <time>2019-03-04T03:51:34Z</time>
      </trkpt>
      <trkpt lat="41.809782" lon="-5.740968">
        <ele>704.805</ele>
        <time>2019-03-04T03:51:46Z</time>
      </trkpt>
      <trkpt lat="41.809787" lon="-5.741329">
        <ele>704.908</ele>
        <time>2019-03-04T03:51:55Z</time>
      </trkpt>
      <trkpt lat="41.809781" lon="-5.741333">
        <ele>704.965</ele>
        <time>2019-03-04T03:51:59Z</time>
      </trkpt>
      <trkpt lat="41.809790" lon="-5.741401">
        <ele>704.966</ele>
        <time>2019-03-04T03:52:23Z</time>
      </trkpt>
      <trkpt lat="41.809907" lon="-5.741817">
        <ele>704.437</ele>
        <time>2019-03-04T03:52:34Z</time>
      </trkpt>
      <trkpt lat="41.809993" lon="-5.742368">
        <ele>704.436</ele>
        <time>2019-03-04T03:52:47Z</time>
      </trkpt>
      <trkpt lat="41.810114" lon="-5.743081">
        <ele>705.130</ele>
        <time>2019-03-04T03:53:02Z</time>
      </trkpt>
      <trkpt lat="41.810272" lon="-5.743764">
        <ele>704.983</ele>
        <time>2019-03-04T03:53:17Z</time>
      </trkpt>
      <trkpt lat="41.810347" lon="-5.744520">
        <ele>704.332</ele>
        <time>2019-03-04T03:53:33Z</time>
      </trkpt>
      <trkpt lat="41.810437" lon="-5.745294">
        <ele>703.891</ele>
        <time>2019-03-04T03:53:49Z</time>
      </trkpt>
      <trkpt lat="41.810572" lon="-5.746038">
        <ele>703.722</ele>
        <time>2019-03-04T03:54:04Z</time>
      </trkpt>
      <trkpt lat="41.810645" lon="-5.746821">
        <ele>703.162</ele>
        <time>2019-03-04T03:54:19Z</time>
      </trkpt>
      <trkpt lat="41.810544" lon="-5.747918">
        <ele>702.908</ele>
        <time>2019-03-04T03:54:39Z</time>
      </trkpt>
      <trkpt lat="41.810471" lon="-5.748872">
        <ele>702.108</ele>
        <time>2019-03-04T03:54:56Z</time>
      </trkpt>
      <trkpt lat="41.810535" lon="-5.749520">
        <ele>702.265</ele>
        <time>2019-03-04T03:55:07Z</time>
      </trkpt>
      <trkpt lat="41.810628" lon="-5.750348">
        <ele>701.936</ele>
        <time>2019-03-04T03:55:22Z</time>
      </trkpt>
      <trkpt lat="41.810658" lon="-5.750915">
        <ele>701.937</ele>
        <time>2019-03-04T03:55:33Z</time>
      </trkpt>
      <trkpt lat="41.810554" lon="-5.752001">
        <ele>702.186</ele>
        <time>2019-03-04T03:55:49Z</time>
      </trkpt>
      <trkpt lat="41.810537" lon="-5.752205">
        <ele>701.940</ele>
        <time>2019-03-04T03:55:52Z</time>
      </trkpt>
      <trkpt lat="41.810466" lon="-5.752750">
        <ele>701.233</ele>
        <time>2019-03-04T03:56:00Z</time>
      </trkpt>
      <trkpt lat="41.810464" lon="-5.752907">
        <ele>700.982</ele>
        <time>2019-03-04T03:56:02Z</time>
      </trkpt>
      <trkpt lat="41.810506" lon="-5.753273">
        <ele>700.451</ele>
        <time>2019-03-04T03:56:07Z</time>
      </trkpt>
      <trkpt lat="41.810689" lon="-5.754320">
        <ele>700.595</ele>
        <time>2019-03-04T03:56:23Z</time>
      </trkpt>
      <trkpt lat="41.810724" lon="-5.754960">
        <ele>700.549</ele>
        <time>2019-03-04T03:56:34Z</time>
      </trkpt>
      <trkpt lat="41.810727" lon="-5.754971">
        <ele>700.523</ele>
        <time>2019-03-04T03:56:39Z</time>
      </trkpt>
      <trkpt lat="41.810715" lon="-5.755028">
        <ele>700.308</ele>
        <time>2019-03-04T03:57:10Z</time>
      </trkpt>
      <trkpt lat="41.810696" lon="-5.755503">
        <ele>700.712</ele>
        <time>2019-03-04T03:57:21Z</time>
      </trkpt>
      <trkpt lat="41.810632" lon="-5.756405">
        <ele>700.223</ele>
        <time>2019-03-04T03:57:37Z</time>
      </trkpt>
      <trkpt lat="41.810577" lon="-5.757656">
        <ele>700.974</ele>
        <time>2019-03-04T03:57:56Z</time>
      </trkpt>
      <trkpt lat="41.810640" lon="-5.759116">
        <ele>701.583</ele>
        <time>2019-03-04T03:58:18Z</time>
      </trkpt>
      <trkpt lat="41.810682" lon="-5.760574">
        <ele>702.287</ele>
        <time>2019-03-04T03:58:40Z</time>
      </trkpt>
      <trkpt lat="41.810783" lon="-5.761891">
        <ele>701.760</ele>
        <time>2019-03-04T03:59:01Z</time>
      </trkpt>
      <trkpt lat="41.810990" lon="-5.762737">
        <ele>700.629</ele>
        <time>2019-03-04T03:59:15Z</time>
      </trkpt>
      <trkpt lat="41.811007" lon="-5.762787">
        <ele>700.458</ele>
        <time>2019-03-04T03:59:16Z</time>
      </trkpt>
      <trkpt lat="41.811021" lon="-5.762840">
        <ele>700.416</ele>
        <time>2019-03-04T03:59:17Z</time>
      </trkpt>
      <trkpt lat="41.811148" lon="-5.763213">
        <ele>700.576</ele>
        <time>2019-03-04T03:59:24Z</time>
      </trkpt>
      <trkpt lat="41.811690" lon="-5.764051">
        <ele>700.613</ele>
        <time>2019-03-04T03:59:41Z</time>
      </trkpt>
      <trkpt lat="41.811753" lon="-5.764139">
        <ele>700.508</ele>
        <time>2019-03-04T03:59:43Z</time>
      </trkpt>
      <trkpt lat="41.811786" lon="-5.764185">
        <ele>700.594</ele>
        <time>2019-03-04T03:59:44Z</time>
      </trkpt>
      <trkpt lat="41.811821" lon="-5.764236">
        <ele>700.685</ele>
        <time>2019-03-04T03:59:45Z</time>
      </trkpt>
      <trkpt lat="41.812346" lon="-5.764803">
        <ele>700.736</ele>
        <time>2019-03-04T03:59:59Z</time>
      </trkpt>
      <trkpt lat="41.812724" lon="-5.764975">
        <ele>701.465</ele>
        <time>2019-03-04T04:00:10Z</time>
      </trkpt>
      <trkpt lat="41.812916" lon="-5.765148">
        <ele>701.039</ele>
        <time>2019-03-04T04:00:15Z</time>
      </trkpt>
      <trkpt lat="41.812980" lon="-5.765237">
        <ele>700.412</ele>
        <time>2019-03-04T04:00:17Z</time>
      </trkpt>
      <trkpt lat="41.813069" lon="-5.765374">
        <ele>699.551</ele>
        <time>2019-03-04T04:00:20Z</time>
      </trkpt>
      <trkpt lat="41.813232" lon="-5.765668">
        <ele>697.430</ele>
        <time>2019-03-04T04:00:26Z</time>
      </trkpt>
      <trkpt lat="41.813806" lon="-5.766139">
        <ele>696.245</ele>
        <time>2019-03-04T04:00:41Z</time>
      </trkpt>
      <trkpt lat="41.814308" lon="-5.766420">
        <ele>700.147</ele>
        <time>2019-03-04T04:00:55Z</time>
      </trkpt>
      <trkpt lat="41.814508" lon="-5.765966">
        <ele>700.311</ele>
        <time>2019-03-04T04:01:07Z</time>
      </trkpt>
      <trkpt lat="41.814771" lon="-5.765197">
        <ele>700.808</ele>
        <time>2019-03-04T04:01:26Z</time>
      </trkpt>
      <trkpt lat="41.815031" lon="-5.764484">
        <ele>701.357</ele>
        <time>2019-03-04T04:01:45Z</time>
      </trkpt>
      <trkpt lat="41.815245" lon="-5.763913">
        <ele>701.798</ele>
        <time>2019-03-04T04:02:03Z</time>
      </trkpt>
      <trkpt lat="41.815417" lon="-5.763562">
        <ele>702.029</ele>
        <time>2019-03-04T04:02:16Z</time>
      </trkpt>
      <trkpt lat="41.815415" lon="-5.763566">
        <ele>702.048</ele>
        <time>2019-03-04T04:02:19Z</time>
      </trkpt>
      <trkpt lat="41.815452" lon="-5.763523">
        <ele>702.152</ele>
        <time>2019-03-04T04:03:36Z</time>
      </trkpt>
      <trkpt lat="41.815751" lon="-5.763204">
        <ele>702.465</ele>
        <time>2019-03-04T04:03:50Z</time>
      </trkpt>
      <trkpt lat="41.816102" lon="-5.762745">
        <ele>703.094</ele>
        <time>2019-03-04T04:04:06Z</time>
      </trkpt>
      <trkpt lat="41.816547" lon="-5.762154">
        <ele>703.453</ele>
        <time>2019-03-04T04:04:26Z</time>
      </trkpt>
      <trkpt lat="41.816864" lon="-5.761699">
        <ele>704.334</ele>
        <time>2019-03-04T04:04:42Z</time>
      </trkpt>
      <trkpt lat="41.817134" lon="-5.761548">
        <ele>705.655</ele>
        <time>2019-03-04T04:04:56Z</time>
      </trkpt>
      <trkpt lat="41.817369" lon="-5.761763">
        <ele>707.710</ele>
        <time>2019-03-04T04:05:13Z</time>
      </trkpt>
      <trkpt lat="41.817579" lon="-5.761963">
        <ele>709.908</ele>
        <time>2019-03-04T04:05:29Z</time>
      </trkpt>
      <trkpt lat="41.817776" lon="-5.762153">
        <ele>712.186</ele>
        <time>2019-03-04T04:05:43Z</time>
      </trkpt>
      <trkpt lat="41.817983" lon="-5.762383">
        <ele>714.037</ele>
        <time>2019-03-04T04:06:00Z</time>
      </trkpt>
      <trkpt lat="41.818242" lon="-5.762619">
        <ele>716.018</ele>
        <time>2019-03-04T04:06:19Z</time>
      </trkpt>
      <trkpt lat="41.818476" lon="-5.762843">
        <ele>718.147</ele>
        <time>2019-03-04T04:06:38Z</time>
      </trkpt>
      <trkpt lat="41.818732" lon="-5.763060">
        <ele>719.941</ele>
        <time>2019-03-04T04:06:57Z</time>
      </trkpt>
      <trkpt lat="41.819067" lon="-5.763395">
        <ele>721.574</ele>
        <time>2019-03-04T04:07:19Z</time>
      </trkpt>
      <trkpt lat="41.819368" lon="-5.763679">
        <ele>722.033</ele>
        <time>2019-03-04T04:07:33Z</time>
      </trkpt>
      <trkpt lat="41.819876" lon="-5.764139">
        <ele>722.962</ele>
        <time>2019-03-04T04:07:52Z</time>
      </trkpt>
      <trkpt lat="41.820553" lon="-5.764781">
        <ele>723.561</ele>
        <time>2019-03-04T04:08:15Z</time>
      </trkpt>
      <trkpt lat="41.821099" lon="-5.765336">
        <ele>723.821</ele>
        <time>2019-03-04T04:08:34Z</time>
      </trkpt>
      <trkpt lat="41.821550" lon="-5.765784">
        <ele>724.613</ele>
        <time>2019-03-04T04:08:51Z</time>
      </trkpt>
      <trkpt lat="41.821849" lon="-5.766074">
        <ele>724.608</ele>
        <time>2019-03-04T04:09:03Z</time>
      </trkpt>
      <trkpt lat="41.822371" lon="-5.766522">
        <ele>723.859</ele>
        <time>2019-03-04T04:09:19Z</time>
      </trkpt>
      <trkpt lat="41.822944" lon="-5.767080">
        <ele>723.250</ele>
        <time>2019-03-04T04:09:37Z</time>
      </trkpt>
      <trkpt lat="41.823475" lon="-5.767525">
        <ele>723.771</ele>
        <time>2019-03-04T04:09:52Z</time>
      </trkpt>
      <trkpt lat="41.824038" lon="-5.767974">
        <ele>722.860</ele>
        <time>2019-03-04T04:10:08Z</time>
      </trkpt>
      <trkpt lat="41.824692" lon="-5.768626">
        <ele>723.254</ele>
        <time>2019-03-04T04:10:27Z</time>
      </trkpt>
      <trkpt lat="41.825561" lon="-5.769333">
        <ele>722.917</ele>
        <time>2019-03-04T04:10:50Z</time>
      </trkpt>
      <trkpt lat="41.826187" lon="-5.769876">
        <ele>722.366</ele>
        <time>2019-03-04T04:11:07Z</time>
      </trkpt>
      <trkpt lat="41.826711" lon="-5.770326">
        <ele>720.945</ele>
        <time>2019-03-04T04:11:20Z</time>
      </trkpt>
      <trkpt lat="41.826749" lon="-5.770373">
        <ele>720.757</ele>
        <time>2019-03-04T04:11:21Z</time>
      </trkpt>
      <trkpt lat="41.827141" lon="-5.770925">
        <ele>719.000</ele>
        <time>2019-03-04T04:11:34Z</time>
      </trkpt>
      <trkpt lat="41.827152" lon="-5.770936">
        <ele>718.920</ele>
        <time>2019-03-04T04:11:39Z</time>
      </trkpt>
      <trkpt lat="41.827176" lon="-5.770991">
        <ele>718.808</ele>
        <time>2019-03-04T04:12:04Z</time>
      </trkpt>
      <trkpt lat="41.827563" lon="-5.771425">
        <ele>717.268</ele>
        <time>2019-03-04T04:12:15Z</time>
      </trkpt>
      <trkpt lat="41.827732" lon="-5.771664">
        <ele>716.489</ele>
        <time>2019-03-04T04:12:19Z</time>
      </trkpt>
      <trkpt lat="41.828128" lon="-5.772638">
        <ele>713.990</ele>
        <time>2019-03-04T04:12:33Z</time>
      </trkpt>
      <trkpt lat="41.828183" lon="-5.772836">
        <ele>713.689</ele>
        <time>2019-03-04T04:12:36Z</time>
      </trkpt>
      <trkpt lat="41.828201" lon="-5.772897">
        <ele>713.593</ele>
        <time>2019-03-04T04:12:37Z</time>
      </trkpt>
      <trkpt lat="41.828582" lon="-5.774004">
        <ele>712.496</ele>
        <time>2019-03-04T04:12:54Z</time>
      </trkpt>
      <trkpt lat="41.828794" lon="-5.774742">
        <ele>712.385</ele>
        <time>2019-03-04T04:13:07Z</time>
      </trkpt>
      <trkpt lat="41.828823" lon="-5.774854">
        <ele>712.364</ele>
        <time>2019-03-04T04:13:09Z</time>
      </trkpt>
      <trkpt lat="41.829008" lon="-5.775473">
        <ele>712.999</ele>
        <time>2019-03-04T04:13:23Z</time>
      </trkpt>
      <trkpt lat="41.829226" lon="-5.776080">
        <ele>714.707</ele>
        <time>2019-03-04T04:13:42Z</time>
      </trkpt>
      <trkpt lat="41.829450" lon="-5.776535">
        <ele>716.827</ele>
        <time>2019-03-04T04:14:03Z</time>
      </trkpt>
      <trkpt lat="41.829607" lon="-5.776926">
        <ele>718.508</ele>
        <time>2019-03-04T04:14:22Z</time>
      </trkpt>
      <trkpt lat="41.829651" lon="-5.777470">
        <ele>719.852</ele>
        <time>2019-03-04T04:14:42Z</time>
      </trkpt>
      <trkpt lat="41.829766" lon="-5.778014">
        <ele>720.943</ele>
        <time>2019-03-04T04:15:00Z</time>
      </trkpt>
      <trkpt lat="41.829778" lon="-5.778053">
        <ele>721.064</ele>
        <time>2019-03-04T04:15:05Z</time>
      </trkpt>
      <trkpt lat="41.829785" lon="-5.778086">
        <ele>721.393</ele>
        <time>2019-03-04T04:15:44Z</time>
      </trkpt>
      <trkpt lat="41.829799" lon="-5.778095">
        <ele>721.387</ele>
        <time>2019-03-04T04:15:45Z</time>
      </trkpt>
      <trkpt lat="41.829815" lon="-5.778097">
        <ele>721.380</ele>
        <time>2019-03-04T04:15:46Z</time>
      </trkpt>
      <trkpt lat="41.829830" lon="-5.778096">
        <ele>721.499</ele>
        <time>2019-03-04T04:15:47Z</time>
      </trkpt>
      <trkpt lat="41.829846" lon="-5.778092">
        <ele>721.448</ele>
        <time>2019-03-04T04:15:48Z</time>
      </trkpt>
      <trkpt lat="41.829877" lon="-5.778068">
        <ele>721.421</ele>
        <time>2019-03-04T04:15:50Z</time>
      </trkpt>
      <trkpt lat="41.830190" lon="-5.777848">
        <ele>722.241</ele>
        <time>2019-03-04T04:16:05Z</time>
      </trkpt>
      <trkpt lat="41.830666" lon="-5.777557">
        <ele>724.205</ele>
        <time>2019-03-04T04:16:27Z</time>
      </trkpt>
      <trkpt lat="41.831046" lon="-5.777321">
        <ele>725.808</ele>
        <time>2019-03-04T04:16:46Z</time>
      </trkpt>
      <trkpt lat="41.831461" lon="-5.777060">
        <ele>727.485</ele>
        <time>2019-03-04T04:17:06Z</time>
      </trkpt>
      <trkpt lat="41.831968" lon="-5.776755">
        <ele>729.356</ele>
        <time>2019-03-04T04:17:29Z</time>
      </trkpt>
      <trkpt lat="41.832295" lon="-5.776572">
        <ele>730.747</ele>
        <time>2019-03-04T04:17:45Z</time>
      </trkpt>
      <trkpt lat="41.832735" lon="-5.776309">
        <ele>732.966</ele>
        <time>2019-03-04T04:18:06Z</time>
      </trkpt>
      <trkpt lat="41.833114" lon="-5.776075">
        <ele>734.990</ele>
        <time>2019-03-04T04:18:25Z</time>
      </trkpt>
      <trkpt lat="41.833345" lon="-5.775926">
        <ele>736.493</ele>
        <time>2019-03-04T04:18:43Z</time>
      </trkpt>
      <trkpt lat="41.833594" lon="-5.775775">
        <ele>738.672</ele>
        <time>2019-03-04T04:19:02Z</time>
      </trkpt>
      <trkpt lat="41.833867" lon="-5.775613">
        <ele>741.291</ele>
        <time>2019-03-04T04:19:23Z</time>
      </trkpt>
      <trkpt lat="41.834016" lon="-5.775505">
        <ele>742.668</ele>
        <time>2019-03-04T04:19:36Z</time>
      </trkpt>
      <trkpt lat="41.834051" lon="-5.775488">
        <ele>742.942</ele>
        <time>2019-03-04T04:19:43Z</time>
      </trkpt>
      <trkpt lat="41.834111" lon="-5.775447">
        <ele>743.526</ele>
        <time>2019-03-04T04:20:14Z</time>
      </trkpt>
      <trkpt lat="41.834360" lon="-5.775292">
        <ele>745.908</ele>
        <time>2019-03-04T04:20:34Z</time>
      </trkpt>
      <trkpt lat="41.834587" lon="-5.775135">
        <ele>748.159</ele>
        <time>2019-03-04T04:20:52Z</time>
      </trkpt>
      <trkpt lat="41.834837" lon="-5.774969">
        <ele>750.480</ele>
        <time>2019-03-04T04:21:11Z</time>
      </trkpt>
      <trkpt lat="41.835135" lon="-5.774783">
        <ele>752.081</ele>
        <time>2019-03-04T04:21:31Z</time>
      </trkpt>
      <trkpt lat="41.835432" lon="-5.774612">
        <ele>752.370</ele>
        <time>2019-03-04T04:21:47Z</time>
      </trkpt>
      <trkpt lat="41.835772" lon="-5.774396">
        <ele>751.474</ele>
        <time>2019-03-04T04:21:59Z</time>
      </trkpt>
      <trkpt lat="41.836245" lon="-5.774104">
        <ele>749.697</ele>
        <time>2019-03-04T04:22:11Z</time>
      </trkpt>
      <trkpt lat="41.837209" lon="-5.773514">
        <ele>745.766</ele>
        <time>2019-03-04T04:22:30Z</time>
      </trkpt>
      <trkpt lat="41.837754" lon="-5.773183">
        <ele>741.955</ele>
        <time>2019-03-04T04:22:41Z</time>
      </trkpt>
      <trkpt lat="41.838004" lon="-5.773063">
        <ele>738.695</ele>
        <time>2019-03-04T04:22:48Z</time>
      </trkpt>
      <trkpt lat="41.838026" lon="-5.773075">
        <ele>738.649</ele>
        <time>2019-03-04T04:22:49Z</time>
      </trkpt>
      <trkpt lat="41.838182" lon="-5.773412">
        <ele>738.523</ele>
        <time>2019-03-04T04:22:59Z</time>
      </trkpt>
      <trkpt lat="41.838318" lon="-5.773977">
        <ele>738.708</ele>
        <time>2019-03-04T04:23:15Z</time>
      </trkpt>
      <trkpt lat="41.838505" lon="-5.774723">
        <ele>739.312</ele>
        <time>2019-03-04T04:23:33Z</time>
      </trkpt>
      <trkpt lat="41.838647" lon="-5.775254">
        <ele>739.353</ele>
        <time>2019-03-04T04:23:47Z</time>
      </trkpt>
      <trkpt lat="41.838646" lon="-5.775250">
        <ele>739.324</ele>
        <time>2019-03-04T04:23:51Z</time>
      </trkpt>
      <trkpt lat="41.838638" lon="-5.775300">
        <ele>739.363</ele>
        <time>2019-03-04T04:24:27Z</time>
      </trkpt>
      <trkpt lat="41.838784" lon="-5.775817">
        <ele>738.777</ele>
        <time>2019-03-04T04:24:39Z</time>
      </trkpt>
      <trkpt lat="41.839011" lon="-5.776763">
        <ele>736.310</ele>
        <time>2019-03-04T04:24:52Z</time>
      </trkpt>
      <trkpt lat="41.839238" lon="-5.777611">
        <ele>734.699</ele>
        <time>2019-03-04T04:25:01Z</time>
      </trkpt>
      <trkpt lat="41.839462" lon="-5.778505">
        <ele>732.548</ele>
        <time>2019-03-04T04:25:15Z</time>
      </trkpt>
      <trkpt lat="41.839498" lon="-5.778643">
        <ele>731.343</ele>
        <time>2019-03-04T04:25:25Z</time>
      </trkpt>
      <trkpt lat="41.839504" lon="-5.778715">
        <ele>730.564</ele>
        <time>2019-03-04T04:25:47Z</time>
      </trkpt>
      <trkpt lat="41.839542" lon="-5.778884">
        <ele>728.110</ele>
        <time>2019-03-04T04:25:57Z</time>
      </trkpt>
      <trkpt lat="41.839551" lon="-5.778935">
        <ele>727.208</ele>
        <time>2019-03-04T04:26:18Z</time>
      </trkpt>
      <trkpt lat="41.839577" lon="-5.779136">
        <ele>723.597</ele>
        <time>2019-03-04T04:26:32Z</time>
      </trkpt>
      <trkpt lat="41.839628" lon="-5.779270">
        <ele>721.348</ele>
        <time>2019-03-04T04:26:42Z</time>
      </trkpt>
      <trkpt lat="41.839657" lon="-5.779297">
        <ele>720.989</ele>
        <time>2019-03-04T04:26:49Z</time>
      </trkpt>
      <trkpt lat="41.839746" lon="-5.779309">
        <ele>720.088</ele>
        <time>2019-03-04T04:27:30Z</time>
      </trkpt>
      <trkpt lat="41.840242" lon="-5.779417">
        <ele>716.972</ele>
        <time>2019-03-04T04:27:40Z</time>
      </trkpt>
      <trkpt lat="41.840293" lon="-5.779416">
        <ele>716.785</ele>
        <time>2019-03-04T04:27:41Z</time>
      </trkpt>
      <trkpt lat="41.840646" lon="-5.779402">
        <ele>715.394</ele>
        <time>2019-03-04T04:27:50Z</time>
      </trkpt>
      <trkpt lat="41.840915" lon="-5.779435">
        <ele>714.543</ele>
        <time>2019-03-04T04:28:03Z</time>
      </trkpt>
      <trkpt lat="41.841058" lon="-5.779448">
        <ele>714.888</ele>
        <time>2019-03-04T04:28:10Z</time>
      </trkpt>
      <trkpt lat="41.841085" lon="-5.779473">
        <ele>714.524</ele>
        <time>2019-03-04T04:28:11Z</time>
      </trkpt>
      <trkpt lat="41.841112" lon="-5.779504">
        <ele>714.226</ele>
        <time>2019-03-04T04:28:12Z</time>
      </trkpt>
      <trkpt lat="41.841137" lon="-5.779544">
        <ele>713.808</ele>
        <time>2019-03-04T04:28:13Z</time>
      </trkpt>
      <trkpt lat="41.841158" lon="-5.779589">
        <ele>713.421</ele>
        <time>2019-03-04T04:28:14Z</time>
      </trkpt>
      <trkpt lat="41.841180" lon="-5.779636">
        <ele>712.922</ele>
        <time>2019-03-04T04:28:15Z</time>
      </trkpt>
      <trkpt lat="41.841204" lon="-5.779684">
        <ele>712.583</ele>
        <time>2019-03-04T04:28:16Z</time>
      </trkpt>
      <trkpt lat="41.841285" lon="-5.779828">
        <ele>711.292</ele>
        <time>2019-03-04T04:28:19Z</time>
      </trkpt>
      <trkpt lat="41.841847" lon="-5.780563">
        <ele>704.616</ele>
        <time>2019-03-04T04:28:32Z</time>
      </trkpt>
      <trkpt lat="41.842007" lon="-5.780826">
        <ele>702.449</ele>
        <time>2019-03-04T04:28:37Z</time>
      </trkpt>
      <trkpt lat="41.842006" lon="-5.780865">
        <ele>702.268</ele>
        <time>2019-03-04T04:28:38Z</time>
      </trkpt>
      <trkpt lat="41.842006" lon="-5.780899">
        <ele>702.017</ele>
        <time>2019-03-04T04:28:39Z</time>
      </trkpt>
      <trkpt lat="41.842009" lon="-5.780924">
        <ele>701.882</ele>
        <time>2019-03-04T04:28:40Z</time>
      </trkpt>
      <trkpt lat="41.842014" lon="-5.780934">
        <ele>701.843</ele>
        <time>2019-03-04T04:28:44Z</time>
      </trkpt>
      <trkpt lat="41.842076" lon="-5.780962">
        <ele>701.317</ele>
        <time>2019-03-04T04:29:18Z</time>
      </trkpt>
      <trkpt lat="41.842153" lon="-5.781061">
        <ele>700.508</ele>
        <time>2019-03-04T04:29:21Z</time>
      </trkpt>
      <trkpt lat="41.842519" lon="-5.781820">
        <ele>697.071</ele>
        <time>2019-03-04T04:29:32Z</time>
      </trkpt>
      <trkpt lat="41.842537" lon="-5.781909">
        <ele>696.572</ele>
        <time>2019-03-04T04:29:34Z</time>
      </trkpt>
      <trkpt lat="41.842527" lon="-5.781937">
        <ele>696.443</ele>
        <time>2019-03-04T04:29:35Z</time>
      </trkpt>
      <trkpt lat="41.842518" lon="-5.781958">
        <ele>696.232</ele>
        <time>2019-03-04T04:29:36Z</time>
      </trkpt>
      <trkpt lat="41.842515" lon="-5.781975">
        <ele>696.116</ele>
        <time>2019-03-04T04:29:37Z</time>
      </trkpt>
      <trkpt lat="41.842516" lon="-5.781976">
        <ele>696.169</ele>
        <time>2019-03-04T04:29:41Z</time>
      </trkpt>
      <trkpt lat="41.842575" lon="-5.782001">
        <ele>695.548</ele>
        <time>2019-03-04T04:30:03Z</time>
      </trkpt>
      <trkpt lat="41.842646" lon="-5.782077">
        <ele>694.357</ele>
        <time>2019-03-04T04:30:06Z</time>
      </trkpt>
      <trkpt lat="41.842670" lon="-5.782124">
        <ele>693.911</ele>
        <time>2019-03-04T04:30:07Z</time>
      </trkpt>
      <trkpt lat="41.842691" lon="-5.782180">
        <ele>693.421</ele>
        <time>2019-03-04T04:30:08Z</time>
      </trkpt>
      <trkpt lat="41.842716" lon="-5.782242">
        <ele>692.803</ele>
        <time>2019-03-04T04:30:09Z</time>
      </trkpt>
      <trkpt lat="41.842741" lon="-5.782309">
        <ele>692.208</ele>
        <time>2019-03-04T04:30:10Z</time>
      </trkpt>
      <trkpt lat="41.842769" lon="-5.782377">
        <ele>691.614</ele>
        <time>2019-03-04T04:30:11Z</time>
      </trkpt>
      <trkpt lat="41.842922" lon="-5.782649">
        <ele>687.165</ele>
        <time>2019-03-04T04:30:15Z</time>
      </trkpt>
      <trkpt lat="41.842972" lon="-5.782707">
        <ele>686.076</ele>
        <time>2019-03-04T04:30:16Z</time>
      </trkpt>
      <trkpt lat="41.843024" lon="-5.782754">
        <ele>685.335</ele>
        <time>2019-03-04T04:30:17Z</time>
      </trkpt>
      <trkpt lat="41.843079" lon="-5.782790">
        <ele>684.779</ele>
        <time>2019-03-04T04:30:18Z</time>
      </trkpt>
      <trkpt lat="41.843135" lon="-5.782816">
        <ele>684.112</ele>
        <time>2019-03-04T04:30:19Z</time>
      </trkpt>
      <trkpt lat="41.843187" lon="-5.782830">
        <ele>683.711</ele>
        <time>2019-03-04T04:30:20Z</time>
      </trkpt>
      <trkpt lat="41.843232" lon="-5.782838">
        <ele>683.430</ele>
        <time>2019-03-04T04:30:21Z</time>
      </trkpt>
      <trkpt lat="41.843376" lon="-5.782919">
        <ele>682.512</ele>
        <time>2019-03-04T04:30:26Z</time>
      </trkpt>
      <trkpt lat="41.843399" lon="-5.782929">
        <ele>682.332</ele>
        <time>2019-03-04T04:30:27Z</time>
      </trkpt>
      <trkpt lat="41.843424" lon="-5.782934">
        <ele>682.205</ele>
        <time>2019-03-04T04:30:28Z</time>
      </trkpt>
      <trkpt lat="41.843531" lon="-5.782947">
        <ele>681.708</ele>
        <time>2019-03-04T04:30:38Z</time>
      </trkpt>
      <trkpt lat="41.843594" lon="-5.782924">
        <ele>681.524</ele>
        <time>2019-03-04T04:31:27Z</time>
      </trkpt>
      <trkpt lat="41.844095" lon="-5.783013">
        <ele>679.175</ele>
        <time>2019-03-04T04:31:38Z</time>
      </trkpt>
      <trkpt lat="41.844495" lon="-5.783203">
        <ele>675.436</ele>
        <time>2019-03-04T04:31:45Z</time>
      </trkpt>
      <trkpt lat="41.844557" lon="-5.783210">
        <ele>674.795</ele>
        <time>2019-03-04T04:31:46Z</time>
      </trkpt>
      <trkpt lat="41.844618" lon="-5.783208">
        <ele>674.129</ele>
        <time>2019-03-04T04:31:47Z</time>
      </trkpt>
      <trkpt lat="41.844942" lon="-5.783162">
        <ele>671.412</ele>
        <time>2019-03-04T04:31:56Z</time>
      </trkpt>
      <trkpt lat="41.844943" lon="-5.783162">
        <ele>671.451</ele>
        <time>2019-03-04T04:31:59Z</time>
      </trkpt>
      <trkpt lat="41.844967" lon="-5.783137">
        <ele>671.020</ele>
        <time>2019-03-04T04:33:15Z</time>
      </trkpt>
      <trkpt lat="41.844978" lon="-5.783126">
        <ele>670.986</ele>
        <time>2019-03-04T04:33:20Z</time>
      </trkpt>
      <trkpt lat="41.845081" lon="-5.783063">
        <ele>669.960</ele>
        <time>2019-03-04T04:33:40Z</time>
      </trkpt>
      <trkpt lat="41.845444" lon="-5.783058">
        <ele>667.626</ele>
        <time>2019-03-04T04:33:51Z</time>
      </trkpt>
      <trkpt lat="41.845489" lon="-5.783152">
        <ele>669.508</ele>
        <time>2019-03-04T04:33:53Z</time>
      </trkpt>
      <trkpt lat="41.845508" lon="-5.783204">
        <ele>669.431</ele>
        <time>2019-03-04T04:33:54Z</time>
      </trkpt>
      <trkpt lat="41.845592" lon="-5.783539">
        <ele>668.532</ele>
        <time>2019-03-04T04:34:05Z</time>
      </trkpt>
      <trkpt lat="41.845594" lon="-5.783545">
        <ele>668.533</ele>
        <time>2019-03-04T04:34:06Z</time>
      </trkpt>
      <trkpt lat="41.845578" lon="-5.783596">
        <ele>668.352</ele>
        <time>2019-03-04T04:34:57Z</time>
      </trkpt>
      <trkpt lat="41.845581" lon="-5.783606">
        <ele>668.396</ele>
        <time>2019-03-04T04:35:01Z</time>
      </trkpt>
      <trkpt lat="41.845595" lon="-5.783654">
        <ele>668.229</ele>
        <time>2019-03-04T04:35:24Z</time>
      </trkpt>
      <trkpt lat="41.845709" lon="-5.784224">
        <ele>666.768</ele>
        <time>2019-03-04T04:35:36Z</time>
      </trkpt>
      <trkpt lat="41.845770" lon="-5.784519">
        <ele>664.937</ele>
        <time>2019-03-04T04:35:41Z</time>
      </trkpt>
      <trkpt lat="41.845783" lon="-5.784579">
        <ele>664.655</ele>
        <time>2019-03-04T04:35:42Z</time>
      </trkpt>
      <trkpt lat="41.845875" lon="-5.784872">
        <ele>665.107</ele>
        <time>2019-03-04T04:35:47Z</time>
      </trkpt>
      <trkpt lat="41.845902" lon="-5.784922">
        <ele>665.217</ele>
        <time>2019-03-04T04:35:48Z</time>
      </trkpt>
      <trkpt lat="41.845932" lon="-5.784968">
        <ele>665.408</ele>
        <time>2019-03-04T04:35:49Z</time>
      </trkpt>
      <trkpt lat="41.845967" lon="-5.785009">
        <ele>665.638</ele>
        <time>2019-03-04T04:35:50Z</time>
      </trkpt>
      <trkpt lat="41.846002" lon="-5.785046">
        <ele>665.899</ele>
        <time>2019-03-04T04:35:51Z</time>
      </trkpt>
      <trkpt lat="41.846040" lon="-5.785080">
        <ele>666.060</ele>
        <time>2019-03-04T04:35:52Z</time>
      </trkpt>
      <trkpt lat="41.846655" lon="-5.785702">
        <ele>668.669</ele>
        <time>2019-03-04T04:36:08Z</time>
      </trkpt>
      <trkpt lat="41.847451" lon="-5.786944">
        <ele>672.213</ele>
        <time>2019-03-04T04:36:28Z</time>
      </trkpt>
      <trkpt lat="41.848150" lon="-5.787803">
        <ele>675.596</ele>
        <time>2019-03-04T04:36:44Z</time>
      </trkpt>
      <trkpt lat="41.848759" lon="-5.788457">
        <ele>681.075</ele>
        <time>2019-03-04T04:37:02Z</time>
      </trkpt>
      <trkpt lat="41.849313" lon="-5.788948">
        <ele>686.334</ele>
        <time>2019-03-04T04:37:22Z</time>
      </trkpt>
      <trkpt lat="41.849815" lon="-5.789345">
        <ele>691.326</ele>
        <time>2019-03-04T04:37:43Z</time>
      </trkpt>
      <trkpt lat="41.850185" lon="-5.789709">
        <ele>694.847</ele>
        <time>2019-03-04T04:38:01Z</time>
      </trkpt>
      <trkpt lat="41.850568" lon="-5.790154">
        <ele>698.411</ele>
        <time>2019-03-04T04:38:21Z</time>
      </trkpt>
      <trkpt lat="41.850903" lon="-5.790594">
        <ele>702.308</ele>
        <time>2019-03-04T04:38:39Z</time>
      </trkpt>
      <trkpt lat="41.851221" lon="-5.791011">
        <ele>705.415</ele>
        <time>2019-03-04T04:38:55Z</time>
      </trkpt>
      <trkpt lat="41.851442" lon="-5.791321">
        <ele>707.416</ele>
        <time>2019-03-04T04:39:08Z</time>
      </trkpt>
      <trkpt lat="41.851511" lon="-5.791426">
        <ele>708.047</ele>
        <time>2019-03-04T04:39:18Z</time>
      </trkpt>
      <trkpt lat="41.851562" lon="-5.791515">
        <ele>708.516</ele>
        <time>2019-03-04T04:39:47Z</time>
      </trkpt>
      <trkpt lat="41.851861" lon="-5.792072">
        <ele>711.750</ele>
        <time>2019-03-04T04:40:05Z</time>
      </trkpt>
      <trkpt lat="41.851854" lon="-5.792096">
        <ele>711.853</ele>
        <time>2019-03-04T04:40:06Z</time>
      </trkpt>
      <trkpt lat="41.851834" lon="-5.792105">
        <ele>711.982</ele>
        <time>2019-03-04T04:40:07Z</time>
      </trkpt>
      <trkpt lat="41.851809" lon="-5.792090">
        <ele>712.181</ele>
        <time>2019-03-04T04:40:08Z</time>
      </trkpt>
      <trkpt lat="41.851780" lon="-5.792069">
        <ele>712.377</ele>
        <time>2019-03-04T04:40:09Z</time>
      </trkpt>
      <trkpt lat="41.851749" lon="-5.792060">
        <ele>712.361</ele>
        <time>2019-03-04T04:40:10Z</time>
      </trkpt>
      <trkpt lat="41.851720" lon="-5.792066">
        <ele>712.427</ele>
        <time>2019-03-04T04:40:11Z</time>
      </trkpt>
      <trkpt lat="41.851696" lon="-5.792083">
        <ele>712.508</ele>
        <time>2019-03-04T04:40:12Z</time>
      </trkpt>
      <trkpt lat="41.851673" lon="-5.792102">
        <ele>712.640</ele>
        <time>2019-03-04T04:40:13Z</time>
      </trkpt>
      <trkpt lat="41.851267" lon="-5.792499">
        <ele>714.961</ele>
        <time>2019-03-04T04:40:30Z</time>
      </trkpt>
      <trkpt lat="41.851197" lon="-5.792855">
        <ele>717.172</ele>
        <time>2019-03-04T04:40:46Z</time>
      </trkpt>
      <trkpt lat="41.851140" lon="-5.793232">
        <ele>720.211</ele>
        <time>2019-03-04T04:41:05Z</time>
      </trkpt>
      <trkpt lat="41.851056" lon="-5.793597">
        <ele>723.045</ele>
        <time>2019-03-04T04:41:23Z</time>
      </trkpt>
      <trkpt lat="41.850865" lon="-5.793843">
        <ele>726.418</ele>
        <time>2019-03-04T04:41:41Z</time>
      </trkpt>
      <trkpt lat="41.850683" lon="-5.793909">
        <ele>728.947</ele>
        <time>2019-03-04T04:41:56Z</time>
      </trkpt>
      <trkpt lat="41.850480" lon="-5.793947">
        <ele>731.926</ele>
        <time>2019-03-04T04:42:13Z</time>
      </trkpt>
      <trkpt lat="41.850452" lon="-5.793942">
        <ele>732.331</ele>
        <time>2019-03-04T04:42:20Z</time>
      </trkpt>
      <trkpt lat="41.850088" lon="-5.794114">
        <ele>737.161</ele>
        <time>2019-03-04T04:43:19Z</time>
      </trkpt>
      <trkpt lat="41.849876" lon="-5.794174">
        <ele>739.207</ele>
        <time>2019-03-04T04:43:36Z</time>
      </trkpt>
      <trkpt lat="41.849835" lon="-5.794183">
        <ele>739.608</ele>
        <time>2019-03-04T04:43:39Z</time>
      </trkpt>
      <trkpt lat="41.849618" lon="-5.794170">
        <ele>741.676</ele>
        <time>2019-03-04T04:43:56Z</time>
      </trkpt>
      <trkpt lat="41.849453" lon="-5.794025">
        <ele>743.197</ele>
        <time>2019-03-04T04:44:11Z</time>
      </trkpt>
      <trkpt lat="41.849431" lon="-5.793973">
        <ele>743.438</ele>
        <time>2019-03-04T04:44:15Z</time>
      </trkpt>
      <trkpt lat="41.849423" lon="-5.793962">
        <ele>743.537</ele>
        <time>2019-03-04T04:44:16Z</time>
      </trkpt>
      <trkpt lat="41.849413" lon="-5.793948">
        <ele>743.581</ele>
        <time>2019-03-04T04:44:17Z</time>
      </trkpt>
      <trkpt lat="41.849358" lon="-5.793879">
        <ele>743.854</ele>
        <time>2019-03-04T04:44:23Z</time>
      </trkpt>
      <trkpt lat="41.849348" lon="-5.793857">
        <ele>743.953</ele>
        <time>2019-03-04T04:44:24Z</time>
      </trkpt>
      <trkpt lat="41.849338" lon="-5.793832">
        <ele>743.922</ele>
        <time>2019-03-04T04:44:25Z</time>
      </trkpt>
      <trkpt lat="41.849328" lon="-5.793806">
        <ele>744.019</ele>
        <time>2019-03-04T04:44:26Z</time>
      </trkpt>
      <trkpt lat="41.849320" lon="-5.793781">
        <ele>744.109</ele>
        <time>2019-03-04T04:44:27Z</time>
      </trkpt>
      <trkpt lat="41.849231" lon="-5.793280">
        <ele>744.819</ele>
        <time>2019-03-04T04:44:42Z</time>
      </trkpt>
      <trkpt lat="41.849035" lon="-5.792725">
        <ele>745.308</ele>
        <time>2019-03-04T04:44:57Z</time>
      </trkpt>
      <trkpt lat="41.848774" lon="-5.792557">
        <ele>746.724</ele>
        <time>2019-03-04T04:45:11Z</time>
      </trkpt>
      <trkpt lat="41.848683" lon="-5.792518">
        <ele>747.285</ele>
        <time>2019-03-04T04:45:20Z</time>
      </trkpt>
      <trkpt lat="41.848676" lon="-5.792508">
        <ele>747.346</ele>
        <time>2019-03-04T04:45:21Z</time>
      </trkpt>
      <trkpt lat="41.848668" lon="-5.792497">
        <ele>747.485</ele>
        <time>2019-03-04T04:45:22Z</time>
      </trkpt>
      <trkpt lat="41.848657" lon="-5.792487">
        <ele>747.679</ele>
        <time>2019-03-04T04:45:23Z</time>
      </trkpt>
      <trkpt lat="41.848644" lon="-5.792476">
        <ele>747.782</ele>
        <time>2019-03-04T04:45:24Z</time>
      </trkpt>
      <trkpt lat="41.848580" lon="-5.792395">
        <ele>748.381</ele>
        <time>2019-03-04T04:45:30Z</time>
      </trkpt>
      <trkpt lat="41.848564" lon="-5.792384">
        <ele>748.460</ele>
        <time>2019-03-04T04:45:31Z</time>
      </trkpt>
      <trkpt lat="41.848551" lon="-5.792373">
        <ele>748.539</ele>
        <time>2019-03-04T04:45:32Z</time>
      </trkpt>
      <trkpt lat="41.848539" lon="-5.792362">
        <ele>748.601</ele>
        <time>2019-03-04T04:45:33Z</time>
      </trkpt>
      <trkpt lat="41.848525" lon="-5.792351">
        <ele>748.721</ele>
        <time>2019-03-04T04:45:34Z</time>
      </trkpt>
      <trkpt lat="41.848512" lon="-5.792343">
        <ele>748.808</ele>
        <time>2019-03-04T04:45:35Z</time>
      </trkpt>
      <trkpt lat="41.848349" lon="-5.792238">
        <ele>750.186</ele>
        <time>2019-03-04T04:45:49Z</time>
      </trkpt>
      <trkpt lat="41.848189" lon="-5.792162">
        <ele>751.367</ele>
        <time>2019-03-04T04:46:01Z</time>
      </trkpt>
      <trkpt lat="41.848175" lon="-5.792154">
        <ele>751.468</ele>
        <time>2019-03-04T04:46:02Z</time>
      </trkpt>
      <trkpt lat="41.848161" lon="-5.792145">
        <ele>751.597</ele>
        <time>2019-03-04T04:46:03Z</time>
      </trkpt>
      <trkpt lat="41.847995" lon="-5.792030">
        <ele>753.451</ele>
        <time>2019-03-04T04:46:17Z</time>
      </trkpt>
      <trkpt lat="41.847829" lon="-5.791945">
        <ele>755.444</ele>
        <time>2019-03-04T04:46:33Z</time>
      </trkpt>
      <trkpt lat="41.847818" lon="-5.791930">
        <ele>755.653</ele>
        <time>2019-03-04T04:46:39Z</time>
      </trkpt>
      <trkpt lat="41.847464" lon="-5.791912">
        <ele>759.132</ele>
        <time>2019-03-04T04:48:02Z</time>
      </trkpt>
      <trkpt lat="41.847292" lon="-5.792009">
        <ele>760.593</ele>
        <time>2019-03-04T04:48:19Z</time>
      </trkpt>
      <trkpt lat="41.847268" lon="-5.792061">
        <ele>760.665</ele>
        <time>2019-03-04T04:48:26Z</time>
      </trkpt>
      <trkpt lat="41.847216" lon="-5.792120">
        <ele>760.921</ele>
        <time>2019-03-04T04:49:26Z</time>
      </trkpt>
      <trkpt lat="41.847204" lon="-5.792139">
        <ele>760.908</ele>
        <time>2019-03-04T04:49:27Z</time>
      </trkpt>
      <trkpt lat="41.847195" lon="-5.792158">
        <ele>761.082</ele>
        <time>2019-03-04T04:49:28Z</time>
      </trkpt>
      <trkpt lat="41.847188" lon="-5.792173">
        <ele>761.013</ele>
        <time>2019-03-04T04:49:29Z</time>
      </trkpt>
      <trkpt lat="41.847177" lon="-5.792187">
        <ele>761.054</ele>
        <time>2019-03-04T04:49:30Z</time>
      </trkpt>
      <trkpt lat="41.847159" lon="-5.792203">
        <ele>761.183</ele>
        <time>2019-03-04T04:49:31Z</time>
      </trkpt>
      <trkpt lat="41.847140" lon="-5.792220">
        <ele>761.147</ele>
        <time>2019-03-04T04:49:32Z</time>
      </trkpt>
      <trkpt lat="41.847120" lon="-5.792242">
        <ele>761.220</ele>
        <time>2019-03-04T04:49:33Z</time>
      </trkpt>
      <trkpt lat="41.847100" lon="-5.792264">
        <ele>761.219</ele>
        <time>2019-03-04T04:49:34Z</time>
      </trkpt>
      <trkpt lat="41.847078" lon="-5.792283">
        <ele>761.218</ele>
        <time>2019-03-04T04:49:35Z</time>
      </trkpt>
      <trkpt lat="41.847055" lon="-5.792301">
        <ele>761.229</ele>
        <time>2019-03-04T04:49:36Z</time>
      </trkpt>
      <trkpt lat="41.846742" lon="-5.792592">
        <ele>760.700</ele>
        <time>2019-03-04T04:49:49Z</time>
      </trkpt>
      <trkpt lat="41.846725" lon="-5.792607">
        <ele>760.620</ele>
        <time>2019-03-04T04:49:50Z</time>
      </trkpt>
      <trkpt lat="41.846710" lon="-5.792624">
        <ele>760.508</ele>
        <time>2019-03-04T04:49:51Z</time>
      </trkpt>
      <trkpt lat="41.846696" lon="-5.792647">
        <ele>760.555</ele>
        <time>2019-03-04T04:49:52Z</time>
      </trkpt>
      <trkpt lat="41.846682" lon="-5.792670">
        <ele>760.416</ele>
        <time>2019-03-04T04:49:53Z</time>
      </trkpt>
      <trkpt lat="41.846668" lon="-5.792694">
        <ele>760.387</ele>
        <time>2019-03-04T04:49:54Z</time>
      </trkpt>
      <trkpt lat="41.846530" lon="-5.792943">
        <ele>759.746</ele>
        <time>2019-03-04T04:50:07Z</time>
      </trkpt>
      <trkpt lat="41.846525" lon="-5.792965">
        <ele>759.710</ele>
        <time>2019-03-04T04:50:08Z</time>
      </trkpt>
      <trkpt lat="41.846515" lon="-5.793012">
        <ele>759.633</ele>
        <time>2019-03-04T04:50:10Z</time>
      </trkpt>
      <trkpt lat="41.846386" lon="-5.793337">
        <ele>758.822</ele>
        <time>2019-03-04T04:50:21Z</time>
      </trkpt>
      <trkpt lat="41.846296" lon="-5.793600">
        <ele>758.221</ele>
        <time>2019-03-04T04:50:33Z</time>
      </trkpt>
      <trkpt lat="41.846253" lon="-5.793701">
        <ele>757.948</ele>
        <time>2019-03-04T04:50:47Z</time>
      </trkpt>
      <trkpt lat="41.846066" lon="-5.794094">
        <ele>756.461</ele>
        <time>2019-03-04T04:50:59Z</time>
      </trkpt>
      <trkpt lat="41.845920" lon="-5.794356">
        <ele>754.917</ele>
        <time>2019-03-04T04:51:11Z</time>
      </trkpt>
      <trkpt lat="41.845742" lon="-5.794726">
        <ele>752.908</ele>
        <time>2019-03-04T04:51:23Z</time>
      </trkpt>
      <trkpt lat="41.845614" lon="-5.795031">
        <ele>751.827</ele>
        <time>2019-03-04T04:51:30Z</time>
      </trkpt>
      <trkpt lat="41.845598" lon="-5.795084">
        <ele>751.748</ele>
        <time>2019-03-04T04:51:31Z</time>
      </trkpt>
      <trkpt lat="41.845588" lon="-5.795142">
        <ele>751.669</ele>
        <time>2019-03-04T04:51:32Z</time>
      </trkpt>
      <trkpt lat="41.845585" lon="-5.795204">
        <ele>751.448</ele>
        <time>2019-03-04T04:51:33Z</time>
      </trkpt>
      <trkpt lat="41.845587" lon="-5.795266">
        <ele>751.332</ele>
        <time>2019-03-04T04:51:34Z</time>
      </trkpt>
      <trkpt lat="41.845585" lon="-5.795392">
        <ele>750.865</ele>
        <time>2019-03-04T04:51:36Z</time>
      </trkpt>
      <trkpt lat="41.845571" lon="-5.795449">
        <ele>750.664</ele>
        <time>2019-03-04T04:51:37Z</time>
      </trkpt>
      <trkpt lat="41.845543" lon="-5.795497">
        <ele>750.413</ele>
        <time>2019-03-04T04:51:38Z</time>
      </trkpt>
      <trkpt lat="41.845513" lon="-5.795541">
        <ele>750.234</ele>
        <time>2019-03-04T04:51:39Z</time>
      </trkpt>
      <trkpt lat="41.845487" lon="-5.795588">
        <ele>750.155</ele>
        <time>2019-03-04T04:51:40Z</time>
      </trkpt>
      <trkpt lat="41.845465" lon="-5.795637">
        <ele>749.910</ele>
        <time>2019-03-04T04:51:41Z</time>
      </trkpt>
      <trkpt lat="41.845447" lon="-5.795683">
        <ele>749.808</ele>
        <time>2019-03-04T04:51:42Z</time>
      </trkpt>
      <trkpt lat="41.845417" lon="-5.795789">
        <ele>749.426</ele>
        <time>2019-03-04T04:51:44Z</time>
      </trkpt>
      <trkpt lat="41.845378" lon="-5.796053">
        <ele>748.497</ele>
        <time>2019-03-04T04:51:49Z</time>
      </trkpt>
      <trkpt lat="41.845385" lon="-5.796109">
        <ele>748.118</ele>
        <time>2019-03-04T04:51:50Z</time>
      </trkpt>
      <trkpt lat="41.845388" lon="-5.796166">
        <ele>747.637</ele>
        <time>2019-03-04T04:51:51Z</time>
      </trkpt>
      <trkpt lat="41.845382" lon="-5.796225">
        <ele>747.291</ele>
        <time>2019-03-04T04:51:52Z</time>
      </trkpt>
      <trkpt lat="41.845376" lon="-5.796288">
        <ele>746.714</ele>
        <time>2019-03-04T04:51:53Z</time>
      </trkpt>
      <trkpt lat="41.845372" lon="-5.796352">
        <ele>746.433</ele>
        <time>2019-03-04T04:51:54Z</time>
      </trkpt>
      <trkpt lat="41.845369" lon="-5.796562">
        <ele>745.292</ele>
        <time>2019-03-04T04:51:57Z</time>
      </trkpt>
      <trkpt lat="41.845377" lon="-5.796764">
        <ele>744.358</ele>
        <time>2019-03-04T04:52:00Z</time>
      </trkpt>
      <trkpt lat="41.845366" lon="-5.796810">
        <ele>744.152</ele>
        <time>2019-03-04T04:52:01Z</time>
      </trkpt>
      <trkpt lat="41.845345" lon="-5.796846">
        <ele>743.917</ele>
        <time>2019-03-04T04:52:02Z</time>
      </trkpt>
      <trkpt lat="41.845317" lon="-5.796877">
        <ele>743.708</ele>
        <time>2019-03-04T04:52:03Z</time>
      </trkpt>
      <trkpt lat="41.845284" lon="-5.796904">
        <ele>743.418</ele>
        <time>2019-03-04T04:52:04Z</time>
      </trkpt>
      <trkpt lat="41.845246" lon="-5.796923">
        <ele>743.179</ele>
        <time>2019-03-04T04:52:05Z</time>
      </trkpt>
      <trkpt lat="41.845203" lon="-5.796930">
        <ele>742.870</ele>
        <time>2019-03-04T04:52:06Z</time>
      </trkpt>
      <trkpt lat="41.845155" lon="-5.796929">
        <ele>742.519</ele>
        <time>2019-03-04T04:52:07Z</time>
      </trkpt>
      <trkpt lat="41.845103" lon="-5.796910">
        <ele>742.073</ele>
        <time>2019-03-04T04:52:08Z</time>
      </trkpt>
      <trkpt lat="41.845049" lon="-5.796871">
        <ele>741.346</ele>
        <time>2019-03-04T04:52:09Z</time>
      </trkpt>
      <trkpt lat="41.844997" lon="-5.796821">
        <ele>740.825</ele>
        <time>2019-03-04T04:52:10Z</time>
      </trkpt>
      <trkpt lat="41.844953" lon="-5.796773">
        <ele>740.344</ele>
        <time>2019-03-04T04:52:11Z</time>
      </trkpt>
      <trkpt lat="41.844906" lon="-5.796737">
        <ele>739.913</ele>
        <time>2019-03-04T04:52:12Z</time>
      </trkpt>
      <trkpt lat="41.844857" lon="-5.796711">
        <ele>739.543</ele>
        <time>2019-03-04T04:52:13Z</time>
      </trkpt>
      <trkpt lat="41.844807" lon="-5.796687">
        <ele>739.107</ele>
        <time>2019-03-04T04:52:14Z</time>
      </trkpt>
      <trkpt lat="41.844540" lon="-5.796500">
        <ele>738.508</ele>
        <time>2019-03-04T04:52:24Z</time>
      </trkpt>
      <trkpt lat="41.844443" lon="-5.796438">
        <ele>738.794</ele>
        <time>2019-03-04T04:52:34Z</time>
      </trkpt>
      <trkpt lat="41.844367" lon="-5.796495">
        <ele>739.055</ele>
        <time>2019-03-04T04:52:57Z</time>
      </trkpt>
      <trkpt lat="41.844354" lon="-5.796511">
        <ele>739.026</ele>
        <time>2019-03-04T04:52:58Z</time>
      </trkpt>
      <trkpt lat="41.844341" lon="-5.796527">
        <ele>739.175</ele>
        <time>2019-03-04T04:52:59Z</time>
      </trkpt>
      <trkpt lat="41.844233" lon="-5.796744">
        <ele>739.949</ele>
        <time>2019-03-04T04:53:10Z</time>
      </trkpt>
      <trkpt lat="41.844217" lon="-5.796752">
        <ele>740.032</ele>
        <time>2019-03-04T04:53:11Z</time>
      </trkpt>
      <trkpt lat="41.844200" lon="-5.796762">
        <ele>740.081</ele>
        <time>2019-03-04T04:53:12Z</time>
      </trkpt>
      <trkpt lat="41.844187" lon="-5.796775">
        <ele>740.170</ele>
        <time>2019-03-04T04:53:13Z</time>
      </trkpt>
      <trkpt lat="41.844174" lon="-5.796787">
        <ele>740.252</ele>
        <time>2019-03-04T04:53:14Z</time>
      </trkpt>
      <trkpt lat="41.843926" lon="-5.796987">
        <ele>741.653</ele>
        <time>2019-03-04T04:53:29Z</time>
      </trkpt>
      <trkpt lat="41.843683" lon="-5.797084">
        <ele>742.608</ele>
        <time>2019-03-04T04:53:43Z</time>
      </trkpt>
      <trkpt lat="41.843376" lon="-5.797043">
        <ele>743.708</ele>
        <time>2019-03-04T04:53:57Z</time>
      </trkpt>
      <trkpt lat="41.842963" lon="-5.797140">
        <ele>743.698</ele>
        <time>2019-03-04T04:54:10Z</time>
      </trkpt>
      <trkpt lat="41.842929" lon="-5.797170">
        <ele>743.549</ele>
        <time>2019-03-04T04:54:11Z</time>
      </trkpt>
      <trkpt lat="41.842894" lon="-5.797199">
        <ele>743.450</ele>
        <time>2019-03-04T04:54:12Z</time>
      </trkpt>
      <trkpt lat="41.842855" lon="-5.797221">
        <ele>743.399</ele>
        <time>2019-03-04T04:54:13Z</time>
      </trkpt>
      <trkpt lat="41.842646" lon="-5.797319">
        <ele>743.073</ele>
        <time>2019-03-04T04:54:18Z</time>
      </trkpt>
      <trkpt lat="41.842606" lon="-5.797347">
        <ele>742.946</ele>
        <time>2019-03-04T04:54:19Z</time>
      </trkpt>
      <trkpt lat="41.842569" lon="-5.797381">
        <ele>742.865</ele>
        <time>2019-03-04T04:54:20Z</time>
      </trkpt>
      <trkpt lat="41.842270" lon="-5.797544">
        <ele>742.414</ele>
        <time>2019-03-04T04:54:28Z</time>
      </trkpt>
      <trkpt lat="41.842228" lon="-5.797564">
        <ele>742.314</ele>
        <time>2019-03-04T04:54:29Z</time>
      </trkpt>
      <trkpt lat="41.842186" lon="-5.797584">
        <ele>742.354</ele>
        <time>2019-03-04T04:54:30Z</time>
      </trkpt>
      <trkpt lat="41.842110" lon="-5.797615">
        <ele>742.209</ele>
        <time>2019-03-04T04:54:36Z</time>
      </trkpt>
      <trkpt lat="41.842059" lon="-5.797654">
        <ele>742.108</ele>
        <time>2019-03-04T04:54:55Z</time>
      </trkpt>
      <trkpt lat="41.841769" lon="-5.798121">
        <ele>741.784</ele>
        <time>2019-03-04T04:55:09Z</time>
      </trkpt>
      <trkpt lat="41.841506" lon="-5.798404">
        <ele>741.665</ele>
        <time>2019-03-04T04:55:19Z</time>
      </trkpt>
      <trkpt lat="41.841169" lon="-5.798706">
        <ele>742.866</ele>
        <time>2019-03-04T04:55:32Z</time>
      </trkpt>
      <trkpt lat="41.840988" lon="-5.799010">
        <ele>745.475</ele>
        <time>2019-03-04T04:55:48Z</time>
      </trkpt>
      <trkpt lat="41.840829" lon="-5.799290">
        <ele>747.359</ele>
        <time>2019-03-04T04:56:03Z</time>
      </trkpt>
      <trkpt lat="41.840578" lon="-5.799525">
        <ele>748.152</ele>
        <time>2019-03-04T04:56:17Z</time>
      </trkpt>
      <trkpt lat="41.840227" lon="-5.799964">
        <ele>748.041</ele>
        <time>2019-03-04T04:56:31Z</time>
      </trkpt>
      <trkpt lat="41.840007" lon="-5.800546">
        <ele>746.370</ele>
        <time>2019-03-04T04:56:43Z</time>
      </trkpt>
      <trkpt lat="41.839933" lon="-5.801201">
        <ele>743.977</ele>
        <time>2019-03-04T04:56:55Z</time>
      </trkpt>
      <trkpt lat="41.839919" lon="-5.801270">
        <ele>743.361</ele>
        <time>2019-03-04T04:56:56Z</time>
      </trkpt>
      <trkpt lat="41.839869" lon="-5.801496">
        <ele>742.027</ele>
        <time>2019-03-04T04:56:59Z</time>
      </trkpt>
      <trkpt lat="41.839859" lon="-5.801574">
        <ele>741.708</ele>
        <time>2019-03-04T04:57:00Z</time>
      </trkpt>
      <trkpt lat="41.839849" lon="-5.801653">
        <ele>741.320</ele>
        <time>2019-03-04T04:57:01Z</time>
      </trkpt>
      <trkpt lat="41.839833" lon="-5.801731">
        <ele>740.981</ele>
        <time>2019-03-04T04:57:02Z</time>
      </trkpt>
      <trkpt lat="41.839815" lon="-5.801809">
        <ele>740.492</ele>
        <time>2019-03-04T04:57:03Z</time>
      </trkpt>
      <trkpt lat="41.839670" lon="-5.802448">
        <ele>738.221</ele>
        <time>2019-03-04T04:57:11Z</time>
      </trkpt>
      <trkpt lat="41.839649" lon="-5.802500">
        <ele>738.165</ele>
        <time>2019-03-04T04:57:12Z</time>
      </trkpt>
      <trkpt lat="41.839624" lon="-5.802544">
        <ele>738.078</ele>
        <time>2019-03-04T04:57:13Z</time>
      </trkpt>
      <trkpt lat="41.839603" lon="-5.802589">
        <ele>737.947</ele>
        <time>2019-03-04T04:57:14Z</time>
      </trkpt>
      <trkpt lat="41.839585" lon="-5.802632">
        <ele>737.826</ele>
        <time>2019-03-04T04:57:15Z</time>
      </trkpt>
      <trkpt lat="41.839439" lon="-5.803055">
        <ele>736.727</ele>
        <time>2019-03-04T04:57:26Z</time>
      </trkpt>
      <trkpt lat="41.839366" lon="-5.803138">
        <ele>736.468</ele>
        <time>2019-03-04T04:57:28Z</time>
      </trkpt>
      <trkpt lat="41.839328" lon="-5.803192">
        <ele>736.214</ele>
        <time>2019-03-04T04:57:29Z</time>
      </trkpt>
      <trkpt lat="41.839171" lon="-5.803431">
        <ele>734.808</ele>
        <time>2019-03-04T04:57:33Z</time>
      </trkpt>
      <trkpt lat="41.839127" lon="-5.803483">
        <ele>734.515</ele>
        <time>2019-03-04T04:57:34Z</time>
      </trkpt>
      <trkpt lat="41.839043" lon="-5.803579">
        <ele>733.946</ele>
        <time>2019-03-04T04:57:36Z</time>
      </trkpt>
      <trkpt lat="41.839006" lon="-5.803636">
        <ele>733.557</ele>
        <time>2019-03-04T04:57:37Z</time>
      </trkpt>
      <trkpt lat="41.838868" lon="-5.803905">
        <ele>732.246</ele>
        <time>2019-03-04T04:57:41Z</time>
      </trkpt>
      <trkpt lat="41.838831" lon="-5.803961">
        <ele>731.780</ele>
        <time>2019-03-04T04:57:42Z</time>
      </trkpt>
      <trkpt lat="41.838786" lon="-5.804007">
        <ele>731.273</ele>
        <time>2019-03-04T04:57:43Z</time>
      </trkpt>
      <trkpt lat="41.838736" lon="-5.804043">
        <ele>730.642</ele>
        <time>2019-03-04T04:57:44Z</time>
      </trkpt>
      <trkpt lat="41.838686" lon="-5.804070">
        <ele>730.051</ele>
        <time>2019-03-04T04:57:45Z</time>
      </trkpt>
      <trkpt lat="41.838635" lon="-5.804099">
        <ele>729.552</ele>
        <time>2019-03-04T04:57:46Z</time>
      </trkpt>
      <trkpt lat="41.838587" lon="-5.804138">
        <ele>728.953</ele>
        <time>2019-03-04T04:57:47Z</time>
      </trkpt>
      <trkpt lat="41.838541" lon="-5.804187">
        <ele>728.408</ele>
        <time>2019-03-04T04:57:48Z</time>
      </trkpt>
      <trkpt lat="41.838495" lon="-5.804243">
        <ele>727.908</ele>
        <time>2019-03-04T04:57:49Z</time>
      </trkpt>
      <trkpt lat="41.838314" lon="-5.804487">
        <ele>726.798</ele>
        <time>2019-03-04T04:57:53Z</time>
      </trkpt>
      <trkpt lat="41.838278" lon="-5.804558">
        <ele>726.439</ele>
        <time>2019-03-04T04:57:54Z</time>
      </trkpt>
      <trkpt lat="41.838250" lon="-5.804632">
        <ele>726.160</ele>
        <time>2019-03-04T04:57:55Z</time>
      </trkpt>
      <trkpt lat="41.838231" lon="-5.804703">
        <ele>725.989</ele>
        <time>2019-03-04T04:57:56Z</time>
      </trkpt>
      <trkpt lat="41.838219" lon="-5.804766">
        <ele>725.893</ele>
        <time>2019-03-04T04:57:57Z</time>
      </trkpt>
      <trkpt lat="41.838214" lon="-5.804826">
        <ele>725.836</ele>
        <time>2019-03-04T04:57:58Z</time>
      </trkpt>
      <trkpt lat="41.838212" lon="-5.804880">
        <ele>725.895</ele>
        <time>2019-03-04T04:57:59Z</time>
      </trkpt>
      <trkpt lat="41.838213" lon="-5.804930">
        <ele>725.884</ele>
        <time>2019-03-04T04:58:00Z</time>
      </trkpt>
      <trkpt lat="41.838218" lon="-5.804979">
        <ele>725.999</ele>
        <time>2019-03-04T04:58:01Z</time>
      </trkpt>
      <trkpt lat="41.838226" lon="-5.805027">
        <ele>726.007</ele>
        <time>2019-03-04T04:58:02Z</time>
      </trkpt>
      <trkpt lat="41.838238" lon="-5.805075">
        <ele>726.127</ele>
        <time>2019-03-04T04:58:03Z</time>
      </trkpt>
      <trkpt lat="41.838252" lon="-5.805122">
        <ele>726.308</ele>
        <time>2019-03-04T04:58:04Z</time>
      </trkpt>
      <trkpt lat="41.838379" lon="-5.805617">
        <ele>728.152</ele>
        <time>2019-03-04T04:58:17Z</time>
      </trkpt>
      <trkpt lat="41.838499" lon="-5.806238">
        <ele>728.413</ele>
        <time>2019-03-04T04:58:31Z</time>
      </trkpt>
      <trkpt lat="41.838521" lon="-5.806396">
        <ele>728.254</ele>
        <time>2019-03-04T04:58:34Z</time>
      </trkpt>
      <trkpt lat="41.838537" lon="-5.806449">
        <ele>728.273</ele>
        <time>2019-03-04T04:58:35Z</time>
      </trkpt>
      <trkpt lat="41.838699" lon="-5.806885">
        <ele>727.377</ele>
        <time>2019-03-04T04:58:46Z</time>
      </trkpt>
      <trkpt lat="41.838862" lon="-5.807222">
        <ele>726.170</ele>
        <time>2019-03-04T04:58:54Z</time>
      </trkpt>
      <trkpt lat="41.838875" lon="-5.807337">
        <ele>725.649</ele>
        <time>2019-03-04T04:58:56Z</time>
      </trkpt>
      <trkpt lat="41.838887" lon="-5.807393">
        <ele>725.298</ele>
        <time>2019-03-04T04:58:57Z</time>
      </trkpt>
      <trkpt lat="41.838902" lon="-5.807443">
        <ele>724.948</ele>
        <time>2019-03-04T04:58:58Z</time>
      </trkpt>
      <trkpt lat="41.838962" lon="-5.807831">
        <ele>721.761</ele>
        <time>2019-03-04T04:59:07Z</time>
      </trkpt>
      <trkpt lat="41.838877" lon="-5.807911">
        <ele>720.417</ele>
        <time>2019-03-04T04:59:10Z</time>
      </trkpt>
      <trkpt lat="41.838834" lon="-5.807921">
        <ele>720.008</ele>
        <time>2019-03-04T04:59:11Z</time>
      </trkpt>
      <trkpt lat="41.838791" lon="-5.807918">
        <ele>719.667</ele>
        <time>2019-03-04T04:59:12Z</time>
      </trkpt>
      <trkpt lat="41.838749" lon="-5.807917">
        <ele>719.318</ele>
        <time>2019-03-04T04:59:13Z</time>
      </trkpt>
      <trkpt lat="41.838709" lon="-5.807928">
        <ele>719.049</ele>
        <time>2019-03-04T04:59:14Z</time>
      </trkpt>
      <trkpt lat="41.838671" lon="-5.807942">
        <ele>718.768</ele>
        <time>2019-03-04T04:59:15Z</time>
      </trkpt>
      <trkpt lat="41.838634" lon="-5.807952">
        <ele>718.432</ele>
        <time>2019-03-04T04:59:16Z</time>
      </trkpt>
      <trkpt lat="41.838593" lon="-5.807957">
        <ele>718.275</ele>
        <time>2019-03-04T04:59:17Z</time>
      </trkpt>
      <trkpt lat="41.838546" lon="-5.807953">
        <ele>718.194</ele>
        <time>2019-03-04T04:59:18Z</time>
      </trkpt>
      <trkpt lat="41.838444" lon="-5.807929">
        <ele>717.763</ele>
        <time>2019-03-04T04:59:20Z</time>
      </trkpt>
      <trkpt lat="41.838396" lon="-5.807905">
        <ele>717.525</ele>
        <time>2019-03-04T04:59:21Z</time>
      </trkpt>
      <trkpt lat="41.837971" lon="-5.807587">
        <ele>715.826</ele>
        <time>2019-03-04T04:59:31Z</time>
      </trkpt>
      <trkpt lat="41.837795" lon="-5.807289">
        <ele>714.208</ele>
        <time>2019-03-04T04:59:38Z</time>
      </trkpt>
      <trkpt lat="41.837374" lon="-5.806838">
        <ele>712.008</ele>
        <time>2019-03-04T04:59:50Z</time>
      </trkpt>
      <trkpt lat="41.837293" lon="-5.806766">
        <ele>711.775</ele>
        <time>2019-03-04T04:59:52Z</time>
      </trkpt>
      <trkpt lat="41.837252" lon="-5.806748">
        <ele>711.716</ele>
        <time>2019-03-04T04:59:53Z</time>
      </trkpt>
      <trkpt lat="41.837217" lon="-5.806743">
        <ele>711.687</ele>
        <time>2019-03-04T04:59:54Z</time>
      </trkpt>
      <trkpt lat="41.837184" lon="-5.806747">
        <ele>711.636</ele>
        <time>2019-03-04T04:59:55Z</time>
      </trkpt>
      <trkpt lat="41.837157" lon="-5.806749">
        <ele>711.660</ele>
        <time>2019-03-04T04:59:56Z</time>
      </trkpt>
      <trkpt lat="41.837132" lon="-5.806747">
        <ele>711.653</ele>
        <time>2019-03-04T04:59:57Z</time>
      </trkpt>
      <trkpt lat="41.836699" lon="-5.806831">
        <ele>711.382</ele>
        <time>2019-03-04T05:00:10Z</time>
      </trkpt>
      <trkpt lat="41.836264" lon="-5.806963">
        <ele>709.631</ele>
        <time>2019-03-04T05:00:20Z</time>
      </trkpt>
      <trkpt lat="41.836225" lon="-5.806992">
        <ele>709.466</ele>
        <time>2019-03-04T05:00:21Z</time>
      </trkpt>
      <trkpt lat="41.836192" lon="-5.807025">
        <ele>709.129</ele>
        <time>2019-03-04T05:00:22Z</time>
      </trkpt>
      <trkpt lat="41.836099" lon="-5.807353">
        <ele>707.821</ele>
        <time>2019-03-04T05:00:31Z</time>
      </trkpt>
      <trkpt lat="41.835990" lon="-5.807851">
        <ele>708.608</ele>
        <time>2019-03-04T05:00:48Z</time>
      </trkpt>
      <trkpt lat="41.835801" lon="-5.808013">
        <ele>711.179</ele>
        <time>2019-03-04T05:01:03Z</time>
      </trkpt>
      <trkpt lat="41.835580" lon="-5.808076">
        <ele>714.290</ele>
        <time>2019-03-04T05:01:17Z</time>
      </trkpt>
      <trkpt lat="41.835444" lon="-5.808095">
        <ele>715.771</ele>
        <time>2019-03-04T05:01:31Z</time>
      </trkpt>
      <trkpt lat="41.835376" lon="-5.808096">
        <ele>716.460</ele>
        <time>2019-03-04T05:01:48Z</time>
      </trkpt>
      <trkpt lat="41.835119" lon="-5.808031">
        <ele>718.214</ele>
        <time>2019-03-04T05:02:04Z</time>
      </trkpt>
      <trkpt lat="41.834864" lon="-5.808097">
        <ele>719.697</ele>
        <time>2019-03-04T05:02:19Z</time>
      </trkpt>
      <trkpt lat="41.834575" lon="-5.808311">
        <ele>721.076</ele>
        <time>2019-03-04T05:02:36Z</time>
      </trkpt>
      <trkpt lat="41.834238" lon="-5.808532">
        <ele>722.625</ele>
        <time>2019-03-04T05:02:55Z</time>
      </trkpt>
      <trkpt lat="41.834014" lon="-5.808783">
        <ele>724.488</ele>
        <time>2019-03-04T05:03:11Z</time>
      </trkpt>
      <trkpt lat="41.833780" lon="-5.808943">
        <ele>726.424</ele>
        <time>2019-03-04T05:03:27Z</time>
      </trkpt>
      <trkpt lat="41.833507" lon="-5.809079">
        <ele>728.826</ele>
        <time>2019-03-04T05:03:44Z</time>
      </trkpt>
      <trkpt lat="41.833146" lon="-5.809411">
        <ele>730.608</ele>
        <time>2019-03-04T05:04:04Z</time>
      </trkpt>
      <trkpt lat="41.832756" lon="-5.809853">
        <ele>731.151</ele>
        <time>2019-03-04T05:04:19Z</time>
      </trkpt>
      <trkpt lat="41.832362" lon="-5.810332">
        <ele>732.212</ele>
        <time>2019-03-04T05:04:34Z</time>
      </trkpt>
      <trkpt lat="41.831954" lon="-5.810798">
        <ele>732.943</ele>
        <time>2019-03-04T05:04:49Z</time>
      </trkpt>
      <trkpt lat="41.831627" lon="-5.811322">
        <ele>733.282</ele>
        <time>2019-03-04T05:05:04Z</time>
      </trkpt>
      <trkpt lat="41.831260" lon="-5.811618">
        <ele>733.366</ele>
        <time>2019-03-04T05:05:17Z</time>
      </trkpt>
      <trkpt lat="41.830973" lon="-5.811829">
        <ele>733.399</ele>
        <time>2019-03-04T05:05:27Z</time>
      </trkpt>
      <trkpt lat="41.830695" lon="-5.812194">
        <ele>733.178</ele>
        <time>2019-03-04T05:05:39Z</time>
      </trkpt>
      <trkpt lat="41.830430" lon="-5.812606">
        <ele>733.667</ele>
        <time>2019-03-04T05:05:51Z</time>
      </trkpt>
      <trkpt lat="41.830365" lon="-5.812852">
        <ele>733.772</ele>
        <time>2019-03-04T05:05:56Z</time>
      </trkpt>
      <trkpt lat="41.830127" lon="-5.813250">
        <ele>734.013</ele>
        <time>2019-03-04T05:06:09Z</time>
      </trkpt>
      <trkpt lat="41.829802" lon="-5.813677">
        <ele>733.914</ele>
        <time>2019-03-04T05:06:23Z</time>
      </trkpt>
      <trkpt lat="41.829520" lon="-5.814113">
        <ele>733.608</ele>
        <time>2019-03-04T05:06:36Z</time>
      </trkpt>
      <trkpt lat="41.829229" lon="-5.814587">
        <ele>733.730</ele>
        <time>2019-03-04T05:06:50Z</time>
      </trkpt>
      <trkpt lat="41.828977" lon="-5.814986">
        <ele>734.031</ele>
        <time>2019-03-04T05:07:04Z</time>
      </trkpt>
      <trkpt lat="41.828694" lon="-5.815291">
        <ele>734.482</ele>
        <time>2019-03-04T05:07:15Z</time>
      </trkpt>
      <trkpt lat="41.828576" lon="-5.815602">
        <ele>733.521</ele>
        <time>2019-03-04T05:07:20Z</time>
      </trkpt>
      <trkpt lat="41.828510" lon="-5.815723">
        <ele>732.285</ele>
        <time>2019-03-04T05:07:22Z</time>
      </trkpt>
      <trkpt lat="41.828376" lon="-5.816141">
        <ele>730.878</ele>
        <time>2019-03-04T05:07:29Z</time>
      </trkpt>
      <trkpt lat="41.828595" lon="-5.816787">
        <ele>731.957</ele>
        <time>2019-03-04T05:07:45Z</time>
      </trkpt>
      <trkpt lat="41.828944" lon="-5.817688">
        <ele>733.446</ele>
        <time>2019-03-04T05:08:07Z</time>
      </trkpt>
      <trkpt lat="41.829239" lon="-5.818477">
        <ele>734.311</ele>
        <time>2019-03-04T05:08:26Z</time>
      </trkpt>
      <trkpt lat="41.829564" lon="-5.819321">
        <ele>735.221</ele>
        <time>2019-03-04T05:08:45Z</time>
      </trkpt>
      <trkpt lat="41.829860" lon="-5.820095">
        <ele>735.703</ele>
        <time>2019-03-04T05:09:04Z</time>
      </trkpt>
      <trkpt lat="41.830039" lon="-5.820574">
        <ele>735.608</ele>
        <time>2019-03-04T05:09:18Z</time>
      </trkpt>
      <trkpt lat="41.830310" lon="-5.821219">
        <ele>735.394</ele>
        <time>2019-03-04T05:09:34Z</time>
      </trkpt>
      <trkpt lat="41.830434" lon="-5.821510">
        <ele>735.655</ele>
        <time>2019-03-04T05:09:45Z</time>
      </trkpt>
      <trkpt lat="41.830435" lon="-5.821507">
        <ele>735.616</ele>
        <time>2019-03-04T05:09:47Z</time>
      </trkpt>
      <trkpt lat="41.830480" lon="-5.821540">
        <ele>735.655</ele>
        <time>2019-03-04T05:10:29Z</time>
      </trkpt>
      <trkpt lat="41.830674" lon="-5.821893">
        <ele>736.059</ele>
        <time>2019-03-04T05:10:42Z</time>
      </trkpt>
      <trkpt lat="41.830671" lon="-5.821893">
        <ele>736.022</ele>
        <time>2019-03-04T05:10:44Z</time>
      </trkpt>
      <trkpt lat="41.830692" lon="-5.821940">
        <ele>736.081</ele>
        <time>2019-03-04T05:12:58Z</time>
      </trkpt>
      <trkpt lat="41.830956" lon="-5.822341">
        <ele>736.420</ele>
        <time>2019-03-04T05:13:12Z</time>
      </trkpt>
      <trkpt lat="41.831291" lon="-5.822868">
        <ele>736.748</ele>
        <time>2019-03-04T05:13:29Z</time>
      </trkpt>
      <trkpt lat="41.831816" lon="-5.823690">
        <ele>736.761</ele>
        <time>2019-03-04T05:13:50Z</time>
      </trkpt>
      <trkpt lat="41.832148" lon="-5.824214">
        <ele>736.817</ele>
        <time>2019-03-04T05:14:05Z</time>
      </trkpt>
      <trkpt lat="41.832485" lon="-5.824758">
        <ele>736.608</ele>
        <time>2019-03-04T05:14:19Z</time>
      </trkpt>
      <trkpt lat="41.833057" lon="-5.825650">
        <ele>734.917</ele>
        <time>2019-03-04T05:14:35Z</time>
      </trkpt>
      <trkpt lat="41.833712" lon="-5.826698">
        <ele>730.128</ele>
        <time>2019-03-04T05:14:49Z</time>
      </trkpt>
      <trkpt lat="41.834105" lon="-5.827353">
        <ele>726.369</ele>
        <time>2019-03-04T05:14:57Z</time>
      </trkpt>
      <trkpt lat="41.834587" lon="-5.828129">
        <ele>726.678</ele>
        <time>2019-03-04T05:15:10Z</time>
      </trkpt>
      <trkpt lat="41.834890" lon="-5.828596">
        <ele>730.892</ele>
        <time>2019-03-04T05:15:27Z</time>
      </trkpt>
      <trkpt lat="41.835257" lon="-5.829190">
        <ele>734.185</ele>
        <time>2019-03-04T05:15:49Z</time>
      </trkpt>
      <trkpt lat="41.835536" lon="-5.829632">
        <ele>736.174</ele>
        <time>2019-03-04T05:16:09Z</time>
      </trkpt>
      <trkpt lat="41.835805" lon="-5.830060">
        <ele>738.553</ele>
        <time>2019-03-04T05:16:31Z</time>
      </trkpt>
      <trkpt lat="41.836021" lon="-5.830401">
        <ele>741.095</ele>
        <time>2019-03-04T05:16:49Z</time>
      </trkpt>
      <trkpt lat="41.836246" lon="-5.830773">
        <ele>742.849</ele>
        <time>2019-03-04T05:17:07Z</time>
      </trkpt>
      <trkpt lat="41.836560" lon="-5.831251">
        <ele>744.223</ele>
        <time>2019-03-04T05:17:25Z</time>
      </trkpt>
      <trkpt lat="41.836796" lon="-5.831612">
        <ele>744.408</ele>
        <time>2019-03-04T05:17:43Z</time>
      </trkpt>
      <trkpt lat="41.837062" lon="-5.832069">
        <ele>746.552</ele>
        <time>2019-03-04T05:18:05Z</time>
      </trkpt>
      <trkpt lat="41.837164" lon="-5.832246">
        <ele>747.773</ele>
        <time>2019-03-04T05:18:17Z</time>
      </trkpt>
      <trkpt lat="41.837198" lon="-5.832292">
        <ele>748.014</ele>
        <time>2019-03-04T05:18:42Z</time>
      </trkpt>
      <trkpt lat="41.837466" lon="-5.832733">
        <ele>748.913</ele>
        <time>2019-03-04T05:18:57Z</time>
      </trkpt>
      <trkpt lat="41.837893" lon="-5.833422">
        <ele>748.917</ele>
        <time>2019-03-04T05:19:13Z</time>
      </trkpt>
      <trkpt lat="41.838266" lon="-5.834021">
        <ele>748.330</ele>
        <time>2019-03-04T05:19:28Z</time>
      </trkpt>
      <trkpt lat="41.838798" lon="-5.834885">
        <ele>747.519</ele>
        <time>2019-03-04T05:19:47Z</time>
      </trkpt>
      <trkpt lat="41.839259" lon="-5.835614">
        <ele>746.418</ele>
        <time>2019-03-04T05:20:02Z</time>
      </trkpt>
      <trkpt lat="41.839575" lon="-5.836119">
        <ele>745.351</ele>
        <time>2019-03-04T05:20:11Z</time>
      </trkpt>
      <trkpt lat="41.839591" lon="-5.836172">
        <ele>745.201</ele>
        <time>2019-03-04T05:20:12Z</time>
      </trkpt>
      <trkpt lat="41.839591" lon="-5.836225">
        <ele>745.011</ele>
        <time>2019-03-04T05:20:13Z</time>
      </trkpt>
      <trkpt lat="41.839579" lon="-5.836277">
        <ele>745.208</ele>
        <time>2019-03-04T05:20:14Z</time>
      </trkpt>
      <trkpt lat="41.839558" lon="-5.836321">
        <ele>745.488</ele>
        <time>2019-03-04T05:20:15Z</time>
      </trkpt>
      <trkpt lat="41.839533" lon="-5.836358">
        <ele>745.579</ele>
        <time>2019-03-04T05:20:16Z</time>
      </trkpt>
      <trkpt lat="41.839351" lon="-5.836571">
        <ele>745.360</ele>
        <time>2019-03-04T05:20:22Z</time>
      </trkpt>
      <trkpt lat="41.838624" lon="-5.837356">
        <ele>742.889</ele>
        <time>2019-03-04T05:20:43Z</time>
      </trkpt>
      <trkpt lat="41.838066" lon="-5.837972">
        <ele>741.883</ele>
        <time>2019-03-04T05:20:57Z</time>
      </trkpt>
      <trkpt lat="41.837426" lon="-5.838771">
        <ele>739.476</ele>
        <time>2019-03-04T05:21:14Z</time>
      </trkpt>
      <trkpt lat="41.837039" lon="-5.839501">
        <ele>736.715</ele>
        <time>2019-03-04T05:21:28Z</time>
      </trkpt>
      <trkpt lat="41.836778" lon="-5.840212">
        <ele>736.214</ele>
        <time>2019-03-04T05:21:41Z</time>
      </trkpt>
      <trkpt lat="41.836756" lon="-5.840381">
        <ele>736.394</ele>
        <time>2019-03-04T05:21:44Z</time>
      </trkpt>
      <trkpt lat="41.836756" lon="-5.840436">
        <ele>736.357</ele>
        <time>2019-03-04T05:21:45Z</time>
      </trkpt>
      <trkpt lat="41.836762" lon="-5.840492">
        <ele>736.422</ele>
        <time>2019-03-04T05:21:46Z</time>
      </trkpt>
      <trkpt lat="41.836772" lon="-5.840548">
        <ele>736.408</ele>
        <time>2019-03-04T05:21:47Z</time>
      </trkpt>
      <trkpt lat="41.836788" lon="-5.840601">
        <ele>736.532</ele>
        <time>2019-03-04T05:21:48Z</time>
      </trkpt>
      <trkpt lat="41.836810" lon="-5.840648">
        <ele>736.553</ele>
        <time>2019-03-04T05:21:49Z</time>
      </trkpt>
      <trkpt lat="41.836837" lon="-5.840685">
        <ele>736.524</ele>
        <time>2019-03-04T05:21:50Z</time>
      </trkpt>
      <trkpt lat="41.836868" lon="-5.840717">
        <ele>736.573</ele>
        <time>2019-03-04T05:21:51Z</time>
      </trkpt>
      <trkpt lat="41.836901" lon="-5.840747">
        <ele>736.567</ele>
        <time>2019-03-04T05:21:52Z</time>
      </trkpt>
      <trkpt lat="41.837039" lon="-5.840872">
        <ele>736.540</ele>
        <time>2019-03-04T05:21:56Z</time>
      </trkpt>
      <trkpt lat="41.837069" lon="-5.840916">
        <ele>736.569</ele>
        <time>2019-03-04T05:21:57Z</time>
      </trkpt>
      <trkpt lat="41.837095" lon="-5.840968">
        <ele>736.558</ele>
        <time>2019-03-04T05:21:58Z</time>
      </trkpt>
      <trkpt lat="41.837113" lon="-5.841028">
        <ele>736.529</ele>
        <time>2019-03-04T05:21:59Z</time>
      </trkpt>
      <trkpt lat="41.837119" lon="-5.841093">
        <ele>736.500</ele>
        <time>2019-03-04T05:22:00Z</time>
      </trkpt>
      <trkpt lat="41.837114" lon="-5.841159">
        <ele>736.520</ele>
        <time>2019-03-04T05:22:01Z</time>
      </trkpt>
      <trkpt lat="41.837104" lon="-5.841225">
        <ele>736.508</ele>
        <time>2019-03-04T05:22:02Z</time>
      </trkpt>
      <trkpt lat="41.837088" lon="-5.841291">
        <ele>736.555</ele>
        <time>2019-03-04T05:22:03Z</time>
      </trkpt>
      <trkpt lat="41.837068" lon="-5.841357">
        <ele>736.496</ele>
        <time>2019-03-04T05:22:04Z</time>
      </trkpt>
      <trkpt lat="41.837046" lon="-5.841423">
        <ele>736.387</ele>
        <time>2019-03-04T05:22:05Z</time>
      </trkpt>
      <trkpt lat="41.836588" lon="-5.842556">
        <ele>732.516</ele>
        <time>2019-03-04T05:22:20Z</time>
      </trkpt>
      <trkpt lat="41.836196" lon="-5.843623">
        <ele>730.470</ele>
        <time>2019-03-04T05:22:35Z</time>
      </trkpt>
      <trkpt lat="41.835879" lon="-5.844656">
        <ele>730.353</ele>
        <time>2019-03-04T05:22:53Z</time>
      </trkpt>
      <trkpt lat="41.835507" lon="-5.845743">
        <ele>729.352</ele>
        <time>2019-03-04T05:23:11Z</time>
      </trkpt>
      <trkpt lat="41.835097" lon="-5.846583">
        <ele>727.761</ele>
        <time>2019-03-04T05:23:27Z</time>
      </trkpt>
      <trkpt lat="41.834523" lon="-5.847390">
        <ele>726.021</ele>
        <time>2019-03-04T05:23:42Z</time>
      </trkpt>
      <trkpt lat="41.834262" lon="-5.847797">
        <ele>724.341</ele>
        <time>2019-03-04T05:23:48Z</time>
      </trkpt>
      <trkpt lat="41.834239" lon="-5.847867">
        <ele>723.905</ele>
        <time>2019-03-04T05:23:49Z</time>
      </trkpt>
      <trkpt lat="41.834215" lon="-5.847931">
        <ele>723.608</ele>
        <time>2019-03-04T05:23:50Z</time>
      </trkpt>
      <trkpt lat="41.834189" lon="-5.847985">
        <ele>723.365</ele>
        <time>2019-03-04T05:23:51Z</time>
      </trkpt>
      <trkpt lat="41.834163" lon="-5.848035">
        <ele>723.086</ele>
        <time>2019-03-04T05:23:52Z</time>
      </trkpt>
      <trkpt lat="41.833784" lon="-5.848642">
        <ele>721.737</ele>
        <time>2019-03-04T05:24:06Z</time>
      </trkpt>
      <trkpt lat="41.833406" lon="-5.849426">
        <ele>721.076</ele>
        <time>2019-03-04T05:24:21Z</time>
      </trkpt>
      <trkpt lat="41.833084" lon="-5.850610">
        <ele>719.650</ele>
        <time>2019-03-04T05:24:36Z</time>
      </trkpt>
      <trkpt lat="41.832906" lon="-5.851498">
        <ele>717.083</ele>
        <time>2019-03-04T05:24:45Z</time>
      </trkpt>
      <trkpt lat="41.832697" lon="-5.852407">
        <ele>712.842</ele>
        <time>2019-03-04T05:24:58Z</time>
      </trkpt>
      <trkpt lat="41.832300" lon="-5.853277">
        <ele>710.971</ele>
        <time>2019-03-04T05:25:15Z</time>
      </trkpt>
      <trkpt lat="41.831622" lon="-5.853948">
        <ele>710.353</ele>
        <time>2019-03-04T05:25:34Z</time>
      </trkpt>
      <trkpt lat="41.831548" lon="-5.854013">
        <ele>710.204</ele>
        <time>2019-03-04T05:25:36Z</time>
      </trkpt>
      <trkpt lat="41.831333" lon="-5.854351">
        <ele>710.714</ele>
        <time>2019-03-04T05:25:45Z</time>
      </trkpt>
      <trkpt lat="41.831338" lon="-5.854407">
        <ele>710.808</ele>
        <time>2019-03-04T05:25:46Z</time>
      </trkpt>
      <trkpt lat="41.831403" lon="-5.854809">
        <ele>710.438</ele>
        <time>2019-03-04T05:25:57Z</time>
      </trkpt>
      <trkpt lat="41.831404" lon="-5.854807">
        <ele>710.489</ele>
        <time>2019-03-04T05:25:58Z</time>
      </trkpt>
      <trkpt lat="41.831418" lon="-5.854859">
        <ele>710.380</ele>
        <time>2019-03-04T05:26:32Z</time>
      </trkpt>
      <trkpt lat="41.831531" lon="-5.855537">
        <ele>708.599</ele>
        <time>2019-03-04T05:26:43Z</time>
      </trkpt>
      <trkpt lat="41.831719" lon="-5.856621">
        <ele>705.723</ele>
        <time>2019-03-04T05:26:56Z</time>
      </trkpt>
      <trkpt lat="41.831877" lon="-5.857583">
        <ele>701.886</ele>
        <time>2019-03-04T05:27:07Z</time>
      </trkpt>
      <trkpt lat="41.832068" lon="-5.858800">
        <ele>699.485</ele>
        <time>2019-03-04T05:27:20Z</time>
      </trkpt>
      <trkpt lat="41.832315" lon="-5.860294">
        <ele>698.314</ele>
        <time>2019-03-04T05:27:38Z</time>
      </trkpt>
      <trkpt lat="41.832482" lon="-5.861189">
        <ele>698.725</ele>
        <time>2019-03-04T05:27:54Z</time>
      </trkpt>
      <trkpt lat="41.832641" lon="-5.862180">
        <ele>699.526</ele>
        <time>2019-03-04T05:28:15Z</time>
      </trkpt>
      <trkpt lat="41.832789" lon="-5.863081">
        <ele>700.308</ele>
        <time>2019-03-04T05:28:35Z</time>
      </trkpt>
      <trkpt lat="41.832947" lon="-5.864026">
        <ele>701.008</ele>
        <time>2019-03-04T05:28:50Z</time>
      </trkpt>
      <trkpt lat="41.832988" lon="-5.864312">
        <ele>700.865</ele>
        <time>2019-03-04T05:28:54Z</time>
      </trkpt>
      <trkpt lat="41.833113" lon="-5.865029">
        <ele>699.286</ele>
        <time>2019-03-04T05:29:09Z</time>
      </trkpt>
      <trkpt lat="41.833213" lon="-5.865624">
        <ele>699.967</ele>
        <time>2019-03-04T05:29:27Z</time>
      </trkpt>
      <trkpt lat="41.833362" lon="-5.866536">
        <ele>701.966</ele>
        <time>2019-03-04T05:29:50Z</time>
      </trkpt>
      <trkpt lat="41.833487" lon="-5.867291">
        <ele>703.050</ele>
        <time>2019-03-04T05:30:10Z</time>
      </trkpt>
      <trkpt lat="41.833637" lon="-5.868201">
        <ele>704.713</ele>
        <time>2019-03-04T05:30:34Z</time>
      </trkpt>
      <trkpt lat="41.833781" lon="-5.868983">
        <ele>706.142</ele>
        <time>2019-03-04T05:30:53Z</time>
      </trkpt>
      <trkpt lat="41.833916" lon="-5.869795">
        <ele>706.711</ele>
        <time>2019-03-04T05:31:13Z</time>
      </trkpt>
      <trkpt lat="41.833986" lon="-5.870207">
        <ele>707.449</ele>
        <time>2019-03-04T05:31:27Z</time>
      </trkpt>
      <trkpt lat="41.834064" lon="-5.870687">
        <ele>708.602</ele>
        <time>2019-03-04T05:31:41Z</time>
      </trkpt>
      <trkpt lat="41.834188" lon="-5.871452">
        <ele>710.522</ele>
        <time>2019-03-04T05:32:02Z</time>
      </trkpt>
      <trkpt lat="41.834317" lon="-5.872190">
        <ele>711.808</ele>
        <time>2019-03-04T05:32:22Z</time>
      </trkpt>
      <trkpt lat="41.834484" lon="-5.873183">
        <ele>713.517</ele>
        <time>2019-03-04T05:32:47Z</time>
      </trkpt>
      <trkpt lat="41.834602" lon="-5.873857">
        <ele>713.838</ele>
        <time>2019-03-04T05:33:05Z</time>
      </trkpt>
      <trkpt lat="41.834748" lon="-5.874705">
        <ele>714.219</ele>
        <time>2019-03-04T05:33:26Z</time>
      </trkpt>
      <trkpt lat="41.834763" lon="-5.874771">
        <ele>714.188</ele>
        <time>2019-03-04T05:33:29Z</time>
      </trkpt>
      <trkpt lat="41.834823" lon="-5.875151">
        <ele>714.882</ele>
        <time>2019-03-04T05:33:43Z</time>
      </trkpt>
      <trkpt lat="41.834824" lon="-5.875150">
        <ele>714.875</ele>
        <time>2019-03-04T05:33:45Z</time>
      </trkpt>
      <trkpt lat="41.834840" lon="-5.875190">
        <ele>714.914</ele>
        <time>2019-03-04T05:34:26Z</time>
      </trkpt>
      <trkpt lat="41.834925" lon="-5.875721">
        <ele>715.883</ele>
        <time>2019-03-04T05:34:41Z</time>
      </trkpt>
      <trkpt lat="41.835027" lon="-5.876353">
        <ele>715.458</ele>
        <time>2019-03-04T05:34:57Z</time>
      </trkpt>
      <trkpt lat="41.835164" lon="-5.877187">
        <ele>717.752</ele>
        <time>2019-03-04T05:35:20Z</time>
      </trkpt>
      <trkpt lat="41.835284" lon="-5.877898">
        <ele>719.017</ele>
        <time>2019-03-04T05:35:40Z</time>
      </trkpt>
      <trkpt lat="41.835437" lon="-5.878822">
        <ele>717.708</ele>
        <time>2019-03-04T05:36:03Z</time>
      </trkpt>
      <trkpt lat="41.835541" lon="-5.879520">
        <ele>717.458</ele>
        <time>2019-03-04T05:36:19Z</time>
      </trkpt>
      <trkpt lat="41.835710" lon="-5.880546">
        <ele>720.889</ele>
        <time>2019-03-04T05:36:41Z</time>
      </trkpt>
      <trkpt lat="41.835828" lon="-5.881221">
        <ele>720.450</ele>
        <time>2019-03-04T05:36:59Z</time>
      </trkpt>
      <trkpt lat="41.835902" lon="-5.881700">
        <ele>721.149</ele>
        <time>2019-03-04T05:37:13Z</time>
      </trkpt>
      <trkpt lat="41.835903" lon="-5.881698">
        <ele>721.193</ele>
        <time>2019-03-04T05:37:16Z</time>
      </trkpt>
      <trkpt lat="41.835921" lon="-5.881756">
        <ele>721.286</ele>
        <time>2019-03-04T05:38:06Z</time>
      </trkpt>
      <trkpt lat="41.836029" lon="-5.882391">
        <ele>721.125</ele>
        <time>2019-03-04T05:38:21Z</time>
      </trkpt>
      <trkpt lat="41.836155" lon="-5.882973">
        <ele>721.694</ele>
        <time>2019-03-04T05:38:35Z</time>
      </trkpt>
      <trkpt lat="41.836208" lon="-5.883943">
        <ele>722.124</ele>
        <time>2019-03-04T05:38:56Z</time>
      </trkpt>
      <trkpt lat="41.836110" lon="-5.884745">
        <ele>722.304</ele>
        <time>2019-03-04T05:39:13Z</time>
      </trkpt>
      <trkpt lat="41.836044" lon="-5.885275">
        <ele>722.514</ele>
        <time>2019-03-04T05:39:24Z</time>
      </trkpt>
      <trkpt lat="41.836011" lon="-5.885535">
        <ele>722.608</ele>
        <time>2019-03-04T05:39:28Z</time>
      </trkpt>
      <trkpt lat="41.835973" lon="-5.885727">
        <ele>722.545</ele>
        <time>2019-03-04T05:39:31Z</time>
      </trkpt>
      <trkpt lat="41.835953" lon="-5.885985">
        <ele>722.396</ele>
        <time>2019-03-04T05:39:36Z</time>
      </trkpt>
      <trkpt lat="41.835932" lon="-5.886082">
        <ele>722.287</ele>
        <time>2019-03-04T05:39:38Z</time>
      </trkpt>
      <trkpt lat="41.835762" lon="-5.886828">
        <ele>721.446</ele>
        <time>2019-03-04T05:39:50Z</time>
      </trkpt>
      <trkpt lat="41.835677" lon="-5.886986">
        <ele>720.250</ele>
        <time>2019-03-04T05:39:55Z</time>
      </trkpt>
      <trkpt lat="41.835577" lon="-5.887138">
        <ele>719.373</ele>
        <time>2019-03-04T05:40:04Z</time>
      </trkpt>
      <trkpt lat="41.835490" lon="-5.887144">
        <ele>718.812</ele>
        <time>2019-03-04T05:42:36Z</time>
      </trkpt>
      <trkpt lat="41.834923" lon="-5.887330">
        <ele>715.461</ele>
        <time>2019-03-04T05:42:47Z</time>
      </trkpt>
      <trkpt lat="41.834809" lon="-5.887369">
        <ele>714.724</ele>
        <time>2019-03-04T05:42:49Z</time>
      </trkpt>
      <trkpt lat="41.834487" lon="-5.887612">
        <ele>712.104</ele>
        <time>2019-03-04T05:43:00Z</time>
      </trkpt>
      <trkpt lat="41.834491" lon="-5.887633">
        <ele>712.114</ele>
        <time>2019-03-04T05:43:02Z</time>
      </trkpt>
      <trkpt lat="41.834516" lon="-5.887931">
        <ele>712.508</ele>
        <time>2019-03-04T05:43:13Z</time>
      </trkpt>
      <trkpt lat="41.834533" lon="-5.888012">
        <ele>712.575</ele>
        <time>2019-03-04T05:43:15Z</time>
      </trkpt>
      <trkpt lat="41.834518" lon="-5.888534">
        <ele>711.966</ele>
        <time>2019-03-04T05:43:27Z</time>
      </trkpt>
      <trkpt lat="41.834466" lon="-5.888623">
        <ele>711.547</ele>
        <time>2019-03-04T05:43:29Z</time>
      </trkpt>
      <trkpt lat="41.834407" lon="-5.888726">
        <ele>711.036</ele>
        <time>2019-03-04T05:43:31Z</time>
      </trkpt>
      <trkpt lat="41.834332" lon="-5.888992">
        <ele>710.330</ele>
        <time>2019-03-04T05:43:36Z</time>
      </trkpt>
      <trkpt lat="41.834273" lon="-5.889222">
        <ele>709.763</ele>
        <time>2019-03-04T05:43:40Z</time>
      </trkpt>
      <trkpt lat="41.834228" lon="-5.889350">
        <ele>709.562</ele>
        <time>2019-03-04T05:43:42Z</time>
      </trkpt>
      <trkpt lat="41.834077" lon="-5.889665">
        <ele>708.951</ele>
        <time>2019-03-04T05:43:47Z</time>
      </trkpt>
      <trkpt lat="41.833899" lon="-5.890620">
        <ele>706.894</ele>
        <time>2019-03-04T05:44:01Z</time>
      </trkpt>
      <trkpt lat="41.833881" lon="-5.890886">
        <ele>706.357</ele>
        <time>2019-03-04T05:44:05Z</time>
      </trkpt>
      <trkpt lat="41.833754" lon="-5.891241">
        <ele>705.622</ele>
        <time>2019-03-04T05:44:10Z</time>
      </trkpt>
      <trkpt lat="41.833609" lon="-5.891736">
        <ele>704.908</ele>
        <time>2019-03-04T05:44:17Z</time>
      </trkpt>
      <trkpt lat="41.833513" lon="-5.892330">
        <ele>704.632</ele>
        <time>2019-03-04T05:44:26Z</time>
      </trkpt>
      <trkpt lat="41.833510" lon="-5.892401">
        <ele>704.723</ele>
        <time>2019-03-04T05:44:27Z</time>
      </trkpt>
      <trkpt lat="41.833512" lon="-5.892470">
        <ele>704.914</ele>
        <time>2019-03-04T05:44:28Z</time>
      </trkpt>
      <trkpt lat="41.833519" lon="-5.892539">
        <ele>705.173</ele>
        <time>2019-03-04T05:44:29Z</time>
      </trkpt>
      <trkpt lat="41.833530" lon="-5.892606">
        <ele>705.347</ele>
        <time>2019-03-04T05:44:30Z</time>
      </trkpt>
      <trkpt lat="41.833542" lon="-5.892671">
        <ele>705.530</ele>
        <time>2019-03-04T05:44:31Z</time>
      </trkpt>
      <trkpt lat="41.833574" lon="-5.893091">
        <ele>706.249</ele>
        <time>2019-03-04T05:44:39Z</time>
      </trkpt>
      <trkpt lat="41.833594" lon="-5.893096">
        <ele>706.288</ele>
        <time>2019-03-04T05:44:40Z</time>
      </trkpt>
      <trkpt lat="41.833709" lon="-5.893111">
        <ele>706.317</ele>
        <time>2019-03-04T05:44:45Z</time>
      </trkpt>
      <trkpt lat="41.834170" lon="-5.893317">
        <ele>706.587</ele>
        <time>2019-03-04T05:44:59Z</time>
      </trkpt>
      <trkpt lat="41.834340" lon="-5.893629">
        <ele>706.415</ele>
        <time>2019-03-04T05:45:09Z</time>
      </trkpt>
      <trkpt lat="41.834219" lon="-5.894536">
        <ele>705.408</ele>
        <time>2019-03-04T05:45:25Z</time>
      </trkpt>
      <trkpt lat="41.834190" lon="-5.894864">
        <ele>705.184</ele>
        <time>2019-03-04T05:45:30Z</time>
      </trkpt>
      <trkpt lat="41.834195" lon="-5.894929">
        <ele>705.195</ele>
        <time>2019-03-04T05:45:31Z</time>
      </trkpt>
      <trkpt lat="41.834203" lon="-5.894992">
        <ele>705.136</ele>
        <time>2019-03-04T05:45:32Z</time>
      </trkpt>
      <trkpt lat="41.834373" lon="-5.895688">
        <ele>705.145</ele>
        <time>2019-03-04T05:45:46Z</time>
      </trkpt>
      <trkpt lat="41.834462" lon="-5.896168">
        <ele>705.059</ele>
        <time>2019-03-04T05:45:55Z</time>
      </trkpt>
      <trkpt lat="41.834469" lon="-5.896222">
        <ele>705.072</ele>
        <time>2019-03-04T05:45:56Z</time>
      </trkpt>
      <trkpt lat="41.834481" lon="-5.896272">
        <ele>705.081</ele>
        <time>2019-03-04T05:45:57Z</time>
      </trkpt>
      <trkpt lat="41.834496" lon="-5.896317">
        <ele>705.090</ele>
        <time>2019-03-04T05:45:58Z</time>
      </trkpt>
      <trkpt lat="41.834511" lon="-5.896358">
        <ele>705.018</ele>
        <time>2019-03-04T05:45:59Z</time>
      </trkpt>
      <trkpt lat="41.834628" lon="-5.896801">
        <ele>705.098</ele>
        <time>2019-03-04T05:46:11Z</time>
      </trkpt>
      <trkpt lat="41.834876" lon="-5.897843">
        <ele>705.117</ele>
        <time>2019-03-04T05:46:32Z</time>
      </trkpt>
      <trkpt lat="41.834922" lon="-5.898047">
        <ele>705.208</ele>
        <time>2019-03-04T05:46:36Z</time>
      </trkpt>
      <trkpt lat="41.835195" lon="-5.899157">
        <ele>705.344</ele>
        <time>2019-03-04T05:46:57Z</time>
      </trkpt>
      <trkpt lat="41.835291" lon="-5.899848">
        <ele>705.755</ele>
        <time>2019-03-04T05:47:12Z</time>
      </trkpt>
      <trkpt lat="41.835579" lon="-5.902435">
        <ele>707.326</ele>
        <time>2019-03-04T05:49:23Z</time>
      </trkpt>
      <trkpt lat="41.835568" lon="-5.902483">
        <ele>707.365</ele>
        <time>2019-03-04T05:49:52Z</time>
      </trkpt>
      <trkpt lat="41.835568" lon="-5.902483">
        <ele>707.359</ele>
        <time>2019-03-04T05:49:53Z</time>
      </trkpt>
      <trkpt lat="41.835575" lon="-5.902565">
        <ele>707.422</ele>
        <time>2019-03-04T05:51:12Z</time>
      </trkpt>
      <trkpt lat="41.835587" lon="-5.902646">
        <ele>707.531</ele>
        <time>2019-03-04T05:51:16Z</time>
      </trkpt>
      <trkpt lat="41.835618" lon="-5.902983">
        <ele>707.750</ele>
        <time>2019-03-04T05:51:30Z</time>
      </trkpt>
      <trkpt lat="41.835660" lon="-5.903475">
        <ele>708.087</ele>
        <time>2019-03-04T05:51:46Z</time>
      </trkpt>
      <trkpt lat="41.835733" lon="-5.904072">
        <ele>708.542</ele>
        <time>2019-03-04T05:52:00Z</time>
      </trkpt>
      <trkpt lat="41.835818" lon="-5.904897">
        <ele>709.026</ele>
        <time>2019-03-04T05:52:17Z</time>
      </trkpt>
      <trkpt lat="41.835912" lon="-5.905701">
        <ele>710.508</ele>
        <time>2019-03-04T05:52:34Z</time>
      </trkpt>
      <trkpt lat="41.836027" lon="-5.906796">
        <ele>711.111</ele>
        <time>2019-03-04T05:52:57Z</time>
      </trkpt>
      <trkpt lat="41.836092" lon="-5.907566">
        <ele>711.612</ele>
        <time>2019-03-04T05:53:14Z</time>
      </trkpt>
      <trkpt lat="41.836180" lon="-5.908390">
        <ele>711.143</ele>
        <time>2019-03-04T05:53:33Z</time>
      </trkpt>
      <trkpt lat="41.836232" lon="-5.908979">
        <ele>711.482</ele>
        <time>2019-03-04T05:53:46Z</time>
      </trkpt>
      <trkpt lat="41.836280" lon="-5.909675">
        <ele>712.786</ele>
        <time>2019-03-04T05:54:01Z</time>
      </trkpt>
      <trkpt lat="41.836368" lon="-5.910646">
        <ele>712.329</ele>
        <time>2019-03-04T05:54:20Z</time>
      </trkpt>
      <trkpt lat="41.836464" lon="-5.911470">
        <ele>712.248</ele>
        <time>2019-03-04T05:54:36Z</time>
      </trkpt>
      <trkpt lat="41.836523" lon="-5.911873">
        <ele>712.257</ele>
        <time>2019-03-04T05:54:49Z</time>
      </trkpt>
      <trkpt lat="41.836595" lon="-5.912605">
        <ele>712.026</ele>
        <time>2019-03-04T05:55:04Z</time>
      </trkpt>
      <trkpt lat="41.836688" lon="-5.913450">
        <ele>712.447</ele>
        <time>2019-03-04T05:55:20Z</time>
      </trkpt>
      <trkpt lat="41.836741" lon="-5.913984">
        <ele>712.411</ele>
        <time>2019-03-04T05:55:34Z</time>
      </trkpt>
      <trkpt lat="41.836843" lon="-5.915039">
        <ele>712.408</ele>
        <time>2019-03-04T05:55:54Z</time>
      </trkpt>
      <trkpt lat="41.836937" lon="-5.915983">
        <ele>712.025</ele>
        <time>2019-03-04T05:56:11Z</time>
      </trkpt>
      <trkpt lat="41.837046" lon="-5.917070">
        <ele>711.196</ele>
        <time>2019-03-04T05:56:29Z</time>
      </trkpt>
      <trkpt lat="41.837143" lon="-5.918024">
        <ele>711.737</ele>
        <time>2019-03-04T05:56:45Z</time>
      </trkpt>
      <trkpt lat="41.837161" lon="-5.918287">
        <ele>711.616</ele>
        <time>2019-03-04T05:56:49Z</time>
      </trkpt>
      <trkpt lat="41.837202" lon="-5.918614">
        <ele>711.680</ele>
        <time>2019-03-04T05:56:54Z</time>
      </trkpt>
      <trkpt lat="41.837205" lon="-5.918677">
        <ele>711.593</ele>
        <time>2019-03-04T05:56:55Z</time>
      </trkpt>
      <trkpt lat="41.837235" lon="-5.919117">
        <ele>711.582</ele>
        <time>2019-03-04T05:57:02Z</time>
      </trkpt>
      <trkpt lat="41.837236" lon="-5.919178">
        <ele>711.571</ele>
        <time>2019-03-04T05:57:03Z</time>
      </trkpt>
      <trkpt lat="41.837242" lon="-5.919234">
        <ele>711.558</ele>
        <time>2019-03-04T05:57:04Z</time>
      </trkpt>
      <trkpt lat="41.837345" lon="-5.920060">
        <ele>712.352</ele>
        <time>2019-03-04T05:57:20Z</time>
      </trkpt>
      <trkpt lat="41.837424" lon="-5.920919">
        <ele>713.517</ele>
        <time>2019-03-04T05:57:39Z</time>
      </trkpt>
      <trkpt lat="41.837429" lon="-5.921039">
        <ele>713.608</ele>
        <time>2019-03-04T05:57:47Z</time>
      </trkpt>
      <trkpt lat="41.837436" lon="-5.921097">
        <ele>713.848</ele>
        <time>2019-03-04T05:58:03Z</time>
      </trkpt>
      <trkpt lat="41.837498" lon="-5.921621">
        <ele>714.969</ele>
        <time>2019-03-04T05:58:16Z</time>
      </trkpt>
      <trkpt lat="41.837463" lon="-5.921796">
        <ele>715.330</ele>
        <time>2019-03-04T05:58:20Z</time>
      </trkpt>
      <trkpt lat="41.837440" lon="-5.921824">
        <ele>715.449</ele>
        <time>2019-03-04T05:58:21Z</time>
      </trkpt>
      <trkpt lat="41.837413" lon="-5.921844">
        <ele>715.633</ele>
        <time>2019-03-04T05:58:22Z</time>
      </trkpt>
      <trkpt lat="41.837384" lon="-5.921855">
        <ele>715.696</ele>
        <time>2019-03-04T05:58:23Z</time>
      </trkpt>
      <trkpt lat="41.837259" lon="-5.921871">
        <ele>715.815</ele>
        <time>2019-03-04T05:58:27Z</time>
      </trkpt>
      <trkpt lat="41.837229" lon="-5.921874">
        <ele>715.884</ele>
        <time>2019-03-04T05:58:33Z</time>
      </trkpt>
      <trkpt lat="41.837173" lon="-5.921874">
        <ele>715.854</ele>
        <time>2019-03-04T05:58:48Z</time>
      </trkpt>
      <trkpt lat="41.837011" lon="-5.921880">
        <ele>715.856</ele>
        <time>2019-03-04T05:58:53Z</time>
      </trkpt>
      <trkpt lat="41.836322" lon="-5.921866">
        <ele>715.111</ele>
        <time>2019-03-04T05:59:08Z</time>
      </trkpt>
      <trkpt lat="41.835350" lon="-5.921832">
        <ele>715.408</ele>
        <time>2019-03-04T05:59:28Z</time>
      </trkpt>
      <trkpt lat="41.834475" lon="-5.921811">
        <ele>715.248</ele>
        <time>2019-03-04T05:59:46Z</time>
      </trkpt>
      <trkpt lat="41.833912" lon="-5.921782">
        <ele>715.379</ele>
        <time>2019-03-04T05:59:58Z</time>
      </trkpt>
      <trkpt lat="41.833400" lon="-5.921807">
        <ele>715.290</ele>
        <time>2019-03-04T06:00:12Z</time>
      </trkpt>
      <trkpt lat="41.832608" lon="-5.921799">
        <ele>715.069</ele>
        <time>2019-03-04T06:00:31Z</time>
      </trkpt>
      <trkpt lat="41.831908" lon="-5.921777">
        <ele>716.063</ele>
        <time>2019-03-04T06:00:49Z</time>
      </trkpt>
      <trkpt lat="41.831330" lon="-5.921780">
        <ele>717.846</ele>
        <time>2019-03-04T06:01:07Z</time>
      </trkpt>
      <trkpt lat="41.830801" lon="-5.921801">
        <ele>719.185</ele>
        <time>2019-03-04T06:01:24Z</time>
      </trkpt>
      <trkpt lat="41.830768" lon="-5.922278">
        <ele>719.774</ele>
        <time>2019-03-04T06:01:35Z</time>
      </trkpt>
      <trkpt lat="41.830701" lon="-5.922993">
        <ele>720.136</ele>
        <time>2019-03-04T06:01:49Z</time>
      </trkpt>
      <trkpt lat="41.830647" lon="-5.924079">
        <ele>720.217</ele>
        <time>2019-03-04T06:02:10Z</time>
      </trkpt>
      <trkpt lat="41.830594" lon="-5.925267">
        <ele>719.918</ele>
        <time>2019-03-04T06:02:29Z</time>
      </trkpt>
      <trkpt lat="41.830570" lon="-5.925918">
        <ele>720.108</ele>
        <time>2019-03-04T06:02:42Z</time>
      </trkpt>
      <trkpt lat="41.830536" lon="-5.926728">
        <ele>721.076</ele>
        <time>2019-03-04T06:03:00Z</time>
      </trkpt>
      <trkpt lat="41.830515" lon="-5.927385">
        <ele>721.977</ele>
        <time>2019-03-04T06:03:15Z</time>
      </trkpt>
      <trkpt lat="41.830487" lon="-5.927821">
        <ele>722.148</ele>
        <time>2019-03-04T06:03:27Z</time>
      </trkpt>
      <trkpt lat="41.830469" lon="-5.928610">
        <ele>722.737</ele>
        <time>2019-03-04T06:03:45Z</time>
      </trkpt>
      <trkpt lat="41.830491" lon="-5.929253">
        <ele>723.431</ele>
        <time>2019-03-04T06:03:58Z</time>
      </trkpt>
      <trkpt lat="41.830528" lon="-5.930251">
        <ele>723.614</ele>
        <time>2019-03-04T06:04:16Z</time>
      </trkpt>
      <trkpt lat="41.830555" lon="-5.931376">
        <ele>724.493</ele>
        <time>2019-03-04T06:04:35Z</time>
      </trkpt>
      <trkpt lat="41.830591" lon="-5.932230">
        <ele>724.592</ele>
        <time>2019-03-04T06:04:52Z</time>
      </trkpt>
      <trkpt lat="41.830609" lon="-5.932656">
        <ele>724.613</ele>
        <time>2019-03-04T06:05:05Z</time>
      </trkpt>
      <trkpt lat="41.830621" lon="-5.933412">
        <ele>724.843</ele>
        <time>2019-03-04T06:05:19Z</time>
      </trkpt>
      <trkpt lat="41.830638" lon="-5.933947">
        <ele>724.907</ele>
        <time>2019-03-04T06:05:30Z</time>
      </trkpt>
      <trkpt lat="41.830660" lon="-5.934869">
        <ele>725.308</ele>
        <time>2019-03-04T06:05:47Z</time>
      </trkpt>
      <trkpt lat="41.830703" lon="-5.935568">
        <ele>725.354</ele>
        <time>2019-03-04T06:06:04Z</time>
      </trkpt>
      <trkpt lat="41.830703" lon="-5.935567">
        <ele>725.335</ele>
        <time>2019-03-04T06:06:07Z</time>
      </trkpt>
      <trkpt lat="41.830719" lon="-5.935640">
        <ele>725.156</ele>
        <time>2019-03-04T06:06:31Z</time>
      </trkpt>
      <trkpt lat="41.830812" lon="-5.936149">
        <ele>723.495</ele>
        <time>2019-03-04T06:06:44Z</time>
      </trkpt>
      <trkpt lat="41.831029" lon="-5.936709">
        <ele>722.419</ele>
        <time>2019-03-04T06:07:00Z</time>
      </trkpt>
      <trkpt lat="41.831237" lon="-5.937219">
        <ele>723.142</ele>
        <time>2019-03-04T06:07:18Z</time>
      </trkpt>
      <trkpt lat="41.831280" lon="-5.937306">
        <ele>723.291</ele>
        <time>2019-03-04T06:07:27Z</time>
      </trkpt>
      <trkpt lat="41.831318" lon="-5.937384">
        <ele>723.360</ele>
        <time>2019-03-04T06:08:30Z</time>
      </trkpt>
      <trkpt lat="41.831488" lon="-5.937690">
        <ele>723.982</ele>
        <time>2019-03-04T06:08:53Z</time>
      </trkpt>
      <trkpt lat="41.831654" lon="-5.938000">
        <ele>724.643</ele>
        <time>2019-03-04T06:09:15Z</time>
      </trkpt>
      <trkpt lat="41.831707" lon="-5.938385">
        <ele>725.117</ele>
        <time>2019-03-04T06:09:38Z</time>
      </trkpt>
      <trkpt lat="41.831623" lon="-5.938727">
        <ele>725.108</ele>
        <time>2019-03-04T06:10:01Z</time>
      </trkpt>
      <trkpt lat="41.831431" lon="-5.938950">
        <ele>724.831</ele>
        <time>2019-03-04T06:10:23Z</time>
      </trkpt>
      <trkpt lat="41.831427" lon="-5.938946">
        <ele>724.822</ele>
        <time>2019-03-04T06:10:26Z</time>
      </trkpt>
      <trkpt lat="41.831349" lon="-5.939024">
        <ele>725.273</ele>
        <time>2019-03-04T06:11:28Z</time>
      </trkpt>
      <trkpt lat="41.831265" lon="-5.939112">
        <ele>725.532</ele>
        <time>2019-03-04T06:11:39Z</time>
      </trkpt>
      <trkpt lat="41.831204" lon="-5.939241">
        <ele>725.666</ele>
        <time>2019-03-04T06:13:16Z</time>
      </trkpt>
      <trkpt lat="41.831158" lon="-5.939295">
        <ele>725.639</ele>
        <time>2019-03-04T06:13:19Z</time>
      </trkpt>
      <trkpt lat="41.830930" lon="-5.939570">
        <ele>725.938</ele>
        <time>2019-03-04T06:13:29Z</time>
      </trkpt>
      <trkpt lat="41.830905" lon="-5.939618">
        <ele>726.037</ele>
        <time>2019-03-04T06:13:30Z</time>
      </trkpt>
      <trkpt lat="41.830884" lon="-5.939670">
        <ele>726.127</ele>
        <time>2019-03-04T06:13:31Z</time>
      </trkpt>
      <trkpt lat="41.830866" lon="-5.939728">
        <ele>726.268</ele>
        <time>2019-03-04T06:13:32Z</time>
      </trkpt>
      <trkpt lat="41.830852" lon="-5.939792">
        <ele>726.314</ele>
        <time>2019-03-04T06:13:33Z</time>
      </trkpt>
      <trkpt lat="41.830841" lon="-5.939861">
        <ele>726.408</ele>
        <time>2019-03-04T06:13:34Z</time>
      </trkpt>
      <trkpt lat="41.830836" lon="-5.939935">
        <ele>726.545</ele>
        <time>2019-03-04T06:13:35Z</time>
      </trkpt>
      <trkpt lat="41.830836" lon="-5.940013">
        <ele>726.586</ele>
        <time>2019-03-04T06:13:36Z</time>
      </trkpt>
      <trkpt lat="41.830839" lon="-5.940093">
        <ele>726.647</ele>
        <time>2019-03-04T06:13:37Z</time>
      </trkpt>
      <trkpt lat="41.830875" lon="-5.941100">
        <ele>726.526</ele>
        <time>2019-03-04T06:13:48Z</time>
      </trkpt>
      <trkpt lat="41.830901" lon="-5.941965">
        <ele>725.960</ele>
        <time>2019-03-04T06:13:57Z</time>
      </trkpt>
      <trkpt lat="41.830926" lon="-5.942928">
        <ele>725.463</ele>
        <time>2019-03-04T06:14:12Z</time>
      </trkpt>
      <trkpt lat="41.830941" lon="-5.943790">
        <ele>727.532</ele>
        <time>2019-03-04T06:14:29Z</time>
      </trkpt>
      <trkpt lat="41.830981" lon="-5.944794">
        <ele>728.391</ele>
        <time>2019-03-04T06:14:47Z</time>
      </trkpt>
      <trkpt lat="41.830994" lon="-5.945080">
        <ele>728.745</ele>
        <time>2019-03-04T06:14:52Z</time>
      </trkpt>
      <trkpt lat="41.830888" lon="-5.945680">
        <ele>728.947</ele>
        <time>2019-03-04T06:15:07Z</time>
      </trkpt>
      <trkpt lat="41.830708" lon="-5.946360">
        <ele>729.111</ele>
        <time>2019-03-04T06:15:24Z</time>
      </trkpt>
      <trkpt lat="41.830513" lon="-5.947045">
        <ele>729.508</ele>
        <time>2019-03-04T06:15:41Z</time>
      </trkpt>
      <trkpt lat="41.830413" lon="-5.947482">
        <ele>729.897</ele>
        <time>2019-03-04T06:15:54Z</time>
      </trkpt>
      <trkpt lat="41.830203" lon="-5.947908">
        <ele>730.178</ele>
        <time>2019-03-04T06:16:08Z</time>
      </trkpt>
      <trkpt lat="41.830029" lon="-5.948553">
        <ele>730.319</ele>
        <time>2019-03-04T06:16:22Z</time>
      </trkpt>
      <trkpt lat="41.829851" lon="-5.949420">
        <ele>730.648</ele>
        <time>2019-03-04T06:16:38Z</time>
      </trkpt>
      <trkpt lat="41.829832" lon="-5.949470">
        <ele>730.692</ele>
        <time>2019-03-04T06:16:39Z</time>
      </trkpt>
      <trkpt lat="41.829807" lon="-5.949518">
        <ele>730.625</ele>
        <time>2019-03-04T06:16:40Z</time>
      </trkpt>
      <trkpt lat="41.829779" lon="-5.949562">
        <ele>730.754</ele>
        <time>2019-03-04T06:16:41Z</time>
      </trkpt>
      <trkpt lat="41.829746" lon="-5.949604">
        <ele>730.713</ele>
        <time>2019-03-04T06:16:42Z</time>
      </trkpt>
      <trkpt lat="41.829706" lon="-5.949643">
        <ele>730.711</ele>
        <time>2019-03-04T06:16:43Z</time>
      </trkpt>
      <trkpt lat="41.829666" lon="-5.949672">
        <ele>730.721</ele>
        <time>2019-03-04T06:16:44Z</time>
      </trkpt>
      <trkpt lat="41.829627" lon="-5.949693">
        <ele>730.703</ele>
        <time>2019-03-04T06:16:45Z</time>
      </trkpt>
      <trkpt lat="41.829594" lon="-5.949702">
        <ele>730.708</ele>
        <time>2019-03-04T06:16:46Z</time>
      </trkpt>
      <trkpt lat="41.829563" lon="-5.949710">
        <ele>730.754</ele>
        <time>2019-03-04T06:16:47Z</time>
      </trkpt>
      <trkpt lat="41.829533" lon="-5.949721">
        <ele>730.715</ele>
        <time>2019-03-04T06:16:48Z</time>
      </trkpt>
      <trkpt lat="41.829503" lon="-5.949733">
        <ele>730.736</ele>
        <time>2019-03-04T06:16:49Z</time>
      </trkpt>
      <trkpt lat="41.828977" lon="-5.950074">
        <ele>731.375</ele>
        <time>2019-03-04T06:17:05Z</time>
      </trkpt>
      <trkpt lat="41.828981" lon="-5.950545">
        <ele>731.699</ele>
        <time>2019-03-04T06:17:15Z</time>
      </trkpt>
      <trkpt lat="41.829115" lon="-5.951191">
        <ele>731.712</ele>
        <time>2019-03-04T06:17:29Z</time>
      </trkpt>
      <trkpt lat="41.829107" lon="-5.951779">
        <ele>731.721</ele>
        <time>2019-03-04T06:17:41Z</time>
      </trkpt>
      <trkpt lat="41.828839" lon="-5.952365">
        <ele>732.050</ele>
        <time>2019-03-04T06:17:54Z</time>
      </trkpt>
      <trkpt lat="41.828393" lon="-5.953274">
        <ele>732.543</ele>
        <time>2019-03-04T06:18:13Z</time>
      </trkpt>
      <trkpt lat="41.827851" lon="-5.954252">
        <ele>733.264</ele>
        <time>2019-03-04T06:18:33Z</time>
      </trkpt>
      <trkpt lat="41.827371" lon="-5.955102">
        <ele>733.710</ele>
        <time>2019-03-04T06:18:51Z</time>
      </trkpt>
      <trkpt lat="41.827334" lon="-5.955201">
        <ele>733.808</ele>
        <time>2019-03-04T06:18:53Z</time>
      </trkpt>
      <trkpt lat="41.827323" lon="-5.955254">
        <ele>733.887</ele>
        <time>2019-03-04T06:18:54Z</time>
      </trkpt>
      <trkpt lat="41.827318" lon="-5.955311">
        <ele>733.918</ele>
        <time>2019-03-04T06:18:55Z</time>
      </trkpt>
      <trkpt lat="41.827318" lon="-5.955370">
        <ele>733.999</ele>
        <time>2019-03-04T06:18:56Z</time>
      </trkpt>
      <trkpt lat="41.827321" lon="-5.955429">
        <ele>734.048</ele>
        <time>2019-03-04T06:18:57Z</time>
      </trkpt>
      <trkpt lat="41.827336" lon="-5.955548">
        <ele>734.112</ele>
        <time>2019-03-04T06:18:59Z</time>
      </trkpt>
      <trkpt lat="41.827376" lon="-5.955715">
        <ele>734.295</ele>
        <time>2019-03-04T06:19:02Z</time>
      </trkpt>
      <trkpt lat="41.827396" lon="-5.955767">
        <ele>734.254</ele>
        <time>2019-03-04T06:19:03Z</time>
      </trkpt>
      <trkpt lat="41.827787" lon="-5.956474">
        <ele>734.463</ele>
        <time>2019-03-04T06:19:17Z</time>
      </trkpt>
      <trkpt lat="41.827822" lon="-5.956514">
        <ele>734.466</ele>
        <time>2019-03-04T06:19:18Z</time>
      </trkpt>
      <trkpt lat="41.827858" lon="-5.956545">
        <ele>734.429</ele>
        <time>2019-03-04T06:19:19Z</time>
      </trkpt>
      <trkpt lat="41.827896" lon="-5.956572">
        <ele>734.421</ele>
        <time>2019-03-04T06:19:20Z</time>
      </trkpt>
      <trkpt lat="41.827934" lon="-5.956592">
        <ele>734.408</ele>
        <time>2019-03-04T06:19:21Z</time>
      </trkpt>
      <trkpt lat="41.827971" lon="-5.956610">
        <ele>734.489</ele>
        <time>2019-03-04T06:19:22Z</time>
      </trkpt>
      <trkpt lat="41.828077" lon="-5.956950">
        <ele>734.450</ele>
        <time>2019-03-04T06:19:30Z</time>
      </trkpt>
      <trkpt lat="41.828053" lon="-5.957154">
        <ele>734.521</ele>
        <time>2019-03-04T06:19:34Z</time>
      </trkpt>
      <trkpt lat="41.827760" lon="-5.957659">
        <ele>734.940</ele>
        <time>2019-03-04T06:19:47Z</time>
      </trkpt>
      <trkpt lat="41.827206" lon="-5.957947">
        <ele>739.524</ele>
        <time>2019-03-04T06:20:05Z</time>
      </trkpt>
      <trkpt lat="41.826961" lon="-5.958161">
        <ele>742.187</ele>
        <time>2019-03-04T06:20:18Z</time>
      </trkpt>
      <trkpt lat="41.826774" lon="-5.958345">
        <ele>744.036</ele>
        <time>2019-03-04T06:20:33Z</time>
      </trkpt>
      <trkpt lat="41.826765" lon="-5.958350">
        <ele>744.115</ele>
        <time>2019-03-04T06:20:38Z</time>
      </trkpt>
      <trkpt lat="41.826725" lon="-5.958396">
        <ele>744.492</ele>
        <time>2019-03-04T06:21:21Z</time>
      </trkpt>
      <trkpt lat="41.826677" lon="-5.958459">
        <ele>744.873</ele>
        <time>2019-03-04T06:21:24Z</time>
      </trkpt>
      <trkpt lat="41.826664" lon="-5.958489">
        <ele>744.920</ele>
        <time>2019-03-04T06:21:25Z</time>
      </trkpt>
      <trkpt lat="41.826650" lon="-5.958521">
        <ele>745.108</ele>
        <time>2019-03-04T06:21:26Z</time>
      </trkpt>
      <trkpt lat="41.826633" lon="-5.958549">
        <ele>745.682</ele>
        <time>2019-03-04T06:21:27Z</time>
      </trkpt>
      <trkpt lat="41.826612" lon="-5.958567">
        <ele>745.633</ele>
        <time>2019-03-04T06:21:28Z</time>
      </trkpt>
      <trkpt lat="41.826588" lon="-5.958576">
        <ele>745.684</ele>
        <time>2019-03-04T06:21:29Z</time>
      </trkpt>
      <trkpt lat="41.826562" lon="-5.958579">
        <ele>745.683</ele>
        <time>2019-03-04T06:21:30Z</time>
      </trkpt>
      <trkpt lat="41.826431" lon="-5.958654">
        <ele>746.277</ele>
        <time>2019-03-04T06:21:35Z</time>
      </trkpt>
      <trkpt lat="41.826419" lon="-5.958685">
        <ele>746.330</ele>
        <time>2019-03-04T06:21:36Z</time>
      </trkpt>
      <trkpt lat="41.826399" lon="-5.958721">
        <ele>746.439</ele>
        <time>2019-03-04T06:21:37Z</time>
      </trkpt>
      <trkpt lat="41.826317" lon="-5.958900">
        <ele>746.748</ele>
        <time>2019-03-04T06:21:42Z</time>
      </trkpt>
      <trkpt lat="41.826166" lon="-5.959629">
        <ele>746.786</ele>
        <time>2019-03-04T06:21:56Z</time>
      </trkpt>
      <trkpt lat="41.826057" lon="-5.959968">
        <ele>746.560</ele>
        <time>2019-03-04T06:22:05Z</time>
      </trkpt>
      <trkpt lat="41.826027" lon="-5.960179">
        <ele>746.526</ele>
        <time>2019-03-04T06:22:14Z</time>
      </trkpt>
      <trkpt lat="41.826034" lon="-5.960206">
        <ele>746.408</ele>
        <time>2019-03-04T06:22:20Z</time>
      </trkpt>
      <trkpt lat="41.825967" lon="-5.960358">
        <ele>746.381</ele>
        <time>2019-03-04T06:22:50Z</time>
      </trkpt>
      <trkpt lat="41.825956" lon="-5.960360">
        <ele>746.372</ele>
        <time>2019-03-04T06:22:52Z</time>
      </trkpt>
      <trkpt lat="41.825947" lon="-5.960303">
        <ele>746.483</ele>
        <time>2019-03-04T06:23:01Z</time>
      </trkpt>
      <trkpt lat="41.826001" lon="-5.960260">
        <ele>746.492</ele>
        <time>2019-03-04T07:28:17Z</time>
      </trkpt>
      <trkpt lat="41.826007" lon="-5.960246">
        <ele>746.426</ele>
        <time>2019-03-04T07:28:18Z</time>
      </trkpt>
      <trkpt lat="41.826016" lon="-5.960289">
        <ele>746.429</ele>
        <time>2019-03-04T07:28:40Z</time>
      </trkpt>
      <trkpt lat="41.825995" lon="-5.960313">
        <ele>746.478</ele>
        <time>2019-03-04T07:28:48Z</time>
      </trkpt>
      <trkpt lat="41.825959" lon="-5.960268">
        <ele>746.597</ele>
        <time>2019-03-04T07:39:35Z</time>
      </trkpt>
      <trkpt lat="41.825955" lon="-5.960248">
        <ele>746.577</ele>
        <time>2019-03-04T07:39:37Z</time>
      </trkpt>
      <trkpt lat="41.825960" lon="-5.960086">
        <ele>746.561</ele>
        <time>2019-03-04T07:39:43Z</time>
      </trkpt>
      <trkpt lat="41.826058" lon="-5.959754">
        <ele>746.627</ele>
        <time>2019-03-04T07:39:53Z</time>
      </trkpt>
      <trkpt lat="41.826115" lon="-5.959651">
        <ele>746.708</ele>
        <time>2019-03-04T07:39:58Z</time>
      </trkpt>
      <trkpt lat="41.826130" lon="-5.959624">
        <ele>746.740</ele>
        <time>2019-03-04T07:40:04Z</time>
      </trkpt>
      <trkpt lat="41.826174" lon="-5.959532">
        <ele>746.721</ele>
        <time>2019-03-04T07:40:35Z</time>
      </trkpt>
      <trkpt lat="41.826282" lon="-5.959085">
        <ele>746.812</ele>
        <time>2019-03-04T07:40:45Z</time>
      </trkpt>
      <trkpt lat="41.826403" lon="-5.958733">
        <ele>746.421</ele>
        <time>2019-03-04T07:40:55Z</time>
      </trkpt>
      <trkpt lat="41.826407" lon="-5.958716">
        <ele>746.365</ele>
        <time>2019-03-04T07:40:59Z</time>
      </trkpt>
      <trkpt lat="41.826382" lon="-5.958623">
        <ele>746.378</ele>
        <time>2019-03-04T07:41:36Z</time>
      </trkpt>
      <trkpt lat="41.826344" lon="-5.958579">
        <ele>746.277</ele>
        <time>2019-03-04T07:41:44Z</time>
      </trkpt>
      <trkpt lat="41.826540" lon="-5.958560">
        <ele>745.636</ele>
        <time>2019-03-04T07:46:35Z</time>
      </trkpt>
      <trkpt lat="41.826562" lon="-5.958554">
        <ele>745.636</ele>
        <time>2019-03-04T07:46:36Z</time>
      </trkpt>
      <trkpt lat="41.826584" lon="-5.958547">
        <ele>745.617</ele>
        <time>2019-03-04T07:46:37Z</time>
      </trkpt>
      <trkpt lat="41.826605" lon="-5.958531">
        <ele>745.318</ele>
        <time>2019-03-04T07:46:38Z</time>
      </trkpt>
      <trkpt lat="41.826630" lon="-5.958509">
        <ele>745.108</ele>
        <time>2019-03-04T07:46:39Z</time>
      </trkpt>
      <trkpt lat="41.826655" lon="-5.958481">
        <ele>745.026</ele>
        <time>2019-03-04T07:46:40Z</time>
      </trkpt>
      <trkpt lat="41.826774" lon="-5.958356">
        <ele>744.197</ele>
        <time>2019-03-04T07:46:44Z</time>
      </trkpt>
      <trkpt lat="41.827056" lon="-5.958080">
        <ele>741.258</ele>
        <time>2019-03-04T07:46:52Z</time>
      </trkpt>
      <trkpt lat="41.827581" lon="-5.957754">
        <ele>736.147</ele>
        <time>2019-03-04T07:47:02Z</time>
      </trkpt>
      <trkpt lat="41.828043" lon="-5.957615">
        <ele>733.841</ele>
        <time>2019-03-04T07:47:11Z</time>
      </trkpt>
      <trkpt lat="41.828762" lon="-5.957515">
        <ele>732.634</ele>
        <time>2019-03-04T07:47:26Z</time>
      </trkpt>
      <trkpt lat="41.829411" lon="-5.957068">
        <ele>732.443</ele>
        <time>2019-03-04T07:47:42Z</time>
      </trkpt>
      <trkpt lat="41.830283" lon="-5.956511">
        <ele>733.372</ele>
        <time>2019-03-04T07:48:02Z</time>
      </trkpt>
      <trkpt lat="41.830541" lon="-5.956387">
        <ele>733.565</ele>
        <time>2019-03-04T07:48:07Z</time>
      </trkpt>
      <trkpt lat="41.830594" lon="-5.956373">
        <ele>733.468</ele>
        <time>2019-03-04T07:48:08Z</time>
      </trkpt>
      <trkpt lat="41.831230" lon="-5.956280">
        <ele>733.214</ele>
        <time>2019-03-04T07:48:22Z</time>
      </trkpt>
      <trkpt lat="41.831665" lon="-5.956163">
        <ele>734.108</ele>
        <time>2019-03-04T07:48:37Z</time>
      </trkpt>
      <trkpt lat="41.832176" lon="-5.956030">
        <ele>736.439</ele>
        <time>2019-03-04T07:48:56Z</time>
      </trkpt>
      <trkpt lat="41.832666" lon="-5.955901">
        <ele>738.420</ele>
        <time>2019-03-04T07:49:15Z</time>
      </trkpt>
      <trkpt lat="41.833283" lon="-5.955728">
        <ele>738.471</ele>
        <time>2019-03-04T07:49:31Z</time>
      </trkpt>
      <trkpt lat="41.834023" lon="-5.955212">
        <ele>736.090</ele>
        <time>2019-03-04T07:49:45Z</time>
      </trkpt>
      <trkpt lat="41.834862" lon="-5.954527">
        <ele>733.914</ele>
        <time>2019-03-04T07:50:01Z</time>
      </trkpt>
      <trkpt lat="41.835806" lon="-5.953772">
        <ele>732.347</ele>
        <time>2019-03-04T07:50:19Z</time>
      </trkpt>
      <trkpt lat="41.836676" lon="-5.953075">
        <ele>730.846</ele>
        <time>2019-03-04T07:50:34Z</time>
      </trkpt>
      <trkpt lat="41.837337" lon="-5.952537">
        <ele>730.085</ele>
        <time>2019-03-04T07:50:50Z</time>
      </trkpt>
      <trkpt lat="41.837784" lon="-5.952171">
        <ele>729.886</ele>
        <time>2019-03-04T07:51:06Z</time>
      </trkpt>
      <trkpt lat="41.837993" lon="-5.951989">
        <ele>730.060</ele>
        <time>2019-03-04T07:51:18Z</time>
      </trkpt>
      <trkpt lat="41.838028" lon="-5.951955">
        <ele>730.026</ele>
        <time>2019-03-04T07:51:36Z</time>
      </trkpt>
      <trkpt lat="41.838390" lon="-5.951682">
        <ele>730.408</ele>
        <time>2019-03-04T07:51:51Z</time>
      </trkpt>
      <trkpt lat="41.838815" lon="-5.951484">
        <ele>731.181</ele>
        <time>2019-03-04T07:52:08Z</time>
      </trkpt>
      <trkpt lat="41.838837" lon="-5.951488">
        <ele>731.132</ele>
        <time>2019-03-04T07:52:09Z</time>
      </trkpt>
      <trkpt lat="41.839133" lon="-5.951844">
        <ele>732.373</ele>
        <time>2019-03-04T07:52:26Z</time>
      </trkpt>
      <trkpt lat="41.839142" lon="-5.951852">
        <ele>732.322</ele>
        <time>2019-03-04T07:52:30Z</time>
      </trkpt>
      <trkpt lat="41.839175" lon="-5.951905">
        <ele>732.426</ele>
        <time>2019-03-04T07:52:34Z</time>
      </trkpt>
      <trkpt lat="41.839406" lon="-5.952263">
        <ele>733.449</ele>
        <time>2019-03-04T07:52:50Z</time>
      </trkpt>
      <trkpt lat="41.839664" lon="-5.952678">
        <ele>734.778</ele>
        <time>2019-03-04T07:53:07Z</time>
      </trkpt>
      <trkpt lat="41.839888" lon="-5.953097">
        <ele>736.077</ele>
        <time>2019-03-04T07:53:25Z</time>
      </trkpt>
      <trkpt lat="41.840109" lon="-5.953534">
        <ele>738.067</ele>
        <time>2019-03-04T07:53:43Z</time>
      </trkpt>
      <trkpt lat="41.840017" lon="-5.954000">
        <ele>739.481</ele>
        <time>2019-03-04T07:53:57Z</time>
      </trkpt>
      <trkpt lat="41.840062" lon="-5.954650">
        <ele>739.819</ele>
        <time>2019-03-04T07:54:11Z</time>
      </trkpt>
      <trkpt lat="41.840393" lon="-5.955169">
        <ele>739.108</ele>
        <time>2019-03-04T07:54:25Z</time>
      </trkpt>
      <trkpt lat="41.840540" lon="-5.955644">
        <ele>739.049</ele>
        <time>2019-03-04T07:54:36Z</time>
      </trkpt>
      <trkpt lat="41.840559" lon="-5.955661">
        <ele>739.170</ele>
        <time>2019-03-04T07:54:37Z</time>
      </trkpt>
      <trkpt lat="41.840579" lon="-5.955662">
        <ele>738.981</ele>
        <time>2019-03-04T07:54:38Z</time>
      </trkpt>
      <trkpt lat="41.840596" lon="-5.955652">
        <ele>738.820</ele>
        <time>2019-03-04T07:54:39Z</time>
      </trkpt>
      <trkpt lat="41.840612" lon="-5.955559">
        <ele>738.654</ele>
        <time>2019-03-04T07:54:43Z</time>
      </trkpt>
      <trkpt lat="41.840795" lon="-5.955415">
        <ele>739.587</ele>
        <time>2019-03-04T07:54:54Z</time>
      </trkpt>
      <trkpt lat="41.841218" lon="-5.955415">
        <ele>741.726</ele>
        <time>2019-03-04T07:55:09Z</time>
      </trkpt>
      <trkpt lat="41.841478" lon="-5.955656">
        <ele>743.075</ele>
        <time>2019-03-04T07:55:25Z</time>
      </trkpt>
      <trkpt lat="41.841680" lon="-5.956069">
        <ele>744.348</ele>
        <time>2019-03-04T07:55:45Z</time>
      </trkpt>
      <trkpt lat="41.841875" lon="-5.956466">
        <ele>745.161</ele>
        <time>2019-03-04T07:56:05Z</time>
      </trkpt>
      <trkpt lat="41.841987" lon="-5.956639">
        <ele>745.317</ele>
        <time>2019-03-04T07:56:19Z</time>
      </trkpt>
      <trkpt lat="41.842027" lon="-5.956621">
        <ele>745.308</ele>
        <time>2019-03-04T07:56:31Z</time>
      </trkpt>
      <trkpt lat="41.842038" lon="-5.956611">
        <ele>745.357</ele>
        <time>2019-03-04T07:56:32Z</time>
      </trkpt>
      <trkpt lat="41.842300" lon="-5.956296">
        <ele>745.868</ele>
        <time>2019-03-04T07:56:50Z</time>
      </trkpt>
      <trkpt lat="41.842665" lon="-5.955706">
        <ele>743.589</ele>
        <time>2019-03-04T07:57:05Z</time>
      </trkpt>
      <trkpt lat="41.842687" lon="-5.955657">
        <ele>743.398</ele>
        <time>2019-03-04T07:57:06Z</time>
      </trkpt>
      <trkpt lat="41.842995" lon="-5.955425">
        <ele>741.462</ele>
        <time>2019-03-04T07:57:13Z</time>
      </trkpt>
      <trkpt lat="41.843758" lon="-5.955442">
        <ele>739.175</ele>
        <time>2019-03-04T07:57:25Z</time>
      </trkpt>
      <trkpt lat="41.844926" lon="-5.955467">
        <ele>736.844</ele>
        <time>2019-03-04T07:57:41Z</time>
      </trkpt>
      <trkpt lat="41.845582" lon="-5.955480">
        <ele>736.293</ele>
        <time>2019-03-04T07:57:51Z</time>
      </trkpt>
      <trkpt lat="41.845745" lon="-5.955576">
        <ele>736.019</ele>
        <time>2019-03-04T07:57:55Z</time>
      </trkpt>
      <trkpt lat="41.846292" lon="-5.956351">
        <ele>736.809</ele>
        <time>2019-03-04T07:58:12Z</time>
      </trkpt>
      <trkpt lat="41.846873" lon="-5.957109">
        <ele>737.719</ele>
        <time>2019-03-04T07:58:32Z</time>
      </trkpt>
      <trkpt lat="41.847437" lon="-5.957885">
        <ele>738.908</ele>
        <time>2019-03-04T07:58:54Z</time>
      </trkpt>
      <trkpt lat="41.848085" lon="-5.958757">
        <ele>740.384</ele>
        <time>2019-03-04T07:59:17Z</time>
      </trkpt>
      <trkpt lat="41.848680" lon="-5.959564">
        <ele>742.335</ele>
        <time>2019-03-04T07:59:39Z</time>
      </trkpt>
      <trkpt lat="41.848936" lon="-5.960397">
        <ele>743.036</ele>
        <time>2019-03-04T07:59:57Z</time>
      </trkpt>
      <trkpt lat="41.849043" lon="-5.960751">
        <ele>743.035</ele>
        <time>2019-03-04T08:00:06Z</time>
      </trkpt>
      <trkpt lat="41.849503" lon="-5.961637">
        <ele>744.699</ele>
        <time>2019-03-04T08:00:25Z</time>
      </trkpt>
      <trkpt lat="41.849703" lon="-5.962434">
        <ele>744.992</ele>
        <time>2019-03-04T08:00:41Z</time>
      </trkpt>
      <trkpt lat="41.849944" lon="-5.963357">
        <ele>746.391</ele>
        <time>2019-03-04T08:01:00Z</time>
      </trkpt>
      <trkpt lat="41.850172" lon="-5.964276">
        <ele>748.750</ele>
        <time>2019-03-04T08:01:21Z</time>
      </trkpt>
      <trkpt lat="41.850334" lon="-5.964985">
        <ele>750.911</ele>
        <time>2019-03-04T08:01:39Z</time>
      </trkpt>
      <trkpt lat="41.850517" lon="-5.965621">
        <ele>752.221</ele>
        <time>2019-03-04T08:01:55Z</time>
      </trkpt>
      <trkpt lat="41.850729" lon="-5.965831">
        <ele>753.203</ele>
        <time>2019-03-04T08:02:07Z</time>
      </trkpt>
      <trkpt lat="41.851198" lon="-5.965841">
        <ele>755.308</ele>
        <time>2019-03-04T08:02:26Z</time>
      </trkpt>
      <trkpt lat="41.851585" lon="-5.965858">
        <ele>757.824</ele>
        <time>2019-03-04T08:02:47Z</time>
      </trkpt>
      <trkpt lat="41.852043" lon="-5.965876">
        <ele>760.485</ele>
        <time>2019-03-04T08:03:11Z</time>
      </trkpt>
      <trkpt lat="41.852498" lon="-5.965911">
        <ele>761.596</ele>
        <time>2019-03-04T08:03:33Z</time>
      </trkpt>
      <trkpt lat="41.852905" lon="-5.965938">
        <ele>761.925</ele>
        <time>2019-03-04T08:03:48Z</time>
      </trkpt>
      <trkpt lat="41.853520" lon="-5.965974">
        <ele>761.929</ele>
        <time>2019-03-04T08:04:03Z</time>
      </trkpt>
      <trkpt lat="41.853974" lon="-5.965996">
        <ele>761.152</ele>
        <time>2019-03-04T08:04:17Z</time>
      </trkpt>
      <trkpt lat="41.854028" lon="-5.965999">
        <ele>761.031</ele>
        <time>2019-03-04T08:04:23Z</time>
      </trkpt>
      <trkpt lat="41.854063" lon="-5.966002">
        <ele>760.970</ele>
        <time>2019-03-04T08:05:24Z</time>
      </trkpt>
      <trkpt lat="41.854559" lon="-5.966028">
        <ele>760.073</ele>
        <time>2019-03-04T08:05:37Z</time>
      </trkpt>
      <trkpt lat="41.855652" lon="-5.966088">
        <ele>758.685</ele>
        <time>2019-03-04T08:05:55Z</time>
      </trkpt>
      <trkpt lat="41.856475" lon="-5.966131">
        <ele>759.713</ele>
        <time>2019-03-04T08:06:10Z</time>
      </trkpt>
      <trkpt lat="41.857510" lon="-5.966191">
        <ele>758.508</ele>
        <time>2019-03-04T08:06:30Z</time>
      </trkpt>
      <trkpt lat="41.858830" lon="-5.966262">
        <ele>756.130</ele>
        <time>2019-03-04T08:06:50Z</time>
      </trkpt>
      <trkpt lat="41.859919" lon="-5.966317">
        <ele>755.551</ele>
        <time>2019-03-04T08:07:09Z</time>
      </trkpt>
      <trkpt lat="41.860923" lon="-5.966373">
        <ele>755.432</ele>
        <time>2019-03-04T08:07:28Z</time>
      </trkpt>
      <trkpt lat="41.861633" lon="-5.966397">
        <ele>757.431</ele>
        <time>2019-03-04T08:07:45Z</time>
      </trkpt>
      <trkpt lat="41.861988" lon="-5.966344">
        <ele>760.265</ele>
        <time>2019-03-04T08:08:00Z</time>
      </trkpt>
      <trkpt lat="41.862432" lon="-5.966255">
        <ele>762.758</ele>
        <time>2019-03-04T08:08:19Z</time>
      </trkpt>
      <trkpt lat="41.862787" lon="-5.966173">
        <ele>764.227</ele>
        <time>2019-03-04T08:08:34Z</time>
      </trkpt>
      <trkpt lat="41.863191" lon="-5.966096">
        <ele>765.776</ele>
        <time>2019-03-04T08:08:50Z</time>
      </trkpt>
      <trkpt lat="41.863657" lon="-5.966027">
        <ele>767.687</ele>
        <time>2019-03-04T08:09:09Z</time>
      </trkpt>
      <trkpt lat="41.864080" lon="-5.965974">
        <ele>770.542</ele>
        <time>2019-03-04T08:09:27Z</time>
      </trkpt>
      <trkpt lat="41.864423" lon="-5.965889">
        <ele>774.326</ele>
        <time>2019-03-04T08:09:47Z</time>
      </trkpt>
      <trkpt lat="41.864617" lon="-5.965851">
        <ele>777.008</ele>
        <time>2019-03-04T08:10:01Z</time>
      </trkpt>
      <trkpt lat="41.864836" lon="-5.965795">
        <ele>780.331</ele>
        <time>2019-03-04T08:10:16Z</time>
      </trkpt>
      <trkpt lat="41.865049" lon="-5.965732">
        <ele>783.392</ele>
        <time>2019-03-04T08:10:32Z</time>
      </trkpt>
      <trkpt lat="41.865274" lon="-5.965654">
        <ele>786.773</ele>
        <time>2019-03-04T08:10:48Z</time>
      </trkpt>
      <trkpt lat="41.865491" lon="-5.965562">
        <ele>789.572</ele>
        <time>2019-03-04T08:11:04Z</time>
      </trkpt>
      <trkpt lat="41.865765" lon="-5.965453">
        <ele>791.536</ele>
        <time>2019-03-04T08:11:23Z</time>
      </trkpt>
      <trkpt lat="41.866038" lon="-5.965362">
        <ele>792.939</ele>
        <time>2019-03-04T08:11:41Z</time>
      </trkpt>
      <trkpt lat="41.866234" lon="-5.965318">
        <ele>793.458</ele>
        <time>2019-03-04T08:11:54Z</time>
      </trkpt>
      <trkpt lat="41.866522" lon="-5.965219">
        <ele>794.077</ele>
        <time>2019-03-04T08:12:06Z</time>
      </trkpt>
      <trkpt lat="41.867025" lon="-5.965041">
        <ele>795.096</ele>
        <time>2019-03-04T08:12:20Z</time>
      </trkpt>
      <trkpt lat="41.867522" lon="-5.964871">
        <ele>795.231</ele>
        <time>2019-03-04T08:12:34Z</time>
      </trkpt>
      <trkpt lat="41.867638" lon="-5.964840">
        <ele>795.524</ele>
        <time>2019-03-04T08:12:37Z</time>
      </trkpt>
      <trkpt lat="41.868386" lon="-5.964587">
        <ele>796.208</ele>
        <time>2019-03-04T08:12:55Z</time>
      </trkpt>
      <trkpt lat="41.868967" lon="-5.964388">
        <ele>797.042</ele>
        <time>2019-03-04T08:13:10Z</time>
      </trkpt>
      <trkpt lat="41.869395" lon="-5.964223">
        <ele>798.823</ele>
        <time>2019-03-04T08:13:25Z</time>
      </trkpt>
      <trkpt lat="41.869810" lon="-5.964111">
        <ele>801.434</ele>
        <time>2019-03-04T08:13:42Z</time>
      </trkpt>
      <trkpt lat="41.870145" lon="-5.963998">
        <ele>803.333</ele>
        <time>2019-03-04T08:13:56Z</time>
      </trkpt>
      <trkpt lat="41.870539" lon="-5.963794">
        <ele>805.967</ele>
        <time>2019-03-04T08:14:12Z</time>
      </trkpt>
      <trkpt lat="41.871056" lon="-5.963520">
        <ele>807.020</ele>
        <time>2019-03-04T08:14:32Z</time>
      </trkpt>
      <trkpt lat="41.871556" lon="-5.963225">
        <ele>806.159</ele>
        <time>2019-03-04T08:14:48Z</time>
      </trkpt>
      <trkpt lat="41.871597" lon="-5.963202">
        <ele>805.988</ele>
        <time>2019-03-04T08:14:49Z</time>
      </trkpt>
      <trkpt lat="41.871778" lon="-5.963126">
        <ele>805.324</ele>
        <time>2019-03-04T08:14:53Z</time>
      </trkpt>
      <trkpt lat="41.872505" lon="-5.962634">
        <ele>799.104</ele>
        <time>2019-03-04T08:15:06Z</time>
      </trkpt>
      <trkpt lat="41.872651" lon="-5.962543">
        <ele>797.414</ele>
        <time>2019-03-04T08:15:09Z</time>
      </trkpt>
      <trkpt lat="41.872694" lon="-5.962529">
        <ele>796.908</ele>
        <time>2019-03-04T08:15:10Z</time>
      </trkpt>
      <trkpt lat="41.872737" lon="-5.962527">
        <ele>796.845</ele>
        <time>2019-03-04T08:15:11Z</time>
      </trkpt>
      <trkpt lat="41.872779" lon="-5.962538">
        <ele>796.746</ele>
        <time>2019-03-04T08:15:12Z</time>
      </trkpt>
      <trkpt lat="41.872816" lon="-5.962562">
        <ele>796.697</ele>
        <time>2019-03-04T08:15:13Z</time>
      </trkpt>
      <trkpt lat="41.872850" lon="-5.962593">
        <ele>796.646</ele>
        <time>2019-03-04T08:15:14Z</time>
      </trkpt>
      <trkpt lat="41.873507" lon="-5.963168">
        <ele>794.790</ele>
        <time>2019-03-04T08:15:27Z</time>
      </trkpt>
      <trkpt lat="41.874442" lon="-5.964018">
        <ele>792.153</ele>
        <time>2019-03-04T08:15:43Z</time>
      </trkpt>
      <trkpt lat="41.874607" lon="-5.964173">
        <ele>790.832</ele>
        <time>2019-03-04T08:15:51Z</time>
      </trkpt>
      <trkpt lat="41.874606" lon="-5.964173">
        <ele>790.861</ele>
        <time>2019-03-04T08:15:52Z</time>
      </trkpt>
      <trkpt lat="41.874554" lon="-5.964135">
        <ele>790.196</ele>
        <time>2019-03-04T08:16:12Z</time>
      </trkpt>
      <trkpt lat="41.874199" lon="-5.963836">
        <ele>793.131</ele>
        <time>2019-03-04T08:16:27Z</time>
      </trkpt>
      <trkpt lat="41.873496" lon="-5.963207">
        <ele>794.724</ele>
        <time>2019-03-04T08:16:47Z</time>
      </trkpt>
      <trkpt lat="41.872916" lon="-5.962701">
        <ele>796.208</ele>
        <time>2019-03-04T08:17:07Z</time>
      </trkpt>
      <trkpt lat="41.872745" lon="-5.962555">
        <ele>796.722</ele>
        <time>2019-03-04T08:17:17Z</time>
      </trkpt>
      <trkpt lat="41.872772" lon="-5.962479">
        <ele>795.363</ele>
        <time>2019-03-04T08:17:20Z</time>
      </trkpt>
      <trkpt lat="41.872791" lon="-5.962456">
        <ele>795.274</ele>
        <time>2019-03-04T08:17:21Z</time>
      </trkpt>
      <trkpt lat="41.872817" lon="-5.962435">
        <ele>795.133</ele>
        <time>2019-03-04T08:17:22Z</time>
      </trkpt>
      <trkpt lat="41.872847" lon="-5.962414">
        <ele>795.047</ele>
        <time>2019-03-04T08:17:23Z</time>
      </trkpt>
      <trkpt lat="41.872880" lon="-5.962396">
        <ele>794.860</ele>
        <time>2019-03-04T08:17:24Z</time>
      </trkpt>
      <trkpt lat="41.872920" lon="-5.962381">
        <ele>794.699</ele>
        <time>2019-03-04T08:17:25Z</time>
      </trkpt>
      <trkpt lat="41.872965" lon="-5.962367">
        <ele>794.418</ele>
        <time>2019-03-04T08:17:26Z</time>
      </trkpt>
      <trkpt lat="41.873014" lon="-5.962356">
        <ele>794.224</ele>
        <time>2019-03-04T08:17:27Z</time>
      </trkpt>
      <trkpt lat="41.873069" lon="-5.962348">
        <ele>794.004</ele>
        <time>2019-03-04T08:17:28Z</time>
      </trkpt>
      <trkpt lat="41.873784" lon="-5.962239">
        <ele>790.514</ele>
        <time>2019-03-04T08:17:39Z</time>
      </trkpt>
      <trkpt lat="41.874132" lon="-5.962174">
        <ele>788.508</ele>
        <time>2019-03-04T08:17:44Z</time>
      </trkpt>
      <trkpt lat="41.874540" lon="-5.962120">
        <ele>785.835</ele>
        <time>2019-03-04T08:17:50Z</time>
      </trkpt>
      <trkpt lat="41.874941" lon="-5.962116">
        <ele>783.446</ele>
        <time>2019-03-04T08:17:57Z</time>
      </trkpt>
      <trkpt lat="41.875220" lon="-5.962121">
        <ele>781.797</ele>
        <time>2019-03-04T08:18:02Z</time>
      </trkpt>
      <trkpt lat="41.875801" lon="-5.962175">
        <ele>778.016</ele>
        <time>2019-03-04T08:18:13Z</time>
      </trkpt>
      <trkpt lat="41.876659" lon="-5.962282">
        <ele>775.170</ele>
        <time>2019-03-04T08:18:29Z</time>
      </trkpt>
      <trkpt lat="41.877770" lon="-5.962310">
        <ele>771.073</ele>
        <time>2019-03-04T08:18:48Z</time>
      </trkpt>
      <trkpt lat="41.878634" lon="-5.961973">
        <ele>768.272</ele>
        <time>2019-03-04T08:19:03Z</time>
      </trkpt>
      <trkpt lat="41.879791" lon="-5.961326">
        <ele>764.441</ele>
        <time>2019-03-04T08:19:21Z</time>
      </trkpt>
      <trkpt lat="41.880068" lon="-5.961153">
        <ele>763.689</ele>
        <time>2019-03-04T08:19:26Z</time>
      </trkpt>
      <trkpt lat="41.880311" lon="-5.960924">
        <ele>763.006</ele>
        <time>2019-03-04T08:19:32Z</time>
      </trkpt>
      <trkpt lat="41.880355" lon="-5.960906">
        <ele>762.926</ele>
        <time>2019-03-04T08:19:33Z</time>
      </trkpt>
      <trkpt lat="41.880445" lon="-5.960895">
        <ele>762.708</ele>
        <time>2019-03-04T08:19:35Z</time>
      </trkpt>
      <trkpt lat="41.880486" lon="-5.960893">
        <ele>762.611</ele>
        <time>2019-03-04T08:19:36Z</time>
      </trkpt>
      <trkpt lat="41.880522" lon="-5.960892">
        <ele>762.522</ele>
        <time>2019-03-04T08:19:37Z</time>
      </trkpt>
      <trkpt lat="41.880672" lon="-5.960861">
        <ele>762.243</ele>
        <time>2019-03-04T08:19:48Z</time>
      </trkpt>
      <trkpt lat="41.880667" lon="-5.960864">
        <ele>762.262</ele>
        <time>2019-03-04T08:19:49Z</time>
      </trkpt>
      <trkpt lat="41.880695" lon="-5.960828">
        <ele>762.126</ele>
        <time>2019-03-04T08:21:00Z</time>
      </trkpt>
      <trkpt lat="41.881118" lon="-5.960402">
        <ele>761.669</ele>
        <time>2019-03-04T08:21:13Z</time>
      </trkpt>
      <trkpt lat="41.881203" lon="-5.960336">
        <ele>761.688</ele>
        <time>2019-03-04T08:21:15Z</time>
      </trkpt>
      <trkpt lat="41.881285" lon="-5.960275">
        <ele>761.577</ele>
        <time>2019-03-04T08:21:17Z</time>
      </trkpt>
      <trkpt lat="41.881323" lon="-5.960237">
        <ele>761.542</ele>
        <time>2019-03-04T08:21:18Z</time>
      </trkpt>
      <trkpt lat="41.881400" lon="-5.960159">
        <ele>761.522</ele>
        <time>2019-03-04T08:21:20Z</time>
      </trkpt>
      <trkpt lat="41.881618" lon="-5.959983">
        <ele>761.314</ele>
        <time>2019-03-04T08:21:25Z</time>
      </trkpt>
      <trkpt lat="41.881665" lon="-5.959960">
        <ele>761.308</ele>
        <time>2019-03-04T08:21:26Z</time>
      </trkpt>
      <trkpt lat="41.881712" lon="-5.959944">
        <ele>761.237</ele>
        <time>2019-03-04T08:21:27Z</time>
      </trkpt>
      <trkpt lat="41.881758" lon="-5.959932">
        <ele>761.218</ele>
        <time>2019-03-04T08:21:28Z</time>
      </trkpt>
      <trkpt lat="41.881804" lon="-5.959925">
        <ele>761.159</ele>
        <time>2019-03-04T08:21:29Z</time>
      </trkpt>
      <trkpt lat="41.882250" lon="-5.959899">
        <ele>760.788</ele>
        <time>2019-03-04T08:21:39Z</time>
      </trkpt>
      <trkpt lat="41.882377" lon="-5.959891">
        <ele>760.632</ele>
        <time>2019-03-04T08:21:42Z</time>
      </trkpt>
      <trkpt lat="41.882420" lon="-5.959883">
        <ele>760.675</ele>
        <time>2019-03-04T08:21:43Z</time>
      </trkpt>
      <trkpt lat="41.882464" lon="-5.959876">
        <ele>760.694</ele>
        <time>2019-03-04T08:21:44Z</time>
      </trkpt>
      <trkpt lat="41.883089" lon="-5.959823">
        <ele>760.993</ele>
        <time>2019-03-04T08:21:58Z</time>
      </trkpt>
      <trkpt lat="41.883216" lon="-5.959841">
        <ele>761.063</ele>
        <time>2019-03-04T08:22:01Z</time>
      </trkpt>
      <trkpt lat="41.883642" lon="-5.960036">
        <ele>761.544</ele>
        <time>2019-03-04T08:22:15Z</time>
      </trkpt>
      <trkpt lat="41.884279" lon="-5.960316">
        <ele>762.418</ele>
        <time>2019-03-04T08:22:32Z</time>
      </trkpt>
      <trkpt lat="41.885044" lon="-5.960635">
        <ele>761.808</ele>
        <time>2019-03-04T08:22:48Z</time>
      </trkpt>
      <trkpt lat="41.885641" lon="-5.960906">
        <ele>760.999</ele>
        <time>2019-03-04T08:23:01Z</time>
      </trkpt>
      <trkpt lat="41.886224" lon="-5.961160">
        <ele>760.740</ele>
        <time>2019-03-04T08:23:15Z</time>
      </trkpt>
      <trkpt lat="41.886665" lon="-5.961346">
        <ele>760.411</ele>
        <time>2019-03-04T08:23:26Z</time>
      </trkpt>
      <trkpt lat="41.886705" lon="-5.961368">
        <ele>760.440</ele>
        <time>2019-03-04T08:23:27Z</time>
      </trkpt>
      <trkpt lat="41.886790" lon="-5.961412">
        <ele>760.324</ele>
        <time>2019-03-04T08:23:29Z</time>
      </trkpt>
      <trkpt lat="41.886912" lon="-5.961495">
        <ele>760.327</ele>
        <time>2019-03-04T08:23:32Z</time>
      </trkpt>
      <trkpt lat="41.886951" lon="-5.961523">
        <ele>760.316</ele>
        <time>2019-03-04T08:23:33Z</time>
      </trkpt>
      <trkpt lat="41.887725" lon="-5.961948">
        <ele>759.815</ele>
        <time>2019-03-04T08:23:49Z</time>
      </trkpt>
      <trkpt lat="41.888647" lon="-5.962474">
        <ele>759.072</ele>
        <time>2019-03-04T08:24:07Z</time>
      </trkpt>
      <trkpt lat="41.889404" lon="-5.962822">
        <ele>758.113</ele>
        <time>2019-03-04T08:24:22Z</time>
      </trkpt>
      <trkpt lat="41.889513" lon="-5.962871">
        <ele>757.914</ele>
        <time>2019-03-04T08:24:24Z</time>
      </trkpt>
      <trkpt lat="41.890352" lon="-5.963243">
        <ele>756.108</ele>
        <time>2019-03-04T08:24:39Z</time>
      </trkpt>
      <trkpt lat="41.891094" lon="-5.963577">
        <ele>755.140</ele>
        <time>2019-03-04T08:24:55Z</time>
      </trkpt>
      <trkpt lat="41.891687" lon="-5.963876">
        <ele>757.091</ele>
        <time>2019-03-04T08:25:12Z</time>
      </trkpt>
      <trkpt lat="41.892073" lon="-5.964078">
        <ele>760.292</ele>
        <time>2019-03-04T08:25:29Z</time>
      </trkpt>
      <trkpt lat="41.892432" lon="-5.964253">
        <ele>762.991</ele>
        <time>2019-03-04T08:25:46Z</time>
      </trkpt>
      <trkpt lat="41.892811" lon="-5.964426">
        <ele>765.175</ele>
        <time>2019-03-04T08:26:04Z</time>
      </trkpt>
      <trkpt lat="41.893272" lon="-5.964425">
        <ele>767.118</ele>
        <time>2019-03-04T08:26:22Z</time>
      </trkpt>
      <trkpt lat="41.893790" lon="-5.964418">
        <ele>769.697</ele>
        <time>2019-03-04T08:26:43Z</time>
      </trkpt>
      <trkpt lat="41.894311" lon="-5.964409">
        <ele>771.936</ele>
        <time>2019-03-04T08:27:04Z</time>
      </trkpt>
      <trkpt lat="41.894737" lon="-5.964373">
        <ele>773.864</ele>
        <time>2019-03-04T08:27:21Z</time>
      </trkpt>
      <trkpt lat="41.895376" lon="-5.964343">
        <ele>775.806</ele>
        <time>2019-03-04T08:27:44Z</time>
      </trkpt>
      <trkpt lat="41.895912" lon="-5.964317">
        <ele>777.016</ele>
        <time>2019-03-04T08:28:01Z</time>
      </trkpt>
      <trkpt lat="41.896243" lon="-5.964278">
        <ele>777.108</ele>
        <time>2019-03-04T08:28:10Z</time>
      </trkpt>
      <trkpt lat="41.896287" lon="-5.964281">
        <ele>777.249</ele>
        <time>2019-03-04T08:28:11Z</time>
      </trkpt>
      <trkpt lat="41.896333" lon="-5.964290">
        <ele>777.260</ele>
        <time>2019-03-04T08:28:12Z</time>
      </trkpt>
      <trkpt lat="41.896380" lon="-5.964306">
        <ele>777.281</ele>
        <time>2019-03-04T08:28:13Z</time>
      </trkpt>
      <trkpt lat="41.896429" lon="-5.964335">
        <ele>777.230</ele>
        <time>2019-03-04T08:28:14Z</time>
      </trkpt>
      <trkpt lat="41.896478" lon="-5.964370">
        <ele>777.284</ele>
        <time>2019-03-04T08:28:15Z</time>
      </trkpt>
      <trkpt lat="41.896947" lon="-5.964799">
        <ele>777.497</ele>
        <time>2019-03-04T08:28:28Z</time>
      </trkpt>
      <trkpt lat="41.897403" lon="-5.965216">
        <ele>779.386</ele>
        <time>2019-03-04T08:28:46Z</time>
      </trkpt>
      <trkpt lat="41.897949" lon="-5.965726">
        <ele>781.115</ele>
        <time>2019-03-04T08:29:07Z</time>
      </trkpt>
      <trkpt lat="41.898431" lon="-5.966158">
        <ele>784.156</ele>
        <time>2019-03-04T08:29:27Z</time>
      </trkpt>
      <trkpt lat="41.898901" lon="-5.966586">
        <ele>785.659</ele>
        <time>2019-03-04T08:29:45Z</time>
      </trkpt>
      <trkpt lat="41.899291" lon="-5.966951">
        <ele>787.714</ele>
        <time>2019-03-04T08:30:02Z</time>
      </trkpt>
      <trkpt lat="41.899555" lon="-5.967208">
        <ele>789.808</ele>
        <time>2019-03-04T08:30:16Z</time>
      </trkpt>
      <trkpt lat="41.899950" lon="-5.967557">
        <ele>792.638</ele>
        <time>2019-03-04T08:30:34Z</time>
      </trkpt>
      <trkpt lat="41.900282" lon="-5.967872">
        <ele>793.999</ele>
        <time>2019-03-04T08:30:49Z</time>
      </trkpt>
      <trkpt lat="41.900444" lon="-5.968025">
        <ele>794.620</ele>
        <time>2019-03-04T08:31:01Z</time>
      </trkpt>
      <trkpt lat="41.900480" lon="-5.968067">
        <ele>794.829</ele>
        <time>2019-03-04T08:31:55Z</time>
      </trkpt>
      <trkpt lat="41.900847" lon="-5.968349">
        <ele>796.153</ele>
        <time>2019-03-04T08:32:09Z</time>
      </trkpt>
      <trkpt lat="41.901105" lon="-5.968591">
        <ele>797.036</ele>
        <time>2019-03-04T08:32:22Z</time>
      </trkpt>
      <trkpt lat="41.901403" lon="-5.968851">
        <ele>798.415</ele>
        <time>2019-03-04T08:32:38Z</time>
      </trkpt>
      <trkpt lat="41.901806" lon="-5.969216">
        <ele>800.474</ele>
        <time>2019-03-04T08:32:56Z</time>
      </trkpt>
      <trkpt lat="41.902209" lon="-5.969590">
        <ele>802.344</ele>
        <time>2019-03-04T08:33:14Z</time>
      </trkpt>
      <trkpt lat="41.902643" lon="-5.969974">
        <ele>802.005</ele>
        <time>2019-03-04T08:33:30Z</time>
      </trkpt>
      <trkpt lat="41.902896" lon="-5.970232">
        <ele>801.015</ele>
        <time>2019-03-04T08:33:42Z</time>
      </trkpt>
      <trkpt lat="41.902893" lon="-5.970233">
        <ele>801.008</ele>
        <time>2019-03-04T08:33:44Z</time>
      </trkpt>
      <trkpt lat="41.902914" lon="-5.970275">
        <ele>800.877</ele>
        <time>2019-03-04T08:34:29Z</time>
      </trkpt>
      <trkpt lat="41.903105" lon="-5.970427">
        <ele>799.858</ele>
        <time>2019-03-04T08:34:35Z</time>
      </trkpt>
      <trkpt lat="41.903287" lon="-5.970586">
        <ele>798.839</ele>
        <time>2019-03-04T08:34:39Z</time>
      </trkpt>
      <trkpt lat="41.903874" lon="-5.971152">
        <ele>793.798</ele>
        <time>2019-03-04T08:34:48Z</time>
      </trkpt>
      <trkpt lat="41.904255" lon="-5.971534">
        <ele>789.732</ele>
        <time>2019-03-04T08:34:53Z</time>
      </trkpt>
      <trkpt lat="41.904513" lon="-5.971787">
        <ele>786.765</ele>
        <time>2019-03-04T08:34:57Z</time>
      </trkpt>
      <trkpt lat="41.904720" lon="-5.971970">
        <ele>783.054</ele>
        <time>2019-03-04T08:35:01Z</time>
      </trkpt>
      <trkpt lat="41.904800" lon="-5.972029">
        <ele>781.653</ele>
        <time>2019-03-04T08:35:04Z</time>
      </trkpt>
      <trkpt lat="41.904824" lon="-5.972025">
        <ele>781.543</ele>
        <time>2019-03-04T08:35:05Z</time>
      </trkpt>
      <trkpt lat="41.904847" lon="-5.972008">
        <ele>781.564</ele>
        <time>2019-03-04T08:35:06Z</time>
      </trkpt>
      <trkpt lat="41.904866" lon="-5.971979">
        <ele>781.510</ele>
        <time>2019-03-04T08:35:07Z</time>
      </trkpt>
      <trkpt lat="41.904882" lon="-5.971943">
        <ele>781.408</ele>
        <time>2019-03-04T08:35:08Z</time>
      </trkpt>
      <trkpt lat="41.904892" lon="-5.971915">
        <ele>781.467</ele>
        <time>2019-03-04T08:35:09Z</time>
      </trkpt>
      <trkpt lat="41.904855" lon="-5.971946">
        <ele>781.348</ele>
        <time>2019-03-04T08:35:20Z</time>
      </trkpt>
      <trkpt lat="41.904848" lon="-5.971932">
        <ele>781.359</ele>
        <time>2019-03-04T08:36:39Z</time>
      </trkpt>
      <trkpt lat="41.905086" lon="-5.971531">
        <ele>780.538</ele>
        <time>2019-03-04T08:36:49Z</time>
      </trkpt>
      <trkpt lat="41.905664" lon="-5.970587">
        <ele>778.132</ele>
        <time>2019-03-04T08:37:05Z</time>
      </trkpt>
      <trkpt lat="41.906297" lon="-5.969558">
        <ele>775.375</ele>
        <time>2019-03-04T08:37:21Z</time>
      </trkpt>
      <trkpt lat="41.907108" lon="-5.968232">
        <ele>772.074</ele>
        <time>2019-03-04T08:37:39Z</time>
      </trkpt>
      <trkpt lat="41.907797" lon="-5.967123">
        <ele>769.143</ele>
        <time>2019-03-04T08:37:55Z</time>
      </trkpt>
      <trkpt lat="41.908038" lon="-5.966753">
        <ele>768.226</ele>
        <time>2019-03-04T08:38:01Z</time>
      </trkpt>
      <trkpt lat="41.908091" lon="-5.966721">
        <ele>768.147</ele>
        <time>2019-03-04T08:38:02Z</time>
      </trkpt>
      <trkpt lat="41.908151" lon="-5.966710">
        <ele>768.011</ele>
        <time>2019-03-04T08:38:03Z</time>
      </trkpt>
      <trkpt lat="41.908209" lon="-5.966716">
        <ele>767.908</ele>
        <time>2019-03-04T08:38:04Z</time>
      </trkpt>
      <trkpt lat="41.908265" lon="-5.966731">
        <ele>767.825</ele>
        <time>2019-03-04T08:38:05Z</time>
      </trkpt>
      <trkpt lat="41.908320" lon="-5.966749">
        <ele>767.896</ele>
        <time>2019-03-04T08:38:06Z</time>
      </trkpt>
      <trkpt lat="41.909442" lon="-5.967086">
        <ele>765.517</ele>
        <time>2019-03-04T08:38:24Z</time>
      </trkpt>
      <trkpt lat="41.910498" lon="-5.967407">
        <ele>763.426</ele>
        <time>2019-03-04T08:38:41Z</time>
      </trkpt>
      <trkpt lat="41.910932" lon="-5.967532">
        <ele>762.460</ele>
        <time>2019-03-04T08:38:52Z</time>
      </trkpt>
      <trkpt lat="41.910946" lon="-5.967511">
        <ele>762.423</ele>
        <time>2019-03-04T08:38:53Z</time>
      </trkpt>
      <trkpt lat="41.910951" lon="-5.967481">
        <ele>762.462</ele>
        <time>2019-03-04T08:38:54Z</time>
      </trkpt>
      <trkpt lat="41.910950" lon="-5.967445">
        <ele>762.311</ele>
        <time>2019-03-04T08:38:55Z</time>
      </trkpt>
      <trkpt lat="41.910946" lon="-5.967406">
        <ele>762.359</ele>
        <time>2019-03-04T08:38:56Z</time>
      </trkpt>
      <trkpt lat="41.910942" lon="-5.967365">
        <ele>762.303</ele>
        <time>2019-03-04T08:38:57Z</time>
      </trkpt>
      <trkpt lat="41.910940" lon="-5.967323">
        <ele>762.323</ele>
        <time>2019-03-04T08:38:58Z</time>
      </trkpt>
      <trkpt lat="41.910941" lon="-5.967278">
        <ele>762.308</ele>
        <time>2019-03-04T08:38:59Z</time>
      </trkpt>
      <trkpt lat="41.910959" lon="-5.966302">
        <ele>762.018</ele>
        <time>2019-03-04T08:39:17Z</time>
      </trkpt>
      <trkpt lat="41.910973" lon="-5.965583">
        <ele>764.299</ele>
        <time>2019-03-04T08:39:33Z</time>
      </trkpt>
      <trkpt lat="41.910994" lon="-5.964978">
        <ele>767.050</ele>
        <time>2019-03-04T08:39:52Z</time>
      </trkpt>
      <trkpt lat="41.911018" lon="-5.964401">
        <ele>769.329</ele>
        <time>2019-03-04T08:40:10Z</time>
      </trkpt>
      <trkpt lat="41.911040" lon="-5.963859">
        <ele>770.523</ele>
        <time>2019-03-04T08:40:27Z</time>
      </trkpt>
      <trkpt lat="41.911059" lon="-5.963206">
        <ele>772.136</ele>
        <time>2019-03-04T08:40:45Z</time>
      </trkpt>
      <trkpt lat="41.911085" lon="-5.962641">
        <ele>772.685</ele>
        <time>2019-03-04T08:41:00Z</time>
      </trkpt>
      <trkpt lat="41.911101" lon="-5.961985">
        <ele>773.244</ele>
        <time>2019-03-04T08:41:14Z</time>
      </trkpt>
      <trkpt lat="41.911126" lon="-5.961406">
        <ele>773.234</ele>
        <time>2019-03-04T08:41:26Z</time>
      </trkpt>
      <trkpt lat="41.911138" lon="-5.961353">
        <ele>773.155</ele>
        <time>2019-03-04T08:41:27Z</time>
      </trkpt>
      <trkpt lat="41.911154" lon="-5.961303">
        <ele>773.010</ele>
        <time>2019-03-04T08:41:28Z</time>
      </trkpt>
      <trkpt lat="41.911177" lon="-5.961257">
        <ele>772.908</ele>
        <time>2019-03-04T08:41:29Z</time>
      </trkpt>
      <trkpt lat="41.911200" lon="-5.961214">
        <ele>772.966</ele>
        <time>2019-03-04T08:41:30Z</time>
      </trkpt>
      <trkpt lat="41.911220" lon="-5.961168">
        <ele>772.837</ele>
        <time>2019-03-04T08:41:31Z</time>
      </trkpt>
      <trkpt lat="41.911239" lon="-5.961121">
        <ele>772.728</ele>
        <time>2019-03-04T08:41:32Z</time>
      </trkpt>
      <trkpt lat="41.911436" lon="-5.960536">
        <ele>771.627</ele>
        <time>2019-03-04T08:41:44Z</time>
      </trkpt>
      <trkpt lat="41.911732" lon="-5.959720">
        <ele>769.921</ele>
        <time>2019-03-04T08:41:59Z</time>
      </trkpt>
      <trkpt lat="41.911999" lon="-5.959125">
        <ele>769.994</ele>
        <time>2019-03-04T08:42:14Z</time>
      </trkpt>
      <trkpt lat="41.912039" lon="-5.959111">
        <ele>769.953</ele>
        <time>2019-03-04T08:42:15Z</time>
      </trkpt>
      <trkpt lat="41.912083" lon="-5.959106">
        <ele>769.852</ele>
        <time>2019-03-04T08:42:16Z</time>
      </trkpt>
      <trkpt lat="41.912217" lon="-5.959109">
        <ele>769.775</ele>
        <time>2019-03-04T08:42:19Z</time>
      </trkpt>
      <trkpt lat="41.913059" lon="-5.959286">
        <ele>767.628</ele>
        <time>2019-03-04T08:42:33Z</time>
      </trkpt>
      <trkpt lat="41.913914" lon="-5.959443">
        <ele>763.720</ele>
        <time>2019-03-04T08:42:45Z</time>
      </trkpt>
      <trkpt lat="41.914705" lon="-5.959588">
        <ele>763.808</ele>
        <time>2019-03-04T08:43:01Z</time>
      </trkpt>
      <trkpt lat="41.915863" lon="-5.959823">
        <ele>763.050</ele>
        <time>2019-03-04T08:43:21Z</time>
      </trkpt>
      <trkpt lat="41.916790" lon="-5.960016">
        <ele>759.141</ele>
        <time>2019-03-04T08:43:33Z</time>
      </trkpt>
      <trkpt lat="41.917603" lon="-5.960190">
        <ele>755.492</ele>
        <time>2019-03-04T08:43:45Z</time>
      </trkpt>
      <trkpt lat="41.918790" lon="-5.960332">
        <ele>754.541</ele>
        <time>2019-03-04T08:44:05Z</time>
      </trkpt>
      <trkpt lat="41.919843" lon="-5.960434">
        <ele>751.835</ele>
        <time>2019-03-04T08:44:21Z</time>
      </trkpt>
      <trkpt lat="41.920425" lon="-5.960444">
        <ele>750.348</ele>
        <time>2019-03-04T08:44:30Z</time>
      </trkpt>
      <trkpt lat="41.920970" lon="-5.960404">
        <ele>746.717</ele>
        <time>2019-03-04T08:44:37Z</time>
      </trkpt>
      <trkpt lat="41.921648" lon="-5.960309">
        <ele>744.386</ele>
        <time>2019-03-04T08:44:46Z</time>
      </trkpt>
      <trkpt lat="41.922585" lon="-5.960174">
        <ele>742.865</ele>
        <time>2019-03-04T08:45:02Z</time>
      </trkpt>
      <trkpt lat="41.923221" lon="-5.960080">
        <ele>742.168</ele>
        <time>2019-03-04T08:45:14Z</time>
      </trkpt>
      <trkpt lat="41.923267" lon="-5.960076">
        <ele>742.114</ele>
        <time>2019-03-04T08:45:15Z</time>
      </trkpt>
      <trkpt lat="41.923313" lon="-5.960069">
        <ele>742.008</ele>
        <time>2019-03-04T08:45:16Z</time>
      </trkpt>
      <trkpt lat="41.924303" lon="-5.959930">
        <ele>740.559</ele>
        <time>2019-03-04T08:45:34Z</time>
      </trkpt>
      <trkpt lat="41.925298" lon="-5.959795">
        <ele>739.270</ele>
        <time>2019-03-04T08:45:52Z</time>
      </trkpt>
      <trkpt lat="41.926405" lon="-5.959639">
        <ele>740.011</ele>
        <time>2019-03-04T08:46:12Z</time>
      </trkpt>
      <trkpt lat="41.926846" lon="-5.959593">
        <ele>739.730</ele>
        <time>2019-03-04T08:46:24Z</time>
      </trkpt>
      <trkpt lat="41.926840" lon="-5.959594">
        <ele>739.724</ele>
        <time>2019-03-04T08:46:27Z</time>
      </trkpt>
      <trkpt lat="41.926888" lon="-5.959594">
        <ele>739.637</ele>
        <time>2019-03-04T08:46:32Z</time>
      </trkpt>
      <trkpt lat="41.927243" lon="-5.959586">
        <ele>739.556</ele>
        <time>2019-03-04T08:46:43Z</time>
      </trkpt>
      <trkpt lat="41.927907" lon="-5.959607">
        <ele>738.275</ele>
        <time>2019-03-04T08:46:59Z</time>
      </trkpt>
      <trkpt lat="41.928676" lon="-5.959631">
        <ele>737.412</ele>
        <time>2019-03-04T08:47:15Z</time>
      </trkpt>
      <trkpt lat="41.929201" lon="-5.959646">
        <ele>736.832</ele>
        <time>2019-03-04T08:47:28Z</time>
      </trkpt>
      <trkpt lat="41.929196" lon="-5.959645">
        <ele>736.805</ele>
        <time>2019-03-04T08:47:31Z</time>
      </trkpt>
      <trkpt lat="41.929247" lon="-5.959649">
        <ele>736.708</ele>
        <time>2019-03-04T08:48:09Z</time>
      </trkpt>
      <trkpt lat="41.929515" lon="-5.959476">
        <ele>736.254</ele>
        <time>2019-03-04T08:48:19Z</time>
      </trkpt>
      <trkpt lat="41.929773" lon="-5.958483">
        <ele>736.375</ele>
        <time>2019-03-04T08:48:37Z</time>
      </trkpt>
      <trkpt lat="41.930084" lon="-5.957357">
        <ele>736.066</ele>
        <time>2019-03-04T08:48:54Z</time>
      </trkpt>
      <trkpt lat="41.930378" lon="-5.956319">
        <ele>735.715</ele>
        <time>2019-03-04T08:49:10Z</time>
      </trkpt>
      <trkpt lat="41.930405" lon="-5.956262">
        <ele>735.819</ele>
        <time>2019-03-04T08:49:11Z</time>
      </trkpt>
      <trkpt lat="41.930431" lon="-5.956203">
        <ele>735.852</ele>
        <time>2019-03-04T08:49:12Z</time>
      </trkpt>
      <trkpt lat="41.930451" lon="-5.956138">
        <ele>735.921</ele>
        <time>2019-03-04T08:49:13Z</time>
      </trkpt>
      <trkpt lat="41.930469" lon="-5.956073">
        <ele>736.050</ele>
        <time>2019-03-04T08:49:14Z</time>
      </trkpt>
      <trkpt lat="41.930757" lon="-5.955085">
        <ele>737.087</ele>
        <time>2019-03-04T08:49:30Z</time>
      </trkpt>
      <trkpt lat="41.930773" lon="-5.955071">
        <ele>737.042</ele>
        <time>2019-03-04T08:49:35Z</time>
      </trkpt>
      <trkpt lat="41.930777" lon="-5.955036">
        <ele>737.126</ele>
        <time>2019-03-04T08:50:16Z</time>
      </trkpt>
      <trkpt lat="41.931023" lon="-5.954565">
        <ele>737.508</ele>
        <time>2019-03-04T08:50:28Z</time>
      </trkpt>
      <trkpt lat="41.931270" lon="-5.954232">
        <ele>737.181</ele>
        <time>2019-03-04T08:50:37Z</time>
      </trkpt>
      <trkpt lat="41.931276" lon="-5.954185">
        <ele>737.172</ele>
        <time>2019-03-04T08:50:38Z</time>
      </trkpt>
      <trkpt lat="41.931273" lon="-5.954135">
        <ele>737.163</ele>
        <time>2019-03-04T08:50:39Z</time>
      </trkpt>
      <trkpt lat="41.931328" lon="-5.953496">
        <ele>737.192</ele>
        <time>2019-03-04T08:50:51Z</time>
      </trkpt>
      <trkpt lat="41.931384" lon="-5.952663">
        <ele>737.756</ele>
        <time>2019-03-04T08:51:06Z</time>
      </trkpt>
      <trkpt lat="41.931390" lon="-5.952602">
        <ele>737.749</ele>
        <time>2019-03-04T08:51:07Z</time>
      </trkpt>
      <trkpt lat="41.931410" lon="-5.952422">
        <ele>737.838</ele>
        <time>2019-03-04T08:51:10Z</time>
      </trkpt>
      <trkpt lat="41.931411" lon="-5.952249">
        <ele>737.857</ele>
        <time>2019-03-04T08:51:13Z</time>
      </trkpt>
      <trkpt lat="41.931409" lon="-5.952191">
        <ele>737.998</ele>
        <time>2019-03-04T08:51:14Z</time>
      </trkpt>
      <trkpt lat="41.931425" lon="-5.952024">
        <ele>738.015</ele>
        <time>2019-03-04T08:51:17Z</time>
      </trkpt>
      <trkpt lat="41.931436" lon="-5.951963">
        <ele>738.026</ele>
        <time>2019-03-04T08:51:18Z</time>
      </trkpt>
      <trkpt lat="41.931498" lon="-5.951732">
        <ele>738.008</ele>
        <time>2019-03-04T08:51:22Z</time>
      </trkpt>
      <trkpt lat="41.931522" lon="-5.951689">
        <ele>738.052</ele>
        <time>2019-03-04T08:51:23Z</time>
      </trkpt>
      <trkpt lat="41.931555" lon="-5.951661">
        <ele>738.023</ele>
        <time>2019-03-04T08:51:24Z</time>
      </trkpt>
      <trkpt lat="41.931599" lon="-5.951657">
        <ele>737.944</ele>
        <time>2019-03-04T08:51:25Z</time>
      </trkpt>
      <trkpt lat="41.931645" lon="-5.951653">
        <ele>737.983</ele>
        <time>2019-03-04T08:51:26Z</time>
      </trkpt>
      <trkpt lat="41.931691" lon="-5.951651">
        <ele>737.917</ele>
        <time>2019-03-04T08:51:27Z</time>
      </trkpt>
      <trkpt lat="41.931735" lon="-5.951653">
        <ele>737.950</ele>
        <time>2019-03-04T08:51:28Z</time>
      </trkpt>
      <trkpt lat="41.931824" lon="-5.951659">
        <ele>737.839</ele>
        <time>2019-03-04T08:51:30Z</time>
      </trkpt>
      <trkpt lat="41.931869" lon="-5.951669">
        <ele>737.848</ele>
        <time>2019-03-04T08:51:31Z</time>
      </trkpt>
      <trkpt lat="41.931911" lon="-5.951686">
        <ele>737.897</ele>
        <time>2019-03-04T08:51:32Z</time>
      </trkpt>
      <trkpt lat="41.932189" lon="-5.951826">
        <ele>737.423</ele>
        <time>2019-03-04T08:51:38Z</time>
      </trkpt>
      <trkpt lat="41.932241" lon="-5.951839">
        <ele>737.225</ele>
        <time>2019-03-04T08:51:39Z</time>
      </trkpt>
      <trkpt lat="41.932343" lon="-5.951853">
        <ele>736.908</ele>
        <time>2019-03-04T08:51:41Z</time>
      </trkpt>
      <trkpt lat="41.932772" lon="-5.951903">
        <ele>735.852</ele>
        <time>2019-03-04T08:51:49Z</time>
      </trkpt>
      <trkpt lat="41.932860" lon="-5.951934">
        <ele>735.683</ele>
        <time>2019-03-04T08:51:51Z</time>
      </trkpt>
      <trkpt lat="41.932903" lon="-5.951964">
        <ele>735.584</ele>
        <time>2019-03-04T08:51:52Z</time>
      </trkpt>
      <trkpt lat="41.932942" lon="-5.952000">
        <ele>735.473</ele>
        <time>2019-03-04T08:51:53Z</time>
      </trkpt>
      <trkpt lat="41.932979" lon="-5.952043">
        <ele>735.327</ele>
        <time>2019-03-04T08:51:54Z</time>
      </trkpt>
      <trkpt lat="41.933014" lon="-5.952091">
        <ele>735.220</ele>
        <time>2019-03-04T08:51:55Z</time>
      </trkpt>
      <trkpt lat="41.933052" lon="-5.952136">
        <ele>735.139</ele>
        <time>2019-03-04T08:51:56Z</time>
      </trkpt>
      <trkpt lat="41.933093" lon="-5.952173">
        <ele>735.018</ele>
        <time>2019-03-04T08:51:57Z</time>
      </trkpt>
      <trkpt lat="41.933135" lon="-5.952211">
        <ele>734.972</ele>
        <time>2019-03-04T08:51:58Z</time>
      </trkpt>
      <trkpt lat="41.933601" lon="-5.952711">
        <ele>734.013</ele>
        <time>2019-03-04T08:52:10Z</time>
      </trkpt>
      <trkpt lat="41.934086" lon="-5.953257">
        <ele>733.214</ele>
        <time>2019-03-04T08:52:26Z</time>
      </trkpt>
      <trkpt lat="41.934457" lon="-5.953641">
        <ele>732.908</ele>
        <time>2019-03-04T08:52:40Z</time>
      </trkpt>
      <trkpt lat="41.934661" lon="-5.953798">
        <ele>732.990</ele>
        <time>2019-03-04T08:52:52Z</time>
      </trkpt>
      <trkpt lat="41.934661" lon="-5.953800">
        <ele>732.951</ele>
        <time>2019-03-04T08:52:54Z</time>
      </trkpt>
      <trkpt lat="41.934695" lon="-5.953766">
        <ele>732.952</ele>
        <time>2019-03-04T08:53:16Z</time>
      </trkpt>
      <trkpt lat="41.934702" lon="-5.953763">
        <ele>732.911</ele>
        <time>2019-03-04T08:53:21Z</time>
      </trkpt>
      <trkpt lat="41.934743" lon="-5.953785">
        <ele>732.925</ele>
        <time>2019-03-04T08:53:41Z</time>
      </trkpt>
      <trkpt lat="41.934763" lon="-5.953795">
        <ele>732.998</ele>
        <time>2019-03-04T08:53:42Z</time>
      </trkpt>
      <trkpt lat="41.934787" lon="-5.953806">
        <ele>732.997</ele>
        <time>2019-03-04T08:53:43Z</time>
      </trkpt>
      <trkpt lat="41.934812" lon="-5.953817">
        <ele>732.976</ele>
        <time>2019-03-04T08:53:44Z</time>
      </trkpt>
      <trkpt lat="41.934841" lon="-5.953832">
        <ele>732.934</ele>
        <time>2019-03-04T08:53:45Z</time>
      </trkpt>
      <trkpt lat="41.934876" lon="-5.953848">
        <ele>732.955</ele>
        <time>2019-03-04T08:53:46Z</time>
      </trkpt>
      <trkpt lat="41.934915" lon="-5.953868">
        <ele>732.910</ele>
        <time>2019-03-04T08:53:47Z</time>
      </trkpt>
      <trkpt lat="41.935009" lon="-5.953907">
        <ele>732.908</ele>
        <time>2019-03-04T08:53:49Z</time>
      </trkpt>
      <trkpt lat="41.935110" lon="-5.953945">
        <ele>732.956</ele>
        <time>2019-03-04T08:53:51Z</time>
      </trkpt>
      <trkpt lat="41.935159" lon="-5.953974">
        <ele>733.067</ele>
        <time>2019-03-04T08:53:52Z</time>
      </trkpt>
      <trkpt lat="41.935204" lon="-5.954009">
        <ele>733.058</ele>
        <time>2019-03-04T08:53:53Z</time>
      </trkpt>
      <trkpt lat="41.935327" lon="-5.954131">
        <ele>733.137</ele>
        <time>2019-03-04T08:53:56Z</time>
      </trkpt>
      <trkpt lat="41.935363" lon="-5.954179">
        <ele>733.121</ele>
        <time>2019-03-04T08:53:57Z</time>
      </trkpt>
      <trkpt lat="41.935401" lon="-5.954223">
        <ele>733.264</ele>
        <time>2019-03-04T08:53:58Z</time>
      </trkpt>
      <trkpt lat="41.935436" lon="-5.954262">
        <ele>733.223</ele>
        <time>2019-03-04T08:53:59Z</time>
      </trkpt>
      <trkpt lat="41.935469" lon="-5.954306">
        <ele>733.392</ele>
        <time>2019-03-04T08:54:00Z</time>
      </trkpt>
      <trkpt lat="41.935500" lon="-5.954355">
        <ele>733.367</ele>
        <time>2019-03-04T08:54:01Z</time>
      </trkpt>
      <trkpt lat="41.935530" lon="-5.954404">
        <ele>733.481</ele>
        <time>2019-03-04T08:54:02Z</time>
      </trkpt>
      <trkpt lat="41.935559" lon="-5.954450">
        <ele>733.419</ele>
        <time>2019-03-04T08:54:03Z</time>
      </trkpt>
      <trkpt lat="41.935593" lon="-5.954493">
        <ele>733.508</ele>
        <time>2019-03-04T08:54:04Z</time>
      </trkpt>
      <trkpt lat="41.935629" lon="-5.954536">
        <ele>733.599</ele>
        <time>2019-03-04T08:54:05Z</time>
      </trkpt>
      <trkpt lat="41.935665" lon="-5.954581">
        <ele>733.630</ele>
        <time>2019-03-04T08:54:06Z</time>
      </trkpt>
      <trkpt lat="41.935703" lon="-5.954625">
        <ele>733.711</ele>
        <time>2019-03-04T08:54:07Z</time>
      </trkpt>
      <trkpt lat="41.935744" lon="-5.954664">
        <ele>733.750</ele>
        <time>2019-03-04T08:54:08Z</time>
      </trkpt>
      <trkpt lat="41.935787" lon="-5.954698">
        <ele>733.824</ele>
        <time>2019-03-04T08:54:09Z</time>
      </trkpt>
      <trkpt lat="41.935831" lon="-5.954728">
        <ele>733.937</ele>
        <time>2019-03-04T08:54:10Z</time>
      </trkpt>
      <trkpt lat="41.935875" lon="-5.954753">
        <ele>734.086</ele>
        <time>2019-03-04T08:54:11Z</time>
      </trkpt>
      <trkpt lat="41.936668" lon="-5.955399">
        <ele>735.965</ele>
        <time>2019-03-04T08:54:30Z</time>
      </trkpt>
      <trkpt lat="41.936743" lon="-5.955477">
        <ele>736.277</ele>
        <time>2019-03-04T08:54:32Z</time>
      </trkpt>
      <trkpt lat="41.936775" lon="-5.955519">
        <ele>736.461</ele>
        <time>2019-03-04T08:54:33Z</time>
      </trkpt>
      <trkpt lat="41.936804" lon="-5.955568">
        <ele>736.427</ele>
        <time>2019-03-04T08:54:34Z</time>
      </trkpt>
      <trkpt lat="41.936826" lon="-5.955621">
        <ele>736.508</ele>
        <time>2019-03-04T08:54:35Z</time>
      </trkpt>
      <trkpt lat="41.936837" lon="-5.955678">
        <ele>736.660</ele>
        <time>2019-03-04T08:54:36Z</time>
      </trkpt>
      <trkpt lat="41.936839" lon="-5.955741">
        <ele>736.771</ele>
        <time>2019-03-04T08:54:37Z</time>
      </trkpt>
      <trkpt lat="41.936834" lon="-5.955804">
        <ele>736.832</ele>
        <time>2019-03-04T08:54:38Z</time>
      </trkpt>
      <trkpt lat="41.936829" lon="-5.955867">
        <ele>736.961</ele>
        <time>2019-03-04T08:54:39Z</time>
      </trkpt>
      <trkpt lat="41.936789" lon="-5.956244">
        <ele>737.225</ele>
        <time>2019-03-04T08:54:50Z</time>
      </trkpt>
      <trkpt lat="41.936776" lon="-5.956296">
        <ele>737.398</ele>
        <time>2019-03-04T08:55:02Z</time>
      </trkpt>
      <trkpt lat="41.936749" lon="-5.956829">
        <ele>738.087</ele>
        <time>2019-03-04T08:55:15Z</time>
      </trkpt>
      <trkpt lat="41.936751" lon="-5.956883">
        <ele>738.166</ele>
        <time>2019-03-04T08:55:21Z</time>
      </trkpt>
      <trkpt lat="41.936739" lon="-5.956946">
        <ele>738.231</ele>
        <time>2019-03-04T08:55:37Z</time>
      </trkpt>
      <trkpt lat="41.936693" lon="-5.957545">
        <ele>739.161</ele>
        <time>2019-03-04T08:55:51Z</time>
      </trkpt>
      <trkpt lat="41.936616" lon="-5.958571">
        <ele>740.407</ele>
        <time>2019-03-04T08:56:11Z</time>
      </trkpt>
      <trkpt lat="41.936663" lon="-5.958828">
        <ele>740.708</ele>
        <time>2019-03-04T08:56:17Z</time>
      </trkpt>
      <trkpt lat="41.936690" lon="-5.958848">
        <ele>740.736</ele>
        <time>2019-03-04T08:56:18Z</time>
      </trkpt>
      <trkpt lat="41.936967" lon="-5.959019">
        <ele>741.067</ele>
        <time>2019-03-04T08:56:30Z</time>
      </trkpt>
      <trkpt lat="41.936969" lon="-5.959018">
        <ele>741.068</ele>
        <time>2019-03-04T08:56:32Z</time>
      </trkpt>
      <trkpt lat="41.937021" lon="-5.959019">
        <ele>741.077</ele>
        <time>2019-03-04T08:57:13Z</time>
      </trkpt>
      <trkpt lat="41.937377" lon="-5.959216">
        <ele>741.211</ele>
        <time>2019-03-04T08:57:25Z</time>
      </trkpt>
      <trkpt lat="41.937799" lon="-5.959494">
        <ele>741.224</ele>
        <time>2019-03-04T08:57:37Z</time>
      </trkpt>
      <trkpt lat="41.938348" lon="-5.959834">
        <ele>741.573</ele>
        <time>2019-03-04T08:57:52Z</time>
      </trkpt>
      <trkpt lat="41.938680" lon="-5.960215">
        <ele>742.562</ele>
        <time>2019-03-04T08:58:06Z</time>
      </trkpt>
      <trkpt lat="41.938710" lon="-5.960968">
        <ele>742.914</ele>
        <time>2019-03-04T08:58:22Z</time>
      </trkpt>
      <trkpt lat="41.938821" lon="-5.961676">
        <ele>743.454</ele>
        <time>2019-03-04T08:58:39Z</time>
      </trkpt>
      <trkpt lat="41.939233" lon="-5.961889">
        <ele>745.209</ele>
        <time>2019-03-04T08:58:54Z</time>
      </trkpt>
      <trkpt lat="41.939764" lon="-5.962180">
        <ele>747.408</ele>
        <time>2019-03-04T08:59:15Z</time>
      </trkpt>
      <trkpt lat="41.940236" lon="-5.962467">
        <ele>749.674</ele>
        <time>2019-03-04T08:59:36Z</time>
      </trkpt>
      <trkpt lat="41.940681" lon="-5.962592">
        <ele>752.095</ele>
        <time>2019-03-04T08:59:55Z</time>
      </trkpt>
      <trkpt lat="41.941011" lon="-5.962716">
        <ele>754.146</ele>
        <time>2019-03-04T09:00:14Z</time>
      </trkpt>
      <trkpt lat="41.941250" lon="-5.962918">
        <ele>756.255</ele>
        <time>2019-03-04T09:00:32Z</time>
      </trkpt>
      <trkpt lat="41.941503" lon="-5.963111">
        <ele>758.879</ele>
        <time>2019-03-04T09:00:50Z</time>
      </trkpt>
      <trkpt lat="41.941768" lon="-5.963357">
        <ele>761.182</ele>
        <time>2019-03-04T09:01:11Z</time>
      </trkpt>
      <trkpt lat="41.941986" lon="-5.963651">
        <ele>763.851</ele>
        <time>2019-03-04T09:01:30Z</time>
      </trkpt>
      <trkpt lat="41.942208" lon="-5.964012">
        <ele>766.670</ele>
        <time>2019-03-04T09:01:50Z</time>
      </trkpt>
      <trkpt lat="41.942300" lon="-5.964418">
        <ele>769.685</ele>
        <time>2019-03-04T09:02:09Z</time>
      </trkpt>
      <trkpt lat="41.942303" lon="-5.964653">
        <ele>771.589</ele>
        <time>2019-03-04T09:02:20Z</time>
      </trkpt>
      <trkpt lat="41.942280" lon="-5.964938">
        <ele>774.017</ele>
        <time>2019-03-04T09:02:36Z</time>
      </trkpt>
      <trkpt lat="41.942263" lon="-5.965197">
        <ele>776.808</ele>
        <time>2019-03-04T09:02:51Z</time>
      </trkpt>
      <trkpt lat="41.942237" lon="-5.965484">
        <ele>779.721</ele>
        <time>2019-03-04T09:03:07Z</time>
      </trkpt>
      <trkpt lat="41.942211" lon="-5.965762">
        <ele>782.212</ele>
        <time>2019-03-04T09:03:24Z</time>
      </trkpt>
      <trkpt lat="41.942149" lon="-5.966048">
        <ele>785.033</ele>
        <time>2019-03-04T09:03:41Z</time>
      </trkpt>
      <trkpt lat="41.942147" lon="-5.966162">
        <ele>785.822</ele>
        <time>2019-03-04T09:03:47Z</time>
      </trkpt>
      <trkpt lat="41.942155" lon="-5.966181">
        <ele>785.966</ele>
        <time>2019-03-04T09:03:48Z</time>
      </trkpt>
      <trkpt lat="41.942166" lon="-5.966200">
        <ele>786.139</ele>
        <time>2019-03-04T09:03:49Z</time>
      </trkpt>
      <trkpt lat="41.942236" lon="-5.966240">
        <ele>786.978</ele>
        <time>2019-03-04T09:03:50Z</time>
      </trkpt>
      <trkpt lat="41.942296" lon="-5.966261">
        <ele>787.387</ele>
        <time>2019-03-04T09:03:51Z</time>
      </trkpt>
      <trkpt lat="41.942357" lon="-5.966283">
        <ele>787.697</ele>
        <time>2019-03-04T09:04:05Z</time>
      </trkpt>
      <trkpt lat="41.942417" lon="-5.966305">
        <ele>788.023</ele>
        <time>2019-03-04T09:04:13Z</time>
      </trkpt>
      <trkpt lat="41.942477" lon="-5.966326">
        <ele>788.325</ele>
        <time>2019-03-04T09:08:32Z</time>
      </trkpt>
      <trkpt lat="41.942537" lon="-5.966348">
        <ele>788.708</ele>
        <time>2019-03-04T09:08:33Z</time>
      </trkpt>
      <trkpt lat="41.942462" lon="-5.966279">
        <ele>789.172</ele>
        <time>2019-03-04T09:08:47Z</time>
      </trkpt>
      <trkpt lat="41.942460" lon="-5.966285">
        <ele>789.243</ele>
        <time>2019-03-04T09:08:51Z</time>
      </trkpt>
      <trkpt lat="41.942603" lon="-5.966232">
        <ele>789.634</ele>
        <time>2019-03-04T09:09:03Z</time>
      </trkpt>
      <trkpt lat="41.943013" lon="-5.966140">
        <ele>790.213</ele>
        <time>2019-03-04T09:09:18Z</time>
      </trkpt>
      <trkpt lat="41.943468" lon="-5.966303">
        <ele>790.617</ele>
        <time>2019-03-04T09:09:31Z</time>
      </trkpt>
      <trkpt lat="41.944172" lon="-5.966732">
        <ele>790.760</ele>
        <time>2019-03-04T09:09:47Z</time>
      </trkpt>
      <trkpt lat="41.944262" lon="-5.966785">
        <ele>790.899</ele>
        <time>2019-03-04T09:09:49Z</time>
      </trkpt>
      <trkpt lat="41.944307" lon="-5.966816">
        <ele>790.878</ele>
        <time>2019-03-04T09:09:50Z</time>
      </trkpt>
      <trkpt lat="41.944931" lon="-5.967224">
        <ele>791.517</ele>
        <time>2019-03-04T09:10:06Z</time>
      </trkpt>
      <trkpt lat="41.945572" lon="-5.967629">
        <ele>792.187</ele>
        <time>2019-03-04T09:10:23Z</time>
      </trkpt>
      <trkpt lat="41.945686" lon="-5.967709">
        <ele>792.215</ele>
        <time>2019-03-04T09:10:26Z</time>
      </trkpt>
      <trkpt lat="41.945728" lon="-5.967730">
        <ele>792.208</ele>
        <time>2019-03-04T09:10:27Z</time>
      </trkpt>
      <trkpt lat="41.945772" lon="-5.967749">
        <ele>792.244</ele>
        <time>2019-03-04T09:10:28Z</time>
      </trkpt>
      <trkpt lat="41.945812" lon="-5.967774">
        <ele>792.255</ele>
        <time>2019-03-04T09:10:29Z</time>
      </trkpt>
      <trkpt lat="41.945850" lon="-5.967805">
        <ele>792.276</ele>
        <time>2019-03-04T09:10:30Z</time>
      </trkpt>
      <trkpt lat="41.946508" lon="-5.968200">
        <ele>791.955</ele>
        <time>2019-03-04T09:10:44Z</time>
      </trkpt>
      <trkpt lat="41.947413" lon="-5.968550">
        <ele>791.539</ele>
        <time>2019-03-04T09:11:01Z</time>
      </trkpt>
      <trkpt lat="41.948256" lon="-5.968935">
        <ele>791.352</ele>
        <time>2019-03-04T09:11:17Z</time>
      </trkpt>
      <trkpt lat="41.948405" lon="-5.969000">
        <ele>791.381</ele>
        <time>2019-03-04T09:11:20Z</time>
      </trkpt>
      <trkpt lat="41.949134" lon="-5.969337">
        <ele>791.420</ele>
        <time>2019-03-04T09:11:36Z</time>
      </trkpt>
      <trkpt lat="41.949678" lon="-5.969697">
        <ele>791.739</ele>
        <time>2019-03-04T09:11:49Z</time>
      </trkpt>
      <trkpt lat="41.949857" lon="-5.969851">
        <ele>791.801</ele>
        <time>2019-03-04T09:11:54Z</time>
      </trkpt>
      <trkpt lat="41.949890" lon="-5.969889">
        <ele>791.821</ele>
        <time>2019-03-04T09:11:55Z</time>
      </trkpt>
      <trkpt lat="41.950180" lon="-5.970158">
        <ele>792.108</ele>
        <time>2019-03-04T09:12:03Z</time>
      </trkpt>
      <trkpt lat="41.950227" lon="-5.970179">
        <ele>792.166</ele>
        <time>2019-03-04T09:12:04Z</time>
      </trkpt>
      <trkpt lat="41.950275" lon="-5.970194">
        <ele>792.187</ele>
        <time>2019-03-04T09:12:05Z</time>
      </trkpt>
      <trkpt lat="41.951140" lon="-5.970257">
        <ele>792.468</ele>
        <time>2019-03-04T09:12:22Z</time>
      </trkpt>
      <trkpt lat="41.952182" lon="-5.970318">
        <ele>792.367</ele>
        <time>2019-03-04T09:12:41Z</time>
      </trkpt>
      <trkpt lat="41.952939" lon="-5.970378">
        <ele>792.051</ele>
        <time>2019-03-04T09:12:55Z</time>
      </trkpt>
      <trkpt lat="41.953786" lon="-5.970442">
        <ele>790.924</ele>
        <time>2019-03-04T09:13:09Z</time>
      </trkpt>
      <trkpt lat="41.954627" lon="-5.970546">
        <ele>789.173</ele>
        <time>2019-03-04T09:13:24Z</time>
      </trkpt>
      <trkpt lat="41.955495" lon="-5.970821">
        <ele>786.882</ele>
        <time>2019-03-04T09:13:37Z</time>
      </trkpt>
      <trkpt lat="41.956558" lon="-5.971156">
        <ele>785.343</ele>
        <time>2019-03-04T09:13:54Z</time>
      </trkpt>
      <trkpt lat="41.957331" lon="-5.971074">
        <ele>784.364</ele>
        <time>2019-03-04T09:14:07Z</time>
      </trkpt>
      <trkpt lat="41.957450" lon="-5.971047">
        <ele>784.010</ele>
        <time>2019-03-04T09:14:09Z</time>
      </trkpt>
      <trkpt lat="41.958509" lon="-5.970636">
        <ele>776.908</ele>
        <time>2019-03-04T09:14:24Z</time>
      </trkpt>
      <trkpt lat="41.959068" lon="-5.970418">
        <ele>774.447</ele>
        <time>2019-03-04T09:14:30Z</time>
      </trkpt>
      <trkpt lat="41.959163" lon="-5.970405">
        <ele>774.098</ele>
        <time>2019-03-04T09:14:31Z</time>
      </trkpt>
      <trkpt lat="41.959257" lon="-5.970409">
        <ele>773.759</ele>
        <time>2019-03-04T09:14:32Z</time>
      </trkpt>
      <trkpt lat="41.959347" lon="-5.970426">
        <ele>773.588</ele>
        <time>2019-03-04T09:14:33Z</time>
      </trkpt>
      <trkpt lat="41.960415" lon="-5.970708">
        <ele>768.762</ele>
        <time>2019-03-04T09:14:45Z</time>
      </trkpt>
      <trkpt lat="41.961168" lon="-5.970883">
        <ele>765.495</ele>
        <time>2019-03-04T09:14:53Z</time>
      </trkpt>
      <trkpt lat="41.961958" lon="-5.971194">
        <ele>762.354</ele>
        <time>2019-03-04T09:15:02Z</time>
      </trkpt>
      <trkpt lat="41.962857" lon="-5.971589">
        <ele>760.843</ele>
        <time>2019-03-04T09:15:14Z</time>
      </trkpt>
      <trkpt lat="41.963215" lon="-5.971679">
        <ele>760.485</ele>
        <time>2019-03-04T09:15:19Z</time>
      </trkpt>
      <trkpt lat="41.964144" lon="-5.971938">
        <ele>759.589</ele>
        <time>2019-03-04T09:15:34Z</time>
      </trkpt>
      <trkpt lat="41.965218" lon="-5.972229">
        <ele>759.017</ele>
        <time>2019-03-04T09:15:53Z</time>
      </trkpt>
      <trkpt lat="41.966060" lon="-5.972428">
        <ele>758.308</ele>
        <time>2019-03-04T09:16:09Z</time>
      </trkpt>
      <trkpt lat="41.967142" lon="-5.972690">
        <ele>757.841</ele>
        <time>2019-03-04T09:16:29Z</time>
      </trkpt>
      <trkpt lat="41.968176" lon="-5.972938">
        <ele>756.992</ele>
        <time>2019-03-04T09:16:47Z</time>
      </trkpt>
      <trkpt lat="41.968540" lon="-5.973025">
        <ele>755.623</ele>
        <time>2019-03-04T09:16:54Z</time>
      </trkpt>
      <trkpt lat="41.968582" lon="-5.973043">
        <ele>755.372</ele>
        <time>2019-03-04T09:16:55Z</time>
      </trkpt>
      <trkpt lat="41.968665" lon="-5.973080">
        <ele>754.986</ele>
        <time>2019-03-04T09:17:03Z</time>
      </trkpt>
      <trkpt lat="41.968659" lon="-5.973080">
        <ele>754.839</ele>
        <time>2019-03-04T09:17:07Z</time>
      </trkpt>
      <trkpt lat="41.968719" lon="-5.973079">
        <ele>754.578</ele>
        <time>2019-03-04T09:17:48Z</time>
      </trkpt>
      <trkpt lat="41.969206" lon="-5.973178">
        <ele>750.947</ele>
        <time>2019-03-04T09:17:57Z</time>
      </trkpt>
      <trkpt lat="41.969686" lon="-5.973289">
        <ele>747.217</ele>
        <time>2019-03-04T09:18:05Z</time>
      </trkpt>
      <trkpt lat="41.970235" lon="-5.973474">
        <ele>743.087</ele>
        <time>2019-03-04T09:18:13Z</time>
      </trkpt>
      <trkpt lat="41.970510" lon="-5.973514">
        <ele>740.515</ele>
        <time>2019-03-04T09:18:18Z</time>
      </trkpt>
      <trkpt lat="41.970946" lon="-5.973488">
        <ele>735.808</ele>
        <time>2019-03-04T09:18:25Z</time>
      </trkpt>
      <trkpt lat="41.971346" lon="-5.973485">
        <ele>732.434</ele>
        <time>2019-03-04T09:18:31Z</time>
      </trkpt>
      <trkpt lat="41.971586" lon="-5.973532">
        <ele>730.795</ele>
        <time>2019-03-04T09:18:36Z</time>
      </trkpt>
      <trkpt lat="41.971630" lon="-5.973536">
        <ele>730.546</ele>
        <time>2019-03-04T09:18:37Z</time>
      </trkpt>
      <trkpt lat="41.972139" lon="-5.973584">
        <ele>728.795</ele>
        <time>2019-03-04T09:18:45Z</time>
      </trkpt>
      <trkpt lat="41.972968" lon="-5.973847">
        <ele>726.989</ele>
        <time>2019-03-04T09:19:00Z</time>
      </trkpt>
      <trkpt lat="41.973763" lon="-5.974081">
        <ele>726.342</ele>
        <time>2019-03-04T09:19:16Z</time>
      </trkpt>
      <trkpt lat="41.974827" lon="-5.974609">
        <ele>725.111</ele>
        <time>2019-03-04T09:19:36Z</time>
      </trkpt>
      <trkpt lat="41.975915" lon="-5.975198">
        <ele>725.470</ele>
        <time>2019-03-04T09:19:56Z</time>
      </trkpt>
      <trkpt lat="41.977326" lon="-5.976023">
        <ele>725.372</ele>
        <time>2019-03-04T09:20:22Z</time>
      </trkpt>
      <trkpt lat="41.977998" lon="-5.976419">
        <ele>725.413</ele>
        <time>2019-03-04T09:20:36Z</time>
      </trkpt>
      <trkpt lat="41.978047" lon="-5.976434">
        <ele>725.414</ele>
        <time>2019-03-04T09:20:37Z</time>
      </trkpt>
      <trkpt lat="41.979091" lon="-5.976508">
        <ele>725.408</ele>
        <time>2019-03-04T09:20:56Z</time>
      </trkpt>
      <trkpt lat="41.979305" lon="-5.976566">
        <ele>725.320</ele>
        <time>2019-03-04T09:21:00Z</time>
      </trkpt>
      <trkpt lat="41.980247" lon="-5.976976">
        <ele>725.411</ele>
        <time>2019-03-04T09:21:18Z</time>
      </trkpt>
      <trkpt lat="41.980959" lon="-5.977285">
        <ele>726.242</ele>
        <time>2019-03-04T09:21:32Z</time>
      </trkpt>
      <trkpt lat="41.981004" lon="-5.977296">
        <ele>726.371</ele>
        <time>2019-03-04T09:21:33Z</time>
      </trkpt>
      <trkpt lat="41.981048" lon="-5.977307">
        <ele>726.365</ele>
        <time>2019-03-04T09:21:34Z</time>
      </trkpt>
      <trkpt lat="41.981093" lon="-5.977318">
        <ele>726.428</ele>
        <time>2019-03-04T09:21:35Z</time>
      </trkpt>
      <trkpt lat="41.981138" lon="-5.977321">
        <ele>726.537</ele>
        <time>2019-03-04T09:21:36Z</time>
      </trkpt>
      <trkpt lat="41.981183" lon="-5.977324">
        <ele>726.536</ele>
        <time>2019-03-04T09:21:37Z</time>
      </trkpt>
      <trkpt lat="41.981230" lon="-5.977332">
        <ele>726.674</ele>
        <time>2019-03-04T09:21:38Z</time>
      </trkpt>
      <trkpt lat="41.981512" lon="-5.977428">
        <ele>727.056</ele>
        <time>2019-03-04T09:21:44Z</time>
      </trkpt>
      <trkpt lat="41.982324" lon="-5.977813">
        <ele>727.421</ele>
        <time>2019-03-04T09:21:59Z</time>
      </trkpt>
      <trkpt lat="41.982384" lon="-5.977817">
        <ele>727.508</ele>
        <time>2019-03-04T09:22:00Z</time>
      </trkpt>
      <trkpt lat="41.982444" lon="-5.977812">
        <ele>727.510</ele>
        <time>2019-03-04T09:22:01Z</time>
      </trkpt>
      <trkpt lat="41.982502" lon="-5.977806">
        <ele>727.531</ele>
        <time>2019-03-04T09:22:02Z</time>
      </trkpt>
      <trkpt lat="41.983133" lon="-5.977682">
        <ele>727.412</ele>
        <time>2019-03-04T09:22:13Z</time>
      </trkpt>
      <trkpt lat="41.983562" lon="-5.977699">
        <ele>726.511</ele>
        <time>2019-03-04T09:22:21Z</time>
      </trkpt>
      <trkpt lat="41.983608" lon="-5.977677">
        <ele>726.425</ele>
        <time>2019-03-04T09:22:22Z</time>
      </trkpt>
      <trkpt lat="41.983653" lon="-5.977636">
        <ele>726.218</ele>
        <time>2019-03-04T09:22:23Z</time>
      </trkpt>
      <trkpt lat="41.983695" lon="-5.977583">
        <ele>726.097</ele>
        <time>2019-03-04T09:22:24Z</time>
      </trkpt>
      <trkpt lat="41.983733" lon="-5.977524">
        <ele>725.876</ele>
        <time>2019-03-04T09:22:25Z</time>
      </trkpt>
      <trkpt lat="41.983771" lon="-5.977464">
        <ele>725.653</ele>
        <time>2019-03-04T09:22:26Z</time>
      </trkpt>
      <trkpt lat="41.983998" lon="-5.977088">
        <ele>724.904</ele>
        <time>2019-03-04T09:22:32Z</time>
      </trkpt>
      <trkpt lat="41.984018" lon="-5.977037">
        <ele>724.914</ele>
        <time>2019-03-04T09:22:33Z</time>
      </trkpt>
      <trkpt lat="41.984039" lon="-5.976983">
        <ele>725.008</ele>
        <time>2019-03-04T09:22:35Z</time>
      </trkpt>
      <trkpt lat="41.984045" lon="-5.977000">
        <ele>725.058</ele>
        <time>2019-03-04T09:22:41Z</time>
      </trkpt>
      <trkpt lat="41.984085" lon="-5.976991">
        <ele>725.019</ele>
        <time>2019-03-04T09:23:07Z</time>
      </trkpt>
      <trkpt lat="41.984100" lon="-5.976968">
        <ele>725.090</ele>
        <time>2019-03-04T09:23:08Z</time>
      </trkpt>
      <trkpt lat="41.984115" lon="-5.976940">
        <ele>725.059</ele>
        <time>2019-03-04T09:23:09Z</time>
      </trkpt>
      <trkpt lat="41.984370" lon="-5.976491">
        <ele>725.333</ele>
        <time>2019-03-04T09:23:20Z</time>
      </trkpt>
      <trkpt lat="41.984678" lon="-5.976020">
        <ele>725.646</ele>
        <time>2019-03-04T09:23:30Z</time>
      </trkpt>
      <trkpt lat="41.984725" lon="-5.975986">
        <ele>725.645</ele>
        <time>2019-03-04T09:23:31Z</time>
      </trkpt>
      <trkpt lat="41.984775" lon="-5.975959">
        <ele>725.644</ele>
        <time>2019-03-04T09:23:32Z</time>
      </trkpt>
      <trkpt lat="41.984828" lon="-5.975937">
        <ele>725.768</ele>
        <time>2019-03-04T09:23:33Z</time>
      </trkpt>
      <trkpt lat="41.984880" lon="-5.975921">
        <ele>725.742</ele>
        <time>2019-03-04T09:23:34Z</time>
      </trkpt>
      <trkpt lat="41.984934" lon="-5.975910">
        <ele>725.826</ele>
        <time>2019-03-04T09:23:35Z</time>
      </trkpt>
      <trkpt lat="41.985484" lon="-5.975862">
        <ele>725.208</ele>
        <time>2019-03-04T09:23:45Z</time>
      </trkpt>
      <trkpt lat="41.985866" lon="-5.975922">
        <ele>724.859</ele>
        <time>2019-03-04T09:23:53Z</time>
      </trkpt>
      <trkpt lat="41.986358" lon="-5.976086">
        <ele>724.290</ele>
        <time>2019-03-04T09:24:06Z</time>
      </trkpt>
      <trkpt lat="41.986476" lon="-5.976098">
        <ele>724.031</ele>
        <time>2019-03-04T09:24:09Z</time>
      </trkpt>
      <trkpt lat="41.986654" lon="-5.976091">
        <ele>723.980</ele>
        <time>2019-03-04T09:24:13Z</time>
      </trkpt>
      <trkpt lat="41.986740" lon="-5.976068">
        <ele>724.064</ele>
        <time>2019-03-04T09:24:15Z</time>
      </trkpt>
      <trkpt lat="41.986785" lon="-5.976045">
        <ele>724.027</ele>
        <time>2019-03-04T09:24:16Z</time>
      </trkpt>
      <trkpt lat="41.986962" lon="-5.975924">
        <ele>724.346</ele>
        <time>2019-03-04T09:24:20Z</time>
      </trkpt>
      <trkpt lat="41.987004" lon="-5.975882">
        <ele>724.475</ele>
        <time>2019-03-04T09:24:21Z</time>
      </trkpt>
      <trkpt lat="41.987042" lon="-5.975834">
        <ele>724.594</ele>
        <time>2019-03-04T09:24:22Z</time>
      </trkpt>
      <trkpt lat="41.987076" lon="-5.975779">
        <ele>724.657</ele>
        <time>2019-03-04T09:24:23Z</time>
      </trkpt>
      <trkpt lat="41.987108" lon="-5.975721">
        <ele>724.622</ele>
        <time>2019-03-04T09:24:24Z</time>
      </trkpt>
      <trkpt lat="41.987480" lon="-5.974817">
        <ele>724.908</ele>
        <time>2019-03-04T09:24:37Z</time>
      </trkpt>
      <trkpt lat="41.987636" lon="-5.974508">
        <ele>724.762</ele>
        <time>2019-03-04T09:24:42Z</time>
      </trkpt>
      <trkpt lat="41.987676" lon="-5.974454">
        <ele>724.763</ele>
        <time>2019-03-04T09:24:43Z</time>
      </trkpt>
      <trkpt lat="41.988367" lon="-5.973657">
        <ele>724.754</ele>
        <time>2019-03-04T09:24:59Z</time>
      </trkpt>
      <trkpt lat="41.988618" lon="-5.973369">
        <ele>724.653</ele>
        <time>2019-03-04T09:25:05Z</time>
      </trkpt>
      <trkpt lat="41.988649" lon="-5.973330">
        <ele>724.537</ele>
        <time>2019-03-04T09:25:06Z</time>
      </trkpt>
      <trkpt lat="41.988675" lon="-5.973309">
        <ele>724.570</ele>
        <time>2019-03-04T09:25:07Z</time>
      </trkpt>
      <trkpt lat="41.988692" lon="-5.973320">
        <ele>724.539</ele>
        <time>2019-03-04T09:25:08Z</time>
      </trkpt>
      <trkpt lat="41.988696" lon="-5.973347">
        <ele>724.548</ele>
        <time>2019-03-04T09:25:09Z</time>
      </trkpt>
      <trkpt lat="41.988673" lon="-5.973403">
        <ele>724.546</ele>
        <time>2019-03-04T09:25:11Z</time>
      </trkpt>
      <trkpt lat="41.988674" lon="-5.973435">
        <ele>724.588</ele>
        <time>2019-03-04T09:25:12Z</time>
      </trkpt>
      <trkpt lat="41.988702" lon="-5.973489">
        <ele>724.616</ele>
        <time>2019-03-04T09:25:19Z</time>
      </trkpt>
      <trkpt lat="41.988668" lon="-5.973380">
        <ele>724.608</ele>
        <time>2019-03-04T09:26:00Z</time>
      </trkpt>
      <trkpt lat="41.988675" lon="-5.973347">
        <ele>724.677</ele>
        <time>2019-03-04T09:26:01Z</time>
      </trkpt>
      <trkpt lat="41.988690" lon="-5.973311">
        <ele>724.758</ele>
        <time>2019-03-04T09:26:02Z</time>
      </trkpt>
      <trkpt lat="41.988711" lon="-5.973277">
        <ele>724.799</ele>
        <time>2019-03-04T09:26:03Z</time>
      </trkpt>
      <trkpt lat="41.988737" lon="-5.973245">
        <ele>724.728</ele>
        <time>2019-03-04T09:26:04Z</time>
      </trkpt>
      <trkpt lat="41.988763" lon="-5.973212">
        <ele>724.772</ele>
        <time>2019-03-04T09:26:05Z</time>
      </trkpt>
      <trkpt lat="41.988955" lon="-5.972878">
        <ele>724.645</ele>
        <time>2019-03-04T09:26:13Z</time>
      </trkpt>
      <trkpt lat="41.988975" lon="-5.972824">
        <ele>724.684</ele>
        <time>2019-03-04T09:26:14Z</time>
      </trkpt>
      <trkpt lat="41.989228" lon="-5.972123">
        <ele>724.583</ele>
        <time>2019-03-04T09:26:26Z</time>
      </trkpt>
      <trkpt lat="41.989261" lon="-5.972073">
        <ele>724.453</ele>
        <time>2019-03-04T09:26:27Z</time>
      </trkpt>
      <trkpt lat="41.989297" lon="-5.972029">
        <ele>724.304</ele>
        <time>2019-03-04T09:26:28Z</time>
      </trkpt>
      <trkpt lat="41.989338" lon="-5.971991">
        <ele>724.314</ele>
        <time>2019-03-04T09:26:29Z</time>
      </trkpt>
      <trkpt lat="41.989381" lon="-5.971956">
        <ele>724.208</ele>
        <time>2019-03-04T09:26:30Z</time>
      </trkpt>
      <trkpt lat="41.989425" lon="-5.971929">
        <ele>724.148</ele>
        <time>2019-03-04T09:26:31Z</time>
      </trkpt>
      <trkpt lat="41.989470" lon="-5.971908">
        <ele>724.189</ele>
        <time>2019-03-04T09:26:32Z</time>
      </trkpt>
      <trkpt lat="41.989513" lon="-5.971892">
        <ele>724.060</ele>
        <time>2019-03-04T09:26:33Z</time>
      </trkpt>
      <trkpt lat="41.989557" lon="-5.971880">
        <ele>724.079</ele>
        <time>2019-03-04T09:26:34Z</time>
      </trkpt>
      <trkpt lat="41.989600" lon="-5.971874">
        <ele>723.963</ele>
        <time>2019-03-04T09:26:35Z</time>
      </trkpt>
      <trkpt lat="41.989645" lon="-5.971874">
        <ele>723.816</ele>
        <time>2019-03-04T09:26:36Z</time>
      </trkpt>
      <trkpt lat="41.989689" lon="-5.971878">
        <ele>723.875</ele>
        <time>2019-03-04T09:26:37Z</time>
      </trkpt>
      <trkpt lat="41.989732" lon="-5.971884">
        <ele>723.734</ele>
        <time>2019-03-04T09:26:38Z</time>
      </trkpt>
      <trkpt lat="41.989899" lon="-5.971932">
        <ele>723.167</ele>
        <time>2019-03-04T09:26:47Z</time>
      </trkpt>
      <trkpt lat="41.989968" lon="-5.971943">
        <ele>722.981</ele>
        <time>2019-03-04T09:26:57Z</time>
      </trkpt>
      <trkpt lat="41.990354" lon="-5.972016">
        <ele>722.519</ele>
        <time>2019-03-04T09:27:09Z</time>
      </trkpt>
      <trkpt lat="41.990956" lon="-5.972110">
        <ele>722.608</ele>
        <time>2019-03-04T09:27:24Z</time>
      </trkpt>
      <trkpt lat="41.991021" lon="-5.972116">
        <ele>722.529</ele>
        <time>2019-03-04T09:27:31Z</time>
      </trkpt>
      <trkpt lat="41.991090" lon="-5.972161">
        <ele>722.410</ele>
        <time>2019-03-04T09:27:52Z</time>
      </trkpt>
      <trkpt lat="41.991397" lon="-5.972211">
        <ele>723.421</ele>
        <time>2019-03-04T09:28:04Z</time>
      </trkpt>
      <trkpt lat="41.991409" lon="-5.972215">
        <ele>723.570</ele>
        <time>2019-03-04T09:28:05Z</time>
      </trkpt>
      <trkpt lat="41.991428" lon="-5.972215">
        <ele>723.554</ele>
        <time>2019-03-04T09:28:10Z</time>
      </trkpt>
      <trkpt lat="41.991451" lon="-5.972257">
        <ele>723.557</ele>
        <time>2019-03-04T09:28:46Z</time>
      </trkpt>
      <trkpt lat="41.991415" lon="-5.972277">
        <ele>723.636</ele>
        <time>2019-03-04T09:28:53Z</time>
      </trkpt>
      <trkpt lat="41.991404" lon="-5.972212">
        <ele>723.795</ele>
        <time>2019-03-04T09:29:07Z</time>
      </trkpt>
      <trkpt lat="41.991434" lon="-5.972196">
        <ele>723.729</ele>
        <time>2019-03-04T09:29:13Z</time>
      </trkpt>
      <trkpt lat="41.991492" lon="-5.972219">
        <ele>723.800</ele>
        <time>2019-03-04T09:29:39Z</time>
      </trkpt>
      <trkpt lat="41.991925" lon="-5.972301">
        <ele>724.620</ele>
        <time>2019-03-04T09:29:51Z</time>
      </trkpt>
      <trkpt lat="41.992677" lon="-5.972460">
        <ele>725.808</ele>
        <time>2019-03-04T09:30:06Z</time>
      </trkpt>
      <trkpt lat="41.993440" lon="-5.972605">
        <ele>727.455</ele>
        <time>2019-03-04T09:30:22Z</time>
      </trkpt>
      <trkpt lat="41.993953" lon="-5.972691">
        <ele>728.296</ele>
        <time>2019-03-04T09:30:37Z</time>
      </trkpt>
      <trkpt lat="41.994053" lon="-5.972690">
        <ele>728.667</ele>
        <time>2019-03-04T09:30:46Z</time>
      </trkpt>
      <trkpt lat="41.994120" lon="-5.972741">
        <ele>728.986</ele>
        <time>2019-03-04T09:31:27Z</time>
      </trkpt>
      <trkpt lat="41.994447" lon="-5.972667">
        <ele>731.980</ele>
        <time>2019-03-04T09:31:39Z</time>
      </trkpt>
      <trkpt lat="41.994594" lon="-5.972363">
        <ele>734.363</ele>
        <time>2019-03-04T09:31:50Z</time>
      </trkpt>
      <trkpt lat="41.994698" lon="-5.971789">
        <ele>736.212</ele>
        <time>2019-03-04T09:32:07Z</time>
      </trkpt>
      <trkpt lat="41.994744" lon="-5.971486">
        <ele>736.481</ele>
        <time>2019-03-04T09:32:18Z</time>
      </trkpt>
      <trkpt lat="41.994769" lon="-5.971216">
        <ele>736.145</ele>
        <time>2019-03-04T09:32:27Z</time>
      </trkpt>
      <trkpt lat="41.994813" lon="-5.971117">
        <ele>735.847</ele>
        <time>2019-03-04T09:32:35Z</time>
      </trkpt>
      <trkpt lat="41.994856" lon="-5.971114">
        <ele>735.711</ele>
        <time>2019-03-04T09:32:37Z</time>
      </trkpt>
      <trkpt lat="41.995510" lon="-5.968140">
        <ele>736.071</ele>
        <time>2019-03-25T20:13:45Z</time>
      </trkpt>
      <trkpt lat="41.995970" lon="-5.968220">
        <ele>736.441</ele>
        <time>2019-03-25T20:14:05Z</time>
      </trkpt>
      <trkpt lat="41.996440" lon="-5.968320">
        <ele>737.015</ele>
        <time>2019-03-25T20:14:25Z</time>
      </trkpt>
      <trkpt lat="41.997275" lon="-5.968680">
        <ele>742.208</ele>
        <time>2019-03-25T20:14:45Z</time>
      </trkpt>
      <trkpt lat="41.998110" lon="-5.969040">
        <ele>742.220</ele>
        <time>2019-03-25T20:15:05Z</time>
      </trkpt>
      <trkpt lat="41.998240" lon="-5.969090">
        <ele>742.831</ele>
        <time>2019-03-25T20:15:25Z</time>
      </trkpt>
      <trkpt lat="41.999080" lon="-5.969440">
        <ele>742.892</ele>
        <time>2019-03-25T20:15:45Z</time>
      </trkpt>
      <trkpt lat="41.999280" lon="-5.969580">
        <ele>742.851</ele>
        <time>2019-03-25T20:16:05Z</time>
      </trkpt>
      <trkpt lat="41.999900" lon="-5.970080">
        <ele>752.523</ele>
        <time>2019-03-25T20:16:25Z</time>
      </trkpt>
      <trkpt lat="42.000467" lon="-5.970383">
        <ele>752.591</ele>
        <time>2019-03-25T20:16:45Z</time>
      </trkpt>
      <trkpt lat="42.001033" lon="-5.970687">
        <ele>752.544</ele>
        <time>2019-03-25T20:17:05Z</time>
      </trkpt>
      <trkpt lat="42.001600" lon="-5.970990">
        <ele>752.586</ele>
        <time>2019-03-25T20:17:25Z</time>
      </trkpt>
      <trkpt lat="42.002210" lon="-5.971360">
        <ele>758.869</ele>
        <time>2019-03-25T20:17:45Z</time>
      </trkpt>
      <trkpt lat="42.002820" lon="-5.971730">
        <ele>758.804</ele>
        <time>2019-03-25T20:18:05Z</time>
      </trkpt>
      <trkpt lat="42.003060" lon="-5.971820">
        <ele>759.124</ele>
        <time>2019-03-25T20:18:25Z</time>
      </trkpt>
      <trkpt lat="42.003230" lon="-5.971950">
        <ele>759.808</ele>
        <time>2019-03-25T20:18:45Z</time>
      </trkpt>
      <trkpt lat="42.003830" lon="-5.972570">
        <ele>761.689</ele>
        <time>2019-03-25T20:19:05Z</time>
      </trkpt>
      <trkpt lat="42.003990" lon="-5.972680">
        <ele>762.040</ele>
        <time>2019-03-25T20:19:25Z</time>
      </trkpt>
      <trkpt lat="42.004080" lon="-5.972700">
        <ele>762.591</ele>
        <time>2019-03-25T20:19:45Z</time>
      </trkpt>
      <trkpt lat="42.004600" lon="-5.972725">
        <ele>764.630</ele>
        <time>2019-03-25T20:20:05Z</time>
      </trkpt>
      <trkpt lat="42.005120" lon="-5.972750">
        <ele>767.072</ele>
        <time>2019-03-25T20:20:25Z</time>
      </trkpt>
      <trkpt lat="42.005985" lon="-5.972895">
        <ele>767.640</ele>
        <time>2019-03-25T20:20:45Z</time>
      </trkpt>
      <trkpt lat="42.006850" lon="-5.973040">
        <ele>767.613</ele>
        <time>2019-03-25T20:21:05Z</time>
      </trkpt>
      <trkpt lat="42.007050" lon="-5.973060">
        <ele>767.615</ele>
        <time>2019-03-25T20:21:25Z</time>
      </trkpt>
      <trkpt lat="42.007460" lon="-5.973010">
        <ele>767.663</ele>
        <time>2019-03-25T20:21:45Z</time>
      </trkpt>
      <trkpt lat="42.007650" lon="-5.973010">
        <ele>767.644</ele>
        <time>2019-03-25T20:22:05Z</time>
      </trkpt>
      <trkpt lat="42.008220" lon="-5.973140">
        <ele>767.718</ele>
        <time>2019-03-25T20:22:25Z</time>
      </trkpt>
      <trkpt lat="42.008790" lon="-5.973270">
        <ele>767.708</ele>
        <time>2019-03-25T20:22:45Z</time>
      </trkpt>
      <trkpt lat="42.009110" lon="-5.973320">
        <ele>767.799</ele>
        <time>2019-03-25T20:23:05Z</time>
      </trkpt>
      <trkpt lat="42.009950" lon="-5.973360">
        <ele>767.770</ele>
        <time>2019-03-25T20:23:25Z</time>
      </trkpt>
      <trkpt lat="42.010160" lon="-5.973320">
        <ele>767.711</ele>
        <time>2019-03-25T20:23:45Z</time>
      </trkpt>
      <trkpt lat="42.010560" lon="-5.973140">
        <ele>767.730</ele>
        <time>2019-03-25T20:24:05Z</time>
      </trkpt>
      <trkpt lat="42.010497" lon="-5.973987">
        <ele>767.742</ele>
        <time>2019-03-25T20:24:25Z</time>
      </trkpt>
      <trkpt lat="42.010433" lon="-5.974833">
        <ele>768.140</ele>
        <time>2019-03-25T20:24:45Z</time>
      </trkpt>
      <trkpt lat="42.010370" lon="-5.975680">
        <ele>768.173</ele>
        <time>2019-03-25T20:25:05Z</time>
      </trkpt>
      <trkpt lat="42.010370" lon="-5.975900">
        <ele>768.115</ele>
        <time>2019-03-25T20:25:25Z</time>
      </trkpt>
      <trkpt lat="42.010410" lon="-5.976040">
        <ele>768.179</ele>
        <time>2019-03-25T20:25:45Z</time>
      </trkpt>
      <trkpt lat="42.010500" lon="-5.976040">
        <ele>768.105</ele>
        <time>2019-03-25T20:26:05Z</time>
      </trkpt>
      <trkpt lat="42.010870" lon="-5.976060">
        <ele>767.325</ele>
        <time>2019-03-25T20:26:25Z</time>
      </trkpt>
      <trkpt lat="42.010930" lon="-5.976090">
        <ele>767.108</ele>
        <time>2019-03-25T20:26:45Z</time>
      </trkpt>
      <trkpt lat="42.010960" lon="-5.976200">
        <ele>767.120</ele>
        <time>2019-03-25T20:27:05Z</time>
      </trkpt>
      <trkpt lat="42.010920" lon="-5.977282">
        <ele>767.131</ele>
        <time>2019-03-25T20:27:25Z</time>
      </trkpt>
      <trkpt lat="42.010880" lon="-5.978364">
        <ele>767.172</ele>
        <time>2019-03-25T20:27:45Z</time>
      </trkpt>
      <trkpt lat="42.010840" lon="-5.979446">
        <ele>766.191</ele>
        <time>2019-03-25T20:28:05Z</time>
      </trkpt>
      <trkpt lat="42.010800" lon="-5.980528">
        <ele>766.153</ele>
        <time>2019-03-25T20:28:25Z</time>
      </trkpt>
      <trkpt lat="42.010760" lon="-5.981610">
        <ele>766.181</ele>
        <time>2019-03-25T20:28:45Z</time>
      </trkpt>
      <trkpt lat="42.010790" lon="-5.981670">
        <ele>766.134</ele>
        <time>2019-03-25T20:29:05Z</time>
      </trkpt>
      <trkpt lat="42.011260" lon="-5.981890">
        <ele>767.036</ele>
        <time>2019-03-25T20:29:25Z</time>
      </trkpt>
      <trkpt lat="42.011730" lon="-5.982110">
        <ele>767.029</ele>
        <time>2019-03-25T20:29:45Z</time>
      </trkpt>
      <trkpt lat="42.012330" lon="-5.982440">
        <ele>767.100</ele>
        <time>2019-03-25T20:30:05Z</time>
      </trkpt>
      <trkpt lat="42.012983" lon="-5.982627">
        <ele>767.520</ele>
        <time>2019-03-25T20:30:25Z</time>
      </trkpt>
      <trkpt lat="42.013637" lon="-5.982813">
        <ele>767.908</ele>
        <time>2019-03-25T20:30:45Z</time>
      </trkpt>
      <trkpt lat="42.014290" lon="-5.983000">
        <ele>768.215</ele>
        <time>2019-03-25T20:31:05Z</time>
      </trkpt>
      <trkpt lat="42.014620" lon="-5.983050">
        <ele>769.286</ele>
        <time>2019-03-25T20:31:25Z</time>
      </trkpt>
      <trkpt lat="42.014800" lon="-5.983120">
        <ele>769.897</ele>
        <time>2019-03-25T20:31:45Z</time>
      </trkpt>
      <trkpt lat="42.014920" lon="-5.983120">
        <ele>770.086</ele>
        <time>2019-03-25T20:32:05Z</time>
      </trkpt>
      <trkpt lat="42.015060" lon="-5.983190">
        <ele>770.028</ele>
        <time>2019-03-25T20:32:25Z</time>
      </trkpt>
      <trkpt lat="42.015160" lon="-5.983170">
        <ele>770.046</ele>
        <time>2019-03-25T20:32:45Z</time>
      </trkpt>
      <trkpt lat="42.015290" lon="-5.983240">
        <ele>770.019</ele>
        <time>2019-03-25T20:33:05Z</time>
      </trkpt>
      <trkpt lat="42.015540" lon="-5.983330">
        <ele>770.091</ele>
        <time>2019-03-25T20:33:25Z</time>
      </trkpt>
      <trkpt lat="42.015740" lon="-5.983470">
        <ele>770.028</ele>
        <time>2019-03-25T20:33:45Z</time>
      </trkpt>
      <trkpt lat="42.016130" lon="-5.983590">
        <ele>770.089</ele>
        <time>2019-03-25T20:34:05Z</time>
      </trkpt>
      <trkpt lat="42.016580" lon="-5.983870">
        <ele>770.017</ele>
        <time>2019-03-25T20:34:25Z</time>
      </trkpt>
      <trkpt lat="42.017020" lon="-5.984040">
        <ele>770.008</ele>
        <time>2019-03-25T20:34:45Z</time>
      </trkpt>
      <trkpt lat="42.017230" lon="-5.984060">
        <ele>770.035</ele>
        <time>2019-03-25T20:35:05Z</time>
      </trkpt>
      <trkpt lat="42.017410" lon="-5.984180">
        <ele>770.066</ele>
        <time>2019-03-25T20:35:25Z</time>
      </trkpt>
      <trkpt lat="42.017600" lon="-5.984250">
        <ele>770.017</ele>
        <time>2019-03-25T20:35:45Z</time>
      </trkpt>
      <trkpt lat="42.017780" lon="-5.984270">
        <ele>770.086</ele>
        <time>2019-03-25T20:36:05Z</time>
      </trkpt>
      <trkpt lat="42.018140" lon="-5.984440">
        <ele>771.688</ele>
        <time>2019-03-25T20:36:25Z</time>
      </trkpt>
      <trkpt lat="42.018300" lon="-5.984460">
        <ele>771.676</ele>
        <time>2019-03-25T20:36:45Z</time>
      </trkpt>
      <trkpt lat="42.018510" lon="-5.984460">
        <ele>771.679</ele>
        <time>2019-03-25T20:37:05Z</time>
      </trkpt>
      <trkpt lat="42.019260" lon="-5.984550">
        <ele>771.651</ele>
        <time>2019-03-25T20:37:25Z</time>
      </trkpt>
      <trkpt lat="42.019970" lon="-5.984550">
        <ele>771.697</ele>
        <time>2019-03-25T20:37:45Z</time>
      </trkpt>
      <trkpt lat="42.020680" lon="-5.984550">
        <ele>771.623</ele>
        <time>2019-03-25T20:38:05Z</time>
      </trkpt>
      <trkpt lat="42.021390" lon="-5.984550">
        <ele>771.625</ele>
        <time>2019-03-25T20:38:25Z</time>
      </trkpt>
      <trkpt lat="42.021360" lon="-5.984290">
        <ele>771.608</ele>
        <time>2019-03-25T20:38:45Z</time>
      </trkpt>
      <trkpt lat="42.021360" lon="-5.984310">
        <ele>771.652</ele>
        <time>2019-03-25T20:39:05Z</time>
      </trkpt>
      <trkpt lat="42.021390" lon="-5.984550">
        <ele>771.683</ele>
        <time>2019-03-25T20:39:25Z</time>
      </trkpt>
      <trkpt lat="42.022238" lon="-5.984560">
        <ele>771.644</ele>
        <time>2019-03-25T20:39:45Z</time>
      </trkpt>
      <trkpt lat="42.023085" lon="-5.984570">
        <ele>771.693</ele>
        <time>2019-03-25T20:40:05Z</time>
      </trkpt>
      <trkpt lat="42.023933" lon="-5.984580">
        <ele>769.775</ele>
        <time>2019-03-25T20:40:25Z</time>
      </trkpt>
      <trkpt lat="42.024780" lon="-5.984590">
        <ele>769.793</ele>
        <time>2019-03-25T20:40:45Z</time>
      </trkpt>
      <trkpt lat="42.025628" lon="-5.984600">
        <ele>769.776</ele>
        <time>2019-03-25T20:41:05Z</time>
      </trkpt>
      <trkpt lat="42.026475" lon="-5.984610">
        <ele>769.758</ele>
        <time>2019-03-25T20:41:25Z</time>
      </trkpt>
      <trkpt lat="42.027323" lon="-5.984620">
        <ele>769.751</ele>
        <time>2019-03-25T20:41:45Z</time>
      </trkpt>
      <trkpt lat="42.028170" lon="-5.984630">
        <ele>769.701</ele>
        <time>2019-03-25T20:42:05Z</time>
      </trkpt>
      <trkpt lat="42.028916" lon="-5.984884">
        <ele>770.511</ele>
        <time>2019-03-25T20:42:25Z</time>
      </trkpt>
      <trkpt lat="42.029662" lon="-5.985138">
        <ele>770.508</ele>
        <time>2019-03-25T20:42:45Z</time>
      </trkpt>
      <trkpt lat="42.030408" lon="-5.985392">
        <ele>770.588</ele>
        <time>2019-03-25T20:43:05Z</time>
      </trkpt>
      <trkpt lat="42.031154" lon="-5.985646">
        <ele>770.569</ele>
        <time>2019-03-25T20:43:25Z</time>
      </trkpt>
      <trkpt lat="42.031900" lon="-5.985900">
        <ele>770.580</ele>
        <time>2019-03-25T20:43:45Z</time>
      </trkpt>
      <trkpt lat="42.032070" lon="-5.986050">
        <ele>770.549</ele>
        <time>2019-03-25T20:44:05Z</time>
      </trkpt>
      <trkpt lat="42.032360" lon="-5.986220">
        <ele>770.521</ele>
        <time>2019-03-25T20:44:25Z</time>
      </trkpt>
      <trkpt lat="42.032810" lon="-5.986450">
        <ele>770.569</ele>
        <time>2019-03-25T20:44:45Z</time>
      </trkpt>
      <trkpt lat="42.032960" lon="-5.986500">
        <ele>770.572</ele>
        <time>2019-03-25T20:45:05Z</time>
      </trkpt>
      <trkpt lat="42.033666" lon="-5.986694">
        <ele>770.544</ele>
        <time>2019-03-25T20:45:25Z</time>
      </trkpt>
      <trkpt lat="42.034372" lon="-5.986888">
        <ele>770.579</ele>
        <time>2019-03-25T20:45:45Z</time>
      </trkpt>
      <trkpt lat="42.035078" lon="-5.987082">
        <ele>768.605</ele>
        <time>2019-03-25T20:46:05Z</time>
      </trkpt>
      <trkpt lat="42.035784" lon="-5.987276">
        <ele>768.625</ele>
        <time>2019-03-25T20:46:25Z</time>
      </trkpt>
      <trkpt lat="42.036490" lon="-5.987470">
        <ele>768.608</ele>
        <time>2019-03-25T20:46:45Z</time>
      </trkpt>
      <trkpt lat="42.037255" lon="-5.987665">
        <ele>768.680</ele>
        <time>2019-03-25T20:47:05Z</time>
      </trkpt>
      <trkpt lat="42.038020" lon="-5.987860">
        <ele>768.671</ele>
        <time>2019-03-25T20:47:25Z</time>
      </trkpt>
      <trkpt lat="42.038110" lon="-5.987860">
        <ele>768.612</ele>
        <time>2019-03-25T20:47:45Z</time>
      </trkpt>
      <trkpt lat="42.038310" lon="-5.987780">
        <ele>768.681</ele>
        <time>2019-03-25T20:48:05Z</time>
      </trkpt>
      <trkpt lat="42.039080" lon="-5.987610">
        <ele>768.653</ele>
        <time>2019-03-25T20:48:25Z</time>
      </trkpt>
      <trkpt lat="42.039755" lon="-5.987570">
        <ele>768.611</ele>
        <time>2019-03-25T20:48:45Z</time>
      </trkpt>
      <trkpt lat="42.040430" lon="-5.987530">
        <ele>768.614</ele>
        <time>2019-03-25T20:49:05Z</time>
      </trkpt>
      <trkpt lat="42.040780" lon="-5.987460">
        <ele>768.686</ele>
        <time>2019-03-25T20:49:25Z</time>
      </trkpt>
      <trkpt lat="42.041210" lon="-5.987340">
        <ele>769.734</ele>
        <time>2019-03-25T20:49:45Z</time>
      </trkpt>
      <trkpt lat="42.041620" lon="-5.987140">
        <ele>769.755</ele>
        <time>2019-03-25T20:50:05Z</time>
      </trkpt>
      <trkpt lat="42.041890" lon="-5.986970">
        <ele>769.710</ele>
        <time>2019-03-25T20:50:25Z</time>
      </trkpt>
      <trkpt lat="42.042290" lon="-5.986620">
        <ele>769.708</ele>
        <time>2019-03-25T20:50:45Z</time>
      </trkpt>
      <trkpt lat="42.042655" lon="-5.986265">
        <ele>769.726</ele>
        <time>2019-03-25T20:51:05Z</time>
      </trkpt>
      <trkpt lat="42.043020" lon="-5.985910">
        <ele>769.777</ele>
        <time>2019-03-25T20:51:25Z</time>
      </trkpt>
      <trkpt lat="42.043760" lon="-5.985300">
        <ele>769.718</ele>
        <time>2019-03-25T20:51:45Z</time>
      </trkpt>
      <trkpt lat="42.044220" lon="-5.984830">
        <ele>769.757</ele>
        <time>2019-03-25T20:52:05Z</time>
      </trkpt>
      <trkpt lat="42.044450" lon="-5.984620">
        <ele>769.779</ele>
        <time>2019-03-25T20:52:25Z</time>
      </trkpt>
      <trkpt lat="42.044950" lon="-5.984260">
        <ele>769.727</ele>
        <time>2019-03-25T20:52:45Z</time>
      </trkpt>
      <trkpt lat="42.045450" lon="-5.983900">
        <ele>769.760</ele>
        <time>2019-03-25T20:53:05Z</time>
      </trkpt>
      <trkpt lat="42.045580" lon="-5.983760">
        <ele>769.782</ele>
        <time>2019-03-25T20:53:25Z</time>
      </trkpt>
      <trkpt lat="42.045995" lon="-5.983230">
        <ele>769.777</ele>
        <time>2019-03-25T20:53:45Z</time>
      </trkpt>
      <trkpt lat="42.046410" lon="-5.982700">
        <ele>769.761</ele>
        <time>2019-03-25T20:54:05Z</time>
      </trkpt>
      <trkpt lat="42.046610" lon="-5.982300">
        <ele>750.327</ele>
        <time>2019-03-25T20:54:25Z</time>
      </trkpt>
      <trkpt lat="42.046770" lon="-5.981860">
        <ele>750.308</ele>
        <time>2019-03-25T20:54:45Z</time>
      </trkpt>
      <trkpt lat="42.046860" lon="-5.981710">
        <ele>750.360</ele>
        <time>2019-03-25T20:55:05Z</time>
      </trkpt>
      <trkpt lat="42.046950" lon="-5.981600">
        <ele>750.351</ele>
        <time>2019-03-25T20:55:25Z</time>
      </trkpt>
      <trkpt lat="42.047390" lon="-5.981150">
        <ele>750.372</ele>
        <time>2019-03-25T20:55:45Z</time>
      </trkpt>
      <trkpt lat="42.047510" lon="-5.980960">
        <ele>750.321</ele>
        <time>2019-03-25T20:56:05Z</time>
      </trkpt>
      <trkpt lat="42.047850" lon="-5.980010">
        <ele>750.343</ele>
        <time>2019-03-25T20:56:25Z</time>
      </trkpt>
      <trkpt lat="42.047950" lon="-5.979810">
        <ele>750.341</ele>
        <time>2019-03-25T20:56:45Z</time>
      </trkpt>
      <trkpt lat="42.048050" lon="-5.979720">
        <ele>750.384</ele>
        <time>2019-03-25T20:57:05Z</time>
      </trkpt>
      <trkpt lat="42.048607" lon="-5.979397">
        <ele>750.336</ele>
        <time>2019-03-25T20:57:25Z</time>
      </trkpt>
      <trkpt lat="42.049163" lon="-5.979073">
        <ele>750.349</ele>
        <time>2019-03-25T20:57:45Z</time>
      </trkpt>
      <trkpt lat="42.049720" lon="-5.978750">
        <ele>750.302</ele>
        <time>2019-03-25T20:58:05Z</time>
      </trkpt>
      <trkpt lat="42.050333" lon="-5.978277">
        <ele>750.322</ele>
        <time>2019-03-25T20:58:25Z</time>
      </trkpt>
      <trkpt lat="42.050947" lon="-5.977803">
        <ele>750.308</ele>
        <time>2019-03-25T20:58:45Z</time>
      </trkpt>
      <trkpt lat="42.051560" lon="-5.977330">
        <ele>750.357</ele>
        <time>2019-03-25T20:59:05Z</time>
      </trkpt>
      <trkpt lat="42.052220" lon="-5.976530">
        <ele>734.288</ele>
        <time>2019-03-25T20:59:25Z</time>
      </trkpt>
      <trkpt lat="42.052680" lon="-5.975870">
        <ele>734.239</ele>
        <time>2019-03-25T20:59:45Z</time>
      </trkpt>
      <trkpt lat="42.053220" lon="-5.975280">
        <ele>734.268</ele>
        <time>2019-03-25T21:00:05Z</time>
      </trkpt>
      <trkpt lat="42.053760" lon="-5.974690">
        <ele>734.250</ele>
        <time>2019-03-25T21:00:25Z</time>
      </trkpt>
      <trkpt lat="42.054300" lon="-5.974100">
        <ele>734.268</ele>
        <time>2019-03-25T21:00:45Z</time>
      </trkpt>
      <trkpt lat="42.054903" lon="-5.974957">
        <ele>734.211</ele>
        <time>2019-03-25T21:01:05Z</time>
      </trkpt>
      <trkpt lat="42.055507" lon="-5.975813">
        <ele>734.253</ele>
        <time>2019-03-25T21:01:25Z</time>
      </trkpt>
      <trkpt lat="42.056110" lon="-5.976670">
        <ele>738.284</ele>
        <time>2019-03-25T21:01:45Z</time>
      </trkpt>
      <trkpt lat="42.056573" lon="-5.977350">
        <ele>738.207</ele>
        <time>2019-03-25T21:02:05Z</time>
      </trkpt>
      <trkpt lat="42.057037" lon="-5.978030">
        <ele>738.217</ele>
        <time>2019-03-25T21:02:25Z</time>
      </trkpt>
      <trkpt lat="42.057500" lon="-5.978710">
        <ele>738.208</ele>
        <time>2019-03-25T21:02:45Z</time>
      </trkpt>
      <trkpt lat="42.057670" lon="-5.979020">
        <ele>738.281</ele>
        <time>2019-03-25T21:03:05Z</time>
      </trkpt>
      <trkpt lat="42.057780" lon="-5.979200">
        <ele>738.482</ele>
        <time>2019-03-25T21:03:25Z</time>
      </trkpt>
      <trkpt lat="42.058570" lon="-5.978930">
        <ele>738.433</ele>
        <time>2019-03-25T21:03:45Z</time>
      </trkpt>
      <trkpt lat="42.058900" lon="-5.978800">
        <ele>738.462</ele>
        <time>2019-03-25T21:04:05Z</time>
      </trkpt>
      <trkpt lat="42.059320" lon="-5.978550">
        <ele>738.464</ele>
        <time>2019-03-25T21:04:25Z</time>
      </trkpt>
      <trkpt lat="42.059830" lon="-5.978170">
        <ele>738.452</ele>
        <time>2019-03-25T21:04:45Z</time>
      </trkpt>
      <trkpt lat="42.060220" lon="-5.977850">
        <ele>730.195</ele>
        <time>2019-03-25T21:05:05Z</time>
      </trkpt>
      <trkpt lat="42.060600" lon="-5.977660">
        <ele>730.137</ele>
        <time>2019-03-25T21:05:25Z</time>
      </trkpt>
      <trkpt lat="42.061050" lon="-5.977510">
        <ele>730.121</ele>
        <time>2019-03-25T21:05:45Z</time>
      </trkpt>
      <trkpt lat="42.061800" lon="-5.977330">
        <ele>730.141</ele>
        <time>2019-03-25T21:06:05Z</time>
      </trkpt>
      <trkpt lat="42.062190" lon="-5.977160">
        <ele>730.105</ele>
        <time>2019-03-25T21:06:25Z</time>
      </trkpt>
      <trkpt lat="42.062370" lon="-5.977030">
        <ele>730.108</ele>
        <time>2019-03-25T21:06:45Z</time>
      </trkpt>
      <trkpt lat="42.062780" lon="-5.976810">
        <ele>730.135</ele>
        <time>2019-03-25T21:07:05Z</time>
      </trkpt>
      <trkpt lat="42.063410" lon="-5.976690">
        <ele>730.146</ele>
        <time>2019-03-25T21:07:25Z</time>
      </trkpt>
      <trkpt lat="42.063760" lon="-5.976550">
        <ele>730.147</ele>
        <time>2019-03-25T21:07:45Z</time>
      </trkpt>
      <trkpt lat="42.064110" lon="-5.976320">
        <ele>730.196</ele>
        <time>2019-03-25T21:08:05Z</time>
      </trkpt>
      <trkpt lat="42.064650" lon="-5.975805">
        <ele>730.168</ele>
        <time>2019-03-25T21:08:25Z</time>
      </trkpt>
      <trkpt lat="42.065190" lon="-5.975290">
        <ele>730.186</ele>
        <time>2019-03-25T21:08:45Z</time>
      </trkpt>
      <trkpt lat="42.065890" lon="-5.974800">
        <ele>728.369</ele>
        <time>2019-03-25T21:09:05Z</time>
      </trkpt>
      <trkpt lat="42.066540" lon="-5.974490">
        <ele>728.311</ele>
        <time>2019-03-25T21:09:25Z</time>
      </trkpt>
      <trkpt lat="42.067190" lon="-5.974180">
        <ele>728.322</ele>
        <time>2019-03-25T21:09:45Z</time>
      </trkpt>
      <trkpt lat="42.067715" lon="-5.973875">
        <ele>728.362</ele>
        <time>2019-03-25T21:10:05Z</time>
      </trkpt>
      <trkpt lat="42.068240" lon="-5.973570">
        <ele>728.308</ele>
        <time>2019-03-25T21:10:25Z</time>
      </trkpt>
      <trkpt lat="42.068660" lon="-5.973220">
        <ele>728.308</ele>
        <time>2019-03-25T21:10:45Z</time>
      </trkpt>
      <trkpt lat="42.068670" lon="-5.973060">
        <ele>728.315</ele>
        <time>2019-03-25T21:11:05Z</time>
      </trkpt>
      <trkpt lat="42.068640" lon="-5.972820">
        <ele>728.316</ele>
        <time>2019-03-25T21:11:25Z</time>
      </trkpt>
      <trkpt lat="42.068670" lon="-5.972750">
        <ele>728.387</ele>
        <time>2019-03-25T21:11:45Z</time>
      </trkpt>
      <trkpt lat="42.068820" lon="-5.972610">
        <ele>728.356</ele>
        <time>2019-03-25T21:12:05Z</time>
      </trkpt>
      <trkpt lat="42.069320" lon="-5.972260">
        <ele>728.348</ele>
        <time>2019-03-25T21:12:25Z</time>
      </trkpt>
      <trkpt lat="42.069380" lon="-5.972260">
        <ele>729.286</ele>
        <time>2019-03-25T21:12:45Z</time>
      </trkpt>
      <trkpt lat="42.069470" lon="-5.972360">
        <ele>729.299</ele>
        <time>2019-03-25T21:13:05Z</time>
      </trkpt>
      <trkpt lat="42.069490" lon="-5.972490">
        <ele>729.271</ele>
        <time>2019-03-25T21:13:25Z</time>
      </trkpt>
      <trkpt lat="42.069580" lon="-5.972690">
        <ele>729.244</ele>
        <time>2019-03-25T21:13:45Z</time>
      </trkpt>
      <trkpt lat="42.069620" lon="-5.972730">
        <ele>729.205</ele>
        <time>2019-03-25T21:14:05Z</time>
      </trkpt>
      <trkpt lat="42.069680" lon="-5.972730">
        <ele>729.215</ele>
        <time>2019-03-25T21:14:25Z</time>
      </trkpt>
      <trkpt lat="42.069980" lon="-5.972500">
        <ele>729.208</ele>
        <time>2019-03-25T21:14:45Z</time>
      </trkpt>
      <trkpt lat="42.070600" lon="-5.971970">
        <ele>729.237</ele>
        <time>2019-03-25T21:15:05Z</time>
      </trkpt>
      <trkpt lat="42.071310" lon="-5.971230">
        <ele>727.488</ele>
        <time>2019-03-25T21:15:25Z</time>
      </trkpt>
      <trkpt lat="42.071300" lon="-5.971230">
        <ele>727.449</ele>
        <time>2019-03-25T21:15:45Z</time>
      </trkpt>
      <trkpt lat="42.071370" lon="-5.971150">
        <ele>727.248</ele>
        <time>2019-03-25T21:16:05Z</time>
      </trkpt>
      <trkpt lat="42.071500" lon="-5.971140">
        <ele>726.970</ele>
        <time>2019-03-25T21:16:25Z</time>
      </trkpt>
      <trkpt lat="42.071520" lon="-5.970920">
        <ele>726.738</ele>
        <time>2019-03-25T21:16:45Z</time>
      </trkpt>
      <trkpt lat="42.071580" lon="-5.970710">
        <ele>726.091</ele>
        <time>2019-03-25T21:17:05Z</time>
      </trkpt>
      <trkpt lat="42.071670" lon="-5.970500">
        <ele>726.063</ele>
        <time>2019-03-25T21:17:25Z</time>
      </trkpt>
      <trkpt lat="42.071780" lon="-5.970310">
        <ele>725.846</ele>
        <time>2019-03-25T21:17:45Z</time>
      </trkpt>
      <trkpt lat="42.071960" lon="-5.970050">
        <ele>725.688</ele>
        <time>2019-03-25T21:18:05Z</time>
      </trkpt>
      <trkpt lat="42.072190" lon="-5.969840">
        <ele>725.216</ele>
        <time>2019-03-25T21:18:25Z</time>
      </trkpt>
      <trkpt lat="42.072370" lon="-5.969720">
        <ele>725.208</ele>
        <time>2019-03-25T21:18:45Z</time>
      </trkpt>
      <trkpt lat="42.072650" lon="-5.969540">
        <ele>725.057</ele>
        <time>2019-03-25T21:19:05Z</time>
      </trkpt>
      <trkpt lat="42.073315" lon="-5.969140">
        <ele>725.448</ele>
        <time>2019-03-25T21:19:25Z</time>
      </trkpt>
      <trkpt lat="42.073980" lon="-5.968740">
        <ele>725.779</ele>
        <time>2019-03-25T21:19:45Z</time>
      </trkpt>
      <trkpt lat="42.074110" lon="-5.968630">
        <ele>727.338</ele>
        <time>2019-03-25T21:20:05Z</time>
      </trkpt>
      <trkpt lat="42.074330" lon="-5.968310">
        <ele>727.350</ele>
        <time>2019-03-25T21:20:25Z</time>
      </trkpt>
      <trkpt lat="42.074490" lon="-5.967880">
        <ele>728.438</ele>
        <time>2019-03-25T21:20:45Z</time>
      </trkpt>
      <trkpt lat="42.074690" lon="-5.967660">
        <ele>729.221</ele>
        <time>2019-03-25T21:21:05Z</time>
      </trkpt>
      <trkpt lat="42.074760" lon="-5.967520">
        <ele>729.423</ele>
        <time>2019-03-25T21:21:25Z</time>
      </trkpt>
      <trkpt lat="42.074800" lon="-5.967580">
        <ele>729.447</ele>
        <time>2019-03-25T21:21:45Z</time>
      </trkpt>
      <trkpt lat="42.075060" lon="-5.967340">
        <ele>730.129</ele>
        <time>2019-03-25T21:22:05Z</time>
      </trkpt>
      <trkpt lat="42.075120" lon="-5.967340">
        <ele>730.121</ele>
        <time>2019-03-25T21:22:25Z</time>
      </trkpt>
      <trkpt lat="42.075360" lon="-5.967850">
        <ele>731.008</ele>
        <time>2019-03-25T21:22:45Z</time>
      </trkpt>
      <trkpt lat="42.075420" lon="-5.967900">
        <ele>731.257</ele>
        <time>2019-03-25T21:23:05Z</time>
      </trkpt>
      <trkpt lat="42.075720" lon="-5.967800">
        <ele>731.338</ele>
        <time>2019-03-25T21:23:25Z</time>
      </trkpt>
      <trkpt lat="42.075950" lon="-5.967660">
        <ele>731.069</ele>
        <time>2019-03-25T21:23:45Z</time>
      </trkpt>
      <trkpt lat="42.076450" lon="-5.967240">
        <ele>730.398</ele>
        <time>2019-03-25T21:24:05Z</time>
      </trkpt>
      <trkpt lat="42.076853" lon="-5.967997">
        <ele>729.840</ele>
        <time>2019-03-25T21:24:25Z</time>
      </trkpt>
      <trkpt lat="42.077257" lon="-5.968753">
        <ele>728.138</ele>
        <time>2019-03-25T21:24:45Z</time>
      </trkpt>
      <trkpt lat="42.077660" lon="-5.969510">
        <ele>728.661</ele>
        <time>2019-03-25T21:25:05Z</time>
      </trkpt>
      <trkpt lat="42.077970" lon="-5.969870">
        <ele>729.583</ele>
        <time>2019-03-25T21:25:25Z</time>
      </trkpt>
      <trkpt lat="42.078700" lon="-5.970380">
        <ele>731.276</ele>
        <time>2019-03-25T21:25:45Z</time>
      </trkpt>
      <trkpt lat="42.079500" lon="-5.970905">
        <ele>732.590</ele>
        <time>2019-03-25T21:26:05Z</time>
      </trkpt>
      <trkpt lat="42.080300" lon="-5.971430">
        <ele>733.219</ele>
        <time>2019-03-25T21:26:25Z</time>
      </trkpt>
      <trkpt lat="42.081090" lon="-5.971970">
        <ele>734.408</ele>
        <time>2019-03-25T21:26:45Z</time>
      </trkpt>
      <trkpt lat="42.081880" lon="-5.972510">
        <ele>737.390</ele>
        <time>2019-03-25T21:27:05Z</time>
      </trkpt>
      <trkpt lat="42.082430" lon="-5.972870">
        <ele>741.421</ele>
        <time>2019-03-25T21:27:25Z</time>
      </trkpt>
      <trkpt lat="42.082660" lon="-5.972990">
        <ele>743.162</ele>
        <time>2019-03-25T21:27:45Z</time>
      </trkpt>
      <trkpt lat="42.083373" lon="-5.973207">
        <ele>749.151</ele>
        <time>2019-03-25T21:28:05Z</time>
      </trkpt>
      <trkpt lat="42.084087" lon="-5.973423">
        <ele>752.483</ele>
        <time>2019-03-25T21:28:25Z</time>
      </trkpt>
      <trkpt lat="42.084800" lon="-5.973640">
        <ele>753.081</ele>
        <time>2019-03-25T21:28:45Z</time>
      </trkpt>
      <trkpt lat="42.085220" lon="-5.973780">
        <ele>753.184</ele>
        <time>2019-03-25T21:29:05Z</time>
      </trkpt>
      <trkpt lat="42.085490" lon="-5.973910">
        <ele>753.756</ele>
        <time>2019-03-25T21:29:25Z</time>
      </trkpt>
      <trkpt lat="42.085980" lon="-5.974320">
        <ele>753.864</ele>
        <time>2019-03-25T21:29:45Z</time>
      </trkpt>
      <trkpt lat="42.086250" lon="-5.974630">
        <ele>753.806</ele>
        <time>2019-03-25T21:30:05Z</time>
      </trkpt>
      <trkpt lat="42.086550" lon="-5.975100">
        <ele>753.016</ele>
        <time>2019-03-25T21:30:25Z</time>
      </trkpt>
      <trkpt lat="42.086750" lon="-5.975570">
        <ele>752.708</ele>
        <time>2019-03-25T21:30:45Z</time>
      </trkpt>
      <trkpt lat="42.086940" lon="-5.976235">
        <ele>751.449</ele>
        <time>2019-03-25T21:31:05Z</time>
      </trkpt>
      <trkpt lat="42.087130" lon="-5.976900">
        <ele>746.260</ele>
        <time>2019-03-25T21:31:25Z</time>
      </trkpt>
      <trkpt lat="42.087320" lon="-5.977680">
        <ele>745.071</ele>
        <time>2019-03-25T21:31:45Z</time>
      </trkpt>
      <trkpt lat="42.087380" lon="-5.978010">
        <ele>743.980</ele>
        <time>2019-03-25T21:32:05Z</time>
      </trkpt>
      <trkpt lat="42.087380" lon="-5.978700">
        <ele>742.012</ele>
        <time>2019-03-25T21:32:25Z</time>
      </trkpt>
      <trkpt lat="42.087550" lon="-5.978710">
        <ele>742.060</ele>
        <time>2019-03-25T21:32:45Z</time>
      </trkpt>
      <trkpt lat="42.087620" lon="-5.978760">
        <ele>742.043</ele>
        <time>2019-03-25T21:33:05Z</time>
      </trkpt>
      <trkpt lat="42.087887" lon="-5.979697">
        <ele>742.075</ele>
        <time>2019-03-25T21:33:25Z</time>
      </trkpt>
      <trkpt lat="42.088153" lon="-5.980633">
        <ele>738.259</ele>
        <time>2019-03-25T21:33:45Z</time>
      </trkpt>
      <trkpt lat="42.088420" lon="-5.981570">
        <ele>737.603</ele>
        <time>2019-03-25T21:34:05Z</time>
      </trkpt>
      <trkpt lat="42.088510" lon="-5.982120">
        <ele>737.623</ele>
        <time>2019-03-25T21:34:25Z</time>
      </trkpt>
      <trkpt lat="42.088810" lon="-5.982840">
        <ele>740.008</ele>
        <time>2019-03-25T21:34:45Z</time>
      </trkpt>
      <trkpt lat="42.089090" lon="-5.983680">
        <ele>739.928</ele>
        <time>2019-03-25T21:35:05Z</time>
      </trkpt>
      <trkpt lat="42.089400" lon="-5.984610">
        <ele>737.549</ele>
        <time>2019-03-25T21:35:25Z</time>
      </trkpt>
      <trkpt lat="42.089420" lon="-5.984900">
        <ele>737.540</ele>
        <time>2019-03-25T21:35:45Z</time>
      </trkpt>
      <trkpt lat="42.089610" lon="-5.985380">
        <ele>735.179</ele>
        <time>2019-03-25T21:36:05Z</time>
      </trkpt>
      <trkpt lat="42.089820" lon="-5.985820">
        <ele>735.151</ele>
        <time>2019-03-25T21:36:25Z</time>
      </trkpt>
      <trkpt lat="42.090460" lon="-5.986490">
        <ele>733.189</ele>
        <time>2019-03-25T21:36:45Z</time>
      </trkpt>
      <trkpt lat="42.090870" lon="-5.987435">
        <ele>733.182</ele>
        <time>2019-03-25T21:37:05Z</time>
      </trkpt>
      <trkpt lat="42.091280" lon="-5.988380">
        <ele>738.184</ele>
        <time>2019-03-25T21:37:25Z</time>
      </trkpt>
      <trkpt lat="42.091445" lon="-5.988980">
        <ele>739.087</ele>
        <time>2019-03-25T21:37:45Z</time>
      </trkpt>
      <trkpt lat="42.091610" lon="-5.989580">
        <ele>739.242</ele>
        <time>2019-03-25T21:38:05Z</time>
      </trkpt>
      <trkpt lat="42.092033" lon="-5.990620">
        <ele>739.726</ele>
        <time>2019-03-25T21:38:25Z</time>
      </trkpt>
      <trkpt lat="42.092457" lon="-5.991660">
        <ele>740.408</ele>
        <time>2019-03-25T21:38:45Z</time>
      </trkpt>
      <trkpt lat="42.092880" lon="-5.992700">
        <ele>741.241</ele>
        <time>2019-03-25T21:39:05Z</time>
      </trkpt>
      <trkpt lat="42.093130" lon="-5.993440">
        <ele>742.612</ele>
        <time>2019-03-25T21:39:25Z</time>
      </trkpt>
      <trkpt lat="42.093290" lon="-5.994120">
        <ele>740.793</ele>
        <time>2019-03-25T21:39:45Z</time>
      </trkpt>
      <trkpt lat="42.093957" lon="-5.993893">
        <ele>742.662</ele>
        <time>2019-03-25T21:40:05Z</time>
      </trkpt>
      <trkpt lat="42.094623" lon="-5.993667">
        <ele>744.834</ele>
        <time>2019-03-25T21:40:25Z</time>
      </trkpt>
      <trkpt lat="42.095290" lon="-5.993440">
        <ele>746.742</ele>
        <time>2019-03-25T21:40:45Z</time>
      </trkpt>
      <trkpt lat="42.095670" lon="-5.993230">
        <ele>747.625</ele>
        <time>2019-03-25T21:41:05Z</time>
      </trkpt>
      <trkpt lat="42.096120" lon="-5.992900">
        <ele>749.337</ele>
        <time>2019-03-25T21:41:25Z</time>
      </trkpt>
      <trkpt lat="42.096350" lon="-5.992800">
        <ele>749.585</ele>
        <time>2019-03-25T21:41:45Z</time>
      </trkpt>
      <trkpt lat="42.096540" lon="-5.992790">
        <ele>749.989</ele>
        <time>2019-03-25T21:42:05Z</time>
      </trkpt>
      <trkpt lat="42.096720" lon="-5.992830">
        <ele>749.917</ele>
        <time>2019-03-25T21:42:25Z</time>
      </trkpt>
      <trkpt lat="42.097446" lon="-5.993206">
        <ele>750.408</ele>
        <time>2019-03-25T21:42:45Z</time>
      </trkpt>
      <trkpt lat="42.098172" lon="-5.993582">
        <ele>750.341</ele>
        <time>2019-03-25T21:43:05Z</time>
      </trkpt>
      <trkpt lat="42.098898" lon="-5.993958">
        <ele>749.462</ele>
        <time>2019-03-25T21:43:25Z</time>
      </trkpt>
      <trkpt lat="42.099624" lon="-5.994334">
        <ele>748.353</ele>
        <time>2019-03-25T21:43:45Z</time>
      </trkpt>
      <trkpt lat="42.100350" lon="-5.994710">
        <ele>745.922</ele>
        <time>2019-03-25T21:44:05Z</time>
      </trkpt>
      <trkpt lat="42.100680" lon="-5.994860">
        <ele>745.124</ele>
        <time>2019-03-25T21:44:25Z</time>
      </trkpt>
      <trkpt lat="42.101020" lon="-5.994990">
        <ele>743.622</ele>
        <time>2019-03-25T21:44:45Z</time>
      </trkpt>
      <trkpt lat="42.101620" lon="-5.995107">
        <ele>742.285</ele>
        <time>2019-03-25T21:45:05Z</time>
      </trkpt>
      <trkpt lat="42.102220" lon="-5.995223">
        <ele>742.157</ele>
        <time>2019-03-25T21:45:25Z</time>
      </trkpt>
      <trkpt lat="42.102820" lon="-5.995340">
        <ele>743.227</ele>
        <time>2019-03-25T21:45:45Z</time>
      </trkpt>
      <trkpt lat="42.103210" lon="-5.995440">
        <ele>743.568</ele>
        <time>2019-03-25T21:46:05Z</time>
      </trkpt>
      <trkpt lat="42.103735" lon="-5.995605">
        <ele>744.014</ele>
        <time>2019-03-25T21:46:25Z</time>
      </trkpt>
      <trkpt lat="42.104260" lon="-5.995770">
        <ele>744.108</ele>
        <time>2019-03-25T21:46:45Z</time>
      </trkpt>
      <trkpt lat="42.104540" lon="-5.995810">
        <ele>744.195</ele>
        <time>2019-03-25T21:47:05Z</time>
      </trkpt>
      <trkpt lat="42.104880" lon="-5.995750">
        <ele>744.166</ele>
        <time>2019-03-25T21:47:25Z</time>
      </trkpt>
      <trkpt lat="42.105550" lon="-5.995665">
        <ele>745.097</ele>
        <time>2019-03-25T21:47:45Z</time>
      </trkpt>
      <trkpt lat="42.106220" lon="-5.995580">
        <ele>745.826</ele>
        <time>2019-03-25T21:48:05Z</time>
      </trkpt>
      <trkpt lat="42.106620" lon="-5.995540">
        <ele>746.398</ele>
        <time>2019-03-25T21:48:25Z</time>
      </trkpt>
      <trkpt lat="42.106830" lon="-5.995560">
        <ele>747.346</ele>
        <time>2019-03-25T21:48:45Z</time>
      </trkpt>
      <trkpt lat="42.107220" lon="-5.995630">
        <ele>747.869</ele>
        <time>2019-03-25T21:49:05Z</time>
      </trkpt>
      <trkpt lat="42.107680" lon="-5.995745">
        <ele>749.231</ele>
        <time>2019-03-25T21:49:25Z</time>
      </trkpt>
      <trkpt lat="42.108140" lon="-5.995860">
        <ele>750.372</ele>
        <time>2019-03-25T21:49:45Z</time>
      </trkpt>
      <trkpt lat="42.108350" lon="-5.995840">
        <ele>750.713</ele>
        <time>2019-03-25T21:50:05Z</time>
      </trkpt>
      <trkpt lat="42.108700" lon="-5.995680">
        <ele>752.014</ele>
        <time>2019-03-25T21:50:25Z</time>
      </trkpt>
      <trkpt lat="42.108850" lon="-5.995670">
        <ele>752.308</ele>
        <time>2019-03-25T21:50:45Z</time>
      </trkpt>
      <trkpt lat="42.109190" lon="-5.995760">
        <ele>752.610</ele>
        <time>2019-03-25T21:51:05Z</time>
      </trkpt>
      <trkpt lat="42.109350" lon="-5.995840">
        <ele>752.531</ele>
        <time>2019-03-25T21:51:25Z</time>
      </trkpt>
      <trkpt lat="42.109850" lon="-5.996140">
        <ele>752.912</ele>
        <time>2019-03-25T21:51:45Z</time>
      </trkpt>
      <trkpt lat="42.110400" lon="-5.996420">
        <ele>753.871</ele>
        <time>2019-03-25T21:52:05Z</time>
      </trkpt>
      <trkpt lat="42.110600" lon="-5.996560">
        <ele>755.373</ele>
        <time>2019-03-25T21:52:25Z</time>
      </trkpt>
      <trkpt lat="42.110760" lon="-5.996850">
        <ele>755.341</ele>
        <time>2019-03-25T21:52:45Z</time>
      </trkpt>
      <trkpt lat="42.110830" lon="-5.997080">
        <ele>756.394</ele>
        <time>2019-03-25T21:53:05Z</time>
      </trkpt>
      <trkpt lat="42.110930" lon="-5.997270">
        <ele>756.346</ele>
        <time>2019-03-25T21:53:25Z</time>
      </trkpt>
      <trkpt lat="42.111020" lon="-5.997360">
        <ele>756.394</ele>
        <time>2019-03-25T21:53:45Z</time>
      </trkpt>
      <trkpt lat="42.111130" lon="-5.997410">
        <ele>757.157</ele>
        <time>2019-03-25T21:54:05Z</time>
      </trkpt>
      <trkpt lat="42.111520" lon="-5.997360">
        <ele>758.122</ele>
        <time>2019-03-25T21:54:25Z</time>
      </trkpt>
      <trkpt lat="42.111670" lon="-5.997360">
        <ele>758.808</ele>
        <time>2019-03-25T21:54:45Z</time>
      </trkpt>
      <trkpt lat="42.111900" lon="-5.997480">
        <ele>759.782</ele>
        <time>2019-03-25T21:55:05Z</time>
      </trkpt>
      <trkpt lat="42.112700" lon="-5.997965">
        <ele>762.263</ele>
        <time>2019-03-25T21:55:25Z</time>
      </trkpt>
      <trkpt lat="42.113500" lon="-5.998450">
        <ele>764.274</ele>
        <time>2019-03-25T21:55:45Z</time>
      </trkpt>
      <trkpt lat="42.114005" lon="-5.998775">
        <ele>766.183</ele>
        <time>2019-03-25T21:56:05Z</time>
      </trkpt>
      <trkpt lat="42.114510" lon="-5.999100">
        <ele>767.045</ele>
        <time>2019-03-25T21:56:25Z</time>
      </trkpt>
      <trkpt lat="42.115020" lon="-5.999360">
        <ele>768.923</ele>
        <time>2019-03-25T21:56:45Z</time>
      </trkpt>
      <trkpt lat="42.115290" lon="-5.999480">
        <ele>768.956</ele>
        <time>2019-03-25T21:57:05Z</time>
      </trkpt>
      <trkpt lat="42.115735" lon="-5.999605">
        <ele>770.918</ele>
        <time>2019-03-25T21:57:25Z</time>
      </trkpt>
      <trkpt lat="42.116180" lon="-5.999730">
        <ele>771.145</ele>
        <time>2019-03-25T21:57:45Z</time>
      </trkpt>
      <trkpt lat="42.117060" lon="-5.999940">
        <ele>771.847</ele>
        <time>2019-03-25T21:58:05Z</time>
      </trkpt>
      <trkpt lat="42.117940" lon="-6.000150">
        <ele>774.511</ele>
        <time>2019-03-25T21:58:25Z</time>
      </trkpt>
      <trkpt lat="42.118455" lon="-6.000215">
        <ele>776.908</ele>
        <time>2019-03-25T21:58:45Z</time>
      </trkpt>
      <trkpt lat="42.118970" lon="-6.000280">
        <ele>778.047</ele>
        <time>2019-03-25T21:59:05Z</time>
      </trkpt>
      <trkpt lat="42.119823" lon="-6.000333">
        <ele>781.198</ele>
        <time>2019-03-25T21:59:25Z</time>
      </trkpt>
      <trkpt lat="42.120677" lon="-6.000387">
        <ele>780.559</ele>
        <time>2019-03-25T21:59:45Z</time>
      </trkpt>
      <trkpt lat="42.121530" lon="-6.000440">
        <ele>778.748</ele>
        <time>2019-03-25T22:00:05Z</time>
      </trkpt>
      <trkpt lat="42.122388" lon="-6.000480">
        <ele>779.460</ele>
        <time>2019-03-25T22:00:25Z</time>
      </trkpt>
      <trkpt lat="42.123245" lon="-6.000520">
        <ele>779.858</ele>
        <time>2019-03-25T22:00:45Z</time>
      </trkpt>
      <trkpt lat="42.124103" lon="-6.000560">
        <ele>782.841</ele>
        <time>2019-03-25T22:01:05Z</time>
      </trkpt>
      <trkpt lat="42.124960" lon="-6.000600">
        <ele>784.073</ele>
        <time>2019-03-25T22:01:25Z</time>
      </trkpt>
      <trkpt lat="42.125804" lon="-6.000643">
        <ele>783.634</ele>
        <time>2019-03-25T22:01:45Z</time>
      </trkpt>
      <trkpt lat="42.126649" lon="-6.000687">
        <ele>783.955</ele>
        <time>2019-03-25T22:02:05Z</time>
      </trkpt>
      <trkpt lat="42.127493" lon="-6.000730">
        <ele>784.110</ele>
        <time>2019-03-25T22:02:25Z</time>
      </trkpt>
      <trkpt lat="42.128338" lon="-6.000773">
        <ele>784.608</ele>
        <time>2019-03-25T22:02:45Z</time>
      </trkpt>
      <trkpt lat="42.129182" lon="-6.000817">
        <ele>784.426</ele>
        <time>2019-03-25T22:03:05Z</time>
      </trkpt>
      <trkpt lat="42.130027" lon="-6.000860">
        <ele>784.367</ele>
        <time>2019-03-25T22:03:25Z</time>
      </trkpt>
      <trkpt lat="42.130871" lon="-6.000903">
        <ele>782.898</ele>
        <time>2019-03-25T22:03:45Z</time>
      </trkpt>
      <trkpt lat="42.131716" lon="-6.000947">
        <ele>782.087</ele>
        <time>2019-03-25T22:04:05Z</time>
      </trkpt>
      <trkpt lat="42.132560" lon="-6.000990">
        <ele>781.029</ele>
        <time>2019-03-25T22:04:25Z</time>
      </trkpt>
      <trkpt lat="42.133210" lon="-6.001030">
        <ele>781.037</ele>
        <time>2019-03-25T22:04:45Z</time>
      </trkpt>
      <trkpt lat="42.133860" lon="-6.001070">
        <ele>781.370</ele>
        <time>2019-03-25T22:05:05Z</time>
      </trkpt>
      <trkpt lat="42.134360" lon="-6.001140">
        <ele>781.372</ele>
        <time>2019-03-25T22:05:25Z</time>
      </trkpt>
      <trkpt lat="42.135080" lon="-6.001310">
        <ele>782.339</ele>
        <time>2019-03-25T22:05:45Z</time>
      </trkpt>
      <trkpt lat="42.135925" lon="-6.001508">
        <ele>784.901</ele>
        <time>2019-03-25T22:06:05Z</time>
      </trkpt>
      <trkpt lat="42.136770" lon="-6.001707">
        <ele>789.621</ele>
        <time>2019-03-25T22:06:25Z</time>
      </trkpt>
      <trkpt lat="42.137615" lon="-6.001905">
        <ele>794.108</ele>
        <time>2019-03-25T22:06:45Z</time>
      </trkpt>
      <trkpt lat="42.138460" lon="-6.002103">
        <ele>800.046</ele>
        <time>2019-03-25T22:07:05Z</time>
      </trkpt>
      <trkpt lat="42.139305" lon="-6.002302">
        <ele>809.577</ele>
        <time>2019-03-25T22:07:25Z</time>
      </trkpt>
      <trkpt lat="42.140150" lon="-6.002500">
        <ele>818.458</ele>
        <time>2019-03-25T22:07:45Z</time>
      </trkpt>
      <trkpt lat="42.140660" lon="-6.002590">
        <ele>826.457</ele>
        <time>2019-03-25T22:08:05Z</time>
      </trkpt>
      <trkpt lat="42.141070" lon="-6.002600">
        <ele>829.969</ele>
        <time>2019-03-25T22:08:25Z</time>
      </trkpt>
      <trkpt lat="42.141390" lon="-6.002570">
        <ele>833.657</ele>
        <time>2019-03-25T22:08:45Z</time>
      </trkpt>
      <trkpt lat="42.142070" lon="-6.002380">
        <ele>837.780</ele>
        <time>2019-03-25T22:09:05Z</time>
      </trkpt>
      <trkpt lat="42.142400" lon="-6.002240">
        <ele>840.542</ele>
        <time>2019-03-25T22:09:25Z</time>
      </trkpt>
      <trkpt lat="42.142760" lon="-6.002010">
        <ele>842.464</ele>
        <time>2019-03-25T22:09:45Z</time>
      </trkpt>
      <trkpt lat="42.143080" lon="-6.001750">
        <ele>844.306</ele>
        <time>2019-03-25T22:10:05Z</time>
      </trkpt>
      <trkpt lat="42.143370" lon="-6.001470">
        <ele>845.716</ele>
        <time>2019-03-25T22:10:25Z</time>
      </trkpt>
      <trkpt lat="42.143650" lon="-6.001140">
        <ele>846.208</ele>
        <time>2019-03-25T22:10:45Z</time>
      </trkpt>
      <trkpt lat="42.144030" lon="-6.000560">
        <ele>846.639</ele>
        <time>2019-03-25T22:11:05Z</time>
      </trkpt>
      <trkpt lat="42.144350" lon="-6.000040">
        <ele>846.310</ele>
        <time>2019-03-25T22:11:25Z</time>
      </trkpt>
      <trkpt lat="42.144670" lon="-5.999520">
        <ele>845.321</ele>
        <time>2019-03-25T22:11:45Z</time>
      </trkpt>
      <trkpt lat="42.144880" lon="-5.999230">
        <ele>845.190</ele>
        <time>2019-03-25T22:12:05Z</time>
      </trkpt>
      <trkpt lat="42.145280" lon="-5.998790">
        <ele>843.092</ele>
        <time>2019-03-25T22:12:25Z</time>
      </trkpt>
      <trkpt lat="42.145820" lon="-5.998350">
        <ele>841.260</ele>
        <time>2019-03-25T22:12:45Z</time>
      </trkpt>
      <trkpt lat="42.146070" lon="-5.998210">
        <ele>840.213</ele>
        <time>2019-03-25T22:13:05Z</time>
      </trkpt>
      <trkpt lat="42.146820" lon="-5.997860">
        <ele>838.035</ele>
        <time>2019-03-25T22:13:25Z</time>
      </trkpt>
      <trkpt lat="42.147615" lon="-5.997520">
        <ele>838.333</ele>
        <time>2019-03-25T22:13:45Z</time>
      </trkpt>
      <trkpt lat="42.148410" lon="-5.997180">
        <ele>838.323</ele>
        <time>2019-03-25T22:14:05Z</time>
      </trkpt>
      <trkpt lat="42.149205" lon="-5.996840">
        <ele>838.915</ele>
        <time>2019-03-25T22:14:25Z</time>
      </trkpt>
      <trkpt lat="42.150000" lon="-5.996500">
        <ele>839.208</ele>
        <time>2019-03-25T22:14:45Z</time>
      </trkpt>
      <trkpt lat="42.150795" lon="-5.996160">
        <ele>839.266</ele>
        <time>2019-03-25T22:15:05Z</time>
      </trkpt>
      <trkpt lat="42.151590" lon="-5.995820">
        <ele>839.277</ele>
        <time>2019-03-25T22:15:25Z</time>
      </trkpt>
      <trkpt lat="42.152385" lon="-5.995480">
        <ele>839.628</ele>
        <time>2019-03-25T22:15:45Z</time>
      </trkpt>
      <trkpt lat="42.153180" lon="-5.995140">
        <ele>839.647</ele>
        <time>2019-03-25T22:16:05Z</time>
      </trkpt>
      <trkpt lat="42.153975" lon="-5.994800">
        <ele>839.669</ele>
        <time>2019-03-25T22:16:25Z</time>
      </trkpt>
      <trkpt lat="42.154770" lon="-5.994460">
        <ele>839.757</ele>
        <time>2019-03-25T22:16:45Z</time>
      </trkpt>
      <trkpt lat="42.155470" lon="-5.994165">
        <ele>840.490</ele>
        <time>2019-03-25T22:17:05Z</time>
      </trkpt>
      <trkpt lat="42.156170" lon="-5.993870">
        <ele>839.692</ele>
        <time>2019-03-25T22:17:25Z</time>
      </trkpt>
      <trkpt lat="42.156870" lon="-5.993575">
        <ele>839.673</ele>
        <time>2019-03-25T22:17:45Z</time>
      </trkpt>
      <trkpt lat="42.157570" lon="-5.993280">
        <ele>839.785</ele>
        <time>2019-03-25T22:18:05Z</time>
      </trkpt>
      <trkpt lat="42.158326" lon="-5.992953">
        <ele>840.713</ele>
        <time>2019-03-25T22:18:25Z</time>
      </trkpt>
      <trkpt lat="42.159083" lon="-5.992625">
        <ele>840.708</ele>
        <time>2019-03-25T22:18:45Z</time>
      </trkpt>
      <trkpt lat="42.159839" lon="-5.992298">
        <ele>840.730</ele>
        <time>2019-03-25T22:19:05Z</time>
      </trkpt>
      <trkpt lat="42.160595" lon="-5.991970">
        <ele>840.751</ele>
        <time>2019-03-25T22:19:25Z</time>
      </trkpt>
      <trkpt lat="42.161351" lon="-5.991643">
        <ele>840.742</ele>
        <time>2019-03-25T22:19:45Z</time>
      </trkpt>
      <trkpt lat="42.162108" lon="-5.991315">
        <ele>840.731</ele>
        <time>2019-03-25T22:20:05Z</time>
      </trkpt>
      <trkpt lat="42.162864" lon="-5.990988">
        <ele>840.713</ele>
        <time>2019-03-25T22:20:25Z</time>
      </trkpt>
      <trkpt lat="42.163620" lon="-5.990660">
        <ele>840.741</ele>
        <time>2019-03-25T22:20:45Z</time>
      </trkpt>
      <trkpt lat="42.164447" lon="-5.990314">
        <ele>840.784</ele>
        <time>2019-03-25T22:21:05Z</time>
      </trkpt>
      <trkpt lat="42.165274" lon="-5.989969">
        <ele>840.776</ele>
        <time>2019-03-25T22:21:25Z</time>
      </trkpt>
      <trkpt lat="42.166101" lon="-5.989623">
        <ele>840.857</ele>
        <time>2019-03-25T22:21:45Z</time>
      </trkpt>
      <trkpt lat="42.166929" lon="-5.989277">
        <ele>840.800</ele>
        <time>2019-03-25T22:22:05Z</time>
      </trkpt>
      <trkpt lat="42.167756" lon="-5.988931">
        <ele>840.620</ele>
        <time>2019-03-25T22:22:25Z</time>
      </trkpt>
      <trkpt lat="42.168583" lon="-5.988586">
        <ele>840.708</ele>
        <time>2019-03-25T22:22:45Z</time>
      </trkpt>
      <trkpt lat="42.169410" lon="-5.988240">
        <ele>840.528</ele>
        <time>2019-03-25T22:23:05Z</time>
      </trkpt>
      <trkpt lat="42.170170" lon="-5.987911">
        <ele>839.949</ele>
        <time>2019-03-25T22:23:25Z</time>
      </trkpt>
      <trkpt lat="42.170930" lon="-5.987583">
        <ele>839.560</ele>
        <time>2019-03-25T22:23:45Z</time>
      </trkpt>
      <trkpt lat="42.171690" lon="-5.987254">
        <ele>838.929</ele>
        <time>2019-03-25T22:24:05Z</time>
      </trkpt>
      <trkpt lat="42.172450" lon="-5.986925">
        <ele>838.481</ele>
        <time>2019-03-25T22:24:25Z</time>
      </trkpt>
      <trkpt lat="42.173210" lon="-5.986596">
        <ele>837.829</ele>
        <time>2019-03-25T22:24:45Z</time>
      </trkpt>
      <trkpt lat="42.173970" lon="-5.986268">
        <ele>836.242</ele>
        <time>2019-03-25T22:25:05Z</time>
      </trkpt>
      <trkpt lat="42.174730" lon="-5.985939">
        <ele>835.514</ele>
        <time>2019-03-25T22:25:25Z</time>
      </trkpt>
      <trkpt lat="42.175490" lon="-5.985610">
        <ele>837.651</ele>
        <time>2019-03-25T22:25:45Z</time>
      </trkpt>
      <trkpt lat="42.176314" lon="-5.985347">
        <ele>839.201</ele>
        <time>2019-03-25T22:26:05Z</time>
      </trkpt>
      <trkpt lat="42.177137" lon="-5.985085">
        <ele>838.911</ele>
        <time>2019-03-25T22:26:25Z</time>
      </trkpt>
      <trkpt lat="42.177961" lon="-5.984822">
        <ele>838.608</ele>
        <time>2019-03-25T22:26:45Z</time>
      </trkpt>
      <trkpt lat="42.178785" lon="-5.984559">
        <ele>838.518</ele>
        <time>2019-03-25T22:27:05Z</time>
      </trkpt>
      <trkpt lat="42.179608" lon="-5.984296">
        <ele>838.399</ele>
        <time>2019-03-25T22:27:25Z</time>
      </trkpt>
      <trkpt lat="42.180432" lon="-5.984034">
        <ele>838.180</ele>
        <time>2019-03-25T22:27:45Z</time>
      </trkpt>
      <trkpt lat="42.181255" lon="-5.983771">
        <ele>837.649</ele>
        <time>2019-03-25T22:28:05Z</time>
      </trkpt>
      <trkpt lat="42.182079" lon="-5.983508">
        <ele>831.521</ele>
        <time>2019-03-25T22:28:25Z</time>
      </trkpt>
      <trkpt lat="42.182903" lon="-5.983246">
        <ele>827.679</ele>
        <time>2019-03-25T22:28:45Z</time>
      </trkpt>
      <trkpt lat="42.183726" lon="-5.982983">
        <ele>819.492</ele>
        <time>2019-03-25T22:29:05Z</time>
      </trkpt>
      <trkpt lat="42.184550" lon="-5.982720">
        <ele>814.734</ele>
        <time>2019-03-25T22:29:25Z</time>
      </trkpt>
      <trkpt lat="42.185378" lon="-5.982460">
        <ele>811.619</ele>
        <time>2019-03-25T22:29:45Z</time>
      </trkpt>
      <trkpt lat="42.186205" lon="-5.982200">
        <ele>811.509</ele>
        <time>2019-03-25T22:30:05Z</time>
      </trkpt>
      <trkpt lat="42.187033" lon="-5.981940">
        <ele>810.919</ele>
        <time>2019-03-25T22:30:25Z</time>
      </trkpt>
      <trkpt lat="42.187860" lon="-5.981680">
        <ele>810.908</ele>
        <time>2019-03-25T22:30:45Z</time>
      </trkpt>
      <trkpt lat="42.188660" lon="-5.981440">
        <ele>810.334</ele>
        <time>2019-03-25T22:31:05Z</time>
      </trkpt>
      <trkpt lat="42.189110" lon="-5.981340">
        <ele>810.435</ele>
        <time>2019-03-25T22:31:25Z</time>
      </trkpt>
      <trkpt lat="42.189645" lon="-5.981305">
        <ele>810.746</ele>
        <time>2019-03-25T22:31:45Z</time>
      </trkpt>
      <trkpt lat="42.190180" lon="-5.981270">
        <ele>810.645</ele>
        <time>2019-03-25T22:32:05Z</time>
      </trkpt>
      <trkpt lat="42.190440" lon="-5.981270">
        <ele>810.637</ele>
        <time>2019-03-25T22:32:25Z</time>
      </trkpt>
      <trkpt lat="42.190580" lon="-5.981310">
        <ele>810.775</ele>
        <time>2019-03-25T22:32:45Z</time>
      </trkpt>
      <trkpt lat="42.191120" lon="-5.981385">
        <ele>810.048</ele>
        <time>2019-03-25T22:33:05Z</time>
      </trkpt>
      <trkpt lat="42.191660" lon="-5.981460">
        <ele>808.930</ele>
        <time>2019-03-25T22:33:25Z</time>
      </trkpt>
      <trkpt lat="42.192250" lon="-5.981480">
        <ele>808.952</ele>
        <time>2019-03-25T22:33:45Z</time>
      </trkpt>
      <trkpt lat="42.193070" lon="-5.981600">
        <ele>809.853</ele>
        <time>2019-03-25T22:34:05Z</time>
      </trkpt>
      <trkpt lat="42.193320" lon="-5.981620">
        <ele>810.508</ele>
        <time>2019-03-25T22:34:25Z</time>
      </trkpt>
      <trkpt lat="42.193480" lon="-5.981580">
        <ele>810.508</ele>
        <time>2019-03-25T22:34:45Z</time>
      </trkpt>
      <trkpt lat="42.194250" lon="-5.981160">
        <ele>810.598</ele>
        <time>2019-03-25T22:35:05Z</time>
      </trkpt>
      <trkpt lat="42.194670" lon="-5.981080">
        <ele>810.269</ele>
        <time>2019-03-25T22:35:25Z</time>
      </trkpt>
      <trkpt lat="42.195140" lon="-5.981215">
        <ele>810.560</ele>
        <time>2019-03-25T22:35:45Z</time>
      </trkpt>
      <trkpt lat="42.195610" lon="-5.981350">
        <ele>810.999</ele>
        <time>2019-03-25T22:36:05Z</time>
      </trkpt>
      <trkpt lat="42.196265" lon="-5.981600">
        <ele>811.541</ele>
        <time>2019-03-25T22:36:25Z</time>
      </trkpt>
      <trkpt lat="42.196920" lon="-5.981850">
        <ele>811.979</ele>
        <time>2019-03-25T22:36:45Z</time>
      </trkpt>
      <trkpt lat="42.197575" lon="-5.982100">
        <ele>813.012</ele>
        <time>2019-03-25T22:37:05Z</time>
      </trkpt>
      <trkpt lat="42.198230" lon="-5.982350">
        <ele>814.684</ele>
        <time>2019-03-25T22:37:25Z</time>
      </trkpt>
      <trkpt lat="42.198490" lon="-5.982330">
        <ele>815.946</ele>
        <time>2019-03-25T22:37:45Z</time>
      </trkpt>
      <trkpt lat="42.198820" lon="-5.982210">
        <ele>816.588</ele>
        <time>2019-03-25T22:38:05Z</time>
      </trkpt>
      <trkpt lat="42.199410" lon="-5.981930">
        <ele>817.516</ele>
        <time>2019-03-25T22:38:25Z</time>
      </trkpt>
      <trkpt lat="42.200040" lon="-5.981800">
        <ele>820.908</ele>
        <time>2019-03-25T22:38:45Z</time>
      </trkpt>
      <trkpt lat="42.200160" lon="-5.981830">
        <ele>821.997</ele>
        <time>2019-03-25T22:39:05Z</time>
      </trkpt>
      <trkpt lat="42.200270" lon="-5.981920">
        <ele>822.218</ele>
        <time>2019-03-25T22:39:25Z</time>
      </trkpt>
      <trkpt lat="42.200500" lon="-5.982180">
        <ele>823.299</ele>
        <time>2019-03-25T22:39:45Z</time>
      </trkpt>
      <trkpt lat="42.201120" lon="-5.982560">
        <ele>827.828</ele>
        <time>2019-03-25T22:40:05Z</time>
      </trkpt>
      <trkpt lat="42.201740" lon="-5.982940">
        <ele>832.490</ele>
        <time>2019-03-25T22:40:25Z</time>
      </trkpt>
      <trkpt lat="42.201990" lon="-5.983000">
        <ele>834.618</ele>
        <time>2019-03-25T22:40:45Z</time>
      </trkpt>
      <trkpt lat="42.202220" lon="-5.982980">
        <ele>835.411</ele>
        <time>2019-03-25T22:41:05Z</time>
      </trkpt>
      <trkpt lat="42.202470" lon="-5.982930">
        <ele>837.683</ele>
        <time>2019-03-25T22:41:25Z</time>
      </trkpt>
      <trkpt lat="42.203128" lon="-5.982683">
        <ele>840.056</ele>
        <time>2019-03-25T22:41:45Z</time>
      </trkpt>
      <trkpt lat="42.203785" lon="-5.982435">
        <ele>839.759</ele>
        <time>2019-03-25T22:42:05Z</time>
      </trkpt>
      <trkpt lat="42.204443" lon="-5.982188">
        <ele>839.314</ele>
        <time>2019-03-25T22:42:25Z</time>
      </trkpt>
      <trkpt lat="42.205100" lon="-5.981940">
        <ele>838.608</ele>
        <time>2019-03-25T22:42:45Z</time>
      </trkpt>
      <trkpt lat="42.205920" lon="-5.981637">
        <ele>839.458</ele>
        <time>2019-03-25T22:43:05Z</time>
      </trkpt>
      <trkpt lat="42.206740" lon="-5.981333">
        <ele>841.279</ele>
        <time>2019-03-25T22:43:25Z</time>
      </trkpt>
      <trkpt lat="42.207560" lon="-5.981030">
        <ele>841.760</ele>
        <time>2019-03-25T22:43:45Z</time>
      </trkpt>
      <trkpt lat="42.208020" lon="-5.980710">
        <ele>841.659</ele>
        <time>2019-03-25T22:44:05Z</time>
      </trkpt>
      <trkpt lat="42.208370" lon="-5.980210">
        <ele>840.951</ele>
        <time>2019-03-25T22:44:25Z</time>
      </trkpt>
      <trkpt lat="42.208840" lon="-5.979230">
        <ele>838.079</ele>
        <time>2019-03-25T22:44:45Z</time>
      </trkpt>
      <trkpt lat="42.209200" lon="-5.978590">
        <ele>834.372</ele>
        <time>2019-03-25T22:45:05Z</time>
      </trkpt>
      <trkpt lat="42.209730" lon="-5.977890">
        <ele>831.064</ele>
        <time>2019-03-25T22:45:25Z</time>
      </trkpt>
      <trkpt lat="42.210500" lon="-5.977280">
        <ele>825.496</ele>
        <time>2019-03-25T22:45:45Z</time>
      </trkpt>
      <trkpt lat="42.211270" lon="-5.976850">
        <ele>821.231</ele>
        <time>2019-03-25T22:46:05Z</time>
      </trkpt>
      <trkpt lat="42.212040" lon="-5.976420">
        <ele>819.924</ele>
        <time>2019-03-25T22:46:25Z</time>
      </trkpt>
      <trkpt lat="42.212810" lon="-5.975990">
        <ele>820.108</ele>
        <time>2019-03-25T22:46:45Z</time>
      </trkpt>
      <trkpt lat="42.213310" lon="-5.975465">
        <ele>817.872</ele>
        <time>2019-03-25T22:47:05Z</time>
      </trkpt>
      <trkpt lat="42.213810" lon="-5.974940">
        <ele>817.133</ele>
        <time>2019-03-25T22:47:25Z</time>
      </trkpt>
      <trkpt lat="42.214250" lon="-5.974385">
        <ele>818.564</ele>
        <time>2019-03-25T22:47:45Z</time>
      </trkpt>
      <trkpt lat="42.214690" lon="-5.973830">
        <ele>821.833</ele>
        <time>2019-03-25T22:48:05Z</time>
      </trkpt>
      <trkpt lat="42.214980" lon="-5.973340">
        <ele>824.455</ele>
        <time>2019-03-25T22:48:25Z</time>
      </trkpt>
      <trkpt lat="42.215320" lon="-5.972390">
        <ele>829.833</ele>
        <time>2019-03-25T22:48:45Z</time>
      </trkpt>
      <trkpt lat="42.215660" lon="-5.971440">
        <ele>833.096</ele>
        <time>2019-03-25T22:49:05Z</time>
      </trkpt>
      <trkpt lat="42.215950" lon="-5.970840">
        <ele>835.438</ele>
        <time>2019-03-25T22:49:25Z</time>
      </trkpt>
      <trkpt lat="42.216240" lon="-5.970240">
        <ele>836.715</ele>
        <time>2019-03-25T22:49:45Z</time>
      </trkpt>
      <trkpt lat="42.216830" lon="-5.969463">
        <ele>836.965</ele>
        <time>2019-03-25T22:50:05Z</time>
      </trkpt>
      <trkpt lat="42.217420" lon="-5.968685">
        <ele>838.711</ele>
        <time>2019-03-25T22:50:25Z</time>
      </trkpt>
      <trkpt lat="42.218010" lon="-5.967908">
        <ele>840.308</ele>
        <time>2019-03-25T22:50:45Z</time>
      </trkpt>
      <trkpt lat="42.218600" lon="-5.967130">
        <ele>841.574</ele>
        <time>2019-03-25T22:51:05Z</time>
      </trkpt>
      <trkpt lat="42.219145" lon="-5.966375">
        <ele>844.565</ele>
        <time>2019-03-25T22:51:25Z</time>
      </trkpt>
      <trkpt lat="42.219690" lon="-5.965620">
        <ele>847.246</ele>
        <time>2019-03-25T22:51:45Z</time>
      </trkpt>
      <trkpt lat="42.219850" lon="-5.965510">
        <ele>847.285</ele>
        <time>2019-03-25T22:52:05Z</time>
      </trkpt>
      <trkpt lat="42.219970" lon="-5.965480">
        <ele>847.247</ele>
        <time>2019-03-25T22:52:25Z</time>
      </trkpt>
      <trkpt lat="42.220540" lon="-5.964890">
        <ele>853.935</ele>
        <time>2019-03-25T22:52:45Z</time>
      </trkpt>
      <trkpt lat="42.220700" lon="-5.964800">
        <ele>854.278</ele>
        <time>2019-03-25T22:53:05Z</time>
      </trkpt>
      <trkpt lat="42.221440" lon="-5.964490">
        <ele>856.990</ele>
        <time>2019-03-25T22:53:25Z</time>
      </trkpt>
      <trkpt lat="42.222100" lon="-5.964250">
        <ele>860.156</ele>
        <time>2019-03-25T22:53:45Z</time>
      </trkpt>
      <trkpt lat="42.222290" lon="-5.964570">
        <ele>860.259</ele>
        <time>2019-03-25T22:54:05Z</time>
      </trkpt>
      <trkpt lat="42.222200" lon="-5.964200">
        <ele>861.014</ele>
        <time>2019-03-25T22:54:25Z</time>
      </trkpt>
      <trkpt lat="42.222900" lon="-5.963900">
        <ele>866.108</ele>
        <time>2019-03-25T22:54:45Z</time>
      </trkpt>
      <trkpt lat="42.223600" lon="-5.963600">
        <ele>873.798</ele>
        <time>2019-03-25T22:55:05Z</time>
      </trkpt>
      <trkpt lat="42.223840" lon="-5.963540">
        <ele>874.819</ele>
        <time>2019-03-25T22:55:25Z</time>
      </trkpt>
      <trkpt lat="42.223960" lon="-5.963440">
        <ele>877.850</ele>
        <time>2019-03-25T22:55:45Z</time>
      </trkpt>
      <trkpt lat="42.224350" lon="-5.963250">
        <ele>884.529</ele>
        <time>2019-03-25T22:56:05Z</time>
      </trkpt>
      <trkpt lat="42.224460" lon="-5.963210">
        <ele>884.571</ele>
        <time>2019-03-25T22:56:25Z</time>
      </trkpt>
      <trkpt lat="42.224530" lon="-5.963230">
        <ele>886.069</ele>
        <time>2019-03-25T22:56:45Z</time>
      </trkpt>
      <trkpt lat="42.224570" lon="-5.963200">
        <ele>886.092</ele>
        <time>2019-03-25T22:57:05Z</time>
      </trkpt>
      <trkpt lat="42.224700" lon="-5.962970">
        <ele>888.814</ele>
        <time>2019-03-25T22:57:25Z</time>
      </trkpt>
      <trkpt lat="42.224810" lon="-5.962880">
        <ele>889.866</ele>
        <time>2019-03-25T22:57:45Z</time>
      </trkpt>
      <trkpt lat="42.225330" lon="-5.962690">
        <ele>893.529</ele>
        <time>2019-03-25T22:58:05Z</time>
      </trkpt>
      <trkpt lat="42.225990" lon="-5.962210">
        <ele>898.421</ele>
        <time>2019-03-25T22:58:25Z</time>
      </trkpt>
      <trkpt lat="42.225990" lon="-5.961970">
        <ele>892.908</ele>
        <time>2019-03-25T22:58:45Z</time>
      </trkpt>
      <trkpt lat="42.226720" lon="-5.961975">
        <ele>894.059</ele>
        <time>2019-03-25T22:59:05Z</time>
      </trkpt>
      <trkpt lat="42.227450" lon="-5.961980">
        <ele>893.280</ele>
        <time>2019-03-25T22:59:25Z</time>
      </trkpt>
      <trkpt lat="42.228180" lon="-5.961985">
        <ele>890.111</ele>
        <time>2019-03-25T22:59:45Z</time>
      </trkpt>
      <trkpt lat="42.228910" lon="-5.961990">
        <ele>883.750</ele>
        <time>2019-03-25T23:00:05Z</time>
      </trkpt>
      <trkpt lat="42.229320" lon="-5.961800">
        <ele>881.912</ele>
        <time>2019-03-25T23:00:25Z</time>
      </trkpt>
      <trkpt lat="42.229560" lon="-5.961650">
        <ele>879.790</ele>
        <time>2019-03-25T23:00:45Z</time>
      </trkpt>
      <trkpt lat="42.230293" lon="-5.961107">
        <ele>874.523</ele>
        <time>2019-03-25T23:01:05Z</time>
      </trkpt>
      <trkpt lat="42.231027" lon="-5.960563">
        <ele>870.935</ele>
        <time>2019-03-25T23:01:25Z</time>
      </trkpt>
      <trkpt lat="42.231760" lon="-5.960020">
        <ele>865.674</ele>
        <time>2019-03-25T23:01:45Z</time>
      </trkpt>
      <trkpt lat="42.232493" lon="-5.959613">
        <ele>861.356</ele>
        <time>2019-03-25T23:02:05Z</time>
      </trkpt>
      <trkpt lat="42.233225" lon="-5.959205">
        <ele>856.621</ele>
        <time>2019-03-25T23:02:25Z</time>
      </trkpt>
      <trkpt lat="42.233958" lon="-5.958798">
        <ele>850.908</ele>
        <time>2019-03-25T23:02:45Z</time>
      </trkpt>
      <trkpt lat="42.234690" lon="-5.958390">
        <ele>847.890</ele>
        <time>2019-03-25T23:03:05Z</time>
      </trkpt>
      <trkpt lat="42.234920" lon="-5.958930">
        <ele>848.121</ele>
        <time>2019-03-25T23:03:25Z</time>
      </trkpt>
      <trkpt lat="42.235271" lon="-5.959856">
        <ele>847.842</ele>
        <time>2019-03-25T23:03:45Z</time>
      </trkpt>
      <trkpt lat="42.235623" lon="-5.960781">
        <ele>849.231</ele>
        <time>2019-03-25T23:04:05Z</time>
      </trkpt>
      <trkpt lat="42.235974" lon="-5.961707">
        <ele>849.053</ele>
        <time>2019-03-25T23:04:25Z</time>
      </trkpt>
      <trkpt lat="42.236326" lon="-5.962633">
        <ele>848.451</ele>
        <time>2019-03-25T23:04:45Z</time>
      </trkpt>
      <trkpt lat="42.236677" lon="-5.963559">
        <ele>847.564</ele>
        <time>2019-03-25T23:05:05Z</time>
      </trkpt>
      <trkpt lat="42.237029" lon="-5.964484">
        <ele>847.536</ele>
        <time>2019-03-25T23:05:25Z</time>
      </trkpt>
      <trkpt lat="42.237380" lon="-5.965410">
        <ele>847.585</ele>
        <time>2019-03-25T23:05:45Z</time>
      </trkpt>
      <trkpt lat="42.237430" lon="-5.965670">
        <ele>848.089</ele>
        <time>2019-03-25T23:06:05Z</time>
      </trkpt>
      <trkpt lat="42.237500" lon="-5.965760">
        <ele>848.117</ele>
        <time>2019-03-25T23:06:25Z</time>
      </trkpt>
      <trkpt lat="42.237580" lon="-5.965920">
        <ele>848.108</ele>
        <time>2019-03-25T23:06:45Z</time>
      </trkpt>
      <trkpt lat="42.237500" lon="-5.965760">
        <ele>848.191</ele>
        <time>2019-03-25T23:07:05Z</time>
      </trkpt>
      <trkpt lat="42.237640" lon="-5.965690">
        <ele>848.162</ele>
        <time>2019-03-25T23:07:25Z</time>
      </trkpt>
      <trkpt lat="42.238208" lon="-5.965002">
        <ele>848.193</ele>
        <time>2019-03-25T23:07:45Z</time>
      </trkpt>
      <trkpt lat="42.238776" lon="-5.964314">
        <ele>848.182</ele>
        <time>2019-03-25T23:08:05Z</time>
      </trkpt>
      <trkpt lat="42.239344" lon="-5.963626">
        <ele>848.164</ele>
        <time>2019-03-25T23:08:25Z</time>
      </trkpt>
      <trkpt lat="42.239912" lon="-5.962938">
        <ele>848.172</ele>
        <time>2019-03-25T23:08:45Z</time>
      </trkpt>
      <trkpt lat="42.240480" lon="-5.962250">
        <ele>848.185</ele>
        <time>2019-03-25T23:09:05Z</time>
      </trkpt>
      <trkpt lat="42.241058" lon="-5.961610">
        <ele>848.117</ele>
        <time>2019-03-25T23:09:25Z</time>
      </trkpt>
      <trkpt lat="42.241636" lon="-5.960970">
        <ele>848.178</ele>
        <time>2019-03-25T23:09:45Z</time>
      </trkpt>
      <trkpt lat="42.242214" lon="-5.960330">
        <ele>848.133</ele>
        <time>2019-03-25T23:10:05Z</time>
      </trkpt>
      <trkpt lat="42.242792" lon="-5.959690">
        <ele>848.126</ele>
        <time>2019-03-25T23:10:25Z</time>
      </trkpt>
      <trkpt lat="42.243370" lon="-5.959050">
        <ele>848.108</ele>
        <time>2019-03-25T23:10:45Z</time>
      </trkpt>
      <trkpt lat="42.243943" lon="-5.958428">
        <ele>848.150</ele>
        <time>2019-03-25T23:11:05Z</time>
      </trkpt>
      <trkpt lat="42.244515" lon="-5.957805">
        <ele>848.121</ele>
        <time>2019-03-25T23:11:25Z</time>
      </trkpt>
      <trkpt lat="42.245088" lon="-5.957183">
        <ele>848.162</ele>
        <time>2019-03-25T23:11:45Z</time>
      </trkpt>
      <trkpt lat="42.245660" lon="-5.956560">
        <ele>801.741</ele>
        <time>2019-03-25T23:12:05Z</time>
      </trkpt>
      <trkpt lat="42.246214" lon="-5.955632">
        <ele>801.783</ele>
        <time>2019-03-25T23:12:25Z</time>
      </trkpt>
      <trkpt lat="42.246768" lon="-5.954704">
        <ele>801.751</ele>
        <time>2019-03-25T23:12:45Z</time>
      </trkpt>
      <trkpt lat="42.247322" lon="-5.953776">
        <ele>801.724</ele>
        <time>2019-03-25T23:13:05Z</time>
      </trkpt>
      <trkpt lat="42.247876" lon="-5.952848">
        <ele>801.786</ele>
        <time>2019-03-25T23:13:25Z</time>
      </trkpt>
      <trkpt lat="42.248430" lon="-5.951920">
        <ele>801.773</ele>
        <time>2019-03-25T23:13:45Z</time>
      </trkpt>
      <trkpt lat="42.248750" lon="-5.951640">
        <ele>801.785</ele>
        <time>2019-03-25T23:14:05Z</time>
      </trkpt>
      <trkpt lat="42.249180" lon="-5.951210">
        <ele>801.713</ele>
        <time>2019-03-25T23:14:25Z</time>
      </trkpt>
      <trkpt lat="42.249823" lon="-5.950478">
        <ele>801.708</ele>
        <time>2019-03-25T23:14:45Z</time>
      </trkpt>
      <trkpt lat="42.250465" lon="-5.949745">
        <ele>801.730</ele>
        <time>2019-03-25T23:15:05Z</time>
      </trkpt>
      <trkpt lat="42.251108" lon="-5.949013">
        <ele>801.761</ele>
        <time>2019-03-25T23:15:25Z</time>
      </trkpt>
      <trkpt lat="42.251750" lon="-5.948280">
        <ele>801.752</ele>
        <time>2019-03-25T23:15:45Z</time>
      </trkpt>
      <trkpt lat="42.252160" lon="-5.947770">
        <ele>801.771</ele>
        <time>2019-03-25T23:16:05Z</time>
      </trkpt>
      <trkpt lat="42.252587" lon="-5.947130">
        <ele>801.763</ele>
        <time>2019-03-25T23:16:25Z</time>
      </trkpt>
      <trkpt lat="42.253013" lon="-5.946490">
        <ele>800.241</ele>
        <time>2019-03-25T23:16:45Z</time>
      </trkpt>
      <trkpt lat="42.253440" lon="-5.945850">
        <ele>800.254</ele>
        <time>2019-03-25T23:17:05Z</time>
      </trkpt>
      <trkpt lat="42.253870" lon="-5.945215">
        <ele>800.276</ele>
        <time>2019-03-25T23:17:25Z</time>
      </trkpt>
      <trkpt lat="42.254300" lon="-5.944580">
        <ele>800.249</ele>
        <time>2019-03-25T23:17:45Z</time>
      </trkpt>
      <trkpt lat="42.255055" lon="-5.943980">
        <ele>800.202</ele>
        <time>2019-03-25T23:18:05Z</time>
      </trkpt>
      <trkpt lat="42.255810" lon="-5.943380">
        <ele>800.222</ele>
        <time>2019-03-25T23:18:25Z</time>
      </trkpt>
      <trkpt lat="42.256565" lon="-5.942780">
        <ele>800.208</ele>
        <time>2019-03-25T23:18:45Z</time>
      </trkpt>
      <trkpt lat="42.257320" lon="-5.942180">
        <ele>800.257</ele>
        <time>2019-03-25T23:19:05Z</time>
      </trkpt>
      <trkpt lat="42.258080" lon="-5.941675">
        <ele>800.298</ele>
        <time>2019-03-25T23:19:25Z</time>
      </trkpt>
      <trkpt lat="42.258840" lon="-5.941170">
        <ele>800.289</ele>
        <time>2019-03-25T23:19:45Z</time>
      </trkpt>
      <trkpt lat="42.258980" lon="-5.940820">
        <ele>786.628</ele>
        <time>2019-03-25T23:20:05Z</time>
      </trkpt>
      <trkpt lat="42.259220" lon="-5.940140">
        <ele>786.680</ele>
        <time>2019-03-25T23:20:25Z</time>
      </trkpt>
      <trkpt lat="42.259460" lon="-5.939460">
        <ele>786.638</ele>
        <time>2019-03-25T23:20:45Z</time>
      </trkpt>
      <trkpt lat="42.259620" lon="-5.939230">
        <ele>786.631</ele>
        <time>2019-03-25T23:21:05Z</time>
      </trkpt>
      <trkpt lat="42.260180" lon="-5.938557">
        <ele>786.683</ele>
        <time>2019-03-25T23:21:25Z</time>
      </trkpt>
      <trkpt lat="42.260740" lon="-5.937883">
        <ele>786.655</ele>
        <time>2019-03-25T23:21:45Z</time>
      </trkpt>
      <trkpt lat="42.261300" lon="-5.937210">
        <ele>786.607</ele>
        <time>2019-03-25T23:22:05Z</time>
      </trkpt>
      <trkpt lat="42.261860" lon="-5.936537">
        <ele>786.617</ele>
        <time>2019-03-25T23:22:25Z</time>
      </trkpt>
      <trkpt lat="42.262420" lon="-5.935863">
        <ele>786.608</ele>
        <time>2019-03-25T23:22:45Z</time>
      </trkpt>
      <trkpt lat="42.262980" lon="-5.935190">
        <ele>786.618</ele>
        <time>2019-03-25T23:23:05Z</time>
      </trkpt>
      <trkpt lat="42.263220" lon="-5.934860">
        <ele>786.639</ele>
        <time>2019-03-25T23:23:25Z</time>
      </trkpt>
      <trkpt lat="42.263240" lon="-5.934640">
        <ele>786.660</ele>
        <time>2019-03-25T23:23:45Z</time>
      </trkpt>
      <trkpt lat="42.263883" lon="-5.934277">
        <ele>785.789</ele>
        <time>2019-03-25T23:24:05Z</time>
      </trkpt>
      <trkpt lat="42.264527" lon="-5.933913">
        <ele>784.761</ele>
        <time>2019-03-25T23:24:25Z</time>
      </trkpt>
      <trkpt lat="42.265170" lon="-5.933550">
        <ele>782.939</ele>
        <time>2019-03-25T23:24:45Z</time>
      </trkpt>
      <trkpt lat="42.265815" lon="-5.932932">
        <ele>779.252</ele>
        <time>2019-03-25T23:25:05Z</time>
      </trkpt>
      <trkpt lat="42.266460" lon="-5.932313">
        <ele>777.564</ele>
        <time>2019-03-25T23:25:25Z</time>
      </trkpt>
      <trkpt lat="42.267105" lon="-5.931695">
        <ele>775.662</ele>
        <time>2019-03-25T23:25:45Z</time>
      </trkpt>
      <trkpt lat="42.267750" lon="-5.931077">
        <ele>775.583</ele>
        <time>2019-03-25T23:26:05Z</time>
      </trkpt>
      <trkpt lat="42.268395" lon="-5.930458">
        <ele>774.911</ele>
        <time>2019-03-25T23:26:25Z</time>
      </trkpt>
      <trkpt lat="42.269040" lon="-5.929840">
        <ele>774.408</ele>
        <time>2019-03-25T23:26:45Z</time>
      </trkpt>
      <trkpt lat="42.269470" lon="-5.929470">
        <ele>775.619</ele>
        <time>2019-03-25T23:27:05Z</time>
      </trkpt>
      <trkpt lat="42.269820" lon="-5.929055">
        <ele>776.380</ele>
        <time>2019-03-25T23:27:25Z</time>
      </trkpt>
      <trkpt lat="42.270170" lon="-5.928640">
        <ele>776.541</ele>
        <time>2019-03-25T23:27:45Z</time>
      </trkpt>
      <trkpt lat="42.270760" lon="-5.927797">
        <ele>776.590</ele>
        <time>2019-03-25T23:28:05Z</time>
      </trkpt>
      <trkpt lat="42.271350" lon="-5.926953">
        <ele>775.782</ele>
        <time>2019-03-25T23:28:25Z</time>
      </trkpt>
      <trkpt lat="42.271940" lon="-5.926110">
        <ele>778.850</ele>
        <time>2019-03-25T23:28:45Z</time>
      </trkpt>
      <trkpt lat="42.272370" lon="-5.925690">
        <ele>784.413</ele>
        <time>2019-03-25T23:29:05Z</time>
      </trkpt>
      <trkpt lat="42.272530" lon="-5.925560">
        <ele>785.245</ele>
        <time>2019-03-25T23:29:25Z</time>
      </trkpt>
      <trkpt lat="42.272520" lon="-5.925570">
        <ele>785.138</ele>
        <time>2019-03-25T23:29:45Z</time>
      </trkpt>
      <trkpt lat="42.272860" lon="-5.925290">
        <ele>786.770</ele>
        <time>2019-03-25T23:30:05Z</time>
      </trkpt>
      <trkpt lat="42.273659" lon="-5.924784">
        <ele>789.617</ele>
        <time>2019-03-25T23:30:25Z</time>
      </trkpt>
      <trkpt lat="42.274458" lon="-5.924278">
        <ele>792.108</ele>
        <time>2019-03-25T23:30:45Z</time>
      </trkpt>
      <trkpt lat="42.275256" lon="-5.923771">
        <ele>791.566</ele>
        <time>2019-03-25T23:31:05Z</time>
      </trkpt>
      <trkpt lat="42.276055" lon="-5.923265">
        <ele>791.567</ele>
        <time>2019-03-25T23:31:25Z</time>
      </trkpt>
      <trkpt lat="42.276854" lon="-5.922759">
        <ele>791.668</ele>
        <time>2019-03-25T23:31:45Z</time>
      </trkpt>
      <trkpt lat="42.277653" lon="-5.922253">
        <ele>791.717</ele>
        <time>2019-03-25T23:32:05Z</time>
      </trkpt>
      <trkpt lat="42.278451" lon="-5.921746">
        <ele>791.969</ele>
        <time>2019-03-25T23:32:25Z</time>
      </trkpt>
      <trkpt lat="42.279250" lon="-5.921240">
        <ele>791.817</ele>
        <time>2019-03-25T23:32:45Z</time>
      </trkpt>
      <trkpt lat="42.279907" lon="-5.920710">
        <ele>791.830</ele>
        <time>2019-03-25T23:33:05Z</time>
      </trkpt>
      <trkpt lat="42.280563" lon="-5.920180">
        <ele>791.892</ele>
        <time>2019-03-25T23:33:25Z</time>
      </trkpt>
      <trkpt lat="42.281220" lon="-5.919650">
        <ele>790.821</ele>
        <time>2019-03-25T23:33:45Z</time>
      </trkpt>
      <trkpt lat="42.281770" lon="-5.919165">
        <ele>789.341</ele>
        <time>2019-03-25T23:34:05Z</time>
      </trkpt>
      <trkpt lat="42.282320" lon="-5.918680">
        <ele>787.605</ele>
        <time>2019-03-25T23:34:25Z</time>
      </trkpt>
      <trkpt lat="42.282913" lon="-5.918187">
        <ele>786.308</ele>
        <time>2019-03-25T23:34:45Z</time>
      </trkpt>
      <trkpt lat="42.283507" lon="-5.917693">
        <ele>785.835</ele>
        <time>2019-03-25T23:35:05Z</time>
      </trkpt>
      <trkpt lat="42.284100" lon="-5.917200">
        <ele>784.616</ele>
        <time>2019-03-25T23:35:25Z</time>
      </trkpt>
      <trkpt lat="42.284720" lon="-5.916770">
        <ele>784.637</ele>
        <time>2019-03-25T23:35:45Z</time>
      </trkpt>
      <trkpt lat="42.285400" lon="-5.916240">
        <ele>783.646</ele>
        <time>2019-03-25T23:36:05Z</time>
      </trkpt>
      <trkpt lat="42.285630" lon="-5.916190">
        <ele>782.578</ele>
        <time>2019-03-25T23:36:25Z</time>
      </trkpt>
      <trkpt lat="42.285860" lon="-5.916170">
        <ele>782.266</ele>
        <time>2019-03-25T23:36:45Z</time>
      </trkpt>
      <trkpt lat="42.286100" lon="-5.916230">
        <ele>781.329</ele>
        <time>2019-03-25T23:37:05Z</time>
      </trkpt>
      <trkpt lat="42.286260" lon="-5.916230">
        <ele>780.951</ele>
        <time>2019-03-25T23:37:25Z</time>
      </trkpt>
      <trkpt lat="42.286430" lon="-5.916220">
        <ele>780.963</ele>
        <time>2019-03-25T23:37:45Z</time>
      </trkpt>
      <trkpt lat="42.286530" lon="-5.916150">
        <ele>780.844</ele>
        <time>2019-03-25T23:38:05Z</time>
      </trkpt>
      <trkpt lat="42.286680" lon="-5.916190">
        <ele>780.718</ele>
        <time>2019-03-25T23:38:25Z</time>
      </trkpt>
      <trkpt lat="42.286820" lon="-5.916100">
        <ele>780.708</ele>
        <time>2019-03-25T23:38:45Z</time>
      </trkpt>
      <trkpt lat="42.286970" lon="-5.915910">
        <ele>780.559</ele>
        <time>2019-03-25T23:39:05Z</time>
      </trkpt>
      <trkpt lat="42.287480" lon="-5.915160">
        <ele>778.960</ele>
        <time>2019-03-25T23:39:25Z</time>
      </trkpt>
      <trkpt lat="42.287830" lon="-5.914780">
        <ele>779.261</ele>
        <time>2019-03-25T23:39:45Z</time>
      </trkpt>
      <trkpt lat="42.288020" lon="-5.914620">
        <ele>780.020</ele>
        <time>2019-03-25T23:40:05Z</time>
      </trkpt>
      <trkpt lat="42.288600" lon="-5.914325">
        <ele>781.032</ele>
        <time>2019-03-25T23:40:25Z</time>
      </trkpt>
      <trkpt lat="42.289180" lon="-5.914030">
        <ele>782.640</ele>
        <time>2019-03-25T23:40:45Z</time>
      </trkpt>
      <trkpt lat="42.289520" lon="-5.913790">
        <ele>784.813</ele>
        <time>2019-03-25T23:41:05Z</time>
      </trkpt>
      <trkpt lat="42.289985" lon="-5.913290">
        <ele>786.875</ele>
        <time>2019-03-25T23:41:25Z</time>
      </trkpt>
      <trkpt lat="42.290450" lon="-5.912790">
        <ele>787.291</ele>
        <time>2019-03-25T23:41:45Z</time>
      </trkpt>
      <trkpt lat="42.290993" lon="-5.912313">
        <ele>787.481</ele>
        <time>2019-03-25T23:42:05Z</time>
      </trkpt>
      <trkpt lat="42.291537" lon="-5.911837">
        <ele>787.419</ele>
        <time>2019-03-25T23:42:25Z</time>
      </trkpt>
      <trkpt lat="42.292080" lon="-5.911360">
        <ele>787.908</ele>
        <time>2019-03-25T23:42:45Z</time>
      </trkpt>
      <trkpt lat="42.292720" lon="-5.910830">
        <ele>789.062</ele>
        <time>2019-03-25T23:43:05Z</time>
      </trkpt>
      <trkpt lat="42.292690" lon="-5.910700">
        <ele>789.573</ele>
        <time>2019-03-25T23:43:25Z</time>
      </trkpt>
      <trkpt lat="42.292720" lon="-5.910560">
        <ele>789.564</ele>
        <time>2019-03-25T23:43:45Z</time>
      </trkpt>
      <trkpt lat="42.292780" lon="-5.910510">
        <ele>789.513</ele>
        <time>2019-03-25T23:44:05Z</time>
      </trkpt>
      <trkpt lat="42.292850" lon="-5.910490">
        <ele>790.655</ele>
        <time>2019-03-25T23:44:25Z</time>
      </trkpt>
      <trkpt lat="42.292930" lon="-5.910500">
        <ele>790.633</ele>
        <time>2019-03-25T23:44:45Z</time>
      </trkpt>
      <trkpt lat="42.292990" lon="-5.910570">
        <ele>790.686</ele>
        <time>2019-03-25T23:45:05Z</time>
      </trkpt>
      <trkpt lat="42.293395" lon="-5.910140">
        <ele>793.388</ele>
        <time>2019-03-25T23:45:25Z</time>
      </trkpt>
      <trkpt lat="42.293800" lon="-5.909710">
        <ele>794.775</ele>
        <time>2019-03-25T23:45:45Z</time>
      </trkpt>
      <trkpt lat="42.294290" lon="-5.909140">
        <ele>795.428</ele>
        <time>2019-03-25T23:46:05Z</time>
      </trkpt>
      <trkpt lat="42.294780" lon="-5.908570">
        <ele>793.820</ele>
        <time>2019-03-25T23:46:25Z</time>
      </trkpt>
      <trkpt lat="42.295330" lon="-5.907827">
        <ele>790.708</ele>
        <time>2019-03-25T23:46:45Z</time>
      </trkpt>
      <trkpt lat="42.295880" lon="-5.907083">
        <ele>787.030</ele>
        <time>2019-03-25T23:47:05Z</time>
      </trkpt>
      <trkpt lat="42.296430" lon="-5.906340">
        <ele>784.091</ele>
        <time>2019-03-25T23:47:25Z</time>
      </trkpt>
      <trkpt lat="42.296540" lon="-5.906130">
        <ele>782.812</ele>
        <time>2019-03-25T23:47:45Z</time>
      </trkpt>
      <trkpt lat="42.296600" lon="-5.905730">
        <ele>782.231</ele>
        <time>2019-03-25T23:48:05Z</time>
      </trkpt>
      <trkpt lat="42.296780" lon="-5.904870">
        <ele>780.373</ele>
        <time>2019-03-25T23:48:25Z</time>
      </trkpt>
      <trkpt lat="42.296900" lon="-5.904110">
        <ele>780.251</ele>
        <time>2019-03-25T23:48:45Z</time>
      </trkpt>
      <trkpt lat="42.296940" lon="-5.903910">
        <ele>780.434</ele>
        <time>2019-03-25T23:49:05Z</time>
      </trkpt>
      <trkpt lat="42.297170" lon="-5.903200">
        <ele>782.696</ele>
        <time>2019-03-25T23:49:25Z</time>
      </trkpt>
      <trkpt lat="42.297670" lon="-5.902200">
        <ele>780.494</ele>
        <time>2019-03-25T23:49:45Z</time>
      </trkpt>
      <trkpt lat="42.297810" lon="-5.901860">
        <ele>779.557</ele>
        <time>2019-03-25T23:50:05Z</time>
      </trkpt>
      <trkpt lat="42.297950" lon="-5.900800">
        <ele>778.922</ele>
        <time>2019-03-25T23:50:25Z</time>
      </trkpt>
      <trkpt lat="42.298380" lon="-5.900060">
        <ele>777.908</ele>
        <time>2019-03-25T23:50:45Z</time>
      </trkpt>
      <trkpt lat="42.298660" lon="-5.899370">
        <ele>776.912</ele>
        <time>2019-03-25T23:51:05Z</time>
      </trkpt>
      <trkpt lat="42.298720" lon="-5.899290">
        <ele>776.933</ele>
        <time>2019-03-25T23:51:25Z</time>
      </trkpt>
      <trkpt lat="42.298720" lon="-5.899300">
        <ele>776.964</ele>
        <time>2019-03-25T23:51:45Z</time>
      </trkpt>
      <trkpt lat="42.298960" lon="-5.899010">
        <ele>777.223</ele>
        <time>2019-03-25T23:52:05Z</time>
      </trkpt>
      <trkpt lat="42.299500" lon="-5.898170">
        <ele>777.845</ele>
        <time>2019-03-25T23:52:25Z</time>
      </trkpt>
      <trkpt lat="42.299750" lon="-5.897610">
        <ele>777.043</ele>
        <time>2019-03-25T23:52:45Z</time>
      </trkpt>
      <trkpt lat="42.299860" lon="-5.897610">
        <ele>776.846</ele>
        <time>2019-03-25T23:53:05Z</time>
      </trkpt>
      <trkpt lat="42.300417" lon="-5.898247">
        <ele>776.518</ele>
        <time>2019-03-25T23:53:25Z</time>
      </trkpt>
      <trkpt lat="42.300973" lon="-5.898883">
        <ele>777.294</ele>
        <time>2019-03-25T23:53:45Z</time>
      </trkpt>
      <trkpt lat="42.301530" lon="-5.899520">
        <ele>774.557</ele>
        <time>2019-03-25T23:54:05Z</time>
      </trkpt>
      <trkpt lat="42.302150" lon="-5.900120">
        <ele>774.122</ele>
        <time>2019-03-25T23:54:25Z</time>
      </trkpt>
      <trkpt lat="42.302690" lon="-5.900570">
        <ele>773.508</ele>
        <time>2019-03-25T23:54:45Z</time>
      </trkpt>
      <trkpt lat="42.302720" lon="-5.900470">
        <ele>773.542</ele>
        <time>2019-03-25T23:55:05Z</time>
      </trkpt>
      <trkpt lat="42.302800" lon="-5.900400">
        <ele>773.313</ele>
        <time>2019-03-25T23:55:25Z</time>
      </trkpt>
      <trkpt lat="42.302890" lon="-5.900410">
        <ele>773.194</ele>
        <time>2019-03-25T23:55:45Z</time>
      </trkpt>
      <trkpt lat="42.302970" lon="-5.900570">
        <ele>772.813</ele>
        <time>2019-03-25T23:56:05Z</time>
      </trkpt>
      <trkpt lat="42.303320" lon="-5.900570">
        <ele>772.665</ele>
        <time>2019-03-25T23:56:25Z</time>
      </trkpt>
      <trkpt lat="42.303780" lon="-5.900700">
        <ele>773.343</ele>
        <time>2019-03-25T23:56:45Z</time>
      </trkpt>
      <trkpt lat="42.304010" lon="-5.900230">
        <ele>773.176</ele>
        <time>2019-03-25T23:57:05Z</time>
      </trkpt>
      <trkpt lat="42.304360" lon="-5.900000">
        <ele>773.118</ele>
        <time>2019-03-25T23:57:25Z</time>
      </trkpt>
      <trkpt lat="42.304690" lon="-5.899710">
        <ele>773.479</ele>
        <time>2019-03-25T23:57:45Z</time>
      </trkpt>
      <trkpt lat="42.304630" lon="-5.898787">
        <ele>773.005</ele>
        <time>2019-03-25T23:58:05Z</time>
      </trkpt>
      <trkpt lat="42.304570" lon="-5.897863">
        <ele>773.925</ele>
        <time>2019-03-25T23:58:25Z</time>
      </trkpt>
      <trkpt lat="42.304510" lon="-5.896940">
        <ele>774.108</ele>
        <time>2019-03-25T23:58:45Z</time>
      </trkpt>
      <trkpt lat="42.304450" lon="-5.896640">
        <ele>774.170</ele>
        <time>2019-03-25T23:59:05Z</time>
      </trkpt>
      <trkpt lat="42.304280" lon="-5.896100">
        <ele>774.151</ele>
        <time>2019-03-25T23:59:25Z</time>
      </trkpt>
      <trkpt lat="42.304190" lon="-5.895890">
        <ele>774.112</ele>
        <time>2019-03-25T23:59:45Z</time>
      </trkpt>
      <trkpt lat="42.304070" lon="-5.895730">
        <ele>774.151</ele>
        <time>2019-03-26T00:00:05Z</time>
      </trkpt>
      <trkpt lat="42.303910" lon="-5.895680">
        <ele>775.063</ele>
        <time>2019-03-26T00:00:25Z</time>
      </trkpt>
      <trkpt lat="42.303830" lon="-5.895590">
        <ele>775.041</ele>
        <time>2019-03-26T00:00:45Z</time>
      </trkpt>
      <trkpt lat="42.303780" lon="-5.895470">
        <ele>775.014</ele>
        <time>2019-03-26T00:01:05Z</time>
      </trkpt>
      <trkpt lat="42.303750" lon="-5.895360">
        <ele>774.936</ele>
        <time>2019-03-26T00:01:25Z</time>
      </trkpt>
      <trkpt lat="42.303780" lon="-5.895250">
        <ele>774.694</ele>
        <time>2019-03-26T00:01:45Z</time>
      </trkpt>
      <trkpt lat="42.303870" lon="-5.895140">
        <ele>773.457</ele>
        <time>2019-03-26T00:02:05Z</time>
      </trkpt>
      <trkpt lat="42.303950" lon="-5.895110">
        <ele>773.422</ele>
        <time>2019-03-26T00:02:25Z</time>
      </trkpt>
      <trkpt lat="42.304030" lon="-5.895100">
        <ele>773.408</ele>
        <time>2019-03-26T00:02:45Z</time>
      </trkpt>
      <trkpt lat="42.304160" lon="-5.895100">
        <ele>772.842</ele>
        <time>2019-03-26T00:03:05Z</time>
      </trkpt>
      <trkpt lat="42.304290" lon="-5.895160">
        <ele>772.763</ele>
        <time>2019-03-26T00:03:25Z</time>
      </trkpt>
      <trkpt lat="42.304600" lon="-5.895190">
        <ele>772.134</ele>
        <time>2019-03-26T00:03:45Z</time>
      </trkpt>
      <trkpt lat="42.305445" lon="-5.894885">
        <ele>770.483</ele>
        <time>2019-03-26T00:04:05Z</time>
      </trkpt>
      <trkpt lat="42.306290" lon="-5.894580">
        <ele>770.435</ele>
        <time>2019-03-26T00:04:25Z</time>
      </trkpt>
      <trkpt lat="42.307135" lon="-5.894275">
        <ele>770.653</ele>
        <time>2019-03-26T00:04:45Z</time>
      </trkpt>
      <trkpt lat="42.307980" lon="-5.893970">
        <ele>771.836</ele>
        <time>2019-03-26T00:05:05Z</time>
      </trkpt>
      <trkpt lat="42.308600" lon="-5.893735">
        <ele>773.158</ele>
        <time>2019-03-26T00:05:25Z</time>
      </trkpt>
      <trkpt lat="42.309220" lon="-5.893500">
        <ele>773.087</ele>
        <time>2019-03-26T00:05:45Z</time>
      </trkpt>
      <trkpt lat="42.310030" lon="-5.893245">
        <ele>773.242</ele>
        <time>2019-03-26T00:06:05Z</time>
      </trkpt>
      <trkpt lat="42.310840" lon="-5.892990">
        <ele>773.226</ele>
        <time>2019-03-26T00:06:25Z</time>
      </trkpt>
      <trkpt lat="42.311440" lon="-5.892820">
        <ele>773.008</ele>
        <time>2019-03-26T00:06:45Z</time>
      </trkpt>
      <trkpt lat="42.311790" lon="-5.892750">
        <ele>773.021</ele>
        <time>2019-03-26T00:07:05Z</time>
      </trkpt>
      <trkpt lat="42.312060" lon="-5.892620">
        <ele>773.622</ele>
        <time>2019-03-26T00:07:25Z</time>
      </trkpt>
      <trkpt lat="42.312120" lon="-5.892530">
        <ele>773.663</ele>
        <time>2019-03-26T00:07:45Z</time>
      </trkpt>
      <trkpt lat="42.312210" lon="-5.891430">
        <ele>774.122</ele>
        <time>2019-03-26T00:08:05Z</time>
      </trkpt>
      <trkpt lat="42.312270" lon="-5.890230">
        <ele>774.494</ele>
        <time>2019-03-26T00:08:25Z</time>
      </trkpt>
      <trkpt lat="42.312330" lon="-5.889030">
        <ele>773.142</ele>
        <time>2019-03-26T00:08:45Z</time>
      </trkpt>
      <trkpt lat="42.312380" lon="-5.888213">
        <ele>773.185</ele>
        <time>2019-03-26T00:09:05Z</time>
      </trkpt>
      <trkpt lat="42.312430" lon="-5.887397">
        <ele>773.357</ele>
        <time>2019-03-26T00:09:25Z</time>
      </trkpt>
      <trkpt lat="42.312480" lon="-5.886580">
        <ele>771.866</ele>
        <time>2019-03-26T00:09:45Z</time>
      </trkpt>
      <trkpt lat="42.313263" lon="-5.886535">
        <ele>771.829</ele>
        <time>2019-03-26T00:10:05Z</time>
      </trkpt>
      <trkpt lat="42.314047" lon="-5.886490">
        <ele>771.821</ele>
        <time>2019-03-26T00:10:25Z</time>
      </trkpt>
      <trkpt lat="42.314830" lon="-5.886445">
        <ele>771.808</ele>
        <time>2019-03-26T00:10:45Z</time>
      </trkpt>
      <trkpt lat="42.315613" lon="-5.886400">
        <ele>772.679</ele>
        <time>2019-03-26T00:11:05Z</time>
      </trkpt>
      <trkpt lat="42.316397" lon="-5.886355">
        <ele>772.640</ele>
        <time>2019-03-26T00:11:25Z</time>
      </trkpt>
      <trkpt lat="42.317180" lon="-5.886310">
        <ele>772.611</ele>
        <time>2019-03-26T00:11:45Z</time>
      </trkpt>
      <trkpt lat="42.318069" lon="-5.886254">
        <ele>772.650</ele>
        <time>2019-03-26T00:12:05Z</time>
      </trkpt>
      <trkpt lat="42.318958" lon="-5.886197">
        <ele>773.212</ele>
        <time>2019-03-26T00:12:25Z</time>
      </trkpt>
      <trkpt lat="42.319847" lon="-5.886141">
        <ele>773.250</ele>
        <time>2019-03-26T00:12:45Z</time>
      </trkpt>
      <trkpt lat="42.320736" lon="-5.886085">
        <ele>773.243</ele>
        <time>2019-03-26T00:13:05Z</time>
      </trkpt>
      <trkpt lat="42.321625" lon="-5.886028">
        <ele>773.285</ele>
        <time>2019-03-26T00:13:25Z</time>
      </trkpt>
      <trkpt lat="42.322515" lon="-5.885972">
        <ele>773.228</ele>
        <time>2019-03-26T00:13:45Z</time>
      </trkpt>
      <trkpt lat="42.323404" lon="-5.885915">
        <ele>773.589</ele>
        <time>2019-03-26T00:14:05Z</time>
      </trkpt>
      <trkpt lat="42.324293" lon="-5.885859">
        <ele>773.517</ele>
        <time>2019-03-26T00:14:25Z</time>
      </trkpt>
      <trkpt lat="42.325182" lon="-5.885803">
        <ele>773.508</ele>
        <time>2019-03-26T00:14:45Z</time>
      </trkpt>
      <trkpt lat="42.326071" lon="-5.885746">
        <ele>773.535</ele>
        <time>2019-03-26T00:15:05Z</time>
      </trkpt>
      <trkpt lat="42.326960" lon="-5.885690">
        <ele>773.566</ele>
        <time>2019-03-26T00:15:25Z</time>
      </trkpt>
      <trkpt lat="42.327643" lon="-5.885648">
        <ele>773.567</ele>
        <time>2019-03-26T00:15:45Z</time>
      </trkpt>
      <trkpt lat="42.328325" lon="-5.885605">
        <ele>773.586</ele>
        <time>2019-03-26T00:16:05Z</time>
      </trkpt>
      <trkpt lat="42.329008" lon="-5.885563">
        <ele>773.558</ele>
        <time>2019-03-26T00:16:25Z</time>
      </trkpt>
      <trkpt lat="42.329690" lon="-5.885520">
        <ele>775.316</ele>
        <time>2019-03-26T00:16:45Z</time>
      </trkpt>
      <trkpt lat="42.330463" lon="-5.885485">
        <ele>775.349</ele>
        <time>2019-03-26T00:17:05Z</time>
      </trkpt>
      <trkpt lat="42.331235" lon="-5.885450">
        <ele>777.621</ele>
        <time>2019-03-26T00:17:25Z</time>
      </trkpt>
      <trkpt lat="42.332008" lon="-5.885415">
        <ele>777.648</ele>
        <time>2019-03-26T00:17:45Z</time>
      </trkpt>
      <trkpt lat="42.332780" lon="-5.885380">
        <ele>777.661</ele>
        <time>2019-03-26T00:18:05Z</time>
      </trkpt>
      <trkpt lat="42.333465" lon="-5.885333">
        <ele>777.617</ele>
        <time>2019-03-26T00:18:25Z</time>
      </trkpt>
      <trkpt lat="42.334150" lon="-5.885285">
        <ele>778.108</ele>
        <time>2019-03-26T00:18:45Z</time>
      </trkpt>
      <trkpt lat="42.334835" lon="-5.885238">
        <ele>778.127</ele>
        <time>2019-03-26T00:19:05Z</time>
      </trkpt>
      <trkpt lat="42.335520" lon="-5.885190">
        <ele>778.148</ele>
        <time>2019-03-26T00:19:25Z</time>
      </trkpt>
      <trkpt lat="42.336376" lon="-5.885143">
        <ele>778.189</ele>
        <time>2019-03-26T00:19:45Z</time>
      </trkpt>
      <trkpt lat="42.337231" lon="-5.885096">
        <ele>778.148</ele>
        <time>2019-03-26T00:20:05Z</time>
      </trkpt>
      <trkpt lat="42.338087" lon="-5.885049">
        <ele>779.090</ele>
        <time>2019-03-26T00:20:25Z</time>
      </trkpt>
      <trkpt lat="42.338943" lon="-5.885001">
        <ele>779.098</ele>
        <time>2019-03-26T00:20:45Z</time>
      </trkpt>
      <trkpt lat="42.339799" lon="-5.884954">
        <ele>779.031</ele>
        <time>2019-03-26T00:21:05Z</time>
      </trkpt>
      <trkpt lat="42.340654" lon="-5.884907">
        <ele>779.043</ele>
        <time>2019-03-26T00:21:25Z</time>
      </trkpt>
      <trkpt lat="42.341510" lon="-5.884860">
        <ele>779.057</ele>
        <time>2019-03-26T00:21:45Z</time>
      </trkpt>
      <trkpt lat="42.342366" lon="-5.884813">
        <ele>779.000</ele>
        <time>2019-03-26T00:22:05Z</time>
      </trkpt>
      <trkpt lat="42.343221" lon="-5.884766">
        <ele>779.020</ele>
        <time>2019-03-26T00:22:25Z</time>
      </trkpt>
      <trkpt lat="42.344077" lon="-5.884719">
        <ele>781.608</ele>
        <time>2019-03-26T00:22:45Z</time>
      </trkpt>
      <trkpt lat="42.344933" lon="-5.884671">
        <ele>781.658</ele>
        <time>2019-03-26T00:23:05Z</time>
      </trkpt>
      <trkpt lat="42.345789" lon="-5.884624">
        <ele>781.699</ele>
        <time>2019-03-26T00:23:25Z</time>
      </trkpt>
      <trkpt lat="42.346644" lon="-5.884577">
        <ele>781.630</ele>
        <time>2019-03-26T00:23:45Z</time>
      </trkpt>
      <trkpt lat="42.347500" lon="-5.884530">
        <ele>781.649</ele>
        <time>2019-03-26T00:24:05Z</time>
      </trkpt>
      <trkpt lat="42.348170" lon="-5.884493">
        <ele>781.681</ele>
        <time>2019-03-26T00:24:25Z</time>
      </trkpt>
      <trkpt lat="42.348840" lon="-5.884457">
        <ele>781.689</ele>
        <time>2019-03-26T00:24:45Z</time>
      </trkpt>
      <trkpt lat="42.349510" lon="-5.884420">
        <ele>781.662</ele>
        <time>2019-03-26T00:25:05Z</time>
      </trkpt>
      <trkpt lat="42.350387" lon="-5.884357">
        <ele>783.234</ele>
        <time>2019-03-26T00:25:25Z</time>
      </trkpt>
      <trkpt lat="42.351263" lon="-5.884293">
        <ele>783.271</ele>
        <time>2019-03-26T00:25:45Z</time>
      </trkpt>
      <trkpt lat="42.352140" lon="-5.884230">
        <ele>783.241</ele>
        <time>2019-03-26T00:26:05Z</time>
      </trkpt>
      <trkpt lat="42.352480" lon="-5.884330">
        <ele>783.215</ele>
        <time>2019-03-26T00:26:25Z</time>
      </trkpt>
      <trkpt lat="42.352640" lon="-5.883695">
        <ele>785.108</ele>
        <time>2019-03-26T00:26:45Z</time>
      </trkpt>
      <trkpt lat="42.352800" lon="-5.883060">
        <ele>785.170</ele>
        <time>2019-03-26T00:27:05Z</time>
      </trkpt>
      <trkpt lat="42.352820" lon="-5.882890">
        <ele>785.331</ele>
        <time>2019-03-26T00:27:25Z</time>
      </trkpt>
      <trkpt lat="42.353200" lon="-5.882880">
        <ele>784.982</ele>
        <time>2019-03-26T00:27:45Z</time>
      </trkpt>
      <trkpt lat="42.353240" lon="-5.882820">
        <ele>784.911</ele>
        <time>2019-03-26T00:28:05Z</time>
      </trkpt>
      <trkpt lat="42.353290" lon="-5.882810">
        <ele>784.963</ele>
        <time>2019-03-26T00:28:25Z</time>
      </trkpt>
      <trkpt lat="42.353410" lon="-5.882810">
        <ele>784.771</ele>
        <time>2019-03-26T00:28:45Z</time>
      </trkpt>
      <trkpt lat="42.353860" lon="-5.882970">
        <ele>784.574</ele>
        <time>2019-03-26T00:29:05Z</time>
      </trkpt>
      <trkpt lat="42.354310" lon="-5.883130">
        <ele>784.596</ele>
        <time>2019-03-26T00:29:25Z</time>
      </trkpt>
      <trkpt lat="42.355100" lon="-5.883230">
        <ele>784.154</ele>
        <time>2019-03-26T00:29:45Z</time>
      </trkpt>
      <trkpt lat="42.355545" lon="-5.883360">
        <ele>783.556</ele>
        <time>2019-03-26T00:30:05Z</time>
      </trkpt>
      <trkpt lat="42.355990" lon="-5.883490">
        <ele>783.411</ele>
        <time>2019-03-26T00:30:25Z</time>
      </trkpt>
      <trkpt lat="42.356793" lon="-5.883657">
        <ele>784.108</ele>
        <time>2019-03-26T00:30:45Z</time>
      </trkpt>
      <trkpt lat="42.357595" lon="-5.883825">
        <ele>784.148</ele>
        <time>2019-03-26T00:31:05Z</time>
      </trkpt>
      <trkpt lat="42.358398" lon="-5.883992">
        <ele>784.319</ele>
        <time>2019-03-26T00:31:25Z</time>
      </trkpt>
      <trkpt lat="42.359200" lon="-5.884160">
        <ele>783.890</ele>
        <time>2019-03-26T00:31:45Z</time>
      </trkpt>
      <trkpt lat="42.360053" lon="-5.884020">
        <ele>784.579</ele>
        <time>2019-03-26T00:32:05Z</time>
      </trkpt>
      <trkpt lat="42.360905" lon="-5.883880">
        <ele>784.631</ele>
        <time>2019-03-26T00:32:25Z</time>
      </trkpt>
      <trkpt lat="42.361758" lon="-5.883740">
        <ele>785.799</ele>
        <time>2019-03-26T00:32:45Z</time>
      </trkpt>
      <trkpt lat="42.362610" lon="-5.883600">
        <ele>786.912</ele>
        <time>2019-03-26T00:33:05Z</time>
      </trkpt>
      <trkpt lat="42.362790" lon="-5.883640">
        <ele>786.954</ele>
        <time>2019-03-26T00:33:25Z</time>
      </trkpt>
      <trkpt lat="42.362610" lon="-5.883600">
        <ele>786.965</ele>
        <time>2019-03-26T00:33:45Z</time>
      </trkpt>
      <trkpt lat="42.362070" lon="-5.883685">
        <ele>785.768</ele>
        <time>2019-03-26T00:34:05Z</time>
      </trkpt>
      <trkpt lat="42.361530" lon="-5.883770">
        <ele>785.714</ele>
        <time>2019-03-26T00:34:25Z</time>
      </trkpt>
      <trkpt lat="42.361510" lon="-5.882990">
        <ele>787.608</ele>
        <time>2019-03-26T00:34:45Z</time>
      </trkpt>
      <trkpt lat="42.361570" lon="-5.882850">
        <ele>787.739</ele>
        <time>2019-03-26T00:35:05Z</time>
      </trkpt>
      <trkpt lat="42.361890" lon="-5.882590">
        <ele>786.730</ele>
        <time>2019-03-26T00:35:25Z</time>
      </trkpt>
      <trkpt lat="42.361980" lon="-5.882430">
        <ele>787.611</ele>
        <time>2019-03-26T00:35:45Z</time>
      </trkpt>
      <trkpt lat="42.362090" lon="-5.882000">
        <ele>788.470</ele>
        <time>2019-03-26T00:36:05Z</time>
      </trkpt>
      <trkpt lat="42.362200" lon="-5.881880">
        <ele>788.412</ele>
        <time>2019-03-26T00:36:25Z</time>
      </trkpt>
      <trkpt lat="42.362330" lon="-5.881090">
        <ele>787.050</ele>
        <time>2019-03-26T00:36:45Z</time>
      </trkpt>
      <trkpt lat="42.362510" lon="-5.880710">
        <ele>786.633</ele>
        <time>2019-03-26T00:37:05Z</time>
      </trkpt>
      <trkpt lat="42.362780" lon="-5.880460">
        <ele>785.965</ele>
        <time>2019-03-26T00:37:25Z</time>
      </trkpt>
      <trkpt lat="42.362990" lon="-5.879600">
        <ele>786.336</ele>
        <time>2019-03-26T00:37:45Z</time>
      </trkpt>
      <trkpt lat="42.363560" lon="-5.879640">
        <ele>785.817</ele>
        <time>2019-03-26T00:38:05Z</time>
      </trkpt>
      <trkpt lat="42.364353" lon="-5.879210">
        <ele>784.918</ele>
        <time>2019-03-26T00:38:25Z</time>
      </trkpt>
      <trkpt lat="42.365147" lon="-5.878780">
        <ele>784.808</ele>
        <time>2019-03-26T00:38:45Z</time>
      </trkpt>
      <trkpt lat="42.365940" lon="-5.878350">
        <ele>785.896</ele>
        <time>2019-03-26T00:39:05Z</time>
      </trkpt>
      <trkpt lat="42.366650" lon="-5.878320">
        <ele>786.067</ele>
        <time>2019-03-26T00:39:25Z</time>
      </trkpt>
      <trkpt lat="42.367020" lon="-5.878180">
        <ele>785.848</ele>
        <time>2019-03-26T00:39:45Z</time>
      </trkpt>
      <trkpt lat="42.367310" lon="-5.877920">
        <ele>785.897</ele>
        <time>2019-03-26T00:40:05Z</time>
      </trkpt>
      <trkpt lat="42.367950" lon="-5.877560">
        <ele>786.339</ele>
        <time>2019-03-26T00:40:25Z</time>
      </trkpt>
      <trkpt lat="42.368590" lon="-5.877200">
        <ele>786.817</ele>
        <time>2019-03-26T00:40:45Z</time>
      </trkpt>
      <trkpt lat="42.369210" lon="-5.876710">
        <ele>787.670</ele>
        <time>2019-03-26T00:41:05Z</time>
      </trkpt>
      <trkpt lat="42.369760" lon="-5.876250">
        <ele>789.122</ele>
        <time>2019-03-26T00:41:25Z</time>
      </trkpt>
      <trkpt lat="42.369590" lon="-5.875410">
        <ele>788.974</ele>
        <time>2019-03-26T00:41:45Z</time>
      </trkpt>
      <trkpt lat="42.370170" lon="-5.875080">
        <ele>788.956</ele>
        <time>2019-03-26T00:42:05Z</time>
      </trkpt>
      <trkpt lat="42.370660" lon="-5.874950">
        <ele>789.121</ele>
        <time>2019-03-26T00:42:25Z</time>
      </trkpt>
      <trkpt lat="42.371185" lon="-5.875005">
        <ele>789.108</ele>
        <time>2019-03-26T00:42:45Z</time>
      </trkpt>
      <trkpt lat="42.371710" lon="-5.875060">
        <ele>789.360</ele>
        <time>2019-03-26T00:43:05Z</time>
      </trkpt>
      <trkpt lat="42.372345" lon="-5.875460">
        <ele>789.461</ele>
        <time>2019-03-26T00:43:25Z</time>
      </trkpt>
      <trkpt lat="42.372980" lon="-5.875860">
        <ele>789.172</ele>
        <time>2019-03-26T00:43:45Z</time>
      </trkpt>
      <trkpt lat="42.373760" lon="-5.876370">
        <ele>790.041</ele>
        <time>2019-03-26T00:44:05Z</time>
      </trkpt>
      <trkpt lat="42.374300" lon="-5.876410">
        <ele>790.983</ele>
        <time>2019-03-26T00:44:25Z</time>
      </trkpt>
      <trkpt lat="42.375060" lon="-5.876500">
        <ele>791.051</ele>
        <time>2019-03-26T00:44:45Z</time>
      </trkpt>
      <trkpt lat="42.375240" lon="-5.876570">
        <ele>791.084</ele>
        <time>2019-03-26T00:45:05Z</time>
      </trkpt>
      <trkpt lat="42.375980" lon="-5.877150">
        <ele>791.466</ele>
        <time>2019-03-26T00:45:25Z</time>
      </trkpt>
      <trkpt lat="42.376440" lon="-5.877370">
        <ele>791.513</ele>
        <time>2019-03-26T00:45:45Z</time>
      </trkpt>
      <trkpt lat="42.376900" lon="-5.877590">
        <ele>792.043</ele>
        <time>2019-03-26T00:46:05Z</time>
      </trkpt>
      <trkpt lat="42.377020" lon="-5.877620">
        <ele>792.207</ele>
        <time>2019-03-26T00:46:25Z</time>
      </trkpt>
      <trkpt lat="42.377230" lon="-5.877640">
        <ele>792.208</ele>
        <time>2019-03-26T00:46:45Z</time>
      </trkpt>
      <trkpt lat="42.378115" lon="-5.877630">
        <ele>792.294</ele>
        <time>2019-03-26T00:47:05Z</time>
      </trkpt>
      <trkpt lat="42.379000" lon="-5.877620">
        <ele>792.355</ele>
        <time>2019-03-26T00:47:25Z</time>
      </trkpt>
      <trkpt lat="42.379690" lon="-5.877710">
        <ele>792.546</ele>
        <time>2019-03-26T00:47:45Z</time>
      </trkpt>
      <trkpt lat="42.380540" lon="-5.878010">
        <ele>792.775</ele>
        <time>2019-03-26T00:48:05Z</time>
      </trkpt>
      <trkpt lat="42.380630" lon="-5.878040">
        <ele>792.727</ele>
        <time>2019-03-26T00:48:25Z</time>
      </trkpt>
      <trkpt lat="42.381250" lon="-5.878093">
        <ele>792.965</ele>
        <time>2019-03-26T00:48:45Z</time>
      </trkpt>
      <trkpt lat="42.381870" lon="-5.878147">
        <ele>793.228</ele>
        <time>2019-03-26T00:49:05Z</time>
      </trkpt>
      <trkpt lat="42.382490" lon="-5.878200">
        <ele>793.650</ele>
        <time>2019-03-26T00:49:25Z</time>
      </trkpt>
      <trkpt lat="42.382810" lon="-5.878650">
        <ele>793.782</ele>
        <time>2019-03-26T00:49:45Z</time>
      </trkpt>
      <trkpt lat="42.383140" lon="-5.878740">
        <ele>793.743</ele>
        <time>2019-03-26T00:50:05Z</time>
      </trkpt>
      <trkpt lat="42.383300" lon="-5.878980">
        <ele>793.717</ele>
        <time>2019-03-26T00:50:25Z</time>
      </trkpt>
      <trkpt lat="42.383430" lon="-5.879100">
        <ele>793.708</ele>
        <time>2019-03-26T00:50:45Z</time>
      </trkpt>
      <trkpt lat="42.383680" lon="-5.879230">
        <ele>793.791</ele>
        <time>2019-03-26T00:51:05Z</time>
      </trkpt>
      <trkpt lat="42.384285" lon="-5.879090">
        <ele>792.742</ele>
        <time>2019-03-26T00:51:25Z</time>
      </trkpt>
      <trkpt lat="42.384890" lon="-5.878950">
        <ele>789.933</ele>
        <time>2019-03-26T00:51:45Z</time>
      </trkpt>
      <trkpt lat="42.385768" lon="-5.878998">
        <ele>792.082</ele>
        <time>2019-03-26T00:52:05Z</time>
      </trkpt>
      <trkpt lat="42.386646" lon="-5.879046">
        <ele>792.644</ele>
        <time>2019-03-26T00:52:25Z</time>
      </trkpt>
      <trkpt lat="42.387524" lon="-5.879094">
        <ele>792.592</ele>
        <time>2019-03-26T00:52:45Z</time>
      </trkpt>
      <trkpt lat="42.388402" lon="-5.879142">
        <ele>794.135</ele>
        <time>2019-03-26T00:53:05Z</time>
      </trkpt>
      <trkpt lat="42.389280" lon="-5.879190">
        <ele>795.147</ele>
        <time>2019-03-26T00:53:25Z</time>
      </trkpt>
      <trkpt lat="42.389330" lon="-5.879170">
        <ele>795.291</ele>
        <time>2019-03-26T00:53:45Z</time>
      </trkpt>
      <trkpt lat="42.389280" lon="-5.879190">
        <ele>795.181</ele>
        <time>2019-03-26T00:54:05Z</time>
      </trkpt>
      <trkpt lat="42.389750" lon="-5.878930">
        <ele>795.919</ele>
        <time>2019-03-26T00:54:25Z</time>
      </trkpt>
      <trkpt lat="42.390080" lon="-5.878600">
        <ele>796.308</ele>
        <time>2019-03-26T00:54:45Z</time>
      </trkpt>
      <trkpt lat="42.390910" lon="-5.878410">
        <ele>796.612</ele>
        <time>2019-03-26T00:55:05Z</time>
      </trkpt>
      <trkpt lat="42.391515" lon="-5.878485">
        <ele>795.363</ele>
        <time>2019-03-26T00:55:25Z</time>
      </trkpt>
      <trkpt lat="42.392120" lon="-5.878560">
        <ele>795.094</ele>
        <time>2019-03-26T00:55:45Z</time>
      </trkpt>
      <trkpt lat="42.392350" lon="-5.878600">
        <ele>794.723</ele>
        <time>2019-03-26T00:56:05Z</time>
      </trkpt>
      <trkpt lat="42.393087" lon="-5.879190">
        <ele>794.685</ele>
        <time>2019-03-26T00:56:25Z</time>
      </trkpt>
      <trkpt lat="42.393823" lon="-5.879780">
        <ele>794.533</ele>
        <time>2019-03-26T00:56:45Z</time>
      </trkpt>
      <trkpt lat="42.394560" lon="-5.880370">
        <ele>794.326</ele>
        <time>2019-03-26T00:57:05Z</time>
      </trkpt>
      <trkpt lat="42.395220" lon="-5.880415">
        <ele>794.728</ele>
        <time>2019-03-26T00:57:25Z</time>
      </trkpt>
      <trkpt lat="42.395880" lon="-5.880460">
        <ele>794.812</ele>
        <time>2019-03-26T00:57:45Z</time>
      </trkpt>
      <trkpt lat="42.396445" lon="-5.880660">
        <ele>794.432</ele>
        <time>2019-03-26T00:58:05Z</time>
      </trkpt>
      <trkpt lat="42.397010" lon="-5.880860">
        <ele>795.805</ele>
        <time>2019-03-26T00:58:25Z</time>
      </trkpt>
      <trkpt lat="42.397835" lon="-5.881185">
        <ele>795.808</ele>
        <time>2019-03-26T00:58:45Z</time>
      </trkpt>
      <trkpt lat="42.398660" lon="-5.881510">
        <ele>795.784</ele>
        <time>2019-03-26T00:59:05Z</time>
      </trkpt>
      <trkpt lat="42.399530" lon="-5.881770">
        <ele>796.495</ele>
        <time>2019-03-26T00:59:25Z</time>
      </trkpt>
      <trkpt lat="42.400400" lon="-5.882030">
        <ele>797.586</ele>
        <time>2019-03-26T00:59:45Z</time>
      </trkpt>
      <trkpt lat="42.401140" lon="-5.882040">
        <ele>798.055</ele>
        <time>2019-03-26T01:00:05Z</time>
      </trkpt>
      <trkpt lat="42.401880" lon="-5.882050">
        <ele>796.717</ele>
        <time>2019-03-26T01:00:25Z</time>
      </trkpt>
      <trkpt lat="42.402686" lon="-5.882072">
        <ele>796.065</ele>
        <time>2019-03-26T01:00:45Z</time>
      </trkpt>
      <trkpt lat="42.403492" lon="-5.882094">
        <ele>796.748</ele>
        <time>2019-03-26T01:01:05Z</time>
      </trkpt>
      <trkpt lat="42.404298" lon="-5.882116">
        <ele>797.740</ele>
        <time>2019-03-26T01:01:25Z</time>
      </trkpt>
      <trkpt lat="42.405104" lon="-5.882138">
        <ele>798.177</ele>
        <time>2019-03-26T01:01:45Z</time>
      </trkpt>
      <trkpt lat="42.405910" lon="-5.882160">
        <ele>799.161</ele>
        <time>2019-03-26T01:02:05Z</time>
      </trkpt>
      <trkpt lat="42.406300" lon="-5.882060">
        <ele>799.527</ele>
        <time>2019-03-26T01:02:25Z</time>
      </trkpt>
      <trkpt lat="42.406670" lon="-5.881870">
        <ele>800.008</ele>
        <time>2019-03-26T01:02:45Z</time>
      </trkpt>
      <trkpt lat="42.406950" lon="-5.881750">
        <ele>800.340</ele>
        <time>2019-03-26T01:03:05Z</time>
      </trkpt>
      <trkpt lat="42.407580" lon="-5.881520">
        <ele>802.161</ele>
        <time>2019-03-26T01:03:25Z</time>
      </trkpt>
      <trkpt lat="42.407650" lon="-5.881760">
        <ele>802.172</ele>
        <time>2019-03-26T01:03:45Z</time>
      </trkpt>
      <trkpt lat="42.407890" lon="-5.881560">
        <ele>802.371</ele>
        <time>2019-03-26T01:04:05Z</time>
      </trkpt>
      <trkpt lat="42.408480" lon="-5.881250">
        <ele>802.993</ele>
        <time>2019-03-26T01:04:25Z</time>
      </trkpt>
      <trkpt lat="42.409150" lon="-5.881050">
        <ele>803.061</ele>
        <time>2019-03-26T01:04:45Z</time>
      </trkpt>
      <trkpt lat="42.409860" lon="-5.880980">
        <ele>802.774</ele>
        <time>2019-03-26T01:05:05Z</time>
      </trkpt>
      <trkpt lat="42.410450" lon="-5.880970">
        <ele>802.036</ele>
        <time>2019-03-26T01:05:25Z</time>
      </trkpt>
      <trkpt lat="42.411010" lon="-5.881160">
        <ele>801.993</ele>
        <time>2019-03-26T01:05:45Z</time>
      </trkpt>
      <trkpt lat="42.411570" lon="-5.881350">
        <ele>802.665</ele>
        <time>2019-03-26T01:06:05Z</time>
      </trkpt>
      <trkpt lat="42.412280" lon="-5.881490">
        <ele>803.621</ele>
        <time>2019-03-26T01:06:25Z</time>
      </trkpt>
      <trkpt lat="42.413110" lon="-5.881950">
        <ele>805.108</ele>
        <time>2019-03-26T01:06:45Z</time>
      </trkpt>
      <trkpt lat="42.413640" lon="-5.882030">
        <ele>805.462</ele>
        <time>2019-03-26T01:07:05Z</time>
      </trkpt>
      <trkpt lat="42.414180" lon="-5.881820">
        <ele>805.273</ele>
        <time>2019-03-26T01:07:25Z</time>
      </trkpt>
      <trkpt lat="42.414680" lon="-5.881450">
        <ele>805.684</ele>
        <time>2019-03-26T01:07:45Z</time>
      </trkpt>
      <trkpt lat="42.414910" lon="-5.881330">
        <ele>804.943</ele>
        <time>2019-03-26T01:08:05Z</time>
      </trkpt>
      <trkpt lat="42.415630" lon="-5.881490">
        <ele>805.035</ele>
        <time>2019-03-26T01:08:25Z</time>
      </trkpt>
      <trkpt lat="42.415890" lon="-5.881560">
        <ele>803.543</ele>
        <time>2019-03-26T01:08:45Z</time>
      </trkpt>
      <trkpt lat="42.416355" lon="-5.881560">
        <ele>804.546</ele>
        <time>2019-03-26T01:09:05Z</time>
      </trkpt>
      <trkpt lat="42.416820" lon="-5.881560">
        <ele>802.818</ele>
        <time>2019-03-26T01:09:25Z</time>
      </trkpt>
      <trkpt lat="42.417305" lon="-5.881655">
        <ele>803.165</ele>
        <time>2019-03-26T01:09:45Z</time>
      </trkpt>
      <trkpt lat="42.417790" lon="-5.881750">
        <ele>803.468</ele>
        <time>2019-03-26T01:10:05Z</time>
      </trkpt>
      <trkpt lat="42.417980" lon="-5.881820">
        <ele>802.514</ele>
        <time>2019-03-26T01:10:25Z</time>
      </trkpt>
      <trkpt lat="42.418780" lon="-5.881960">
        <ele>804.108</ele>
        <time>2019-03-26T01:10:45Z</time>
      </trkpt>
      <trkpt lat="42.419575" lon="-5.882072">
        <ele>804.449</ele>
        <time>2019-03-26T01:11:05Z</time>
      </trkpt>
      <trkpt lat="42.420370" lon="-5.882185">
        <ele>804.430</ele>
        <time>2019-03-26T01:11:25Z</time>
      </trkpt>
      <trkpt lat="42.421165" lon="-5.882297">
        <ele>804.511</ele>
        <time>2019-03-26T01:11:45Z</time>
      </trkpt>
      <trkpt lat="42.421960" lon="-5.882410">
        <ele>804.550</ele>
        <time>2019-03-26T01:12:05Z</time>
      </trkpt>
      <trkpt lat="42.422600" lon="-5.882520">
        <ele>804.132</ele>
        <time>2019-03-26T01:12:25Z</time>
      </trkpt>
      <trkpt lat="42.423240" lon="-5.882630">
        <ele>804.620</ele>
        <time>2019-03-26T01:12:45Z</time>
      </trkpt>
      <trkpt lat="42.423880" lon="-5.882740">
        <ele>805.193</ele>
        <time>2019-03-26T01:13:05Z</time>
      </trkpt>
      <trkpt lat="42.424090" lon="-5.882740">
        <ele>805.765</ele>
        <time>2019-03-26T01:13:25Z</time>
      </trkpt>
      <trkpt lat="42.424785" lon="-5.882665">
        <ele>806.939</ele>
        <time>2019-03-26T01:13:45Z</time>
      </trkpt>
      <trkpt lat="42.425480" lon="-5.882590">
        <ele>805.801</ele>
        <time>2019-03-26T01:14:05Z</time>
      </trkpt>
      <trkpt lat="42.426210" lon="-5.882450">
        <ele>805.521</ele>
        <time>2019-03-26T01:14:25Z</time>
      </trkpt>
      <trkpt lat="42.426855" lon="-5.882665">
        <ele>804.808</ele>
        <time>2019-03-26T01:14:45Z</time>
      </trkpt>
      <trkpt lat="42.427500" lon="-5.882880">
        <ele>805.076</ele>
        <time>2019-03-26T01:15:05Z</time>
      </trkpt>
      <trkpt lat="42.427920" lon="-5.882940">
        <ele>802.957</ele>
        <time>2019-03-26T01:15:25Z</time>
      </trkpt>
      <trkpt lat="42.428350" lon="-5.883200">
        <ele>803.658</ele>
        <time>2019-03-26T01:15:45Z</time>
      </trkpt>
      <trkpt lat="42.428990" lon="-5.883705">
        <ele>802.947</ele>
        <time>2019-03-26T01:16:05Z</time>
      </trkpt>
      <trkpt lat="42.429630" lon="-5.884210">
        <ele>808.339</ele>
        <time>2019-03-26T01:16:25Z</time>
      </trkpt>
      <trkpt lat="42.430348" lon="-5.883807">
        <ele>809.847</ele>
        <time>2019-03-26T01:16:45Z</time>
      </trkpt>
      <trkpt lat="42.431067" lon="-5.883403">
        <ele>810.970</ele>
        <time>2019-03-26T01:17:05Z</time>
      </trkpt>
      <trkpt lat="42.431785" lon="-5.883000">
        <ele>811.332</ele>
        <time>2019-03-26T01:17:25Z</time>
      </trkpt>
      <trkpt lat="42.432503" lon="-5.882597">
        <ele>811.283</ele>
        <time>2019-03-26T01:17:45Z</time>
      </trkpt>
      <trkpt lat="42.433222" lon="-5.882193">
        <ele>810.025</ele>
        <time>2019-03-26T01:18:05Z</time>
      </trkpt>
      <trkpt lat="42.433940" lon="-5.881790">
        <ele>809.717</ele>
        <time>2019-03-26T01:18:25Z</time>
      </trkpt>
      <trkpt lat="42.434170" lon="-5.881720">
        <ele>809.308</ele>
        <time>2019-03-26T01:18:45Z</time>
      </trkpt>
      <trkpt lat="42.434730" lon="-5.881710">
        <ele>811.191</ele>
        <time>2019-03-26T01:19:05Z</time>
      </trkpt>
      <trkpt lat="42.435290" lon="-5.881700">
        <ele>811.222</ele>
        <time>2019-03-26T01:19:25Z</time>
      </trkpt>
      <trkpt lat="42.435680" lon="-5.881700">
        <ele>811.583</ele>
        <time>2019-03-26T01:19:45Z</time>
      </trkpt>
      <trkpt lat="42.435880" lon="-5.881770">
        <ele>811.582</ele>
        <time>2019-03-26T01:20:05Z</time>
      </trkpt>
      <trkpt lat="42.436070" lon="-5.881890">
        <ele>811.394</ele>
        <time>2019-03-26T01:20:25Z</time>
      </trkpt>
      <trkpt lat="42.436280" lon="-5.882070">
        <ele>811.252</ele>
        <time>2019-03-26T01:20:45Z</time>
      </trkpt>
      <trkpt lat="42.436670" lon="-5.882480">
        <ele>811.425</ele>
        <time>2019-03-26T01:21:05Z</time>
      </trkpt>
      <trkpt lat="42.436920" lon="-5.882800">
        <ele>811.887</ele>
        <time>2019-03-26T01:21:25Z</time>
      </trkpt>
      <trkpt lat="42.437250" lon="-5.883490">
        <ele>812.839</ele>
        <time>2019-03-26T01:21:45Z</time>
      </trkpt>
      <trkpt lat="42.437535" lon="-5.884100">
        <ele>813.101</ele>
        <time>2019-03-26T01:22:05Z</time>
      </trkpt>
      <trkpt lat="42.437820" lon="-5.884710">
        <ele>813.621</ele>
        <time>2019-03-26T01:22:25Z</time>
      </trkpt>
      <trkpt lat="42.437970" lon="-5.884970">
        <ele>813.808</ele>
        <time>2019-03-26T01:22:45Z</time>
      </trkpt>
      <trkpt lat="42.438120" lon="-5.885120">
        <ele>814.076</ele>
        <time>2019-03-26T01:23:05Z</time>
      </trkpt>
      <trkpt lat="42.438260" lon="-5.885220">
        <ele>814.037</ele>
        <time>2019-03-26T01:23:25Z</time>
      </trkpt>
      <trkpt lat="42.438440" lon="-5.885290">
        <ele>814.168</ele>
        <time>2019-03-26T01:23:45Z</time>
      </trkpt>
      <trkpt lat="42.438640" lon="-5.885290">
        <ele>814.197</ele>
        <time>2019-03-26T01:24:05Z</time>
      </trkpt>
      <trkpt lat="42.439437" lon="-5.885240">
        <ele>814.729</ele>
        <time>2019-03-26T01:24:25Z</time>
      </trkpt>
      <trkpt lat="42.440233" lon="-5.885190">
        <ele>814.557</ele>
        <time>2019-03-26T01:24:45Z</time>
      </trkpt>
      <trkpt lat="42.441030" lon="-5.885140">
        <ele>813.750</ele>
        <time>2019-03-26T01:25:05Z</time>
      </trkpt>
      <trkpt lat="42.441827" lon="-5.885090">
        <ele>813.452</ele>
        <time>2019-03-26T01:25:25Z</time>
      </trkpt>
      <trkpt lat="42.442623" lon="-5.885040">
        <ele>813.261</ele>
        <time>2019-03-26T01:25:45Z</time>
      </trkpt>
      <trkpt lat="42.443420" lon="-5.884990">
        <ele>813.521</ele>
        <time>2019-03-26T01:26:05Z</time>
      </trkpt>
      <trkpt lat="42.444221" lon="-5.884964">
        <ele>813.513</ele>
        <time>2019-03-26T01:26:25Z</time>
      </trkpt>
      <trkpt lat="42.445022" lon="-5.884939">
        <ele>814.408</ele>
        <time>2019-03-26T01:26:45Z</time>
      </trkpt>
      <trkpt lat="42.445823" lon="-5.884913">
        <ele>814.099</ele>
        <time>2019-03-26T01:27:05Z</time>
      </trkpt>
      <trkpt lat="42.446624" lon="-5.884888">
        <ele>813.410</ele>
        <time>2019-03-26T01:27:25Z</time>
      </trkpt>
      <trkpt lat="42.447426" lon="-5.884862">
        <ele>812.861</ele>
        <time>2019-03-26T01:27:45Z</time>
      </trkpt>
      <trkpt lat="42.448227" lon="-5.884837">
        <ele>813.170</ele>
        <time>2019-03-26T01:28:05Z</time>
      </trkpt>
      <trkpt lat="42.449028" lon="-5.884811">
        <ele>814.662</ele>
        <time>2019-03-26T01:28:25Z</time>
      </trkpt>
      <trkpt lat="42.449829" lon="-5.884786">
        <ele>813.920</ele>
        <time>2019-03-26T01:28:45Z</time>
      </trkpt>
      <trkpt lat="42.450630" lon="-5.884760">
        <ele>813.883</ele>
        <time>2019-03-26T01:29:05Z</time>
      </trkpt>
      <trkpt lat="42.450930" lon="-5.884650">
        <ele>813.965</ele>
        <time>2019-03-26T01:29:25Z</time>
      </trkpt>
      <trkpt lat="42.451000" lon="-5.884510">
        <ele>813.974</ele>
        <time>2019-03-26T01:29:45Z</time>
      </trkpt>
      <trkpt lat="42.451100" lon="-5.884430">
        <ele>813.456</ele>
        <time>2019-03-26T01:30:05Z</time>
      </trkpt>
      <trkpt lat="42.451220" lon="-5.884390">
        <ele>813.421</ele>
        <time>2019-03-26T01:30:25Z</time>
      </trkpt>
      <trkpt lat="42.451340" lon="-5.884420">
        <ele>813.408</ele>
        <time>2019-03-26T01:30:45Z</time>
      </trkpt>
      <trkpt lat="42.451450" lon="-5.884490">
        <ele>813.470</ele>
        <time>2019-03-26T01:31:05Z</time>
      </trkpt>
      <trkpt lat="42.451530" lon="-5.884610">
        <ele>813.871</ele>
        <time>2019-03-26T01:31:25Z</time>
      </trkpt>
      <trkpt lat="42.451850" lon="-5.884730">
        <ele>813.812</ele>
        <time>2019-03-26T01:31:45Z</time>
      </trkpt>
      <trkpt lat="42.452724" lon="-5.884701">
        <ele>815.461</ele>
        <time>2019-03-26T01:32:05Z</time>
      </trkpt>
      <trkpt lat="42.453599" lon="-5.884673">
        <ele>815.573</ele>
        <time>2019-03-26T01:32:25Z</time>
      </trkpt>
      <trkpt lat="42.454473" lon="-5.884644">
        <ele>815.511</ele>
        <time>2019-03-26T01:32:45Z</time>
      </trkpt>
      <trkpt lat="42.455347" lon="-5.884616">
        <ele>816.664</ele>
        <time>2019-03-26T01:33:05Z</time>
      </trkpt>
      <trkpt lat="42.456221" lon="-5.884587">
        <ele>817.196</ele>
        <time>2019-03-26T01:33:25Z</time>
      </trkpt>
      <trkpt lat="42.457096" lon="-5.884559">
        <ele>817.321</ele>
        <time>2019-03-26T01:33:45Z</time>
      </trkpt>
      <trkpt lat="42.457970" lon="-5.884530">
        <ele>818.241</ele>
        <time>2019-03-26T01:34:05Z</time>
      </trkpt>
      <trkpt lat="42.458110" lon="-5.884470">
        <ele>818.805</ele>
        <time>2019-03-26T01:34:25Z</time>
      </trkpt>
      <trkpt lat="42.458200" lon="-5.884360">
        <ele>818.808</ele>
        <time>2019-03-26T01:34:45Z</time>
      </trkpt>
      <trkpt lat="42.458270" lon="-5.884240">
        <ele>819.035</ele>
        <time>2019-03-26T01:35:05Z</time>
      </trkpt>
      <trkpt lat="42.458360" lon="-5.884190">
        <ele>819.096</ele>
        <time>2019-03-26T01:35:25Z</time>
      </trkpt>
      <trkpt lat="42.458500" lon="-5.884240">
        <ele>819.027</ele>
        <time>2019-03-26T01:35:45Z</time>
      </trkpt>
      <trkpt lat="42.458570" lon="-5.884370">
        <ele>819.076</ele>
        <time>2019-03-26T01:36:05Z</time>
      </trkpt>
      <trkpt lat="42.458690" lon="-5.884450">
        <ele>818.678</ele>
        <time>2019-03-26T01:36:25Z</time>
      </trkpt>
      <trkpt lat="42.458860" lon="-5.884510">
        <ele>818.616</ele>
        <time>2019-03-26T01:36:45Z</time>
      </trkpt>
      <trkpt lat="42.459630" lon="-5.884488">
        <ele>819.579</ele>
        <time>2019-03-26T01:37:05Z</time>
      </trkpt>
      <trkpt lat="42.460400" lon="-5.884466">
        <ele>819.681</ele>
        <time>2019-03-26T01:37:25Z</time>
      </trkpt>
      <trkpt lat="42.461170" lon="-5.884444">
        <ele>819.622</ele>
        <time>2019-03-26T01:37:45Z</time>
      </trkpt>
      <trkpt lat="42.461940" lon="-5.884422">
        <ele>821.362</ele>
        <time>2019-03-26T01:38:05Z</time>
      </trkpt>
      <trkpt lat="42.462710" lon="-5.884400">
        <ele>822.808</ele>
        <time>2019-03-26T01:38:25Z</time>
      </trkpt>
      <trkpt lat="42.463080" lon="-5.884430">
        <ele>822.408</ele>
        <time>2019-03-26T01:38:45Z</time>
      </trkpt>
      <trkpt lat="42.463460" lon="-5.884500">
        <ele>822.485</ele>
        <time>2019-03-26T01:39:05Z</time>
      </trkpt>
      <trkpt lat="42.464140" lon="-5.884630">
        <ele>821.656</ele>
        <time>2019-03-26T01:39:25Z</time>
      </trkpt>
      <trkpt lat="42.464230" lon="-5.884670">
        <ele>821.697</ele>
        <time>2019-03-26T01:39:45Z</time>
      </trkpt>
      <trkpt lat="42.464400" lon="-5.884730">
        <ele>821.456</ele>
        <time>2019-03-26T01:40:05Z</time>
      </trkpt>
      <trkpt lat="42.464630" lon="-5.884920">
        <ele>821.088</ele>
        <time>2019-03-26T01:40:25Z</time>
      </trkpt>
      <trkpt lat="42.464840" lon="-5.885160">
        <ele>820.656</ele>
        <time>2019-03-26T01:40:45Z</time>
      </trkpt>
      <trkpt lat="42.465454" lon="-5.886018">
        <ele>822.649</ele>
        <time>2019-03-26T01:41:05Z</time>
      </trkpt>
      <trkpt lat="42.466069" lon="-5.886876">
        <ele>823.111</ele>
        <time>2019-03-26T01:41:25Z</time>
      </trkpt>
      <trkpt lat="42.466683" lon="-5.887733">
        <ele>822.944</ele>
        <time>2019-03-26T01:41:45Z</time>
      </trkpt>
      <trkpt lat="42.467297" lon="-5.888591">
        <ele>821.505</ele>
        <time>2019-03-26T01:42:05Z</time>
      </trkpt>
      <trkpt lat="42.467912" lon="-5.889449">
        <ele>820.515</ele>
        <time>2019-03-26T01:42:25Z</time>
      </trkpt>
      <trkpt lat="42.468526" lon="-5.890307">
        <ele>820.508</ele>
        <time>2019-03-26T01:42:45Z</time>
      </trkpt>
      <trkpt lat="42.469140" lon="-5.891165">
        <ele>820.687</ele>
        <time>2019-03-26T01:43:05Z</time>
      </trkpt>
      <trkpt lat="42.469754" lon="-5.892022">
        <ele>821.648</ele>
        <time>2019-03-26T01:43:25Z</time>
      </trkpt>
      <trkpt lat="42.470369" lon="-5.892880">
        <ele>821.579</ele>
        <time>2019-03-26T01:43:45Z</time>
      </trkpt>
      <trkpt lat="42.470983" lon="-5.893738">
        <ele>821.678</ele>
        <time>2019-03-26T01:44:05Z</time>
      </trkpt>
      <trkpt lat="42.471597" lon="-5.894596">
        <ele>822.170</ele>
        <time>2019-03-26T01:44:25Z</time>
      </trkpt>
      <trkpt lat="42.472212" lon="-5.895454">
        <ele>822.748</ele>
        <time>2019-03-26T01:44:45Z</time>
      </trkpt>
      <trkpt lat="42.472826" lon="-5.896312">
        <ele>823.071</ele>
        <time>2019-03-26T01:45:05Z</time>
      </trkpt>
      <trkpt lat="42.473440" lon="-5.897170">
        <ele>823.313</ele>
        <time>2019-03-26T01:45:25Z</time>
      </trkpt>
      <trkpt lat="42.473900" lon="-5.897800">
        <ele>823.836</ele>
        <time>2019-03-26T01:45:45Z</time>
      </trkpt>
      <trkpt lat="42.474360" lon="-5.898430">
        <ele>825.317</ele>
        <time>2019-03-26T01:46:05Z</time>
      </trkpt>
      <trkpt lat="42.474530" lon="-5.898600">
        <ele>825.318</ele>
        <time>2019-03-26T01:46:25Z</time>
      </trkpt>
      <trkpt lat="42.474710" lon="-5.898730">
        <ele>825.308</ele>
        <time>2019-03-26T01:46:45Z</time>
      </trkpt>
      <trkpt lat="42.474760" lon="-5.898750">
        <ele>825.346</ele>
        <time>2019-03-26T01:47:05Z</time>
      </trkpt>
      <trkpt lat="42.474940" lon="-5.898820">
        <ele>825.317</ele>
        <time>2019-03-26T01:47:25Z</time>
      </trkpt>
      <trkpt lat="42.475300" lon="-5.898880">
        <ele>825.438</ele>
        <time>2019-03-26T01:47:45Z</time>
      </trkpt>
      <trkpt lat="42.476157" lon="-5.898963">
        <ele>825.667</ele>
        <time>2019-03-26T01:48:05Z</time>
      </trkpt>
      <trkpt lat="42.477014" lon="-5.899046">
        <ele>825.189</ele>
        <time>2019-03-26T01:48:25Z</time>
      </trkpt>
      <trkpt lat="42.477871" lon="-5.899129">
        <ele>824.927</ele>
        <time>2019-03-26T01:48:45Z</time>
      </trkpt>
      <trkpt lat="42.478729" lon="-5.899211">
        <ele>824.910</ele>
        <time>2019-03-26T01:49:05Z</time>
      </trkpt>
      <trkpt lat="42.479586" lon="-5.899294">
        <ele>824.832</ele>
        <time>2019-03-26T01:49:25Z</time>
      </trkpt>
      <trkpt lat="42.480443" lon="-5.899377">
        <ele>825.254</ele>
        <time>2019-03-26T01:49:45Z</time>
      </trkpt>
      <trkpt lat="42.481300" lon="-5.899460">
        <ele>825.256</ele>
        <time>2019-03-26T01:50:05Z</time>
      </trkpt>
      <trkpt lat="42.482138" lon="-5.899371">
        <ele>825.411</ele>
        <time>2019-03-26T01:50:25Z</time>
      </trkpt>
      <trkpt lat="42.482975" lon="-5.899283">
        <ele>825.608</ele>
        <time>2019-03-26T01:50:45Z</time>
      </trkpt>
      <trkpt lat="42.483813" lon="-5.899194">
        <ele>825.988</ele>
        <time>2019-03-26T01:51:05Z</time>
      </trkpt>
      <trkpt lat="42.484650" lon="-5.899105">
        <ele>826.349</ele>
        <time>2019-03-26T01:51:25Z</time>
      </trkpt>
      <trkpt lat="42.485488" lon="-5.899016">
        <ele>826.760</ele>
        <time>2019-03-26T01:51:45Z</time>
      </trkpt>
      <trkpt lat="42.486325" lon="-5.898928">
        <ele>827.019</ele>
        <time>2019-03-26T01:52:05Z</time>
      </trkpt>
      <trkpt lat="42.487163" lon="-5.898839">
        <ele>827.251</ele>
        <time>2019-03-26T01:52:25Z</time>
      </trkpt>
      <trkpt lat="42.488000" lon="-5.898750">
        <ele>827.139</ele>
        <time>2019-03-26T01:52:45Z</time>
      </trkpt>
      <trkpt lat="42.488710" lon="-5.898667">
        <ele>827.182</ele>
        <time>2019-03-26T01:53:05Z</time>
      </trkpt>
      <trkpt lat="42.489420" lon="-5.898583">
        <ele>829.084</ele>
        <time>2019-03-26T01:53:25Z</time>
      </trkpt>
      <trkpt lat="42.490130" lon="-5.898500">
        <ele>829.355</ele>
        <time>2019-03-26T01:53:45Z</time>
      </trkpt>
      <trkpt lat="42.490990" lon="-5.898374">
        <ele>829.407</ele>
        <time>2019-03-26T01:54:05Z</time>
      </trkpt>
      <trkpt lat="42.491850" lon="-5.898249">
        <ele>830.017</ele>
        <time>2019-03-26T01:54:25Z</time>
      </trkpt>
      <trkpt lat="42.492710" lon="-5.898123">
        <ele>830.408</ele>
        <time>2019-03-26T01:54:45Z</time>
      </trkpt>
      <trkpt lat="42.493570" lon="-5.897998">
        <ele>831.318</ele>
        <time>2019-03-26T01:55:05Z</time>
      </trkpt>
      <trkpt lat="42.494430" lon="-5.897872">
        <ele>833.089</ele>
        <time>2019-03-26T01:55:25Z</time>
      </trkpt>
      <trkpt lat="42.495290" lon="-5.897747">
        <ele>834.650</ele>
        <time>2019-03-26T01:55:45Z</time>
      </trkpt>
      <trkpt lat="42.496150" lon="-5.897621">
        <ele>836.789</ele>
        <time>2019-03-26T01:56:05Z</time>
      </trkpt>
      <trkpt lat="42.497010" lon="-5.897496">
        <ele>838.191</ele>
        <time>2019-03-26T01:56:25Z</time>
      </trkpt>
      <trkpt lat="42.497870" lon="-5.897370">
        <ele>838.529</ele>
        <time>2019-03-26T01:56:45Z</time>
      </trkpt>
      <trkpt lat="42.498230" lon="-5.897300">
        <ele>838.732</ele>
        <time>2019-03-26T01:57:05Z</time>
      </trkpt>
      <trkpt lat="42.498630" lon="-5.897190">
        <ele>838.864</ele>
        <time>2019-03-26T01:57:25Z</time>
      </trkpt>
      <trkpt lat="42.499220" lon="-5.896880">
        <ele>837.717</ele>
        <time>2019-03-26T01:57:45Z</time>
      </trkpt>
      <trkpt lat="42.499955" lon="-5.896450">
        <ele>837.687</ele>
        <time>2019-03-26T01:58:05Z</time>
      </trkpt>
      <trkpt lat="42.500690" lon="-5.896020">
        <ele>840.215</ele>
        <time>2019-03-26T01:58:25Z</time>
      </trkpt>
      <trkpt lat="42.500830" lon="-5.895960">
        <ele>841.508</ele>
        <time>2019-03-26T01:58:45Z</time>
      </trkpt>
      <trkpt lat="42.501400" lon="-5.895780">
        <ele>843.784</ele>
        <time>2019-03-26T01:59:05Z</time>
      </trkpt>
      <trkpt lat="42.501770" lon="-5.895720">
        <ele>844.535</ele>
        <time>2019-03-26T01:59:25Z</time>
      </trkpt>
      <trkpt lat="42.501940" lon="-5.895710">
        <ele>844.576</ele>
        <time>2019-03-26T01:59:45Z</time>
      </trkpt>
      <trkpt lat="42.502200" lon="-5.895630">
        <ele>844.635</ele>
        <time>2019-03-26T02:00:05Z</time>
      </trkpt>
      <trkpt lat="42.502950" lon="-5.895305">
        <ele>842.647</ele>
        <time>2019-03-26T02:00:25Z</time>
      </trkpt>
      <trkpt lat="42.503700" lon="-5.894980">
        <ele>841.385</ele>
        <time>2019-03-26T02:00:45Z</time>
      </trkpt>
      <trkpt lat="42.504305" lon="-5.894745">
        <ele>840.978</ele>
        <time>2019-03-26T02:01:05Z</time>
      </trkpt>
      <trkpt lat="42.504910" lon="-5.894510">
        <ele>837.880</ele>
        <time>2019-03-26T02:01:25Z</time>
      </trkpt>
      <trkpt lat="42.505705" lon="-5.894180">
        <ele>838.312</ele>
        <time>2019-03-26T02:01:45Z</time>
      </trkpt>
      <trkpt lat="42.506500" lon="-5.893850">
        <ele>839.732</ele>
        <time>2019-03-26T02:02:05Z</time>
      </trkpt>
      <trkpt lat="42.507200" lon="-5.893530">
        <ele>839.705</ele>
        <time>2019-03-26T02:02:25Z</time>
      </trkpt>
      <trkpt lat="42.507970" lon="-5.893156">
        <ele>839.708</ele>
        <time>2019-03-26T02:02:45Z</time>
      </trkpt>
      <trkpt lat="42.508740" lon="-5.892782">
        <ele>839.924</ele>
        <time>2019-03-26T02:03:05Z</time>
      </trkpt>
      <trkpt lat="42.509510" lon="-5.892408">
        <ele>839.995</ele>
        <time>2019-03-26T02:03:25Z</time>
      </trkpt>
      <trkpt lat="42.510280" lon="-5.892034">
        <ele>839.926</ele>
        <time>2019-03-26T02:03:45Z</time>
      </trkpt>
      <trkpt lat="42.511050" lon="-5.891660">
        <ele>839.935</ele>
        <time>2019-03-26T02:04:05Z</time>
      </trkpt>
      <trkpt lat="42.511680" lon="-5.891300">
        <ele>839.077</ele>
        <time>2019-03-26T02:04:25Z</time>
      </trkpt>
      <trkpt lat="42.511850" lon="-5.891210">
        <ele>839.395</ele>
        <time>2019-03-26T02:04:45Z</time>
      </trkpt>
      <trkpt lat="42.511840" lon="-5.891200">
        <ele>839.328</ele>
        <time>2019-03-26T02:05:05Z</time>
      </trkpt>
      <trkpt lat="42.511810" lon="-5.891000">
        <ele>838.750</ele>
        <time>2019-03-26T02:05:25Z</time>
      </trkpt>
      <trkpt lat="42.511820" lon="-5.890850">
        <ele>838.389</ele>
        <time>2019-03-26T02:05:45Z</time>
      </trkpt>
      <trkpt lat="42.511734" lon="-5.889752">
        <ele>838.606</ele>
        <time>2019-03-26T02:06:05Z</time>
      </trkpt>
      <trkpt lat="42.511648" lon="-5.888655">
        <ele>837.526</ele>
        <time>2019-03-26T02:06:25Z</time>
      </trkpt>
      <trkpt lat="42.511561" lon="-5.887557">
        <ele>836.908</ele>
        <time>2019-03-26T02:06:45Z</time>
      </trkpt>
      <trkpt lat="42.511475" lon="-5.886460">
        <ele>836.411</ele>
        <time>2019-03-26T02:07:05Z</time>
      </trkpt>
      <trkpt lat="42.511389" lon="-5.885362">
        <ele>836.852</ele>
        <time>2019-03-26T02:07:25Z</time>
      </trkpt>
      <trkpt lat="42.511303" lon="-5.884265">
        <ele>836.773</ele>
        <time>2019-03-26T02:07:45Z</time>
      </trkpt>
      <trkpt lat="42.511216" lon="-5.883167">
        <ele>836.332</ele>
        <time>2019-03-26T02:08:05Z</time>
      </trkpt>
      <trkpt lat="42.511130" lon="-5.882070">
        <ele>836.524</ele>
        <time>2019-03-26T02:08:25Z</time>
      </trkpt>
      <trkpt lat="42.511940" lon="-5.881814">
        <ele>835.982</ele>
        <time>2019-03-26T02:08:45Z</time>
      </trkpt>
      <trkpt lat="42.512750" lon="-5.881558">
        <ele>835.925</ele>
        <time>2019-03-26T02:09:05Z</time>
      </trkpt>
      <trkpt lat="42.513560" lon="-5.881302">
        <ele>836.257</ele>
        <time>2019-03-26T02:09:25Z</time>
      </trkpt>
      <trkpt lat="42.514370" lon="-5.881046">
        <ele>837.271</ele>
        <time>2019-03-26T02:09:45Z</time>
      </trkpt>
      <trkpt lat="42.515180" lon="-5.880790">
        <ele>838.241</ele>
        <time>2019-03-26T02:10:05Z</time>
      </trkpt>
      <trkpt lat="42.515590" lon="-5.880670">
        <ele>838.515</ele>
        <time>2019-03-26T02:10:25Z</time>
      </trkpt>
      <trkpt lat="42.515710" lon="-5.880540">
        <ele>838.808</ele>
        <time>2019-03-26T02:10:45Z</time>
      </trkpt>
      <trkpt lat="42.516210" lon="-5.879680">
        <ele>839.080</ele>
        <time>2019-03-26T02:11:05Z</time>
      </trkpt>
      <trkpt lat="42.516620" lon="-5.878890">
        <ele>838.761</ele>
        <time>2019-03-26T02:11:25Z</time>
      </trkpt>
      <trkpt lat="42.517030" lon="-5.878100">
        <ele>838.872</ele>
        <time>2019-03-26T02:11:45Z</time>
      </trkpt>
      <trkpt lat="42.517440" lon="-5.877310">
        <ele>838.881</ele>
        <time>2019-03-26T02:12:05Z</time>
      </trkpt>
      <trkpt lat="42.517590" lon="-5.877100">
        <ele>838.713</ele>
        <time>2019-03-26T02:12:25Z</time>
      </trkpt>
      <trkpt lat="42.517580" lon="-5.877110">
        <ele>838.721</ele>
        <time>2019-03-26T02:12:45Z</time>
      </trkpt>
      <trkpt lat="42.518095" lon="-5.876520">
        <ele>838.724</ele>
        <time>2019-03-26T02:13:05Z</time>
      </trkpt>
      <trkpt lat="42.518610" lon="-5.875930">
        <ele>838.836</ele>
        <time>2019-03-26T02:13:25Z</time>
      </trkpt>
      <trkpt lat="42.519125" lon="-5.875340">
        <ele>839.341</ele>
        <time>2019-03-26T02:13:45Z</time>
      </trkpt>
      <trkpt lat="42.519640" lon="-5.874750">
        <ele>839.381</ele>
        <time>2019-03-26T02:14:05Z</time>
      </trkpt>
      <trkpt lat="42.520320" lon="-5.874060">
        <ele>840.409</ele>
        <time>2019-03-26T02:14:25Z</time>
      </trkpt>
      <trkpt lat="42.520760" lon="-5.873630">
        <ele>840.308</ele>
        <time>2019-03-26T02:14:45Z</time>
      </trkpt>
      <trkpt lat="42.521200" lon="-5.873200">
        <ele>840.327</ele>
        <time>2019-03-26T02:15:05Z</time>
      </trkpt>
      <trkpt lat="42.521838" lon="-5.872559">
        <ele>840.428</ele>
        <time>2019-03-26T02:15:25Z</time>
      </trkpt>
      <trkpt lat="42.522475" lon="-5.871918">
        <ele>840.439</ele>
        <time>2019-03-26T02:15:45Z</time>
      </trkpt>
      <trkpt lat="42.523113" lon="-5.871276">
        <ele>841.198</ele>
        <time>2019-03-26T02:16:05Z</time>
      </trkpt>
      <trkpt lat="42.523750" lon="-5.870635">
        <ele>841.110</ele>
        <time>2019-03-26T02:16:25Z</time>
      </trkpt>
      <trkpt lat="42.524388" lon="-5.869994">
        <ele>841.668</ele>
        <time>2019-03-26T02:16:45Z</time>
      </trkpt>
      <trkpt lat="42.525025" lon="-5.869353">
        <ele>841.511</ele>
        <time>2019-03-26T02:17:05Z</time>
      </trkpt>
      <trkpt lat="42.525663" lon="-5.868711">
        <ele>841.533</ele>
        <time>2019-03-26T02:17:25Z</time>
      </trkpt>
      <trkpt lat="42.526300" lon="-5.868070">
        <ele>842.319</ele>
        <time>2019-03-26T02:17:45Z</time>
      </trkpt>
      <trkpt lat="42.526470" lon="-5.868000">
        <ele>842.309</ele>
        <time>2019-03-26T02:18:05Z</time>
      </trkpt>
      <trkpt lat="42.526530" lon="-5.868020">
        <ele>842.319</ele>
        <time>2019-03-26T02:18:25Z</time>
      </trkpt>
      <trkpt lat="42.526560" lon="-5.868070">
        <ele>842.308</ele>
        <time>2019-03-26T02:18:45Z</time>
      </trkpt>
      <trkpt lat="42.526720" lon="-5.868300">
        <ele>842.374</ele>
        <time>2019-03-26T02:19:05Z</time>
      </trkpt>
      <trkpt lat="42.526920" lon="-5.868770">
        <ele>842.335</ele>
        <time>2019-03-26T02:19:25Z</time>
      </trkpt>
      <trkpt lat="42.527286" lon="-5.869756">
        <ele>842.356</ele>
        <time>2019-03-26T02:19:45Z</time>
      </trkpt>
      <trkpt lat="42.527652" lon="-5.870742">
        <ele>842.325</ele>
        <time>2019-03-26T02:20:05Z</time>
      </trkpt>
      <trkpt lat="42.528018" lon="-5.871728">
        <ele>844.997</ele>
        <time>2019-03-26T02:20:25Z</time>
      </trkpt>
      <trkpt lat="42.528384" lon="-5.872714">
        <ele>844.955</ele>
        <time>2019-03-26T02:20:45Z</time>
      </trkpt>
      <trkpt lat="42.528750" lon="-5.873700">
        <ele>844.978</ele>
        <time>2019-03-26T02:21:05Z</time>
      </trkpt>
      <trkpt lat="42.528830" lon="-5.873960">
        <ele>844.970</ele>
        <time>2019-03-26T02:21:25Z</time>
      </trkpt>
      <trkpt lat="42.529535" lon="-5.873260">
        <ele>845.756</ele>
        <time>2019-03-26T02:21:45Z</time>
      </trkpt>
      <trkpt lat="42.530240" lon="-5.872560">
        <ele>845.959</ele>
        <time>2019-03-26T02:22:05Z</time>
      </trkpt>
      <trkpt lat="42.530945" lon="-5.871860">
        <ele>846.514</ele>
        <time>2019-03-26T02:22:25Z</time>
      </trkpt>
      <trkpt lat="42.531650" lon="-5.871160">
        <ele>847.308</ele>
        <time>2019-03-26T02:22:45Z</time>
      </trkpt>
      <trkpt lat="42.531970" lon="-5.870750">
        <ele>845.868</ele>
        <time>2019-03-26T02:23:05Z</time>
      </trkpt>
      <trkpt lat="42.532490" lon="-5.870010">
        <ele>845.759</ele>
        <time>2019-03-26T02:23:25Z</time>
      </trkpt>
      <trkpt lat="42.533010" lon="-5.869270">
        <ele>844.630</ele>
        <time>2019-03-26T02:23:45Z</time>
      </trkpt>
      <trkpt lat="42.533530" lon="-5.868530">
        <ele>847.329</ele>
        <time>2019-03-26T02:24:05Z</time>
      </trkpt>
      <trkpt lat="42.533945" lon="-5.867965">
        <ele>847.471</ele>
        <time>2019-03-26T02:24:25Z</time>
      </trkpt>
      <trkpt lat="42.534360" lon="-5.867400">
        <ele>847.119</ele>
        <time>2019-03-26T02:24:45Z</time>
      </trkpt>
      <trkpt lat="42.534760" lon="-5.866825">
        <ele>847.122</ele>
        <time>2019-03-26T02:25:05Z</time>
      </trkpt>
      <trkpt lat="42.535160" lon="-5.866250">
        <ele>847.044</ele>
        <time>2019-03-26T02:25:25Z</time>
      </trkpt>
      <trkpt lat="42.535750" lon="-5.865427">
        <ele>847.825</ele>
        <time>2019-03-26T02:25:45Z</time>
      </trkpt>
      <trkpt lat="42.536340" lon="-5.864603">
        <ele>848.826</ele>
        <time>2019-03-26T02:26:05Z</time>
      </trkpt>
      <trkpt lat="42.536930" lon="-5.863780">
        <ele>849.008</ele>
        <time>2019-03-26T02:26:25Z</time>
      </trkpt>
      <trkpt lat="42.536720" lon="-5.863490">
        <ele>848.908</ele>
        <time>2019-03-26T02:26:45Z</time>
      </trkpt>
      <trkpt lat="42.536930" lon="-5.863780">
        <ele>849.045</ele>
        <time>2019-03-26T02:27:05Z</time>
      </trkpt>
      <trkpt lat="42.537470" lon="-5.863040">
        <ele>848.176</ele>
        <time>2019-03-26T02:27:25Z</time>
      </trkpt>
      <trkpt lat="42.538010" lon="-5.862300">
        <ele>848.127</ele>
        <time>2019-03-26T02:27:45Z</time>
      </trkpt>
      <trkpt lat="42.538395" lon="-5.861635">
        <ele>849.256</ele>
        <time>2019-03-26T02:28:05Z</time>
      </trkpt>
      <trkpt lat="42.538780" lon="-5.860970">
        <ele>849.318</ele>
        <time>2019-03-26T02:28:25Z</time>
      </trkpt>
      <trkpt lat="42.539140" lon="-5.860280">
        <ele>849.766</ele>
        <time>2019-03-26T02:28:45Z</time>
      </trkpt>
      <trkpt lat="42.539500" lon="-5.859590">
        <ele>849.769</ele>
        <time>2019-03-26T02:29:05Z</time>
      </trkpt>
      <trkpt lat="42.539840" lon="-5.858980">
        <ele>849.171</ele>
        <time>2019-03-26T02:29:25Z</time>
      </trkpt>
      <trkpt lat="42.540180" lon="-5.858370">
        <ele>849.164</ele>
        <time>2019-03-26T02:29:45Z</time>
      </trkpt>
      <trkpt lat="42.540605" lon="-5.857530">
        <ele>849.506</ele>
        <time>2019-03-26T02:30:05Z</time>
      </trkpt>
      <trkpt lat="42.541030" lon="-5.856690">
        <ele>850.416</ele>
        <time>2019-03-26T02:30:25Z</time>
      </trkpt>
      <trkpt lat="42.541315" lon="-5.856105">
        <ele>850.008</ele>
        <time>2019-03-26T02:30:45Z</time>
      </trkpt>
      <trkpt lat="42.541600" lon="-5.855520">
        <ele>850.099</ele>
        <time>2019-03-26T02:31:05Z</time>
      </trkpt>
      <trkpt lat="42.542060" lon="-5.855610">
        <ele>849.530</ele>
        <time>2019-03-26T02:31:25Z</time>
      </trkpt>
      <trkpt lat="42.542810" lon="-5.856100">
        <ele>849.511</ele>
        <time>2019-03-26T02:31:45Z</time>
      </trkpt>
      <trkpt lat="42.543310" lon="-5.856650">
        <ele>850.310</ele>
        <time>2019-03-26T02:32:05Z</time>
      </trkpt>
      <trkpt lat="42.543885" lon="-5.855880">
        <ele>850.762</ele>
        <time>2019-03-26T02:32:25Z</time>
      </trkpt>
      <trkpt lat="42.544460" lon="-5.855110">
        <ele>851.540</ele>
        <time>2019-03-26T02:32:45Z</time>
      </trkpt>
      <trkpt lat="42.545005" lon="-5.854410">
        <ele>853.293</ele>
        <time>2019-03-26T02:33:05Z</time>
      </trkpt>
      <trkpt lat="42.545550" lon="-5.853710">
        <ele>854.295</ele>
        <time>2019-03-26T02:33:25Z</time>
      </trkpt>
      <trkpt lat="42.546296" lon="-5.853125">
        <ele>853.667</ele>
        <time>2019-03-26T02:33:45Z</time>
      </trkpt>
      <trkpt lat="42.547041" lon="-5.852539">
        <ele>853.781</ele>
        <time>2019-03-26T02:34:05Z</time>
      </trkpt>
      <trkpt lat="42.547787" lon="-5.851953">
        <ele>854.219</ele>
        <time>2019-03-26T02:34:25Z</time>
      </trkpt>
      <trkpt lat="42.548532" lon="-5.851368">
        <ele>855.908</ele>
        <time>2019-03-26T02:34:45Z</time>
      </trkpt>
      <trkpt lat="42.549278" lon="-5.850782">
        <ele>855.869</ele>
        <time>2019-03-26T02:35:05Z</time>
      </trkpt>
      <trkpt lat="42.550023" lon="-5.850197">
        <ele>853.570</ele>
        <time>2019-03-26T02:35:25Z</time>
      </trkpt>
      <trkpt lat="42.550769" lon="-5.849611">
        <ele>853.121</ele>
        <time>2019-03-26T02:35:45Z</time>
      </trkpt>
      <trkpt lat="42.551514" lon="-5.849026">
        <ele>854.470</ele>
        <time>2019-03-26T02:36:05Z</time>
      </trkpt>
      <trkpt lat="42.552260" lon="-5.848440">
        <ele>855.972</ele>
        <time>2019-03-26T02:36:25Z</time>
      </trkpt>
      <trkpt lat="42.553015" lon="-5.848025">
        <ele>857.550</ele>
        <time>2019-03-26T02:36:45Z</time>
      </trkpt>
      <trkpt lat="42.553770" lon="-5.847610">
        <ele>858.183</ele>
        <time>2019-03-26T02:37:05Z</time>
      </trkpt>
      <trkpt lat="42.553890" lon="-5.847540">
        <ele>858.195</ele>
        <time>2019-03-26T02:37:25Z</time>
      </trkpt>
      <trkpt lat="42.554250" lon="-5.847410">
        <ele>858.334</ele>
        <time>2019-03-26T02:37:45Z</time>
      </trkpt>
      <trkpt lat="42.554670" lon="-5.847490">
        <ele>858.355</ele>
        <time>2019-03-26T02:38:05Z</time>
      </trkpt>
      <trkpt lat="42.554890" lon="-5.847520">
        <ele>858.310</ele>
        <time>2019-03-26T02:38:25Z</time>
      </trkpt>
      <trkpt lat="42.555070" lon="-5.847520">
        <ele>858.808</ele>
        <time>2019-03-26T02:38:45Z</time>
      </trkpt>
      <trkpt lat="42.555230" lon="-5.847470">
        <ele>859.326</ele>
        <time>2019-03-26T02:39:05Z</time>
      </trkpt>
      <trkpt lat="42.555770" lon="-5.847140">
        <ele>858.917</ele>
        <time>2019-03-26T02:39:25Z</time>
      </trkpt>
      <trkpt lat="42.556600" lon="-5.846740">
        <ele>858.418</ele>
        <time>2019-03-26T02:39:45Z</time>
      </trkpt>
      <trkpt lat="42.557050" lon="-5.846460">
        <ele>858.457</ele>
        <time>2019-03-26T02:40:05Z</time>
      </trkpt>
      <trkpt lat="42.557240" lon="-5.846300">
        <ele>858.419</ele>
        <time>2019-03-26T02:40:25Z</time>
      </trkpt>
      <trkpt lat="42.557420" lon="-5.846110">
        <ele>858.437</ele>
        <time>2019-03-26T02:40:45Z</time>
      </trkpt>
      <trkpt lat="42.557845" lon="-5.845595">
        <ele>857.870</ele>
        <time>2019-03-26T02:41:05Z</time>
      </trkpt>
      <trkpt lat="42.558270" lon="-5.845080">
        <ele>857.042</ele>
        <time>2019-03-26T02:41:25Z</time>
      </trkpt>
      <trkpt lat="42.558620" lon="-5.844590">
        <ele>857.463</ele>
        <time>2019-03-26T02:41:45Z</time>
      </trkpt>
      <trkpt lat="42.558780" lon="-5.844330">
        <ele>857.644</ele>
        <time>2019-03-26T02:42:05Z</time>
      </trkpt>
      <trkpt lat="42.559090" lon="-5.843720">
        <ele>857.518</ele>
        <time>2019-03-26T02:42:25Z</time>
      </trkpt>
      <trkpt lat="42.559390" lon="-5.843340">
        <ele>858.808</ele>
        <time>2019-03-26T02:42:45Z</time>
      </trkpt>
      <trkpt lat="42.559520" lon="-5.843230">
        <ele>859.139</ele>
        <time>2019-03-26T02:43:05Z</time>
      </trkpt>
      <trkpt lat="42.559700" lon="-5.843130">
        <ele>859.260</ele>
        <time>2019-03-26T02:43:25Z</time>
      </trkpt>
      <trkpt lat="42.560200" lon="-5.843370">
        <ele>860.191</ele>
        <time>2019-03-26T02:43:45Z</time>
      </trkpt>
      <trkpt lat="42.560630" lon="-5.843430">
        <ele>861.270</ele>
        <time>2019-03-26T02:44:05Z</time>
      </trkpt>
      <trkpt lat="42.560980" lon="-5.843600">
        <ele>860.692</ele>
        <time>2019-03-26T02:44:25Z</time>
      </trkpt>
      <trkpt lat="42.561270" lon="-5.843770">
        <ele>860.640</ele>
        <time>2019-03-26T02:44:45Z</time>
      </trkpt>
      <trkpt lat="42.562060" lon="-5.844030">
        <ele>860.573</ele>
        <time>2019-03-26T02:45:05Z</time>
      </trkpt>
      <trkpt lat="42.562653" lon="-5.843463">
        <ele>861.275</ele>
        <time>2019-03-26T02:45:25Z</time>
      </trkpt>
      <trkpt lat="42.563245" lon="-5.842895">
        <ele>861.387</ele>
        <time>2019-03-26T02:45:45Z</time>
      </trkpt>
      <trkpt lat="42.563838" lon="-5.842328">
        <ele>860.142</ele>
        <time>2019-03-26T02:46:05Z</time>
      </trkpt>
      <trkpt lat="42.564430" lon="-5.841760">
        <ele>860.326</ele>
        <time>2019-03-26T02:46:25Z</time>
      </trkpt>
      <trkpt lat="42.565045" lon="-5.841575">
        <ele>862.908</ele>
        <time>2019-03-26T02:46:45Z</time>
      </trkpt>
      <trkpt lat="42.565660" lon="-5.841390">
        <ele>862.591</ele>
        <time>2019-03-26T02:47:05Z</time>
      </trkpt>
      <trkpt lat="42.566380" lon="-5.841650">
        <ele>861.442</ele>
        <time>2019-03-26T02:47:25Z</time>
      </trkpt>
      <trkpt lat="42.567100" lon="-5.841910">
        <ele>862.633</ele>
        <time>2019-03-26T02:47:45Z</time>
      </trkpt>
      <trkpt lat="42.567640" lon="-5.841680">
        <ele>862.692</ele>
        <time>2019-03-26T02:48:05Z</time>
      </trkpt>
      <trkpt lat="42.568000" lon="-5.842375">
        <ele>864.294</ele>
        <time>2019-03-26T02:48:25Z</time>
      </trkpt>
      <trkpt lat="42.568360" lon="-5.843070">
        <ele>864.232</ele>
        <time>2019-03-26T02:48:45Z</time>
      </trkpt>
      <trkpt lat="42.568770" lon="-5.843970">
        <ele>865.335</ele>
        <time>2019-03-26T02:49:05Z</time>
      </trkpt>
      <trkpt lat="42.569180" lon="-5.844870">
        <ele>865.227</ele>
        <time>2019-03-26T02:49:25Z</time>
      </trkpt>
      <trkpt lat="42.569420" lon="-5.845465">
        <ele>865.635</ele>
        <time>2019-03-26T02:49:45Z</time>
      </trkpt>
      <trkpt lat="42.569660" lon="-5.846060">
        <ele>866.286</ele>
        <time>2019-03-26T02:50:05Z</time>
      </trkpt>
      <trkpt lat="42.570030" lon="-5.846870">
        <ele>867.514</ele>
        <time>2019-03-26T02:50:25Z</time>
      </trkpt>
      <trkpt lat="42.570400" lon="-5.847680">
        <ele>868.108</ele>
        <time>2019-03-26T02:50:45Z</time>
      </trkpt>
      <trkpt lat="42.570610" lon="-5.848100">
        <ele>868.956</ele>
        <time>2019-03-26T02:51:05Z</time>
      </trkpt>
      <trkpt lat="42.570730" lon="-5.848490">
        <ele>868.717</ele>
        <time>2019-03-26T02:51:25Z</time>
      </trkpt>
      <trkpt lat="42.571237" lon="-5.848020">
        <ele>869.788</ele>
        <time>2019-03-26T02:51:45Z</time>
      </trkpt>
      <trkpt lat="42.571743" lon="-5.847550">
        <ele>870.297</ele>
        <time>2019-03-26T02:52:05Z</time>
      </trkpt>
      <trkpt lat="42.572250" lon="-5.847080">
        <ele>869.139</ele>
        <time>2019-03-26T02:52:25Z</time>
      </trkpt>
      <trkpt lat="42.572680" lon="-5.846560">
        <ele>868.967</ele>
        <time>2019-03-26T02:52:45Z</time>
      </trkpt>
      <trkpt lat="42.573276" lon="-5.845654">
        <ele>867.970</ele>
        <time>2019-03-26T02:53:05Z</time>
      </trkpt>
      <trkpt lat="42.573872" lon="-5.844748">
        <ele>868.082</ele>
        <time>2019-03-26T02:53:25Z</time>
      </trkpt>
      <trkpt lat="42.574468" lon="-5.843842">
        <ele>867.723</ele>
        <time>2019-03-26T02:53:45Z</time>
      </trkpt>
      <trkpt lat="42.575064" lon="-5.842936">
        <ele>866.583</ele>
        <time>2019-03-26T02:54:05Z</time>
      </trkpt>
      <trkpt lat="42.575660" lon="-5.842030">
        <ele>865.711</ele>
        <time>2019-03-26T02:54:25Z</time>
      </trkpt>
      <trkpt lat="42.575850" lon="-5.841840">
        <ele>865.708</ele>
        <time>2019-03-26T02:54:45Z</time>
      </trkpt>
      <trkpt lat="42.575820" lon="-5.841870">
        <ele>865.715</ele>
        <time>2019-03-26T02:55:05Z</time>
      </trkpt>
      <trkpt lat="42.576140" lon="-5.841550">
        <ele>865.116</ele>
        <time>2019-03-26T02:55:25Z</time>
      </trkpt>
      <trkpt lat="42.576260" lon="-5.841350">
        <ele>865.027</ele>
        <time>2019-03-26T02:55:45Z</time>
      </trkpt>
      <trkpt lat="42.576310" lon="-5.841210">
        <ele>865.026</ele>
        <time>2019-03-26T02:56:05Z</time>
      </trkpt>
      <trkpt lat="42.576300" lon="-5.841110">
        <ele>865.088</ele>
        <time>2019-03-26T02:56:25Z</time>
      </trkpt>
      <trkpt lat="42.576320" lon="-5.841020">
        <ele>865.566</ele>
        <time>2019-03-26T02:56:45Z</time>
      </trkpt>
      <trkpt lat="42.576360" lon="-5.840930">
        <ele>865.589</ele>
        <time>2019-03-26T02:57:05Z</time>
      </trkpt>
      <trkpt lat="42.576400" lon="-5.840880">
        <ele>865.521</ele>
        <time>2019-03-26T02:57:25Z</time>
      </trkpt>
      <trkpt lat="42.576580" lon="-5.840850">
        <ele>865.712</ele>
        <time>2019-03-26T02:57:45Z</time>
      </trkpt>
      <trkpt lat="42.576870" lon="-5.840170">
        <ele>865.732</ele>
        <time>2019-03-26T02:58:05Z</time>
      </trkpt>
      <trkpt lat="42.577447" lon="-5.839284">
        <ele>866.705</ele>
        <time>2019-03-26T02:58:25Z</time>
      </trkpt>
      <trkpt lat="42.578024" lon="-5.838398">
        <ele>867.408</ele>
        <time>2019-03-26T02:58:45Z</time>
      </trkpt>
      <trkpt lat="42.578601" lon="-5.837512">
        <ele>869.194</ele>
        <time>2019-03-26T02:59:05Z</time>
      </trkpt>
      <trkpt lat="42.579178" lon="-5.836626">
        <ele>869.295</ele>
        <time>2019-03-26T02:59:25Z</time>
      </trkpt>
      <trkpt lat="42.579755" lon="-5.835740">
        <ele>869.846</ele>
        <time>2019-03-26T02:59:45Z</time>
      </trkpt>
      <trkpt lat="42.580332" lon="-5.834854">
        <ele>870.485</ele>
        <time>2019-03-26T03:00:05Z</time>
      </trkpt>
      <trkpt lat="42.580909" lon="-5.833968">
        <ele>870.817</ele>
        <time>2019-03-26T03:00:25Z</time>
      </trkpt>
      <trkpt lat="42.581486" lon="-5.833082">
        <ele>871.365</ele>
        <time>2019-03-26T03:00:45Z</time>
      </trkpt>
      <trkpt lat="42.582063" lon="-5.832196">
        <ele>872.158</ele>
        <time>2019-03-26T03:01:05Z</time>
      </trkpt>
      <trkpt lat="42.582640" lon="-5.831310">
        <ele>873.040</ele>
        <time>2019-03-26T03:01:25Z</time>
      </trkpt>
      <trkpt lat="42.582995" lon="-5.830755">
        <ele>873.343</ele>
        <time>2019-03-26T03:01:45Z</time>
      </trkpt>
      <trkpt lat="42.583350" lon="-5.830200">
        <ele>874.464</ele>
        <time>2019-03-26T03:02:05Z</time>
      </trkpt>
      <trkpt lat="42.583840" lon="-5.829360">
        <ele>874.610</ele>
        <time>2019-03-26T03:02:25Z</time>
      </trkpt>
      <trkpt lat="42.584050" lon="-5.828700">
        <ele>874.508</ele>
        <time>2019-03-26T03:02:45Z</time>
      </trkpt>
      <trkpt lat="42.584240" lon="-5.827775">
        <ele>873.327</ele>
        <time>2019-03-26T03:03:05Z</time>
      </trkpt>
      <trkpt lat="42.584430" lon="-5.826850">
        <ele>872.368</ele>
        <time>2019-03-26T03:03:25Z</time>
      </trkpt>
      <trkpt lat="42.584593" lon="-5.826050">
        <ele>872.229</ele>
        <time>2019-03-26T03:03:45Z</time>
      </trkpt>
      <trkpt lat="42.584757" lon="-5.825250">
        <ele>872.278</ele>
        <time>2019-03-26T03:04:05Z</time>
      </trkpt>
      <trkpt lat="42.584920" lon="-5.824450">
        <ele>872.720</ele>
        <time>2019-03-26T03:04:25Z</time>
      </trkpt>
      <trkpt lat="42.585000" lon="-5.824030">
        <ele>872.618</ele>
        <time>2019-03-26T03:04:45Z</time>
      </trkpt>
      <trkpt lat="42.585010" lon="-5.823700">
        <ele>872.681</ele>
        <time>2019-03-26T03:05:05Z</time>
      </trkpt>
      <trkpt lat="42.584950" lon="-5.823330">
        <ele>872.673</ele>
        <time>2019-03-26T03:05:25Z</time>
      </trkpt>
      <trkpt lat="42.584790" lon="-5.822740">
        <ele>871.851</ele>
        <time>2019-03-26T03:05:45Z</time>
      </trkpt>
      <trkpt lat="42.584524" lon="-5.821828">
        <ele>870.201</ele>
        <time>2019-03-26T03:06:05Z</time>
      </trkpt>
      <trkpt lat="42.584258" lon="-5.820916">
        <ele>871.611</ele>
        <time>2019-03-26T03:06:25Z</time>
      </trkpt>
      <trkpt lat="42.583992" lon="-5.820004">
        <ele>872.308</ele>
        <time>2019-03-26T03:06:45Z</time>
      </trkpt>
      <trkpt lat="42.583726" lon="-5.819092">
        <ele>871.428</ele>
        <time>2019-03-26T03:07:05Z</time>
      </trkpt>
      <trkpt lat="42.583460" lon="-5.818180">
        <ele>874.249</ele>
        <time>2019-03-26T03:07:25Z</time>
      </trkpt>
      <trkpt lat="42.583410" lon="-5.817940">
        <ele>874.560</ele>
        <time>2019-03-26T03:07:45Z</time>
      </trkpt>
      <trkpt lat="42.583430" lon="-5.817700">
        <ele>874.689</ele>
        <time>2019-03-26T03:08:05Z</time>
      </trkpt>
      <trkpt lat="42.583550" lon="-5.817510">
        <ele>874.721</ele>
        <time>2019-03-26T03:08:25Z</time>
      </trkpt>
      <trkpt lat="42.583740" lon="-5.817350">
        <ele>874.769</ele>
        <time>2019-03-26T03:08:45Z</time>
      </trkpt>
      <trkpt lat="42.584432" lon="-5.817034">
        <ele>874.922</ele>
        <time>2019-03-26T03:09:05Z</time>
      </trkpt>
      <trkpt lat="42.585124" lon="-5.816718">
        <ele>874.784</ele>
        <time>2019-03-26T03:09:25Z</time>
      </trkpt>
      <trkpt lat="42.585816" lon="-5.816402">
        <ele>874.163</ele>
        <time>2019-03-26T03:09:45Z</time>
      </trkpt>
      <trkpt lat="42.586508" lon="-5.816086">
        <ele>873.244</ele>
        <time>2019-03-26T03:10:05Z</time>
      </trkpt>
      <trkpt lat="42.587200" lon="-5.815770">
        <ele>872.618</ele>
        <time>2019-03-26T03:10:25Z</time>
      </trkpt>
      <trkpt lat="42.587430" lon="-5.815680">
        <ele>872.908</ele>
        <time>2019-03-26T03:10:45Z</time>
      </trkpt>
      <trkpt lat="42.587790" lon="-5.815450">
        <ele>873.269</ele>
        <time>2019-03-26T03:11:05Z</time>
      </trkpt>
      <trkpt lat="42.588040" lon="-5.815210">
        <ele>873.450</ele>
        <time>2019-03-26T03:11:25Z</time>
      </trkpt>
      <trkpt lat="42.588230" lon="-5.815080">
        <ele>873.441</ele>
        <time>2019-03-26T03:11:45Z</time>
      </trkpt>
      <trkpt lat="42.588190" lon="-5.815000">
        <ele>873.410</ele>
        <time>2019-03-26T03:12:05Z</time>
      </trkpt>
      <trkpt lat="42.588160" lon="-5.814800">
        <ele>873.842</ele>
        <time>2019-03-26T03:12:25Z</time>
      </trkpt>
      <trkpt lat="42.588180" lon="-5.814670">
        <ele>873.860</ele>
        <time>2019-03-26T03:12:45Z</time>
      </trkpt>
      <trkpt lat="42.588240" lon="-5.814550">
        <ele>874.253</ele>
        <time>2019-03-26T03:13:05Z</time>
      </trkpt>
      <trkpt lat="42.588320" lon="-5.814460">
        <ele>874.225</ele>
        <time>2019-03-26T03:13:25Z</time>
      </trkpt>
      <trkpt lat="42.588400" lon="-5.814420">
        <ele>874.228</ele>
        <time>2019-03-26T03:13:45Z</time>
      </trkpt>
      <trkpt lat="42.588500" lon="-5.814410">
        <ele>874.289</ele>
        <time>2019-03-26T03:14:05Z</time>
      </trkpt>
      <trkpt lat="42.588670" lon="-5.814520">
        <ele>873.717</ele>
        <time>2019-03-26T03:14:25Z</time>
      </trkpt>
      <trkpt lat="42.588800" lon="-5.814580">
        <ele>873.708</ele>
        <time>2019-03-26T03:14:45Z</time>
      </trkpt>
      <trkpt lat="42.589010" lon="-5.814600">
        <ele>873.325</ele>
        <time>2019-03-26T03:15:05Z</time>
      </trkpt>
      <trkpt lat="42.589830" lon="-5.814530">
        <ele>872.796</ele>
        <time>2019-03-26T03:15:25Z</time>
      </trkpt>
      <trkpt lat="42.590060" lon="-5.814460">
        <ele>872.737</ele>
        <time>2019-03-26T03:15:45Z</time>
      </trkpt>
      <trkpt lat="42.590650" lon="-5.814187">
        <ele>873.346</ele>
        <time>2019-03-26T03:16:05Z</time>
      </trkpt>
      <trkpt lat="42.591240" lon="-5.813913">
        <ele>874.118</ele>
        <time>2019-03-26T03:16:25Z</time>
      </trkpt>
      <trkpt lat="42.591830" lon="-5.813640">
        <ele>875.366</ele>
        <time>2019-03-26T03:16:45Z</time>
      </trkpt>
      <trkpt lat="42.591580" lon="-5.812670">
        <ele>875.379</ele>
        <time>2019-03-26T03:17:05Z</time>
      </trkpt>
      <trkpt lat="42.591330" lon="-5.811700">
        <ele>875.611</ele>
        <time>2019-03-26T03:17:25Z</time>
      </trkpt>
      <trkpt lat="42.592066" lon="-5.811366">
        <ele>875.669</ele>
        <time>2019-03-26T03:17:45Z</time>
      </trkpt>
      <trkpt lat="42.592802" lon="-5.811032">
        <ele>875.604</ele>
        <time>2019-03-26T03:18:05Z</time>
      </trkpt>
      <trkpt lat="42.593538" lon="-5.810698">
        <ele>877.024</ele>
        <time>2019-03-26T03:18:25Z</time>
      </trkpt>
      <trkpt lat="42.594274" lon="-5.810364">
        <ele>877.008</ele>
        <time>2019-03-26T03:18:45Z</time>
      </trkpt>
      <trkpt lat="42.595010" lon="-5.810030">
        <ele>877.039</ele>
        <time>2019-03-26T03:19:05Z</time>
      </trkpt>
      <trkpt lat="42.595000" lon="-5.810030">
        <ele>877.090</ele>
        <time>2019-03-26T03:19:25Z</time>
      </trkpt>
      <trkpt lat="42.595774" lon="-5.809696">
        <ele>877.091</ele>
        <time>2019-03-26T03:19:45Z</time>
      </trkpt>
      <trkpt lat="42.596548" lon="-5.809362">
        <ele>877.060</ele>
        <time>2019-03-26T03:20:05Z</time>
      </trkpt>
      <trkpt lat="42.597322" lon="-5.809028">
        <ele>878.422</ele>
        <time>2019-03-26T03:20:25Z</time>
      </trkpt>
      <trkpt lat="42.598096" lon="-5.808694">
        <ele>878.450</ele>
        <time>2019-03-26T03:20:45Z</time>
      </trkpt>
      <trkpt lat="42.598870" lon="-5.808360">
        <ele>878.433</ele>
        <time>2019-03-26T03:21:05Z</time>
      </trkpt>
      <trkpt lat="42.598880" lon="-5.808350">
        <ele>878.495</ele>
        <time>2019-03-26T03:21:25Z</time>
      </trkpt>
      <trkpt lat="42.599670" lon="-5.808030">
        <ele>878.479</ele>
        <time>2019-03-26T03:21:45Z</time>
      </trkpt>
      <trkpt lat="42.600444" lon="-5.807759">
        <ele>878.405</ele>
        <time>2019-03-26T03:22:05Z</time>
      </trkpt>
      <trkpt lat="42.601218" lon="-5.807488">
        <ele>878.425</ele>
        <time>2019-03-26T03:22:25Z</time>
      </trkpt>
      <trkpt lat="42.601991" lon="-5.807216">
        <ele>878.408</ele>
        <time>2019-03-26T03:22:45Z</time>
      </trkpt>
      <trkpt lat="42.602765" lon="-5.806945">
        <ele>881.620</ele>
        <time>2019-03-26T03:23:05Z</time>
      </trkpt>
      <trkpt lat="42.603539" lon="-5.806674">
        <ele>881.661</ele>
        <time>2019-03-26T03:23:25Z</time>
      </trkpt>
      <trkpt lat="42.604313" lon="-5.806403">
        <ele>881.672</ele>
        <time>2019-03-26T03:23:45Z</time>
      </trkpt>
      <trkpt lat="42.605086" lon="-5.806131">
        <ele>881.651</ele>
        <time>2019-03-26T03:24:05Z</time>
      </trkpt>
      <trkpt lat="42.605860" lon="-5.805860">
        <ele>881.623</ele>
        <time>2019-03-26T03:24:25Z</time>
      </trkpt>
      <trkpt lat="42.606180" lon="-5.805750">
        <ele>881.851</ele>
        <time>2019-03-26T03:24:45Z</time>
      </trkpt>
      <trkpt lat="42.606837" lon="-5.805627">
        <ele>881.844</ele>
        <time>2019-03-26T03:25:05Z</time>
      </trkpt>
      <trkpt lat="42.607493" lon="-5.805503">
        <ele>882.376</ele>
        <time>2019-03-26T03:25:25Z</time>
      </trkpt>
      <trkpt lat="42.608150" lon="-5.805380">
        <ele>882.323</ele>
        <time>2019-03-26T03:25:45Z</time>
      </trkpt>
      <trkpt lat="42.608150" lon="-5.806225">
        <ele>881.983</ele>
        <time>2019-03-26T03:26:05Z</time>
      </trkpt>
      <trkpt lat="42.608150" lon="-5.807070">
        <ele>881.911</ele>
        <time>2019-03-26T03:26:25Z</time>
      </trkpt>
      <trkpt lat="42.609025" lon="-5.807000">
        <ele>883.708</ele>
        <time>2019-03-26T03:26:45Z</time>
      </trkpt>
      <trkpt lat="42.609900" lon="-5.806930">
        <ele>884.495</ele>
        <time>2019-03-26T03:27:05Z</time>
      </trkpt>
      <trkpt lat="42.610510" lon="-5.806750">
        <ele>885.126</ele>
        <time>2019-03-26T03:27:25Z</time>
      </trkpt>
      <trkpt lat="42.610850" lon="-5.806610">
        <ele>885.477</ele>
        <time>2019-03-26T03:27:45Z</time>
      </trkpt>
      <trkpt lat="42.611220" lon="-5.806620">
        <ele>885.736</ele>
        <time>2019-03-26T03:28:05Z</time>
      </trkpt>
      <trkpt lat="42.611330" lon="-5.807000">
        <ele>885.388</ele>
        <time>2019-03-26T03:28:25Z</time>
      </trkpt>
      <trkpt lat="42.612123" lon="-5.806956">
        <ele>884.216</ele>
        <time>2019-03-26T03:28:45Z</time>
      </trkpt>
      <trkpt lat="42.612916" lon="-5.806911">
        <ele>885.339</ele>
        <time>2019-03-26T03:29:05Z</time>
      </trkpt>
      <trkpt lat="42.613709" lon="-5.806867">
        <ele>887.381</ele>
        <time>2019-03-26T03:29:25Z</time>
      </trkpt>
      <trkpt lat="42.614501" lon="-5.806823">
        <ele>889.219</ele>
        <time>2019-03-26T03:29:45Z</time>
      </trkpt>
      <trkpt lat="42.615294" lon="-5.806779">
        <ele>891.709</ele>
        <time>2019-03-26T03:30:05Z</time>
      </trkpt>
      <trkpt lat="42.616087" lon="-5.806734">
        <ele>894.219</ele>
        <time>2019-03-26T03:30:25Z</time>
      </trkpt>
      <trkpt lat="42.616880" lon="-5.806690">
        <ele>894.308</ele>
        <time>2019-03-26T03:30:45Z</time>
      </trkpt>
      <trkpt lat="42.617480" lon="-5.806525">
        <ele>895.894</ele>
        <time>2019-03-26T03:31:05Z</time>
      </trkpt>
      <trkpt lat="42.618080" lon="-5.806360">
        <ele>897.675</ele>
        <time>2019-03-26T03:31:25Z</time>
      </trkpt>
      <trkpt lat="42.618090" lon="-5.806490">
        <ele>897.666</ele>
        <time>2019-03-26T03:31:45Z</time>
      </trkpt>
      <trkpt lat="42.618810" lon="-5.806650">
        <ele>898.195</ele>
        <time>2019-03-26T03:32:05Z</time>
      </trkpt>
      <trkpt lat="42.619660" lon="-5.806510">
        <ele>897.647</ele>
        <time>2019-03-26T03:32:25Z</time>
      </trkpt>
      <trkpt lat="42.620250" lon="-5.806580">
        <ele>897.185</ele>
        <time>2019-03-26T03:32:45Z</time>
      </trkpt>
      <trkpt lat="42.620350" lon="-5.806590">
        <ele>897.158</ele>
        <time>2019-03-26T03:33:05Z</time>
      </trkpt>
      <trkpt lat="42.620610" lon="-5.806510">
        <ele>897.160</ele>
        <time>2019-03-26T03:33:25Z</time>
      </trkpt>
      <trkpt lat="42.621320" lon="-5.806740">
        <ele>896.881</ele>
        <time>2019-03-26T03:33:45Z</time>
      </trkpt>
      <trkpt lat="42.622070" lon="-5.806770">
        <ele>895.061</ele>
        <time>2019-03-26T03:34:05Z</time>
      </trkpt>
      <trkpt lat="42.622555" lon="-5.806850">
        <ele>894.117</ele>
        <time>2019-03-26T03:34:25Z</time>
      </trkpt>
      <trkpt lat="42.623040" lon="-5.806930">
        <ele>893.908</ele>
        <time>2019-03-26T03:34:45Z</time>
      </trkpt>
      <trkpt lat="42.623615" lon="-5.807190">
        <ele>893.981</ele>
        <time>2019-03-26T03:35:05Z</time>
      </trkpt>
      <trkpt lat="42.624190" lon="-5.807450">
        <ele>893.962</ele>
        <time>2019-03-26T03:35:25Z</time>
      </trkpt>
      <trkpt lat="42.624810" lon="-5.807870">
        <ele>893.983</ele>
        <time>2019-03-26T03:35:45Z</time>
      </trkpt>
      <trkpt lat="42.625455" lon="-5.808195">
        <ele>893.982</ele>
        <time>2019-03-26T03:36:05Z</time>
      </trkpt>
      <trkpt lat="42.626100" lon="-5.808520">
        <ele>895.074</ele>
        <time>2019-03-26T03:36:25Z</time>
      </trkpt>
      <trkpt lat="42.626750" lon="-5.808740">
        <ele>894.282</ele>
        <time>2019-03-26T03:36:45Z</time>
      </trkpt>
      <trkpt lat="42.627220" lon="-5.808830">
        <ele>893.915</ele>
        <time>2019-03-26T03:37:05Z</time>
      </trkpt>
      <trkpt lat="42.627720" lon="-5.809120">
        <ele>893.957</ele>
        <time>2019-03-26T03:37:25Z</time>
      </trkpt>
      <trkpt lat="42.628330" lon="-5.809350">
        <ele>894.622</ele>
        <time>2019-03-26T03:37:45Z</time>
      </trkpt>
      <trkpt lat="42.628820" lon="-5.809440">
        <ele>894.162</ele>
        <time>2019-03-26T03:38:05Z</time>
      </trkpt>
      <trkpt lat="42.629310" lon="-5.809530">
        <ele>894.908</ele>
        <time>2019-03-26T03:38:25Z</time>
      </trkpt>
      <trkpt lat="42.629850" lon="-5.809770">
        <ele>893.508</ele>
        <time>2019-03-26T03:38:45Z</time>
      </trkpt>
      <trkpt lat="42.630400" lon="-5.810110">
        <ele>893.135</ele>
        <time>2019-03-26T03:39:05Z</time>
      </trkpt>
      <trkpt lat="42.630930" lon="-5.810340">
        <ele>892.056</ele>
        <time>2019-03-26T03:39:25Z</time>
      </trkpt>
      <trkpt lat="42.631420" lon="-5.810580">
        <ele>891.677</ele>
        <time>2019-03-26T03:39:45Z</time>
      </trkpt>
      <trkpt lat="42.631910" lon="-5.810820">
        <ele>891.496</ele>
        <time>2019-03-26T03:40:05Z</time>
      </trkpt>
      <trkpt lat="42.632280" lon="-5.810960">
        <ele>891.678</ele>
        <time>2019-03-26T03:40:25Z</time>
      </trkpt>
      <trkpt lat="42.632410" lon="-5.810660">
        <ele>891.976</ele>
        <time>2019-03-26T03:40:45Z</time>
      </trkpt>
      <trkpt lat="42.632650" lon="-5.810640">
        <ele>893.569</ele>
        <time>2019-03-26T03:41:05Z</time>
      </trkpt>
      <trkpt lat="42.632770" lon="-5.810540">
        <ele>893.581</ele>
        <time>2019-03-26T03:41:25Z</time>
      </trkpt>
      <trkpt lat="42.632850" lon="-5.810350">
        <ele>893.994</ele>
        <time>2019-03-26T03:41:45Z</time>
      </trkpt>
      <trkpt lat="42.633610" lon="-5.810720">
        <ele>896.957</ele>
        <time>2019-03-26T03:42:05Z</time>
      </trkpt>
      <trkpt lat="42.634155" lon="-5.810940">
        <ele>897.422</ele>
        <time>2019-03-26T03:42:25Z</time>
      </trkpt>
      <trkpt lat="42.634700" lon="-5.811160">
        <ele>897.708</ele>
        <time>2019-03-26T03:42:45Z</time>
      </trkpt>
      <trkpt lat="42.635420" lon="-5.811480">
        <ele>897.892</ele>
        <time>2019-03-26T03:43:05Z</time>
      </trkpt>
      <trkpt lat="42.635700" lon="-5.811740">
        <ele>898.083</ele>
        <time>2019-03-26T03:43:25Z</time>
      </trkpt>
      <trkpt lat="42.635960" lon="-5.811910">
        <ele>898.254</ele>
        <time>2019-03-26T03:43:45Z</time>
      </trkpt>
      <trkpt lat="42.636460" lon="-5.812140">
        <ele>898.583</ele>
        <time>2019-03-26T03:44:05Z</time>
      </trkpt>
      <trkpt lat="42.637065" lon="-5.812565">
        <ele>898.555</ele>
        <time>2019-03-26T03:44:25Z</time>
      </trkpt>
      <trkpt lat="42.637670" lon="-5.812990">
        <ele>898.733</ele>
        <time>2019-03-26T03:44:45Z</time>
      </trkpt>
      <trkpt lat="42.638230" lon="-5.813245">
        <ele>898.776</ele>
        <time>2019-03-26T03:45:05Z</time>
      </trkpt>
      <trkpt lat="42.638790" lon="-5.813500">
        <ele>898.698</ele>
        <time>2019-03-26T03:45:25Z</time>
      </trkpt>
      <trkpt lat="42.639560" lon="-5.813830">
        <ele>898.891</ele>
        <time>2019-03-26T03:45:45Z</time>
      </trkpt>
      <trkpt lat="42.639880" lon="-5.813850">
        <ele>898.881</ele>
        <time>2019-03-26T03:46:05Z</time>
      </trkpt>
      <trkpt lat="42.640190" lon="-5.813770">
        <ele>898.819</ele>
        <time>2019-03-26T03:46:25Z</time>
      </trkpt>
      <trkpt lat="42.640410" lon="-5.813710">
        <ele>898.808</ele>
        <time>2019-03-26T03:46:45Z</time>
      </trkpt>
      <trkpt lat="42.640845" lon="-5.813515">
        <ele>898.852</ele>
        <time>2019-03-26T03:47:05Z</time>
      </trkpt>
      <trkpt lat="42.641280" lon="-5.813320">
        <ele>898.883</ele>
        <time>2019-03-26T03:47:25Z</time>
      </trkpt>
      <trkpt lat="42.641640" lon="-5.813260">
        <ele>898.954</ele>
        <time>2019-03-26T03:47:45Z</time>
      </trkpt>
      <trkpt lat="42.642280" lon="-5.813500">
        <ele>899.053</ele>
        <time>2019-03-26T03:48:05Z</time>
      </trkpt>
      <trkpt lat="42.642480" lon="-5.813620">
        <ele>899.015</ele>
        <time>2019-03-26T03:48:25Z</time>
      </trkpt>
      <trkpt lat="42.642880" lon="-5.814060">
        <ele>899.063</ele>
        <time>2019-03-26T03:48:45Z</time>
      </trkpt>
      <trkpt lat="42.643485" lon="-5.814470">
        <ele>899.326</ele>
        <time>2019-03-26T03:49:05Z</time>
      </trkpt>
      <trkpt lat="42.644090" lon="-5.814880">
        <ele>899.588</ele>
        <time>2019-03-26T03:49:25Z</time>
      </trkpt>
      <trkpt lat="42.644545" lon="-5.814950">
        <ele>899.541</ele>
        <time>2019-03-26T03:49:45Z</time>
      </trkpt>
      <trkpt lat="42.645000" lon="-5.815020">
        <ele>899.381</ele>
        <time>2019-03-26T03:50:05Z</time>
      </trkpt>
      <trkpt lat="42.645420" lon="-5.815140">
        <ele>899.009</ele>
        <time>2019-03-26T03:50:25Z</time>
      </trkpt>
      <trkpt lat="42.645905" lon="-5.815105">
        <ele>899.108</ele>
        <time>2019-03-26T03:50:45Z</time>
      </trkpt>
      <trkpt lat="42.646390" lon="-5.815070">
        <ele>899.187</ele>
        <time>2019-03-26T03:51:05Z</time>
      </trkpt>
      <trkpt lat="42.646740" lon="-5.815120">
        <ele>899.178</ele>
        <time>2019-03-26T03:51:25Z</time>
      </trkpt>
      <trkpt lat="42.647210" lon="-5.815275">
        <ele>899.069</ele>
        <time>2019-03-26T03:51:45Z</time>
      </trkpt>
      <trkpt lat="42.647680" lon="-5.815430">
        <ele>899.098</ele>
        <time>2019-03-26T03:52:05Z</time>
      </trkpt>
      <trkpt lat="42.648460" lon="-5.815275">
        <ele>899.020</ele>
        <time>2019-03-26T03:52:25Z</time>
      </trkpt>
      <trkpt lat="42.649240" lon="-5.815120">
        <ele>898.998</ele>
        <time>2019-03-26T03:52:45Z</time>
      </trkpt>
      <trkpt lat="42.650000" lon="-5.815100">
        <ele>900.961</ele>
        <time>2019-03-26T03:53:05Z</time>
      </trkpt>
      <trkpt lat="42.650320" lon="-5.815120">
        <ele>902.053</ele>
        <time>2019-03-26T03:53:25Z</time>
      </trkpt>
      <trkpt lat="42.650650" lon="-5.815240">
        <ele>903.561</ele>
        <time>2019-03-26T03:53:45Z</time>
      </trkpt>
      <trkpt lat="42.650790" lon="-5.815220">
        <ele>903.521</ele>
        <time>2019-03-26T03:54:05Z</time>
      </trkpt>
      <trkpt lat="42.650980" lon="-5.815310">
        <ele>903.613</ele>
        <time>2019-03-26T03:54:25Z</time>
      </trkpt>
      <trkpt lat="42.651310" lon="-5.815330">
        <ele>903.808</ele>
        <time>2019-03-26T03:54:45Z</time>
      </trkpt>
      <trkpt lat="42.651870" lon="-5.815520">
        <ele>904.129</ele>
        <time>2019-03-26T03:55:05Z</time>
      </trkpt>
      <trkpt lat="42.652410" lon="-5.815750">
        <ele>904.490</ele>
        <time>2019-03-26T03:55:25Z</time>
      </trkpt>
      <trkpt lat="42.652700" lon="-5.815820">
        <ele>904.791</ele>
        <time>2019-03-26T03:55:45Z</time>
      </trkpt>
      <trkpt lat="42.652950" lon="-5.815730">
        <ele>904.770</ele>
        <time>2019-03-26T03:56:05Z</time>
      </trkpt>
      <trkpt lat="42.653490" lon="-5.815765">
        <ele>905.012</ele>
        <time>2019-03-26T03:56:25Z</time>
      </trkpt>
      <trkpt lat="42.654030" lon="-5.815800">
        <ele>905.240</ele>
        <time>2019-03-26T03:56:45Z</time>
      </trkpt>
      <trkpt lat="42.654565" lon="-5.815915">
        <ele>906.183</ele>
        <time>2019-03-26T03:57:05Z</time>
      </trkpt>
      <trkpt lat="42.655100" lon="-5.816030">
        <ele>906.595</ele>
        <time>2019-03-26T03:57:25Z</time>
      </trkpt>
      <trkpt lat="42.655715" lon="-5.816245">
        <ele>906.825</ele>
        <time>2019-03-26T03:57:45Z</time>
      </trkpt>
      <trkpt lat="42.656330" lon="-5.816460">
        <ele>907.926</ele>
        <time>2019-03-26T03:58:05Z</time>
      </trkpt>
      <trkpt lat="42.656920" lon="-5.816907">
        <ele>908.208</ele>
        <time>2019-03-26T03:58:25Z</time>
      </trkpt>
      <trkpt lat="42.657510" lon="-5.817353">
        <ele>907.608</ele>
        <time>2019-03-26T03:58:45Z</time>
      </trkpt>
      <trkpt lat="42.658100" lon="-5.817800">
        <ele>907.115</ele>
        <time>2019-03-26T03:59:05Z</time>
      </trkpt>
      <trkpt lat="42.658730" lon="-5.817810">
        <ele>907.146</ele>
        <time>2019-03-26T03:59:25Z</time>
      </trkpt>
      <trkpt lat="42.659360" lon="-5.817820">
        <ele>908.017</ele>
        <time>2019-03-26T03:59:45Z</time>
      </trkpt>
      <trkpt lat="42.659810" lon="-5.817865">
        <ele>908.286</ele>
        <time>2019-03-26T04:00:05Z</time>
      </trkpt>
      <trkpt lat="42.660260" lon="-5.817910">
        <ele>908.458</ele>
        <time>2019-03-26T04:00:25Z</time>
      </trkpt>
      <trkpt lat="42.660810" lon="-5.817930">
        <ele>908.666</ele>
        <time>2019-03-26T04:00:45Z</time>
      </trkpt>
      <trkpt lat="42.661360" lon="-5.817910">
        <ele>908.779</ele>
        <time>2019-03-26T04:01:05Z</time>
      </trkpt>
      <trkpt lat="42.661950" lon="-5.818030">
        <ele>909.071</ele>
        <time>2019-03-26T04:01:25Z</time>
      </trkpt>
      <trkpt lat="42.662530" lon="-5.818240">
        <ele>909.434</ele>
        <time>2019-03-26T04:01:45Z</time>
      </trkpt>
      <trkpt lat="42.662950" lon="-5.818240">
        <ele>909.955</ele>
        <time>2019-03-26T04:02:05Z</time>
      </trkpt>
      <trkpt lat="42.663720" lon="-5.818110">
        <ele>910.510</ele>
        <time>2019-03-26T04:02:25Z</time>
      </trkpt>
      <trkpt lat="42.663870" lon="-5.818080">
        <ele>910.608</ele>
        <time>2019-03-26T04:02:45Z</time>
      </trkpt>
      <trkpt lat="42.664630" lon="-5.818550">
        <ele>910.246</ele>
        <time>2019-03-26T04:03:05Z</time>
      </trkpt>
      <trkpt lat="42.665090" lon="-5.819360">
        <ele>910.177</ele>
        <time>2019-03-26T04:03:25Z</time>
      </trkpt>
      <trkpt lat="42.665850" lon="-5.819900">
        <ele>910.738</ele>
        <time>2019-03-26T04:03:45Z</time>
      </trkpt>
      <trkpt lat="42.666240" lon="-5.819900">
        <ele>911.987</ele>
        <time>2019-03-26T04:04:05Z</time>
      </trkpt>
      <trkpt lat="42.666390" lon="-5.819810">
        <ele>912.289</ele>
        <time>2019-03-26T04:04:25Z</time>
      </trkpt>
      <trkpt lat="42.666400" lon="-5.819790">
        <ele>912.237</ele>
        <time>2019-03-26T04:04:45Z</time>
      </trkpt>
      <trkpt lat="42.666400" lon="-5.819800">
        <ele>912.220</ele>
        <time>2019-03-26T04:05:05Z</time>
      </trkpt>
      <trkpt lat="42.666560" lon="-5.819550">
        <ele>912.742</ele>
        <time>2019-03-26T04:05:25Z</time>
      </trkpt>
      <trkpt lat="42.666730" lon="-5.819370">
        <ele>914.343</ele>
        <time>2019-03-26T04:05:45Z</time>
      </trkpt>
      <trkpt lat="42.666770" lon="-5.819440">
        <ele>914.064</ele>
        <time>2019-03-26T04:06:05Z</time>
      </trkpt>
      <trkpt lat="42.666910" lon="-5.819550">
        <ele>913.910</ele>
        <time>2019-03-26T04:06:25Z</time>
      </trkpt>
      <trkpt lat="42.667060" lon="-5.819650">
        <ele>913.908</ele>
        <time>2019-03-26T04:06:45Z</time>
      </trkpt>
      <trkpt lat="42.667310" lon="-5.819630">
        <ele>913.927</ele>
        <time>2019-03-26T04:07:05Z</time>
      </trkpt>
      <trkpt lat="42.667640" lon="-5.819580">
        <ele>914.048</ele>
        <time>2019-03-26T04:07:25Z</time>
      </trkpt>
      <trkpt lat="42.667630" lon="-5.819580">
        <ele>914.039</ele>
        <time>2019-03-26T04:07:45Z</time>
      </trkpt>
      <trkpt lat="42.668420" lon="-5.819390">
        <ele>914.668</ele>
        <time>2019-03-26T04:08:05Z</time>
      </trkpt>
      <trkpt lat="42.668630" lon="-5.819390">
        <ele>914.960</ele>
        <time>2019-03-26T04:08:25Z</time>
      </trkpt>
      <trkpt lat="42.669445" lon="-5.819472">
        <ele>915.088</ele>
        <time>2019-03-26T04:08:45Z</time>
      </trkpt>
      <trkpt lat="42.670260" lon="-5.819555">
        <ele>914.751</ele>
        <time>2019-03-26T04:09:05Z</time>
      </trkpt>
      <trkpt lat="42.671075" lon="-5.819637">
        <ele>914.663</ele>
        <time>2019-03-26T04:09:25Z</time>
      </trkpt>
      <trkpt lat="42.671890" lon="-5.819720">
        <ele>915.179</ele>
        <time>2019-03-26T04:09:45Z</time>
      </trkpt>
      <trkpt lat="42.672705" lon="-5.819802">
        <ele>915.705</ele>
        <time>2019-03-26T04:10:05Z</time>
      </trkpt>
      <trkpt lat="42.673520" lon="-5.819885">
        <ele>916.225</ele>
        <time>2019-03-26T04:10:25Z</time>
      </trkpt>
      <trkpt lat="42.674335" lon="-5.819967">
        <ele>918.208</ele>
        <time>2019-03-26T04:10:45Z</time>
      </trkpt>
      <trkpt lat="42.675150" lon="-5.820050">
        <ele>918.530</ele>
        <time>2019-03-26T04:11:05Z</time>
      </trkpt>
      <trkpt lat="42.675997" lon="-5.820127">
        <ele>918.431</ele>
        <time>2019-03-26T04:11:25Z</time>
      </trkpt>
      <trkpt lat="42.676843" lon="-5.820203">
        <ele>918.862</ele>
        <time>2019-03-26T04:11:45Z</time>
      </trkpt>
      <trkpt lat="42.677690" lon="-5.820280">
        <ele>919.361</ele>
        <time>2019-03-26T04:12:05Z</time>
      </trkpt>
      <trkpt lat="42.677910" lon="-5.820280">
        <ele>919.753</ele>
        <time>2019-03-26T04:12:25Z</time>
      </trkpt>
      <trkpt lat="42.678120" lon="-5.820230">
        <ele>920.321</ele>
        <time>2019-03-26T04:12:45Z</time>
      </trkpt>
      <trkpt lat="42.678810" lon="-5.819960">
        <ele>921.094</ele>
        <time>2019-03-26T04:13:05Z</time>
      </trkpt>
      <trkpt lat="42.679500" lon="-5.819690">
        <ele>921.296</ele>
        <time>2019-03-26T04:13:25Z</time>
      </trkpt>
      <trkpt lat="42.679945" lon="-5.819585">
        <ele>921.378</ele>
        <time>2019-03-26T04:13:45Z</time>
      </trkpt>
      <trkpt lat="42.680390" lon="-5.819480">
        <ele>921.433</ele>
        <time>2019-03-26T04:14:05Z</time>
      </trkpt>
      <trkpt lat="42.681030" lon="-5.819400">
        <ele>921.626</ele>
        <time>2019-03-26T04:14:25Z</time>
      </trkpt>
      <trkpt lat="42.681670" lon="-5.819320">
        <ele>922.408</ele>
        <time>2019-03-26T04:14:45Z</time>
      </trkpt>
      <trkpt lat="42.682135" lon="-5.819380">
        <ele>922.890</ele>
        <time>2019-03-26T04:15:05Z</time>
      </trkpt>
      <trkpt lat="42.682600" lon="-5.819440">
        <ele>923.081</ele>
        <time>2019-03-26T04:15:25Z</time>
      </trkpt>
      <trkpt lat="42.683060" lon="-5.819480">
        <ele>923.022</ele>
        <time>2019-03-26T04:15:45Z</time>
      </trkpt>
      <trkpt lat="42.683400" lon="-5.819410">
        <ele>923.011</ele>
        <time>2019-03-26T04:16:05Z</time>
      </trkpt>
      <trkpt lat="42.684114" lon="-5.819182">
        <ele>922.283</ele>
        <time>2019-03-26T04:16:25Z</time>
      </trkpt>
      <trkpt lat="42.684828" lon="-5.818954">
        <ele>921.931</ele>
        <time>2019-03-26T04:16:45Z</time>
      </trkpt>
      <trkpt lat="42.685542" lon="-5.818726">
        <ele>921.244</ele>
        <time>2019-03-26T04:17:05Z</time>
      </trkpt>
      <trkpt lat="42.686256" lon="-5.818498">
        <ele>921.346</ele>
        <time>2019-03-26T04:17:25Z</time>
      </trkpt>
      <trkpt lat="42.686970" lon="-5.818270">
        <ele>922.137</ele>
        <time>2019-03-26T04:17:45Z</time>
      </trkpt>
      <trkpt lat="42.687702" lon="-5.818128">
        <ele>922.749</ele>
        <time>2019-03-26T04:18:05Z</time>
      </trkpt>
      <trkpt lat="42.688434" lon="-5.817986">
        <ele>923.513</ele>
        <time>2019-03-26T04:18:25Z</time>
      </trkpt>
      <trkpt lat="42.689166" lon="-5.817844">
        <ele>924.108</ele>
        <time>2019-03-26T04:18:45Z</time>
      </trkpt>
      <trkpt lat="42.689898" lon="-5.817702">
        <ele>925.196</ele>
        <time>2019-03-26T04:19:05Z</time>
      </trkpt>
      <trkpt lat="42.690630" lon="-5.817560">
        <ele>926.267</ele>
        <time>2019-03-26T04:19:25Z</time>
      </trkpt>
      <trkpt lat="42.691380" lon="-5.817363">
        <ele>927.618</ele>
        <time>2019-03-26T04:19:45Z</time>
      </trkpt>
      <trkpt lat="42.692130" lon="-5.817167">
        <ele>928.047</ele>
        <time>2019-03-26T04:20:05Z</time>
      </trkpt>
      <trkpt lat="42.692880" lon="-5.816970">
        <ele>927.739</ele>
        <time>2019-03-26T04:20:25Z</time>
      </trkpt>
      <trkpt lat="42.693450" lon="-5.816703">
        <ele>927.387</ele>
        <time>2019-03-26T04:20:45Z</time>
      </trkpt>
      <trkpt lat="42.694020" lon="-5.816437">
        <ele>927.120</ele>
        <time>2019-03-26T04:21:05Z</time>
      </trkpt>
      <trkpt lat="42.694590" lon="-5.816170">
        <ele>927.272</ele>
        <time>2019-03-26T04:21:25Z</time>
      </trkpt>
      <trkpt lat="42.694950" lon="-5.816040">
        <ele>927.391</ele>
        <time>2019-03-26T04:21:45Z</time>
      </trkpt>
      <trkpt lat="42.695670" lon="-5.816060">
        <ele>927.481</ele>
        <time>2019-03-26T04:22:05Z</time>
      </trkpt>
      <trkpt lat="42.696330" lon="-5.815940">
        <ele>927.519</ele>
        <time>2019-03-26T04:22:25Z</time>
      </trkpt>
      <trkpt lat="42.696840" lon="-5.815610">
        <ele>929.508</ele>
        <time>2019-03-26T04:22:45Z</time>
      </trkpt>
      <trkpt lat="42.697080" lon="-5.815280">
        <ele>931.722</ele>
        <time>2019-03-26T04:23:05Z</time>
      </trkpt>
      <trkpt lat="42.697190" lon="-5.815030">
        <ele>933.573</ele>
        <time>2019-03-26T04:23:25Z</time>
      </trkpt>
      <trkpt lat="42.697270" lon="-5.814950">
        <ele>933.824</ele>
        <time>2019-03-26T04:23:45Z</time>
      </trkpt>
      <trkpt lat="42.697400" lon="-5.814950">
        <ele>934.093</ele>
        <time>2019-03-26T04:24:05Z</time>
      </trkpt>
      <trkpt lat="42.697760" lon="-5.814830">
        <ele>933.685</ele>
        <time>2019-03-26T04:24:25Z</time>
      </trkpt>
      <trkpt lat="42.698000" lon="-5.814720">
        <ele>933.763</ele>
        <time>2019-03-26T04:24:45Z</time>
      </trkpt>
      <trkpt lat="42.698760" lon="-5.814320">
        <ele>933.976</ele>
        <time>2019-03-26T04:25:05Z</time>
      </trkpt>
      <trkpt lat="42.699060" lon="-5.814060">
        <ele>933.928</ele>
        <time>2019-03-26T04:25:25Z</time>
      </trkpt>
      <trkpt lat="42.699620" lon="-5.813425">
        <ele>932.665</ele>
        <time>2019-03-26T04:25:45Z</time>
      </trkpt>
      <trkpt lat="42.700180" lon="-5.812790">
        <ele>930.168</ele>
        <time>2019-03-26T04:26:05Z</time>
      </trkpt>
      <trkpt lat="42.700535" lon="-5.812345">
        <ele>929.914</ele>
        <time>2019-03-26T04:26:25Z</time>
      </trkpt>
      <trkpt lat="42.700890" lon="-5.811900">
        <ele>929.508</ele>
        <time>2019-03-26T04:26:45Z</time>
      </trkpt>
      <trkpt lat="42.701160" lon="-5.811650">
        <ele>929.569</ele>
        <time>2019-03-26T04:27:05Z</time>
      </trkpt>
      <trkpt lat="42.701360" lon="-5.811530">
        <ele>929.670</ele>
        <time>2019-03-26T04:27:25Z</time>
      </trkpt>
      <trkpt lat="42.701590" lon="-5.811430">
        <ele>929.781</ele>
        <time>2019-03-26T04:27:45Z</time>
      </trkpt>
      <trkpt lat="42.701780" lon="-5.811390">
        <ele>930.020</ele>
        <time>2019-03-26T04:28:05Z</time>
      </trkpt>
      <trkpt lat="42.702310" lon="-5.811365">
        <ele>930.272</ele>
        <time>2019-03-26T04:28:25Z</time>
      </trkpt>
      <trkpt lat="42.702840" lon="-5.811340">
        <ele>930.440</ele>
        <time>2019-03-26T04:28:45Z</time>
      </trkpt>
      <trkpt lat="42.703020" lon="-5.811300">
        <ele>930.433</ele>
        <time>2019-03-26T04:29:05Z</time>
      </trkpt>
      <trkpt lat="42.703210" lon="-5.811230">
        <ele>930.435</ele>
        <time>2019-03-26T04:29:25Z</time>
      </trkpt>
      <trkpt lat="42.703670" lon="-5.810990">
        <ele>930.322</ele>
        <time>2019-03-26T04:29:45Z</time>
      </trkpt>
      <trkpt lat="42.704130" lon="-5.810750">
        <ele>930.362</ele>
        <time>2019-03-26T04:30:05Z</time>
      </trkpt>
      <trkpt lat="42.704891" lon="-5.810300">
        <ele>930.508</ele>
        <time>2019-03-26T04:30:25Z</time>
      </trkpt>
      <trkpt lat="42.705653" lon="-5.809850">
        <ele>931.308</ele>
        <time>2019-03-26T04:30:45Z</time>
      </trkpt>
      <trkpt lat="42.706414" lon="-5.809400">
        <ele>931.735</ele>
        <time>2019-03-26T04:31:05Z</time>
      </trkpt>
      <trkpt lat="42.707175" lon="-5.808950">
        <ele>931.986</ele>
        <time>2019-03-26T04:31:25Z</time>
      </trkpt>
      <trkpt lat="42.707936" lon="-5.808500">
        <ele>932.377</ele>
        <time>2019-03-26T04:31:45Z</time>
      </trkpt>
      <trkpt lat="42.708698" lon="-5.808050">
        <ele>932.446</ele>
        <time>2019-03-26T04:32:05Z</time>
      </trkpt>
      <trkpt lat="42.709459" lon="-5.807600">
        <ele>933.198</ele>
        <time>2019-03-26T04:32:25Z</time>
      </trkpt>
      <trkpt lat="42.710220" lon="-5.807150">
        <ele>933.966</ele>
        <time>2019-03-26T04:32:45Z</time>
      </trkpt>
      <trkpt lat="42.710620" lon="-5.807000">
        <ele>934.899</ele>
        <time>2019-03-26T04:33:05Z</time>
      </trkpt>
      <trkpt lat="42.711430" lon="-5.806775">
        <ele>937.271</ele>
        <time>2019-03-26T04:33:25Z</time>
      </trkpt>
      <trkpt lat="42.712240" lon="-5.806550">
        <ele>939.594</ele>
        <time>2019-03-26T04:33:45Z</time>
      </trkpt>
      <trkpt lat="42.712460" lon="-5.806460">
        <ele>939.857</ele>
        <time>2019-03-26T04:34:05Z</time>
      </trkpt>
      <trkpt lat="42.712590" lon="-5.806360">
        <ele>940.022</ele>
        <time>2019-03-26T04:34:25Z</time>
      </trkpt>
      <trkpt lat="42.712590" lon="-5.806370">
        <ele>940.008</ele>
        <time>2019-03-26T04:34:45Z</time>
      </trkpt>
      <trkpt lat="42.712670" lon="-5.806300">
        <ele>940.072</ele>
        <time>2019-03-26T04:35:05Z</time>
      </trkpt>
      <trkpt lat="42.713070" lon="-5.805740">
        <ele>940.763</ele>
        <time>2019-03-26T04:35:25Z</time>
      </trkpt>
      <trkpt lat="42.713687" lon="-5.804860">
        <ele>941.584</ele>
        <time>2019-03-26T04:35:45Z</time>
      </trkpt>
      <trkpt lat="42.714303" lon="-5.803980">
        <ele>941.763</ele>
        <time>2019-03-26T04:36:05Z</time>
      </trkpt>
      <trkpt lat="42.714920" lon="-5.803100">
        <ele>940.765</ele>
        <time>2019-03-26T04:36:25Z</time>
      </trkpt>
      <trkpt lat="42.714570" lon="-5.802690">
        <ele>940.783</ele>
        <time>2019-03-26T04:36:45Z</time>
      </trkpt>
      <trkpt lat="42.714160" lon="-5.802590">
        <ele>943.046</ele>
        <time>2019-03-26T04:37:05Z</time>
      </trkpt>
      <trkpt lat="42.714030" lon="-5.802500">
        <ele>943.038</ele>
        <time>2019-03-26T04:37:25Z</time>
      </trkpt>
      <trkpt lat="42.713570" lon="-5.801820">
        <ele>943.015</ele>
        <time>2019-03-26T04:37:45Z</time>
      </trkpt>
      <trkpt lat="42.713370" lon="-5.801540">
        <ele>943.065</ele>
        <time>2019-03-26T04:38:05Z</time>
      </trkpt>
      <trkpt lat="42.713140" lon="-5.801420">
        <ele>943.011</ele>
        <time>2019-03-26T04:38:25Z</time>
      </trkpt>
      <trkpt lat="42.713060" lon="-5.801320">
        <ele>943.008</ele>
        <time>2019-03-26T04:38:45Z</time>
      </trkpt>
      <trkpt lat="42.713030" lon="-5.801230">
        <ele>943.014</ele>
        <time>2019-03-26T04:39:05Z</time>
      </trkpt>
      <trkpt lat="42.713040" lon="-5.801140">
        <ele>943.055</ele>
        <time>2019-03-26T04:39:25Z</time>
      </trkpt>
      <trkpt lat="42.713110" lon="-5.801120">
        <ele>943.046</ele>
        <time>2019-03-26T04:39:45Z</time>
      </trkpt>
      <trkpt lat="42.713520" lon="-5.801090">
        <ele>943.085</ele>
        <time>2019-03-26T04:40:05Z</time>
      </trkpt>
      <trkpt lat="42.713970" lon="-5.801020">
        <ele>943.077</ele>
        <time>2019-03-26T04:40:25Z</time>
      </trkpt>
      <trkpt lat="42.714190" lon="-5.801050">
        <ele>943.075</ele>
        <time>2019-03-26T04:40:45Z</time>
      </trkpt>
      <trkpt lat="42.714410" lon="-5.801040">
        <ele>943.098</ele>
        <time>2019-03-26T04:41:05Z</time>
      </trkpt>
      <trkpt lat="42.714620" lon="-5.800970">
        <ele>943.070</ele>
        <time>2019-03-26T04:41:25Z</time>
      </trkpt>
      <trkpt lat="42.715330" lon="-5.800600">
        <ele>943.013</ele>
        <time>2019-03-26T04:41:45Z</time>
      </trkpt>
      <trkpt lat="42.715440" lon="-5.800480">
        <ele>943.043</ele>
        <time>2019-03-26T04:42:05Z</time>
      </trkpt>
      <trkpt lat="42.715510" lon="-5.800290">
        <ele>943.007</ele>
        <time>2019-03-26T04:42:25Z</time>
      </trkpt>
      <trkpt lat="42.715540" lon="-5.800130">
        <ele>943.008</ele>
        <time>2019-03-26T04:42:45Z</time>
      </trkpt>
      <trkpt lat="42.715480" lon="-5.799590">
        <ele>943.034</ele>
        <time>2019-03-26T04:43:05Z</time>
      </trkpt>
      <trkpt lat="42.715490" lon="-5.799400">
        <ele>943.015</ele>
        <time>2019-03-26T04:43:25Z</time>
      </trkpt>
      <trkpt lat="42.715580" lon="-5.799160">
        <ele>943.026</ele>
        <time>2019-03-26T04:43:45Z</time>
      </trkpt>
      <trkpt lat="42.715690" lon="-5.799020">
        <ele>943.025</ele>
        <time>2019-03-26T04:44:05Z</time>
      </trkpt>
      <trkpt lat="42.716120" lon="-5.798785">
        <ele>943.057</ele>
        <time>2019-03-26T04:44:25Z</time>
      </trkpt>
      <trkpt lat="42.716550" lon="-5.798550">
        <ele>957.225</ele>
        <time>2019-03-26T04:44:45Z</time>
      </trkpt>
      <trkpt lat="42.716660" lon="-5.798460">
        <ele>957.268</ele>
        <time>2019-03-26T04:45:05Z</time>
      </trkpt>
      <trkpt lat="42.716790" lon="-5.798230">
        <ele>957.280</ele>
        <time>2019-03-26T04:45:25Z</time>
      </trkpt>
      <trkpt lat="42.716960" lon="-5.797800">
        <ele>957.262</ele>
        <time>2019-03-26T04:45:45Z</time>
      </trkpt>
      <trkpt lat="42.717060" lon="-5.797670">
        <ele>957.283</ele>
        <time>2019-03-26T04:46:05Z</time>
      </trkpt>
      <trkpt lat="42.717170" lon="-5.797620">
        <ele>957.211</ele>
        <time>2019-03-26T04:46:25Z</time>
      </trkpt>
      <trkpt lat="42.717270" lon="-5.797620">
        <ele>957.208</ele>
        <time>2019-03-26T04:46:45Z</time>
      </trkpt>
      <trkpt lat="42.717390" lon="-5.797590">
        <ele>957.229</ele>
        <time>2019-03-26T04:47:05Z</time>
      </trkpt>
      <trkpt lat="42.718170" lon="-5.797050">
        <ele>957.230</ele>
        <time>2019-03-26T04:47:25Z</time>
      </trkpt>
      <trkpt lat="42.718280" lon="-5.796910">
        <ele>957.281</ele>
        <time>2019-03-26T04:47:45Z</time>
      </trkpt>
      <trkpt lat="42.718650" lon="-5.796350">
        <ele>957.210</ele>
        <time>2019-03-26T04:48:05Z</time>
      </trkpt>
      <trkpt lat="42.718750" lon="-5.796240">
        <ele>957.272</ele>
        <time>2019-03-26T04:48:25Z</time>
      </trkpt>
      <trkpt lat="42.718890" lon="-5.796230">
        <ele>957.260</ele>
        <time>2019-03-26T04:48:45Z</time>
      </trkpt>
      <trkpt lat="42.719180" lon="-5.796260">
        <ele>957.283</ele>
        <time>2019-03-26T04:49:05Z</time>
      </trkpt>
      <trkpt lat="42.719340" lon="-5.796230">
        <ele>957.215</ele>
        <time>2019-03-26T04:49:25Z</time>
      </trkpt>
      <trkpt lat="42.719970" lon="-5.795840">
        <ele>957.277</ele>
        <time>2019-03-26T04:49:45Z</time>
      </trkpt>
      <trkpt lat="42.720090" lon="-5.795690">
        <ele>957.261</ele>
        <time>2019-03-26T04:50:05Z</time>
      </trkpt>
      <trkpt lat="42.720280" lon="-5.795210">
        <ele>957.227</ele>
        <time>2019-03-26T04:50:25Z</time>
      </trkpt>
      <trkpt lat="42.720320" lon="-5.795130">
        <ele>957.308</ele>
        <time>2019-03-26T04:50:45Z</time>
      </trkpt>
      <trkpt lat="42.720420" lon="-5.794940">
        <ele>957.110</ele>
        <time>2019-03-26T04:51:05Z</time>
      </trkpt>
      <trkpt lat="42.720510" lon="-5.794870">
        <ele>957.151</ele>
        <time>2019-03-26T04:51:25Z</time>
      </trkpt>
      <trkpt lat="42.720620" lon="-5.794850">
        <ele>957.222</ele>
        <time>2019-03-26T04:51:45Z</time>
      </trkpt>
      <trkpt lat="42.720770" lon="-5.794870">
        <ele>957.211</ele>
        <time>2019-03-26T04:52:05Z</time>
      </trkpt>
      <trkpt lat="42.720900" lon="-5.794850">
        <ele>957.363</ele>
        <time>2019-03-26T04:52:25Z</time>
      </trkpt>
      <trkpt lat="42.721400" lon="-5.794535">
        <ele>957.271</ele>
        <time>2019-03-26T04:52:45Z</time>
      </trkpt>
      <trkpt lat="42.721900" lon="-5.794220">
        <ele>957.554</ele>
        <time>2019-03-26T04:53:05Z</time>
      </trkpt>
      <trkpt lat="42.722020" lon="-5.794120">
        <ele>957.586</ele>
        <time>2019-03-26T04:53:25Z</time>
      </trkpt>
      <trkpt lat="42.722120" lon="-5.793960">
        <ele>957.521</ele>
        <time>2019-03-26T04:53:45Z</time>
      </trkpt>
      <trkpt lat="42.722310" lon="-5.793390">
        <ele>957.441</ele>
        <time>2019-03-26T04:54:05Z</time>
      </trkpt>
      <trkpt lat="42.722400" lon="-5.793190">
        <ele>957.705</ele>
        <time>2019-03-26T04:54:25Z</time>
      </trkpt>
      <trkpt lat="42.722490" lon="-5.793110">
        <ele>957.708</ele>
        <time>2019-03-26T04:54:45Z</time>
      </trkpt>
      <trkpt lat="42.722660" lon="-5.793110">
        <ele>957.715</ele>
        <time>2019-03-26T04:55:05Z</time>
      </trkpt>
      <trkpt lat="42.723020" lon="-5.793300">
        <ele>957.846</ele>
        <time>2019-03-26T04:55:25Z</time>
      </trkpt>
      <trkpt lat="42.723200" lon="-5.793300">
        <ele>957.927</ele>
        <time>2019-03-26T04:55:45Z</time>
      </trkpt>
      <trkpt lat="42.723940" lon="-5.793000">
        <ele>957.926</ele>
        <time>2019-03-26T04:56:05Z</time>
      </trkpt>
      <trkpt lat="42.724510" lon="-5.792900">
        <ele>958.498</ele>
        <time>2019-03-26T04:56:25Z</time>
      </trkpt>
      <trkpt lat="42.725100" lon="-5.792713">
        <ele>958.016</ele>
        <time>2019-03-26T04:56:45Z</time>
      </trkpt>
      <trkpt lat="42.725690" lon="-5.792527">
        <ele>958.149</ele>
        <time>2019-03-26T04:57:05Z</time>
      </trkpt>
      <trkpt lat="42.726280" lon="-5.792340">
        <ele>958.121</ele>
        <time>2019-03-26T04:57:25Z</time>
      </trkpt>
      <trkpt lat="42.727000" lon="-5.791800">
        <ele>958.184</ele>
        <time>2019-03-26T04:57:45Z</time>
      </trkpt>
      <trkpt lat="42.727120" lon="-5.791660">
        <ele>958.107</ele>
        <time>2019-03-26T04:58:05Z</time>
      </trkpt>
      <trkpt lat="42.727220" lon="-5.791420">
        <ele>958.017</ele>
        <time>2019-03-26T04:58:25Z</time>
      </trkpt>
      <trkpt lat="42.727420" lon="-5.790440">
        <ele>958.408</ele>
        <time>2019-03-26T04:58:45Z</time>
      </trkpt>
      <trkpt lat="42.727480" lon="-5.790220">
        <ele>958.631</ele>
        <time>2019-03-26T04:59:05Z</time>
      </trkpt>
      <trkpt lat="42.727500" lon="-5.790170">
        <ele>958.782</ele>
        <time>2019-03-26T04:59:25Z</time>
      </trkpt>
      <trkpt lat="42.727810" lon="-5.790400">
        <ele>956.663</ele>
        <time>2019-03-26T04:59:45Z</time>
      </trkpt>
      <trkpt lat="42.728540" lon="-5.790040">
        <ele>955.672</ele>
        <time>2019-03-26T05:00:05Z</time>
      </trkpt>
      <trkpt lat="42.728700" lon="-5.789900">
        <ele>955.944</ele>
        <time>2019-03-26T05:00:25Z</time>
      </trkpt>
      <trkpt lat="42.728880" lon="-5.789290">
        <ele>956.432</ele>
        <time>2019-03-26T05:00:45Z</time>
      </trkpt>
      <trkpt lat="42.729360" lon="-5.788820">
        <ele>956.245</ele>
        <time>2019-03-26T05:01:05Z</time>
      </trkpt>
      <trkpt lat="42.729920" lon="-5.789030">
        <ele>954.117</ele>
        <time>2019-03-26T05:01:25Z</time>
      </trkpt>
      <trkpt lat="42.729980" lon="-5.789050">
        <ele>954.189</ele>
        <time>2019-03-26T05:01:45Z</time>
      </trkpt>
      <trkpt lat="42.730090" lon="-5.789230">
        <ele>953.206</ele>
        <time>2019-03-26T05:02:05Z</time>
      </trkpt>
      <trkpt lat="42.730530" lon="-5.789170">
        <ele>952.126</ele>
        <time>2019-03-26T05:02:25Z</time>
      </trkpt>
      <trkpt lat="42.730620" lon="-5.789250">
        <ele>951.808</ele>
        <time>2019-03-26T05:02:45Z</time>
      </trkpt>
      <trkpt lat="42.730860" lon="-5.789340">
        <ele>950.721</ele>
        <time>2019-03-26T05:03:05Z</time>
      </trkpt>
      <trkpt lat="42.731020" lon="-5.789620">
        <ele>949.872</ele>
        <time>2019-03-26T05:03:25Z</time>
      </trkpt>
      <trkpt lat="42.731750" lon="-5.789150">
        <ele>947.883</ele>
        <time>2019-03-26T05:03:45Z</time>
      </trkpt>
      <trkpt lat="42.731840" lon="-5.789000">
        <ele>947.862</ele>
        <time>2019-03-26T05:04:05Z</time>
      </trkpt>
      <trkpt lat="42.731880" lon="-5.788840">
        <ele>947.884</ele>
        <time>2019-03-26T05:04:25Z</time>
      </trkpt>
      <trkpt lat="42.731730" lon="-5.788000">
        <ele>948.462</ele>
        <time>2019-03-26T05:04:45Z</time>
      </trkpt>
      <trkpt lat="42.731790" lon="-5.787830">
        <ele>949.195</ele>
        <time>2019-03-26T05:05:05Z</time>
      </trkpt>
      <trkpt lat="42.731900" lon="-5.787700">
        <ele>949.797</ele>
        <time>2019-03-26T05:05:25Z</time>
      </trkpt>
      <trkpt lat="42.732550" lon="-5.787237">
        <ele>951.391</ele>
        <time>2019-03-26T05:05:45Z</time>
      </trkpt>
      <trkpt lat="42.733200" lon="-5.786773">
        <ele>950.381</ele>
        <time>2019-03-26T05:06:05Z</time>
      </trkpt>
      <trkpt lat="42.733850" lon="-5.786310">
        <ele>949.319</ele>
        <time>2019-03-26T05:06:25Z</time>
      </trkpt>
      <trkpt lat="42.734305" lon="-5.785990">
        <ele>950.008</ele>
        <time>2019-03-26T05:06:45Z</time>
      </trkpt>
      <trkpt lat="42.734760" lon="-5.785670">
        <ele>950.222</ele>
        <time>2019-03-26T05:07:05Z</time>
      </trkpt>
      <trkpt lat="42.735110" lon="-5.785400">
        <ele>950.263</ele>
        <time>2019-03-26T05:07:25Z</time>
      </trkpt>
      <trkpt lat="42.735620" lon="-5.784880">
        <ele>950.884</ele>
        <time>2019-03-26T05:07:45Z</time>
      </trkpt>
      <trkpt lat="42.736210" lon="-5.784410">
        <ele>951.363</ele>
        <time>2019-03-26T05:08:05Z</time>
      </trkpt>
      <trkpt lat="42.736865" lon="-5.784090">
        <ele>951.395</ele>
        <time>2019-03-26T05:08:25Z</time>
      </trkpt>
      <trkpt lat="42.737520" lon="-5.783770">
        <ele>952.123</ele>
        <time>2019-03-26T05:08:45Z</time>
      </trkpt>
      <trkpt lat="42.737940" lon="-5.783550">
        <ele>952.166</ele>
        <time>2019-03-26T05:09:05Z</time>
      </trkpt>
      <trkpt lat="42.738360" lon="-5.783330">
        <ele>952.238</ele>
        <time>2019-03-26T05:09:25Z</time>
      </trkpt>
      <trkpt lat="42.738690" lon="-5.783120">
        <ele>952.849</ele>
        <time>2019-03-26T05:09:45Z</time>
      </trkpt>
      <trkpt lat="42.738980" lon="-5.782880">
        <ele>953.302</ele>
        <time>2019-03-26T05:10:05Z</time>
      </trkpt>
      <trkpt lat="42.739445" lon="-5.782425">
        <ele>956.122</ele>
        <time>2019-03-26T05:10:25Z</time>
      </trkpt>
      <trkpt lat="42.739910" lon="-5.781970">
        <ele>956.308</ele>
        <time>2019-03-26T05:10:45Z</time>
      </trkpt>
      <trkpt lat="42.740520" lon="-5.781420">
        <ele>958.357</ele>
        <time>2019-03-26T05:11:05Z</time>
      </trkpt>
      <trkpt lat="42.741130" lon="-5.780900">
        <ele>957.318</ele>
        <time>2019-03-26T05:11:25Z</time>
      </trkpt>
      <trkpt lat="42.741690" lon="-5.780910">
        <ele>955.629</ele>
        <time>2019-03-26T05:11:45Z</time>
      </trkpt>
      <trkpt lat="42.742225" lon="-5.780960">
        <ele>956.258</ele>
        <time>2019-03-26T05:12:05Z</time>
      </trkpt>
      <trkpt lat="42.742760" lon="-5.781010">
        <ele>956.660</ele>
        <time>2019-03-26T05:12:25Z</time>
      </trkpt>
      <trkpt lat="42.743210" lon="-5.781050">
        <ele>956.978</ele>
        <time>2019-03-26T05:12:45Z</time>
      </trkpt>
      <trkpt lat="42.743520" lon="-5.781120">
        <ele>957.511</ele>
        <time>2019-03-26T05:13:05Z</time>
      </trkpt>
      <trkpt lat="42.743740" lon="-5.781310">
        <ele>957.713</ele>
        <time>2019-03-26T05:13:25Z</time>
      </trkpt>
      <trkpt lat="42.744030" lon="-5.781660">
        <ele>958.819</ele>
        <time>2019-03-26T05:13:45Z</time>
      </trkpt>
      <trkpt lat="42.744540" lon="-5.781900">
        <ele>960.109</ele>
        <time>2019-03-26T05:14:05Z</time>
      </trkpt>
      <trkpt lat="42.745160" lon="-5.782360">
        <ele>960.019</ele>
        <time>2019-03-26T05:14:25Z</time>
      </trkpt>
      <trkpt lat="42.745780" lon="-5.782820">
        <ele>960.708</ele>
        <time>2019-03-26T05:14:45Z</time>
      </trkpt>
      <trkpt lat="42.746400" lon="-5.783280">
        <ele>961.534</ele>
        <time>2019-03-26T05:15:05Z</time>
      </trkpt>
      <trkpt lat="42.746580" lon="-5.783310">
        <ele>961.645</ele>
        <time>2019-03-26T05:15:25Z</time>
      </trkpt>
      <trkpt lat="42.746880" lon="-5.783280">
        <ele>962.166</ele>
        <time>2019-03-26T05:15:45Z</time>
      </trkpt>
      <trkpt lat="42.747180" lon="-5.783310">
        <ele>963.215</ele>
        <time>2019-03-26T05:16:05Z</time>
      </trkpt>
      <trkpt lat="42.747590" lon="-5.783470">
        <ele>965.797</ele>
        <time>2019-03-26T05:16:25Z</time>
      </trkpt>
      <trkpt lat="42.747850" lon="-5.783500">
        <ele>966.675</ele>
        <time>2019-03-26T05:16:45Z</time>
      </trkpt>
      <trkpt lat="42.747770" lon="-5.784050">
        <ele>965.058</ele>
        <time>2019-03-26T05:17:05Z</time>
      </trkpt>
      <trkpt lat="42.747750" lon="-5.784550">
        <ele>964.560</ele>
        <time>2019-03-26T05:17:25Z</time>
      </trkpt>
      <trkpt lat="42.747700" lon="-5.785060">
        <ele>964.141</ele>
        <time>2019-03-26T05:17:45Z</time>
      </trkpt>
      <trkpt lat="42.747590" lon="-5.785630">
        <ele>963.481</ele>
        <time>2019-03-26T05:18:05Z</time>
      </trkpt>
      <trkpt lat="42.747550" lon="-5.786170">
        <ele>962.409</ele>
        <time>2019-03-26T05:18:25Z</time>
      </trkpt>
      <trkpt lat="42.747620" lon="-5.786820">
        <ele>961.908</ele>
        <time>2019-03-26T05:18:45Z</time>
      </trkpt>
      <trkpt lat="42.747610" lon="-5.787130">
        <ele>961.987</ele>
        <time>2019-03-26T05:19:05Z</time>
      </trkpt>
      <trkpt lat="42.747660" lon="-5.787480">
        <ele>961.648</ele>
        <time>2019-03-26T05:19:25Z</time>
      </trkpt>
      <trkpt lat="42.747840" lon="-5.787790">
        <ele>961.299</ele>
        <time>2019-03-26T05:19:45Z</time>
      </trkpt>
      <trkpt lat="42.748477" lon="-5.788213">
        <ele>960.298</ele>
        <time>2019-03-26T05:20:05Z</time>
      </trkpt>
      <trkpt lat="42.749113" lon="-5.788637">
        <ele>960.140</ele>
        <time>2019-03-26T05:20:25Z</time>
      </trkpt>
      <trkpt lat="42.749750" lon="-5.789060">
        <ele>959.458</ele>
        <time>2019-03-26T05:20:45Z</time>
      </trkpt>
      <trkpt lat="42.750210" lon="-5.789180">
        <ele>959.451</ele>
        <time>2019-03-26T05:21:05Z</time>
      </trkpt>
      <trkpt lat="42.750560" lon="-5.789260">
        <ele>959.833</ele>
        <time>2019-03-26T05:21:25Z</time>
      </trkpt>
      <trkpt lat="42.750900" lon="-5.789120">
        <ele>959.946</ele>
        <time>2019-03-26T05:21:45Z</time>
      </trkpt>
      <trkpt lat="42.751310" lon="-5.789170">
        <ele>960.188</ele>
        <time>2019-03-26T05:22:05Z</time>
      </trkpt>
      <trkpt lat="42.751660" lon="-5.789130">
        <ele>960.516</ele>
        <time>2019-03-26T05:22:25Z</time>
      </trkpt>
      <trkpt lat="42.751720" lon="-5.789110">
        <ele>960.508</ele>
        <time>2019-03-26T05:22:45Z</time>
      </trkpt>
      <trkpt lat="42.751490" lon="-5.788960">
        <ele>961.427</ele>
        <time>2019-03-26T05:23:05Z</time>
      </trkpt>
      <trkpt lat="42.751440" lon="-5.788890">
        <ele>962.318</ele>
        <time>2019-03-26T05:23:25Z</time>
      </trkpt>
      <trkpt lat="42.751410" lon="-5.788780">
        <ele>964.179</ele>
        <time>2019-03-26T05:23:45Z</time>
      </trkpt>
      <trkpt lat="42.751470" lon="-5.788720">
        <ele>964.158</ele>
        <time>2019-03-26T05:24:05Z</time>
      </trkpt>
      <trkpt lat="42.751690" lon="-5.788730">
        <ele>966.860</ele>
        <time>2019-03-26T05:24:25Z</time>
      </trkpt>
      <trkpt lat="42.751770" lon="-5.788720">
        <ele>967.728</ele>
        <time>2019-03-26T05:24:45Z</time>
      </trkpt>
      <trkpt lat="42.751810" lon="-5.788680">
        <ele>967.791</ele>
        <time>2019-03-26T05:25:05Z</time>
      </trkpt>
      <trkpt lat="42.751820" lon="-5.788540">
        <ele>968.613</ele>
        <time>2019-03-26T05:25:25Z</time>
      </trkpt>
      <trkpt lat="42.751740" lon="-5.788300">
        <ele>970.292</ele>
        <time>2019-03-26T05:25:45Z</time>
      </trkpt>
      <trkpt lat="42.751800" lon="-5.788220">
        <ele>970.973</ele>
        <time>2019-03-26T05:26:05Z</time>
      </trkpt>
      <trkpt lat="42.751830" lon="-5.788090">
        <ele>972.720</ele>
        <time>2019-03-26T05:26:25Z</time>
      </trkpt>
      <trkpt lat="42.751900" lon="-5.787980">
        <ele>972.708</ele>
        <time>2019-03-26T05:26:45Z</time>
      </trkpt>
      <trkpt lat="42.752030" lon="-5.787950">
        <ele>974.932</ele>
        <time>2019-03-26T05:27:05Z</time>
      </trkpt>
      <trkpt lat="42.752350" lon="-5.787930">
        <ele>977.583</ele>
        <time>2019-03-26T05:27:25Z</time>
      </trkpt>
      <trkpt lat="42.752820" lon="-5.787690">
        <ele>981.024</ele>
        <time>2019-03-26T05:27:45Z</time>
      </trkpt>
      <trkpt lat="42.753010" lon="-5.787460">
        <ele>981.973</ele>
        <time>2019-03-26T05:28:05Z</time>
      </trkpt>
      <trkpt lat="42.753110" lon="-5.787250">
        <ele>981.875</ele>
        <time>2019-03-26T05:28:25Z</time>
      </trkpt>
      <trkpt lat="42.753180" lon="-5.787020">
        <ele>981.593</ele>
        <time>2019-03-26T05:28:45Z</time>
      </trkpt>
      <trkpt lat="42.753310" lon="-5.786190">
        <ele>982.386</ele>
        <time>2019-03-26T05:29:05Z</time>
      </trkpt>
      <trkpt lat="42.753420" lon="-5.785620">
        <ele>984.048</ele>
        <time>2019-03-26T05:29:25Z</time>
      </trkpt>
      <trkpt lat="42.753420" lon="-5.785630">
        <ele>984.063</ele>
        <time>2019-03-26T05:29:45Z</time>
      </trkpt>
      <trkpt lat="42.753670" lon="-5.784530">
        <ele>988.644</ele>
        <time>2019-03-26T05:30:05Z</time>
      </trkpt>
      <trkpt lat="42.753690" lon="-5.784130">
        <ele>990.218</ele>
        <time>2019-03-26T05:30:25Z</time>
      </trkpt>
      <trkpt lat="42.753650" lon="-5.783710">
        <ele>992.008</ele>
        <time>2019-03-26T05:30:45Z</time>
      </trkpt>
      <trkpt lat="42.753590" lon="-5.783400">
        <ele>994.349</ele>
        <time>2019-03-26T05:31:05Z</time>
      </trkpt>
      <trkpt lat="42.753420" lon="-5.782765">
        <ele>997.010</ele>
        <time>2019-03-26T05:31:25Z</time>
      </trkpt>
      <trkpt lat="42.753250" lon="-5.782130">
        <ele>1001.951</ele>
        <time>2019-03-26T05:31:45Z</time>
      </trkpt>
      <trkpt lat="42.753040" lon="-5.781590">
        <ele>1003.750</ele>
        <time>2019-03-26T05:32:05Z</time>
      </trkpt>
      <trkpt lat="42.752860" lon="-5.781270">
        <ele>1005.642</ele>
        <time>2019-03-26T05:32:25Z</time>
      </trkpt>
      <trkpt lat="42.752660" lon="-5.780140">
        <ele>1007.790</ele>
        <time>2019-03-26T05:32:45Z</time>
      </trkpt>
      <trkpt lat="42.752645" lon="-5.779425">
        <ele>1008.693</ele>
        <time>2019-03-26T05:33:05Z</time>
      </trkpt>
      <trkpt lat="42.752630" lon="-5.778710">
        <ele>1009.975</ele>
        <time>2019-03-26T05:33:25Z</time>
      </trkpt>
      <trkpt lat="42.752590" lon="-5.778120">
        <ele>1011.427</ele>
        <time>2019-03-26T05:33:45Z</time>
      </trkpt>
      <trkpt lat="42.752420" lon="-5.777440">
        <ele>1013.368</ele>
        <time>2019-03-26T05:34:05Z</time>
      </trkpt>
      <trkpt lat="42.752390" lon="-5.777100">
        <ele>1014.514</ele>
        <time>2019-03-26T05:34:25Z</time>
      </trkpt>
      <trkpt lat="42.752420" lon="-5.777440">
        <ele>1013.308</ele>
        <time>2019-03-26T05:34:45Z</time>
      </trkpt>
      <trkpt lat="42.752440" lon="-5.777550">
        <ele>1013.175</ele>
        <time>2019-03-26T05:35:05Z</time>
      </trkpt>
      <trkpt lat="42.752420" lon="-5.777440">
        <ele>1013.396</ele>
        <time>2019-03-26T05:35:25Z</time>
      </trkpt>
      <trkpt lat="42.752390" lon="-5.777100">
        <ele>1014.527</ele>
        <time>2019-03-26T05:35:45Z</time>
      </trkpt>
      <trkpt lat="42.752300" lon="-5.776760">
        <ele>1018.776</ele>
        <time>2019-03-26T05:36:05Z</time>
      </trkpt>
      <trkpt lat="42.752370" lon="-5.776620">
        <ele>1018.648</ele>
        <time>2019-03-26T05:36:25Z</time>
      </trkpt>
      <trkpt lat="42.752570" lon="-5.776030">
        <ele>1017.566</ele>
        <time>2019-03-26T05:36:45Z</time>
      </trkpt>
      <trkpt lat="42.752650" lon="-5.775890">
        <ele>1017.599</ele>
        <time>2019-03-26T05:37:05Z</time>
      </trkpt>
      <trkpt lat="42.753260" lon="-5.775160">
        <ele>1010.461</ele>
        <time>2019-03-26T05:37:25Z</time>
      </trkpt>
      <trkpt lat="42.753460" lon="-5.774980">
        <ele>1008.338</ele>
        <time>2019-03-26T05:37:45Z</time>
      </trkpt>
      <trkpt lat="42.754090" lon="-5.774500">
        <ele>1004.170</ele>
        <time>2019-03-26T05:38:05Z</time>
      </trkpt>
      <trkpt lat="42.754720" lon="-5.774020">
        <ele>998.717</ele>
        <time>2019-03-26T05:38:25Z</time>
      </trkpt>
      <trkpt lat="42.754880" lon="-5.773920">
        <ele>997.908</ele>
        <time>2019-03-26T05:38:45Z</time>
      </trkpt>
      <trkpt lat="42.755050" lon="-5.773850">
        <ele>996.636</ele>
        <time>2019-03-26T05:39:05Z</time>
      </trkpt>
      <trkpt lat="42.755310" lon="-5.773850">
        <ele>996.677</ele>
        <time>2019-03-26T05:39:25Z</time>
      </trkpt>
      <trkpt lat="42.755760" lon="-5.773880">
        <ele>991.238</ele>
        <time>2019-03-26T05:39:45Z</time>
      </trkpt>
      <trkpt lat="42.756475" lon="-5.773970">
        <ele>987.627</ele>
        <time>2019-03-26T05:40:05Z</time>
      </trkpt>
      <trkpt lat="42.757190" lon="-5.774060">
        <ele>982.359</ele>
        <time>2019-03-26T05:40:25Z</time>
      </trkpt>
      <trkpt lat="42.757450" lon="-5.774110">
        <ele>981.147</ele>
        <time>2019-03-26T05:40:45Z</time>
      </trkpt>
      <trkpt lat="42.757980" lon="-5.774330">
        <ele>979.210</ele>
        <time>2019-03-26T05:41:05Z</time>
      </trkpt>
      <trkpt lat="42.758510" lon="-5.774550">
        <ele>979.882</ele>
        <time>2019-03-26T05:41:25Z</time>
      </trkpt>
      <trkpt lat="42.758780" lon="-5.774690">
        <ele>980.468</ele>
        <time>2019-03-26T05:41:45Z</time>
      </trkpt>
      <trkpt lat="42.758950" lon="-5.774820">
        <ele>980.942</ele>
        <time>2019-03-26T05:42:05Z</time>
      </trkpt>
      <trkpt lat="42.759090" lon="-5.774930">
        <ele>981.426</ele>
        <time>2019-03-26T05:42:25Z</time>
      </trkpt>
      <trkpt lat="42.759080" lon="-5.775090">
        <ele>981.408</ele>
        <time>2019-03-26T05:42:45Z</time>
      </trkpt>
      <trkpt lat="42.759200" lon="-5.775290">
        <ele>976.429</ele>
        <time>2019-03-26T05:43:05Z</time>
      </trkpt>
      <trkpt lat="42.759230" lon="-5.775380">
        <ele>976.490</ele>
        <time>2019-03-26T05:43:25Z</time>
      </trkpt>
      <trkpt lat="42.759310" lon="-5.775630">
        <ele>976.421</ele>
        <time>2019-03-26T05:43:45Z</time>
      </trkpt>
      <trkpt lat="42.759410" lon="-5.776060">
        <ele>970.780</ele>
        <time>2019-03-26T05:44:05Z</time>
      </trkpt>
      <trkpt lat="42.759380" lon="-5.776290">
        <ele>970.742</ele>
        <time>2019-03-26T05:44:25Z</time>
      </trkpt>
      <trkpt lat="42.759450" lon="-5.776670">
        <ele>966.090</ele>
        <time>2019-03-26T05:44:45Z</time>
      </trkpt>
      <trkpt lat="42.759630" lon="-5.777270">
        <ele>966.053</ele>
        <time>2019-03-26T05:45:05Z</time>
      </trkpt>
      <trkpt lat="42.759980" lon="-5.778100">
        <ele>965.175</ele>
        <time>2019-03-26T05:45:25Z</time>
      </trkpt>
      <trkpt lat="42.760310" lon="-5.778540">
        <ele>965.133</ele>
        <time>2019-03-26T05:45:45Z</time>
      </trkpt>
      <trkpt lat="42.760640" lon="-5.778810">
        <ele>965.123</ele>
        <time>2019-03-26T05:46:05Z</time>
      </trkpt>
      <trkpt lat="42.760970" lon="-5.779060">
        <ele>965.115</ele>
        <time>2019-03-26T05:46:25Z</time>
      </trkpt>
      <trkpt lat="42.761200" lon="-5.779300">
        <ele>965.108</ele>
        <time>2019-03-26T05:46:45Z</time>
      </trkpt>
      <trkpt lat="42.761740" lon="-5.779620">
        <ele>964.496</ele>
        <time>2019-03-26T05:47:05Z</time>
      </trkpt>
      <trkpt lat="42.762080" lon="-5.779740">
        <ele>964.437</ele>
        <time>2019-03-26T05:47:25Z</time>
      </trkpt>
      <trkpt lat="42.762230" lon="-5.779750">
        <ele>964.458</ele>
        <time>2019-03-26T05:47:45Z</time>
      </trkpt>
      <trkpt lat="42.762670" lon="-5.779770">
        <ele>964.467</ele>
        <time>2019-03-26T05:48:05Z</time>
      </trkpt>
      <trkpt lat="42.763000" lon="-5.779740">
        <ele>964.459</ele>
        <time>2019-03-26T05:48:25Z</time>
      </trkpt>
      <trkpt lat="42.763180" lon="-5.779670">
        <ele>963.777</ele>
        <time>2019-03-26T05:48:45Z</time>
      </trkpt>
      <trkpt lat="42.763850" lon="-5.778970">
        <ele>963.770</ele>
        <time>2019-03-26T05:49:05Z</time>
      </trkpt>
      <trkpt lat="42.763940" lon="-5.778960">
        <ele>963.772</ele>
        <time>2019-03-26T05:49:25Z</time>
      </trkpt>
      <trkpt lat="42.763930" lon="-5.778960">
        <ele>963.766</ele>
        <time>2019-03-26T05:49:45Z</time>
      </trkpt>
      <trkpt lat="42.763970" lon="-5.778950">
        <ele>963.729</ele>
        <time>2019-03-26T05:50:05Z</time>
      </trkpt>
      <trkpt lat="42.764130" lon="-5.779010">
        <ele>963.721</ele>
        <time>2019-03-26T05:50:25Z</time>
      </trkpt>
      <trkpt lat="42.764430" lon="-5.779320">
        <ele>963.708</ele>
        <time>2019-03-26T05:50:45Z</time>
      </trkpt>
      <trkpt lat="42.764970" lon="-5.779930">
        <ele>962.939</ele>
        <time>2019-03-26T05:51:05Z</time>
      </trkpt>
      <trkpt lat="42.765440" lon="-5.780420">
        <ele>962.990</ele>
        <time>2019-03-26T05:51:25Z</time>
      </trkpt>
      <trkpt lat="42.766087" lon="-5.780867">
        <ele>962.971</ele>
        <time>2019-03-26T05:51:45Z</time>
      </trkpt>
      <trkpt lat="42.766733" lon="-5.781313">
        <ele>967.490</ele>
        <time>2019-03-26T05:52:05Z</time>
      </trkpt>
      <trkpt lat="42.767380" lon="-5.781760">
        <ele>967.442</ele>
        <time>2019-03-26T05:52:25Z</time>
      </trkpt>
      <trkpt lat="42.767430" lon="-5.781780">
        <ele>967.460</ele>
        <time>2019-03-26T05:52:45Z</time>
      </trkpt>
      <trkpt lat="42.767960" lon="-5.781885">
        <ele>967.493</ele>
        <time>2019-03-26T05:53:05Z</time>
      </trkpt>
      <trkpt lat="42.768490" lon="-5.781990">
        <ele>967.475</ele>
        <time>2019-03-26T05:53:25Z</time>
      </trkpt>
      <trkpt lat="42.769195" lon="-5.782270">
        <ele>972.698</ele>
        <time>2019-03-26T05:53:45Z</time>
      </trkpt>
      <trkpt lat="42.769900" lon="-5.782550">
        <ele>972.615</ele>
        <time>2019-03-26T05:54:05Z</time>
      </trkpt>
      <trkpt lat="42.769920" lon="-5.782500">
        <ele>972.926</ele>
        <time>2019-03-26T05:54:25Z</time>
      </trkpt>
      <trkpt lat="42.770633" lon="-5.783067">
        <ele>971.908</ele>
        <time>2019-03-26T05:54:45Z</time>
      </trkpt>
      <trkpt lat="42.771347" lon="-5.783633">
        <ele>971.062</ele>
        <time>2019-03-26T05:55:05Z</time>
      </trkpt>
      <trkpt lat="42.772060" lon="-5.784200">
        <ele>972.723</ele>
        <time>2019-03-26T05:55:25Z</time>
      </trkpt>
      <trkpt lat="42.772260" lon="-5.784290">
        <ele>973.064</ele>
        <time>2019-03-26T05:55:45Z</time>
      </trkpt>
      <trkpt lat="42.772440" lon="-5.784320">
        <ele>973.223</ele>
        <time>2019-03-26T05:56:05Z</time>
      </trkpt>
      <trkpt lat="42.772580" lon="-5.784290">
        <ele>973.295</ele>
        <time>2019-03-26T05:56:25Z</time>
      </trkpt>
      <trkpt lat="42.772750" lon="-5.784200">
        <ele>972.983</ele>
        <time>2019-03-26T05:56:45Z</time>
      </trkpt>
      <trkpt lat="42.772900" lon="-5.784060">
        <ele>972.916</ele>
        <time>2019-03-26T05:57:05Z</time>
      </trkpt>
      <trkpt lat="42.773390" lon="-5.783500">
        <ele>973.288</ele>
        <time>2019-03-26T05:57:25Z</time>
      </trkpt>
      <trkpt lat="42.773580" lon="-5.783380">
        <ele>973.227</ele>
        <time>2019-03-26T05:57:45Z</time>
      </trkpt>
      <trkpt lat="42.774020" lon="-5.783210">
        <ele>972.968</ele>
        <time>2019-03-26T05:58:05Z</time>
      </trkpt>
      <trkpt lat="42.774860" lon="-5.782790">
        <ele>974.614</ele>
        <time>2019-03-26T05:58:25Z</time>
      </trkpt>
      <trkpt lat="42.775090" lon="-5.782740">
        <ele>975.708</ele>
        <time>2019-03-26T05:58:45Z</time>
      </trkpt>
      <trkpt lat="42.775380" lon="-5.782720">
        <ele>976.035</ele>
        <time>2019-03-26T05:59:05Z</time>
      </trkpt>
      <trkpt lat="42.775760" lon="-5.782760">
        <ele>976.346</ele>
        <time>2019-03-26T05:59:25Z</time>
      </trkpt>
      <trkpt lat="42.776310" lon="-5.782910">
        <ele>977.797</ele>
        <time>2019-03-26T05:59:45Z</time>
      </trkpt>
      <trkpt lat="42.776730" lon="-5.783090">
        <ele>977.116</ele>
        <time>2019-03-26T06:00:05Z</time>
      </trkpt>
      <trkpt lat="42.777170" lon="-5.783450">
        <ele>975.848</ele>
        <time>2019-03-26T06:00:25Z</time>
      </trkpt>
      <trkpt lat="42.777610" lon="-5.783910">
        <ele>974.816</ele>
        <time>2019-03-26T06:00:45Z</time>
      </trkpt>
      <trkpt lat="42.777840" lon="-5.784220">
        <ele>974.359</ele>
        <time>2019-03-26T06:01:05Z</time>
      </trkpt>
      <trkpt lat="42.778020" lon="-5.784550">
        <ele>974.351</ele>
        <time>2019-03-26T06:01:25Z</time>
      </trkpt>
      <trkpt lat="42.778120" lon="-5.784780">
        <ele>974.121</ele>
        <time>2019-03-26T06:01:45Z</time>
      </trkpt>
      <trkpt lat="42.778300" lon="-5.785320">
        <ele>974.141</ele>
        <time>2019-03-26T06:02:05Z</time>
      </trkpt>
      <trkpt lat="42.778450" lon="-5.786035">
        <ele>974.605</ele>
        <time>2019-03-26T06:02:25Z</time>
      </trkpt>
      <trkpt lat="42.778600" lon="-5.786750">
        <ele>973.908</ele>
        <time>2019-03-26T06:02:45Z</time>
      </trkpt>
      <trkpt lat="42.778770" lon="-5.787230">
        <ele>972.885</ele>
        <time>2019-03-26T06:03:05Z</time>
      </trkpt>
      <trkpt lat="42.779110" lon="-5.787945">
        <ele>972.366</ele>
        <time>2019-03-26T06:03:25Z</time>
      </trkpt>
      <trkpt lat="42.779450" lon="-5.788660">
        <ele>972.777</ele>
        <time>2019-03-26T06:03:45Z</time>
      </trkpt>
      <trkpt lat="42.779810" lon="-5.789690">
        <ele>973.666</ele>
        <time>2019-03-26T06:04:05Z</time>
      </trkpt>
      <trkpt lat="42.779950" lon="-5.789900">
        <ele>973.548</ele>
        <time>2019-03-26T06:04:25Z</time>
      </trkpt>
      <trkpt lat="42.780070" lon="-5.790000">
        <ele>973.456</ele>
        <time>2019-03-26T06:04:45Z</time>
      </trkpt>
      <trkpt lat="42.780220" lon="-5.790080">
        <ele>973.429</ele>
        <time>2019-03-26T06:05:05Z</time>
      </trkpt>
      <trkpt lat="42.780640" lon="-5.790140">
        <ele>973.211</ele>
        <time>2019-03-26T06:05:25Z</time>
      </trkpt>
      <trkpt lat="42.780513" lon="-5.791333">
        <ele>971.468</ele>
        <time>2019-03-26T06:05:45Z</time>
      </trkpt>
      <trkpt lat="42.780387" lon="-5.792527">
        <ele>972.242</ele>
        <time>2019-03-26T06:06:05Z</time>
      </trkpt>
      <trkpt lat="42.780260" lon="-5.793720">
        <ele>973.326</ele>
        <time>2019-03-26T06:06:25Z</time>
      </trkpt>
      <trkpt lat="42.780323" lon="-5.794707">
        <ele>973.408</ele>
        <time>2019-03-26T06:06:45Z</time>
      </trkpt>
      <trkpt lat="42.780387" lon="-5.795693">
        <ele>973.619</ele>
        <time>2019-03-26T06:07:05Z</time>
      </trkpt>
      <trkpt lat="42.780450" lon="-5.796680">
        <ele>974.190</ele>
        <time>2019-03-26T06:07:25Z</time>
      </trkpt>
      <trkpt lat="42.780440" lon="-5.797440">
        <ele>973.871</ele>
        <time>2019-03-26T06:07:45Z</time>
      </trkpt>
      <trkpt lat="42.780430" lon="-5.798200">
        <ele>974.240</ele>
        <time>2019-03-26T06:08:05Z</time>
      </trkpt>
      <trkpt lat="42.780430" lon="-5.798210">
        <ele>974.222</ele>
        <time>2019-03-26T06:08:25Z</time>
      </trkpt>
      <trkpt lat="42.780420" lon="-5.799257">
        <ele>974.760</ele>
        <time>2019-03-26T06:08:45Z</time>
      </trkpt>
      <trkpt lat="42.780410" lon="-5.800303">
        <ele>975.123</ele>
        <time>2019-03-26T06:09:05Z</time>
      </trkpt>
      <trkpt lat="42.780400" lon="-5.801350">
        <ele>975.545</ele>
        <time>2019-03-26T06:09:25Z</time>
      </trkpt>
      <trkpt lat="42.780410" lon="-5.801490">
        <ele>975.526</ele>
        <time>2019-03-26T06:09:45Z</time>
      </trkpt>
      <trkpt lat="42.780450" lon="-5.801650">
        <ele>975.547</ele>
        <time>2019-03-26T06:10:05Z</time>
      </trkpt>
      <trkpt lat="42.780490" lon="-5.801700">
        <ele>975.411</ele>
        <time>2019-03-26T06:10:25Z</time>
      </trkpt>
      <trkpt lat="42.780530" lon="-5.801770">
        <ele>975.408</ele>
        <time>2019-03-26T06:10:45Z</time>
      </trkpt>
      <trkpt lat="42.781160" lon="-5.802410">
        <ele>975.045</ele>
        <time>2019-03-26T06:11:05Z</time>
      </trkpt>
      <trkpt lat="42.781560" lon="-5.802820">
        <ele>975.096</ele>
        <time>2019-03-26T06:11:25Z</time>
      </trkpt>
      <trkpt lat="42.781960" lon="-5.803230">
        <ele>975.467</ele>
        <time>2019-03-26T06:11:45Z</time>
      </trkpt>
      <trkpt lat="42.781990" lon="-5.803360">
        <ele>975.676</ele>
        <time>2019-03-26T06:12:05Z</time>
      </trkpt>
      <trkpt lat="42.781950" lon="-5.803760">
        <ele>976.278</ele>
        <time>2019-03-26T06:12:25Z</time>
      </trkpt>
      <trkpt lat="42.781980" lon="-5.803880">
        <ele>976.216</ele>
        <time>2019-03-26T06:12:45Z</time>
      </trkpt>
      <trkpt lat="42.782140" lon="-5.803940">
        <ele>976.229</ele>
        <time>2019-03-26T06:13:05Z</time>
      </trkpt>
      <trkpt lat="42.782757" lon="-5.804070">
        <ele>976.341</ele>
        <time>2019-03-26T06:13:25Z</time>
      </trkpt>
      <trkpt lat="42.783373" lon="-5.804200">
        <ele>975.863</ele>
        <time>2019-03-26T06:13:45Z</time>
      </trkpt>
      <trkpt lat="42.783990" lon="-5.804330">
        <ele>975.744</ele>
        <time>2019-03-26T06:14:05Z</time>
      </trkpt>
      <trkpt lat="42.784830" lon="-5.804470">
        <ele>981.018</ele>
        <time>2019-03-26T06:14:25Z</time>
      </trkpt>
      <trkpt lat="42.784850" lon="-5.803840">
        <ele>983.108</ele>
        <time>2019-03-26T06:14:45Z</time>
      </trkpt>
      <trkpt lat="42.785270" lon="-5.803880">
        <ele>986.439</ele>
        <time>2019-03-26T06:15:05Z</time>
      </trkpt>
      <trkpt lat="42.785930" lon="-5.804210">
        <ele>984.970</ele>
        <time>2019-03-26T06:15:25Z</time>
      </trkpt>
      <trkpt lat="42.786570" lon="-5.804385">
        <ele>984.891</ele>
        <time>2019-03-26T06:15:45Z</time>
      </trkpt>
      <trkpt lat="42.787210" lon="-5.804560">
        <ele>985.160</ele>
        <time>2019-03-26T06:16:05Z</time>
      </trkpt>
      <trkpt lat="42.787660" lon="-5.804780">
        <ele>985.392</ele>
        <time>2019-03-26T06:16:25Z</time>
      </trkpt>
      <trkpt lat="42.788110" lon="-5.805000">
        <ele>985.510</ele>
        <time>2019-03-26T06:16:45Z</time>
      </trkpt>
      <trkpt lat="42.788870" lon="-5.805360">
        <ele>986.143</ele>
        <time>2019-03-26T06:17:05Z</time>
      </trkpt>
      <trkpt lat="42.789130" lon="-5.805450">
        <ele>986.395</ele>
        <time>2019-03-26T06:17:25Z</time>
      </trkpt>
      <trkpt lat="42.789240" lon="-5.805450">
        <ele>986.416</ele>
        <time>2019-03-26T06:17:45Z</time>
      </trkpt>
      <trkpt lat="42.789710" lon="-5.805500">
        <ele>986.976</ele>
        <time>2019-03-26T06:18:05Z</time>
      </trkpt>
      <trkpt lat="42.789930" lon="-5.805680">
        <ele>987.313</ele>
        <time>2019-03-26T06:18:25Z</time>
      </trkpt>
      <trkpt lat="42.790465" lon="-5.806215">
        <ele>987.308</ele>
        <time>2019-03-26T06:18:45Z</time>
      </trkpt>
      <trkpt lat="42.791000" lon="-5.806750">
        <ele>987.234</ele>
        <time>2019-03-26T06:19:05Z</time>
      </trkpt>
      <trkpt lat="42.791120" lon="-5.806930">
        <ele>987.225</ele>
        <time>2019-03-26T06:19:25Z</time>
      </trkpt>
      <trkpt lat="42.791220" lon="-5.807120">
        <ele>987.256</ele>
        <time>2019-03-26T06:19:45Z</time>
      </trkpt>
      <trkpt lat="42.791350" lon="-5.807520">
        <ele>987.265</ele>
        <time>2019-03-26T06:20:05Z</time>
      </trkpt>
      <trkpt lat="42.791440" lon="-5.808010">
        <ele>987.257</ele>
        <time>2019-03-26T06:20:25Z</time>
      </trkpt>
      <trkpt lat="42.791545" lon="-5.808890">
        <ele>987.085</ele>
        <time>2019-03-26T06:20:45Z</time>
      </trkpt>
      <trkpt lat="42.791650" lon="-5.809770">
        <ele>985.068</ele>
        <time>2019-03-26T06:21:05Z</time>
      </trkpt>
      <trkpt lat="42.791710" lon="-5.810070">
        <ele>984.590</ele>
        <time>2019-03-26T06:21:25Z</time>
      </trkpt>
      <trkpt lat="42.792095" lon="-5.810665">
        <ele>985.229</ele>
        <time>2019-03-26T06:21:45Z</time>
      </trkpt>
      <trkpt lat="42.792480" lon="-5.811260">
        <ele>985.400</ele>
        <time>2019-03-26T06:22:05Z</time>
      </trkpt>
      <trkpt lat="42.792920" lon="-5.811860">
        <ele>985.020</ele>
        <time>2019-03-26T06:22:25Z</time>
      </trkpt>
      <trkpt lat="42.793560" lon="-5.812315">
        <ele>986.808</ele>
        <time>2019-03-26T06:22:45Z</time>
      </trkpt>
      <trkpt lat="42.794200" lon="-5.812770">
        <ele>989.685</ele>
        <time>2019-03-26T06:23:05Z</time>
      </trkpt>
      <trkpt lat="42.794560" lon="-5.813120">
        <ele>990.196</ele>
        <time>2019-03-26T06:23:25Z</time>
      </trkpt>
      <trkpt lat="42.795070" lon="-5.813970">
        <ele>990.137</ele>
        <time>2019-03-26T06:23:45Z</time>
      </trkpt>
      <trkpt lat="42.795210" lon="-5.814350">
        <ele>990.146</ele>
        <time>2019-03-26T06:24:05Z</time>
      </trkpt>
      <trkpt lat="42.795340" lon="-5.815240">
        <ele>990.878</ele>
        <time>2019-03-26T06:24:25Z</time>
      </trkpt>
      <trkpt lat="42.795450" lon="-5.815640">
        <ele>991.266</ele>
        <time>2019-03-26T06:24:45Z</time>
      </trkpt>
      <trkpt lat="42.795785" lon="-5.816540">
        <ele>990.879</ele>
        <time>2019-03-26T06:25:05Z</time>
      </trkpt>
      <trkpt lat="42.796120" lon="-5.817440">
        <ele>990.431</ele>
        <time>2019-03-26T06:25:25Z</time>
      </trkpt>
      <trkpt lat="42.796420" lon="-5.818000">
        <ele>992.813</ele>
        <time>2019-03-26T06:25:45Z</time>
      </trkpt>
      <trkpt lat="42.796780" lon="-5.818520">
        <ele>994.343</ele>
        <time>2019-03-26T06:26:05Z</time>
      </trkpt>
      <trkpt lat="42.797130" lon="-5.818850">
        <ele>994.607</ele>
        <time>2019-03-26T06:26:25Z</time>
      </trkpt>
      <trkpt lat="42.797500" lon="-5.819060">
        <ele>995.408</ele>
        <time>2019-03-26T06:26:45Z</time>
      </trkpt>
      <trkpt lat="42.798080" lon="-5.819180">
        <ele>996.234</ele>
        <time>2019-03-26T06:27:05Z</time>
      </trkpt>
      <trkpt lat="42.798570" lon="-5.819500">
        <ele>996.735</ele>
        <time>2019-03-26T06:27:25Z</time>
      </trkpt>
      <trkpt lat="42.798940" lon="-5.819880">
        <ele>997.686</ele>
        <time>2019-03-26T06:27:45Z</time>
      </trkpt>
      <trkpt lat="42.799330" lon="-5.820590">
        <ele>998.835</ele>
        <time>2019-03-26T06:28:05Z</time>
      </trkpt>
      <trkpt lat="42.799715" lon="-5.821585">
        <ele>1001.617</ele>
        <time>2019-03-26T06:28:25Z</time>
      </trkpt>
      <trkpt lat="42.800100" lon="-5.822580">
        <ele>1003.365</ele>
        <time>2019-03-26T06:28:45Z</time>
      </trkpt>
      <trkpt lat="42.800520" lon="-5.823310">
        <ele>1005.018</ele>
        <time>2019-03-26T06:29:05Z</time>
      </trkpt>
      <trkpt lat="42.800740" lon="-5.823540">
        <ele>1006.080</ele>
        <time>2019-03-26T06:29:25Z</time>
      </trkpt>
      <trkpt lat="42.801440" lon="-5.824080">
        <ele>1008.633</ele>
        <time>2019-03-26T06:29:45Z</time>
      </trkpt>
      <trkpt lat="42.802030" lon="-5.824410">
        <ele>1010.823</ele>
        <time>2019-03-26T06:30:05Z</time>
      </trkpt>
      <trkpt lat="42.802280" lon="-5.824620">
        <ele>1013.115</ele>
        <time>2019-03-26T06:30:25Z</time>
      </trkpt>
      <trkpt lat="42.802530" lon="-5.824860">
        <ele>1014.408</ele>
        <time>2019-03-26T06:30:45Z</time>
      </trkpt>
      <trkpt lat="42.802670" lon="-5.824950">
        <ele>1015.186</ele>
        <time>2019-03-26T06:31:05Z</time>
      </trkpt>
      <trkpt lat="42.802850" lon="-5.824950">
        <ele>1015.587</ele>
        <time>2019-03-26T06:31:25Z</time>
      </trkpt>
      <trkpt lat="42.803220" lon="-5.824850">
        <ele>1017.238</ele>
        <time>2019-03-26T06:31:45Z</time>
      </trkpt>
      <trkpt lat="42.803480" lon="-5.824760">
        <ele>1018.457</ele>
        <time>2019-03-26T06:32:05Z</time>
      </trkpt>
      <trkpt lat="42.803650" lon="-5.824600">
        <ele>1019.399</ele>
        <time>2019-03-26T06:32:25Z</time>
      </trkpt>
      <trkpt lat="42.804160" lon="-5.823960">
        <ele>1020.597</ele>
        <time>2019-03-26T06:32:45Z</time>
      </trkpt>
      <trkpt lat="42.804620" lon="-5.823470">
        <ele>1020.990</ele>
        <time>2019-03-26T06:33:05Z</time>
      </trkpt>
      <trkpt lat="42.805100" lon="-5.823240">
        <ele>1021.252</ele>
        <time>2019-03-26T06:33:25Z</time>
      </trkpt>
      <trkpt lat="42.805470" lon="-5.822650">
        <ele>1021.262</ele>
        <time>2019-03-26T06:33:45Z</time>
      </trkpt>
      <trkpt lat="42.805600" lon="-5.822630">
        <ele>1020.983</ele>
        <time>2019-03-26T06:34:05Z</time>
      </trkpt>
      <trkpt lat="42.805710" lon="-5.822700">
        <ele>1020.611</ele>
        <time>2019-03-26T06:34:25Z</time>
      </trkpt>
      <trkpt lat="42.805850" lon="-5.822880">
        <ele>1019.908</ele>
        <time>2019-03-26T06:34:45Z</time>
      </trkpt>
      <trkpt lat="42.806120" lon="-5.823290">
        <ele>1018.779</ele>
        <time>2019-03-26T06:35:05Z</time>
      </trkpt>
      <trkpt lat="42.806610" lon="-5.823780">
        <ele>1016.040</ele>
        <time>2019-03-26T06:35:25Z</time>
      </trkpt>
      <trkpt lat="42.806760" lon="-5.823830">
        <ele>1015.841</ele>
        <time>2019-03-26T06:35:45Z</time>
      </trkpt>
      <trkpt lat="42.807260" lon="-5.823800">
        <ele>1013.330</ele>
        <time>2019-03-26T06:36:05Z</time>
      </trkpt>
      <trkpt lat="42.807850" lon="-5.823860">
        <ele>1010.072</ele>
        <time>2019-03-26T06:36:25Z</time>
      </trkpt>
      <trkpt lat="42.808440" lon="-5.823920">
        <ele>1005.450</ele>
        <time>2019-03-26T06:36:45Z</time>
      </trkpt>
      <trkpt lat="42.808990" lon="-5.824030">
        <ele>1003.533</ele>
        <time>2019-03-26T06:37:05Z</time>
      </trkpt>
      <trkpt lat="42.809440" lon="-5.824030">
        <ele>1002.445</ele>
        <time>2019-03-26T06:37:25Z</time>
      </trkpt>
      <trkpt lat="42.809520" lon="-5.823980">
        <ele>1002.441</ele>
        <time>2019-03-26T06:37:45Z</time>
      </trkpt>
      <trkpt lat="42.809720" lon="-5.823920">
        <ele>1002.481</ele>
        <time>2019-03-26T06:38:05Z</time>
      </trkpt>
      <trkpt lat="42.809900" lon="-5.823970">
        <ele>1002.209</ele>
        <time>2019-03-26T06:38:25Z</time>
      </trkpt>
      <trkpt lat="42.810615" lon="-5.824685">
        <ele>1000.008</ele>
        <time>2019-03-26T06:38:45Z</time>
      </trkpt>
      <trkpt lat="42.811330" lon="-5.825400">
        <ele>999.427</ele>
        <time>2019-03-26T06:39:05Z</time>
      </trkpt>
      <trkpt lat="42.811620" lon="-5.825870">
        <ele>999.468</ele>
        <time>2019-03-26T06:39:25Z</time>
      </trkpt>
      <trkpt lat="42.811800" lon="-5.826360">
        <ele>999.419</ele>
        <time>2019-03-26T06:39:45Z</time>
      </trkpt>
      <trkpt lat="42.811870" lon="-5.826870">
        <ele>999.458</ele>
        <time>2019-03-26T06:40:05Z</time>
      </trkpt>
      <trkpt lat="42.811863" lon="-5.827910">
        <ele>999.450</ele>
        <time>2019-03-26T06:40:25Z</time>
      </trkpt>
      <trkpt lat="42.811857" lon="-5.828950">
        <ele>999.468</ele>
        <time>2019-03-26T06:40:45Z</time>
      </trkpt>
      <trkpt lat="42.811850" lon="-5.829990">
        <ele>999.441</ele>
        <time>2019-03-26T06:41:05Z</time>
      </trkpt>
      <trkpt lat="42.811940" lon="-5.830510">
        <ele>999.563</ele>
        <time>2019-03-26T06:41:25Z</time>
      </trkpt>
      <trkpt lat="42.812080" lon="-5.830910">
        <ele>1000.218</ele>
        <time>2019-03-26T06:41:45Z</time>
      </trkpt>
      <trkpt lat="42.812240" lon="-5.831120">
        <ele>1000.798</ele>
        <time>2019-03-26T06:42:05Z</time>
      </trkpt>
      <trkpt lat="42.812470" lon="-5.831330">
        <ele>1001.717</ele>
        <time>2019-03-26T06:42:25Z</time>
      </trkpt>
      <trkpt lat="42.812770" lon="-5.831420">
        <ele>1002.008</ele>
        <time>2019-03-26T06:42:45Z</time>
      </trkpt>
      <trkpt lat="42.813300" lon="-5.831445">
        <ele>1003.624</ele>
        <time>2019-03-26T06:43:05Z</time>
      </trkpt>
      <trkpt lat="42.813830" lon="-5.831470">
        <ele>1004.245</ele>
        <time>2019-03-26T06:43:25Z</time>
      </trkpt>
      <trkpt lat="42.814110" lon="-5.831540">
        <ele>1004.496</ele>
        <time>2019-03-26T06:43:45Z</time>
      </trkpt>
      <trkpt lat="42.814350" lon="-5.831750">
        <ele>1004.455</ele>
        <time>2019-03-26T06:44:05Z</time>
      </trkpt>
      <trkpt lat="42.814855" lon="-5.832300">
        <ele>1004.457</ele>
        <time>2019-03-26T06:44:25Z</time>
      </trkpt>
      <trkpt lat="42.815360" lon="-5.832850">
        <ele>1004.485</ele>
        <time>2019-03-26T06:44:45Z</time>
      </trkpt>
      <trkpt lat="42.815580" lon="-5.833000">
        <ele>1004.458</ele>
        <time>2019-03-26T06:45:05Z</time>
      </trkpt>
      <trkpt lat="42.815840" lon="-5.833090">
        <ele>1004.280</ele>
        <time>2019-03-26T06:45:25Z</time>
      </trkpt>
      <trkpt lat="42.816600" lon="-5.833250">
        <ele>1003.589</ele>
        <time>2019-03-26T06:45:45Z</time>
      </trkpt>
      <trkpt lat="42.817060" lon="-5.833320">
        <ele>1003.506</ele>
        <time>2019-03-26T06:46:05Z</time>
      </trkpt>
      <trkpt lat="42.817520" lon="-5.833390">
        <ele>1004.226</ele>
        <time>2019-03-26T06:46:25Z</time>
      </trkpt>
      <trkpt lat="42.818210" lon="-5.833460">
        <ele>1005.908</ele>
        <time>2019-03-26T06:46:45Z</time>
      </trkpt>
      <trkpt lat="42.818390" lon="-5.833510">
        <ele>1006.661</ele>
        <time>2019-03-26T06:47:05Z</time>
      </trkpt>
      <trkpt lat="42.818530" lon="-5.833560">
        <ele>1007.052</ele>
        <time>2019-03-26T06:47:25Z</time>
      </trkpt>
      <trkpt lat="42.819250" lon="-5.834080">
        <ele>1008.183</ele>
        <time>2019-03-26T06:47:45Z</time>
      </trkpt>
      <trkpt lat="42.819950" lon="-5.834380">
        <ele>1008.382</ele>
        <time>2019-03-26T06:48:05Z</time>
      </trkpt>
      <trkpt lat="42.820240" lon="-5.834540">
        <ele>1008.484</ele>
        <time>2019-03-26T06:48:25Z</time>
      </trkpt>
      <trkpt lat="42.820590" lon="-5.834780">
        <ele>1008.992</ele>
        <time>2019-03-26T06:48:45Z</time>
      </trkpt>
      <trkpt lat="42.821325" lon="-5.835365">
        <ele>1009.225</ele>
        <time>2019-03-26T06:49:05Z</time>
      </trkpt>
      <trkpt lat="42.822060" lon="-5.835950">
        <ele>1010.547</ele>
        <time>2019-03-26T06:49:25Z</time>
      </trkpt>
      <trkpt lat="42.822270" lon="-5.836210">
        <ele>1011.595</ele>
        <time>2019-03-26T06:49:45Z</time>
      </trkpt>
      <trkpt lat="42.822770" lon="-5.836960">
        <ele>1013.449</ele>
        <time>2019-03-26T06:50:05Z</time>
      </trkpt>
      <trkpt lat="42.822920" lon="-5.837220">
        <ele>1014.123</ele>
        <time>2019-03-26T06:50:25Z</time>
      </trkpt>
      <trkpt lat="42.822990" lon="-5.837480">
        <ele>1014.308</ele>
        <time>2019-03-26T06:50:45Z</time>
      </trkpt>
      <trkpt lat="42.823030" lon="-5.837860">
        <ele>1014.442</ele>
        <time>2019-03-26T06:51:05Z</time>
      </trkpt>
      <trkpt lat="42.823060" lon="-5.838700">
        <ele>1012.993</ele>
        <time>2019-03-26T06:51:25Z</time>
      </trkpt>
      <trkpt lat="42.823060" lon="-5.839240">
        <ele>1010.854</ele>
        <time>2019-03-26T06:51:45Z</time>
      </trkpt>
      <trkpt lat="42.822990" lon="-5.839820">
        <ele>1008.913</ele>
        <time>2019-03-26T06:52:05Z</time>
      </trkpt>
      <trkpt lat="42.822880" lon="-5.840270">
        <ele>1008.625</ele>
        <time>2019-03-26T06:52:25Z</time>
      </trkpt>
      <trkpt lat="42.822660" lon="-5.840780">
        <ele>1008.563</ele>
        <time>2019-03-26T06:52:45Z</time>
      </trkpt>
      <trkpt lat="42.822135" lon="-5.841425">
        <ele>1010.566</ele>
        <time>2019-03-26T06:53:05Z</time>
      </trkpt>
      <trkpt lat="42.821610" lon="-5.842070">
        <ele>1014.398</ele>
        <time>2019-03-26T06:53:25Z</time>
      </trkpt>
      <trkpt lat="42.821330" lon="-5.842610">
        <ele>1015.231</ele>
        <time>2019-03-26T06:53:45Z</time>
      </trkpt>
      <trkpt lat="42.820940" lon="-5.843600">
        <ele>1016.361</ele>
        <time>2019-03-26T06:54:05Z</time>
      </trkpt>
      <trkpt lat="42.820565" lon="-5.844670">
        <ele>1017.007</ele>
        <time>2019-03-26T06:54:25Z</time>
      </trkpt>
      <trkpt lat="42.820190" lon="-5.845740">
        <ele>1016.608</ele>
        <time>2019-03-26T06:54:45Z</time>
      </trkpt>
      <trkpt lat="42.820190" lon="-5.845990">
        <ele>1016.556</ele>
        <time>2019-03-26T06:55:05Z</time>
      </trkpt>
      <trkpt lat="42.820260" lon="-5.846180">
        <ele>1016.217</ele>
        <time>2019-03-26T06:55:25Z</time>
      </trkpt>
      <trkpt lat="42.820750" lon="-5.846610">
        <ele>1015.148</ele>
        <time>2019-03-26T06:55:45Z</time>
      </trkpt>
      <trkpt lat="42.821320" lon="-5.846840">
        <ele>1015.247</ele>
        <time>2019-03-26T06:56:05Z</time>
      </trkpt>
      <trkpt lat="42.821480" lon="-5.846950">
        <ele>1015.239</ele>
        <time>2019-03-26T06:56:25Z</time>
      </trkpt>
      <trkpt lat="42.821620" lon="-5.847100">
        <ele>1015.937</ele>
        <time>2019-03-26T06:56:45Z</time>
      </trkpt>
      <trkpt lat="42.821820" lon="-5.847410">
        <ele>1016.020</ele>
        <time>2019-03-26T06:57:05Z</time>
      </trkpt>
      <trkpt lat="42.822110" lon="-5.848398">
        <ele>1015.672</ele>
        <time>2019-03-26T06:57:25Z</time>
      </trkpt>
      <trkpt lat="42.822400" lon="-5.849386">
        <ele>1015.653</ele>
        <time>2019-03-26T06:57:45Z</time>
      </trkpt>
      <trkpt lat="42.822690" lon="-5.850374">
        <ele>1015.504</ele>
        <time>2019-03-26T06:58:05Z</time>
      </trkpt>
      <trkpt lat="42.822980" lon="-5.851362">
        <ele>1015.214</ele>
        <time>2019-03-26T06:58:25Z</time>
      </trkpt>
      <trkpt lat="42.823270" lon="-5.852350">
        <ele>1014.508</ele>
        <time>2019-03-26T06:58:45Z</time>
      </trkpt>
      <trkpt lat="42.823557" lon="-5.853083">
        <ele>1014.538</ele>
        <time>2019-03-26T06:59:05Z</time>
      </trkpt>
      <trkpt lat="42.823843" lon="-5.853817">
        <ele>1014.999</ele>
        <time>2019-03-26T06:59:25Z</time>
      </trkpt>
      <trkpt lat="42.824130" lon="-5.854550">
        <ele>1014.970</ele>
        <time>2019-03-26T06:59:45Z</time>
      </trkpt>
      <trkpt lat="42.824420" lon="-5.855260">
        <ele>1015.699</ele>
        <time>2019-03-26T07:00:05Z</time>
      </trkpt>
      <trkpt lat="42.824620" lon="-5.855920">
        <ele>1016.131</ele>
        <time>2019-03-26T07:00:25Z</time>
      </trkpt>
      <trkpt lat="42.824850" lon="-5.856360">
        <ele>1016.319</ele>
        <time>2019-03-26T07:00:45Z</time>
      </trkpt>
      <trkpt lat="42.825020" lon="-5.856640">
        <ele>1016.772</ele>
        <time>2019-03-26T07:01:05Z</time>
      </trkpt>
      <trkpt lat="42.825360" lon="-5.856980">
        <ele>1016.854</ele>
        <time>2019-03-26T07:01:25Z</time>
      </trkpt>
      <trkpt lat="42.825610" lon="-5.857190">
        <ele>1016.552</ele>
        <time>2019-03-26T07:01:45Z</time>
      </trkpt>
      <trkpt lat="42.825850" lon="-5.857490">
        <ele>1016.553</ele>
        <time>2019-03-26T07:02:05Z</time>
      </trkpt>
      <trkpt lat="42.826330" lon="-5.858500">
        <ele>1015.908</ele>
        <time>2019-03-26T07:02:25Z</time>
      </trkpt>
      <trkpt lat="42.826780" lon="-5.859265">
        <ele>1015.608</ele>
        <time>2019-03-26T07:02:45Z</time>
      </trkpt>
      <trkpt lat="42.827230" lon="-5.860030">
        <ele>1016.148</ele>
        <time>2019-03-26T07:03:05Z</time>
      </trkpt>
      <trkpt lat="42.827470" lon="-5.860570">
        <ele>1016.499</ele>
        <time>2019-03-26T07:03:25Z</time>
      </trkpt>
      <trkpt lat="42.827710" lon="-5.861110">
        <ele>1017.080</ele>
        <time>2019-03-26T07:03:45Z</time>
      </trkpt>
      <trkpt lat="42.827850" lon="-5.861500">
        <ele>1017.829</ele>
        <time>2019-03-26T07:04:05Z</time>
      </trkpt>
      <trkpt lat="42.828000" lon="-5.862200">
        <ele>1019.681</ele>
        <time>2019-03-26T07:04:25Z</time>
      </trkpt>
      <trkpt lat="42.828205" lon="-5.863350">
        <ele>1024.179</ele>
        <time>2019-03-26T07:04:45Z</time>
      </trkpt>
      <trkpt lat="42.828410" lon="-5.864500">
        <ele>1025.272</ele>
        <time>2019-03-26T07:05:05Z</time>
      </trkpt>
      <trkpt lat="42.828440" lon="-5.865000">
        <ele>1025.064</ele>
        <time>2019-03-26T07:05:25Z</time>
      </trkpt>
      <trkpt lat="42.828380" lon="-5.865730">
        <ele>1024.617</ele>
        <time>2019-03-26T07:05:45Z</time>
      </trkpt>
      <trkpt lat="42.828240" lon="-5.866410">
        <ele>1024.287</ele>
        <time>2019-03-26T07:06:05Z</time>
      </trkpt>
      <trkpt lat="42.827960" lon="-5.867410">
        <ele>1024.715</ele>
        <time>2019-03-26T07:06:25Z</time>
      </trkpt>
      <trkpt lat="42.827685" lon="-5.868115">
        <ele>1025.508</ele>
        <time>2019-03-26T07:06:45Z</time>
      </trkpt>
      <trkpt lat="42.827410" lon="-5.868820">
        <ele>1026.784</ele>
        <time>2019-03-26T07:07:05Z</time>
      </trkpt>
      <trkpt lat="42.827140" lon="-5.869830">
        <ele>1027.675</ele>
        <time>2019-03-26T07:07:25Z</time>
      </trkpt>
      <trkpt lat="42.827070" lon="-5.870270">
        <ele>1028.576</ele>
        <time>2019-03-26T07:07:45Z</time>
      </trkpt>
      <trkpt lat="42.827080" lon="-5.870630">
        <ele>1028.785</ele>
        <time>2019-03-26T07:08:05Z</time>
      </trkpt>
      <trkpt lat="42.827180" lon="-5.871280">
        <ele>1028.567</ele>
        <time>2019-03-26T07:08:25Z</time>
      </trkpt>
      <trkpt lat="42.827420" lon="-5.871780">
        <ele>1027.665</ele>
        <time>2019-03-26T07:08:45Z</time>
      </trkpt>
      <trkpt lat="42.827600" lon="-5.871920">
        <ele>1026.958</ele>
        <time>2019-03-26T07:09:05Z</time>
      </trkpt>
      <trkpt lat="42.827730" lon="-5.871920">
        <ele>1025.560</ele>
        <time>2019-03-26T07:09:25Z</time>
      </trkpt>
      <trkpt lat="42.827870" lon="-5.871750">
        <ele>1025.291</ele>
        <time>2019-03-26T07:09:45Z</time>
      </trkpt>
      <trkpt lat="42.828020" lon="-5.871470">
        <ele>1024.881</ele>
        <time>2019-03-26T07:10:05Z</time>
      </trkpt>
      <trkpt lat="42.828240" lon="-5.871150">
        <ele>1023.519</ele>
        <time>2019-03-26T07:10:25Z</time>
      </trkpt>
      <trkpt lat="42.828350" lon="-5.871020">
        <ele>1023.308</ele>
        <time>2019-03-26T07:10:45Z</time>
      </trkpt>
      <trkpt lat="42.828920" lon="-5.870130">
        <ele>1022.112</ele>
        <time>2019-03-26T07:11:05Z</time>
      </trkpt>
      <trkpt lat="42.829070" lon="-5.869990">
        <ele>1022.163</ele>
        <time>2019-03-26T07:11:25Z</time>
      </trkpt>
      <trkpt lat="42.829540" lon="-5.869790">
        <ele>1022.454</ele>
        <time>2019-03-26T07:11:45Z</time>
      </trkpt>
      <trkpt lat="42.830330" lon="-5.869530">
        <ele>1022.283</ele>
        <time>2019-03-26T07:12:05Z</time>
      </trkpt>
      <trkpt lat="42.830800" lon="-5.869500">
        <ele>1021.735</ele>
        <time>2019-03-26T07:12:25Z</time>
      </trkpt>
      <trkpt lat="42.831230" lon="-5.869530">
        <ele>1021.493</ele>
        <time>2019-03-26T07:12:45Z</time>
      </trkpt>
      <trkpt lat="42.831890" lon="-5.869640">
        <ele>1021.496</ele>
        <time>2019-03-26T07:13:05Z</time>
      </trkpt>
      <trkpt lat="42.832650" lon="-5.869730">
        <ele>1022.368</ele>
        <time>2019-03-26T07:13:25Z</time>
      </trkpt>
      <trkpt lat="42.833418" lon="-5.869855">
        <ele>1023.975</ele>
        <time>2019-03-26T07:13:45Z</time>
      </trkpt>
      <trkpt lat="42.834185" lon="-5.869980">
        <ele>1024.928</ele>
        <time>2019-03-26T07:14:05Z</time>
      </trkpt>
      <trkpt lat="42.834953" lon="-5.870105">
        <ele>1026.720</ele>
        <time>2019-03-26T07:14:25Z</time>
      </trkpt>
      <trkpt lat="42.835720" lon="-5.870230">
        <ele>1031.308</ele>
        <time>2019-03-26T07:14:45Z</time>
      </trkpt>
      <trkpt lat="42.836010" lon="-5.870260">
        <ele>1033.190</ele>
        <time>2019-03-26T07:15:05Z</time>
      </trkpt>
      <trkpt lat="42.836770" lon="-5.870210">
        <ele>1039.591</ele>
        <time>2019-03-26T07:15:25Z</time>
      </trkpt>
      <trkpt lat="42.836970" lon="-5.870180">
        <ele>1039.952</ele>
        <time>2019-03-26T07:15:45Z</time>
      </trkpt>
      <trkpt lat="42.837530" lon="-5.869950">
        <ele>1044.121</ele>
        <time>2019-03-26T07:16:05Z</time>
      </trkpt>
      <trkpt lat="42.838070" lon="-5.869543">
        <ele>1046.443</ele>
        <time>2019-03-26T07:16:25Z</time>
      </trkpt>
      <trkpt lat="42.838610" lon="-5.869137">
        <ele>1048.551</ele>
        <time>2019-03-26T07:16:45Z</time>
      </trkpt>
      <trkpt lat="42.839150" lon="-5.868730">
        <ele>1051.644</ele>
        <time>2019-03-26T07:17:05Z</time>
      </trkpt>
      <trkpt lat="42.839330" lon="-5.868560">
        <ele>1052.336</ele>
        <time>2019-03-26T07:17:25Z</time>
      </trkpt>
      <trkpt lat="42.839410" lon="-5.868440">
        <ele>1052.399</ele>
        <time>2019-03-26T07:17:45Z</time>
      </trkpt>
      <trkpt lat="42.839410" lon="-5.868450">
        <ele>1052.307</ele>
        <time>2019-03-26T07:18:05Z</time>
      </trkpt>
      <trkpt lat="42.839650" lon="-5.868100">
        <ele>1053.427</ele>
        <time>2019-03-26T07:18:25Z</time>
      </trkpt>
      <trkpt lat="42.839960" lon="-5.867600">
        <ele>1055.308</ele>
        <time>2019-03-26T07:18:45Z</time>
      </trkpt>
      <trkpt lat="42.840080" lon="-5.867320">
        <ele>1056.072</ele>
        <time>2019-03-26T07:19:05Z</time>
      </trkpt>
      <trkpt lat="42.840180" lon="-5.866970">
        <ele>1057.263</ele>
        <time>2019-03-26T07:19:25Z</time>
      </trkpt>
      <trkpt lat="42.840335" lon="-5.865935">
        <ele>1062.394</ele>
        <time>2019-03-26T07:19:45Z</time>
      </trkpt>
      <trkpt lat="42.840490" lon="-5.864900">
        <ele>1067.943</ele>
        <time>2019-03-26T07:20:05Z</time>
      </trkpt>
      <trkpt lat="42.840480" lon="-5.864010">
        <ele>1071.655</ele>
        <time>2019-03-26T07:20:25Z</time>
      </trkpt>
      <trkpt lat="42.840490" lon="-5.863830">
        <ele>1071.613</ele>
        <time>2019-03-26T07:20:45Z</time>
      </trkpt>
      <trkpt lat="42.840520" lon="-5.863680">
        <ele>1073.526</ele>
        <time>2019-03-26T07:21:05Z</time>
      </trkpt>
      <trkpt lat="42.840925" lon="-5.862835">
        <ele>1077.678</ele>
        <time>2019-03-26T07:21:25Z</time>
      </trkpt>
      <trkpt lat="42.841330" lon="-5.861990">
        <ele>1081.649</ele>
        <time>2019-03-26T07:21:45Z</time>
      </trkpt>
      <trkpt lat="42.841410" lon="-5.861850">
        <ele>1082.302</ele>
        <time>2019-03-26T07:22:05Z</time>
      </trkpt>
      <trkpt lat="42.841830" lon="-5.861380">
        <ele>1084.322</ele>
        <time>2019-03-26T07:22:25Z</time>
      </trkpt>
      <trkpt lat="42.842250" lon="-5.860910">
        <ele>1087.308</ele>
        <time>2019-03-26T07:22:45Z</time>
      </trkpt>
      <trkpt lat="42.842350" lon="-5.860750">
        <ele>1087.387</ele>
        <time>2019-03-26T07:23:05Z</time>
      </trkpt>
      <trkpt lat="42.842410" lon="-5.860570">
        <ele>1089.378</ele>
        <time>2019-03-26T07:23:25Z</time>
      </trkpt>
      <trkpt lat="42.842400" lon="-5.860240">
        <ele>1089.669</ele>
        <time>2019-03-26T07:23:45Z</time>
      </trkpt>
      <trkpt lat="42.842240" lon="-5.859530">
        <ele>1090.858</ele>
        <time>2019-03-26T07:24:05Z</time>
      </trkpt>
      <trkpt lat="42.842260" lon="-5.859320">
        <ele>1091.270</ele>
        <time>2019-03-26T07:24:25Z</time>
      </trkpt>
      <trkpt lat="42.842330" lon="-5.859110">
        <ele>1092.218</ele>
        <time>2019-03-26T07:24:45Z</time>
      </trkpt>
      <trkpt lat="42.842450" lon="-5.858970">
        <ele>1093.341</ele>
        <time>2019-03-26T07:25:05Z</time>
      </trkpt>
      <trkpt lat="42.842600" lon="-5.858870">
        <ele>1094.583</ele>
        <time>2019-03-26T07:25:25Z</time>
      </trkpt>
      <trkpt lat="42.842730" lon="-5.858850">
        <ele>1094.836</ele>
        <time>2019-03-26T07:25:45Z</time>
      </trkpt>
      <trkpt lat="42.842870" lon="-5.858870">
        <ele>1095.117</ele>
        <time>2019-03-26T07:26:05Z</time>
      </trkpt>
      <trkpt lat="42.843450" lon="-5.859060">
        <ele>1098.018</ele>
        <time>2019-03-26T07:26:25Z</time>
      </trkpt>
      <trkpt lat="42.843580" lon="-5.859060">
        <ele>1098.008</ele>
        <time>2019-03-26T07:26:45Z</time>
      </trkpt>
      <trkpt lat="42.843790" lon="-5.858970">
        <ele>1100.036</ele>
        <time>2019-03-26T07:27:05Z</time>
      </trkpt>
      <trkpt lat="42.844120" lon="-5.858730">
        <ele>1102.567</ele>
        <time>2019-03-26T07:27:25Z</time>
      </trkpt>
      <trkpt lat="42.844340" lon="-5.858710">
        <ele>1103.318</ele>
        <time>2019-03-26T07:27:45Z</time>
      </trkpt>
      <trkpt lat="42.845000" lon="-5.858745">
        <ele>1104.397</ele>
        <time>2019-03-26T07:28:05Z</time>
      </trkpt>
      <trkpt lat="42.845660" lon="-5.858780">
        <ele>1104.039</ele>
        <time>2019-03-26T07:28:25Z</time>
      </trkpt>
      <trkpt lat="42.845810" lon="-5.858800">
        <ele>1103.747</ele>
        <time>2019-03-26T07:28:45Z</time>
      </trkpt>
      <trkpt lat="42.845980" lon="-5.858850">
        <ele>1103.770</ele>
        <time>2019-03-26T07:29:05Z</time>
      </trkpt>
      <trkpt lat="42.846690" lon="-5.859200">
        <ele>1102.862</ele>
        <time>2019-03-26T07:29:25Z</time>
      </trkpt>
      <trkpt lat="42.847420" lon="-5.859410">
        <ele>1102.721</ele>
        <time>2019-03-26T07:29:45Z</time>
      </trkpt>
      <trkpt lat="42.847620" lon="-5.859440">
        <ele>1102.741</ele>
        <time>2019-03-26T07:30:05Z</time>
      </trkpt>
      <trkpt lat="42.848250" lon="-5.859460">
        <ele>1102.805</ele>
        <time>2019-03-26T07:30:25Z</time>
      </trkpt>
      <trkpt lat="42.848440" lon="-5.859450">
        <ele>1104.908</ele>
        <time>2019-03-26T07:30:45Z</time>
      </trkpt>
      <trkpt lat="42.848540" lon="-5.859420">
        <ele>1105.185</ele>
        <time>2019-03-26T07:31:05Z</time>
      </trkpt>
      <trkpt lat="42.848760" lon="-5.859200">
        <ele>1105.466</ele>
        <time>2019-03-26T07:31:25Z</time>
      </trkpt>
      <trkpt lat="42.848900" lon="-5.858740">
        <ele>1105.977</ele>
        <time>2019-03-26T07:31:45Z</time>
      </trkpt>
      <trkpt lat="42.848980" lon="-5.858400">
        <ele>1106.276</ele>
        <time>2019-03-26T07:32:05Z</time>
      </trkpt>
      <trkpt lat="42.849020" lon="-5.858130">
        <ele>1106.378</ele>
        <time>2019-03-26T07:32:25Z</time>
      </trkpt>
      <trkpt lat="42.848980" lon="-5.857300">
        <ele>1106.376</ele>
        <time>2019-03-26T07:32:45Z</time>
      </trkpt>
      <trkpt lat="42.849020" lon="-5.856370">
        <ele>1107.439</ele>
        <time>2019-03-26T07:33:05Z</time>
      </trkpt>
      <trkpt lat="42.849100" lon="-5.856100">
        <ele>1108.211</ele>
        <time>2019-03-26T07:33:25Z</time>
      </trkpt>
      <trkpt lat="42.849260" lon="-5.855920">
        <ele>1109.581</ele>
        <time>2019-03-26T07:33:45Z</time>
      </trkpt>
      <trkpt lat="42.849420" lon="-5.855800">
        <ele>1110.661</ele>
        <time>2019-03-26T07:34:05Z</time>
      </trkpt>
      <trkpt lat="42.849570" lon="-5.855750">
        <ele>1111.217</ele>
        <time>2019-03-26T07:34:25Z</time>
      </trkpt>
      <trkpt lat="42.849770" lon="-5.855820">
        <ele>1111.508</ele>
        <time>2019-03-26T07:34:45Z</time>
      </trkpt>
      <trkpt lat="42.849950" lon="-5.855970">
        <ele>1111.761</ele>
        <time>2019-03-26T07:35:05Z</time>
      </trkpt>
      <trkpt lat="42.850060" lon="-5.856250">
        <ele>1112.282</ele>
        <time>2019-03-26T07:35:25Z</time>
      </trkpt>
      <trkpt lat="42.850120" lon="-5.856600">
        <ele>1113.033</ele>
        <time>2019-03-26T07:35:45Z</time>
      </trkpt>
      <trkpt lat="42.850140" lon="-5.856930">
        <ele>1114.732</ele>
        <time>2019-03-26T07:36:05Z</time>
      </trkpt>
      <trkpt lat="42.850210" lon="-5.857160">
        <ele>1114.774</ele>
        <time>2019-03-26T07:36:25Z</time>
      </trkpt>
      <trkpt lat="42.850400" lon="-5.857650">
        <ele>1116.972</ele>
        <time>2019-03-26T07:36:45Z</time>
      </trkpt>
      <trkpt lat="42.850720" lon="-5.858220">
        <ele>1119.325</ele>
        <time>2019-03-26T07:37:05Z</time>
      </trkpt>
      <trkpt lat="42.851010" lon="-5.858620">
        <ele>1120.457</ele>
        <time>2019-03-26T07:37:25Z</time>
      </trkpt>
      <trkpt lat="42.851190" lon="-5.858810">
        <ele>1121.768</ele>
        <time>2019-03-26T07:37:45Z</time>
      </trkpt>
      <trkpt lat="42.851350" lon="-5.858940">
        <ele>1122.742</ele>
        <time>2019-03-26T07:38:05Z</time>
      </trkpt>
      <trkpt lat="42.851730" lon="-5.859110">
        <ele>1123.926</ele>
        <time>2019-03-26T07:38:25Z</time>
      </trkpt>
      <trkpt lat="42.851870" lon="-5.859220">
        <ele>1125.208</ele>
        <time>2019-03-26T07:38:45Z</time>
      </trkpt>
      <trkpt lat="42.851980" lon="-5.859420">
        <ele>1125.689</ele>
        <time>2019-03-26T07:39:05Z</time>
      </trkpt>
      <trkpt lat="42.852160" lon="-5.860140">
        <ele>1127.190</ele>
        <time>2019-03-26T07:39:25Z</time>
      </trkpt>
      <trkpt lat="42.852250" lon="-5.860330">
        <ele>1127.451</ele>
        <time>2019-03-26T07:39:45Z</time>
      </trkpt>
      <trkpt lat="42.852400" lon="-5.860540">
        <ele>1127.840</ele>
        <time>2019-03-26T07:40:05Z</time>
      </trkpt>
      <trkpt lat="42.852755" lon="-5.860965">
        <ele>1129.132</ele>
        <time>2019-03-26T07:40:25Z</time>
      </trkpt>
      <trkpt lat="42.853110" lon="-5.861390">
        <ele>1130.150</ele>
        <time>2019-03-26T07:40:45Z</time>
      </trkpt>
      <trkpt lat="42.853580" lon="-5.861780">
        <ele>1132.433</ele>
        <time>2019-03-26T07:41:05Z</time>
      </trkpt>
      <trkpt lat="42.853840" lon="-5.861970">
        <ele>1133.145</ele>
        <time>2019-03-26T07:41:25Z</time>
      </trkpt>
      <trkpt lat="42.854090" lon="-5.862060">
        <ele>1134.425</ele>
        <time>2019-03-26T07:41:45Z</time>
      </trkpt>
      <trkpt lat="42.854250" lon="-5.862090">
        <ele>1135.026</ele>
        <time>2019-03-26T07:42:05Z</time>
      </trkpt>
      <trkpt lat="42.854865" lon="-5.862055">
        <ele>1136.508</ele>
        <time>2019-03-26T07:42:25Z</time>
      </trkpt>
      <trkpt lat="42.855480" lon="-5.862020">
        <ele>1138.308</ele>
        <time>2019-03-26T07:42:45Z</time>
      </trkpt>
      <trkpt lat="42.855740" lon="-5.861880">
        <ele>1139.595</ele>
        <time>2019-03-26T07:43:05Z</time>
      </trkpt>
      <trkpt lat="42.856200" lon="-5.861525">
        <ele>1140.736</ele>
        <time>2019-03-26T07:43:25Z</time>
      </trkpt>
      <trkpt lat="42.856660" lon="-5.861170">
        <ele>1141.867</ele>
        <time>2019-03-26T07:43:45Z</time>
      </trkpt>
      <trkpt lat="42.857260" lon="-5.860430">
        <ele>1144.556</ele>
        <time>2019-03-26T07:44:05Z</time>
      </trkpt>
      <trkpt lat="42.857340" lon="-5.860330">
        <ele>1144.828</ele>
        <time>2019-03-26T07:44:25Z</time>
      </trkpt>
      <trkpt lat="42.857530" lon="-5.860160">
        <ele>1145.446</ele>
        <time>2019-03-26T07:44:45Z</time>
      </trkpt>
      <trkpt lat="42.857990" lon="-5.859830">
        <ele>1146.569</ele>
        <time>2019-03-26T07:45:05Z</time>
      </trkpt>
      <trkpt lat="42.858220" lon="-5.859690">
        <ele>1146.641</ele>
        <time>2019-03-26T07:45:25Z</time>
      </trkpt>
      <trkpt lat="42.858530" lon="-5.859760">
        <ele>1146.559</ele>
        <time>2019-03-26T07:45:45Z</time>
      </trkpt>
      <trkpt lat="42.858660" lon="-5.859860">
        <ele>1146.203</ele>
        <time>2019-03-26T07:46:05Z</time>
      </trkpt>
      <trkpt lat="42.859120" lon="-5.860610">
        <ele>1144.223</ele>
        <time>2019-03-26T07:46:25Z</time>
      </trkpt>
      <trkpt lat="42.859200" lon="-5.860800">
        <ele>1143.608</ele>
        <time>2019-03-26T07:46:45Z</time>
      </trkpt>
      <trkpt lat="42.859240" lon="-5.861010">
        <ele>1141.588</ele>
        <time>2019-03-26T07:47:05Z</time>
      </trkpt>
      <trkpt lat="42.859210" lon="-5.861810">
        <ele>1139.249</ele>
        <time>2019-03-26T07:47:25Z</time>
      </trkpt>
      <trkpt lat="42.859180" lon="-5.862610">
        <ele>1134.390</ele>
        <time>2019-03-26T07:47:45Z</time>
      </trkpt>
      <trkpt lat="42.859220" lon="-5.862810">
        <ele>1134.329</ele>
        <time>2019-03-26T07:48:05Z</time>
      </trkpt>
      <trkpt lat="42.859340" lon="-5.863000">
        <ele>1132.721</ele>
        <time>2019-03-26T07:48:25Z</time>
      </trkpt>
      <trkpt lat="42.859450" lon="-5.863120">
        <ele>1132.749</ele>
        <time>2019-03-26T07:48:45Z</time>
      </trkpt>
      <trkpt lat="42.859720" lon="-5.863290">
        <ele>1131.052</ele>
        <time>2019-03-26T07:49:05Z</time>
      </trkpt>
      <trkpt lat="42.859840" lon="-5.863400">
        <ele>1130.144</ele>
        <time>2019-03-26T07:49:25Z</time>
      </trkpt>
      <trkpt lat="42.860170" lon="-5.863865">
        <ele>1126.434</ele>
        <time>2019-03-26T07:49:45Z</time>
      </trkpt>
      <trkpt lat="42.860500" lon="-5.864330">
        <ele>1123.755</ele>
        <time>2019-03-26T07:50:05Z</time>
      </trkpt>
      <trkpt lat="42.860960" lon="-5.865040">
        <ele>1104.810</ele>
        <time>2019-03-26T07:50:25Z</time>
      </trkpt>
      <trkpt lat="42.861280" lon="-5.865420">
        <ele>1104.208</ele>
        <time>2019-03-26T07:50:45Z</time>
      </trkpt>
      <trkpt lat="42.861540" lon="-5.865610">
        <ele>1104.086</ele>
        <time>2019-03-26T07:51:05Z</time>
      </trkpt>
      <trkpt lat="42.861670" lon="-5.865680">
        <ele>1103.917</ele>
        <time>2019-03-26T07:51:25Z</time>
      </trkpt>
      <trkpt lat="42.861840" lon="-5.865700">
        <ele>1104.198</ele>
        <time>2019-03-26T07:51:45Z</time>
      </trkpt>
      <trkpt lat="42.861970" lon="-5.865660">
        <ele>1104.687</ele>
        <time>2019-03-26T07:52:05Z</time>
      </trkpt>
      <trkpt lat="42.862100" lon="-5.865540">
        <ele>1105.229</ele>
        <time>2019-03-26T07:52:25Z</time>
      </trkpt>
      <trkpt lat="42.862210" lon="-5.865370">
        <ele>1106.047</ele>
        <time>2019-03-26T07:52:45Z</time>
      </trkpt>
      <trkpt lat="42.862290" lon="-5.865180">
        <ele>1107.050</ele>
        <time>2019-03-26T07:53:05Z</time>
      </trkpt>
      <trkpt lat="42.862420" lon="-5.864360">
        <ele>1113.232</ele>
        <time>2019-03-26T07:53:25Z</time>
      </trkpt>
      <trkpt lat="42.862480" lon="-5.864130">
        <ele>1115.848</ele>
        <time>2019-03-26T07:53:45Z</time>
      </trkpt>
      <trkpt lat="42.862600" lon="-5.863940">
        <ele>1115.861</ele>
        <time>2019-03-26T07:54:05Z</time>
      </trkpt>
      <trkpt lat="42.862810" lon="-5.863750">
        <ele>1118.917</ele>
        <time>2019-03-26T07:54:25Z</time>
      </trkpt>
      <trkpt lat="42.863150" lon="-5.863560">
        <ele>1121.008</ele>
        <time>2019-03-26T07:54:45Z</time>
      </trkpt>
      <trkpt lat="42.863650" lon="-5.863380">
        <ele>1126.227</ele>
        <time>2019-03-26T07:55:05Z</time>
      </trkpt>
      <trkpt lat="42.864190" lon="-5.863260">
        <ele>1129.878</ele>
        <time>2019-03-26T07:55:25Z</time>
      </trkpt>
      <trkpt lat="42.864340" lon="-5.863140">
        <ele>1131.449</ele>
        <time>2019-03-26T07:55:45Z</time>
      </trkpt>
      <trkpt lat="42.864980" lon="-5.862560">
        <ele>1133.798</ele>
        <time>2019-03-26T07:56:05Z</time>
      </trkpt>
      <trkpt lat="42.865290" lon="-5.862330">
        <ele>1133.910</ele>
        <time>2019-03-26T07:56:25Z</time>
      </trkpt>
      <trkpt lat="42.865520" lon="-5.861950">
        <ele>1133.128</ele>
        <time>2019-03-26T07:56:45Z</time>
      </trkpt>
      <trkpt lat="42.865770" lon="-5.861460">
        <ele>1131.571</ele>
        <time>2019-03-26T07:57:05Z</time>
      </trkpt>
      <trkpt lat="42.866080" lon="-5.861110">
        <ele>1130.353</ele>
        <time>2019-03-26T07:57:25Z</time>
      </trkpt>
      <trkpt lat="42.866485" lon="-5.860825">
        <ele>1127.642</ele>
        <time>2019-03-26T07:57:45Z</time>
      </trkpt>
      <trkpt lat="42.866890" lon="-5.860540">
        <ele>1126.322</ele>
        <time>2019-03-26T07:58:05Z</time>
      </trkpt>
      <trkpt lat="42.867330" lon="-5.860120">
        <ele>1124.514</ele>
        <time>2019-03-26T07:58:25Z</time>
      </trkpt>
      <trkpt lat="42.867460" lon="-5.859950">
        <ele>1124.508</ele>
        <time>2019-03-26T07:58:45Z</time>
      </trkpt>
      <trkpt lat="42.867570" lon="-5.859720">
        <ele>1124.127</ele>
        <time>2019-03-26T07:59:05Z</time>
      </trkpt>
      <trkpt lat="42.867820" lon="-5.859010">
        <ele>1121.628</ele>
        <time>2019-03-26T07:59:25Z</time>
      </trkpt>
      <trkpt lat="42.867890" lon="-5.858750">
        <ele>1121.399</ele>
        <time>2019-03-26T07:59:45Z</time>
      </trkpt>
      <trkpt lat="42.867880" lon="-5.858430">
        <ele>1120.628</ele>
        <time>2019-03-26T08:00:05Z</time>
      </trkpt>
      <trkpt lat="42.867740" lon="-5.857550">
        <ele>1119.120</ele>
        <time>2019-03-26T08:00:25Z</time>
      </trkpt>
      <trkpt lat="42.867670" lon="-5.856950">
        <ele>1117.318</ele>
        <time>2019-03-26T08:00:45Z</time>
      </trkpt>
      <trkpt lat="42.867710" lon="-5.856600">
        <ele>1116.321</ele>
        <time>2019-03-26T08:01:05Z</time>
      </trkpt>
      <trkpt lat="42.867850" lon="-5.856360">
        <ele>1115.813</ele>
        <time>2019-03-26T08:01:25Z</time>
      </trkpt>
      <trkpt lat="42.868090" lon="-5.856220">
        <ele>1115.424</ele>
        <time>2019-03-26T08:01:45Z</time>
      </trkpt>
      <trkpt lat="42.868270" lon="-5.856200">
        <ele>1115.204</ele>
        <time>2019-03-26T08:02:05Z</time>
      </trkpt>
      <trkpt lat="42.868430" lon="-5.856230">
        <ele>1115.014</ele>
        <time>2019-03-26T08:02:25Z</time>
      </trkpt>
      <trkpt lat="42.869180" lon="-5.856685">
        <ele>1115.408</ele>
        <time>2019-03-26T08:02:45Z</time>
      </trkpt>
      <trkpt lat="42.869930" lon="-5.857140">
        <ele>1118.075</ele>
        <time>2019-03-26T08:03:05Z</time>
      </trkpt>
      <trkpt lat="42.870120" lon="-5.857210">
        <ele>1118.296</ele>
        <time>2019-03-26T08:03:25Z</time>
      </trkpt>
      <trkpt lat="42.870290" lon="-5.857180">
        <ele>1118.637</ele>
        <time>2019-03-26T08:03:45Z</time>
      </trkpt>
      <trkpt lat="42.870440" lon="-5.857090">
        <ele>1119.156</ele>
        <time>2019-03-26T08:04:05Z</time>
      </trkpt>
      <trkpt lat="42.870570" lon="-5.856930">
        <ele>1119.898</ele>
        <time>2019-03-26T08:04:25Z</time>
      </trkpt>
      <trkpt lat="42.871060" lon="-5.855960">
        <ele>1124.126</ele>
        <time>2019-03-26T08:04:45Z</time>
      </trkpt>
      <trkpt lat="42.871100" lon="-5.855780">
        <ele>1124.149</ele>
        <time>2019-03-26T08:05:05Z</time>
      </trkpt>
      <trkpt lat="42.871110" lon="-5.855540">
        <ele>1125.231</ele>
        <time>2019-03-26T08:05:25Z</time>
      </trkpt>
      <trkpt lat="42.871090" lon="-5.854950">
        <ele>1126.631</ele>
        <time>2019-03-26T08:05:45Z</time>
      </trkpt>
      <trkpt lat="42.871120" lon="-5.854700">
        <ele>1127.061</ele>
        <time>2019-03-26T08:06:05Z</time>
      </trkpt>
      <trkpt lat="42.871200" lon="-5.854510">
        <ele>1127.307</ele>
        <time>2019-03-26T08:06:25Z</time>
      </trkpt>
      <trkpt lat="42.871320" lon="-5.854340">
        <ele>1127.408</ele>
        <time>2019-03-26T08:06:45Z</time>
      </trkpt>
      <trkpt lat="42.871480" lon="-5.854230">
        <ele>1127.776</ele>
        <time>2019-03-26T08:07:05Z</time>
      </trkpt>
      <trkpt lat="42.872070" lon="-5.853990">
        <ele>1128.077</ele>
        <time>2019-03-26T08:07:25Z</time>
      </trkpt>
      <trkpt lat="42.872230" lon="-5.853880">
        <ele>1128.068</ele>
        <time>2019-03-26T08:07:45Z</time>
      </trkpt>
      <trkpt lat="42.872340" lon="-5.853730">
        <ele>1128.057</ele>
        <time>2019-03-26T08:08:05Z</time>
      </trkpt>
      <trkpt lat="42.872410" lon="-5.853590">
        <ele>1127.829</ele>
        <time>2019-03-26T08:08:25Z</time>
      </trkpt>
      <trkpt lat="42.872540" lon="-5.853050">
        <ele>1127.157</ele>
        <time>2019-03-26T08:08:45Z</time>
      </trkpt>
      <trkpt lat="42.872610" lon="-5.852870">
        <ele>1126.870</ele>
        <time>2019-03-26T08:09:05Z</time>
      </trkpt>
      <trkpt lat="42.872680" lon="-5.852750">
        <ele>1126.052</ele>
        <time>2019-03-26T08:09:25Z</time>
      </trkpt>
      <trkpt lat="42.873270" lon="-5.852310">
        <ele>1124.492</ele>
        <time>2019-03-26T08:09:45Z</time>
      </trkpt>
      <trkpt lat="42.873390" lon="-5.852260">
        <ele>1124.473</ele>
        <time>2019-03-26T08:10:05Z</time>
      </trkpt>
      <trkpt lat="42.873590" lon="-5.852280">
        <ele>1122.720</ele>
        <time>2019-03-26T08:10:25Z</time>
      </trkpt>
      <trkpt lat="42.873770" lon="-5.852400">
        <ele>1122.708</ele>
        <time>2019-03-26T08:10:45Z</time>
      </trkpt>
      <trkpt lat="42.874420" lon="-5.853165">
        <ele>1119.582</ele>
        <time>2019-03-26T08:11:05Z</time>
      </trkpt>
      <trkpt lat="42.875070" lon="-5.853930">
        <ele>1120.763</ele>
        <time>2019-03-26T08:11:25Z</time>
      </trkpt>
      <trkpt lat="42.875230" lon="-5.854300">
        <ele>1123.194</ele>
        <time>2019-03-26T08:11:45Z</time>
      </trkpt>
      <trkpt lat="42.875320" lon="-5.854750">
        <ele>1126.353</ele>
        <time>2019-03-26T08:12:05Z</time>
      </trkpt>
      <trkpt lat="42.875340" lon="-5.855150">
        <ele>1127.695</ele>
        <time>2019-03-26T08:12:25Z</time>
      </trkpt>
      <trkpt lat="42.875357" lon="-5.856007">
        <ele>1129.213</ele>
        <time>2019-03-26T08:12:45Z</time>
      </trkpt>
      <trkpt lat="42.875373" lon="-5.856863">
        <ele>1131.096</ele>
        <time>2019-03-26T08:13:05Z</time>
      </trkpt>
      <trkpt lat="42.875390" lon="-5.857720">
        <ele>1131.998</ele>
        <time>2019-03-26T08:13:25Z</time>
      </trkpt>
      <trkpt lat="42.875380" lon="-5.858030">
        <ele>1132.123</ele>
        <time>2019-03-26T08:13:45Z</time>
      </trkpt>
      <trkpt lat="42.875245" lon="-5.859000">
        <ele>1132.783</ele>
        <time>2019-03-26T08:14:05Z</time>
      </trkpt>
      <trkpt lat="42.875110" lon="-5.859970">
        <ele>1132.711</ele>
        <time>2019-03-26T08:14:25Z</time>
      </trkpt>
      <trkpt lat="42.874965" lon="-5.860655">
        <ele>1132.708</ele>
        <time>2019-03-26T08:14:45Z</time>
      </trkpt>
      <trkpt lat="42.874820" lon="-5.861340">
        <ele>1133.615</ele>
        <time>2019-03-26T08:15:05Z</time>
      </trkpt>
      <trkpt lat="42.874760" lon="-5.861710">
        <ele>1133.836</ele>
        <time>2019-03-26T08:15:25Z</time>
      </trkpt>
      <trkpt lat="42.874665" lon="-5.862615">
        <ele>1134.167</ele>
        <time>2019-03-26T08:15:45Z</time>
      </trkpt>
      <trkpt lat="42.874570" lon="-5.863520">
        <ele>1134.066</ele>
        <time>2019-03-26T08:16:05Z</time>
      </trkpt>
      <trkpt lat="42.874540" lon="-5.864660">
        <ele>1134.058</ele>
        <time>2019-03-26T08:16:25Z</time>
      </trkpt>
      <trkpt lat="42.874540" lon="-5.864670">
        <ele>1134.086</ele>
        <time>2019-03-26T08:16:45Z</time>
      </trkpt>
      <trkpt lat="42.874540" lon="-5.865000">
        <ele>1134.099</ele>
        <time>2019-03-26T08:17:05Z</time>
      </trkpt>
      <trkpt lat="42.874580" lon="-5.865230">
        <ele>1133.931</ele>
        <time>2019-03-26T08:17:25Z</time>
      </trkpt>
      <trkpt lat="42.874660" lon="-5.865420">
        <ele>1133.847</ele>
        <time>2019-03-26T08:17:45Z</time>
      </trkpt>
      <trkpt lat="42.875110" lon="-5.866100">
        <ele>1134.229</ele>
        <time>2019-03-26T08:18:05Z</time>
      </trkpt>
      <trkpt lat="42.875560" lon="-5.866780">
        <ele>1135.621</ele>
        <time>2019-03-26T08:18:25Z</time>
      </trkpt>
      <trkpt lat="42.875930" lon="-5.867080">
        <ele>1136.408</ele>
        <time>2019-03-26T08:18:45Z</time>
      </trkpt>
      <trkpt lat="42.876130" lon="-5.867130">
        <ele>1136.487</ele>
        <time>2019-03-26T08:19:05Z</time>
      </trkpt>
      <trkpt lat="42.876330" lon="-5.867110">
        <ele>1136.648</ele>
        <time>2019-03-26T08:19:25Z</time>
      </trkpt>
      <trkpt lat="42.876510" lon="-5.867040">
        <ele>1136.859</ele>
        <time>2019-03-26T08:19:45Z</time>
      </trkpt>
      <trkpt lat="42.876860" lon="-5.866710">
        <ele>1137.778</ele>
        <time>2019-03-26T08:20:05Z</time>
      </trkpt>
      <trkpt lat="42.876970" lon="-5.866500">
        <ele>1138.180</ele>
        <time>2019-03-26T08:20:25Z</time>
      </trkpt>
      <trkpt lat="42.877225" lon="-5.865915">
        <ele>1140.388</ele>
        <time>2019-03-26T08:20:45Z</time>
      </trkpt>
      <trkpt lat="42.877480" lon="-5.865330">
        <ele>1141.741</ele>
        <time>2019-03-26T08:21:05Z</time>
      </trkpt>
      <trkpt lat="42.877630" lon="-5.865090">
        <ele>1143.333</ele>
        <time>2019-03-26T08:21:25Z</time>
      </trkpt>
      <trkpt lat="42.877820" lon="-5.864950">
        <ele>1143.953</ele>
        <time>2019-03-26T08:21:45Z</time>
      </trkpt>
      <trkpt lat="42.877980" lon="-5.864950">
        <ele>1144.604</ele>
        <time>2019-03-26T08:22:05Z</time>
      </trkpt>
      <trkpt lat="42.878150" lon="-5.865000">
        <ele>1145.314</ele>
        <time>2019-03-26T08:22:25Z</time>
      </trkpt>
      <trkpt lat="42.878300" lon="-5.865160">
        <ele>1145.308</ele>
        <time>2019-03-26T08:22:45Z</time>
      </trkpt>
      <trkpt lat="42.878420" lon="-5.865390">
        <ele>1146.398</ele>
        <time>2019-03-26T08:23:05Z</time>
      </trkpt>
      <trkpt lat="42.878660" lon="-5.865990">
        <ele>1147.069</ele>
        <time>2019-03-26T08:23:25Z</time>
      </trkpt>
      <trkpt lat="42.879035" lon="-5.866805">
        <ele>1149.460</ele>
        <time>2019-03-26T08:23:45Z</time>
      </trkpt>
      <trkpt lat="42.879410" lon="-5.867620">
        <ele>1153.099</ele>
        <time>2019-03-26T08:24:05Z</time>
      </trkpt>
      <trkpt lat="42.879820" lon="-5.868280">
        <ele>1154.791</ele>
        <time>2019-03-26T08:24:25Z</time>
      </trkpt>
      <trkpt lat="42.879960" lon="-5.868380">
        <ele>1155.099</ele>
        <time>2019-03-26T08:24:45Z</time>
      </trkpt>
      <trkpt lat="42.880090" lon="-5.868420">
        <ele>1155.182</ele>
        <time>2019-03-26T08:25:05Z</time>
      </trkpt>
      <trkpt lat="42.880220" lon="-5.868380">
        <ele>1155.254</ele>
        <time>2019-03-26T08:25:25Z</time>
      </trkpt>
      <trkpt lat="42.880360" lon="-5.868280">
        <ele>1155.299</ele>
        <time>2019-03-26T08:25:45Z</time>
      </trkpt>
      <trkpt lat="42.880470" lon="-5.868120">
        <ele>1155.207</ele>
        <time>2019-03-26T08:26:05Z</time>
      </trkpt>
      <trkpt lat="42.880570" lon="-5.867900">
        <ele>1154.927</ele>
        <time>2019-03-26T08:26:25Z</time>
      </trkpt>
      <trkpt lat="42.880800" lon="-5.867280">
        <ele>1152.608</ele>
        <time>2019-03-26T08:26:45Z</time>
      </trkpt>
      <trkpt lat="42.881030" lon="-5.866660">
        <ele>1150.472</ele>
        <time>2019-03-26T08:27:05Z</time>
      </trkpt>
      <trkpt lat="42.881190" lon="-5.866030">
        <ele>1147.023</ele>
        <time>2019-03-26T08:27:25Z</time>
      </trkpt>
      <trkpt lat="42.881380" lon="-5.864880">
        <ele>1143.584</ele>
        <time>2019-03-26T08:27:45Z</time>
      </trkpt>
      <trkpt lat="42.881410" lon="-5.864460">
        <ele>1142.223</ele>
        <time>2019-03-26T08:28:05Z</time>
      </trkpt>
      <trkpt lat="42.881420" lon="-5.863630">
        <ele>1137.425</ele>
        <time>2019-03-26T08:28:25Z</time>
      </trkpt>
      <trkpt lat="42.881450" lon="-5.863430">
        <ele>1136.323</ele>
        <time>2019-03-26T08:28:45Z</time>
      </trkpt>
      <trkpt lat="42.881520" lon="-5.863280">
        <ele>1135.246</ele>
        <time>2019-03-26T08:29:05Z</time>
      </trkpt>
      <trkpt lat="42.881620" lon="-5.863150">
        <ele>1134.058</ele>
        <time>2019-03-26T08:29:25Z</time>
      </trkpt>
      <trkpt lat="42.881830" lon="-5.863050">
        <ele>1130.543</ele>
        <time>2019-03-26T08:29:45Z</time>
      </trkpt>
      <trkpt lat="42.881980" lon="-5.863020">
        <ele>1129.464</ele>
        <time>2019-03-26T08:30:05Z</time>
      </trkpt>
      <trkpt lat="42.882120" lon="-5.863050">
        <ele>1128.510</ele>
        <time>2019-03-26T08:30:25Z</time>
      </trkpt>
      <trkpt lat="42.882740" lon="-5.863470">
        <ele>1125.308</ele>
        <time>2019-03-26T08:30:45Z</time>
      </trkpt>
      <trkpt lat="42.882880" lon="-5.863540">
        <ele>1125.177</ele>
        <time>2019-03-26T08:31:05Z</time>
      </trkpt>
      <trkpt lat="42.883660" lon="-5.863700">
        <ele>1122.548</ele>
        <time>2019-03-26T08:31:25Z</time>
      </trkpt>
      <trkpt lat="42.883780" lon="-5.863770">
        <ele>1122.129</ele>
        <time>2019-03-26T08:31:45Z</time>
      </trkpt>
      <trkpt lat="42.883880" lon="-5.863890">
        <ele>1122.678</ele>
        <time>2019-03-26T08:32:05Z</time>
      </trkpt>
      <trkpt lat="42.883970" lon="-5.864080">
        <ele>1122.980</ele>
        <time>2019-03-26T08:32:25Z</time>
      </trkpt>
      <trkpt lat="42.884030" lon="-5.864340">
        <ele>1123.778</ele>
        <time>2019-03-26T08:32:45Z</time>
      </trkpt>
      <trkpt lat="42.884160" lon="-5.865230">
        <ele>1125.281</ele>
        <time>2019-03-26T08:33:05Z</time>
      </trkpt>
      <trkpt lat="42.884390" lon="-5.865930">
        <ele>1126.223</ele>
        <time>2019-03-26T08:33:25Z</time>
      </trkpt>
      <trkpt lat="42.884470" lon="-5.866310">
        <ele>1127.048</ele>
        <time>2019-03-26T08:33:45Z</time>
      </trkpt>
      <trkpt lat="42.884610" lon="-5.867250">
        <ele>1128.761</ele>
        <time>2019-03-26T08:34:05Z</time>
      </trkpt>
      <trkpt lat="42.884680" lon="-5.867510">
        <ele>1129.117</ele>
        <time>2019-03-26T08:34:25Z</time>
      </trkpt>
      <trkpt lat="42.884790" lon="-5.867700">
        <ele>1129.708</ele>
        <time>2019-03-26T08:34:45Z</time>
      </trkpt>
      <trkpt lat="42.885070" lon="-5.867880">
        <ele>1129.727</ele>
        <time>2019-03-26T08:35:05Z</time>
      </trkpt>
      <trkpt lat="42.885180" lon="-5.867880">
        <ele>1129.418</ele>
        <time>2019-03-26T08:35:25Z</time>
      </trkpt>
      <trkpt lat="42.885310" lon="-5.867810">
        <ele>1128.889</ele>
        <time>2019-03-26T08:35:45Z</time>
      </trkpt>
      <trkpt lat="42.885700" lon="-5.867460">
        <ele>1124.598</ele>
        <time>2019-03-26T08:36:05Z</time>
      </trkpt>
      <trkpt lat="42.885840" lon="-5.867390">
        <ele>1124.530</ele>
        <time>2019-03-26T08:36:25Z</time>
      </trkpt>
      <trkpt lat="42.885980" lon="-5.867350">
        <ele>1123.138</ele>
        <time>2019-03-26T08:36:45Z</time>
      </trkpt>
      <trkpt lat="42.886140" lon="-5.867390">
        <ele>1122.291</ele>
        <time>2019-03-26T08:37:05Z</time>
      </trkpt>
      <trkpt lat="42.886280" lon="-5.867460">
        <ele>1121.053</ele>
        <time>2019-03-26T08:37:25Z</time>
      </trkpt>
      <trkpt lat="42.886320" lon="-5.867510">
        <ele>1121.041</ele>
        <time>2019-03-26T08:37:45Z</time>
      </trkpt>
      <trkpt lat="42.886420" lon="-5.867620">
        <ele>1121.081</ele>
        <time>2019-03-26T08:38:05Z</time>
      </trkpt>
      <trkpt lat="42.886500" lon="-5.867840">
        <ele>1123.809</ele>
        <time>2019-03-26T08:38:25Z</time>
      </trkpt>
      <trkpt lat="42.886600" lon="-5.868350">
        <ele>1126.008</ele>
        <time>2019-03-26T08:38:45Z</time>
      </trkpt>
      <trkpt lat="42.886610" lon="-5.868840">
        <ele>1130.797</ele>
        <time>2019-03-26T08:39:05Z</time>
      </trkpt>
      <trkpt lat="42.886525" lon="-5.869920">
        <ele>1133.098</ele>
        <time>2019-03-26T08:39:25Z</time>
      </trkpt>
      <trkpt lat="42.886440" lon="-5.871000">
        <ele>1133.059</ele>
        <time>2019-03-26T08:39:45Z</time>
      </trkpt>
      <trkpt lat="42.886440" lon="-5.871260">
        <ele>1132.418</ele>
        <time>2019-03-26T08:40:05Z</time>
      </trkpt>
      <trkpt lat="42.886470" lon="-5.871520">
        <ele>1132.420</ele>
        <time>2019-03-26T08:40:25Z</time>
      </trkpt>
      <trkpt lat="42.886560" lon="-5.871780">
        <ele>1133.578</ele>
        <time>2019-03-26T08:40:45Z</time>
      </trkpt>
      <trkpt lat="42.886860" lon="-5.872290">
        <ele>1134.091</ele>
        <time>2019-03-26T08:41:05Z</time>
      </trkpt>
      <trkpt lat="42.887240" lon="-5.873190">
        <ele>1130.923</ele>
        <time>2019-03-26T08:41:25Z</time>
      </trkpt>
      <trkpt lat="42.887330" lon="-5.873370">
        <ele>1130.129</ele>
        <time>2019-03-26T08:41:45Z</time>
      </trkpt>
      <trkpt lat="42.887480" lon="-5.873510">
        <ele>1129.800</ele>
        <time>2019-03-26T08:42:05Z</time>
      </trkpt>
      <trkpt lat="42.887880" lon="-5.873800">
        <ele>1128.620</ele>
        <time>2019-03-26T08:42:25Z</time>
      </trkpt>
      <trkpt lat="42.888010" lon="-5.873980">
        <ele>1128.408</ele>
        <time>2019-03-26T08:42:45Z</time>
      </trkpt>
      <trkpt lat="42.888150" lon="-5.874330">
        <ele>1128.685</ele>
        <time>2019-03-26T08:43:05Z</time>
      </trkpt>
      <trkpt lat="42.888230" lon="-5.874660">
        <ele>1129.346</ele>
        <time>2019-03-26T08:43:25Z</time>
      </trkpt>
      <trkpt lat="42.888210" lon="-5.874970">
        <ele>1130.027</ele>
        <time>2019-03-26T08:43:45Z</time>
      </trkpt>
      <trkpt lat="42.888140" lon="-5.875230">
        <ele>1129.526</ele>
        <time>2019-03-26T08:44:05Z</time>
      </trkpt>
      <trkpt lat="42.887820" lon="-5.876120">
        <ele>1129.478</ele>
        <time>2019-03-26T08:44:25Z</time>
      </trkpt>
      <trkpt lat="42.887770" lon="-5.876540">
        <ele>1129.866</ele>
        <time>2019-03-26T08:44:45Z</time>
      </trkpt>
      <trkpt lat="42.887770" lon="-5.876870">
        <ele>1129.869</ele>
        <time>2019-03-26T08:45:05Z</time>
      </trkpt>
      <trkpt lat="42.887860" lon="-5.877760">
        <ele>1129.011</ele>
        <time>2019-03-26T08:45:25Z</time>
      </trkpt>
      <trkpt lat="42.887860" lon="-5.877970">
        <ele>1129.152</ele>
        <time>2019-03-26T08:45:45Z</time>
      </trkpt>
      <trkpt lat="42.887730" lon="-5.878980">
        <ele>1132.453</ele>
        <time>2019-03-26T08:46:05Z</time>
      </trkpt>
      <trkpt lat="42.887795" lon="-5.880000">
        <ele>1136.508</ele>
        <time>2019-03-26T08:46:25Z</time>
      </trkpt>
      <trkpt lat="42.887860" lon="-5.881020">
        <ele>1138.408</ele>
        <time>2019-03-26T08:46:45Z</time>
      </trkpt>
      <trkpt lat="42.887930" lon="-5.881190">
        <ele>1139.158</ele>
        <time>2019-03-26T08:47:05Z</time>
      </trkpt>
      <trkpt lat="42.888100" lon="-5.881390">
        <ele>1140.569</ele>
        <time>2019-03-26T08:47:25Z</time>
      </trkpt>
      <trkpt lat="42.888300" lon="-5.881540">
        <ele>1141.140</ele>
        <time>2019-03-26T08:47:45Z</time>
      </trkpt>
      <trkpt lat="42.888460" lon="-5.881610">
        <ele>1141.779</ele>
        <time>2019-03-26T08:48:05Z</time>
      </trkpt>
      <trkpt lat="42.888660" lon="-5.881650">
        <ele>1141.711</ele>
        <time>2019-03-26T08:48:25Z</time>
      </trkpt>
      <trkpt lat="42.889470" lon="-5.881700">
        <ele>1141.429</ele>
        <time>2019-03-26T08:48:45Z</time>
      </trkpt>
      <trkpt lat="42.889840" lon="-5.881820">
        <ele>1141.682</ele>
        <time>2019-03-26T08:49:05Z</time>
      </trkpt>
      <trkpt lat="42.890230" lon="-5.881980">
        <ele>1141.184</ele>
        <time>2019-03-26T08:49:25Z</time>
      </trkpt>
      <trkpt lat="42.890430" lon="-5.881960">
        <ele>1140.732</ele>
        <time>2019-03-26T08:49:45Z</time>
      </trkpt>
      <trkpt lat="42.891230" lon="-5.881990">
        <ele>1140.692</ele>
        <time>2019-03-26T08:50:05Z</time>
      </trkpt>
      <trkpt lat="42.891370" lon="-5.881980">
        <ele>1140.611</ele>
        <time>2019-03-26T08:50:25Z</time>
      </trkpt>
      <trkpt lat="42.891740" lon="-5.881800">
        <ele>1140.408</ele>
        <time>2019-03-26T08:50:45Z</time>
      </trkpt>
      <trkpt lat="42.891960" lon="-5.881750">
        <ele>1140.176</ele>
        <time>2019-03-26T08:51:05Z</time>
      </trkpt>
      <trkpt lat="42.892440" lon="-5.881770">
        <ele>1138.997</ele>
        <time>2019-03-26T08:51:25Z</time>
      </trkpt>
      <trkpt lat="42.892590" lon="-5.881730">
        <ele>1138.758</ele>
        <time>2019-03-26T08:51:45Z</time>
      </trkpt>
      <trkpt lat="42.892730" lon="-5.881650">
        <ele>1138.197</ele>
        <time>2019-03-26T08:52:05Z</time>
      </trkpt>
      <trkpt lat="42.892850" lon="-5.881490">
        <ele>1137.149</ele>
        <time>2019-03-26T08:52:25Z</time>
      </trkpt>
      <trkpt lat="42.893250" lon="-5.880570">
        <ele>1132.087</ele>
        <time>2019-03-26T08:52:45Z</time>
      </trkpt>
      <trkpt lat="42.893390" lon="-5.880080">
        <ele>1129.390</ele>
        <time>2019-03-26T08:53:05Z</time>
      </trkpt>
      <trkpt lat="42.893600" lon="-5.879020">
        <ele>1127.922</ele>
        <time>2019-03-26T08:53:25Z</time>
      </trkpt>
      <trkpt lat="42.893880" lon="-5.878340">
        <ele>1128.737</ele>
        <time>2019-03-26T08:53:45Z</time>
      </trkpt>
      <trkpt lat="42.893980" lon="-5.878020">
        <ele>1128.849</ele>
        <time>2019-03-26T08:54:05Z</time>
      </trkpt>
      <trkpt lat="42.894000" lon="-5.877640">
        <ele>1129.713</ele>
        <time>2019-03-26T08:54:25Z</time>
      </trkpt>
      <trkpt lat="42.893950" lon="-5.877320">
        <ele>1130.108</ele>
        <time>2019-03-26T08:54:45Z</time>
      </trkpt>
      <trkpt lat="42.893750" lon="-5.876870">
        <ele>1131.626</ele>
        <time>2019-03-26T08:55:05Z</time>
      </trkpt>
      <trkpt lat="42.893690" lon="-5.876680">
        <ele>1132.357</ele>
        <time>2019-03-26T08:55:25Z</time>
      </trkpt>
      <trkpt lat="42.893660" lon="-5.876420">
        <ele>1133.268</ele>
        <time>2019-03-26T08:55:45Z</time>
      </trkpt>
      <trkpt lat="42.893640" lon="-5.875740">
        <ele>1136.117</ele>
        <time>2019-03-26T08:56:05Z</time>
      </trkpt>
      <trkpt lat="42.893660" lon="-5.875580">
        <ele>1136.449</ele>
        <time>2019-03-26T08:56:25Z</time>
      </trkpt>
      <trkpt lat="42.893760" lon="-5.875340">
        <ele>1136.747</ele>
        <time>2019-03-26T08:56:45Z</time>
      </trkpt>
      <trkpt lat="42.894000" lon="-5.874920">
        <ele>1136.050</ele>
        <time>2019-03-26T08:57:05Z</time>
      </trkpt>
      <trkpt lat="42.894090" lon="-5.874690">
        <ele>1135.182</ele>
        <time>2019-03-26T08:57:25Z</time>
      </trkpt>
      <trkpt lat="42.894120" lon="-5.874480">
        <ele>1134.594</ele>
        <time>2019-03-26T08:57:45Z</time>
      </trkpt>
      <trkpt lat="42.894140" lon="-5.873930">
        <ele>1134.357</ele>
        <time>2019-03-26T08:58:05Z</time>
      </trkpt>
      <trkpt lat="42.894370" lon="-5.873370">
        <ele>1134.122</ele>
        <time>2019-03-26T08:58:25Z</time>
      </trkpt>
      <trkpt lat="42.894470" lon="-5.873210">
        <ele>1133.708</ele>
        <time>2019-03-26T08:58:45Z</time>
      </trkpt>
      <trkpt lat="42.894660" lon="-5.873070">
        <ele>1133.212</ele>
        <time>2019-03-26T08:59:05Z</time>
      </trkpt>
      <trkpt lat="42.895260" lon="-5.872930">
        <ele>1132.033</ele>
        <time>2019-03-26T08:59:25Z</time>
      </trkpt>
      <trkpt lat="42.895410" lon="-5.872830">
        <ele>1131.674</ele>
        <time>2019-03-26T08:59:45Z</time>
      </trkpt>
      <trkpt lat="42.895540" lon="-5.872650">
        <ele>1131.653</ele>
        <time>2019-03-26T09:00:05Z</time>
      </trkpt>
      <trkpt lat="42.895710" lon="-5.872300">
        <ele>1130.195</ele>
        <time>2019-03-26T09:00:25Z</time>
      </trkpt>
      <trkpt lat="42.895990" lon="-5.872010">
        <ele>1129.333</ele>
        <time>2019-03-26T09:00:45Z</time>
      </trkpt>
      <trkpt lat="42.896740" lon="-5.871780">
        <ele>1128.886</ele>
        <time>2019-03-26T09:01:05Z</time>
      </trkpt>
      <trkpt lat="42.897330" lon="-5.871710">
        <ele>1127.068</ele>
        <time>2019-03-26T09:01:25Z</time>
      </trkpt>
      <trkpt lat="42.897490" lon="-5.871640">
        <ele>1126.776</ele>
        <time>2019-03-26T09:01:45Z</time>
      </trkpt>
      <trkpt lat="42.897880" lon="-5.871330">
        <ele>1127.490</ele>
        <time>2019-03-26T09:02:05Z</time>
      </trkpt>
      <trkpt lat="42.898070" lon="-5.871210">
        <ele>1127.919</ele>
        <time>2019-03-26T09:02:25Z</time>
      </trkpt>
      <trkpt lat="42.898230" lon="-5.871150">
        <ele>1127.908</ele>
        <time>2019-03-26T09:02:45Z</time>
      </trkpt>
      <trkpt lat="42.898330" lon="-5.871170">
        <ele>1127.820</ele>
        <time>2019-03-26T09:03:05Z</time>
      </trkpt>
      <trkpt lat="42.898540" lon="-5.871430">
        <ele>1127.661</ele>
        <time>2019-03-26T09:03:25Z</time>
      </trkpt>
      <trkpt lat="42.898570" lon="-5.871500">
        <ele>1127.622</ele>
        <time>2019-03-26T09:03:45Z</time>
      </trkpt>
      <trkpt lat="42.898580" lon="-5.871710">
        <ele>1129.821</ele>
        <time>2019-03-26T09:04:05Z</time>
      </trkpt>
      <trkpt lat="42.898530" lon="-5.871880">
        <ele>1131.053</ele>
        <time>2019-03-26T09:04:25Z</time>
      </trkpt>
      <trkpt lat="42.898400" lon="-5.872030">
        <ele>1129.461</ele>
        <time>2019-03-26T09:04:45Z</time>
      </trkpt>
      <trkpt lat="42.897825" lon="-5.872430">
        <ele>1128.224</ele>
        <time>2019-03-26T09:05:05Z</time>
      </trkpt>
      <trkpt lat="42.897250" lon="-5.872830">
        <ele>1126.666</ele>
        <time>2019-03-26T09:05:25Z</time>
      </trkpt>
      <trkpt lat="42.897080" lon="-5.873020">
        <ele>1126.342</ele>
        <time>2019-03-26T09:05:45Z</time>
      </trkpt>
      <trkpt lat="42.896710" lon="-5.873870">
        <ele>1122.522</ele>
        <time>2019-03-26T09:06:05Z</time>
      </trkpt>
      <trkpt lat="42.896250" lon="-5.874830">
        <ele>1122.914</ele>
        <time>2019-03-26T09:06:25Z</time>
      </trkpt>
      <trkpt lat="42.896170" lon="-5.875060">
        <ele>1123.408</ele>
        <time>2019-03-26T09:06:45Z</time>
      </trkpt>
      <trkpt lat="42.896050" lon="-5.875765">
        <ele>1123.117</ele>
        <time>2019-03-26T09:07:05Z</time>
      </trkpt>
      <trkpt lat="42.895930" lon="-5.876470">
        <ele>1121.548</ele>
        <time>2019-03-26T09:07:25Z</time>
      </trkpt>
      <trkpt lat="42.895990" lon="-5.877550">
        <ele>1119.549</ele>
        <time>2019-03-26T09:07:45Z</time>
      </trkpt>
      <trkpt lat="42.895950" lon="-5.878230">
        <ele>1117.028</ele>
        <time>2019-03-26T09:08:05Z</time>
      </trkpt>
      <trkpt lat="42.895880" lon="-5.878530">
        <ele>1116.260</ele>
        <time>2019-03-26T09:08:25Z</time>
      </trkpt>
      <trkpt lat="42.895730" lon="-5.879000">
        <ele>1115.758</ele>
        <time>2019-03-26T09:08:45Z</time>
      </trkpt>
      <trkpt lat="42.895700" lon="-5.879220">
        <ele>1115.711</ele>
        <time>2019-03-26T09:09:05Z</time>
      </trkpt>
      <trkpt lat="42.895705" lon="-5.880330">
        <ele>1113.723</ele>
        <time>2019-03-26T09:09:25Z</time>
      </trkpt>
      <trkpt lat="42.895710" lon="-5.881440">
        <ele>1114.653</ele>
        <time>2019-03-26T09:09:45Z</time>
      </trkpt>
      <trkpt lat="42.895760" lon="-5.881770">
        <ele>1115.004</ele>
        <time>2019-03-26T09:10:05Z</time>
      </trkpt>
      <trkpt lat="42.895890" lon="-5.882190">
        <ele>1115.014</ele>
        <time>2019-03-26T09:10:25Z</time>
      </trkpt>
      <trkpt lat="42.896090" lon="-5.882590">
        <ele>1114.408</ele>
        <time>2019-03-26T09:10:45Z</time>
      </trkpt>
      <trkpt lat="42.896230" lon="-5.882800">
        <ele>1114.488</ele>
        <time>2019-03-26T09:11:05Z</time>
      </trkpt>
      <trkpt lat="42.896860" lon="-5.883480">
        <ele>1111.729</ele>
        <time>2019-03-26T09:11:25Z</time>
      </trkpt>
      <trkpt lat="42.897420" lon="-5.884140">
        <ele>1111.250</ele>
        <time>2019-03-26T09:11:45Z</time>
      </trkpt>
      <trkpt lat="42.897530" lon="-5.884190">
        <ele>1110.579</ele>
        <time>2019-03-26T09:12:05Z</time>
      </trkpt>
      <trkpt lat="42.898225" lon="-5.884365">
        <ele>1108.271</ele>
        <time>2019-03-26T09:12:25Z</time>
      </trkpt>
      <trkpt lat="42.898920" lon="-5.884540">
        <ele>1107.189</ele>
        <time>2019-03-26T09:12:45Z</time>
      </trkpt>
      <trkpt lat="42.899070" lon="-5.884540">
        <ele>1107.022</ele>
        <time>2019-03-26T09:13:05Z</time>
      </trkpt>
      <trkpt lat="42.899220" lon="-5.884490">
        <ele>1106.794</ele>
        <time>2019-03-26T09:13:25Z</time>
      </trkpt>
      <trkpt lat="42.899610" lon="-5.884300">
        <ele>1106.311</ele>
        <time>2019-03-26T09:13:45Z</time>
      </trkpt>
      <trkpt lat="42.899790" lon="-5.884260">
        <ele>1106.821</ele>
        <time>2019-03-26T09:14:05Z</time>
      </trkpt>
      <trkpt lat="42.899980" lon="-5.884280">
        <ele>1107.003</ele>
        <time>2019-03-26T09:14:25Z</time>
      </trkpt>
      <trkpt lat="42.900520" lon="-5.884400">
        <ele>1107.508</ele>
        <time>2019-03-26T09:14:45Z</time>
      </trkpt>
      <trkpt lat="42.901060" lon="-5.884520">
        <ele>1105.714</ele>
        <time>2019-03-26T09:15:05Z</time>
      </trkpt>
      <trkpt lat="42.901210" lon="-5.884590">
        <ele>1104.865</ele>
        <time>2019-03-26T09:15:25Z</time>
      </trkpt>
      <trkpt lat="42.901910" lon="-5.885130">
        <ele>1100.196</ele>
        <time>2019-03-26T09:15:45Z</time>
      </trkpt>
      <trkpt lat="42.902010" lon="-5.885280">
        <ele>1097.885</ele>
        <time>2019-03-26T09:16:05Z</time>
      </trkpt>
      <trkpt lat="42.902160" lon="-5.885690">
        <ele>1100.677</ele>
        <time>2019-03-26T09:16:25Z</time>
      </trkpt>
      <trkpt lat="42.902200" lon="-5.886000">
        <ele>1103.765</ele>
        <time>2019-03-26T09:16:45Z</time>
      </trkpt>
      <trkpt lat="42.902220" lon="-5.886720">
        <ele>1108.178</ele>
        <time>2019-03-26T09:17:05Z</time>
      </trkpt>
      <trkpt lat="42.902170" lon="-5.886990">
        <ele>1110.360</ele>
        <time>2019-03-26T09:17:25Z</time>
      </trkpt>
      <trkpt lat="42.902170" lon="-5.887000">
        <ele>1110.389</ele>
        <time>2019-03-26T09:17:45Z</time>
      </trkpt>
      <trkpt lat="42.902110" lon="-5.887360">
        <ele>1112.706</ele>
        <time>2019-03-26T09:18:05Z</time>
      </trkpt>
      <trkpt lat="42.901990" lon="-5.887650">
        <ele>1115.426</ele>
        <time>2019-03-26T09:18:25Z</time>
      </trkpt>
      <trkpt lat="42.901950" lon="-5.887720">
        <ele>1116.208</ele>
        <time>2019-03-26T09:18:45Z</time>
      </trkpt>
      <trkpt lat="42.901790" lon="-5.887870">
        <ele>1120.431</ele>
        <time>2019-03-26T09:19:05Z</time>
      </trkpt>
      <trkpt lat="42.901280" lon="-5.888180">
        <ele>1123.372</ele>
        <time>2019-03-26T09:19:25Z</time>
      </trkpt>
      <trkpt lat="42.900700" lon="-5.888690">
        <ele>1124.543</ele>
        <time>2019-03-26T09:19:45Z</time>
      </trkpt>
      <trkpt lat="42.900340" lon="-5.888970">
        <ele>1125.562</ele>
        <time>2019-03-26T09:20:05Z</time>
      </trkpt>
      <trkpt lat="42.900080" lon="-5.888980">
        <ele>1126.224</ele>
        <time>2019-03-26T09:20:25Z</time>
      </trkpt>
      <trkpt lat="42.899840" lon="-5.888910">
        <ele>1126.222</ele>
        <time>2019-03-26T09:20:45Z</time>
      </trkpt>
      <trkpt lat="42.899310" lon="-5.888550">
        <ele>1127.765</ele>
        <time>2019-03-26T09:21:05Z</time>
      </trkpt>
      <trkpt lat="42.899130" lon="-5.888460">
        <ele>1128.077</ele>
        <time>2019-03-26T09:21:25Z</time>
      </trkpt>
      <trkpt lat="42.898890" lon="-5.888430">
        <ele>1128.211</ele>
        <time>2019-03-26T09:21:45Z</time>
      </trkpt>
      <trkpt lat="42.898640" lon="-5.888530">
        <ele>1128.321</ele>
        <time>2019-03-26T09:22:05Z</time>
      </trkpt>
      <trkpt lat="42.898390" lon="-5.888780">
        <ele>1128.203</ele>
        <time>2019-03-26T09:22:25Z</time>
      </trkpt>
      <trkpt lat="42.898075" lon="-5.889370">
        <ele>1128.108</ele>
        <time>2019-03-26T09:22:45Z</time>
      </trkpt>
      <trkpt lat="42.897760" lon="-5.889960">
        <ele>1128.454</ele>
        <time>2019-03-26T09:23:05Z</time>
      </trkpt>
      <trkpt lat="42.897590" lon="-5.890340">
        <ele>1128.925</ele>
        <time>2019-03-26T09:23:25Z</time>
      </trkpt>
      <trkpt lat="42.897430" lon="-5.890850">
        <ele>1129.126</ele>
        <time>2019-03-26T09:23:45Z</time>
      </trkpt>
      <trkpt lat="42.897300" lon="-5.891840">
        <ele>1129.335</ele>
        <time>2019-03-26T09:24:05Z</time>
      </trkpt>
      <trkpt lat="42.897233" lon="-5.892693">
        <ele>1129.357</ele>
        <time>2019-03-26T09:24:25Z</time>
      </trkpt>
      <trkpt lat="42.897167" lon="-5.893547">
        <ele>1129.395</ele>
        <time>2019-03-26T09:24:45Z</time>
      </trkpt>
      <trkpt lat="42.897100" lon="-5.894400">
        <ele>1129.668</ele>
        <time>2019-03-26T09:25:05Z</time>
      </trkpt>
      <trkpt lat="42.897150" lon="-5.894840">
        <ele>1129.620</ele>
        <time>2019-03-26T09:25:25Z</time>
      </trkpt>
      <trkpt lat="42.897320" lon="-5.895140">
        <ele>1129.674</ele>
        <time>2019-03-26T09:25:45Z</time>
      </trkpt>
      <trkpt lat="42.897870" lon="-5.895780">
        <ele>1129.556</ele>
        <time>2019-03-26T09:26:05Z</time>
      </trkpt>
      <trkpt lat="42.898020" lon="-5.895990">
        <ele>1129.621</ele>
        <time>2019-03-26T09:26:25Z</time>
      </trkpt>
      <trkpt lat="42.898304" lon="-5.896906">
        <ele>1130.908</ele>
        <time>2019-03-26T09:26:45Z</time>
      </trkpt>
      <trkpt lat="42.898588" lon="-5.897822">
        <ele>1133.750</ele>
        <time>2019-03-26T09:27:05Z</time>
      </trkpt>
      <trkpt lat="42.898872" lon="-5.898738">
        <ele>1135.241</ele>
        <time>2019-03-26T09:27:25Z</time>
      </trkpt>
      <trkpt lat="42.899156" lon="-5.899654">
        <ele>1135.282</ele>
        <time>2019-03-26T09:27:45Z</time>
      </trkpt>
      <trkpt lat="42.899440" lon="-5.900570">
        <ele>1132.911</ele>
        <time>2019-03-26T09:28:05Z</time>
      </trkpt>
      <trkpt lat="42.899470" lon="-5.900890">
        <ele>1132.113</ele>
        <time>2019-03-26T09:28:25Z</time>
      </trkpt>
      <trkpt lat="42.899380" lon="-5.901785">
        <ele>1130.321</ele>
        <time>2019-03-26T09:28:45Z</time>
      </trkpt>
      <trkpt lat="42.899290" lon="-5.902680">
        <ele>1129.184</ele>
        <time>2019-03-26T09:29:05Z</time>
      </trkpt>
      <trkpt lat="42.899320" lon="-5.903050">
        <ele>1128.716</ele>
        <time>2019-03-26T09:29:25Z</time>
      </trkpt>
      <trkpt lat="42.899473" lon="-5.903893">
        <ele>1126.729</ele>
        <time>2019-03-26T09:29:45Z</time>
      </trkpt>
      <trkpt lat="42.899627" lon="-5.904737">
        <ele>1126.000</ele>
        <time>2019-03-26T09:30:05Z</time>
      </trkpt>
      <trkpt lat="42.899780" lon="-5.905580">
        <ele>1125.720</ele>
        <time>2019-03-26T09:30:25Z</time>
      </trkpt>
      <trkpt lat="42.899770" lon="-5.905930">
        <ele>1125.708</ele>
        <time>2019-03-26T09:30:45Z</time>
      </trkpt>
      <trkpt lat="42.899720" lon="-5.906200">
        <ele>1125.845</ele>
        <time>2019-03-26T09:31:05Z</time>
      </trkpt>
      <trkpt lat="42.899590" lon="-5.906450">
        <ele>1126.046</ele>
        <time>2019-03-26T09:31:25Z</time>
      </trkpt>
      <trkpt lat="42.899220" lon="-5.906800">
        <ele>1126.867</ele>
        <time>2019-03-26T09:31:45Z</time>
      </trkpt>
      <trkpt lat="42.898990" lon="-5.907060">
        <ele>1127.266</ele>
        <time>2019-03-26T09:32:05Z</time>
      </trkpt>
      <trkpt lat="42.898770" lon="-5.907530">
        <ele>1128.078</ele>
        <time>2019-03-26T09:32:25Z</time>
      </trkpt>
      <trkpt lat="42.898440" lon="-5.908400">
        <ele>1128.816</ele>
        <time>2019-03-26T09:32:45Z</time>
      </trkpt>
      <trkpt lat="42.898240" lon="-5.909220">
        <ele>1129.369</ele>
        <time>2019-03-26T09:33:05Z</time>
      </trkpt>
      <trkpt lat="42.898130" lon="-5.909760">
        <ele>1130.051</ele>
        <time>2019-03-26T09:33:25Z</time>
      </trkpt>
      <trkpt lat="42.898080" lon="-5.910070">
        <ele>1130.187</ele>
        <time>2019-03-26T09:33:45Z</time>
      </trkpt>
      <trkpt lat="42.898010" lon="-5.911050">
        <ele>1130.642</ele>
        <time>2019-03-26T09:34:05Z</time>
      </trkpt>
      <trkpt lat="42.898070" lon="-5.911540">
        <ele>1131.526</ele>
        <time>2019-03-26T09:34:25Z</time>
      </trkpt>
      <trkpt lat="42.898210" lon="-5.912320">
        <ele>1132.408</ele>
        <time>2019-03-26T09:34:45Z</time>
      </trkpt>
      <trkpt lat="42.898330" lon="-5.912760">
        <ele>1133.751</ele>
        <time>2019-03-26T09:35:05Z</time>
      </trkpt>
      <trkpt lat="42.898470" lon="-5.913120">
        <ele>1134.142</ele>
        <time>2019-03-26T09:35:25Z</time>
      </trkpt>
      <trkpt lat="42.898670" lon="-5.913310">
        <ele>1134.743</ele>
        <time>2019-03-26T09:35:45Z</time>
      </trkpt>
      <trkpt lat="42.899255" lon="-5.913610">
        <ele>1135.382</ele>
        <time>2019-03-26T09:36:05Z</time>
      </trkpt>
      <trkpt lat="42.899840" lon="-5.913910">
        <ele>1135.524</ele>
        <time>2019-03-26T09:36:25Z</time>
      </trkpt>
      <trkpt lat="42.900590" lon="-5.914030">
        <ele>1135.832</ele>
        <time>2019-03-26T09:36:45Z</time>
      </trkpt>
      <trkpt lat="42.900780" lon="-5.914150">
        <ele>1136.155</ele>
        <time>2019-03-26T09:37:05Z</time>
      </trkpt>
      <trkpt lat="42.900920" lon="-5.914360">
        <ele>1136.457</ele>
        <time>2019-03-26T09:37:25Z</time>
      </trkpt>
      <trkpt lat="42.900980" lon="-5.914620">
        <ele>1136.815</ele>
        <time>2019-03-26T09:37:45Z</time>
      </trkpt>
      <trkpt lat="42.900950" lon="-5.914900">
        <ele>1137.365</ele>
        <time>2019-03-26T09:38:05Z</time>
      </trkpt>
      <trkpt lat="42.900770" lon="-5.915440">
        <ele>1137.411</ele>
        <time>2019-03-26T09:38:25Z</time>
      </trkpt>
      <trkpt lat="42.900730" lon="-5.915840">
        <ele>1137.108</ele>
        <time>2019-03-26T09:38:45Z</time>
      </trkpt>
      <trkpt lat="42.900790" lon="-5.916210">
        <ele>1136.244</ele>
        <time>2019-03-26T09:39:05Z</time>
      </trkpt>
      <trkpt lat="42.900910" lon="-5.916450">
        <ele>1135.545</ele>
        <time>2019-03-26T09:39:25Z</time>
      </trkpt>
      <trkpt lat="42.901220" lon="-5.916850">
        <ele>1134.516</ele>
        <time>2019-03-26T09:39:45Z</time>
      </trkpt>
      <trkpt lat="42.901660" lon="-5.917340">
        <ele>1131.615</ele>
        <time>2019-03-26T09:40:05Z</time>
      </trkpt>
      <trkpt lat="42.902070" lon="-5.917600">
        <ele>1130.177</ele>
        <time>2019-03-26T09:40:25Z</time>
      </trkpt>
      <trkpt lat="42.902340" lon="-5.917830">
        <ele>1129.255</ele>
        <time>2019-03-26T09:40:45Z</time>
      </trkpt>
      <trkpt lat="42.902740" lon="-5.918395">
        <ele>1128.268</ele>
        <time>2019-03-26T09:41:05Z</time>
      </trkpt>
      <trkpt lat="42.903140" lon="-5.918960">
        <ele>1128.510</ele>
        <time>2019-03-26T09:41:25Z</time>
      </trkpt>
      <trkpt lat="42.903340" lon="-5.919120">
        <ele>1128.912</ele>
        <time>2019-03-26T09:41:45Z</time>
      </trkpt>
      <trkpt lat="42.903610" lon="-5.919190">
        <ele>1129.532</ele>
        <time>2019-03-26T09:42:05Z</time>
      </trkpt>
      <trkpt lat="42.903870" lon="-5.919100">
        <ele>1129.705</ele>
        <time>2019-03-26T09:42:25Z</time>
      </trkpt>
      <trkpt lat="42.904290" lon="-5.918670">
        <ele>1129.908</ele>
        <time>2019-03-26T09:42:45Z</time>
      </trkpt>
      <trkpt lat="42.904490" lon="-5.918560">
        <ele>1130.084</ele>
        <time>2019-03-26T09:43:05Z</time>
      </trkpt>
      <trkpt lat="42.904750" lon="-5.918610">
        <ele>1130.485</ele>
        <time>2019-03-26T09:43:25Z</time>
      </trkpt>
      <trkpt lat="42.904990" lon="-5.918860">
        <ele>1131.066</ele>
        <time>2019-03-26T09:43:45Z</time>
      </trkpt>
      <trkpt lat="42.905300" lon="-5.919520">
        <ele>1131.275</ele>
        <time>2019-03-26T09:44:05Z</time>
      </trkpt>
      <trkpt lat="42.905560" lon="-5.919960">
        <ele>1130.157</ele>
        <time>2019-03-26T09:44:25Z</time>
      </trkpt>
      <trkpt lat="42.905980" lon="-5.920410">
        <ele>1127.625</ele>
        <time>2019-03-26T09:44:45Z</time>
      </trkpt>
      <trkpt lat="42.906400" lon="-5.920860">
        <ele>1124.378</ele>
        <time>2019-03-26T09:45:05Z</time>
      </trkpt>
      <trkpt lat="42.906980" lon="-5.921700">
        <ele>1123.370</ele>
        <time>2019-03-26T09:45:25Z</time>
      </trkpt>
      <trkpt lat="42.907560" lon="-5.922540">
        <ele>1123.518</ele>
        <time>2019-03-26T09:45:45Z</time>
      </trkpt>
      <trkpt lat="42.907720" lon="-5.922620">
        <ele>1123.598</ele>
        <time>2019-03-26T09:46:05Z</time>
      </trkpt>
      <trkpt lat="42.907880" lon="-5.922600">
        <ele>1123.517</ele>
        <time>2019-03-26T09:46:25Z</time>
      </trkpt>
      <trkpt lat="42.908400" lon="-5.922290">
        <ele>1123.608</ele>
        <time>2019-03-26T09:46:45Z</time>
      </trkpt>
      <trkpt lat="42.908590" lon="-5.922330">
        <ele>1124.114</ele>
        <time>2019-03-26T09:47:05Z</time>
      </trkpt>
      <trkpt lat="42.908740" lon="-5.922450">
        <ele>1124.135</ele>
        <time>2019-03-26T09:47:25Z</time>
      </trkpt>
      <trkpt lat="42.908850" lon="-5.922660">
        <ele>1124.136</ele>
        <time>2019-03-26T09:47:45Z</time>
      </trkpt>
      <trkpt lat="42.909040" lon="-5.923580">
        <ele>1124.315</ele>
        <time>2019-03-26T09:48:05Z</time>
      </trkpt>
      <trkpt lat="42.909270" lon="-5.923840">
        <ele>1124.147</ele>
        <time>2019-03-26T09:48:25Z</time>
      </trkpt>
      <trkpt lat="42.909580" lon="-5.923960">
        <ele>1124.295</ele>
        <time>2019-03-26T09:48:45Z</time>
      </trkpt>
      <trkpt lat="42.909850" lon="-5.923880">
        <ele>1124.368</ele>
        <time>2019-03-26T09:49:05Z</time>
      </trkpt>
      <trkpt lat="42.910130" lon="-5.923460">
        <ele>1124.470</ele>
        <time>2019-03-26T09:49:25Z</time>
      </trkpt>
      <trkpt lat="42.910240" lon="-5.923110">
        <ele>1124.444</ele>
        <time>2019-03-26T09:49:45Z</time>
      </trkpt>
      <trkpt lat="42.910280" lon="-5.922800">
        <ele>1124.305</ele>
        <time>2019-03-26T09:50:05Z</time>
      </trkpt>
      <trkpt lat="42.910240" lon="-5.922400">
        <ele>1123.915</ele>
        <time>2019-03-26T09:50:25Z</time>
      </trkpt>
      <trkpt lat="42.910050" lon="-5.921685">
        <ele>1123.108</ele>
        <time>2019-03-26T09:50:45Z</time>
      </trkpt>
      <trkpt lat="42.909860" lon="-5.920970">
        <ele>1123.187</ele>
        <time>2019-03-26T09:51:05Z</time>
      </trkpt>
      <trkpt lat="42.909800" lon="-5.920670">
        <ele>1123.298</ele>
        <time>2019-03-26T09:51:25Z</time>
      </trkpt>
      <trkpt lat="42.909820" lon="-5.920340">
        <ele>1123.399</ele>
        <time>2019-03-26T09:51:45Z</time>
      </trkpt>
      <trkpt lat="42.909910" lon="-5.920010">
        <ele>1123.398</ele>
        <time>2019-03-26T09:52:05Z</time>
      </trkpt>
      <trkpt lat="42.910130" lon="-5.919800">
        <ele>1123.470</ele>
        <time>2019-03-26T09:52:25Z</time>
      </trkpt>
      <trkpt lat="42.910450" lon="-5.919780">
        <ele>1123.418</ele>
        <time>2019-03-26T09:52:45Z</time>
      </trkpt>
      <trkpt lat="42.910720" lon="-5.919940">
        <ele>1123.341</ele>
        <time>2019-03-26T09:53:05Z</time>
      </trkpt>
      <trkpt lat="42.911040" lon="-5.920410">
        <ele>1122.833</ele>
        <time>2019-03-26T09:53:25Z</time>
      </trkpt>
      <trkpt lat="42.911430" lon="-5.921110">
        <ele>1122.137</ele>
        <time>2019-03-26T09:53:45Z</time>
      </trkpt>
      <trkpt lat="42.911730" lon="-5.921860">
        <ele>1122.149</ele>
        <time>2019-03-26T09:54:05Z</time>
      </trkpt>
      <trkpt lat="42.912220" lon="-5.922780">
        <ele>1125.913</ele>
        <time>2019-03-26T09:54:25Z</time>
      </trkpt>
      <trkpt lat="42.912595" lon="-5.923405">
        <ele>1129.508</ele>
        <time>2019-03-26T09:54:45Z</time>
      </trkpt>
      <trkpt lat="42.912970" lon="-5.924030">
        <ele>1133.216</ele>
        <time>2019-03-26T09:55:05Z</time>
      </trkpt>
      <trkpt lat="42.913240" lon="-5.924260">
        <ele>1135.047</ele>
        <time>2019-03-26T09:55:25Z</time>
      </trkpt>
      <trkpt lat="42.913540" lon="-5.924420">
        <ele>1137.368</ele>
        <time>2019-03-26T09:55:45Z</time>
      </trkpt>
      <trkpt lat="42.914260" lon="-5.924570">
        <ele>1144.317</ele>
        <time>2019-03-26T09:56:05Z</time>
      </trkpt>
      <trkpt lat="42.914650" lon="-5.924710">
        <ele>1147.269</ele>
        <time>2019-03-26T09:56:25Z</time>
      </trkpt>
      <trkpt lat="42.915395" lon="-5.925245">
        <ele>1148.727</ele>
        <time>2019-03-26T09:56:45Z</time>
      </trkpt>
      <trkpt lat="42.916140" lon="-5.925780">
        <ele>1149.630</ele>
        <time>2019-03-26T09:57:05Z</time>
      </trkpt>
      <trkpt lat="42.916360" lon="-5.926010">
        <ele>1149.652</ele>
        <time>2019-03-26T09:57:25Z</time>
      </trkpt>
      <trkpt lat="42.916470" lon="-5.926140">
        <ele>1149.185</ele>
        <time>2019-03-26T09:57:45Z</time>
      </trkpt>
      <trkpt lat="42.916600" lon="-5.926420">
        <ele>1148.689</ele>
        <time>2019-03-26T09:58:05Z</time>
      </trkpt>
      <trkpt lat="42.916810" lon="-5.927050">
        <ele>1147.117</ele>
        <time>2019-03-26T09:58:25Z</time>
      </trkpt>
      <trkpt lat="42.917090" lon="-5.927990">
        <ele>1143.108</ele>
        <time>2019-03-26T09:58:45Z</time>
      </trkpt>
      <trkpt lat="42.917370" lon="-5.928930">
        <ele>1140.071</ele>
        <time>2019-03-26T09:59:05Z</time>
      </trkpt>
      <trkpt lat="42.917560" lon="-5.929490">
        <ele>1138.382</ele>
        <time>2019-03-26T09:59:25Z</time>
      </trkpt>
      <trkpt lat="42.917710" lon="-5.929820">
        <ele>1138.073</ele>
        <time>2019-03-26T09:59:45Z</time>
      </trkpt>
      <trkpt lat="42.917870" lon="-5.930030">
        <ele>1137.752</ele>
        <time>2019-03-26T10:00:05Z</time>
      </trkpt>
      <trkpt lat="42.918220" lon="-5.930360">
        <ele>1137.724</ele>
        <time>2019-03-26T10:00:25Z</time>
      </trkpt>
      <trkpt lat="42.918625" lon="-5.930685">
        <ele>1138.922</ele>
        <time>2019-03-26T10:00:45Z</time>
      </trkpt>
      <trkpt lat="42.919030" lon="-5.931010">
        <ele>1140.395</ele>
        <time>2019-03-26T10:01:05Z</time>
      </trkpt>
      <trkpt lat="42.919250" lon="-5.931250">
        <ele>1140.937</ele>
        <time>2019-03-26T10:01:25Z</time>
      </trkpt>
      <trkpt lat="42.919460" lon="-5.931620">
        <ele>1140.514</ele>
        <time>2019-03-26T10:01:45Z</time>
      </trkpt>
      <trkpt lat="42.919777" lon="-5.932430">
        <ele>1138.454</ele>
        <time>2019-03-26T10:02:05Z</time>
      </trkpt>
      <trkpt lat="42.920093" lon="-5.933240">
        <ele>1137.709</ele>
        <time>2019-03-26T10:02:25Z</time>
      </trkpt>
      <trkpt lat="42.920410" lon="-5.934050">
        <ele>1137.708</ele>
        <time>2019-03-26T10:02:45Z</time>
      </trkpt>
      <trkpt lat="42.920825" lon="-5.935055">
        <ele>1138.254</ele>
        <time>2019-03-26T10:03:05Z</time>
      </trkpt>
      <trkpt lat="42.921240" lon="-5.936060">
        <ele>1137.685</ele>
        <time>2019-03-26T10:03:25Z</time>
      </trkpt>
      <trkpt lat="42.921703" lon="-5.937102">
        <ele>1136.526</ele>
        <time>2019-03-26T10:03:45Z</time>
      </trkpt>
      <trkpt lat="42.922165" lon="-5.938145">
        <ele>1133.285</ele>
        <time>2019-03-26T10:04:05Z</time>
      </trkpt>
      <trkpt lat="42.922628" lon="-5.939187">
        <ele>1131.197</ele>
        <time>2019-03-26T10:04:25Z</time>
      </trkpt>
      <trkpt lat="42.923090" lon="-5.940230">
        <ele>1130.075</ele>
        <time>2019-03-26T10:04:45Z</time>
      </trkpt>
      <trkpt lat="42.923502" lon="-5.941236">
        <ele>1128.168</ele>
        <time>2019-03-26T10:05:05Z</time>
      </trkpt>
      <trkpt lat="42.923914" lon="-5.942242">
        <ele>1127.880</ele>
        <time>2019-03-26T10:05:25Z</time>
      </trkpt>
      <trkpt lat="42.924326" lon="-5.943248">
        <ele>1128.013</ele>
        <time>2019-03-26T10:05:45Z</time>
      </trkpt>
      <trkpt lat="42.924738" lon="-5.944254">
        <ele>1127.243</ele>
        <time>2019-03-26T10:06:05Z</time>
      </trkpt>
      <trkpt lat="42.925150" lon="-5.945260">
        <ele>1127.307</ele>
        <time>2019-03-26T10:06:25Z</time>
      </trkpt>
      <trkpt lat="42.925410" lon="-5.945940">
        <ele>1127.308</ele>
        <time>2019-03-26T10:06:45Z</time>
      </trkpt>
      <trkpt lat="42.925590" lon="-5.946450">
        <ele>1127.264</ele>
        <time>2019-03-26T10:07:05Z</time>
      </trkpt>
      <trkpt lat="42.925750" lon="-5.947510">
        <ele>1125.585</ele>
        <time>2019-03-26T10:07:25Z</time>
      </trkpt>
      <trkpt lat="42.925788" lon="-5.948650">
        <ele>1125.546</ele>
        <time>2019-03-26T10:07:45Z</time>
      </trkpt>
      <trkpt lat="42.925827" lon="-5.949790">
        <ele>1124.195</ele>
        <time>2019-03-26T10:08:05Z</time>
      </trkpt>
      <trkpt lat="42.925865" lon="-5.950930">
        <ele>1123.027</ele>
        <time>2019-03-26T10:08:25Z</time>
      </trkpt>
      <trkpt lat="42.925903" lon="-5.952070">
        <ele>1121.335</ele>
        <time>2019-03-26T10:08:45Z</time>
      </trkpt>
      <trkpt lat="42.925942" lon="-5.953210">
        <ele>1121.058</ele>
        <time>2019-03-26T10:09:05Z</time>
      </trkpt>
      <trkpt lat="42.925980" lon="-5.954350">
        <ele>1119.490</ele>
        <time>2019-03-26T10:09:25Z</time>
      </trkpt>
      <trkpt lat="42.926070" lon="-5.954850">
        <ele>1118.952</ele>
        <time>2019-03-26T10:09:45Z</time>
      </trkpt>
      <trkpt lat="42.926200" lon="-5.955270">
        <ele>1118.753</ele>
        <time>2019-03-26T10:10:05Z</time>
      </trkpt>
      <trkpt lat="42.926400" lon="-5.955620">
        <ele>1118.508</ele>
        <time>2019-03-26T10:10:25Z</time>
      </trkpt>
      <trkpt lat="42.926580" lon="-5.955870">
        <ele>1118.508</ele>
        <time>2019-03-26T10:10:45Z</time>
      </trkpt>
      <trkpt lat="42.927340" lon="-5.956470">
        <ele>1121.458</ele>
        <time>2019-03-26T10:11:05Z</time>
      </trkpt>
      <trkpt lat="42.927650" lon="-5.956840">
        <ele>1122.599</ele>
        <time>2019-03-26T10:11:25Z</time>
      </trkpt>
      <trkpt lat="42.927810" lon="-5.957130">
        <ele>1124.850</ele>
        <time>2019-03-26T10:11:45Z</time>
      </trkpt>
      <trkpt lat="42.927930" lon="-5.957400">
        <ele>1127.489</ele>
        <time>2019-03-26T10:12:05Z</time>
      </trkpt>
      <trkpt lat="42.928170" lon="-5.958540">
        <ele>1131.031</ele>
        <time>2019-03-26T10:12:25Z</time>
      </trkpt>
      <trkpt lat="42.928450" lon="-5.959410">
        <ele>1135.859</ele>
        <time>2019-03-26T10:12:45Z</time>
      </trkpt>
      <trkpt lat="42.928490" lon="-5.959540">
        <ele>1135.852</ele>
        <time>2019-03-26T10:13:05Z</time>
      </trkpt>
      <trkpt lat="42.928730" lon="-5.960070">
        <ele>1137.164</ele>
        <time>2019-03-26T10:13:25Z</time>
      </trkpt>
      <trkpt lat="42.928900" lon="-5.960270">
        <ele>1137.832</ele>
        <time>2019-03-26T10:13:45Z</time>
      </trkpt>
      <trkpt lat="42.929140" lon="-5.960420">
        <ele>1139.392</ele>
        <time>2019-03-26T10:14:05Z</time>
      </trkpt>
      <trkpt lat="42.929770" lon="-5.960630">
        <ele>1143.111</ele>
        <time>2019-03-26T10:14:25Z</time>
      </trkpt>
      <trkpt lat="42.930060" lon="-5.960860">
        <ele>1143.508</ele>
        <time>2019-03-26T10:14:45Z</time>
      </trkpt>
      <trkpt lat="42.930723" lon="-5.961482">
        <ele>1143.086</ele>
        <time>2019-03-26T10:15:05Z</time>
      </trkpt>
      <trkpt lat="42.931385" lon="-5.962105">
        <ele>1140.537</ele>
        <time>2019-03-26T10:15:25Z</time>
      </trkpt>
      <trkpt lat="42.932048" lon="-5.962727">
        <ele>1137.978</ele>
        <time>2019-03-26T10:15:45Z</time>
      </trkpt>
      <trkpt lat="42.932710" lon="-5.963350">
        <ele>1137.187</ele>
        <time>2019-03-26T10:16:05Z</time>
      </trkpt>
      <trkpt lat="42.932900" lon="-5.963690">
        <ele>1137.059</ele>
        <time>2019-03-26T10:16:25Z</time>
      </trkpt>
      <trkpt lat="42.933300" lon="-5.964760">
        <ele>1137.127</ele>
        <time>2019-03-26T10:16:45Z</time>
      </trkpt>
      <trkpt lat="42.933530" lon="-5.965240">
        <ele>1137.650</ele>
        <time>2019-03-26T10:17:05Z</time>
      </trkpt>
      <trkpt lat="42.934077" lon="-5.965930">
        <ele>1138.392</ele>
        <time>2019-03-26T10:17:25Z</time>
      </trkpt>
      <trkpt lat="42.934623" lon="-5.966620">
        <ele>1138.018</ele>
        <time>2019-03-26T10:17:45Z</time>
      </trkpt>
      <trkpt lat="42.935170" lon="-5.967310">
        <ele>1137.298</ele>
        <time>2019-03-26T10:18:05Z</time>
      </trkpt>
      <trkpt lat="42.935470" lon="-5.967740">
        <ele>1135.517</ele>
        <time>2019-03-26T10:18:25Z</time>
      </trkpt>
      <trkpt lat="42.935800" lon="-5.968150">
        <ele>1135.008</ele>
        <time>2019-03-26T10:18:45Z</time>
      </trkpt>
      <trkpt lat="42.936400" lon="-5.968605">
        <ele>1133.764</ele>
        <time>2019-03-26T10:19:05Z</time>
      </trkpt>
      <trkpt lat="42.937000" lon="-5.969060">
        <ele>1133.425</ele>
        <time>2019-03-26T10:19:25Z</time>
      </trkpt>
      <trkpt lat="42.937440" lon="-5.969520">
        <ele>1134.266</ele>
        <time>2019-03-26T10:19:45Z</time>
      </trkpt>
      <trkpt lat="42.937880" lon="-5.969980">
        <ele>1134.285</ele>
        <time>2019-03-26T10:20:05Z</time>
      </trkpt>
      <trkpt lat="42.938150" lon="-5.970290">
        <ele>1134.397</ele>
        <time>2019-03-26T10:20:25Z</time>
      </trkpt>
      <trkpt lat="42.938330" lon="-5.970620">
        <ele>1134.545</ele>
        <time>2019-03-26T10:20:45Z</time>
      </trkpt>
      <trkpt lat="42.938430" lon="-5.971020">
        <ele>1134.548</ele>
        <time>2019-03-26T10:21:05Z</time>
      </trkpt>
      <trkpt lat="42.938460" lon="-5.971410">
        <ele>1134.280</ele>
        <time>2019-03-26T10:21:25Z</time>
      </trkpt>
      <trkpt lat="42.938410" lon="-5.971740">
        <ele>1133.689</ele>
        <time>2019-03-26T10:21:45Z</time>
      </trkpt>
      <trkpt lat="42.938320" lon="-5.972070">
        <ele>1133.506</ele>
        <time>2019-03-26T10:22:05Z</time>
      </trkpt>
      <trkpt lat="42.937920" lon="-5.973060">
        <ele>1133.126</ele>
        <time>2019-03-26T10:22:25Z</time>
      </trkpt>
      <trkpt lat="42.937810" lon="-5.973480">
        <ele>1133.508</ele>
        <time>2019-03-26T10:22:45Z</time>
      </trkpt>
      <trkpt lat="42.937830" lon="-5.973880">
        <ele>1133.651</ele>
        <time>2019-03-26T10:23:05Z</time>
      </trkpt>
      <trkpt lat="42.938080" lon="-5.974870">
        <ele>1133.622</ele>
        <time>2019-03-26T10:23:25Z</time>
      </trkpt>
      <trkpt lat="42.938110" lon="-5.975680">
        <ele>1133.653</ele>
        <time>2019-03-26T10:23:45Z</time>
      </trkpt>
      <trkpt lat="42.938140" lon="-5.976490">
        <ele>1132.542</ele>
        <time>2019-03-26T10:24:05Z</time>
      </trkpt>
      <trkpt lat="42.938200" lon="-5.977070">
        <ele>1132.524</ele>
        <time>2019-03-26T10:24:25Z</time>
      </trkpt>
      <trkpt lat="42.938320" lon="-5.977450">
        <ele>1132.522</ele>
        <time>2019-03-26T10:24:45Z</time>
      </trkpt>
      <trkpt lat="42.938450" lon="-5.977710">
        <ele>1132.535</ele>
        <time>2019-03-26T10:25:05Z</time>
      </trkpt>
      <trkpt lat="42.938690" lon="-5.977960">
        <ele>1132.547</ele>
        <time>2019-03-26T10:25:25Z</time>
      </trkpt>
      <trkpt lat="42.938990" lon="-5.978120">
        <ele>1132.458</ele>
        <time>2019-03-26T10:25:45Z</time>
      </trkpt>
      <trkpt lat="42.939220" lon="-5.978150">
        <ele>1132.452</ele>
        <time>2019-03-26T10:26:05Z</time>
      </trkpt>
      <trkpt lat="42.939510" lon="-5.978060">
        <ele>1132.717</ele>
        <time>2019-03-26T10:26:25Z</time>
      </trkpt>
      <trkpt lat="42.940190" lon="-5.977710">
        <ele>1133.808</ele>
        <time>2019-03-26T10:26:45Z</time>
      </trkpt>
      <trkpt lat="42.940530" lon="-5.977680">
        <ele>1133.978</ele>
        <time>2019-03-26T10:27:05Z</time>
      </trkpt>
      <trkpt lat="42.940800" lon="-5.977750">
        <ele>1133.749</ele>
        <time>2019-03-26T10:27:25Z</time>
      </trkpt>
      <trkpt lat="42.941070" lon="-5.977910">
        <ele>1133.390</ele>
        <time>2019-03-26T10:27:45Z</time>
      </trkpt>
      <trkpt lat="42.941500" lon="-5.978280">
        <ele>1132.679</ele>
        <time>2019-03-26T10:28:05Z</time>
      </trkpt>
      <trkpt lat="42.941930" lon="-5.978650">
        <ele>1132.431</ele>
        <time>2019-03-26T10:28:25Z</time>
      </trkpt>
      <trkpt lat="42.942290" lon="-5.979090">
        <ele>1132.719</ele>
        <time>2019-03-26T10:28:45Z</time>
      </trkpt>
      <trkpt lat="42.942500" lon="-5.979510">
        <ele>1133.142</ele>
        <time>2019-03-26T10:29:05Z</time>
      </trkpt>
      <trkpt lat="42.942710" lon="-5.980210">
        <ele>1133.994</ele>
        <time>2019-03-26T10:29:25Z</time>
      </trkpt>
      <trkpt lat="42.942740" lon="-5.980390">
        <ele>1134.061</ele>
        <time>2019-03-26T10:29:45Z</time>
      </trkpt>
      <trkpt lat="42.942820" lon="-5.981010">
        <ele>1134.021</ele>
        <time>2019-03-26T10:30:05Z</time>
      </trkpt>
      <trkpt lat="42.942840" lon="-5.981550">
        <ele>1134.313</ele>
        <time>2019-03-26T10:30:25Z</time>
      </trkpt>
      <trkpt lat="42.942830" lon="-5.982160">
        <ele>1134.808</ele>
        <time>2019-03-26T10:30:45Z</time>
      </trkpt>
      <trkpt lat="42.942790" lon="-5.982610">
        <ele>1135.179</ele>
        <time>2019-03-26T10:31:05Z</time>
      </trkpt>
      <trkpt lat="42.942730" lon="-5.982920">
        <ele>1134.770</ele>
        <time>2019-03-26T10:31:25Z</time>
      </trkpt>
      <trkpt lat="42.942475" lon="-5.983900">
        <ele>1136.161</ele>
        <time>2019-03-26T10:31:45Z</time>
      </trkpt>
      <trkpt lat="42.942220" lon="-5.984880">
        <ele>1136.460</ele>
        <time>2019-03-26T10:32:05Z</time>
      </trkpt>
      <trkpt lat="42.942150" lon="-5.985560">
        <ele>1136.642</ele>
        <time>2019-03-26T10:32:25Z</time>
      </trkpt>
      <trkpt lat="42.942150" lon="-5.985840">
        <ele>1136.830</ele>
        <time>2019-03-26T10:32:45Z</time>
      </trkpt>
      <trkpt lat="42.942210" lon="-5.986390">
        <ele>1137.233</ele>
        <time>2019-03-26T10:33:05Z</time>
      </trkpt>
      <trkpt lat="42.942495" lon="-5.987430">
        <ele>1137.675</ele>
        <time>2019-03-26T10:33:25Z</time>
      </trkpt>
      <trkpt lat="42.942780" lon="-5.988470">
        <ele>1138.592</ele>
        <time>2019-03-26T10:33:45Z</time>
      </trkpt>
      <trkpt lat="42.942960" lon="-5.989200">
        <ele>1139.473</ele>
        <time>2019-03-26T10:34:05Z</time>
      </trkpt>
      <trkpt lat="42.943000" lon="-5.989620">
        <ele>1140.420</ele>
        <time>2019-03-26T10:34:25Z</time>
      </trkpt>
      <trkpt lat="42.942990" lon="-5.990595">
        <ele>1142.208</ele>
        <time>2019-03-26T10:34:45Z</time>
      </trkpt>
      <trkpt lat="42.942980" lon="-5.991570">
        <ele>1144.332</ele>
        <time>2019-03-26T10:35:05Z</time>
      </trkpt>
      <trkpt lat="42.943060" lon="-5.992010">
        <ele>1144.913</ele>
        <time>2019-03-26T10:35:25Z</time>
      </trkpt>
      <trkpt lat="42.943240" lon="-5.992390">
        <ele>1145.124</ele>
        <time>2019-03-26T10:35:45Z</time>
      </trkpt>
      <trkpt lat="42.943420" lon="-5.992690">
        <ele>1145.483</ele>
        <time>2019-03-26T10:36:05Z</time>
      </trkpt>
      <trkpt lat="42.943790" lon="-5.993260">
        <ele>1145.455</ele>
        <time>2019-03-26T10:36:25Z</time>
      </trkpt>
      <trkpt lat="42.944330" lon="-5.994050">
        <ele>1144.713</ele>
        <time>2019-03-26T10:36:45Z</time>
      </trkpt>
      <trkpt lat="42.944870" lon="-5.994840">
        <ele>1144.476</ele>
        <time>2019-03-26T10:37:05Z</time>
      </trkpt>
      <trkpt lat="42.945410" lon="-5.995630">
        <ele>1143.938</ele>
        <time>2019-03-26T10:37:25Z</time>
      </trkpt>
      <trkpt lat="42.945950" lon="-5.996420">
        <ele>1143.966</ele>
        <time>2019-03-26T10:37:45Z</time>
      </trkpt>
      <trkpt lat="42.946300" lon="-5.996820">
        <ele>1143.829</ele>
        <time>2019-03-26T10:38:05Z</time>
      </trkpt>
      <trkpt lat="42.946650" lon="-5.997220">
        <ele>1143.821</ele>
        <time>2019-03-26T10:38:25Z</time>
      </trkpt>
      <trkpt lat="42.947045" lon="-5.997680">
        <ele>1143.408</ele>
        <time>2019-03-26T10:38:45Z</time>
      </trkpt>
      <trkpt lat="42.947440" lon="-5.998140">
        <ele>1145.239</ele>
        <time>2019-03-26T10:39:05Z</time>
      </trkpt>
      <trkpt lat="42.947800" lon="-5.998660">
        <ele>1147.230</ele>
        <time>2019-03-26T10:39:25Z</time>
      </trkpt>
      <trkpt lat="42.948090" lon="-5.999220">
        <ele>1148.841</ele>
        <time>2019-03-26T10:39:45Z</time>
      </trkpt>
      <trkpt lat="42.948330" lon="-5.999900">
        <ele>1151.260</ele>
        <time>2019-03-26T10:40:05Z</time>
      </trkpt>
      <trkpt lat="42.948500" lon="-6.000080">
        <ele>1152.262</ele>
        <time>2019-03-26T10:40:25Z</time>
      </trkpt>
      <trkpt lat="42.948620" lon="-6.000250">
        <ele>1153.950</ele>
        <time>2019-03-26T10:40:45Z</time>
      </trkpt>
      <trkpt lat="42.948810" lon="-6.000600">
        <ele>1155.073</ele>
        <time>2019-03-26T10:41:05Z</time>
      </trkpt>
      <trkpt lat="42.949020" lon="-6.001050">
        <ele>1156.465</ele>
        <time>2019-03-26T10:41:25Z</time>
      </trkpt>
      <trkpt lat="42.949270" lon="-6.001470">
        <ele>1157.822</ele>
        <time>2019-03-26T10:41:45Z</time>
      </trkpt>
      <trkpt lat="42.949830" lon="-6.002030">
        <ele>1157.462</ele>
        <time>2019-03-26T10:42:05Z</time>
      </trkpt>
      <trkpt lat="42.950200" lon="-6.002340">
        <ele>1158.708</ele>
        <time>2019-03-26T10:42:25Z</time>
      </trkpt>
      <trkpt lat="42.950570" lon="-6.002570">
        <ele>1159.608</ele>
        <time>2019-03-26T10:42:45Z</time>
      </trkpt>
      <trkpt lat="42.950870" lon="-6.002710">
        <ele>1159.945</ele>
        <time>2019-03-26T10:43:05Z</time>
      </trkpt>
      <trkpt lat="42.951160" lon="-6.002800">
        <ele>1160.036</ele>
        <time>2019-03-26T10:43:25Z</time>
      </trkpt>
      <trkpt lat="42.951450" lon="-6.002850">
        <ele>1160.487</ele>
        <time>2019-03-26T10:43:45Z</time>
      </trkpt>
      <trkpt lat="42.952060" lon="-6.002700">
        <ele>1162.096</ele>
        <time>2019-03-26T10:44:05Z</time>
      </trkpt>
      <trkpt lat="42.952670" lon="-6.002550">
        <ele>1162.678</ele>
        <time>2019-03-26T10:44:25Z</time>
      </trkpt>
      <trkpt lat="42.953040" lon="-6.002520">
        <ele>1163.246</ele>
        <time>2019-03-26T10:44:45Z</time>
      </trkpt>
      <trkpt lat="42.953575" lon="-6.002630">
        <ele>1163.739</ele>
        <time>2019-03-26T10:45:05Z</time>
      </trkpt>
      <trkpt lat="42.954110" lon="-6.002740">
        <ele>1164.571</ele>
        <time>2019-03-26T10:45:25Z</time>
      </trkpt>
      <trkpt lat="42.954440" lon="-6.002710">
        <ele>1164.661</ele>
        <time>2019-03-26T10:45:45Z</time>
      </trkpt>
      <trkpt lat="42.954730" lon="-6.002620">
        <ele>1164.521</ele>
        <time>2019-03-26T10:46:05Z</time>
      </trkpt>
      <trkpt lat="42.955390" lon="-6.002310">
        <ele>1164.513</ele>
        <time>2019-03-26T10:46:25Z</time>
      </trkpt>
      <trkpt lat="42.956110" lon="-6.001990">
        <ele>1166.008</ele>
        <time>2019-03-26T10:46:45Z</time>
      </trkpt>
      <trkpt lat="42.956830" lon="-6.001670">
        <ele>1167.759</ele>
        <time>2019-03-26T10:47:05Z</time>
      </trkpt>
      <trkpt lat="42.957670" lon="-6.001330">
        <ele>1168.340</ele>
        <time>2019-03-26T10:47:25Z</time>
      </trkpt>
      <trkpt lat="42.957950" lon="-6.001260">
        <ele>1167.771</ele>
        <time>2019-03-26T10:47:45Z</time>
      </trkpt>
      <trkpt lat="42.958190" lon="-6.001260">
        <ele>1166.720</ele>
        <time>2019-03-26T10:48:05Z</time>
      </trkpt>
      <trkpt lat="42.958620" lon="-6.001330">
        <ele>1167.062</ele>
        <time>2019-03-26T10:48:25Z</time>
      </trkpt>
      <trkpt lat="42.958770" lon="-6.001400">
        <ele>1167.060</ele>
        <time>2019-03-26T10:48:45Z</time>
      </trkpt>
      <trkpt lat="42.958990" lon="-6.001500">
        <ele>1168.053</ele>
        <time>2019-03-26T10:49:05Z</time>
      </trkpt>
      <trkpt lat="42.959593" lon="-6.001943">
        <ele>1169.675</ele>
        <time>2019-03-26T10:49:25Z</time>
      </trkpt>
      <trkpt lat="42.960197" lon="-6.002387">
        <ele>1171.128</ele>
        <time>2019-03-26T10:49:45Z</time>
      </trkpt>
      <trkpt lat="42.960800" lon="-6.002830">
        <ele>1170.989</ele>
        <time>2019-03-26T10:50:05Z</time>
      </trkpt>
      <trkpt lat="42.961040" lon="-6.002920">
        <ele>1171.117</ele>
        <time>2019-03-26T10:50:25Z</time>
      </trkpt>
      <trkpt lat="42.961590" lon="-6.002995">
        <ele>1173.608</ele>
        <time>2019-03-26T10:50:45Z</time>
      </trkpt>
      <trkpt lat="42.962140" lon="-6.003070">
        <ele>1176.335</ele>
        <time>2019-03-26T10:51:05Z</time>
      </trkpt>
      <trkpt lat="42.962440" lon="-6.003050">
        <ele>1178.126</ele>
        <time>2019-03-26T10:51:25Z</time>
      </trkpt>
      <trkpt lat="42.963163" lon="-6.002993">
        <ele>1179.337</ele>
        <time>2019-03-26T10:51:45Z</time>
      </trkpt>
      <trkpt lat="42.963887" lon="-6.002937">
        <ele>1177.946</ele>
        <time>2019-03-26T10:52:05Z</time>
      </trkpt>
      <trkpt lat="42.964610" lon="-6.002880">
        <ele>1178.018</ele>
        <time>2019-03-26T10:52:25Z</time>
      </trkpt>
      <trkpt lat="42.965200" lon="-6.002850">
        <ele>1177.446</ele>
        <time>2019-03-26T10:52:45Z</time>
      </trkpt>
      <trkpt lat="42.965430" lon="-6.002880">
        <ele>1176.429</ele>
        <time>2019-03-26T10:53:05Z</time>
      </trkpt>
      <trkpt lat="42.965840" lon="-6.003090">
        <ele>1175.381</ele>
        <time>2019-03-26T10:53:25Z</time>
      </trkpt>
      <trkpt lat="42.966030" lon="-6.003160">
        <ele>1174.849</ele>
        <time>2019-03-26T10:53:45Z</time>
      </trkpt>
      <trkpt lat="42.966250" lon="-6.003130">
        <ele>1174.502</ele>
        <time>2019-03-26T10:54:05Z</time>
      </trkpt>
      <trkpt lat="42.967093" lon="-6.002777">
        <ele>1171.222</ele>
        <time>2019-03-26T10:54:25Z</time>
      </trkpt>
      <trkpt lat="42.967937" lon="-6.002423">
        <ele>1170.908</ele>
        <time>2019-03-26T10:54:45Z</time>
      </trkpt>
      <trkpt lat="42.968780" lon="-6.002070">
        <ele>1171.617</ele>
        <time>2019-03-26T10:55:05Z</time>
      </trkpt>
      <trkpt lat="42.969373" lon="-6.001830">
        <ele>1173.998</ele>
        <time>2019-03-26T10:55:25Z</time>
      </trkpt>
      <trkpt lat="42.969967" lon="-6.001590">
        <ele>1175.039</ele>
        <time>2019-03-26T10:55:45Z</time>
      </trkpt>
      <trkpt lat="42.970560" lon="-6.001350">
        <ele>1177.628</ele>
        <time>2019-03-26T10:56:05Z</time>
      </trkpt>
      <trkpt lat="42.970770" lon="-6.001160">
        <ele>1178.460</ele>
        <time>2019-03-26T10:56:25Z</time>
      </trkpt>
      <trkpt lat="42.971130" lon="-6.000650">
        <ele>1179.878</ele>
        <time>2019-03-26T10:56:45Z</time>
      </trkpt>
      <trkpt lat="42.971350" lon="-6.000430">
        <ele>1180.891</ele>
        <time>2019-03-26T10:57:05Z</time>
      </trkpt>
      <trkpt lat="42.971420" lon="-6.000480">
        <ele>1180.823</ele>
        <time>2019-03-26T10:57:25Z</time>
      </trkpt>
      <trkpt lat="42.971590" lon="-6.000730">
        <ele>1180.364</ele>
        <time>2019-03-26T10:57:45Z</time>
      </trkpt>
      <trkpt lat="42.971700" lon="-6.000790">
        <ele>1180.706</ele>
        <time>2019-03-26T10:58:05Z</time>
      </trkpt>
      <trkpt lat="42.971800" lon="-6.000810">
        <ele>1181.016</ele>
        <time>2019-03-26T10:58:25Z</time>
      </trkpt>
      <trkpt lat="42.972440" lon="-6.000670">
        <ele>1181.408</ele>
        <time>2019-03-26T10:58:45Z</time>
      </trkpt>
      <trkpt lat="42.972970" lon="-6.000790">
        <ele>1182.329</ele>
        <time>2019-03-26T10:59:05Z</time>
      </trkpt>
      <trkpt lat="42.973170" lon="-6.000790">
        <ele>1182.010</ele>
        <time>2019-03-26T10:59:25Z</time>
      </trkpt>
      <trkpt lat="42.974030" lon="-6.000660">
        <ele>1179.731</ele>
        <time>2019-03-26T10:59:45Z</time>
      </trkpt>
      <trkpt lat="42.974565" lon="-6.000595">
        <ele>1181.110</ele>
        <time>2019-03-26T11:00:05Z</time>
      </trkpt>
      <trkpt lat="42.975100" lon="-6.000530">
        <ele>1182.482</ele>
        <time>2019-03-26T11:00:25Z</time>
      </trkpt>
      <trkpt lat="42.975450" lon="-6.000530">
        <ele>1182.980</ele>
        <time>2019-03-26T11:00:45Z</time>
      </trkpt>
      <trkpt lat="42.975850" lon="-6.000550">
        <ele>1182.643</ele>
        <time>2019-03-26T11:01:05Z</time>
      </trkpt>
      <trkpt lat="42.976470" lon="-6.000620">
        <ele>1182.755</ele>
        <time>2019-03-26T11:01:25Z</time>
      </trkpt>
      <trkpt lat="42.977248" lon="-6.000800">
        <ele>1183.593</ele>
        <time>2019-03-26T11:01:45Z</time>
      </trkpt>
      <trkpt lat="42.978027" lon="-6.000980">
        <ele>1184.365</ele>
        <time>2019-03-26T11:02:05Z</time>
      </trkpt>
      <trkpt lat="42.978805" lon="-6.001160">
        <ele>1184.821</ele>
        <time>2019-03-26T11:02:25Z</time>
      </trkpt>
      <trkpt lat="42.979583" lon="-6.001340">
        <ele>1185.108</ele>
        <time>2019-03-26T11:02:45Z</time>
      </trkpt>
      <trkpt lat="42.980362" lon="-6.001520">
        <ele>1186.662</ele>
        <time>2019-03-26T11:03:05Z</time>
      </trkpt>
      <trkpt lat="42.981140" lon="-6.001700">
        <ele>1187.013</ele>
        <time>2019-03-26T11:03:25Z</time>
      </trkpt>
      <trkpt lat="42.981390" lon="-6.001710">
        <ele>1187.584</ele>
        <time>2019-03-26T11:03:45Z</time>
      </trkpt>
      <trkpt lat="42.981680" lon="-6.001680">
        <ele>1188.263</ele>
        <time>2019-03-26T11:04:05Z</time>
      </trkpt>
      <trkpt lat="42.982490" lon="-6.001420">
        <ele>1188.535</ele>
        <time>2019-03-26T11:04:25Z</time>
      </trkpt>
      <trkpt lat="42.983300" lon="-6.001160">
        <ele>1190.913</ele>
        <time>2019-03-26T11:04:45Z</time>
      </trkpt>
      <trkpt lat="42.984110" lon="-6.000900">
        <ele>1192.156</ele>
        <time>2019-03-26T11:05:05Z</time>
      </trkpt>
      <trkpt lat="42.984660" lon="-6.000715">
        <ele>1192.728</ele>
        <time>2019-03-26T11:05:25Z</time>
      </trkpt>
      <trkpt lat="42.985210" lon="-6.000530">
        <ele>1193.274</ele>
        <time>2019-03-26T11:05:45Z</time>
      </trkpt>
      <trkpt lat="42.986018" lon="-6.000272">
        <ele>1194.156</ele>
        <time>2019-03-26T11:06:05Z</time>
      </trkpt>
      <trkpt lat="42.986826" lon="-6.000014">
        <ele>1195.921</ele>
        <time>2019-03-26T11:06:25Z</time>
      </trkpt>
      <trkpt lat="42.987633" lon="-5.999757">
        <ele>1197.308</ele>
        <time>2019-03-26T11:06:45Z</time>
      </trkpt>
      <trkpt lat="42.988441" lon="-5.999499">
        <ele>1200.680</ele>
        <time>2019-03-26T11:07:05Z</time>
      </trkpt>
      <trkpt lat="42.989249" lon="-5.999241">
        <ele>1201.421</ele>
        <time>2019-03-26T11:07:25Z</time>
      </trkpt>
      <trkpt lat="42.990057" lon="-5.998983">
        <ele>1202.892</ele>
        <time>2019-03-26T11:07:45Z</time>
      </trkpt>
      <trkpt lat="42.990864" lon="-5.998726">
        <ele>1205.351</ele>
        <time>2019-03-26T11:08:05Z</time>
      </trkpt>
      <trkpt lat="42.991672" lon="-5.998468">
        <ele>1206.823</ele>
        <time>2019-03-26T11:08:25Z</time>
      </trkpt>
      <trkpt lat="42.992480" lon="-5.998210">
        <ele>1209.171</ele>
        <time>2019-03-26T11:08:45Z</time>
      </trkpt>
      <trkpt lat="42.992750" lon="-5.998140">
        <ele>1209.564</ele>
        <time>2019-03-26T11:09:05Z</time>
      </trkpt>
      <trkpt lat="42.993010" lon="-5.998140">
        <ele>1209.696</ele>
        <time>2019-03-26T11:09:25Z</time>
      </trkpt>
      <trkpt lat="42.993754" lon="-5.998276">
        <ele>1209.339</ele>
        <time>2019-03-26T11:09:45Z</time>
      </trkpt>
      <trkpt lat="42.994498" lon="-5.998412">
        <ele>1209.301</ele>
        <time>2019-03-26T11:10:05Z</time>
      </trkpt>
      <trkpt lat="42.995242" lon="-5.998548">
        <ele>1210.721</ele>
        <time>2019-03-26T11:10:25Z</time>
      </trkpt>
      <trkpt lat="42.995986" lon="-5.998684">
        <ele>1213.608</ele>
        <time>2019-03-26T11:10:45Z</time>
      </trkpt>
      <trkpt lat="42.996730" lon="-5.998820">
        <ele>1215.516</ele>
        <time>2019-03-26T11:11:05Z</time>
      </trkpt>
      <trkpt lat="42.996850" lon="-5.998810">
        <ele>1215.537</ele>
        <time>2019-03-26T11:11:25Z</time>
      </trkpt>
      <trkpt lat="42.997300" lon="-5.998820">
        <ele>1216.278</ele>
        <time>2019-03-26T11:11:45Z</time>
      </trkpt>
      <trkpt lat="42.997600" lon="-5.998770">
        <ele>1216.787</ele>
        <time>2019-03-26T11:12:05Z</time>
      </trkpt>
      <trkpt lat="42.998145" lon="-5.998530">
        <ele>1217.799</ele>
        <time>2019-03-26T11:12:25Z</time>
      </trkpt>
      <trkpt lat="42.998690" lon="-5.998290">
        <ele>1218.927</ele>
        <time>2019-03-26T11:12:45Z</time>
      </trkpt>
      <trkpt lat="42.999410" lon="-5.997910">
        <ele>1220.650</ele>
        <time>2019-03-26T11:13:05Z</time>
      </trkpt>
      <trkpt lat="43.000130" lon="-5.997530">
        <ele>1221.582</ele>
        <time>2019-03-26T11:13:25Z</time>
      </trkpt>
      <trkpt lat="43.000850" lon="-5.997150">
        <ele>1223.327</ele>
        <time>2019-03-26T11:13:45Z</time>
      </trkpt>
      <trkpt lat="43.001510" lon="-5.996710">
        <ele>1225.068</ele>
        <time>2019-03-26T11:14:05Z</time>
      </trkpt>
      <trkpt lat="43.001890" lon="-5.996370">
        <ele>1227.014</ele>
        <time>2019-03-26T11:14:25Z</time>
      </trkpt>
      <trkpt lat="43.002270" lon="-5.996030">
        <ele>1227.008</ele>
        <time>2019-03-26T11:14:45Z</time>
      </trkpt>
      <trkpt lat="43.002540" lon="-5.995910">
        <ele>1228.545</ele>
        <time>2019-03-26T11:15:05Z</time>
      </trkpt>
      <trkpt lat="43.002840" lon="-5.995910">
        <ele>1229.046</ele>
        <time>2019-03-26T11:15:25Z</time>
      </trkpt>
      <trkpt lat="43.003713" lon="-5.995997">
        <ele>1231.797</ele>
        <time>2019-03-26T11:15:45Z</time>
      </trkpt>
      <trkpt lat="43.004587" lon="-5.996083">
        <ele>1235.266</ele>
        <time>2019-03-26T11:16:05Z</time>
      </trkpt>
      <trkpt lat="43.005460" lon="-5.996170">
        <ele>1238.388</ele>
        <time>2019-03-26T11:16:25Z</time>
      </trkpt>
      <trkpt lat="43.005680" lon="-5.996250">
        <ele>1238.836</ele>
        <time>2019-03-26T11:16:45Z</time>
      </trkpt>
      <trkpt lat="43.005790" lon="-5.996340">
        <ele>1239.489</ele>
        <time>2019-03-26T11:17:05Z</time>
      </trkpt>
      <trkpt lat="43.006050" lon="-5.996470">
        <ele>1240.811</ele>
        <time>2019-03-26T11:17:25Z</time>
      </trkpt>
      <trkpt lat="43.006230" lon="-5.996430">
        <ele>1241.412</ele>
        <time>2019-03-26T11:17:45Z</time>
      </trkpt>
      <trkpt lat="43.006750" lon="-5.996250">
        <ele>1244.232</ele>
        <time>2019-03-26T11:18:05Z</time>
      </trkpt>
      <trkpt lat="43.007390" lon="-5.996120">
        <ele>1249.305</ele>
        <time>2019-03-26T11:18:25Z</time>
      </trkpt>
      <trkpt lat="43.007910" lon="-5.996180">
        <ele>1251.408</ele>
        <time>2019-03-26T11:18:45Z</time>
      </trkpt>
      <trkpt lat="43.008430" lon="-5.996240">
        <ele>1252.844</ele>
        <time>2019-03-26T11:19:05Z</time>
      </trkpt>
      <trkpt lat="43.008650" lon="-5.996290">
        <ele>1253.295</ele>
        <time>2019-03-26T11:19:25Z</time>
      </trkpt>
      <trkpt lat="43.009295" lon="-5.996720">
        <ele>1253.216</ele>
        <time>2019-03-26T11:19:45Z</time>
      </trkpt>
      <trkpt lat="43.009940" lon="-5.997150">
        <ele>1254.235</ele>
        <time>2019-03-26T11:20:05Z</time>
      </trkpt>
      <trkpt lat="43.010730" lon="-5.997710">
        <ele>1255.467</ele>
        <time>2019-03-26T11:20:25Z</time>
      </trkpt>
      <trkpt lat="43.011175" lon="-5.997945">
        <ele>1256.835</ele>
        <time>2019-03-26T11:20:45Z</time>
      </trkpt>
      <trkpt lat="43.011620" lon="-5.998180">
        <ele>1258.748</ele>
        <time>2019-03-26T11:21:05Z</time>
      </trkpt>
      <trkpt lat="43.012363" lon="-5.998483">
        <ele>1260.770</ele>
        <time>2019-03-26T11:21:25Z</time>
      </trkpt>
      <trkpt lat="43.013106" lon="-5.998786">
        <ele>1262.659</ele>
        <time>2019-03-26T11:21:45Z</time>
      </trkpt>
      <trkpt lat="43.013849" lon="-5.999089">
        <ele>1265.103</ele>
        <time>2019-03-26T11:22:05Z</time>
      </trkpt>
      <trkpt lat="43.014591" lon="-5.999391">
        <ele>1268.623</ele>
        <time>2019-03-26T11:22:25Z</time>
      </trkpt>
      <trkpt lat="43.015334" lon="-5.999694">
        <ele>1271.508</ele>
        <time>2019-03-26T11:22:45Z</time>
      </trkpt>
      <trkpt lat="43.016077" lon="-5.999997">
        <ele>1275.098</ele>
        <time>2019-03-26T11:23:05Z</time>
      </trkpt>
      <trkpt lat="43.016820" lon="-6.000300">
        <ele>1277.879</ele>
        <time>2019-03-26T11:23:25Z</time>
      </trkpt>
      <trkpt lat="43.017560" lon="-6.000530">
        <ele>1279.960</ele>
        <time>2019-03-26T11:23:45Z</time>
      </trkpt>
      <trkpt lat="43.018130" lon="-6.000620">
        <ele>1281.689</ele>
        <time>2019-03-26T11:24:05Z</time>
      </trkpt>
      <trkpt lat="43.018930" lon="-6.000690">
        <ele>1285.791</ele>
        <time>2019-03-26T11:24:25Z</time>
      </trkpt>
      <trkpt lat="43.019730" lon="-6.000760">
        <ele>1291.039</ele>
        <time>2019-03-26T11:24:45Z</time>
      </trkpt>
      <trkpt lat="43.020530" lon="-6.000830">
        <ele>1292.372</ele>
        <time>2019-03-26T11:25:05Z</time>
      </trkpt>
      <trkpt lat="43.021330" lon="-6.000900">
        <ele>1294.124</ele>
        <time>2019-03-26T11:25:25Z</time>
      </trkpt>
      <trkpt lat="43.021995" lon="-6.000940">
        <ele>1295.714</ele>
        <time>2019-03-26T11:25:45Z</time>
      </trkpt>
      <trkpt lat="43.022660" lon="-6.000980">
        <ele>1296.354</ele>
        <time>2019-03-26T11:26:05Z</time>
      </trkpt>
      <trkpt lat="43.023470" lon="-6.000895">
        <ele>1296.409</ele>
        <time>2019-03-26T11:26:25Z</time>
      </trkpt>
      <trkpt lat="43.024280" lon="-6.000810">
        <ele>1294.708</ele>
        <time>2019-03-26T11:26:45Z</time>
      </trkpt>
      <trkpt lat="43.024730" lon="-6.000830">
        <ele>1294.244</ele>
        <time>2019-03-26T11:27:05Z</time>
      </trkpt>
      <trkpt lat="43.025050" lon="-6.000930">
        <ele>1293.225</ele>
        <time>2019-03-26T11:27:25Z</time>
      </trkpt>
      <trkpt lat="43.025580" lon="-6.001300">
        <ele>1289.246</ele>
        <time>2019-03-26T11:27:45Z</time>
      </trkpt>
      <trkpt lat="43.025840" lon="-6.001660">
        <ele>1285.795</ele>
        <time>2019-03-26T11:28:05Z</time>
      </trkpt>
      <trkpt lat="43.025960" lon="-6.001870">
        <ele>1284.087</ele>
        <time>2019-03-26T11:28:25Z</time>
      </trkpt>
      <trkpt lat="43.026395" lon="-6.002845">
        <ele>1278.085</ele>
        <time>2019-03-26T11:28:45Z</time>
      </trkpt>
      <trkpt lat="43.026830" lon="-6.003820">
        <ele>1275.628</ele>
        <time>2019-03-26T11:29:05Z</time>
      </trkpt>
      <trkpt lat="43.027190" lon="-6.004240">
        <ele>1277.870</ele>
        <time>2019-03-26T11:29:25Z</time>
      </trkpt>
      <trkpt lat="43.027745" lon="-6.004740">
        <ele>1280.587</ele>
        <time>2019-03-26T11:29:45Z</time>
      </trkpt>
      <trkpt lat="43.028300" lon="-6.005240">
        <ele>1282.442</ele>
        <time>2019-03-26T11:30:05Z</time>
      </trkpt>
      <trkpt lat="43.028460" lon="-6.005550">
        <ele>1282.526</ele>
        <time>2019-03-26T11:30:25Z</time>
      </trkpt>
      <trkpt lat="43.028570" lon="-6.006540">
        <ele>1284.108</ele>
        <time>2019-03-26T11:30:45Z</time>
      </trkpt>
      <trkpt lat="43.028670" lon="-6.006820">
        <ele>1285.241</ele>
        <time>2019-03-26T11:31:05Z</time>
      </trkpt>
      <trkpt lat="43.028800" lon="-6.006980">
        <ele>1285.912</ele>
        <time>2019-03-26T11:31:25Z</time>
      </trkpt>
      <trkpt lat="43.028980" lon="-6.007100">
        <ele>1286.533</ele>
        <time>2019-03-26T11:31:45Z</time>
      </trkpt>
      <trkpt lat="43.029705" lon="-6.007485">
        <ele>1289.962</ele>
        <time>2019-03-26T11:32:05Z</time>
      </trkpt>
      <trkpt lat="43.030430" lon="-6.007870">
        <ele>1292.514</ele>
        <time>2019-03-26T11:32:25Z</time>
      </trkpt>
      <trkpt lat="43.030940" lon="-6.008365">
        <ele>1295.772</ele>
        <time>2019-03-26T11:32:45Z</time>
      </trkpt>
      <trkpt lat="43.031450" lon="-6.008860">
        <ele>1299.455</ele>
        <time>2019-03-26T11:33:05Z</time>
      </trkpt>
      <trkpt lat="43.031580" lon="-6.009100">
        <ele>1300.437</ele>
        <time>2019-03-26T11:33:25Z</time>
      </trkpt>
      <trkpt lat="43.031680" lon="-6.009350">
        <ele>1302.593</ele>
        <time>2019-03-26T11:33:45Z</time>
      </trkpt>
      <trkpt lat="43.031785" lon="-6.010020">
        <ele>1305.065</ele>
        <time>2019-03-26T11:34:05Z</time>
      </trkpt>
      <trkpt lat="43.031890" lon="-6.010690">
        <ele>1307.721</ele>
        <time>2019-03-26T11:34:25Z</time>
      </trkpt>
      <trkpt lat="43.031910" lon="-6.011060">
        <ele>1309.108</ele>
        <time>2019-03-26T11:34:45Z</time>
      </trkpt>
      <trkpt lat="43.031890" lon="-6.011820">
        <ele>1312.552</ele>
        <time>2019-03-26T11:35:05Z</time>
      </trkpt>
      <trkpt lat="43.031950" lon="-6.012030">
        <ele>1314.353</ele>
        <time>2019-03-26T11:35:25Z</time>
      </trkpt>
      <trkpt lat="43.032030" lon="-6.012190">
        <ele>1315.734</ele>
        <time>2019-03-26T11:35:45Z</time>
      </trkpt>
      <trkpt lat="43.032605" lon="-6.013025">
        <ele>1322.973</ele>
        <time>2019-03-26T11:36:05Z</time>
      </trkpt>
      <trkpt lat="43.033180" lon="-6.013860">
        <ele>1335.495</ele>
        <time>2019-03-26T11:36:25Z</time>
      </trkpt>
      <trkpt lat="43.033470" lon="-6.014320">
        <ele>1340.913</ele>
        <time>2019-03-26T11:36:45Z</time>
      </trkpt>
      <trkpt lat="43.033620" lon="-6.014560">
        <ele>1343.166</ele>
        <time>2019-03-26T11:37:05Z</time>
      </trkpt>
      <trkpt lat="43.033690" lon="-6.014790">
        <ele>1343.198</ele>
        <time>2019-03-26T11:37:25Z</time>
      </trkpt>
      <trkpt lat="43.033700" lon="-6.015050">
        <ele>1345.267</ele>
        <time>2019-03-26T11:37:45Z</time>
      </trkpt>
      <trkpt lat="43.033680" lon="-6.015240">
        <ele>1345.281</ele>
        <time>2019-03-26T11:38:05Z</time>
      </trkpt>
      <trkpt lat="43.033620" lon="-6.015450">
        <ele>1346.719</ele>
        <time>2019-03-26T11:38:25Z</time>
      </trkpt>
      <trkpt lat="43.033510" lon="-6.015670">
        <ele>1347.708</ele>
        <time>2019-03-26T11:38:45Z</time>
      </trkpt>
      <trkpt lat="43.033370" lon="-6.015830">
        <ele>1348.719</ele>
        <time>2019-03-26T11:39:05Z</time>
      </trkpt>
      <trkpt lat="43.032740" lon="-6.016300">
        <ele>1355.490</ele>
        <time>2019-03-26T11:39:25Z</time>
      </trkpt>
      <trkpt lat="43.032380" lon="-6.016860">
        <ele>1358.591</ele>
        <time>2019-03-26T11:39:45Z</time>
      </trkpt>
      <trkpt lat="43.032350" lon="-6.017010">
        <ele>1359.320</ele>
        <time>2019-03-26T11:40:05Z</time>
      </trkpt>
      <trkpt lat="43.032350" lon="-6.017160">
        <ele>1359.352</ele>
        <time>2019-03-26T11:40:25Z</time>
      </trkpt>
      <trkpt lat="43.032400" lon="-6.017300">
        <ele>1361.220</ele>
        <time>2019-03-26T11:40:45Z</time>
      </trkpt>
      <trkpt lat="43.032500" lon="-6.017400">
        <ele>1361.233</ele>
        <time>2019-03-26T11:41:05Z</time>
      </trkpt>
      <trkpt lat="43.032600" lon="-6.017450">
        <ele>1361.885</ele>
        <time>2019-03-26T11:41:25Z</time>
      </trkpt>
      <trkpt lat="43.032700" lon="-6.017440">
        <ele>1361.831</ele>
        <time>2019-03-26T11:41:45Z</time>
      </trkpt>
      <trkpt lat="43.032790" lon="-6.017380">
        <ele>1362.361</ele>
        <time>2019-03-26T11:42:05Z</time>
      </trkpt>
      <trkpt lat="43.033100" lon="-6.016960">
        <ele>1365.907</ele>
        <time>2019-03-26T11:42:25Z</time>
      </trkpt>
      <trkpt lat="43.033430" lon="-6.016760">
        <ele>1367.708</ele>
        <time>2019-03-26T11:42:45Z</time>
      </trkpt>
      <trkpt lat="43.033660" lon="-6.016650">
        <ele>1368.396</ele>
        <time>2019-03-26T11:43:05Z</time>
      </trkpt>
      <trkpt lat="43.033920" lon="-6.016460">
        <ele>1369.637</ele>
        <time>2019-03-26T11:43:25Z</time>
      </trkpt>
      <trkpt lat="43.034060" lon="-6.016300">
        <ele>1370.958</ele>
        <time>2019-03-26T11:43:45Z</time>
      </trkpt>
      <trkpt lat="43.034270" lon="-6.015990">
        <ele>1373.167</ele>
        <time>2019-03-26T11:44:05Z</time>
      </trkpt>
      <trkpt lat="43.034490" lon="-6.015600">
        <ele>1374.369</ele>
        <time>2019-03-26T11:44:25Z</time>
      </trkpt>
      <trkpt lat="43.034670" lon="-6.014980">
        <ele>1378.257</ele>
        <time>2019-03-26T11:44:45Z</time>
      </trkpt>
      <trkpt lat="43.034800" lon="-6.014110">
        <ele>1382.170</ele>
        <time>2019-03-26T11:45:05Z</time>
      </trkpt>
      <trkpt lat="43.034860" lon="-6.013930">
        <ele>1383.382</ele>
        <time>2019-03-26T11:45:25Z</time>
      </trkpt>
      <trkpt lat="43.034940" lon="-6.013770">
        <ele>1384.533</ele>
        <time>2019-03-26T11:45:45Z</time>
      </trkpt>
      <trkpt lat="43.035260" lon="-6.013320">
        <ele>1387.523</ele>
        <time>2019-03-26T11:46:05Z</time>
      </trkpt>
      <trkpt lat="43.035490" lon="-6.012820">
        <ele>1389.315</ele>
        <time>2019-03-26T11:46:25Z</time>
      </trkpt>
      <trkpt lat="43.035790" lon="-6.012380">
        <ele>1392.708</ele>
        <time>2019-03-26T11:46:45Z</time>
      </trkpt>
      <trkpt lat="43.036050" lon="-6.012140">
        <ele>1393.916</ele>
        <time>2019-03-26T11:47:05Z</time>
      </trkpt>
      <trkpt lat="43.036190" lon="-6.012070">
        <ele>1395.187</ele>
        <time>2019-03-26T11:47:25Z</time>
      </trkpt>
      <trkpt lat="43.036280" lon="-6.012050">
        <ele>1395.128</ele>
        <time>2019-03-26T11:47:45Z</time>
      </trkpt>
      <trkpt lat="43.036490" lon="-6.012080">
        <ele>1397.297</ele>
        <time>2019-03-26T11:48:05Z</time>
      </trkpt>
      <trkpt lat="43.036630" lon="-6.012170">
        <ele>1398.529</ele>
        <time>2019-03-26T11:48:25Z</time>
      </trkpt>
      <trkpt lat="43.036720" lon="-6.012280">
        <ele>1399.347</ele>
        <time>2019-03-26T11:48:45Z</time>
      </trkpt>
      <trkpt lat="43.036790" lon="-6.012420">
        <ele>1400.270</ele>
        <time>2019-03-26T11:49:05Z</time>
      </trkpt>
      <trkpt lat="43.036840" lon="-6.012590">
        <ele>1400.612</ele>
        <time>2019-03-26T11:49:25Z</time>
      </trkpt>
      <trkpt lat="43.036850" lon="-6.012870">
        <ele>1401.047</ele>
        <time>2019-03-26T11:49:45Z</time>
      </trkpt>
      <trkpt lat="43.036770" lon="-6.013200">
        <ele>1401.929</ele>
        <time>2019-03-26T11:50:05Z</time>
      </trkpt>
      <trkpt lat="43.036680" lon="-6.013390">
        <ele>1402.821</ele>
        <time>2019-03-26T11:50:25Z</time>
      </trkpt>
      <trkpt lat="43.036440" lon="-6.013760">
        <ele>1404.608</ele>
        <time>2019-03-26T11:50:45Z</time>
      </trkpt>
      <trkpt lat="43.036410" lon="-6.013830">
        <ele>1405.217</ele>
        <time>2019-03-26T11:51:05Z</time>
      </trkpt>
      <trkpt lat="43.036400" lon="-6.013950">
        <ele>1405.288</ele>
        <time>2019-03-26T11:51:25Z</time>
      </trkpt>
      <trkpt lat="43.036430" lon="-6.014070">
        <ele>1405.879</ele>
        <time>2019-03-26T11:51:45Z</time>
      </trkpt>
      <trkpt lat="43.036480" lon="-6.014180">
        <ele>1405.828</ele>
        <time>2019-03-26T11:52:05Z</time>
      </trkpt>
      <trkpt lat="43.036540" lon="-6.014230">
        <ele>1406.730</ele>
        <time>2019-03-26T11:52:25Z</time>
      </trkpt>
      <trkpt lat="43.036610" lon="-6.014250">
        <ele>1406.748</ele>
        <time>2019-03-26T11:52:45Z</time>
      </trkpt>
      <trkpt lat="43.036720" lon="-6.014230">
        <ele>1407.181</ele>
        <time>2019-03-26T11:53:05Z</time>
      </trkpt>
      <trkpt lat="43.036860" lon="-6.014120">
        <ele>1407.173</ele>
        <time>2019-03-26T11:53:25Z</time>
      </trkpt>
      <trkpt lat="43.037030" lon="-6.014050">
        <ele>1407.922</ele>
        <time>2019-03-26T11:53:45Z</time>
      </trkpt>
      <trkpt lat="43.037530" lon="-6.013930">
        <ele>1409.862</ele>
        <time>2019-03-26T11:54:05Z</time>
      </trkpt>
      <trkpt lat="43.038180" lon="-6.013840">
        <ele>1411.208</ele>
        <time>2019-03-26T11:54:25Z</time>
      </trkpt>
      <trkpt lat="43.038680" lon="-6.013810">
        <ele>1412.908</ele>
        <time>2019-03-26T11:54:45Z</time>
      </trkpt>
      <trkpt lat="43.038820" lon="-6.013760">
        <ele>1413.975</ele>
        <time>2019-03-26T11:55:05Z</time>
      </trkpt>
      <trkpt lat="43.039320" lon="-6.013360">
        <ele>1415.256</ele>
        <time>2019-03-26T11:55:25Z</time>
      </trkpt>
      <trkpt lat="43.039480" lon="-6.013320">
        <ele>1416.177</ele>
        <time>2019-03-26T11:55:45Z</time>
      </trkpt>
      <trkpt lat="43.039660" lon="-6.013340">
        <ele>1416.646</ele>
        <time>2019-03-26T11:56:05Z</time>
      </trkpt>
      <trkpt lat="43.040140" lon="-6.013460">
        <ele>1419.058</ele>
        <time>2019-03-26T11:56:25Z</time>
      </trkpt>
      <trkpt lat="43.040480" lon="-6.013480">
        <ele>1419.726</ele>
        <time>2019-03-26T11:56:45Z</time>
      </trkpt>
      <trkpt lat="43.040600" lon="-6.013410">
        <ele>1420.569</ele>
        <time>2019-03-26T11:57:05Z</time>
      </trkpt>
      <trkpt lat="43.040700" lon="-6.013320">
        <ele>1421.061</ele>
        <time>2019-03-26T11:57:25Z</time>
      </trkpt>
      <trkpt lat="43.040780" lon="-6.013200">
        <ele>1422.126</ele>
        <time>2019-03-26T11:57:45Z</time>
      </trkpt>
      <trkpt lat="43.040910" lon="-6.012850">
        <ele>1423.247</ele>
        <time>2019-03-26T11:58:05Z</time>
      </trkpt>
      <trkpt lat="43.041010" lon="-6.012640">
        <ele>1424.811</ele>
        <time>2019-03-26T11:58:25Z</time>
      </trkpt>
      <trkpt lat="43.041230" lon="-6.012420">
        <ele>1425.308</ele>
        <time>2019-03-26T11:58:45Z</time>
      </trkpt>
      <trkpt lat="43.041370" lon="-6.012360">
        <ele>1425.325</ele>
        <time>2019-03-26T11:59:05Z</time>
      </trkpt>
      <trkpt lat="43.041640" lon="-6.012350">
        <ele>1427.566</ele>
        <time>2019-03-26T11:59:25Z</time>
      </trkpt>
      <trkpt lat="43.042280" lon="-6.012450">
        <ele>1429.977</ele>
        <time>2019-03-26T11:59:45Z</time>
      </trkpt>
      <trkpt lat="43.042500" lon="-6.012450">
        <ele>1430.816</ele>
        <time>2019-03-26T12:00:05Z</time>
      </trkpt>
      <trkpt lat="43.042840" lon="-6.012350">
        <ele>1432.198</ele>
        <time>2019-03-26T12:00:25Z</time>
      </trkpt>
      <trkpt lat="43.042980" lon="-6.012360">
        <ele>1432.746</ele>
        <time>2019-03-26T12:00:45Z</time>
      </trkpt>
      <trkpt lat="43.043170" lon="-6.012420">
        <ele>1433.219</ele>
        <time>2019-03-26T12:01:05Z</time>
      </trkpt>
      <trkpt lat="43.043320" lon="-6.012520">
        <ele>1434.021</ele>
        <time>2019-03-26T12:01:25Z</time>
      </trkpt>
      <trkpt lat="43.043793" lon="-6.013100">
        <ele>1435.788</ele>
        <time>2019-03-26T12:01:45Z</time>
      </trkpt>
      <trkpt lat="43.044267" lon="-6.013680">
        <ele>1440.424</ele>
        <time>2019-03-26T12:02:05Z</time>
      </trkpt>
      <trkpt lat="43.044740" lon="-6.014260">
        <ele>1442.626</ele>
        <time>2019-03-26T12:02:25Z</time>
      </trkpt>
      <trkpt lat="43.044920" lon="-6.014400">
        <ele>1443.108</ele>
        <time>2019-03-26T12:02:45Z</time>
      </trkpt>
      <trkpt lat="43.045030" lon="-6.014450">
        <ele>1444.571</ele>
        <time>2019-03-26T12:03:05Z</time>
      </trkpt>
      <trkpt lat="43.045420" lon="-6.014490">
        <ele>1446.392</ele>
        <time>2019-03-26T12:03:25Z</time>
      </trkpt>
      <trkpt lat="43.045540" lon="-6.014560">
        <ele>1447.033</ele>
        <time>2019-03-26T12:03:45Z</time>
      </trkpt>
      <trkpt lat="43.045580" lon="-6.014630">
        <ele>1447.752</ele>
        <time>2019-03-26T12:04:05Z</time>
      </trkpt>
      <trkpt lat="43.045710" lon="-6.015240">
        <ele>1451.264</ele>
        <time>2019-03-26T12:04:25Z</time>
      </trkpt>
      <trkpt lat="43.045790" lon="-6.016320">
        <ele>1456.852</ele>
        <time>2019-03-26T12:04:45Z</time>
      </trkpt>
      <trkpt lat="43.045850" lon="-6.016790">
        <ele>1458.065</ele>
        <time>2019-03-26T12:05:05Z</time>
      </trkpt>
      <trkpt lat="43.045885" lon="-6.017600">
        <ele>1461.787</ele>
        <time>2019-03-26T12:05:25Z</time>
      </trkpt>
      <trkpt lat="43.045920" lon="-6.018410">
        <ele>1464.883</ele>
        <time>2019-03-26T12:05:45Z</time>
      </trkpt>
      <trkpt lat="43.045940" lon="-6.018570">
        <ele>1465.425</ele>
        <time>2019-03-26T12:06:05Z</time>
      </trkpt>
      <trkpt lat="43.046020" lon="-6.018900">
        <ele>1467.417</ele>
        <time>2019-03-26T12:06:25Z</time>
      </trkpt>
      <trkpt lat="43.046160" lon="-6.019180">
        <ele>1468.008</ele>
        <time>2019-03-26T12:06:45Z</time>
      </trkpt>
      <trkpt lat="43.046330" lon="-6.019440">
        <ele>1469.931</ele>
        <time>2019-03-26T12:07:05Z</time>
      </trkpt>
      <trkpt lat="43.046760" lon="-6.019740">
        <ele>1471.932</ele>
        <time>2019-03-26T12:07:25Z</time>
      </trkpt>
      <trkpt lat="43.047120" lon="-6.020240">
        <ele>1474.323</ele>
        <time>2019-03-26T12:07:45Z</time>
      </trkpt>
      <trkpt lat="43.047665" lon="-6.021037">
        <ele>1479.762</ele>
        <time>2019-03-26T12:08:05Z</time>
      </trkpt>
      <trkpt lat="43.048210" lon="-6.021835">
        <ele>1486.254</ele>
        <time>2019-03-26T12:08:25Z</time>
      </trkpt>
      <trkpt lat="43.048755" lon="-6.022632">
        <ele>1490.932</ele>
        <time>2019-03-26T12:08:45Z</time>
      </trkpt>
      <trkpt lat="43.049300" lon="-6.023430">
        <ele>1497.585</ele>
        <time>2019-03-26T12:09:05Z</time>
      </trkpt>
      <trkpt lat="43.049510" lon="-6.023510">
        <ele>1499.187</ele>
        <time>2019-03-26T12:09:25Z</time>
      </trkpt>
      <trkpt lat="43.049590" lon="-6.023500">
        <ele>1499.159</ele>
        <time>2019-03-26T12:09:45Z</time>
      </trkpt>
      <trkpt lat="43.049710" lon="-6.023430">
        <ele>1503.403</ele>
        <time>2019-03-26T12:10:05Z</time>
      </trkpt>
      <trkpt lat="43.049810" lon="-6.023310">
        <ele>1503.423</ele>
        <time>2019-03-26T12:10:25Z</time>
      </trkpt>
      <trkpt lat="43.049850" lon="-6.023170">
        <ele>1503.908</ele>
        <time>2019-03-26T12:10:45Z</time>
      </trkpt>
      <trkpt lat="43.049860" lon="-6.022870">
        <ele>1504.468</ele>
        <time>2019-03-26T12:11:05Z</time>
      </trkpt>
      <trkpt lat="43.049840" lon="-6.022680">
        <ele>1504.799</ele>
        <time>2019-03-26T12:11:25Z</time>
      </trkpt>
      <trkpt lat="43.049675" lon="-6.021820">
        <ele>1506.950</ele>
        <time>2019-03-26T12:11:45Z</time>
      </trkpt>
      <trkpt lat="43.049510" lon="-6.020960">
        <ele>1507.519</ele>
        <time>2019-03-26T12:12:05Z</time>
      </trkpt>
      <trkpt lat="43.049410" lon="-6.020690">
        <ele>1507.481</ele>
        <time>2019-03-26T12:12:25Z</time>
      </trkpt>
      <trkpt lat="43.049050" lon="-6.019980">
        <ele>1508.669</ele>
        <time>2019-03-26T12:12:45Z</time>
      </trkpt>
      <trkpt lat="43.049010" lon="-6.019790">
        <ele>1508.982</ele>
        <time>2019-03-26T12:13:05Z</time>
      </trkpt>
      <trkpt lat="43.049010" lon="-6.019670">
        <ele>1510.214</ele>
        <time>2019-03-26T12:13:25Z</time>
      </trkpt>
      <trkpt lat="43.049030" lon="-6.019540">
        <ele>1510.279</ele>
        <time>2019-03-26T12:13:45Z</time>
      </trkpt>
      <trkpt lat="43.049170" lon="-6.019110">
        <ele>1511.705</ele>
        <time>2019-03-26T12:14:05Z</time>
      </trkpt>
      <trkpt lat="43.049200" lon="-6.018930">
        <ele>1511.725</ele>
        <time>2019-03-26T12:14:25Z</time>
      </trkpt>
      <trkpt lat="43.049240" lon="-6.017890">
        <ele>1515.708</ele>
        <time>2019-03-26T12:14:45Z</time>
      </trkpt>
      <trkpt lat="43.049230" lon="-6.017020">
        <ele>1518.840</ele>
        <time>2019-03-26T12:15:05Z</time>
      </trkpt>
      <trkpt lat="43.049250" lon="-6.016810">
        <ele>1519.331</ele>
        <time>2019-03-26T12:15:25Z</time>
      </trkpt>
      <trkpt lat="43.049320" lon="-6.016630">
        <ele>1519.632</ele>
        <time>2019-03-26T12:15:45Z</time>
      </trkpt>
      <trkpt lat="43.049540" lon="-6.016390">
        <ele>1521.341</ele>
        <time>2019-03-26T12:16:05Z</time>
      </trkpt>
      <trkpt lat="43.049600" lon="-6.016250">
        <ele>1522.073</ele>
        <time>2019-03-26T12:16:25Z</time>
      </trkpt>
      <trkpt lat="43.049630" lon="-6.016130">
        <ele>1522.021</ele>
        <time>2019-03-26T12:16:45Z</time>
      </trkpt>
      <trkpt lat="43.049695" lon="-6.015495">
        <ele>1524.124</ele>
        <time>2019-03-26T12:17:05Z</time>
      </trkpt>
      <trkpt lat="43.049760" lon="-6.014860">
        <ele>1526.986</ele>
        <time>2019-03-26T12:17:25Z</time>
      </trkpt>
      <trkpt lat="43.049840" lon="-6.014580">
        <ele>1528.043</ele>
        <time>2019-03-26T12:17:45Z</time>
      </trkpt>
      <trkpt lat="43.049980" lon="-6.014350">
        <ele>1529.164</ele>
        <time>2019-03-26T12:18:05Z</time>
      </trkpt>
      <trkpt lat="43.050170" lon="-6.014160">
        <ele>1529.910</ele>
        <time>2019-03-26T12:18:25Z</time>
      </trkpt>
      <trkpt lat="43.050740" lon="-6.013740">
        <ele>1534.408</ele>
        <time>2019-03-26T12:18:45Z</time>
      </trkpt>
      <trkpt lat="43.050820" lon="-6.013650">
        <ele>1534.437</ele>
        <time>2019-03-26T12:19:05Z</time>
      </trkpt>
      <trkpt lat="43.050870" lon="-6.013570">
        <ele>1534.898</ele>
        <time>2019-03-26T12:19:25Z</time>
      </trkpt>
      <trkpt lat="43.050930" lon="-6.013410">
        <ele>1534.879</ele>
        <time>2019-03-26T12:19:45Z</time>
      </trkpt>
      <trkpt lat="43.051070" lon="-6.012730">
        <ele>1537.918</ele>
        <time>2019-03-26T12:20:05Z</time>
      </trkpt>
      <trkpt lat="43.051180" lon="-6.012500">
        <ele>1540.010</ele>
        <time>2019-03-26T12:20:25Z</time>
      </trkpt>
      <trkpt lat="43.051410" lon="-6.012260">
        <ele>1541.088</ele>
        <time>2019-03-26T12:20:45Z</time>
      </trkpt>
      <trkpt lat="43.051885" lon="-6.011885">
        <ele>1544.221</ele>
        <time>2019-03-26T12:21:05Z</time>
      </trkpt>
      <trkpt lat="43.052360" lon="-6.011510">
        <ele>1548.073</ele>
        <time>2019-03-26T12:21:25Z</time>
      </trkpt>
      <trkpt lat="43.052480" lon="-6.011370">
        <ele>1548.952</ele>
        <time>2019-03-26T12:21:45Z</time>
      </trkpt>
      <trkpt lat="43.052580" lon="-6.011020">
        <ele>1551.153</ele>
        <time>2019-03-26T12:22:05Z</time>
      </trkpt>
      <trkpt lat="43.052610" lon="-6.010570">
        <ele>1553.108</ele>
        <time>2019-03-26T12:22:25Z</time>
      </trkpt>
      <trkpt lat="43.052710" lon="-6.009850">
        <ele>1555.208</ele>
        <time>2019-03-26T12:22:45Z</time>
      </trkpt>
      <trkpt lat="43.052780" lon="-6.009520">
        <ele>1555.788</ele>
        <time>2019-03-26T12:23:05Z</time>
      </trkpt>
      <trkpt lat="43.053090" lon="-6.008950">
        <ele>1556.759</ele>
        <time>2019-03-26T12:23:25Z</time>
      </trkpt>
      <trkpt lat="43.053110" lon="-6.008810">
        <ele>1556.760</ele>
        <time>2019-03-26T12:23:45Z</time>
      </trkpt>
      <trkpt lat="43.053070" lon="-6.008560">
        <ele>1556.189</ele>
        <time>2019-03-26T12:24:05Z</time>
      </trkpt>
      <trkpt lat="43.053020" lon="-6.008320">
        <ele>1554.491</ele>
        <time>2019-03-26T12:24:25Z</time>
      </trkpt>
      <trkpt lat="43.053030" lon="-6.008130">
        <ele>1550.059</ele>
        <time>2019-03-26T12:24:45Z</time>
      </trkpt>
      <trkpt lat="43.053090" lon="-6.007970">
        <ele>1550.022</ele>
        <time>2019-03-26T12:25:05Z</time>
      </trkpt>
      <trkpt lat="43.053200" lon="-6.007860">
        <ele>1549.194</ele>
        <time>2019-03-26T12:25:25Z</time>
      </trkpt>
      <trkpt lat="43.053480" lon="-6.007830">
        <ele>1550.214</ele>
        <time>2019-03-26T12:25:45Z</time>
      </trkpt>
      <trkpt lat="43.053730" lon="-6.007730">
        <ele>1552.154</ele>
        <time>2019-03-26T12:26:05Z</time>
      </trkpt>
      <trkpt lat="43.054335" lon="-6.007240">
        <ele>1556.809</ele>
        <time>2019-03-26T12:26:25Z</time>
      </trkpt>
      <trkpt lat="43.054940" lon="-6.006750">
        <ele>1563.008</ele>
        <time>2019-03-26T12:26:45Z</time>
      </trkpt>
      <trkpt lat="43.055030" lon="-6.006730">
        <ele>1564.014</ele>
        <time>2019-03-26T12:27:05Z</time>
      </trkpt>
      <trkpt lat="43.055350" lon="-6.006860">
        <ele>1565.395</ele>
        <time>2019-03-26T12:27:25Z</time>
      </trkpt>
      <trkpt lat="43.055500" lon="-6.006860">
        <ele>1567.786</ele>
        <time>2019-03-26T12:27:45Z</time>
      </trkpt>
      <trkpt lat="43.055620" lon="-6.006840">
        <ele>1568.265</ele>
        <time>2019-03-26T12:28:05Z</time>
      </trkpt>
      <trkpt lat="43.056030" lon="-6.006610">
        <ele>1571.137</ele>
        <time>2019-03-26T12:28:25Z</time>
      </trkpt>
      <trkpt lat="43.056810" lon="-6.006230">
        <ele>1576.075</ele>
        <time>2019-03-26T12:28:45Z</time>
      </trkpt>
      <trkpt lat="43.056900" lon="-6.006160">
        <ele>1576.818</ele>
        <time>2019-03-26T12:29:05Z</time>
      </trkpt>
      <trkpt lat="43.056990" lon="-6.006040">
        <ele>1578.170</ele>
        <time>2019-03-26T12:29:25Z</time>
      </trkpt>
      <trkpt lat="43.057060" lon="-6.005740">
        <ele>1578.918</ele>
        <time>2019-03-26T12:29:45Z</time>
      </trkpt>
      <trkpt lat="43.057100" lon="-6.005290">
        <ele>1579.398</ele>
        <time>2019-03-26T12:30:05Z</time>
      </trkpt>
      <trkpt lat="43.057150" lon="-6.005130">
        <ele>1579.417</ele>
        <time>2019-03-26T12:30:25Z</time>
      </trkpt>
      <trkpt lat="43.057220" lon="-6.004990">
        <ele>1579.608</ele>
        <time>2019-03-26T12:30:45Z</time>
      </trkpt>
      <trkpt lat="43.057510" lon="-6.004590">
        <ele>1581.274</ele>
        <time>2019-03-26T12:31:05Z</time>
      </trkpt>
      <trkpt lat="43.057610" lon="-6.004490">
        <ele>1582.355</ele>
        <time>2019-03-26T12:31:25Z</time>
      </trkpt>
      <trkpt lat="43.057770" lon="-6.004380">
        <ele>1582.646</ele>
        <time>2019-03-26T12:31:45Z</time>
      </trkpt>
      <trkpt lat="43.058010" lon="-6.004310">
        <ele>1583.925</ele>
        <time>2019-03-26T12:32:05Z</time>
      </trkpt>
      <trkpt lat="43.058240" lon="-6.004280">
        <ele>1586.627</ele>
        <time>2019-03-26T12:32:25Z</time>
      </trkpt>
      <trkpt lat="43.058390" lon="-6.004340">
        <ele>1587.465</ele>
        <time>2019-03-26T12:32:45Z</time>
      </trkpt>
      <trkpt lat="43.058420" lon="-6.004370">
        <ele>1586.988</ele>
        <time>2019-03-26T12:33:05Z</time>
      </trkpt>
      <trkpt lat="43.058540" lon="-6.004100">
        <ele>1585.940</ele>
        <time>2019-03-26T12:33:25Z</time>
      </trkpt>
      <trkpt lat="43.058760" lon="-6.003860">
        <ele>1585.565</ele>
        <time>2019-03-26T12:33:45Z</time>
      </trkpt>
      <trkpt lat="43.059150" lon="-6.003560">
        <ele>1583.768</ele>
        <time>2019-03-26T12:34:05Z</time>
      </trkpt>
      <trkpt lat="43.059550" lon="-6.003370">
        <ele>1582.014</ele>
        <time>2019-03-26T12:34:25Z</time>
      </trkpt>
      <trkpt lat="43.059630" lon="-6.003300">
        <ele>1581.808</ele>
        <time>2019-03-26T12:34:45Z</time>
      </trkpt>
      <trkpt lat="43.059760" lon="-6.003110">
        <ele>1581.689</ele>
        <time>2019-03-26T12:35:05Z</time>
      </trkpt>
      <trkpt lat="43.059900" lon="-6.002780">
        <ele>1580.760</ele>
        <time>2019-03-26T12:35:25Z</time>
      </trkpt>
      <trkpt lat="43.059970" lon="-6.002660">
        <ele>1580.331</ele>
        <time>2019-03-26T12:35:45Z</time>
      </trkpt>
      <trkpt lat="43.060060" lon="-6.002550">
        <ele>1579.540</ele>
        <time>2019-03-26T12:36:05Z</time>
      </trkpt>
      <trkpt lat="43.060350" lon="-6.002340">
        <ele>1577.932</ele>
        <time>2019-03-26T12:36:25Z</time>
      </trkpt>
      <trkpt lat="43.060450" lon="-6.002300">
        <ele>1577.950</ele>
        <time>2019-03-26T12:36:45Z</time>
      </trkpt>
      <trkpt lat="43.060550" lon="-6.002340">
        <ele>1576.773</ele>
        <time>2019-03-26T12:37:05Z</time>
      </trkpt>
      <trkpt lat="43.060810" lon="-6.002620">
        <ele>1571.425</ele>
        <time>2019-03-26T12:37:25Z</time>
      </trkpt>
      <trkpt lat="43.060900" lon="-6.002690">
        <ele>1569.547</ele>
        <time>2019-03-26T12:37:45Z</time>
      </trkpt>
      <trkpt lat="43.061000" lon="-6.002710">
        <ele>1568.129</ele>
        <time>2019-03-26T12:38:05Z</time>
      </trkpt>
      <trkpt lat="43.061430" lon="-6.002590">
        <ele>1567.121</ele>
        <time>2019-03-26T12:38:25Z</time>
      </trkpt>
      <trkpt lat="43.061840" lon="-6.002520">
        <ele>1567.308</ele>
        <time>2019-03-26T12:38:45Z</time>
      </trkpt>
      <trkpt lat="43.062240" lon="-6.002380">
        <ele>1567.167</ele>
        <time>2019-03-26T12:39:05Z</time>
      </trkpt>
      <trkpt lat="43.062550" lon="-6.002250">
        <ele>1567.268</ele>
        <time>2019-03-26T12:39:25Z</time>
      </trkpt>
      <trkpt lat="43.062870" lon="-6.002170">
        <ele>1567.519</ele>
        <time>2019-03-26T12:39:45Z</time>
      </trkpt>
      <trkpt lat="43.063340" lon="-6.002080">
        <ele>1567.558</ele>
        <time>2019-03-26T12:40:05Z</time>
      </trkpt>
      <trkpt lat="43.063420" lon="-6.002010">
        <ele>1567.240</ele>
        <time>2019-03-26T12:40:25Z</time>
      </trkpt>
      <trkpt lat="43.063490" lon="-6.001890">
        <ele>1567.268</ele>
        <time>2019-03-26T12:40:45Z</time>
      </trkpt>
      <trkpt lat="43.063570" lon="-6.001590">
        <ele>1567.221</ele>
        <time>2019-03-26T12:41:05Z</time>
      </trkpt>
      <trkpt lat="43.063630" lon="-6.001470">
        <ele>1567.223</ele>
        <time>2019-03-26T12:41:25Z</time>
      </trkpt>
      <trkpt lat="43.063710" lon="-6.001350">
        <ele>1567.552</ele>
        <time>2019-03-26T12:41:45Z</time>
      </trkpt>
      <trkpt lat="43.063870" lon="-6.001170">
        <ele>1567.553</ele>
        <time>2019-03-26T12:42:05Z</time>
      </trkpt>
      <trkpt lat="43.064050" lon="-6.000880">
        <ele>1568.208</ele>
        <time>2019-03-26T12:42:25Z</time>
      </trkpt>
      <trkpt lat="43.064200" lon="-6.000760">
        <ele>1568.408</ele>
        <time>2019-03-26T12:42:45Z</time>
      </trkpt>
      <trkpt lat="43.064390" lon="-6.000700">
        <ele>1568.418</ele>
        <time>2019-03-26T12:43:05Z</time>
      </trkpt>
      <trkpt lat="43.064900" lon="-6.000630">
        <ele>1566.919</ele>
        <time>2019-03-26T12:43:25Z</time>
      </trkpt>
      <trkpt lat="43.065020" lon="-6.001090">
        <ele>1566.910</ele>
        <time>2019-03-26T12:43:45Z</time>
      </trkpt>
      <trkpt lat="43.065240" lon="-6.001560">
        <ele>1566.729</ele>
        <time>2019-03-26T12:44:05Z</time>
      </trkpt>
      <trkpt lat="43.065510" lon="-6.001980">
        <ele>1566.241</ele>
        <time>2019-03-26T12:44:25Z</time>
      </trkpt>
      <trkpt lat="43.065630" lon="-6.002080">
        <ele>1565.669</ele>
        <time>2019-03-26T12:44:45Z</time>
      </trkpt>
      <trkpt lat="43.065860" lon="-6.002170">
        <ele>1565.632</ele>
        <time>2019-03-26T12:45:05Z</time>
      </trkpt>
      <trkpt lat="43.066030" lon="-6.002190">
        <ele>1564.784</ele>
        <time>2019-03-26T12:45:25Z</time>
      </trkpt>
      <trkpt lat="43.066280" lon="-6.002170">
        <ele>1564.523</ele>
        <time>2019-03-26T12:45:45Z</time>
      </trkpt>
      <trkpt lat="43.066640" lon="-6.002170">
        <ele>1564.083</ele>
        <time>2019-03-26T12:46:05Z</time>
      </trkpt>
      <trkpt lat="43.067100" lon="-6.002270">
        <ele>1563.211</ele>
        <time>2019-03-26T12:46:25Z</time>
      </trkpt>
      <trkpt lat="43.067700" lon="-6.002220">
        <ele>1562.508</ele>
        <time>2019-03-26T12:46:45Z</time>
      </trkpt>
      <trkpt lat="43.068350" lon="-6.002080">
        <ele>1562.665</ele>
        <time>2019-03-26T12:47:05Z</time>
      </trkpt>
      <trkpt lat="43.068470" lon="-6.001980">
        <ele>1562.516</ele>
        <time>2019-03-26T12:47:25Z</time>
      </trkpt>
      <trkpt lat="43.068510" lon="-6.001780">
        <ele>1562.487</ele>
        <time>2019-03-26T12:47:45Z</time>
      </trkpt>
      <trkpt lat="43.068460" lon="-6.001240">
        <ele>1561.866</ele>
        <time>2019-03-26T12:48:05Z</time>
      </trkpt>
      <trkpt lat="43.068470" lon="-6.000580">
        <ele>1561.948</ele>
        <time>2019-03-26T12:48:25Z</time>
      </trkpt>
      <trkpt lat="43.068460" lon="-6.000090">
        <ele>1564.196</ele>
        <time>2019-03-26T12:48:45Z</time>
      </trkpt>
      <trkpt lat="43.068490" lon="-5.999800">
        <ele>1566.349</ele>
        <time>2019-03-26T12:49:05Z</time>
      </trkpt>
      <trkpt lat="43.068530" lon="-5.999610">
        <ele>1567.821</ele>
        <time>2019-03-26T12:49:25Z</time>
      </trkpt>
      <trkpt lat="43.068600" lon="-5.999470">
        <ele>1568.823</ele>
        <time>2019-03-26T12:49:45Z</time>
      </trkpt>
      <trkpt lat="43.068800" lon="-5.999360">
        <ele>1571.783</ele>
        <time>2019-03-26T12:50:05Z</time>
      </trkpt>
      <trkpt lat="43.068920" lon="-5.999170">
        <ele>1572.611</ele>
        <time>2019-03-26T12:50:25Z</time>
      </trkpt>
      <trkpt lat="43.068980" lon="-5.999000">
        <ele>1573.908</ele>
        <time>2019-03-26T12:50:45Z</time>
      </trkpt>
      <trkpt lat="43.068990" lon="-5.998650">
        <ele>1574.515</ele>
        <time>2019-03-26T12:51:05Z</time>
      </trkpt>
      <trkpt lat="43.069070" lon="-5.998470">
        <ele>1574.036</ele>
        <time>2019-03-26T12:51:25Z</time>
      </trkpt>
      <trkpt lat="43.069180" lon="-5.998370">
        <ele>1573.317</ele>
        <time>2019-03-26T12:51:45Z</time>
      </trkpt>
      <trkpt lat="43.069230" lon="-5.998350">
        <ele>1573.386</ele>
        <time>2019-03-26T12:52:05Z</time>
      </trkpt>
      <trkpt lat="43.069700" lon="-5.998650">
        <ele>1573.098</ele>
        <time>2019-03-26T12:52:25Z</time>
      </trkpt>
      <trkpt lat="43.070170" lon="-5.999000">
        <ele>1574.186</ele>
        <time>2019-03-26T12:52:45Z</time>
      </trkpt>
      <trkpt lat="43.070320" lon="-5.999050">
        <ele>1574.039</ele>
        <time>2019-03-26T12:53:05Z</time>
      </trkpt>
      <trkpt lat="43.070540" lon="-5.999060">
        <ele>1574.551</ele>
        <time>2019-03-26T12:53:25Z</time>
      </trkpt>
      <trkpt lat="43.070630" lon="-5.998960">
        <ele>1574.982</ele>
        <time>2019-03-26T12:53:45Z</time>
      </trkpt>
      <trkpt lat="43.070710" lon="-5.998560">
        <ele>1577.143</ele>
        <time>2019-03-26T12:54:05Z</time>
      </trkpt>
      <trkpt lat="43.070750" lon="-5.998440">
        <ele>1577.317</ele>
        <time>2019-03-26T12:54:25Z</time>
      </trkpt>
      <trkpt lat="43.070790" lon="-5.998400">
        <ele>1577.308</ele>
        <time>2019-03-26T12:54:45Z</time>
      </trkpt>
      <trkpt lat="43.070940" lon="-5.998390">
        <ele>1577.771</ele>
        <time>2019-03-26T12:55:05Z</time>
      </trkpt>
      <trkpt lat="43.071030" lon="-5.998320">
        <ele>1578.072</ele>
        <time>2019-03-26T12:55:25Z</time>
      </trkpt>
      <trkpt lat="43.071110" lon="-5.998230">
        <ele>1578.313</ele>
        <time>2019-03-26T12:55:45Z</time>
      </trkpt>
      <trkpt lat="43.071180" lon="-5.998110">
        <ele>1578.322</ele>
        <time>2019-03-26T12:56:05Z</time>
      </trkpt>
      <trkpt lat="43.071350" lon="-5.997600">
        <ele>1580.384</ele>
        <time>2019-03-26T12:56:25Z</time>
      </trkpt>
      <trkpt lat="43.071710" lon="-5.997080">
        <ele>1583.582</ele>
        <time>2019-03-26T12:56:45Z</time>
      </trkpt>
      <trkpt lat="43.071790" lon="-5.997040">
        <ele>1583.885</ele>
        <time>2019-03-26T12:57:05Z</time>
      </trkpt>
      <trkpt lat="43.071960" lon="-5.997290">
        <ele>1584.177</ele>
        <time>2019-03-26T12:57:25Z</time>
      </trkpt>
      <trkpt lat="43.072400" lon="-5.998320">
        <ele>1585.229</ele>
        <time>2019-03-26T12:57:45Z</time>
      </trkpt>
      <trkpt lat="43.072480" lon="-5.998420">
        <ele>1585.200</ele>
        <time>2019-03-26T12:58:05Z</time>
      </trkpt>
      <trkpt lat="43.072580" lon="-5.998510">
        <ele>1585.020</ele>
        <time>2019-03-26T12:58:25Z</time>
      </trkpt>
      <trkpt lat="43.072800" lon="-5.998910">
        <ele>1584.708</ele>
        <time>2019-03-26T12:58:45Z</time>
      </trkpt>
      <trkpt lat="43.073160" lon="-5.999190">
        <ele>1581.985</ele>
        <time>2019-03-26T12:59:05Z</time>
      </trkpt>
      <trkpt lat="43.073320" lon="-5.999340">
        <ele>1580.836</ele>
        <time>2019-03-26T12:59:25Z</time>
      </trkpt>
      <trkpt lat="43.073550" lon="-5.999730">
        <ele>1581.177</ele>
        <time>2019-03-26T12:59:45Z</time>
      </trkpt>
      <trkpt lat="43.073770" lon="-6.000040">
        <ele>1581.626</ele>
        <time>2019-03-26T13:00:05Z</time>
      </trkpt>
      <trkpt lat="43.074170" lon="-6.000480">
        <ele>1581.148</ele>
        <time>2019-03-26T13:00:25Z</time>
      </trkpt>
      <trkpt lat="43.074860" lon="-6.001000">
        <ele>1581.076</ele>
        <time>2019-03-26T13:00:45Z</time>
      </trkpt>
      <trkpt lat="43.075130" lon="-6.001140">
        <ele>1581.329</ele>
        <time>2019-03-26T13:01:05Z</time>
      </trkpt>
      <trkpt lat="43.075830" lon="-6.001420">
        <ele>1581.461</ele>
        <time>2019-03-26T13:01:25Z</time>
      </trkpt>
      <trkpt lat="43.076300" lon="-6.001560">
        <ele>1582.168</ele>
        <time>2019-03-26T13:01:45Z</time>
      </trkpt>
      <trkpt lat="43.076630" lon="-6.001700">
        <ele>1582.742</ele>
        <time>2019-03-26T13:02:05Z</time>
      </trkpt>
      <trkpt lat="43.076980" lon="-6.001780">
        <ele>1583.126</ele>
        <time>2019-03-26T13:02:25Z</time>
      </trkpt>
      <trkpt lat="43.077070" lon="-6.001820">
        <ele>1583.208</ele>
        <time>2019-03-26T13:02:45Z</time>
      </trkpt>
      <trkpt lat="43.077240" lon="-6.002010">
        <ele>1585.179</ele>
        <time>2019-03-26T13:03:05Z</time>
      </trkpt>
      <trkpt lat="43.077550" lon="-6.002240">
        <ele>1585.220</ele>
        <time>2019-03-26T13:03:25Z</time>
      </trkpt>
      <trkpt lat="43.077960" lon="-6.002760">
        <ele>1585.181</ele>
        <time>2019-03-26T13:03:45Z</time>
      </trkpt>
      <trkpt lat="43.078070" lon="-6.002950">
        <ele>1585.260</ele>
        <time>2019-03-26T13:04:05Z</time>
      </trkpt>
      <trkpt lat="43.078120" lon="-6.003160">
        <ele>1585.672</ele>
        <time>2019-03-26T13:04:25Z</time>
      </trkpt>
      <trkpt lat="43.078130" lon="-6.003700">
        <ele>1587.210</ele>
        <time>2019-03-26T13:04:45Z</time>
      </trkpt>
      <trkpt lat="43.078070" lon="-6.004120">
        <ele>1590.623</ele>
        <time>2019-03-26T13:05:05Z</time>
      </trkpt>
      <trkpt lat="43.077880" lon="-6.004730">
        <ele>1593.725</ele>
        <time>2019-03-26T13:05:25Z</time>
      </trkpt>
      <trkpt lat="43.077500" lon="-6.005480">
        <ele>1598.268</ele>
        <time>2019-03-26T13:05:45Z</time>
      </trkpt>
      <trkpt lat="43.077305" lon="-6.006080">
        <ele>1602.142</ele>
        <time>2019-03-26T13:06:05Z</time>
      </trkpt>
      <trkpt lat="43.077110" lon="-6.006680">
        <ele>1602.826</ele>
        <time>2019-03-26T13:06:25Z</time>
      </trkpt>
      <trkpt lat="43.077030" lon="-6.007170">
        <ele>1597.808</ele>
        <time>2019-03-26T13:06:45Z</time>
      </trkpt>
      <trkpt lat="43.077050" lon="-6.007310">
        <ele>1595.759</ele>
        <time>2019-03-26T13:07:05Z</time>
      </trkpt>
      <trkpt lat="43.077100" lon="-6.007430">
        <ele>1594.190</ele>
        <time>2019-03-26T13:07:25Z</time>
      </trkpt>
      <trkpt lat="43.077280" lon="-6.007670">
        <ele>1592.541</ele>
        <time>2019-03-26T13:07:45Z</time>
      </trkpt>
      <trkpt lat="43.077560" lon="-6.008150">
        <ele>1592.740</ele>
        <time>2019-03-26T13:08:05Z</time>
      </trkpt>
      <trkpt lat="43.077770" lon="-6.008370">
        <ele>1593.882</ele>
        <time>2019-03-26T13:08:25Z</time>
      </trkpt>
      <trkpt lat="43.077900" lon="-6.008460">
        <ele>1593.990</ele>
        <time>2019-03-26T13:08:45Z</time>
      </trkpt>
      <trkpt lat="43.078080" lon="-6.008650">
        <ele>1593.953</ele>
        <time>2019-03-26T13:09:05Z</time>
      </trkpt>
      <trkpt lat="43.078270" lon="-6.008650">
        <ele>1593.035</ele>
        <time>2019-03-26T13:09:25Z</time>
      </trkpt>
      <trkpt lat="43.078470" lon="-6.008700">
        <ele>1591.726</ele>
        <time>2019-03-26T13:09:45Z</time>
      </trkpt>
      <trkpt lat="43.078840" lon="-6.008620">
        <ele>1587.647</ele>
        <time>2019-03-26T13:10:05Z</time>
      </trkpt>
      <trkpt lat="43.079130" lon="-6.008460">
        <ele>1585.511</ele>
        <time>2019-03-26T13:10:25Z</time>
      </trkpt>
      <trkpt lat="43.079270" lon="-6.008410">
        <ele>1583.208</ele>
        <time>2019-03-26T13:10:45Z</time>
      </trkpt>
      <trkpt lat="43.079770" lon="-6.008340">
        <ele>1578.855</ele>
        <time>2019-03-26T13:11:05Z</time>
      </trkpt>
      <trkpt lat="43.080270" lon="-6.008270">
        <ele>1576.566</ele>
        <time>2019-03-26T13:11:25Z</time>
      </trkpt>
      <trkpt lat="43.080660" lon="-6.008270">
        <ele>1573.627</ele>
        <time>2019-03-26T13:11:45Z</time>
      </trkpt>
      <trkpt lat="43.080980" lon="-6.008320">
        <ele>1572.256</ele>
        <time>2019-03-26T13:12:05Z</time>
      </trkpt>
      <trkpt lat="43.081220" lon="-6.008390">
        <ele>1571.648</ele>
        <time>2019-03-26T13:12:25Z</time>
      </trkpt>
      <trkpt lat="43.081540" lon="-6.008550">
        <ele>1571.396</ele>
        <time>2019-03-26T13:12:45Z</time>
      </trkpt>
      <trkpt lat="43.082010" lon="-6.009000">
        <ele>1570.539</ele>
        <time>2019-03-26T13:13:05Z</time>
      </trkpt>
      <trkpt lat="43.082460" lon="-6.009280">
        <ele>1569.491</ele>
        <time>2019-03-26T13:13:25Z</time>
      </trkpt>
      <trkpt lat="43.082700" lon="-6.009350">
        <ele>1568.178</ele>
        <time>2019-03-26T13:13:45Z</time>
      </trkpt>
      <trkpt lat="43.082930" lon="-6.009350">
        <ele>1567.933</ele>
        <time>2019-03-26T13:14:05Z</time>
      </trkpt>
      <trkpt lat="43.083070" lon="-6.009310">
        <ele>1567.326</ele>
        <time>2019-03-26T13:14:25Z</time>
      </trkpt>
      <trkpt lat="43.083200" lon="-6.009240">
        <ele>1566.908</ele>
        <time>2019-03-26T13:14:45Z</time>
      </trkpt>
      <trkpt lat="43.083420" lon="-6.009050">
        <ele>1565.330</ele>
        <time>2019-03-26T13:15:05Z</time>
      </trkpt>
      <trkpt lat="43.083460" lon="-6.008980">
        <ele>1564.311</ele>
        <time>2019-03-26T13:15:25Z</time>
      </trkpt>
      <trkpt lat="43.083490" lon="-6.008890">
        <ele>1563.852</ele>
        <time>2019-03-26T13:15:45Z</time>
      </trkpt>
      <trkpt lat="43.083530" lon="-6.008530">
        <ele>1561.291</ele>
        <time>2019-03-26T13:16:05Z</time>
      </trkpt>
      <trkpt lat="43.083650" lon="-6.008220">
        <ele>1559.053</ele>
        <time>2019-03-26T13:16:25Z</time>
      </trkpt>
      <trkpt lat="43.083820" lon="-6.007430">
        <ele>1553.471</ele>
        <time>2019-03-26T13:16:45Z</time>
      </trkpt>
      <trkpt lat="43.083870" lon="-6.007360">
        <ele>1552.544</ele>
        <time>2019-03-26T13:17:05Z</time>
      </trkpt>
      <trkpt lat="43.084180" lon="-6.007010">
        <ele>1543.776</ele>
        <time>2019-03-26T13:17:25Z</time>
      </trkpt>
      <trkpt lat="43.084730" lon="-6.007030">
        <ele>1535.843</ele>
        <time>2019-03-26T13:17:45Z</time>
      </trkpt>
      <trkpt lat="43.084790" lon="-6.007050">
        <ele>1535.264</ele>
        <time>2019-03-26T13:18:05Z</time>
      </trkpt>
      <trkpt lat="43.084870" lon="-6.007150">
        <ele>1534.010</ele>
        <time>2019-03-26T13:18:25Z</time>
      </trkpt>
      <trkpt lat="43.084960" lon="-6.007450">
        <ele>1532.208</ele>
        <time>2019-03-26T13:18:45Z</time>
      </trkpt>
      <trkpt lat="43.085020" lon="-6.007540">
        <ele>1531.387</ele>
        <time>2019-03-26T13:19:05Z</time>
      </trkpt>
      <trkpt lat="43.085210" lon="-6.007660">
        <ele>1529.328</ele>
        <time>2019-03-26T13:19:25Z</time>
      </trkpt>
      <trkpt lat="43.085370" lon="-6.007800">
        <ele>1527.279</ele>
        <time>2019-03-26T13:19:45Z</time>
      </trkpt>
      <trkpt lat="43.085550" lon="-6.008090">
        <ele>1524.648</ele>
        <time>2019-03-26T13:20:05Z</time>
      </trkpt>
      <trkpt lat="43.085930" lon="-6.008560">
        <ele>1519.580</ele>
        <time>2019-03-26T13:20:25Z</time>
      </trkpt>
      <trkpt lat="43.085980" lon="-6.008670">
        <ele>1519.518</ele>
        <time>2019-03-26T13:20:45Z</time>
      </trkpt>
      <trkpt lat="43.086090" lon="-6.009190">
        <ele>1517.141</ele>
        <time>2019-03-26T13:21:05Z</time>
      </trkpt>
      <trkpt lat="43.086180" lon="-6.009350">
        <ele>1515.923</ele>
        <time>2019-03-26T13:21:25Z</time>
      </trkpt>
      <trkpt lat="43.086380" lon="-6.009610">
        <ele>1514.694</ele>
        <time>2019-03-26T13:21:45Z</time>
      </trkpt>
      <trkpt lat="43.086620" lon="-6.009800">
        <ele>1513.157</ele>
        <time>2019-03-26T13:22:05Z</time>
      </trkpt>
      <trkpt lat="43.086790" lon="-6.010030">
        <ele>1511.822</ele>
        <time>2019-03-26T13:22:25Z</time>
      </trkpt>
      <trkpt lat="43.086930" lon="-6.010410">
        <ele>1509.508</ele>
        <time>2019-03-26T13:22:45Z</time>
      </trkpt>
      <trkpt lat="43.086970" lon="-6.010640">
        <ele>1508.812</ele>
        <time>2019-03-26T13:23:05Z</time>
      </trkpt>
      <trkpt lat="43.086960" lon="-6.010920">
        <ele>1508.283</ele>
        <time>2019-03-26T13:23:25Z</time>
      </trkpt>
      <trkpt lat="43.086900" lon="-6.011200">
        <ele>1507.544</ele>
        <time>2019-03-26T13:23:45Z</time>
      </trkpt>
      <trkpt lat="43.086900" lon="-6.011390">
        <ele>1507.443</ele>
        <time>2019-03-26T13:24:05Z</time>
      </trkpt>
      <trkpt lat="43.086970" lon="-6.011700">
        <ele>1507.465</ele>
        <time>2019-03-26T13:24:25Z</time>
      </trkpt>
      <trkpt lat="43.087000" lon="-6.011950">
        <ele>1507.293</ele>
        <time>2019-03-26T13:24:45Z</time>
      </trkpt>
      <trkpt lat="43.087040" lon="-6.012120">
        <ele>1506.626</ele>
        <time>2019-03-26T13:25:05Z</time>
      </trkpt>
      <trkpt lat="43.087100" lon="-6.012190">
        <ele>1505.968</ele>
        <time>2019-03-26T13:25:25Z</time>
      </trkpt>
      <trkpt lat="43.087140" lon="-6.012210">
        <ele>1505.979</ele>
        <time>2019-03-26T13:25:45Z</time>
      </trkpt>
      <trkpt lat="43.087430" lon="-6.012240">
        <ele>1504.405</ele>
        <time>2019-03-26T13:26:05Z</time>
      </trkpt>
      <trkpt lat="43.087800" lon="-6.012210">
        <ele>1501.225</ele>
        <time>2019-03-26T13:26:25Z</time>
      </trkpt>
      <trkpt lat="43.088080" lon="-6.012210">
        <ele>1496.808</ele>
        <time>2019-03-26T13:26:45Z</time>
      </trkpt>
      <trkpt lat="43.088410" lon="-6.011860">
        <ele>1492.370</ele>
        <time>2019-03-26T13:27:05Z</time>
      </trkpt>
      <trkpt lat="43.088520" lon="-6.011720">
        <ele>1490.371</ele>
        <time>2019-03-26T13:27:25Z</time>
      </trkpt>
      <trkpt lat="43.088600" lon="-6.011600">
        <ele>1488.912</ele>
        <time>2019-03-26T13:27:45Z</time>
      </trkpt>
      <trkpt lat="43.088740" lon="-6.011250">
        <ele>1485.371</ele>
        <time>2019-03-26T13:28:05Z</time>
      </trkpt>
      <trkpt lat="43.088810" lon="-6.011130">
        <ele>1483.863</ele>
        <time>2019-03-26T13:28:25Z</time>
      </trkpt>
      <trkpt lat="43.089380" lon="-6.010320">
        <ele>1473.581</ele>
        <time>2019-03-26T13:28:45Z</time>
      </trkpt>
      <trkpt lat="43.089520" lon="-6.010200">
        <ele>1471.434</ele>
        <time>2019-03-26T13:29:05Z</time>
      </trkpt>
      <trkpt lat="43.089730" lon="-6.010120">
        <ele>1468.876</ele>
        <time>2019-03-26T13:29:25Z</time>
      </trkpt>
      <trkpt lat="43.089860" lon="-6.010120">
        <ele>1467.517</ele>
        <time>2019-03-26T13:29:45Z</time>
      </trkpt>
      <trkpt lat="43.090250" lon="-6.010290">
        <ele>1464.887</ele>
        <time>2019-03-26T13:30:05Z</time>
      </trkpt>
      <trkpt lat="43.090400" lon="-6.010340">
        <ele>1463.715</ele>
        <time>2019-03-26T13:30:25Z</time>
      </trkpt>
      <trkpt lat="43.090410" lon="-6.010340">
        <ele>1462.508</ele>
        <time>2019-03-26T13:30:45Z</time>
      </trkpt>
      <trkpt lat="43.090400" lon="-6.010340">
        <ele>1463.364</ele>
        <time>2019-03-26T13:31:05Z</time>
      </trkpt>
      <trkpt lat="43.090530" lon="-6.010270">
        <ele>1461.725</ele>
        <time>2019-03-26T13:31:25Z</time>
      </trkpt>
      <trkpt lat="43.090560" lon="-6.010200">
        <ele>1461.076</ele>
        <time>2019-03-26T13:31:45Z</time>
      </trkpt>
      <trkpt lat="43.090570" lon="-6.010100">
        <ele>1460.425</ele>
        <time>2019-03-26T13:32:05Z</time>
      </trkpt>
      <trkpt lat="43.090540" lon="-6.009910">
        <ele>1458.927</ele>
        <time>2019-03-26T13:32:25Z</time>
      </trkpt>
      <trkpt lat="43.090430" lon="-6.009800">
        <ele>1457.915</ele>
        <time>2019-03-26T13:32:45Z</time>
      </trkpt>
      <trkpt lat="43.090250" lon="-6.009700">
        <ele>1456.858</ele>
        <time>2019-03-26T13:33:05Z</time>
      </trkpt>
      <trkpt lat="43.089790" lon="-6.009570">
        <ele>1451.720</ele>
        <time>2019-03-26T13:33:25Z</time>
      </trkpt>
      <trkpt lat="43.089440" lon="-6.009370">
        <ele>1447.994</ele>
        <time>2019-03-26T13:33:45Z</time>
      </trkpt>
      <trkpt lat="43.089360" lon="-6.009280">
        <ele>1446.357</ele>
        <time>2019-03-26T13:34:05Z</time>
      </trkpt>
      <trkpt lat="43.089140" lon="-6.008900">
        <ele>1444.322</ele>
        <time>2019-03-26T13:34:25Z</time>
      </trkpt>
      <trkpt lat="43.088980" lon="-6.008490">
        <ele>1442.608</ele>
        <time>2019-03-26T13:34:45Z</time>
      </trkpt>
      <trkpt lat="43.088800" lon="-6.008130">
        <ele>1440.762</ele>
        <time>2019-03-26T13:35:05Z</time>
      </trkpt>
      <trkpt lat="43.088600" lon="-6.007680">
        <ele>1435.863</ele>
        <time>2019-03-26T13:35:25Z</time>
      </trkpt>
      <trkpt lat="43.088490" lon="-6.007520">
        <ele>1434.924</ele>
        <time>2019-03-26T13:35:45Z</time>
      </trkpt>
      <trkpt lat="43.088360" lon="-6.007450">
        <ele>1433.623</ele>
        <time>2019-03-26T13:36:05Z</time>
      </trkpt>
      <trkpt lat="43.088190" lon="-6.007290">
        <ele>1431.885</ele>
        <time>2019-03-26T13:36:25Z</time>
      </trkpt>
      <trkpt lat="43.088180" lon="-6.007220">
        <ele>1430.933</ele>
        <time>2019-03-26T13:36:45Z</time>
      </trkpt>
      <trkpt lat="43.088210" lon="-6.007150">
        <ele>1428.856</ele>
        <time>2019-03-26T13:37:05Z</time>
      </trkpt>
      <trkpt lat="43.088240" lon="-6.007130">
        <ele>1428.818</ele>
        <time>2019-03-26T13:37:25Z</time>
      </trkpt>
      <trkpt lat="43.088280" lon="-6.007150">
        <ele>1427.687</ele>
        <time>2019-03-26T13:37:45Z</time>
      </trkpt>
      <trkpt lat="43.088350" lon="-6.007240">
        <ele>1426.642</ele>
        <time>2019-03-26T13:38:05Z</time>
      </trkpt>
      <trkpt lat="43.088490" lon="-6.007310">
        <ele>1424.026</ele>
        <time>2019-03-26T13:38:25Z</time>
      </trkpt>
      <trkpt lat="43.088730" lon="-6.007400">
        <ele>1420.808</ele>
        <time>2019-03-26T13:38:45Z</time>
      </trkpt>
      <trkpt lat="43.088860" lon="-6.007660">
        <ele>1418.991</ele>
        <time>2019-03-26T13:39:05Z</time>
      </trkpt>
      <trkpt lat="43.089410" lon="-6.008350">
        <ele>1415.442</ele>
        <time>2019-03-26T13:39:25Z</time>
      </trkpt>
      <trkpt lat="43.089570" lon="-6.008530">
        <ele>1414.373</ele>
        <time>2019-03-26T13:39:45Z</time>
      </trkpt>
      <trkpt lat="43.089740" lon="-6.008620">
        <ele>1412.962</ele>
        <time>2019-03-26T13:40:05Z</time>
      </trkpt>
      <trkpt lat="43.090070" lon="-6.008600">
        <ele>1409.384</ele>
        <time>2019-03-26T13:40:25Z</time>
      </trkpt>
      <trkpt lat="43.090360" lon="-6.008510">
        <ele>1405.412</ele>
        <time>2019-03-26T13:40:45Z</time>
      </trkpt>
      <trkpt lat="43.090420" lon="-6.008510">
        <ele>1404.795</ele>
        <time>2019-03-26T13:41:05Z</time>
      </trkpt>
      <trkpt lat="43.090570" lon="-6.008550">
        <ele>1403.597</ele>
        <time>2019-03-26T13:41:25Z</time>
      </trkpt>
      <trkpt lat="43.090780" lon="-6.008690">
        <ele>1400.242</ele>
        <time>2019-03-26T13:41:45Z</time>
      </trkpt>
      <trkpt lat="43.090880" lon="-6.008800">
        <ele>1399.722</ele>
        <time>2019-03-26T13:42:05Z</time>
      </trkpt>
      <trkpt lat="43.091150" lon="-6.009070">
        <ele>1398.014</ele>
        <time>2019-03-26T13:42:25Z</time>
      </trkpt>
      <trkpt lat="43.091430" lon="-6.009400">
        <ele>1395.308</ele>
        <time>2019-03-26T13:42:45Z</time>
      </trkpt>
      <trkpt lat="43.091800" lon="-6.010240">
        <ele>1389.047</ele>
        <time>2019-03-26T13:43:05Z</time>
      </trkpt>
      <trkpt lat="43.091940" lon="-6.010430">
        <ele>1387.458</ele>
        <time>2019-03-26T13:43:25Z</time>
      </trkpt>
      <trkpt lat="43.092100" lon="-6.010500">
        <ele>1385.769</ele>
        <time>2019-03-26T13:43:45Z</time>
      </trkpt>
      <trkpt lat="43.092250" lon="-6.010520">
        <ele>1384.358</ele>
        <time>2019-03-26T13:44:05Z</time>
      </trkpt>
      <trkpt lat="43.092700" lon="-6.010460">
        <ele>1380.420</ele>
        <time>2019-03-26T13:44:25Z</time>
      </trkpt>
      <trkpt lat="43.092840" lon="-6.010500">
        <ele>1379.938</ele>
        <time>2019-03-26T13:44:45Z</time>
      </trkpt>
      <trkpt lat="43.093030" lon="-6.010590">
        <ele>1377.131</ele>
        <time>2019-03-26T13:45:05Z</time>
      </trkpt>
      <trkpt lat="43.093210" lon="-6.010570">
        <ele>1376.153</ele>
        <time>2019-03-26T13:45:25Z</time>
      </trkpt>
      <trkpt lat="43.093610" lon="-6.010310">
        <ele>1369.666</ele>
        <time>2019-03-26T13:45:45Z</time>
      </trkpt>
      <trkpt lat="43.093640" lon="-6.010270">
        <ele>1369.629</ele>
        <time>2019-03-26T13:46:05Z</time>
      </trkpt>
      <trkpt lat="43.093630" lon="-6.010220">
        <ele>1369.021</ele>
        <time>2019-03-26T13:46:25Z</time>
      </trkpt>
      <trkpt lat="43.093590" lon="-6.010200">
        <ele>1368.508</ele>
        <time>2019-03-26T13:46:45Z</time>
      </trkpt>
      <trkpt lat="43.093280" lon="-6.010310">
        <ele>1366.159</ele>
        <time>2019-03-26T13:47:05Z</time>
      </trkpt>
      <trkpt lat="43.093040" lon="-6.010290">
        <ele>1364.040</ele>
        <time>2019-03-26T13:47:25Z</time>
      </trkpt>
      <trkpt lat="43.092900" lon="-6.010180">
        <ele>1363.061</ele>
        <time>2019-03-26T13:47:45Z</time>
      </trkpt>
      <trkpt lat="43.092780" lon="-6.010060">
        <ele>1362.130</ele>
        <time>2019-03-26T13:48:05Z</time>
      </trkpt>
      <trkpt lat="43.092520" lon="-6.009960">
        <ele>1360.372</ele>
        <time>2019-03-26T13:48:25Z</time>
      </trkpt>
      <trkpt lat="43.092410" lon="-6.009890">
        <ele>1358.580</ele>
        <time>2019-03-26T13:48:45Z</time>
      </trkpt>
      <trkpt lat="43.092350" lon="-6.009820">
        <ele>1358.513</ele>
        <time>2019-03-26T13:49:05Z</time>
      </trkpt>
      <trkpt lat="43.092210" lon="-6.009510">
        <ele>1355.255</ele>
        <time>2019-03-26T13:49:25Z</time>
      </trkpt>
      <trkpt lat="43.092000" lon="-6.008860">
        <ele>1349.775</ele>
        <time>2019-03-26T13:49:45Z</time>
      </trkpt>
      <trkpt lat="43.091830" lon="-6.008510">
        <ele>1345.028</ele>
        <time>2019-03-26T13:50:05Z</time>
      </trkpt>
      <trkpt lat="43.091710" lon="-6.008180">
        <ele>1342.420</ele>
        <time>2019-03-26T13:50:25Z</time>
      </trkpt>
      <trkpt lat="43.091720" lon="-6.007830">
        <ele>1339.908</ele>
        <time>2019-03-26T13:50:45Z</time>
      </trkpt>
      <trkpt lat="43.091830" lon="-6.007190">
        <ele>1335.870</ele>
        <time>2019-03-26T13:51:05Z</time>
      </trkpt>
      <trkpt lat="43.091860" lon="-6.007170">
        <ele>1335.251</ele>
        <time>2019-03-26T13:51:25Z</time>
      </trkpt>
      <trkpt lat="43.091880" lon="-6.007190">
        <ele>1335.272</ele>
        <time>2019-03-26T13:51:45Z</time>
      </trkpt>
      <trkpt lat="43.091890" lon="-6.007260">
        <ele>1334.531</ele>
        <time>2019-03-26T13:52:05Z</time>
      </trkpt>
      <trkpt lat="43.091870" lon="-6.007850">
        <ele>1330.093</ele>
        <time>2019-03-26T13:52:25Z</time>
      </trkpt>
      <trkpt lat="43.091930" lon="-6.008060">
        <ele>1327.751</ele>
        <time>2019-03-26T13:52:45Z</time>
      </trkpt>
      <trkpt lat="43.092580" lon="-6.008820">
        <ele>1317.434</ele>
        <time>2019-03-26T13:53:05Z</time>
      </trkpt>
      <trkpt lat="43.092810" lon="-6.008980">
        <ele>1313.136</ele>
        <time>2019-03-26T13:53:25Z</time>
      </trkpt>
      <trkpt lat="43.092900" lon="-6.009020">
        <ele>1313.119</ele>
        <time>2019-03-26T13:53:45Z</time>
      </trkpt>
      <trkpt lat="43.093040" lon="-6.009050">
        <ele>1310.309</ele>
        <time>2019-03-26T13:54:05Z</time>
      </trkpt>
      <trkpt lat="43.093160" lon="-6.009050">
        <ele>1307.819</ele>
        <time>2019-03-26T13:54:25Z</time>
      </trkpt>
      <trkpt lat="43.093330" lon="-6.008980">
        <ele>1305.108</ele>
        <time>2019-03-26T13:54:45Z</time>
      </trkpt>
      <trkpt lat="43.093320" lon="-6.008980">
        <ele>1305.144</ele>
        <time>2019-03-26T13:55:05Z</time>
      </trkpt>
      <trkpt lat="43.093990" lon="-6.008670">
        <ele>1291.235</ele>
        <time>2019-03-26T13:55:25Z</time>
      </trkpt>
      <trkpt lat="43.094380" lon="-6.008560">
        <ele>1286.126</ele>
        <time>2019-03-26T13:55:45Z</time>
      </trkpt>
      <trkpt lat="43.094610" lon="-6.008530">
        <ele>1280.025</ele>
        <time>2019-03-26T13:56:05Z</time>
      </trkpt>
      <trkpt lat="43.095000" lon="-6.008350">
        <ele>1273.747</ele>
        <time>2019-03-26T13:56:25Z</time>
      </trkpt>
      <trkpt lat="43.095110" lon="-6.008280">
        <ele>1272.165</ele>
        <time>2019-03-26T13:56:45Z</time>
      </trkpt>
      <trkpt lat="43.095200" lon="-6.008130">
        <ele>1269.278</ele>
        <time>2019-03-26T13:57:05Z</time>
      </trkpt>
      <trkpt lat="43.095420" lon="-6.007520">
        <ele>1262.620</ele>
        <time>2019-03-26T13:57:25Z</time>
      </trkpt>
      <trkpt lat="43.095540" lon="-6.007310">
        <ele>1260.754</ele>
        <time>2019-03-26T13:57:45Z</time>
      </trkpt>
      <trkpt lat="43.095770" lon="-6.007120">
        <ele>1257.256</ele>
        <time>2019-03-26T13:58:05Z</time>
      </trkpt>
      <trkpt lat="43.096160" lon="-6.006940">
        <ele>1253.211</ele>
        <time>2019-03-26T13:58:25Z</time>
      </trkpt>
      <trkpt lat="43.096270" lon="-6.006870">
        <ele>1252.708</ele>
        <time>2019-03-26T13:58:45Z</time>
      </trkpt>
      <trkpt lat="43.096310" lon="-6.006770">
        <ele>1251.598</ele>
        <time>2019-03-26T13:59:05Z</time>
      </trkpt>
      <trkpt lat="43.096340" lon="-6.006440">
        <ele>1247.049</ele>
        <time>2019-03-26T13:59:25Z</time>
      </trkpt>
      <trkpt lat="43.096470" lon="-6.005760">
        <ele>1241.280</ele>
        <time>2019-03-26T13:59:45Z</time>
      </trkpt>
      <trkpt lat="43.096560" lon="-6.005160">
        <ele>1234.619</ele>
        <time>2019-03-26T14:00:05Z</time>
      </trkpt>
      <trkpt lat="43.096680" lon="-6.004820">
        <ele>1232.191</ele>
        <time>2019-03-26T14:00:25Z</time>
      </trkpt>
      <trkpt lat="43.096790" lon="-6.004620">
        <ele>1230.419</ele>
        <time>2019-03-26T14:00:45Z</time>
      </trkpt>
      <trkpt lat="43.096790" lon="-6.004570">
        <ele>1229.732</ele>
        <time>2019-03-26T14:01:05Z</time>
      </trkpt>
      <trkpt lat="43.096760" lon="-6.004550">
        <ele>1229.184</ele>
        <time>2019-03-26T14:01:25Z</time>
      </trkpt>
      <trkpt lat="43.096730" lon="-6.004570">
        <ele>1229.123</ele>
        <time>2019-03-26T14:01:45Z</time>
      </trkpt>
      <trkpt lat="43.096520" lon="-6.004870">
        <ele>1226.183</ele>
        <time>2019-03-26T14:02:05Z</time>
      </trkpt>
      <trkpt lat="43.096235" lon="-6.005355">
        <ele>1221.411</ele>
        <time>2019-03-26T14:02:25Z</time>
      </trkpt>
      <trkpt lat="43.095950" lon="-6.005840">
        <ele>1220.408</ele>
        <time>2019-03-26T14:02:45Z</time>
      </trkpt>
      <trkpt lat="43.095760" lon="-6.006250">
        <ele>1220.495</ele>
        <time>2019-03-26T14:03:05Z</time>
      </trkpt>
      <trkpt lat="43.095650" lon="-6.006300">
        <ele>1220.266</ele>
        <time>2019-03-26T14:03:25Z</time>
      </trkpt>
      <trkpt lat="43.095240" lon="-6.006320">
        <ele>1218.577</ele>
        <time>2019-03-26T14:03:45Z</time>
      </trkpt>
      <trkpt lat="43.094990" lon="-6.006420">
        <ele>1216.286</ele>
        <time>2019-03-26T14:04:05Z</time>
      </trkpt>
      <trkpt lat="43.094660" lon="-6.006590">
        <ele>1213.278</ele>
        <time>2019-03-26T14:04:25Z</time>
      </trkpt>
      <trkpt lat="43.094260" lon="-6.006680">
        <ele>1210.646</ele>
        <time>2019-03-26T14:04:45Z</time>
      </trkpt>
      <trkpt lat="43.094110" lon="-6.006680">
        <ele>1209.939</ele>
        <time>2019-03-26T14:05:05Z</time>
      </trkpt>
      <trkpt lat="43.094010" lon="-6.006650">
        <ele>1209.181</ele>
        <time>2019-03-26T14:05:25Z</time>
      </trkpt>
      <trkpt lat="43.093860" lon="-6.006490">
        <ele>1208.138</ele>
        <time>2019-03-26T14:05:45Z</time>
      </trkpt>
      <trkpt lat="43.093820" lon="-6.006350">
        <ele>1205.970</ele>
        <time>2019-03-26T14:06:05Z</time>
      </trkpt>
      <trkpt lat="43.093740" lon="-6.005710">
        <ele>1199.017</ele>
        <time>2019-03-26T14:06:25Z</time>
      </trkpt>
      <trkpt lat="43.093700" lon="-6.005160">
        <ele>1192.308</ele>
        <time>2019-03-26T14:06:45Z</time>
      </trkpt>
      <trkpt lat="43.093680" lon="-6.004540">
        <ele>1182.786</ele>
        <time>2019-03-26T14:07:05Z</time>
      </trkpt>
      <trkpt lat="43.093650" lon="-6.004280">
        <ele>1180.397</ele>
        <time>2019-03-26T14:07:25Z</time>
      </trkpt>
      <trkpt lat="43.093510" lon="-6.003615">
        <ele>1172.718</ele>
        <time>2019-03-26T14:07:45Z</time>
      </trkpt>
      <trkpt lat="43.093370" lon="-6.002950">
        <ele>1165.917</ele>
        <time>2019-03-26T14:08:05Z</time>
      </trkpt>
      <trkpt lat="43.093290" lon="-6.002880">
        <ele>1163.779</ele>
        <time>2019-03-26T14:08:25Z</time>
      </trkpt>
      <trkpt lat="43.093120" lon="-6.002830">
        <ele>1162.637</ele>
        <time>2019-03-26T14:08:45Z</time>
      </trkpt>
      <trkpt lat="43.092270" lon="-6.002730">
        <ele>1151.910</ele>
        <time>2019-03-26T14:09:05Z</time>
      </trkpt>
      <trkpt lat="43.092160" lon="-6.002730">
        <ele>1150.032</ele>
        <time>2019-03-26T14:09:25Z</time>
      </trkpt>
      <trkpt lat="43.092010" lon="-6.002780">
        <ele>1149.029</ele>
        <time>2019-03-26T14:09:45Z</time>
      </trkpt>
      <trkpt lat="43.091900" lon="-6.002740">
        <ele>1147.700</ele>
        <time>2019-03-26T14:10:05Z</time>
      </trkpt>
      <trkpt lat="43.091870" lon="-6.002690">
        <ele>1147.720</ele>
        <time>2019-03-26T14:10:25Z</time>
      </trkpt>
      <trkpt lat="43.091860" lon="-6.002550">
        <ele>1147.708</ele>
        <time>2019-03-26T14:10:45Z</time>
      </trkpt>
      <trkpt lat="43.091990" lon="-6.002190">
        <ele>1145.695</ele>
        <time>2019-03-26T14:11:05Z</time>
      </trkpt>
      <trkpt lat="43.092370" lon="-6.001610">
        <ele>1141.226</ele>
        <time>2019-03-26T14:11:25Z</time>
      </trkpt>
      <trkpt lat="43.092860" lon="-6.000580">
        <ele>1136.047</ele>
        <time>2019-03-26T14:11:45Z</time>
      </trkpt>
      <trkpt lat="43.093340" lon="-5.999710">
        <ele>1129.556</ele>
        <time>2019-03-26T14:12:05Z</time>
      </trkpt>
      <trkpt lat="43.093550" lon="-5.999220">
        <ele>1127.398</ele>
        <time>2019-03-26T14:12:25Z</time>
      </trkpt>
      <trkpt lat="43.093780" lon="-5.998610">
        <ele>1124.196</ele>
        <time>2019-03-26T14:12:45Z</time>
      </trkpt>
      <trkpt lat="43.093770" lon="-5.998440">
        <ele>1123.099</ele>
        <time>2019-03-26T14:13:05Z</time>
      </trkpt>
      <trkpt lat="43.093670" lon="-5.998230">
        <ele>1120.661</ele>
        <time>2019-03-26T14:13:25Z</time>
      </trkpt>
      <trkpt lat="43.093670" lon="-5.997980">
        <ele>1119.582</ele>
        <time>2019-03-26T14:13:45Z</time>
      </trkpt>
      <trkpt lat="43.093830" lon="-5.997830">
        <ele>1117.843</ele>
        <time>2019-03-26T14:14:05Z</time>
      </trkpt>
      <trkpt lat="43.094350" lon="-5.997640">
        <ele>1114.417</ele>
        <time>2019-03-26T14:14:25Z</time>
      </trkpt>
      <trkpt lat="43.094470" lon="-5.997530">
        <ele>1113.308</ele>
        <time>2019-03-26T14:14:45Z</time>
      </trkpt>
      <trkpt lat="43.094580" lon="-5.997340">
        <ele>1112.251</ele>
        <time>2019-03-26T14:15:05Z</time>
      </trkpt>
      <trkpt lat="43.094640" lon="-5.997150">
        <ele>1111.062</ele>
        <time>2019-03-26T14:15:25Z</time>
      </trkpt>
      <trkpt lat="43.094760" lon="-5.996620">
        <ele>1108.613</ele>
        <time>2019-03-26T14:15:45Z</time>
      </trkpt>
      <trkpt lat="43.094900" lon="-5.996140">
        <ele>1105.362</ele>
        <time>2019-03-26T14:16:05Z</time>
      </trkpt>
      <trkpt lat="43.095210" lon="-5.995410">
        <ele>1100.124</ele>
        <time>2019-03-26T14:16:25Z</time>
      </trkpt>
      <trkpt lat="43.095310" lon="-5.995270">
        <ele>1099.182</ele>
        <time>2019-03-26T14:16:45Z</time>
      </trkpt>
      <trkpt lat="43.095450" lon="-5.995130">
        <ele>1098.155</ele>
        <time>2019-03-26T14:17:05Z</time>
      </trkpt>
      <trkpt lat="43.095680" lon="-5.994970">
        <ele>1095.897</ele>
        <time>2019-03-26T14:17:25Z</time>
      </trkpt>
      <trkpt lat="43.095760" lon="-5.994830">
        <ele>1095.854</ele>
        <time>2019-03-26T14:17:45Z</time>
      </trkpt>
      <trkpt lat="43.095800" lon="-5.994720">
        <ele>1094.856</ele>
        <time>2019-03-26T14:18:05Z</time>
      </trkpt>
      <trkpt lat="43.095920" lon="-5.994190">
        <ele>1092.411</ele>
        <time>2019-03-26T14:18:25Z</time>
      </trkpt>
      <trkpt lat="43.095950" lon="-5.993580">
        <ele>1090.108</ele>
        <time>2019-03-26T14:18:45Z</time>
      </trkpt>
      <trkpt lat="43.095950" lon="-5.993590">
        <ele>1089.618</ele>
        <time>2019-03-26T14:19:05Z</time>
      </trkpt>
      <trkpt lat="43.095940" lon="-5.993210">
        <ele>1088.039</ele>
        <time>2019-03-26T14:19:25Z</time>
      </trkpt>
      <trkpt lat="43.095910" lon="-5.993020">
        <ele>1086.950</ele>
        <time>2019-03-26T14:19:45Z</time>
      </trkpt>
      <trkpt lat="43.095840" lon="-5.992600">
        <ele>1084.879</ele>
        <time>2019-03-26T14:20:05Z</time>
      </trkpt>
      <trkpt lat="43.095690" lon="-5.992010">
        <ele>1080.451</ele>
        <time>2019-03-26T14:20:25Z</time>
      </trkpt>
      <trkpt lat="43.095630" lon="-5.991520">
        <ele>1078.469</ele>
        <time>2019-03-26T14:20:45Z</time>
      </trkpt>
      <trkpt lat="43.095630" lon="-5.991290">
        <ele>1076.172</ele>
        <time>2019-03-26T14:21:05Z</time>
      </trkpt>
      <trkpt lat="43.095670" lon="-5.991050">
        <ele>1075.014</ele>
        <time>2019-03-26T14:21:25Z</time>
      </trkpt>
      <trkpt lat="43.095710" lon="-5.990910">
        <ele>1073.932</ele>
        <time>2019-03-26T14:21:45Z</time>
      </trkpt>
      <trkpt lat="43.095800" lon="-5.990750">
        <ele>1072.892</ele>
        <time>2019-03-26T14:22:05Z</time>
      </trkpt>
      <trkpt lat="43.095830" lon="-5.990630">
        <ele>1072.811</ele>
        <time>2019-03-26T14:22:25Z</time>
      </trkpt>
      <trkpt lat="43.095780" lon="-5.990280">
        <ele>1070.408</ele>
        <time>2019-03-26T14:22:45Z</time>
      </trkpt>
      <trkpt lat="43.095710" lon="-5.990050">
        <ele>1069.316</ele>
        <time>2019-03-26T14:23:05Z</time>
      </trkpt>
      <trkpt lat="43.095480" lon="-5.989670">
        <ele>1068.037</ele>
        <time>2019-03-26T14:23:25Z</time>
      </trkpt>
      <trkpt lat="43.095090" lon="-5.989220">
        <ele>1063.688</ele>
        <time>2019-03-26T14:23:45Z</time>
      </trkpt>
      <trkpt lat="43.094890" lon="-5.989100">
        <ele>1062.617</ele>
        <time>2019-03-26T14:24:05Z</time>
      </trkpt>
      <trkpt lat="43.094800" lon="-5.989010">
        <ele>1061.469</ele>
        <time>2019-03-26T14:24:25Z</time>
      </trkpt>
      <trkpt lat="43.094750" lon="-5.988850">
        <ele>1061.487</ele>
        <time>2019-03-26T14:24:45Z</time>
      </trkpt>
      <trkpt lat="43.094700" lon="-5.988450">
        <ele>1059.430</ele>
        <time>2019-03-26T14:25:05Z</time>
      </trkpt>
      <trkpt lat="43.094630" lon="-5.988070">
        <ele>1057.552</ele>
        <time>2019-03-26T14:25:25Z</time>
      </trkpt>
      <trkpt lat="43.094520" lon="-5.987700">
        <ele>1055.155</ele>
        <time>2019-03-26T14:25:45Z</time>
      </trkpt>
      <trkpt lat="43.094430" lon="-5.987510">
        <ele>1053.807</ele>
        <time>2019-03-26T14:26:05Z</time>
      </trkpt>
      <trkpt lat="43.094310" lon="-5.987320">
        <ele>1052.817</ele>
        <time>2019-03-26T14:26:25Z</time>
      </trkpt>
      <trkpt lat="43.094140" lon="-5.987110">
        <ele>1051.708</ele>
        <time>2019-03-26T14:26:45Z</time>
      </trkpt>
      <trkpt lat="43.093960" lon="-5.986780">
        <ele>1049.638</ele>
        <time>2019-03-26T14:27:05Z</time>
      </trkpt>
      <trkpt lat="43.093850" lon="-5.986640">
        <ele>1048.589</ele>
        <time>2019-03-26T14:27:25Z</time>
      </trkpt>
      <trkpt lat="43.093520" lon="-5.986290">
        <ele>1045.110</ele>
        <time>2019-03-26T14:27:45Z</time>
      </trkpt>
      <trkpt lat="43.093410" lon="-5.986260">
        <ele>1044.159</ele>
        <time>2019-03-26T14:28:05Z</time>
      </trkpt>
      <trkpt lat="43.093270" lon="-5.986320">
        <ele>1043.041</ele>
        <time>2019-03-26T14:28:25Z</time>
      </trkpt>
      <trkpt lat="43.093170" lon="-5.986520">
        <ele>1041.989</ele>
        <time>2019-03-26T14:28:45Z</time>
      </trkpt>
      <trkpt lat="43.093050" lon="-5.987040">
        <ele>1038.742</ele>
        <time>2019-03-26T14:29:05Z</time>
      </trkpt>
      <trkpt lat="43.092980" lon="-5.987230">
        <ele>1038.754</ele>
        <time>2019-03-26T14:29:25Z</time>
      </trkpt>
      <trkpt lat="43.092930" lon="-5.987300">
        <ele>1038.767</ele>
        <time>2019-03-26T14:29:45Z</time>
      </trkpt>
      <trkpt lat="43.092700" lon="-5.987460">
        <ele>1035.481</ele>
        <time>2019-03-26T14:30:05Z</time>
      </trkpt>
      <trkpt lat="43.092340" lon="-5.988000">
        <ele>1033.219</ele>
        <time>2019-03-26T14:30:25Z</time>
      </trkpt>
      <trkpt lat="43.092230" lon="-5.988050">
        <ele>1032.108</ele>
        <time>2019-03-26T14:30:45Z</time>
      </trkpt>
      <trkpt lat="43.091920" lon="-5.988020">
        <ele>1030.039</ele>
        <time>2019-03-26T14:31:05Z</time>
      </trkpt>
      <trkpt lat="43.091730" lon="-5.988070">
        <ele>1029.160</ele>
        <time>2019-03-26T14:31:25Z</time>
      </trkpt>
      <trkpt lat="43.091670" lon="-5.988120">
        <ele>1029.191</ele>
        <time>2019-03-26T14:31:45Z</time>
      </trkpt>
      <trkpt lat="43.091540" lon="-5.988360">
        <ele>1026.980</ele>
        <time>2019-03-26T14:32:05Z</time>
      </trkpt>
      <trkpt lat="43.091330" lon="-5.988660">
        <ele>1024.932</ele>
        <time>2019-03-26T14:32:25Z</time>
      </trkpt>
      <trkpt lat="43.091250" lon="-5.988750">
        <ele>1024.210</ele>
        <time>2019-03-26T14:32:45Z</time>
      </trkpt>
      <trkpt lat="43.091130" lon="-5.988820">
        <ele>1023.443</ele>
        <time>2019-03-26T14:33:05Z</time>
      </trkpt>
      <trkpt lat="43.090920" lon="-5.988870">
        <ele>1022.335</ele>
        <time>2019-03-26T14:33:25Z</time>
      </trkpt>
      <trkpt lat="43.090750" lon="-5.988800">
        <ele>1021.371</ele>
        <time>2019-03-26T14:33:45Z</time>
      </trkpt>
      <trkpt lat="43.090620" lon="-5.988690">
        <ele>1021.341</ele>
        <time>2019-03-26T14:34:05Z</time>
      </trkpt>
      <trkpt lat="43.090340" lon="-5.988330">
        <ele>1018.015</ele>
        <time>2019-03-26T14:34:25Z</time>
      </trkpt>
      <trkpt lat="43.090270" lon="-5.988260">
        <ele>1016.908</ele>
        <time>2019-03-26T14:34:45Z</time>
      </trkpt>
      <trkpt lat="43.090080" lon="-5.988220">
        <ele>1014.910</ele>
        <time>2019-03-26T14:35:05Z</time>
      </trkpt>
      <trkpt lat="43.089680" lon="-5.988450">
        <ele>1010.691</ele>
        <time>2019-03-26T14:35:25Z</time>
      </trkpt>
      <trkpt lat="43.089550" lon="-5.988450">
        <ele>1010.682</ele>
        <time>2019-03-26T14:35:45Z</time>
      </trkpt>
      <trkpt lat="43.089450" lon="-5.988380">
        <ele>1010.631</ele>
        <time>2019-03-26T14:36:05Z</time>
      </trkpt>
      <trkpt lat="43.089350" lon="-5.988220">
        <ele>1008.593</ele>
        <time>2019-03-26T14:36:25Z</time>
      </trkpt>
      <trkpt lat="43.089310" lon="-5.988050">
        <ele>1008.531</ele>
        <time>2019-03-26T14:36:45Z</time>
      </trkpt>
      <trkpt lat="43.089310" lon="-5.987860">
        <ele>1007.114</ele>
        <time>2019-03-26T14:37:05Z</time>
      </trkpt>
      <trkpt lat="43.089360" lon="-5.987630">
        <ele>1006.246</ele>
        <time>2019-03-26T14:37:25Z</time>
      </trkpt>
      <trkpt lat="43.089460" lon="-5.987320">
        <ele>1004.347</ele>
        <time>2019-03-26T14:37:45Z</time>
      </trkpt>
      <trkpt lat="43.089650" lon="-5.986830">
        <ele>1000.629</ele>
        <time>2019-03-26T14:38:05Z</time>
      </trkpt>
      <trkpt lat="43.089680" lon="-5.986670">
        <ele>998.921</ele>
        <time>2019-03-26T14:38:25Z</time>
      </trkpt>
      <trkpt lat="43.089660" lon="-5.986550">
        <ele>998.908</ele>
        <time>2019-03-26T14:38:45Z</time>
      </trkpt>
      <trkpt lat="43.089590" lon="-5.986340">
        <ele>997.167</ele>
        <time>2019-03-26T14:39:05Z</time>
      </trkpt>
      <trkpt lat="43.089580" lon="-5.986170">
        <ele>995.918</ele>
        <time>2019-03-26T14:39:25Z</time>
      </trkpt>
      <trkpt lat="43.089610" lon="-5.985920">
        <ele>993.889</ele>
        <time>2019-03-26T14:39:45Z</time>
      </trkpt>
      <trkpt lat="43.089670" lon="-5.985680">
        <ele>991.958</ele>
        <time>2019-03-26T14:40:05Z</time>
      </trkpt>
      <trkpt lat="43.089660" lon="-5.985280">
        <ele>989.120</ele>
        <time>2019-03-26T14:40:25Z</time>
      </trkpt>
      <trkpt lat="43.089790" lon="-5.984930">
        <ele>986.318</ele>
        <time>2019-03-26T14:40:45Z</time>
      </trkpt>
      <trkpt lat="43.089810" lon="-5.984740">
        <ele>984.151</ele>
        <time>2019-03-26T14:41:05Z</time>
      </trkpt>
      <trkpt lat="43.089740" lon="-5.984340">
        <ele>980.773</ele>
        <time>2019-03-26T14:41:25Z</time>
      </trkpt>
      <trkpt lat="43.089620" lon="-5.984040">
        <ele>977.416</ele>
        <time>2019-03-26T14:41:45Z</time>
      </trkpt>
      <trkpt lat="43.089530" lon="-5.983730">
        <ele>974.276</ele>
        <time>2019-03-26T14:42:05Z</time>
      </trkpt>
      <trkpt lat="43.089500" lon="-5.983550">
        <ele>972.813</ele>
        <time>2019-03-26T14:42:25Z</time>
      </trkpt>
      <trkpt lat="43.089520" lon="-5.983360">
        <ele>971.708</ele>
        <time>2019-03-26T14:42:45Z</time>
      </trkpt>
      <trkpt lat="43.089600" lon="-5.983000">
        <ele>968.014</ele>
        <time>2019-03-26T14:43:05Z</time>
      </trkpt>
      <trkpt lat="43.089590" lon="-5.982790">
        <ele>967.245</ele>
        <time>2019-03-26T14:43:25Z</time>
      </trkpt>
      <trkpt lat="43.089800" lon="-5.982110">
        <ele>961.966</ele>
        <time>2019-03-26T14:43:45Z</time>
      </trkpt>
      <trkpt lat="43.089870" lon="-5.981760">
        <ele>957.565</ele>
        <time>2019-03-26T14:44:05Z</time>
      </trkpt>
      <trkpt lat="43.089840" lon="-5.981640">
        <ele>956.517</ele>
        <time>2019-03-26T14:44:25Z</time>
      </trkpt>
      <trkpt lat="43.089710" lon="-5.981550">
        <ele>955.325</ele>
        <time>2019-03-26T14:44:45Z</time>
      </trkpt>
      <trkpt lat="43.089670" lon="-5.981500">
        <ele>955.328</ele>
        <time>2019-03-26T14:45:05Z</time>
      </trkpt>
      <trkpt lat="43.089610" lon="-5.981360">
        <ele>953.620</ele>
        <time>2019-03-26T14:45:25Z</time>
      </trkpt>
      <trkpt lat="43.089490" lon="-5.980820">
        <ele>949.571</ele>
        <time>2019-03-26T14:45:45Z</time>
      </trkpt>
      <trkpt lat="43.089380" lon="-5.980000">
        <ele>941.741</ele>
        <time>2019-03-26T14:46:05Z</time>
      </trkpt>
      <trkpt lat="43.089340" lon="-5.979140">
        <ele>935.715</ele>
        <time>2019-03-26T14:46:25Z</time>
      </trkpt>
      <trkpt lat="43.089360" lon="-5.978900">
        <ele>934.008</ele>
        <time>2019-03-26T14:46:45Z</time>
      </trkpt>
      <trkpt lat="43.089410" lon="-5.978620">
        <ele>932.370</ele>
        <time>2019-03-26T14:47:05Z</time>
      </trkpt>
      <trkpt lat="43.089460" lon="-5.978450">
        <ele>931.161</ele>
        <time>2019-03-26T14:47:25Z</time>
      </trkpt>
      <trkpt lat="43.089720" lon="-5.978050">
        <ele>925.932</ele>
        <time>2019-03-26T14:47:45Z</time>
      </trkpt>
      <trkpt lat="43.089860" lon="-5.977800">
        <ele>923.661</ele>
        <time>2019-03-26T14:48:05Z</time>
      </trkpt>
      <trkpt lat="43.089880" lon="-5.977650">
        <ele>922.973</ele>
        <time>2019-03-26T14:48:25Z</time>
      </trkpt>
      <trkpt lat="43.089870" lon="-5.977210">
        <ele>919.061</ele>
        <time>2019-03-26T14:48:45Z</time>
      </trkpt>
      <trkpt lat="43.089890" lon="-5.977020">
        <ele>917.164</ele>
        <time>2019-03-26T14:49:05Z</time>
      </trkpt>
      <trkpt lat="43.089950" lon="-5.976900">
        <ele>917.126</ele>
        <time>2019-03-26T14:49:25Z</time>
      </trkpt>
      <trkpt lat="43.090080" lon="-5.976780">
        <ele>915.156</ele>
        <time>2019-03-26T14:49:45Z</time>
      </trkpt>
      <trkpt lat="43.090270" lon="-5.976790">
        <ele>913.159</ele>
        <time>2019-03-26T14:50:05Z</time>
      </trkpt>
      <trkpt lat="43.090450" lon="-5.976910">
        <ele>908.014</ele>
        <time>2019-03-26T14:50:25Z</time>
      </trkpt>
      <trkpt lat="43.090490" lon="-5.976980">
        <ele>906.908</ele>
        <time>2019-03-26T14:50:45Z</time>
      </trkpt>
      <trkpt lat="43.090550" lon="-5.977240">
        <ele>905.868</ele>
        <time>2019-03-26T14:51:05Z</time>
      </trkpt>
      <trkpt lat="43.090690" lon="-5.978320">
        <ele>900.939</ele>
        <time>2019-03-26T14:51:25Z</time>
      </trkpt>
      <trkpt lat="43.090740" lon="-5.978480">
        <ele>900.950</ele>
        <time>2019-03-26T14:51:45Z</time>
      </trkpt>
      <trkpt lat="43.090930" lon="-5.978950">
        <ele>897.459</ele>
        <time>2019-03-26T14:52:05Z</time>
      </trkpt>
      <trkpt lat="43.091180" lon="-5.979280">
        <ele>894.851</ele>
        <time>2019-03-26T14:52:25Z</time>
      </trkpt>
      <trkpt lat="43.091630" lon="-5.979610">
        <ele>891.499</ele>
        <time>2019-03-26T14:52:45Z</time>
      </trkpt>
      <trkpt lat="43.091970" lon="-5.980260">
        <ele>887.652</ele>
        <time>2019-03-26T14:53:05Z</time>
      </trkpt>
      <trkpt lat="43.092030" lon="-5.980450">
        <ele>886.444</ele>
        <time>2019-03-26T14:53:25Z</time>
      </trkpt>
      <trkpt lat="43.092030" lon="-5.980620">
        <ele>884.935</ele>
        <time>2019-03-26T14:53:45Z</time>
      </trkpt>
      <trkpt lat="43.091900" lon="-5.980900">
        <ele>883.286</ele>
        <time>2019-03-26T14:54:05Z</time>
      </trkpt>
      <trkpt lat="43.091500" lon="-5.981220">
        <ele>880.614</ele>
        <time>2019-03-26T14:54:25Z</time>
      </trkpt>
      <trkpt lat="43.091390" lon="-5.981340">
        <ele>879.408</ele>
        <time>2019-03-26T14:54:45Z</time>
      </trkpt>
      <trkpt lat="43.091170" lon="-5.981710">
        <ele>878.246</ele>
        <time>2019-03-26T14:55:05Z</time>
      </trkpt>
      <trkpt lat="43.090900" lon="-5.982210">
        <ele>873.767</ele>
        <time>2019-03-26T14:55:25Z</time>
      </trkpt>
      <trkpt lat="43.090860" lon="-5.982330">
        <ele>873.718</ele>
        <time>2019-03-26T14:55:45Z</time>
      </trkpt>
      <trkpt lat="43.090860" lon="-5.982520">
        <ele>872.287</ele>
        <time>2019-03-26T14:56:05Z</time>
      </trkpt>
      <trkpt lat="43.090900" lon="-5.982630">
        <ele>870.969</ele>
        <time>2019-03-26T14:56:25Z</time>
      </trkpt>
      <trkpt lat="43.090940" lon="-5.982700">
        <ele>869.537</ele>
        <time>2019-03-26T14:56:45Z</time>
      </trkpt>
      <trkpt lat="43.090990" lon="-5.982750">
        <ele>869.510</ele>
        <time>2019-03-26T14:57:05Z</time>
      </trkpt>
      <trkpt lat="43.091100" lon="-5.982770">
        <ele>868.072</ele>
        <time>2019-03-26T14:57:25Z</time>
      </trkpt>
      <trkpt lat="43.091160" lon="-5.982750">
        <ele>868.057</ele>
        <time>2019-03-26T14:57:45Z</time>
      </trkpt>
      <trkpt lat="43.091360" lon="-5.982630">
        <ele>865.000</ele>
        <time>2019-03-26T14:58:05Z</time>
      </trkpt>
      <trkpt lat="43.091530" lon="-5.982350">
        <ele>863.720</ele>
        <time>2019-03-26T14:58:25Z</time>
      </trkpt>
      <trkpt lat="43.091620" lon="-5.982250">
        <ele>862.108</ele>
        <time>2019-03-26T14:58:45Z</time>
      </trkpt>
      <trkpt lat="43.091750" lon="-5.982180">
        <ele>860.748</ele>
        <time>2019-03-26T14:59:05Z</time>
      </trkpt>
      <trkpt lat="43.091860" lon="-5.982160">
        <ele>860.769</ele>
        <time>2019-03-26T14:59:25Z</time>
      </trkpt>
      <trkpt lat="43.092050" lon="-5.982210">
        <ele>859.510</ele>
        <time>2019-03-26T14:59:45Z</time>
      </trkpt>
      <trkpt lat="43.092190" lon="-5.982210">
        <ele>858.219</ele>
        <time>2019-03-26T15:00:05Z</time>
      </trkpt>
      <trkpt lat="43.092320" lon="-5.982140">
        <ele>858.241</ele>
        <time>2019-03-26T15:00:25Z</time>
      </trkpt>
      <trkpt lat="43.092430" lon="-5.982000">
        <ele>858.299</ele>
        <time>2019-03-26T15:00:45Z</time>
      </trkpt>
      <trkpt lat="43.092550" lon="-5.981950">
        <ele>854.252</ele>
        <time>2019-03-26T15:01:05Z</time>
      </trkpt>
      <trkpt lat="43.092660" lon="-5.981950">
        <ele>854.244</ele>
        <time>2019-03-26T15:01:25Z</time>
      </trkpt>
      <trkpt lat="43.092830" lon="-5.982020">
        <ele>854.222</ele>
        <time>2019-03-26T15:01:45Z</time>
      </trkpt>
      <trkpt lat="43.092950" lon="-5.981980">
        <ele>852.962</ele>
        <time>2019-03-26T15:02:05Z</time>
      </trkpt>
      <trkpt lat="43.093270" lon="-5.981740">
        <ele>849.708</ele>
        <time>2019-03-26T15:02:25Z</time>
      </trkpt>
      <trkpt lat="43.093490" lon="-5.981620">
        <ele>847.208</ele>
        <time>2019-03-26T15:02:45Z</time>
      </trkpt>
      <trkpt lat="43.093730" lon="-5.981390">
        <ele>846.345</ele>
        <time>2019-03-26T15:03:05Z</time>
      </trkpt>
      <trkpt lat="43.093830" lon="-5.981230">
        <ele>845.156</ele>
        <time>2019-03-26T15:03:25Z</time>
      </trkpt>
      <trkpt lat="43.094070" lon="-5.980640">
        <ele>840.767</ele>
        <time>2019-03-26T15:03:45Z</time>
      </trkpt>
      <trkpt lat="43.094250" lon="-5.980280">
        <ele>837.766</ele>
        <time>2019-03-26T15:04:05Z</time>
      </trkpt>
      <trkpt lat="43.094400" lon="-5.980030">
        <ele>835.738</ele>
        <time>2019-03-26T15:04:25Z</time>
      </trkpt>
      <trkpt lat="43.094530" lon="-5.979950">
        <ele>835.716</ele>
        <time>2019-03-26T15:04:45Z</time>
      </trkpt>
      <trkpt lat="43.094590" lon="-5.979930">
        <ele>835.799</ele>
        <time>2019-03-26T15:05:05Z</time>
      </trkpt>
      <trkpt lat="43.094820" lon="-5.980000">
        <ele>831.381</ele>
        <time>2019-03-26T15:05:25Z</time>
      </trkpt>
      <trkpt lat="43.095250" lon="-5.980220">
        <ele>826.319</ele>
        <time>2019-03-26T15:05:45Z</time>
      </trkpt>
      <trkpt lat="43.095330" lon="-5.980280">
        <ele>826.309</ele>
        <time>2019-03-26T15:06:05Z</time>
      </trkpt>
      <trkpt lat="43.095380" lon="-5.980350">
        <ele>826.319</ele>
        <time>2019-03-26T15:06:25Z</time>
      </trkpt>
      <trkpt lat="43.095450" lon="-5.980690">
        <ele>824.508</ele>
        <time>2019-03-26T15:06:45Z</time>
      </trkpt>
      <trkpt lat="43.095500" lon="-5.980820">
        <ele>823.054</ele>
        <time>2019-03-26T15:07:05Z</time>
      </trkpt>
      <trkpt lat="43.095570" lon="-5.980920">
        <ele>823.045</ele>
        <time>2019-03-26T15:07:25Z</time>
      </trkpt>
      <trkpt lat="43.095670" lon="-5.980990">
        <ele>822.496</ele>
        <time>2019-03-26T15:07:45Z</time>
      </trkpt>
      <trkpt lat="43.095740" lon="-5.980990">
        <ele>821.215</ele>
        <time>2019-03-26T15:08:05Z</time>
      </trkpt>
      <trkpt lat="43.095930" lon="-5.980920">
        <ele>819.757</ele>
        <time>2019-03-26T15:08:25Z</time>
      </trkpt>
      <trkpt lat="43.096040" lon="-5.980800">
        <ele>819.785</ele>
        <time>2019-03-26T15:08:45Z</time>
      </trkpt>
      <trkpt lat="43.096160" lon="-5.980730">
        <ele>817.048</ele>
        <time>2019-03-26T15:09:05Z</time>
      </trkpt>
      <trkpt lat="43.096300" lon="-5.980710">
        <ele>817.080</ele>
        <time>2019-03-26T15:09:25Z</time>
      </trkpt>
      <trkpt lat="43.096835" lon="-5.980965">
        <ele>814.023</ele>
        <time>2019-03-26T15:09:45Z</time>
      </trkpt>
      <trkpt lat="43.097370" lon="-5.981220">
        <ele>808.583</ele>
        <time>2019-03-26T15:10:05Z</time>
      </trkpt>
      <trkpt lat="43.097880" lon="-5.981410">
        <ele>807.111</ele>
        <time>2019-03-26T15:10:25Z</time>
      </trkpt>
      <trkpt lat="43.098100" lon="-5.981550">
        <ele>804.408</ele>
        <time>2019-03-26T15:10:45Z</time>
      </trkpt>
      <trkpt lat="43.098300" lon="-5.981600">
        <ele>802.975</ele>
        <time>2019-03-26T15:11:05Z</time>
      </trkpt>
      <trkpt lat="43.098600" lon="-5.981530">
        <ele>800.846</ele>
        <time>2019-03-26T15:11:25Z</time>
      </trkpt>
      <trkpt lat="43.098590" lon="-5.981530">
        <ele>800.797</ele>
        <time>2019-03-26T15:11:45Z</time>
      </trkpt>
      <trkpt lat="43.098930" lon="-5.981480">
        <ele>798.446</ele>
        <time>2019-03-26T15:12:05Z</time>
      </trkpt>
      <trkpt lat="43.099180" lon="-5.981580">
        <ele>795.458</ele>
        <time>2019-03-26T15:12:25Z</time>
      </trkpt>
      <trkpt lat="43.099470" lon="-5.981600">
        <ele>793.516</ele>
        <time>2019-03-26T15:12:45Z</time>
      </trkpt>
      <trkpt lat="43.099970" lon="-5.981690">
        <ele>790.689</ele>
        <time>2019-03-26T15:13:05Z</time>
      </trkpt>
      <trkpt lat="43.100290" lon="-5.981710">
        <ele>788.091</ele>
        <time>2019-03-26T15:13:25Z</time>
      </trkpt>
      <trkpt lat="43.100420" lon="-5.981690">
        <ele>786.553</ele>
        <time>2019-03-26T15:13:45Z</time>
      </trkpt>
      <trkpt lat="43.101070" lon="-5.981410">
        <ele>781.604</ele>
        <time>2019-03-26T15:14:05Z</time>
      </trkpt>
      <trkpt lat="43.101220" lon="-5.981360">
        <ele>780.114</ele>
        <time>2019-03-26T15:14:25Z</time>
      </trkpt>
      <trkpt lat="43.101570" lon="-5.981360">
        <ele>776.708</ele>
        <time>2019-03-26T15:14:45Z</time>
      </trkpt>
      <trkpt lat="43.101710" lon="-5.981340">
        <ele>775.758</ele>
        <time>2019-03-26T15:15:05Z</time>
      </trkpt>
      <trkpt lat="43.101770" lon="-5.981300">
        <ele>775.379</ele>
        <time>2019-03-26T15:15:25Z</time>
      </trkpt>
      <trkpt lat="43.101880" lon="-5.981180">
        <ele>775.380</ele>
        <time>2019-03-26T15:15:45Z</time>
      </trkpt>
      <trkpt lat="43.102430" lon="-5.980350">
        <ele>767.569</ele>
        <time>2019-03-26T15:16:05Z</time>
      </trkpt>
      <trkpt lat="43.102530" lon="-5.980290">
        <ele>766.831</ele>
        <time>2019-03-26T15:16:25Z</time>
      </trkpt>
      <trkpt lat="43.103265" lon="-5.980230">
        <ele>763.169</ele>
        <time>2019-03-26T15:16:45Z</time>
      </trkpt>
      <trkpt lat="43.104000" lon="-5.980170">
        <ele>759.892</ele>
        <time>2019-03-26T15:17:05Z</time>
      </trkpt>
      <trkpt lat="43.104600" lon="-5.980210">
        <ele>755.644</ele>
        <time>2019-03-26T15:17:25Z</time>
      </trkpt>
      <trkpt lat="43.105420" lon="-5.980490">
        <ele>749.621</ele>
        <time>2019-03-26T15:17:45Z</time>
      </trkpt>
      <trkpt lat="43.105560" lon="-5.980490">
        <ele>749.341</ele>
        <time>2019-03-26T15:18:05Z</time>
      </trkpt>
      <trkpt lat="43.105710" lon="-5.980400">
        <ele>748.005</ele>
        <time>2019-03-26T15:18:25Z</time>
      </trkpt>
      <trkpt lat="43.106195" lon="-5.980415">
        <ele>745.008</ele>
        <time>2019-03-26T15:18:45Z</time>
      </trkpt>
      <trkpt lat="43.106680" lon="-5.980430">
        <ele>741.275</ele>
        <time>2019-03-26T15:19:05Z</time>
      </trkpt>
      <trkpt lat="43.106830" lon="-5.980400">
        <ele>740.026</ele>
        <time>2019-03-26T15:19:25Z</time>
      </trkpt>
      <trkpt lat="43.106940" lon="-5.980350">
        <ele>739.487</ele>
        <time>2019-03-26T15:19:45Z</time>
      </trkpt>
      <trkpt lat="43.107120" lon="-5.980190">
        <ele>738.216</ele>
        <time>2019-03-26T15:20:05Z</time>
      </trkpt>
      <trkpt lat="43.107440" lon="-5.979810">
        <ele>736.128</ele>
        <time>2019-03-26T15:20:25Z</time>
      </trkpt>
      <trkpt lat="43.107580" lon="-5.979540">
        <ele>733.236</ele>
        <time>2019-03-26T15:20:45Z</time>
      </trkpt>
      <trkpt lat="43.107830" lon="-5.978960">
        <ele>730.649</ele>
        <time>2019-03-26T15:21:05Z</time>
      </trkpt>
      <trkpt lat="43.108080" lon="-5.978380">
        <ele>727.391</ele>
        <time>2019-03-26T15:21:25Z</time>
      </trkpt>
      <trkpt lat="43.108170" lon="-5.978290">
        <ele>725.889</ele>
        <time>2019-03-26T15:21:45Z</time>
      </trkpt>
      <trkpt lat="43.108260" lon="-5.978220">
        <ele>725.806</ele>
        <time>2019-03-26T15:22:05Z</time>
      </trkpt>
      <trkpt lat="43.108370" lon="-5.978170">
        <ele>724.726</ele>
        <time>2019-03-26T15:22:25Z</time>
      </trkpt>
      <trkpt lat="43.108870" lon="-5.978030">
        <ele>721.608</ele>
        <time>2019-03-26T15:22:45Z</time>
      </trkpt>
      <trkpt lat="43.109365" lon="-5.977915">
        <ele>717.381</ele>
        <time>2019-03-26T15:23:05Z</time>
      </trkpt>
      <trkpt lat="43.109860" lon="-5.977800">
        <ele>714.782</ele>
        <time>2019-03-26T15:23:25Z</time>
      </trkpt>
      <trkpt lat="43.110050" lon="-5.977820">
        <ele>713.323</ele>
        <time>2019-03-26T15:23:45Z</time>
      </trkpt>
      <trkpt lat="43.110420" lon="-5.978030">
        <ele>710.552</ele>
        <time>2019-03-26T15:24:05Z</time>
      </trkpt>
      <trkpt lat="43.110560" lon="-5.978080">
        <ele>709.824</ele>
        <time>2019-03-26T15:24:25Z</time>
      </trkpt>
      <trkpt lat="43.111030" lon="-5.978130">
        <ele>705.972</ele>
        <time>2019-03-26T15:24:45Z</time>
      </trkpt>
      <trkpt lat="43.111340" lon="-5.978100">
        <ele>704.315</ele>
        <time>2019-03-26T15:25:05Z</time>
      </trkpt>
      <trkpt lat="43.111670" lon="-5.978220">
        <ele>701.267</ele>
        <time>2019-03-26T15:25:25Z</time>
      </trkpt>
      <trkpt lat="43.111910" lon="-5.978260">
        <ele>699.962</ele>
        <time>2019-03-26T15:25:45Z</time>
      </trkpt>
      <trkpt lat="43.112260" lon="-5.978290">
        <ele>697.583</ele>
        <time>2019-03-26T15:26:05Z</time>
      </trkpt>
      <trkpt lat="43.112920" lon="-5.978260">
        <ele>691.811</ele>
        <time>2019-03-26T15:26:25Z</time>
      </trkpt>
      <trkpt lat="43.113110" lon="-5.978200">
        <ele>690.908</ele>
        <time>2019-03-26T15:26:45Z</time>
      </trkpt>
      <trkpt lat="43.113170" lon="-5.978150">
        <ele>690.289</ele>
        <time>2019-03-26T15:27:05Z</time>
      </trkpt>
      <trkpt lat="43.113440" lon="-5.977780">
        <ele>688.370</ele>
        <time>2019-03-26T15:27:25Z</time>
      </trkpt>
      <trkpt lat="43.114170" lon="-5.977280">
        <ele>680.821</ele>
        <time>2019-03-26T15:27:45Z</time>
      </trkpt>
      <trkpt lat="43.114260" lon="-5.977190">
        <ele>678.670</ele>
        <time>2019-03-26T15:28:05Z</time>
      </trkpt>
      <trkpt lat="43.114380" lon="-5.976980">
        <ele>677.432</ele>
        <time>2019-03-26T15:28:25Z</time>
      </trkpt>
      <trkpt lat="43.114630" lon="-5.976430">
        <ele>672.950</ele>
        <time>2019-03-26T15:28:45Z</time>
      </trkpt>
      <trkpt lat="43.114750" lon="-5.976210">
        <ele>670.783</ele>
        <time>2019-03-26T15:29:05Z</time>
      </trkpt>
      <trkpt lat="43.114980" lon="-5.976060">
        <ele>667.885</ele>
        <time>2019-03-26T15:29:25Z</time>
      </trkpt>
      <trkpt lat="43.115370" lon="-5.975710">
        <ele>664.797</ele>
        <time>2019-03-26T15:29:45Z</time>
      </trkpt>
      <trkpt lat="43.115710" lon="-5.975310">
        <ele>661.023</ele>
        <time>2019-03-26T15:30:05Z</time>
      </trkpt>
      <trkpt lat="43.115840" lon="-5.975190">
        <ele>660.225</ele>
        <time>2019-03-26T15:30:25Z</time>
      </trkpt>
      <trkpt lat="43.116300" lon="-5.975000">
        <ele>656.608</ele>
        <time>2019-03-26T15:30:45Z</time>
      </trkpt>
      <trkpt lat="43.116430" lon="-5.975000">
        <ele>655.652</ele>
        <time>2019-03-26T15:31:05Z</time>
      </trkpt>
      <trkpt lat="43.116520" lon="-5.975030">
        <ele>655.363</ele>
        <time>2019-03-26T15:31:25Z</time>
      </trkpt>
      <trkpt lat="43.117010" lon="-5.975310">
        <ele>654.524</ele>
        <time>2019-03-26T15:31:45Z</time>
      </trkpt>
      <trkpt lat="43.117100" lon="-5.975310">
        <ele>654.583</ele>
        <time>2019-03-26T15:32:05Z</time>
      </trkpt>
      <trkpt lat="43.117450" lon="-5.975190">
        <ele>654.045</ele>
        <time>2019-03-26T15:32:25Z</time>
      </trkpt>
      <trkpt lat="43.117740" lon="-5.975120">
        <ele>653.763</ele>
        <time>2019-03-26T15:32:45Z</time>
      </trkpt>
      <trkpt lat="43.117950" lon="-5.975120">
        <ele>653.716</ele>
        <time>2019-03-26T15:33:05Z</time>
      </trkpt>
      <trkpt lat="43.118210" lon="-5.975220">
        <ele>654.028</ele>
        <time>2019-03-26T15:33:25Z</time>
      </trkpt>
      <trkpt lat="43.118930" lon="-5.975730">
        <ele>655.487</ele>
        <time>2019-03-26T15:33:45Z</time>
      </trkpt>
      <trkpt lat="43.119060" lon="-5.975800">
        <ele>655.842</ele>
        <time>2019-03-26T15:34:05Z</time>
      </trkpt>
      <trkpt lat="43.119310" lon="-5.975820">
        <ele>656.126</ele>
        <time>2019-03-26T15:34:25Z</time>
      </trkpt>
      <trkpt lat="43.119400" lon="-5.975800">
        <ele>656.108</ele>
        <time>2019-03-26T15:34:45Z</time>
      </trkpt>
      <trkpt lat="43.119510" lon="-5.975750">
        <ele>656.141</ele>
        <time>2019-03-26T15:35:05Z</time>
      </trkpt>
      <trkpt lat="43.119680" lon="-5.975620">
        <ele>655.942</ele>
        <time>2019-03-26T15:35:25Z</time>
      </trkpt>
      <trkpt lat="43.119780" lon="-5.975470">
        <ele>655.913</ele>
        <time>2019-03-26T15:35:45Z</time>
      </trkpt>
      <trkpt lat="43.119850" lon="-5.975330">
        <ele>655.732</ele>
        <time>2019-03-26T15:36:05Z</time>
      </trkpt>
      <trkpt lat="43.120000" lon="-5.974770">
        <ele>655.074</ele>
        <time>2019-03-26T15:36:25Z</time>
      </trkpt>
      <trkpt lat="43.120130" lon="-5.974460">
        <ele>653.972</ele>
        <time>2019-03-26T15:36:45Z</time>
      </trkpt>
      <trkpt lat="43.120220" lon="-5.974300">
        <ele>653.345</ele>
        <time>2019-03-26T15:37:05Z</time>
      </trkpt>
      <trkpt lat="43.120340" lon="-5.974160">
        <ele>652.427</ele>
        <time>2019-03-26T15:37:25Z</time>
      </trkpt>
      <trkpt lat="43.120640" lon="-5.973930">
        <ele>650.784</ele>
        <time>2019-03-26T15:37:45Z</time>
      </trkpt>
      <trkpt lat="43.120720" lon="-5.973830">
        <ele>649.807</ele>
        <time>2019-03-26T15:38:05Z</time>
      </trkpt>
      <trkpt lat="43.120780" lon="-5.973740">
        <ele>649.817</ele>
        <time>2019-03-26T15:38:25Z</time>
      </trkpt>
      <trkpt lat="43.120860" lon="-5.973570">
        <ele>648.208</ele>
        <time>2019-03-26T15:38:45Z</time>
      </trkpt>
      <trkpt lat="43.120920" lon="-5.973390">
        <ele>647.651</ele>
        <time>2019-03-26T15:39:05Z</time>
      </trkpt>
      <trkpt lat="43.121010" lon="-5.973250">
        <ele>646.772</ele>
        <time>2019-03-26T15:39:25Z</time>
      </trkpt>
      <trkpt lat="43.121300" lon="-5.972920">
        <ele>644.353</ele>
        <time>2019-03-26T15:39:45Z</time>
      </trkpt>
      <trkpt lat="43.121500" lon="-5.972490">
        <ele>642.362</ele>
        <time>2019-03-26T15:40:05Z</time>
      </trkpt>
      <trkpt lat="43.121590" lon="-5.972330">
        <ele>641.964</ele>
        <time>2019-03-26T15:40:25Z</time>
      </trkpt>
      <trkpt lat="43.122190" lon="-5.971770">
        <ele>637.982</ele>
        <time>2019-03-26T15:40:45Z</time>
      </trkpt>
      <trkpt lat="43.122290" lon="-5.971650">
        <ele>637.485</ele>
        <time>2019-03-26T15:41:05Z</time>
      </trkpt>
      <trkpt lat="43.122370" lon="-5.971480">
        <ele>636.667</ele>
        <time>2019-03-26T15:41:25Z</time>
      </trkpt>
      <trkpt lat="43.122410" lon="-5.971320">
        <ele>635.535</ele>
        <time>2019-03-26T15:41:45Z</time>
      </trkpt>
      <trkpt lat="43.122390" lon="-5.970780">
        <ele>633.686</ele>
        <time>2019-03-26T15:42:05Z</time>
      </trkpt>
      <trkpt lat="43.122430" lon="-5.970500">
        <ele>632.114</ele>
        <time>2019-03-26T15:42:25Z</time>
      </trkpt>
      <trkpt lat="43.122550" lon="-5.970360">
        <ele>631.208</ele>
        <time>2019-03-26T15:42:45Z</time>
      </trkpt>
      <trkpt lat="43.123200" lon="-5.970310">
        <ele>627.256</ele>
        <time>2019-03-26T15:43:05Z</time>
      </trkpt>
      <trkpt lat="43.123850" lon="-5.970260">
        <ele>622.587</ele>
        <time>2019-03-26T15:43:25Z</time>
      </trkpt>
      <trkpt lat="43.124110" lon="-5.970200">
        <ele>621.068</ele>
        <time>2019-03-26T15:43:45Z</time>
      </trkpt>
      <trkpt lat="43.124460" lon="-5.970080">
        <ele>618.117</ele>
        <time>2019-03-26T15:44:05Z</time>
      </trkpt>
      <trkpt lat="43.124890" lon="-5.969850">
        <ele>613.019</ele>
        <time>2019-03-26T15:44:25Z</time>
      </trkpt>
      <trkpt lat="43.125535" lon="-5.969575">
        <ele>607.897</ele>
        <time>2019-03-26T15:44:45Z</time>
      </trkpt>
      <trkpt lat="43.126180" lon="-5.969300">
        <ele>601.960</ele>
        <time>2019-03-26T15:45:05Z</time>
      </trkpt>
      <trkpt lat="43.126940" lon="-5.968930">
        <ele>596.352</ele>
        <time>2019-03-26T15:45:25Z</time>
      </trkpt>
      <trkpt lat="43.127360" lon="-5.968690">
        <ele>592.094</ele>
        <time>2019-03-26T15:45:45Z</time>
      </trkpt>
      <trkpt lat="43.127600" lon="-5.968580">
        <ele>590.157</ele>
        <time>2019-03-26T15:46:05Z</time>
      </trkpt>
      <trkpt lat="43.128050" lon="-5.968410">
        <ele>588.422</ele>
        <time>2019-03-26T15:46:25Z</time>
      </trkpt>
      <trkpt lat="43.128390" lon="-5.968110">
        <ele>585.208</ele>
        <time>2019-03-26T15:46:45Z</time>
      </trkpt>
      <trkpt lat="43.128540" lon="-5.968060">
        <ele>585.222</ele>
        <time>2019-03-26T15:47:05Z</time>
      </trkpt>
      <trkpt lat="43.128650" lon="-5.968090">
        <ele>584.953</ele>
        <time>2019-03-26T15:47:25Z</time>
      </trkpt>
      <trkpt lat="43.128850" lon="-5.968270">
        <ele>584.284</ele>
        <time>2019-03-26T15:47:45Z</time>
      </trkpt>
      <trkpt lat="43.128990" lon="-5.968320">
        <ele>583.863</ele>
        <time>2019-03-26T15:48:05Z</time>
      </trkpt>
      <trkpt lat="43.129140" lon="-5.968270">
        <ele>583.575</ele>
        <time>2019-03-26T15:48:25Z</time>
      </trkpt>
      <trkpt lat="43.129250" lon="-5.968130">
        <ele>583.523</ele>
        <time>2019-03-26T15:48:45Z</time>
      </trkpt>
      <trkpt lat="43.129540" lon="-5.967550">
        <ele>581.186</ele>
        <time>2019-03-26T15:49:05Z</time>
      </trkpt>
      <trkpt lat="43.129690" lon="-5.967310">
        <ele>580.878</ele>
        <time>2019-03-26T15:49:25Z</time>
      </trkpt>
      <trkpt lat="43.130260" lon="-5.966790">
        <ele>578.629</ele>
        <time>2019-03-26T15:49:45Z</time>
      </trkpt>
      <trkpt lat="43.130430" lon="-5.966720">
        <ele>577.700</ele>
        <time>2019-03-26T15:50:05Z</time>
      </trkpt>
      <trkpt lat="43.130780" lon="-5.966250">
        <ele>576.320</ele>
        <time>2019-03-26T15:50:25Z</time>
      </trkpt>
      <trkpt lat="43.131030" lon="-5.966020">
        <ele>575.408</ele>
        <time>2019-03-26T15:50:45Z</time>
      </trkpt>
      <trkpt lat="43.131250" lon="-5.965850">
        <ele>574.475</ele>
        <time>2019-03-26T15:51:05Z</time>
      </trkpt>
      <trkpt lat="43.131720" lon="-5.965650">
        <ele>573.066</ele>
        <time>2019-03-26T15:51:25Z</time>
      </trkpt>
      <trkpt lat="43.132260" lon="-5.965060">
        <ele>570.867</ele>
        <time>2019-03-26T15:51:45Z</time>
      </trkpt>
      <trkpt lat="43.132630" lon="-5.964900">
        <ele>569.346</ele>
        <time>2019-03-26T15:52:05Z</time>
      </trkpt>
      <trkpt lat="43.132840" lon="-5.964870">
        <ele>568.948</ele>
        <time>2019-03-26T15:52:25Z</time>
      </trkpt>
      <trkpt lat="43.133470" lon="-5.965060">
        <ele>566.776</ele>
        <time>2019-03-26T15:52:45Z</time>
      </trkpt>
      <trkpt lat="43.133760" lon="-5.965100">
        <ele>566.039</ele>
        <time>2019-03-26T15:53:05Z</time>
      </trkpt>
      <trkpt lat="43.134220" lon="-5.965010">
        <ele>564.281</ele>
        <time>2019-03-26T15:53:25Z</time>
      </trkpt>
      <trkpt lat="43.134440" lon="-5.964940">
        <ele>563.671</ele>
        <time>2019-03-26T15:53:45Z</time>
      </trkpt>
      <trkpt lat="43.134540" lon="-5.964870">
        <ele>562.841</ele>
        <time>2019-03-26T15:54:05Z</time>
      </trkpt>
      <trkpt lat="43.134650" lon="-5.964710">
        <ele>561.815</ele>
        <time>2019-03-26T15:54:25Z</time>
      </trkpt>
      <trkpt lat="43.134810" lon="-5.964330">
        <ele>560.708</ele>
        <time>2019-03-26T15:54:45Z</time>
      </trkpt>
      <trkpt lat="43.135000" lon="-5.963980">
        <ele>559.020</ele>
        <time>2019-03-26T15:55:05Z</time>
      </trkpt>
      <trkpt lat="43.135150" lon="-5.963770">
        <ele>558.041</ele>
        <time>2019-03-26T15:55:25Z</time>
      </trkpt>
      <trkpt lat="43.135380" lon="-5.963630">
        <ele>556.632</ele>
        <time>2019-03-26T15:55:45Z</time>
      </trkpt>
      <trkpt lat="43.135620" lon="-5.963510">
        <ele>554.991</ele>
        <time>2019-03-26T15:56:05Z</time>
      </trkpt>
      <trkpt lat="43.135780" lon="-5.963390">
        <ele>554.083</ele>
        <time>2019-03-26T15:56:25Z</time>
      </trkpt>
      <trkpt lat="43.136020" lon="-5.962900">
        <ele>551.441</ele>
        <time>2019-03-26T15:56:45Z</time>
      </trkpt>
      <trkpt lat="43.136130" lon="-5.962850">
        <ele>549.844</ele>
        <time>2019-03-26T15:57:05Z</time>
      </trkpt>
      <trkpt lat="43.136570" lon="-5.962930">
        <ele>545.696</ele>
        <time>2019-03-26T15:57:25Z</time>
      </trkpt>
      <trkpt lat="43.136770" lon="-5.962900">
        <ele>543.027</ele>
        <time>2019-03-26T15:57:45Z</time>
      </trkpt>
      <trkpt lat="43.136870" lon="-5.962820">
        <ele>542.868</ele>
        <time>2019-03-26T15:58:05Z</time>
      </trkpt>
      <trkpt lat="43.136990" lon="-5.962670">
        <ele>542.514</ele>
        <time>2019-03-26T15:58:25Z</time>
      </trkpt>
      <trkpt lat="43.137350" lon="-5.962130">
        <ele>541.208</ele>
        <time>2019-03-26T15:58:45Z</time>
      </trkpt>
      <trkpt lat="43.137490" lon="-5.962010">
        <ele>540.575</ele>
        <time>2019-03-26T15:59:05Z</time>
      </trkpt>
      <trkpt lat="43.137590" lon="-5.961960">
        <ele>540.066</ele>
        <time>2019-03-26T15:59:25Z</time>
      </trkpt>
      <trkpt lat="43.138030" lon="-5.961940">
        <ele>538.727</ele>
        <time>2019-03-26T15:59:45Z</time>
      </trkpt>
      <trkpt lat="43.138360" lon="-5.962030">
        <ele>538.496</ele>
        <time>2019-03-26T16:00:05Z</time>
      </trkpt>
      <trkpt lat="43.138880" lon="-5.962100">
        <ele>543.258</ele>
        <time>2019-03-26T16:00:25Z</time>
      </trkpt>
      <trkpt lat="43.139280" lon="-5.961960">
        <ele>545.516</ele>
        <time>2019-03-26T16:00:45Z</time>
      </trkpt>
      <trkpt lat="43.139470" lon="-5.961850">
        <ele>545.759</ele>
        <time>2019-03-26T16:01:05Z</time>
      </trkpt>
      <trkpt lat="43.139780" lon="-5.961820">
        <ele>544.931</ele>
        <time>2019-03-26T16:01:25Z</time>
      </trkpt>
      <trkpt lat="43.139970" lon="-5.961710">
        <ele>543.422</ele>
        <time>2019-03-26T16:01:45Z</time>
      </trkpt>
      <trkpt lat="43.140280" lon="-5.961470">
        <ele>540.762</ele>
        <time>2019-03-26T16:02:05Z</time>
      </trkpt>
      <trkpt lat="43.140490" lon="-5.961370">
        <ele>538.208</ele>
        <time>2019-03-26T16:02:25Z</time>
      </trkpt>
      <trkpt lat="43.140620" lon="-5.961370">
        <ele>536.308</ele>
        <time>2019-03-26T16:02:45Z</time>
      </trkpt>
      <trkpt lat="43.140960" lon="-5.961490">
        <ele>530.515</ele>
        <time>2019-03-26T16:03:05Z</time>
      </trkpt>
      <trkpt lat="43.141260" lon="-5.961510">
        <ele>527.316</ele>
        <time>2019-03-26T16:03:25Z</time>
      </trkpt>
      <trkpt lat="43.141480" lon="-5.961490">
        <ele>525.717</ele>
        <time>2019-03-26T16:03:45Z</time>
      </trkpt>
      <trkpt lat="43.141610" lon="-5.961420">
        <ele>524.816</ele>
        <time>2019-03-26T16:04:05Z</time>
      </trkpt>
      <trkpt lat="43.142070" lon="-5.960970">
        <ele>523.158</ele>
        <time>2019-03-26T16:04:25Z</time>
      </trkpt>
      <trkpt lat="43.142780" lon="-5.960320">
        <ele>521.616</ele>
        <time>2019-03-26T16:04:45Z</time>
      </trkpt>
      <trkpt lat="43.143250" lon="-5.960070">
        <ele>520.819</ele>
        <time>2019-03-26T16:05:05Z</time>
      </trkpt>
      <trkpt lat="43.143720" lon="-5.959820">
        <ele>520.131</ele>
        <time>2019-03-26T16:05:25Z</time>
      </trkpt>
      <trkpt lat="43.143980" lon="-5.959730">
        <ele>519.411</ele>
        <time>2019-03-26T16:05:45Z</time>
      </trkpt>
      <trkpt lat="43.144290" lon="-5.959710">
        <ele>518.121</ele>
        <time>2019-03-26T16:06:05Z</time>
      </trkpt>
      <trkpt lat="43.144890" lon="-5.959830">
        <ele>516.203</ele>
        <time>2019-03-26T16:06:25Z</time>
      </trkpt>
      <trkpt lat="43.145430" lon="-5.959890">
        <ele>513.508</ele>
        <time>2019-03-26T16:06:45Z</time>
      </trkpt>
      <trkpt lat="43.146080" lon="-5.960250">
        <ele>510.374</ele>
        <time>2019-03-26T16:07:05Z</time>
      </trkpt>
      <trkpt lat="43.146240" lon="-5.960300">
        <ele>509.445</ele>
        <time>2019-03-26T16:07:25Z</time>
      </trkpt>
      <trkpt lat="43.146840" lon="-5.960390">
        <ele>507.066</ele>
        <time>2019-03-26T16:07:45Z</time>
      </trkpt>
      <trkpt lat="43.147060" lon="-5.960490">
        <ele>505.965</ele>
        <time>2019-03-26T16:08:05Z</time>
      </trkpt>
      <trkpt lat="43.147420" lon="-5.960760">
        <ele>504.587</ele>
        <time>2019-03-26T16:08:25Z</time>
      </trkpt>
      <trkpt lat="43.147570" lon="-5.960800">
        <ele>502.835</ele>
        <time>2019-03-26T16:08:45Z</time>
      </trkpt>
      <trkpt lat="43.147660" lon="-5.960770">
        <ele>501.558</ele>
        <time>2019-03-26T16:09:05Z</time>
      </trkpt>
      <trkpt lat="43.147870" lon="-5.960600">
        <ele>500.110</ele>
        <time>2019-03-26T16:09:25Z</time>
      </trkpt>
      <trkpt lat="43.148260" lon="-5.960220">
        <ele>490.331</ele>
        <time>2019-03-26T16:09:45Z</time>
      </trkpt>
      <trkpt lat="43.148330" lon="-5.960200">
        <ele>490.361</ele>
        <time>2019-03-26T16:10:05Z</time>
      </trkpt>
      <trkpt lat="43.148520" lon="-5.960170">
        <ele>487.107</ele>
        <time>2019-03-26T16:10:25Z</time>
      </trkpt>
      <trkpt lat="43.148620" lon="-5.960200">
        <ele>486.208</ele>
        <time>2019-03-26T16:10:45Z</time>
      </trkpt>
      <trkpt lat="43.148710" lon="-5.960210">
        <ele>486.556</ele>
        <time>2019-03-26T16:11:05Z</time>
      </trkpt>
      <trkpt lat="43.148780" lon="-5.960180">
        <ele>486.537</ele>
        <time>2019-03-26T16:11:25Z</time>
      </trkpt>
      <trkpt lat="43.148840" lon="-5.960190">
        <ele>486.278</ele>
        <time>2019-03-26T16:11:45Z</time>
      </trkpt>
      <trkpt lat="43.148920" lon="-5.960270">
        <ele>486.977</ele>
        <time>2019-03-26T16:12:05Z</time>
      </trkpt>
      <trkpt lat="43.149390" lon="-5.960460">
        <ele>487.499</ele>
        <time>2019-03-26T16:12:25Z</time>
      </trkpt>
      <trkpt lat="43.149670" lon="-5.960600">
        <ele>487.417</ele>
        <time>2019-03-26T16:12:45Z</time>
      </trkpt>
      <trkpt lat="43.150080" lon="-5.960860">
        <ele>487.770</ele>
        <time>2019-03-26T16:13:05Z</time>
      </trkpt>
      <trkpt lat="43.150220" lon="-5.960970">
        <ele>487.932</ele>
        <time>2019-03-26T16:13:25Z</time>
      </trkpt>
      <trkpt lat="43.150360" lon="-5.961170">
        <ele>488.229</ele>
        <time>2019-03-26T16:13:45Z</time>
      </trkpt>
      <trkpt lat="43.150680" lon="-5.961950">
        <ele>489.400</ele>
        <time>2019-03-26T16:14:05Z</time>
      </trkpt>
      <trkpt lat="43.150790" lon="-5.962130">
        <ele>489.720</ele>
        <time>2019-03-26T16:14:25Z</time>
      </trkpt>
      <trkpt lat="43.150930" lon="-5.962320">
        <ele>490.008</ele>
        <time>2019-03-26T16:14:45Z</time>
      </trkpt>
      <trkpt lat="43.151240" lon="-5.962660">
        <ele>490.185</ele>
        <time>2019-03-26T16:15:05Z</time>
      </trkpt>
      <trkpt lat="43.151783" lon="-5.963060">
        <ele>489.826</ele>
        <time>2019-03-26T16:15:25Z</time>
      </trkpt>
      <trkpt lat="43.152327" lon="-5.963460">
        <ele>489.757</ele>
        <time>2019-03-26T16:15:45Z</time>
      </trkpt>
      <trkpt lat="43.152870" lon="-5.963860">
        <ele>490.486</ele>
        <time>2019-03-26T16:16:05Z</time>
      </trkpt>
      <trkpt lat="43.153090" lon="-5.964090">
        <ele>490.258</ele>
        <time>2019-03-26T16:16:25Z</time>
      </trkpt>
      <trkpt lat="43.153240" lon="-5.964360">
        <ele>490.286</ele>
        <time>2019-03-26T16:16:45Z</time>
      </trkpt>
      <trkpt lat="43.153350" lon="-5.964760">
        <ele>490.269</ele>
        <time>2019-03-26T16:17:05Z</time>
      </trkpt>
      <trkpt lat="43.153515" lon="-5.965890">
        <ele>490.761</ele>
        <time>2019-03-26T16:17:25Z</time>
      </trkpt>
      <trkpt lat="43.153680" lon="-5.967020">
        <ele>484.686</ele>
        <time>2019-03-26T16:17:45Z</time>
      </trkpt>
      <trkpt lat="43.153760" lon="-5.967470">
        <ele>481.460</ele>
        <time>2019-03-26T16:18:05Z</time>
      </trkpt>
      <trkpt lat="43.153820" lon="-5.967660">
        <ele>481.426</ele>
        <time>2019-03-26T16:18:25Z</time>
      </trkpt>
      <trkpt lat="43.153900" lon="-5.967820">
        <ele>480.708</ele>
        <time>2019-03-26T16:18:45Z</time>
      </trkpt>
      <trkpt lat="43.154030" lon="-5.967970">
        <ele>480.211</ele>
        <time>2019-03-26T16:19:05Z</time>
      </trkpt>
      <trkpt lat="43.154180" lon="-5.968080">
        <ele>479.362</ele>
        <time>2019-03-26T16:19:25Z</time>
      </trkpt>
      <trkpt lat="43.154360" lon="-5.968150">
        <ele>479.383</ele>
        <time>2019-03-26T16:19:45Z</time>
      </trkpt>
      <trkpt lat="43.154880" lon="-5.968300">
        <ele>476.682</ele>
        <time>2019-03-26T16:20:05Z</time>
      </trkpt>
      <trkpt lat="43.155100" lon="-5.968410">
        <ele>475.524</ele>
        <time>2019-03-26T16:20:25Z</time>
      </trkpt>
      <trkpt lat="43.155290" lon="-5.968560">
        <ele>474.262</ele>
        <time>2019-03-26T16:20:45Z</time>
      </trkpt>
      <trkpt lat="43.155400" lon="-5.968720">
        <ele>473.315</ele>
        <time>2019-03-26T16:21:05Z</time>
      </trkpt>
      <trkpt lat="43.155835" lon="-5.969575">
        <ele>469.957</ele>
        <time>2019-03-26T16:21:25Z</time>
      </trkpt>
      <trkpt lat="43.156270" lon="-5.970430">
        <ele>464.635</ele>
        <time>2019-03-26T16:21:45Z</time>
      </trkpt>
      <trkpt lat="43.156330" lon="-5.970690">
        <ele>463.586</ele>
        <time>2019-03-26T16:22:05Z</time>
      </trkpt>
      <trkpt lat="43.156340" lon="-5.970800">
        <ele>463.514</ele>
        <time>2019-03-26T16:22:25Z</time>
      </trkpt>
      <trkpt lat="43.156320" lon="-5.971270">
        <ele>460.308</ele>
        <time>2019-03-26T16:22:45Z</time>
      </trkpt>
      <trkpt lat="43.156290" lon="-5.971510">
        <ele>459.066</ele>
        <time>2019-03-26T16:23:05Z</time>
      </trkpt>
      <trkpt lat="43.156330" lon="-5.971700">
        <ele>457.857</ele>
        <time>2019-03-26T16:23:25Z</time>
      </trkpt>
      <trkpt lat="43.156410" lon="-5.971810">
        <ele>456.048</ele>
        <time>2019-03-26T16:23:45Z</time>
      </trkpt>
      <trkpt lat="43.156810" lon="-5.972120">
        <ele>455.347</ele>
        <time>2019-03-26T16:24:05Z</time>
      </trkpt>
      <trkpt lat="43.157320" lon="-5.972630">
        <ele>455.749</ele>
        <time>2019-03-26T16:24:25Z</time>
      </trkpt>
      <trkpt lat="43.157930" lon="-5.973310">
        <ele>450.287</ele>
        <time>2019-03-26T16:24:45Z</time>
      </trkpt>
      <trkpt lat="43.158110" lon="-5.973410">
        <ele>449.370</ele>
        <time>2019-03-26T16:25:05Z</time>
      </trkpt>
      <trkpt lat="43.158380" lon="-5.973460">
        <ele>448.752</ele>
        <time>2019-03-26T16:25:25Z</time>
      </trkpt>
      <trkpt lat="43.159060" lon="-5.973260">
        <ele>455.025</ele>
        <time>2019-03-26T16:25:45Z</time>
      </trkpt>
      <trkpt lat="43.159200" lon="-5.973310">
        <ele>453.626</ele>
        <time>2019-03-26T16:26:05Z</time>
      </trkpt>
      <trkpt lat="43.159770" lon="-5.973600">
        <ele>454.808</ele>
        <time>2019-03-26T16:26:25Z</time>
      </trkpt>
      <trkpt lat="43.160470" lon="-5.974190">
        <ele>452.608</ele>
        <time>2019-03-26T16:26:45Z</time>
      </trkpt>
      <trkpt lat="43.160845" lon="-5.974540">
        <ele>452.665</ele>
        <time>2019-03-26T16:27:05Z</time>
      </trkpt>
      <trkpt lat="43.161220" lon="-5.974890">
        <ele>452.036</ele>
        <time>2019-03-26T16:27:25Z</time>
      </trkpt>
      <trkpt lat="43.161330" lon="-5.975070">
        <ele>451.227</ele>
        <time>2019-03-26T16:27:45Z</time>
      </trkpt>
      <trkpt lat="43.161390" lon="-5.975240">
        <ele>451.056</ele>
        <time>2019-03-26T16:28:05Z</time>
      </trkpt>
      <trkpt lat="43.161490" lon="-5.975870">
        <ele>450.158</ele>
        <time>2019-03-26T16:28:25Z</time>
      </trkpt>
      <trkpt lat="43.161550" lon="-5.976010">
        <ele>450.166</ele>
        <time>2019-03-26T16:28:45Z</time>
      </trkpt>
      <trkpt lat="43.161640" lon="-5.976130">
        <ele>449.979</ele>
        <time>2019-03-26T16:29:05Z</time>
      </trkpt>
      <trkpt lat="43.161750" lon="-5.976220">
        <ele>449.761</ele>
        <time>2019-03-26T16:29:25Z</time>
      </trkpt>
      <trkpt lat="43.161870" lon="-5.976270">
        <ele>449.436</ele>
        <time>2019-03-26T16:29:45Z</time>
      </trkpt>
      <trkpt lat="43.162460" lon="-5.976290">
        <ele>446.617</ele>
        <time>2019-03-26T16:30:05Z</time>
      </trkpt>
      <trkpt lat="43.162820" lon="-5.976410">
        <ele>444.218</ele>
        <time>2019-03-26T16:30:25Z</time>
      </trkpt>
      <trkpt lat="43.163370" lon="-5.976760">
        <ele>440.808</ele>
        <time>2019-03-26T16:30:45Z</time>
      </trkpt>
      <trkpt lat="43.163470" lon="-5.976860">
        <ele>440.896</ele>
        <time>2019-03-26T16:31:05Z</time>
      </trkpt>
      <trkpt lat="43.163580" lon="-5.977070">
        <ele>439.127</ele>
        <time>2019-03-26T16:31:25Z</time>
      </trkpt>
      <trkpt lat="43.163610" lon="-5.977190">
        <ele>439.178</ele>
        <time>2019-03-26T16:31:45Z</time>
      </trkpt>
      <trkpt lat="43.163660" lon="-5.977800">
        <ele>437.387</ele>
        <time>2019-03-26T16:32:05Z</time>
      </trkpt>
      <trkpt lat="43.163850" lon="-5.978550">
        <ele>435.129</ele>
        <time>2019-03-26T16:32:25Z</time>
      </trkpt>
      <trkpt lat="43.163880" lon="-5.978830">
        <ele>433.467</ele>
        <time>2019-03-26T16:32:45Z</time>
      </trkpt>
      <trkpt lat="43.163920" lon="-5.979480">
        <ele>431.620</ele>
        <time>2019-03-26T16:33:05Z</time>
      </trkpt>
      <trkpt lat="43.163920" lon="-5.979780">
        <ele>431.692</ele>
        <time>2019-03-26T16:33:25Z</time>
      </trkpt>
      <trkpt lat="43.163950" lon="-5.980140">
        <ele>432.486</ele>
        <time>2019-03-26T16:33:45Z</time>
      </trkpt>
      <trkpt lat="43.164050" lon="-5.980470">
        <ele>432.660</ele>
        <time>2019-03-26T16:34:05Z</time>
      </trkpt>
      <trkpt lat="43.164360" lon="-5.981070">
        <ele>429.526</ele>
        <time>2019-03-26T16:34:25Z</time>
      </trkpt>
      <trkpt lat="43.164520" lon="-5.981390">
        <ele>428.508</ele>
        <time>2019-03-26T16:34:45Z</time>
      </trkpt>
      <trkpt lat="43.164690" lon="-5.982020">
        <ele>427.831</ele>
        <time>2019-03-26T16:35:05Z</time>
      </trkpt>
      <trkpt lat="43.164820" lon="-5.982390">
        <ele>427.552</ele>
        <time>2019-03-26T16:35:25Z</time>
      </trkpt>
      <trkpt lat="43.164970" lon="-5.982700">
        <ele>426.893</ele>
        <time>2019-03-26T16:35:45Z</time>
      </trkpt>
      <trkpt lat="43.165250" lon="-5.983100">
        <ele>421.942</ele>
        <time>2019-03-26T16:36:05Z</time>
      </trkpt>
      <trkpt lat="43.165630" lon="-5.983500">
        <ele>419.544</ele>
        <time>2019-03-26T16:36:25Z</time>
      </trkpt>
      <trkpt lat="43.166010" lon="-5.983900">
        <ele>418.542</ele>
        <time>2019-03-26T16:36:45Z</time>
      </trkpt>
      <trkpt lat="43.166670" lon="-5.984630">
        <ele>415.865</ele>
        <time>2019-03-26T16:37:05Z</time>
      </trkpt>
      <trkpt lat="43.167055" lon="-5.985085">
        <ele>414.947</ele>
        <time>2019-03-26T16:37:25Z</time>
      </trkpt>
      <trkpt lat="43.167440" lon="-5.985540">
        <ele>414.681</ele>
        <time>2019-03-26T16:37:45Z</time>
      </trkpt>
      <trkpt lat="43.167620" lon="-5.985640">
        <ele>415.061</ele>
        <time>2019-03-26T16:38:05Z</time>
      </trkpt>
      <trkpt lat="43.168110" lon="-5.985840">
        <ele>422.017</ele>
        <time>2019-03-26T16:38:25Z</time>
      </trkpt>
      <trkpt lat="43.168330" lon="-5.985990">
        <ele>425.208</ele>
        <time>2019-03-26T16:38:45Z</time>
      </trkpt>
      <trkpt lat="43.168400" lon="-5.986110">
        <ele>425.231</ele>
        <time>2019-03-26T16:39:05Z</time>
      </trkpt>
      <trkpt lat="43.168550" lon="-5.986380">
        <ele>426.272</ele>
        <time>2019-03-26T16:39:25Z</time>
      </trkpt>
      <trkpt lat="43.168840" lon="-5.987340">
        <ele>427.773</ele>
        <time>2019-03-26T16:39:45Z</time>
      </trkpt>
      <trkpt lat="43.169100" lon="-5.987790">
        <ele>428.272</ele>
        <time>2019-03-26T16:40:05Z</time>
      </trkpt>
      <trkpt lat="43.169310" lon="-5.988080">
        <ele>428.834</ele>
        <time>2019-03-26T16:40:25Z</time>
      </trkpt>
      <trkpt lat="43.169450" lon="-5.988280">
        <ele>428.692</ele>
        <time>2019-03-26T16:40:45Z</time>
      </trkpt>
      <trkpt lat="43.169830" lon="-5.988680">
        <ele>429.965</ele>
        <time>2019-03-26T16:41:05Z</time>
      </trkpt>
      <trkpt lat="43.170530" lon="-5.989360">
        <ele>429.847</ele>
        <time>2019-03-26T16:41:25Z</time>
      </trkpt>
      <trkpt lat="43.170850" lon="-5.989810">
        <ele>427.777</ele>
        <time>2019-03-26T16:41:45Z</time>
      </trkpt>
      <trkpt lat="43.171040" lon="-5.990040">
        <ele>427.761</ele>
        <time>2019-03-26T16:42:05Z</time>
      </trkpt>
      <trkpt lat="43.171280" lon="-5.990250">
        <ele>425.127</ele>
        <time>2019-03-26T16:42:25Z</time>
      </trkpt>
      <trkpt lat="43.171830" lon="-5.990490">
        <ele>423.208</ele>
        <time>2019-03-26T16:42:45Z</time>
      </trkpt>
      <trkpt lat="43.172040" lon="-5.990640">
        <ele>421.990</ele>
        <time>2019-03-26T16:43:05Z</time>
      </trkpt>
      <trkpt lat="43.172230" lon="-5.990830">
        <ele>419.521</ele>
        <time>2019-03-26T16:43:25Z</time>
      </trkpt>
      <trkpt lat="43.172570" lon="-5.991290">
        <ele>417.122</ele>
        <time>2019-03-26T16:43:45Z</time>
      </trkpt>
      <trkpt lat="43.172720" lon="-5.991410">
        <ele>416.441</ele>
        <time>2019-03-26T16:44:05Z</time>
      </trkpt>
      <trkpt lat="43.172870" lon="-5.991470">
        <ele>415.233</ele>
        <time>2019-03-26T16:44:25Z</time>
      </trkpt>
      <trkpt lat="43.173140" lon="-5.991500">
        <ele>413.821</ele>
        <time>2019-03-26T16:44:45Z</time>
      </trkpt>
      <trkpt lat="43.173610" lon="-5.991450">
        <ele>411.974</ele>
        <time>2019-03-26T16:45:05Z</time>
      </trkpt>
      <trkpt lat="43.174090" lon="-5.991430">
        <ele>411.666</ele>
        <time>2019-03-26T16:45:25Z</time>
      </trkpt>
      <trkpt lat="43.174240" lon="-5.991450">
        <ele>412.241</ele>
        <time>2019-03-26T16:45:45Z</time>
      </trkpt>
      <trkpt lat="43.174480" lon="-5.991520">
        <ele>411.881</ele>
        <time>2019-03-26T16:46:05Z</time>
      </trkpt>
      <trkpt lat="43.174730" lon="-5.991660">
        <ele>411.409</ele>
        <time>2019-03-26T16:46:25Z</time>
      </trkpt>
      <trkpt lat="43.174980" lon="-5.991870">
        <ele>411.208</ele>
        <time>2019-03-26T16:46:45Z</time>
      </trkpt>
      <trkpt lat="43.175260" lon="-5.992220">
        <ele>411.047</ele>
        <time>2019-03-26T16:47:05Z</time>
      </trkpt>
      <trkpt lat="43.175330" lon="-5.992360">
        <ele>410.988</ele>
        <time>2019-03-26T16:47:25Z</time>
      </trkpt>
      <trkpt lat="43.175580" lon="-5.992910">
        <ele>409.429</ele>
        <time>2019-03-26T16:47:45Z</time>
      </trkpt>
      <trkpt lat="43.175750" lon="-5.993240">
        <ele>408.228</ele>
        <time>2019-03-26T16:48:05Z</time>
      </trkpt>
      <trkpt lat="43.175870" lon="-5.993400">
        <ele>406.690</ele>
        <time>2019-03-26T16:48:25Z</time>
      </trkpt>
      <trkpt lat="43.176250" lon="-5.993630">
        <ele>407.578</ele>
        <time>2019-03-26T16:48:45Z</time>
      </trkpt>
      <trkpt lat="43.176920" lon="-5.993800">
        <ele>409.241</ele>
        <time>2019-03-26T16:49:05Z</time>
      </trkpt>
      <trkpt lat="43.177140" lon="-5.993800">
        <ele>409.663</ele>
        <time>2019-03-26T16:49:25Z</time>
      </trkpt>
      <trkpt lat="43.177360" lon="-5.993750">
        <ele>409.616</ele>
        <time>2019-03-26T16:49:45Z</time>
      </trkpt>
      <trkpt lat="43.177830" lon="-5.993470">
        <ele>408.476</ele>
        <time>2019-03-26T16:50:05Z</time>
      </trkpt>
      <trkpt lat="43.177970" lon="-5.993420">
        <ele>407.713</ele>
        <time>2019-03-26T16:50:25Z</time>
      </trkpt>
      <trkpt lat="43.178170" lon="-5.993440">
        <ele>407.708</ele>
        <time>2019-03-26T16:50:45Z</time>
      </trkpt>
      <trkpt lat="43.178360" lon="-5.993540">
        <ele>407.154</ele>
        <time>2019-03-26T16:51:05Z</time>
      </trkpt>
      <trkpt lat="43.178850" lon="-5.993840">
        <ele>405.975</ele>
        <time>2019-03-26T16:51:25Z</time>
      </trkpt>
      <trkpt lat="43.179070" lon="-5.993910">
        <ele>404.486</ele>
        <time>2019-03-26T16:51:45Z</time>
      </trkpt>
      <trkpt lat="43.179210" lon="-5.993940">
        <ele>404.495</ele>
        <time>2019-03-26T16:52:05Z</time>
      </trkpt>
      <trkpt lat="43.179905" lon="-5.994010">
        <ele>400.337</ele>
        <time>2019-03-26T16:52:25Z</time>
      </trkpt>
      <trkpt lat="43.180600" lon="-5.994080">
        <ele>397.815</ele>
        <time>2019-03-26T16:52:45Z</time>
      </trkpt>
      <trkpt lat="43.180990" lon="-5.993980">
        <ele>395.888</ele>
        <time>2019-03-26T16:53:05Z</time>
      </trkpt>
      <trkpt lat="43.181160" lon="-5.993870">
        <ele>395.160</ele>
        <time>2019-03-26T16:53:25Z</time>
      </trkpt>
      <trkpt lat="43.181570" lon="-5.993470">
        <ele>392.654</ele>
        <time>2019-03-26T16:53:45Z</time>
      </trkpt>
      <trkpt lat="43.182240" lon="-5.992860">
        <ele>388.556</ele>
        <time>2019-03-26T16:54:05Z</time>
      </trkpt>
      <trkpt lat="43.182440" lon="-5.992720">
        <ele>386.911</ele>
        <time>2019-03-26T16:54:25Z</time>
      </trkpt>
      <trkpt lat="43.182640" lon="-5.992670">
        <ele>385.808</ele>
        <time>2019-03-26T16:54:45Z</time>
      </trkpt>
      <trkpt lat="43.182910" lon="-5.992650">
        <ele>384.168</ele>
        <time>2019-03-26T16:55:05Z</time>
      </trkpt>
      <trkpt lat="43.183120" lon="-5.992670">
        <ele>382.639</ele>
        <time>2019-03-26T16:55:25Z</time>
      </trkpt>
      <trkpt lat="43.183460" lon="-5.992810">
        <ele>380.670</ele>
        <time>2019-03-26T16:55:45Z</time>
      </trkpt>
      <trkpt lat="43.183640" lon="-5.992950">
        <ele>379.169</ele>
        <time>2019-03-26T16:56:05Z</time>
      </trkpt>
      <trkpt lat="43.184110" lon="-5.993470">
        <ele>375.171</ele>
        <time>2019-03-26T16:56:25Z</time>
      </trkpt>
      <trkpt lat="43.184260" lon="-5.993610">
        <ele>373.859</ele>
        <time>2019-03-26T16:56:45Z</time>
      </trkpt>
      <trkpt lat="43.184400" lon="-5.993680">
        <ele>372.262</ele>
        <time>2019-03-26T16:57:05Z</time>
      </trkpt>
      <trkpt lat="43.184650" lon="-5.993680">
        <ele>370.864</ele>
        <time>2019-03-26T16:57:25Z</time>
      </trkpt>
      <trkpt lat="43.185230" lon="-5.993560">
        <ele>367.486</ele>
        <time>2019-03-26T16:57:45Z</time>
      </trkpt>
      <trkpt lat="43.185810" lon="-5.993440">
        <ele>365.760</ele>
        <time>2019-03-26T16:58:05Z</time>
      </trkpt>
      <trkpt lat="43.186080" lon="-5.993400">
        <ele>365.726</ele>
        <time>2019-03-26T16:58:25Z</time>
      </trkpt>
      <trkpt lat="43.186290" lon="-5.993400">
        <ele>365.108</ele>
        <time>2019-03-26T16:58:45Z</time>
      </trkpt>
      <trkpt lat="43.186490" lon="-5.993450">
        <ele>364.631</ele>
        <time>2019-03-26T16:59:05Z</time>
      </trkpt>
      <trkpt lat="43.186680" lon="-5.993560">
        <ele>364.632</ele>
        <time>2019-03-26T16:59:25Z</time>
      </trkpt>
      <trkpt lat="43.187090" lon="-5.993910">
        <ele>363.263</ele>
        <time>2019-03-26T16:59:45Z</time>
      </trkpt>
      <trkpt lat="43.187560" lon="-5.994145">
        <ele>362.352</ele>
        <time>2019-03-26T17:00:05Z</time>
      </trkpt>
      <trkpt lat="43.188030" lon="-5.994380">
        <ele>360.584</ele>
        <time>2019-03-26T17:00:25Z</time>
      </trkpt>
      <trkpt lat="43.188530" lon="-5.994480">
        <ele>360.072</ele>
        <time>2019-03-26T17:00:45Z</time>
      </trkpt>
      <trkpt lat="43.188980" lon="-5.994375">
        <ele>359.685</ele>
        <time>2019-03-26T17:01:05Z</time>
      </trkpt>
      <trkpt lat="43.189430" lon="-5.994270">
        <ele>358.737</ele>
        <time>2019-03-26T17:01:25Z</time>
      </trkpt>
      <trkpt lat="43.189660" lon="-5.994290">
        <ele>358.536</ele>
        <time>2019-03-26T17:01:45Z</time>
      </trkpt>
      <trkpt lat="43.189950" lon="-5.994360">
        <ele>358.317</ele>
        <time>2019-03-26T17:02:05Z</time>
      </trkpt>
      <trkpt lat="43.190360" lon="-5.994550">
        <ele>357.618</ele>
        <time>2019-03-26T17:02:25Z</time>
      </trkpt>
      <trkpt lat="43.190710" lon="-5.994620">
        <ele>356.808</ele>
        <time>2019-03-26T17:02:45Z</time>
      </trkpt>
      <trkpt lat="43.191160" lon="-5.994655">
        <ele>356.256</ele>
        <time>2019-03-26T17:03:05Z</time>
      </trkpt>
      <trkpt lat="43.191610" lon="-5.994690">
        <ele>355.187</ele>
        <time>2019-03-26T17:03:25Z</time>
      </trkpt>
      <trkpt lat="43.191750" lon="-5.994780">
        <ele>355.178</ele>
        <time>2019-03-26T17:03:45Z</time>
      </trkpt>
      <trkpt lat="43.191900" lon="-5.994930">
        <ele>354.847</ele>
        <time>2019-03-26T17:04:05Z</time>
      </trkpt>
      <trkpt lat="43.192140" lon="-5.995470">
        <ele>354.519</ele>
        <time>2019-03-26T17:04:25Z</time>
      </trkpt>
      <trkpt lat="43.192330" lon="-5.995650">
        <ele>354.597</ele>
        <time>2019-03-26T17:04:45Z</time>
      </trkpt>
      <trkpt lat="43.192820" lon="-5.996000">
        <ele>354.060</ele>
        <time>2019-03-26T17:05:05Z</time>
      </trkpt>
      <trkpt lat="43.193020" lon="-5.996190">
        <ele>353.382</ele>
        <time>2019-03-26T17:05:25Z</time>
      </trkpt>
      <trkpt lat="43.193140" lon="-5.996380">
        <ele>352.983</ele>
        <time>2019-03-26T17:05:45Z</time>
      </trkpt>
      <trkpt lat="43.193270" lon="-5.996710">
        <ele>352.725</ele>
        <time>2019-03-26T17:06:05Z</time>
      </trkpt>
      <trkpt lat="43.193580" lon="-5.997785">
        <ele>352.017</ele>
        <time>2019-03-26T17:06:25Z</time>
      </trkpt>
      <trkpt lat="43.193890" lon="-5.998860">
        <ele>351.608</ele>
        <time>2019-03-26T17:06:45Z</time>
      </trkpt>
      <trkpt lat="43.194050" lon="-5.999290">
        <ele>350.971</ele>
        <time>2019-03-26T17:07:05Z</time>
      </trkpt>
      <trkpt lat="43.194220" lon="-5.999550">
        <ele>350.392</ele>
        <time>2019-03-26T17:07:25Z</time>
      </trkpt>
      <trkpt lat="43.194580" lon="-5.999950">
        <ele>348.063</ele>
        <time>2019-03-26T17:07:45Z</time>
      </trkpt>
      <trkpt lat="43.194780" lon="-6.000250">
        <ele>347.372</ele>
        <time>2019-03-26T17:08:05Z</time>
      </trkpt>
      <trkpt lat="43.195110" lon="-6.000835">
        <ele>346.034</ele>
        <time>2019-03-26T17:08:25Z</time>
      </trkpt>
      <trkpt lat="43.195440" lon="-6.001420">
        <ele>345.292</ele>
        <time>2019-03-26T17:08:45Z</time>
      </trkpt>
      <trkpt lat="43.195580" lon="-6.001700">
        <ele>343.145</ele>
        <time>2019-03-26T17:09:05Z</time>
      </trkpt>
      <trkpt lat="43.195730" lon="-6.002150">
        <ele>339.697</ele>
        <time>2019-03-26T17:09:25Z</time>
      </trkpt>
      <trkpt lat="43.195900" lon="-6.002800">
        <ele>337.236</ele>
        <time>2019-03-26T17:09:45Z</time>
      </trkpt>
      <trkpt lat="43.195990" lon="-6.002990">
        <ele>336.917</ele>
        <time>2019-03-26T17:10:05Z</time>
      </trkpt>
      <trkpt lat="43.196170" lon="-6.003200">
        <ele>336.618</ele>
        <time>2019-03-26T17:10:25Z</time>
      </trkpt>
      <trkpt lat="43.196695" lon="-6.003580">
        <ele>335.608</ele>
        <time>2019-03-26T17:10:45Z</time>
      </trkpt>
      <trkpt lat="43.197220" lon="-6.003960">
        <ele>336.116</ele>
        <time>2019-03-26T17:11:05Z</time>
      </trkpt>
      <trkpt lat="43.197360" lon="-6.004100">
        <ele>336.567</ele>
        <time>2019-03-26T17:11:25Z</time>
      </trkpt>
      <trkpt lat="43.197490" lon="-6.004310">
        <ele>337.858</ele>
        <time>2019-03-26T17:11:45Z</time>
      </trkpt>
      <trkpt lat="43.197820" lon="-6.005070">
        <ele>341.047</ele>
        <time>2019-03-26T17:12:05Z</time>
      </trkpt>
      <trkpt lat="43.197940" lon="-6.005230">
        <ele>341.849</ele>
        <time>2019-03-26T17:12:25Z</time>
      </trkpt>
      <trkpt lat="43.198160" lon="-6.005460">
        <ele>343.377</ele>
        <time>2019-03-26T17:12:45Z</time>
      </trkpt>
      <trkpt lat="43.198590" lon="-6.005790">
        <ele>345.630</ele>
        <time>2019-03-26T17:13:05Z</time>
      </trkpt>
      <trkpt lat="43.199000" lon="-6.006120">
        <ele>345.612</ele>
        <time>2019-03-26T17:13:25Z</time>
      </trkpt>
      <trkpt lat="43.199270" lon="-6.006400">
        <ele>346.282</ele>
        <time>2019-03-26T17:13:45Z</time>
      </trkpt>
      <trkpt lat="43.199390" lon="-6.006630">
        <ele>346.643</ele>
        <time>2019-03-26T17:14:05Z</time>
      </trkpt>
      <trkpt lat="43.199450" lon="-6.006800">
        <ele>346.617</ele>
        <time>2019-03-26T17:14:25Z</time>
      </trkpt>
      <trkpt lat="43.199500" lon="-6.007050">
        <ele>344.808</ele>
        <time>2019-03-26T17:14:45Z</time>
      </trkpt>
      <trkpt lat="43.199530" lon="-6.007710">
        <ele>343.161</ele>
        <time>2019-03-26T17:15:05Z</time>
      </trkpt>
      <trkpt lat="43.199560" lon="-6.008370">
        <ele>342.292</ele>
        <time>2019-03-26T17:15:25Z</time>
      </trkpt>
      <trkpt lat="43.199590" lon="-6.009330">
        <ele>342.763</ele>
        <time>2019-03-26T17:15:45Z</time>
      </trkpt>
      <trkpt lat="43.199620" lon="-6.009540">
        <ele>342.712</ele>
        <time>2019-03-26T17:16:05Z</time>
      </trkpt>
      <trkpt lat="43.199680" lon="-6.009710">
        <ele>342.794</ele>
        <time>2019-03-26T17:16:25Z</time>
      </trkpt>
      <trkpt lat="43.199840" lon="-6.009960">
        <ele>342.552</ele>
        <time>2019-03-26T17:16:45Z</time>
      </trkpt>
      <trkpt lat="43.199920" lon="-6.010030">
        <ele>342.345</ele>
        <time>2019-03-26T17:17:05Z</time>
      </trkpt>
      <trkpt lat="43.200350" lon="-6.010240">
        <ele>342.647</ele>
        <time>2019-03-26T17:17:25Z</time>
      </trkpt>
      <trkpt lat="43.200480" lon="-6.010340">
        <ele>343.113</ele>
        <time>2019-03-26T17:17:45Z</time>
      </trkpt>
      <trkpt lat="43.200550" lon="-6.010430">
        <ele>343.443</ele>
        <time>2019-03-26T17:18:05Z</time>
      </trkpt>
      <trkpt lat="43.200650" lon="-6.010690">
        <ele>343.707</ele>
        <time>2019-03-26T17:18:25Z</time>
      </trkpt>
      <trkpt lat="43.200660" lon="-6.011340">
        <ele>344.008</ele>
        <time>2019-03-26T17:18:45Z</time>
      </trkpt>
      <trkpt lat="43.200660" lon="-6.011350">
        <ele>344.024</ele>
        <time>2019-03-26T17:19:05Z</time>
      </trkpt>
      <trkpt lat="43.200680" lon="-6.011770">
        <ele>344.095</ele>
        <time>2019-03-26T17:19:25Z</time>
      </trkpt>
      <trkpt lat="43.200820" lon="-6.012710">
        <ele>344.566</ele>
        <time>2019-03-26T17:19:45Z</time>
      </trkpt>
      <trkpt lat="43.200850" lon="-6.013110">
        <ele>344.545</ele>
        <time>2019-03-26T17:20:05Z</time>
      </trkpt>
      <trkpt lat="43.200840" lon="-6.013410">
        <ele>345.187</ele>
        <time>2019-03-26T17:20:25Z</time>
      </trkpt>
      <trkpt lat="43.200800" lon="-6.013740">
        <ele>345.195</ele>
        <time>2019-03-26T17:20:45Z</time>
      </trkpt>
      <trkpt lat="43.200720" lon="-6.014110">
        <ele>346.198</ele>
        <time>2019-03-26T17:21:05Z</time>
      </trkpt>
      <trkpt lat="43.200620" lon="-6.014440">
        <ele>347.110</ele>
        <time>2019-03-26T17:21:25Z</time>
      </trkpt>
      <trkpt lat="43.200510" lon="-6.014680">
        <ele>348.054</ele>
        <time>2019-03-26T17:21:45Z</time>
      </trkpt>
      <trkpt lat="43.199980" lon="-6.015570">
        <ele>350.656</ele>
        <time>2019-03-26T17:22:05Z</time>
      </trkpt>
      <trkpt lat="43.199890" lon="-6.015880">
        <ele>351.811</ele>
        <time>2019-03-26T17:22:25Z</time>
      </trkpt>
      <trkpt lat="43.199890" lon="-6.016110">
        <ele>352.708</ele>
        <time>2019-03-26T17:22:45Z</time>
      </trkpt>
      <trkpt lat="43.199940" lon="-6.016410">
        <ele>354.178</ele>
        <time>2019-03-26T17:23:05Z</time>
      </trkpt>
      <trkpt lat="43.200140" lon="-6.017300">
        <ele>357.889</ele>
        <time>2019-03-26T17:23:25Z</time>
      </trkpt>
      <trkpt lat="43.200160" lon="-6.017750">
        <ele>359.610</ele>
        <time>2019-03-26T17:23:45Z</time>
      </trkpt>
      <trkpt lat="43.200080" lon="-6.018480">
        <ele>362.739</ele>
        <time>2019-03-26T17:24:05Z</time>
      </trkpt>
      <trkpt lat="43.200030" lon="-6.019300">
        <ele>371.251</ele>
        <time>2019-03-26T17:24:25Z</time>
      </trkpt>
      <trkpt lat="43.200040" lon="-6.019700">
        <ele>373.739</ele>
        <time>2019-03-26T17:24:45Z</time>
      </trkpt>
      <trkpt lat="43.200080" lon="-6.020120">
        <ele>377.432</ele>
        <time>2019-03-26T17:25:05Z</time>
      </trkpt>
      <trkpt lat="43.200190" lon="-6.020610">
        <ele>380.534</ele>
        <time>2019-03-26T17:25:25Z</time>
      </trkpt>
      <trkpt lat="43.200395" lon="-6.021190">
        <ele>381.566</ele>
        <time>2019-03-26T17:25:45Z</time>
      </trkpt>
      <trkpt lat="43.200600" lon="-6.021770">
        <ele>382.929</ele>
        <time>2019-03-26T17:26:05Z</time>
      </trkpt>
      <trkpt lat="43.200850" lon="-6.022390">
        <ele>384.121</ele>
        <time>2019-03-26T17:26:25Z</time>
      </trkpt>
      <trkpt lat="43.200920" lon="-6.022630">
        <ele>384.608</ele>
        <time>2019-03-26T17:26:45Z</time>
      </trkpt>
      <trkpt lat="43.200860" lon="-6.022660">
        <ele>385.099</ele>
        <time>2019-03-26T17:27:05Z</time>
      </trkpt>
      <trkpt lat="43.201060" lon="-6.023760">
        <ele>390.370</ele>
        <time>2019-03-26T17:27:25Z</time>
      </trkpt>
      <trkpt lat="43.201230" lon="-6.024390">
        <ele>392.181</ele>
        <time>2019-03-26T17:27:45Z</time>
      </trkpt>
      <trkpt lat="43.201310" lon="-6.025045">
        <ele>392.180</ele>
        <time>2019-03-26T17:28:05Z</time>
      </trkpt>
      <trkpt lat="43.201390" lon="-6.025700">
        <ele>392.522</ele>
        <time>2019-03-26T17:28:25Z</time>
      </trkpt>
      <trkpt lat="43.201400" lon="-6.026170">
        <ele>373.890</ele>
        <time>2019-03-26T17:28:45Z</time>
      </trkpt>
      <trkpt lat="43.201440" lon="-6.026450">
        <ele>355.843</ele>
        <time>2019-03-26T17:29:05Z</time>
      </trkpt>
      <trkpt lat="43.201650" lon="-6.027040">
        <ele>339.455</ele>
        <time>2019-03-26T17:29:25Z</time>
      </trkpt>
      <trkpt lat="43.201690" lon="-6.027250">
        <ele>337.836</ele>
        <time>2019-03-26T17:29:45Z</time>
      </trkpt>
      <trkpt lat="43.201720" lon="-6.027630">
        <ele>335.217</ele>
        <time>2019-03-26T17:30:05Z</time>
      </trkpt>
      <trkpt lat="43.202130" lon="-6.028310">
        <ele>328.818</ele>
        <time>2019-03-26T17:30:25Z</time>
      </trkpt>
      <trkpt lat="43.202270" lon="-6.028430">
        <ele>328.808</ele>
        <time>2019-03-26T17:30:45Z</time>
      </trkpt>
      <trkpt lat="43.202400" lon="-6.028570">
        <ele>326.946</ele>
        <time>2019-03-26T17:31:05Z</time>
      </trkpt>
      <trkpt lat="43.202520" lon="-6.028850">
        <ele>325.437</ele>
        <time>2019-03-26T17:31:25Z</time>
      </trkpt>
      <trkpt lat="43.202640" lon="-6.029320">
        <ele>322.728</ele>
        <time>2019-03-26T17:31:45Z</time>
      </trkpt>
      <trkpt lat="43.202770" lon="-6.029690">
        <ele>319.597</ele>
        <time>2019-03-26T17:32:05Z</time>
      </trkpt>
      <trkpt lat="43.202950" lon="-6.030540">
        <ele>314.359</ele>
        <time>2019-03-26T17:32:25Z</time>
      </trkpt>
      <trkpt lat="43.203080" lon="-6.030940">
        <ele>311.557</ele>
        <time>2019-03-26T17:32:45Z</time>
      </trkpt>
      <trkpt lat="43.203170" lon="-6.031100">
        <ele>310.670</ele>
        <time>2019-03-26T17:33:05Z</time>
      </trkpt>
      <trkpt lat="43.203400" lon="-6.031400">
        <ele>307.452</ele>
        <time>2019-03-26T17:33:25Z</time>
      </trkpt>
      <trkpt lat="43.203560" lon="-6.031550">
        <ele>307.453</ele>
        <time>2019-03-26T17:33:45Z</time>
      </trkpt>
      <trkpt lat="43.203770" lon="-6.031710">
        <ele>302.604</ele>
        <time>2019-03-26T17:34:05Z</time>
      </trkpt>
      <trkpt lat="43.203940" lon="-6.031800">
        <ele>302.614</ele>
        <time>2019-03-26T17:34:25Z</time>
      </trkpt>
      <trkpt lat="43.204440" lon="-6.031950">
        <ele>298.108</ele>
        <time>2019-03-26T17:34:45Z</time>
      </trkpt>
      <trkpt lat="43.204780" lon="-6.032150">
        <ele>295.038</ele>
        <time>2019-03-26T17:35:05Z</time>
      </trkpt>
      <trkpt lat="43.204990" lon="-6.032240">
        <ele>294.449</ele>
        <time>2019-03-26T17:35:25Z</time>
      </trkpt>
      <trkpt lat="43.205340" lon="-6.032410">
        <ele>292.620</ele>
        <time>2019-03-26T17:35:45Z</time>
      </trkpt>
      <trkpt lat="43.205810" lon="-6.032480">
        <ele>292.539</ele>
        <time>2019-03-26T17:36:05Z</time>
      </trkpt>
      <trkpt lat="43.206030" lon="-6.032550">
        <ele>292.441</ele>
        <time>2019-03-26T17:36:25Z</time>
      </trkpt>
      <trkpt lat="43.206310" lon="-6.032670">
        <ele>291.769</ele>
        <time>2019-03-26T17:36:45Z</time>
      </trkpt>
      <trkpt lat="43.206700" lon="-6.032950">
        <ele>289.232</ele>
        <time>2019-03-26T17:37:05Z</time>
      </trkpt>
      <trkpt lat="43.207050" lon="-6.033020">
        <ele>288.834</ele>
        <time>2019-03-26T17:37:25Z</time>
      </trkpt>
      <trkpt lat="43.207710" lon="-6.033350">
        <ele>287.655</ele>
        <time>2019-03-26T17:37:45Z</time>
      </trkpt>
      <trkpt lat="43.207870" lon="-6.033370">
        <ele>286.907</ele>
        <time>2019-03-26T17:38:05Z</time>
      </trkpt>
      <trkpt lat="43.208100" lon="-6.033360">
        <ele>286.717</ele>
        <time>2019-03-26T17:38:25Z</time>
      </trkpt>
      <trkpt lat="43.208840" lon="-6.033570">
        <ele>285.208</ele>
        <time>2019-03-26T17:38:45Z</time>
      </trkpt>
      <trkpt lat="43.209580" lon="-6.033780">
        <ele>283.588</ele>
        <time>2019-03-26T17:39:05Z</time>
      </trkpt>
      <trkpt lat="43.209710" lon="-6.033840">
        <ele>283.069</ele>
        <time>2019-03-26T17:39:25Z</time>
      </trkpt>
      <trkpt lat="43.210260" lon="-6.034320">
        <ele>281.380</ele>
        <time>2019-03-26T17:39:45Z</time>
      </trkpt>
      <trkpt lat="43.210725" lon="-6.034655">
        <ele>279.759</ele>
        <time>2019-03-26T17:40:05Z</time>
      </trkpt>
      <trkpt lat="43.211190" lon="-6.034990">
        <ele>278.371</ele>
        <time>2019-03-26T17:40:25Z</time>
      </trkpt>
      <trkpt lat="43.211610" lon="-6.035090">
        <ele>276.829</ele>
        <time>2019-03-26T17:40:45Z</time>
      </trkpt>
      <trkpt lat="43.212120" lon="-6.035460">
        <ele>275.772</ele>
        <time>2019-03-26T17:41:05Z</time>
      </trkpt>
      <trkpt lat="43.212370" lon="-6.035580">
        <ele>275.024</ele>
        <time>2019-03-26T17:41:25Z</time>
      </trkpt>
      <trkpt lat="43.212780" lon="-6.035680">
        <ele>274.058</ele>
        <time>2019-03-26T17:41:45Z</time>
      </trkpt>
      <trkpt lat="43.212860" lon="-6.035750">
        <ele>273.452</ele>
        <time>2019-03-26T17:42:05Z</time>
      </trkpt>
      <trkpt lat="43.213120" lon="-6.036150">
        <ele>272.417</ele>
        <time>2019-03-26T17:42:25Z</time>
      </trkpt>
      <trkpt lat="43.213360" lon="-6.036450">
        <ele>271.908</ele>
        <time>2019-03-26T17:42:45Z</time>
      </trkpt>
      <trkpt lat="43.213570" lon="-6.036660">
        <ele>271.588</ele>
        <time>2019-03-26T17:43:05Z</time>
      </trkpt>
      <trkpt lat="43.213730" lon="-6.036710">
        <ele>271.139</ele>
        <time>2019-03-26T17:43:25Z</time>
      </trkpt>
      <trkpt lat="43.214170" lon="-6.036690">
        <ele>270.560</ele>
        <time>2019-03-26T17:43:45Z</time>
      </trkpt>
      <trkpt lat="43.214560" lon="-6.036470">
        <ele>268.849</ele>
        <time>2019-03-26T17:44:05Z</time>
      </trkpt>
      <trkpt lat="43.214740" lon="-6.036410">
        <ele>268.231</ele>
        <time>2019-03-26T17:44:25Z</time>
      </trkpt>
      <trkpt lat="43.214880" lon="-6.036410">
        <ele>267.759</ele>
        <time>2019-03-26T17:44:45Z</time>
      </trkpt>
      <trkpt lat="43.215500" lon="-6.036480">
        <ele>266.762</ele>
        <time>2019-03-26T17:45:05Z</time>
      </trkpt>
      <trkpt lat="43.215670" lon="-6.036570">
        <ele>265.954</ele>
        <time>2019-03-26T17:45:25Z</time>
      </trkpt>
      <trkpt lat="43.215890" lon="-6.036750">
        <ele>265.799</ele>
        <time>2019-03-26T17:45:45Z</time>
      </trkpt>
      <trkpt lat="43.216100" lon="-6.036850">
        <ele>265.207</ele>
        <time>2019-03-26T17:46:05Z</time>
      </trkpt>
      <trkpt lat="43.216625" lon="-6.036905">
        <ele>264.327</ele>
        <time>2019-03-26T17:46:25Z</time>
      </trkpt>
      <trkpt lat="43.217150" lon="-6.036960">
        <ele>263.108</ele>
        <time>2019-03-26T17:46:45Z</time>
      </trkpt>
      <trkpt lat="43.217280" lon="-6.037040">
        <ele>262.922</ele>
        <time>2019-03-26T17:47:05Z</time>
      </trkpt>
      <trkpt lat="43.217420" lon="-6.037090">
        <ele>262.623</ele>
        <time>2019-03-26T17:47:25Z</time>
      </trkpt>
      <trkpt lat="43.217820" lon="-6.037080">
        <ele>261.454</ele>
        <time>2019-03-26T17:47:45Z</time>
      </trkpt>
      <trkpt lat="43.217950" lon="-6.037100">
        <ele>261.173</ele>
        <time>2019-03-26T17:48:05Z</time>
      </trkpt>
      <trkpt lat="43.218080" lon="-6.037150">
        <ele>260.975</ele>
        <time>2019-03-26T17:48:25Z</time>
      </trkpt>
      <trkpt lat="43.218190" lon="-6.037150">
        <ele>260.843</ele>
        <time>2019-03-26T17:48:45Z</time>
      </trkpt>
      <trkpt lat="43.218590" lon="-6.037090">
        <ele>260.136</ele>
        <time>2019-03-26T17:49:05Z</time>
      </trkpt>
      <trkpt lat="43.218780" lon="-6.037130">
        <ele>259.498</ele>
        <time>2019-03-26T17:49:25Z</time>
      </trkpt>
      <trkpt lat="43.218980" lon="-6.037240">
        <ele>259.098</ele>
        <time>2019-03-26T17:49:45Z</time>
      </trkpt>
      <trkpt lat="43.219130" lon="-6.037290">
        <ele>259.615</ele>
        <time>2019-03-26T17:50:05Z</time>
      </trkpt>
      <trkpt lat="43.219250" lon="-6.037310">
        <ele>260.726</ele>
        <time>2019-03-26T17:50:25Z</time>
      </trkpt>
      <trkpt lat="43.219370" lon="-6.037360">
        <ele>264.108</ele>
        <time>2019-03-26T17:50:45Z</time>
      </trkpt>
      <trkpt lat="43.219660" lon="-6.037570">
        <ele>265.792</ele>
        <time>2019-03-26T17:51:05Z</time>
      </trkpt>
      <trkpt lat="43.219890" lon="-6.037790">
        <ele>265.773</ele>
        <time>2019-03-26T17:51:25Z</time>
      </trkpt>
      <trkpt lat="43.219990" lon="-6.037830">
        <ele>265.744</ele>
        <time>2019-03-26T17:51:45Z</time>
      </trkpt>
      <trkpt lat="43.220150" lon="-6.037860">
        <ele>265.793</ele>
        <time>2019-03-26T17:52:05Z</time>
      </trkpt>
      <trkpt lat="43.220570" lon="-6.037810">
        <ele>265.595</ele>
        <time>2019-03-26T17:52:25Z</time>
      </trkpt>
      <trkpt lat="43.220790" lon="-6.037740">
        <ele>265.543</ele>
        <time>2019-03-26T17:52:45Z</time>
      </trkpt>
      <trkpt lat="43.221230" lon="-6.037690">
        <ele>265.586</ele>
        <time>2019-03-26T17:53:05Z</time>
      </trkpt>
      <trkpt lat="43.221550" lon="-6.037700">
        <ele>264.688</ele>
        <time>2019-03-26T17:53:25Z</time>
      </trkpt>
      <trkpt lat="43.222065" lon="-6.037825">
        <ele>262.019</ele>
        <time>2019-03-26T17:53:45Z</time>
      </trkpt>
      <trkpt lat="43.222580" lon="-6.037950">
        <ele>261.309</ele>
        <time>2019-03-26T17:54:05Z</time>
      </trkpt>
      <trkpt lat="43.222870" lon="-6.038000">
        <ele>261.219</ele>
        <time>2019-03-26T17:54:25Z</time>
      </trkpt>
      <trkpt lat="43.223100" lon="-6.038020">
        <ele>261.208</ele>
        <time>2019-03-26T17:54:45Z</time>
      </trkpt>
      <trkpt lat="43.223690" lon="-6.037900">
        <ele>260.754</ele>
        <time>2019-03-26T17:55:05Z</time>
      </trkpt>
      <trkpt lat="43.223830" lon="-6.037900">
        <ele>260.595</ele>
        <time>2019-03-26T17:55:25Z</time>
      </trkpt>
      <trkpt lat="43.224310" lon="-6.038075">
        <ele>259.696</ele>
        <time>2019-03-26T17:55:45Z</time>
      </trkpt>
      <trkpt lat="43.224790" lon="-6.038250">
        <ele>258.465</ele>
        <time>2019-03-26T17:56:05Z</time>
      </trkpt>
      <trkpt lat="43.224940" lon="-6.038350">
        <ele>258.367</ele>
        <time>2019-03-26T17:56:25Z</time>
      </trkpt>
      <trkpt lat="43.225190" lon="-6.038450">
        <ele>258.235</ele>
        <time>2019-03-26T17:56:45Z</time>
      </trkpt>
      <trkpt lat="43.225320" lon="-6.038470">
        <ele>258.278</ele>
        <time>2019-03-26T17:57:05Z</time>
      </trkpt>
      <trkpt lat="43.225850" lon="-6.038380">
        <ele>256.340</ele>
        <time>2019-03-26T17:57:25Z</time>
      </trkpt>
      <trkpt lat="43.226070" lon="-6.038380">
        <ele>256.258</ele>
        <time>2019-03-26T17:57:45Z</time>
      </trkpt>
      <trkpt lat="43.226580" lon="-6.038490">
        <ele>256.252</ele>
        <time>2019-03-26T17:58:05Z</time>
      </trkpt>
      <trkpt lat="43.227370" lon="-6.038520">
        <ele>258.017</ele>
        <time>2019-03-26T17:58:25Z</time>
      </trkpt>
      <trkpt lat="43.227590" lon="-6.038450">
        <ele>258.108</ele>
        <time>2019-03-26T17:58:45Z</time>
      </trkpt>
      <trkpt lat="43.227830" lon="-6.038230">
        <ele>258.188</ele>
        <time>2019-03-26T17:59:05Z</time>
      </trkpt>
      <trkpt lat="43.228310" lon="-6.037550">
        <ele>258.159</ele>
        <time>2019-03-26T17:59:25Z</time>
      </trkpt>
      <trkpt lat="43.228790" lon="-6.037050">
        <ele>259.060</ele>
        <time>2019-03-26T17:59:45Z</time>
      </trkpt>
      <trkpt lat="43.229110" lon="-6.036810">
        <ele>260.019</ele>
        <time>2019-03-26T18:00:05Z</time>
      </trkpt>
      <trkpt lat="43.229220" lon="-6.036940">
        <ele>259.031</ele>
        <time>2019-03-26T18:00:25Z</time>
      </trkpt>
      <trkpt lat="43.229470" lon="-6.037290">
        <ele>264.289</ele>
        <time>2019-03-26T18:00:45Z</time>
      </trkpt>
      <trkpt lat="43.229870" lon="-6.037080">
        <ele>268.842</ele>
        <time>2019-03-26T18:01:05Z</time>
      </trkpt>
      <trkpt lat="43.230100" lon="-6.036830">
        <ele>270.814</ele>
        <time>2019-03-26T18:01:25Z</time>
      </trkpt>
      <trkpt lat="43.230240" lon="-6.036620">
        <ele>272.517</ele>
        <time>2019-03-26T18:01:45Z</time>
      </trkpt>
      <trkpt lat="43.230510" lon="-6.036150">
        <ele>275.887</ele>
        <time>2019-03-26T18:02:05Z</time>
      </trkpt>
      <trkpt lat="43.231143" lon="-6.035320">
        <ele>282.415</ele>
        <time>2019-03-26T18:02:25Z</time>
      </trkpt>
      <trkpt lat="43.231777" lon="-6.034490">
        <ele>288.208</ele>
        <time>2019-03-26T18:02:45Z</time>
      </trkpt>
      <trkpt lat="43.232410" lon="-6.033660">
        <ele>294.924</ele>
        <time>2019-03-26T18:03:05Z</time>
      </trkpt>
      <trkpt lat="43.233000" lon="-6.033230">
        <ele>296.235</ele>
        <time>2019-03-26T18:03:25Z</time>
      </trkpt>
      <trkpt lat="43.233570" lon="-6.033000">
        <ele>292.396</ele>
        <time>2019-03-26T18:03:45Z</time>
      </trkpt>
      <trkpt lat="43.233740" lon="-6.032880">
        <ele>291.415</ele>
        <time>2019-03-26T18:04:05Z</time>
      </trkpt>
      <trkpt lat="43.234290" lon="-6.032270">
        <ele>285.417</ele>
        <time>2019-03-26T18:04:25Z</time>
      </trkpt>
      <trkpt lat="43.234540" lon="-6.031950">
        <ele>281.255</ele>
        <time>2019-03-26T18:04:45Z</time>
      </trkpt>
      <trkpt lat="43.235180" lon="-6.031450">
        <ele>276.088</ele>
        <time>2019-03-26T18:05:05Z</time>
      </trkpt>
      <trkpt lat="43.235340" lon="-6.031360">
        <ele>275.450</ele>
        <time>2019-03-26T18:05:25Z</time>
      </trkpt>
      <trkpt lat="43.235530" lon="-6.031290">
        <ele>275.082</ele>
        <time>2019-03-26T18:05:45Z</time>
      </trkpt>
      <trkpt lat="43.236215" lon="-6.031195">
        <ele>272.543</ele>
        <time>2019-03-26T18:06:05Z</time>
      </trkpt>
      <trkpt lat="43.236900" lon="-6.031100">
        <ele>269.317</ele>
        <time>2019-03-26T18:06:25Z</time>
      </trkpt>
      <trkpt lat="43.237120" lon="-6.031030">
        <ele>268.508</ele>
        <time>2019-03-26T18:06:45Z</time>
      </trkpt>
      <trkpt lat="43.237280" lon="-6.030960">
        <ele>266.911</ele>
        <time>2019-03-26T18:07:05Z</time>
      </trkpt>
      <trkpt lat="43.237850" lon="-6.030610">
        <ele>263.692</ele>
        <time>2019-03-26T18:07:25Z</time>
      </trkpt>
      <trkpt lat="43.237990" lon="-6.030560">
        <ele>263.083</ele>
        <time>2019-03-26T18:07:45Z</time>
      </trkpt>
      <trkpt lat="43.238180" lon="-6.030590">
        <ele>262.172</ele>
        <time>2019-03-26T18:08:05Z</time>
      </trkpt>
      <trkpt lat="43.238980" lon="-6.030940">
        <ele>257.144</ele>
        <time>2019-03-26T18:08:25Z</time>
      </trkpt>
      <trkpt lat="43.239180" lon="-6.031010">
        <ele>256.692</ele>
        <time>2019-03-26T18:08:45Z</time>
      </trkpt>
      <trkpt lat="43.239400" lon="-6.031010">
        <ele>256.255</ele>
        <time>2019-03-26T18:09:05Z</time>
      </trkpt>
      <trkpt lat="43.239590" lon="-6.030980">
        <ele>254.667</ele>
        <time>2019-03-26T18:09:25Z</time>
      </trkpt>
      <trkpt lat="43.239840" lon="-6.030890">
        <ele>252.499</ele>
        <time>2019-03-26T18:09:45Z</time>
      </trkpt>
      <trkpt lat="43.240060" lon="-6.030750">
        <ele>250.907</ele>
        <time>2019-03-26T18:10:05Z</time>
      </trkpt>
      <trkpt lat="43.240290" lon="-6.030540">
        <ele>249.627</ele>
        <time>2019-03-26T18:10:25Z</time>
      </trkpt>
      <trkpt lat="43.240430" lon="-6.030320">
        <ele>248.408</ele>
        <time>2019-03-26T18:10:45Z</time>
      </trkpt>
      <trkpt lat="43.240560" lon="-6.030040">
        <ele>247.142</ele>
        <time>2019-03-26T18:11:05Z</time>
      </trkpt>
      <trkpt lat="43.240660" lon="-6.029740">
        <ele>245.953</ele>
        <time>2019-03-26T18:11:25Z</time>
      </trkpt>
      <trkpt lat="43.240825" lon="-6.029130">
        <ele>242.584</ele>
        <time>2019-03-26T18:11:45Z</time>
      </trkpt>
      <trkpt lat="43.240990" lon="-6.028520">
        <ele>239.853</ele>
        <time>2019-03-26T18:12:05Z</time>
      </trkpt>
      <trkpt lat="43.241090" lon="-6.028260">
        <ele>237.795</ele>
        <time>2019-03-26T18:12:25Z</time>
      </trkpt>
      <trkpt lat="43.241200" lon="-6.028030">
        <ele>236.153</ele>
        <time>2019-03-26T18:12:45Z</time>
      </trkpt>
      <trkpt lat="43.241340" lon="-6.027870">
        <ele>235.596</ele>
        <time>2019-03-26T18:13:05Z</time>
      </trkpt>
      <trkpt lat="43.241750" lon="-6.027480">
        <ele>232.578</ele>
        <time>2019-03-26T18:13:25Z</time>
      </trkpt>
      <trkpt lat="43.242160" lon="-6.027090">
        <ele>231.065</ele>
        <time>2019-03-26T18:13:45Z</time>
      </trkpt>
      <trkpt lat="43.242310" lon="-6.026900">
        <ele>230.668</ele>
        <time>2019-03-26T18:14:05Z</time>
      </trkpt>
      <trkpt lat="43.242615" lon="-6.026430">
        <ele>230.014</ele>
        <time>2019-03-26T18:14:25Z</time>
      </trkpt>
      <trkpt lat="43.242920" lon="-6.025960">
        <ele>229.808</ele>
        <time>2019-03-26T18:14:45Z</time>
      </trkpt>
      <trkpt lat="43.243130" lon="-6.025710">
        <ele>229.769</ele>
        <time>2019-03-26T18:15:05Z</time>
      </trkpt>
      <trkpt lat="43.243310" lon="-6.025560">
        <ele>229.650</ele>
        <time>2019-03-26T18:15:25Z</time>
      </trkpt>
      <trkpt lat="43.243800" lon="-6.025195">
        <ele>229.631</ele>
        <time>2019-03-26T18:15:45Z</time>
      </trkpt>
      <trkpt lat="43.244290" lon="-6.024830">
        <ele>229.410</ele>
        <time>2019-03-26T18:16:05Z</time>
      </trkpt>
      <trkpt lat="43.244490" lon="-6.024740">
        <ele>229.432</ele>
        <time>2019-03-26T18:16:25Z</time>
      </trkpt>
      <trkpt lat="43.244700" lon="-6.024720">
        <ele>229.240</ele>
        <time>2019-03-26T18:16:45Z</time>
      </trkpt>
      <trkpt lat="43.244920" lon="-6.024720">
        <ele>229.223</ele>
        <time>2019-03-26T18:17:05Z</time>
      </trkpt>
      <trkpt lat="43.245650" lon="-6.024840">
        <ele>229.255</ele>
        <time>2019-03-26T18:17:25Z</time>
      </trkpt>
      <trkpt lat="43.246010" lon="-6.024880">
        <ele>229.419</ele>
        <time>2019-03-26T18:17:45Z</time>
      </trkpt>
      <trkpt lat="43.246430" lon="-6.024760">
        <ele>229.809</ele>
        <time>2019-03-26T18:18:05Z</time>
      </trkpt>
      <trkpt lat="43.246830" lon="-6.024510">
        <ele>230.319</ele>
        <time>2019-03-26T18:18:25Z</time>
      </trkpt>
      <trkpt lat="43.246980" lon="-6.024460">
        <ele>230.708</ele>
        <time>2019-03-26T18:18:45Z</time>
      </trkpt>
      <trkpt lat="43.247605" lon="-6.024335">
        <ele>231.884</ele>
        <time>2019-03-26T18:19:05Z</time>
      </trkpt>
      <trkpt lat="43.248230" lon="-6.024210">
        <ele>232.995</ele>
        <time>2019-03-26T18:19:25Z</time>
      </trkpt>
      <trkpt lat="43.248830" lon="-6.024130">
        <ele>234.136</ele>
        <time>2019-03-26T18:19:45Z</time>
      </trkpt>
      <trkpt lat="43.249500" lon="-6.023960">
        <ele>235.445</ele>
        <time>2019-03-26T18:20:05Z</time>
      </trkpt>
      <trkpt lat="43.249730" lon="-6.023870">
        <ele>234.057</ele>
        <time>2019-03-26T18:20:25Z</time>
      </trkpt>
      <trkpt lat="43.249900" lon="-6.023710">
        <ele>232.025</ele>
        <time>2019-03-26T18:20:45Z</time>
      </trkpt>
      <trkpt lat="43.250010" lon="-6.023540">
        <ele>230.298</ele>
        <time>2019-03-26T18:21:05Z</time>
      </trkpt>
      <trkpt lat="43.250070" lon="-6.023410">
        <ele>230.240</ele>
        <time>2019-03-26T18:21:25Z</time>
      </trkpt>
      <trkpt lat="43.250130" lon="-6.023170">
        <ele>228.371</ele>
        <time>2019-03-26T18:21:45Z</time>
      </trkpt>
      <trkpt lat="43.250140" lon="-6.022910">
        <ele>227.341</ele>
        <time>2019-03-26T18:22:05Z</time>
      </trkpt>
      <trkpt lat="43.250110" lon="-6.022700">
        <ele>226.215</ele>
        <time>2019-03-26T18:22:25Z</time>
      </trkpt>
      <trkpt lat="43.249880" lon="-6.021930">
        <ele>221.508</ele>
        <time>2019-03-26T18:22:45Z</time>
      </trkpt>
      <trkpt lat="43.249850" lon="-6.021740">
        <ele>221.550</ele>
        <time>2019-03-26T18:23:05Z</time>
      </trkpt>
      <trkpt lat="43.249890" lon="-6.021080">
        <ele>216.971</ele>
        <time>2019-03-26T18:23:25Z</time>
      </trkpt>
      <trkpt lat="43.249880" lon="-6.020820">
        <ele>215.052</ele>
        <time>2019-03-26T18:23:45Z</time>
      </trkpt>
      <trkpt lat="43.249830" lon="-6.020570">
        <ele>212.751</ele>
        <time>2019-03-26T18:24:05Z</time>
      </trkpt>
      <trkpt lat="43.249680" lon="-6.020070">
        <ele>209.953</ele>
        <time>2019-03-26T18:24:25Z</time>
      </trkpt>
      <trkpt lat="43.249660" lon="-6.019640">
        <ele>207.971</ele>
        <time>2019-03-26T18:24:45Z</time>
      </trkpt>
      <trkpt lat="43.249570" lon="-6.019250">
        <ele>207.094</ele>
        <time>2019-03-26T18:25:05Z</time>
      </trkpt>
      <trkpt lat="43.249560" lon="-6.019110">
        <ele>206.426</ele>
        <time>2019-03-26T18:25:25Z</time>
      </trkpt>
      <trkpt lat="43.249570" lon="-6.018990">
        <ele>205.059</ele>
        <time>2019-03-26T18:25:45Z</time>
      </trkpt>
      <trkpt lat="43.249760" lon="-6.018250">
        <ele>204.903</ele>
        <time>2019-03-26T18:26:05Z</time>
      </trkpt>
      <trkpt lat="43.249820" lon="-6.018150">
        <ele>205.423</ele>
        <time>2019-03-26T18:26:25Z</time>
      </trkpt>
      <trkpt lat="43.250390" lon="-6.017445">
        <ele>214.108</ele>
        <time>2019-03-26T18:26:45Z</time>
      </trkpt>
      <trkpt lat="43.250960" lon="-6.016740">
        <ele>216.138</ele>
        <time>2019-03-26T18:27:05Z</time>
      </trkpt>
      <trkpt lat="43.251060" lon="-6.016670">
        <ele>216.199</ele>
        <time>2019-03-26T18:27:25Z</time>
      </trkpt>
      <trkpt lat="43.251390" lon="-6.016500">
        <ele>218.010</ele>
        <time>2019-03-26T18:27:45Z</time>
      </trkpt>
      <trkpt lat="43.251570" lon="-6.016390">
        <ele>217.129</ele>
        <time>2019-03-26T18:28:05Z</time>
      </trkpt>
      <trkpt lat="43.252000" lon="-6.015980">
        <ele>214.471</ele>
        <time>2019-03-26T18:28:25Z</time>
      </trkpt>
      <trkpt lat="43.252600" lon="-6.015460">
        <ele>212.139</ele>
        <time>2019-03-26T18:28:45Z</time>
      </trkpt>
      <trkpt lat="43.253135" lon="-6.015025">
        <ele>212.422</ele>
        <time>2019-03-26T18:29:05Z</time>
      </trkpt>
      <trkpt lat="43.253670" lon="-6.014590">
        <ele>214.334</ele>
        <time>2019-03-26T18:29:25Z</time>
      </trkpt>
      <trkpt lat="43.253880" lon="-6.014450">
        <ele>214.937</ele>
        <time>2019-03-26T18:29:45Z</time>
      </trkpt>
      <trkpt lat="43.254260" lon="-6.014300">
        <ele>215.549</ele>
        <time>2019-03-26T18:30:05Z</time>
      </trkpt>
      <trkpt lat="43.254260" lon="-6.014310">
        <ele>215.513</ele>
        <time>2019-03-26T18:30:25Z</time>
      </trkpt>
      <trkpt lat="43.254470" lon="-6.014230">
        <ele>216.108</ele>
        <time>2019-03-26T18:30:45Z</time>
      </trkpt>
      <trkpt lat="43.254915" lon="-6.013980">
        <ele>216.856</ele>
        <time>2019-03-26T18:31:05Z</time>
      </trkpt>
      <trkpt lat="43.255360" lon="-6.013730">
        <ele>216.657</ele>
        <time>2019-03-26T18:31:25Z</time>
      </trkpt>
      <trkpt lat="43.255640" lon="-6.013370">
        <ele>211.368</ele>
        <time>2019-03-26T18:31:45Z</time>
      </trkpt>
      <trkpt lat="43.255970" lon="-6.013030">
        <ele>208.387</ele>
        <time>2019-03-26T18:32:05Z</time>
      </trkpt>
      <trkpt lat="43.256490" lon="-6.012150">
        <ele>202.369</ele>
        <time>2019-03-26T18:32:25Z</time>
      </trkpt>
      <trkpt lat="43.256660" lon="-6.012020">
        <ele>202.797</ele>
        <time>2019-03-26T18:32:45Z</time>
      </trkpt>
      <trkpt lat="43.257130" lon="-6.011780">
        <ele>203.480</ele>
        <time>2019-03-26T18:33:05Z</time>
      </trkpt>
      <trkpt lat="43.257510" lon="-6.011540">
        <ele>203.042</ele>
        <time>2019-03-26T18:33:25Z</time>
      </trkpt>
      <trkpt lat="43.257950" lon="-6.010970">
        <ele>201.336</ele>
        <time>2019-03-26T18:33:45Z</time>
      </trkpt>
      <trkpt lat="43.258140" lon="-6.010750">
        <ele>202.117</ele>
        <time>2019-03-26T18:34:05Z</time>
      </trkpt>
      <trkpt lat="43.258410" lon="-6.010480">
        <ele>203.018</ele>
        <time>2019-03-26T18:34:25Z</time>
      </trkpt>
      <trkpt lat="43.258875" lon="-6.010070">
        <ele>203.808</ele>
        <time>2019-03-26T18:34:45Z</time>
      </trkpt>
      <trkpt lat="43.259340" lon="-6.009660">
        <ele>201.366</ele>
        <time>2019-03-26T18:35:05Z</time>
      </trkpt>
      <trkpt lat="43.259480" lon="-6.009490">
        <ele>200.367</ele>
        <time>2019-03-26T18:35:25Z</time>
      </trkpt>
      <trkpt lat="43.260010" lon="-6.008550">
        <ele>191.818</ele>
        <time>2019-03-26T18:35:45Z</time>
      </trkpt>
      <trkpt lat="43.260200" lon="-6.008300">
        <ele>191.817</ele>
        <time>2019-03-26T18:36:05Z</time>
      </trkpt>
      <trkpt lat="43.260670" lon="-6.007800">
        <ele>189.469</ele>
        <time>2019-03-26T18:36:25Z</time>
      </trkpt>
      <trkpt lat="43.260910" lon="-6.007590">
        <ele>187.117</ele>
        <time>2019-03-26T18:36:45Z</time>
      </trkpt>
      <trkpt lat="43.261140" lon="-6.007430">
        <ele>187.140</ele>
        <time>2019-03-26T18:37:05Z</time>
      </trkpt>
      <trkpt lat="43.261310" lon="-6.007330">
        <ele>184.922</ele>
        <time>2019-03-26T18:37:25Z</time>
      </trkpt>
      <trkpt lat="43.261690" lon="-6.007170">
        <ele>183.811</ele>
        <time>2019-03-26T18:37:45Z</time>
      </trkpt>
      <trkpt lat="43.261800" lon="-6.007100">
        <ele>183.821</ele>
        <time>2019-03-26T18:38:05Z</time>
      </trkpt>
      <trkpt lat="43.261920" lon="-6.006960">
        <ele>182.503</ele>
        <time>2019-03-26T18:38:25Z</time>
      </trkpt>
      <trkpt lat="43.262000" lon="-6.006820">
        <ele>182.508</ele>
        <time>2019-03-26T18:38:45Z</time>
      </trkpt>
      <trkpt lat="43.262090" lon="-6.006470">
        <ele>181.134</ele>
        <time>2019-03-26T18:39:05Z</time>
      </trkpt>
      <trkpt lat="43.262100" lon="-6.005860">
        <ele>180.315</ele>
        <time>2019-03-26T18:39:25Z</time>
      </trkpt>
      <trkpt lat="43.262140" lon="-6.005620">
        <ele>180.226</ele>
        <time>2019-03-26T18:39:45Z</time>
      </trkpt>
      <trkpt lat="43.262280" lon="-6.005300">
        <ele>179.965</ele>
        <time>2019-03-26T18:40:05Z</time>
      </trkpt>
      <trkpt lat="43.262360" lon="-6.005200">
        <ele>179.997</ele>
        <time>2019-03-26T18:40:25Z</time>
      </trkpt>
      <trkpt lat="43.262480" lon="-6.005110">
        <ele>179.895</ele>
        <time>2019-03-26T18:40:45Z</time>
      </trkpt>
      <trkpt lat="43.262650" lon="-6.005030">
        <ele>179.428</ele>
        <time>2019-03-26T18:41:05Z</time>
      </trkpt>
      <trkpt lat="43.263440" lon="-6.004780">
        <ele>178.820</ele>
        <time>2019-03-26T18:41:25Z</time>
      </trkpt>
      <trkpt lat="43.264230" lon="-6.004530">
        <ele>178.267</ele>
        <time>2019-03-26T18:41:45Z</time>
      </trkpt>
      <trkpt lat="43.264730" lon="-6.004380">
        <ele>178.381</ele>
        <time>2019-03-26T18:42:05Z</time>
      </trkpt>
      <trkpt lat="43.265050" lon="-6.004310">
        <ele>178.219</ele>
        <time>2019-03-26T18:42:25Z</time>
      </trkpt>
      <trkpt lat="43.265740" lon="-6.004220">
        <ele>178.008</ele>
        <time>2019-03-26T18:42:45Z</time>
      </trkpt>
      <trkpt lat="43.266423" lon="-6.003960">
        <ele>177.279</ele>
        <time>2019-03-26T18:43:05Z</time>
      </trkpt>
      <trkpt lat="43.267107" lon="-6.003700">
        <ele>177.180</ele>
        <time>2019-03-26T18:43:25Z</time>
      </trkpt>
      <trkpt lat="43.267790" lon="-6.003440">
        <ele>177.831</ele>
        <time>2019-03-26T18:43:45Z</time>
      </trkpt>
      <trkpt lat="43.267990" lon="-6.003300">
        <ele>177.670</ele>
        <time>2019-03-26T18:44:05Z</time>
      </trkpt>
      <trkpt lat="43.268190" lon="-6.003090">
        <ele>177.342</ele>
        <time>2019-03-26T18:44:25Z</time>
      </trkpt>
      <trkpt lat="43.268450" lon="-6.002760">
        <ele>176.870</ele>
        <time>2019-03-26T18:44:45Z</time>
      </trkpt>
      <trkpt lat="43.269000" lon="-6.002100">
        <ele>175.933</ele>
        <time>2019-03-26T18:45:05Z</time>
      </trkpt>
      <trkpt lat="43.269290" lon="-6.001850">
        <ele>178.135</ele>
        <time>2019-03-26T18:45:25Z</time>
      </trkpt>
      <trkpt lat="43.269570" lon="-6.001660">
        <ele>185.636</ele>
        <time>2019-03-26T18:45:45Z</time>
      </trkpt>
      <trkpt lat="43.270220" lon="-6.001360">
        <ele>188.517</ele>
        <time>2019-03-26T18:46:05Z</time>
      </trkpt>
      <trkpt lat="43.270870" lon="-6.001060">
        <ele>185.118</ele>
        <time>2019-03-26T18:46:25Z</time>
      </trkpt>
      <trkpt lat="43.271520" lon="-6.000760">
        <ele>184.108</ele>
        <time>2019-03-26T18:46:45Z</time>
      </trkpt>
      <trkpt lat="43.271700" lon="-6.000620">
        <ele>184.146</ele>
        <time>2019-03-26T18:47:05Z</time>
      </trkpt>
      <trkpt lat="43.271840" lon="-6.000480">
        <ele>181.137</ele>
        <time>2019-03-26T18:47:25Z</time>
      </trkpt>
      <trkpt lat="43.272000" lon="-6.000250">
        <ele>181.178</ele>
        <time>2019-03-26T18:47:45Z</time>
      </trkpt>
      <trkpt lat="43.272230" lon="-5.999800">
        <ele>181.187</ele>
        <time>2019-03-26T18:48:05Z</time>
      </trkpt>
      <trkpt lat="43.272300" lon="-5.999610">
        <ele>181.759</ele>
        <time>2019-03-26T18:48:25Z</time>
      </trkpt>
      <trkpt lat="43.272530" lon="-5.999120">
        <ele>182.517</ele>
        <time>2019-03-26T18:48:45Z</time>
      </trkpt>
      <trkpt lat="43.272660" lon="-5.998900">
        <ele>182.580</ele>
        <time>2019-03-26T18:49:05Z</time>
      </trkpt>
      <trkpt lat="43.272980" lon="-5.998450">
        <ele>182.742</ele>
        <time>2019-03-26T18:49:25Z</time>
      </trkpt>
      <trkpt lat="43.273170" lon="-5.998250">
        <ele>182.686</ele>
        <time>2019-03-26T18:49:45Z</time>
      </trkpt>
      <trkpt lat="43.273625" lon="-5.997890">
        <ele>182.460</ele>
        <time>2019-03-26T18:50:05Z</time>
      </trkpt>
      <trkpt lat="43.274080" lon="-5.997530">
        <ele>182.026</ele>
        <time>2019-03-26T18:50:25Z</time>
      </trkpt>
      <trkpt lat="43.274280" lon="-5.997270">
        <ele>182.008</ele>
        <time>2019-03-26T18:50:45Z</time>
      </trkpt>
      <trkpt lat="43.274420" lon="-5.996990">
        <ele>181.861</ele>
        <time>2019-03-26T18:51:05Z</time>
      </trkpt>
      <trkpt lat="43.274550" lon="-5.996530">
        <ele>181.342</ele>
        <time>2019-03-26T18:51:25Z</time>
      </trkpt>
      <trkpt lat="43.274570" lon="-5.996190">
        <ele>181.983</ele>
        <time>2019-03-26T18:51:45Z</time>
      </trkpt>
      <trkpt lat="43.274570" lon="-5.995440">
        <ele>182.282</ele>
        <time>2019-03-26T18:52:05Z</time>
      </trkpt>
      <trkpt lat="43.274600" lon="-5.995100">
        <ele>181.564</ele>
        <time>2019-03-26T18:52:25Z</time>
      </trkpt>
      <trkpt lat="43.274560" lon="-5.995110">
        <ele>181.532</ele>
        <time>2019-03-26T18:52:45Z</time>
      </trkpt>
      <trkpt lat="43.274410" lon="-5.995090">
        <ele>184.575</ele>
        <time>2019-03-26T18:53:05Z</time>
      </trkpt>
      <trkpt lat="43.274290" lon="-5.994990">
        <ele>186.227</ele>
        <time>2019-03-26T18:53:25Z</time>
      </trkpt>
      <trkpt lat="43.274230" lon="-5.994830">
        <ele>187.826</ele>
        <time>2019-03-26T18:53:45Z</time>
      </trkpt>
      <trkpt lat="43.274230" lon="-5.994680">
        <ele>188.747</ele>
        <time>2019-03-26T18:54:05Z</time>
      </trkpt>
      <trkpt lat="43.274270" lon="-5.994180">
        <ele>188.911</ele>
        <time>2019-03-26T18:54:25Z</time>
      </trkpt>
      <trkpt lat="43.274330" lon="-5.993980">
        <ele>189.808</ele>
        <time>2019-03-26T18:54:45Z</time>
      </trkpt>
      <trkpt lat="43.274400" lon="-5.993890">
        <ele>189.815</ele>
        <time>2019-03-26T18:55:05Z</time>
      </trkpt>
      <trkpt lat="43.274790" lon="-5.993580">
        <ele>195.346</ele>
        <time>2019-03-26T18:55:25Z</time>
      </trkpt>
      <trkpt lat="43.275160" lon="-5.993230">
        <ele>200.957</ele>
        <time>2019-03-26T18:55:45Z</time>
      </trkpt>
      <trkpt lat="43.275270" lon="-5.993090">
        <ele>204.326</ele>
        <time>2019-03-26T18:56:05Z</time>
      </trkpt>
      <trkpt lat="43.275360" lon="-5.992930">
        <ele>204.378</ele>
        <time>2019-03-26T18:56:25Z</time>
      </trkpt>
      <trkpt lat="43.275860" lon="-5.992320">
        <ele>212.816</ele>
        <time>2019-03-26T18:56:45Z</time>
      </trkpt>
      <trkpt lat="43.276090" lon="-5.991920">
        <ele>216.449</ele>
        <time>2019-03-26T18:57:05Z</time>
      </trkpt>
      <trkpt lat="43.276410" lon="-5.991140">
        <ele>221.671</ele>
        <time>2019-03-26T18:57:25Z</time>
      </trkpt>
      <trkpt lat="43.276710" lon="-5.990670">
        <ele>225.672</ele>
        <time>2019-03-26T18:57:45Z</time>
      </trkpt>
      <trkpt lat="43.276850" lon="-5.990470">
        <ele>226.913</ele>
        <time>2019-03-26T18:58:05Z</time>
      </trkpt>
      <trkpt lat="43.277150" lon="-5.990180">
        <ele>229.514</ele>
        <time>2019-03-26T18:58:25Z</time>
      </trkpt>
      <trkpt lat="43.277280" lon="-5.990020">
        <ele>230.808</ele>
        <time>2019-03-26T18:58:45Z</time>
      </trkpt>
      <trkpt lat="43.277570" lon="-5.989530">
        <ele>235.530</ele>
        <time>2019-03-26T18:59:05Z</time>
      </trkpt>
      <trkpt lat="43.277980" lon="-5.989010">
        <ele>242.711</ele>
        <time>2019-03-26T18:59:25Z</time>
      </trkpt>
      <trkpt lat="43.278140" lon="-5.988830">
        <ele>246.092</ele>
        <time>2019-03-26T18:59:45Z</time>
      </trkpt>
      <trkpt lat="43.278250" lon="-5.988750">
        <ele>246.061</ele>
        <time>2019-03-26T19:00:05Z</time>
      </trkpt>
      <trkpt lat="43.278670" lon="-5.988560">
        <ele>251.473</ele>
        <time>2019-03-26T19:00:25Z</time>
      </trkpt>
      <trkpt lat="43.278940" lon="-5.988310">
        <ele>253.291</ele>
        <time>2019-03-26T19:00:45Z</time>
      </trkpt>
      <trkpt lat="43.279030" lon="-5.988260">
        <ele>253.294</ele>
        <time>2019-03-26T19:01:05Z</time>
      </trkpt>
      <trkpt lat="43.279260" lon="-5.988210">
        <ele>258.616</ele>
        <time>2019-03-26T19:01:25Z</time>
      </trkpt>
      <trkpt lat="43.279390" lon="-5.988210">
        <ele>262.032</ele>
        <time>2019-03-26T19:01:45Z</time>
      </trkpt>
      <trkpt lat="43.279680" lon="-5.988270">
        <ele>263.692</ele>
        <time>2019-03-26T19:02:05Z</time>
      </trkpt>
      <trkpt lat="43.279800" lon="-5.988260">
        <ele>267.611</ele>
        <time>2019-03-26T19:02:25Z</time>
      </trkpt>
      <trkpt lat="43.280460" lon="-5.987650">
        <ele>282.808</ele>
        <time>2019-03-26T19:02:45Z</time>
      </trkpt>
      <trkpt lat="43.281010" lon="-5.987090">
        <ele>293.466</ele>
        <time>2019-03-26T19:03:05Z</time>
      </trkpt>
      <trkpt lat="43.281160" lon="-5.986880">
        <ele>298.817</ele>
        <time>2019-03-26T19:03:25Z</time>
      </trkpt>
      <trkpt lat="43.281150" lon="-5.986760">
        <ele>300.378</ele>
        <time>2019-03-26T19:03:45Z</time>
      </trkpt>
      <trkpt lat="43.281080" lon="-5.986660">
        <ele>302.557</ele>
        <time>2019-03-26T19:04:05Z</time>
      </trkpt>
      <trkpt lat="43.280690" lon="-5.986380">
        <ele>306.559</ele>
        <time>2019-03-26T19:04:25Z</time>
      </trkpt>
      <trkpt lat="43.280630" lon="-5.986260">
        <ele>307.467</ele>
        <time>2019-03-26T19:04:45Z</time>
      </trkpt>
      <trkpt lat="43.280580" lon="-5.986080">
        <ele>310.250</ele>
        <time>2019-03-26T19:05:05Z</time>
      </trkpt>
      <trkpt lat="43.280520" lon="-5.985440">
        <ele>308.652</ele>
        <time>2019-03-26T19:05:25Z</time>
      </trkpt>
      <trkpt lat="43.280520" lon="-5.985210">
        <ele>307.137</ele>
        <time>2019-03-26T19:05:45Z</time>
      </trkpt>
      <trkpt lat="43.280550" lon="-5.984930">
        <ele>304.649</ele>
        <time>2019-03-26T19:06:05Z</time>
      </trkpt>
      <trkpt lat="43.280680" lon="-5.984440">
        <ele>301.013</ele>
        <time>2019-03-26T19:06:25Z</time>
      </trkpt>
      <trkpt lat="43.280730" lon="-5.984320">
        <ele>299.608</ele>
        <time>2019-03-26T19:06:45Z</time>
      </trkpt>
      <trkpt lat="43.280800" lon="-5.984250">
        <ele>299.696</ele>
        <time>2019-03-26T19:07:05Z</time>
      </trkpt>
      <trkpt lat="43.280880" lon="-5.984220">
        <ele>298.167</ele>
        <time>2019-03-26T19:07:25Z</time>
      </trkpt>
      <trkpt lat="43.281120" lon="-5.984250">
        <ele>297.048</ele>
        <time>2019-03-26T19:07:45Z</time>
      </trkpt>
      <trkpt lat="43.281550" lon="-5.984620">
        <ele>294.997</ele>
        <time>2019-03-26T19:08:05Z</time>
      </trkpt>
      <trkpt lat="43.281800" lon="-5.984740">
        <ele>294.899</ele>
        <time>2019-03-26T19:08:25Z</time>
      </trkpt>
      <trkpt lat="43.282130" lon="-5.984760">
        <ele>294.967</ele>
        <time>2019-03-26T19:08:45Z</time>
      </trkpt>
      <trkpt lat="43.282720" lon="-5.984650">
        <ele>293.570</ele>
        <time>2019-03-26T19:09:05Z</time>
      </trkpt>
      <trkpt lat="43.283180" lon="-5.984360">
        <ele>290.732</ele>
        <time>2019-03-26T19:09:25Z</time>
      </trkpt>
      <trkpt lat="43.283580" lon="-5.984010">
        <ele>292.099</ele>
        <time>2019-03-26T19:09:45Z</time>
      </trkpt>
      <trkpt lat="43.283920" lon="-5.983590">
        <ele>296.107</ele>
        <time>2019-03-26T19:10:05Z</time>
      </trkpt>
      <trkpt lat="43.284438" lon="-5.982710">
        <ele>304.427</ele>
        <time>2019-03-26T19:10:25Z</time>
      </trkpt>
      <trkpt lat="43.284955" lon="-5.981830">
        <ele>315.608</ele>
        <time>2019-03-26T19:10:45Z</time>
      </trkpt>
      <trkpt lat="43.285473" lon="-5.980950">
        <ele>325.932</ele>
        <time>2019-03-26T19:11:05Z</time>
      </trkpt>
      <trkpt lat="43.285990" lon="-5.980070">
        <ele>335.353</ele>
        <time>2019-03-26T19:11:25Z</time>
      </trkpt>
      <trkpt lat="43.286050" lon="-5.979840">
        <ele>337.114</ele>
        <time>2019-03-26T19:11:45Z</time>
      </trkpt>
      <trkpt lat="43.286140" lon="-5.979680">
        <ele>337.873</ele>
        <time>2019-03-26T19:12:05Z</time>
      </trkpt>
      <trkpt lat="43.286400" lon="-5.979300">
        <ele>339.815</ele>
        <time>2019-03-26T19:12:25Z</time>
      </trkpt>
      <trkpt lat="43.286900" lon="-5.978920">
        <ele>344.493</ele>
        <time>2019-03-26T19:12:45Z</time>
      </trkpt>
      <trkpt lat="43.287080" lon="-5.978670">
        <ele>348.456</ele>
        <time>2019-03-26T19:13:05Z</time>
      </trkpt>
      <trkpt lat="43.287530" lon="-5.977990">
        <ele>357.348</ele>
        <time>2019-03-26T19:13:25Z</time>
      </trkpt>
      <trkpt lat="43.287865" lon="-5.977330">
        <ele>361.027</ele>
        <time>2019-03-26T19:13:45Z</time>
      </trkpt>
      <trkpt lat="43.288200" lon="-5.976670">
        <ele>366.568</ele>
        <time>2019-03-26T19:14:05Z</time>
      </trkpt>
      <trkpt lat="43.288350" lon="-5.976430">
        <ele>367.814</ele>
        <time>2019-03-26T19:14:25Z</time>
      </trkpt>
      <trkpt lat="43.288450" lon="-5.976330">
        <ele>368.108</ele>
        <time>2019-03-26T19:14:45Z</time>
      </trkpt>
      <trkpt lat="43.288900" lon="-5.975830">
        <ele>376.745</ele>
        <time>2019-03-26T19:15:05Z</time>
      </trkpt>
      <trkpt lat="43.289160" lon="-5.975070">
        <ele>394.286</ele>
        <time>2019-03-26T19:15:25Z</time>
      </trkpt>
      <trkpt lat="43.289345" lon="-5.973925">
        <ele>414.487</ele>
        <time>2019-03-26T19:15:45Z</time>
      </trkpt>
      <trkpt lat="43.289530" lon="-5.972780">
        <ele>432.396</ele>
        <time>2019-03-26T19:16:05Z</time>
      </trkpt>
      <trkpt lat="43.289860" lon="-5.971750">
        <ele>451.958</ele>
        <time>2019-03-26T19:16:25Z</time>
      </trkpt>
      <trkpt lat="43.290110" lon="-5.970827">
        <ele>464.026</ele>
        <time>2019-03-26T19:16:45Z</time>
      </trkpt>
      <trkpt lat="43.290360" lon="-5.969903">
        <ele>475.749</ele>
        <time>2019-03-26T19:17:05Z</time>
      </trkpt>
      <trkpt lat="43.290610" lon="-5.968980">
        <ele>484.891</ele>
        <time>2019-03-26T19:17:25Z</time>
      </trkpt>
      <trkpt lat="43.290670" lon="-5.968620">
        <ele>490.592</ele>
        <time>2019-03-26T19:17:45Z</time>
      </trkpt>
      <trkpt lat="43.290690" lon="-5.968340">
        <ele>494.873</ele>
        <time>2019-03-26T19:18:05Z</time>
      </trkpt>
      <trkpt lat="43.290660" lon="-5.968110">
        <ele>496.920</ele>
        <time>2019-03-26T19:18:25Z</time>
      </trkpt>
      <trkpt lat="43.290670" lon="-5.967780">
        <ele>499.608</ele>
        <time>2019-03-26T19:18:45Z</time>
      </trkpt>
      <trkpt lat="43.290820" lon="-5.967240">
        <ele>505.872</ele>
        <time>2019-03-26T19:19:05Z</time>
      </trkpt>
      <trkpt lat="43.290980" lon="-5.966510">
        <ele>509.693</ele>
        <time>2019-03-26T19:19:25Z</time>
      </trkpt>
      <trkpt lat="43.291310" lon="-5.965980">
        <ele>513.044</ele>
        <time>2019-03-26T19:19:45Z</time>
      </trkpt>
      <trkpt lat="43.291410" lon="-5.965720">
        <ele>513.753</ele>
        <time>2019-03-26T19:20:05Z</time>
      </trkpt>
      <trkpt lat="43.291640" lon="-5.965360">
        <ele>511.165</ele>
        <time>2019-03-26T19:20:25Z</time>
      </trkpt>
      <trkpt lat="43.291840" lon="-5.965200">
        <ele>508.833</ele>
        <time>2019-03-26T19:20:45Z</time>
      </trkpt>
      <trkpt lat="43.292485" lon="-5.964845">
        <ele>501.776</ele>
        <time>2019-03-26T19:21:05Z</time>
      </trkpt>
      <trkpt lat="43.293130" lon="-5.964490">
        <ele>496.988</ele>
        <time>2019-03-26T19:21:25Z</time>
      </trkpt>
      <trkpt lat="43.293380" lon="-5.964310">
        <ele>494.748</ele>
        <time>2019-03-26T19:21:45Z</time>
      </trkpt>
      <trkpt lat="43.293560" lon="-5.963980">
        <ele>491.261</ele>
        <time>2019-03-26T19:22:05Z</time>
      </trkpt>
      <trkpt lat="43.293660" lon="-5.963630">
        <ele>489.017</ele>
        <time>2019-03-26T19:22:25Z</time>
      </trkpt>
      <trkpt lat="43.293720" lon="-5.963200">
        <ele>485.508</ele>
        <time>2019-03-26T19:22:45Z</time>
      </trkpt>
      <trkpt lat="43.293730" lon="-5.962830">
        <ele>482.037</ele>
        <time>2019-03-26T19:23:05Z</time>
      </trkpt>
      <trkpt lat="43.293850" lon="-5.962320">
        <ele>478.698</ele>
        <time>2019-03-26T19:23:25Z</time>
      </trkpt>
      <trkpt lat="43.294090" lon="-5.961700">
        <ele>474.039</ele>
        <time>2019-03-26T19:23:45Z</time>
      </trkpt>
      <trkpt lat="43.294295" lon="-5.961010">
        <ele>468.478</ele>
        <time>2019-03-26T19:24:05Z</time>
      </trkpt>
      <trkpt lat="43.294500" lon="-5.960320">
        <ele>465.150</ele>
        <time>2019-03-26T19:24:25Z</time>
      </trkpt>
      <trkpt lat="43.294760" lon="-5.959595">
        <ele>457.388</ele>
        <time>2019-03-26T19:24:45Z</time>
      </trkpt>
      <trkpt lat="43.295020" lon="-5.958870">
        <ele>451.331</ele>
        <time>2019-03-26T19:25:05Z</time>
      </trkpt>
      <trkpt lat="43.295170" lon="-5.958180">
        <ele>445.873</ele>
        <time>2019-03-26T19:25:25Z</time>
      </trkpt>
      <trkpt lat="43.295310" lon="-5.957880">
        <ele>444.872</ele>
        <time>2019-03-26T19:25:45Z</time>
      </trkpt>
      <trkpt lat="43.295370" lon="-5.957700">
        <ele>443.313</ele>
        <time>2019-03-26T19:26:05Z</time>
      </trkpt>
      <trkpt lat="43.295570" lon="-5.957360">
        <ele>442.914</ele>
        <time>2019-03-26T19:26:25Z</time>
      </trkpt>
      <trkpt lat="43.295970" lon="-5.956870">
        <ele>442.108</ele>
        <time>2019-03-26T19:26:45Z</time>
      </trkpt>
      <trkpt lat="43.296370" lon="-5.956380">
        <ele>440.360</ele>
        <time>2019-03-26T19:27:05Z</time>
      </trkpt>
      <trkpt lat="43.296690" lon="-5.955910">
        <ele>437.671</ele>
        <time>2019-03-26T19:27:25Z</time>
      </trkpt>
      <trkpt lat="43.296850" lon="-5.955740">
        <ele>435.582</ele>
        <time>2019-03-26T19:27:45Z</time>
      </trkpt>
      <trkpt lat="43.297060" lon="-5.955630">
        <ele>434.151</ele>
        <time>2019-03-26T19:28:05Z</time>
      </trkpt>
      <trkpt lat="43.297210" lon="-5.955630">
        <ele>432.723</ele>
        <time>2019-03-26T19:28:25Z</time>
      </trkpt>
      <trkpt lat="43.297520" lon="-5.955560">
        <ele>431.711</ele>
        <time>2019-03-26T19:28:45Z</time>
      </trkpt>
      <trkpt lat="43.297850" lon="-5.955410">
        <ele>432.294</ele>
        <time>2019-03-26T19:29:05Z</time>
      </trkpt>
      <trkpt lat="43.298220" lon="-5.954990">
        <ele>434.236</ele>
        <time>2019-03-26T19:29:25Z</time>
      </trkpt>
      <trkpt lat="43.298350" lon="-5.954500">
        <ele>435.855</ele>
        <time>2019-03-26T19:29:45Z</time>
      </trkpt>
      <trkpt lat="43.298250" lon="-5.953980">
        <ele>437.107</ele>
        <time>2019-03-26T19:30:05Z</time>
      </trkpt>
      <trkpt lat="43.298240" lon="-5.953680">
        <ele>438.717</ele>
        <time>2019-03-26T19:30:25Z</time>
      </trkpt>
      <trkpt lat="43.298320" lon="-5.953280">
        <ele>439.708</ele>
        <time>2019-03-26T19:30:45Z</time>
      </trkpt>
      <trkpt lat="43.298520" lon="-5.952630">
        <ele>441.638</ele>
        <time>2019-03-26T19:31:05Z</time>
      </trkpt>
      <trkpt lat="43.298650" lon="-5.952130">
        <ele>441.519</ele>
        <time>2019-03-26T19:31:25Z</time>
      </trkpt>
      <trkpt lat="43.298860" lon="-5.951540">
        <ele>440.490</ele>
        <time>2019-03-26T19:31:45Z</time>
      </trkpt>
      <trkpt lat="43.299150" lon="-5.950940">
        <ele>439.069</ele>
        <time>2019-03-26T19:32:05Z</time>
      </trkpt>
      <trkpt lat="43.299410" lon="-5.950700">
        <ele>438.431</ele>
        <time>2019-03-26T19:32:25Z</time>
      </trkpt>
      <trkpt lat="43.299610" lon="-5.950470">
        <ele>438.029</ele>
        <time>2019-03-26T19:32:45Z</time>
      </trkpt>
      <trkpt lat="43.299690" lon="-5.950330">
        <ele>437.662</ele>
        <time>2019-03-26T19:33:05Z</time>
      </trkpt>
      <trkpt lat="43.299810" lon="-5.949860">
        <ele>437.044</ele>
        <time>2019-03-26T19:33:25Z</time>
      </trkpt>
      <trkpt lat="43.299870" lon="-5.949370">
        <ele>433.479</ele>
        <time>2019-03-26T19:33:45Z</time>
      </trkpt>
      <trkpt lat="43.299930" lon="-5.948190">
        <ele>424.305</ele>
        <time>2019-03-26T19:34:05Z</time>
      </trkpt>
      <trkpt lat="43.299995" lon="-5.947215">
        <ele>418.025</ele>
        <time>2019-03-26T19:34:25Z</time>
      </trkpt>
      <trkpt lat="43.300060" lon="-5.946240">
        <ele>413.008</ele>
        <time>2019-03-26T19:34:45Z</time>
      </trkpt>
      <trkpt lat="43.300045" lon="-5.945105">
        <ele>410.150</ele>
        <time>2019-03-26T19:35:05Z</time>
      </trkpt>
      <trkpt lat="43.300030" lon="-5.943970">
        <ele>406.211</ele>
        <time>2019-03-26T19:35:25Z</time>
      </trkpt>
      <trkpt lat="43.300040" lon="-5.943090">
        <ele>398.992</ele>
        <time>2019-03-26T19:35:45Z</time>
      </trkpt>
      <trkpt lat="43.300050" lon="-5.942210">
        <ele>394.631</ele>
        <time>2019-03-26T19:36:05Z</time>
      </trkpt>
      <trkpt lat="43.300015" lon="-5.941000">
        <ele>389.693</ele>
        <time>2019-03-26T19:36:25Z</time>
      </trkpt>
      <trkpt lat="43.299980" lon="-5.939790">
        <ele>386.471</ele>
        <time>2019-03-26T19:36:45Z</time>
      </trkpt>
      <trkpt lat="43.300030" lon="-5.939410">
        <ele>385.384</ele>
        <time>2019-03-26T19:37:05Z</time>
      </trkpt>
      <trkpt lat="43.300110" lon="-5.939130">
        <ele>384.126</ele>
        <time>2019-03-26T19:37:25Z</time>
      </trkpt>
      <trkpt lat="43.300280" lon="-5.938730">
        <ele>382.155</ele>
        <time>2019-03-26T19:37:45Z</time>
      </trkpt>
      <trkpt lat="43.300655" lon="-5.938120">
        <ele>381.307</ele>
        <time>2019-03-26T19:38:05Z</time>
      </trkpt>
      <trkpt lat="43.301030" lon="-5.937510">
        <ele>381.017</ele>
        <time>2019-03-26T19:38:25Z</time>
      </trkpt>
      <trkpt lat="43.301400" lon="-5.937010">
        <ele>376.808</ele>
        <time>2019-03-26T19:38:45Z</time>
      </trkpt>
      <trkpt lat="43.301770" lon="-5.936510">
        <ele>374.598</ele>
        <time>2019-03-26T19:39:05Z</time>
      </trkpt>
      <trkpt lat="43.302140" lon="-5.935760">
        <ele>372.319</ele>
        <time>2019-03-26T19:39:25Z</time>
      </trkpt>
      <trkpt lat="43.302200" lon="-5.935550">
        <ele>371.970</ele>
        <time>2019-03-26T19:39:45Z</time>
      </trkpt>
      <trkpt lat="43.302210" lon="-5.935010">
        <ele>370.389</ele>
        <time>2019-03-26T19:40:05Z</time>
      </trkpt>
      <trkpt lat="43.302230" lon="-5.934870">
        <ele>369.911</ele>
        <time>2019-03-26T19:40:25Z</time>
      </trkpt>
      <trkpt lat="43.302380" lon="-5.934740">
        <ele>369.469</ele>
        <time>2019-03-26T19:40:45Z</time>
      </trkpt>
      <trkpt lat="43.302900" lon="-5.934790">
        <ele>368.052</ele>
        <time>2019-03-26T19:41:05Z</time>
      </trkpt>
      <trkpt lat="43.303030" lon="-5.934770">
        <ele>366.664</ele>
        <time>2019-03-26T19:41:25Z</time>
      </trkpt>
      <trkpt lat="43.303140" lon="-5.934720">
        <ele>366.696</ele>
        <time>2019-03-26T19:41:45Z</time>
      </trkpt>
      <trkpt lat="43.303380" lon="-5.934490">
        <ele>365.331</ele>
        <time>2019-03-26T19:42:05Z</time>
      </trkpt>
      <trkpt lat="43.304050" lon="-5.934040">
        <ele>359.624</ele>
        <time>2019-03-26T19:42:25Z</time>
      </trkpt>
      <trkpt lat="43.304350" lon="-5.933760">
        <ele>357.208</ele>
        <time>2019-03-26T19:42:45Z</time>
      </trkpt>
      <trkpt lat="43.304550" lon="-5.933500">
        <ele>355.192</ele>
        <time>2019-03-26T19:43:05Z</time>
      </trkpt>
      <trkpt lat="43.304770" lon="-5.933010">
        <ele>352.333</ele>
        <time>2019-03-26T19:43:25Z</time>
      </trkpt>
      <trkpt lat="43.304980" lon="-5.932700">
        <ele>350.054</ele>
        <time>2019-03-26T19:43:45Z</time>
      </trkpt>
      <trkpt lat="43.305210" lon="-5.932230">
        <ele>345.823</ele>
        <time>2019-03-26T19:44:05Z</time>
      </trkpt>
      <trkpt lat="43.305540" lon="-5.931300">
        <ele>341.085</ele>
        <time>2019-03-26T19:44:25Z</time>
      </trkpt>
      <trkpt lat="43.305660" lon="-5.931010">
        <ele>339.143</ele>
        <time>2019-03-26T19:44:45Z</time>
      </trkpt>
      <trkpt lat="43.305850" lon="-5.930850">
        <ele>338.276</ele>
        <time>2019-03-26T19:45:05Z</time>
      </trkpt>
      <trkpt lat="43.305960" lon="-5.930670">
        <ele>335.798</ele>
        <time>2019-03-26T19:45:25Z</time>
      </trkpt>
      <trkpt lat="43.306050" lon="-5.930450">
        <ele>334.528</ele>
        <time>2019-03-26T19:45:45Z</time>
      </trkpt>
      <trkpt lat="43.306020" lon="-5.930220">
        <ele>330.789</ele>
        <time>2019-03-26T19:46:05Z</time>
      </trkpt>
      <trkpt lat="43.306030" lon="-5.929960">
        <ele>329.717</ele>
        <time>2019-03-26T19:46:25Z</time>
      </trkpt>
      <trkpt lat="43.306110" lon="-5.929630">
        <ele>324.108</ele>
        <time>2019-03-26T19:46:45Z</time>
      </trkpt>
      <trkpt lat="43.306540" lon="-5.928760">
        <ele>322.045</ele>
        <time>2019-03-26T19:47:05Z</time>
      </trkpt>
      <trkpt lat="43.307050" lon="-5.927830">
        <ele>319.726</ele>
        <time>2019-03-26T19:47:25Z</time>
      </trkpt>
      <trkpt lat="43.307500" lon="-5.927210">
        <ele>317.677</ele>
        <time>2019-03-26T19:47:45Z</time>
      </trkpt>
      <trkpt lat="43.308160" lon="-5.926570">
        <ele>311.936</ele>
        <time>2019-03-26T19:48:05Z</time>
      </trkpt>
      <trkpt lat="43.308820" lon="-5.925930">
        <ele>302.328</ele>
        <time>2019-03-26T19:48:25Z</time>
      </trkpt>
      <trkpt lat="43.309290" lon="-5.925570">
        <ele>296.166</ele>
        <time>2019-03-26T19:48:45Z</time>
      </trkpt>
      <trkpt lat="43.309550" lon="-5.925410">
        <ele>293.719</ele>
        <time>2019-03-26T19:49:05Z</time>
      </trkpt>
      <trkpt lat="43.309740" lon="-5.925360">
        <ele>291.951</ele>
        <time>2019-03-26T19:49:25Z</time>
      </trkpt>
      <trkpt lat="43.309900" lon="-5.925410">
        <ele>290.756</ele>
        <time>2019-03-26T19:49:45Z</time>
      </trkpt>
      <trkpt lat="43.310000" lon="-5.925480">
        <ele>289.959</ele>
        <time>2019-03-26T19:50:05Z</time>
      </trkpt>
      <trkpt lat="43.310090" lon="-5.925760">
        <ele>288.114</ele>
        <time>2019-03-26T19:50:25Z</time>
      </trkpt>
      <trkpt lat="43.310160" lon="-5.926110">
        <ele>285.208</ele>
        <time>2019-03-26T19:50:45Z</time>
      </trkpt>
      <trkpt lat="43.310480" lon="-5.926890">
        <ele>277.548</ele>
        <time>2019-03-26T19:51:05Z</time>
      </trkpt>
      <trkpt lat="43.310580" lon="-5.927400">
        <ele>274.839</ele>
        <time>2019-03-26T19:51:25Z</time>
      </trkpt>
      <trkpt lat="43.310720" lon="-5.927870">
        <ele>269.750</ele>
        <time>2019-03-26T19:51:45Z</time>
      </trkpt>
      <trkpt lat="43.310880" lon="-5.928130">
        <ele>262.899</ele>
        <time>2019-03-26T19:52:05Z</time>
      </trkpt>
      <trkpt lat="43.311040" lon="-5.928270">
        <ele>259.821</ele>
        <time>2019-03-26T19:52:25Z</time>
      </trkpt>
      <trkpt lat="43.311190" lon="-5.928320">
        <ele>257.359</ele>
        <time>2019-03-26T19:52:45Z</time>
      </trkpt>
      <trkpt lat="43.311320" lon="-5.928440">
        <ele>255.692</ele>
        <time>2019-03-26T19:53:05Z</time>
      </trkpt>
      <trkpt lat="43.311500" lon="-5.928670">
        <ele>252.254</ele>
        <time>2019-03-26T19:53:25Z</time>
      </trkpt>
      <trkpt lat="43.311590" lon="-5.928860">
        <ele>248.969</ele>
        <time>2019-03-26T19:53:45Z</time>
      </trkpt>
      <trkpt lat="43.311730" lon="-5.929020">
        <ele>246.604</ele>
        <time>2019-03-26T19:54:05Z</time>
      </trkpt>
      <trkpt lat="43.311900" lon="-5.929050">
        <ele>244.324</ele>
        <time>2019-03-26T19:54:25Z</time>
      </trkpt>
      <trkpt lat="43.312320" lon="-5.928670">
        <ele>236.308</ele>
        <time>2019-03-26T19:54:45Z</time>
      </trkpt>
      <trkpt lat="43.312480" lon="-5.928500">
        <ele>232.949</ele>
        <time>2019-03-26T19:55:05Z</time>
      </trkpt>
      <trkpt lat="43.312770" lon="-5.928110">
        <ele>227.570</ele>
        <time>2019-03-26T19:55:25Z</time>
      </trkpt>
      <trkpt lat="43.312970" lon="-5.928060">
        <ele>224.691</ele>
        <time>2019-03-26T19:55:45Z</time>
      </trkpt>
      <trkpt lat="43.313200" lon="-5.928090">
        <ele>221.670</ele>
        <time>2019-03-26T19:56:05Z</time>
      </trkpt>
      <trkpt lat="43.313440" lon="-5.928230">
        <ele>216.472</ele>
        <time>2019-03-26T19:56:25Z</time>
      </trkpt>
      <trkpt lat="43.313850" lon="-5.928320">
        <ele>212.880</ele>
        <time>2019-03-26T19:56:45Z</time>
      </trkpt>
      <trkpt lat="43.314140" lon="-5.928270">
        <ele>208.993</ele>
        <time>2019-03-26T19:57:05Z</time>
      </trkpt>
      <trkpt lat="43.314350" lon="-5.928090">
        <ele>206.565</ele>
        <time>2019-03-26T19:57:25Z</time>
      </trkpt>
      <trkpt lat="43.314730" lon="-5.927640">
        <ele>201.936</ele>
        <time>2019-03-26T19:57:45Z</time>
      </trkpt>
      <trkpt lat="43.314830" lon="-5.927410">
        <ele>200.217</ele>
        <time>2019-03-26T19:58:05Z</time>
      </trkpt>
      <trkpt lat="43.315000" lon="-5.927140">
        <ele>197.818</ele>
        <time>2019-03-26T19:58:25Z</time>
      </trkpt>
      <trkpt lat="43.315210" lon="-5.926870">
        <ele>195.208</ele>
        <time>2019-03-26T19:58:45Z</time>
      </trkpt>
      <trkpt lat="43.315670" lon="-5.926400">
        <ele>188.876</ele>
        <time>2019-03-26T19:59:05Z</time>
      </trkpt>
      <trkpt lat="43.316210" lon="-5.925500">
        <ele>176.417</ele>
        <time>2019-03-26T19:59:25Z</time>
      </trkpt>
      <trkpt lat="43.316300" lon="-5.925420">
        <ele>176.668</ele>
        <time>2019-03-26T19:59:45Z</time>
      </trkpt>
      <trkpt lat="43.316570" lon="-5.925650">
        <ele>176.497</ele>
        <time>2019-03-26T20:00:05Z</time>
      </trkpt>
      <trkpt lat="43.316780" lon="-5.925850">
        <ele>174.849</ele>
        <time>2019-03-26T20:00:25Z</time>
      </trkpt>
      <trkpt lat="43.316900" lon="-5.925990">
        <ele>173.477</ele>
        <time>2019-03-26T20:00:45Z</time>
      </trkpt>
      <trkpt lat="43.317020" lon="-5.926180">
        <ele>172.030</ele>
        <time>2019-03-26T20:01:05Z</time>
      </trkpt>
      <trkpt lat="43.317460" lon="-5.927210">
        <ele>157.522</ele>
        <time>2019-03-26T20:01:25Z</time>
      </trkpt>
      <trkpt lat="43.317560" lon="-5.927410">
        <ele>154.097</ele>
        <time>2019-03-26T20:01:45Z</time>
      </trkpt>
      <trkpt lat="43.317670" lon="-5.927540">
        <ele>154.023</ele>
        <time>2019-03-26T20:02:05Z</time>
      </trkpt>
      <trkpt lat="43.318090" lon="-5.927800">
        <ele>148.425</ele>
        <time>2019-03-26T20:02:25Z</time>
      </trkpt>
      <trkpt lat="43.318220" lon="-5.927900">
        <ele>147.108</ele>
        <time>2019-03-26T20:02:45Z</time>
      </trkpt>
      <trkpt lat="43.318550" lon="-5.928410">
        <ele>142.562</ele>
        <time>2019-03-26T20:03:05Z</time>
      </trkpt>
      <trkpt lat="43.318620" lon="-5.928510">
        <ele>141.423</ele>
        <time>2019-03-26T20:03:25Z</time>
      </trkpt>
      <trkpt lat="43.318630" lon="-5.927970">
        <ele>138.864</ele>
        <time>2019-03-26T20:03:45Z</time>
      </trkpt>
      <trkpt lat="43.318540" lon="-5.927690">
        <ele>138.323</ele>
        <time>2019-03-26T20:04:05Z</time>
      </trkpt>
      <trkpt lat="43.318490" lon="-5.926840">
        <ele>135.365</ele>
        <time>2019-03-26T20:04:25Z</time>
      </trkpt>
      <trkpt lat="43.318610" lon="-5.925880">
        <ele>128.473</ele>
        <time>2019-03-26T20:04:45Z</time>
      </trkpt>
      <trkpt lat="43.318610" lon="-5.925710">
        <ele>128.146</ele>
        <time>2019-03-26T20:05:05Z</time>
      </trkpt>
      <trkpt lat="43.318480" lon="-5.925070">
        <ele>127.558</ele>
        <time>2019-03-26T20:05:25Z</time>
      </trkpt>
      <trkpt lat="43.318390" lon="-5.924870">
        <ele>125.992</ele>
        <time>2019-03-26T20:05:45Z</time>
      </trkpt>
      <trkpt lat="43.318420" lon="-5.924840">
        <ele>125.973</ele>
        <time>2019-03-26T20:06:05Z</time>
      </trkpt>
      <trkpt lat="43.318490" lon="-5.925060">
        <ele>124.320</ele>
        <time>2019-03-26T20:06:25Z</time>
      </trkpt>
      <trkpt lat="43.318640" lon="-5.924950">
        <ele>122.908</ele>
        <time>2019-03-26T20:06:45Z</time>
      </trkpt>
      <trkpt lat="43.318510" lon="-5.924335">
        <ele>124.752</ele>
        <time>2019-03-26T20:07:05Z</time>
      </trkpt>
      <trkpt lat="43.318380" lon="-5.923720">
        <ele>125.543</ele>
        <time>2019-03-26T20:07:25Z</time>
      </trkpt>
      <trkpt lat="43.318280" lon="-5.923110">
        <ele>122.314</ele>
        <time>2019-03-26T20:07:45Z</time>
      </trkpt>
      <trkpt lat="43.318340" lon="-5.922560">
        <ele>118.583</ele>
        <time>2019-03-26T20:08:05Z</time>
      </trkpt>
      <trkpt lat="43.318450" lon="-5.922220">
        <ele>114.325</ele>
        <time>2019-03-26T20:08:25Z</time>
      </trkpt>
      <trkpt lat="43.318670" lon="-5.921780">
        <ele>126.433</ele>
        <time>2019-03-26T20:08:45Z</time>
      </trkpt>
      <trkpt lat="43.318960" lon="-5.921290">
        <ele>114.526</ele>
        <time>2019-03-26T20:09:05Z</time>
      </trkpt>
      <trkpt lat="43.319250" lon="-5.920800">
        <ele>101.098</ele>
        <time>2019-03-26T20:09:25Z</time>
      </trkpt>
      <trkpt lat="43.319500" lon="-5.920500">
        <ele>104.796</ele>
        <time>2019-03-26T20:09:45Z</time>
      </trkpt>
      <trkpt lat="43.319790" lon="-5.920270">
        <ele>107.731</ele>
        <time>2019-03-26T20:10:05Z</time>
      </trkpt>
      <trkpt lat="43.320563" lon="-5.920000">
        <ele>114.624</ele>
        <time>2019-03-26T20:10:25Z</time>
      </trkpt>
      <trkpt lat="43.321335" lon="-5.919730">
        <ele>121.308</ele>
        <time>2019-03-26T20:10:45Z</time>
      </trkpt>
      <trkpt lat="43.322108" lon="-5.919460">
        <ele>126.892</ele>
        <time>2019-03-26T20:11:05Z</time>
      </trkpt>
      <trkpt lat="43.322880" lon="-5.919190">
        <ele>134.513</ele>
        <time>2019-03-26T20:11:25Z</time>
      </trkpt>
      <trkpt lat="43.323300" lon="-5.918950">
        <ele>138.354</ele>
        <time>2019-03-26T20:11:45Z</time>
      </trkpt>
      <trkpt lat="43.323660" lon="-5.918560">
        <ele>141.363</ele>
        <time>2019-03-26T20:12:05Z</time>
      </trkpt>
      <trkpt lat="43.323950" lon="-5.918160">
        <ele>143.955</ele>
        <time>2019-03-26T20:12:25Z</time>
      </trkpt>
      <trkpt lat="43.324150" lon="-5.917670">
        <ele>146.263</ele>
        <time>2019-03-26T20:12:45Z</time>
      </trkpt>
      <trkpt lat="43.324270" lon="-5.917100">
        <ele>148.586</ele>
        <time>2019-03-26T20:13:05Z</time>
      </trkpt>
      <trkpt lat="43.324390" lon="-5.916000">
        <ele>152.188</ele>
        <time>2019-03-26T20:13:25Z</time>
      </trkpt>
      <trkpt lat="43.324380" lon="-5.915005">
        <ele>151.099</ele>
        <time>2019-03-26T20:13:45Z</time>
      </trkpt>
      <trkpt lat="43.324370" lon="-5.914010">
        <ele>149.907</ele>
        <time>2019-03-26T20:14:05Z</time>
      </trkpt>
      <trkpt lat="43.324694" lon="-5.913100">
        <ele>149.727</ele>
        <time>2019-03-26T20:14:25Z</time>
      </trkpt>
      <trkpt lat="43.325018" lon="-5.912190">
        <ele>148.108</ele>
        <time>2019-03-26T20:14:45Z</time>
      </trkpt>
      <trkpt lat="43.325342" lon="-5.911280">
        <ele>146.812</ele>
        <time>2019-03-26T20:15:05Z</time>
      </trkpt>
      <trkpt lat="43.325666" lon="-5.910370">
        <ele>145.873</ele>
        <time>2019-03-26T20:15:25Z</time>
      </trkpt>
      <trkpt lat="43.325990" lon="-5.909460">
        <ele>143.484</ele>
        <time>2019-03-26T20:15:45Z</time>
      </trkpt>
      <trkpt lat="43.326050" lon="-5.908570">
        <ele>145.853</ele>
        <time>2019-03-26T20:16:05Z</time>
      </trkpt>
      <trkpt lat="43.326110" lon="-5.907680">
        <ele>151.315</ele>
        <time>2019-03-26T20:16:25Z</time>
      </trkpt>
      <trkpt lat="43.326170" lon="-5.906790">
        <ele>156.083</ele>
        <time>2019-03-26T20:16:45Z</time>
      </trkpt>
      <trkpt lat="43.326197" lon="-5.905897">
        <ele>160.076</ele>
        <time>2019-03-26T20:17:05Z</time>
      </trkpt>
      <trkpt lat="43.326223" lon="-5.905003">
        <ele>165.758</ele>
        <time>2019-03-26T20:17:25Z</time>
      </trkpt>
      <trkpt lat="43.326250" lon="-5.904110">
        <ele>167.589</ele>
        <time>2019-03-26T20:17:45Z</time>
      </trkpt>
      <trkpt lat="43.326270" lon="-5.903107">
        <ele>168.006</ele>
        <time>2019-03-26T20:18:05Z</time>
      </trkpt>
      <trkpt lat="43.326290" lon="-5.902103">
        <ele>166.826</ele>
        <time>2019-03-26T20:18:25Z</time>
      </trkpt>
      <trkpt lat="43.326310" lon="-5.901100">
        <ele>167.408</ele>
        <time>2019-03-26T20:18:45Z</time>
      </trkpt>
      <trkpt lat="43.326250" lon="-5.900590">
        <ele>167.161</ele>
        <time>2019-03-26T20:19:05Z</time>
      </trkpt>
      <trkpt lat="43.326055" lon="-5.899660">
        <ele>166.572</ele>
        <time>2019-03-26T20:19:25Z</time>
      </trkpt>
      <trkpt lat="43.325860" lon="-5.898730">
        <ele>166.963</ele>
        <time>2019-03-26T20:19:45Z</time>
      </trkpt>
      <trkpt lat="43.325780" lon="-5.897790">
        <ele>167.062</ele>
        <time>2019-03-26T20:20:05Z</time>
      </trkpt>
      <trkpt lat="43.325810" lon="-5.896860">
        <ele>166.594</ele>
        <time>2019-03-26T20:20:25Z</time>
      </trkpt>
      <trkpt lat="43.325980" lon="-5.895840">
        <ele>167.042</ele>
        <time>2019-03-26T20:20:45Z</time>
      </trkpt>
      <trkpt lat="43.326185" lon="-5.895280">
        <ele>166.295</ele>
        <time>2019-03-26T20:21:05Z</time>
      </trkpt>
      <trkpt lat="43.326390" lon="-5.894720">
        <ele>165.867</ele>
        <time>2019-03-26T20:21:25Z</time>
      </trkpt>
      <trkpt lat="43.326700" lon="-5.893850">
        <ele>165.458</ele>
        <time>2019-03-26T20:21:45Z</time>
      </trkpt>
      <trkpt lat="43.327120" lon="-5.892853">
        <ele>166.852</ele>
        <time>2019-03-26T20:22:05Z</time>
      </trkpt>
      <trkpt lat="43.327540" lon="-5.891857">
        <ele>168.017</ele>
        <time>2019-03-26T20:22:25Z</time>
      </trkpt>
      <trkpt lat="43.327960" lon="-5.890860">
        <ele>168.808</ele>
        <time>2019-03-26T20:22:45Z</time>
      </trkpt>
      <trkpt lat="43.328380" lon="-5.889863">
        <ele>170.028</ele>
        <time>2019-03-26T20:23:05Z</time>
      </trkpt>
      <trkpt lat="43.328800" lon="-5.888867">
        <ele>171.099</ele>
        <time>2019-03-26T20:23:25Z</time>
      </trkpt>
      <trkpt lat="43.329220" lon="-5.887870">
        <ele>172.450</ele>
        <time>2019-03-26T20:23:45Z</time>
      </trkpt>
      <trkpt lat="43.329550" lon="-5.886890">
        <ele>173.839</ele>
        <time>2019-03-26T20:24:05Z</time>
      </trkpt>
      <trkpt lat="43.329690" lon="-5.886320">
        <ele>174.411</ele>
        <time>2019-03-26T20:24:25Z</time>
      </trkpt>
      <trkpt lat="43.329805" lon="-5.885645">
        <ele>175.439</ele>
        <time>2019-03-26T20:24:45Z</time>
      </trkpt>
      <trkpt lat="43.329920" lon="-5.884970">
        <ele>175.442</ele>
        <time>2019-03-26T20:25:05Z</time>
      </trkpt>
      <trkpt lat="43.329940" lon="-5.884005">
        <ele>176.674</ele>
        <time>2019-03-26T20:25:25Z</time>
      </trkpt>
      <trkpt lat="43.329960" lon="-5.883040">
        <ele>177.361</ele>
        <time>2019-03-26T20:25:45Z</time>
      </trkpt>
      <trkpt lat="43.329838" lon="-5.881900">
        <ele>179.021</ele>
        <time>2019-03-26T20:26:05Z</time>
      </trkpt>
      <trkpt lat="43.329716" lon="-5.880760">
        <ele>179.813</ele>
        <time>2019-03-26T20:26:25Z</time>
      </trkpt>
      <trkpt lat="43.329594" lon="-5.879620">
        <ele>181.308</ele>
        <time>2019-03-26T20:26:45Z</time>
      </trkpt>
      <trkpt lat="43.329472" lon="-5.878480">
        <ele>182.369</ele>
        <time>2019-03-26T20:27:05Z</time>
      </trkpt>
      <trkpt lat="43.329350" lon="-5.877340">
        <ele>183.340</ele>
        <time>2019-03-26T20:27:25Z</time>
      </trkpt>
      <trkpt lat="43.329340" lon="-5.876510">
        <ele>184.171</ele>
        <time>2019-03-26T20:27:45Z</time>
      </trkpt>
      <trkpt lat="43.329370" lon="-5.876140">
        <ele>184.620</ele>
        <time>2019-03-26T20:28:05Z</time>
      </trkpt>
      <trkpt lat="43.329450" lon="-5.875740">
        <ele>185.392</ele>
        <time>2019-03-26T20:28:25Z</time>
      </trkpt>
      <trkpt lat="43.329500" lon="-5.875320">
        <ele>185.530</ele>
        <time>2019-03-26T20:28:45Z</time>
      </trkpt>
      <trkpt lat="43.329705" lon="-5.874590">
        <ele>186.223</ele>
        <time>2019-03-26T20:29:05Z</time>
      </trkpt>
      <trkpt lat="43.329910" lon="-5.873860">
        <ele>186.975</ele>
        <time>2019-03-26T20:29:25Z</time>
      </trkpt>
      <trkpt lat="43.330300" lon="-5.872765">
        <ele>188.741</ele>
        <time>2019-03-26T20:29:45Z</time>
      </trkpt>
      <trkpt lat="43.330690" lon="-5.871670">
        <ele>189.581</ele>
        <time>2019-03-26T20:30:05Z</time>
      </trkpt>
      <trkpt lat="43.331080" lon="-5.870575">
        <ele>190.209</ele>
        <time>2019-03-26T20:30:25Z</time>
      </trkpt>
      <trkpt lat="43.331470" lon="-5.869480">
        <ele>187.008</ele>
        <time>2019-03-26T20:30:45Z</time>
      </trkpt>
      <trkpt lat="43.331600" lon="-5.869240">
        <ele>188.197</ele>
        <time>2019-03-26T20:31:05Z</time>
      </trkpt>
      <trkpt lat="43.331910" lon="-5.868820">
        <ele>189.168</ele>
        <time>2019-03-26T20:31:25Z</time>
      </trkpt>
      <trkpt lat="43.332290" lon="-5.868540">
        <ele>190.649</ele>
        <time>2019-03-26T20:31:45Z</time>
      </trkpt>
      <trkpt lat="43.332790" lon="-5.868330">
        <ele>192.188</ele>
        <time>2019-03-26T20:32:05Z</time>
      </trkpt>
      <trkpt lat="43.333350" lon="-5.868310">
        <ele>192.810</ele>
        <time>2019-03-26T20:32:25Z</time>
      </trkpt>
      <trkpt lat="43.334107" lon="-5.868387">
        <ele>194.228</ele>
        <time>2019-03-26T20:32:45Z</time>
      </trkpt>
      <trkpt lat="43.334863" lon="-5.868463">
        <ele>195.991</ele>
        <time>2019-03-26T20:33:05Z</time>
      </trkpt>
      <trkpt lat="43.335620" lon="-5.868540">
        <ele>196.293</ele>
        <time>2019-03-26T20:33:25Z</time>
      </trkpt>
      <trkpt lat="43.336440" lon="-5.868500">
        <ele>196.861</ele>
        <time>2019-03-26T20:33:45Z</time>
      </trkpt>
      <trkpt lat="43.336900" lon="-5.868370">
        <ele>196.221</ele>
        <time>2019-03-26T20:34:05Z</time>
      </trkpt>
      <trkpt lat="43.337370" lon="-5.868130">
        <ele>198.613</ele>
        <time>2019-03-26T20:34:25Z</time>
      </trkpt>
      <trkpt lat="43.337840" lon="-5.867890">
        <ele>198.708</ele>
        <time>2019-03-26T20:34:45Z</time>
      </trkpt>
      <trkpt lat="43.338477" lon="-5.867583">
        <ele>199.679</ele>
        <time>2019-03-26T20:35:05Z</time>
      </trkpt>
      <trkpt lat="43.339113" lon="-5.867277">
        <ele>200.340</ele>
        <time>2019-03-26T20:35:25Z</time>
      </trkpt>
      <trkpt lat="43.339750" lon="-5.866970">
        <ele>199.751</ele>
        <time>2019-03-26T20:35:45Z</time>
      </trkpt>
      <trkpt lat="43.340195" lon="-5.866640">
        <ele>200.690</ele>
        <time>2019-03-26T20:36:05Z</time>
      </trkpt>
      <trkpt lat="43.340640" lon="-5.866310">
        <ele>200.642</ele>
        <time>2019-03-26T20:36:25Z</time>
      </trkpt>
      <trkpt lat="43.341020" lon="-5.865785">
        <ele>202.490</ele>
        <time>2019-03-26T20:36:45Z</time>
      </trkpt>
      <trkpt lat="43.341400" lon="-5.865260">
        <ele>204.173</ele>
        <time>2019-03-26T20:37:05Z</time>
      </trkpt>
      <trkpt lat="43.341675" lon="-5.864755">
        <ele>204.245</ele>
        <time>2019-03-26T20:37:25Z</time>
      </trkpt>
      <trkpt lat="43.341950" lon="-5.864250">
        <ele>204.698</ele>
        <time>2019-03-26T20:37:45Z</time>
      </trkpt>
      <trkpt lat="43.342235" lon="-5.863390">
        <ele>205.815</ele>
        <time>2019-03-26T20:38:05Z</time>
      </trkpt>
      <trkpt lat="43.342520" lon="-5.862530">
        <ele>205.826</ele>
        <time>2019-03-26T20:38:25Z</time>
      </trkpt>
      <trkpt lat="43.342880" lon="-5.861850">
        <ele>205.808</ele>
        <time>2019-03-26T20:38:45Z</time>
      </trkpt>
      <trkpt lat="43.343465" lon="-5.861370">
        <ele>206.242</ele>
        <time>2019-03-26T20:39:05Z</time>
      </trkpt>
      <trkpt lat="43.344050" lon="-5.860890">
        <ele>206.853</ele>
        <time>2019-03-26T20:39:25Z</time>
      </trkpt>
      <trkpt lat="43.344505" lon="-5.860325">
        <ele>207.794</ele>
        <time>2019-03-26T20:39:45Z</time>
      </trkpt>
      <trkpt lat="43.344960" lon="-5.859760">
        <ele>208.943</ele>
        <time>2019-03-26T20:40:05Z</time>
      </trkpt>
      <trkpt lat="43.345320" lon="-5.858990">
        <ele>209.865</ele>
        <time>2019-03-26T20:40:25Z</time>
      </trkpt>
      <trkpt lat="43.345680" lon="-5.858220">
        <ele>210.563</ele>
        <time>2019-03-26T20:40:45Z</time>
      </trkpt>
      <trkpt lat="43.345670" lon="-5.858220">
        <ele>210.576</ele>
        <time>2019-03-26T20:41:05Z</time>
      </trkpt>
      <trkpt lat="43.346060" lon="-5.857770">
        <ele>211.638</ele>
        <time>2019-03-26T20:41:25Z</time>
      </trkpt>
      <trkpt lat="43.346810" lon="-5.857320">
        <ele>211.956</ele>
        <time>2019-03-26T20:41:45Z</time>
      </trkpt>
      <trkpt lat="43.347300" lon="-5.857140">
        <ele>212.659</ele>
        <time>2019-03-26T20:42:05Z</time>
      </trkpt>
      <trkpt lat="43.347610" lon="-5.856960">
        <ele>213.814</ele>
        <time>2019-03-26T20:42:25Z</time>
      </trkpt>
      <trkpt lat="43.348040" lon="-5.856730">
        <ele>211.908</ele>
        <time>2019-03-26T20:42:45Z</time>
      </trkpt>
      <trkpt lat="43.348420" lon="-5.856440">
        <ele>211.078</ele>
        <time>2019-03-26T20:43:05Z</time>
      </trkpt>
      <trkpt lat="43.348940" lon="-5.855900">
        <ele>208.759</ele>
        <time>2019-03-26T20:43:25Z</time>
      </trkpt>
      <trkpt lat="43.349240" lon="-5.855540">
        <ele>208.040</ele>
        <time>2019-03-26T20:43:45Z</time>
      </trkpt>
      <trkpt lat="43.349570" lon="-5.854960">
        <ele>209.479</ele>
        <time>2019-03-26T20:44:05Z</time>
      </trkpt>
      <trkpt lat="43.349710" lon="-5.854670">
        <ele>209.661</ele>
        <time>2019-03-26T20:44:25Z</time>
      </trkpt>
      <trkpt lat="43.349970" lon="-5.853990">
        <ele>210.819</ele>
        <time>2019-03-26T20:44:45Z</time>
      </trkpt>
      <trkpt lat="43.350250" lon="-5.852980">
        <ele>216.592</ele>
        <time>2019-03-26T20:45:05Z</time>
      </trkpt>
      <trkpt lat="43.350280" lon="-5.852900">
        <ele>217.894</ele>
        <time>2019-03-26T20:45:25Z</time>
      </trkpt>
      <trkpt lat="43.350560" lon="-5.853460">
        <ele>218.652</ele>
        <time>2019-03-26T20:45:45Z</time>
      </trkpt>
      <trkpt lat="43.350580" lon="-5.853590">
        <ele>218.653</ele>
        <time>2019-03-26T20:46:05Z</time>
      </trkpt>
      <trkpt lat="43.350540" lon="-5.853880">
        <ele>218.708</ele>
        <time>2019-03-26T20:46:25Z</time>
      </trkpt>
      <trkpt lat="43.350550" lon="-5.853980">
        <ele>218.708</ele>
        <time>2019-03-26T20:46:45Z</time>
      </trkpt>
      <trkpt lat="43.350610" lon="-5.854110">
        <ele>219.628</ele>
        <time>2019-03-26T20:47:05Z</time>
      </trkpt>
      <trkpt lat="43.350920" lon="-5.854390">
        <ele>224.139</ele>
        <time>2019-03-26T20:47:25Z</time>
      </trkpt>
      <trkpt lat="43.351000" lon="-5.854390">
        <ele>225.670</ele>
        <time>2019-03-26T20:47:45Z</time>
      </trkpt>
      <trkpt lat="43.351080" lon="-5.854350">
        <ele>225.699</ele>
        <time>2019-03-26T20:48:05Z</time>
      </trkpt>
      <trkpt lat="43.351340" lon="-5.854130">
        <ele>228.051</ele>
        <time>2019-03-26T20:48:25Z</time>
      </trkpt>
      <trkpt lat="43.351510" lon="-5.853670">
        <ele>231.229</ele>
        <time>2019-03-26T20:48:45Z</time>
      </trkpt>
      <trkpt lat="43.351760" lon="-5.853470">
        <ele>234.362</ele>
        <time>2019-03-26T20:49:05Z</time>
      </trkpt>
      <trkpt lat="43.352220" lon="-5.853360">
        <ele>237.034</ele>
        <time>2019-03-26T20:49:25Z</time>
      </trkpt>
      <trkpt lat="43.352480" lon="-5.853240">
        <ele>241.875</ele>
        <time>2019-03-26T20:49:45Z</time>
      </trkpt>
      <trkpt lat="43.352560" lon="-5.853150">
        <ele>243.228</ele>
        <time>2019-03-26T20:50:05Z</time>
      </trkpt>
      <trkpt lat="43.352830" lon="-5.852750">
        <ele>246.720</ele>
        <time>2019-03-26T20:50:25Z</time>
      </trkpt>
      <trkpt lat="43.352930" lon="-5.852700">
        <ele>247.208</ele>
        <time>2019-03-26T20:50:45Z</time>
      </trkpt>
      <trkpt lat="43.353040" lon="-5.852600">
        <ele>248.520</ele>
        <time>2019-03-26T20:51:05Z</time>
      </trkpt>
      <trkpt lat="43.352990" lon="-5.852350">
        <ele>247.651</ele>
        <time>2019-03-26T20:51:25Z</time>
      </trkpt>
      <trkpt lat="43.352940" lon="-5.851890">
        <ele>247.282</ele>
        <time>2019-03-26T20:51:45Z</time>
      </trkpt>
      <trkpt lat="43.352930" lon="-5.851390">
        <ele>245.931</ele>
        <time>2019-03-26T20:52:05Z</time>
      </trkpt>
      <trkpt lat="43.352990" lon="-5.850730">
        <ele>243.483</ele>
        <time>2019-03-26T20:52:25Z</time>
      </trkpt>
      <trkpt lat="43.353050" lon="-5.850360">
        <ele>242.711</ele>
        <time>2019-03-26T20:52:45Z</time>
      </trkpt>
      <trkpt lat="43.353387" lon="-5.849257">
        <ele>243.364</ele>
        <time>2019-03-26T20:53:05Z</time>
      </trkpt>
      <trkpt lat="43.353723" lon="-5.848153">
        <ele>245.176</ele>
        <time>2019-03-26T20:53:25Z</time>
      </trkpt>
      <trkpt lat="43.354060" lon="-5.847050">
        <ele>252.097</ele>
        <time>2019-03-26T20:53:45Z</time>
      </trkpt>
      <trkpt lat="43.354230" lon="-5.846720">
        <ele>254.123</ele>
        <time>2019-03-26T20:54:05Z</time>
      </trkpt>
      <trkpt lat="43.354390" lon="-5.846560">
        <ele>254.925</ele>
        <time>2019-03-26T20:54:25Z</time>
      </trkpt>
      <trkpt lat="43.354620" lon="-5.846460">
        <ele>258.108</ele>
        <time>2019-03-26T20:54:45Z</time>
      </trkpt>
      <trkpt lat="43.354700" lon="-5.846380">
        <ele>258.182</ele>
        <time>2019-03-26T20:55:05Z</time>
      </trkpt>
      <trkpt lat="43.354730" lon="-5.846310">
        <ele>258.053</ele>
        <time>2019-03-26T20:55:25Z</time>
      </trkpt>
      <trkpt lat="43.354540" lon="-5.845530">
        <ele>255.054</ele>
        <time>2019-03-26T20:55:45Z</time>
      </trkpt>
      <trkpt lat="43.354480" lon="-5.845220">
        <ele>254.873</ele>
        <time>2019-03-26T20:56:05Z</time>
      </trkpt>
      <trkpt lat="43.354450" lon="-5.844920">
        <ele>254.425</ele>
        <time>2019-03-26T20:56:25Z</time>
      </trkpt>
      <trkpt lat="43.354440" lon="-5.844140">
        <ele>251.973</ele>
        <time>2019-03-26T20:56:45Z</time>
      </trkpt>
      <trkpt lat="43.354400" lon="-5.843990">
        <ele>251.936</ele>
        <time>2019-03-26T20:57:05Z</time>
      </trkpt>
      <trkpt lat="43.354310" lon="-5.843880">
        <ele>251.588</ele>
        <time>2019-03-26T20:57:25Z</time>
      </trkpt>
      <trkpt lat="43.354300" lon="-5.843740">
        <ele>250.815</ele>
        <time>2019-03-26T20:57:45Z</time>
      </trkpt>
      <trkpt lat="43.354350" lon="-5.843630">
        <ele>250.865</ele>
        <time>2019-03-26T20:58:05Z</time>
      </trkpt>
      <trkpt lat="43.354400" lon="-5.843590">
        <ele>250.911</ele>
        <time>2019-03-26T20:58:25Z</time>
      </trkpt>
      <trkpt lat="43.354440" lon="-5.843410">
        <ele>250.508</ele>
        <time>2019-03-26T20:58:45Z</time>
      </trkpt>
      <trkpt lat="43.354470" lon="-5.842550">
        <ele>247.324</ele>
        <time>2019-03-26T20:59:05Z</time>
      </trkpt>
      <trkpt lat="43.354550" lon="-5.841860">
        <ele>244.535</ele>
        <time>2019-03-26T20:59:25Z</time>
      </trkpt>
      <trkpt lat="43.354630" lon="-5.841580">
        <ele>245.236</ele>
        <time>2019-03-26T20:59:45Z</time>
      </trkpt>
      <trkpt lat="43.354830" lon="-5.841090">
        <ele>246.215</ele>
        <time>2019-03-26T21:00:05Z</time>
      </trkpt>
      <trkpt lat="43.354940" lon="-5.840880">
        <ele>247.397</ele>
        <time>2019-03-26T21:00:25Z</time>
      </trkpt>
      <trkpt lat="43.355160" lon="-5.840550">
        <ele>250.325</ele>
        <time>2019-03-26T21:00:45Z</time>
      </trkpt>
      <trkpt lat="43.355410" lon="-5.840260">
        <ele>251.968</ele>
        <time>2019-03-26T21:01:05Z</time>
      </trkpt>
      <trkpt lat="43.356100" lon="-5.839600">
        <ele>238.440</ele>
        <time>2019-03-26T21:01:25Z</time>
      </trkpt>
      <trkpt lat="43.356790" lon="-5.838940">
        <ele>224.035</ele>
        <time>2019-03-26T21:01:45Z</time>
      </trkpt>
      <trkpt lat="43.357390" lon="-5.838410">
        <ele>214.986</ele>
        <time>2019-03-26T21:02:05Z</time>
      </trkpt>
      <trkpt lat="43.357660" lon="-5.838250">
        <ele>211.514</ele>
        <time>2019-03-26T21:02:25Z</time>
      </trkpt>
      <trkpt lat="43.357890" lon="-5.838160">
        <ele>209.808</ele>
        <time>2019-03-26T21:02:45Z</time>
      </trkpt>
      <trkpt lat="43.358320" lon="-5.838070">
        <ele>204.736</ele>
        <time>2019-03-26T21:03:05Z</time>
      </trkpt>
      <trkpt lat="43.359140" lon="-5.838130">
        <ele>201.877</ele>
        <time>2019-03-26T21:03:25Z</time>
      </trkpt>
      <trkpt lat="43.359280" lon="-5.838120">
        <ele>199.838</ele>
        <time>2019-03-26T21:03:45Z</time>
      </trkpt>
      <trkpt lat="43.359320" lon="-5.838050">
        <ele>199.547</ele>
        <time>2019-03-26T21:04:05Z</time>
      </trkpt>
      <trkpt lat="43.359400" lon="-5.837990">
        <ele>199.579</ele>
        <time>2019-03-26T21:04:25Z</time>
      </trkpt>
      <trkpt lat="43.359490" lon="-5.837950">
        <ele>199.627</ele>
        <time>2019-03-26T21:04:45Z</time>
      </trkpt>
      <trkpt lat="43.359640" lon="-5.837940">
        <ele>199.660</ele>
        <time>2019-03-26T21:05:05Z</time>
      </trkpt>
      <trkpt lat="43.359930" lon="-5.838040">
        <ele>199.282</ele>
        <time>2019-03-26T21:05:25Z</time>
      </trkpt>
      <trkpt lat="43.360440" lon="-5.838350">
        <ele>198.121</ele>
        <time>2019-03-26T21:05:45Z</time>
      </trkpt>
      <trkpt lat="43.360810" lon="-5.838510">
        <ele>197.241</ele>
        <time>2019-03-26T21:06:05Z</time>
      </trkpt>
      <trkpt lat="43.360910" lon="-5.838530">
        <ele>196.805</ele>
        <time>2019-03-26T21:06:25Z</time>
      </trkpt>
      <trkpt lat="43.361310" lon="-5.838580">
        <ele>197.408</ele>
        <time>2019-03-26T21:06:45Z</time>
      </trkpt>
      <trkpt lat="43.361460" lon="-5.838630">
        <ele>198.235</ele>
        <time>2019-03-26T21:07:05Z</time>
      </trkpt>
      <trkpt lat="43.362310" lon="-5.838630">
        <ele>202.246</ele>
        <time>2019-03-26T21:07:25Z</time>
      </trkpt>
      <trkpt lat="43.362790" lon="-5.838660">
        <ele>203.237</ele>
        <time>2019-03-26T21:07:45Z</time>
      </trkpt>
      <trkpt lat="43.363320" lon="-5.838790">
        <ele>203.216</ele>
        <time>2019-03-26T21:08:05Z</time>
      </trkpt>
      <trkpt lat="43.363910" lon="-5.838980">
        <ele>203.078</ele>
        <time>2019-03-26T21:08:25Z</time>
      </trkpt>
      <trkpt lat="43.364157" lon="-5.837898">
        <ele>200.126</ele>
        <time>2019-03-26T21:08:45Z</time>
      </trkpt>
      <trkpt lat="43.364403" lon="-5.836817">
        <ele>197.299</ele>
        <time>2019-03-26T21:09:05Z</time>
      </trkpt>
      <trkpt lat="43.364650" lon="-5.835735">
        <ele>191.351</ele>
        <time>2019-03-26T21:09:25Z</time>
      </trkpt>
      <trkpt lat="43.364897" lon="-5.834653">
        <ele>187.315</ele>
        <time>2019-03-26T21:09:45Z</time>
      </trkpt>
      <trkpt lat="43.365143" lon="-5.833572">
        <ele>183.565</ele>
        <time>2019-03-26T21:10:05Z</time>
      </trkpt>
      <trkpt lat="43.365390" lon="-5.832490">
        <ele>188.611</ele>
        <time>2019-03-26T21:10:25Z</time>
      </trkpt>
      <trkpt lat="43.365663" lon="-5.831627">
        <ele>189.108</ele>
        <time>2019-03-26T21:10:45Z</time>
      </trkpt>
      <trkpt lat="43.365937" lon="-5.830763">
        <ele>183.084</ele>
        <time>2019-03-26T21:11:05Z</time>
      </trkpt>
      <trkpt lat="43.366210" lon="-5.829900">
        <ele>180.555</ele>
        <time>2019-03-26T21:11:25Z</time>
      </trkpt>
      <trkpt lat="43.366553" lon="-5.828847">
        <ele>181.376</ele>
        <time>2019-03-26T21:11:45Z</time>
      </trkpt>
      <trkpt lat="43.366897" lon="-5.827793">
        <ele>181.925</ele>
        <time>2019-03-26T21:12:05Z</time>
      </trkpt>
      <trkpt lat="43.367240" lon="-5.826740">
        <ele>180.747</ele>
        <time>2019-03-26T21:12:25Z</time>
      </trkpt>
      <trkpt lat="43.367495" lon="-5.825965">
        <ele>179.835</ele>
        <time>2019-03-26T21:12:45Z</time>
      </trkpt>
      <trkpt lat="43.367750" lon="-5.825190">
        <ele>178.438</ele>
        <time>2019-03-26T21:13:05Z</time>
      </trkpt>
      <trkpt lat="43.368120" lon="-5.824105">
        <ele>177.360</ele>
        <time>2019-03-26T21:13:25Z</time>
      </trkpt>
      <trkpt lat="43.368490" lon="-5.823020">
        <ele>175.718</ele>
        <time>2019-03-26T21:13:45Z</time>
      </trkpt>
      <trkpt lat="43.368640" lon="-5.822410">
        <ele>175.698</ele>
        <time>2019-03-26T21:14:05Z</time>
      </trkpt>
      <trkpt lat="43.368800" lon="-5.821503">
        <ele>176.617</ele>
        <time>2019-03-26T21:14:25Z</time>
      </trkpt>
      <trkpt lat="43.368960" lon="-5.820597">
        <ele>174.508</ele>
        <time>2019-03-26T21:14:45Z</time>
      </trkpt>
      <trkpt lat="43.369120" lon="-5.819690">
        <ele>175.514</ele>
        <time>2019-03-26T21:15:05Z</time>
      </trkpt>
      <trkpt lat="43.369110" lon="-5.819360">
        <ele>177.515</ele>
        <time>2019-03-26T21:15:25Z</time>
      </trkpt>
      <trkpt lat="43.369080" lon="-5.819260">
        <ele>177.996</ele>
        <time>2019-03-26T21:15:45Z</time>
      </trkpt>
      <trkpt lat="43.369080" lon="-5.819180">
        <ele>177.935</ele>
        <time>2019-03-26T21:16:05Z</time>
      </trkpt>
      <trkpt lat="43.369130" lon="-5.819040">
        <ele>175.357</ele>
        <time>2019-03-26T21:16:25Z</time>
      </trkpt>
      <trkpt lat="43.369170" lon="-5.818990">
        <ele>175.385</ele>
        <time>2019-03-26T21:16:45Z</time>
      </trkpt>
      <trkpt lat="43.369230" lon="-5.818960">
        <ele>175.338</ele>
        <time>2019-03-26T21:17:05Z</time>
      </trkpt>
      <trkpt lat="43.369290" lon="-5.818900">
        <ele>175.330</ele>
        <time>2019-03-26T21:17:25Z</time>
      </trkpt>
      <trkpt lat="43.369450" lon="-5.818720">
        <ele>173.911</ele>
        <time>2019-03-26T21:17:45Z</time>
      </trkpt>
      <trkpt lat="43.369590" lon="-5.818490">
        <ele>173.521</ele>
        <time>2019-03-26T21:18:05Z</time>
      </trkpt>
      <trkpt lat="43.369890" lon="-5.818100">
        <ele>173.603</ele>
        <time>2019-03-26T21:18:25Z</time>
      </trkpt>
      <trkpt lat="43.370530" lon="-5.817350">
        <ele>174.408</ele>
        <time>2019-03-26T21:18:45Z</time>
      </trkpt>
      <trkpt lat="43.370680" lon="-5.817110">
        <ele>174.774</ele>
        <time>2019-03-26T21:19:05Z</time>
      </trkpt>
      <trkpt lat="43.371080" lon="-5.816380">
        <ele>176.985</ele>
        <time>2019-03-26T21:19:25Z</time>
      </trkpt>
      <trkpt lat="43.371555" lon="-5.815495">
        <ele>176.926</ele>
        <time>2019-03-26T21:19:45Z</time>
      </trkpt>
      <trkpt lat="43.372030" lon="-5.814610">
        <ele>176.035</ele>
        <time>2019-03-26T21:20:05Z</time>
      </trkpt>
      <trkpt lat="43.372180" lon="-5.814100">
        <ele>175.077</ele>
        <time>2019-03-26T21:20:25Z</time>
      </trkpt>
      <trkpt lat="43.372360" lon="-5.813400">
        <ele>175.275</ele>
        <time>2019-03-26T21:20:45Z</time>
      </trkpt>
      <trkpt lat="43.372570" lon="-5.813060">
        <ele>174.898</ele>
        <time>2019-03-26T21:21:05Z</time>
      </trkpt>
      <trkpt lat="43.372600" lon="-5.812830">
        <ele>174.840</ele>
        <time>2019-03-26T21:21:25Z</time>
      </trkpt>
      <trkpt lat="43.372540" lon="-5.812710">
        <ele>175.917</ele>
        <time>2019-03-26T21:21:45Z</time>
      </trkpt>
      <trkpt lat="43.372480" lon="-5.812470">
        <ele>177.487</ele>
        <time>2019-03-26T21:22:05Z</time>
      </trkpt>
      <trkpt lat="43.372470" lon="-5.812180">
        <ele>178.515</ele>
        <time>2019-03-26T21:22:25Z</time>
      </trkpt>
      <trkpt lat="43.372510" lon="-5.812020">
        <ele>179.808</ele>
        <time>2019-03-26T21:22:45Z</time>
      </trkpt>
      <trkpt lat="43.372590" lon="-5.811900">
        <ele>180.524</ele>
        <time>2019-03-26T21:23:05Z</time>
      </trkpt>
      <trkpt lat="43.372720" lon="-5.811830">
        <ele>180.095</ele>
        <time>2019-03-26T21:23:25Z</time>
      </trkpt>
      <trkpt lat="43.372860" lon="-5.811720">
        <ele>180.056</ele>
        <time>2019-03-26T21:23:45Z</time>
      </trkpt>
      <trkpt lat="43.373120" lon="-5.811330">
        <ele>180.425</ele>
        <time>2019-03-26T21:24:05Z</time>
      </trkpt>
      <trkpt lat="43.373450" lon="-5.810940">
        <ele>179.947</ele>
        <time>2019-03-26T21:24:25Z</time>
      </trkpt>
      <trkpt lat="43.374020" lon="-5.810120">
        <ele>180.185</ele>
        <time>2019-03-26T21:24:45Z</time>
      </trkpt>
      <trkpt lat="43.374280" lon="-5.809600">
        <ele>180.298</ele>
        <time>2019-03-26T21:25:05Z</time>
      </trkpt>
      <trkpt lat="43.374535" lon="-5.808955">
        <ele>180.320</ele>
        <time>2019-03-26T21:25:25Z</time>
      </trkpt>
      <trkpt lat="43.374790" lon="-5.808310">
        <ele>179.411</ele>
        <time>2019-03-26T21:25:45Z</time>
      </trkpt>
      <trkpt lat="43.374950" lon="-5.807970">
        <ele>178.921</ele>
        <time>2019-03-26T21:26:05Z</time>
      </trkpt>
      <trkpt lat="43.375280" lon="-5.807380">
        <ele>177.803</ele>
        <time>2019-03-26T21:26:25Z</time>
      </trkpt>
      <trkpt lat="43.375723" lon="-5.806737">
        <ele>177.908</ele>
        <time>2019-03-26T21:26:45Z</time>
      </trkpt>
      <trkpt lat="43.376167" lon="-5.806093">
        <ele>177.894</ele>
        <time>2019-03-26T21:27:05Z</time>
      </trkpt>
      <trkpt lat="43.376610" lon="-5.805450">
        <ele>177.735</ele>
        <time>2019-03-26T21:27:25Z</time>
      </trkpt>
      <trkpt lat="43.376870" lon="-5.804950">
        <ele>176.736</ele>
        <time>2019-03-26T21:27:45Z</time>
      </trkpt>
      <trkpt lat="43.377100" lon="-5.804330">
        <ele>177.785</ele>
        <time>2019-03-26T21:28:05Z</time>
      </trkpt>
      <trkpt lat="43.377450" lon="-5.803240">
        <ele>179.217</ele>
        <time>2019-03-26T21:28:25Z</time>
      </trkpt>
      <trkpt lat="43.377710" lon="-5.802410">
        <ele>181.275</ele>
        <time>2019-03-26T21:28:45Z</time>
      </trkpt>
      <trkpt lat="43.377850" lon="-5.801850">
        <ele>183.168</ele>
        <time>2019-03-26T21:29:05Z</time>
      </trkpt>
      <trkpt lat="43.377950" lon="-5.801090">
        <ele>184.710</ele>
        <time>2019-03-26T21:29:25Z</time>
      </trkpt>
      <trkpt lat="43.377975" lon="-5.800360">
        <ele>185.071</ele>
        <time>2019-03-26T21:29:45Z</time>
      </trkpt>
      <trkpt lat="43.378000" lon="-5.799630">
        <ele>184.441</ele>
        <time>2019-03-26T21:30:05Z</time>
      </trkpt>
      <trkpt lat="43.378030" lon="-5.799160">
        <ele>184.115</ele>
        <time>2019-03-26T21:30:25Z</time>
      </trkpt>
      <trkpt lat="43.378050" lon="-5.798770">
        <ele>184.008</ele>
        <time>2019-03-26T21:30:45Z</time>
      </trkpt>
      <trkpt lat="43.378180" lon="-5.797870">
        <ele>183.490</ele>
        <time>2019-03-26T21:31:05Z</time>
      </trkpt>
      <trkpt lat="43.378300" lon="-5.797240">
        <ele>181.741</ele>
        <time>2019-03-26T21:31:25Z</time>
      </trkpt>
      <trkpt lat="43.378570" lon="-5.796095">
        <ele>179.342</ele>
        <time>2019-03-26T21:31:45Z</time>
      </trkpt>
      <trkpt lat="43.378840" lon="-5.794950">
        <ele>174.571</ele>
        <time>2019-03-26T21:32:05Z</time>
      </trkpt>
      <trkpt lat="43.378870" lon="-5.794720">
        <ele>174.173</ele>
        <time>2019-03-26T21:32:25Z</time>
      </trkpt>
      <trkpt lat="43.378900" lon="-5.794480">
        <ele>173.371</ele>
        <time>2019-03-26T21:32:45Z</time>
      </trkpt>
      <trkpt lat="43.378910" lon="-5.794070">
        <ele>171.544</ele>
        <time>2019-03-26T21:33:05Z</time>
      </trkpt>
      <trkpt lat="43.378875" lon="-5.793310">
        <ele>171.126</ele>
        <time>2019-03-26T21:33:25Z</time>
      </trkpt>
      <trkpt lat="43.378840" lon="-5.792550">
        <ele>172.099</ele>
        <time>2019-03-26T21:33:45Z</time>
      </trkpt>
      <trkpt lat="43.378870" lon="-5.791980">
        <ele>172.207</ele>
        <time>2019-03-26T21:34:05Z</time>
      </trkpt>
      <trkpt lat="43.379010" lon="-5.791125">
        <ele>171.627</ele>
        <time>2019-03-26T21:34:25Z</time>
      </trkpt>
      <trkpt lat="43.379150" lon="-5.790270">
        <ele>169.808</ele>
        <time>2019-03-26T21:34:45Z</time>
      </trkpt>
      <trkpt lat="43.379310" lon="-5.789550">
        <ele>168.112</ele>
        <time>2019-03-26T21:35:05Z</time>
      </trkpt>
      <trkpt lat="43.379520" lon="-5.788840">
        <ele>168.533</ele>
        <time>2019-03-26T21:35:25Z</time>
      </trkpt>
      <trkpt lat="43.379630" lon="-5.788510">
        <ele>169.284</ele>
        <time>2019-03-26T21:35:45Z</time>
      </trkpt>
      <trkpt lat="43.379910" lon="-5.787585">
        <ele>168.613</ele>
        <time>2019-03-26T21:36:05Z</time>
      </trkpt>
      <trkpt lat="43.380190" lon="-5.786660">
        <ele>168.775</ele>
        <time>2019-03-26T21:36:25Z</time>
      </trkpt>
      <trkpt lat="43.380470" lon="-5.785735">
        <ele>169.963</ele>
        <time>2019-03-26T21:36:45Z</time>
      </trkpt>
      <trkpt lat="43.380750" lon="-5.784810">
        <ele>171.396</ele>
        <time>2019-03-26T21:37:05Z</time>
      </trkpt>
      <trkpt lat="43.381100" lon="-5.783800">
        <ele>173.418</ele>
        <time>2019-03-26T21:37:25Z</time>
      </trkpt>
      <trkpt lat="43.381490" lon="-5.782770">
        <ele>176.715</ele>
        <time>2019-03-26T21:37:45Z</time>
      </trkpt>
      <trkpt lat="43.381880" lon="-5.781740">
        <ele>179.265</ele>
        <time>2019-03-26T21:38:05Z</time>
      </trkpt>
      <trkpt lat="43.382060" lon="-5.781180">
        <ele>181.011</ele>
        <time>2019-03-26T21:38:25Z</time>
      </trkpt>
      <trkpt lat="43.382310" lon="-5.780028">
        <ele>183.908</ele>
        <time>2019-03-26T21:38:45Z</time>
      </trkpt>
      <trkpt lat="43.382560" lon="-5.778876">
        <ele>185.474</ele>
        <time>2019-03-26T21:39:05Z</time>
      </trkpt>
      <trkpt lat="43.382810" lon="-5.777724">
        <ele>189.115</ele>
        <time>2019-03-26T21:39:25Z</time>
      </trkpt>
      <trkpt lat="43.383060" lon="-5.776572">
        <ele>194.566</ele>
        <time>2019-03-26T21:39:45Z</time>
      </trkpt>
      <trkpt lat="43.383310" lon="-5.775420">
        <ele>195.775</ele>
        <time>2019-03-26T21:40:05Z</time>
      </trkpt>
      <trkpt lat="43.383460" lon="-5.774645">
        <ele>195.197</ele>
        <time>2019-03-26T21:40:25Z</time>
      </trkpt>
      <trkpt lat="43.383610" lon="-5.773870">
        <ele>195.345</ele>
        <time>2019-03-26T21:40:45Z</time>
      </trkpt>
      <trkpt lat="43.383730" lon="-5.773050">
        <ele>195.028</ele>
        <time>2019-03-26T21:41:05Z</time>
      </trkpt>
      <trkpt lat="43.383820" lon="-5.772210">
        <ele>192.520</ele>
        <time>2019-03-26T21:41:25Z</time>
      </trkpt>
      <trkpt lat="43.383855" lon="-5.771575">
        <ele>189.574</ele>
        <time>2019-03-26T21:41:45Z</time>
      </trkpt>
      <trkpt lat="43.383890" lon="-5.770940">
        <ele>187.656</ele>
        <time>2019-03-26T21:42:05Z</time>
      </trkpt>
      <trkpt lat="43.383885" lon="-5.770065">
        <ele>186.921</ele>
        <time>2019-03-26T21:42:25Z</time>
      </trkpt>
      <trkpt lat="43.383880" lon="-5.769190">
        <ele>189.408</ele>
        <time>2019-03-26T21:42:45Z</time>
      </trkpt>
      <trkpt lat="43.383828" lon="-5.767968">
        <ele>190.650</ele>
        <time>2019-03-26T21:43:05Z</time>
      </trkpt>
      <trkpt lat="43.383776" lon="-5.766746">
        <ele>190.081</ele>
        <time>2019-03-26T21:43:25Z</time>
      </trkpt>
      <trkpt lat="43.383724" lon="-5.765524">
        <ele>188.282</ele>
        <time>2019-03-26T21:43:45Z</time>
      </trkpt>
      <trkpt lat="43.383672" lon="-5.764302">
        <ele>186.211</ele>
        <time>2019-03-26T21:44:05Z</time>
      </trkpt>
      <trkpt lat="43.383620" lon="-5.763080">
        <ele>184.813</ele>
        <time>2019-03-26T21:44:25Z</time>
      </trkpt>
      <trkpt lat="43.383580" lon="-5.761955">
        <ele>183.471</ele>
        <time>2019-03-26T21:44:45Z</time>
      </trkpt>
      <trkpt lat="43.383540" lon="-5.760830">
        <ele>182.244</ele>
        <time>2019-03-26T21:45:05Z</time>
      </trkpt>
      <trkpt lat="43.383500" lon="-5.759705">
        <ele>182.146</ele>
        <time>2019-03-26T21:45:25Z</time>
      </trkpt>
      <trkpt lat="43.383460" lon="-5.758580">
        <ele>181.714</ele>
        <time>2019-03-26T21:45:45Z</time>
      </trkpt>
      <trkpt lat="43.383400" lon="-5.758270">
        <ele>181.754</ele>
        <time>2019-03-26T21:46:05Z</time>
      </trkpt>
      <trkpt lat="43.383300" lon="-5.757980">
        <ele>181.709</ele>
        <time>2019-03-26T21:46:25Z</time>
      </trkpt>
      <trkpt lat="43.383230" lon="-5.757920">
        <ele>181.708</ele>
        <time>2019-03-26T21:46:45Z</time>
      </trkpt>
      <trkpt lat="43.383170" lon="-5.757830">
        <ele>181.794</ele>
        <time>2019-03-26T21:47:05Z</time>
      </trkpt>
      <trkpt lat="43.383130" lon="-5.757640">
        <ele>180.155</ele>
        <time>2019-03-26T21:47:25Z</time>
      </trkpt>
      <trkpt lat="43.383160" lon="-5.757460">
        <ele>180.166</ele>
        <time>2019-03-26T21:47:45Z</time>
      </trkpt>
      <trkpt lat="43.383240" lon="-5.757330">
        <ele>180.155</ele>
        <time>2019-03-26T21:48:05Z</time>
      </trkpt>
      <trkpt lat="43.383270" lon="-5.757230">
        <ele>180.177</ele>
        <time>2019-03-26T21:48:25Z</time>
      </trkpt>
      <trkpt lat="43.383390" lon="-5.756730">
        <ele>180.245</ele>
        <time>2019-03-26T21:48:45Z</time>
      </trkpt>
      <trkpt lat="43.383350" lon="-5.756035">
        <ele>180.838</ele>
        <time>2019-03-26T21:49:05Z</time>
      </trkpt>
      <trkpt lat="43.383310" lon="-5.755340">
        <ele>181.640</ele>
        <time>2019-03-26T21:49:25Z</time>
      </trkpt>
      <trkpt lat="43.383270" lon="-5.754325">
        <ele>181.712</ele>
        <time>2019-03-26T21:49:45Z</time>
      </trkpt>
      <trkpt lat="43.383230" lon="-5.753310">
        <ele>183.232</ele>
        <time>2019-03-26T21:50:05Z</time>
      </trkpt>
      <trkpt lat="43.383190" lon="-5.752295">
        <ele>183.205</ele>
        <time>2019-03-26T21:50:25Z</time>
      </trkpt>
      <trkpt lat="43.383150" lon="-5.751280">
        <ele>184.408</ele>
        <time>2019-03-26T21:50:45Z</time>
      </trkpt>
      <trkpt lat="43.383070" lon="-5.750205">
        <ele>186.334</ele>
        <time>2019-03-26T21:51:05Z</time>
      </trkpt>
      <trkpt lat="43.382990" lon="-5.749130">
        <ele>188.295</ele>
        <time>2019-03-26T21:51:25Z</time>
      </trkpt>
      <trkpt lat="43.382915" lon="-5.748280">
        <ele>189.126</ele>
        <time>2019-03-26T21:51:45Z</time>
      </trkpt>
      <trkpt lat="43.382840" lon="-5.747430">
        <ele>189.175</ele>
        <time>2019-03-26T21:52:05Z</time>
      </trkpt>
      <trkpt lat="43.382820" lon="-5.746660">
        <ele>189.127</ele>
        <time>2019-03-26T21:52:25Z</time>
      </trkpt>
      <trkpt lat="43.382740" lon="-5.746240">
        <ele>188.265</ele>
        <time>2019-03-26T21:52:45Z</time>
      </trkpt>
      <trkpt lat="43.382540" lon="-5.745910">
        <ele>187.468</ele>
        <time>2019-03-26T21:53:05Z</time>
      </trkpt>
      <trkpt lat="43.382470" lon="-5.745820">
        <ele>186.220</ele>
        <time>2019-03-26T21:53:25Z</time>
      </trkpt>
      <trkpt lat="43.382340" lon="-5.745350">
        <ele>185.583</ele>
        <time>2019-03-26T21:53:45Z</time>
      </trkpt>
      <trkpt lat="43.382240" lon="-5.745090">
        <ele>184.525</ele>
        <time>2019-03-26T21:54:05Z</time>
      </trkpt>
      <trkpt lat="43.382090" lon="-5.744850">
        <ele>184.317</ele>
        <time>2019-03-26T21:54:25Z</time>
      </trkpt>
      <trkpt lat="43.381730" lon="-5.744390">
        <ele>184.008</ele>
        <time>2019-03-26T21:54:45Z</time>
      </trkpt>
      <trkpt lat="43.381570" lon="-5.744150">
        <ele>184.171</ele>
        <time>2019-03-26T21:55:05Z</time>
      </trkpt>
      <trkpt lat="43.381480" lon="-5.743910">
        <ele>184.132</ele>
        <time>2019-03-26T21:55:25Z</time>
      </trkpt>
      <trkpt lat="43.381420" lon="-5.743630">
        <ele>184.353</ele>
        <time>2019-03-26T21:55:45Z</time>
      </trkpt>
      <trkpt lat="43.381410" lon="-5.743300">
        <ele>184.592</ele>
        <time>2019-03-26T21:56:05Z</time>
      </trkpt>
      <trkpt lat="43.381474" lon="-5.742142">
        <ele>186.794</ele>
        <time>2019-03-26T21:56:25Z</time>
      </trkpt>
      <trkpt lat="43.381538" lon="-5.740984">
        <ele>187.272</ele>
        <time>2019-03-26T21:56:45Z</time>
      </trkpt>
      <trkpt lat="43.381602" lon="-5.739826">
        <ele>188.015</ele>
        <time>2019-03-26T21:57:05Z</time>
      </trkpt>
      <trkpt lat="43.381666" lon="-5.738668">
        <ele>188.747</ele>
        <time>2019-03-26T21:57:25Z</time>
      </trkpt>
      <trkpt lat="43.381730" lon="-5.737510">
        <ele>189.241</ele>
        <time>2019-03-26T21:57:45Z</time>
      </trkpt>
      <trkpt lat="43.381774" lon="-5.736418">
        <ele>189.981</ele>
        <time>2019-03-26T21:58:05Z</time>
      </trkpt>
      <trkpt lat="43.381818" lon="-5.735326">
        <ele>191.109</ele>
        <time>2019-03-26T21:58:25Z</time>
      </trkpt>
      <trkpt lat="43.381862" lon="-5.734234">
        <ele>192.208</ele>
        <time>2019-03-26T21:58:45Z</time>
      </trkpt>
      <trkpt lat="43.381906" lon="-5.733142">
        <ele>192.427</ele>
        <time>2019-03-26T21:59:05Z</time>
      </trkpt>
      <trkpt lat="43.381950" lon="-5.732050">
        <ele>192.098</ele>
        <time>2019-03-26T21:59:25Z</time>
      </trkpt>
      <trkpt lat="43.381940" lon="-5.731160">
        <ele>192.029</ele>
        <time>2019-03-26T21:59:45Z</time>
      </trkpt>
      <trkpt lat="43.381930" lon="-5.730270">
        <ele>192.888</ele>
        <time>2019-03-26T22:00:05Z</time>
      </trkpt>
      <trkpt lat="43.381910" lon="-5.729980">
        <ele>192.880</ele>
        <time>2019-03-26T22:00:25Z</time>
      </trkpt>
      <trkpt lat="43.381920" lon="-5.729580">
        <ele>192.868</ele>
        <time>2019-03-26T22:00:45Z</time>
      </trkpt>
      <trkpt lat="43.381990" lon="-5.729200">
        <ele>192.851</ele>
        <time>2019-03-26T22:01:05Z</time>
      </trkpt>
      <trkpt lat="43.382130" lon="-5.728830">
        <ele>193.063</ele>
        <time>2019-03-26T22:01:25Z</time>
      </trkpt>
      <trkpt lat="43.382280" lon="-5.728550">
        <ele>193.758</ele>
        <time>2019-03-26T22:01:45Z</time>
      </trkpt>
      <trkpt lat="43.382530" lon="-5.728260">
        <ele>194.352</ele>
        <time>2019-03-26T22:02:05Z</time>
      </trkpt>
      <trkpt lat="43.383218" lon="-5.727680">
        <ele>196.217</ele>
        <time>2019-03-26T22:02:25Z</time>
      </trkpt>
      <trkpt lat="43.383905" lon="-5.727100">
        <ele>197.608</ele>
        <time>2019-03-26T22:02:45Z</time>
      </trkpt>
      <trkpt lat="43.384593" lon="-5.726520">
        <ele>199.678</ele>
        <time>2019-03-26T22:03:05Z</time>
      </trkpt>
      <trkpt lat="43.385280" lon="-5.725940">
        <ele>200.279</ele>
        <time>2019-03-26T22:03:25Z</time>
      </trkpt>
      <trkpt lat="43.385650" lon="-5.725580">
        <ele>201.280</ele>
        <time>2019-03-26T22:03:45Z</time>
      </trkpt>
      <trkpt lat="43.385790" lon="-5.725380">
        <ele>200.839</ele>
        <time>2019-03-26T22:04:05Z</time>
      </trkpt>
      <trkpt lat="43.386090" lon="-5.724840">
        <ele>199.651</ele>
        <time>2019-03-26T22:04:25Z</time>
      </trkpt>
      <trkpt lat="43.386220" lon="-5.724140">
        <ele>198.779</ele>
        <time>2019-03-26T22:04:45Z</time>
      </trkpt>
      <trkpt lat="43.386280" lon="-5.723100">
        <ele>198.582</ele>
        <time>2019-03-26T22:05:05Z</time>
      </trkpt>
      <trkpt lat="43.386270" lon="-5.722350">
        <ele>198.544</ele>
        <time>2019-03-26T22:05:25Z</time>
      </trkpt>
      <trkpt lat="43.386190" lon="-5.721244">
        <ele>198.649</ele>
        <time>2019-03-26T22:05:45Z</time>
      </trkpt>
      <trkpt lat="43.386110" lon="-5.720138">
        <ele>199.702</ele>
        <time>2019-03-26T22:06:05Z</time>
      </trkpt>
      <trkpt lat="43.386030" lon="-5.719032">
        <ele>202.622</ele>
        <time>2019-03-26T22:06:25Z</time>
      </trkpt>
      <trkpt lat="43.385950" lon="-5.717926">
        <ele>204.308</ele>
        <time>2019-03-26T22:06:45Z</time>
      </trkpt>
      <trkpt lat="43.385870" lon="-5.716820">
        <ele>205.187</ele>
        <time>2019-03-26T22:07:05Z</time>
      </trkpt>
      <trkpt lat="43.385808" lon="-5.715797">
        <ele>205.398</ele>
        <time>2019-03-26T22:07:25Z</time>
      </trkpt>
      <trkpt lat="43.385745" lon="-5.714775">
        <ele>205.649</ele>
        <time>2019-03-26T22:07:45Z</time>
      </trkpt>
      <trkpt lat="43.385683" lon="-5.713752">
        <ele>208.288</ele>
        <time>2019-03-26T22:08:05Z</time>
      </trkpt>
      <trkpt lat="43.385620" lon="-5.712730">
        <ele>210.030</ele>
        <time>2019-03-26T22:08:25Z</time>
      </trkpt>
      <trkpt lat="43.385530" lon="-5.711910">
        <ele>210.158</ele>
        <time>2019-03-26T22:08:45Z</time>
      </trkpt>
      <trkpt lat="43.385348" lon="-5.710817">
        <ele>210.111</ele>
        <time>2019-03-26T22:09:05Z</time>
      </trkpt>
      <trkpt lat="43.385165" lon="-5.709725">
        <ele>208.973</ele>
        <time>2019-03-26T22:09:25Z</time>
      </trkpt>
      <trkpt lat="43.384983" lon="-5.708632">
        <ele>208.549</ele>
        <time>2019-03-26T22:09:45Z</time>
      </trkpt>
      <trkpt lat="43.384800" lon="-5.707540">
        <ele>209.002</ele>
        <time>2019-03-26T22:10:05Z</time>
      </trkpt>
      <trkpt lat="43.384770" lon="-5.706940">
        <ele>209.422</ele>
        <time>2019-03-26T22:10:25Z</time>
      </trkpt>
      <trkpt lat="43.384780" lon="-5.706640">
        <ele>210.308</ele>
        <time>2019-03-26T22:10:45Z</time>
      </trkpt>
      <trkpt lat="43.384820" lon="-5.706350">
        <ele>210.737</ele>
        <time>2019-03-26T22:11:05Z</time>
      </trkpt>
      <trkpt lat="43.384970" lon="-5.705720">
        <ele>212.578</ele>
        <time>2019-03-26T22:11:25Z</time>
      </trkpt>
      <trkpt lat="43.385295" lon="-5.704715">
        <ele>213.649</ele>
        <time>2019-03-26T22:11:45Z</time>
      </trkpt>
      <trkpt lat="43.385620" lon="-5.703710">
        <ele>213.498</ele>
        <time>2019-03-26T22:12:05Z</time>
      </trkpt>
      <trkpt lat="43.385760" lon="-5.702630">
        <ele>208.660</ele>
        <time>2019-03-26T22:12:25Z</time>
      </trkpt>
      <trkpt lat="43.385860" lon="-5.701440">
        <ele>209.198</ele>
        <time>2019-03-26T22:12:45Z</time>
      </trkpt>
      <trkpt lat="43.385860" lon="-5.701520">
        <ele>209.151</ele>
        <time>2019-03-26T22:13:05Z</time>
      </trkpt>
      <trkpt lat="43.386350" lon="-5.701745">
        <ele>208.373</ele>
        <time>2019-03-26T22:13:25Z</time>
      </trkpt>
      <trkpt lat="43.386840" lon="-5.701970">
        <ele>204.147</ele>
        <time>2019-03-26T22:13:45Z</time>
      </trkpt>
      <trkpt lat="43.387170" lon="-5.702130">
        <ele>201.929</ele>
        <time>2019-03-26T22:14:05Z</time>
      </trkpt>
      <trkpt lat="43.387520" lon="-5.702390">
        <ele>198.721</ele>
        <time>2019-03-26T22:14:25Z</time>
      </trkpt>
      <trkpt lat="43.387700" lon="-5.702460">
        <ele>196.308</ele>
        <time>2019-03-26T22:14:45Z</time>
      </trkpt>
      <trkpt lat="43.387870" lon="-5.702490">
        <ele>195.117</ele>
        <time>2019-03-26T22:15:05Z</time>
      </trkpt>
      <trkpt lat="43.388120" lon="-5.702480">
        <ele>194.338</ele>
        <time>2019-03-26T22:15:25Z</time>
      </trkpt>
      <trkpt lat="43.388810" lon="-5.702230">
        <ele>191.429</ele>
        <time>2019-03-26T22:15:45Z</time>
      </trkpt>
      <trkpt lat="43.388960" lon="-5.702220">
        <ele>190.538</ele>
        <time>2019-03-26T22:16:05Z</time>
      </trkpt>
      <trkpt lat="43.389775" lon="-5.702265">
        <ele>188.020</ele>
        <time>2019-03-26T22:16:25Z</time>
      </trkpt>
      <trkpt lat="43.390590" lon="-5.702310">
        <ele>186.728</ele>
        <time>2019-03-26T22:16:45Z</time>
      </trkpt>
      <trkpt lat="43.390930" lon="-5.702340">
        <ele>187.031</ele>
        <time>2019-03-26T22:17:05Z</time>
      </trkpt>
      <trkpt lat="43.391570" lon="-5.702640">
        <ele>187.993</ele>
        <time>2019-03-26T22:17:25Z</time>
      </trkpt>
      <trkpt lat="43.392040" lon="-5.702875">
        <ele>188.971</ele>
        <time>2019-03-26T22:17:45Z</time>
      </trkpt>
      <trkpt lat="43.392510" lon="-5.703110">
        <ele>189.441</ele>
        <time>2019-03-26T22:18:05Z</time>
      </trkpt>
      <trkpt lat="43.392720" lon="-5.703230">
        <ele>189.215</ele>
        <time>2019-03-26T22:18:25Z</time>
      </trkpt>
      <trkpt lat="43.392980" lon="-5.703330">
        <ele>188.708</ele>
        <time>2019-03-26T22:18:45Z</time>
      </trkpt>
      <trkpt lat="43.393370" lon="-5.703390">
        <ele>188.630</ele>
        <time>2019-03-26T22:19:05Z</time>
      </trkpt>
      <trkpt lat="43.394080" lon="-5.703230">
        <ele>189.181</ele>
        <time>2019-03-26T22:19:25Z</time>
      </trkpt>
      <trkpt lat="43.394790" lon="-5.703070">
        <ele>189.082</ele>
        <time>2019-03-26T22:19:45Z</time>
      </trkpt>
      <trkpt lat="43.395500" lon="-5.702910">
        <ele>189.531</ele>
        <time>2019-03-26T22:20:05Z</time>
      </trkpt>
      <trkpt lat="43.396120" lon="-5.702683">
        <ele>189.513</ele>
        <time>2019-03-26T22:20:25Z</time>
      </trkpt>
      <trkpt lat="43.396740" lon="-5.702457">
        <ele>189.551</ele>
        <time>2019-03-26T22:20:45Z</time>
      </trkpt>
      <trkpt lat="43.397360" lon="-5.702230">
        <ele>189.544</ele>
        <time>2019-03-26T22:21:05Z</time>
      </trkpt>
      <trkpt lat="43.397930" lon="-5.702090">
        <ele>189.696</ele>
        <time>2019-03-26T22:21:25Z</time>
      </trkpt>
      <trkpt lat="43.398620" lon="-5.702010">
        <ele>189.679</ele>
        <time>2019-03-26T22:21:45Z</time>
      </trkpt>
      <trkpt lat="43.399320" lon="-5.701990">
        <ele>189.605</ele>
        <time>2019-03-26T22:22:05Z</time>
      </trkpt>
      <trkpt lat="43.400015" lon="-5.702050">
        <ele>190.725</ele>
        <time>2019-03-26T22:22:25Z</time>
      </trkpt>
      <trkpt lat="43.400710" lon="-5.702110">
        <ele>192.508</ele>
        <time>2019-03-26T22:22:45Z</time>
      </trkpt>
      <trkpt lat="43.401170" lon="-5.702200">
        <ele>193.320</ele>
        <time>2019-03-26T22:23:05Z</time>
      </trkpt>
      <trkpt lat="43.402020" lon="-5.702510">
        <ele>194.141</ele>
        <time>2019-03-26T22:23:25Z</time>
      </trkpt>
      <trkpt lat="43.402850" lon="-5.702930">
        <ele>194.362</ele>
        <time>2019-03-26T22:23:45Z</time>
      </trkpt>
      <trkpt lat="43.403040" lon="-5.703090">
        <ele>194.381</ele>
        <time>2019-03-26T22:24:05Z</time>
      </trkpt>
      <trkpt lat="43.403230" lon="-5.703310">
        <ele>195.353</ele>
        <time>2019-03-26T22:24:25Z</time>
      </trkpt>
      <trkpt lat="43.403370" lon="-5.703510">
        <ele>195.781</ele>
        <time>2019-03-26T22:24:45Z</time>
      </trkpt>
      <trkpt lat="43.403630" lon="-5.704030">
        <ele>197.174</ele>
        <time>2019-03-26T22:25:05Z</time>
      </trkpt>
      <trkpt lat="43.403890" lon="-5.704760">
        <ele>198.666</ele>
        <time>2019-03-26T22:25:25Z</time>
      </trkpt>
      <trkpt lat="43.404000" lon="-5.704990">
        <ele>198.871</ele>
        <time>2019-03-26T22:25:45Z</time>
      </trkpt>
      <trkpt lat="43.404110" lon="-5.705180">
        <ele>198.841</ele>
        <time>2019-03-26T22:26:05Z</time>
      </trkpt>
      <trkpt lat="43.404620" lon="-5.705837">
        <ele>198.515</ele>
        <time>2019-03-26T22:26:25Z</time>
      </trkpt>
      <trkpt lat="43.405130" lon="-5.706493">
        <ele>196.908</ele>
        <time>2019-03-26T22:26:45Z</time>
      </trkpt>
      <trkpt lat="43.405640" lon="-5.707150">
        <ele>197.030</ele>
        <time>2019-03-26T22:27:05Z</time>
      </trkpt>
      <trkpt lat="43.405940" lon="-5.707410">
        <ele>197.031</ele>
        <time>2019-03-26T22:27:25Z</time>
      </trkpt>
      <trkpt lat="43.406110" lon="-5.707570">
        <ele>196.882</ele>
        <time>2019-03-26T22:27:45Z</time>
      </trkpt>
      <trkpt lat="43.406743" lon="-5.707895">
        <ele>196.691</ele>
        <time>2019-03-26T22:28:05Z</time>
      </trkpt>
      <trkpt lat="43.407375" lon="-5.708220">
        <ele>196.713</ele>
        <time>2019-03-26T22:28:25Z</time>
      </trkpt>
      <trkpt lat="43.408008" lon="-5.708545">
        <ele>197.171</ele>
        <time>2019-03-26T22:28:45Z</time>
      </trkpt>
      <trkpt lat="43.408640" lon="-5.708870">
        <ele>196.794</ele>
        <time>2019-03-26T22:29:05Z</time>
      </trkpt>
      <trkpt lat="43.409407" lon="-5.709197">
        <ele>196.746</ele>
        <time>2019-03-26T22:29:25Z</time>
      </trkpt>
      <trkpt lat="43.410173" lon="-5.709523">
        <ele>197.181</ele>
        <time>2019-03-26T22:29:45Z</time>
      </trkpt>
      <trkpt lat="43.410940" lon="-5.709850">
        <ele>198.061</ele>
        <time>2019-03-26T22:30:05Z</time>
      </trkpt>
      <trkpt lat="43.411570" lon="-5.709890">
        <ele>198.717</ele>
        <time>2019-03-26T22:30:25Z</time>
      </trkpt>
      <trkpt lat="43.412217" lon="-5.709777">
        <ele>201.008</ele>
        <time>2019-03-26T22:30:45Z</time>
      </trkpt>
      <trkpt lat="43.412863" lon="-5.709663">
        <ele>204.221</ele>
        <time>2019-03-26T22:31:05Z</time>
      </trkpt>
      <trkpt lat="43.413510" lon="-5.709550">
        <ele>206.482</ele>
        <time>2019-03-26T22:31:25Z</time>
      </trkpt>
      <trkpt lat="43.413965" lon="-5.709680">
        <ele>206.823</ele>
        <time>2019-03-26T22:31:45Z</time>
      </trkpt>
      <trkpt lat="43.414420" lon="-5.709810">
        <ele>206.822</ele>
        <time>2019-03-26T22:32:05Z</time>
      </trkpt>
      <trkpt lat="43.415100" lon="-5.710270">
        <ele>204.534</ele>
        <time>2019-03-26T22:32:25Z</time>
      </trkpt>
      <trkpt lat="43.415705" lon="-5.710430">
        <ele>204.462</ele>
        <time>2019-03-26T22:32:45Z</time>
      </trkpt>
      <trkpt lat="43.416310" lon="-5.710590">
        <ele>204.365</ele>
        <time>2019-03-26T22:33:05Z</time>
      </trkpt>
      <trkpt lat="43.416710" lon="-5.710650">
        <ele>204.587</ele>
        <time>2019-03-26T22:33:25Z</time>
      </trkpt>
      <trkpt lat="43.416940" lon="-5.710620">
        <ele>204.588</ele>
        <time>2019-03-26T22:33:45Z</time>
      </trkpt>
      <trkpt lat="43.417200" lon="-5.710530">
        <ele>205.024</ele>
        <time>2019-03-26T22:34:05Z</time>
      </trkpt>
      <trkpt lat="43.417460" lon="-5.710410">
        <ele>205.126</ele>
        <time>2019-03-26T22:34:25Z</time>
      </trkpt>
      <trkpt lat="43.418005" lon="-5.710025">
        <ele>205.008</ele>
        <time>2019-03-26T22:34:45Z</time>
      </trkpt>
      <trkpt lat="43.418550" lon="-5.709640">
        <ele>205.541</ele>
        <time>2019-03-26T22:35:05Z</time>
      </trkpt>
      <trkpt lat="43.419180" lon="-5.709103">
        <ele>207.512</ele>
        <time>2019-03-26T22:35:25Z</time>
      </trkpt>
      <trkpt lat="43.419810" lon="-5.708567">
        <ele>209.753</ele>
        <time>2019-03-26T22:35:45Z</time>
      </trkpt>
      <trkpt lat="43.420440" lon="-5.708030">
        <ele>210.712</ele>
        <time>2019-03-26T22:36:05Z</time>
      </trkpt>
      <trkpt lat="43.420800" lon="-5.707740">
        <ele>210.564</ele>
        <time>2019-03-26T22:36:25Z</time>
      </trkpt>
      <trkpt lat="43.421030" lon="-5.707580">
        <ele>210.572</ele>
        <time>2019-03-26T22:36:45Z</time>
      </trkpt>
      <trkpt lat="43.421210" lon="-5.707470">
        <ele>209.445</ele>
        <time>2019-03-26T22:37:05Z</time>
      </trkpt>
      <trkpt lat="43.421650" lon="-5.707270">
        <ele>209.927</ele>
        <time>2019-03-26T22:37:25Z</time>
      </trkpt>
      <trkpt lat="43.421790" lon="-5.707170">
        <ele>210.067</ele>
        <time>2019-03-26T22:37:45Z</time>
      </trkpt>
      <trkpt lat="43.421860" lon="-5.706990">
        <ele>210.081</ele>
        <time>2019-03-26T22:38:05Z</time>
      </trkpt>
      <trkpt lat="43.421920" lon="-5.706770">
        <ele>210.019</ele>
        <time>2019-03-26T22:38:25Z</time>
      </trkpt>
      <trkpt lat="43.421940" lon="-5.706210">
        <ele>210.008</ele>
        <time>2019-03-26T22:38:45Z</time>
      </trkpt>
      <trkpt lat="43.421860" lon="-5.705410">
        <ele>210.169</ele>
        <time>2019-03-26T22:39:05Z</time>
      </trkpt>
      <trkpt lat="43.421680" lon="-5.704600">
        <ele>210.470</ele>
        <time>2019-03-26T22:39:25Z</time>
      </trkpt>
      <trkpt lat="43.421345" lon="-5.703775">
        <ele>211.851</ele>
        <time>2019-03-26T22:39:45Z</time>
      </trkpt>
      <trkpt lat="43.421010" lon="-5.702950">
        <ele>211.110</ele>
        <time>2019-03-26T22:40:05Z</time>
      </trkpt>
      <trkpt lat="43.420900" lon="-5.702580">
        <ele>211.662</ele>
        <time>2019-03-26T22:40:25Z</time>
      </trkpt>
      <trkpt lat="43.420880" lon="-5.702370">
        <ele>211.790</ele>
        <time>2019-03-26T22:40:45Z</time>
      </trkpt>
      <trkpt lat="43.420890" lon="-5.701810">
        <ele>211.813</ele>
        <time>2019-03-26T22:41:05Z</time>
      </trkpt>
      <trkpt lat="43.420930" lon="-5.701430">
        <ele>212.395</ele>
        <time>2019-03-26T22:41:25Z</time>
      </trkpt>
      <trkpt lat="43.421060" lon="-5.700575">
        <ele>212.099</ele>
        <time>2019-03-26T22:41:45Z</time>
      </trkpt>
      <trkpt lat="43.421190" lon="-5.699720">
        <ele>212.907</ele>
        <time>2019-03-26T22:42:05Z</time>
      </trkpt>
      <trkpt lat="43.421340" lon="-5.699310">
        <ele>213.727</ele>
        <time>2019-03-26T22:42:25Z</time>
      </trkpt>
      <trkpt lat="43.421690" lon="-5.698870">
        <ele>214.708</ele>
        <time>2019-03-26T22:42:45Z</time>
      </trkpt>
      <trkpt lat="43.422250" lon="-5.698520">
        <ele>216.112</ele>
        <time>2019-03-26T22:43:05Z</time>
      </trkpt>
      <trkpt lat="43.422995" lon="-5.698110">
        <ele>216.353</ele>
        <time>2019-03-26T22:43:25Z</time>
      </trkpt>
      <trkpt lat="43.423740" lon="-5.697700">
        <ele>214.154</ele>
        <time>2019-03-26T22:43:45Z</time>
      </trkpt>
      <trkpt lat="43.423880" lon="-5.697540">
        <ele>213.913</ele>
        <time>2019-03-26T22:44:05Z</time>
      </trkpt>
      <trkpt lat="43.423940" lon="-5.697370">
        <ele>213.865</ele>
        <time>2019-03-26T22:44:25Z</time>
      </trkpt>
      <trkpt lat="43.424070" lon="-5.696655">
        <ele>214.463</ele>
        <time>2019-03-26T22:44:45Z</time>
      </trkpt>
      <trkpt lat="43.424200" lon="-5.695940">
        <ele>215.256</ele>
        <time>2019-03-26T22:45:05Z</time>
      </trkpt>
      <trkpt lat="43.424440" lon="-5.694790">
        <ele>220.018</ele>
        <time>2019-03-26T22:45:25Z</time>
      </trkpt>
      <trkpt lat="43.424500" lon="-5.694430">
        <ele>219.528</ele>
        <time>2019-03-26T22:45:45Z</time>
      </trkpt>
      <trkpt lat="43.424470" lon="-5.693690">
        <ele>218.089</ele>
        <time>2019-03-26T22:46:05Z</time>
      </trkpt>
      <trkpt lat="43.424520" lon="-5.693380">
        <ele>217.217</ele>
        <time>2019-03-26T22:46:25Z</time>
      </trkpt>
      <trkpt lat="43.424640" lon="-5.693030">
        <ele>217.108</ele>
        <time>2019-03-26T22:46:45Z</time>
      </trkpt>
      <trkpt lat="43.424800" lon="-5.692770">
        <ele>216.765</ele>
        <time>2019-03-26T22:47:05Z</time>
      </trkpt>
      <trkpt lat="43.425020" lon="-5.692500">
        <ele>216.776</ele>
        <time>2019-03-26T22:47:25Z</time>
      </trkpt>
      <trkpt lat="43.425090" lon="-5.692460">
        <ele>216.737</ele>
        <time>2019-03-26T22:47:45Z</time>
      </trkpt>
      <trkpt lat="43.425835" lon="-5.691840">
        <ele>216.816</ele>
        <time>2019-03-26T22:48:05Z</time>
      </trkpt>
      <trkpt lat="43.426580" lon="-5.691220">
        <ele>216.238</ele>
        <time>2019-03-26T22:48:25Z</time>
      </trkpt>
      <trkpt lat="43.427167" lon="-5.690807">
        <ele>216.096</ele>
        <time>2019-03-26T22:48:45Z</time>
      </trkpt>
      <trkpt lat="43.427753" lon="-5.690393">
        <ele>215.369</ele>
        <time>2019-03-26T22:49:05Z</time>
      </trkpt>
      <trkpt lat="43.428340" lon="-5.689980">
        <ele>215.911</ele>
        <time>2019-03-26T22:49:25Z</time>
      </trkpt>
      <trkpt lat="43.428580" lon="-5.689650">
        <ele>215.797</ele>
        <time>2019-03-26T22:49:45Z</time>
      </trkpt>
      <trkpt lat="43.428800" lon="-5.689300">
        <ele>216.123</ele>
        <time>2019-03-26T22:50:05Z</time>
      </trkpt>
      <trkpt lat="43.428990" lon="-5.688900">
        <ele>217.625</ele>
        <time>2019-03-26T22:50:25Z</time>
      </trkpt>
      <trkpt lat="43.429310" lon="-5.688100">
        <ele>220.708</ele>
        <time>2019-03-26T22:50:45Z</time>
      </trkpt>
      <trkpt lat="43.429630" lon="-5.687300">
        <ele>223.792</ele>
        <time>2019-03-26T22:51:05Z</time>
      </trkpt>
      <trkpt lat="43.429915" lon="-5.686620">
        <ele>225.723</ele>
        <time>2019-03-26T22:51:25Z</time>
      </trkpt>
      <trkpt lat="43.430200" lon="-5.685940">
        <ele>227.874</ele>
        <time>2019-03-26T22:51:45Z</time>
      </trkpt>
      <trkpt lat="43.430540" lon="-5.684830">
        <ele>232.133</ele>
        <time>2019-03-26T22:52:05Z</time>
      </trkpt>
      <trkpt lat="43.430730" lon="-5.684090">
        <ele>232.175</ele>
        <time>2019-03-26T22:52:25Z</time>
      </trkpt>
      <trkpt lat="43.431090" lon="-5.683360">
        <ele>234.253</ele>
        <time>2019-03-26T22:52:45Z</time>
      </trkpt>
      <trkpt lat="43.431210" lon="-5.683180">
        <ele>235.766</ele>
        <time>2019-03-26T22:53:05Z</time>
      </trkpt>
      <trkpt lat="43.431350" lon="-5.683060">
        <ele>236.498</ele>
        <time>2019-03-26T22:53:25Z</time>
      </trkpt>
      <trkpt lat="43.431570" lon="-5.682960">
        <ele>237.575</ele>
        <time>2019-03-26T22:53:45Z</time>
      </trkpt>
      <trkpt lat="43.431740" lon="-5.682970">
        <ele>238.328</ele>
        <time>2019-03-26T22:54:05Z</time>
      </trkpt>
      <trkpt lat="43.431830" lon="-5.682990">
        <ele>238.320</ele>
        <time>2019-03-26T22:54:25Z</time>
      </trkpt>
      <trkpt lat="43.432030" lon="-5.683130">
        <ele>238.908</ele>
        <time>2019-03-26T22:54:45Z</time>
      </trkpt>
      <trkpt lat="43.432430" lon="-5.683500">
        <ele>240.510</ele>
        <time>2019-03-26T22:55:05Z</time>
      </trkpt>
      <trkpt lat="43.432580" lon="-5.683550">
        <ele>240.581</ele>
        <time>2019-03-26T22:55:25Z</time>
      </trkpt>
      <trkpt lat="43.432700" lon="-5.683570">
        <ele>240.532</ele>
        <time>2019-03-26T22:55:45Z</time>
      </trkpt>
      <trkpt lat="43.432880" lon="-5.683530">
        <ele>242.041</ele>
        <time>2019-03-26T22:56:05Z</time>
      </trkpt>
      <trkpt lat="43.433010" lon="-5.683480">
        <ele>242.013</ele>
        <time>2019-03-26T22:56:25Z</time>
      </trkpt>
      <trkpt lat="43.433160" lon="-5.683370">
        <ele>242.091</ele>
        <time>2019-03-26T22:56:45Z</time>
      </trkpt>
      <trkpt lat="43.433725" lon="-5.682835">
        <ele>243.194</ele>
        <time>2019-03-26T22:57:05Z</time>
      </trkpt>
      <trkpt lat="43.434290" lon="-5.682300">
        <ele>245.246</ele>
        <time>2019-03-26T22:57:25Z</time>
      </trkpt>
      <trkpt lat="43.434430" lon="-5.682190">
        <ele>245.244</ele>
        <time>2019-03-26T22:57:45Z</time>
      </trkpt>
      <trkpt lat="43.434520" lon="-5.682170">
        <ele>246.305</ele>
        <time>2019-03-26T22:58:05Z</time>
      </trkpt>
      <trkpt lat="43.434650" lon="-5.682170">
        <ele>246.315</ele>
        <time>2019-03-26T22:58:25Z</time>
      </trkpt>
      <trkpt lat="43.434790" lon="-5.682270">
        <ele>246.708</ele>
        <time>2019-03-26T22:58:45Z</time>
      </trkpt>
      <trkpt lat="43.434930" lon="-5.682480">
        <ele>249.287</ele>
        <time>2019-03-26T22:59:05Z</time>
      </trkpt>
      <trkpt lat="43.435210" lon="-5.683380">
        <ele>254.568</ele>
        <time>2019-03-26T22:59:25Z</time>
      </trkpt>
      <trkpt lat="43.435290" lon="-5.683500">
        <ele>258.699</ele>
        <time>2019-03-26T22:59:45Z</time>
      </trkpt>
      <trkpt lat="43.435450" lon="-5.683620">
        <ele>258.618</ele>
        <time>2019-03-26T23:00:05Z</time>
      </trkpt>
      <trkpt lat="43.435540" lon="-5.683620">
        <ele>263.970</ele>
        <time>2019-03-26T23:00:25Z</time>
      </trkpt>
      <trkpt lat="43.435640" lon="-5.683570">
        <ele>263.958</ele>
        <time>2019-03-26T23:00:45Z</time>
      </trkpt>
      <trkpt lat="43.435750" lon="-5.683500">
        <ele>263.941</ele>
        <time>2019-03-26T23:01:05Z</time>
      </trkpt>
      <trkpt lat="43.436060" lon="-5.683220">
        <ele>266.283</ele>
        <time>2019-03-26T23:01:25Z</time>
      </trkpt>
      <trkpt lat="43.436460" lon="-5.682970">
        <ele>269.069</ele>
        <time>2019-03-26T23:01:45Z</time>
      </trkpt>
      <trkpt lat="43.436660" lon="-5.682940">
        <ele>269.604</ele>
        <time>2019-03-26T23:02:05Z</time>
      </trkpt>
      <trkpt lat="43.436800" lon="-5.683060">
        <ele>270.224</ele>
        <time>2019-03-26T23:02:25Z</time>
      </trkpt>
      <trkpt lat="43.437200" lon="-5.683790">
        <ele>273.208</ele>
        <time>2019-03-26T23:02:45Z</time>
      </trkpt>
      <trkpt lat="43.437560" lon="-5.684230">
        <ele>275.439</ele>
        <time>2019-03-26T23:03:05Z</time>
      </trkpt>
      <trkpt lat="43.437720" lon="-5.684250">
        <ele>275.470</ele>
        <time>2019-03-26T23:03:25Z</time>
      </trkpt>
      <trkpt lat="43.437890" lon="-5.684160">
        <ele>276.981</ele>
        <time>2019-03-26T23:03:45Z</time>
      </trkpt>
      <trkpt lat="43.438060" lon="-5.683860">
        <ele>278.460</ele>
        <time>2019-03-26T23:04:05Z</time>
      </trkpt>
      <trkpt lat="43.438130" lon="-5.683130">
        <ele>281.042</ele>
        <time>2019-03-26T23:04:25Z</time>
      </trkpt>
      <trkpt lat="43.438210" lon="-5.682800">
        <ele>283.520</ele>
        <time>2019-03-26T23:04:45Z</time>
      </trkpt>
      <trkpt lat="43.438685" lon="-5.682480">
        <ele>285.693</ele>
        <time>2019-03-26T23:05:05Z</time>
      </trkpt>
      <trkpt lat="43.439160" lon="-5.682160">
        <ele>287.315</ele>
        <time>2019-03-26T23:05:25Z</time>
      </trkpt>
      <trkpt lat="43.439960" lon="-5.681930">
        <ele>290.918</ele>
        <time>2019-03-26T23:05:45Z</time>
      </trkpt>
      <trkpt lat="43.440740" lon="-5.681550">
        <ele>294.098</ele>
        <time>2019-03-26T23:06:05Z</time>
      </trkpt>
      <trkpt lat="43.441180" lon="-5.681300">
        <ele>296.217</ele>
        <time>2019-03-26T23:06:25Z</time>
      </trkpt>
      <trkpt lat="43.441695" lon="-5.680805">
        <ele>296.708</ele>
        <time>2019-03-26T23:06:45Z</time>
      </trkpt>
      <trkpt lat="43.442210" lon="-5.680310">
        <ele>296.534</ele>
        <time>2019-03-26T23:07:05Z</time>
      </trkpt>
      <trkpt lat="43.442200" lon="-5.680320">
        <ele>296.625</ele>
        <time>2019-03-26T23:07:25Z</time>
      </trkpt>
      <trkpt lat="43.442720" lon="-5.679825">
        <ele>295.816</ele>
        <time>2019-03-26T23:07:45Z</time>
      </trkpt>
      <trkpt lat="43.443240" lon="-5.679330">
        <ele>294.335</ele>
        <time>2019-03-26T23:08:05Z</time>
      </trkpt>
      <trkpt lat="43.443380" lon="-5.679140">
        <ele>294.357</ele>
        <time>2019-03-26T23:08:25Z</time>
      </trkpt>
      <trkpt lat="43.443410" lon="-5.678860">
        <ele>295.475</ele>
        <time>2019-03-26T23:08:45Z</time>
      </trkpt>
      <trkpt lat="43.443310" lon="-5.678270">
        <ele>301.568</ele>
        <time>2019-03-26T23:09:05Z</time>
      </trkpt>
      <trkpt lat="43.443370" lon="-5.677830">
        <ele>304.620</ele>
        <time>2019-03-26T23:09:25Z</time>
      </trkpt>
      <trkpt lat="43.443270" lon="-5.677880">
        <ele>306.856</ele>
        <time>2019-03-26T23:09:45Z</time>
      </trkpt>
      <trkpt lat="43.443090" lon="-5.678020">
        <ele>309.459</ele>
        <time>2019-03-26T23:10:05Z</time>
      </trkpt>
      <trkpt lat="43.443010" lon="-5.678010">
        <ele>310.414</ele>
        <time>2019-03-26T23:10:25Z</time>
      </trkpt>
      <trkpt lat="43.442820" lon="-5.677590">
        <ele>315.208</ele>
        <time>2019-03-26T23:10:45Z</time>
      </trkpt>
      <trkpt lat="43.443000" lon="-5.677400">
        <ele>317.458</ele>
        <time>2019-03-26T23:11:05Z</time>
      </trkpt>
      <trkpt lat="43.443210" lon="-5.677260">
        <ele>318.139</ele>
        <time>2019-03-26T23:11:25Z</time>
      </trkpt>
      <trkpt lat="43.443280" lon="-5.677070">
        <ele>318.410</ele>
        <time>2019-03-26T23:11:45Z</time>
      </trkpt>
      <trkpt lat="43.443310" lon="-5.676890">
        <ele>319.179</ele>
        <time>2019-03-26T23:12:05Z</time>
      </trkpt>
      <trkpt lat="43.443310" lon="-5.676580">
        <ele>319.431</ele>
        <time>2019-03-26T23:12:25Z</time>
      </trkpt>
      <trkpt lat="43.443370" lon="-5.676330">
        <ele>320.059</ele>
        <time>2019-03-26T23:12:45Z</time>
      </trkpt>
      <trkpt lat="43.443550" lon="-5.675990">
        <ele>323.482</ele>
        <time>2019-03-26T23:13:05Z</time>
      </trkpt>
      <trkpt lat="43.443580" lon="-5.675600">
        <ele>329.324</ele>
        <time>2019-03-26T23:13:25Z</time>
      </trkpt>
      <trkpt lat="43.443680" lon="-5.675430">
        <ele>331.984</ele>
        <time>2019-03-26T23:13:45Z</time>
      </trkpt>
      <trkpt lat="43.444040" lon="-5.675030">
        <ele>336.207</ele>
        <time>2019-03-26T23:14:05Z</time>
      </trkpt>
      <trkpt lat="43.444150" lon="-5.674960">
        <ele>338.517</ele>
        <time>2019-03-26T23:14:25Z</time>
      </trkpt>
      <trkpt lat="43.444570" lon="-5.674750">
        <ele>343.408</ele>
        <time>2019-03-26T23:14:45Z</time>
      </trkpt>
      <trkpt lat="43.444850" lon="-5.674840">
        <ele>347.121</ele>
        <time>2019-03-26T23:15:05Z</time>
      </trkpt>
      <trkpt lat="43.444970" lon="-5.674820">
        <ele>351.472</ele>
        <time>2019-03-26T23:15:25Z</time>
      </trkpt>
      <trkpt lat="43.445030" lon="-5.674770">
        <ele>351.413</ele>
        <time>2019-03-26T23:15:45Z</time>
      </trkpt>
      <trkpt lat="43.445120" lon="-5.674580">
        <ele>356.352</ele>
        <time>2019-03-26T23:16:05Z</time>
      </trkpt>
      <trkpt lat="43.445120" lon="-5.674590">
        <ele>356.034</ele>
        <time>2019-03-26T23:16:25Z</time>
      </trkpt>
      <trkpt lat="43.445180" lon="-5.674470">
        <ele>357.772</ele>
        <time>2019-03-26T23:16:45Z</time>
      </trkpt>
      <trkpt lat="43.445270" lon="-5.674380">
        <ele>359.065</ele>
        <time>2019-03-26T23:17:05Z</time>
      </trkpt>
      <trkpt lat="43.445490" lon="-5.674260">
        <ele>361.167</ele>
        <time>2019-03-26T23:17:25Z</time>
      </trkpt>
      <trkpt lat="43.445780" lon="-5.673930">
        <ele>363.253</ele>
        <time>2019-03-26T23:17:45Z</time>
      </trkpt>
      <trkpt lat="43.445870" lon="-5.673880">
        <ele>364.104</ele>
        <time>2019-03-26T23:18:05Z</time>
      </trkpt>
      <trkpt lat="43.446110" lon="-5.673820">
        <ele>366.814</ele>
        <time>2019-03-26T23:18:25Z</time>
      </trkpt>
      <trkpt lat="43.446280" lon="-5.673610">
        <ele>369.908</ele>
        <time>2019-03-26T23:18:45Z</time>
      </trkpt>
      <trkpt lat="43.446460" lon="-5.673340">
        <ele>371.858</ele>
        <time>2019-03-26T23:19:05Z</time>
      </trkpt>
      <trkpt lat="43.446690" lon="-5.673230">
        <ele>373.389</ele>
        <time>2019-03-26T23:19:25Z</time>
      </trkpt>
      <trkpt lat="43.446830" lon="-5.673220">
        <ele>373.970</ele>
        <time>2019-03-26T23:19:45Z</time>
      </trkpt>
      <trkpt lat="43.447240" lon="-5.673320">
        <ele>379.149</ele>
        <time>2019-03-26T23:20:05Z</time>
      </trkpt>
      <trkpt lat="43.447390" lon="-5.673320">
        <ele>381.411</ele>
        <time>2019-03-26T23:20:25Z</time>
      </trkpt>
      <trkpt lat="43.447760" lon="-5.673110">
        <ele>385.739</ele>
        <time>2019-03-26T23:20:45Z</time>
      </trkpt>
      <trkpt lat="43.448080" lon="-5.673110">
        <ele>389.742</ele>
        <time>2019-03-26T23:21:05Z</time>
      </trkpt>
      <trkpt lat="43.448240" lon="-5.673060">
        <ele>390.434</ele>
        <time>2019-03-26T23:21:25Z</time>
      </trkpt>
      <trkpt lat="43.448690" lon="-5.672800">
        <ele>396.818</ele>
        <time>2019-03-26T23:21:45Z</time>
      </trkpt>
      <trkpt lat="43.448920" lon="-5.672530">
        <ele>402.898</ele>
        <time>2019-03-26T23:22:05Z</time>
      </trkpt>
      <trkpt lat="43.449100" lon="-5.672440">
        <ele>405.917</ele>
        <time>2019-03-26T23:22:25Z</time>
      </trkpt>
      <trkpt lat="43.449390" lon="-5.672390">
        <ele>410.808</ele>
        <time>2019-03-26T23:22:45Z</time>
      </trkpt>
      <trkpt lat="43.449700" lon="-5.672450">
        <ele>412.484</ele>
        <time>2019-03-26T23:23:05Z</time>
      </trkpt>
      <trkpt lat="43.449880" lon="-5.672520">
        <ele>414.085</ele>
        <time>2019-03-26T23:23:25Z</time>
      </trkpt>
      <trkpt lat="43.450020" lon="-5.672460">
        <ele>414.016</ele>
        <time>2019-03-26T23:23:45Z</time>
      </trkpt>
      <trkpt lat="43.450220" lon="-5.672290">
        <ele>418.495</ele>
        <time>2019-03-26T23:24:05Z</time>
      </trkpt>
      <trkpt lat="43.450490" lon="-5.672010">
        <ele>422.967</ele>
        <time>2019-03-26T23:24:25Z</time>
      </trkpt>
      <trkpt lat="43.451200" lon="-5.671510">
        <ele>428.985</ele>
        <time>2019-03-26T23:24:45Z</time>
      </trkpt>
      <trkpt lat="43.451210" lon="-5.671580">
        <ele>428.948</ele>
        <time>2019-03-26T23:25:05Z</time>
      </trkpt>
      <trkpt lat="43.451240" lon="-5.671650">
        <ele>427.580</ele>
        <time>2019-03-26T23:25:25Z</time>
      </trkpt>
      <trkpt lat="43.451860" lon="-5.671680">
        <ele>430.113</ele>
        <time>2019-03-26T23:25:45Z</time>
      </trkpt>
      <trkpt lat="43.452010" lon="-5.671710">
        <ele>431.043</ele>
        <time>2019-03-26T23:26:05Z</time>
      </trkpt>
      <trkpt lat="43.452230" lon="-5.671890">
        <ele>432.107</ele>
        <time>2019-03-26T23:26:25Z</time>
      </trkpt>
      <trkpt lat="43.452370" lon="-5.671960">
        <ele>432.308</ele>
        <time>2019-03-26T23:26:45Z</time>
      </trkpt>
      <trkpt lat="43.452990" lon="-5.672030">
        <ele>434.124</ele>
        <time>2019-03-26T23:27:05Z</time>
      </trkpt>
      <trkpt lat="43.453250" lon="-5.672160">
        <ele>436.275</ele>
        <time>2019-03-26T23:27:25Z</time>
      </trkpt>
      <trkpt lat="43.453400" lon="-5.671980">
        <ele>443.486</ele>
        <time>2019-03-26T23:27:45Z</time>
      </trkpt>
      <trkpt lat="43.453520" lon="-5.671700">
        <ele>444.575</ele>
        <time>2019-03-26T23:28:05Z</time>
      </trkpt>
      <trkpt lat="43.453590" lon="-5.671650">
        <ele>444.587</ele>
        <time>2019-03-26T23:28:25Z</time>
      </trkpt>
      <trkpt lat="43.454090" lon="-5.671680">
        <ele>450.015</ele>
        <time>2019-03-26T23:28:45Z</time>
      </trkpt>
      <trkpt lat="43.454290" lon="-5.671650">
        <ele>450.728</ele>
        <time>2019-03-26T23:29:05Z</time>
      </trkpt>
      <trkpt lat="43.454440" lon="-5.671580">
        <ele>451.170</ele>
        <time>2019-03-26T23:29:25Z</time>
      </trkpt>
      <trkpt lat="43.454600" lon="-5.671420">
        <ele>451.341</ele>
        <time>2019-03-26T23:29:45Z</time>
      </trkpt>
      <trkpt lat="43.454910" lon="-5.671000">
        <ele>451.181</ele>
        <time>2019-03-26T23:30:05Z</time>
      </trkpt>
      <trkpt lat="43.455080" lon="-5.670860">
        <ele>450.809</ele>
        <time>2019-03-26T23:30:25Z</time>
      </trkpt>
      <trkpt lat="43.455570" lon="-5.670690">
        <ele>450.108</ele>
        <time>2019-03-26T23:30:45Z</time>
      </trkpt>
      <trkpt lat="43.455900" lon="-5.670640">
        <ele>450.667</ele>
        <time>2019-03-26T23:31:05Z</time>
      </trkpt>
      <trkpt lat="43.456020" lon="-5.670670">
        <ele>451.128</ele>
        <time>2019-03-26T23:31:25Z</time>
      </trkpt>
      <trkpt lat="43.456140" lon="-5.670790">
        <ele>451.639</ele>
        <time>2019-03-26T23:31:45Z</time>
      </trkpt>
      <trkpt lat="43.456230" lon="-5.670830">
        <ele>453.218</ele>
        <time>2019-03-26T23:32:05Z</time>
      </trkpt>
      <trkpt lat="43.456360" lon="-5.670850">
        <ele>454.310</ele>
        <time>2019-03-26T23:32:25Z</time>
      </trkpt>
      <trkpt lat="43.456650" lon="-5.670940">
        <ele>455.138</ele>
        <time>2019-03-26T23:32:45Z</time>
      </trkpt>
      <trkpt lat="43.457150" lon="-5.671140">
        <ele>455.131</ele>
        <time>2019-03-26T23:33:05Z</time>
      </trkpt>
      <trkpt lat="43.457320" lon="-5.671170">
        <ele>455.163</ele>
        <time>2019-03-26T23:33:25Z</time>
      </trkpt>
      <trkpt lat="43.457500" lon="-5.671160">
        <ele>454.978</ele>
        <time>2019-03-26T23:33:45Z</time>
      </trkpt>
      <trkpt lat="43.457660" lon="-5.671070">
        <ele>454.633</ele>
        <time>2019-03-26T23:34:05Z</time>
      </trkpt>
      <trkpt lat="43.457830" lon="-5.670600">
        <ele>453.626</ele>
        <time>2019-03-26T23:34:25Z</time>
      </trkpt>
      <trkpt lat="43.457930" lon="-5.670380">
        <ele>452.308</ele>
        <time>2019-03-26T23:34:45Z</time>
      </trkpt>
      <trkpt lat="43.457930" lon="-5.670390">
        <ele>452.360</ele>
        <time>2019-03-26T23:35:05Z</time>
      </trkpt>
      <trkpt lat="43.458020" lon="-5.670340">
        <ele>451.571</ele>
        <time>2019-03-26T23:35:25Z</time>
      </trkpt>
      <trkpt lat="43.458070" lon="-5.670180">
        <ele>451.512</ele>
        <time>2019-03-26T23:35:45Z</time>
      </trkpt>
      <trkpt lat="43.458150" lon="-5.670020">
        <ele>452.161</ele>
        <time>2019-03-26T23:36:05Z</time>
      </trkpt>
      <trkpt lat="43.458440" lon="-5.669920">
        <ele>452.073</ele>
        <time>2019-03-26T23:36:25Z</time>
      </trkpt>
      <trkpt lat="43.458620" lon="-5.669750">
        <ele>451.731</ele>
        <time>2019-03-26T23:36:45Z</time>
      </trkpt>
      <trkpt lat="43.458770" lon="-5.669400">
        <ele>449.054</ele>
        <time>2019-03-26T23:37:05Z</time>
      </trkpt>
      <trkpt lat="43.458780" lon="-5.668560">
        <ele>445.426</ele>
        <time>2019-03-26T23:37:25Z</time>
      </trkpt>
      <trkpt lat="43.458760" lon="-5.668250">
        <ele>444.825</ele>
        <time>2019-03-26T23:37:45Z</time>
      </trkpt>
      <trkpt lat="43.458690" lon="-5.668040">
        <ele>444.526</ele>
        <time>2019-03-26T23:38:05Z</time>
      </trkpt>
      <trkpt lat="43.458380" lon="-5.667480">
        <ele>442.508</ele>
        <time>2019-03-26T23:38:25Z</time>
      </trkpt>
      <trkpt lat="43.458210" lon="-5.667250">
        <ele>440.908</ele>
        <time>2019-03-26T23:38:45Z</time>
      </trkpt>
      <trkpt lat="43.458140" lon="-5.667080">
        <ele>440.945</ele>
        <time>2019-03-26T23:39:05Z</time>
      </trkpt>
      <trkpt lat="43.458070" lon="-5.666640">
        <ele>439.456</ele>
        <time>2019-03-26T23:39:25Z</time>
      </trkpt>
      <trkpt lat="43.458080" lon="-5.666260">
        <ele>437.657</ele>
        <time>2019-03-26T23:39:45Z</time>
      </trkpt>
      <trkpt lat="43.458020" lon="-5.665840">
        <ele>435.346</ele>
        <time>2019-03-26T23:40:05Z</time>
      </trkpt>
      <trkpt lat="43.458090" lon="-5.665580">
        <ele>433.138</ele>
        <time>2019-03-26T23:40:25Z</time>
      </trkpt>
      <trkpt lat="43.458350" lon="-5.665060">
        <ele>427.616</ele>
        <time>2019-03-26T23:40:45Z</time>
      </trkpt>
      <trkpt lat="43.459050" lon="-5.664290">
        <ele>414.159</ele>
        <time>2019-03-26T23:41:05Z</time>
      </trkpt>
      <trkpt lat="43.459320" lon="-5.663870">
        <ele>410.041</ele>
        <time>2019-03-26T23:41:25Z</time>
      </trkpt>
      <trkpt lat="43.459460" lon="-5.663470">
        <ele>408.346</ele>
        <time>2019-03-26T23:41:45Z</time>
      </trkpt>
      <trkpt lat="43.459650" lon="-5.663280">
        <ele>407.188</ele>
        <time>2019-03-26T23:42:05Z</time>
      </trkpt>
      <trkpt lat="43.460210" lon="-5.662810">
        <ele>402.216</ele>
        <time>2019-03-26T23:42:25Z</time>
      </trkpt>
      <trkpt lat="43.460590" lon="-5.662390">
        <ele>399.808</ele>
        <time>2019-03-26T23:42:45Z</time>
      </trkpt>
      <trkpt lat="43.461280" lon="-5.662130">
        <ele>395.377</ele>
        <time>2019-03-26T23:43:05Z</time>
      </trkpt>
      <trkpt lat="43.461510" lon="-5.662110">
        <ele>390.098</ele>
        <time>2019-03-26T23:43:25Z</time>
      </trkpt>
      <trkpt lat="43.461750" lon="-5.662010">
        <ele>388.299</ele>
        <time>2019-03-26T23:43:45Z</time>
      </trkpt>
      <trkpt lat="43.461860" lon="-5.661830">
        <ele>386.378</ele>
        <time>2019-03-26T23:44:05Z</time>
      </trkpt>
      <trkpt lat="43.462110" lon="-5.661030">
        <ele>377.210</ele>
        <time>2019-03-26T23:44:25Z</time>
      </trkpt>
      <trkpt lat="43.462110" lon="-5.660600">
        <ele>375.288</ele>
        <time>2019-03-26T23:44:45Z</time>
      </trkpt>
      <trkpt lat="43.462590" lon="-5.660420">
        <ele>374.271</ele>
        <time>2019-03-26T23:45:05Z</time>
      </trkpt>
      <trkpt lat="43.462860" lon="-5.660160">
        <ele>374.473</ele>
        <time>2019-03-26T23:45:25Z</time>
      </trkpt>
      <trkpt lat="43.463260" lon="-5.659670">
        <ele>370.559</ele>
        <time>2019-03-26T23:45:45Z</time>
      </trkpt>
      <trkpt lat="43.463620" lon="-5.659480">
        <ele>366.503</ele>
        <time>2019-03-26T23:46:05Z</time>
      </trkpt>
      <trkpt lat="43.464480" lon="-5.659150">
        <ele>354.923</ele>
        <time>2019-03-26T23:46:25Z</time>
      </trkpt>
      <trkpt lat="43.464520" lon="-5.659110">
        <ele>354.908</ele>
        <time>2019-03-26T23:46:45Z</time>
      </trkpt>
      <trkpt lat="43.464910" lon="-5.659380">
        <ele>361.388</ele>
        <time>2019-03-26T23:47:05Z</time>
      </trkpt>
      <trkpt lat="43.465040" lon="-5.659360">
        <ele>361.379</ele>
        <time>2019-03-26T23:47:25Z</time>
      </trkpt>
      <trkpt lat="43.465430" lon="-5.659220">
        <ele>359.730</ele>
        <time>2019-03-26T23:47:45Z</time>
      </trkpt>
      <trkpt lat="43.465880" lon="-5.659240">
        <ele>360.189</ele>
        <time>2019-03-26T23:48:05Z</time>
      </trkpt>
      <trkpt lat="43.466000" lon="-5.659270">
        <ele>360.331</ele>
        <time>2019-03-26T23:48:25Z</time>
      </trkpt>
      <trkpt lat="43.466040" lon="-5.659310">
        <ele>360.479</ele>
        <time>2019-03-26T23:48:45Z</time>
      </trkpt>
      <trkpt lat="43.466190" lon="-5.659580">
        <ele>361.612</ele>
        <time>2019-03-26T23:49:05Z</time>
      </trkpt>
      <trkpt lat="43.466230" lon="-5.659620">
        <ele>362.134</ele>
        <time>2019-03-26T23:49:25Z</time>
      </trkpt>
      <trkpt lat="43.466260" lon="-5.659590">
        <ele>362.181</ele>
        <time>2019-03-26T23:49:45Z</time>
      </trkpt>
      <trkpt lat="43.466290" lon="-5.659810">
        <ele>361.961</ele>
        <time>2019-03-26T23:50:05Z</time>
      </trkpt>
      <trkpt lat="43.466580" lon="-5.660120">
        <ele>360.117</ele>
        <time>2019-03-26T23:50:25Z</time>
      </trkpt>
      <trkpt lat="43.466690" lon="-5.660270">
        <ele>358.908</ele>
        <time>2019-03-26T23:50:45Z</time>
      </trkpt>
      <trkpt lat="43.466860" lon="-5.660720">
        <ele>358.171</ele>
        <time>2019-03-26T23:51:05Z</time>
      </trkpt>
      <trkpt lat="43.467100" lon="-5.661050">
        <ele>355.692</ele>
        <time>2019-03-26T23:51:25Z</time>
      </trkpt>
      <trkpt lat="43.467440" lon="-5.661430">
        <ele>350.733</ele>
        <time>2019-03-26T23:51:45Z</time>
      </trkpt>
      <trkpt lat="43.467720" lon="-5.661590">
        <ele>346.072</ele>
        <time>2019-03-26T23:52:05Z</time>
      </trkpt>
      <trkpt lat="43.467890" lon="-5.661800">
        <ele>343.794</ele>
        <time>2019-03-26T23:52:25Z</time>
      </trkpt>
      <trkpt lat="43.468080" lon="-5.662180">
        <ele>340.082</ele>
        <time>2019-03-26T23:52:45Z</time>
      </trkpt>
      <trkpt lat="43.468370" lon="-5.662550">
        <ele>332.755</ele>
        <time>2019-03-26T23:53:05Z</time>
      </trkpt>
      <trkpt lat="43.468560" lon="-5.662690">
        <ele>329.947</ele>
        <time>2019-03-26T23:53:25Z</time>
      </trkpt>
      <trkpt lat="43.469270" lon="-5.663000">
        <ele>318.094</ele>
        <time>2019-03-26T23:53:45Z</time>
      </trkpt>
      <trkpt lat="43.469620" lon="-5.662880">
        <ele>314.157</ele>
        <time>2019-03-26T23:54:05Z</time>
      </trkpt>
      <trkpt lat="43.469770" lon="-5.662880">
        <ele>312.022</ele>
        <time>2019-03-26T23:54:25Z</time>
      </trkpt>
      <trkpt lat="43.469910" lon="-5.662690">
        <ele>309.708</ele>
        <time>2019-03-26T23:54:45Z</time>
      </trkpt>
      <trkpt lat="43.470150" lon="-5.662550">
        <ele>304.972</ele>
        <time>2019-03-26T23:55:05Z</time>
      </trkpt>
      <trkpt lat="43.470390" lon="-5.662710">
        <ele>298.443</ele>
        <time>2019-03-26T23:55:25Z</time>
      </trkpt>
      <trkpt lat="43.470710" lon="-5.663050">
        <ele>294.814</ele>
        <time>2019-03-26T23:55:45Z</time>
      </trkpt>
      <trkpt lat="43.470990" lon="-5.663680">
        <ele>288.183</ele>
        <time>2019-03-26T23:56:05Z</time>
      </trkpt>
      <trkpt lat="43.471170" lon="-5.664170">
        <ele>283.815</ele>
        <time>2019-03-26T23:56:25Z</time>
      </trkpt>
      <trkpt lat="43.471430" lon="-5.664710">
        <ele>279.533</ele>
        <time>2019-03-26T23:56:45Z</time>
      </trkpt>
      <trkpt lat="43.471650" lon="-5.664870">
        <ele>276.416</ele>
        <time>2019-03-26T23:57:05Z</time>
      </trkpt>
      <trkpt lat="43.471770" lon="-5.665150">
        <ele>274.678</ele>
        <time>2019-03-26T23:57:25Z</time>
      </trkpt>
      <trkpt lat="43.471760" lon="-5.665270">
        <ele>273.815</ele>
        <time>2019-03-26T23:57:45Z</time>
      </trkpt>
      <trkpt lat="43.471810" lon="-5.665530">
        <ele>272.365</ele>
        <time>2019-03-26T23:58:05Z</time>
      </trkpt>
      <trkpt lat="43.472020" lon="-5.665670">
        <ele>270.411</ele>
        <time>2019-03-26T23:58:25Z</time>
      </trkpt>
      <trkpt lat="43.472210" lon="-5.665930">
        <ele>268.308</ele>
        <time>2019-03-26T23:58:45Z</time>
      </trkpt>
      <trkpt lat="43.472360" lon="-5.666260">
        <ele>265.154</ele>
        <time>2019-03-26T23:59:05Z</time>
      </trkpt>
      <trkpt lat="43.472540" lon="-5.666420">
        <ele>264.725</ele>
        <time>2019-03-26T23:59:25Z</time>
      </trkpt>
      <trkpt lat="43.472850" lon="-5.666450">
        <ele>265.566</ele>
        <time>2019-03-26T23:59:45Z</time>
      </trkpt>
      <trkpt lat="43.473220" lon="-5.666630">
        <ele>267.095</ele>
        <time>2019-03-27T00:00:05Z</time>
      </trkpt>
      <trkpt lat="43.473750" lon="-5.666920">
        <ele>265.837</ele>
        <time>2019-03-27T00:00:25Z</time>
      </trkpt>
      <trkpt lat="43.474260" lon="-5.667480">
        <ele>252.395</ele>
        <time>2019-03-27T00:00:45Z</time>
      </trkpt>
      <trkpt lat="43.474550" lon="-5.667580">
        <ele>246.638</ele>
        <time>2019-03-27T00:01:05Z</time>
      </trkpt>
      <trkpt lat="43.474870" lon="-5.667590">
        <ele>240.260</ele>
        <time>2019-03-27T00:01:25Z</time>
      </trkpt>
      <trkpt lat="43.474980" lon="-5.667460">
        <ele>235.739</ele>
        <time>2019-03-27T00:01:45Z</time>
      </trkpt>
      <trkpt lat="43.474720" lon="-5.666540">
        <ele>230.401</ele>
        <time>2019-03-27T00:02:05Z</time>
      </trkpt>
      <trkpt lat="43.474770" lon="-5.665320">
        <ele>226.821</ele>
        <time>2019-03-27T00:02:25Z</time>
      </trkpt>
      <trkpt lat="43.474880" lon="-5.665070">
        <ele>224.508</ele>
        <time>2019-03-27T00:02:45Z</time>
      </trkpt>
      <trkpt lat="43.474910" lon="-5.664930">
        <ele>223.546</ele>
        <time>2019-03-27T00:03:05Z</time>
      </trkpt>
      <trkpt lat="43.474910" lon="-5.664410">
        <ele>216.377</ele>
        <time>2019-03-27T00:03:25Z</time>
      </trkpt>
      <trkpt lat="43.474940" lon="-5.663920">
        <ele>212.588</ele>
        <time>2019-03-27T00:03:45Z</time>
      </trkpt>
      <trkpt lat="43.474990" lon="-5.663680">
        <ele>209.887</ele>
        <time>2019-03-27T00:04:05Z</time>
      </trkpt>
      <trkpt lat="43.475170" lon="-5.663400">
        <ele>205.859</ele>
        <time>2019-03-27T00:04:25Z</time>
      </trkpt>
      <trkpt lat="43.475440" lon="-5.663070">
        <ele>196.957</ele>
        <time>2019-03-27T00:04:45Z</time>
      </trkpt>
      <trkpt lat="43.475560" lon="-5.662690">
        <ele>189.610</ele>
        <time>2019-03-27T00:05:05Z</time>
      </trkpt>
      <trkpt lat="43.475990" lon="-5.662460">
        <ele>180.432</ele>
        <time>2019-03-27T00:05:25Z</time>
      </trkpt>
      <trkpt lat="43.476350" lon="-5.662130">
        <ele>172.166</ele>
        <time>2019-03-27T00:05:45Z</time>
      </trkpt>
      <trkpt lat="43.476390" lon="-5.662270">
        <ele>170.929</ele>
        <time>2019-03-27T00:06:05Z</time>
      </trkpt>
      <trkpt lat="43.476180" lon="-5.662770">
        <ele>164.821</ele>
        <time>2019-03-27T00:06:25Z</time>
      </trkpt>
      <trkpt lat="43.476310" lon="-5.662860">
        <ele>162.708</ele>
        <time>2019-03-27T00:06:45Z</time>
      </trkpt>
      <trkpt lat="43.476600" lon="-5.662700">
        <ele>158.159</ele>
        <time>2019-03-27T00:07:05Z</time>
      </trkpt>
      <trkpt lat="43.476590" lon="-5.662700">
        <ele>158.160</ele>
        <time>2019-03-27T00:07:25Z</time>
      </trkpt>
      <trkpt lat="43.476500" lon="-5.663040">
        <ele>157.091</ele>
        <time>2019-03-27T00:07:45Z</time>
      </trkpt>
      <trkpt lat="43.476560" lon="-5.663520">
        <ele>154.160</ele>
        <time>2019-03-27T00:08:05Z</time>
      </trkpt>
      <trkpt lat="43.476590" lon="-5.664010">
        <ele>148.842</ele>
        <time>2019-03-27T00:08:25Z</time>
      </trkpt>
      <trkpt lat="43.476550" lon="-5.664530">
        <ele>145.360</ele>
        <time>2019-03-27T00:08:45Z</time>
      </trkpt>
      <trkpt lat="43.476550" lon="-5.664780">
        <ele>143.463</ele>
        <time>2019-03-27T00:09:05Z</time>
      </trkpt>
      <trkpt lat="43.476580" lon="-5.665040">
        <ele>141.585</ele>
        <time>2019-03-27T00:09:25Z</time>
      </trkpt>
      <trkpt lat="43.476740" lon="-5.665530">
        <ele>140.667</ele>
        <time>2019-03-27T00:09:45Z</time>
      </trkpt>
      <trkpt lat="43.476900" lon="-5.665720">
        <ele>140.081</ele>
        <time>2019-03-27T00:10:05Z</time>
      </trkpt>
      <trkpt lat="43.477130" lon="-5.665950">
        <ele>136.119</ele>
        <time>2019-03-27T00:10:25Z</time>
      </trkpt>
      <trkpt lat="43.477160" lon="-5.665960">
        <ele>134.908</ele>
        <time>2019-03-27T00:10:45Z</time>
      </trkpt>
      <trkpt lat="43.477290" lon="-5.665820">
        <ele>130.919</ele>
        <time>2019-03-27T00:11:05Z</time>
      </trkpt>
      <trkpt lat="43.477330" lon="-5.665810">
        <ele>130.990</ele>
        <time>2019-03-27T00:11:25Z</time>
      </trkpt>
      <trkpt lat="43.477360" lon="-5.665860">
        <ele>128.491</ele>
        <time>2019-03-27T00:11:45Z</time>
      </trkpt>
      <trkpt lat="43.477400" lon="-5.666020">
        <ele>126.930</ele>
        <time>2019-03-27T00:12:05Z</time>
      </trkpt>
      <trkpt lat="43.477420" lon="-5.666380">
        <ele>122.512</ele>
        <time>2019-03-27T00:12:25Z</time>
      </trkpt>
      <trkpt lat="43.477480" lon="-5.666590">
        <ele>119.640</ele>
        <time>2019-03-27T00:12:45Z</time>
      </trkpt>
      <trkpt lat="43.477530" lon="-5.666630">
        <ele>118.933</ele>
        <time>2019-03-27T00:13:05Z</time>
      </trkpt>
      <trkpt lat="43.477780" lon="-5.666700">
        <ele>117.165</ele>
        <time>2019-03-27T00:13:25Z</time>
      </trkpt>
      <trkpt lat="43.478110" lon="-5.666840">
        <ele>112.628</ele>
        <time>2019-03-27T00:13:45Z</time>
      </trkpt>
      <trkpt lat="43.478360" lon="-5.667030">
        <ele>109.289</ele>
        <time>2019-03-27T00:14:05Z</time>
      </trkpt>
      <trkpt lat="43.478540" lon="-5.667310">
        <ele>104.817</ele>
        <time>2019-03-27T00:14:25Z</time>
      </trkpt>
      <trkpt lat="43.478670" lon="-5.667570">
        <ele>100.208</ele>
        <time>2019-03-27T00:14:45Z</time>
      </trkpt>
      <trkpt lat="43.478930" lon="-5.667900">
        <ele>94.195</ele>
        <time>2019-03-27T00:15:05Z</time>
      </trkpt>
      <trkpt lat="43.478980" lon="-5.667950">
        <ele>94.116</ele>
        <time>2019-03-27T00:15:25Z</time>
      </trkpt>
      <trkpt lat="43.479120" lon="-5.667970">
        <ele>92.647</ele>
        <time>2019-03-27T00:15:45Z</time>
      </trkpt>
      <trkpt lat="43.479170" lon="-5.667950">
        <ele>92.646</ele>
        <time>2019-03-27T00:16:05Z</time>
      </trkpt>
      <trkpt lat="43.479200" lon="-5.667970">
        <ele>92.698</ele>
        <time>2019-03-27T00:16:25Z</time>
      </trkpt>
      <trkpt lat="43.479200" lon="-5.668060">
        <ele>92.626</ele>
        <time>2019-03-27T00:16:45Z</time>
      </trkpt>
      <trkpt lat="43.479160" lon="-5.668160">
        <ele>91.279</ele>
        <time>2019-03-27T00:17:05Z</time>
      </trkpt>
      <trkpt lat="43.479310" lon="-5.668440">
        <ele>89.491</ele>
        <time>2019-03-27T00:17:25Z</time>
      </trkpt>
      <trkpt lat="43.479640" lon="-5.668630">
        <ele>85.542</ele>
        <time>2019-03-27T00:17:45Z</time>
      </trkpt>
      <trkpt lat="43.479980" lon="-5.668390">
        <ele>82.822</ele>
        <time>2019-03-27T00:18:05Z</time>
      </trkpt>
      <trkpt lat="43.480480" lon="-5.667900">
        <ele>81.914</ele>
        <time>2019-03-27T00:18:25Z</time>
      </trkpt>
      <trkpt lat="43.480780" lon="-5.667790">
        <ele>83.208</ele>
        <time>2019-03-27T00:18:45Z</time>
      </trkpt>
      <trkpt lat="43.481240" lon="-5.667835">
        <ele>83.897</ele>
        <time>2019-03-27T00:19:05Z</time>
      </trkpt>
      <trkpt lat="43.481700" lon="-5.667880">
        <ele>84.698</ele>
        <time>2019-03-27T00:19:25Z</time>
      </trkpt>
      <trkpt lat="43.482460" lon="-5.667880">
        <ele>87.979</ele>
        <time>2019-03-27T00:19:45Z</time>
      </trkpt>
      <trkpt lat="43.482890" lon="-5.668180">
        <ele>90.238</ele>
        <time>2019-03-27T00:20:05Z</time>
      </trkpt>
      <trkpt lat="43.483320" lon="-5.667500">
        <ele>87.930</ele>
        <time>2019-03-27T00:20:25Z</time>
      </trkpt>
      <trkpt lat="43.483705" lon="-5.668075">
        <ele>85.958</ele>
        <time>2019-03-27T00:20:45Z</time>
      </trkpt>
      <trkpt lat="43.484090" lon="-5.668650">
        <ele>82.281</ele>
        <time>2019-03-27T00:21:05Z</time>
      </trkpt>
      <trkpt lat="43.484180" lon="-5.668720">
        <ele>82.293</ele>
        <time>2019-03-27T00:21:25Z</time>
      </trkpt>
      <trkpt lat="43.484230" lon="-5.668740">
        <ele>79.857</ele>
        <time>2019-03-27T00:21:45Z</time>
      </trkpt>
      <trkpt lat="43.485060" lon="-5.668720">
        <ele>74.000</ele>
        <time>2019-03-27T00:22:05Z</time>
      </trkpt>
      <trkpt lat="43.485090" lon="-5.668740">
        <ele>74.020</ele>
        <time>2019-03-27T00:22:25Z</time>
      </trkpt>
      <trkpt lat="43.485090" lon="-5.668880">
        <ele>74.108</ele>
        <time>2019-03-27T00:22:45Z</time>
      </trkpt>
      <trkpt lat="43.485090" lon="-5.668740">
        <ele>74.018</ele>
        <time>2019-03-27T00:23:05Z</time>
      </trkpt>
      <trkpt lat="43.485150" lon="-5.668760">
        <ele>74.089</ele>
        <time>2019-03-27T00:23:25Z</time>
      </trkpt>
      <trkpt lat="43.485300" lon="-5.668910">
        <ele>73.610</ele>
        <time>2019-03-27T00:23:45Z</time>
      </trkpt>
      <trkpt lat="43.485380" lon="-5.669100">
        <ele>72.679</ele>
        <time>2019-03-27T00:24:05Z</time>
      </trkpt>
      <trkpt lat="43.485420" lon="-5.669550">
        <ele>70.081</ele>
        <time>2019-03-27T00:24:25Z</time>
      </trkpt>
      <trkpt lat="43.485460" lon="-5.669730">
        <ele>69.769</ele>
        <time>2019-03-27T00:24:45Z</time>
      </trkpt>
      <trkpt lat="43.485620" lon="-5.670080">
        <ele>69.982</ele>
        <time>2019-03-27T00:25:05Z</time>
      </trkpt>
      <trkpt lat="43.485660" lon="-5.670200">
        <ele>70.364</ele>
        <time>2019-03-27T00:25:25Z</time>
      </trkpt>
      <trkpt lat="43.485670" lon="-5.670370">
        <ele>70.667</ele>
        <time>2019-03-27T00:25:45Z</time>
      </trkpt>
      <trkpt lat="43.485650" lon="-5.670570">
        <ele>71.581</ele>
        <time>2019-03-27T00:26:05Z</time>
      </trkpt>
      <trkpt lat="43.485700" lon="-5.670620">
        <ele>71.319</ele>
        <time>2019-03-27T00:26:25Z</time>
      </trkpt>
      <trkpt lat="43.485760" lon="-5.670810">
        <ele>71.108</ele>
        <time>2019-03-27T00:26:45Z</time>
      </trkpt>
      <trkpt lat="43.485840" lon="-5.670970">
        <ele>70.559</ele>
        <time>2019-03-27T00:27:05Z</time>
      </trkpt>
      <trkpt lat="43.486020" lon="-5.671140">
        <ele>70.270</ele>
        <time>2019-03-27T00:27:25Z</time>
      </trkpt>
      <trkpt lat="43.486310" lon="-5.671140">
        <ele>69.941</ele>
        <time>2019-03-27T00:27:45Z</time>
      </trkpt>
      <trkpt lat="43.486830" lon="-5.671170">
        <ele>67.930</ele>
        <time>2019-03-27T00:28:05Z</time>
      </trkpt>
      <trkpt lat="43.487120" lon="-5.671300">
        <ele>66.862</ele>
        <time>2019-03-27T00:28:25Z</time>
      </trkpt>
      <trkpt lat="43.487380" lon="-5.671540">
        <ele>64.880</ele>
        <time>2019-03-27T00:28:45Z</time>
      </trkpt>
      <trkpt lat="43.487430" lon="-5.671560">
        <ele>64.013</ele>
        <time>2019-03-27T00:29:05Z</time>
      </trkpt>
      <trkpt lat="43.487510" lon="-5.671540">
        <ele>64.035</ele>
        <time>2019-03-27T00:29:25Z</time>
      </trkpt>
      <trkpt lat="43.487590" lon="-5.671470">
        <ele>63.424</ele>
        <time>2019-03-27T00:29:45Z</time>
      </trkpt>
      <trkpt lat="43.487660" lon="-5.671350">
        <ele>63.004</ele>
        <time>2019-03-27T00:30:05Z</time>
      </trkpt>
      <trkpt lat="43.487700" lon="-5.671200">
        <ele>62.514</ele>
        <time>2019-03-27T00:30:25Z</time>
      </trkpt>
      <trkpt lat="43.487700" lon="-5.671220">
        <ele>62.508</ele>
        <time>2019-03-27T00:30:45Z</time>
      </trkpt>
      <trkpt lat="43.487760" lon="-5.671040">
        <ele>61.435</ele>
        <time>2019-03-27T00:31:05Z</time>
      </trkpt>
      <trkpt lat="43.487850" lon="-5.671000">
        <ele>60.486</ele>
        <time>2019-03-27T00:31:25Z</time>
      </trkpt>
      <trkpt lat="43.488090" lon="-5.671120">
        <ele>58.417</ele>
        <time>2019-03-27T00:31:45Z</time>
      </trkpt>
      <trkpt lat="43.488130" lon="-5.671100">
        <ele>58.476</ele>
        <time>2019-03-27T00:32:05Z</time>
      </trkpt>
      <trkpt lat="43.488220" lon="-5.670910">
        <ele>56.678</ele>
        <time>2019-03-27T00:32:25Z</time>
      </trkpt>
      <trkpt lat="43.488330" lon="-5.670860">
        <ele>56.086</ele>
        <time>2019-03-27T00:32:45Z</time>
      </trkpt>
      <trkpt lat="43.488420" lon="-5.670740">
        <ele>56.099</ele>
        <time>2019-03-27T00:33:05Z</time>
      </trkpt>
      <trkpt lat="43.488740" lon="-5.670180">
        <ele>54.031</ele>
        <time>2019-03-27T00:33:25Z</time>
      </trkpt>
      <trkpt lat="43.488830" lon="-5.669940">
        <ele>54.098</ele>
        <time>2019-03-27T00:33:45Z</time>
      </trkpt>
      <trkpt lat="43.488950" lon="-5.669480">
        <ele>53.915</ele>
        <time>2019-03-27T00:34:05Z</time>
      </trkpt>
      <trkpt lat="43.488970" lon="-5.669140">
        <ele>53.926</ele>
        <time>2019-03-27T00:34:25Z</time>
      </trkpt>
      <trkpt lat="43.489040" lon="-5.669010">
        <ele>53.908</ele>
        <time>2019-03-27T00:34:45Z</time>
      </trkpt>
      <trkpt lat="43.489330" lon="-5.668660">
        <ele>53.592</ele>
        <time>2019-03-27T00:35:05Z</time>
      </trkpt>
      <trkpt lat="43.489620" lon="-5.668440">
        <ele>52.483</ele>
        <time>2019-03-27T00:35:25Z</time>
      </trkpt>
      <trkpt lat="43.489950" lon="-5.668300">
        <ele>51.714</ele>
        <time>2019-03-27T00:35:45Z</time>
      </trkpt>
      <trkpt lat="43.490150" lon="-5.668090">
        <ele>51.513</ele>
        <time>2019-03-27T00:36:05Z</time>
      </trkpt>
      <trkpt lat="43.490240" lon="-5.667950">
        <ele>51.165</ele>
        <time>2019-03-27T00:36:25Z</time>
      </trkpt>
      <trkpt lat="43.490310" lon="-5.667550">
        <ele>50.063</ele>
        <time>2019-03-27T00:36:45Z</time>
      </trkpt>
      <trkpt lat="43.490200" lon="-5.667080">
        <ele>49.616</ele>
        <time>2019-03-27T00:37:05Z</time>
      </trkpt>
      <trkpt lat="43.490130" lon="-5.666940">
        <ele>49.688</ele>
        <time>2019-03-27T00:37:25Z</time>
      </trkpt>
      <trkpt lat="43.490030" lon="-5.666870">
        <ele>49.611</ele>
        <time>2019-03-27T00:37:45Z</time>
      </trkpt>
      <trkpt lat="43.490010" lon="-5.666800">
        <ele>49.621</ele>
        <time>2019-03-27T00:38:05Z</time>
      </trkpt>
      <trkpt lat="43.490110" lon="-5.666700">
        <ele>49.603</ele>
        <time>2019-03-27T00:38:25Z</time>
      </trkpt>
      <trkpt lat="43.490140" lon="-5.666470">
        <ele>49.508</ele>
        <time>2019-03-27T00:38:45Z</time>
      </trkpt>
      <trkpt lat="43.490250" lon="-5.666300">
        <ele>49.484</ele>
        <time>2019-03-27T00:39:05Z</time>
      </trkpt>
      <trkpt lat="43.490390" lon="-5.665930">
        <ele>48.615</ele>
        <time>2019-03-27T00:39:25Z</time>
      </trkpt>
      <trkpt lat="43.490440" lon="-5.665910">
        <ele>48.696</ele>
        <time>2019-03-27T00:39:45Z</time>
      </trkpt>
      <trkpt lat="43.490550" lon="-5.665950">
        <ele>48.045</ele>
        <time>2019-03-27T00:40:05Z</time>
      </trkpt>
      <trkpt lat="43.491010" lon="-5.665740">
        <ele>47.537</ele>
        <time>2019-03-27T00:40:25Z</time>
      </trkpt>
      <trkpt lat="43.491110" lon="-5.665650">
        <ele>47.495</ele>
        <time>2019-03-27T00:40:45Z</time>
      </trkpt>
      <trkpt lat="43.491210" lon="-5.665510">
        <ele>47.418</ele>
        <time>2019-03-27T00:41:05Z</time>
      </trkpt>
      <trkpt lat="43.491240" lon="-5.665440">
        <ele>47.410</ele>
        <time>2019-03-27T00:41:25Z</time>
      </trkpt>
      <trkpt lat="43.491250" lon="-5.665140">
        <ele>47.455</ele>
        <time>2019-03-27T00:41:45Z</time>
      </trkpt>
      <trkpt lat="43.491390" lon="-5.665070">
        <ele>47.307</ele>
        <time>2019-03-27T00:42:05Z</time>
      </trkpt>
      <trkpt lat="43.491450" lon="-5.664970">
        <ele>47.317</ele>
        <time>2019-03-27T00:42:25Z</time>
      </trkpt>
      <trkpt lat="43.491470" lon="-5.664780">
        <ele>47.108</ele>
        <time>2019-03-27T00:42:45Z</time>
      </trkpt>
      <trkpt lat="43.491380" lon="-5.664600">
        <ele>46.518</ele>
        <time>2019-03-27T00:43:05Z</time>
      </trkpt>
      <trkpt lat="43.491290" lon="-5.664260">
        <ele>45.749</ele>
        <time>2019-03-27T00:43:25Z</time>
      </trkpt>
      <trkpt lat="43.491300" lon="-5.664220">
        <ele>45.760</ele>
        <time>2019-03-27T00:43:45Z</time>
      </trkpt>
      <trkpt lat="43.491400" lon="-5.664170">
        <ele>45.599</ele>
        <time>2019-03-27T00:44:05Z</time>
      </trkpt>
      <trkpt lat="43.491420" lon="-5.664100">
        <ele>45.321</ele>
        <time>2019-03-27T00:44:25Z</time>
      </trkpt>
      <trkpt lat="43.491410" lon="-5.663860">
        <ele>45.369</ele>
        <time>2019-03-27T00:44:45Z</time>
      </trkpt>
      <trkpt lat="43.491420" lon="-5.663420">
        <ele>45.382</ele>
        <time>2019-03-27T00:45:05Z</time>
      </trkpt>
      <trkpt lat="43.491520" lon="-5.663240">
        <ele>45.294</ele>
        <time>2019-03-27T00:45:25Z</time>
      </trkpt>
      <trkpt lat="43.491530" lon="-5.663180">
        <ele>45.263</ele>
        <time>2019-03-27T00:45:45Z</time>
      </trkpt>
      <trkpt lat="43.491470" lon="-5.662900">
        <ele>44.944</ele>
        <time>2019-03-27T00:46:05Z</time>
      </trkpt>
      <trkpt lat="43.491470" lon="-5.662830">
        <ele>44.618</ele>
        <time>2019-03-27T00:46:25Z</time>
      </trkpt>
      <trkpt lat="43.491540" lon="-5.662720">
        <ele>43.908</ele>
        <time>2019-03-27T00:46:45Z</time>
      </trkpt>
      <trkpt lat="43.491800" lon="-5.662530">
        <ele>43.339</ele>
        <time>2019-03-27T00:47:05Z</time>
      </trkpt>
      <trkpt lat="43.491880" lon="-5.662290">
        <ele>43.260</ele>
        <time>2019-03-27T00:47:25Z</time>
      </trkpt>
      <trkpt lat="43.491990" lon="-5.662130">
        <ele>43.141</ele>
        <time>2019-03-27T00:47:45Z</time>
      </trkpt>
      <trkpt lat="43.492070" lon="-5.661870">
        <ele>43.160</ele>
        <time>2019-03-27T00:48:05Z</time>
      </trkpt>
      <trkpt lat="43.492260" lon="-5.661680">
        <ele>43.172</ele>
        <time>2019-03-27T00:48:25Z</time>
      </trkpt>
      <trkpt lat="43.492600" lon="-5.661680">
        <ele>42.920</ele>
        <time>2019-03-27T00:48:45Z</time>
      </trkpt>
      <trkpt lat="43.493250" lon="-5.661240">
        <ele>41.343</ele>
        <time>2019-03-27T00:49:05Z</time>
      </trkpt>
      <trkpt lat="43.493480" lon="-5.660900">
        <ele>41.035</ele>
        <time>2019-03-27T00:49:25Z</time>
      </trkpt>
      <trkpt lat="43.493580" lon="-5.660810">
        <ele>40.946</ele>
        <time>2019-03-27T00:49:45Z</time>
      </trkpt>
      <trkpt lat="43.493740" lon="-5.660810">
        <ele>40.688</ele>
        <time>2019-03-27T00:50:05Z</time>
      </trkpt>
      <trkpt lat="43.494030" lon="-5.660560">
        <ele>40.316</ele>
        <time>2019-03-27T00:50:25Z</time>
      </trkpt>
      <trkpt lat="43.494240" lon="-5.660560">
        <ele>39.708</ele>
        <time>2019-03-27T00:50:45Z</time>
      </trkpt>
      <trkpt lat="43.494290" lon="-5.660530">
        <ele>39.727</ele>
        <time>2019-03-27T00:51:05Z</time>
      </trkpt>
      <trkpt lat="43.494240" lon="-5.660330">
        <ele>39.298</ele>
        <time>2019-03-27T00:51:25Z</time>
      </trkpt>
      <trkpt lat="43.494250" lon="-5.660270">
        <ele>39.249</ele>
        <time>2019-03-27T00:51:45Z</time>
      </trkpt>
      <trkpt lat="43.494410" lon="-5.660200">
        <ele>39.218</ele>
        <time>2019-03-27T00:52:05Z</time>
      </trkpt>
      <trkpt lat="43.494450" lon="-5.660110">
        <ele>38.710</ele>
        <time>2019-03-27T00:52:25Z</time>
      </trkpt>
      <trkpt lat="43.494510" lon="-5.659830">
        <ele>38.548</ele>
        <time>2019-03-27T00:52:45Z</time>
      </trkpt>
      <trkpt lat="43.494590" lon="-5.659570">
        <ele>38.311</ele>
        <time>2019-03-27T00:53:05Z</time>
      </trkpt>
      <trkpt lat="43.494550" lon="-5.659360">
        <ele>38.143</ele>
        <time>2019-03-27T00:53:25Z</time>
      </trkpt>
      <trkpt lat="43.494600" lon="-5.659270">
        <ele>38.015</ele>
        <time>2019-03-27T00:53:45Z</time>
      </trkpt>
      <trkpt lat="43.495030" lon="-5.658730">
        <ele>37.465</ele>
        <time>2019-03-27T00:54:05Z</time>
      </trkpt>
      <trkpt lat="43.495060" lon="-5.658640">
        <ele>37.411</ele>
        <time>2019-03-27T00:54:25Z</time>
      </trkpt>
      <trkpt lat="43.495090" lon="-5.658420">
        <ele>37.308</ele>
        <time>2019-03-27T00:54:45Z</time>
      </trkpt>
      <trkpt lat="43.495140" lon="-5.658290">
        <ele>37.324</ele>
        <time>2019-03-27T00:55:05Z</time>
      </trkpt>
      <trkpt lat="43.495170" lon="-5.658100">
        <ele>37.295</ele>
        <time>2019-03-27T00:55:25Z</time>
      </trkpt>
      <trkpt lat="43.495380" lon="-5.657670">
        <ele>36.976</ele>
        <time>2019-03-27T00:55:45Z</time>
      </trkpt>
      <trkpt lat="43.495440" lon="-5.657510">
        <ele>36.985</ele>
        <time>2019-03-27T00:56:05Z</time>
      </trkpt>
      <trkpt lat="43.495510" lon="-5.657060">
        <ele>36.817</ele>
        <time>2019-03-27T00:56:25Z</time>
      </trkpt>
      <trkpt lat="43.495590" lon="-5.656970">
        <ele>36.825</ele>
        <time>2019-03-27T00:56:45Z</time>
      </trkpt>
      <trkpt lat="43.495760" lon="-5.657010">
        <ele>36.848</ele>
        <time>2019-03-27T00:57:05Z</time>
      </trkpt>
      <trkpt lat="43.495830" lon="-5.656970">
        <ele>36.840</ele>
        <time>2019-03-27T00:57:25Z</time>
      </trkpt>
      <trkpt lat="43.495920" lon="-5.656760">
        <ele>36.766</ele>
        <time>2019-03-27T00:57:45Z</time>
      </trkpt>
      <trkpt lat="43.496050" lon="-5.656670">
        <ele>36.529</ele>
        <time>2019-03-27T00:58:05Z</time>
      </trkpt>
      <trkpt lat="43.496160" lon="-5.656450">
        <ele>36.321</ele>
        <time>2019-03-27T00:58:25Z</time>
      </trkpt>
      <trkpt lat="43.496170" lon="-5.656240">
        <ele>35.908</ele>
        <time>2019-03-27T00:58:45Z</time>
      </trkpt>
      <trkpt lat="43.496470" lon="-5.655890">
        <ele>35.549</ele>
        <time>2019-03-27T00:59:05Z</time>
      </trkpt>
      <trkpt lat="43.496590" lon="-5.655840">
        <ele>35.560</ele>
        <time>2019-03-27T00:59:25Z</time>
      </trkpt>
      <trkpt lat="43.496710" lon="-5.655580">
        <ele>35.141</ele>
        <time>2019-03-27T00:59:45Z</time>
      </trkpt>
      <trkpt lat="43.496770" lon="-5.655370">
        <ele>35.280</ele>
        <time>2019-03-27T01:00:05Z</time>
      </trkpt>
      <trkpt lat="43.496880" lon="-5.655210">
        <ele>35.432</ele>
        <time>2019-03-27T01:00:25Z</time>
      </trkpt>
      <trkpt lat="43.496870" lon="-5.655040">
        <ele>35.580</ele>
        <time>2019-03-27T01:00:45Z</time>
      </trkpt>
      <trkpt lat="43.496650" lon="-5.654160">
        <ele>34.843</ele>
        <time>2019-03-27T01:01:05Z</time>
      </trkpt>
      <trkpt lat="43.496650" lon="-5.653850">
        <ele>34.445</ele>
        <time>2019-03-27T01:01:25Z</time>
      </trkpt>
      <trkpt lat="43.496690" lon="-5.653660">
        <ele>34.319</ele>
        <time>2019-03-27T01:01:45Z</time>
      </trkpt>
      <trkpt lat="43.496910" lon="-5.653220">
        <ele>34.009</ele>
        <time>2019-03-27T01:02:05Z</time>
      </trkpt>
      <trkpt lat="43.497100" lon="-5.653140">
        <ele>33.919</ele>
        <time>2019-03-27T01:02:25Z</time>
      </trkpt>
      <trkpt lat="43.497240" lon="-5.652980">
        <ele>33.808</ele>
        <time>2019-03-27T01:02:45Z</time>
      </trkpt>
      <trkpt lat="43.497280" lon="-5.652720">
        <ele>33.684</ele>
        <time>2019-03-27T01:03:05Z</time>
      </trkpt>
      <trkpt lat="43.497350" lon="-5.652610">
        <ele>33.515</ele>
        <time>2019-03-27T01:03:25Z</time>
      </trkpt>
      <trkpt lat="43.497360" lon="-5.652560">
        <ele>33.546</ele>
        <time>2019-03-27T01:03:45Z</time>
      </trkpt>
      <trkpt lat="43.497330" lon="-5.652490">
        <ele>33.585</ele>
        <time>2019-03-27T01:04:05Z</time>
      </trkpt>
      <trkpt lat="43.497310" lon="-5.652260">
        <ele>33.057</ele>
        <time>2019-03-27T01:04:25Z</time>
      </trkpt>
      <trkpt lat="43.497230" lon="-5.652050">
        <ele>32.665</ele>
        <time>2019-03-27T01:04:45Z</time>
      </trkpt>
      <trkpt lat="43.497210" lon="-5.651780">
        <ele>32.428</ele>
        <time>2019-03-27T01:05:05Z</time>
      </trkpt>
      <trkpt lat="43.497170" lon="-5.651640">
        <ele>32.360</ele>
        <time>2019-03-27T01:05:25Z</time>
      </trkpt>
      <trkpt lat="43.497190" lon="-5.651450">
        <ele>32.184</ele>
        <time>2019-03-27T01:05:45Z</time>
      </trkpt>
      <trkpt lat="43.497130" lon="-5.651310">
        <ele>31.907</ele>
        <time>2019-03-27T01:06:05Z</time>
      </trkpt>
      <trkpt lat="43.497120" lon="-5.651170">
        <ele>31.917</ele>
        <time>2019-03-27T01:06:25Z</time>
      </trkpt>
      <trkpt lat="43.497250" lon="-5.650700">
        <ele>31.908</ele>
        <time>2019-03-27T01:06:45Z</time>
      </trkpt>
      <trkpt lat="43.497310" lon="-5.650610">
        <ele>31.951</ele>
        <time>2019-03-27T01:07:05Z</time>
      </trkpt>
      <trkpt lat="43.497430" lon="-5.650500">
        <ele>31.832</ele>
        <time>2019-03-27T01:07:25Z</time>
      </trkpt>
      <trkpt lat="43.497560" lon="-5.650350">
        <ele>31.743</ele>
        <time>2019-03-27T01:07:45Z</time>
      </trkpt>
      <trkpt lat="43.497710" lon="-5.650280">
        <ele>31.592</ele>
        <time>2019-03-27T01:08:05Z</time>
      </trkpt>
      <trkpt lat="43.498040" lon="-5.649910">
        <ele>31.224</ele>
        <time>2019-03-27T01:08:25Z</time>
      </trkpt>
      <trkpt lat="43.498540" lon="-5.649670">
        <ele>30.552</ele>
        <time>2019-03-27T01:08:45Z</time>
      </trkpt>
      <trkpt lat="43.498850" lon="-5.649600">
        <ele>30.385</ele>
        <time>2019-03-27T01:09:05Z</time>
      </trkpt>
      <trkpt lat="43.498980" lon="-5.649550">
        <ele>30.327</ele>
        <time>2019-03-27T01:09:25Z</time>
      </trkpt>
      <trkpt lat="43.499100" lon="-5.649350">
        <ele>30.212</ele>
        <time>2019-03-27T01:09:45Z</time>
      </trkpt>
      <trkpt lat="43.499150" lon="-5.649060">
        <ele>30.032</ele>
        <time>2019-03-27T01:10:05Z</time>
      </trkpt>
      <trkpt lat="43.499130" lon="-5.648920">
        <ele>30.005</ele>
        <time>2019-03-27T01:10:25Z</time>
      </trkpt>
      <trkpt lat="43.499150" lon="-5.648850">
        <ele>30.008</ele>
        <time>2019-03-27T01:10:45Z</time>
      </trkpt>
      <trkpt lat="43.499210" lon="-5.648870">
        <ele>29.984</ele>
        <time>2019-03-27T01:11:05Z</time>
      </trkpt>
      <trkpt lat="43.499270" lon="-5.648990">
        <ele>29.985</ele>
        <time>2019-03-27T01:11:25Z</time>
      </trkpt>
      <trkpt lat="43.499360" lon="-5.649090">
        <ele>29.656</ele>
        <time>2019-03-27T01:11:45Z</time>
      </trkpt>
      <trkpt lat="43.499580" lon="-5.649040">
        <ele>29.575</ele>
        <time>2019-03-27T01:12:05Z</time>
      </trkpt>
      <trkpt lat="43.499780" lon="-5.649060">
        <ele>29.437</ele>
        <time>2019-03-27T01:12:25Z</time>
      </trkpt>
      <trkpt lat="43.500380" lon="-5.648900">
        <ele>28.275</ele>
        <time>2019-03-27T01:12:45Z</time>
      </trkpt>
      <trkpt lat="43.500550" lon="-5.648710">
        <ele>27.778</ele>
        <time>2019-03-27T01:13:05Z</time>
      </trkpt>
      <trkpt lat="43.500940" lon="-5.648500">
        <ele>27.290</ele>
        <time>2019-03-27T01:13:25Z</time>
      </trkpt>
      <trkpt lat="43.501090" lon="-5.648520">
        <ele>27.038</ele>
        <time>2019-03-27T01:13:45Z</time>
      </trkpt>
      <trkpt lat="43.501180" lon="-5.648570">
        <ele>27.170</ele>
        <time>2019-03-27T01:14:05Z</time>
      </trkpt>
      <trkpt lat="43.501620" lon="-5.649110">
        <ele>25.817</ele>
        <time>2019-03-27T01:14:25Z</time>
      </trkpt>
      <trkpt lat="43.501850" lon="-5.649250">
        <ele>26.108</ele>
        <time>2019-03-27T01:14:45Z</time>
      </trkpt>
      <trkpt lat="43.502030" lon="-5.649460">
        <ele>26.216</ele>
        <time>2019-03-27T01:15:05Z</time>
      </trkpt>
      <trkpt lat="43.502160" lon="-5.649830">
        <ele>25.527</ele>
        <time>2019-03-27T01:15:25Z</time>
      </trkpt>
      <trkpt lat="43.502320" lon="-5.650290">
        <ele>25.458</ele>
        <time>2019-03-27T01:15:45Z</time>
      </trkpt>
      <trkpt lat="43.502575" lon="-5.650825">
        <ele>25.687</ele>
        <time>2019-03-27T01:16:05Z</time>
      </trkpt>
      <trkpt lat="43.502830" lon="-5.651360">
        <ele>26.489</ele>
        <time>2019-03-27T01:16:25Z</time>
      </trkpt>
      <trkpt lat="43.502980" lon="-5.651530">
        <ele>26.447</ele>
        <time>2019-03-27T01:16:45Z</time>
      </trkpt>
      <trkpt lat="43.503430" lon="-5.651760">
        <ele>25.720</ele>
        <time>2019-03-27T01:17:05Z</time>
      </trkpt>
      <trkpt lat="43.503600" lon="-5.651780">
        <ele>25.312</ele>
        <time>2019-03-27T01:17:25Z</time>
      </trkpt>
      <trkpt lat="43.503900" lon="-5.651690">
        <ele>24.849</ele>
        <time>2019-03-27T01:17:45Z</time>
      </trkpt>
      <trkpt lat="43.504450" lon="-5.651690">
        <ele>24.402</ele>
        <time>2019-03-27T01:18:05Z</time>
      </trkpt>
      <trkpt lat="43.504610" lon="-5.651740">
        <ele>24.422</ele>
        <time>2019-03-27T01:18:25Z</time>
      </trkpt>
      <trkpt lat="43.504820" lon="-5.651860">
        <ele>24.308</ele>
        <time>2019-03-27T01:18:45Z</time>
      </trkpt>
      <trkpt lat="43.505130" lon="-5.652110">
        <ele>24.057</ele>
        <time>2019-03-27T01:19:05Z</time>
      </trkpt>
      <trkpt lat="43.505740" lon="-5.652260">
        <ele>24.388</ele>
        <time>2019-03-27T01:19:25Z</time>
      </trkpt>
      <trkpt lat="43.505870" lon="-5.652230">
        <ele>24.799</ele>
        <time>2019-03-27T01:19:45Z</time>
      </trkpt>
      <trkpt lat="43.505970" lon="-5.652280">
        <ele>24.768</ele>
        <time>2019-03-27T01:20:05Z</time>
      </trkpt>
      <trkpt lat="43.506150" lon="-5.652540">
        <ele>24.810</ele>
        <time>2019-03-27T01:20:25Z</time>
      </trkpt>
      <trkpt lat="43.506280" lon="-5.652650">
        <ele>24.858</ele>
        <time>2019-03-27T01:20:45Z</time>
      </trkpt>
      <trkpt lat="43.506350" lon="-5.652840">
        <ele>25.091</ele>
        <time>2019-03-27T01:21:05Z</time>
      </trkpt>
      <trkpt lat="43.506610" lon="-5.653030">
        <ele>25.013</ele>
        <time>2019-03-27T01:21:25Z</time>
      </trkpt>
      <trkpt lat="43.506760" lon="-5.653210">
        <ele>25.357</ele>
        <time>2019-03-27T01:21:45Z</time>
      </trkpt>
      <trkpt lat="43.506890" lon="-5.653660">
        <ele>25.300</ele>
        <time>2019-03-27T01:22:05Z</time>
      </trkpt>
      <trkpt lat="43.506980" lon="-5.653850">
        <ele>25.520</ele>
        <time>2019-03-27T01:22:25Z</time>
      </trkpt>
      <trkpt lat="43.507140" lon="-5.654080">
        <ele>25.508</ele>
        <time>2019-03-27T01:22:45Z</time>
      </trkpt>
      <trkpt lat="43.507280" lon="-5.654150">
        <ele>25.718</ele>
        <time>2019-03-27T01:23:05Z</time>
      </trkpt>
      <trkpt lat="43.507550" lon="-5.654100">
        <ele>25.949</ele>
        <time>2019-03-27T01:23:25Z</time>
      </trkpt>
      <trkpt lat="43.507610" lon="-5.654120">
        <ele>26.490</ele>
        <time>2019-03-27T01:23:45Z</time>
      </trkpt>
      <trkpt lat="43.507940" lon="-5.654640">
        <ele>28.299</ele>
        <time>2019-03-27T01:24:05Z</time>
      </trkpt>
      <trkpt lat="43.508010" lon="-5.654690">
        <ele>28.071</ele>
        <time>2019-03-27T01:24:25Z</time>
      </trkpt>
      <trkpt lat="43.508250" lon="-5.654740">
        <ele>27.049</ele>
        <time>2019-03-27T01:24:45Z</time>
      </trkpt>
      <trkpt lat="43.508370" lon="-5.654810">
        <ele>26.972</ele>
        <time>2019-03-27T01:25:05Z</time>
      </trkpt>
      <trkpt lat="43.508610" lon="-5.655040">
        <ele>27.074</ele>
        <time>2019-03-27T01:25:25Z</time>
      </trkpt>
      <trkpt lat="43.508710" lon="-5.655190">
        <ele>27.545</ele>
        <time>2019-03-27T01:25:45Z</time>
      </trkpt>
      <trkpt lat="43.508820" lon="-5.655310">
        <ele>27.847</ele>
        <time>2019-03-27T01:26:05Z</time>
      </trkpt>
      <trkpt lat="43.509190" lon="-5.655470">
        <ele>29.211</ele>
        <time>2019-03-27T01:26:25Z</time>
      </trkpt>
      <trkpt lat="43.509260" lon="-5.655470">
        <ele>29.308</ele>
        <time>2019-03-27T01:26:45Z</time>
      </trkpt>
      <trkpt lat="43.509510" lon="-5.655380">
        <ele>27.427</ele>
        <time>2019-03-27T01:27:05Z</time>
      </trkpt>
      <trkpt lat="43.509810" lon="-5.655510">
        <ele>26.098</ele>
        <time>2019-03-27T01:27:25Z</time>
      </trkpt>
      <trkpt lat="43.509980" lon="-5.655630">
        <ele>25.759</ele>
        <time>2019-03-27T01:27:45Z</time>
      </trkpt>
      <trkpt lat="43.510310" lon="-5.656030">
        <ele>25.888</ele>
        <time>2019-03-27T01:28:05Z</time>
      </trkpt>
      <trkpt lat="43.510400" lon="-5.656100">
        <ele>25.930</ele>
        <time>2019-03-27T01:28:25Z</time>
      </trkpt>
      <trkpt lat="43.510500" lon="-5.656120">
        <ele>25.838</ele>
        <time>2019-03-27T01:28:45Z</time>
      </trkpt>
      <trkpt lat="43.510590" lon="-5.656080">
        <ele>25.711</ele>
        <time>2019-03-27T01:29:05Z</time>
      </trkpt>
      <trkpt lat="43.510630" lon="-5.656080">
        <ele>25.743</ele>
        <time>2019-03-27T01:29:25Z</time>
      </trkpt>
      <trkpt lat="43.511210" lon="-5.656120">
        <ele>25.239</ele>
        <time>2019-03-27T01:29:45Z</time>
      </trkpt>
      <trkpt lat="43.511310" lon="-5.656100">
        <ele>25.201</ele>
        <time>2019-03-27T01:30:05Z</time>
      </trkpt>
      <trkpt lat="43.511530" lon="-5.655990">
        <ele>25.021</ele>
        <time>2019-03-27T01:30:25Z</time>
      </trkpt>
      <trkpt lat="43.511660" lon="-5.656050">
        <ele>25.008</ele>
        <time>2019-03-27T01:30:45Z</time>
      </trkpt>
      <trkpt lat="43.511830" lon="-5.656170">
        <ele>24.816</ele>
        <time>2019-03-27T01:31:05Z</time>
      </trkpt>
      <trkpt lat="43.511900" lon="-5.656240">
        <ele>24.857</ele>
        <time>2019-03-27T01:31:25Z</time>
      </trkpt>
      <trkpt lat="43.512010" lon="-5.656400">
        <ele>24.558</ele>
        <time>2019-03-27T01:31:45Z</time>
      </trkpt>
      <trkpt lat="43.512200" lon="-5.656460">
        <ele>24.197</ele>
        <time>2019-03-27T01:32:05Z</time>
      </trkpt>
      <trkpt lat="43.512240" lon="-5.656350">
        <ele>24.199</ele>
        <time>2019-03-27T01:32:25Z</time>
      </trkpt>
      <trkpt lat="43.512570" lon="-5.655920">
        <ele>19.757</ele>
        <time>2019-03-27T01:32:45Z</time>
      </trkpt>
      <trkpt lat="43.512900" lon="-5.655490">
        <ele>19.150</ele>
        <time>2019-03-27T01:33:05Z</time>
      </trkpt>
      <trkpt lat="43.513140" lon="-5.655350">
        <ele>19.182</ele>
        <time>2019-03-27T01:33:25Z</time>
      </trkpt>
      <trkpt lat="43.513250" lon="-5.655240">
        <ele>19.117</ele>
        <time>2019-03-27T01:33:45Z</time>
      </trkpt>
      <trkpt lat="43.513340" lon="-5.655110">
        <ele>19.187</ele>
        <time>2019-03-27T01:34:05Z</time>
      </trkpt>
      <trkpt lat="43.513460" lon="-5.654900">
        <ele>18.315</ele>
        <time>2019-03-27T01:34:25Z</time>
      </trkpt>
      <trkpt lat="43.513560" lon="-5.654640">
        <ele>18.308</ele>
        <time>2019-03-27T01:34:45Z</time>
      </trkpt>
      <trkpt lat="43.513730" lon="-5.654670">
        <ele>17.934</ele>
        <time>2019-03-27T01:35:05Z</time>
      </trkpt>
      <trkpt lat="43.514110" lon="-5.654480">
        <ele>16.755</ele>
        <time>2019-03-27T01:35:25Z</time>
      </trkpt>
      <trkpt lat="43.514540" lon="-5.654340">
        <ele>16.696</ele>
        <time>2019-03-27T01:35:45Z</time>
      </trkpt>
      <trkpt lat="43.515220" lon="-5.654530">
        <ele>18.125</ele>
        <time>2019-03-27T01:36:05Z</time>
      </trkpt>
      <trkpt lat="43.515430" lon="-5.654670">
        <ele>18.497</ele>
        <time>2019-03-27T01:36:25Z</time>
      </trkpt>
      <trkpt lat="43.515540" lon="-5.654670">
        <ele>19.195</ele>
        <time>2019-03-27T01:36:45Z</time>
      </trkpt>
      <trkpt lat="43.516140" lon="-5.654760">
        <ele>21.038</ele>
        <time>2019-03-27T01:37:05Z</time>
      </trkpt>
      <trkpt lat="43.516480" lon="-5.654900">
        <ele>20.280</ele>
        <time>2019-03-27T01:37:25Z</time>
      </trkpt>
      <trkpt lat="43.516700" lon="-5.655090">
        <ele>18.515</ele>
        <time>2019-03-27T01:37:45Z</time>
      </trkpt>
      <trkpt lat="43.517040" lon="-5.655540">
        <ele>16.465</ele>
        <time>2019-03-27T01:38:05Z</time>
      </trkpt>
      <trkpt lat="43.517310" lon="-5.655720">
        <ele>16.311</ele>
        <time>2019-03-27T01:38:25Z</time>
      </trkpt>
      <trkpt lat="43.518070" lon="-5.655770">
        <ele>14.408</ele>
        <time>2019-03-27T01:38:45Z</time>
      </trkpt>
      <trkpt lat="43.518250" lon="-5.655700">
        <ele>14.274</ele>
        <time>2019-03-27T01:39:05Z</time>
      </trkpt>
      <trkpt lat="43.518650" lon="-5.655190">
        <ele>14.465</ele>
        <time>2019-03-27T01:39:25Z</time>
      </trkpt>
      <trkpt lat="43.519035" lon="-5.654800">
        <ele>14.676</ele>
        <time>2019-03-27T01:39:45Z</time>
      </trkpt>
      <trkpt lat="43.519420" lon="-5.654410">
        <ele>14.375</ele>
        <time>2019-03-27T01:40:05Z</time>
      </trkpt>
      <trkpt lat="43.519590" lon="-5.654100">
        <ele>13.747</ele>
        <time>2019-03-27T01:40:25Z</time>
      </trkpt>
      <trkpt lat="43.519640" lon="-5.654060">
        <ele>13.765</ele>
        <time>2019-03-27T01:40:45Z</time>
      </trkpt>
      <trkpt lat="43.519680" lon="-5.654060">
        <ele>13.778</ele>
        <time>2019-03-27T01:41:05Z</time>
      </trkpt>
      <trkpt lat="43.519950" lon="-5.654360">
        <ele>13.870</ele>
        <time>2019-03-27T01:41:25Z</time>
      </trkpt>
      <trkpt lat="43.520030" lon="-5.654270">
        <ele>13.763</ele>
        <time>2019-03-27T01:41:45Z</time>
      </trkpt>
      <trkpt lat="43.520120" lon="-5.654220">
        <ele>13.644</ele>
        <time>2019-03-27T01:42:05Z</time>
      </trkpt>
      <trkpt lat="43.520530" lon="-5.654140">
        <ele>13.518</ele>
        <time>2019-03-27T01:42:25Z</time>
      </trkpt>
      <trkpt lat="43.520710" lon="-5.654150">
        <ele>13.408</ele>
        <time>2019-03-27T01:42:45Z</time>
      </trkpt>
      <trkpt lat="43.520780" lon="-5.654110">
        <ele>13.429</ele>
        <time>2019-03-27T01:43:05Z</time>
      </trkpt>
      <trkpt lat="43.520990" lon="-5.654050">
        <ele>13.270</ele>
        <time>2019-03-27T01:43:25Z</time>
      </trkpt>
      <trkpt lat="43.521100" lon="-5.654500">
        <ele>14.761</ele>
        <time>2019-03-27T01:43:45Z</time>
      </trkpt>
      <trkpt lat="43.521180" lon="-5.654970">
        <ele>16.610</ele>
        <time>2019-03-27T01:44:05Z</time>
      </trkpt>
      <trkpt lat="43.521340" lon="-5.655460">
        <ele>20.342</ele>
        <time>2019-03-27T01:44:25Z</time>
      </trkpt>
      <trkpt lat="43.522145" lon="-5.655005">
        <ele>20.140</ele>
        <time>2019-03-27T01:44:45Z</time>
      </trkpt>
      <trkpt lat="43.522950" lon="-5.654550">
        <ele>20.243</ele>
        <time>2019-03-27T01:45:05Z</time>
      </trkpt>
      <trkpt lat="43.523100" lon="-5.654430">
        <ele>18.815</ele>
        <time>2019-03-27T01:45:25Z</time>
      </trkpt>
      <trkpt lat="43.523290" lon="-5.654200">
        <ele>18.886</ele>
        <time>2019-03-27T01:45:45Z</time>
      </trkpt>
      <trkpt lat="43.523470" lon="-5.653920">
        <ele>18.360</ele>
        <time>2019-03-27T01:46:05Z</time>
      </trkpt>
      <trkpt lat="43.523996" lon="-5.653014">
        <ele>15.226</ele>
        <time>2019-03-27T01:46:25Z</time>
      </trkpt>
      <trkpt lat="43.524522" lon="-5.652108">
        <ele>11.408</ele>
        <time>2019-03-27T01:46:45Z</time>
      </trkpt>
      <trkpt lat="43.525048" lon="-5.651202">
        <ele>14.131</ele>
        <time>2019-03-27T01:47:05Z</time>
      </trkpt>
      <trkpt lat="43.525574" lon="-5.650296">
        <ele>14.432</ele>
        <time>2019-03-27T01:47:25Z</time>
      </trkpt>
      <trkpt lat="43.526100" lon="-5.649390">
        <ele>14.483</ele>
        <time>2019-03-27T01:47:45Z</time>
      </trkpt>
      <trkpt lat="43.526170" lon="-5.649490">
        <ele>14.742</ele>
        <time>2019-03-27T01:48:05Z</time>
      </trkpt>
      <trkpt lat="43.526810" lon="-5.650210">
        <ele>22.624</ele>
        <time>2019-03-27T01:48:25Z</time>
      </trkpt>
      <trkpt lat="43.526890" lon="-5.650260">
        <ele>22.692</ele>
        <time>2019-03-27T01:48:45Z</time>
      </trkpt>
    </trkseg>
  </trk>
</gpx>
